<?xml version="1.0" encoding="UTF-8"?>
<gpx xmlns:xsi="http://www.w3.org/2001/XMLSchema-instance" xmlns="http://www.topografix.com/GPX/1/0" version="1.0" xsi:schemaLocation="http://www.topografix.com/GPX/1/0 http://www.topografix.com/GPX/1/0/gpx.xsd" creator="gpx.py -- https://github.com/tkrajina/gpxpy">
<name>成都-理塘-稻城-香格里拉-丽江-大理</name>
<desc>行者骑行软件</desc>
<author>行者骑行软件</author>
<url>http://www.imxingzhe.com</url>
<urlname>行者骑行软件</urlname>
<time>2015-08-05T23:04:43Z</time>
<keywords>行者骑行软件</keywords>
<distance>1418.0</distance>
<trk>
<name>行者骑行软件</name>
<desc/>
<trkseg>
<trkpt lat="30.732304" lon="104.097685">
<time>2015-08-05T23:04:43Z</time></trkpt>
<trkpt lat="30.731915" lon="104.097455">
<time>2015-08-05T23:04:44Z</time></trkpt>
<trkpt lat="30.731385" lon="104.097135">
<time>2015-08-05T23:04:45Z</time></trkpt>
<trkpt lat="30.730835" lon="104.096795">
<time>2015-08-05T23:04:46Z</time></trkpt>
<trkpt lat="30.730215" lon="104.096415">
<time>2015-08-05T23:04:47Z</time></trkpt>
<trkpt lat="30.729836" lon="104.096195">
<time>2015-08-05T23:04:48Z</time></trkpt>
<trkpt lat="30.729616" lon="104.096075">
<time>2015-08-05T23:04:49Z</time></trkpt>
<trkpt lat="30.729476" lon="104.095885">
<time>2015-08-05T23:04:50Z</time></trkpt>
<trkpt lat="30.729426" lon="104.095825">
<time>2015-08-05T23:04:51Z</time></trkpt>
<trkpt lat="30.729396" lon="104.095795">
<time>2015-08-05T23:04:52Z</time></trkpt>
<trkpt lat="30.729356" lon="104.095755">
<time>2015-08-05T23:04:53Z</time></trkpt>
<trkpt lat="30.729336" lon="104.095725">
<time>2015-08-05T23:04:54Z</time></trkpt>
<trkpt lat="30.729306" lon="104.095705">
<time>2015-08-05T23:04:55Z</time></trkpt>
<trkpt lat="30.729246" lon="104.095665">
<time>2015-08-05T23:04:56Z</time></trkpt>
<trkpt lat="30.728806" lon="104.095385">
<time>2015-08-05T23:04:57Z</time></trkpt>
<trkpt lat="30.728136" lon="104.094965">
<time>2015-08-05T23:04:58Z</time></trkpt>
<trkpt lat="30.727077" lon="104.094316">
<time>2015-08-05T23:04:59Z</time></trkpt>
<trkpt lat="30.726757" lon="104.094116">
<time>2015-08-05T23:05:00Z</time></trkpt>
<trkpt lat="30.726637" lon="104.094036">
<time>2015-08-05T23:05:01Z</time></trkpt>
<trkpt lat="30.726427" lon="104.093896">
<time>2015-08-05T23:05:02Z</time></trkpt>
<trkpt lat="30.726407" lon="104.093886">
<time>2015-08-05T23:05:03Z</time></trkpt>
<trkpt lat="30.726397" lon="104.093876">
<time>2015-08-05T23:05:04Z</time></trkpt>
<trkpt lat="30.726377" lon="104.093856">
<time>2015-08-05T23:05:05Z</time></trkpt>
<trkpt lat="30.726367" lon="104.093836">
<time>2015-08-05T23:05:06Z</time></trkpt>
<trkpt lat="30.726317" lon="104.093746">
<time>2015-08-05T23:05:07Z</time></trkpt>
<trkpt lat="30.726247" lon="104.093626">
<time>2015-08-05T23:05:08Z</time></trkpt>
<trkpt lat="30.726237" lon="104.093606">
<time>2015-08-05T23:05:09Z</time></trkpt>
<trkpt lat="30.726227" lon="104.093596">
<time>2015-08-05T23:05:10Z</time></trkpt>
<trkpt lat="30.726207" lon="104.093576">
<time>2015-08-05T23:05:11Z</time></trkpt>
<trkpt lat="30.726088" lon="104.093466">
<time>2015-08-05T23:05:12Z</time></trkpt>
<trkpt lat="30.726088" lon="104.093466">
<time>2015-08-05T23:05:13Z</time></trkpt>
<trkpt lat="30.726118" lon="104.093396">
<time>2015-08-05T23:05:14Z</time></trkpt>
<trkpt lat="30.726128" lon="104.093366">
<time>2015-08-05T23:05:15Z</time></trkpt>
<trkpt lat="30.726138" lon="104.093336">
<time>2015-08-05T23:05:16Z</time></trkpt>
<trkpt lat="30.726138" lon="104.093306">
<time>2015-08-05T23:05:17Z</time></trkpt>
<trkpt lat="30.726148" lon="104.093266">
<time>2015-08-05T23:05:18Z</time></trkpt>
<trkpt lat="30.726148" lon="104.093246">
<time>2015-08-05T23:05:19Z</time></trkpt>
<trkpt lat="30.726158" lon="104.093206">
<time>2015-08-05T23:05:20Z</time></trkpt>
<trkpt lat="30.726158" lon="104.093166">
<time>2015-08-05T23:05:21Z</time></trkpt>
<trkpt lat="30.726158" lon="104.093036">
<time>2015-08-05T23:05:22Z</time></trkpt>
<trkpt lat="30.726188" lon="104.092086">
<time>2015-08-05T23:05:23Z</time></trkpt>
<trkpt lat="30.726218" lon="104.091067">
<time>2015-08-05T23:05:24Z</time></trkpt>
<trkpt lat="30.726218" lon="104.091037">
<time>2015-08-05T23:05:25Z</time></trkpt>
<trkpt lat="30.726218" lon="104.091017">
<time>2015-08-05T23:05:26Z</time></trkpt>
<trkpt lat="30.726218" lon="104.090987">
<time>2015-08-05T23:05:27Z</time></trkpt>
<trkpt lat="30.726218" lon="104.090957">
<time>2015-08-05T23:05:28Z</time></trkpt>
<trkpt lat="30.726218" lon="104.090937">
<time>2015-08-05T23:05:29Z</time></trkpt>
<trkpt lat="30.726208" lon="104.090907">
<time>2015-08-05T23:05:30Z</time></trkpt>
<trkpt lat="30.726208" lon="104.090897">
<time>2015-08-05T23:05:31Z</time></trkpt>
<trkpt lat="30.726198" lon="104.090877">
<time>2015-08-05T23:05:32Z</time></trkpt>
<trkpt lat="30.726198" lon="104.090857">
<time>2015-08-05T23:05:33Z</time></trkpt>
<trkpt lat="30.726188" lon="104.090847">
<time>2015-08-05T23:05:34Z</time></trkpt>
<trkpt lat="30.726158" lon="104.090797">
<time>2015-08-05T23:05:35Z</time></trkpt>
<trkpt lat="30.726118" lon="104.090757">
<time>2015-08-05T23:05:36Z</time></trkpt>
<trkpt lat="30.725928" lon="104.090547">
<time>2015-08-05T23:05:37Z</time></trkpt>
<trkpt lat="30.725678" lon="104.090287">
<time>2015-08-05T23:05:38Z</time></trkpt>
<trkpt lat="30.725349" lon="104.089937">
<time>2015-08-05T23:05:39Z</time></trkpt>
<trkpt lat="30.725289" lon="104.089877">
<time>2015-08-05T23:05:40Z</time></trkpt>
<trkpt lat="30.725279" lon="104.089847">
<time>2015-08-05T23:05:41Z</time></trkpt>
<trkpt lat="30.725259" lon="104.089828">
<time>2015-08-05T23:05:42Z</time></trkpt>
<trkpt lat="30.725219" lon="104.089738">
<time>2015-08-05T23:05:43Z</time></trkpt>
<trkpt lat="30.725189" lon="104.089658">
<time>2015-08-05T23:05:44Z</time></trkpt>
<trkpt lat="30.725149" lon="104.089598">
<time>2015-08-05T23:05:45Z</time></trkpt>
<trkpt lat="30.725119" lon="104.089568">
<time>2015-08-05T23:05:46Z</time></trkpt>
<trkpt lat="30.725099" lon="104.089548">
<time>2015-08-05T23:05:47Z</time></trkpt>
<trkpt lat="30.725089" lon="104.089518">
<time>2015-08-05T23:05:48Z</time></trkpt>
<trkpt lat="30.725049" lon="104.089488">
<time>2015-08-05T23:05:49Z</time></trkpt>
<trkpt lat="30.725029" lon="104.089478">
<time>2015-08-05T23:05:50Z</time></trkpt>
<trkpt lat="30.724999" lon="104.089458">
<time>2015-08-05T23:05:51Z</time></trkpt>
<trkpt lat="30.724879" lon="104.089398">
<time>2015-08-05T23:05:52Z</time></trkpt>
<trkpt lat="30.724749" lon="104.089328">
<time>2015-08-05T23:05:53Z</time></trkpt>
<trkpt lat="30.724509" lon="104.089208">
<time>2015-08-05T23:05:54Z</time></trkpt>
<trkpt lat="30.724089" lon="104.088998">
<time>2015-08-05T23:05:55Z</time></trkpt>
<trkpt lat="30.724029" lon="104.088948">
<time>2015-08-05T23:05:56Z</time></trkpt>
<trkpt lat="30.724009" lon="104.088938">
<time>2015-08-05T23:05:57Z</time></trkpt>
<trkpt lat="30.723989" lon="104.088928">
<time>2015-08-05T23:05:58Z</time></trkpt>
<trkpt lat="30.723949" lon="104.088868">
<time>2015-08-05T23:05:59Z</time></trkpt>
<trkpt lat="30.72386" lon="104.088748">
<time>2015-08-05T23:06:00Z</time></trkpt>
<trkpt lat="30.72377" lon="104.088608">
<time>2015-08-05T23:06:01Z</time></trkpt>
<trkpt lat="30.72376" lon="104.088578">
<time>2015-08-05T23:06:02Z</time></trkpt>
<trkpt lat="30.72375" lon="104.088548">
<time>2015-08-05T23:06:03Z</time></trkpt>
<trkpt lat="30.72374" lon="104.088528">
<time>2015-08-05T23:06:04Z</time></trkpt>
<trkpt lat="30.72373" lon="104.088488">
<time>2015-08-05T23:06:05Z</time></trkpt>
<trkpt lat="30.72373" lon="104.088458">
<time>2015-08-05T23:06:06Z</time></trkpt>
<trkpt lat="30.72373" lon="104.088428">
<time>2015-08-05T23:06:07Z</time></trkpt>
<trkpt lat="30.72374" lon="104.088408">
<time>2015-08-05T23:06:08Z</time></trkpt>
<trkpt lat="30.72375" lon="104.088378">
<time>2015-08-05T23:06:09Z</time></trkpt>
<trkpt lat="30.72376" lon="104.088348">
<time>2015-08-05T23:06:10Z</time></trkpt>
<trkpt lat="30.72383" lon="104.088228">
<time>2015-08-05T23:06:11Z</time></trkpt>
<trkpt lat="30.72413" lon="104.087739">
<time>2015-08-05T23:06:12Z</time></trkpt>
<trkpt lat="30.72415" lon="104.087719">
<time>2015-08-05T23:06:13Z</time></trkpt>
<trkpt lat="30.72416" lon="104.087709">
<time>2015-08-05T23:06:14Z</time></trkpt>
<trkpt lat="30.72417" lon="104.087699">
<time>2015-08-05T23:06:15Z</time></trkpt>
<trkpt lat="30.72418" lon="104.087699">
<time>2015-08-05T23:06:16Z</time></trkpt>
<trkpt lat="30.72419" lon="104.087699">
<time>2015-08-05T23:06:17Z</time></trkpt>
<trkpt lat="30.7242" lon="104.087689">
<time>2015-08-05T23:06:18Z</time></trkpt>
<trkpt lat="30.72421" lon="104.087689">
<time>2015-08-05T23:06:19Z</time></trkpt>
<trkpt lat="30.72422" lon="104.087699">
<time>2015-08-05T23:06:20Z</time></trkpt>
<trkpt lat="30.72424" lon="104.087699">
<time>2015-08-05T23:06:21Z</time></trkpt>
<trkpt lat="30.72425" lon="104.087699">
<time>2015-08-05T23:06:22Z</time></trkpt>
<trkpt lat="30.72427" lon="104.087709">
<time>2015-08-05T23:06:23Z</time></trkpt>
<trkpt lat="30.72446" lon="104.087799">
<time>2015-08-05T23:06:24Z</time></trkpt>
<trkpt lat="30.7245" lon="104.087829">
<time>2015-08-05T23:06:25Z</time></trkpt>
<trkpt lat="30.72456" lon="104.087869">
<time>2015-08-05T23:06:26Z</time></trkpt>
<trkpt lat="30.724609" lon="104.087899">
<time>2015-08-05T23:06:27Z</time></trkpt>
<trkpt lat="30.724669" lon="104.087929">
<time>2015-08-05T23:06:28Z</time></trkpt>
<trkpt lat="30.724829" lon="104.087999">
<time>2015-08-05T23:06:29Z</time></trkpt>
<trkpt lat="30.724999" lon="104.088069">
<time>2015-08-05T23:06:30Z</time></trkpt>
<trkpt lat="30.725089" lon="104.088098">
<time>2015-08-05T23:06:31Z</time></trkpt>
<trkpt lat="30.725109" lon="104.088108">
<time>2015-08-05T23:06:32Z</time></trkpt>
<trkpt lat="30.725129" lon="104.088118">
<time>2015-08-05T23:06:33Z</time></trkpt>
<trkpt lat="30.725159" lon="104.088118">
<time>2015-08-05T23:06:34Z</time></trkpt>
<trkpt lat="30.725189" lon="104.088118">
<time>2015-08-05T23:06:35Z</time></trkpt>
<trkpt lat="30.725249" lon="104.088118">
<time>2015-08-05T23:06:36Z</time></trkpt>
<trkpt lat="30.725279" lon="104.088108">
<time>2015-08-05T23:06:37Z</time></trkpt>
<trkpt lat="30.725319" lon="104.088098">
<time>2015-08-05T23:06:38Z</time></trkpt>
<trkpt lat="30.725759" lon="104.088029">
<time>2015-08-05T23:06:39Z</time></trkpt>
<trkpt lat="30.725759" lon="104.088029">
<time>2015-08-05T23:06:40Z</time></trkpt>
<trkpt lat="30.725739" lon="104.087719">
<time>2015-08-05T23:06:41Z</time></trkpt>
<trkpt lat="30.725719" lon="104.087409">
<time>2015-08-05T23:06:42Z</time></trkpt>
<trkpt lat="30.725709" lon="104.087339">
<time>2015-08-05T23:06:43Z</time></trkpt>
<trkpt lat="30.725709" lon="104.087289">
<time>2015-08-05T23:06:44Z</time></trkpt>
<trkpt lat="30.725699" lon="104.087239">
<time>2015-08-05T23:06:45Z</time></trkpt>
<trkpt lat="30.725699" lon="104.087189">
<time>2015-08-05T23:06:46Z</time></trkpt>
<trkpt lat="30.725689" lon="104.087149">
<time>2015-08-05T23:06:47Z</time></trkpt>
<trkpt lat="30.725679" lon="104.087089">
<time>2015-08-05T23:06:48Z</time></trkpt>
<trkpt lat="30.725629" lon="104.086919">
<time>2015-08-05T23:06:49Z</time></trkpt>
<trkpt lat="30.725589" lon="104.086799">
<time>2015-08-05T23:06:50Z</time></trkpt>
<trkpt lat="30.725579" lon="104.086779">
<time>2015-08-05T23:06:51Z</time></trkpt>
<trkpt lat="30.725549" lon="104.086699">
<time>2015-08-05T23:06:52Z</time></trkpt>
<trkpt lat="30.72555" lon="104.086639">
<time>2015-08-05T23:06:53Z</time></trkpt>
<trkpt lat="30.72554" lon="104.086599">
<time>2015-08-05T23:06:54Z</time></trkpt>
<trkpt lat="30.72554" lon="104.086539">
<time>2015-08-05T23:06:55Z</time></trkpt>
<trkpt lat="30.72553" lon="104.0864">
<time>2015-08-05T23:06:56Z</time></trkpt>
<trkpt lat="30.72553" lon="104.08634">
<time>2015-08-05T23:06:57Z</time></trkpt>
<trkpt lat="30.72554" lon="104.08629">
<time>2015-08-05T23:06:58Z</time></trkpt>
<trkpt lat="30.72554" lon="104.08628">
<time>2015-08-05T23:06:59Z</time></trkpt>
<trkpt lat="30.72554" lon="104.08625">
<time>2015-08-05T23:07:00Z</time></trkpt>
<trkpt lat="30.72555" lon="104.08623">
<time>2015-08-05T23:07:01Z</time></trkpt>
<trkpt lat="30.72556" lon="104.08621">
<time>2015-08-05T23:07:02Z</time></trkpt>
<trkpt lat="30.72567" lon="104.08589">
<time>2015-08-05T23:07:03Z</time></trkpt>
<trkpt lat="30.72578" lon="104.08555">
<time>2015-08-05T23:07:04Z</time></trkpt>
<trkpt lat="30.7258" lon="104.08549">
<time>2015-08-05T23:07:05Z</time></trkpt>
<trkpt lat="30.72581" lon="104.08545">
<time>2015-08-05T23:07:06Z</time></trkpt>
<trkpt lat="30.72582" lon="104.08542">
<time>2015-08-05T23:07:07Z</time></trkpt>
<trkpt lat="30.72582" lon="104.08539">
<time>2015-08-05T23:07:08Z</time></trkpt>
<trkpt lat="30.72582" lon="104.08537">
<time>2015-08-05T23:07:09Z</time></trkpt>
<trkpt lat="30.72583" lon="104.08534">
<time>2015-08-05T23:07:10Z</time></trkpt>
<trkpt lat="30.72583" lon="104.08531">
<time>2015-08-05T23:07:11Z</time></trkpt>
<trkpt lat="30.72583" lon="104.08529">
<time>2015-08-05T23:07:12Z</time></trkpt>
<trkpt lat="30.72583" lon="104.08527">
<time>2015-08-05T23:07:13Z</time></trkpt>
<trkpt lat="30.72583" lon="104.08525">
<time>2015-08-05T23:07:14Z</time></trkpt>
<trkpt lat="30.72583" lon="104.08523">
<time>2015-08-05T23:07:15Z</time></trkpt>
<trkpt lat="30.72582" lon="104.0852">
<time>2015-08-05T23:07:16Z</time></trkpt>
<trkpt lat="30.72581" lon="104.08515">
<time>2015-08-05T23:07:17Z</time></trkpt>
<trkpt lat="30.72581" lon="104.08515">
<time>2015-08-05T23:07:18Z</time></trkpt>
<trkpt lat="30.72571" lon="104.08519">
<time>2015-08-05T23:07:19Z</time></trkpt>
<trkpt lat="30.72567" lon="104.08521">
<time>2015-08-05T23:07:20Z</time></trkpt>
<trkpt lat="30.72558" lon="104.08524">
<time>2015-08-05T23:07:21Z</time></trkpt>
<trkpt lat="30.72538" lon="104.08531">
<time>2015-08-05T23:07:22Z</time></trkpt>
<trkpt lat="30.72508" lon="104.08543">
<time>2015-08-05T23:07:23Z</time></trkpt>
<trkpt lat="30.72502" lon="104.08545">
<time>2015-08-05T23:07:24Z</time></trkpt>
<trkpt lat="30.72495" lon="104.08548">
<time>2015-08-05T23:07:25Z</time></trkpt>
<trkpt lat="30.72488" lon="104.08549">
<time>2015-08-05T23:07:26Z</time></trkpt>
<trkpt lat="30.72477" lon="104.08551">
<time>2015-08-05T23:07:27Z</time></trkpt>
<trkpt lat="30.72469" lon="104.08553">
<time>2015-08-05T23:07:28Z</time></trkpt>
<trkpt lat="30.72464" lon="104.08553">
<time>2015-08-05T23:07:29Z</time></trkpt>
<trkpt lat="30.72456" lon="104.08553">
<time>2015-08-05T23:07:30Z</time></trkpt>
<trkpt lat="30.72449" lon="104.08553">
<time>2015-08-05T23:07:31Z</time></trkpt>
<trkpt lat="30.724421" lon="104.08552">
<time>2015-08-05T23:07:32Z</time></trkpt>
<trkpt lat="30.724321" lon="104.08551">
<time>2015-08-05T23:07:33Z</time></trkpt>
<trkpt lat="30.724241" lon="104.0855">
<time>2015-08-05T23:07:34Z</time></trkpt>
<trkpt lat="30.724101" lon="104.08548">
<time>2015-08-05T23:07:35Z</time></trkpt>
<trkpt lat="30.724081" lon="104.08548">
<time>2015-08-05T23:07:36Z</time></trkpt>
<trkpt lat="30.724051" lon="104.08548">
<time>2015-08-05T23:07:37Z</time></trkpt>
<trkpt lat="30.724011" lon="104.08548">
<time>2015-08-05T23:07:38Z</time></trkpt>
<trkpt lat="30.723851" lon="104.08548">
<time>2015-08-05T23:07:39Z</time></trkpt>
<trkpt lat="30.723791" lon="104.08549">
<time>2015-08-05T23:07:40Z</time></trkpt>
<trkpt lat="30.723671" lon="104.08551">
<time>2015-08-05T23:07:41Z</time></trkpt>
<trkpt lat="30.723601" lon="104.08553">
<time>2015-08-05T23:07:42Z</time></trkpt>
<trkpt lat="30.723591" lon="104.08553">
<time>2015-08-05T23:07:43Z</time></trkpt>
<trkpt lat="30.723561" lon="104.08553">
<time>2015-08-05T23:07:44Z</time></trkpt>
<trkpt lat="30.723491" lon="104.08553">
<time>2015-08-05T23:07:45Z</time></trkpt>
<trkpt lat="30.723271" lon="104.08557">
<time>2015-08-05T23:07:46Z</time></trkpt>
<trkpt lat="30.723031" lon="104.08561">
<time>2015-08-05T23:07:47Z</time></trkpt>
<trkpt lat="30.722811" lon="104.08558">
<time>2015-08-05T23:07:48Z</time></trkpt>
<trkpt lat="30.722811" lon="104.08558">
<time>2015-08-05T23:07:49Z</time></trkpt>
<trkpt lat="30.722831" lon="104.0855">
<time>2015-08-05T23:07:50Z</time></trkpt>
<trkpt lat="30.722972" lon="104.084961">
<time>2015-08-05T23:07:51Z</time></trkpt>
<trkpt lat="30.723192" lon="104.084151">
<time>2015-08-05T23:07:52Z</time></trkpt>
<trkpt lat="30.723522" lon="104.082872">
<time>2015-08-05T23:07:53Z</time></trkpt>
<trkpt lat="30.724033" lon="104.080944">
<time>2015-08-05T23:07:54Z</time></trkpt>
<trkpt lat="30.724314" lon="104.079945">
<time>2015-08-05T23:07:55Z</time></trkpt>
<trkpt lat="30.724354" lon="104.079795">
<time>2015-08-05T23:07:56Z</time></trkpt>
<trkpt lat="30.724615" lon="104.078796">
<time>2015-08-05T23:07:57Z</time></trkpt>
<trkpt lat="30.725196" lon="104.076779">
<time>2015-08-05T23:07:58Z</time></trkpt>
<trkpt lat="30.725768" lon="104.074442">
<time>2015-08-05T23:07:59Z</time></trkpt>
<trkpt lat="30.725828" lon="104.074192">
<time>2015-08-05T23:08:00Z</time></trkpt>
<trkpt lat="30.725828" lon="104.074192">
<time>2015-08-05T23:08:01Z</time></trkpt>
<trkpt lat="30.725868" lon="104.074032">
<time>2015-08-05T23:08:02Z</time></trkpt>
<trkpt lat="30.726099" lon="104.073113">
<time>2015-08-05T23:08:03Z</time></trkpt>
<trkpt lat="30.726189" lon="104.072574">
<time>2015-08-05T23:08:04Z</time></trkpt>
<trkpt lat="30.726209" lon="104.072494">
<time>2015-08-05T23:08:05Z</time></trkpt>
<trkpt lat="30.72627" lon="104.072125">
<time>2015-08-05T23:08:06Z</time></trkpt>
<trkpt lat="30.72634" lon="104.071795">
<time>2015-08-05T23:08:07Z</time></trkpt>
<trkpt lat="30.72641" lon="104.071426">
<time>2015-08-05T23:08:08Z</time></trkpt>
<trkpt lat="30.726451" lon="104.071226">
<time>2015-08-05T23:08:09Z</time></trkpt>
<trkpt lat="30.726471" lon="104.071096">
<time>2015-08-05T23:08:10Z</time></trkpt>
<trkpt lat="30.726521" lon="104.070976">
<time>2015-08-05T23:08:11Z</time></trkpt>
<trkpt lat="30.726611" lon="104.070777">
<time>2015-08-05T23:08:12Z</time></trkpt>
<trkpt lat="30.726954" lon="104.068121">
<time>2015-08-05T23:08:13Z</time></trkpt>
<trkpt lat="30.726995" lon="104.067392">
<time>2015-08-05T23:08:14Z</time></trkpt>
<trkpt lat="30.727208" lon="104.065286">
<time>2015-08-05T23:08:15Z</time></trkpt>
<trkpt lat="30.727238" lon="104.065006">
<time>2015-08-05T23:08:16Z</time></trkpt>
<trkpt lat="30.727379" lon="104.063878">
<time>2015-08-05T23:08:17Z</time></trkpt>
<trkpt lat="30.72742" lon="104.063619">
<time>2015-08-05T23:08:18Z</time></trkpt>
<trkpt lat="30.727511" lon="104.06284">
<time>2015-08-05T23:08:19Z</time></trkpt>
<trkpt lat="30.727602" lon="104.062062">
<time>2015-08-05T23:08:20Z</time></trkpt>
<trkpt lat="30.727663" lon="104.061573">
<time>2015-08-05T23:08:21Z</time></trkpt>
<trkpt lat="30.727875" lon="104.059886">
<time>2015-08-05T23:08:22Z</time></trkpt>
<trkpt lat="30.727896" lon="104.059577">
<time>2015-08-05T23:08:23Z</time></trkpt>
<trkpt lat="30.728078" lon="104.05813">
<time>2015-08-05T23:08:24Z</time></trkpt>
<trkpt lat="30.728119" lon="104.0578">
<time>2015-08-05T23:08:25Z</time></trkpt>
<trkpt lat="30.72821" lon="104.057082">
<time>2015-08-05T23:08:26Z</time></trkpt>
<trkpt lat="30.728331" lon="104.056074">
<time>2015-08-05T23:08:27Z</time></trkpt>
<trkpt lat="30.728342" lon="104.055895">
<time>2015-08-05T23:08:28Z</time></trkpt>
<trkpt lat="30.728352" lon="104.055775">
<time>2015-08-05T23:08:29Z</time></trkpt>
<trkpt lat="30.728372" lon="104.055466">
<time>2015-08-05T23:08:30Z</time></trkpt>
<trkpt lat="30.728567" lon="104.053071">
<time>2015-08-05T23:08:31Z</time></trkpt>
<trkpt lat="30.728597" lon="104.052612">
<time>2015-08-05T23:08:32Z</time></trkpt>
<trkpt lat="30.728741" lon="104.050697">
<time>2015-08-05T23:08:33Z</time></trkpt>
<trkpt lat="30.728803" lon="104.049659">
<time>2015-08-05T23:08:34Z</time></trkpt>
<trkpt lat="30.728823" lon="104.04952">
<time>2015-08-05T23:08:35Z</time></trkpt>
<trkpt lat="30.728875" lon="104.048692">
<time>2015-08-05T23:08:36Z</time></trkpt>
<trkpt lat="30.728886" lon="104.048452">
<time>2015-08-05T23:08:37Z</time></trkpt>
<trkpt lat="30.728896" lon="104.048153">
<time>2015-08-05T23:08:38Z</time></trkpt>
<trkpt lat="30.728887" lon="104.047844">
<time>2015-08-05T23:08:39Z</time></trkpt>
<trkpt lat="30.728867" lon="104.047525">
<time>2015-08-05T23:08:40Z</time></trkpt>
<trkpt lat="30.728848" lon="104.047235">
<time>2015-08-05T23:08:41Z</time></trkpt>
<trkpt lat="30.728829" lon="104.047006">
<time>2015-08-05T23:08:42Z</time></trkpt>
<trkpt lat="30.728779" lon="104.046757">
<time>2015-08-05T23:08:43Z</time></trkpt>
<trkpt lat="30.728779" lon="104.046727">
<time>2015-08-05T23:08:44Z</time></trkpt>
<trkpt lat="30.728779" lon="104.046727">
<time>2015-08-05T23:08:45Z</time></trkpt>
<trkpt lat="30.728539" lon="104.046787">
<time>2015-08-05T23:08:46Z</time></trkpt>
<trkpt lat="30.728339" lon="104.046847">
<time>2015-08-05T23:08:47Z</time></trkpt>
<trkpt lat="30.728189" lon="104.046886">
<time>2015-08-05T23:08:48Z</time></trkpt>
<trkpt lat="30.728189" lon="104.046886">
<time>2015-08-05T23:08:49Z</time></trkpt>
<trkpt lat="30.728159" lon="104.046737">
<time>2015-08-05T23:08:50Z</time></trkpt>
<trkpt lat="30.728041" lon="104.046178">
<time>2015-08-05T23:08:51Z</time></trkpt>
<trkpt lat="30.727981" lon="104.045949">
<time>2015-08-05T23:08:52Z</time></trkpt>
<trkpt lat="30.727981" lon="104.045919">
<time>2015-08-05T23:08:53Z</time></trkpt>
<trkpt lat="30.727941" lon="104.045809">
<time>2015-08-05T23:08:54Z</time></trkpt>
<trkpt lat="30.727912" lon="104.04568">
<time>2015-08-05T23:08:55Z</time></trkpt>
<trkpt lat="30.727743" lon="104.045261">
<time>2015-08-05T23:08:56Z</time></trkpt>
<trkpt lat="30.727693" lon="104.045101">
<time>2015-08-05T23:08:57Z</time></trkpt>
<trkpt lat="30.727604" lon="104.044932">
<time>2015-08-05T23:08:58Z</time></trkpt>
<trkpt lat="30.727385" lon="104.044463">
<time>2015-08-05T23:08:59Z</time></trkpt>
<trkpt lat="30.727355" lon="104.044393">
<time>2015-08-05T23:09:00Z</time></trkpt>
<trkpt lat="30.726867" lon="104.043545">
<time>2015-08-05T23:09:01Z</time></trkpt>
<trkpt lat="30.726708" lon="104.043306">
<time>2015-08-05T23:09:02Z</time></trkpt>
<trkpt lat="30.726438" lon="104.042937">
<time>2015-08-05T23:09:03Z</time></trkpt>
<trkpt lat="30.72608" lon="104.042508">
<time>2015-08-05T23:09:04Z</time></trkpt>
<trkpt lat="30.723728" lon="104.039447">
<time>2015-08-05T23:09:05Z</time></trkpt>
<trkpt lat="30.723628" lon="104.039318">
<time>2015-08-05T23:09:06Z</time></trkpt>
<trkpt lat="30.72323" lon="104.038819">
<time>2015-08-05T23:09:07Z</time></trkpt>
<trkpt lat="30.722333" lon="104.037702">
<time>2015-08-05T23:09:08Z</time></trkpt>
<trkpt lat="30.722074" lon="104.037363">
<time>2015-08-05T23:09:09Z</time></trkpt>
<trkpt lat="30.721795" lon="104.037024">
<time>2015-08-05T23:09:10Z</time></trkpt>
<trkpt lat="30.721765" lon="104.036975">
<time>2015-08-05T23:09:11Z</time></trkpt>
<trkpt lat="30.721725" lon="104.036935">
<time>2015-08-05T23:09:12Z</time></trkpt>
<trkpt lat="30.720459" lon="104.03533">
<time>2015-08-05T23:09:13Z</time></trkpt>
<trkpt lat="30.719991" lon="104.034741">
<time>2015-08-05T23:09:14Z</time></trkpt>
<trkpt lat="30.719662" lon="104.034333">
<time>2015-08-05T23:09:15Z</time></trkpt>
<trkpt lat="30.718905" lon="104.033386">
<time>2015-08-05T23:09:16Z</time></trkpt>
<trkpt lat="30.718736" lon="104.033156">
<time>2015-08-05T23:09:17Z</time></trkpt>
<trkpt lat="30.718237" lon="104.032508">
<time>2015-08-05T23:09:18Z</time></trkpt>
<trkpt lat="30.718158" lon="104.032399">
<time>2015-08-05T23:09:19Z</time></trkpt>
<trkpt lat="30.718088" lon="104.032319">
<time>2015-08-05T23:09:20Z</time></trkpt>
<trkpt lat="30.71768" lon="104.031801">
<time>2015-08-05T23:09:21Z</time></trkpt>
<trkpt lat="30.71763" lon="104.031741">
<time>2015-08-05T23:09:22Z</time></trkpt>
<trkpt lat="30.71756" lon="104.031661">
<time>2015-08-05T23:09:23Z</time></trkpt>
<trkpt lat="30.71749" lon="104.031581">
<time>2015-08-05T23:09:24Z</time></trkpt>
<trkpt lat="30.717122" lon="104.031123">
<time>2015-08-05T23:09:25Z</time></trkpt>
<trkpt lat="30.717092" lon="104.031093">
<time>2015-08-05T23:09:26Z</time></trkpt>
<trkpt lat="30.716653" lon="104.030525">
<time>2015-08-05T23:09:27Z</time></trkpt>
<trkpt lat="30.716444" lon="104.030246">
<time>2015-08-05T23:09:28Z</time></trkpt>
<trkpt lat="30.716404" lon="104.030206">
<time>2015-08-05T23:09:29Z</time></trkpt>
<trkpt lat="30.716305" lon="104.030096">
<time>2015-08-05T23:09:30Z</time></trkpt>
<trkpt lat="30.715458" lon="104.02903">
<time>2015-08-05T23:09:31Z</time></trkpt>
<trkpt lat="30.714342" lon="104.027604">
<time>2015-08-05T23:09:32Z</time></trkpt>
<trkpt lat="30.713924" lon="104.027086">
<time>2015-08-05T23:09:33Z</time></trkpt>
<trkpt lat="30.713724" lon="104.026857">
<time>2015-08-05T23:09:34Z</time></trkpt>
<trkpt lat="30.713436" lon="104.026478">
<time>2015-08-05T23:09:35Z</time></trkpt>
<trkpt lat="30.713296" lon="104.026279">
<time>2015-08-05T23:09:36Z</time></trkpt>
<trkpt lat="30.713017" lon="104.02588">
<time>2015-08-05T23:09:37Z</time></trkpt>
<trkpt lat="30.712988" lon="104.02582">
<time>2015-08-05T23:09:38Z</time></trkpt>
<trkpt lat="30.712729" lon="104.025402">
<time>2015-08-05T23:09:39Z</time></trkpt>
<trkpt lat="30.712639" lon="104.025252">
<time>2015-08-05T23:09:40Z</time></trkpt>
<trkpt lat="30.711993" lon="104.024017">
<time>2015-08-05T23:09:41Z</time></trkpt>
<trkpt lat="30.711625" lon="104.023259">
<time>2015-08-05T23:09:42Z</time></trkpt>
<trkpt lat="30.711625" lon="104.023259">
<time>2015-08-05T23:09:43Z</time></trkpt>
<trkpt lat="30.711029" lon="104.022073">
<time>2015-08-05T23:09:44Z</time></trkpt>
<trkpt lat="30.710502" lon="104.021047">
<time>2015-08-05T23:09:45Z</time></trkpt>
<trkpt lat="30.709886" lon="104.019801">
<time>2015-08-05T23:09:46Z</time></trkpt>
<trkpt lat="30.709816" lon="104.019652">
<time>2015-08-05T23:09:47Z</time></trkpt>
<trkpt lat="30.709657" lon="104.019343">
<time>2015-08-05T23:09:48Z</time></trkpt>
<trkpt lat="30.709469" lon="104.018954">
<time>2015-08-05T23:09:49Z</time></trkpt>
<trkpt lat="30.70929" lon="104.018536">
<time>2015-08-05T23:09:50Z</time></trkpt>
<trkpt lat="30.70923" lon="104.018426">
<time>2015-08-05T23:09:51Z</time></trkpt>
<trkpt lat="30.709161" lon="104.018286">
<time>2015-08-05T23:09:52Z</time></trkpt>
<trkpt lat="30.708912" lon="104.017778">
<time>2015-08-05T23:09:53Z</time></trkpt>
<trkpt lat="30.708733" lon="104.017419">
<time>2015-08-05T23:09:54Z</time></trkpt>
<trkpt lat="30.708604" lon="104.01716">
<time>2015-08-05T23:09:55Z</time></trkpt>
<trkpt lat="30.708376" lon="104.016692">
<time>2015-08-05T23:09:56Z</time></trkpt>
<trkpt lat="30.707739" lon="104.015476">
<time>2015-08-05T23:09:57Z</time></trkpt>
<trkpt lat="30.707412" lon="104.014759">
<time>2015-08-05T23:09:58Z</time></trkpt>
<trkpt lat="30.707184" lon="104.014121">
<time>2015-08-05T23:09:59Z</time></trkpt>
<trkpt lat="30.707094" lon="104.013852">
<time>2015-08-05T23:10:00Z</time></trkpt>
<trkpt lat="30.706847" lon="104.013005">
<time>2015-08-05T23:10:01Z</time></trkpt>
<trkpt lat="30.706343" lon="104.011172">
<time>2015-08-05T23:10:02Z</time></trkpt>
<trkpt lat="30.706184" lon="104.010654">
<time>2015-08-05T23:10:03Z</time></trkpt>
<trkpt lat="30.706135" lon="104.010484">
<time>2015-08-05T23:10:04Z</time></trkpt>
<trkpt lat="30.705888" lon="104.009568">
<time>2015-08-05T23:10:05Z</time></trkpt>
<trkpt lat="30.705888" lon="104.009568">
<time>2015-08-05T23:10:06Z</time></trkpt>
<trkpt lat="30.70566" lon="104.008781">
<time>2015-08-05T23:10:07Z</time></trkpt>
<trkpt lat="30.705492" lon="104.008302">
<time>2015-08-05T23:10:08Z</time></trkpt>
<trkpt lat="30.705333" lon="104.007864">
<time>2015-08-05T23:10:09Z</time></trkpt>
<trkpt lat="30.705115" lon="104.007426">
<time>2015-08-05T23:10:10Z</time></trkpt>
<trkpt lat="30.705035" lon="104.007256">
<time>2015-08-05T23:10:11Z</time></trkpt>
<trkpt lat="30.704587" lon="104.006529">
<time>2015-08-05T23:10:12Z</time></trkpt>
<trkpt lat="30.70408" lon="104.005782">
<time>2015-08-05T23:10:13Z</time></trkpt>
<trkpt lat="30.703841" lon="104.005463">
<time>2015-08-05T23:10:14Z</time></trkpt>
<trkpt lat="30.703632" lon="104.005174">
<time>2015-08-05T23:10:15Z</time></trkpt>
<trkpt lat="30.703532" lon="104.005024">
<time>2015-08-05T23:10:16Z</time></trkpt>
<trkpt lat="30.703393" lon="104.004825">
<time>2015-08-05T23:10:17Z</time></trkpt>
<trkpt lat="30.703264" lon="104.004646">
<time>2015-08-05T23:10:18Z</time></trkpt>
<trkpt lat="30.702846" lon="104.004068">
<time>2015-08-05T23:10:19Z</time></trkpt>
<trkpt lat="30.702547" lon="104.00365">
<time>2015-08-05T23:10:20Z</time></trkpt>
<trkpt lat="30.702318" lon="104.003351">
<time>2015-08-05T23:10:21Z</time></trkpt>
<trkpt lat="30.702169" lon="104.003151">
<time>2015-08-05T23:10:22Z</time></trkpt>
<trkpt lat="30.701681" lon="104.002584">
<time>2015-08-05T23:10:23Z</time></trkpt>
<trkpt lat="30.701412" lon="104.002285">
<time>2015-08-05T23:10:24Z</time></trkpt>
<trkpt lat="30.701033" lon="104.001966">
<time>2015-08-05T23:10:25Z</time></trkpt>
<trkpt lat="30.700704" lon="104.001697">
<time>2015-08-05T23:10:26Z</time></trkpt>
<trkpt lat="30.700375" lon="104.001448">
<time>2015-08-05T23:10:27Z</time></trkpt>
<trkpt lat="30.699976" lon="104.001219">
<time>2015-08-05T23:10:28Z</time></trkpt>
<trkpt lat="30.698988" lon="104.00078">
<time>2015-08-05T23:10:29Z</time></trkpt>
<trkpt lat="30.696801" lon="103.999993">
<time>2015-08-05T23:10:30Z</time></trkpt>
<trkpt lat="30.694654" lon="103.999186">
<time>2015-08-05T23:10:31Z</time></trkpt>
<trkpt lat="30.694525" lon="103.999137">
<time>2015-08-05T23:10:32Z</time></trkpt>
<trkpt lat="30.693596" lon="103.998798">
<time>2015-08-05T23:10:33Z</time></trkpt>
<trkpt lat="30.691839" lon="103.998121">
<time>2015-08-05T23:10:34Z</time></trkpt>
<trkpt lat="30.690482" lon="103.997334">
<time>2015-08-05T23:10:35Z</time></trkpt>
<trkpt lat="30.686621" lon="103.994962">
<time>2015-08-05T23:10:36Z</time></trkpt>
<trkpt lat="30.686132" lon="103.994684">
<time>2015-08-05T23:10:37Z</time></trkpt>
<trkpt lat="30.686032" lon="103.994624">
<time>2015-08-05T23:10:38Z</time></trkpt>
<trkpt lat="30.685174" lon="103.994056">
<time>2015-08-05T23:10:39Z</time></trkpt>
<trkpt lat="30.683748" lon="103.993189">
<time>2015-08-05T23:10:40Z</time></trkpt>
<trkpt lat="30.683668" lon="103.993139">
<time>2015-08-05T23:10:41Z</time></trkpt>
<trkpt lat="30.682221" lon="103.992243">
<time>2015-08-05T23:10:42Z</time></trkpt>
<trkpt lat="30.681433" lon="103.991745">
<time>2015-08-05T23:10:43Z</time></trkpt>
<trkpt lat="30.681373" lon="103.991715">
<time>2015-08-05T23:10:44Z</time></trkpt>
<trkpt lat="30.681303" lon="103.991675">
<time>2015-08-05T23:10:45Z</time></trkpt>
<trkpt lat="30.681224" lon="103.991625">
<time>2015-08-05T23:10:46Z</time></trkpt>
<trkpt lat="30.679627" lon="103.990629">
<time>2015-08-05T23:10:47Z</time></trkpt>
<trkpt lat="30.678799" lon="103.990101">
<time>2015-08-05T23:10:48Z</time></trkpt>
<trkpt lat="30.678211" lon="103.989722">
<time>2015-08-05T23:10:49Z</time></trkpt>
<trkpt lat="30.677961" lon="103.989553">
<time>2015-08-05T23:10:50Z</time></trkpt>
<trkpt lat="30.677772" lon="103.989423">
<time>2015-08-05T23:10:51Z</time></trkpt>
<trkpt lat="30.677253" lon="103.989104">
<time>2015-08-05T23:10:52Z</time></trkpt>
<trkpt lat="30.677203" lon="103.989065">
<time>2015-08-05T23:10:53Z</time></trkpt>
<trkpt lat="30.677053" lon="103.988985">
<time>2015-08-05T23:10:54Z</time></trkpt>
<trkpt lat="30.676994" lon="103.988945">
<time>2015-08-05T23:10:55Z</time></trkpt>
<trkpt lat="30.676914" lon="103.988895">
<time>2015-08-05T23:10:56Z</time></trkpt>
<trkpt lat="30.676784" lon="103.988825">
<time>2015-08-05T23:10:57Z</time></trkpt>
<trkpt lat="30.676435" lon="103.988566">
<time>2015-08-05T23:10:58Z</time></trkpt>
<trkpt lat="30.676395" lon="103.988537">
<time>2015-08-05T23:10:59Z</time></trkpt>
<trkpt lat="30.676375" lon="103.988537">
<time>2015-08-05T23:11:00Z</time></trkpt>
<trkpt lat="30.676355" lon="103.988537">
<time>2015-08-05T23:11:01Z</time></trkpt>
<trkpt lat="30.676345" lon="103.988537">
<time>2015-08-05T23:11:02Z</time></trkpt>
<trkpt lat="30.676325" lon="103.988537">
<time>2015-08-05T23:11:03Z</time></trkpt>
<trkpt lat="30.676295" lon="103.988537">
<time>2015-08-05T23:11:04Z</time></trkpt>
<trkpt lat="30.676265" lon="103.988537">
<time>2015-08-05T23:11:05Z</time></trkpt>
<trkpt lat="30.676245" lon="103.988537">
<time>2015-08-05T23:11:06Z</time></trkpt>
<trkpt lat="30.676225" lon="103.988527">
<time>2015-08-05T23:11:07Z</time></trkpt>
<trkpt lat="30.676195" lon="103.988517">
<time>2015-08-05T23:11:08Z</time></trkpt>
<trkpt lat="30.676175" lon="103.988507">
<time>2015-08-05T23:11:09Z</time></trkpt>
<trkpt lat="30.676155" lon="103.988487">
<time>2015-08-05T23:11:10Z</time></trkpt>
<trkpt lat="30.676135" lon="103.988477">
<time>2015-08-05T23:11:11Z</time></trkpt>
<trkpt lat="30.676115" lon="103.988457">
<time>2015-08-05T23:11:12Z</time></trkpt>
<trkpt lat="30.676096" lon="103.988437">
<time>2015-08-05T23:11:13Z</time></trkpt>
<trkpt lat="30.676086" lon="103.988427">
<time>2015-08-05T23:11:14Z</time></trkpt>
<trkpt lat="30.676066" lon="103.988397">
<time>2015-08-05T23:11:15Z</time></trkpt>
<trkpt lat="30.676056" lon="103.988377">
<time>2015-08-05T23:11:16Z</time></trkpt>
<trkpt lat="30.676046" lon="103.988357">
<time>2015-08-05T23:11:17Z</time></trkpt>
<trkpt lat="30.676036" lon="103.988337">
<time>2015-08-05T23:11:18Z</time></trkpt>
<trkpt lat="30.676026" lon="103.988317">
<time>2015-08-05T23:11:19Z</time></trkpt>
<trkpt lat="30.676026" lon="103.988307">
<time>2015-08-05T23:11:20Z</time></trkpt>
<trkpt lat="30.676016" lon="103.988297">
<time>2015-08-05T23:11:21Z</time></trkpt>
<trkpt lat="30.676016" lon="103.988278">
<time>2015-08-05T23:11:22Z</time></trkpt>
<trkpt lat="30.676016" lon="103.988258">
<time>2015-08-05T23:11:23Z</time></trkpt>
<trkpt lat="30.676016" lon="103.988238">
<time>2015-08-05T23:11:24Z</time></trkpt>
<trkpt lat="30.676006" lon="103.988218">
<time>2015-08-05T23:11:25Z</time></trkpt>
<trkpt lat="30.676006" lon="103.988178">
<time>2015-08-05T23:11:26Z</time></trkpt>
<trkpt lat="30.676016" lon="103.988148">
<time>2015-08-05T23:11:27Z</time></trkpt>
<trkpt lat="30.676017" lon="103.988118">
<time>2015-08-05T23:11:28Z</time></trkpt>
<trkpt lat="30.676027" lon="103.988088">
<time>2015-08-05T23:11:29Z</time></trkpt>
<trkpt lat="30.676037" lon="103.988058">
<time>2015-08-05T23:11:30Z</time></trkpt>
<trkpt lat="30.676047" lon="103.988028">
<time>2015-08-05T23:11:31Z</time></trkpt>
<trkpt lat="30.676067" lon="103.987999">
<time>2015-08-05T23:11:32Z</time></trkpt>
<trkpt lat="30.676087" lon="103.987969">
<time>2015-08-05T23:11:33Z</time></trkpt>
<trkpt lat="30.676107" lon="103.987949">
<time>2015-08-05T23:11:34Z</time></trkpt>
<trkpt lat="30.676127" lon="103.987929">
<time>2015-08-05T23:11:35Z</time></trkpt>
<trkpt lat="30.676207" lon="103.987879">
<time>2015-08-05T23:11:36Z</time></trkpt>
<trkpt lat="30.676177" lon="103.987819">
<time>2015-08-05T23:11:37Z</time></trkpt>
<trkpt lat="30.676088" lon="103.987749">
<time>2015-08-05T23:11:38Z</time></trkpt>
<trkpt lat="30.675619" lon="103.987451">
<time>2015-08-05T23:11:39Z</time></trkpt>
<trkpt lat="30.675499" lon="103.987361">
<time>2015-08-05T23:11:40Z</time></trkpt>
<trkpt lat="30.675459" lon="103.987331">
<time>2015-08-05T23:11:41Z</time></trkpt>
<trkpt lat="30.67522" lon="103.987162">
<time>2015-08-05T23:11:42Z</time></trkpt>
<trkpt lat="30.67511" lon="103.987092">
<time>2015-08-05T23:11:43Z</time></trkpt>
<trkpt lat="30.67499" lon="103.987022">
<time>2015-08-05T23:11:44Z</time></trkpt>
<trkpt lat="30.674861" lon="103.986952">
<time>2015-08-05T23:11:45Z</time></trkpt>
<trkpt lat="30.674322" lon="103.986663">
<time>2015-08-05T23:11:46Z</time></trkpt>
<trkpt lat="30.673773" lon="103.986375">
<time>2015-08-05T23:11:47Z</time></trkpt>
<trkpt lat="30.672036" lon="103.985637">
<time>2015-08-05T23:11:48Z</time></trkpt>
<trkpt lat="30.672036" lon="103.985637">
<time>2015-08-05T23:11:49Z</time></trkpt>
<trkpt lat="30.670957" lon="103.985219">
<time>2015-08-05T23:11:50Z</time></trkpt>
<trkpt lat="30.670878" lon="103.985189">
<time>2015-08-05T23:11:51Z</time></trkpt>
<trkpt lat="30.670798" lon="103.985159">
<time>2015-08-05T23:11:52Z</time></trkpt>
<trkpt lat="30.670678" lon="103.985119">
<time>2015-08-05T23:11:53Z</time></trkpt>
<trkpt lat="30.667503" lon="103.983954">
<time>2015-08-05T23:11:54Z</time></trkpt>
<trkpt lat="30.666664" lon="103.983645">
<time>2015-08-05T23:11:55Z</time></trkpt>
<trkpt lat="30.665925" lon="103.983376">
<time>2015-08-05T23:11:56Z</time></trkpt>
<trkpt lat="30.664777" lon="103.982937">
<time>2015-08-05T23:11:57Z</time></trkpt>
<trkpt lat="30.664687" lon="103.982917">
<time>2015-08-05T23:11:58Z</time></trkpt>
<trkpt lat="30.664547" lon="103.982878">
<time>2015-08-05T23:11:59Z</time></trkpt>
<trkpt lat="30.664278" lon="103.982788">
<time>2015-08-05T23:12:00Z</time></trkpt>
<trkpt lat="30.664168" lon="103.982758">
<time>2015-08-05T23:12:01Z</time></trkpt>
<trkpt lat="30.664008" lon="103.982708">
<time>2015-08-05T23:12:02Z</time></trkpt>
<trkpt lat="30.663858" lon="103.982648">
<time>2015-08-05T23:12:03Z</time></trkpt>
<trkpt lat="30.663429" lon="103.982469">
<time>2015-08-05T23:12:04Z</time></trkpt>
<trkpt lat="30.663329" lon="103.982429">
<time>2015-08-05T23:12:05Z</time></trkpt>
<trkpt lat="30.66285" lon="103.98229">
<time>2015-08-05T23:12:06Z</time></trkpt>
<trkpt lat="30.662171" lon="103.98211">
<time>2015-08-05T23:12:07Z</time></trkpt>
<trkpt lat="30.661721" lon="103.982011">
<time>2015-08-05T23:12:08Z</time></trkpt>
<trkpt lat="30.661641" lon="103.982001">
<time>2015-08-05T23:12:09Z</time></trkpt>
<trkpt lat="30.661501" lon="103.981981">
<time>2015-08-05T23:12:10Z</time></trkpt>
<trkpt lat="30.661341" lon="103.981961">
<time>2015-08-05T23:12:11Z</time></trkpt>
<trkpt lat="30.660452" lon="103.981822">
<time>2015-08-05T23:12:12Z</time></trkpt>
<trkpt lat="30.659053" lon="103.981612">
<time>2015-08-05T23:12:13Z</time></trkpt>
<trkpt lat="30.658534" lon="103.981533">
<time>2015-08-05T23:12:14Z</time></trkpt>
<trkpt lat="30.658054" lon="103.981473">
<time>2015-08-05T23:12:15Z</time></trkpt>
<trkpt lat="30.657675" lon="103.981413">
<time>2015-08-05T23:12:16Z</time></trkpt>
<trkpt lat="30.657185" lon="103.981343">
<time>2015-08-05T23:12:17Z</time></trkpt>
<trkpt lat="30.657175" lon="103.981343">
<time>2015-08-05T23:12:18Z</time></trkpt>
<trkpt lat="30.656675" lon="103.981284">
<time>2015-08-05T23:12:19Z</time></trkpt>
<trkpt lat="30.656446" lon="103.981284">
<time>2015-08-05T23:12:20Z</time></trkpt>
<trkpt lat="30.655916" lon="103.981274">
<time>2015-08-05T23:12:21Z</time></trkpt>
<trkpt lat="30.655546" lon="103.981294">
<time>2015-08-05T23:12:22Z</time></trkpt>
<trkpt lat="30.655106" lon="103.981353">
<time>2015-08-05T23:12:23Z</time></trkpt>
<trkpt lat="30.654626" lon="103.981453">
<time>2015-08-05T23:12:24Z</time></trkpt>
<trkpt lat="30.654056" lon="103.981573">
<time>2015-08-05T23:12:25Z</time></trkpt>
<trkpt lat="30.654056" lon="103.981573">
<time>2015-08-05T23:12:26Z</time></trkpt>
<trkpt lat="30.654038" lon="103.980746">
<time>2015-08-05T23:12:27Z</time></trkpt>
<trkpt lat="30.65408" lon="103.980198">
<time>2015-08-05T23:12:28Z</time></trkpt>
<trkpt lat="30.65408" lon="103.980198">
<time>2015-08-05T23:12:29Z</time></trkpt>
<trkpt lat="30.65377" lon="103.979978">
<time>2015-08-05T23:12:30Z</time></trkpt>
<trkpt lat="30.653062" lon="103.9795">
<time>2015-08-05T23:12:31Z</time></trkpt>
<trkpt lat="30.652643" lon="103.979221">
<time>2015-08-05T23:12:32Z</time></trkpt>
<trkpt lat="30.652224" lon="103.978942">
<time>2015-08-05T23:12:33Z</time></trkpt>
<trkpt lat="30.651755" lon="103.978633">
<time>2015-08-05T23:12:34Z</time></trkpt>
<trkpt lat="30.651755" lon="103.978633">
<time>2015-08-05T23:12:35Z</time></trkpt>
<trkpt lat="30.651057" lon="103.978205">
<time>2015-08-05T23:12:36Z</time></trkpt>
<trkpt lat="30.650767" lon="103.978045">
<time>2015-08-05T23:12:37Z</time></trkpt>
<trkpt lat="30.650388" lon="103.977856">
<time>2015-08-05T23:12:38Z</time></trkpt>
<trkpt lat="30.649829" lon="103.977567">
<time>2015-08-05T23:12:39Z</time></trkpt>
<trkpt lat="30.648811" lon="103.977099">
<time>2015-08-05T23:12:40Z</time></trkpt>
<trkpt lat="30.647883" lon="103.97663">
<time>2015-08-05T23:12:41Z</time></trkpt>
<trkpt lat="30.647883" lon="103.97663">
<time>2015-08-05T23:12:42Z</time></trkpt>
<trkpt lat="30.647784" lon="103.976292">
<time>2015-08-05T23:12:43Z</time></trkpt>
<trkpt lat="30.647625" lon="103.976013">
<time>2015-08-05T23:12:44Z</time></trkpt>
<trkpt lat="30.647615" lon="103.975973">
<time>2015-08-05T23:12:45Z</time></trkpt>
<trkpt lat="30.647585" lon="103.975833">
<time>2015-08-05T23:12:46Z</time></trkpt>
<trkpt lat="30.647387" lon="103.975116">
<time>2015-08-05T23:12:47Z</time></trkpt>
<trkpt lat="30.647298" lon="103.974767">
<time>2015-08-05T23:12:48Z</time></trkpt>
<trkpt lat="30.646962" lon="103.973561">
<time>2015-08-05T23:12:49Z</time></trkpt>
<trkpt lat="30.646962" lon="103.973561">
<time>2015-08-05T23:12:50Z</time></trkpt>
<trkpt lat="30.647002" lon="103.973322">
<time>2015-08-05T23:12:51Z</time></trkpt>
<trkpt lat="30.646864" lon="103.972824">
<time>2015-08-05T23:12:52Z</time></trkpt>
<trkpt lat="30.646795" lon="103.972545">
<time>2015-08-05T23:12:53Z</time></trkpt>
<trkpt lat="30.646577" lon="103.971737">
<time>2015-08-05T23:12:54Z</time></trkpt>
<trkpt lat="30.646557" lon="103.971668">
<time>2015-08-05T23:12:55Z</time></trkpt>
<trkpt lat="30.646547" lon="103.971598">
<time>2015-08-05T23:12:56Z</time></trkpt>
<trkpt lat="30.646359" lon="103.97091">
<time>2015-08-05T23:12:57Z</time></trkpt>
<trkpt lat="30.646171" lon="103.970292">
<time>2015-08-05T23:12:58Z</time></trkpt>
<trkpt lat="30.646061" lon="103.970192">
<time>2015-08-05T23:12:59Z</time></trkpt>
<trkpt lat="30.64533" lon="103.967172">
<time>2015-08-05T23:13:00Z</time></trkpt>
<trkpt lat="30.645004" lon="103.965797">
<time>2015-08-05T23:13:01Z</time></trkpt>
<trkpt lat="30.644628" lon="103.964262">
<time>2015-08-05T23:13:02Z</time></trkpt>
<trkpt lat="30.644509" lon="103.963763">
<time>2015-08-05T23:13:03Z</time></trkpt>
<trkpt lat="30.644282" lon="103.962836">
<time>2015-08-05T23:13:04Z</time></trkpt>
<trkpt lat="30.644034" lon="103.961969">
<time>2015-08-05T23:13:05Z</time></trkpt>
<trkpt lat="30.643608" lon="103.960454">
<time>2015-08-05T23:13:06Z</time></trkpt>
<trkpt lat="30.643102" lon="103.958789">
<time>2015-08-05T23:13:07Z</time></trkpt>
<trkpt lat="30.642884" lon="103.958051">
<time>2015-08-05T23:13:08Z</time></trkpt>
<trkpt lat="30.642626" lon="103.957203">
<time>2015-08-05T23:13:09Z</time></trkpt>
<trkpt lat="30.642309" lon="103.956117">
<time>2015-08-05T23:13:10Z</time></trkpt>
<trkpt lat="30.64216" lon="103.955568">
<time>2015-08-05T23:13:11Z</time></trkpt>
<trkpt lat="30.642131" lon="103.955468">
<time>2015-08-05T23:13:12Z</time></trkpt>
<trkpt lat="30.641565" lon="103.953624">
<time>2015-08-05T23:13:13Z</time></trkpt>
<trkpt lat="30.64095" lon="103.951679">
<time>2015-08-05T23:13:14Z</time></trkpt>
<trkpt lat="30.640364" lon="103.949744">
<time>2015-08-05T23:13:15Z</time></trkpt>
<trkpt lat="30.640096" lon="103.948847">
<time>2015-08-05T23:13:16Z</time></trkpt>
<trkpt lat="30.640076" lon="103.948777">
<time>2015-08-05T23:13:17Z</time></trkpt>
<trkpt lat="30.639868" lon="103.948039">
<time>2015-08-05T23:13:18Z</time></trkpt>
<trkpt lat="30.63963" lon="103.947291">
<time>2015-08-05T23:13:19Z</time></trkpt>
<trkpt lat="30.63958" lon="103.947131">
<time>2015-08-05T23:13:20Z</time></trkpt>
<trkpt lat="30.639371" lon="103.946493">
<time>2015-08-05T23:13:21Z</time></trkpt>
<trkpt lat="30.639361" lon="103.946473">
<time>2015-08-05T23:13:22Z</time></trkpt>
<trkpt lat="30.639083" lon="103.945655">
<time>2015-08-05T23:13:23Z</time></trkpt>
<trkpt lat="30.638725" lon="103.944538">
<time>2015-08-05T23:13:24Z</time></trkpt>
<trkpt lat="30.638517" lon="103.94355">
<time>2015-08-05T23:13:25Z</time></trkpt>
<trkpt lat="30.63833" lon="103.942443">
<time>2015-08-05T23:13:26Z</time></trkpt>
<trkpt lat="30.638113" lon="103.940677">
<time>2015-08-05T23:13:27Z</time></trkpt>
<trkpt lat="30.638094" lon="103.940367">
<time>2015-08-05T23:13:28Z</time></trkpt>
<trkpt lat="30.638084" lon="103.940218">
<time>2015-08-05T23:13:29Z</time></trkpt>
<trkpt lat="30.638064" lon="103.940018">
<time>2015-08-05T23:13:30Z</time></trkpt>
<trkpt lat="30.638054" lon="103.939858">
<time>2015-08-05T23:13:31Z</time></trkpt>
<trkpt lat="30.637967" lon="103.938571">
<time>2015-08-05T23:13:32Z</time></trkpt>
<trkpt lat="30.637899" lon="103.937164">
<time>2015-08-05T23:13:33Z</time></trkpt>
<trkpt lat="30.637899" lon="103.937164">
<time>2015-08-05T23:13:34Z</time></trkpt>
<trkpt lat="30.637705" lon="103.933492">
<time>2015-08-05T23:13:35Z</time></trkpt>
<trkpt lat="30.637676" lon="103.933032">
<time>2015-08-05T23:13:36Z</time></trkpt>
<trkpt lat="30.637657" lon="103.932154">
<time>2015-08-05T23:13:37Z</time></trkpt>
<trkpt lat="30.637612" lon="103.92856">
<time>2015-08-05T23:13:38Z</time></trkpt>
<trkpt lat="30.637593" lon="103.927442">
<time>2015-08-05T23:13:39Z</time></trkpt>
<trkpt lat="30.637574" lon="103.927023">
<time>2015-08-05T23:13:40Z</time></trkpt>
<trkpt lat="30.637556" lon="103.925585">
<time>2015-08-05T23:13:41Z</time></trkpt>
<trkpt lat="30.637508" lon="103.923129">
<time>2015-08-05T23:13:42Z</time></trkpt>
<trkpt lat="30.63747" lon="103.921241">
<time>2015-08-05T23:13:43Z</time></trkpt>
<trkpt lat="30.637461" lon="103.921021">
<time>2015-08-05T23:13:44Z</time></trkpt>
<trkpt lat="30.637432" lon="103.919603">
<time>2015-08-05T23:13:45Z</time></trkpt>
<trkpt lat="30.637432" lon="103.919603">
<time>2015-08-05T23:13:46Z</time></trkpt>
<trkpt lat="30.637492" lon="103.919413">
<time>2015-08-05T23:13:47Z</time></trkpt>
<trkpt lat="30.637482" lon="103.919084">
<time>2015-08-05T23:13:48Z</time></trkpt>
<trkpt lat="30.637454" lon="103.917116">
<time>2015-08-05T23:13:49Z</time></trkpt>
<trkpt lat="30.637435" lon="103.915977">
<time>2015-08-05T23:13:50Z</time></trkpt>
<trkpt lat="30.637435" lon="103.915708">
<time>2015-08-05T23:13:51Z</time></trkpt>
<trkpt lat="30.637416" lon="103.914738">
<time>2015-08-05T23:13:52Z</time></trkpt>
<trkpt lat="30.637406" lon="103.913689">
<time>2015-08-05T23:13:53Z</time></trkpt>
<trkpt lat="30.637377" lon="103.91273">
<time>2015-08-05T23:13:54Z</time></trkpt>
<trkpt lat="30.637318" lon="103.910402">
<time>2015-08-05T23:13:55Z</time></trkpt>
<trkpt lat="30.637308" lon="103.909922">
<time>2015-08-05T23:13:56Z</time></trkpt>
<trkpt lat="30.637299" lon="103.909593">
<time>2015-08-05T23:13:57Z</time></trkpt>
<trkpt lat="30.637289" lon="103.909053">
<time>2015-08-05T23:13:58Z</time></trkpt>
<trkpt lat="30.637279" lon="103.908473">
<time>2015-08-05T23:13:59Z</time></trkpt>
<trkpt lat="30.637259" lon="103.907944">
<time>2015-08-05T23:14:00Z</time></trkpt>
<trkpt lat="30.637259" lon="103.907654">
<time>2015-08-05T23:14:01Z</time></trkpt>
<trkpt lat="30.637249" lon="103.907504">
<time>2015-08-05T23:14:02Z</time></trkpt>
<trkpt lat="30.637249" lon="103.907384">
<time>2015-08-05T23:14:03Z</time></trkpt>
<trkpt lat="30.63724" lon="103.906994">
<time>2015-08-05T23:14:04Z</time></trkpt>
<trkpt lat="30.63724" lon="103.906784">
<time>2015-08-05T23:14:05Z</time></trkpt>
<trkpt lat="30.63723" lon="103.906335">
<time>2015-08-05T23:14:06Z</time></trkpt>
<trkpt lat="30.63721" lon="103.905655">
<time>2015-08-05T23:14:07Z</time></trkpt>
<trkpt lat="30.63721" lon="103.905645">
<time>2015-08-05T23:14:08Z</time></trkpt>
<trkpt lat="30.6372" lon="103.905135">
<time>2015-08-05T23:14:09Z</time></trkpt>
<trkpt lat="30.63719" lon="103.904425">
<time>2015-08-05T23:14:10Z</time></trkpt>
<trkpt lat="30.63719" lon="103.904405">
<time>2015-08-05T23:14:11Z</time></trkpt>
<trkpt lat="30.637121" lon="103.902856">
<time>2015-08-05T23:14:12Z</time></trkpt>
<trkpt lat="30.637111" lon="103.902026">
<time>2015-08-05T23:14:13Z</time></trkpt>
<trkpt lat="30.637111" lon="103.902026">
<time>2015-08-05T23:14:14Z</time></trkpt>
<trkpt lat="30.637041" lon="103.901816">
<time>2015-08-05T23:14:15Z</time></trkpt>
<trkpt lat="30.637041" lon="103.901177">
<time>2015-08-05T23:14:16Z</time></trkpt>
<trkpt lat="30.637041" lon="103.901177">
<time>2015-08-05T23:14:17Z</time></trkpt>
<trkpt lat="30.636951" lon="103.901177">
<time>2015-08-05T23:14:18Z</time></trkpt>
<trkpt lat="30.636951" lon="103.901177">
<time>2015-08-05T23:14:19Z</time></trkpt>
<trkpt lat="30.636941" lon="103.900007">
<time>2015-08-05T23:14:20Z</time></trkpt>
<trkpt lat="30.636891" lon="103.896997">
<time>2015-08-05T23:14:21Z</time></trkpt>
<trkpt lat="30.63683" lon="103.894967">
<time>2015-08-05T23:14:22Z</time></trkpt>
<trkpt lat="30.63683" lon="103.894777">
<time>2015-08-05T23:14:23Z</time></trkpt>
<trkpt lat="30.63681" lon="103.894127">
<time>2015-08-05T23:14:24Z</time></trkpt>
<trkpt lat="30.6368" lon="103.893437">
<time>2015-08-05T23:14:25Z</time></trkpt>
<trkpt lat="30.636719" lon="103.890976">
<time>2015-08-05T23:14:26Z</time></trkpt>
<trkpt lat="30.636639" lon="103.889906">
<time>2015-08-05T23:14:27Z</time></trkpt>
<trkpt lat="30.636518" lon="103.888506">
<time>2015-08-05T23:14:28Z</time></trkpt>
<trkpt lat="30.636157" lon="103.885614">
<time>2015-08-05T23:14:29Z</time></trkpt>
<trkpt lat="30.636077" lon="103.885034">
<time>2015-08-05T23:14:30Z</time></trkpt>
<trkpt lat="30.636077" lon="103.885034">
<time>2015-08-05T23:14:31Z</time></trkpt>
<trkpt lat="30.635997" lon="103.884944">
<time>2015-08-05T23:14:32Z</time></trkpt>
<trkpt lat="30.635886" lon="103.884244">
<time>2015-08-05T23:14:33Z</time></trkpt>
<trkpt lat="30.635455" lon="103.881442">
<time>2015-08-05T23:14:34Z</time></trkpt>
<trkpt lat="30.635093" lon="103.87922">
<time>2015-08-05T23:14:35Z</time></trkpt>
<trkpt lat="30.634721" lon="103.876908">
<time>2015-08-05T23:14:36Z</time></trkpt>
<trkpt lat="30.634641" lon="103.876308">
<time>2015-08-05T23:14:37Z</time></trkpt>
<trkpt lat="30.63452" lon="103.875727">
<time>2015-08-05T23:14:38Z</time></trkpt>
<trkpt lat="30.63441" lon="103.875327">
<time>2015-08-05T23:14:39Z</time></trkpt>
<trkpt lat="30.634309" lon="103.875007">
<time>2015-08-05T23:14:40Z</time></trkpt>
<trkpt lat="30.634139" lon="103.874556">
<time>2015-08-05T23:14:41Z</time></trkpt>
<trkpt lat="30.634039" lon="103.874336">
<time>2015-08-05T23:14:42Z</time></trkpt>
<trkpt lat="30.633969" lon="103.874206">
<time>2015-08-05T23:14:43Z</time></trkpt>
<trkpt lat="30.633909" lon="103.874106">
<time>2015-08-05T23:14:44Z</time></trkpt>
<trkpt lat="30.633789" lon="103.873906">
<time>2015-08-05T23:14:45Z</time></trkpt>
<trkpt lat="30.633608" lon="103.873635">
<time>2015-08-05T23:14:46Z</time></trkpt>
<trkpt lat="30.633118" lon="103.873095">
<time>2015-08-05T23:14:47Z</time></trkpt>
<trkpt lat="30.632528" lon="103.872524">
<time>2015-08-05T23:14:48Z</time></trkpt>
<trkpt lat="30.632238" lon="103.872354">
<time>2015-08-05T23:14:49Z</time></trkpt>
<trkpt lat="30.631828" lon="103.872224">
<time>2015-08-05T23:14:50Z</time></trkpt>
<trkpt lat="30.631828" lon="103.872224">
<time>2015-08-05T23:14:51Z</time></trkpt>
<trkpt lat="30.627888" lon="103.870913">
<time>2015-08-05T23:14:52Z</time></trkpt>
<trkpt lat="30.627068" lon="103.870642">
<time>2015-08-05T23:14:53Z</time></trkpt>
<trkpt lat="30.623818" lon="103.869521">
<time>2015-08-05T23:14:54Z</time></trkpt>
<trkpt lat="30.620208" lon="103.8683">
<time>2015-08-05T23:14:55Z</time></trkpt>
<trkpt lat="30.615488" lon="103.866668">
<time>2015-08-05T23:14:56Z</time></trkpt>
<trkpt lat="30.614968" lon="103.866488">
<time>2015-08-05T23:14:57Z</time></trkpt>
<trkpt lat="30.614918" lon="103.866468">
<time>2015-08-05T23:14:58Z</time></trkpt>
<trkpt lat="30.613538" lon="103.866007">
<time>2015-08-05T23:14:59Z</time></trkpt>
<trkpt lat="30.612528" lon="103.865667">
<time>2015-08-05T23:15:00Z</time></trkpt>
<trkpt lat="30.612438" lon="103.865637">
<time>2015-08-05T23:15:01Z</time></trkpt>
<trkpt lat="30.606087" lon="103.863424">
<time>2015-08-05T23:15:02Z</time></trkpt>
<trkpt lat="30.606057" lon="103.863404">
<time>2015-08-05T23:15:03Z</time></trkpt>
<trkpt lat="30.606007" lon="103.863384">
<time>2015-08-05T23:15:04Z</time></trkpt>
<trkpt lat="30.603507" lon="103.862443">
<time>2015-08-05T23:15:05Z</time></trkpt>
<trkpt lat="30.598066" lon="103.86062">
<time>2015-08-05T23:15:06Z</time></trkpt>
<trkpt lat="30.596306" lon="103.86002">
<time>2015-08-05T23:15:07Z</time></trkpt>
<trkpt lat="30.594676" lon="103.859479">
<time>2015-08-05T23:15:08Z</time></trkpt>
<trkpt lat="30.594616" lon="103.859459">
<time>2015-08-05T23:15:09Z</time></trkpt>
<trkpt lat="30.594556" lon="103.859439">
<time>2015-08-05T23:15:10Z</time></trkpt>
<trkpt lat="30.592756" lon="103.858798">
<time>2015-08-05T23:15:11Z</time></trkpt>
<trkpt lat="30.587775" lon="103.857035">
<time>2015-08-05T23:15:12Z</time></trkpt>
<trkpt lat="30.587725" lon="103.857015">
<time>2015-08-05T23:15:13Z</time></trkpt>
<trkpt lat="30.587665" lon="103.856995">
<time>2015-08-05T23:15:14Z</time></trkpt>
<trkpt lat="30.586785" lon="103.856685">
<time>2015-08-05T23:15:15Z</time></trkpt>
<trkpt lat="30.583344" lon="103.855463">
<time>2015-08-05T23:15:16Z</time></trkpt>
<trkpt lat="30.580113" lon="103.854081">
<time>2015-08-05T23:15:17Z</time></trkpt>
<trkpt lat="30.580113" lon="103.854081">
<time>2015-08-05T23:15:18Z</time></trkpt>
<trkpt lat="30.580053" lon="103.853991">
<time>2015-08-05T23:15:19Z</time></trkpt>
<trkpt lat="30.580043" lon="103.853891">
<time>2015-08-05T23:15:20Z</time></trkpt>
<trkpt lat="30.580033" lon="103.853821">
<time>2015-08-05T23:15:21Z</time></trkpt>
<trkpt lat="30.579972" lon="103.85334">
<time>2015-08-05T23:15:22Z</time></trkpt>
<trkpt lat="30.579972" lon="103.8533">
<time>2015-08-05T23:15:23Z</time></trkpt>
<trkpt lat="30.579901" lon="103.852729">
<time>2015-08-05T23:15:24Z</time></trkpt>
<trkpt lat="30.579516" lon="103.849824">
<time>2015-08-05T23:15:25Z</time></trkpt>
<trkpt lat="30.579405" lon="103.849063">
<time>2015-08-05T23:15:26Z</time></trkpt>
<trkpt lat="30.579365" lon="103.848722">
<time>2015-08-05T23:15:27Z</time></trkpt>
<trkpt lat="30.579344" lon="103.848351">
<time>2015-08-05T23:15:28Z</time></trkpt>
<trkpt lat="30.579334" lon="103.848011">
<time>2015-08-05T23:15:29Z</time></trkpt>
<trkpt lat="30.579343" lon="103.8476">
<time>2015-08-05T23:15:30Z</time></trkpt>
<trkpt lat="30.579381" lon="103.846628">
<time>2015-08-05T23:15:31Z</time></trkpt>
<trkpt lat="30.579391" lon="103.846378">
<time>2015-08-05T23:15:32Z</time></trkpt>
<trkpt lat="30.579535" lon="103.842891">
<time>2015-08-05T23:15:33Z</time></trkpt>
<trkpt lat="30.579573" lon="103.84198">
<time>2015-08-05T23:15:34Z</time></trkpt>
<trkpt lat="30.579689" lon="103.839846">
<time>2015-08-05T23:15:35Z</time></trkpt>
<trkpt lat="30.579738" lon="103.839274">
<time>2015-08-05T23:15:36Z</time></trkpt>
<trkpt lat="30.579768" lon="103.839134">
<time>2015-08-05T23:15:37Z</time></trkpt>
<trkpt lat="30.579926" lon="103.838473">
<time>2015-08-05T23:15:38Z</time></trkpt>
<trkpt lat="30.580732" lon="103.836239">
<time>2015-08-05T23:15:39Z</time></trkpt>
<trkpt lat="30.580861" lon="103.835868">
<time>2015-08-05T23:15:40Z</time></trkpt>
<trkpt lat="30.580991" lon="103.835497">
<time>2015-08-05T23:15:41Z</time></trkpt>
<trkpt lat="30.580991" lon="103.835457">
<time>2015-08-05T23:15:42Z</time></trkpt>
<trkpt lat="30.58112" lon="103.835026">
<time>2015-08-05T23:15:43Z</time></trkpt>
<trkpt lat="30.581219" lon="103.834575">
<time>2015-08-05T23:15:44Z</time></trkpt>
<trkpt lat="30.581239" lon="103.834465">
<time>2015-08-05T23:15:45Z</time></trkpt>
<trkpt lat="30.581249" lon="103.834405">
<time>2015-08-05T23:15:46Z</time></trkpt>
<trkpt lat="30.581268" lon="103.834265">
<time>2015-08-05T23:15:47Z</time></trkpt>
<trkpt lat="30.581288" lon="103.834175">
<time>2015-08-05T23:15:48Z</time></trkpt>
<trkpt lat="30.581308" lon="103.833984">
<time>2015-08-05T23:15:49Z</time></trkpt>
<trkpt lat="30.581327" lon="103.833804">
<time>2015-08-05T23:15:50Z</time></trkpt>
<trkpt lat="30.581337" lon="103.833603">
<time>2015-08-05T23:15:51Z</time></trkpt>
<trkpt lat="30.581316" lon="103.833183">
<time>2015-08-05T23:15:52Z</time></trkpt>
<trkpt lat="30.581296" lon="103.832982">
<time>2015-08-05T23:15:53Z</time></trkpt>
<trkpt lat="30.581276" lon="103.832822">
<time>2015-08-05T23:15:54Z</time></trkpt>
<trkpt lat="30.581235" lon="103.832652">
<time>2015-08-05T23:15:55Z</time></trkpt>
<trkpt lat="30.581185" lon="103.832461">
<time>2015-08-05T23:15:56Z</time></trkpt>
<trkpt lat="30.581104" lon="103.832191">
<time>2015-08-05T23:15:57Z</time></trkpt>
<trkpt lat="30.581024" lon="103.83196">
<time>2015-08-05T23:15:58Z</time></trkpt>
<trkpt lat="30.580934" lon="103.83171">
<time>2015-08-05T23:15:59Z</time></trkpt>
<trkpt lat="30.580271" lon="103.830177">
<time>2015-08-05T23:16:00Z</time></trkpt>
<trkpt lat="30.579829" lon="103.829075">
<time>2015-08-05T23:16:01Z</time></trkpt>
<trkpt lat="30.579729" lon="103.828814">
<time>2015-08-05T23:16:02Z</time></trkpt>
<trkpt lat="30.579447" lon="103.828133">
<time>2015-08-05T23:16:03Z</time></trkpt>
<trkpt lat="30.579227" lon="103.827622">
<time>2015-08-05T23:16:04Z</time></trkpt>
<trkpt lat="30.579176" lon="103.827481">
<time>2015-08-05T23:16:05Z</time></trkpt>
<trkpt lat="30.579146" lon="103.827411">
<time>2015-08-05T23:16:06Z</time></trkpt>
<trkpt lat="30.579096" lon="103.827251">
<time>2015-08-05T23:16:07Z</time></trkpt>
<trkpt lat="30.579046" lon="103.82704">
<time>2015-08-05T23:16:08Z</time></trkpt>
<trkpt lat="30.578995" lon="103.82673">
<time>2015-08-05T23:16:09Z</time></trkpt>
<trkpt lat="30.578934" lon="103.826269">
<time>2015-08-05T23:16:10Z</time></trkpt>
<trkpt lat="30.578934" lon="103.826149">
<time>2015-08-05T23:16:11Z</time></trkpt>
<trkpt lat="30.578822" lon="103.824996">
<time>2015-08-05T23:16:12Z</time></trkpt>
<trkpt lat="30.578792" lon="103.824926">
<time>2015-08-05T23:16:13Z</time></trkpt>
<trkpt lat="30.57871" lon="103.824285">
<time>2015-08-05T23:16:14Z</time></trkpt>
<trkpt lat="30.578649" lon="103.823704">
<time>2015-08-05T23:16:15Z</time></trkpt>
<trkpt lat="30.578639" lon="103.823684">
<time>2015-08-05T23:16:16Z</time></trkpt>
<trkpt lat="30.578639" lon="103.823644">
<time>2015-08-05T23:16:17Z</time></trkpt>
<trkpt lat="30.578568" lon="103.822702">
<time>2015-08-05T23:16:18Z</time></trkpt>
<trkpt lat="30.578474" lon="103.820828">
<time>2015-08-05T23:16:19Z</time></trkpt>
<trkpt lat="30.578443" lon="103.820488">
<time>2015-08-05T23:16:20Z</time></trkpt>
<trkpt lat="30.578382" lon="103.819666">
<time>2015-08-05T23:16:21Z</time></trkpt>
<trkpt lat="30.578198" lon="103.817622">
<time>2015-08-05T23:16:22Z</time></trkpt>
<trkpt lat="30.578137" lon="103.81689">
<time>2015-08-05T23:16:23Z</time></trkpt>
<trkpt lat="30.578095" lon="103.815989">
<time>2015-08-05T23:16:24Z</time></trkpt>
<trkpt lat="30.577992" lon="103.814025">
<time>2015-08-05T23:16:25Z</time></trkpt>
<trkpt lat="30.577971" lon="103.813584">
<time>2015-08-05T23:16:26Z</time></trkpt>
<trkpt lat="30.577971" lon="103.813584">
<time>2015-08-05T23:16:27Z</time></trkpt>
<trkpt lat="30.57713" lon="103.812873">
<time>2015-08-05T23:16:28Z</time></trkpt>
<trkpt lat="30.576789" lon="103.812592">
<time>2015-08-05T23:16:29Z</time></trkpt>
<trkpt lat="30.575488" lon="103.81163">
<time>2015-08-05T23:16:30Z</time></trkpt>
<trkpt lat="30.575278" lon="103.8115">
<time>2015-08-05T23:16:31Z</time></trkpt>
<trkpt lat="30.573357" lon="103.810308">
<time>2015-08-05T23:16:32Z</time></trkpt>
<trkpt lat="30.572946" lon="103.810068">
<time>2015-08-05T23:16:33Z</time></trkpt>
<trkpt lat="30.572696" lon="103.809907">
<time>2015-08-05T23:16:34Z</time></trkpt>
<trkpt lat="30.572476" lon="103.809817">
<time>2015-08-05T23:16:35Z</time></trkpt>
<trkpt lat="30.572306" lon="103.809747">
<time>2015-08-05T23:16:36Z</time></trkpt>
<trkpt lat="30.572116" lon="103.809677">
<time>2015-08-05T23:16:37Z</time></trkpt>
<trkpt lat="30.571696" lon="103.809567">
<time>2015-08-05T23:16:38Z</time></trkpt>
<trkpt lat="30.570456" lon="103.809316">
<time>2015-08-05T23:16:39Z</time></trkpt>
<trkpt lat="30.567226" lon="103.808695">
<time>2015-08-05T23:16:40Z</time></trkpt>
<trkpt lat="30.566756" lon="103.808605">
<time>2015-08-05T23:16:41Z</time></trkpt>
<trkpt lat="30.566206" lon="103.808455">
<time>2015-08-05T23:16:42Z</time></trkpt>
<trkpt lat="30.566026" lon="103.808385">
<time>2015-08-05T23:16:43Z</time></trkpt>
<trkpt lat="30.565606" lon="103.808235">
<time>2015-08-05T23:16:44Z</time></trkpt>
<trkpt lat="30.565265" lon="103.808054">
<time>2015-08-05T23:16:45Z</time></trkpt>
<trkpt lat="30.564915" lon="103.807834">
<time>2015-08-05T23:16:46Z</time></trkpt>
<trkpt lat="30.564425" lon="103.807493">
<time>2015-08-05T23:16:47Z</time></trkpt>
<trkpt lat="30.563203" lon="103.806552">
<time>2015-08-05T23:16:48Z</time></trkpt>
<trkpt lat="30.562132" lon="103.80571">
<time>2015-08-05T23:16:49Z</time></trkpt>
<trkpt lat="30.558219" lon="103.802735">
<time>2015-08-05T23:16:50Z</time></trkpt>
<trkpt lat="30.557928" lon="103.802545">
<time>2015-08-05T23:16:51Z</time></trkpt>
<trkpt lat="30.557468" lon="103.802194">
<time>2015-08-05T23:16:52Z</time></trkpt>
<trkpt lat="30.557308" lon="103.802054">
<time>2015-08-05T23:16:53Z</time></trkpt>
<trkpt lat="30.557168" lon="103.801934">
<time>2015-08-05T23:16:54Z</time></trkpt>
<trkpt lat="30.556937" lon="103.801693">
<time>2015-08-05T23:16:55Z</time></trkpt>
<trkpt lat="30.556797" lon="103.801523">
<time>2015-08-05T23:16:56Z</time></trkpt>
<trkpt lat="30.556687" lon="103.801373">
<time>2015-08-05T23:16:57Z</time></trkpt>
<trkpt lat="30.556577" lon="103.801212">
<time>2015-08-05T23:16:58Z</time></trkpt>
<trkpt lat="30.556557" lon="103.801192">
<time>2015-08-05T23:16:59Z</time></trkpt>
<trkpt lat="30.556446" lon="103.801022">
<time>2015-08-05T23:17:00Z</time></trkpt>
<trkpt lat="30.556286" lon="103.800752">
<time>2015-08-05T23:17:01Z</time></trkpt>
<trkpt lat="30.555915" lon="103.80004">
<time>2015-08-05T23:17:02Z</time></trkpt>
<trkpt lat="30.555724" lon="103.79968">
<time>2015-08-05T23:17:03Z</time></trkpt>
<trkpt lat="30.555373" lon="103.798979">
<time>2015-08-05T23:17:04Z</time></trkpt>
<trkpt lat="30.555353" lon="103.798959">
<time>2015-08-05T23:17:05Z</time></trkpt>
<trkpt lat="30.555123" lon="103.798508">
<time>2015-08-05T23:17:06Z</time></trkpt>
<trkpt lat="30.554982" lon="103.798288">
<time>2015-08-05T23:17:07Z</time></trkpt>
<trkpt lat="30.554842" lon="103.798077">
<time>2015-08-05T23:17:08Z</time></trkpt>
<trkpt lat="30.554672" lon="103.797857">
<time>2015-08-05T23:17:09Z</time></trkpt>
<trkpt lat="30.554512" lon="103.797677">
<time>2015-08-05T23:17:10Z</time></trkpt>
<trkpt lat="30.554371" lon="103.797516">
<time>2015-08-05T23:17:11Z</time></trkpt>
<trkpt lat="30.554191" lon="103.797366">
<time>2015-08-05T23:17:12Z</time></trkpt>
<trkpt lat="30.553981" lon="103.797186">
<time>2015-08-05T23:17:13Z</time></trkpt>
<trkpt lat="30.553801" lon="103.797066">
<time>2015-08-05T23:17:14Z</time></trkpt>
<trkpt lat="30.553281" lon="103.796765">
<time>2015-08-05T23:17:15Z</time></trkpt>
<trkpt lat="30.55177" lon="103.795834">
<time>2015-08-05T23:17:16Z</time></trkpt>
<trkpt lat="30.550569" lon="103.795083">
<time>2015-08-05T23:17:17Z</time></trkpt>
<trkpt lat="30.549548" lon="103.794452">
<time>2015-08-05T23:17:18Z</time></trkpt>
<trkpt lat="30.549058" lon="103.794121">
<time>2015-08-05T23:17:19Z</time></trkpt>
<trkpt lat="30.548648" lon="103.793831">
<time>2015-08-05T23:17:20Z</time></trkpt>
<trkpt lat="30.548558" lon="103.793751">
<time>2015-08-05T23:17:21Z</time></trkpt>
<trkpt lat="30.548458" lon="103.793661">
<time>2015-08-05T23:17:22Z</time></trkpt>
<trkpt lat="30.548367" lon="103.79357">
<time>2015-08-05T23:17:23Z</time></trkpt>
<trkpt lat="30.548257" lon="103.79345">
<time>2015-08-05T23:17:24Z</time></trkpt>
<trkpt lat="30.548187" lon="103.79337">
<time>2015-08-05T23:17:25Z</time></trkpt>
<trkpt lat="30.547907" lon="103.793">
<time>2015-08-05T23:17:26Z</time></trkpt>
<trkpt lat="30.547887" lon="103.79298">
<time>2015-08-05T23:17:27Z</time></trkpt>
<trkpt lat="30.547175" lon="103.791898">
<time>2015-08-05T23:17:28Z</time></trkpt>
<trkpt lat="30.546504" lon="103.790876">
<time>2015-08-05T23:17:29Z</time></trkpt>
<trkpt lat="30.546163" lon="103.790356">
<time>2015-08-05T23:17:30Z</time></trkpt>
<trkpt lat="30.546143" lon="103.790326">
<time>2015-08-05T23:17:31Z</time></trkpt>
<trkpt lat="30.546103" lon="103.790266">
<time>2015-08-05T23:17:32Z</time></trkpt>
<trkpt lat="30.546063" lon="103.790216">
<time>2015-08-05T23:17:33Z</time></trkpt>
<trkpt lat="30.546043" lon="103.790176">
<time>2015-08-05T23:17:34Z</time></trkpt>
<trkpt lat="30.544991" lon="103.788583">
<time>2015-08-05T23:17:35Z</time></trkpt>
<trkpt lat="30.544821" lon="103.788293">
<time>2015-08-05T23:17:36Z</time></trkpt>
<trkpt lat="30.544671" lon="103.787993">
<time>2015-08-05T23:17:37Z</time></trkpt>
<trkpt lat="30.54456" lon="103.787732">
<time>2015-08-05T23:17:38Z</time></trkpt>
<trkpt lat="30.54446" lon="103.787492">
<time>2015-08-05T23:17:39Z</time></trkpt>
<trkpt lat="30.54439" lon="103.787292">
<time>2015-08-05T23:17:40Z</time></trkpt>
<trkpt lat="30.544309" lon="103.787001">
<time>2015-08-05T23:17:41Z</time></trkpt>
<trkpt lat="30.544239" lon="103.786711">
<time>2015-08-05T23:17:42Z</time></trkpt>
<trkpt lat="30.544189" lon="103.78639">
<time>2015-08-05T23:17:43Z</time></trkpt>
<trkpt lat="30.544158" lon="103.78615">
<time>2015-08-05T23:17:44Z</time></trkpt>
<trkpt lat="30.544138" lon="103.78597">
<time>2015-08-05T23:17:45Z</time></trkpt>
<trkpt lat="30.544128" lon="103.78576">
<time>2015-08-05T23:17:46Z</time></trkpt>
<trkpt lat="30.544128" lon="103.785669">
<time>2015-08-05T23:17:47Z</time></trkpt>
<trkpt lat="30.544128" lon="103.785579">
<time>2015-08-05T23:17:48Z</time></trkpt>
<trkpt lat="30.544127" lon="103.785399">
<time>2015-08-05T23:17:49Z</time></trkpt>
<trkpt lat="30.544137" lon="103.785209">
<time>2015-08-05T23:17:50Z</time></trkpt>
<trkpt lat="30.544157" lon="103.784959">
<time>2015-08-05T23:17:51Z</time></trkpt>
<trkpt lat="30.544196" lon="103.784628">
<time>2015-08-05T23:17:52Z</time></trkpt>
<trkpt lat="30.544236" lon="103.784388">
<time>2015-08-05T23:17:53Z</time></trkpt>
<trkpt lat="30.544286" lon="103.784128">
<time>2015-08-05T23:17:54Z</time></trkpt>
<trkpt lat="30.544395" lon="103.783687">
<time>2015-08-05T23:17:55Z</time></trkpt>
<trkpt lat="30.544574" lon="103.782966">
<time>2015-08-05T23:17:56Z</time></trkpt>
<trkpt lat="30.544803" lon="103.782095">
<time>2015-08-05T23:17:57Z</time></trkpt>
<trkpt lat="30.544873" lon="103.781865">
<time>2015-08-05T23:17:58Z</time></trkpt>
<trkpt lat="30.545042" lon="103.781224">
<time>2015-08-05T23:17:59Z</time></trkpt>
<trkpt lat="30.545271" lon="103.780443">
<time>2015-08-05T23:18:00Z</time></trkpt>
<trkpt lat="30.545669" lon="103.779002">
<time>2015-08-05T23:18:01Z</time></trkpt>
<trkpt lat="30.545719" lon="103.778801">
<time>2015-08-05T23:18:02Z</time></trkpt>
<trkpt lat="30.545769" lon="103.778561">
<time>2015-08-05T23:18:03Z</time></trkpt>
<trkpt lat="30.545799" lon="103.778371">
<time>2015-08-05T23:18:04Z</time></trkpt>
<trkpt lat="30.545818" lon="103.778151">
<time>2015-08-05T23:18:05Z</time></trkpt>
<trkpt lat="30.545828" lon="103.7779">
<time>2015-08-05T23:18:06Z</time></trkpt>
<trkpt lat="30.545838" lon="103.77763">
<time>2015-08-05T23:18:07Z</time></trkpt>
<trkpt lat="30.545828" lon="103.7774">
<time>2015-08-05T23:18:08Z</time></trkpt>
<trkpt lat="30.545817" lon="103.77721">
<time>2015-08-05T23:18:09Z</time></trkpt>
<trkpt lat="30.545807" lon="103.77712">
<time>2015-08-05T23:18:10Z</time></trkpt>
<trkpt lat="30.545777" lon="103.776879">
<time>2015-08-05T23:18:11Z</time></trkpt>
<trkpt lat="30.545737" lon="103.776599">
<time>2015-08-05T23:18:12Z</time></trkpt>
<trkpt lat="30.545606" lon="103.775878">
<time>2015-08-05T23:18:13Z</time></trkpt>
<trkpt lat="30.545586" lon="103.775768">
<time>2015-08-05T23:18:14Z</time></trkpt>
<trkpt lat="30.545485" lon="103.775188">
<time>2015-08-05T23:18:15Z</time></trkpt>
<trkpt lat="30.545445" lon="103.774988">
<time>2015-08-05T23:18:16Z</time></trkpt>
<trkpt lat="30.545355" lon="103.774477">
<time>2015-08-05T23:18:17Z</time></trkpt>
<trkpt lat="30.545294" lon="103.774057">
<time>2015-08-05T23:18:18Z</time></trkpt>
<trkpt lat="30.545274" lon="103.773666">
<time>2015-08-05T23:18:19Z</time></trkpt>
<trkpt lat="30.545264" lon="103.773406">
<time>2015-08-05T23:18:20Z</time></trkpt>
<trkpt lat="30.545274" lon="103.773196">
<time>2015-08-05T23:18:21Z</time></trkpt>
<trkpt lat="30.545293" lon="103.773046">
<time>2015-08-05T23:18:22Z</time></trkpt>
<trkpt lat="30.545293" lon="103.773046">
<time>2015-08-05T23:18:23Z</time></trkpt>
<trkpt lat="30.544294" lon="103.773016">
<time>2015-08-05T23:18:24Z</time></trkpt>
<trkpt lat="30.544294" lon="103.773016">
<time>2015-08-05T23:18:25Z</time></trkpt>
<trkpt lat="30.544293" lon="103.772556">
<time>2015-08-05T23:18:26Z</time></trkpt>
<trkpt lat="30.544293" lon="103.772556">
<time>2015-08-05T23:18:27Z</time></trkpt>
<trkpt lat="30.544253" lon="103.772546">
<time>2015-08-05T23:18:28Z</time></trkpt>
<trkpt lat="30.544213" lon="103.772536">
<time>2015-08-05T23:18:29Z</time></trkpt>
<trkpt lat="30.544183" lon="103.772526">
<time>2015-08-05T23:18:30Z</time></trkpt>
<trkpt lat="30.544163" lon="103.772506">
<time>2015-08-05T23:18:31Z</time></trkpt>
<trkpt lat="30.544143" lon="103.772476">
<time>2015-08-05T23:18:32Z</time></trkpt>
<trkpt lat="30.544123" lon="103.772435">
<time>2015-08-05T23:18:33Z</time></trkpt>
<trkpt lat="30.544113" lon="103.772405">
<time>2015-08-05T23:18:34Z</time></trkpt>
<trkpt lat="30.544113" lon="103.772335">
<time>2015-08-05T23:18:35Z</time></trkpt>
<trkpt lat="30.544123" lon="103.772195">
<time>2015-08-05T23:18:36Z</time></trkpt>
<trkpt lat="30.544103" lon="103.772005">
<time>2015-08-05T23:18:37Z</time></trkpt>
<trkpt lat="30.544113" lon="103.771865">
<time>2015-08-05T23:18:38Z</time></trkpt>
<trkpt lat="30.544113" lon="103.771865">
<time>2015-08-05T23:18:39Z</time></trkpt>
<trkpt lat="30.543983" lon="103.771875">
<time>2015-08-05T23:18:40Z</time></trkpt>
<trkpt lat="30.543743" lon="103.771885">
<time>2015-08-05T23:18:41Z</time></trkpt>
<trkpt lat="30.543633" lon="103.771885">
<time>2015-08-05T23:18:42Z</time></trkpt>
<trkpt lat="30.543553" lon="103.771875">
<time>2015-08-05T23:18:43Z</time></trkpt>
<trkpt lat="30.543473" lon="103.771865">
<time>2015-08-05T23:18:44Z</time></trkpt>
<trkpt lat="30.543403" lon="103.771845">
<time>2015-08-05T23:18:45Z</time></trkpt>
<trkpt lat="30.543333" lon="103.771825">
<time>2015-08-05T23:18:46Z</time></trkpt>
<trkpt lat="30.543213" lon="103.771775">
<time>2015-08-05T23:18:47Z</time></trkpt>
<trkpt lat="30.543063" lon="103.771555">
<time>2015-08-05T23:18:48Z</time></trkpt>
<trkpt lat="30.543003" lon="103.771495">
<time>2015-08-05T23:18:49Z</time></trkpt>
<trkpt lat="30.542973" lon="103.771455">
<time>2015-08-05T23:18:50Z</time></trkpt>
<trkpt lat="30.542973" lon="103.771445">
<time>2015-08-05T23:18:51Z</time></trkpt>
<trkpt lat="30.542933" lon="103.771385">
<time>2015-08-05T23:18:52Z</time></trkpt>
<trkpt lat="30.542893" lon="103.771315">
<time>2015-08-05T23:18:53Z</time></trkpt>
<trkpt lat="30.542863" lon="103.771255">
<time>2015-08-05T23:18:54Z</time></trkpt>
<trkpt lat="30.542813" lon="103.771145">
<time>2015-08-05T23:18:55Z</time></trkpt>
<trkpt lat="30.542452" lon="103.770154">
<time>2015-08-05T23:18:56Z</time></trkpt>
<trkpt lat="30.542281" lon="103.769583">
<time>2015-08-05T23:18:57Z</time></trkpt>
<trkpt lat="30.542281" lon="103.769583">
<time>2015-08-05T23:18:58Z</time></trkpt>
<trkpt lat="30.542201" lon="103.769233">
<time>2015-08-05T23:18:59Z</time></trkpt>
<trkpt lat="30.542181" lon="103.769123">
<time>2015-08-05T23:19:00Z</time></trkpt>
<trkpt lat="30.542171" lon="103.769043">
<time>2015-08-05T23:19:01Z</time></trkpt>
<trkpt lat="30.542161" lon="103.768953">
<time>2015-08-05T23:19:02Z</time></trkpt>
<trkpt lat="30.542161" lon="103.768813">
<time>2015-08-05T23:19:03Z</time></trkpt>
<trkpt lat="30.542161" lon="103.768663">
<time>2015-08-05T23:19:04Z</time></trkpt>
<trkpt lat="30.54213" lon="103.767782">
<time>2015-08-05T23:19:05Z</time></trkpt>
<trkpt lat="30.54212" lon="103.767122">
<time>2015-08-05T23:19:06Z</time></trkpt>
<trkpt lat="30.54212" lon="103.766932">
<time>2015-08-05T23:19:07Z</time></trkpt>
<trkpt lat="30.542109" lon="103.766762">
<time>2015-08-05T23:19:08Z</time></trkpt>
<trkpt lat="30.542109" lon="103.766732">
<time>2015-08-05T23:19:09Z</time></trkpt>
<trkpt lat="30.542079" lon="103.766351">
<time>2015-08-05T23:19:10Z</time></trkpt>
<trkpt lat="30.542079" lon="103.766261">
<time>2015-08-05T23:19:11Z</time></trkpt>
<trkpt lat="30.541978" lon="103.76422">
<time>2015-08-05T23:19:12Z</time></trkpt>
<trkpt lat="30.541937" lon="103.76324">
<time>2015-08-05T23:19:13Z</time></trkpt>
<trkpt lat="30.541937" lon="103.76295">
<time>2015-08-05T23:19:14Z</time></trkpt>
<trkpt lat="30.541967" lon="103.762289">
<time>2015-08-05T23:19:15Z</time></trkpt>
<trkpt lat="30.541986" lon="103.761619">
<time>2015-08-05T23:19:16Z</time></trkpt>
<trkpt lat="30.542006" lon="103.760889">
<time>2015-08-05T23:19:17Z</time></trkpt>
<trkpt lat="30.542036" lon="103.760329">
<time>2015-08-05T23:19:18Z</time></trkpt>
<trkpt lat="30.542055" lon="103.759479">
<time>2015-08-05T23:19:19Z</time></trkpt>
<trkpt lat="30.542055" lon="103.759288">
<time>2015-08-05T23:19:20Z</time></trkpt>
<trkpt lat="30.542055" lon="103.759268">
<time>2015-08-05T23:19:21Z</time></trkpt>
<trkpt lat="30.542045" lon="103.759078">
<time>2015-08-05T23:19:22Z</time></trkpt>
<trkpt lat="30.542015" lon="103.758858">
<time>2015-08-05T23:19:23Z</time></trkpt>
<trkpt lat="30.541554" lon="103.756408">
<time>2015-08-05T23:19:24Z</time></trkpt>
<trkpt lat="30.541434" lon="103.755738">
<time>2015-08-05T23:19:25Z</time></trkpt>
<trkpt lat="30.541384" lon="103.755568">
<time>2015-08-05T23:19:26Z</time></trkpt>
<trkpt lat="30.541334" lon="103.755408">
<time>2015-08-05T23:19:27Z</time></trkpt>
<trkpt lat="30.541264" lon="103.755258">
<time>2015-08-05T23:19:28Z</time></trkpt>
<trkpt lat="30.541094" lon="103.754938">
<time>2015-08-05T23:19:29Z</time></trkpt>
<trkpt lat="30.540614" lon="103.754028">
<time>2015-08-05T23:19:30Z</time></trkpt>
<trkpt lat="30.540094" lon="103.753008">
<time>2015-08-05T23:19:31Z</time></trkpt>
<trkpt lat="30.539434" lon="103.751778">
<time>2015-08-05T23:19:32Z</time></trkpt>
<trkpt lat="30.539254" lon="103.751458">
<time>2015-08-05T23:19:33Z</time></trkpt>
<trkpt lat="30.539054" lon="103.751138">
<time>2015-08-05T23:19:34Z</time></trkpt>
<trkpt lat="30.538844" lon="103.750808">
<time>2015-08-05T23:19:35Z</time></trkpt>
<trkpt lat="30.538674" lon="103.750488">
<time>2015-08-05T23:19:36Z</time></trkpt>
<trkpt lat="30.538594" lon="103.750348">
<time>2015-08-05T23:19:37Z</time></trkpt>
<trkpt lat="30.538534" lon="103.750188">
<time>2015-08-05T23:19:38Z</time></trkpt>
<trkpt lat="30.538464" lon="103.750008">
<time>2015-08-05T23:19:39Z</time></trkpt>
<trkpt lat="30.538404" lon="103.749828">
<time>2015-08-05T23:19:40Z</time></trkpt>
<trkpt lat="30.537754" lon="103.747878">
<time>2015-08-05T23:19:41Z</time></trkpt>
<trkpt lat="30.537394" lon="103.746759">
<time>2015-08-05T23:19:42Z</time></trkpt>
<trkpt lat="30.537085" lon="103.745769">
<time>2015-08-05T23:19:43Z</time></trkpt>
<trkpt lat="30.536695" lon="103.74455">
<time>2015-08-05T23:19:44Z</time></trkpt>
<trkpt lat="30.536385" lon="103.7436">
<time>2015-08-05T23:19:45Z</time></trkpt>
<trkpt lat="30.535946" lon="103.742281">
<time>2015-08-05T23:19:46Z</time></trkpt>
<trkpt lat="30.535946" lon="103.742281">
<time>2015-08-05T23:19:47Z</time></trkpt>
<trkpt lat="30.535886" lon="103.742191">
<time>2015-08-05T23:19:48Z</time></trkpt>
<trkpt lat="30.535796" lon="103.741921">
<time>2015-08-05T23:19:49Z</time></trkpt>
<trkpt lat="30.535686" lon="103.741621">
<time>2015-08-05T23:19:50Z</time></trkpt>
<trkpt lat="30.535206" lon="103.740262">
<time>2015-08-05T23:19:51Z</time></trkpt>
<trkpt lat="30.534857" lon="103.739222">
<time>2015-08-05T23:19:52Z</time></trkpt>
<trkpt lat="30.534268" lon="103.737464">
<time>2015-08-05T23:19:53Z</time></trkpt>
<trkpt lat="30.533259" lon="103.734636">
<time>2015-08-05T23:19:54Z</time></trkpt>
<trkpt lat="30.53289" lon="103.733577">
<time>2015-08-05T23:19:55Z</time></trkpt>
<trkpt lat="30.532481" lon="103.732448">
<time>2015-08-05T23:19:56Z</time></trkpt>
<trkpt lat="30.532321" lon="103.731998">
<time>2015-08-05T23:19:57Z</time></trkpt>
<trkpt lat="30.532271" lon="103.731818">
<time>2015-08-05T23:19:58Z</time></trkpt>
<trkpt lat="30.532261" lon="103.731758">
<time>2015-08-05T23:19:59Z</time></trkpt>
<trkpt lat="30.532251" lon="103.731708">
<time>2015-08-05T23:20:00Z</time></trkpt>
<trkpt lat="30.532241" lon="103.731608">
<time>2015-08-05T23:20:01Z</time></trkpt>
<trkpt lat="30.532072" lon="103.72982">
<time>2015-08-05T23:20:02Z</time></trkpt>
<trkpt lat="30.531983" lon="103.728512">
<time>2015-08-05T23:20:03Z</time></trkpt>
<trkpt lat="30.531974" lon="103.728262">
<time>2015-08-05T23:20:04Z</time></trkpt>
<trkpt lat="30.531934" lon="103.727752">
<time>2015-08-05T23:20:05Z</time></trkpt>
<trkpt lat="30.531786" lon="103.725725">
<time>2015-08-05T23:20:06Z</time></trkpt>
<trkpt lat="30.531638" lon="103.723508">
<time>2015-08-05T23:20:07Z</time></trkpt>
<trkpt lat="30.531549" lon="103.72177">
<time>2015-08-05T23:20:08Z</time></trkpt>
<trkpt lat="30.53148" lon="103.721121">
<time>2015-08-05T23:20:09Z</time></trkpt>
<trkpt lat="30.53141" lon="103.720512">
<time>2015-08-05T23:20:10Z</time></trkpt>
<trkpt lat="30.531132" lon="103.718674">
<time>2015-08-05T23:20:11Z</time></trkpt>
<trkpt lat="30.530666" lon="103.715968">
<time>2015-08-05T23:20:12Z</time></trkpt>
<trkpt lat="30.530348" lon="103.714071">
<time>2015-08-05T23:20:13Z</time></trkpt>
<trkpt lat="30.530318" lon="103.713922">
<time>2015-08-05T23:20:14Z</time></trkpt>
<trkpt lat="30.529961" lon="103.711675">
<time>2015-08-05T23:20:15Z</time></trkpt>
<trkpt lat="30.529802" lon="103.710977">
<time>2015-08-05T23:20:16Z</time></trkpt>
<trkpt lat="30.529663" lon="103.710368">
<time>2015-08-05T23:20:17Z</time></trkpt>
<trkpt lat="30.529424" lon="103.709709">
<time>2015-08-05T23:20:18Z</time></trkpt>
<trkpt lat="30.528865" lon="103.708551">
<time>2015-08-05T23:20:19Z</time></trkpt>
<trkpt lat="30.528816" lon="103.708451">
<time>2015-08-05T23:20:20Z</time></trkpt>
<trkpt lat="30.527939" lon="103.706515">
<time>2015-08-05T23:20:21Z</time></trkpt>
<trkpt lat="30.527859" lon="103.706335">
<time>2015-08-05T23:20:22Z</time></trkpt>
<trkpt lat="30.527331" lon="103.705138">
<time>2015-08-05T23:20:23Z</time></trkpt>
<trkpt lat="30.527022" lon="103.704179">
<time>2015-08-05T23:20:24Z</time></trkpt>
<trkpt lat="30.526813" lon="103.703541">
<time>2015-08-05T23:20:25Z</time></trkpt>
<trkpt lat="30.526614" lon="103.702912">
<time>2015-08-05T23:20:26Z</time></trkpt>
<trkpt lat="30.526127" lon="103.701505">
<time>2015-08-05T23:20:27Z</time></trkpt>
<trkpt lat="30.526097" lon="103.701365">
<time>2015-08-05T23:20:28Z</time></trkpt>
<trkpt lat="30.525948" lon="103.700607">
<time>2015-08-05T23:20:29Z</time></trkpt>
<trkpt lat="30.525948" lon="103.700537">
<time>2015-08-05T23:20:30Z</time></trkpt>
<trkpt lat="30.525939" lon="103.700008">
<time>2015-08-05T23:20:31Z</time></trkpt>
<trkpt lat="30.526204" lon="103.696725">
<time>2015-08-05T23:20:32Z</time></trkpt>
<trkpt lat="30.526224" lon="103.696605">
<time>2015-08-05T23:20:33Z</time></trkpt>
<trkpt lat="30.526245" lon="103.696376">
<time>2015-08-05T23:20:34Z</time></trkpt>
<trkpt lat="30.526255" lon="103.696356">
<time>2015-08-05T23:20:35Z</time></trkpt>
<trkpt lat="30.526335" lon="103.695857">
<time>2015-08-05T23:20:36Z</time></trkpt>
<trkpt lat="30.526466" lon="103.695398">
<time>2015-08-05T23:20:37Z</time></trkpt>
<trkpt lat="30.526516" lon="103.695318">
<time>2015-08-05T23:20:38Z</time></trkpt>
<trkpt lat="30.526627" lon="103.695148">
<time>2015-08-05T23:20:39Z</time></trkpt>
<trkpt lat="30.526817" lon="103.694949">
<time>2015-08-05T23:20:40Z</time></trkpt>
<trkpt lat="30.527027" lon="103.694739">
<time>2015-08-05T23:20:41Z</time></trkpt>
<trkpt lat="30.527848" lon="103.693911">
<time>2015-08-05T23:20:42Z</time></trkpt>
<trkpt lat="30.528079" lon="103.693642">
<time>2015-08-05T23:20:43Z</time></trkpt>
<trkpt lat="30.528129" lon="103.693562">
<time>2015-08-05T23:20:44Z</time></trkpt>
<trkpt lat="30.528209" lon="103.693422">
<time>2015-08-05T23:20:45Z</time></trkpt>
<trkpt lat="30.528289" lon="103.693213">
<time>2015-08-05T23:20:46Z</time></trkpt>
<trkpt lat="30.52839" lon="103.692863">
<time>2015-08-05T23:20:47Z</time></trkpt>
<trkpt lat="30.52846" lon="103.692624">
<time>2015-08-05T23:20:48Z</time></trkpt>
<trkpt lat="30.528531" lon="103.692344">
<time>2015-08-05T23:20:49Z</time></trkpt>
<trkpt lat="30.528652" lon="103.691876">
<time>2015-08-05T23:20:50Z</time></trkpt>
<trkpt lat="30.528802" lon="103.691307">
<time>2015-08-05T23:20:51Z</time></trkpt>
<trkpt lat="30.528813" lon="103.691247">
<time>2015-08-05T23:20:52Z</time></trkpt>
<trkpt lat="30.528893" lon="103.690948">
<time>2015-08-05T23:20:53Z</time></trkpt>
<trkpt lat="30.528924" lon="103.690578">
<time>2015-08-05T23:20:54Z</time></trkpt>
<trkpt lat="30.528944" lon="103.690219">
<time>2015-08-05T23:20:55Z</time></trkpt>
<trkpt lat="30.528945" lon="103.69006">
<time>2015-08-05T23:20:56Z</time></trkpt>
<trkpt lat="30.528915" lon="103.68987">
<time>2015-08-05T23:20:57Z</time></trkpt>
<trkpt lat="30.528767" lon="103.688683">
<time>2015-08-05T23:20:58Z</time></trkpt>
<trkpt lat="30.528728" lon="103.688384">
<time>2015-08-05T23:20:59Z</time></trkpt>
<trkpt lat="30.528658" lon="103.687955">
<time>2015-08-05T23:21:00Z</time></trkpt>
<trkpt lat="30.52856" lon="103.687296">
<time>2015-08-05T23:21:01Z</time></trkpt>
<trkpt lat="30.528412" lon="103.685969">
<time>2015-08-05T23:21:02Z</time></trkpt>
<trkpt lat="30.528363" lon="103.68562">
<time>2015-08-05T23:21:03Z</time></trkpt>
<trkpt lat="30.528294" lon="103.685002">
<time>2015-08-05T23:21:04Z</time></trkpt>
<trkpt lat="30.528286" lon="103.683824">
<time>2015-08-05T23:21:05Z</time></trkpt>
<trkpt lat="30.528278" lon="103.682976">
<time>2015-08-05T23:21:06Z</time></trkpt>
<trkpt lat="30.528268" lon="103.682607">
<time>2015-08-05T23:21:07Z</time></trkpt>
<trkpt lat="30.528269" lon="103.682348">
<time>2015-08-05T23:21:08Z</time></trkpt>
<trkpt lat="30.528252" lon="103.680742">
<time>2015-08-05T23:21:09Z</time></trkpt>
<trkpt lat="30.528228" lon="103.67751">
<time>2015-08-05T23:21:10Z</time></trkpt>
<trkpt lat="30.528218" lon="103.6773">
<time>2015-08-05T23:21:11Z</time></trkpt>
<trkpt lat="30.528202" lon="103.675425">
<time>2015-08-05T23:21:12Z</time></trkpt>
<trkpt lat="30.528194" lon="103.674058">
<time>2015-08-05T23:21:13Z</time></trkpt>
<trkpt lat="30.528227" lon="103.672562">
<time>2015-08-05T23:21:14Z</time></trkpt>
<trkpt lat="30.528321" lon="103.670737">
<time>2015-08-05T23:21:15Z</time></trkpt>
<trkpt lat="30.528393" lon="103.66942">
<time>2015-08-05T23:21:16Z</time></trkpt>
<trkpt lat="30.528435" lon="103.668762">
<time>2015-08-05T23:21:17Z</time></trkpt>
<trkpt lat="30.528435" lon="103.668482">
<time>2015-08-05T23:21:18Z</time></trkpt>
<trkpt lat="30.528436" lon="103.668173">
<time>2015-08-05T23:21:19Z</time></trkpt>
<trkpt lat="30.528436" lon="103.668083">
<time>2015-08-05T23:21:20Z</time></trkpt>
<trkpt lat="30.528408" lon="103.666747">
<time>2015-08-05T23:21:21Z</time></trkpt>
<trkpt lat="30.528352" lon="103.664891">
<time>2015-08-05T23:21:22Z</time></trkpt>
<trkpt lat="30.528324" lon="103.663964">
<time>2015-08-05T23:21:23Z</time></trkpt>
<trkpt lat="30.528236" lon="103.662866">
<time>2015-08-05T23:21:24Z</time></trkpt>
<trkpt lat="30.528226" lon="103.662667">
<time>2015-08-05T23:21:25Z</time></trkpt>
<trkpt lat="30.528109" lon="103.66131">
<time>2015-08-05T23:21:26Z</time></trkpt>
<trkpt lat="30.528109" lon="103.6613">
<time>2015-08-05T23:21:27Z</time></trkpt>
<trkpt lat="30.528099" lon="103.66124">
<time>2015-08-05T23:21:28Z</time></trkpt>
<trkpt lat="30.527942" lon="103.659455">
<time>2015-08-05T23:21:29Z</time></trkpt>
<trkpt lat="30.527884" lon="103.658707">
<time>2015-08-05T23:21:30Z</time></trkpt>
<trkpt lat="30.527874" lon="103.658567">
<time>2015-08-05T23:21:31Z</time></trkpt>
<trkpt lat="30.527834" lon="103.658397">
<time>2015-08-05T23:21:32Z</time></trkpt>
<trkpt lat="30.527785" lon="103.658268">
<time>2015-08-05T23:21:33Z</time></trkpt>
<trkpt lat="30.527715" lon="103.658158">
<time>2015-08-05T23:21:34Z</time></trkpt>
<trkpt lat="30.527645" lon="103.658068">
<time>2015-08-05T23:21:35Z</time></trkpt>
<trkpt lat="30.527326" lon="103.657809">
<time>2015-08-05T23:21:36Z</time></trkpt>
<trkpt lat="30.527096" lon="103.657609">
<time>2015-08-05T23:21:37Z</time></trkpt>
<trkpt lat="30.526597" lon="103.65721">
<time>2015-08-05T23:21:38Z</time></trkpt>
<trkpt lat="30.526018" lon="103.656732">
<time>2015-08-05T23:21:39Z</time></trkpt>
<trkpt lat="30.525828" lon="103.656572">
<time>2015-08-05T23:21:40Z</time></trkpt>
<trkpt lat="30.5251" lon="103.655973">
<time>2015-08-05T23:21:41Z</time></trkpt>
<trkpt lat="30.524261" lon="103.655285">
<time>2015-08-05T23:21:42Z</time></trkpt>
<trkpt lat="30.523612" lon="103.654746">
<time>2015-08-05T23:21:43Z</time></trkpt>
<trkpt lat="30.523503" lon="103.654657">
<time>2015-08-05T23:21:44Z</time></trkpt>
<trkpt lat="30.523253" lon="103.654437">
<time>2015-08-05T23:21:45Z</time></trkpt>
<trkpt lat="30.523103" lon="103.654288">
<time>2015-08-05T23:21:46Z</time></trkpt>
<trkpt lat="30.522784" lon="103.653918">
<time>2015-08-05T23:21:47Z</time></trkpt>
<trkpt lat="30.522176" lon="103.65318">
<time>2015-08-05T23:21:48Z</time></trkpt>
<trkpt lat="30.522126" lon="103.65312">
<time>2015-08-05T23:21:49Z</time></trkpt>
<trkpt lat="30.521318" lon="103.652123">
<time>2015-08-05T23:21:50Z</time></trkpt>
<trkpt lat="30.520819" lon="103.651534">
<time>2015-08-05T23:21:51Z</time></trkpt>
<trkpt lat="30.52046" lon="103.651035">
<time>2015-08-05T23:21:52Z</time></trkpt>
<trkpt lat="30.520121" lon="103.650457">
<time>2015-08-05T23:21:53Z</time></trkpt>
<trkpt lat="30.519902" lon="103.650108">
<time>2015-08-05T23:21:54Z</time></trkpt>
<trkpt lat="30.519832" lon="103.650018">
<time>2015-08-05T23:21:55Z</time></trkpt>
<trkpt lat="30.519413" lon="103.649449">
<time>2015-08-05T23:21:56Z</time></trkpt>
<trkpt lat="30.518556" lon="103.648272">
<time>2015-08-05T23:21:57Z</time></trkpt>
<trkpt lat="30.518226" lon="103.647843">
<time>2015-08-05T23:21:58Z</time></trkpt>
<trkpt lat="30.517857" lon="103.647304">
<time>2015-08-05T23:21:59Z</time></trkpt>
<trkpt lat="30.517638" lon="103.646955">
<time>2015-08-05T23:22:00Z</time></trkpt>
<trkpt lat="30.517519" lon="103.646686">
<time>2015-08-05T23:22:01Z</time></trkpt>
<trkpt lat="30.517429" lon="103.646416">
<time>2015-08-05T23:22:02Z</time></trkpt>
<trkpt lat="30.51735" lon="103.646037">
<time>2015-08-05T23:22:03Z</time></trkpt>
<trkpt lat="30.51728" lon="103.645598">
<time>2015-08-05T23:22:04Z</time></trkpt>
<trkpt lat="30.517231" lon="103.645279">
<time>2015-08-05T23:22:05Z</time></trkpt>
<trkpt lat="30.517231" lon="103.645239">
<time>2015-08-05T23:22:06Z</time></trkpt>
<trkpt lat="30.517142" lon="103.64466">
<time>2015-08-05T23:22:07Z</time></trkpt>
<trkpt lat="30.517083" lon="103.644331">
<time>2015-08-05T23:22:08Z</time></trkpt>
<trkpt lat="30.517023" lon="103.644141">
<time>2015-08-05T23:22:09Z</time></trkpt>
<trkpt lat="30.516963" lon="103.644002">
<time>2015-08-05T23:22:10Z</time></trkpt>
<trkpt lat="30.516894" lon="103.643862">
<time>2015-08-05T23:22:11Z</time></trkpt>
<trkpt lat="30.516335" lon="103.643014">
<time>2015-08-05T23:22:12Z</time></trkpt>
<trkpt lat="30.515926" lon="103.642355">
<time>2015-08-05T23:22:13Z</time></trkpt>
<trkpt lat="30.515428" lon="103.641358">
<time>2015-08-05T23:22:14Z</time></trkpt>
<trkpt lat="30.515199" lon="103.640829">
<time>2015-08-05T23:22:15Z</time></trkpt>
<trkpt lat="30.515099" lon="103.640499">
<time>2015-08-05T23:22:16Z</time></trkpt>
<trkpt lat="30.514772" lon="103.638933">
<time>2015-08-05T23:22:17Z</time></trkpt>
<trkpt lat="30.514534" lon="103.637765">
<time>2015-08-05T23:22:18Z</time></trkpt>
<trkpt lat="30.514445" lon="103.637276">
<time>2015-08-05T23:22:19Z</time></trkpt>
<trkpt lat="30.514435" lon="103.637256">
<time>2015-08-05T23:22:20Z</time></trkpt>
<trkpt lat="30.514316" lon="103.636638">
<time>2015-08-05T23:22:21Z</time></trkpt>
<trkpt lat="30.514266" lon="103.636318">
<time>2015-08-05T23:22:22Z</time></trkpt>
<trkpt lat="30.514246" lon="103.636188">
<time>2015-08-05T23:22:23Z</time></trkpt>
<trkpt lat="30.514247" lon="103.636059">
<time>2015-08-05T23:22:24Z</time></trkpt>
<trkpt lat="30.514248" lon="103.63533">
<time>2015-08-05T23:22:25Z</time></trkpt>
<trkpt lat="30.514268" lon="103.634821">
<time>2015-08-05T23:22:26Z</time></trkpt>
<trkpt lat="30.514279" lon="103.634532">
<time>2015-08-05T23:22:27Z</time></trkpt>
<trkpt lat="30.514309" lon="103.634482">
<time>2015-08-05T23:22:28Z</time></trkpt>
<trkpt lat="30.514319" lon="103.634402">
<time>2015-08-05T23:22:29Z</time></trkpt>
<trkpt lat="30.51435" lon="103.633703">
<time>2015-08-05T23:22:30Z</time></trkpt>
<trkpt lat="30.514422" lon="103.632176">
<time>2015-08-05T23:22:31Z</time></trkpt>
<trkpt lat="30.514474" lon="103.630639">
<time>2015-08-05T23:22:32Z</time></trkpt>
<trkpt lat="30.514464" lon="103.63044">
<time>2015-08-05T23:22:33Z</time></trkpt>
<trkpt lat="30.514465" lon="103.6301">
<time>2015-08-05T23:22:34Z</time></trkpt>
<trkpt lat="30.514435" lon="103.629781">
<time>2015-08-05T23:22:35Z</time></trkpt>
<trkpt lat="30.514406" lon="103.629541">
<time>2015-08-05T23:22:36Z</time></trkpt>
<trkpt lat="30.514326" lon="103.629202">
<time>2015-08-05T23:22:37Z</time></trkpt>
<trkpt lat="30.514326" lon="103.629182">
<time>2015-08-05T23:22:38Z</time></trkpt>
<trkpt lat="30.514296" lon="103.629072">
<time>2015-08-05T23:22:39Z</time></trkpt>
<trkpt lat="30.514296" lon="103.629052">
<time>2015-08-05T23:22:40Z</time></trkpt>
<trkpt lat="30.514266" lon="103.628922">
<time>2015-08-05T23:22:41Z</time></trkpt>
<trkpt lat="30.514246" lon="103.628862">
<time>2015-08-05T23:22:42Z</time></trkpt>
<trkpt lat="30.514246" lon="103.628842">
<time>2015-08-05T23:22:43Z</time></trkpt>
<trkpt lat="30.514227" lon="103.628743">
<time>2015-08-05T23:22:44Z</time></trkpt>
<trkpt lat="30.514227" lon="103.628713">
<time>2015-08-05T23:22:45Z</time></trkpt>
<trkpt lat="30.514207" lon="103.628603">
<time>2015-08-05T23:22:46Z</time></trkpt>
<trkpt lat="30.514187" lon="103.628433">
<time>2015-08-05T23:22:47Z</time></trkpt>
<trkpt lat="30.514177" lon="103.628254">
<time>2015-08-05T23:22:48Z</time></trkpt>
<trkpt lat="30.514168" lon="103.628004">
<time>2015-08-05T23:22:49Z</time></trkpt>
<trkpt lat="30.514209" lon="103.627036">
<time>2015-08-05T23:22:50Z</time></trkpt>
<trkpt lat="30.514209" lon="103.626846">
<time>2015-08-05T23:22:51Z</time></trkpt>
<trkpt lat="30.514199" lon="103.626706">
<time>2015-08-05T23:22:52Z</time></trkpt>
<trkpt lat="30.514169" lon="103.626527">
<time>2015-08-05T23:22:53Z</time></trkpt>
<trkpt lat="30.51414" lon="103.626397">
<time>2015-08-05T23:22:54Z</time></trkpt>
<trkpt lat="30.51407" lon="103.626207">
<time>2015-08-05T23:22:55Z</time></trkpt>
<trkpt lat="30.51396" lon="103.625918">
<time>2015-08-05T23:22:56Z</time></trkpt>
<trkpt lat="30.51396" lon="103.625918">
<time>2015-08-05T23:22:57Z</time></trkpt>
<trkpt lat="30.513811" lon="103.625408">
<time>2015-08-05T23:22:58Z</time></trkpt>
<trkpt lat="30.513711" lon="103.625089">
<time>2015-08-05T23:22:59Z</time></trkpt>
<trkpt lat="30.513681" lon="103.624999">
<time>2015-08-05T23:23:00Z</time></trkpt>
<trkpt lat="30.513522" lon="103.62449">
<time>2015-08-05T23:23:01Z</time></trkpt>
<trkpt lat="30.513413" lon="103.623891">
<time>2015-08-05T23:23:02Z</time></trkpt>
<trkpt lat="30.513333" lon="103.623492">
<time>2015-08-05T23:23:03Z</time></trkpt>
<trkpt lat="30.513303" lon="103.623362">
<time>2015-08-05T23:23:04Z</time></trkpt>
<trkpt lat="30.513233" lon="103.623162">
<time>2015-08-05T23:23:05Z</time></trkpt>
<trkpt lat="30.513164" lon="103.623022">
<time>2015-08-05T23:23:06Z</time></trkpt>
<trkpt lat="30.513164" lon="103.623002">
<time>2015-08-05T23:23:07Z</time></trkpt>
<trkpt lat="30.513074" lon="103.622813">
<time>2015-08-05T23:23:08Z</time></trkpt>
<trkpt lat="30.513074" lon="103.622813">
<time>2015-08-05T23:23:09Z</time></trkpt>
<trkpt lat="30.512345" lon="103.621545">
<time>2015-08-05T23:23:10Z</time></trkpt>
<trkpt lat="30.512116" lon="103.621165">
<time>2015-08-05T23:23:11Z</time></trkpt>
<trkpt lat="30.511936" lon="103.620876">
<time>2015-08-05T23:23:12Z</time></trkpt>
<trkpt lat="30.511936" lon="103.620876">
<time>2015-08-05T23:23:13Z</time></trkpt>
<trkpt lat="30.512367" lon="103.620486">
<time>2015-08-05T23:23:14Z</time></trkpt>
<trkpt lat="30.513177" lon="103.619747">
<time>2015-08-05T23:23:15Z</time></trkpt>
<trkpt lat="30.513337" lon="103.619608">
<time>2015-08-05T23:23:16Z</time></trkpt>
<trkpt lat="30.513417" lon="103.619528">
<time>2015-08-05T23:23:17Z</time></trkpt>
<trkpt lat="30.513417" lon="103.619528">
<time>2015-08-05T23:23:18Z</time></trkpt>
<trkpt lat="30.513457" lon="103.619468">
<time>2015-08-05T23:23:19Z</time></trkpt>
<trkpt lat="30.513477" lon="103.619418">
<time>2015-08-05T23:23:20Z</time></trkpt>
<trkpt lat="30.513507" lon="103.619338">
<time>2015-08-05T23:23:21Z</time></trkpt>
<trkpt lat="30.513527" lon="103.619248">
<time>2015-08-05T23:23:22Z</time></trkpt>
<trkpt lat="30.513568" lon="103.619068">
<time>2015-08-05T23:23:23Z</time></trkpt>
<trkpt lat="30.513638" lon="103.618609">
<time>2015-08-05T23:23:24Z</time></trkpt>
<trkpt lat="30.513718" lon="103.618249">
<time>2015-08-05T23:23:25Z</time></trkpt>
<trkpt lat="30.513809" lon="103.61776">
<time>2015-08-05T23:23:26Z</time></trkpt>
<trkpt lat="30.513869" lon="103.617351">
<time>2015-08-05T23:23:27Z</time></trkpt>
<trkpt lat="30.513889" lon="103.617281">
<time>2015-08-05T23:23:28Z</time></trkpt>
<trkpt lat="30.513899" lon="103.617231">
<time>2015-08-05T23:23:29Z</time></trkpt>
<trkpt lat="30.513919" lon="103.617171">
<time>2015-08-05T23:23:30Z</time></trkpt>
<trkpt lat="30.513939" lon="103.617151">
<time>2015-08-05T23:23:31Z</time></trkpt>
<trkpt lat="30.513939" lon="103.617141">
<time>2015-08-05T23:23:32Z</time></trkpt>
<trkpt lat="30.513949" lon="103.617101">
<time>2015-08-05T23:23:33Z</time></trkpt>
<trkpt lat="30.513949" lon="103.617101">
<time>2015-08-05T23:23:34Z</time></trkpt>
<trkpt lat="30.513969" lon="103.617011">
<time>2015-08-05T23:23:35Z</time></trkpt>
<trkpt lat="30.513979" lon="103.616941">
<time>2015-08-05T23:23:36Z</time></trkpt>
<trkpt lat="30.513989" lon="103.616861">
<time>2015-08-05T23:23:37Z</time></trkpt>
<trkpt lat="30.513999" lon="103.616791">
<time>2015-08-05T23:23:38Z</time></trkpt>
<trkpt lat="30.51406" lon="103.616252">
<time>2015-08-05T23:23:39Z</time></trkpt>
<trkpt lat="30.51411" lon="103.615773">
<time>2015-08-05T23:23:40Z</time></trkpt>
<trkpt lat="30.51413" lon="103.615543">
<time>2015-08-05T23:23:41Z</time></trkpt>
<trkpt lat="30.514151" lon="103.615383">
<time>2015-08-05T23:23:42Z</time></trkpt>
<trkpt lat="30.514171" lon="103.615263">
<time>2015-08-05T23:23:43Z</time></trkpt>
<trkpt lat="30.514171" lon="103.615263">
<time>2015-08-05T23:23:44Z</time></trkpt>
<trkpt lat="30.514161" lon="103.615213">
<time>2015-08-05T23:23:45Z</time></trkpt>
<trkpt lat="30.514141" lon="103.615174">
<time>2015-08-05T23:23:46Z</time></trkpt>
<trkpt lat="30.514121" lon="103.615124">
<time>2015-08-05T23:23:47Z</time></trkpt>
<trkpt lat="30.514101" lon="103.615074">
<time>2015-08-05T23:23:48Z</time></trkpt>
<trkpt lat="30.514071" lon="103.615034">
<time>2015-08-05T23:23:49Z</time></trkpt>
<trkpt lat="30.514031" lon="103.614984">
<time>2015-08-05T23:23:50Z</time></trkpt>
<trkpt lat="30.514011" lon="103.614944">
<time>2015-08-05T23:23:51Z</time></trkpt>
<trkpt lat="30.514001" lon="103.614904">
<time>2015-08-05T23:23:52Z</time></trkpt>
<trkpt lat="30.513991" lon="103.614864">
<time>2015-08-05T23:23:53Z</time></trkpt>
<trkpt lat="30.513991" lon="103.614834">
<time>2015-08-05T23:23:54Z</time></trkpt>
<trkpt lat="30.513991" lon="103.614794">
<time>2015-08-05T23:23:55Z</time></trkpt>
<trkpt lat="30.513991" lon="103.614744">
<time>2015-08-05T23:23:56Z</time></trkpt>
<trkpt lat="30.514001" lon="103.614584">
<time>2015-08-05T23:23:57Z</time></trkpt>
<trkpt lat="30.514011" lon="103.614394">
<time>2015-08-05T23:23:58Z</time></trkpt>
<trkpt lat="30.514032" lon="103.614155">
<time>2015-08-05T23:23:59Z</time></trkpt>
<trkpt lat="30.514032" lon="103.614015">
<time>2015-08-05T23:24:00Z</time></trkpt>
<trkpt lat="30.514042" lon="103.613925">
<time>2015-08-05T23:24:01Z</time></trkpt>
<trkpt lat="30.514052" lon="103.613855">
<time>2015-08-05T23:24:02Z</time></trkpt>
<trkpt lat="30.514092" lon="103.613785">
<time>2015-08-05T23:24:03Z</time></trkpt>
<trkpt lat="30.514122" lon="103.613725">
<time>2015-08-05T23:24:04Z</time></trkpt>
<trkpt lat="30.514222" lon="103.613595">
<time>2015-08-05T23:24:05Z</time></trkpt>
<trkpt lat="30.514322" lon="103.613456">
<time>2015-08-05T23:24:06Z</time></trkpt>
<trkpt lat="30.514382" lon="103.613366">
<time>2015-08-05T23:24:07Z</time></trkpt>
<trkpt lat="30.514412" lon="103.613296">
<time>2015-08-05T23:24:08Z</time></trkpt>
<trkpt lat="30.514442" lon="103.613176">
<time>2015-08-05T23:24:09Z</time></trkpt>
<trkpt lat="30.514523" lon="103.612766">
<time>2015-08-05T23:24:10Z</time></trkpt>
<trkpt lat="30.514523" lon="103.612766">
<time>2015-08-05T23:24:11Z</time></trkpt>
<trkpt lat="30.514323" lon="103.612687">
<time>2015-08-05T23:24:12Z</time></trkpt>
<trkpt lat="30.513923" lon="103.612507">
<time>2015-08-05T23:24:13Z</time></trkpt>
<trkpt lat="30.513353" lon="103.612217">
<time>2015-08-05T23:24:14Z</time></trkpt>
<trkpt lat="30.513073" lon="103.612067">
<time>2015-08-05T23:24:15Z</time></trkpt>
<trkpt lat="30.512993" lon="103.612017">
<time>2015-08-05T23:24:16Z</time></trkpt>
<trkpt lat="30.512934" lon="103.611967">
<time>2015-08-05T23:24:17Z</time></trkpt>
<trkpt lat="30.512784" lon="103.611808">
<time>2015-08-05T23:24:18Z</time></trkpt>
<trkpt lat="30.512784" lon="103.611808">
<time>2015-08-05T23:24:19Z</time></trkpt>
<trkpt lat="30.510576" lon="103.608511">
<time>2015-08-05T23:24:20Z</time></trkpt>
<trkpt lat="30.509707" lon="103.607242">
<time>2015-08-05T23:24:21Z</time></trkpt>
<trkpt lat="30.508688" lon="103.605794">
<time>2015-08-05T23:24:22Z</time></trkpt>
<trkpt lat="30.508119" lon="103.605184">
<time>2015-08-05T23:24:23Z</time></trkpt>
<trkpt lat="30.507899" lon="103.604994">
<time>2015-08-05T23:24:24Z</time></trkpt>
<trkpt lat="30.507219" lon="103.604495">
<time>2015-08-05T23:24:25Z</time></trkpt>
<trkpt lat="30.506949" lon="103.604275">
<time>2015-08-05T23:24:26Z</time></trkpt>
<trkpt lat="30.506849" lon="103.604195">
<time>2015-08-05T23:24:27Z</time></trkpt>
<trkpt lat="30.50633" lon="103.603805">
<time>2015-08-05T23:24:28Z</time></trkpt>
<trkpt lat="30.50604" lon="103.603576">
<time>2015-08-05T23:24:29Z</time></trkpt>
<trkpt lat="30.50588" lon="103.603416">
<time>2015-08-05T23:24:30Z</time></trkpt>
<trkpt lat="30.50577" lon="103.603276">
<time>2015-08-05T23:24:31Z</time></trkpt>
<trkpt lat="30.50569" lon="103.603136">
<time>2015-08-05T23:24:32Z</time></trkpt>
<trkpt lat="30.50563" lon="103.602966">
<time>2015-08-05T23:24:33Z</time></trkpt>
<trkpt lat="30.50559" lon="103.602786">
<time>2015-08-05T23:24:34Z</time></trkpt>
<trkpt lat="30.50556" lon="103.602596">
<time>2015-08-05T23:24:35Z</time></trkpt>
<trkpt lat="30.50557" lon="103.602366">
<time>2015-08-05T23:24:36Z</time></trkpt>
<trkpt lat="30.50561" lon="103.602087">
<time>2015-08-05T23:24:37Z</time></trkpt>
<trkpt lat="30.505731" lon="103.601137">
<time>2015-08-05T23:24:38Z</time></trkpt>
<trkpt lat="30.505781" lon="103.600807">
<time>2015-08-05T23:24:39Z</time></trkpt>
<trkpt lat="30.505791" lon="103.600638">
<time>2015-08-05T23:24:40Z</time></trkpt>
<trkpt lat="30.505791" lon="103.600458">
<time>2015-08-05T23:24:41Z</time></trkpt>
<trkpt lat="30.505781" lon="103.600298">
<time>2015-08-05T23:24:42Z</time></trkpt>
<trkpt lat="30.505721" lon="103.599948">
<time>2015-08-05T23:24:43Z</time></trkpt>
<trkpt lat="30.505451" lon="103.599478">
<time>2015-08-05T23:24:44Z</time></trkpt>
<trkpt lat="30.505131" lon="103.598909">
<time>2015-08-05T23:24:45Z</time></trkpt>
<trkpt lat="30.504951" lon="103.598629">
<time>2015-08-05T23:24:46Z</time></trkpt>
<trkpt lat="30.504771" lon="103.598319">
<time>2015-08-05T23:24:47Z</time></trkpt>
<trkpt lat="30.504542" lon="103.597979">
<time>2015-08-05T23:24:48Z</time></trkpt>
<trkpt lat="30.504362" lon="103.597729">
<time>2015-08-05T23:24:49Z</time></trkpt>
<trkpt lat="30.504292" lon="103.597649">
<time>2015-08-05T23:24:50Z</time></trkpt>
<trkpt lat="30.504052" lon="103.597349">
<time>2015-08-05T23:24:51Z</time></trkpt>
<trkpt lat="30.503912" lon="103.597199">
<time>2015-08-05T23:24:52Z</time></trkpt>
<trkpt lat="30.503852" lon="103.597129">
<time>2015-08-05T23:24:53Z</time></trkpt>
<trkpt lat="30.503682" lon="103.596949">
<time>2015-08-05T23:24:54Z</time></trkpt>
<trkpt lat="30.503622" lon="103.59689">
<time>2015-08-05T23:24:55Z</time></trkpt>
<trkpt lat="30.503532" lon="103.59679">
<time>2015-08-05T23:24:56Z</time></trkpt>
<trkpt lat="30.503032" lon="103.59631">
<time>2015-08-05T23:24:57Z</time></trkpt>
<trkpt lat="30.502912" lon="103.59619">
<time>2015-08-05T23:24:58Z</time></trkpt>
<trkpt lat="30.502532" lon="103.5958">
<time>2015-08-05T23:24:59Z</time></trkpt>
<trkpt lat="30.502442" lon="103.59572">
<time>2015-08-05T23:25:00Z</time></trkpt>
<trkpt lat="30.502212" lon="103.59549">
<time>2015-08-05T23:25:01Z</time></trkpt>
<trkpt lat="30.502032" lon="103.59532">
<time>2015-08-05T23:25:02Z</time></trkpt>
<trkpt lat="30.501483" lon="103.59477">
<time>2015-08-05T23:25:03Z</time></trkpt>
<trkpt lat="30.500613" lon="103.593871">
<time>2015-08-05T23:25:04Z</time></trkpt>
<trkpt lat="30.500213" lon="103.593461">
<time>2015-08-05T23:25:05Z</time></trkpt>
<trkpt lat="30.500153" lon="103.593401">
<time>2015-08-05T23:25:06Z</time></trkpt>
<trkpt lat="30.500003" lon="103.593251">
<time>2015-08-05T23:25:07Z</time></trkpt>
<trkpt lat="30.499813" lon="103.593041">
<time>2015-08-05T23:25:08Z</time></trkpt>
<trkpt lat="30.499523" lon="103.592761">
<time>2015-08-05T23:25:09Z</time></trkpt>
<trkpt lat="30.499513" lon="103.592751">
<time>2015-08-05T23:25:10Z</time></trkpt>
<trkpt lat="30.499353" lon="103.592581">
<time>2015-08-05T23:25:11Z</time></trkpt>
<trkpt lat="30.499223" lon="103.592441">
<time>2015-08-05T23:25:12Z</time></trkpt>
<trkpt lat="30.499093" lon="103.592321">
<time>2015-08-05T23:25:13Z</time></trkpt>
<trkpt lat="30.498853" lon="103.592091">
<time>2015-08-05T23:25:14Z</time></trkpt>
<trkpt lat="30.498243" lon="103.591471">
<time>2015-08-05T23:25:15Z</time></trkpt>
<trkpt lat="30.498103" lon="103.591341">
<time>2015-08-05T23:25:16Z</time></trkpt>
<trkpt lat="30.497843" lon="103.591071">
<time>2015-08-05T23:25:17Z</time></trkpt>
<trkpt lat="30.497303" lon="103.590541">
<time>2015-08-05T23:25:18Z</time></trkpt>
<trkpt lat="30.496833" lon="103.590071">
<time>2015-08-05T23:25:19Z</time></trkpt>
<trkpt lat="30.496373" lon="103.589592">
<time>2015-08-05T23:25:20Z</time></trkpt>
<trkpt lat="30.496003" lon="103.589152">
<time>2015-08-05T23:25:21Z</time></trkpt>
<trkpt lat="30.495783" lon="103.588912">
<time>2015-08-05T23:25:22Z</time></trkpt>
<trkpt lat="30.495393" lon="103.588472">
<time>2015-08-05T23:25:23Z</time></trkpt>
<trkpt lat="30.495093" lon="103.588132">
<time>2015-08-05T23:25:24Z</time></trkpt>
<trkpt lat="30.494883" lon="103.587892">
<time>2015-08-05T23:25:25Z</time></trkpt>
<trkpt lat="30.494663" lon="103.587642">
<time>2015-08-05T23:25:26Z</time></trkpt>
<trkpt lat="30.494443" lon="103.587382">
<time>2015-08-05T23:25:27Z</time></trkpt>
<trkpt lat="30.494263" lon="103.587142">
<time>2015-08-05T23:25:28Z</time></trkpt>
<trkpt lat="30.493903" lon="103.586682">
<time>2015-08-05T23:25:29Z</time></trkpt>
<trkpt lat="30.493303" lon="103.585921">
<time>2015-08-05T23:25:30Z</time></trkpt>
<trkpt lat="30.492753" lon="103.585231">
<time>2015-08-05T23:25:31Z</time></trkpt>
<trkpt lat="30.492272" lon="103.584621">
<time>2015-08-05T23:25:32Z</time></trkpt>
<trkpt lat="30.492072" lon="103.584361">
<time>2015-08-05T23:25:33Z</time></trkpt>
<trkpt lat="30.491922" lon="103.584181">
<time>2015-08-05T23:25:34Z</time></trkpt>
<trkpt lat="30.491712" lon="103.583911">
<time>2015-08-05T23:25:35Z</time></trkpt>
<trkpt lat="30.491582" lon="103.583771">
<time>2015-08-05T23:25:36Z</time></trkpt>
<trkpt lat="30.491442" lon="103.583571">
<time>2015-08-05T23:25:37Z</time></trkpt>
<trkpt lat="30.491302" lon="103.583391">
<time>2015-08-05T23:25:38Z</time></trkpt>
<trkpt lat="30.490862" lon="103.582831">
<time>2015-08-05T23:25:39Z</time></trkpt>
<trkpt lat="30.490482" lon="103.582361">
<time>2015-08-05T23:25:40Z</time></trkpt>
<trkpt lat="30.490442" lon="103.582311">
<time>2015-08-05T23:25:41Z</time></trkpt>
<trkpt lat="30.490232" lon="103.582071">
<time>2015-08-05T23:25:42Z</time></trkpt>
<trkpt lat="30.490122" lon="103.581941">
<time>2015-08-05T23:25:43Z</time></trkpt>
<trkpt lat="30.490071" lon="103.581881">
<time>2015-08-05T23:25:44Z</time></trkpt>
<trkpt lat="30.490041" lon="103.581841">
<time>2015-08-05T23:25:45Z</time></trkpt>
<trkpt lat="30.489941" lon="103.581681">
<time>2015-08-05T23:25:46Z</time></trkpt>
<trkpt lat="30.489931" lon="103.581661">
<time>2015-08-05T23:25:47Z</time></trkpt>
<trkpt lat="30.489711" lon="103.58137">
<time>2015-08-05T23:25:48Z</time></trkpt>
<trkpt lat="30.489571" lon="103.58116">
<time>2015-08-05T23:25:49Z</time></trkpt>
<trkpt lat="30.489441" lon="103.58098">
<time>2015-08-05T23:25:50Z</time></trkpt>
<trkpt lat="30.489251" lon="103.58073">
<time>2015-08-05T23:25:51Z</time></trkpt>
<trkpt lat="30.489131" lon="103.58057">
<time>2015-08-05T23:25:52Z</time></trkpt>
<trkpt lat="30.489081" lon="103.58049">
<time>2015-08-05T23:25:53Z</time></trkpt>
<trkpt lat="30.489041" lon="103.58045">
<time>2015-08-05T23:25:54Z</time></trkpt>
<trkpt lat="30.488991" lon="103.58041">
<time>2015-08-05T23:25:55Z</time></trkpt>
<trkpt lat="30.488991" lon="103.5804">
<time>2015-08-05T23:25:56Z</time></trkpt>
<trkpt lat="30.488921" lon="103.58036">
<time>2015-08-05T23:25:57Z</time></trkpt>
<trkpt lat="30.488791" lon="103.58031">
<time>2015-08-05T23:25:58Z</time></trkpt>
<trkpt lat="30.488561" lon="103.5802">
<time>2015-08-05T23:25:59Z</time></trkpt>
<trkpt lat="30.487981" lon="103.58002">
<time>2015-08-05T23:26:00Z</time></trkpt>
<trkpt lat="30.487761" lon="103.57994">
<time>2015-08-05T23:26:01Z</time></trkpt>
<trkpt lat="30.486771" lon="103.57954">
<time>2015-08-05T23:26:02Z</time></trkpt>
<trkpt lat="30.486771" lon="103.57954">
<time>2015-08-05T23:26:03Z</time></trkpt>
<trkpt lat="30.486291" lon="103.57936">
<time>2015-08-05T23:26:04Z</time></trkpt>
<trkpt lat="30.486061" lon="103.57927">
<time>2015-08-05T23:26:05Z</time></trkpt>
<trkpt lat="30.484491" lon="103.578619">
<time>2015-08-05T23:26:06Z</time></trkpt>
<trkpt lat="30.483421" lon="103.578179">
<time>2015-08-05T23:26:07Z</time></trkpt>
<trkpt lat="30.482821" lon="103.577909">
<time>2015-08-05T23:26:08Z</time></trkpt>
<trkpt lat="30.481731" lon="103.577469">
<time>2015-08-05T23:26:09Z</time></trkpt>
<trkpt lat="30.48013" lon="103.576779">
<time>2015-08-05T23:26:10Z</time></trkpt>
<trkpt lat="30.47861" lon="103.576108">
<time>2015-08-05T23:26:11Z</time></trkpt>
<trkpt lat="30.47798" lon="103.575838">
<time>2015-08-05T23:26:12Z</time></trkpt>
<trkpt lat="30.47728" lon="103.575548">
<time>2015-08-05T23:26:13Z</time></trkpt>
<trkpt lat="30.47715" lon="103.575488">
<time>2015-08-05T23:26:14Z</time></trkpt>
<trkpt lat="30.47677" lon="103.575308">
<time>2015-08-05T23:26:15Z</time></trkpt>
<trkpt lat="30.47644" lon="103.575188">
<time>2015-08-05T23:26:16Z</time></trkpt>
<trkpt lat="30.47607" lon="103.575038">
<time>2015-08-05T23:26:17Z</time></trkpt>
<trkpt lat="30.4756" lon="103.574828">
<time>2015-08-05T23:26:18Z</time></trkpt>
<trkpt lat="30.47527" lon="103.574687">
<time>2015-08-05T23:26:19Z</time></trkpt>
<trkpt lat="30.47491" lon="103.574537">
<time>2015-08-05T23:26:20Z</time></trkpt>
<trkpt lat="30.47456" lon="103.574387">
<time>2015-08-05T23:26:21Z</time></trkpt>
<trkpt lat="30.47393" lon="103.574147">
<time>2015-08-05T23:26:22Z</time></trkpt>
<trkpt lat="30.47361" lon="103.574017">
<time>2015-08-05T23:26:23Z</time></trkpt>
<trkpt lat="30.4733" lon="103.573857">
<time>2015-08-05T23:26:24Z</time></trkpt>
<trkpt lat="30.473049" lon="103.573717">
<time>2015-08-05T23:26:25Z</time></trkpt>
<trkpt lat="30.472729" lon="103.573527">
<time>2015-08-05T23:26:26Z</time></trkpt>
<trkpt lat="30.472399" lon="103.573347">
<time>2015-08-05T23:26:27Z</time></trkpt>
<trkpt lat="30.472309" lon="103.573286">
<time>2015-08-05T23:26:28Z</time></trkpt>
<trkpt lat="30.472189" lon="103.573176">
<time>2015-08-05T23:26:29Z</time></trkpt>
<trkpt lat="30.472039" lon="103.573046">
<time>2015-08-05T23:26:30Z</time></trkpt>
<trkpt lat="30.471919" lon="103.572956">
<time>2015-08-05T23:26:31Z</time></trkpt>
<trkpt lat="30.471779" lon="103.572856">
<time>2015-08-05T23:26:32Z</time></trkpt>
<trkpt lat="30.471429" lon="103.572586">
<time>2015-08-05T23:26:33Z</time></trkpt>
<trkpt lat="30.471199" lon="103.572426">
<time>2015-08-05T23:26:34Z</time></trkpt>
<trkpt lat="30.470898" lon="103.572186">
<time>2015-08-05T23:26:35Z</time></trkpt>
<trkpt lat="30.470778" lon="103.572086">
<time>2015-08-05T23:26:36Z</time></trkpt>
<trkpt lat="30.470238" lon="103.571685">
<time>2015-08-05T23:26:37Z</time></trkpt>
<trkpt lat="30.469818" lon="103.571375">
<time>2015-08-05T23:26:38Z</time></trkpt>
<trkpt lat="30.469668" lon="103.571265">
<time>2015-08-05T23:26:39Z</time></trkpt>
<trkpt lat="30.469548" lon="103.571175">
<time>2015-08-05T23:26:40Z</time></trkpt>
<trkpt lat="30.469157" lon="103.570885">
<time>2015-08-05T23:26:41Z</time></trkpt>
<trkpt lat="30.468887" lon="103.570674">
<time>2015-08-05T23:26:42Z</time></trkpt>
<trkpt lat="30.468727" lon="103.570554">
<time>2015-08-05T23:26:43Z</time></trkpt>
<trkpt lat="30.468557" lon="103.570414">
<time>2015-08-05T23:26:44Z</time></trkpt>
<trkpt lat="30.468377" lon="103.570284">
<time>2015-08-05T23:26:45Z</time></trkpt>
<trkpt lat="30.468197" lon="103.570134">
<time>2015-08-05T23:26:46Z</time></trkpt>
<trkpt lat="30.468107" lon="103.570064">
<time>2015-08-05T23:26:47Z</time></trkpt>
<trkpt lat="30.468047" lon="103.570014">
<time>2015-08-05T23:26:48Z</time></trkpt>
<trkpt lat="30.467847" lon="103.569854">
<time>2015-08-05T23:26:49Z</time></trkpt>
<trkpt lat="30.467707" lon="103.569754">
<time>2015-08-05T23:26:50Z</time></trkpt>
<trkpt lat="30.467556" lon="103.569654">
<time>2015-08-05T23:26:51Z</time></trkpt>
<trkpt lat="30.467326" lon="103.569483">
<time>2015-08-05T23:26:52Z</time></trkpt>
<trkpt lat="30.467126" lon="103.569333">
<time>2015-08-05T23:26:53Z</time></trkpt>
<trkpt lat="30.466756" lon="103.569043">
<time>2015-08-05T23:26:54Z</time></trkpt>
<trkpt lat="30.466246" lon="103.568643">
<time>2015-08-05T23:26:55Z</time></trkpt>
<trkpt lat="30.465765" lon="103.568272">
<time>2015-08-05T23:26:56Z</time></trkpt>
<trkpt lat="30.465625" lon="103.568162">
<time>2015-08-05T23:26:57Z</time></trkpt>
<trkpt lat="30.465465" lon="103.568042">
<time>2015-08-05T23:26:58Z</time></trkpt>
<trkpt lat="30.465375" lon="103.567962">
<time>2015-08-05T23:26:59Z</time></trkpt>
<trkpt lat="30.465315" lon="103.567892">
<time>2015-08-05T23:27:00Z</time></trkpt>
<trkpt lat="30.465165" lon="103.567732">
<time>2015-08-05T23:27:01Z</time></trkpt>
<trkpt lat="30.465135" lon="103.567692">
<time>2015-08-05T23:27:02Z</time></trkpt>
<trkpt lat="30.464844" lon="103.567371">
<time>2015-08-05T23:27:03Z</time></trkpt>
<trkpt lat="30.464684" lon="103.567191">
<time>2015-08-05T23:27:04Z</time></trkpt>
<trkpt lat="30.464234" lon="103.566651">
<time>2015-08-05T23:27:05Z</time></trkpt>
<trkpt lat="30.463953" lon="103.56635">
<time>2015-08-05T23:27:06Z</time></trkpt>
<trkpt lat="30.463863" lon="103.56626">
<time>2015-08-05T23:27:07Z</time></trkpt>
<trkpt lat="30.463693" lon="103.56614">
<time>2015-08-05T23:27:08Z</time></trkpt>
<trkpt lat="30.463573" lon="103.56604">
<time>2015-08-05T23:27:09Z</time></trkpt>
<trkpt lat="30.463413" lon="103.56594">
<time>2015-08-05T23:27:10Z</time></trkpt>
<trkpt lat="30.463223" lon="103.56584">
<time>2015-08-05T23:27:11Z</time></trkpt>
<trkpt lat="30.462773" lon="103.565579">
<time>2015-08-05T23:27:12Z</time></trkpt>
<trkpt lat="30.462152" lon="103.565239">
<time>2015-08-05T23:27:13Z</time></trkpt>
<trkpt lat="30.461622" lon="103.564929">
<time>2015-08-05T23:27:14Z</time></trkpt>
<trkpt lat="30.460992" lon="103.564558">
<time>2015-08-05T23:27:15Z</time></trkpt>
<trkpt lat="30.460211" lon="103.564098">
<time>2015-08-05T23:27:16Z</time></trkpt>
<trkpt lat="30.459471" lon="103.563677">
<time>2015-08-05T23:27:17Z</time></trkpt>
<trkpt lat="30.459141" lon="103.563487">
<time>2015-08-05T23:27:18Z</time></trkpt>
<trkpt lat="30.45894" lon="103.563367">
<time>2015-08-05T23:27:19Z</time></trkpt>
<trkpt lat="30.45834" lon="103.563036">
<time>2015-08-05T23:27:20Z</time></trkpt>
<trkpt lat="30.45761" lon="103.562626">
<time>2015-08-05T23:27:21Z</time></trkpt>
<trkpt lat="30.456859" lon="103.562215">
<time>2015-08-05T23:27:22Z</time></trkpt>
<trkpt lat="30.455929" lon="103.561675">
<time>2015-08-05T23:27:23Z</time></trkpt>
<trkpt lat="30.455548" lon="103.561475">
<time>2015-08-05T23:27:24Z</time></trkpt>
<trkpt lat="30.455328" lon="103.561344">
<time>2015-08-05T23:27:25Z</time></trkpt>
<trkpt lat="30.455128" lon="103.561244">
<time>2015-08-05T23:27:26Z</time></trkpt>
<trkpt lat="30.455018" lon="103.561194">
<time>2015-08-05T23:27:27Z</time></trkpt>
<trkpt lat="30.454948" lon="103.561144">
<time>2015-08-05T23:27:28Z</time></trkpt>
<trkpt lat="30.454628" lon="103.560924">
<time>2015-08-05T23:27:29Z</time></trkpt>
<trkpt lat="30.454288" lon="103.560754">
<time>2015-08-05T23:27:30Z</time></trkpt>
<trkpt lat="30.454058" lon="103.560633">
<time>2015-08-05T23:27:31Z</time></trkpt>
<trkpt lat="30.453807" lon="103.560493">
<time>2015-08-05T23:27:32Z</time></trkpt>
<trkpt lat="30.453097" lon="103.560103">
<time>2015-08-05T23:27:33Z</time></trkpt>
<trkpt lat="30.452477" lon="103.559752">
<time>2015-08-05T23:27:34Z</time></trkpt>
<trkpt lat="30.452206" lon="103.559612">
<time>2015-08-05T23:27:35Z</time></trkpt>
<trkpt lat="30.451686" lon="103.559312">
<time>2015-08-05T23:27:36Z</time></trkpt>
<trkpt lat="30.451106" lon="103.558991">
<time>2015-08-05T23:27:37Z</time></trkpt>
<trkpt lat="30.450845" lon="103.558851">
<time>2015-08-05T23:27:38Z</time></trkpt>
<trkpt lat="30.450525" lon="103.558671">
<time>2015-08-05T23:27:39Z</time></trkpt>
<trkpt lat="30.450205" lon="103.55849">
<time>2015-08-05T23:27:40Z</time></trkpt>
<trkpt lat="30.449975" lon="103.55836">
<time>2015-08-05T23:27:41Z</time></trkpt>
<trkpt lat="30.449535" lon="103.55812">
<time>2015-08-05T23:27:42Z</time></trkpt>
<trkpt lat="30.449014" lon="103.557799">
<time>2015-08-05T23:27:43Z</time></trkpt>
<trkpt lat="30.448594" lon="103.557569">
<time>2015-08-05T23:27:44Z</time></trkpt>
<trkpt lat="30.448284" lon="103.557399">
<time>2015-08-05T23:27:45Z</time></trkpt>
<trkpt lat="30.447733" lon="103.557088">
<time>2015-08-05T23:27:46Z</time></trkpt>
<trkpt lat="30.447143" lon="103.556758">
<time>2015-08-05T23:27:47Z</time></trkpt>
<trkpt lat="30.446733" lon="103.556558">
<time>2015-08-05T23:27:48Z</time></trkpt>
<trkpt lat="30.446402" lon="103.556357">
<time>2015-08-05T23:27:49Z</time></trkpt>
<trkpt lat="30.445982" lon="103.556117">
<time>2015-08-05T23:27:50Z</time></trkpt>
<trkpt lat="30.445792" lon="103.556017">
<time>2015-08-05T23:27:51Z</time></trkpt>
<trkpt lat="30.445632" lon="103.555977">
<time>2015-08-05T23:27:52Z</time></trkpt>
<trkpt lat="30.445592" lon="103.555967">
<time>2015-08-05T23:27:53Z</time></trkpt>
<trkpt lat="30.445272" lon="103.555917">
<time>2015-08-05T23:27:54Z</time></trkpt>
<trkpt lat="30.444762" lon="103.555827">
<time>2015-08-05T23:27:55Z</time></trkpt>
<trkpt lat="30.444212" lon="103.555726">
<time>2015-08-05T23:27:56Z</time></trkpt>
<trkpt lat="30.444212" lon="103.555726">
<time>2015-08-05T23:27:57Z</time></trkpt>
<trkpt lat="30.444172" lon="103.555656">
<time>2015-08-05T23:27:58Z</time></trkpt>
<trkpt lat="30.444081" lon="103.555526">
<time>2015-08-05T23:27:59Z</time></trkpt>
<trkpt lat="30.443991" lon="103.555356">
<time>2015-08-05T23:28:00Z</time></trkpt>
<trkpt lat="30.443881" lon="103.555115">
<time>2015-08-05T23:28:01Z</time></trkpt>
<trkpt lat="30.443831" lon="103.555025">
<time>2015-08-05T23:28:02Z</time></trkpt>
<trkpt lat="30.44377" lon="103.554925">
<time>2015-08-05T23:28:03Z</time></trkpt>
<trkpt lat="30.44372" lon="103.554865">
<time>2015-08-05T23:28:04Z</time></trkpt>
<trkpt lat="30.44362" lon="103.554755">
<time>2015-08-05T23:28:05Z</time></trkpt>
<trkpt lat="30.4434" lon="103.554504">
<time>2015-08-05T23:28:06Z</time></trkpt>
<trkpt lat="30.44337" lon="103.554444">
<time>2015-08-05T23:28:07Z</time></trkpt>
<trkpt lat="30.44335" lon="103.554374">
<time>2015-08-05T23:28:08Z</time></trkpt>
<trkpt lat="30.443349" lon="103.554304">
<time>2015-08-05T23:28:09Z</time></trkpt>
<trkpt lat="30.443349" lon="103.554224">
<time>2015-08-05T23:28:10Z</time></trkpt>
<trkpt lat="30.443369" lon="103.553944">
<time>2015-08-05T23:28:11Z</time></trkpt>
<trkpt lat="30.443369" lon="103.553813">
<time>2015-08-05T23:28:12Z</time></trkpt>
<trkpt lat="30.443368" lon="103.553743">
<time>2015-08-05T23:28:13Z</time></trkpt>
<trkpt lat="30.443358" lon="103.553683">
<time>2015-08-05T23:28:14Z</time></trkpt>
<trkpt lat="30.443328" lon="103.553623">
<time>2015-08-05T23:28:15Z</time></trkpt>
<trkpt lat="30.443258" lon="103.553463">
<time>2015-08-05T23:28:16Z</time></trkpt>
<trkpt lat="30.443258" lon="103.553463">
<time>2015-08-05T23:28:17Z</time></trkpt>
<trkpt lat="30.443148" lon="103.553543">
<time>2015-08-05T23:28:18Z</time></trkpt>
<trkpt lat="30.443068" lon="103.553593">
<time>2015-08-05T23:28:19Z</time></trkpt>
<trkpt lat="30.442998" lon="103.553643">
<time>2015-08-05T23:28:20Z</time></trkpt>
<trkpt lat="30.442919" lon="103.553723">
<time>2015-08-05T23:28:21Z</time></trkpt>
<trkpt lat="30.442829" lon="103.553773">
<time>2015-08-05T23:28:22Z</time></trkpt>
<trkpt lat="30.442739" lon="103.553813">
<time>2015-08-05T23:28:23Z</time></trkpt>
<trkpt lat="30.442619" lon="103.553833">
<time>2015-08-05T23:28:24Z</time></trkpt>
<trkpt lat="30.442479" lon="103.553863">
<time>2015-08-05T23:28:25Z</time></trkpt>
<trkpt lat="30.442309" lon="103.553873">
<time>2015-08-05T23:28:26Z</time></trkpt>
<trkpt lat="30.442069" lon="103.553863">
<time>2015-08-05T23:28:27Z</time></trkpt>
<trkpt lat="30.441709" lon="103.553853">
<time>2015-08-05T23:28:28Z</time></trkpt>
<trkpt lat="30.441519" lon="103.553863">
<time>2015-08-05T23:28:29Z</time></trkpt>
<trkpt lat="30.441319" lon="103.553863">
<time>2015-08-05T23:28:30Z</time></trkpt>
<trkpt lat="30.441159" lon="103.553873">
<time>2015-08-05T23:28:31Z</time></trkpt>
<trkpt lat="30.440929" lon="103.553904">
<time>2015-08-05T23:28:32Z</time></trkpt>
<trkpt lat="30.440539" lon="103.553944">
<time>2015-08-05T23:28:33Z</time></trkpt>
<trkpt lat="30.44027" lon="103.553984">
<time>2015-08-05T23:28:34Z</time></trkpt>
<trkpt lat="30.44" lon="103.554004">
<time>2015-08-05T23:28:35Z</time></trkpt>
<trkpt lat="30.43965" lon="103.554054">
<time>2015-08-05T23:28:36Z</time></trkpt>
<trkpt lat="30.43949" lon="103.554084">
<time>2015-08-05T23:28:37Z</time></trkpt>
<trkpt lat="30.43908" lon="103.554104">
<time>2015-08-05T23:28:38Z</time></trkpt>
<trkpt lat="30.43886" lon="103.554124">
<time>2015-08-05T23:28:39Z</time></trkpt>
<trkpt lat="30.4382" lon="103.554204">
<time>2015-08-05T23:28:40Z</time></trkpt>
<trkpt lat="30.437741" lon="103.554244">
<time>2015-08-05T23:28:41Z</time></trkpt>
<trkpt lat="30.437511" lon="103.554284">
<time>2015-08-05T23:28:42Z</time></trkpt>
<trkpt lat="30.437411" lon="103.554294">
<time>2015-08-05T23:28:43Z</time></trkpt>
<trkpt lat="30.437081" lon="103.554314">
<time>2015-08-05T23:28:44Z</time></trkpt>
<trkpt lat="30.436731" lon="103.554344">
<time>2015-08-05T23:28:45Z</time></trkpt>
<trkpt lat="30.436521" lon="103.554375">
<time>2015-08-05T23:28:46Z</time></trkpt>
<trkpt lat="30.435991" lon="103.554415">
<time>2015-08-05T23:28:47Z</time></trkpt>
<trkpt lat="30.435392" lon="103.554465">
<time>2015-08-05T23:28:48Z</time></trkpt>
<trkpt lat="30.434812" lon="103.554525">
<time>2015-08-05T23:28:49Z</time></trkpt>
<trkpt lat="30.434182" lon="103.554585">
<time>2015-08-05T23:28:50Z</time></trkpt>
<trkpt lat="30.433842" lon="103.554615">
<time>2015-08-05T23:28:51Z</time></trkpt>
<trkpt lat="30.433462" lon="103.554645">
<time>2015-08-05T23:28:52Z</time></trkpt>
<trkpt lat="30.433032" lon="103.554675">
<time>2015-08-05T23:28:53Z</time></trkpt>
<trkpt lat="30.432673" lon="103.554695">
<time>2015-08-05T23:28:54Z</time></trkpt>
<trkpt lat="30.432323" lon="103.554685">
<time>2015-08-05T23:28:55Z</time></trkpt>
<trkpt lat="30.430633" lon="103.554675">
<time>2015-08-05T23:28:56Z</time></trkpt>
<trkpt lat="30.428663" lon="103.554455">
<time>2015-08-05T23:28:57Z</time></trkpt>
<trkpt lat="30.427123" lon="103.554275">
<time>2015-08-05T23:28:58Z</time></trkpt>
<trkpt lat="30.425233" lon="103.554064">
<time>2015-08-05T23:28:59Z</time></trkpt>
<trkpt lat="30.425193" lon="103.554054">
<time>2015-08-05T23:29:00Z</time></trkpt>
<trkpt lat="30.425193" lon="103.554054">
<time>2015-08-05T23:29:01Z</time></trkpt>
<trkpt lat="30.425063" lon="103.553794">
<time>2015-08-05T23:29:02Z</time></trkpt>
<trkpt lat="30.424691" lon="103.553133">
<time>2015-08-05T23:29:03Z</time></trkpt>
<trkpt lat="30.424521" lon="103.552812">
<time>2015-08-05T23:29:04Z</time></trkpt>
<trkpt lat="30.424461" lon="103.552682">
<time>2015-08-05T23:29:05Z</time></trkpt>
<trkpt lat="30.42418" lon="103.552231">
<time>2015-08-05T23:29:06Z</time></trkpt>
<trkpt lat="30.423819" lon="103.55164">
<time>2015-08-05T23:29:07Z</time></trkpt>
<trkpt lat="30.423408" lon="103.550969">
<time>2015-08-05T23:29:08Z</time></trkpt>
<trkpt lat="30.423207" lon="103.550628">
<time>2015-08-05T23:29:09Z</time></trkpt>
<trkpt lat="30.423057" lon="103.550418">
<time>2015-08-05T23:29:10Z</time></trkpt>
<trkpt lat="30.422996" lon="103.550338">
<time>2015-08-05T23:29:11Z</time></trkpt>
<trkpt lat="30.422906" lon="103.550258">
<time>2015-08-05T23:29:12Z</time></trkpt>
<trkpt lat="30.422816" lon="103.550178">
<time>2015-08-05T23:29:13Z</time></trkpt>
<trkpt lat="30.422386" lon="103.549807">
<time>2015-08-05T23:29:14Z</time></trkpt>
<trkpt lat="30.421795" lon="103.549356">
<time>2015-08-05T23:29:15Z</time></trkpt>
<trkpt lat="30.421204" lon="103.548975">
<time>2015-08-05T23:29:16Z</time></trkpt>
<trkpt lat="30.420904" lon="103.548805">
<time>2015-08-05T23:29:17Z</time></trkpt>
<trkpt lat="30.420423" lon="103.548485">
<time>2015-08-05T23:29:18Z</time></trkpt>
<trkpt lat="30.419913" lon="103.548134">
<time>2015-08-05T23:29:19Z</time></trkpt>
<trkpt lat="30.419262" lon="103.547713">
<time>2015-08-05T23:29:20Z</time></trkpt>
<trkpt lat="30.418902" lon="103.547463">
<time>2015-08-05T23:29:21Z</time></trkpt>
<trkpt lat="30.418261" lon="103.547022">
<time>2015-08-05T23:29:22Z</time></trkpt>
<trkpt lat="30.4179" lon="103.546801">
<time>2015-08-05T23:29:23Z</time></trkpt>
<trkpt lat="30.41722" lon="103.54634">
<time>2015-08-05T23:29:24Z</time></trkpt>
<trkpt lat="30.416989" lon="103.54618">
<time>2015-08-05T23:29:25Z</time></trkpt>
<trkpt lat="30.416819" lon="103.54606">
<time>2015-08-05T23:29:26Z</time></trkpt>
<trkpt lat="30.416679" lon="103.54597">
<time>2015-08-05T23:29:27Z</time></trkpt>
<trkpt lat="30.414076" lon="103.544206">
<time>2015-08-05T23:29:28Z</time></trkpt>
<trkpt lat="30.412554" lon="103.543174">
<time>2015-08-05T23:29:29Z</time></trkpt>
<trkpt lat="30.411482" lon="103.542453">
<time>2015-08-05T23:29:30Z</time></trkpt>
<trkpt lat="30.410361" lon="103.541691">
<time>2015-08-05T23:29:31Z</time></trkpt>
<trkpt lat="30.40985" lon="103.54134">
<time>2015-08-05T23:29:32Z</time></trkpt>
<trkpt lat="30.409049" lon="103.540799">
<time>2015-08-05T23:29:33Z</time></trkpt>
<trkpt lat="30.408018" lon="103.540087">
<time>2015-08-05T23:29:34Z</time></trkpt>
<trkpt lat="30.407367" lon="103.539647">
<time>2015-08-05T23:29:35Z</time></trkpt>
<trkpt lat="30.407367" lon="103.539647">
<time>2015-08-05T23:29:36Z</time></trkpt>
<trkpt lat="30.407486" lon="103.539256">
<time>2015-08-05T23:29:37Z</time></trkpt>
<trkpt lat="30.407625" lon="103.538875">
<time>2015-08-05T23:29:38Z</time></trkpt>
<trkpt lat="30.407685" lon="103.538754">
<time>2015-08-05T23:29:39Z</time></trkpt>
<trkpt lat="30.407685" lon="103.538754">
<time>2015-08-05T23:29:40Z</time></trkpt>
<trkpt lat="30.407594" lon="103.538474">
<time>2015-08-05T23:29:41Z</time></trkpt>
<trkpt lat="30.407564" lon="103.538344">
<time>2015-08-05T23:29:42Z</time></trkpt>
<trkpt lat="30.407554" lon="103.538313">
<time>2015-08-05T23:29:43Z</time></trkpt>
<trkpt lat="30.407544" lon="103.538283">
<time>2015-08-05T23:29:44Z</time></trkpt>
<trkpt lat="30.407523" lon="103.538253">
<time>2015-08-05T23:29:45Z</time></trkpt>
<trkpt lat="30.407483" lon="103.538173">
<time>2015-08-05T23:29:46Z</time></trkpt>
<trkpt lat="30.407483" lon="103.538163">
<time>2015-08-05T23:29:47Z</time></trkpt>
<trkpt lat="30.407403" lon="103.538043">
<time>2015-08-05T23:29:48Z</time></trkpt>
<trkpt lat="30.407383" lon="103.537993">
<time>2015-08-05T23:29:49Z</time></trkpt>
<trkpt lat="30.407353" lon="103.537943">
<time>2015-08-05T23:29:50Z</time></trkpt>
<trkpt lat="30.407302" lon="103.537832">
<time>2015-08-05T23:29:51Z</time></trkpt>
<trkpt lat="30.407282" lon="103.537772">
<time>2015-08-05T23:29:52Z</time></trkpt>
<trkpt lat="30.407262" lon="103.537732">
<time>2015-08-05T23:29:53Z</time></trkpt>
<trkpt lat="30.407242" lon="103.537712">
<time>2015-08-05T23:29:54Z</time></trkpt>
<trkpt lat="30.407222" lon="103.537682">
<time>2015-08-05T23:29:55Z</time></trkpt>
<trkpt lat="30.407202" lon="103.537662">
<time>2015-08-05T23:29:56Z</time></trkpt>
<trkpt lat="30.407182" lon="103.537642">
<time>2015-08-05T23:29:57Z</time></trkpt>
<trkpt lat="30.407162" lon="103.537622">
<time>2015-08-05T23:29:58Z</time></trkpt>
<trkpt lat="30.407132" lon="103.537602">
<time>2015-08-05T23:29:59Z</time></trkpt>
<trkpt lat="30.407102" lon="103.537592">
<time>2015-08-05T23:30:00Z</time></trkpt>
<trkpt lat="30.406992" lon="103.537532">
<time>2015-08-05T23:30:01Z</time></trkpt>
<trkpt lat="30.406882" lon="103.537462">
<time>2015-08-05T23:30:02Z</time></trkpt>
<trkpt lat="30.406812" lon="103.537421">
<time>2015-08-05T23:30:03Z</time></trkpt>
<trkpt lat="30.406752" lon="103.537391">
<time>2015-08-05T23:30:04Z</time></trkpt>
<trkpt lat="30.406651" lon="103.537331">
<time>2015-08-05T23:30:05Z</time></trkpt>
<trkpt lat="30.406581" lon="103.537281">
<time>2015-08-05T23:30:06Z</time></trkpt>
<trkpt lat="30.406541" lon="103.537251">
<time>2015-08-05T23:30:07Z</time></trkpt>
<trkpt lat="30.406481" lon="103.537211">
<time>2015-08-05T23:30:08Z</time></trkpt>
<trkpt lat="30.406441" lon="103.537181">
<time>2015-08-05T23:30:09Z</time></trkpt>
<trkpt lat="30.406401" lon="103.537171">
<time>2015-08-05T23:30:10Z</time></trkpt>
<trkpt lat="30.406371" lon="103.537161">
<time>2015-08-05T23:30:11Z</time></trkpt>
<trkpt lat="30.406321" lon="103.537151">
<time>2015-08-05T23:30:12Z</time></trkpt>
<trkpt lat="30.405991" lon="103.537081">
<time>2015-08-05T23:30:13Z</time></trkpt>
<trkpt lat="30.405991" lon="103.537081">
<time>2015-08-05T23:30:14Z</time></trkpt>
<trkpt lat="30.40602" lon="103.53671">
<time>2015-08-05T23:30:15Z</time></trkpt>
<trkpt lat="30.406039" lon="103.536158">
<time>2015-08-05T23:30:16Z</time></trkpt>
<trkpt lat="30.405977" lon="103.535377">
<time>2015-08-05T23:30:17Z</time></trkpt>
<trkpt lat="30.405834" lon="103.534334">
<time>2015-08-05T23:30:18Z</time></trkpt>
<trkpt lat="30.405661" lon="103.533041">
<time>2015-08-05T23:30:19Z</time></trkpt>
<trkpt lat="30.405529" lon="103.532169">
<time>2015-08-05T23:30:20Z</time></trkpt>
<trkpt lat="30.405478" lon="103.531838">
<time>2015-08-05T23:30:21Z</time></trkpt>
<trkpt lat="30.405407" lon="103.531557">
<time>2015-08-05T23:30:22Z</time></trkpt>
<trkpt lat="30.405296" lon="103.531076">
<time>2015-08-05T23:30:23Z</time></trkpt>
<trkpt lat="30.405235" lon="103.530725">
<time>2015-08-05T23:30:24Z</time></trkpt>
<trkpt lat="30.405185" lon="103.530485">
<time>2015-08-05T23:30:25Z</time></trkpt>
<trkpt lat="30.405164" lon="103.530073">
<time>2015-08-05T23:30:26Z</time></trkpt>
<trkpt lat="30.405172" lon="103.529291">
<time>2015-08-05T23:30:27Z</time></trkpt>
<trkpt lat="30.40521" lon="103.52883">
<time>2015-08-05T23:30:28Z</time></trkpt>
<trkpt lat="30.40522" lon="103.52873">
<time>2015-08-05T23:30:29Z</time></trkpt>
<trkpt lat="30.40522" lon="103.5286">
<time>2015-08-05T23:30:30Z</time></trkpt>
<trkpt lat="30.405189" lon="103.528369">
<time>2015-08-05T23:30:31Z</time></trkpt>
<trkpt lat="30.405158" lon="103.528098">
<time>2015-08-05T23:30:32Z</time></trkpt>
<trkpt lat="30.405138" lon="103.527838">
<time>2015-08-05T23:30:33Z</time></trkpt>
<trkpt lat="30.405117" lon="103.527477">
<time>2015-08-05T23:30:34Z</time></trkpt>
<trkpt lat="30.405116" lon="103.527176">
<time>2015-08-05T23:30:35Z</time></trkpt>
<trkpt lat="30.405134" lon="103.526554">
<time>2015-08-05T23:30:36Z</time></trkpt>
<trkpt lat="30.405132" lon="103.525772">
<time>2015-08-05T23:30:37Z</time></trkpt>
<trkpt lat="30.405121" lon="103.525271">
<time>2015-08-05T23:30:38Z</time></trkpt>
<trkpt lat="30.40517" lon="103.524739">
<time>2015-08-05T23:30:39Z</time></trkpt>
<trkpt lat="30.405169" lon="103.524659">
<time>2015-08-05T23:30:40Z</time></trkpt>
<trkpt lat="30.405159" lon="103.524609">
<time>2015-08-05T23:30:41Z</time></trkpt>
<trkpt lat="30.405149" lon="103.524529">
<time>2015-08-05T23:30:42Z</time></trkpt>
<trkpt lat="30.405139" lon="103.524499">
<time>2015-08-05T23:30:43Z</time></trkpt>
<trkpt lat="30.405119" lon="103.524459">
<time>2015-08-05T23:30:44Z</time></trkpt>
<trkpt lat="30.405109" lon="103.524429">
<time>2015-08-05T23:30:45Z</time></trkpt>
<trkpt lat="30.405099" lon="103.524399">
<time>2015-08-05T23:30:46Z</time></trkpt>
<trkpt lat="30.405049" lon="103.524358">
<time>2015-08-05T23:30:47Z</time></trkpt>
<trkpt lat="30.405049" lon="103.524358">
<time>2015-08-05T23:30:48Z</time></trkpt>
<trkpt lat="30.406011" lon="103.521651">
<time>2015-08-05T23:30:49Z</time></trkpt>
<trkpt lat="30.406805" lon="103.519515">
<time>2015-08-05T23:30:50Z</time></trkpt>
<trkpt lat="30.407023" lon="103.518923">
<time>2015-08-05T23:30:51Z</time></trkpt>
<trkpt lat="30.407549" lon="103.517499">
<time>2015-08-05T23:30:52Z</time></trkpt>
<trkpt lat="30.407827" lon="103.516697">
<time>2015-08-05T23:30:53Z</time></trkpt>
<trkpt lat="30.407965" lon="103.516196">
<time>2015-08-05T23:30:54Z</time></trkpt>
<trkpt lat="30.408094" lon="103.515664">
<time>2015-08-05T23:30:55Z</time></trkpt>
<trkpt lat="30.408271" lon="103.514832">
<time>2015-08-05T23:30:56Z</time></trkpt>
<trkpt lat="30.40832" lon="103.51445">
<time>2015-08-05T23:30:57Z</time></trkpt>
<trkpt lat="30.40834" lon="103.51433">
<time>2015-08-05T23:30:58Z</time></trkpt>
<trkpt lat="30.408358" lon="103.513758">
<time>2015-08-05T23:30:59Z</time></trkpt>
<trkpt lat="30.408385" lon="103.512846">
<time>2015-08-05T23:31:00Z</time></trkpt>
<trkpt lat="30.408384" lon="103.512344">
<time>2015-08-05T23:31:01Z</time></trkpt>
<trkpt lat="30.408362" lon="103.511582">
<time>2015-08-05T23:31:02Z</time></trkpt>
<trkpt lat="30.408341" lon="103.511251">
<time>2015-08-05T23:31:03Z</time></trkpt>
<trkpt lat="30.408288" lon="103.510399">
<time>2015-08-05T23:31:04Z</time></trkpt>
<trkpt lat="30.408152" lon="103.508102">
<time>2015-08-05T23:31:05Z</time></trkpt>
<trkpt lat="30.407899" lon="103.503709">
<time>2015-08-05T23:31:06Z</time></trkpt>
<trkpt lat="30.407772" lon="103.501522">
<time>2015-08-05T23:31:07Z</time></trkpt>
<trkpt lat="30.407698" lon="103.500228">
<time>2015-08-05T23:31:08Z</time></trkpt>
<trkpt lat="30.407677" lon="103.500008">
<time>2015-08-05T23:31:09Z</time></trkpt>
<trkpt lat="30.407615" lon="103.499326">
<time>2015-08-05T23:31:10Z</time></trkpt>
<trkpt lat="30.407615" lon="103.499316">
<time>2015-08-05T23:31:11Z</time></trkpt>
<trkpt lat="30.407352" lon="103.494872">
<time>2015-08-05T23:31:12Z</time></trkpt>
<trkpt lat="30.4073" lon="103.49403">
<time>2015-08-05T23:31:13Z</time></trkpt>
<trkpt lat="30.407289" lon="103.493839">
<time>2015-08-05T23:31:14Z</time></trkpt>
<trkpt lat="30.406763" lon="103.485063">
<time>2015-08-05T23:31:15Z</time></trkpt>
<trkpt lat="30.4067" lon="103.48406">
<time>2015-08-05T23:31:16Z</time></trkpt>
<trkpt lat="30.4067" lon="103.484">
<time>2015-08-05T23:31:17Z</time></trkpt>
<trkpt lat="30.406606" lon="103.482476">
<time>2015-08-05T23:31:18Z</time></trkpt>
<trkpt lat="30.406543" lon="103.481503">
<time>2015-08-05T23:31:19Z</time></trkpt>
<trkpt lat="30.40649" lon="103.48059">
<time>2015-08-05T23:31:20Z</time></trkpt>
<trkpt lat="30.406459" lon="103.480199">
<time>2015-08-05T23:31:21Z</time></trkpt>
<trkpt lat="30.406417" lon="103.479597">
<time>2015-08-05T23:31:22Z</time></trkpt>
<trkpt lat="30.406407" lon="103.479347">
<time>2015-08-05T23:31:23Z</time></trkpt>
<trkpt lat="30.406396" lon="103.479286">
<time>2015-08-05T23:31:24Z</time></trkpt>
<trkpt lat="30.406354" lon="103.478595">
<time>2015-08-05T23:31:25Z</time></trkpt>
<trkpt lat="30.406334" lon="103.478304">
<time>2015-08-05T23:31:26Z</time></trkpt>
<trkpt lat="30.406281" lon="103.477552">
<time>2015-08-05T23:31:27Z</time></trkpt>
<trkpt lat="30.406271" lon="103.477512">
<time>2015-08-05T23:31:28Z</time></trkpt>
<trkpt lat="30.406271" lon="103.477421">
<time>2015-08-05T23:31:29Z</time></trkpt>
<trkpt lat="30.406229" lon="103.476639">
<time>2015-08-05T23:31:30Z</time></trkpt>
<trkpt lat="30.406229" lon="103.476589">
<time>2015-08-05T23:31:31Z</time></trkpt>
<trkpt lat="30.406229" lon="103.476589">
<time>2015-08-05T23:31:32Z</time></trkpt>
<trkpt lat="30.405417" lon="103.475887">
<time>2015-08-05T23:31:33Z</time></trkpt>
<trkpt lat="30.405287" lon="103.475777">
<time>2015-08-05T23:31:34Z</time></trkpt>
<trkpt lat="30.405006" lon="103.475536">
<time>2015-08-05T23:31:35Z</time></trkpt>
<trkpt lat="30.404735" lon="103.475305">
<time>2015-08-05T23:31:36Z</time></trkpt>
<trkpt lat="30.404465" lon="103.475065">
<time>2015-08-05T23:31:37Z</time></trkpt>
<trkpt lat="30.403753" lon="103.474453">
<time>2015-08-05T23:31:38Z</time></trkpt>
<trkpt lat="30.402861" lon="103.473681">
<time>2015-08-05T23:31:39Z</time></trkpt>
<trkpt lat="30.40214" lon="103.473069">
<time>2015-08-05T23:31:40Z</time></trkpt>
<trkpt lat="30.401879" lon="103.472839">
<time>2015-08-05T23:31:41Z</time></trkpt>
<trkpt lat="30.401318" lon="103.472378">
<time>2015-08-05T23:31:42Z</time></trkpt>
<trkpt lat="30.401258" lon="103.472328">
<time>2015-08-05T23:31:43Z</time></trkpt>
<trkpt lat="30.399675" lon="103.471024">
<time>2015-08-05T23:31:44Z</time></trkpt>
<trkpt lat="30.399635" lon="103.470994">
<time>2015-08-05T23:31:45Z</time></trkpt>
<trkpt lat="30.397741" lon="103.46944">
<time>2015-08-05T23:31:46Z</time></trkpt>
<trkpt lat="30.396889" lon="103.468738">
<time>2015-08-05T23:31:47Z</time></trkpt>
<trkpt lat="30.394915" lon="103.467084">
<time>2015-08-05T23:31:48Z</time></trkpt>
<trkpt lat="30.393973" lon="103.466302">
<time>2015-08-05T23:31:49Z</time></trkpt>
<trkpt lat="30.391829" lon="103.464518">
<time>2015-08-05T23:31:50Z</time></trkpt>
<trkpt lat="30.391789" lon="103.464458">
<time>2015-08-05T23:31:51Z</time></trkpt>
<trkpt lat="30.389645" lon="103.462673">
<time>2015-08-05T23:31:52Z</time></trkpt>
<trkpt lat="30.389524" lon="103.462573">
<time>2015-08-05T23:31:53Z</time></trkpt>
<trkpt lat="30.389324" lon="103.462403">
<time>2015-08-05T23:31:54Z</time></trkpt>
<trkpt lat="30.38746" lon="103.460829">
<time>2015-08-05T23:31:55Z</time></trkpt>
<trkpt lat="30.38714" lon="103.460559">
<time>2015-08-05T23:31:56Z</time></trkpt>
<trkpt lat="30.386799" lon="103.460278">
<time>2015-08-05T23:31:57Z</time></trkpt>
<trkpt lat="30.386519" lon="103.460047">
<time>2015-08-05T23:31:58Z</time></trkpt>
<trkpt lat="30.386298" lon="103.459897">
<time>2015-08-05T23:31:59Z</time></trkpt>
<trkpt lat="30.386178" lon="103.459807">
<time>2015-08-05T23:32:00Z</time></trkpt>
<trkpt lat="30.386078" lon="103.459747">
<time>2015-08-05T23:32:01Z</time></trkpt>
<trkpt lat="30.385748" lon="103.459556">
<time>2015-08-05T23:32:02Z</time></trkpt>
<trkpt lat="30.385557" lon="103.459476">
<time>2015-08-05T23:32:03Z</time></trkpt>
<trkpt lat="30.385527" lon="103.459466">
<time>2015-08-05T23:32:04Z</time></trkpt>
<trkpt lat="30.385387" lon="103.459406">
<time>2015-08-05T23:32:05Z</time></trkpt>
<trkpt lat="30.385007" lon="103.459296">
<time>2015-08-05T23:32:06Z</time></trkpt>
<trkpt lat="30.384687" lon="103.459226">
<time>2015-08-05T23:32:07Z</time></trkpt>
<trkpt lat="30.384507" lon="103.459195">
<time>2015-08-05T23:32:08Z</time></trkpt>
<trkpt lat="30.383777" lon="103.459115">
<time>2015-08-05T23:32:09Z</time></trkpt>
<trkpt lat="30.383627" lon="103.459085">
<time>2015-08-05T23:32:10Z</time></trkpt>
<trkpt lat="30.383467" lon="103.459055">
<time>2015-08-05T23:32:11Z</time></trkpt>
<trkpt lat="30.383257" lon="103.459005">
<time>2015-08-05T23:32:12Z</time></trkpt>
<trkpt lat="30.383087" lon="103.458935">
<time>2015-08-05T23:32:13Z</time></trkpt>
<trkpt lat="30.382946" lon="103.458865">
<time>2015-08-05T23:32:14Z</time></trkpt>
<trkpt lat="30.382756" lon="103.458755">
<time>2015-08-05T23:32:15Z</time></trkpt>
<trkpt lat="30.382676" lon="103.458714">
<time>2015-08-05T23:32:16Z</time></trkpt>
<trkpt lat="30.382546" lon="103.458624">
<time>2015-08-05T23:32:17Z</time></trkpt>
<trkpt lat="30.382436" lon="103.458534">
<time>2015-08-05T23:32:18Z</time></trkpt>
<trkpt lat="30.382305" lon="103.458414">
<time>2015-08-05T23:32:19Z</time></trkpt>
<trkpt lat="30.382175" lon="103.458273">
<time>2015-08-05T23:32:20Z</time></trkpt>
<trkpt lat="30.382025" lon="103.458093">
<time>2015-08-05T23:32:21Z</time></trkpt>
<trkpt lat="30.381824" lon="103.457772">
<time>2015-08-05T23:32:22Z</time></trkpt>
<trkpt lat="30.381623" lon="103.457381">
<time>2015-08-05T23:32:23Z</time></trkpt>
<trkpt lat="30.381523" lon="103.457161">
<time>2015-08-05T23:32:24Z</time></trkpt>
<trkpt lat="30.38103" lon="103.455978">
<time>2015-08-05T23:32:25Z</time></trkpt>
<trkpt lat="30.380829" lon="103.455507">
<time>2015-08-05T23:32:26Z</time></trkpt>
<trkpt lat="30.380658" lon="103.455117">
<time>2015-08-05T23:32:27Z</time></trkpt>
<trkpt lat="30.380578" lon="103.454926">
<time>2015-08-05T23:32:28Z</time></trkpt>
<trkpt lat="30.380507" lon="103.454796">
<time>2015-08-05T23:32:29Z</time></trkpt>
<trkpt lat="30.380387" lon="103.454565">
<time>2015-08-05T23:32:30Z</time></trkpt>
<trkpt lat="30.380226" lon="103.454305">
<time>2015-08-05T23:32:31Z</time></trkpt>
<trkpt lat="30.380066" lon="103.454044">
<time>2015-08-05T23:32:32Z</time></trkpt>
<trkpt lat="30.379965" lon="103.453904">
<time>2015-08-05T23:32:33Z</time></trkpt>
<trkpt lat="30.379825" lon="103.453734">
<time>2015-08-05T23:32:34Z</time></trkpt>
<trkpt lat="30.379685" lon="103.453553">
<time>2015-08-05T23:32:35Z</time></trkpt>
<trkpt lat="30.379434" lon="103.453283">
<time>2015-08-05T23:32:36Z</time></trkpt>
<trkpt lat="30.379264" lon="103.453102">
<time>2015-08-05T23:32:37Z</time></trkpt>
<trkpt lat="30.378973" lon="103.452852">
<time>2015-08-05T23:32:38Z</time></trkpt>
<trkpt lat="30.378693" lon="103.452642">
<time>2015-08-05T23:32:39Z</time></trkpt>
<trkpt lat="30.378462" lon="103.452471">
<time>2015-08-05T23:32:40Z</time></trkpt>
<trkpt lat="30.37678" lon="103.451339">
<time>2015-08-05T23:32:41Z</time></trkpt>
<trkpt lat="30.375619" lon="103.450537">
<time>2015-08-05T23:32:42Z</time></trkpt>
<trkpt lat="30.374687" lon="103.449836">
<time>2015-08-05T23:32:43Z</time></trkpt>
<trkpt lat="30.374417" lon="103.449626">
<time>2015-08-05T23:32:44Z</time></trkpt>
<trkpt lat="30.373285" lon="103.448654">
<time>2015-08-05T23:32:45Z</time></trkpt>
<trkpt lat="30.373285" lon="103.448644">
<time>2015-08-05T23:32:46Z</time></trkpt>
<trkpt lat="30.369619" lon="103.445468">
<time>2015-08-05T23:32:47Z</time></trkpt>
<trkpt lat="30.369018" lon="103.444947">
<time>2015-08-05T23:32:48Z</time></trkpt>
<trkpt lat="30.368828" lon="103.444787">
<time>2015-08-05T23:32:49Z</time></trkpt>
<trkpt lat="30.368007" lon="103.444086">
<time>2015-08-05T23:32:50Z</time></trkpt>
<trkpt lat="30.366996" lon="103.443355">
<time>2015-08-05T23:32:51Z</time></trkpt>
<trkpt lat="30.366795" lon="103.443215">
<time>2015-08-05T23:32:52Z</time></trkpt>
<trkpt lat="30.363342" lon="103.441091">
<time>2015-08-05T23:32:53Z</time></trkpt>
<trkpt lat="30.362171" lon="103.44037">
<time>2015-08-05T23:32:54Z</time></trkpt>
<trkpt lat="30.361851" lon="103.44017">
<time>2015-08-05T23:32:55Z</time></trkpt>
<trkpt lat="30.361831" lon="103.44016">
<time>2015-08-05T23:32:56Z</time></trkpt>
<trkpt lat="30.361731" lon="103.44009">
<time>2015-08-05T23:32:57Z</time></trkpt>
<trkpt lat="30.359619" lon="103.438798">
<time>2015-08-05T23:32:58Z</time></trkpt>
<trkpt lat="30.359298" lon="103.438608">
<time>2015-08-05T23:32:59Z</time></trkpt>
<trkpt lat="30.359218" lon="103.438558">
<time>2015-08-05T23:33:00Z</time></trkpt>
<trkpt lat="30.358878" lon="103.438327">
<time>2015-08-05T23:33:01Z</time></trkpt>
<trkpt lat="30.358828" lon="103.438297">
<time>2015-08-05T23:33:02Z</time></trkpt>
<trkpt lat="30.358447" lon="103.437997">
<time>2015-08-05T23:33:03Z</time></trkpt>
<trkpt lat="30.358047" lon="103.437636">
<time>2015-08-05T23:33:04Z</time></trkpt>
<trkpt lat="30.357676" lon="103.437256">
<time>2015-08-05T23:33:05Z</time></trkpt>
<trkpt lat="30.357276" lon="103.436765">
<time>2015-08-05T23:33:06Z</time></trkpt>
<trkpt lat="30.356614" lon="103.435784">
<time>2015-08-05T23:33:07Z</time></trkpt>
<trkpt lat="30.355582" lon="103.434202">
<time>2015-08-05T23:33:08Z</time></trkpt>
<trkpt lat="30.355241" lon="103.433671">
<time>2015-08-05T23:33:09Z</time></trkpt>
<trkpt lat="30.355031" lon="103.433361">
<time>2015-08-05T23:33:10Z</time></trkpt>
<trkpt lat="30.353848" lon="103.431519">
<time>2015-08-05T23:33:11Z</time></trkpt>
<trkpt lat="30.353788" lon="103.431429">
<time>2015-08-05T23:33:12Z</time></trkpt>
<trkpt lat="30.353387" lon="103.430828">
<time>2015-08-05T23:33:13Z</time></trkpt>
<trkpt lat="30.351103" lon="103.427385">
<time>2015-08-05T23:33:14Z</time></trkpt>
<trkpt lat="30.350803" lon="103.427025">
<time>2015-08-05T23:33:15Z</time></trkpt>
<trkpt lat="30.350472" lon="103.426665">
<time>2015-08-05T23:33:16Z</time></trkpt>
<trkpt lat="30.349882" lon="103.426154">
<time>2015-08-05T23:33:17Z</time></trkpt>
<trkpt lat="30.349522" lon="103.425894">
<time>2015-08-05T23:33:18Z</time></trkpt>
<trkpt lat="30.349221" lon="103.425694">
<time>2015-08-05T23:33:19Z</time></trkpt>
<trkpt lat="30.348611" lon="103.425354">
<time>2015-08-05T23:33:20Z</time></trkpt>
<trkpt lat="30.34679" lon="103.424463">
<time>2015-08-05T23:33:21Z</time></trkpt>
<trkpt lat="30.34437" lon="103.423292">
<time>2015-08-05T23:33:22Z</time></trkpt>
<trkpt lat="30.343469" lon="103.422862">
<time>2015-08-05T23:33:23Z</time></trkpt>
<trkpt lat="30.342809" lon="103.422532">
<time>2015-08-05T23:33:24Z</time></trkpt>
<trkpt lat="30.339998" lon="103.421171">
<time>2015-08-05T23:33:25Z</time></trkpt>
<trkpt lat="30.339948" lon="103.421141">
<time>2015-08-05T23:33:26Z</time></trkpt>
<trkpt lat="30.339488" lon="103.420921">
<time>2015-08-05T23:33:27Z</time></trkpt>
<trkpt lat="30.339068" lon="103.420711">
<time>2015-08-05T23:33:28Z</time></trkpt>
<trkpt lat="30.338177" lon="103.420281">
<time>2015-08-05T23:33:29Z</time></trkpt>
<trkpt lat="30.336697" lon="103.41955">
<time>2015-08-05T23:33:30Z</time></trkpt>
<trkpt lat="30.336317" lon="103.41935">
<time>2015-08-05T23:33:31Z</time></trkpt>
<trkpt lat="30.336077" lon="103.4192">
<time>2015-08-05T23:33:32Z</time></trkpt>
<trkpt lat="30.335887" lon="103.41906">
<time>2015-08-05T23:33:33Z</time></trkpt>
<trkpt lat="30.335596" lon="103.4188">
<time>2015-08-05T23:33:34Z</time></trkpt>
<trkpt lat="30.335446" lon="103.41867">
<time>2015-08-05T23:33:35Z</time></trkpt>
<trkpt lat="30.334606" lon="103.4178">
<time>2015-08-05T23:33:36Z</time></trkpt>
<trkpt lat="30.333335" lon="103.416479">
<time>2015-08-05T23:33:37Z</time></trkpt>
<trkpt lat="30.332014" lon="103.415069">
<time>2015-08-05T23:33:38Z</time></trkpt>
<trkpt lat="30.331604" lon="103.414629">
<time>2015-08-05T23:33:39Z</time></trkpt>
<trkpt lat="30.330853" lon="103.413839">
<time>2015-08-05T23:33:40Z</time></trkpt>
<trkpt lat="30.330483" lon="103.413479">
<time>2015-08-05T23:33:41Z</time></trkpt>
<trkpt lat="30.330273" lon="103.413329">
<time>2015-08-05T23:33:42Z</time></trkpt>
<trkpt lat="30.329953" lon="103.413089">
<time>2015-08-05T23:33:43Z</time></trkpt>
<trkpt lat="30.328433" lon="103.412139">
<time>2015-08-05T23:33:44Z</time></trkpt>
<trkpt lat="30.328413" lon="103.412119">
<time>2015-08-05T23:33:45Z</time></trkpt>
<trkpt lat="30.327462" lon="103.411449">
<time>2015-08-05T23:33:46Z</time></trkpt>
<trkpt lat="30.327022" lon="103.411069">
<time>2015-08-05T23:33:47Z</time></trkpt>
<trkpt lat="30.326782" lon="103.410829">
<time>2015-08-05T23:33:48Z</time></trkpt>
<trkpt lat="30.326442" lon="103.410409">
<time>2015-08-05T23:33:49Z</time></trkpt>
<trkpt lat="30.326272" lon="103.410149">
<time>2015-08-05T23:33:50Z</time></trkpt>
<trkpt lat="30.325902" lon="103.409589">
<time>2015-08-05T23:33:51Z</time></trkpt>
<trkpt lat="30.325642" lon="103.409159">
<time>2015-08-05T23:33:52Z</time></trkpt>
<trkpt lat="30.324371" lon="103.406789">
<time>2015-08-05T23:33:53Z</time></trkpt>
<trkpt lat="30.323911" lon="103.405999">
<time>2015-08-05T23:33:54Z</time></trkpt>
<trkpt lat="30.323491" lon="103.40532">
<time>2015-08-05T23:33:55Z</time></trkpt>
<trkpt lat="30.322751" lon="103.4042">
<time>2015-08-05T23:33:56Z</time></trkpt>
<trkpt lat="30.32216" lon="103.40331">
<time>2015-08-05T23:33:57Z</time></trkpt>
<trkpt lat="30.32165" lon="103.402531">
<time>2015-08-05T23:33:58Z</time></trkpt>
<trkpt lat="30.32151" lon="103.402321">
<time>2015-08-05T23:33:59Z</time></trkpt>
<trkpt lat="30.32079" lon="103.401191">
<time>2015-08-05T23:34:00Z</time></trkpt>
<trkpt lat="30.32049" lon="103.400711">
<time>2015-08-05T23:34:01Z</time></trkpt>
<trkpt lat="30.32011" lon="103.400222">
<time>2015-08-05T23:34:02Z</time></trkpt>
<trkpt lat="30.319501" lon="103.399602">
<time>2015-08-05T23:34:03Z</time></trkpt>
<trkpt lat="30.319231" lon="103.399322">
<time>2015-08-05T23:34:04Z</time></trkpt>
<trkpt lat="30.318501" lon="103.398553">
<time>2015-08-05T23:34:05Z</time></trkpt>
<trkpt lat="30.317931" lon="103.397943">
<time>2015-08-05T23:34:06Z</time></trkpt>
<trkpt lat="30.317201" lon="103.397094">
<time>2015-08-05T23:34:07Z</time></trkpt>
<trkpt lat="30.315801" lon="103.395075">
<time>2015-08-05T23:34:08Z</time></trkpt>
<trkpt lat="30.315692" lon="103.394926">
<time>2015-08-05T23:34:09Z</time></trkpt>
<trkpt lat="30.314502" lon="103.393127">
<time>2015-08-05T23:34:10Z</time></trkpt>
<trkpt lat="30.313653" lon="103.391988">
<time>2015-08-05T23:34:11Z</time></trkpt>
<trkpt lat="30.313523" lon="103.391838">
<time>2015-08-05T23:34:12Z</time></trkpt>
<trkpt lat="30.313403" lon="103.391699">
<time>2015-08-05T23:34:13Z</time></trkpt>
<trkpt lat="30.312543" lon="103.39069">
<time>2015-08-05T23:34:14Z</time></trkpt>
<trkpt lat="30.311734" lon="103.389741">
<time>2015-08-05T23:34:15Z</time></trkpt>
<trkpt lat="30.310405" lon="103.388132">
<time>2015-08-05T23:34:16Z</time></trkpt>
<trkpt lat="30.309605" lon="103.387273">
<time>2015-08-05T23:34:17Z</time></trkpt>
<trkpt lat="30.309435" lon="103.387114">
<time>2015-08-05T23:34:18Z</time></trkpt>
<trkpt lat="30.308306" lon="103.386085">
<time>2015-08-05T23:34:19Z</time></trkpt>
<trkpt lat="30.308056" lon="103.385855">
<time>2015-08-05T23:34:20Z</time></trkpt>
<trkpt lat="30.305887" lon="103.384198">
<time>2015-08-05T23:34:21Z</time></trkpt>
<trkpt lat="30.305657" lon="103.384058">
<time>2015-08-05T23:34:22Z</time></trkpt>
<trkpt lat="30.304858" lon="103.383568">
<time>2015-08-05T23:34:23Z</time></trkpt>
<trkpt lat="30.304468" lon="103.383329">
<time>2015-08-05T23:34:24Z</time></trkpt>
<trkpt lat="30.302759" lon="103.38244">
<time>2015-08-05T23:34:25Z</time></trkpt>
<trkpt lat="30.30083" lon="103.381521">
<time>2015-08-05T23:34:26Z</time></trkpt>
<trkpt lat="30.30076" lon="103.381491">
<time>2015-08-05T23:34:27Z</time></trkpt>
<trkpt lat="30.30023" lon="103.381232">
<time>2015-08-05T23:34:28Z</time></trkpt>
<trkpt lat="30.298581" lon="103.380423">
<time>2015-08-05T23:34:29Z</time></trkpt>
<trkpt lat="30.297591" lon="103.379894">
<time>2015-08-05T23:34:30Z</time></trkpt>
<trkpt lat="30.296872" lon="103.379515">
<time>2015-08-05T23:34:31Z</time></trkpt>
<trkpt lat="30.295243" lon="103.378506">
<time>2015-08-05T23:34:32Z</time></trkpt>
<trkpt lat="30.294283" lon="103.377907">
<time>2015-08-05T23:34:33Z</time></trkpt>
<trkpt lat="30.293334" lon="103.377318">
<time>2015-08-05T23:34:34Z</time></trkpt>
<trkpt lat="30.292675" lon="103.376899">
<time>2015-08-05T23:34:35Z</time></trkpt>
<trkpt lat="30.292315" lon="103.376619">
<time>2015-08-05T23:34:36Z</time></trkpt>
<trkpt lat="30.292305" lon="103.376609">
<time>2015-08-05T23:34:37Z</time></trkpt>
<trkpt lat="30.292125" lon="103.37643">
<time>2015-08-05T23:34:38Z</time></trkpt>
<trkpt lat="30.292035" lon="103.37632">
<time>2015-08-05T23:34:39Z</time></trkpt>
<trkpt lat="30.291965" lon="103.37621">
<time>2015-08-05T23:34:40Z</time></trkpt>
<trkpt lat="30.291466" lon="103.375342">
<time>2015-08-05T23:34:41Z</time></trkpt>
<trkpt lat="30.291276" lon="103.375002">
<time>2015-08-05T23:34:42Z</time></trkpt>
<trkpt lat="30.290279" lon="103.373056">
<time>2015-08-05T23:34:43Z</time></trkpt>
<trkpt lat="30.290059" lon="103.372617">
<time>2015-08-05T23:34:44Z</time></trkpt>
<trkpt lat="30.290039" lon="103.372587">
<time>2015-08-05T23:34:45Z</time></trkpt>
<trkpt lat="30.290029" lon="103.372567">
<time>2015-08-05T23:34:46Z</time></trkpt>
<trkpt lat="30.288523" lon="103.369642">
<time>2015-08-05T23:34:47Z</time></trkpt>
<trkpt lat="30.287764" lon="103.368205">
<time>2015-08-05T23:34:48Z</time></trkpt>
<trkpt lat="30.287086" lon="103.366898">
<time>2015-08-05T23:34:49Z</time></trkpt>
<trkpt lat="30.286667" lon="103.366089">
<time>2015-08-05T23:34:50Z</time></trkpt>
<trkpt lat="30.285839" lon="103.364483">
<time>2015-08-05T23:34:51Z</time></trkpt>
<trkpt lat="30.28565" lon="103.364194">
<time>2015-08-05T23:34:52Z</time></trkpt>
<trkpt lat="30.28531" lon="103.363695">
<time>2015-08-05T23:34:53Z</time></trkpt>
<trkpt lat="30.285071" lon="103.363425">
<time>2015-08-05T23:34:54Z</time></trkpt>
<trkpt lat="30.284711" lon="103.363096">
<time>2015-08-05T23:34:55Z</time></trkpt>
<trkpt lat="30.284432" lon="103.362886">
<time>2015-08-05T23:34:56Z</time></trkpt>
<trkpt lat="30.284172" lon="103.362687">
<time>2015-08-05T23:34:57Z</time></trkpt>
<trkpt lat="30.284132" lon="103.362657">
<time>2015-08-05T23:34:58Z</time></trkpt>
<trkpt lat="30.284092" lon="103.362637">
<time>2015-08-05T23:34:59Z</time></trkpt>
<trkpt lat="30.284052" lon="103.362607">
<time>2015-08-05T23:35:00Z</time></trkpt>
<trkpt lat="30.283692" lon="103.362447">
<time>2015-08-05T23:35:01Z</time></trkpt>
<trkpt lat="30.281594" lon="103.361729">
<time>2015-08-05T23:35:02Z</time></trkpt>
<trkpt lat="30.279905" lon="103.36114">
<time>2015-08-05T23:35:03Z</time></trkpt>
<trkpt lat="30.279725" lon="103.361071">
<time>2015-08-05T23:35:04Z</time></trkpt>
<trkpt lat="30.279695" lon="103.361061">
<time>2015-08-05T23:35:05Z</time></trkpt>
<trkpt lat="30.279535" lon="103.360991">
<time>2015-08-05T23:35:06Z</time></trkpt>
<trkpt lat="30.279345" lon="103.360911">
<time>2015-08-05T23:35:07Z</time></trkpt>
<trkpt lat="30.279105" lon="103.360781">
<time>2015-08-05T23:35:08Z</time></trkpt>
<trkpt lat="30.278636" lon="103.360502">
<time>2015-08-05T23:35:09Z</time></trkpt>
<trkpt lat="30.278636" lon="103.360492">
<time>2015-08-05T23:35:10Z</time></trkpt>
<trkpt lat="30.277287" lon="103.359524">
<time>2015-08-05T23:35:11Z</time></trkpt>
<trkpt lat="30.277237" lon="103.359484">
<time>2015-08-05T23:35:12Z</time></trkpt>
<trkpt lat="30.275329" lon="103.358108">
<time>2015-08-05T23:35:13Z</time></trkpt>
<trkpt lat="30.27467" lon="103.357679">
<time>2015-08-05T23:35:14Z</time></trkpt>
<trkpt lat="30.27435" lon="103.357499">
<time>2015-08-05T23:35:15Z</time></trkpt>
<trkpt lat="30.273941" lon="103.35731">
<time>2015-08-05T23:35:16Z</time></trkpt>
<trkpt lat="30.273851" lon="103.35728">
<time>2015-08-05T23:35:17Z</time></trkpt>
<trkpt lat="30.273631" lon="103.35722">
<time>2015-08-05T23:35:18Z</time></trkpt>
<trkpt lat="30.273231" lon="103.35715">
<time>2015-08-05T23:35:19Z</time></trkpt>
<trkpt lat="30.272981" lon="103.35712">
<time>2015-08-05T23:35:20Z</time></trkpt>
<trkpt lat="30.272771" lon="103.35711">
<time>2015-08-05T23:35:21Z</time></trkpt>
<trkpt lat="30.272491" lon="103.35711">
<time>2015-08-05T23:35:22Z</time></trkpt>
<trkpt lat="30.271691" lon="103.35716">
<time>2015-08-05T23:35:23Z</time></trkpt>
<trkpt lat="30.271361" lon="103.35719">
<time>2015-08-05T23:35:24Z</time></trkpt>
<trkpt lat="30.271041" lon="103.35721">
<time>2015-08-05T23:35:25Z</time></trkpt>
<trkpt lat="30.270581" lon="103.35721">
<time>2015-08-05T23:35:26Z</time></trkpt>
<trkpt lat="30.270141" lon="103.3572">
<time>2015-08-05T23:35:27Z</time></trkpt>
<trkpt lat="30.269731" lon="103.35718">
<time>2015-08-05T23:35:28Z</time></trkpt>
<trkpt lat="30.268741" lon="103.35711">
<time>2015-08-05T23:35:29Z</time></trkpt>
<trkpt lat="30.268292" lon="103.35705">
<time>2015-08-05T23:35:30Z</time></trkpt>
<trkpt lat="30.267602" lon="103.356931">
<time>2015-08-05T23:35:31Z</time></trkpt>
<trkpt lat="30.266992" lon="103.356811">
<time>2015-08-05T23:35:32Z</time></trkpt>
<trkpt lat="30.266502" lon="103.356711">
<time>2015-08-05T23:35:33Z</time></trkpt>
<trkpt lat="30.266142" lon="103.356612">
<time>2015-08-05T23:35:34Z</time></trkpt>
<trkpt lat="30.265113" lon="103.356262">
<time>2015-08-05T23:35:35Z</time></trkpt>
<trkpt lat="30.263894" lon="103.355664">
<time>2015-08-05T23:35:36Z</time></trkpt>
<trkpt lat="30.263774" lon="103.355584">
<time>2015-08-05T23:35:37Z</time></trkpt>
<trkpt lat="30.261856" lon="103.354307">
<time>2015-08-05T23:35:38Z</time></trkpt>
<trkpt lat="30.261307" lon="103.353918">
<time>2015-08-05T23:35:39Z</time></trkpt>
<trkpt lat="30.260019" lon="103.353001">
<time>2015-08-05T23:35:40Z</time></trkpt>
<trkpt lat="30.257961" lon="103.351564">
<time>2015-08-05T23:35:41Z</time></trkpt>
<trkpt lat="30.257512" lon="103.351185">
<time>2015-08-05T23:35:42Z</time></trkpt>
<trkpt lat="30.257132" lon="103.350806">
<time>2015-08-05T23:35:43Z</time></trkpt>
<trkpt lat="30.256923" lon="103.350517">
<time>2015-08-05T23:35:44Z</time></trkpt>
<trkpt lat="30.256324" lon="103.349689">
<time>2015-08-05T23:35:45Z</time></trkpt>
<trkpt lat="30.255287" lon="103.348133">
<time>2015-08-05T23:35:46Z</time></trkpt>
<trkpt lat="30.254948" lon="103.347674">
<time>2015-08-05T23:35:47Z</time></trkpt>
<trkpt lat="30.254529" lon="103.347116">
<time>2015-08-05T23:35:48Z</time></trkpt>
<trkpt lat="30.254479" lon="103.347056">
<time>2015-08-05T23:35:49Z</time></trkpt>
<trkpt lat="30.254389" lon="103.346956">
<time>2015-08-05T23:35:50Z</time></trkpt>
<trkpt lat="30.25417" lon="103.346717">
<time>2015-08-05T23:35:51Z</time></trkpt>
<trkpt lat="30.25413" lon="103.346677">
<time>2015-08-05T23:35:52Z</time></trkpt>
<trkpt lat="30.25411" lon="103.346657">
<time>2015-08-05T23:35:53Z</time></trkpt>
<trkpt lat="30.25408" lon="103.346637">
<time>2015-08-05T23:35:54Z</time></trkpt>
<trkpt lat="30.25377" lon="103.346378">
<time>2015-08-05T23:35:55Z</time></trkpt>
<trkpt lat="30.252861" lon="103.345729">
<time>2015-08-05T23:35:56Z</time></trkpt>
<trkpt lat="30.252582" lon="103.34552">
<time>2015-08-05T23:35:57Z</time></trkpt>
<trkpt lat="30.251194" lon="103.344473">
<time>2015-08-05T23:35:58Z</time></trkpt>
<trkpt lat="30.251144" lon="103.344423">
<time>2015-08-05T23:35:59Z</time></trkpt>
<trkpt lat="30.249996" lon="103.343515">
<time>2015-08-05T23:36:00Z</time></trkpt>
<trkpt lat="30.249856" lon="103.343376">
<time>2015-08-05T23:36:01Z</time></trkpt>
<trkpt lat="30.249497" lon="103.342977">
<time>2015-08-05T23:36:02Z</time></trkpt>
<trkpt lat="30.249367" lon="103.342827">
<time>2015-08-05T23:36:03Z</time></trkpt>
<trkpt lat="30.249177" lon="103.342608">
<time>2015-08-05T23:36:04Z</time></trkpt>
<trkpt lat="30.249038" lon="103.342418">
<time>2015-08-05T23:36:05Z</time></trkpt>
<trkpt lat="30.248958" lon="103.342299">
<time>2015-08-05T23:36:06Z</time></trkpt>
<trkpt lat="30.248888" lon="103.342199">
<time>2015-08-05T23:36:07Z</time></trkpt>
<trkpt lat="30.248788" lon="103.342039">
<time>2015-08-05T23:36:08Z</time></trkpt>
<trkpt lat="30.248689" lon="103.34186">
<time>2015-08-05T23:36:09Z</time></trkpt>
<trkpt lat="30.248489" lon="103.341491">
<time>2015-08-05T23:36:10Z</time></trkpt>
<trkpt lat="30.248131" lon="103.340773">
<time>2015-08-05T23:36:11Z</time></trkpt>
<trkpt lat="30.248041" lon="103.340573">
<time>2015-08-05T23:36:12Z</time></trkpt>
<trkpt lat="30.247234" lon="103.338699">
<time>2015-08-05T23:36:13Z</time></trkpt>
<trkpt lat="30.246179" lon="103.336445">
<time>2015-08-05T23:36:14Z</time></trkpt>
<trkpt lat="30.24586" lon="103.335737">
<time>2015-08-05T23:36:15Z</time></trkpt>
<trkpt lat="30.245731" lon="103.335448">
<time>2015-08-05T23:36:16Z</time></trkpt>
<trkpt lat="30.245651" lon="103.335288">
<time>2015-08-05T23:36:17Z</time></trkpt>
<trkpt lat="30.245581" lon="103.335139">
<time>2015-08-05T23:36:18Z</time></trkpt>
<trkpt lat="30.245492" lon="103.334999">
<time>2015-08-05T23:36:19Z</time></trkpt>
<trkpt lat="30.245422" lon="103.334869">
<time>2015-08-05T23:36:20Z</time></trkpt>
<trkpt lat="30.245342" lon="103.33476">
<time>2015-08-05T23:36:21Z</time></trkpt>
<trkpt lat="30.245312" lon="103.33471">
<time>2015-08-05T23:36:22Z</time></trkpt>
<trkpt lat="30.245222" lon="103.33459">
<time>2015-08-05T23:36:23Z</time></trkpt>
<trkpt lat="30.245073" lon="103.334401">
<time>2015-08-05T23:36:24Z</time></trkpt>
<trkpt lat="30.244923" lon="103.334231">
<time>2015-08-05T23:36:25Z</time></trkpt>
<trkpt lat="30.244793" lon="103.334111">
<time>2015-08-05T23:36:26Z</time></trkpt>
<trkpt lat="30.244713" lon="103.334052">
<time>2015-08-05T23:36:27Z</time></trkpt>
<trkpt lat="30.244643" lon="103.333992">
<time>2015-08-05T23:36:28Z</time></trkpt>
<trkpt lat="30.244474" lon="103.333862">
<time>2015-08-05T23:36:29Z</time></trkpt>
<trkpt lat="30.244314" lon="103.333752">
<time>2015-08-05T23:36:30Z</time></trkpt>
<trkpt lat="30.244164" lon="103.333663">
<time>2015-08-05T23:36:31Z</time></trkpt>
<trkpt lat="30.243964" lon="103.333553">
<time>2015-08-05T23:36:32Z</time></trkpt>
<trkpt lat="30.243784" lon="103.333483">
<time>2015-08-05T23:36:33Z</time></trkpt>
<trkpt lat="30.243565" lon="103.333393">
<time>2015-08-05T23:36:34Z</time></trkpt>
<trkpt lat="30.242535" lon="103.333044">
<time>2015-08-05T23:36:35Z</time></trkpt>
<trkpt lat="30.241836" lon="103.332835">
<time>2015-08-05T23:36:36Z</time></trkpt>
<trkpt lat="30.240906" lon="103.332556">
<time>2015-08-05T23:36:37Z</time></trkpt>
<trkpt lat="30.240757" lon="103.332506">
<time>2015-08-05T23:36:38Z</time></trkpt>
<trkpt lat="30.240567" lon="103.332426">
<time>2015-08-05T23:36:39Z</time></trkpt>
<trkpt lat="30.240397" lon="103.332347">
<time>2015-08-05T23:36:40Z</time></trkpt>
<trkpt lat="30.240197" lon="103.332257">
<time>2015-08-05T23:36:41Z</time></trkpt>
<trkpt lat="30.240047" lon="103.332167">
<time>2015-08-05T23:36:42Z</time></trkpt>
<trkpt lat="30.239887" lon="103.332077">
<time>2015-08-05T23:36:43Z</time></trkpt>
<trkpt lat="30.239758" lon="103.331988">
<time>2015-08-05T23:36:44Z</time></trkpt>
<trkpt lat="30.239608" lon="103.331878">
<time>2015-08-05T23:36:45Z</time></trkpt>
<trkpt lat="30.239478" lon="103.331768">
<time>2015-08-05T23:36:46Z</time></trkpt>
<trkpt lat="30.239348" lon="103.331668">
<time>2015-08-05T23:36:47Z</time></trkpt>
<trkpt lat="30.239079" lon="103.331399">
<time>2015-08-05T23:36:48Z</time></trkpt>
<trkpt lat="30.23847" lon="103.330671">
<time>2015-08-05T23:36:49Z</time></trkpt>
<trkpt lat="30.237343" lon="103.329225">
<time>2015-08-05T23:36:50Z</time></trkpt>
<trkpt lat="30.237203" lon="103.329046">
<time>2015-08-05T23:36:51Z</time></trkpt>
<trkpt lat="30.236984" lon="103.328767">
<time>2015-08-05T23:36:52Z</time></trkpt>
<trkpt lat="30.236894" lon="103.328657">
<time>2015-08-05T23:36:53Z</time></trkpt>
<trkpt lat="30.23463" lon="103.325715">
<time>2015-08-05T23:36:54Z</time></trkpt>
<trkpt lat="30.233593" lon="103.32418">
<time>2015-08-05T23:36:55Z</time></trkpt>
<trkpt lat="30.231967" lon="103.321807">
<time>2015-08-05T23:36:56Z</time></trkpt>
<trkpt lat="30.230432" lon="103.319463">
<time>2015-08-05T23:36:57Z</time></trkpt>
<trkpt lat="30.229008" lon="103.316611">
<time>2015-08-05T23:36:58Z</time></trkpt>
<trkpt lat="30.227972" lon="103.314447">
<time>2015-08-05T23:36:59Z</time></trkpt>
<trkpt lat="30.227663" lon="103.313789">
<time>2015-08-05T23:37:00Z</time></trkpt>
<trkpt lat="30.226307" lon="103.311326">
<time>2015-08-05T23:37:01Z</time></trkpt>
<trkpt lat="30.226208" lon="103.311147">
<time>2015-08-05T23:37:02Z</time></trkpt>
<trkpt lat="30.224553" lon="103.308135">
<time>2015-08-05T23:37:03Z</time></trkpt>
<trkpt lat="30.223526" lon="103.306469">
<time>2015-08-05T23:37:04Z</time></trkpt>
<trkpt lat="30.223187" lon="103.306001">
<time>2015-08-05T23:37:05Z</time></trkpt>
<trkpt lat="30.222968" lon="103.305791">
<time>2015-08-05T23:37:06Z</time></trkpt>
<trkpt lat="30.222698" lon="103.305582">
<time>2015-08-05T23:37:07Z</time></trkpt>
<trkpt lat="30.222428" lon="103.305422">
<time>2015-08-05T23:37:08Z</time></trkpt>
<trkpt lat="30.222208" lon="103.305323">
<time>2015-08-05T23:37:09Z</time></trkpt>
<trkpt lat="30.222158" lon="103.305303">
<time>2015-08-05T23:37:10Z</time></trkpt>
<trkpt lat="30.221979" lon="103.305243">
<time>2015-08-05T23:37:11Z</time></trkpt>
<trkpt lat="30.221669" lon="103.305173">
<time>2015-08-05T23:37:12Z</time></trkpt>
<trkpt lat="30.221339" lon="103.305103">
<time>2015-08-05T23:37:13Z</time></trkpt>
<trkpt lat="30.220879" lon="103.304993">
<time>2015-08-05T23:37:14Z</time></trkpt>
<trkpt lat="30.220379" lon="103.304854">
<time>2015-08-05T23:37:15Z</time></trkpt>
<trkpt lat="30.21915" lon="103.304345">
<time>2015-08-05T23:37:16Z</time></trkpt>
<trkpt lat="30.218381" lon="103.304016">
<time>2015-08-05T23:37:17Z</time></trkpt>
<trkpt lat="30.217522" lon="103.303657">
<time>2015-08-05T23:37:18Z</time></trkpt>
<trkpt lat="30.217302" lon="103.303518">
<time>2015-08-05T23:37:19Z</time></trkpt>
<trkpt lat="30.216962" lon="103.303258">
<time>2015-08-05T23:37:20Z</time></trkpt>
<trkpt lat="30.216723" lon="103.303029">
<time>2015-08-05T23:37:21Z</time></trkpt>
<trkpt lat="30.216613" lon="103.302849">
<time>2015-08-05T23:37:22Z</time></trkpt>
<trkpt lat="30.216463" lon="103.30257">
<time>2015-08-05T23:37:23Z</time></trkpt>
<trkpt lat="30.216444" lon="103.30252">
<time>2015-08-05T23:37:24Z</time></trkpt>
<trkpt lat="30.216015" lon="103.301383">
<time>2015-08-05T23:37:25Z</time></trkpt>
<trkpt lat="30.215488" lon="103.299877">
<time>2015-08-05T23:37:26Z</time></trkpt>
<trkpt lat="30.215309" lon="103.299528">
<time>2015-08-05T23:37:27Z</time></trkpt>
<trkpt lat="30.215169" lon="103.299308">
<time>2015-08-05T23:37:28Z</time></trkpt>
<trkpt lat="30.214999" lon="103.299089">
<time>2015-08-05T23:37:29Z</time></trkpt>
<trkpt lat="30.21478" lon="103.29886">
<time>2015-08-05T23:37:30Z</time></trkpt>
<trkpt lat="30.21442" lon="103.298481">
<time>2015-08-05T23:37:31Z</time></trkpt>
<trkpt lat="30.213202" lon="103.297234">
<time>2015-08-05T23:37:32Z</time></trkpt>
<trkpt lat="30.212903" lon="103.296885">
<time>2015-08-05T23:37:33Z</time></trkpt>
<trkpt lat="30.212694" lon="103.296536">
<time>2015-08-05T23:37:34Z</time></trkpt>
<trkpt lat="30.212554" lon="103.296186">
<time>2015-08-05T23:37:35Z</time></trkpt>
<trkpt lat="30.212465" lon="103.295867">
<time>2015-08-05T23:37:36Z</time></trkpt>
<trkpt lat="30.212385" lon="103.295528">
<time>2015-08-05T23:37:37Z</time></trkpt>
<trkpt lat="30.212257" lon="103.294361">
<time>2015-08-05T23:37:38Z</time></trkpt>
<trkpt lat="30.212188" lon="103.293802">
<time>2015-08-05T23:37:39Z</time></trkpt>
<trkpt lat="30.212118" lon="103.293493">
<time>2015-08-05T23:37:40Z</time></trkpt>
<trkpt lat="30.212039" lon="103.293124">
<time>2015-08-05T23:37:41Z</time></trkpt>
<trkpt lat="30.21175" lon="103.292416">
<time>2015-08-05T23:37:42Z</time></trkpt>
<trkpt lat="30.211501" lon="103.292007">
<time>2015-08-05T23:37:43Z</time></trkpt>
<trkpt lat="30.210982" lon="103.291338">
<time>2015-08-05T23:37:44Z</time></trkpt>
<trkpt lat="30.210592" lon="103.291009">
<time>2015-08-05T23:37:45Z</time></trkpt>
<trkpt lat="30.210382" lon="103.290839">
<time>2015-08-05T23:37:46Z</time></trkpt>
<trkpt lat="30.210113" lon="103.29067">
<time>2015-08-05T23:37:47Z</time></trkpt>
<trkpt lat="30.209833" lon="103.29054">
<time>2015-08-05T23:37:48Z</time></trkpt>
<trkpt lat="30.208853" lon="103.290111">
<time>2015-08-05T23:37:49Z</time></trkpt>
<trkpt lat="30.208244" lon="103.289852">
<time>2015-08-05T23:37:50Z</time></trkpt>
<trkpt lat="30.207744" lon="103.289582">
<time>2015-08-05T23:37:51Z</time></trkpt>
<trkpt lat="30.207375" lon="103.289323">
<time>2015-08-05T23:37:52Z</time></trkpt>
<trkpt lat="30.207115" lon="103.289014">
<time>2015-08-05T23:37:53Z</time></trkpt>
<trkpt lat="30.206816" lon="103.288545">
<time>2015-08-05T23:37:54Z</time></trkpt>
<trkpt lat="30.206616" lon="103.288086">
<time>2015-08-05T23:37:55Z</time></trkpt>
<trkpt lat="30.205561" lon="103.284673">
<time>2015-08-05T23:37:56Z</time></trkpt>
<trkpt lat="30.205412" lon="103.284154">
<time>2015-08-05T23:37:57Z</time></trkpt>
<trkpt lat="30.205402" lon="103.284134">
<time>2015-08-05T23:37:58Z</time></trkpt>
<trkpt lat="30.205223" lon="103.283426">
<time>2015-08-05T23:37:59Z</time></trkpt>
<trkpt lat="30.205153" lon="103.283007">
<time>2015-08-05T23:38:00Z</time></trkpt>
<trkpt lat="30.205074" lon="103.282388">
<time>2015-08-05T23:38:01Z</time></trkpt>
<trkpt lat="30.205015" lon="103.28159">
<time>2015-08-05T23:38:02Z</time></trkpt>
<trkpt lat="30.204919" lon="103.277827">
<time>2015-08-05T23:38:03Z</time></trkpt>
<trkpt lat="30.20487" lon="103.276829">
<time>2015-08-05T23:38:04Z</time></trkpt>
<trkpt lat="30.204831" lon="103.27638">
<time>2015-08-05T23:38:05Z</time></trkpt>
<trkpt lat="30.204771" lon="103.27612">
<time>2015-08-05T23:38:06Z</time></trkpt>
<trkpt lat="30.204761" lon="103.27609">
<time>2015-08-05T23:38:07Z</time></trkpt>
<trkpt lat="30.204641" lon="103.275791">
<time>2015-08-05T23:38:08Z</time></trkpt>
<trkpt lat="30.204541" lon="103.275631">
<time>2015-08-05T23:38:09Z</time></trkpt>
<trkpt lat="30.204302" lon="103.275312">
<time>2015-08-05T23:38:10Z</time></trkpt>
<trkpt lat="30.204012" lon="103.275042">
<time>2015-08-05T23:38:11Z</time></trkpt>
<trkpt lat="30.203872" lon="103.274933">
<time>2015-08-05T23:38:12Z</time></trkpt>
<trkpt lat="30.200295" lon="103.272567">
<time>2015-08-05T23:38:13Z</time></trkpt>
<trkpt lat="30.199745" lon="103.272277">
<time>2015-08-05T23:38:14Z</time></trkpt>
<trkpt lat="30.199315" lon="103.272078">
<time>2015-08-05T23:38:15Z</time></trkpt>
<trkpt lat="30.198885" lon="103.271938">
<time>2015-08-05T23:38:16Z</time></trkpt>
<trkpt lat="30.198595" lon="103.271868">
<time>2015-08-05T23:38:17Z</time></trkpt>
<trkpt lat="30.197995" lon="103.271718">
<time>2015-08-05T23:38:18Z</time></trkpt>
<trkpt lat="30.197725" lon="103.271658">
<time>2015-08-05T23:38:19Z</time></trkpt>
<trkpt lat="30.197715" lon="103.271658">
<time>2015-08-05T23:38:20Z</time></trkpt>
<trkpt lat="30.196626" lon="103.271409">
<time>2015-08-05T23:38:21Z</time></trkpt>
<trkpt lat="30.194996" lon="103.2711">
<time>2015-08-05T23:38:22Z</time></trkpt>
<trkpt lat="30.194786" lon="103.27104">
<time>2015-08-05T23:38:23Z</time></trkpt>
<trkpt lat="30.194766" lon="103.27103">
<time>2015-08-05T23:38:24Z</time></trkpt>
<trkpt lat="30.194586" lon="103.27098">
<time>2015-08-05T23:38:25Z</time></trkpt>
<trkpt lat="30.194136" lon="103.27077">
<time>2015-08-05T23:38:26Z</time></trkpt>
<trkpt lat="30.192047" lon="103.269802">
<time>2015-08-05T23:38:27Z</time></trkpt>
<trkpt lat="30.191787" lon="103.269672">
<time>2015-08-05T23:38:28Z</time></trkpt>
<trkpt lat="30.191597" lon="103.269552">
<time>2015-08-05T23:38:29Z</time></trkpt>
<trkpt lat="30.191498" lon="103.269472">
<time>2015-08-05T23:38:30Z</time></trkpt>
<trkpt lat="30.191388" lon="103.269352">
<time>2015-08-05T23:38:31Z</time></trkpt>
<trkpt lat="30.191258" lon="103.269153">
<time>2015-08-05T23:38:32Z</time></trkpt>
<trkpt lat="30.191148" lon="103.268923">
<time>2015-08-05T23:38:33Z</time></trkpt>
<trkpt lat="30.191098" lon="103.268714">
<time>2015-08-05T23:38:34Z</time></trkpt>
<trkpt lat="30.191068" lon="103.268564">
<time>2015-08-05T23:38:35Z</time></trkpt>
<trkpt lat="30.191038" lon="103.268294">
<time>2015-08-05T23:38:36Z</time></trkpt>
<trkpt lat="30.190701" lon="103.26461">
<time>2015-08-05T23:38:37Z</time></trkpt>
<trkpt lat="30.190572" lon="103.263132">
<time>2015-08-05T23:38:38Z</time></trkpt>
<trkpt lat="30.190582" lon="103.262213">
<time>2015-08-05T23:38:39Z</time></trkpt>
<trkpt lat="30.190593" lon="103.262063">
<time>2015-08-05T23:38:40Z</time></trkpt>
<trkpt lat="30.190633" lon="103.261134">
<time>2015-08-05T23:38:41Z</time></trkpt>
<trkpt lat="30.190744" lon="103.258877">
<time>2015-08-05T23:38:42Z</time></trkpt>
<trkpt lat="30.190895" lon="103.2556">
<time>2015-08-05T23:38:43Z</time></trkpt>
<trkpt lat="30.190946" lon="103.253942">
<time>2015-08-05T23:38:44Z</time></trkpt>
<trkpt lat="30.190986" lon="103.252993">
<time>2015-08-05T23:38:45Z</time></trkpt>
<trkpt lat="30.190976" lon="103.251804">
<time>2015-08-05T23:38:46Z</time></trkpt>
<trkpt lat="30.190926" lon="103.249996">
<time>2015-08-05T23:38:47Z</time></trkpt>
<trkpt lat="30.190866" lon="103.248437">
<time>2015-08-05T23:38:48Z</time></trkpt>
<trkpt lat="30.190846" lon="103.248117">
<time>2015-08-05T23:38:49Z</time></trkpt>
<trkpt lat="30.190816" lon="103.247797">
<time>2015-08-05T23:38:50Z</time></trkpt>
<trkpt lat="30.190756" lon="103.247537">
<time>2015-08-05T23:38:51Z</time></trkpt>
<trkpt lat="30.190706" lon="103.247307">
<time>2015-08-05T23:38:52Z</time></trkpt>
<trkpt lat="30.190546" lon="103.246928">
<time>2015-08-05T23:38:53Z</time></trkpt>
<trkpt lat="30.190336" lon="103.246448">
<time>2015-08-05T23:38:54Z</time></trkpt>
<trkpt lat="30.189546" lon="103.244709">
<time>2015-08-05T23:38:55Z</time></trkpt>
<trkpt lat="30.188306" lon="103.241791">
<time>2015-08-05T23:38:56Z</time></trkpt>
<trkpt lat="30.187806" lon="103.240661">
<time>2015-08-05T23:38:57Z</time></trkpt>
<trkpt lat="30.186925" lon="103.238662">
<time>2015-08-05T23:38:58Z</time></trkpt>
<trkpt lat="30.186615" lon="103.238002">
<time>2015-08-05T23:38:59Z</time></trkpt>
<trkpt lat="30.186415" lon="103.237532">
<time>2015-08-05T23:39:00Z</time></trkpt>
<trkpt lat="30.186305" lon="103.237262">
<time>2015-08-05T23:39:01Z</time></trkpt>
<trkpt lat="30.186285" lon="103.237112">
<time>2015-08-05T23:39:02Z</time></trkpt>
<trkpt lat="30.186144" lon="103.236782">
<time>2015-08-05T23:39:03Z</time></trkpt>
<trkpt lat="30.185263" lon="103.234543">
<time>2015-08-05T23:39:04Z</time></trkpt>
<trkpt lat="30.185083" lon="103.234173">
<time>2015-08-05T23:39:05Z</time></trkpt>
<trkpt lat="30.184923" lon="103.233883">
<time>2015-08-05T23:39:06Z</time></trkpt>
<trkpt lat="30.183862" lon="103.232183">
<time>2015-08-05T23:39:07Z</time></trkpt>
<trkpt lat="30.183352" lon="103.231373">
<time>2015-08-05T23:39:08Z</time></trkpt>
<trkpt lat="30.182611" lon="103.230203">
<time>2015-08-05T23:39:09Z</time></trkpt>
<trkpt lat="30.182201" lon="103.229563">
<time>2015-08-05T23:39:10Z</time></trkpt>
<trkpt lat="30.18174" lon="103.228823">
<time>2015-08-05T23:39:11Z</time></trkpt>
<trkpt lat="30.18133" lon="103.228163">
<time>2015-08-05T23:39:12Z</time></trkpt>
<trkpt lat="30.181139" lon="103.227893">
<time>2015-08-05T23:39:13Z</time></trkpt>
<trkpt lat="30.180939" lon="103.227643">
<time>2015-08-05T23:39:14Z</time></trkpt>
<trkpt lat="30.180149" lon="103.226823">
<time>2015-08-05T23:39:15Z</time></trkpt>
<trkpt lat="30.178688" lon="103.225492">
<time>2015-08-05T23:39:16Z</time></trkpt>
<trkpt lat="30.177987" lon="103.224832">
<time>2015-08-05T23:39:17Z</time></trkpt>
<trkpt lat="30.177807" lon="103.224622">
<time>2015-08-05T23:39:18Z</time></trkpt>
<trkpt lat="30.177627" lon="103.224372">
<time>2015-08-05T23:39:19Z</time></trkpt>
<trkpt lat="30.177436" lon="103.223962">
<time>2015-08-05T23:39:20Z</time></trkpt>
<trkpt lat="30.177266" lon="103.223582">
<time>2015-08-05T23:39:21Z</time></trkpt>
<trkpt lat="30.177166" lon="103.223282">
<time>2015-08-05T23:39:22Z</time></trkpt>
<trkpt lat="30.177005" lon="103.222752">
<time>2015-08-05T23:39:23Z</time></trkpt>
<trkpt lat="30.176915" lon="103.222431">
<time>2015-08-05T23:39:24Z</time></trkpt>
<trkpt lat="30.176825" lon="103.222141">
<time>2015-08-05T23:39:25Z</time></trkpt>
<trkpt lat="30.176404" lon="103.221011">
<time>2015-08-05T23:39:26Z</time></trkpt>
<trkpt lat="30.176374" lon="103.220931">
<time>2015-08-05T23:39:27Z</time></trkpt>
<trkpt lat="30.176283" lon="103.220691">
<time>2015-08-05T23:39:28Z</time></trkpt>
<trkpt lat="30.176163" lon="103.220451">
<time>2015-08-05T23:39:29Z</time></trkpt>
<trkpt lat="30.176033" lon="103.220221">
<time>2015-08-05T23:39:30Z</time></trkpt>
<trkpt lat="30.175893" lon="103.22004">
<time>2015-08-05T23:39:31Z</time></trkpt>
<trkpt lat="30.175723" lon="103.21991">
<time>2015-08-05T23:39:32Z</time></trkpt>
<trkpt lat="30.175653" lon="103.21986">
<time>2015-08-05T23:39:33Z</time></trkpt>
<trkpt lat="30.175042" lon="103.21947">
<time>2015-08-05T23:39:34Z</time></trkpt>
<trkpt lat="30.174752" lon="103.21929">
<time>2015-08-05T23:39:35Z</time></trkpt>
<trkpt lat="30.174602" lon="103.21915">
<time>2015-08-05T23:39:36Z</time></trkpt>
<trkpt lat="30.174452" lon="103.21897">
<time>2015-08-05T23:39:37Z</time></trkpt>
<trkpt lat="30.174301" lon="103.21872">
<time>2015-08-05T23:39:38Z</time></trkpt>
<trkpt lat="30.174161" lon="103.21839">
<time>2015-08-05T23:39:39Z</time></trkpt>
<trkpt lat="30.174081" lon="103.2182">
<time>2015-08-05T23:39:40Z</time></trkpt>
<trkpt lat="30.174021" lon="103.21804">
<time>2015-08-05T23:39:41Z</time></trkpt>
<trkpt lat="30.17386" lon="103.217629">
<time>2015-08-05T23:39:42Z</time></trkpt>
<trkpt lat="30.17375" lon="103.217299">
<time>2015-08-05T23:39:43Z</time></trkpt>
<trkpt lat="30.17364" lon="103.216909">
<time>2015-08-05T23:39:44Z</time></trkpt>
<trkpt lat="30.173529" lon="103.216439">
<time>2015-08-05T23:39:45Z</time></trkpt>
<trkpt lat="30.173228" lon="103.215098">
<time>2015-08-05T23:39:46Z</time></trkpt>
<trkpt lat="30.172936" lon="103.213827">
<time>2015-08-05T23:39:47Z</time></trkpt>
<trkpt lat="30.172826" lon="103.213507">
<time>2015-08-05T23:39:48Z</time></trkpt>
<trkpt lat="30.172685" lon="103.213197">
<time>2015-08-05T23:39:49Z</time></trkpt>
<trkpt lat="30.172555" lon="103.212957">
<time>2015-08-05T23:39:50Z</time></trkpt>
<trkpt lat="30.171573" lon="103.211435">
<time>2015-08-05T23:39:51Z</time></trkpt>
<trkpt lat="30.171463" lon="103.211275">
<time>2015-08-05T23:39:52Z</time></trkpt>
<trkpt lat="30.170952" lon="103.210535">
<time>2015-08-05T23:39:53Z</time></trkpt>
<trkpt lat="30.170722" lon="103.210245">
<time>2015-08-05T23:39:54Z</time></trkpt>
<trkpt lat="30.170381" lon="103.209904">
<time>2015-08-05T23:39:55Z</time></trkpt>
<trkpt lat="30.170041" lon="103.209594">
<time>2015-08-05T23:39:56Z</time></trkpt>
<trkpt lat="30.1698" lon="103.209344">
<time>2015-08-05T23:39:57Z</time></trkpt>
<trkpt lat="30.16963" lon="103.209144">
<time>2015-08-05T23:39:58Z</time></trkpt>
<trkpt lat="30.16949" lon="103.208914">
<time>2015-08-05T23:39:59Z</time></trkpt>
<trkpt lat="30.16941" lon="103.208733">
<time>2015-08-05T23:40:00Z</time></trkpt>
<trkpt lat="30.16936" lon="103.208603">
<time>2015-08-05T23:40:01Z</time></trkpt>
<trkpt lat="30.169239" lon="103.208243">
<time>2015-08-05T23:40:02Z</time></trkpt>
<trkpt lat="30.169119" lon="103.207943">
<time>2015-08-05T23:40:03Z</time></trkpt>
<trkpt lat="30.168988" lon="103.207663">
<time>2015-08-05T23:40:04Z</time></trkpt>
<trkpt lat="30.168848" lon="103.207382">
<time>2015-08-05T23:40:05Z</time></trkpt>
<trkpt lat="30.168507" lon="103.206842">
<time>2015-08-05T23:40:06Z</time></trkpt>
<trkpt lat="30.167806" lon="103.205801">
<time>2015-08-05T23:40:07Z</time></trkpt>
<trkpt lat="30.167134" lon="103.20477">
<time>2015-08-05T23:40:08Z</time></trkpt>
<trkpt lat="30.166944" lon="103.20451">
<time>2015-08-05T23:40:09Z</time></trkpt>
<trkpt lat="30.166864" lon="103.2044">
<time>2015-08-05T23:40:10Z</time></trkpt>
<trkpt lat="30.166794" lon="103.20432">
<time>2015-08-05T23:40:11Z</time></trkpt>
<trkpt lat="30.166754" lon="103.20428">
<time>2015-08-05T23:40:12Z</time></trkpt>
<trkpt lat="30.166673" lon="103.204209">
<time>2015-08-05T23:40:13Z</time></trkpt>
<trkpt lat="30.166533" lon="103.204109">
<time>2015-08-05T23:40:14Z</time></trkpt>
<trkpt lat="30.166363" lon="103.204009">
<time>2015-08-05T23:40:15Z</time></trkpt>
<trkpt lat="30.166113" lon="103.203909">
<time>2015-08-05T23:40:16Z</time></trkpt>
<trkpt lat="30.165413" lon="103.203669">
<time>2015-08-05T23:40:17Z</time></trkpt>
<trkpt lat="30.164562" lon="103.203389">
<time>2015-08-05T23:40:18Z</time></trkpt>
<trkpt lat="30.163502" lon="103.203018">
<time>2015-08-05T23:40:19Z</time></trkpt>
<trkpt lat="30.163262" lon="103.202898">
<time>2015-08-05T23:40:20Z</time></trkpt>
<trkpt lat="30.163031" lon="103.202758">
<time>2015-08-05T23:40:21Z</time></trkpt>
<trkpt lat="30.162791" lon="103.202568">
<time>2015-08-05T23:40:22Z</time></trkpt>
<trkpt lat="30.16178" lon="103.201667">
<time>2015-08-05T23:40:23Z</time></trkpt>
<trkpt lat="30.161359" lon="103.201307">
<time>2015-08-05T23:40:24Z</time></trkpt>
<trkpt lat="30.161119" lon="103.201137">
<time>2015-08-05T23:40:25Z</time></trkpt>
<trkpt lat="30.160058" lon="103.200446">
<time>2015-08-05T23:40:26Z</time></trkpt>
<trkpt lat="30.159668" lon="103.200226">
<time>2015-08-05T23:40:27Z</time></trkpt>
<trkpt lat="30.159217" lon="103.200035">
<time>2015-08-05T23:40:28Z</time></trkpt>
<trkpt lat="30.158137" lon="103.199545">
<time>2015-08-05T23:40:29Z</time></trkpt>
<trkpt lat="30.157926" lon="103.199445">
<time>2015-08-05T23:40:30Z</time></trkpt>
<trkpt lat="30.157666" lon="103.199315">
<time>2015-08-05T23:40:31Z</time></trkpt>
<trkpt lat="30.157266" lon="103.199055">
<time>2015-08-05T23:40:32Z</time></trkpt>
<trkpt lat="30.156615" lon="103.198544">
<time>2015-08-05T23:40:33Z</time></trkpt>
<trkpt lat="30.155754" lon="103.197903">
<time>2015-08-05T23:40:34Z</time></trkpt>
<trkpt lat="30.155113" lon="103.197533">
<time>2015-08-05T23:40:35Z</time></trkpt>
<trkpt lat="30.154793" lon="103.197393">
<time>2015-08-05T23:40:36Z</time></trkpt>
<trkpt lat="30.154573" lon="103.197343">
<time>2015-08-05T23:40:37Z</time></trkpt>
<trkpt lat="30.153593" lon="103.197173">
<time>2015-08-05T23:40:38Z</time></trkpt>
<trkpt lat="30.153263" lon="103.197112">
<time>2015-08-05T23:40:39Z</time></trkpt>
<trkpt lat="30.153113" lon="103.197082">
<time>2015-08-05T23:40:40Z</time></trkpt>
<trkpt lat="30.152973" lon="103.197022">
<time>2015-08-05T23:40:41Z</time></trkpt>
<trkpt lat="30.152722" lon="103.196882">
<time>2015-08-05T23:40:42Z</time></trkpt>
<trkpt lat="30.152482" lon="103.196702">
<time>2015-08-05T23:40:43Z</time></trkpt>
<trkpt lat="30.151911" lon="103.196242">
<time>2015-08-05T23:40:44Z</time></trkpt>
<trkpt lat="30.151581" lon="103.196011">
<time>2015-08-05T23:40:45Z</time></trkpt>
<trkpt lat="30.151181" lon="103.195811">
<time>2015-08-05T23:40:46Z</time></trkpt>
<trkpt lat="30.15064" lon="103.195591">
<time>2015-08-05T23:40:47Z</time></trkpt>
<trkpt lat="30.14974" lon="103.1952">
<time>2015-08-05T23:40:48Z</time></trkpt>
<trkpt lat="30.149219" lon="103.19492">
<time>2015-08-05T23:40:49Z</time></trkpt>
<trkpt lat="30.148809" lon="103.19466">
<time>2015-08-05T23:40:50Z</time></trkpt>
<trkpt lat="30.148468" lon="103.194399">
<time>2015-08-05T23:40:51Z</time></trkpt>
<trkpt lat="30.148288" lon="103.194219">
<time>2015-08-05T23:40:52Z</time></trkpt>
<trkpt lat="30.148128" lon="103.194029">
<time>2015-08-05T23:40:53Z</time></trkpt>
<trkpt lat="30.147977" lon="103.193789">
<time>2015-08-05T23:40:54Z</time></trkpt>
<trkpt lat="30.147797" lon="103.193498">
<time>2015-08-05T23:40:55Z</time></trkpt>
<trkpt lat="30.147396" lon="103.192828">
<time>2015-08-05T23:40:56Z</time></trkpt>
<trkpt lat="30.147286" lon="103.192637">
<time>2015-08-05T23:40:57Z</time></trkpt>
<trkpt lat="30.146724" lon="103.191696">
<time>2015-08-05T23:40:58Z</time></trkpt>
<trkpt lat="30.146343" lon="103.191075">
<time>2015-08-05T23:40:59Z</time></trkpt>
<trkpt lat="30.145992" lon="103.190515">
<time>2015-08-05T23:41:00Z</time></trkpt>
<trkpt lat="30.145781" lon="103.190184">
<time>2015-08-05T23:41:01Z</time></trkpt>
<trkpt lat="30.145059" lon="103.189073">
<time>2015-08-05T23:41:02Z</time></trkpt>
<trkpt lat="30.144749" lon="103.188592">
<time>2015-08-05T23:41:03Z</time></trkpt>
<trkpt lat="30.144618" lon="103.188412">
<time>2015-08-05T23:41:04Z</time></trkpt>
<trkpt lat="30.144508" lon="103.188282">
<time>2015-08-05T23:41:05Z</time></trkpt>
<trkpt lat="30.144398" lon="103.188182">
<time>2015-08-05T23:41:06Z</time></trkpt>
<trkpt lat="30.144328" lon="103.188122">
<time>2015-08-05T23:41:07Z</time></trkpt>
<trkpt lat="30.144248" lon="103.188072">
<time>2015-08-05T23:41:08Z</time></trkpt>
<trkpt lat="30.144168" lon="103.188032">
<time>2015-08-05T23:41:09Z</time></trkpt>
<trkpt lat="30.144078" lon="103.187992">
<time>2015-08-05T23:41:10Z</time></trkpt>
<trkpt lat="30.143787" lon="103.187891">
<time>2015-08-05T23:41:11Z</time></trkpt>
<trkpt lat="30.143127" lon="103.187691">
<time>2015-08-05T23:41:12Z</time></trkpt>
<trkpt lat="30.143067" lon="103.187681">
<time>2015-08-05T23:41:13Z</time></trkpt>
<trkpt lat="30.142457" lon="103.187501">
<time>2015-08-05T23:41:14Z</time></trkpt>
<trkpt lat="30.142217" lon="103.187421">
<time>2015-08-05T23:41:15Z</time></trkpt>
<trkpt lat="30.141926" lon="103.187271">
<time>2015-08-05T23:41:16Z</time></trkpt>
<trkpt lat="30.141786" lon="103.187181">
<time>2015-08-05T23:41:17Z</time></trkpt>
<trkpt lat="30.141606" lon="103.18705">
<time>2015-08-05T23:41:18Z</time></trkpt>
<trkpt lat="30.141526" lon="103.18698">
<time>2015-08-05T23:41:19Z</time></trkpt>
<trkpt lat="30.141335" lon="103.1868">
<time>2015-08-05T23:41:20Z</time></trkpt>
<trkpt lat="30.140754" lon="103.186089">
<time>2015-08-05T23:41:21Z</time></trkpt>
<trkpt lat="30.139832" lon="103.184998">
<time>2015-08-05T23:41:22Z</time></trkpt>
<trkpt lat="30.139472" lon="103.184567">
<time>2015-08-05T23:41:23Z</time></trkpt>
<trkpt lat="30.139041" lon="103.184087">
<time>2015-08-05T23:41:24Z</time></trkpt>
<trkpt lat="30.1387" lon="103.183756">
<time>2015-08-05T23:41:25Z</time></trkpt>
<trkpt lat="30.138259" lon="103.183426">
<time>2015-08-05T23:41:26Z</time></trkpt>
<trkpt lat="30.137919" lon="103.183175">
<time>2015-08-05T23:41:27Z</time></trkpt>
<trkpt lat="30.137679" lon="103.182995">
<time>2015-08-05T23:41:28Z</time></trkpt>
<trkpt lat="30.137428" lon="103.182775">
<time>2015-08-05T23:41:29Z</time></trkpt>
<trkpt lat="30.137208" lon="103.182524">
<time>2015-08-05T23:41:30Z</time></trkpt>
<trkpt lat="30.136917" lon="103.181984">
<time>2015-08-05T23:41:31Z</time></trkpt>
<trkpt lat="30.136515" lon="103.181213">
<time>2015-08-05T23:41:32Z</time></trkpt>
<trkpt lat="30.136214" lon="103.180672">
<time>2015-08-05T23:41:33Z</time></trkpt>
<trkpt lat="30.136024" lon="103.180382">
<time>2015-08-05T23:41:34Z</time></trkpt>
<trkpt lat="30.135563" lon="103.179831">
<time>2015-08-05T23:41:35Z</time></trkpt>
<trkpt lat="30.134952" lon="103.17914">
<time>2015-08-05T23:41:36Z</time></trkpt>
<trkpt lat="30.133919" lon="103.177978">
<time>2015-08-05T23:41:37Z</time></trkpt>
<trkpt lat="30.133599" lon="103.177598">
<time>2015-08-05T23:41:38Z</time></trkpt>
<trkpt lat="30.132987" lon="103.176907">
<time>2015-08-05T23:41:39Z</time></trkpt>
<trkpt lat="30.132246" lon="103.176056">
<time>2015-08-05T23:41:40Z</time></trkpt>
<trkpt lat="30.131875" lon="103.175645">
<time>2015-08-05T23:41:41Z</time></trkpt>
<trkpt lat="30.131625" lon="103.175425">
<time>2015-08-05T23:41:42Z</time></trkpt>
<trkpt lat="30.131254" lon="103.175164">
<time>2015-08-05T23:41:43Z</time></trkpt>
<trkpt lat="30.130914" lon="103.174924">
<time>2015-08-05T23:41:44Z</time></trkpt>
<trkpt lat="30.130323" lon="103.174543">
<time>2015-08-05T23:41:45Z</time></trkpt>
<trkpt lat="30.130223" lon="103.174483">
<time>2015-08-05T23:41:46Z</time></trkpt>
<trkpt lat="30.129792" lon="103.174183">
<time>2015-08-05T23:41:47Z</time></trkpt>
<trkpt lat="30.129422" lon="103.173933">
<time>2015-08-05T23:41:48Z</time></trkpt>
<trkpt lat="30.129091" lon="103.173622">
<time>2015-08-05T23:41:49Z</time></trkpt>
<trkpt lat="30.12863" lon="103.173101">
<time>2015-08-05T23:41:50Z</time></trkpt>
<trkpt lat="30.128079" lon="103.172531">
<time>2015-08-05T23:41:51Z</time></trkpt>
<trkpt lat="30.127849" lon="103.17227">
<time>2015-08-05T23:41:52Z</time></trkpt>
<trkpt lat="30.127678" lon="103.17197">
<time>2015-08-05T23:41:53Z</time></trkpt>
<trkpt lat="30.127527" lon="103.171559">
<time>2015-08-05T23:41:54Z</time></trkpt>
<trkpt lat="30.127346" lon="103.170858">
<time>2015-08-05T23:41:55Z</time></trkpt>
<trkpt lat="30.127276" lon="103.170648">
<time>2015-08-05T23:41:56Z</time></trkpt>
<trkpt lat="30.127034" lon="103.169867">
<time>2015-08-05T23:41:57Z</time></trkpt>
<trkpt lat="30.126843" lon="103.169356">
<time>2015-08-05T23:41:58Z</time></trkpt>
<trkpt lat="30.126793" lon="103.169206">
<time>2015-08-05T23:41:59Z</time></trkpt>
<trkpt lat="30.126472" lon="103.168425">
<time>2015-08-05T23:42:00Z</time></trkpt>
<trkpt lat="30.12607" lon="103.167523">
<time>2015-08-05T23:42:01Z</time></trkpt>
<trkpt lat="30.125779" lon="103.167003">
<time>2015-08-05T23:42:02Z</time></trkpt>
<trkpt lat="30.125277" lon="103.166191">
<time>2015-08-05T23:42:03Z</time></trkpt>
<trkpt lat="30.124856" lon="103.165551">
<time>2015-08-05T23:42:04Z</time></trkpt>
<trkpt lat="30.124465" lon="103.16503">
<time>2015-08-05T23:42:05Z</time></trkpt>
<trkpt lat="30.123944" lon="103.164389">
<time>2015-08-05T23:42:06Z</time></trkpt>
<trkpt lat="30.123212" lon="103.163498">
<time>2015-08-05T23:42:07Z</time></trkpt>
<trkpt lat="30.122411" lon="103.162526">
<time>2015-08-05T23:42:08Z</time></trkpt>
<trkpt lat="30.121939" lon="103.161875">
<time>2015-08-05T23:42:09Z</time></trkpt>
<trkpt lat="30.121598" lon="103.161255">
<time>2015-08-05T23:42:10Z</time></trkpt>
<trkpt lat="30.121297" lon="103.160644">
<time>2015-08-05T23:42:11Z</time></trkpt>
<trkpt lat="30.121016" lon="103.159993">
<time>2015-08-05T23:42:12Z</time></trkpt>
<trkpt lat="30.120504" lon="103.158731">
<time>2015-08-05T23:42:13Z</time></trkpt>
<trkpt lat="30.120182" lon="103.15802">
<time>2015-08-05T23:42:14Z</time></trkpt>
<trkpt lat="30.11975" lon="103.156979">
<time>2015-08-05T23:42:15Z</time></trkpt>
<trkpt lat="30.119499" lon="103.156488">
<time>2015-08-05T23:42:16Z</time></trkpt>
<trkpt lat="30.119118" lon="103.155757">
<time>2015-08-05T23:42:17Z</time></trkpt>
<trkpt lat="30.118787" lon="103.155146">
<time>2015-08-05T23:42:18Z</time></trkpt>
<trkpt lat="30.118706" lon="103.154806">
<time>2015-08-05T23:42:19Z</time></trkpt>
<trkpt lat="30.118646" lon="103.154465">
<time>2015-08-05T23:42:20Z</time></trkpt>
<trkpt lat="30.118625" lon="103.154195">
<time>2015-08-05T23:42:21Z</time></trkpt>
<trkpt lat="30.118605" lon="103.153955">
<time>2015-08-05T23:42:22Z</time></trkpt>
<trkpt lat="30.118595" lon="103.153844">
<time>2015-08-05T23:42:23Z</time></trkpt>
<trkpt lat="30.118574" lon="103.153754">
<time>2015-08-05T23:42:24Z</time></trkpt>
<trkpt lat="30.118564" lon="103.153724">
<time>2015-08-05T23:42:25Z</time></trkpt>
<trkpt lat="30.118554" lon="103.153664">
<time>2015-08-05T23:42:26Z</time></trkpt>
<trkpt lat="30.118524" lon="103.153574">
<time>2015-08-05T23:42:27Z</time></trkpt>
<trkpt lat="30.118484" lon="103.153454">
<time>2015-08-05T23:42:28Z</time></trkpt>
<trkpt lat="30.118424" lon="103.153344">
<time>2015-08-05T23:42:29Z</time></trkpt>
<trkpt lat="30.118243" lon="103.153043">
<time>2015-08-05T23:42:30Z</time></trkpt>
<trkpt lat="30.117732" lon="103.152232">
<time>2015-08-05T23:42:31Z</time></trkpt>
<trkpt lat="30.117531" lon="103.151942">
<time>2015-08-05T23:42:32Z</time></trkpt>
<trkpt lat="30.117391" lon="103.151672">
<time>2015-08-05T23:42:33Z</time></trkpt>
<trkpt lat="30.11726" lon="103.151371">
<time>2015-08-05T23:42:34Z</time></trkpt>
<trkpt lat="30.11712" lon="103.151001">
<time>2015-08-05T23:42:35Z</time></trkpt>
<trkpt lat="30.116456" lon="103.148948">
<time>2015-08-05T23:42:36Z</time></trkpt>
<trkpt lat="30.116265" lon="103.148337">
<time>2015-08-05T23:42:37Z</time></trkpt>
<trkpt lat="30.116265" lon="103.148337">
<time>2015-08-05T23:42:38Z</time></trkpt>
<trkpt lat="30.116235" lon="103.148307">
<time>2015-08-05T23:42:39Z</time></trkpt>
<trkpt lat="30.116215" lon="103.148237">
<time>2015-08-05T23:42:40Z</time></trkpt>
<trkpt lat="30.116195" lon="103.148177">
<time>2015-08-05T23:42:41Z</time></trkpt>
<trkpt lat="30.116195" lon="103.148137">
<time>2015-08-05T23:42:42Z</time></trkpt>
<trkpt lat="30.116014" lon="103.147577">
<time>2015-08-05T23:42:43Z</time></trkpt>
<trkpt lat="30.115883" lon="103.147166">
<time>2015-08-05T23:42:44Z</time></trkpt>
<trkpt lat="30.115561" lon="103.146215">
<time>2015-08-05T23:42:45Z</time></trkpt>
<trkpt lat="30.11534" lon="103.145564">
<time>2015-08-05T23:42:46Z</time></trkpt>
<trkpt lat="30.1152" lon="103.145264">
<time>2015-08-05T23:42:47Z</time></trkpt>
<trkpt lat="30.114979" lon="103.144903">
<time>2015-08-05T23:42:48Z</time></trkpt>
<trkpt lat="30.114719" lon="103.144563">
<time>2015-08-05T23:42:49Z</time></trkpt>
<trkpt lat="30.114268" lon="103.144042">
<time>2015-08-05T23:42:50Z</time></trkpt>
<trkpt lat="30.113777" lon="103.143452">
<time>2015-08-05T23:42:51Z</time></trkpt>
<trkpt lat="30.113536" lon="103.143091">
<time>2015-08-05T23:42:52Z</time></trkpt>
<trkpt lat="30.113306" lon="103.142701">
<time>2015-08-05T23:42:53Z</time></trkpt>
<trkpt lat="30.113055" lon="103.1421">
<time>2015-08-05T23:42:54Z</time></trkpt>
<trkpt lat="30.112974" lon="103.14192">
<time>2015-08-05T23:42:55Z</time></trkpt>
<trkpt lat="30.112944" lon="103.14184">
<time>2015-08-05T23:42:56Z</time></trkpt>
<trkpt lat="30.112894" lon="103.14175">
<time>2015-08-05T23:42:57Z</time></trkpt>
<trkpt lat="30.112824" lon="103.14166">
<time>2015-08-05T23:42:58Z</time></trkpt>
<trkpt lat="30.112744" lon="103.14159">
<time>2015-08-05T23:42:59Z</time></trkpt>
<trkpt lat="30.112654" lon="103.14151">
<time>2015-08-05T23:43:00Z</time></trkpt>
<trkpt lat="30.112554" lon="103.14145">
<time>2015-08-05T23:43:01Z</time></trkpt>
<trkpt lat="30.112434" lon="103.14142">
<time>2015-08-05T23:43:02Z</time></trkpt>
<trkpt lat="30.112314" lon="103.1414">
<time>2015-08-05T23:43:03Z</time></trkpt>
<trkpt lat="30.112004" lon="103.14136">
<time>2015-08-05T23:43:04Z</time></trkpt>
<trkpt lat="30.111464" lon="103.14132">
<time>2015-08-05T23:43:05Z</time></trkpt>
<trkpt lat="30.111324" lon="103.14132">
<time>2015-08-05T23:43:06Z</time></trkpt>
<trkpt lat="30.111194" lon="103.1413">
<time>2015-08-05T23:43:07Z</time></trkpt>
<trkpt lat="30.111083" lon="103.141279">
<time>2015-08-05T23:43:08Z</time></trkpt>
<trkpt lat="30.110943" lon="103.141229">
<time>2015-08-05T23:43:09Z</time></trkpt>
<trkpt lat="30.110813" lon="103.141179">
<time>2015-08-05T23:43:10Z</time></trkpt>
<trkpt lat="30.110653" lon="103.141099">
<time>2015-08-05T23:43:11Z</time></trkpt>
<trkpt lat="30.110513" lon="103.140999">
<time>2015-08-05T23:43:12Z</time></trkpt>
<trkpt lat="30.110243" lon="103.140799">
<time>2015-08-05T23:43:13Z</time></trkpt>
<trkpt lat="30.109882" lon="103.140539">
<time>2015-08-05T23:43:14Z</time></trkpt>
<trkpt lat="30.109462" lon="103.140238">
<time>2015-08-05T23:43:15Z</time></trkpt>
<trkpt lat="30.109362" lon="103.140158">
<time>2015-08-05T23:43:16Z</time></trkpt>
<trkpt lat="30.109262" lon="103.140068">
<time>2015-08-05T23:43:17Z</time></trkpt>
<trkpt lat="30.109191" lon="103.139988">
<time>2015-08-05T23:43:18Z</time></trkpt>
<trkpt lat="30.109131" lon="103.139898">
<time>2015-08-05T23:43:19Z</time></trkpt>
<trkpt lat="30.109001" lon="103.139678">
<time>2015-08-05T23:43:20Z</time></trkpt>
<trkpt lat="30.10884" lon="103.139338">
<time>2015-08-05T23:43:21Z</time></trkpt>
<trkpt lat="30.1086" lon="103.138767">
<time>2015-08-05T23:43:22Z</time></trkpt>
<trkpt lat="30.108479" lon="103.138487">
<time>2015-08-05T23:43:23Z</time></trkpt>
<trkpt lat="30.108449" lon="103.138417">
<time>2015-08-05T23:43:24Z</time></trkpt>
<trkpt lat="30.108419" lon="103.138367">
<time>2015-08-05T23:43:25Z</time></trkpt>
<trkpt lat="30.108379" lon="103.138296">
<time>2015-08-05T23:43:26Z</time></trkpt>
<trkpt lat="30.108339" lon="103.138236">
<time>2015-08-05T23:43:27Z</time></trkpt>
<trkpt lat="30.108279" lon="103.138176">
<time>2015-08-05T23:43:28Z</time></trkpt>
<trkpt lat="30.108209" lon="103.138126">
<time>2015-08-05T23:43:29Z</time></trkpt>
<trkpt lat="30.108149" lon="103.138086">
<time>2015-08-05T23:43:30Z</time></trkpt>
<trkpt lat="30.108089" lon="103.138046">
<time>2015-08-05T23:43:31Z</time></trkpt>
<trkpt lat="30.107878" lon="103.137936">
<time>2015-08-05T23:43:32Z</time></trkpt>
<trkpt lat="30.107388" lon="103.137716">
<time>2015-08-05T23:43:33Z</time></trkpt>
<trkpt lat="30.106728" lon="103.137466">
<time>2015-08-05T23:43:34Z</time></trkpt>
<trkpt lat="30.106588" lon="103.137406">
<time>2015-08-05T23:43:35Z</time></trkpt>
<trkpt lat="30.106127" lon="103.137206">
<time>2015-08-05T23:43:36Z</time></trkpt>
<trkpt lat="30.105747" lon="103.136985">
<time>2015-08-05T23:43:37Z</time></trkpt>
<trkpt lat="30.105347" lon="103.136715">
<time>2015-08-05T23:43:38Z</time></trkpt>
<trkpt lat="30.104326" lon="103.136074">
<time>2015-08-05T23:43:39Z</time></trkpt>
<trkpt lat="30.103645" lon="103.135584">
<time>2015-08-05T23:43:40Z</time></trkpt>
<trkpt lat="30.103104" lon="103.135214">
<time>2015-08-05T23:43:41Z</time></trkpt>
<trkpt lat="30.102604" lon="103.134753">
<time>2015-08-05T23:43:42Z</time></trkpt>
<trkpt lat="30.102343" lon="103.134443">
<time>2015-08-05T23:43:43Z</time></trkpt>
<trkpt lat="30.102143" lon="103.134133">
<time>2015-08-05T23:43:44Z</time></trkpt>
<trkpt lat="30.102033" lon="103.133953">
<time>2015-08-05T23:43:45Z</time></trkpt>
<trkpt lat="30.101982" lon="103.133863">
<time>2015-08-05T23:43:46Z</time></trkpt>
<trkpt lat="30.101912" lon="103.133753">
<time>2015-08-05T23:43:47Z</time></trkpt>
<trkpt lat="30.101762" lon="103.133382">
<time>2015-08-05T23:43:48Z</time></trkpt>
<trkpt lat="30.101491" lon="103.132642">
<time>2015-08-05T23:43:49Z</time></trkpt>
<trkpt lat="30.10124" lon="103.131951">
<time>2015-08-05T23:43:50Z</time></trkpt>
<trkpt lat="30.101099" lon="103.131641">
<time>2015-08-05T23:43:51Z</time></trkpt>
<trkpt lat="30.100989" lon="103.131441">
<time>2015-08-05T23:43:52Z</time></trkpt>
<trkpt lat="30.100799" lon="103.13117">
<time>2015-08-05T23:43:53Z</time></trkpt>
<trkpt lat="30.100478" lon="103.13083">
<time>2015-08-05T23:43:54Z</time></trkpt>
<trkpt lat="30.099978" lon="103.13037">
<time>2015-08-05T23:43:55Z</time></trkpt>
<trkpt lat="30.099607" lon="103.13001">
<time>2015-08-05T23:43:56Z</time></trkpt>
<trkpt lat="30.099037" lon="103.129579">
<time>2015-08-05T23:43:57Z</time></trkpt>
<trkpt lat="30.097956" lon="103.128889">
<time>2015-08-05T23:43:58Z</time></trkpt>
<trkpt lat="30.097275" lon="103.128409">
<time>2015-08-05T23:43:59Z</time></trkpt>
<trkpt lat="30.096765" lon="103.127988">
<time>2015-08-05T23:44:00Z</time></trkpt>
<trkpt lat="30.096474" lon="103.127698">
<time>2015-08-05T23:44:01Z</time></trkpt>
<trkpt lat="30.096264" lon="103.127428">
<time>2015-08-05T23:44:02Z</time></trkpt>
<trkpt lat="30.096124" lon="103.127148">
<time>2015-08-05T23:44:03Z</time></trkpt>
<trkpt lat="30.095953" lon="103.126707">
<time>2015-08-05T23:44:04Z</time></trkpt>
<trkpt lat="30.095783" lon="103.126137">
<time>2015-08-05T23:44:05Z</time></trkpt>
<trkpt lat="30.095682" lon="103.125697">
<time>2015-08-05T23:44:06Z</time></trkpt>
<trkpt lat="30.095642" lon="103.125527">
<time>2015-08-05T23:44:07Z</time></trkpt>
<trkpt lat="30.095531" lon="103.125006">
<time>2015-08-05T23:44:08Z</time></trkpt>
<trkpt lat="30.095491" lon="103.124756">
<time>2015-08-05T23:44:09Z</time></trkpt>
<trkpt lat="30.095481" lon="103.124616">
<time>2015-08-05T23:44:10Z</time></trkpt>
<trkpt lat="30.095481" lon="103.124476">
<time>2015-08-05T23:44:11Z</time></trkpt>
<trkpt lat="30.09549" lon="103.124256">
<time>2015-08-05T23:44:12Z</time></trkpt>
<trkpt lat="30.09552" lon="103.123896">
<time>2015-08-05T23:44:13Z</time></trkpt>
<trkpt lat="30.09557" lon="103.123526">
<time>2015-08-05T23:44:14Z</time></trkpt>
<trkpt lat="30.095689" lon="103.122985">
<time>2015-08-05T23:44:15Z</time></trkpt>
<trkpt lat="30.095849" lon="103.122425">
<time>2015-08-05T23:44:16Z</time></trkpt>
<trkpt lat="30.095948" lon="103.122035">
<time>2015-08-05T23:44:17Z</time></trkpt>
<trkpt lat="30.096097" lon="103.121415">
<time>2015-08-05T23:44:18Z</time></trkpt>
<trkpt lat="30.096247" lon="103.120854">
<time>2015-08-05T23:44:19Z</time></trkpt>
<trkpt lat="30.096267" lon="103.120674">
<time>2015-08-05T23:44:20Z</time></trkpt>
<trkpt lat="30.096277" lon="103.120434">
<time>2015-08-05T23:44:21Z</time></trkpt>
<trkpt lat="30.096266" lon="103.120194">
<time>2015-08-05T23:44:22Z</time></trkpt>
<trkpt lat="30.096226" lon="103.119944">
<time>2015-08-05T23:44:23Z</time></trkpt>
<trkpt lat="30.096186" lon="103.119674">
<time>2015-08-05T23:44:24Z</time></trkpt>
<trkpt lat="30.096106" lon="103.119434">
<time>2015-08-05T23:44:25Z</time></trkpt>
<trkpt lat="30.096025" lon="103.119254">
<time>2015-08-05T23:44:26Z</time></trkpt>
<trkpt lat="30.095915" lon="103.119064">
<time>2015-08-05T23:44:27Z</time></trkpt>
<trkpt lat="30.095675" lon="103.118684">
<time>2015-08-05T23:44:28Z</time></trkpt>
<trkpt lat="30.095515" lon="103.118474">
<time>2015-08-05T23:44:29Z</time></trkpt>
<trkpt lat="30.095334" lon="103.118244">
<time>2015-08-05T23:44:30Z</time></trkpt>
<trkpt lat="30.095134" lon="103.118043">
<time>2015-08-05T23:44:31Z</time></trkpt>
<trkpt lat="30.094914" lon="103.117793">
<time>2015-08-05T23:44:32Z</time></trkpt>
<trkpt lat="30.094744" lon="103.117593">
<time>2015-08-05T23:44:33Z</time></trkpt>
<trkpt lat="30.094584" lon="103.117413">
<time>2015-08-05T23:44:34Z</time></trkpt>
<trkpt lat="30.094554" lon="103.117363">
<time>2015-08-05T23:44:35Z</time></trkpt>
<trkpt lat="30.094554" lon="103.117363">
<time>2015-08-05T23:44:36Z</time></trkpt>
<trkpt lat="30.094564" lon="103.117243">
<time>2015-08-05T23:44:37Z</time></trkpt>
<trkpt lat="30.094574" lon="103.117173">
<time>2015-08-05T23:44:38Z</time></trkpt>
<trkpt lat="30.094573" lon="103.117113">
<time>2015-08-05T23:44:39Z</time></trkpt>
<trkpt lat="30.094563" lon="103.117053">
<time>2015-08-05T23:44:40Z</time></trkpt>
<trkpt lat="30.094553" lon="103.116983">
<time>2015-08-05T23:44:41Z</time></trkpt>
<trkpt lat="30.094533" lon="103.116923">
<time>2015-08-05T23:44:42Z</time></trkpt>
<trkpt lat="30.094523" lon="103.116873">
<time>2015-08-05T23:44:43Z</time></trkpt>
<trkpt lat="30.094513" lon="103.116843">
<time>2015-08-05T23:44:44Z</time></trkpt>
<trkpt lat="30.094493" lon="103.116783">
<time>2015-08-05T23:44:45Z</time></trkpt>
<trkpt lat="30.094473" lon="103.116743">
<time>2015-08-05T23:44:46Z</time></trkpt>
<trkpt lat="30.094453" lon="103.116693">
<time>2015-08-05T23:44:47Z</time></trkpt>
<trkpt lat="30.094433" lon="103.116643">
<time>2015-08-05T23:44:48Z</time></trkpt>
<trkpt lat="30.094423" lon="103.116593">
<time>2015-08-05T23:44:49Z</time></trkpt>
<trkpt lat="30.094403" lon="103.116553">
<time>2015-08-05T23:44:50Z</time></trkpt>
<trkpt lat="30.094383" lon="103.116513">
<time>2015-08-05T23:44:51Z</time></trkpt>
<trkpt lat="30.094363" lon="103.116463">
<time>2015-08-05T23:44:52Z</time></trkpt>
<trkpt lat="30.094343" lon="103.116423">
<time>2015-08-05T23:44:53Z</time></trkpt>
<trkpt lat="30.094333" lon="103.116383">
<time>2015-08-05T23:44:54Z</time></trkpt>
<trkpt lat="30.094313" lon="103.116333">
<time>2015-08-05T23:44:55Z</time></trkpt>
<trkpt lat="30.094303" lon="103.116283">
<time>2015-08-05T23:44:56Z</time></trkpt>
<trkpt lat="30.094283" lon="103.116243">
<time>2015-08-05T23:44:57Z</time></trkpt>
<trkpt lat="30.094273" lon="103.116203">
<time>2015-08-05T23:44:58Z</time></trkpt>
<trkpt lat="30.094253" lon="103.116163">
<time>2015-08-05T23:44:59Z</time></trkpt>
<trkpt lat="30.094233" lon="103.116133">
<time>2015-08-05T23:45:00Z</time></trkpt>
<trkpt lat="30.094203" lon="103.116063">
<time>2015-08-05T23:45:01Z</time></trkpt>
<trkpt lat="30.094173" lon="103.115993">
<time>2015-08-05T23:45:02Z</time></trkpt>
<trkpt lat="30.094152" lon="103.115923">
<time>2015-08-05T23:45:03Z</time></trkpt>
<trkpt lat="30.094122" lon="103.115843">
<time>2015-08-05T23:45:04Z</time></trkpt>
<trkpt lat="30.094092" lon="103.115773">
<time>2015-08-05T23:45:05Z</time></trkpt>
<trkpt lat="30.094052" lon="103.115703">
<time>2015-08-05T23:45:06Z</time></trkpt>
<trkpt lat="30.094032" lon="103.115613">
<time>2015-08-05T23:45:07Z</time></trkpt>
<trkpt lat="30.093982" lon="103.115543">
<time>2015-08-05T23:45:08Z</time></trkpt>
<trkpt lat="30.093942" lon="103.115453">
<time>2015-08-05T23:45:09Z</time></trkpt>
<trkpt lat="30.093912" lon="103.115353">
<time>2015-08-05T23:45:10Z</time></trkpt>
<trkpt lat="30.093882" lon="103.115233">
<time>2015-08-05T23:45:11Z</time></trkpt>
<trkpt lat="30.093872" lon="103.115123">
<time>2015-08-05T23:45:12Z</time></trkpt>
<trkpt lat="30.093852" lon="103.115003">
<time>2015-08-05T23:45:13Z</time></trkpt>
<trkpt lat="30.093842" lon="103.114903">
<time>2015-08-05T23:45:14Z</time></trkpt>
<trkpt lat="30.093842" lon="103.114803">
<time>2015-08-05T23:45:15Z</time></trkpt>
<trkpt lat="30.093822" lon="103.114713">
<time>2015-08-05T23:45:16Z</time></trkpt>
<trkpt lat="30.093801" lon="103.114623">
<time>2015-08-05T23:45:17Z</time></trkpt>
<trkpt lat="30.093781" lon="103.114583">
<time>2015-08-05T23:45:18Z</time></trkpt>
<trkpt lat="30.093751" lon="103.114553">
<time>2015-08-05T23:45:19Z</time></trkpt>
<trkpt lat="30.093711" lon="103.114523">
<time>2015-08-05T23:45:20Z</time></trkpt>
<trkpt lat="30.093671" lon="103.114503">
<time>2015-08-05T23:45:21Z</time></trkpt>
<trkpt lat="30.093621" lon="103.114503">
<time>2015-08-05T23:45:22Z</time></trkpt>
<trkpt lat="30.093491" lon="103.114483">
<time>2015-08-05T23:45:23Z</time></trkpt>
<trkpt lat="30.093491" lon="103.114483">
<time>2015-08-05T23:45:24Z</time></trkpt>
<trkpt lat="30.093491" lon="103.114363">
<time>2015-08-05T23:45:25Z</time></trkpt>
<trkpt lat="30.093471" lon="103.114213">
<time>2015-08-05T23:45:26Z</time></trkpt>
<trkpt lat="30.093441" lon="103.114083">
<time>2015-08-05T23:45:27Z</time></trkpt>
<trkpt lat="30.093411" lon="103.114013">
<time>2015-08-05T23:45:28Z</time></trkpt>
<trkpt lat="30.093381" lon="103.113933">
<time>2015-08-05T23:45:29Z</time></trkpt>
<trkpt lat="30.093301" lon="103.113763">
<time>2015-08-05T23:45:30Z</time></trkpt>
<trkpt lat="30.093221" lon="103.113583">
<time>2015-08-05T23:45:31Z</time></trkpt>
<trkpt lat="30.093181" lon="103.113513">
<time>2015-08-05T23:45:32Z</time></trkpt>
<trkpt lat="30.093151" lon="103.113463">
<time>2015-08-05T23:45:33Z</time></trkpt>
<trkpt lat="30.093111" lon="103.113423">
<time>2015-08-05T23:45:34Z</time></trkpt>
<trkpt lat="30.092981" lon="103.113313">
<time>2015-08-05T23:45:35Z</time></trkpt>
<trkpt lat="30.09259" lon="103.113033">
<time>2015-08-05T23:45:36Z</time></trkpt>
<trkpt lat="30.09219" lon="103.112723">
<time>2015-08-05T23:45:37Z</time></trkpt>
<trkpt lat="30.09205" lon="103.112643">
<time>2015-08-05T23:45:38Z</time></trkpt>
<trkpt lat="30.09191" lon="103.112543">
<time>2015-08-05T23:45:39Z</time></trkpt>
<trkpt lat="30.09152" lon="103.112253">
<time>2015-08-05T23:45:40Z</time></trkpt>
<trkpt lat="30.09129" lon="103.112073">
<time>2015-08-05T23:45:41Z</time></trkpt>
<trkpt lat="30.09114" lon="103.111973">
<time>2015-08-05T23:45:42Z</time></trkpt>
<trkpt lat="30.09098" lon="103.111853">
<time>2015-08-05T23:45:43Z</time></trkpt>
<trkpt lat="30.090719" lon="103.111633">
<time>2015-08-05T23:45:44Z</time></trkpt>
<trkpt lat="30.090579" lon="103.111523">
<time>2015-08-05T23:45:45Z</time></trkpt>
<trkpt lat="30.090329" lon="103.111333">
<time>2015-08-05T23:45:46Z</time></trkpt>
<trkpt lat="30.090159" lon="103.111183">
<time>2015-08-05T23:45:47Z</time></trkpt>
<trkpt lat="30.090059" lon="103.111063">
<time>2015-08-05T23:45:48Z</time></trkpt>
<trkpt lat="30.089949" lon="103.110923">
<time>2015-08-05T23:45:49Z</time></trkpt>
<trkpt lat="30.089779" lon="103.110743">
<time>2015-08-05T23:45:50Z</time></trkpt>
<trkpt lat="30.089699" lon="103.110633">
<time>2015-08-05T23:45:51Z</time></trkpt>
<trkpt lat="30.089589" lon="103.110503">
<time>2015-08-05T23:45:52Z</time></trkpt>
<trkpt lat="30.089499" lon="103.110413">
<time>2015-08-05T23:45:53Z</time></trkpt>
<trkpt lat="30.089389" lon="103.110293">
<time>2015-08-05T23:45:54Z</time></trkpt>
<trkpt lat="30.089328" lon="103.110233">
<time>2015-08-05T23:45:55Z</time></trkpt>
<trkpt lat="30.089328" lon="103.110233">
<time>2015-08-05T23:45:56Z</time></trkpt>
<trkpt lat="30.089118" lon="103.110073">
<time>2015-08-05T23:45:57Z</time></trkpt>
<trkpt lat="30.088818" lon="103.109863">
<time>2015-08-05T23:45:58Z</time></trkpt>
<trkpt lat="30.088638" lon="103.109733">
<time>2015-08-05T23:45:59Z</time></trkpt>
<trkpt lat="30.088328" lon="103.109523">
<time>2015-08-05T23:46:00Z</time></trkpt>
<trkpt lat="30.088218" lon="103.109413">
<time>2015-08-05T23:46:01Z</time></trkpt>
<trkpt lat="30.088128" lon="103.109353">
<time>2015-08-05T23:46:02Z</time></trkpt>
<trkpt lat="30.088048" lon="103.109273">
<time>2015-08-05T23:46:03Z</time></trkpt>
<trkpt lat="30.087738" lon="103.109013">
<time>2015-08-05T23:46:04Z</time></trkpt>
<trkpt lat="30.087638" lon="103.108953">
<time>2015-08-05T23:46:05Z</time></trkpt>
<trkpt lat="30.087568" lon="103.108913">
<time>2015-08-05T23:46:06Z</time></trkpt>
<trkpt lat="30.087448" lon="103.108853">
<time>2015-08-05T23:46:07Z</time></trkpt>
<trkpt lat="30.087018" lon="103.108703">
<time>2015-08-05T23:46:08Z</time></trkpt>
<trkpt lat="30.087018" lon="103.108703">
<time>2015-08-05T23:46:09Z</time></trkpt>
<trkpt lat="30.086007" lon="103.108353">
<time>2015-08-05T23:46:10Z</time></trkpt>
<trkpt lat="30.085947" lon="103.108323">
<time>2015-08-05T23:46:11Z</time></trkpt>
<trkpt lat="30.085877" lon="103.108293">
<time>2015-08-05T23:46:12Z</time></trkpt>
<trkpt lat="30.085107" lon="103.107783">
<time>2015-08-05T23:46:13Z</time></trkpt>
<trkpt lat="30.084917" lon="103.107623">
<time>2015-08-05T23:46:14Z</time></trkpt>
<trkpt lat="30.084637" lon="103.107433">
<time>2015-08-05T23:46:15Z</time></trkpt>
<trkpt lat="30.084567" lon="103.107413">
<time>2015-08-05T23:46:16Z</time></trkpt>
<trkpt lat="30.084507" lon="103.107393">
<time>2015-08-05T23:46:17Z</time></trkpt>
<trkpt lat="30.084467" lon="103.107393">
<time>2015-08-05T23:46:18Z</time></trkpt>
<trkpt lat="30.084427" lon="103.107393">
<time>2015-08-05T23:46:19Z</time></trkpt>
<trkpt lat="30.084357" lon="103.107423">
<time>2015-08-05T23:46:20Z</time></trkpt>
<trkpt lat="30.084307" lon="103.107443">
<time>2015-08-05T23:46:21Z</time></trkpt>
<trkpt lat="30.084207" lon="103.107493">
<time>2015-08-05T23:46:22Z</time></trkpt>
<trkpt lat="30.084207" lon="103.107493">
<time>2015-08-05T23:46:23Z</time></trkpt>
<trkpt lat="30.084137" lon="103.107493">
<time>2015-08-05T23:46:24Z</time></trkpt>
<trkpt lat="30.084097" lon="103.107493">
<time>2015-08-05T23:46:25Z</time></trkpt>
<trkpt lat="30.084067" lon="103.107493">
<time>2015-08-05T23:46:26Z</time></trkpt>
<trkpt lat="30.084037" lon="103.107483">
<time>2015-08-05T23:46:27Z</time></trkpt>
<trkpt lat="30.083907" lon="103.107423">
<time>2015-08-05T23:46:28Z</time></trkpt>
<trkpt lat="30.083757" lon="103.107363">
<time>2015-08-05T23:46:29Z</time></trkpt>
<trkpt lat="30.083337" lon="103.107163">
<time>2015-08-05T23:46:30Z</time></trkpt>
<trkpt lat="30.082747" lon="103.106983">
<time>2015-08-05T23:46:31Z</time></trkpt>
<trkpt lat="30.082677" lon="103.106963">
<time>2015-08-05T23:46:32Z</time></trkpt>
<trkpt lat="30.082127" lon="103.106744">
<time>2015-08-05T23:46:33Z</time></trkpt>
<trkpt lat="30.081696" lon="103.106234">
<time>2015-08-05T23:46:34Z</time></trkpt>
<trkpt lat="30.080946" lon="103.105544">
<time>2015-08-05T23:46:35Z</time></trkpt>
<trkpt lat="30.080526" lon="103.105254">
<time>2015-08-05T23:46:36Z</time></trkpt>
<trkpt lat="30.080266" lon="103.105074">
<time>2015-08-05T23:46:37Z</time></trkpt>
<trkpt lat="30.079886" lon="103.104814">
<time>2015-08-05T23:46:38Z</time></trkpt>
<trkpt lat="30.079746" lon="103.104674">
<time>2015-08-05T23:46:39Z</time></trkpt>
<trkpt lat="30.079596" lon="103.104524">
<time>2015-08-05T23:46:40Z</time></trkpt>
<trkpt lat="30.078685" lon="103.103375">
<time>2015-08-05T23:46:41Z</time></trkpt>
<trkpt lat="30.078375" lon="103.102985">
<time>2015-08-05T23:46:42Z</time></trkpt>
<trkpt lat="30.077995" lon="103.102375">
<time>2015-08-05T23:46:43Z</time></trkpt>
<trkpt lat="30.077905" lon="103.102185">
<time>2015-08-05T23:46:44Z</time></trkpt>
<trkpt lat="30.077635" lon="103.101635">
<time>2015-08-05T23:46:45Z</time></trkpt>
<trkpt lat="30.077065" lon="103.100516">
<time>2015-08-05T23:46:46Z</time></trkpt>
<trkpt lat="30.077025" lon="103.100436">
<time>2015-08-05T23:46:47Z</time></trkpt>
<trkpt lat="30.076705" lon="103.099896">
<time>2015-08-05T23:46:48Z</time></trkpt>
<trkpt lat="30.076254" lon="103.099247">
<time>2015-08-05T23:46:49Z</time></trkpt>
<trkpt lat="30.076034" lon="103.098987">
<time>2015-08-05T23:46:50Z</time></trkpt>
<trkpt lat="30.075804" lon="103.098787">
<time>2015-08-05T23:46:51Z</time></trkpt>
<trkpt lat="30.075304" lon="103.098387">
<time>2015-08-05T23:46:52Z</time></trkpt>
<trkpt lat="30.075304" lon="103.098387">
<time>2015-08-05T23:46:53Z</time></trkpt>
<trkpt lat="30.075154" lon="103.098297">
<time>2015-08-05T23:46:54Z</time></trkpt>
<trkpt lat="30.075134" lon="103.098287">
<time>2015-08-05T23:46:55Z</time></trkpt>
<trkpt lat="30.074994" lon="103.098227">
<time>2015-08-05T23:46:56Z</time></trkpt>
<trkpt lat="30.074774" lon="103.098167">
<time>2015-08-05T23:46:57Z</time></trkpt>
<trkpt lat="30.074384" lon="103.098087">
<time>2015-08-05T23:46:58Z</time></trkpt>
<trkpt lat="30.074054" lon="103.098028">
<time>2015-08-05T23:46:59Z</time></trkpt>
<trkpt lat="30.073514" lon="103.097888">
<time>2015-08-05T23:47:00Z</time></trkpt>
<trkpt lat="30.072194" lon="103.097378">
<time>2015-08-05T23:47:01Z</time></trkpt>
<trkpt lat="30.071454" lon="103.097088">
<time>2015-08-05T23:47:02Z</time></trkpt>
<trkpt lat="30.070424" lon="103.096689">
<time>2015-08-05T23:47:03Z</time></trkpt>
<trkpt lat="30.069174" lon="103.096169">
<time>2015-08-05T23:47:04Z</time></trkpt>
<trkpt lat="30.068344" lon="103.095769">
<time>2015-08-05T23:47:05Z</time></trkpt>
<trkpt lat="30.067974" lon="103.09554">
<time>2015-08-05T23:47:06Z</time></trkpt>
<trkpt lat="30.067144" lon="103.09502">
<time>2015-08-05T23:47:07Z</time></trkpt>
<trkpt lat="30.065594" lon="103.094051">
<time>2015-08-05T23:47:08Z</time></trkpt>
<trkpt lat="30.065334" lon="103.093871">
<time>2015-08-05T23:47:09Z</time></trkpt>
<trkpt lat="30.065234" lon="103.093801">
<time>2015-08-05T23:47:10Z</time></trkpt>
<trkpt lat="30.065184" lon="103.093741">
<time>2015-08-05T23:47:11Z</time></trkpt>
<trkpt lat="30.065144" lon="103.093681">
<time>2015-08-05T23:47:12Z</time></trkpt>
<trkpt lat="30.065094" lon="103.093601">
<time>2015-08-05T23:47:13Z</time></trkpt>
<trkpt lat="30.065064" lon="103.093531">
<time>2015-08-05T23:47:14Z</time></trkpt>
<trkpt lat="30.065034" lon="103.093461">
<time>2015-08-05T23:47:15Z</time></trkpt>
<trkpt lat="30.064984" lon="103.093331">
<time>2015-08-05T23:47:16Z</time></trkpt>
<trkpt lat="30.064984" lon="103.093321">
<time>2015-08-05T23:47:17Z</time></trkpt>
<trkpt lat="30.064944" lon="103.093192">
<time>2015-08-05T23:47:18Z</time></trkpt>
<trkpt lat="30.064934" lon="103.093132">
<time>2015-08-05T23:47:19Z</time></trkpt>
<trkpt lat="30.064924" lon="103.093022">
<time>2015-08-05T23:47:20Z</time></trkpt>
<trkpt lat="30.064745" lon="103.091263">
<time>2015-08-05T23:47:21Z</time></trkpt>
<trkpt lat="30.064715" lon="103.090654">
<time>2015-08-05T23:47:22Z</time></trkpt>
<trkpt lat="30.064705" lon="103.090474">
<time>2015-08-05T23:47:23Z</time></trkpt>
<trkpt lat="30.064685" lon="103.090334">
<time>2015-08-05T23:47:24Z</time></trkpt>
<trkpt lat="30.064655" lon="103.090194">
<time>2015-08-05T23:47:25Z</time></trkpt>
<trkpt lat="30.064615" lon="103.090115">
<time>2015-08-05T23:47:26Z</time></trkpt>
<trkpt lat="30.064555" lon="103.089995">
<time>2015-08-05T23:47:27Z</time></trkpt>
<trkpt lat="30.064475" lon="103.089895">
<time>2015-08-05T23:47:28Z</time></trkpt>
<trkpt lat="30.064355" lon="103.089755">
<time>2015-08-05T23:47:29Z</time></trkpt>
<trkpt lat="30.064215" lon="103.089625">
<time>2015-08-05T23:47:30Z</time></trkpt>
<trkpt lat="30.063895" lon="103.089395">
<time>2015-08-05T23:47:31Z</time></trkpt>
<trkpt lat="30.063725" lon="103.089275">
<time>2015-08-05T23:47:32Z</time></trkpt>
<trkpt lat="30.063435" lon="103.089016">
<time>2015-08-05T23:47:33Z</time></trkpt>
<trkpt lat="30.063245" lon="103.088856">
<time>2015-08-05T23:47:34Z</time></trkpt>
<trkpt lat="30.063075" lon="103.088686">
<time>2015-08-05T23:47:35Z</time></trkpt>
<trkpt lat="30.062695" lon="103.088257">
<time>2015-08-05T23:47:36Z</time></trkpt>
<trkpt lat="30.062416" lon="103.087927">
<time>2015-08-05T23:47:37Z</time></trkpt>
<trkpt lat="30.062076" lon="103.087458">
<time>2015-08-05T23:47:38Z</time></trkpt>
<trkpt lat="30.061946" lon="103.087328">
<time>2015-08-05T23:47:39Z</time></trkpt>
<trkpt lat="30.061846" lon="103.087228">
<time>2015-08-05T23:47:40Z</time></trkpt>
<trkpt lat="30.061706" lon="103.087128">
<time>2015-08-05T23:47:41Z</time></trkpt>
<trkpt lat="30.061546" lon="103.087038">
<time>2015-08-05T23:47:42Z</time></trkpt>
<trkpt lat="30.061096" lon="103.086798">
<time>2015-08-05T23:47:43Z</time></trkpt>
<trkpt lat="30.060906" lon="103.086669">
<time>2015-08-05T23:47:44Z</time></trkpt>
<trkpt lat="30.060786" lon="103.086559">
<time>2015-08-05T23:47:45Z</time></trkpt>
<trkpt lat="30.060716" lon="103.086499">
<time>2015-08-05T23:47:46Z</time></trkpt>
<trkpt lat="30.060666" lon="103.086429">
<time>2015-08-05T23:47:47Z</time></trkpt>
<trkpt lat="30.060496" lon="103.086079">
<time>2015-08-05T23:47:48Z</time></trkpt>
<trkpt lat="30.060356" lon="103.08578">
<time>2015-08-05T23:47:49Z</time></trkpt>
<trkpt lat="30.060187" lon="103.08549">
<time>2015-08-05T23:47:50Z</time></trkpt>
<trkpt lat="30.059727" lon="103.084861">
<time>2015-08-05T23:47:51Z</time></trkpt>
<trkpt lat="30.059437" lon="103.084461">
<time>2015-08-05T23:47:52Z</time></trkpt>
<trkpt lat="30.059377" lon="103.084362">
<time>2015-08-05T23:47:53Z</time></trkpt>
<trkpt lat="30.059327" lon="103.084262">
<time>2015-08-05T23:47:54Z</time></trkpt>
<trkpt lat="30.059247" lon="103.084032">
<time>2015-08-05T23:47:55Z</time></trkpt>
<trkpt lat="30.059058" lon="103.083503">
<time>2015-08-05T23:47:56Z</time></trkpt>
<trkpt lat="30.058978" lon="103.083333">
<time>2015-08-05T23:47:57Z</time></trkpt>
<trkpt lat="30.058898" lon="103.083223">
<time>2015-08-05T23:47:58Z</time></trkpt>
<trkpt lat="30.058788" lon="103.083093">
<time>2015-08-05T23:47:59Z</time></trkpt>
<trkpt lat="30.058438" lon="103.082794">
<time>2015-08-05T23:48:00Z</time></trkpt>
<trkpt lat="30.057269" lon="103.081795">
<time>2015-08-05T23:48:01Z</time></trkpt>
<trkpt lat="30.057079" lon="103.081646">
<time>2015-08-05T23:48:02Z</time></trkpt>
<trkpt lat="30.056919" lon="103.081556">
<time>2015-08-05T23:48:03Z</time></trkpt>
<trkpt lat="30.056899" lon="103.081546">
<time>2015-08-05T23:48:04Z</time></trkpt>
<trkpt lat="30.056569" lon="103.081386">
<time>2015-08-05T23:48:05Z</time></trkpt>
<trkpt lat="30.056219" lon="103.081276">
<time>2015-08-05T23:48:06Z</time></trkpt>
<trkpt lat="30.055899" lon="103.081216">
<time>2015-08-05T23:48:07Z</time></trkpt>
<trkpt lat="30.055659" lon="103.081186">
<time>2015-08-05T23:48:08Z</time></trkpt>
<trkpt lat="30.055429" lon="103.081176">
<time>2015-08-05T23:48:09Z</time></trkpt>
<trkpt lat="30.055219" lon="103.081206">
<time>2015-08-05T23:48:10Z</time></trkpt>
<trkpt lat="30.054489" lon="103.081336">
<time>2015-08-05T23:48:11Z</time></trkpt>
<trkpt lat="30.054319" lon="103.081346">
<time>2015-08-05T23:48:12Z</time></trkpt>
<trkpt lat="30.054109" lon="103.081336">
<time>2015-08-05T23:48:13Z</time></trkpt>
<trkpt lat="30.053889" lon="103.081286">
<time>2015-08-05T23:48:14Z</time></trkpt>
<trkpt lat="30.053719" lon="103.081196">
<time>2015-08-05T23:48:15Z</time></trkpt>
<trkpt lat="30.053449" lon="103.080987">
<time>2015-08-05T23:48:16Z</time></trkpt>
<trkpt lat="30.053319" lon="103.080807">
<time>2015-08-05T23:48:17Z</time></trkpt>
<trkpt lat="30.053189" lon="103.080627">
<time>2015-08-05T23:48:18Z</time></trkpt>
<trkpt lat="30.053179" lon="103.080607">
<time>2015-08-05T23:48:19Z</time></trkpt>
<trkpt lat="30.05309" lon="103.080408">
<time>2015-08-05T23:48:20Z</time></trkpt>
<trkpt lat="30.053" lon="103.080178">
<time>2015-08-05T23:48:21Z</time></trkpt>
<trkpt lat="30.05286" lon="103.079729">
<time>2015-08-05T23:48:22Z</time></trkpt>
<trkpt lat="30.05278" lon="103.079329">
<time>2015-08-05T23:48:23Z</time></trkpt>
<trkpt lat="30.052741" lon="103.07897">
<time>2015-08-05T23:48:24Z</time></trkpt>
<trkpt lat="30.052731" lon="103.078571">
<time>2015-08-05T23:48:25Z</time></trkpt>
<trkpt lat="30.052742" lon="103.077702">
<time>2015-08-05T23:48:26Z</time></trkpt>
<trkpt lat="30.052742" lon="103.077672">
<time>2015-08-05T23:48:27Z</time></trkpt>
<trkpt lat="30.052722" lon="103.077592">
<time>2015-08-05T23:48:28Z</time></trkpt>
<trkpt lat="30.052733" lon="103.075975">
<time>2015-08-05T23:48:29Z</time></trkpt>
<trkpt lat="30.052714" lon="103.075546">
<time>2015-08-05T23:48:30Z</time></trkpt>
<trkpt lat="30.052714" lon="103.075346">
<time>2015-08-05T23:48:31Z</time></trkpt>
<trkpt lat="30.052704" lon="103.075316">
<time>2015-08-05T23:48:32Z</time></trkpt>
<trkpt lat="30.052664" lon="103.074907">
<time>2015-08-05T23:48:33Z</time></trkpt>
<trkpt lat="30.052565" lon="103.074168">
<time>2015-08-05T23:48:34Z</time></trkpt>
<trkpt lat="30.052067" lon="103.071743">
<time>2015-08-05T23:48:35Z</time></trkpt>
<trkpt lat="30.051839" lon="103.070725">
<time>2015-08-05T23:48:36Z</time></trkpt>
<trkpt lat="30.051759" lon="103.070426">
<time>2015-08-05T23:48:37Z</time></trkpt>
<trkpt lat="30.051759" lon="103.070426">
<time>2015-08-05T23:48:38Z</time></trkpt>
<trkpt lat="30.051769" lon="103.070346">
<time>2015-08-05T23:48:39Z</time></trkpt>
<trkpt lat="30.051719" lon="103.070196">
<time>2015-08-05T23:48:40Z</time></trkpt>
<trkpt lat="30.05158" lon="103.069847">
<time>2015-08-05T23:48:41Z</time></trkpt>
<trkpt lat="30.05148" lon="103.069637">
<time>2015-08-05T23:48:42Z</time></trkpt>
<trkpt lat="30.05137" lon="103.069458">
<time>2015-08-05T23:48:43Z</time></trkpt>
<trkpt lat="30.05127" lon="103.069288">
<time>2015-08-05T23:48:44Z</time></trkpt>
<trkpt lat="30.050861" lon="103.068639">
<time>2015-08-05T23:48:45Z</time></trkpt>
<trkpt lat="30.050262" lon="103.067761">
<time>2015-08-05T23:48:46Z</time></trkpt>
<trkpt lat="30.050202" lon="103.067692">
<time>2015-08-05T23:48:47Z</time></trkpt>
<trkpt lat="30.050032" lon="103.067512">
<time>2015-08-05T23:48:48Z</time></trkpt>
<trkpt lat="30.049583" lon="103.067083">
<time>2015-08-05T23:48:49Z</time></trkpt>
<trkpt lat="30.049533" lon="103.067033">
<time>2015-08-05T23:48:50Z</time></trkpt>
<trkpt lat="30.049403" lon="103.066893">
<time>2015-08-05T23:48:51Z</time></trkpt>
<trkpt lat="30.049313" lon="103.066784">
<time>2015-08-05T23:48:52Z</time></trkpt>
<trkpt lat="30.049253" lon="103.066694">
<time>2015-08-05T23:48:53Z</time></trkpt>
<trkpt lat="30.049204" lon="103.066604">
<time>2015-08-05T23:48:54Z</time></trkpt>
<trkpt lat="30.049154" lon="103.066504">
<time>2015-08-05T23:48:55Z</time></trkpt>
<trkpt lat="30.049104" lon="103.066375">
<time>2015-08-05T23:48:56Z</time></trkpt>
<trkpt lat="30.048925" lon="103.065846">
<time>2015-08-05T23:48:57Z</time></trkpt>
<trkpt lat="30.048825" lon="103.065566">
<time>2015-08-05T23:48:58Z</time></trkpt>
<trkpt lat="30.048805" lon="103.065526">
<time>2015-08-05T23:48:59Z</time></trkpt>
<trkpt lat="30.048675" lon="103.065247">
<time>2015-08-05T23:49:00Z</time></trkpt>
<trkpt lat="30.048626" lon="103.065137">
<time>2015-08-05T23:49:01Z</time></trkpt>
<trkpt lat="30.048566" lon="103.065058">
<time>2015-08-05T23:49:02Z</time></trkpt>
<trkpt lat="30.048506" lon="103.064988">
<time>2015-08-05T23:49:03Z</time></trkpt>
<trkpt lat="30.048236" lon="103.064758">
<time>2015-08-05T23:49:04Z</time></trkpt>
<trkpt lat="30.048126" lon="103.064629">
<time>2015-08-05T23:49:05Z</time></trkpt>
<trkpt lat="30.048007" lon="103.064449">
<time>2015-08-05T23:49:06Z</time></trkpt>
<trkpt lat="30.047747" lon="103.06422">
<time>2015-08-05T23:49:07Z</time></trkpt>
<trkpt lat="30.046049" lon="103.062793">
<time>2015-08-05T23:49:08Z</time></trkpt>
<trkpt lat="30.044111" lon="103.061217">
<time>2015-08-05T23:49:09Z</time></trkpt>
<trkpt lat="30.043372" lon="103.060569">
<time>2015-08-05T23:49:10Z</time></trkpt>
<trkpt lat="30.043103" lon="103.060399">
<time>2015-08-05T23:49:11Z</time></trkpt>
<trkpt lat="30.042783" lon="103.06022">
<time>2015-08-05T23:49:12Z</time></trkpt>
<trkpt lat="30.042353" lon="103.06003">
<time>2015-08-05T23:49:13Z</time></trkpt>
<trkpt lat="30.041853" lon="103.059861">
<time>2015-08-05T23:49:14Z</time></trkpt>
<trkpt lat="30.041334" lon="103.059781">
<time>2015-08-05T23:49:15Z</time></trkpt>
<trkpt lat="30.040924" lon="103.059741">
<time>2015-08-05T23:49:16Z</time></trkpt>
<trkpt lat="30.040564" lon="103.059751">
<time>2015-08-05T23:49:17Z</time></trkpt>
<trkpt lat="30.040103" lon="103.059801">
<time>2015-08-05T23:49:18Z</time></trkpt>
<trkpt lat="30.039433" lon="103.06">
<time>2015-08-05T23:49:19Z</time></trkpt>
<trkpt lat="30.037112" lon="103.060988">
<time>2015-08-05T23:49:20Z</time></trkpt>
<trkpt lat="30.036121" lon="103.061427">
<time>2015-08-05T23:49:21Z</time></trkpt>
<trkpt lat="30.035421" lon="103.061646">
<time>2015-08-05T23:49:22Z</time></trkpt>
<trkpt lat="30.03469" lon="103.061756">
<time>2015-08-05T23:49:23Z</time></trkpt>
<trkpt lat="30.03445" lon="103.061756">
<time>2015-08-05T23:49:24Z</time></trkpt>
<trkpt lat="30.03398" lon="103.061776">
<time>2015-08-05T23:49:25Z</time></trkpt>
<trkpt lat="30.03322" lon="103.061686">
<time>2015-08-05T23:49:26Z</time></trkpt>
<trkpt lat="30.032321" lon="103.061457">
<time>2015-08-05T23:49:27Z</time></trkpt>
<trkpt lat="30.031531" lon="103.061128">
<time>2015-08-05T23:49:28Z</time></trkpt>
<trkpt lat="30.030882" lon="103.060719">
<time>2015-08-05T23:49:29Z</time></trkpt>
<trkpt lat="30.029963" lon="103.059941">
<time>2015-08-05T23:49:30Z</time></trkpt>
<trkpt lat="30.029384" lon="103.059372">
<time>2015-08-05T23:49:31Z</time></trkpt>
<trkpt lat="30.028705" lon="103.058694">
<time>2015-08-05T23:49:32Z</time></trkpt>
<trkpt lat="30.028176" lon="103.058146">
<time>2015-08-05T23:49:33Z</time></trkpt>
<trkpt lat="30.028066" lon="103.058036">
<time>2015-08-05T23:49:34Z</time></trkpt>
<trkpt lat="30.027996" lon="103.057956">
<time>2015-08-05T23:49:35Z</time></trkpt>
<trkpt lat="30.027937" lon="103.057896">
<time>2015-08-05T23:49:36Z</time></trkpt>
<trkpt lat="30.027717" lon="103.057677">
<time>2015-08-05T23:49:37Z</time></trkpt>
<trkpt lat="30.027407" lon="103.057358">
<time>2015-08-05T23:49:38Z</time></trkpt>
<trkpt lat="30.026898" lon="103.056779">
<time>2015-08-05T23:49:39Z</time></trkpt>
<trkpt lat="30.026719" lon="103.05658">
<time>2015-08-05T23:49:40Z</time></trkpt>
<trkpt lat="30.02621" lon="103.055812">
<time>2015-08-05T23:49:41Z</time></trkpt>
<trkpt lat="30.025752" lon="103.055024">
<time>2015-08-05T23:49:42Z</time></trkpt>
<trkpt lat="30.025493" lon="103.054436">
<time>2015-08-05T23:49:43Z</time></trkpt>
<trkpt lat="30.024876" lon="103.052861">
<time>2015-08-05T23:49:44Z</time></trkpt>
<trkpt lat="30.024686" lon="103.052442">
<time>2015-08-05T23:49:45Z</time></trkpt>
<trkpt lat="30.024437" lon="103.051893">
<time>2015-08-05T23:49:46Z</time></trkpt>
<trkpt lat="30.023839" lon="103.050797">
<time>2015-08-05T23:49:47Z</time></trkpt>
<trkpt lat="30.022115" lon="103.047985">
<time>2015-08-05T23:49:48Z</time></trkpt>
<trkpt lat="30.021438" lon="103.046839">
<time>2015-08-05T23:49:49Z</time></trkpt>
<trkpt lat="30.021328" lon="103.04665">
<time>2015-08-05T23:49:50Z</time></trkpt>
<trkpt lat="30.021308" lon="103.04662">
<time>2015-08-05T23:49:51Z</time></trkpt>
<trkpt lat="30.021149" lon="103.04635">
<time>2015-08-05T23:49:52Z</time></trkpt>
<trkpt lat="30.020949" lon="103.046032">
<time>2015-08-05T23:49:53Z</time></trkpt>
<trkpt lat="30.020281" lon="103.045314">
<time>2015-08-05T23:49:54Z</time></trkpt>
<trkpt lat="30.020251" lon="103.045284">
<time>2015-08-05T23:49:55Z</time></trkpt>
<trkpt lat="30.019562" lon="103.044546">
<time>2015-08-05T23:49:56Z</time></trkpt>
<trkpt lat="30.018924" lon="103.043859">
<time>2015-08-05T23:49:57Z</time></trkpt>
<trkpt lat="30.018156" lon="103.042902">
<time>2015-08-05T23:49:58Z</time></trkpt>
<trkpt lat="30.017009" lon="103.041467">
<time>2015-08-05T23:49:59Z</time></trkpt>
<trkpt lat="30.015663" lon="103.039982">
<time>2015-08-05T23:50:00Z</time></trkpt>
<trkpt lat="30.015134" lon="103.039354">
<time>2015-08-05T23:50:01Z</time></trkpt>
<trkpt lat="30.013519" lon="103.037441">
<time>2015-08-05T23:50:02Z</time></trkpt>
<trkpt lat="30.012382" lon="103.036095">
<time>2015-08-05T23:50:03Z</time></trkpt>
<trkpt lat="30.012332" lon="103.036026">
<time>2015-08-05T23:50:04Z</time></trkpt>
<trkpt lat="30.011764" lon="103.035418">
<time>2015-08-05T23:50:05Z</time></trkpt>
<trkpt lat="30.011005" lon="103.03482">
<time>2015-08-05T23:50:06Z</time></trkpt>
<trkpt lat="30.010357" lon="103.034312">
<time>2015-08-05T23:50:07Z</time></trkpt>
<trkpt lat="30.009718" lon="103.033824">
<time>2015-08-05T23:50:08Z</time></trkpt>
<trkpt lat="30.009418" lon="103.033595">
<time>2015-08-05T23:50:09Z</time></trkpt>
<trkpt lat="30.009119" lon="103.033286">
<time>2015-08-05T23:50:10Z</time></trkpt>
<trkpt lat="30.00876" lon="103.032817">
<time>2015-08-05T23:50:11Z</time></trkpt>
<trkpt lat="30.008272" lon="103.03215">
<time>2015-08-05T23:50:12Z</time></trkpt>
<trkpt lat="30.007634" lon="103.031273">
<time>2015-08-05T23:50:13Z</time></trkpt>
<trkpt lat="30.006349" lon="103.02945">
<time>2015-08-05T23:50:14Z</time></trkpt>
<trkpt lat="30.005442" lon="103.028175">
<time>2015-08-05T23:50:15Z</time></trkpt>
<trkpt lat="30.005224" lon="103.027777">
<time>2015-08-05T23:50:16Z</time></trkpt>
<trkpt lat="30.004746" lon="103.02694">
<time>2015-08-05T23:50:17Z</time></trkpt>
<trkpt lat="30.004178" lon="103.026083">
<time>2015-08-05T23:50:18Z</time></trkpt>
<trkpt lat="30.003271" lon="103.024948">
<time>2015-08-05T23:50:19Z</time></trkpt>
<trkpt lat="30.002524" lon="103.024021">
<time>2015-08-05T23:50:20Z</time></trkpt>
<trkpt lat="30.001497" lon="103.022756">
<time>2015-08-05T23:50:21Z</time></trkpt>
<trkpt lat="30.001208" lon="103.022527">
<time>2015-08-05T23:50:22Z</time></trkpt>
<trkpt lat="30.001088" lon="103.022447">
<time>2015-08-05T23:50:23Z</time></trkpt>
<trkpt lat="30.001078" lon="103.022447">
<time>2015-08-05T23:50:24Z</time></trkpt>
<trkpt lat="30.001058" lon="103.022437">
<time>2015-08-05T23:50:25Z</time></trkpt>
<trkpt lat="30.000779" lon="103.022278">
<time>2015-08-05T23:50:26Z</time></trkpt>
<trkpt lat="30.0" lon="103.021959">
<time>2015-08-05T23:50:27Z</time></trkpt>
<trkpt lat="29.99911" lon="103.021651">
<time>2015-08-05T23:50:28Z</time></trkpt>
<trkpt lat="29.998941" lon="103.021571">
<time>2015-08-05T23:50:29Z</time></trkpt>
<trkpt lat="29.998781" lon="103.021501">
<time>2015-08-05T23:50:30Z</time></trkpt>
<trkpt lat="29.998631" lon="103.021432">
<time>2015-08-05T23:50:31Z</time></trkpt>
<trkpt lat="29.998431" lon="103.021312">
<time>2015-08-05T23:50:32Z</time></trkpt>
<trkpt lat="29.998282" lon="103.021212">
<time>2015-08-05T23:50:33Z</time></trkpt>
<trkpt lat="29.998112" lon="103.021093">
<time>2015-08-05T23:50:34Z</time></trkpt>
<trkpt lat="29.997982" lon="103.020983">
<time>2015-08-05T23:50:35Z</time></trkpt>
<trkpt lat="29.997843" lon="103.020854">
<time>2015-08-05T23:50:36Z</time></trkpt>
<trkpt lat="29.997723" lon="103.020734">
<time>2015-08-05T23:50:37Z</time></trkpt>
<trkpt lat="29.997573" lon="103.020565">
<time>2015-08-05T23:50:38Z</time></trkpt>
<trkpt lat="29.996318" lon="103.019081">
<time>2015-08-05T23:50:39Z</time></trkpt>
<trkpt lat="29.996188" lon="103.018922">
<time>2015-08-05T23:50:40Z</time></trkpt>
<trkpt lat="29.996059" lon="103.018762">
<time>2015-08-05T23:50:41Z</time></trkpt>
<trkpt lat="29.995949" lon="103.018603">
<time>2015-08-05T23:50:42Z</time></trkpt>
<trkpt lat="29.99582" lon="103.018434">
<time>2015-08-05T23:50:43Z</time></trkpt>
<trkpt lat="29.99579" lon="103.018374">
<time>2015-08-05T23:50:44Z</time></trkpt>
<trkpt lat="29.99577" lon="103.018334">
<time>2015-08-05T23:50:45Z</time></trkpt>
<trkpt lat="29.994953" lon="103.017079">
<time>2015-08-05T23:50:46Z</time></trkpt>
<trkpt lat="29.994814" lon="103.01685">
<time>2015-08-05T23:50:47Z</time></trkpt>
<trkpt lat="29.992763" lon="103.013862">
<time>2015-08-05T23:50:48Z</time></trkpt>
<trkpt lat="29.992205" lon="103.013056">
<time>2015-08-05T23:50:49Z</time></trkpt>
<trkpt lat="29.991986" lon="103.012727">
<time>2015-08-05T23:50:50Z</time></trkpt>
<trkpt lat="29.991588" lon="103.012149">
<time>2015-08-05T23:50:51Z</time></trkpt>
<trkpt lat="29.991389" lon="103.011851">
<time>2015-08-05T23:50:52Z</time></trkpt>
<trkpt lat="29.991309" lon="103.011721">
<time>2015-08-05T23:50:53Z</time></trkpt>
<trkpt lat="29.991299" lon="103.011701">
<time>2015-08-05T23:50:54Z</time></trkpt>
<trkpt lat="29.99121" lon="103.011542">
<time>2015-08-05T23:50:55Z</time></trkpt>
<trkpt lat="29.99112" lon="103.011373">
<time>2015-08-05T23:50:56Z</time></trkpt>
<trkpt lat="29.991071" lon="103.011253">
<time>2015-08-05T23:50:57Z</time></trkpt>
<trkpt lat="29.991021" lon="103.011144">
<time>2015-08-05T23:50:58Z</time></trkpt>
<trkpt lat="29.990971" lon="103.011004">
<time>2015-08-05T23:50:59Z</time></trkpt>
<trkpt lat="29.990942" lon="103.010865">
<time>2015-08-05T23:51:00Z</time></trkpt>
<trkpt lat="29.990902" lon="103.010735">
<time>2015-08-05T23:51:01Z</time></trkpt>
<trkpt lat="29.990863" lon="103.010596">
<time>2015-08-05T23:51:02Z</time></trkpt>
<trkpt lat="29.990833" lon="103.010467">
<time>2015-08-05T23:51:03Z</time></trkpt>
<trkpt lat="29.990793" lon="103.010297">
<time>2015-08-05T23:51:04Z</time></trkpt>
<trkpt lat="29.990774" lon="103.010128">
<time>2015-08-05T23:51:05Z</time></trkpt>
<trkpt lat="29.990754" lon="103.009998">
<time>2015-08-05T23:51:06Z</time></trkpt>
<trkpt lat="29.990745" lon="103.009859">
<time>2015-08-05T23:51:07Z</time></trkpt>
<trkpt lat="29.990726" lon="103.00959">
<time>2015-08-05T23:51:08Z</time></trkpt>
<trkpt lat="29.990716" lon="103.009331">
<time>2015-08-05T23:51:09Z</time></trkpt>
<trkpt lat="29.990689" lon="103.008574">
<time>2015-08-05T23:51:10Z</time></trkpt>
<trkpt lat="29.990689" lon="103.008525">
<time>2015-08-05T23:51:11Z</time></trkpt>
<trkpt lat="29.990679" lon="103.008465">
<time>2015-08-05T23:51:12Z</time></trkpt>
<trkpt lat="29.990669" lon="103.008405">
<time>2015-08-05T23:51:13Z</time></trkpt>
<trkpt lat="29.990649" lon="103.008345">
<time>2015-08-05T23:51:14Z</time></trkpt>
<trkpt lat="29.990639" lon="103.008315">
<time>2015-08-05T23:51:15Z</time></trkpt>
<trkpt lat="29.990639" lon="103.008306">
<time>2015-08-05T23:51:16Z</time></trkpt>
<trkpt lat="29.990629" lon="103.008286">
<time>2015-08-05T23:51:17Z</time></trkpt>
<trkpt lat="29.9906" lon="103.008226">
<time>2015-08-05T23:51:18Z</time></trkpt>
<trkpt lat="29.99056" lon="103.008156">
<time>2015-08-05T23:51:19Z</time></trkpt>
<trkpt lat="29.99052" lon="103.008096">
<time>2015-08-05T23:51:20Z</time></trkpt>
<trkpt lat="29.99047" lon="103.008037">
<time>2015-08-05T23:51:21Z</time></trkpt>
<trkpt lat="29.99041" lon="103.007967">
<time>2015-08-05T23:51:22Z</time></trkpt>
<trkpt lat="29.989623" lon="103.00718">
<time>2015-08-05T23:51:23Z</time></trkpt>
<trkpt lat="29.989593" lon="103.00715">
<time>2015-08-05T23:51:24Z</time></trkpt>
<trkpt lat="29.989563" lon="103.00713">
<time>2015-08-05T23:51:25Z</time></trkpt>
<trkpt lat="29.989543" lon="103.007111">
<time>2015-08-05T23:51:26Z</time></trkpt>
<trkpt lat="29.989503" lon="103.007081">
<time>2015-08-05T23:51:27Z</time></trkpt>
<trkpt lat="29.989453" lon="103.007051">
<time>2015-08-05T23:51:28Z</time></trkpt>
<trkpt lat="29.989413" lon="103.007021">
<time>2015-08-05T23:51:29Z</time></trkpt>
<trkpt lat="29.989383" lon="103.007001">
<time>2015-08-05T23:51:30Z</time></trkpt>
<trkpt lat="29.989383" lon="103.007001">
<time>2015-08-05T23:51:31Z</time></trkpt>
<trkpt lat="29.989413" lon="103.006941">
<time>2015-08-05T23:51:32Z</time></trkpt>
<trkpt lat="29.989675" lon="103.006463">
<time>2015-08-05T23:51:33Z</time></trkpt>
<trkpt lat="29.989806" lon="103.006224">
<time>2015-08-05T23:51:34Z</time></trkpt>
<trkpt lat="29.989876" lon="103.006135">
<time>2015-08-05T23:51:35Z</time></trkpt>
<trkpt lat="29.989926" lon="103.006065">
<time>2015-08-05T23:51:36Z</time></trkpt>
<trkpt lat="29.989986" lon="103.006005">
<time>2015-08-05T23:51:37Z</time></trkpt>
<trkpt lat="29.990067" lon="103.005906">
<time>2015-08-05T23:51:38Z</time></trkpt>
<trkpt lat="29.990137" lon="103.005846">
<time>2015-08-05T23:51:39Z</time></trkpt>
<trkpt lat="29.990207" lon="103.005796">
<time>2015-08-05T23:51:40Z</time></trkpt>
<trkpt lat="29.990347" lon="103.005696">
<time>2015-08-05T23:51:41Z</time></trkpt>
<trkpt lat="29.990488" lon="103.005587">
<time>2015-08-05T23:51:42Z</time></trkpt>
<trkpt lat="29.990698" lon="103.005428">
<time>2015-08-05T23:51:43Z</time></trkpt>
<trkpt lat="29.991109" lon="103.005119">
<time>2015-08-05T23:51:44Z</time></trkpt>
<trkpt lat="29.991259" lon="103.004999">
<time>2015-08-05T23:51:45Z</time></trkpt>
<trkpt lat="29.99143" lon="103.00485">
<time>2015-08-05T23:51:46Z</time></trkpt>
<trkpt lat="29.99161" lon="103.004691">
<time>2015-08-05T23:51:47Z</time></trkpt>
<trkpt lat="29.991681" lon="103.004621">
<time>2015-08-05T23:51:48Z</time></trkpt>
<trkpt lat="29.991781" lon="103.004511">
<time>2015-08-05T23:51:49Z</time></trkpt>
<trkpt lat="29.991791" lon="103.004501">
<time>2015-08-05T23:51:50Z</time></trkpt>
<trkpt lat="29.991992" lon="103.004282">
<time>2015-08-05T23:51:51Z</time></trkpt>
<trkpt lat="29.992493" lon="103.003725">
<time>2015-08-05T23:51:52Z</time></trkpt>
<trkpt lat="29.993155" lon="103.002988">
<time>2015-08-05T23:51:53Z</time></trkpt>
<trkpt lat="29.993808" lon="103.002241">
<time>2015-08-05T23:51:54Z</time></trkpt>
<trkpt lat="29.994219" lon="103.001753">
<time>2015-08-05T23:51:55Z</time></trkpt>
<trkpt lat="29.994651" lon="103.001275">
<time>2015-08-05T23:51:56Z</time></trkpt>
<trkpt lat="29.995213" lon="103.000667">
<time>2015-08-05T23:51:57Z</time></trkpt>
<trkpt lat="29.995423" lon="103.000458">
<time>2015-08-05T23:51:58Z</time></trkpt>
<trkpt lat="29.995574" lon="103.000329">
<time>2015-08-05T23:51:59Z</time></trkpt>
<trkpt lat="29.995794" lon="103.00018">
<time>2015-08-05T23:52:00Z</time></trkpt>
<trkpt lat="29.995974" lon="103.00008">
<time>2015-08-05T23:52:01Z</time></trkpt>
<trkpt lat="29.996115" lon="102.99999">
<time>2015-08-05T23:52:02Z</time></trkpt>
<trkpt lat="29.996185" lon="102.99996">
<time>2015-08-05T23:52:03Z</time></trkpt>
<trkpt lat="29.996335" lon="102.999881">
<time>2015-08-05T23:52:04Z</time></trkpt>
<trkpt lat="29.996585" lon="102.999741">
<time>2015-08-05T23:52:05Z</time></trkpt>
<trkpt lat="29.996886" lon="102.999582">
<time>2015-08-05T23:52:06Z</time></trkpt>
<trkpt lat="29.996996" lon="102.999512">
<time>2015-08-05T23:52:07Z</time></trkpt>
<trkpt lat="29.997046" lon="102.999482">
<time>2015-08-05T23:52:08Z</time></trkpt>
<trkpt lat="29.997136" lon="102.999413">
<time>2015-08-05T23:52:09Z</time></trkpt>
<trkpt lat="29.997247" lon="102.999323">
<time>2015-08-05T23:52:10Z</time></trkpt>
<trkpt lat="29.997367" lon="102.999224">
<time>2015-08-05T23:52:11Z</time></trkpt>
<trkpt lat="29.997417" lon="102.999164">
<time>2015-08-05T23:52:12Z</time></trkpt>
<trkpt lat="29.997528" lon="102.999044">
<time>2015-08-05T23:52:13Z</time></trkpt>
<trkpt lat="29.997628" lon="102.998915">
<time>2015-08-05T23:52:14Z</time></trkpt>
<trkpt lat="29.997718" lon="102.998795">
<time>2015-08-05T23:52:15Z</time></trkpt>
<trkpt lat="29.997809" lon="102.998656">
<time>2015-08-05T23:52:16Z</time></trkpt>
<trkpt lat="29.997919" lon="102.998487">
<time>2015-08-05T23:52:17Z</time></trkpt>
<trkpt lat="29.99805" lon="102.998277">
<time>2015-08-05T23:52:18Z</time></trkpt>
<trkpt lat="29.998311" lon="102.997869">
<time>2015-08-05T23:52:19Z</time></trkpt>
<trkpt lat="29.998693" lon="102.997252">
<time>2015-08-05T23:52:20Z</time></trkpt>
<trkpt lat="29.998763" lon="102.997132">
<time>2015-08-05T23:52:21Z</time></trkpt>
<trkpt lat="29.998804" lon="102.997043">
<time>2015-08-05T23:52:22Z</time></trkpt>
<trkpt lat="29.998854" lon="102.996923">
<time>2015-08-05T23:52:23Z</time></trkpt>
<trkpt lat="29.998894" lon="102.996804">
<time>2015-08-05T23:52:24Z</time></trkpt>
<trkpt lat="29.998915" lon="102.996714">
<time>2015-08-05T23:52:25Z</time></trkpt>
<trkpt lat="29.998935" lon="102.996654">
<time>2015-08-05T23:52:26Z</time></trkpt>
<trkpt lat="29.998996" lon="102.996346">
<time>2015-08-05T23:52:27Z</time></trkpt>
<trkpt lat="29.999127" lon="102.995848">
<time>2015-08-05T23:52:28Z</time></trkpt>
<trkpt lat="29.999178" lon="102.995639">
<time>2015-08-05T23:52:29Z</time></trkpt>
<trkpt lat="29.999289" lon="102.995151">
<time>2015-08-05T23:52:30Z</time></trkpt>
<trkpt lat="29.99936" lon="102.994832">
<time>2015-08-05T23:52:31Z</time></trkpt>
<trkpt lat="29.999533" lon="102.994095">
<time>2015-08-05T23:52:32Z</time></trkpt>
<trkpt lat="29.999563" lon="102.993946">
<time>2015-08-05T23:52:33Z</time></trkpt>
<trkpt lat="29.999684" lon="102.993498">
<time>2015-08-05T23:52:34Z</time></trkpt>
<trkpt lat="29.999826" lon="102.99293">
<time>2015-08-05T23:52:35Z</time></trkpt>
<trkpt lat="29.999887" lon="102.992641">
<time>2015-08-05T23:52:36Z</time></trkpt>
<trkpt lat="29.999998" lon="102.992163">
<time>2015-08-05T23:52:37Z</time></trkpt>
<trkpt lat="30.000262" lon="102.990938">
<time>2015-08-05T23:52:38Z</time></trkpt>
<trkpt lat="30.000353" lon="102.99065">
<time>2015-08-05T23:52:39Z</time></trkpt>
<trkpt lat="30.000424" lon="102.990261">
<time>2015-08-05T23:52:40Z</time></trkpt>
<trkpt lat="30.000506" lon="102.989624">
<time>2015-08-05T23:52:41Z</time></trkpt>
<trkpt lat="30.000527" lon="102.989484">
<time>2015-08-05T23:52:42Z</time></trkpt>
<trkpt lat="30.000608" lon="102.988907">
<time>2015-08-05T23:52:43Z</time></trkpt>
<trkpt lat="30.000681" lon="102.98814">
<time>2015-08-05T23:52:44Z</time></trkpt>
<trkpt lat="30.000742" lon="102.987762">
<time>2015-08-05T23:52:45Z</time></trkpt>
<trkpt lat="30.000772" lon="102.987602">
<time>2015-08-05T23:52:46Z</time></trkpt>
<trkpt lat="30.001087" lon="102.985959">
<time>2015-08-05T23:52:47Z</time></trkpt>
<trkpt lat="30.001128" lon="102.98567">
<time>2015-08-05T23:52:48Z</time></trkpt>
<trkpt lat="30.00119" lon="102.985063">
<time>2015-08-05T23:52:49Z</time></trkpt>
<trkpt lat="30.001243" lon="102.984077">
<time>2015-08-05T23:52:50Z</time></trkpt>
<trkpt lat="30.001274" lon="102.983659">
<time>2015-08-05T23:52:51Z</time></trkpt>
<trkpt lat="30.001296" lon="102.982892">
<time>2015-08-05T23:52:52Z</time></trkpt>
<trkpt lat="30.001329" lon="102.982075">
<time>2015-08-05T23:52:53Z</time></trkpt>
<trkpt lat="30.00135" lon="102.981488">
<time>2015-08-05T23:52:54Z</time></trkpt>
<trkpt lat="30.001273" lon="102.980601">
<time>2015-08-05T23:52:55Z</time></trkpt>
<trkpt lat="30.001037" lon="102.979097">
<time>2015-08-05T23:52:56Z</time></trkpt>
<trkpt lat="30.000949" lon="102.97839">
<time>2015-08-05T23:52:57Z</time></trkpt>
<trkpt lat="30.00092" lon="102.978191">
<time>2015-08-05T23:52:58Z</time></trkpt>
<trkpt lat="30.000921" lon="102.977783">
<time>2015-08-05T23:52:59Z</time></trkpt>
<trkpt lat="30.000911" lon="102.977723">
<time>2015-08-05T23:53:00Z</time></trkpt>
<trkpt lat="30.000902" lon="102.977653">
<time>2015-08-05T23:53:01Z</time></trkpt>
<trkpt lat="30.000952" lon="102.977494">
<time>2015-08-05T23:53:02Z</time></trkpt>
<trkpt lat="30.001134" lon="102.976916">
<time>2015-08-05T23:53:03Z</time></trkpt>
<trkpt lat="30.001315" lon="102.976438">
<time>2015-08-05T23:53:04Z</time></trkpt>
<trkpt lat="30.001496" lon="102.976059">
<time>2015-08-05T23:53:05Z</time></trkpt>
<trkpt lat="30.001708" lon="102.975452">
<time>2015-08-05T23:53:06Z</time></trkpt>
<trkpt lat="30.001819" lon="102.975083">
<time>2015-08-05T23:53:07Z</time></trkpt>
<trkpt lat="30.00189" lon="102.974775">
<time>2015-08-05T23:53:08Z</time></trkpt>
<trkpt lat="30.00191" lon="102.974655">
<time>2015-08-05T23:53:09Z</time></trkpt>
<trkpt lat="30.00194" lon="102.974526">
<time>2015-08-05T23:53:10Z</time></trkpt>
<trkpt lat="30.001951" lon="102.974476">
<time>2015-08-05T23:53:11Z</time></trkpt>
<trkpt lat="30.001961" lon="102.974436">
<time>2015-08-05T23:53:12Z</time></trkpt>
<trkpt lat="30.002042" lon="102.973998">
<time>2015-08-05T23:53:13Z</time></trkpt>
<trkpt lat="30.002123" lon="102.97347">
<time>2015-08-05T23:53:14Z</time></trkpt>
<trkpt lat="30.002195" lon="102.972852">
<time>2015-08-05T23:53:15Z</time></trkpt>
<trkpt lat="30.002205" lon="102.972743">
<time>2015-08-05T23:53:16Z</time></trkpt>
<trkpt lat="30.002256" lon="102.972354">
<time>2015-08-05T23:53:17Z</time></trkpt>
<trkpt lat="30.002359" lon="102.971567">
<time>2015-08-05T23:53:18Z</time></trkpt>
<trkpt lat="30.002481" lon="102.970571">
<time>2015-08-05T23:53:19Z</time></trkpt>
<trkpt lat="30.002655" lon="102.969206">
<time>2015-08-05T23:53:20Z</time></trkpt>
<trkpt lat="30.002686" lon="102.968917">
<time>2015-08-05T23:53:21Z</time></trkpt>
<trkpt lat="30.002706" lon="102.968728">
<time>2015-08-05T23:53:22Z</time></trkpt>
<trkpt lat="30.002738" lon="102.96825">
<time>2015-08-05T23:53:23Z</time></trkpt>
<trkpt lat="30.002749" lon="102.967722">
<time>2015-08-05T23:53:24Z</time></trkpt>
<trkpt lat="30.00272" lon="102.967433">
<time>2015-08-05T23:53:25Z</time></trkpt>
<trkpt lat="30.002641" lon="102.967044">
<time>2015-08-05T23:53:26Z</time></trkpt>
<trkpt lat="30.002522" lon="102.966676">
<time>2015-08-05T23:53:27Z</time></trkpt>
<trkpt lat="30.002383" lon="102.966367">
<time>2015-08-05T23:53:28Z</time></trkpt>
<trkpt lat="30.002303" lon="102.966208">
<time>2015-08-05T23:53:29Z</time></trkpt>
<trkpt lat="30.002194" lon="102.965998">
<time>2015-08-05T23:53:30Z</time></trkpt>
<trkpt lat="30.001875" lon="102.96551">
<time>2015-08-05T23:53:31Z</time></trkpt>
<trkpt lat="30.000889" lon="102.963986">
<time>2015-08-05T23:53:32Z</time></trkpt>
<trkpt lat="30.000002" lon="102.962611">
<time>2015-08-05T23:53:33Z</time></trkpt>
<trkpt lat="29.999295" lon="102.961535">
<time>2015-08-05T23:53:34Z</time></trkpt>
<trkpt lat="29.999036" lon="102.961146">
<time>2015-08-05T23:53:35Z</time></trkpt>
<trkpt lat="29.998837" lon="102.960827">
<time>2015-08-05T23:53:36Z</time></trkpt>
<trkpt lat="29.998408" lon="102.96015">
<time>2015-08-05T23:53:37Z</time></trkpt>
<trkpt lat="29.998" lon="102.959522">
<time>2015-08-05T23:53:38Z</time></trkpt>
<trkpt lat="29.997711" lon="102.959113">
<time>2015-08-05T23:53:39Z</time></trkpt>
<trkpt lat="29.997661" lon="102.959054">
<time>2015-08-05T23:53:40Z</time></trkpt>
<trkpt lat="29.997482" lon="102.958824">
<time>2015-08-05T23:53:41Z</time></trkpt>
<trkpt lat="29.997412" lon="102.958735">
<time>2015-08-05T23:53:42Z</time></trkpt>
<trkpt lat="29.997292" lon="102.958625">
<time>2015-08-05T23:53:43Z</time></trkpt>
<trkpt lat="29.997143" lon="102.958476">
<time>2015-08-05T23:53:44Z</time></trkpt>
<trkpt lat="29.997023" lon="102.958366">
<time>2015-08-05T23:53:45Z</time></trkpt>
<trkpt lat="29.996903" lon="102.958286">
<time>2015-08-05T23:53:46Z</time></trkpt>
<trkpt lat="29.996743" lon="102.958177">
<time>2015-08-05T23:53:47Z</time></trkpt>
<trkpt lat="29.996594" lon="102.958067">
<time>2015-08-05T23:53:48Z</time></trkpt>
<trkpt lat="29.996434" lon="102.957977">
<time>2015-08-05T23:53:49Z</time></trkpt>
<trkpt lat="29.996104" lon="102.957798">
<time>2015-08-05T23:53:50Z</time></trkpt>
<trkpt lat="29.994276" lon="102.956831">
<time>2015-08-05T23:53:51Z</time></trkpt>
<trkpt lat="29.993927" lon="102.956642">
<time>2015-08-05T23:53:52Z</time></trkpt>
<trkpt lat="29.992529" lon="102.955885">
<time>2015-08-05T23:53:53Z</time></trkpt>
<trkpt lat="29.992519" lon="102.955875">
<time>2015-08-05T23:53:54Z</time></trkpt>
<trkpt lat="29.99139" lon="102.955227">
<time>2015-08-05T23:53:55Z</time></trkpt>
<trkpt lat="29.991131" lon="102.955097">
<time>2015-08-05T23:53:56Z</time></trkpt>
<trkpt lat="29.989962" lon="102.954519">
<time>2015-08-05T23:53:57Z</time></trkpt>
<trkpt lat="29.989283" lon="102.954161">
<time>2015-08-05T23:53:58Z</time></trkpt>
<trkpt lat="29.989183" lon="102.954111">
<time>2015-08-05T23:53:59Z</time></trkpt>
<trkpt lat="29.989073" lon="102.954031">
<time>2015-08-05T23:54:00Z</time></trkpt>
<trkpt lat="29.988983" lon="102.953961">
<time>2015-08-05T23:54:01Z</time></trkpt>
<trkpt lat="29.988933" lon="102.953911">
<time>2015-08-05T23:54:02Z</time></trkpt>
<trkpt lat="29.988903" lon="102.953881">
<time>2015-08-05T23:54:03Z</time></trkpt>
<trkpt lat="29.988843" lon="102.953832">
<time>2015-08-05T23:54:04Z</time></trkpt>
<trkpt lat="29.988794" lon="102.953772">
<time>2015-08-05T23:54:05Z</time></trkpt>
<trkpt lat="29.988724" lon="102.953682">
<time>2015-08-05T23:54:06Z</time></trkpt>
<trkpt lat="29.988664" lon="102.953573">
<time>2015-08-05T23:54:07Z</time></trkpt>
<trkpt lat="29.988584" lon="102.953423">
<time>2015-08-05T23:54:08Z</time></trkpt>
<trkpt lat="29.988505" lon="102.953234">
<time>2015-08-05T23:54:09Z</time></trkpt>
<trkpt lat="29.988455" lon="102.953084">
<time>2015-08-05T23:54:10Z</time></trkpt>
<trkpt lat="29.987908" lon="102.951549">
<time>2015-08-05T23:54:11Z</time></trkpt>
<trkpt lat="29.987779" lon="102.95121">
<time>2015-08-05T23:54:12Z</time></trkpt>
<trkpt lat="29.9877" lon="102.950951">
<time>2015-08-05T23:54:13Z</time></trkpt>
<trkpt lat="29.986905" lon="102.948648">
<time>2015-08-05T23:54:14Z</time></trkpt>
<trkpt lat="29.986825" lon="102.948449">
<time>2015-08-05T23:54:15Z</time></trkpt>
<trkpt lat="29.986308" lon="102.946963">
<time>2015-08-05T23:54:16Z</time></trkpt>
<trkpt lat="29.986209" lon="102.946674">
<time>2015-08-05T23:54:17Z</time></trkpt>
<trkpt lat="29.986099" lon="102.946375">
<time>2015-08-05T23:54:18Z</time></trkpt>
<trkpt lat="29.985055" lon="102.943374">
<time>2015-08-05T23:54:19Z</time></trkpt>
<trkpt lat="29.984936" lon="102.943045">
<time>2015-08-05T23:54:20Z</time></trkpt>
<trkpt lat="29.984757" lon="102.942576">
<time>2015-08-05T23:54:21Z</time></trkpt>
<trkpt lat="29.984727" lon="102.942437">
<time>2015-08-05T23:54:22Z</time></trkpt>
<trkpt lat="29.984707" lon="102.942327">
<time>2015-08-05T23:54:23Z</time></trkpt>
<trkpt lat="29.984697" lon="102.942227">
<time>2015-08-05T23:54:24Z</time></trkpt>
<trkpt lat="29.984707" lon="102.942088">
<time>2015-08-05T23:54:25Z</time></trkpt>
<trkpt lat="29.984728" lon="102.941948">
<time>2015-08-05T23:54:26Z</time></trkpt>
<trkpt lat="29.984748" lon="102.941858">
<time>2015-08-05T23:54:27Z</time></trkpt>
<trkpt lat="29.984788" lon="102.941719">
<time>2015-08-05T23:54:28Z</time></trkpt>
<trkpt lat="29.984979" lon="102.941469">
<time>2015-08-05T23:54:29Z</time></trkpt>
<trkpt lat="29.985249" lon="102.94116">
<time>2015-08-05T23:54:30Z</time></trkpt>
<trkpt lat="29.98578" lon="102.940562">
<time>2015-08-05T23:54:31Z</time></trkpt>
<trkpt lat="29.986261" lon="102.940053">
<time>2015-08-05T23:54:32Z</time></trkpt>
<trkpt lat="29.987393" lon="102.938797">
<time>2015-08-05T23:54:33Z</time></trkpt>
<trkpt lat="29.987544" lon="102.938657">
<time>2015-08-05T23:54:34Z</time></trkpt>
<trkpt lat="29.987644" lon="102.938577">
<time>2015-08-05T23:54:35Z</time></trkpt>
<trkpt lat="29.987774" lon="102.938497">
<time>2015-08-05T23:54:36Z</time></trkpt>
<trkpt lat="29.987874" lon="102.938458">
<time>2015-08-05T23:54:37Z</time></trkpt>
<trkpt lat="29.987974" lon="102.938418">
<time>2015-08-05T23:54:38Z</time></trkpt>
<trkpt lat="29.988094" lon="102.938378">
<time>2015-08-05T23:54:39Z</time></trkpt>
<trkpt lat="29.988224" lon="102.938348">
<time>2015-08-05T23:54:40Z</time></trkpt>
<trkpt lat="29.988334" lon="102.938328">
<time>2015-08-05T23:54:41Z</time></trkpt>
<trkpt lat="29.988674" lon="102.938268">
<time>2015-08-05T23:54:42Z</time></trkpt>
<trkpt lat="29.989044" lon="102.938218">
<time>2015-08-05T23:54:43Z</time></trkpt>
<trkpt lat="29.989434" lon="102.938168">
<time>2015-08-05T23:54:44Z</time></trkpt>
<trkpt lat="29.990024" lon="102.938098">
<time>2015-08-05T23:54:45Z</time></trkpt>
<trkpt lat="29.990325" lon="102.938058">
<time>2015-08-05T23:54:46Z</time></trkpt>
<trkpt lat="29.990545" lon="102.938029">
<time>2015-08-05T23:54:47Z</time></trkpt>
<trkpt lat="29.990875" lon="102.937969">
<time>2015-08-05T23:54:48Z</time></trkpt>
<trkpt lat="29.990995" lon="102.937939">
<time>2015-08-05T23:54:49Z</time></trkpt>
<trkpt lat="29.991015" lon="102.937929">
<time>2015-08-05T23:54:50Z</time></trkpt>
<trkpt lat="29.991085" lon="102.937919">
<time>2015-08-05T23:54:51Z</time></trkpt>
<trkpt lat="29.991185" lon="102.937879">
<time>2015-08-05T23:54:52Z</time></trkpt>
<trkpt lat="29.991255" lon="102.937849">
<time>2015-08-05T23:54:53Z</time></trkpt>
<trkpt lat="29.991335" lon="102.937819">
<time>2015-08-05T23:54:54Z</time></trkpt>
<trkpt lat="29.991465" lon="102.937719">
<time>2015-08-05T23:54:55Z</time></trkpt>
<trkpt lat="29.991505" lon="102.937679">
<time>2015-08-05T23:54:56Z</time></trkpt>
<trkpt lat="29.991555" lon="102.93764">
<time>2015-08-05T23:54:57Z</time></trkpt>
<trkpt lat="29.991645" lon="102.93754">
<time>2015-08-05T23:54:58Z</time></trkpt>
<trkpt lat="29.991776" lon="102.93738">
<time>2015-08-05T23:54:59Z</time></trkpt>
<trkpt lat="29.992447" lon="102.936602">
<time>2015-08-05T23:55:00Z</time></trkpt>
<trkpt lat="29.992507" lon="102.936522">
<time>2015-08-05T23:55:01Z</time></trkpt>
<trkpt lat="29.992537" lon="102.936473">
<time>2015-08-05T23:55:02Z</time></trkpt>
<trkpt lat="29.992587" lon="102.936393">
<time>2015-08-05T23:55:03Z</time></trkpt>
<trkpt lat="29.992647" lon="102.936263">
<time>2015-08-05T23:55:04Z</time></trkpt>
<trkpt lat="29.992688" lon="102.936163">
<time>2015-08-05T23:55:05Z</time></trkpt>
<trkpt lat="29.992718" lon="102.936064">
<time>2015-08-05T23:55:06Z</time></trkpt>
<trkpt lat="29.992748" lon="102.935964">
<time>2015-08-05T23:55:07Z</time></trkpt>
<trkpt lat="29.992828" lon="102.935655">
<time>2015-08-05T23:55:08Z</time></trkpt>
<trkpt lat="29.992869" lon="102.935545">
<time>2015-08-05T23:55:09Z</time></trkpt>
<trkpt lat="29.992909" lon="102.935475">
<time>2015-08-05T23:55:10Z</time></trkpt>
<trkpt lat="29.992939" lon="102.935425">
<time>2015-08-05T23:55:11Z</time></trkpt>
<trkpt lat="29.992989" lon="102.935355">
<time>2015-08-05T23:55:12Z</time></trkpt>
<trkpt lat="29.993019" lon="102.935325">
<time>2015-08-05T23:55:13Z</time></trkpt>
<trkpt lat="29.993069" lon="102.935285">
<time>2015-08-05T23:55:14Z</time></trkpt>
<trkpt lat="29.993099" lon="102.935256">
<time>2015-08-05T23:55:15Z</time></trkpt>
<trkpt lat="29.993159" lon="102.935226">
<time>2015-08-05T23:55:16Z</time></trkpt>
<trkpt lat="29.993229" lon="102.935186">
<time>2015-08-05T23:55:17Z</time></trkpt>
<trkpt lat="29.993309" lon="102.935156">
<time>2015-08-05T23:55:18Z</time></trkpt>
<trkpt lat="29.993379" lon="102.935136">
<time>2015-08-05T23:55:19Z</time></trkpt>
<trkpt lat="29.993539" lon="102.935086">
<time>2015-08-05T23:55:20Z</time></trkpt>
<trkpt lat="29.993669" lon="102.935056">
<time>2015-08-05T23:55:21Z</time></trkpt>
<trkpt lat="29.993779" lon="102.935016">
<time>2015-08-05T23:55:22Z</time></trkpt>
<trkpt lat="29.99387" lon="102.934986">
<time>2015-08-05T23:55:23Z</time></trkpt>
<trkpt lat="29.99395" lon="102.934946">
<time>2015-08-05T23:55:24Z</time></trkpt>
<trkpt lat="29.99399" lon="102.934916">
<time>2015-08-05T23:55:25Z</time></trkpt>
<trkpt lat="29.99406" lon="102.934876">
<time>2015-08-05T23:55:26Z</time></trkpt>
<trkpt lat="29.99415" lon="102.934807">
<time>2015-08-05T23:55:27Z</time></trkpt>
<trkpt lat="29.99425" lon="102.934727">
<time>2015-08-05T23:55:28Z</time></trkpt>
<trkpt lat="29.99445" lon="102.934547">
<time>2015-08-05T23:55:29Z</time></trkpt>
<trkpt lat="29.99463" lon="102.934378">
<time>2015-08-05T23:55:30Z</time></trkpt>
<trkpt lat="29.995161" lon="102.933879">
<time>2015-08-05T23:55:31Z</time></trkpt>
<trkpt lat="29.995532" lon="102.93355">
<time>2015-08-05T23:55:32Z</time></trkpt>
<trkpt lat="29.995612" lon="102.93347">
<time>2015-08-05T23:55:33Z</time></trkpt>
<trkpt lat="29.995672" lon="102.93342">
<time>2015-08-05T23:55:34Z</time></trkpt>
<trkpt lat="29.995792" lon="102.93333">
<time>2015-08-05T23:55:35Z</time></trkpt>
<trkpt lat="29.995932" lon="102.93324">
<time>2015-08-05T23:55:36Z</time></trkpt>
<trkpt lat="29.996022" lon="102.933181">
<time>2015-08-05T23:55:37Z</time></trkpt>
<trkpt lat="29.996383" lon="102.932981">
<time>2015-08-05T23:55:38Z</time></trkpt>
<trkpt lat="29.996823" lon="102.932751">
<time>2015-08-05T23:55:39Z</time></trkpt>
<trkpt lat="29.997283" lon="102.932502">
<time>2015-08-05T23:55:40Z</time></trkpt>
<trkpt lat="29.998304" lon="102.931973">
<time>2015-08-05T23:55:41Z</time></trkpt>
<trkpt lat="29.998684" lon="102.931794">
<time>2015-08-05T23:55:42Z</time></trkpt>
<trkpt lat="29.998824" lon="102.931724">
<time>2015-08-05T23:55:43Z</time></trkpt>
<trkpt lat="29.998934" lon="102.931664">
<time>2015-08-05T23:55:44Z</time></trkpt>
<trkpt lat="29.999014" lon="102.931614">
<time>2015-08-05T23:55:45Z</time></trkpt>
<trkpt lat="29.999085" lon="102.931564">
<time>2015-08-05T23:55:46Z</time></trkpt>
<trkpt lat="29.999135" lon="102.931524">
<time>2015-08-05T23:55:47Z</time></trkpt>
<trkpt lat="29.999185" lon="102.931484">
<time>2015-08-05T23:55:48Z</time></trkpt>
<trkpt lat="29.999225" lon="102.931454">
<time>2015-08-05T23:55:49Z</time></trkpt>
<trkpt lat="29.999275" lon="102.931415">
<time>2015-08-05T23:55:50Z</time></trkpt>
<trkpt lat="29.999415" lon="102.931285">
<time>2015-08-05T23:55:51Z</time></trkpt>
<trkpt lat="30.000006" lon="102.930706">
<time>2015-08-05T23:55:52Z</time></trkpt>
<trkpt lat="30.000356" lon="102.930357">
<time>2015-08-05T23:55:53Z</time></trkpt>
<trkpt lat="30.000607" lon="102.930107">
<time>2015-08-05T23:55:54Z</time></trkpt>
<trkpt lat="30.000797" lon="102.929928">
<time>2015-08-05T23:55:55Z</time></trkpt>
<trkpt lat="30.000977" lon="102.929788">
<time>2015-08-05T23:55:56Z</time></trkpt>
<trkpt lat="30.001097" lon="102.929688">
<time>2015-08-05T23:55:57Z</time></trkpt>
<trkpt lat="30.001357" lon="102.929479">
<time>2015-08-05T23:55:58Z</time></trkpt>
<trkpt lat="30.001548" lon="102.929289">
<time>2015-08-05T23:55:59Z</time></trkpt>
<trkpt lat="30.001738" lon="102.92909">
<time>2015-08-05T23:56:00Z</time></trkpt>
<trkpt lat="30.001928" lon="102.92888">
<time>2015-08-05T23:56:01Z</time></trkpt>
<trkpt lat="30.002108" lon="102.928671">
<time>2015-08-05T23:56:02Z</time></trkpt>
<trkpt lat="30.002319" lon="102.928421">
<time>2015-08-05T23:56:03Z</time></trkpt>
<trkpt lat="30.002469" lon="102.928251">
<time>2015-08-05T23:56:04Z</time></trkpt>
<trkpt lat="30.002689" lon="102.928022">
<time>2015-08-05T23:56:05Z</time></trkpt>
<trkpt lat="30.00294" lon="102.927782">
<time>2015-08-05T23:56:06Z</time></trkpt>
<trkpt lat="30.0032" lon="102.927553">
<time>2015-08-05T23:56:07Z</time></trkpt>
<trkpt lat="30.00344" lon="102.927353">
<time>2015-08-05T23:56:08Z</time></trkpt>
<trkpt lat="30.00374" lon="102.927104">
<time>2015-08-05T23:56:09Z</time></trkpt>
<trkpt lat="30.003951" lon="102.926914">
<time>2015-08-05T23:56:10Z</time></trkpt>
<trkpt lat="30.004141" lon="102.926705">
<time>2015-08-05T23:56:11Z</time></trkpt>
<trkpt lat="30.004241" lon="102.926545">
<time>2015-08-05T23:56:12Z</time></trkpt>
<trkpt lat="30.004341" lon="102.926385">
<time>2015-08-05T23:56:13Z</time></trkpt>
<trkpt lat="30.004441" lon="102.926186">
<time>2015-08-05T23:56:14Z</time></trkpt>
<trkpt lat="30.004592" lon="102.925936">
<time>2015-08-05T23:56:15Z</time></trkpt>
<trkpt lat="30.004692" lon="102.925806">
<time>2015-08-05T23:56:16Z</time></trkpt>
<trkpt lat="30.004832" lon="102.925677">
<time>2015-08-05T23:56:17Z</time></trkpt>
<trkpt lat="30.004962" lon="102.925567">
<time>2015-08-05T23:56:18Z</time></trkpt>
<trkpt lat="30.005282" lon="102.925367">
<time>2015-08-05T23:56:19Z</time></trkpt>
<trkpt lat="30.005523" lon="102.925218">
<time>2015-08-05T23:56:20Z</time></trkpt>
<trkpt lat="30.005803" lon="102.925038">
<time>2015-08-05T23:56:21Z</time></trkpt>
<trkpt lat="30.006033" lon="102.924888">
<time>2015-08-05T23:56:22Z</time></trkpt>
<trkpt lat="30.006223" lon="102.924768">
<time>2015-08-05T23:56:23Z</time></trkpt>
<trkpt lat="30.006433" lon="102.924629">
<time>2015-08-05T23:56:24Z</time></trkpt>
<trkpt lat="30.006613" lon="102.924499">
<time>2015-08-05T23:56:25Z</time></trkpt>
<trkpt lat="30.006794" lon="102.924349">
<time>2015-08-05T23:56:26Z</time></trkpt>
<trkpt lat="30.006954" lon="102.924209">
<time>2015-08-05T23:56:27Z</time></trkpt>
<trkpt lat="30.007094" lon="102.92407">
<time>2015-08-05T23:56:28Z</time></trkpt>
<trkpt lat="30.007274" lon="102.92391">
<time>2015-08-05T23:56:29Z</time></trkpt>
<trkpt lat="30.007464" lon="102.92377">
<time>2015-08-05T23:56:30Z</time></trkpt>
<trkpt lat="30.007614" lon="102.923651">
<time>2015-08-05T23:56:31Z</time></trkpt>
<trkpt lat="30.007814" lon="102.923521">
<time>2015-08-05T23:56:32Z</time></trkpt>
<trkpt lat="30.008025" lon="102.923391">
<time>2015-08-05T23:56:33Z</time></trkpt>
<trkpt lat="30.008235" lon="102.923251">
<time>2015-08-05T23:56:34Z</time></trkpt>
<trkpt lat="30.008425" lon="102.923131">
<time>2015-08-05T23:56:35Z</time></trkpt>
<trkpt lat="30.008865" lon="102.922772">
<time>2015-08-05T23:56:36Z</time></trkpt>
<trkpt lat="30.009266" lon="102.922423">
<time>2015-08-05T23:56:37Z</time></trkpt>
<trkpt lat="30.009676" lon="102.922023">
<time>2015-08-05T23:56:38Z</time></trkpt>
<trkpt lat="30.010006" lon="102.921684">
<time>2015-08-05T23:56:39Z</time></trkpt>
<trkpt lat="30.010227" lon="102.921444">
<time>2015-08-05T23:56:40Z</time></trkpt>
<trkpt lat="30.010527" lon="102.921125">
<time>2015-08-05T23:56:41Z</time></trkpt>
<trkpt lat="30.010777" lon="102.920895">
<time>2015-08-05T23:56:42Z</time></trkpt>
<trkpt lat="30.010987" lon="102.920706">
<time>2015-08-05T23:56:43Z</time></trkpt>
<trkpt lat="30.011357" lon="102.920436">
<time>2015-08-05T23:56:44Z</time></trkpt>
<trkpt lat="30.011628" lon="102.920227">
<time>2015-08-05T23:56:45Z</time></trkpt>
<trkpt lat="30.012088" lon="102.919887">
<time>2015-08-05T23:56:46Z</time></trkpt>
<trkpt lat="30.012488" lon="102.919548">
<time>2015-08-05T23:56:47Z</time></trkpt>
<trkpt lat="30.012748" lon="102.919318">
<time>2015-08-05T23:56:48Z</time></trkpt>
<trkpt lat="30.012909" lon="102.919118">
<time>2015-08-05T23:56:49Z</time></trkpt>
<trkpt lat="30.013129" lon="102.918849">
<time>2015-08-05T23:56:50Z</time></trkpt>
<trkpt lat="30.013329" lon="102.918589">
<time>2015-08-05T23:56:51Z</time></trkpt>
<trkpt lat="30.013469" lon="102.91839">
<time>2015-08-05T23:56:52Z</time></trkpt>
<trkpt lat="30.013599" lon="102.91814">
<time>2015-08-05T23:56:53Z</time></trkpt>
<trkpt lat="30.01403" lon="102.917311">
<time>2015-08-05T23:56:54Z</time></trkpt>
<trkpt lat="30.014341" lon="102.916792">
<time>2015-08-05T23:56:55Z</time></trkpt>
<trkpt lat="30.014531" lon="102.916403">
<time>2015-08-05T23:56:56Z</time></trkpt>
<trkpt lat="30.014751" lon="102.915893">
<time>2015-08-05T23:56:57Z</time></trkpt>
<trkpt lat="30.014921" lon="102.915534">
<time>2015-08-05T23:56:58Z</time></trkpt>
<trkpt lat="30.015052" lon="102.915314">
<time>2015-08-05T23:56:59Z</time></trkpt>
<trkpt lat="30.015222" lon="102.915055">
<time>2015-08-05T23:57:00Z</time></trkpt>
<trkpt lat="30.015452" lon="102.914715">
<time>2015-08-05T23:57:01Z</time></trkpt>
<trkpt lat="30.015622" lon="102.914545">
<time>2015-08-05T23:57:02Z</time></trkpt>
<trkpt lat="30.015812" lon="102.914396">
<time>2015-08-05T23:57:03Z</time></trkpt>
<trkpt lat="30.015952" lon="102.914296">
<time>2015-08-05T23:57:04Z</time></trkpt>
<trkpt lat="30.016052" lon="102.914216">
<time>2015-08-05T23:57:05Z</time></trkpt>
<trkpt lat="30.016122" lon="102.914126">
<time>2015-08-05T23:57:06Z</time></trkpt>
<trkpt lat="30.016192" lon="102.914026">
<time>2015-08-05T23:57:07Z</time></trkpt>
<trkpt lat="30.016263" lon="102.913856">
<time>2015-08-05T23:57:08Z</time></trkpt>
<trkpt lat="30.016303" lon="102.913647">
<time>2015-08-05T23:57:09Z</time></trkpt>
<trkpt lat="30.016373" lon="102.913277">
<time>2015-08-05T23:57:10Z</time></trkpt>
<trkpt lat="30.016453" lon="102.912958">
<time>2015-08-05T23:57:11Z</time></trkpt>
<trkpt lat="30.016533" lon="102.912718">
<time>2015-08-05T23:57:12Z</time></trkpt>
<trkpt lat="30.016643" lon="102.912438">
<time>2015-08-05T23:57:13Z</time></trkpt>
<trkpt lat="30.016954" lon="102.911739">
<time>2015-08-05T23:57:14Z</time></trkpt>
<trkpt lat="30.017084" lon="102.91136">
<time>2015-08-05T23:57:15Z</time></trkpt>
<trkpt lat="30.017244" lon="102.91083">
<time>2015-08-05T23:57:16Z</time></trkpt>
<trkpt lat="30.017424" lon="102.910161">
<time>2015-08-05T23:57:17Z</time></trkpt>
<trkpt lat="30.017585" lon="102.909622">
<time>2015-08-05T23:57:18Z</time></trkpt>
<trkpt lat="30.017665" lon="102.909472">
<time>2015-08-05T23:57:19Z</time></trkpt>
<trkpt lat="30.017745" lon="102.909352">
<time>2015-08-05T23:57:20Z</time></trkpt>
<trkpt lat="30.017845" lon="102.909242">
<time>2015-08-05T23:57:21Z</time></trkpt>
<trkpt lat="30.018045" lon="102.909042">
<time>2015-08-05T23:57:22Z</time></trkpt>
<trkpt lat="30.018165" lon="102.908882">
<time>2015-08-05T23:57:23Z</time></trkpt>
<trkpt lat="30.018225" lon="102.908763">
<time>2015-08-05T23:57:24Z</time></trkpt>
<trkpt lat="30.018295" lon="102.908623">
<time>2015-08-05T23:57:25Z</time></trkpt>
<trkpt lat="30.018475" lon="102.908233">
<time>2015-08-05T23:57:26Z</time></trkpt>
<trkpt lat="30.018665" lon="102.907854">
<time>2015-08-05T23:57:27Z</time></trkpt>
<trkpt lat="30.018785" lon="102.907634">
<time>2015-08-05T23:57:28Z</time></trkpt>
<trkpt lat="30.018946" lon="102.907394">
<time>2015-08-05T23:57:29Z</time></trkpt>
<trkpt lat="30.019156" lon="102.907104">
<time>2015-08-05T23:57:30Z</time></trkpt>
<trkpt lat="30.019236" lon="102.906965">
<time>2015-08-05T23:57:31Z</time></trkpt>
<trkpt lat="30.019346" lon="102.906745">
<time>2015-08-05T23:57:32Z</time></trkpt>
<trkpt lat="30.019456" lon="102.906535">
<time>2015-08-05T23:57:33Z</time></trkpt>
<trkpt lat="30.019646" lon="102.906255">
<time>2015-08-05T23:57:34Z</time></trkpt>
<trkpt lat="30.019936" lon="102.905876">
<time>2015-08-05T23:57:35Z</time></trkpt>
<trkpt lat="30.020086" lon="102.905706">
<time>2015-08-05T23:57:36Z</time></trkpt>
<trkpt lat="30.020306" lon="102.905436">
<time>2015-08-05T23:57:37Z</time></trkpt>
<trkpt lat="30.020496" lon="102.905176">
<time>2015-08-05T23:57:38Z</time></trkpt>
<trkpt lat="30.020716" lon="102.904926">
<time>2015-08-05T23:57:39Z</time></trkpt>
<trkpt lat="30.020846" lon="102.904747">
<time>2015-08-05T23:57:40Z</time></trkpt>
<trkpt lat="30.021046" lon="102.904487">
<time>2015-08-05T23:57:41Z</time></trkpt>
<trkpt lat="30.021206" lon="102.904287">
<time>2015-08-05T23:57:42Z</time></trkpt>
<trkpt lat="30.021396" lon="102.904097">
<time>2015-08-05T23:57:43Z</time></trkpt>
<trkpt lat="30.021556" lon="102.903947">
<time>2015-08-05T23:57:44Z</time></trkpt>
<trkpt lat="30.021766" lon="102.903767">
<time>2015-08-05T23:57:45Z</time></trkpt>
<trkpt lat="30.021996" lon="102.903598">
<time>2015-08-05T23:57:46Z</time></trkpt>
<trkpt lat="30.022136" lon="102.903448">
<time>2015-08-05T23:57:47Z</time></trkpt>
<trkpt lat="30.022256" lon="102.903288">
<time>2015-08-05T23:57:48Z</time></trkpt>
<trkpt lat="30.022337" lon="102.903118">
<time>2015-08-05T23:57:49Z</time></trkpt>
<trkpt lat="30.022417" lon="102.902848">
<time>2015-08-05T23:57:50Z</time></trkpt>
<trkpt lat="30.022517" lon="102.902528">
<time>2015-08-05T23:57:51Z</time></trkpt>
<trkpt lat="30.022627" lon="102.902279">
<time>2015-08-05T23:57:52Z</time></trkpt>
<trkpt lat="30.022817" lon="102.901989">
<time>2015-08-05T23:57:53Z</time></trkpt>
<trkpt lat="30.023557" lon="102.90097">
<time>2015-08-05T23:57:54Z</time></trkpt>
<trkpt lat="30.023747" lon="102.9007">
<time>2015-08-05T23:57:55Z</time></trkpt>
<trkpt lat="30.023937" lon="102.90044">
<time>2015-08-05T23:57:56Z</time></trkpt>
<trkpt lat="30.024117" lon="102.90019">
<time>2015-08-05T23:57:57Z</time></trkpt>
<trkpt lat="30.024317" lon="102.89996">
<time>2015-08-05T23:57:58Z</time></trkpt>
<trkpt lat="30.024567" lon="102.89972">
<time>2015-08-05T23:57:59Z</time></trkpt>
<trkpt lat="30.024597" lon="102.89968">
<time>2015-08-05T23:58:00Z</time></trkpt>
<trkpt lat="30.024797" lon="102.899471">
<time>2015-08-05T23:58:01Z</time></trkpt>
<trkpt lat="30.024917" lon="102.899291">
<time>2015-08-05T23:58:02Z</time></trkpt>
<trkpt lat="30.024987" lon="102.899171">
<time>2015-08-05T23:58:03Z</time></trkpt>
<trkpt lat="30.025147" lon="102.898891">
<time>2015-08-05T23:58:04Z</time></trkpt>
<trkpt lat="30.025877" lon="102.897512">
<time>2015-08-05T23:58:05Z</time></trkpt>
<trkpt lat="30.026077" lon="102.897162">
<time>2015-08-05T23:58:06Z</time></trkpt>
<trkpt lat="30.026256" lon="102.896852">
<time>2015-08-05T23:58:07Z</time></trkpt>
<trkpt lat="30.026446" lon="102.896532">
<time>2015-08-05T23:58:08Z</time></trkpt>
<trkpt lat="30.026596" lon="102.896312">
<time>2015-08-05T23:58:09Z</time></trkpt>
<trkpt lat="30.026736" lon="102.896102">
<time>2015-08-05T23:58:10Z</time></trkpt>
<trkpt lat="30.026836" lon="102.895892">
<time>2015-08-05T23:58:11Z</time></trkpt>
<trkpt lat="30.026916" lon="102.895573">
<time>2015-08-05T23:58:12Z</time></trkpt>
<trkpt lat="30.026966" lon="102.895153">
<time>2015-08-05T23:58:13Z</time></trkpt>
<trkpt lat="30.026996" lon="102.894833">
<time>2015-08-05T23:58:14Z</time></trkpt>
<trkpt lat="30.027046" lon="102.894503">
<time>2015-08-05T23:58:15Z</time></trkpt>
<trkpt lat="30.027106" lon="102.894253">
<time>2015-08-05T23:58:16Z</time></trkpt>
<trkpt lat="30.027166" lon="102.894023">
<time>2015-08-05T23:58:17Z</time></trkpt>
<trkpt lat="30.027216" lon="102.893823">
<time>2015-08-05T23:58:18Z</time></trkpt>
<trkpt lat="30.027276" lon="102.893603">
<time>2015-08-05T23:58:19Z</time></trkpt>
<trkpt lat="30.027316" lon="102.893413">
<time>2015-08-05T23:58:20Z</time></trkpt>
<trkpt lat="30.027326" lon="102.893283">
<time>2015-08-05T23:58:21Z</time></trkpt>
<trkpt lat="30.027326" lon="102.893113">
<time>2015-08-05T23:58:22Z</time></trkpt>
<trkpt lat="30.027296" lon="102.892954">
<time>2015-08-05T23:58:23Z</time></trkpt>
<trkpt lat="30.027205" lon="102.892664">
<time>2015-08-05T23:58:24Z</time></trkpt>
<trkpt lat="30.027065" lon="102.892364">
<time>2015-08-05T23:58:25Z</time></trkpt>
<trkpt lat="30.026975" lon="102.892194">
<time>2015-08-05T23:58:26Z</time></trkpt>
<trkpt lat="30.026855" lon="102.892024">
<time>2015-08-05T23:58:27Z</time></trkpt>
<trkpt lat="30.026655" lon="102.891784">
<time>2015-08-05T23:58:28Z</time></trkpt>
<trkpt lat="30.026425" lon="102.891484">
<time>2015-08-05T23:58:29Z</time></trkpt>
<trkpt lat="30.026355" lon="102.891354">
<time>2015-08-05T23:58:30Z</time></trkpt>
<trkpt lat="30.026305" lon="102.891254">
<time>2015-08-05T23:58:31Z</time></trkpt>
<trkpt lat="30.026265" lon="102.891114">
<time>2015-08-05T23:58:32Z</time></trkpt>
<trkpt lat="30.025995" lon="102.890274">
<time>2015-08-05T23:58:33Z</time></trkpt>
<trkpt lat="30.025985" lon="102.890254">
<time>2015-08-05T23:58:34Z</time></trkpt>
<trkpt lat="30.025814" lon="102.889714">
<time>2015-08-05T23:58:35Z</time></trkpt>
<trkpt lat="30.025704" lon="102.889234">
<time>2015-08-05T23:58:36Z</time></trkpt>
<trkpt lat="30.025644" lon="102.888964">
<time>2015-08-05T23:58:37Z</time></trkpt>
<trkpt lat="30.025404" lon="102.888065">
<time>2015-08-05T23:58:38Z</time></trkpt>
<trkpt lat="30.025353" lon="102.887845">
<time>2015-08-05T23:58:39Z</time></trkpt>
<trkpt lat="30.025323" lon="102.887635">
<time>2015-08-05T23:58:40Z</time></trkpt>
<trkpt lat="30.025283" lon="102.887275">
<time>2015-08-05T23:58:41Z</time></trkpt>
<trkpt lat="30.025263" lon="102.887075">
<time>2015-08-05T23:58:42Z</time></trkpt>
<trkpt lat="30.025253" lon="102.887005">
<time>2015-08-05T23:58:43Z</time></trkpt>
<trkpt lat="30.025253" lon="102.887005">
<time>2015-08-05T23:58:44Z</time></trkpt>
<trkpt lat="30.025263" lon="102.886965">
<time>2015-08-05T23:58:45Z</time></trkpt>
<trkpt lat="30.025253" lon="102.886905">
<time>2015-08-05T23:58:46Z</time></trkpt>
<trkpt lat="30.025243" lon="102.886835">
<time>2015-08-05T23:58:47Z</time></trkpt>
<trkpt lat="30.025233" lon="102.886805">
<time>2015-08-05T23:58:48Z</time></trkpt>
<trkpt lat="30.025112" lon="102.885545">
<time>2015-08-05T23:58:49Z</time></trkpt>
<trkpt lat="30.025062" lon="102.885365">
<time>2015-08-05T23:58:50Z</time></trkpt>
<trkpt lat="30.025002" lon="102.885225">
<time>2015-08-05T23:58:51Z</time></trkpt>
<trkpt lat="30.024932" lon="102.885115">
<time>2015-08-05T23:58:52Z</time></trkpt>
<trkpt lat="30.024862" lon="102.885015">
<time>2015-08-05T23:58:53Z</time></trkpt>
<trkpt lat="30.024772" lon="102.884915">
<time>2015-08-05T23:58:54Z</time></trkpt>
<trkpt lat="30.024642" lon="102.884815">
<time>2015-08-05T23:58:55Z</time></trkpt>
<trkpt lat="30.024482" lon="102.884685">
<time>2015-08-05T23:58:56Z</time></trkpt>
<trkpt lat="30.024241" lon="102.884495">
<time>2015-08-05T23:58:57Z</time></trkpt>
<trkpt lat="30.023961" lon="102.884264">
<time>2015-08-05T23:58:58Z</time></trkpt>
<trkpt lat="30.023571" lon="102.883944">
<time>2015-08-05T23:58:59Z</time></trkpt>
<trkpt lat="30.023031" lon="102.883534">
<time>2015-08-05T23:59:00Z</time></trkpt>
<trkpt lat="30.022701" lon="102.883284">
<time>2015-08-05T23:59:01Z</time></trkpt>
<trkpt lat="30.02245" lon="102.883094">
<time>2015-08-05T23:59:02Z</time></trkpt>
<trkpt lat="30.02218" lon="102.882904">
<time>2015-08-05T23:59:03Z</time></trkpt>
<trkpt lat="30.02184" lon="102.882644">
<time>2015-08-05T23:59:04Z</time></trkpt>
<trkpt lat="30.02153" lon="102.882384">
<time>2015-08-05T23:59:05Z</time></trkpt>
<trkpt lat="30.02119" lon="102.882124">
<time>2015-08-05T23:59:06Z</time></trkpt>
<trkpt lat="30.02091" lon="102.881924">
<time>2015-08-05T23:59:07Z</time></trkpt>
<trkpt lat="30.02075" lon="102.881824">
<time>2015-08-05T23:59:08Z</time></trkpt>
<trkpt lat="30.020649" lon="102.881764">
<time>2015-08-05T23:59:09Z</time></trkpt>
<trkpt lat="30.020319" lon="102.881634">
<time>2015-08-05T23:59:10Z</time></trkpt>
<trkpt lat="30.019979" lon="102.881514">
<time>2015-08-05T23:59:11Z</time></trkpt>
<trkpt lat="30.019729" lon="102.881464">
<time>2015-08-05T23:59:12Z</time></trkpt>
<trkpt lat="30.018939" lon="102.881294">
<time>2015-08-05T23:59:13Z</time></trkpt>
<trkpt lat="30.018339" lon="102.881154">
<time>2015-08-05T23:59:14Z</time></trkpt>
<trkpt lat="30.018079" lon="102.881084">
<time>2015-08-05T23:59:15Z</time></trkpt>
<trkpt lat="30.017779" lon="102.881004">
<time>2015-08-05T23:59:16Z</time></trkpt>
<trkpt lat="30.017479" lon="102.880914">
<time>2015-08-05T23:59:17Z</time></trkpt>
<trkpt lat="30.017279" lon="102.880834">
<time>2015-08-05T23:59:18Z</time></trkpt>
<trkpt lat="30.017029" lon="102.880694">
<time>2015-08-05T23:59:19Z</time></trkpt>
<trkpt lat="30.016748" lon="102.880514">
<time>2015-08-05T23:59:20Z</time></trkpt>
<trkpt lat="30.016378" lon="102.880204">
<time>2015-08-05T23:59:21Z</time></trkpt>
<trkpt lat="30.016158" lon="102.880024">
<time>2015-08-05T23:59:22Z</time></trkpt>
<trkpt lat="30.015648" lon="102.879604">
<time>2015-08-05T23:59:23Z</time></trkpt>
<trkpt lat="30.015267" lon="102.879244">
<time>2015-08-05T23:59:24Z</time></trkpt>
<trkpt lat="30.014897" lon="102.878944">
<time>2015-08-05T23:59:25Z</time></trkpt>
<trkpt lat="30.014727" lon="102.878794">
<time>2015-08-05T23:59:26Z</time></trkpt>
<trkpt lat="30.014527" lon="102.878644">
<time>2015-08-05T23:59:27Z</time></trkpt>
<trkpt lat="30.014347" lon="102.878534">
<time>2015-08-05T23:59:28Z</time></trkpt>
<trkpt lat="30.013947" lon="102.878373">
<time>2015-08-05T23:59:29Z</time></trkpt>
<trkpt lat="30.013527" lon="102.878203">
<time>2015-08-05T23:59:30Z</time></trkpt>
<trkpt lat="30.013176" lon="102.878043">
<time>2015-08-05T23:59:31Z</time></trkpt>
<trkpt lat="30.012986" lon="102.877983">
<time>2015-08-05T23:59:32Z</time></trkpt>
<trkpt lat="30.012846" lon="102.877933">
<time>2015-08-05T23:59:33Z</time></trkpt>
<trkpt lat="30.012596" lon="102.877893">
<time>2015-08-05T23:59:34Z</time></trkpt>
<trkpt lat="30.012356" lon="102.877893">
<time>2015-08-05T23:59:35Z</time></trkpt>
<trkpt lat="30.012186" lon="102.877933">
<time>2015-08-05T23:59:36Z</time></trkpt>
<trkpt lat="30.012016" lon="102.877973">
<time>2015-08-05T23:59:37Z</time></trkpt>
<trkpt lat="30.011836" lon="102.878043">
<time>2015-08-05T23:59:38Z</time></trkpt>
<trkpt lat="30.011646" lon="102.878113">
<time>2015-08-05T23:59:39Z</time></trkpt>
<trkpt lat="30.011536" lon="102.878153">
<time>2015-08-05T23:59:40Z</time></trkpt>
<trkpt lat="30.011456" lon="102.878193">
<time>2015-08-05T23:59:41Z</time></trkpt>
<trkpt lat="30.011257" lon="102.878244">
<time>2015-08-05T23:59:42Z</time></trkpt>
<trkpt lat="30.011097" lon="102.878294">
<time>2015-08-05T23:59:43Z</time></trkpt>
<trkpt lat="30.010957" lon="102.878324">
<time>2015-08-05T23:59:44Z</time></trkpt>
<trkpt lat="30.010777" lon="102.878344">
<time>2015-08-05T23:59:45Z</time></trkpt>
<trkpt lat="30.010607" lon="102.878314">
<time>2015-08-05T23:59:46Z</time></trkpt>
<trkpt lat="30.010457" lon="102.878284">
<time>2015-08-05T23:59:47Z</time></trkpt>
<trkpt lat="30.010297" lon="102.878234">
<time>2015-08-05T23:59:48Z</time></trkpt>
<trkpt lat="30.010086" lon="102.878174">
<time>2015-08-05T23:59:49Z</time></trkpt>
<trkpt lat="30.009746" lon="102.878013">
<time>2015-08-05T23:59:50Z</time></trkpt>
<trkpt lat="30.009496" lon="102.877873">
<time>2015-08-05T23:59:51Z</time></trkpt>
<trkpt lat="30.008996" lon="102.877633">
<time>2015-08-05T23:59:52Z</time></trkpt>
<trkpt lat="30.008556" lon="102.877443">
<time>2015-08-05T23:59:53Z</time></trkpt>
<trkpt lat="30.008146" lon="102.877233">
<time>2015-08-05T23:59:54Z</time></trkpt>
<trkpt lat="30.007926" lon="102.877163">
<time>2015-08-05T23:59:55Z</time></trkpt>
<trkpt lat="30.007555" lon="102.877083">
<time>2015-08-05T23:59:56Z</time></trkpt>
<trkpt lat="30.007335" lon="102.877043">
<time>2015-08-05T23:59:57Z</time></trkpt>
<trkpt lat="30.007085" lon="102.876993">
<time>2015-08-05T23:59:58Z</time></trkpt>
<trkpt lat="30.006995" lon="102.876973">
<time>2015-08-05T23:59:59Z</time></trkpt>
<trkpt lat="30.006915" lon="102.876933">
<time>2015-08-06T00:00:00Z</time></trkpt>
<trkpt lat="30.006825" lon="102.876883">
<time>2015-08-06T00:00:01Z</time></trkpt>
<trkpt lat="30.006775" lon="102.876843">
<time>2015-08-06T00:00:02Z</time></trkpt>
<trkpt lat="30.006735" lon="102.876803">
<time>2015-08-06T00:00:03Z</time></trkpt>
<trkpt lat="30.006695" lon="102.876733">
<time>2015-08-06T00:00:04Z</time></trkpt>
<trkpt lat="30.006665" lon="102.876683">
<time>2015-08-06T00:00:05Z</time></trkpt>
<trkpt lat="30.006635" lon="102.876603">
<time>2015-08-06T00:00:06Z</time></trkpt>
<trkpt lat="30.006625" lon="102.876523">
<time>2015-08-06T00:00:07Z</time></trkpt>
<trkpt lat="30.006625" lon="102.876453">
<time>2015-08-06T00:00:08Z</time></trkpt>
<trkpt lat="30.006635" lon="102.876373">
<time>2015-08-06T00:00:09Z</time></trkpt>
<trkpt lat="30.006655" lon="102.876303">
<time>2015-08-06T00:00:10Z</time></trkpt>
<trkpt lat="30.006725" lon="102.876173">
<time>2015-08-06T00:00:11Z</time></trkpt>
<trkpt lat="30.006804" lon="102.876063">
<time>2015-08-06T00:00:12Z</time></trkpt>
<trkpt lat="30.006944" lon="102.875923">
<time>2015-08-06T00:00:13Z</time></trkpt>
<trkpt lat="30.007214" lon="102.875613">
<time>2015-08-06T00:00:14Z</time></trkpt>
<trkpt lat="30.007394" lon="102.875402">
<time>2015-08-06T00:00:15Z</time></trkpt>
<trkpt lat="30.007484" lon="102.875302">
<time>2015-08-06T00:00:16Z</time></trkpt>
<trkpt lat="30.007544" lon="102.875232">
<time>2015-08-06T00:00:17Z</time></trkpt>
<trkpt lat="30.007584" lon="102.875172">
<time>2015-08-06T00:00:18Z</time></trkpt>
<trkpt lat="30.007654" lon="102.875072">
<time>2015-08-06T00:00:19Z</time></trkpt>
<trkpt lat="30.007693" lon="102.875002">
<time>2015-08-06T00:00:20Z</time></trkpt>
<trkpt lat="30.007733" lon="102.874942">
<time>2015-08-06T00:00:21Z</time></trkpt>
<trkpt lat="30.007743" lon="102.874932">
<time>2015-08-06T00:00:22Z</time></trkpt>
<trkpt lat="30.007783" lon="102.874852">
<time>2015-08-06T00:00:23Z</time></trkpt>
<trkpt lat="30.007803" lon="102.874782">
<time>2015-08-06T00:00:24Z</time></trkpt>
<trkpt lat="30.007823" lon="102.874702">
<time>2015-08-06T00:00:25Z</time></trkpt>
<trkpt lat="30.007853" lon="102.874602">
<time>2015-08-06T00:00:26Z</time></trkpt>
<trkpt lat="30.007873" lon="102.874472">
<time>2015-08-06T00:00:27Z</time></trkpt>
<trkpt lat="30.007883" lon="102.874332">
<time>2015-08-06T00:00:28Z</time></trkpt>
<trkpt lat="30.007873" lon="102.874202">
<time>2015-08-06T00:00:29Z</time></trkpt>
<trkpt lat="30.007863" lon="102.874092">
<time>2015-08-06T00:00:30Z</time></trkpt>
<trkpt lat="30.007832" lon="102.873662">
<time>2015-08-06T00:00:31Z</time></trkpt>
<trkpt lat="30.007822" lon="102.873551">
<time>2015-08-06T00:00:32Z</time></trkpt>
<trkpt lat="30.007781" lon="102.872701">
<time>2015-08-06T00:00:33Z</time></trkpt>
<trkpt lat="30.007731" lon="102.872281">
<time>2015-08-06T00:00:34Z</time></trkpt>
<trkpt lat="30.00767" lon="102.872091">
<time>2015-08-06T00:00:35Z</time></trkpt>
<trkpt lat="30.00759" lon="102.8719">
<time>2015-08-06T00:00:36Z</time></trkpt>
<trkpt lat="30.00747" lon="102.87169">
<time>2015-08-06T00:00:37Z</time></trkpt>
<trkpt lat="30.006739" lon="102.87079">
<time>2015-08-06T00:00:38Z</time></trkpt>
<trkpt lat="30.006478" lon="102.87038">
<time>2015-08-06T00:00:39Z</time></trkpt>
<trkpt lat="30.006338" lon="102.869969">
<time>2015-08-06T00:00:40Z</time></trkpt>
<trkpt lat="30.006217" lon="102.869469">
<time>2015-08-06T00:00:41Z</time></trkpt>
<trkpt lat="30.006177" lon="102.869099">
<time>2015-08-06T00:00:42Z</time></trkpt>
<trkpt lat="30.006197" lon="102.868828">
<time>2015-08-06T00:00:43Z</time></trkpt>
<trkpt lat="30.006226" lon="102.868668">
<time>2015-08-06T00:00:44Z</time></trkpt>
<trkpt lat="30.006256" lon="102.868548">
<time>2015-08-06T00:00:45Z</time></trkpt>
<trkpt lat="30.006376" lon="102.868258">
<time>2015-08-06T00:00:46Z</time></trkpt>
<trkpt lat="30.006655" lon="102.867788">
<time>2015-08-06T00:00:47Z</time></trkpt>
<trkpt lat="30.006985" lon="102.867287">
<time>2015-08-06T00:00:48Z</time></trkpt>
<trkpt lat="30.007274" lon="102.866877">
<time>2015-08-06T00:00:49Z</time></trkpt>
<trkpt lat="30.007584" lon="102.866547">
<time>2015-08-06T00:00:50Z</time></trkpt>
<trkpt lat="30.007923" lon="102.866256">
<time>2015-08-06T00:00:51Z</time></trkpt>
<trkpt lat="30.008443" lon="102.865946">
<time>2015-08-06T00:00:52Z</time></trkpt>
<trkpt lat="30.009112" lon="102.865516">
<time>2015-08-06T00:00:53Z</time></trkpt>
<trkpt lat="30.009432" lon="102.865346">
<time>2015-08-06T00:00:54Z</time></trkpt>
<trkpt lat="30.009662" lon="102.865265">
<time>2015-08-06T00:00:55Z</time></trkpt>
<trkpt lat="30.009902" lon="102.865215">
<time>2015-08-06T00:00:56Z</time></trkpt>
<trkpt lat="30.010212" lon="102.865185">
<time>2015-08-06T00:00:57Z</time></trkpt>
<trkpt lat="30.011022" lon="102.865085">
<time>2015-08-06T00:00:58Z</time></trkpt>
<trkpt lat="30.012352" lon="102.864905">
<time>2015-08-06T00:00:59Z</time></trkpt>
<trkpt lat="30.012602" lon="102.864865">
<time>2015-08-06T00:01:00Z</time></trkpt>
<trkpt lat="30.013022" lon="102.864845">
<time>2015-08-06T00:01:01Z</time></trkpt>
<trkpt lat="30.013322" lon="102.864845">
<time>2015-08-06T00:01:02Z</time></trkpt>
<trkpt lat="30.013562" lon="102.864855">
<time>2015-08-06T00:01:03Z</time></trkpt>
<trkpt lat="30.015462" lon="102.864965">
<time>2015-08-06T00:01:04Z</time></trkpt>
<trkpt lat="30.015902" lon="102.864965">
<time>2015-08-06T00:01:05Z</time></trkpt>
<trkpt lat="30.016182" lon="102.864945">
<time>2015-08-06T00:01:06Z</time></trkpt>
<trkpt lat="30.016452" lon="102.864925">
<time>2015-08-06T00:01:07Z</time></trkpt>
<trkpt lat="30.016982" lon="102.864825">
<time>2015-08-06T00:01:08Z</time></trkpt>
<trkpt lat="30.018311" lon="102.864585">
<time>2015-08-06T00:01:09Z</time></trkpt>
<trkpt lat="30.019761" lon="102.864314">
<time>2015-08-06T00:01:10Z</time></trkpt>
<trkpt lat="30.020691" lon="102.864134">
<time>2015-08-06T00:01:11Z</time></trkpt>
<trkpt lat="30.020991" lon="102.864064">
<time>2015-08-06T00:01:12Z</time></trkpt>
<trkpt lat="30.021221" lon="102.863994">
<time>2015-08-06T00:01:13Z</time></trkpt>
<trkpt lat="30.02151" lon="102.863884">
<time>2015-08-06T00:01:14Z</time></trkpt>
<trkpt lat="30.02186" lon="102.863634">
<time>2015-08-06T00:01:15Z</time></trkpt>
<trkpt lat="30.02237" lon="102.863263">
<time>2015-08-06T00:01:16Z</time></trkpt>
<trkpt lat="30.023099" lon="102.862723">
<time>2015-08-06T00:01:17Z</time></trkpt>
<trkpt lat="30.023718" lon="102.862252">
<time>2015-08-06T00:01:18Z</time></trkpt>
<trkpt lat="30.024278" lon="102.861822">
<time>2015-08-06T00:01:19Z</time></trkpt>
<trkpt lat="30.024657" lon="102.861441">
<time>2015-08-06T00:01:20Z</time></trkpt>
<trkpt lat="30.024927" lon="102.861111">
<time>2015-08-06T00:01:21Z</time></trkpt>
<trkpt lat="30.025126" lon="102.860851">
<time>2015-08-06T00:01:22Z</time></trkpt>
<trkpt lat="30.025316" lon="102.860561">
<time>2015-08-06T00:01:23Z</time></trkpt>
<trkpt lat="30.025455" lon="102.86025">
<time>2015-08-06T00:01:24Z</time></trkpt>
<trkpt lat="30.025575" lon="102.85993">
<time>2015-08-06T00:01:25Z</time></trkpt>
<trkpt lat="30.025794" lon="102.859159">
<time>2015-08-06T00:01:26Z</time></trkpt>
<trkpt lat="30.025913" lon="102.858729">
<time>2015-08-06T00:01:27Z</time></trkpt>
<trkpt lat="30.026002" lon="102.858278">
<time>2015-08-06T00:01:28Z</time></trkpt>
<trkpt lat="30.026071" lon="102.857587">
<time>2015-08-06T00:01:29Z</time></trkpt>
<trkpt lat="30.026101" lon="102.857137">
<time>2015-08-06T00:01:30Z</time></trkpt>
<trkpt lat="30.0261" lon="102.856857">
<time>2015-08-06T00:01:31Z</time></trkpt>
<trkpt lat="30.02608" lon="102.856546">
<time>2015-08-06T00:01:32Z</time></trkpt>
<trkpt lat="30.026029" lon="102.856096">
<time>2015-08-06T00:01:33Z</time></trkpt>
<trkpt lat="30.025988" lon="102.855625">
<time>2015-08-06T00:01:34Z</time></trkpt>
<trkpt lat="30.025988" lon="102.855225">
<time>2015-08-06T00:01:35Z</time></trkpt>
<trkpt lat="30.026055" lon="102.853673">
<time>2015-08-06T00:01:36Z</time></trkpt>
<trkpt lat="30.026221" lon="102.850739">
<time>2015-08-06T00:01:37Z</time></trkpt>
<trkpt lat="30.026319" lon="102.849538">
<time>2015-08-06T00:01:38Z</time></trkpt>
<trkpt lat="30.026328" lon="102.849398">
<time>2015-08-06T00:01:39Z</time></trkpt>
<trkpt lat="30.026328" lon="102.849257">
<time>2015-08-06T00:01:40Z</time></trkpt>
<trkpt lat="30.026328" lon="102.849127">
<time>2015-08-06T00:01:41Z</time></trkpt>
<trkpt lat="30.026318" lon="102.849007">
<time>2015-08-06T00:01:42Z</time></trkpt>
<trkpt lat="30.026307" lon="102.848877">
<time>2015-08-06T00:01:43Z</time></trkpt>
<trkpt lat="30.026297" lon="102.848767">
<time>2015-08-06T00:01:44Z</time></trkpt>
<trkpt lat="30.026277" lon="102.848687">
<time>2015-08-06T00:01:45Z</time></trkpt>
<trkpt lat="30.026247" lon="102.848596">
<time>2015-08-06T00:01:46Z</time></trkpt>
<trkpt lat="30.026207" lon="102.848516">
<time>2015-08-06T00:01:47Z</time></trkpt>
<trkpt lat="30.026106" lon="102.848326">
<time>2015-08-06T00:01:48Z</time></trkpt>
<trkpt lat="30.025896" lon="102.847996">
<time>2015-08-06T00:01:49Z</time></trkpt>
<trkpt lat="30.02385" lon="102.844641">
<time>2015-08-06T00:01:50Z</time></trkpt>
<trkpt lat="30.02367" lon="102.844331">
<time>2015-08-06T00:01:51Z</time></trkpt>
<trkpt lat="30.023519" lon="102.84401">
<time>2015-08-06T00:01:52Z</time></trkpt>
<trkpt lat="30.023428" lon="102.84371">
<time>2015-08-06T00:01:53Z</time></trkpt>
<trkpt lat="30.023408" lon="102.84365">
<time>2015-08-06T00:01:54Z</time></trkpt>
<trkpt lat="30.023358" lon="102.843369">
<time>2015-08-06T00:01:55Z</time></trkpt>
<trkpt lat="30.023084" lon="102.841166">
<time>2015-08-06T00:01:56Z</time></trkpt>
<trkpt lat="30.022921" lon="102.839794">
<time>2015-08-06T00:01:57Z</time></trkpt>
<trkpt lat="30.022911" lon="102.839594">
<time>2015-08-06T00:01:58Z</time></trkpt>
<trkpt lat="30.022901" lon="102.839404">
<time>2015-08-06T00:01:59Z</time></trkpt>
<trkpt lat="30.02291" lon="102.839213">
<time>2015-08-06T00:02:00Z</time></trkpt>
<trkpt lat="30.02294" lon="102.839063">
<time>2015-08-06T00:02:01Z</time></trkpt>
<trkpt lat="30.023009" lon="102.838723">
<time>2015-08-06T00:02:02Z</time></trkpt>
<trkpt lat="30.023039" lon="102.838552">
<time>2015-08-06T00:02:03Z</time></trkpt>
<trkpt lat="30.023119" lon="102.838222">
<time>2015-08-06T00:02:04Z</time></trkpt>
<trkpt lat="30.023624" lon="102.835698">
<time>2015-08-06T00:02:05Z</time></trkpt>
<trkpt lat="30.023693" lon="102.835348">
<time>2015-08-06T00:02:06Z</time></trkpt>
<trkpt lat="30.024179" lon="102.832914">
<time>2015-08-06T00:02:07Z</time></trkpt>
<trkpt lat="30.024189" lon="102.832854">
<time>2015-08-06T00:02:08Z</time></trkpt>
<trkpt lat="30.024952" lon="102.829218">
<time>2015-08-06T00:02:09Z</time></trkpt>
<trkpt lat="30.025279" lon="102.827656">
<time>2015-08-06T00:02:10Z</time></trkpt>
<trkpt lat="30.026191" lon="102.823309">
<time>2015-08-06T00:02:11Z</time></trkpt>
<trkpt lat="30.026359" lon="102.822518">
<time>2015-08-06T00:02:12Z</time></trkpt>
<trkpt lat="30.027013" lon="102.819383">
<time>2015-08-06T00:02:13Z</time></trkpt>
<trkpt lat="30.027806" lon="102.815557">
<time>2015-08-06T00:02:14Z</time></trkpt>
<trkpt lat="30.027886" lon="102.815166">
<time>2015-08-06T00:02:15Z</time></trkpt>
<trkpt lat="30.028084" lon="102.814215">
<time>2015-08-06T00:02:16Z</time></trkpt>
<trkpt lat="30.028213" lon="102.813614">
<time>2015-08-06T00:02:17Z</time></trkpt>
<trkpt lat="30.028272" lon="102.813223">
<time>2015-08-06T00:02:18Z</time></trkpt>
<trkpt lat="30.028302" lon="102.813003">
<time>2015-08-06T00:02:19Z</time></trkpt>
<trkpt lat="30.028311" lon="102.812833">
<time>2015-08-06T00:02:20Z</time></trkpt>
<trkpt lat="30.028271" lon="102.812663">
<time>2015-08-06T00:02:21Z</time></trkpt>
<trkpt lat="30.028221" lon="102.812542">
<time>2015-08-06T00:02:22Z</time></trkpt>
<trkpt lat="30.02812" lon="102.812312">
<time>2015-08-06T00:02:23Z</time></trkpt>
<trkpt lat="30.02798" lon="102.812062">
<time>2015-08-06T00:02:24Z</time></trkpt>
<trkpt lat="30.027739" lon="102.811621">
<time>2015-08-06T00:02:25Z</time></trkpt>
<trkpt lat="30.027217" lon="102.81063">
<time>2015-08-06T00:02:26Z</time></trkpt>
<trkpt lat="30.026405" lon="102.809128">
<time>2015-08-06T00:02:27Z</time></trkpt>
<trkpt lat="30.025702" lon="102.807836">
<time>2015-08-06T00:02:28Z</time></trkpt>
<trkpt lat="30.025261" lon="102.806975">
<time>2015-08-06T00:02:29Z</time></trkpt>
<trkpt lat="30.02511" lon="102.806664">
<time>2015-08-06T00:02:30Z</time></trkpt>
<trkpt lat="30.02501" lon="102.806454">
<time>2015-08-06T00:02:31Z</time></trkpt>
<trkpt lat="30.02497" lon="102.806354">
<time>2015-08-06T00:02:32Z</time></trkpt>
<trkpt lat="30.024608" lon="102.805392">
<time>2015-08-06T00:02:33Z</time></trkpt>
<trkpt lat="30.024106" lon="102.80401">
<time>2015-08-06T00:02:34Z</time></trkpt>
<trkpt lat="30.024025" lon="102.80378">
<time>2015-08-06T00:02:35Z</time></trkpt>
<trkpt lat="30.024015" lon="102.8036">
<time>2015-08-06T00:02:36Z</time></trkpt>
<trkpt lat="30.024015" lon="102.80341">
<time>2015-08-06T00:02:37Z</time></trkpt>
<trkpt lat="30.024044" lon="102.803179">
<time>2015-08-06T00:02:38Z</time></trkpt>
<trkpt lat="30.024074" lon="102.802999">
<time>2015-08-06T00:02:39Z</time></trkpt>
<trkpt lat="30.024134" lon="102.802709">
<time>2015-08-06T00:02:40Z</time></trkpt>
<trkpt lat="30.024143" lon="102.802488">
<time>2015-08-06T00:02:41Z</time></trkpt>
<trkpt lat="30.024123" lon="102.802158">
<time>2015-08-06T00:02:42Z</time></trkpt>
<trkpt lat="30.024042" lon="102.801647">
<time>2015-08-06T00:02:43Z</time></trkpt>
<trkpt lat="30.024001" lon="102.801417">
<time>2015-08-06T00:02:44Z</time></trkpt>
<trkpt lat="30.02389" lon="102.800776">
<time>2015-08-06T00:02:45Z</time></trkpt>
<trkpt lat="30.02385" lon="102.800616">
<time>2015-08-06T00:02:46Z</time></trkpt>
<trkpt lat="30.02379" lon="102.800466">
<time>2015-08-06T00:02:47Z</time></trkpt>
<trkpt lat="30.02372" lon="102.800346">
<time>2015-08-06T00:02:48Z</time></trkpt>
<trkpt lat="30.023619" lon="102.800215">
<time>2015-08-06T00:02:49Z</time></trkpt>
<trkpt lat="30.023419" lon="102.800005">
<time>2015-08-06T00:02:50Z</time></trkpt>
<trkpt lat="30.022458" lon="102.799194">
<time>2015-08-06T00:02:51Z</time></trkpt>
<trkpt lat="30.021697" lon="102.798523">
<time>2015-08-06T00:02:52Z</time></trkpt>
<trkpt lat="30.021066" lon="102.797993">
<time>2015-08-06T00:02:53Z</time></trkpt>
<trkpt lat="30.020545" lon="102.797532">
<time>2015-08-06T00:02:54Z</time></trkpt>
<trkpt lat="30.020235" lon="102.797232">
<time>2015-08-06T00:02:55Z</time></trkpt>
<trkpt lat="30.020175" lon="102.797162">
<time>2015-08-06T00:02:56Z</time></trkpt>
<trkpt lat="30.020175" lon="102.797152">
<time>2015-08-06T00:02:57Z</time></trkpt>
<trkpt lat="30.020114" lon="102.797082">
<time>2015-08-06T00:02:58Z</time></trkpt>
<trkpt lat="30.020034" lon="102.796911">
<time>2015-08-06T00:02:59Z</time></trkpt>
<trkpt lat="30.019994" lon="102.796741">
<time>2015-08-06T00:03:00Z</time></trkpt>
<trkpt lat="30.019984" lon="102.796571">
<time>2015-08-06T00:03:01Z</time></trkpt>
<trkpt lat="30.019993" lon="102.796351">
<time>2015-08-06T00:03:02Z</time></trkpt>
<trkpt lat="30.020112" lon="102.79534">
<time>2015-08-06T00:03:03Z</time></trkpt>
<trkpt lat="30.020122" lon="102.795229">
<time>2015-08-06T00:03:04Z</time></trkpt>
<trkpt lat="30.020151" lon="102.794849">
<time>2015-08-06T00:03:05Z</time></trkpt>
<trkpt lat="30.020141" lon="102.794649">
<time>2015-08-06T00:03:06Z</time></trkpt>
<trkpt lat="30.020121" lon="102.794489">
<time>2015-08-06T00:03:07Z</time></trkpt>
<trkpt lat="30.02007" lon="102.794298">
<time>2015-08-06T00:03:08Z</time></trkpt>
<trkpt lat="30.01996" lon="102.793968">
<time>2015-08-06T00:03:09Z</time></trkpt>
<trkpt lat="30.019839" lon="102.793608">
<time>2015-08-06T00:03:10Z</time></trkpt>
<trkpt lat="30.019779" lon="102.793367">
<time>2015-08-06T00:03:11Z</time></trkpt>
<trkpt lat="30.019749" lon="102.793167">
<time>2015-08-06T00:03:12Z</time></trkpt>
<trkpt lat="30.019728" lon="102.792967">
<time>2015-08-06T00:03:13Z</time></trkpt>
<trkpt lat="30.019728" lon="102.792697">
<time>2015-08-06T00:03:14Z</time></trkpt>
<trkpt lat="30.019708" lon="102.792516">
<time>2015-08-06T00:03:15Z</time></trkpt>
<trkpt lat="30.019707" lon="102.792396">
<time>2015-08-06T00:03:16Z</time></trkpt>
<trkpt lat="30.019647" lon="102.792056">
<time>2015-08-06T00:03:17Z</time></trkpt>
<trkpt lat="30.019556" lon="102.791575">
<time>2015-08-06T00:03:18Z</time></trkpt>
<trkpt lat="30.019536" lon="102.791345">
<time>2015-08-06T00:03:19Z</time></trkpt>
<trkpt lat="30.019565" lon="102.791055">
<time>2015-08-06T00:03:20Z</time></trkpt>
<trkpt lat="30.019625" lon="102.790775">
<time>2015-08-06T00:03:21Z</time></trkpt>
<trkpt lat="30.019814" lon="102.790164">
<time>2015-08-06T00:03:22Z</time></trkpt>
<trkpt lat="30.019994" lon="102.789733">
<time>2015-08-06T00:03:23Z</time></trkpt>
<trkpt lat="30.020113" lon="102.789543">
<time>2015-08-06T00:03:24Z</time></trkpt>
<trkpt lat="30.020303" lon="102.789383">
<time>2015-08-06T00:03:25Z</time></trkpt>
<trkpt lat="30.020923" lon="102.789013">
<time>2015-08-06T00:03:26Z</time></trkpt>
<trkpt lat="30.021142" lon="102.788873">
<time>2015-08-06T00:03:27Z</time></trkpt>
<trkpt lat="30.021422" lon="102.788722">
<time>2015-08-06T00:03:28Z</time></trkpt>
<trkpt lat="30.021732" lon="102.788602">
<time>2015-08-06T00:03:29Z</time></trkpt>
<trkpt lat="30.022182" lon="102.788482">
<time>2015-08-06T00:03:30Z</time></trkpt>
<trkpt lat="30.022452" lon="102.788412">
<time>2015-08-06T00:03:31Z</time></trkpt>
<trkpt lat="30.022782" lon="102.788262">
<time>2015-08-06T00:03:32Z</time></trkpt>
<trkpt lat="30.023781" lon="102.787641">
<time>2015-08-06T00:03:33Z</time></trkpt>
<trkpt lat="30.02429" lon="102.787281">
<time>2015-08-06T00:03:34Z</time></trkpt>
<trkpt lat="30.024979" lon="102.78658">
<time>2015-08-06T00:03:35Z</time></trkpt>
<trkpt lat="30.025289" lon="102.7862">
<time>2015-08-06T00:03:36Z</time></trkpt>
<trkpt lat="30.025489" lon="102.78603">
<time>2015-08-06T00:03:37Z</time></trkpt>
<trkpt lat="30.025659" lon="102.78593">
<time>2015-08-06T00:03:38Z</time></trkpt>
<trkpt lat="30.025959" lon="102.78585">
<time>2015-08-06T00:03:39Z</time></trkpt>
<trkpt lat="30.026528" lon="102.785769">
<time>2015-08-06T00:03:40Z</time></trkpt>
<trkpt lat="30.027008" lon="102.785709">
<time>2015-08-06T00:03:41Z</time></trkpt>
<trkpt lat="30.027368" lon="102.785709">
<time>2015-08-06T00:03:42Z</time></trkpt>
<trkpt lat="30.027768" lon="102.785779">
<time>2015-08-06T00:03:43Z</time></trkpt>
<trkpt lat="30.028099" lon="102.785839">
<time>2015-08-06T00:03:44Z</time></trkpt>
<trkpt lat="30.028279" lon="102.785879">
<time>2015-08-06T00:03:45Z</time></trkpt>
<trkpt lat="30.028439" lon="102.785889">
<time>2015-08-06T00:03:46Z</time></trkpt>
<trkpt lat="30.028598" lon="102.785829">
<time>2015-08-06T00:03:47Z</time></trkpt>
<trkpt lat="30.028738" lon="102.785719">
<time>2015-08-06T00:03:48Z</time></trkpt>
<trkpt lat="30.028848" lon="102.785579">
<time>2015-08-06T00:03:49Z</time></trkpt>
<trkpt lat="30.028968" lon="102.785329">
<time>2015-08-06T00:03:50Z</time></trkpt>
<trkpt lat="30.029048" lon="102.785079">
<time>2015-08-06T00:03:51Z</time></trkpt>
<trkpt lat="30.029166" lon="102.784228">
<time>2015-08-06T00:03:52Z</time></trkpt>
<trkpt lat="30.029296" lon="102.783748">
<time>2015-08-06T00:03:53Z</time></trkpt>
<trkpt lat="30.029416" lon="102.783437">
<time>2015-08-06T00:03:54Z</time></trkpt>
<trkpt lat="30.029615" lon="102.783047">
<time>2015-08-06T00:03:55Z</time></trkpt>
<trkpt lat="30.029775" lon="102.782747">
<time>2015-08-06T00:03:56Z</time></trkpt>
<trkpt lat="30.029864" lon="102.782567">
<time>2015-08-06T00:03:57Z</time></trkpt>
<trkpt lat="30.029914" lon="102.782436">
<time>2015-08-06T00:03:58Z</time></trkpt>
<trkpt lat="30.029954" lon="102.782316">
<time>2015-08-06T00:03:59Z</time></trkpt>
<trkpt lat="30.029984" lon="102.782206">
<time>2015-08-06T00:04:00Z</time></trkpt>
<trkpt lat="30.029994" lon="102.782076">
<time>2015-08-06T00:04:01Z</time></trkpt>
<trkpt lat="30.029984" lon="102.781946">
<time>2015-08-06T00:04:02Z</time></trkpt>
<trkpt lat="30.029964" lon="102.781776">
<time>2015-08-06T00:04:03Z</time></trkpt>
<trkpt lat="30.029913" lon="102.781556">
<time>2015-08-06T00:04:04Z</time></trkpt>
<trkpt lat="30.029843" lon="102.781296">
<time>2015-08-06T00:04:05Z</time></trkpt>
<trkpt lat="30.029592" lon="102.780625">
<time>2015-08-06T00:04:06Z</time></trkpt>
<trkpt lat="30.029492" lon="102.780415">
<time>2015-08-06T00:04:07Z</time></trkpt>
<trkpt lat="30.029382" lon="102.780245">
<time>2015-08-06T00:04:08Z</time></trkpt>
<trkpt lat="30.029172" lon="102.780045">
<time>2015-08-06T00:04:09Z</time></trkpt>
<trkpt lat="30.028821" lon="102.779825">
<time>2015-08-06T00:04:10Z</time></trkpt>
<trkpt lat="30.028211" lon="102.779444">
<time>2015-08-06T00:04:11Z</time></trkpt>
<trkpt lat="30.027811" lon="102.779214">
<time>2015-08-06T00:04:12Z</time></trkpt>
<trkpt lat="30.027541" lon="102.779104">
<time>2015-08-06T00:04:13Z</time></trkpt>
<trkpt lat="30.02742" lon="102.779064">
<time>2015-08-06T00:04:14Z</time></trkpt>
<trkpt lat="30.02717" lon="102.778954">
<time>2015-08-06T00:04:15Z</time></trkpt>
<trkpt lat="30.02698" lon="102.778864">
<time>2015-08-06T00:04:16Z</time></trkpt>
<trkpt lat="30.02686" lon="102.778784">
<time>2015-08-06T00:04:17Z</time></trkpt>
<trkpt lat="30.02667" lon="102.778644">
<time>2015-08-06T00:04:18Z</time></trkpt>
<trkpt lat="30.026099" lon="102.778093">
<time>2015-08-06T00:04:19Z</time></trkpt>
<trkpt lat="30.025409" lon="102.777203">
<time>2015-08-06T00:04:20Z</time></trkpt>
<trkpt lat="30.025148" lon="102.776743">
<time>2015-08-06T00:04:21Z</time></trkpt>
<trkpt lat="30.024998" lon="102.776242">
<time>2015-08-06T00:04:22Z</time></trkpt>
<trkpt lat="30.024947" lon="102.775752">
<time>2015-08-06T00:04:23Z</time></trkpt>
<trkpt lat="30.024976" lon="102.775172">
<time>2015-08-06T00:04:24Z</time></trkpt>
<trkpt lat="30.025066" lon="102.774621">
<time>2015-08-06T00:04:25Z</time></trkpt>
<trkpt lat="30.025245" lon="102.774091">
<time>2015-08-06T00:04:26Z</time></trkpt>
<trkpt lat="30.025654" lon="102.772991">
<time>2015-08-06T00:04:27Z</time></trkpt>
<trkpt lat="30.025714" lon="102.772881">
<time>2015-08-06T00:04:28Z</time></trkpt>
<trkpt lat="30.025894" lon="102.77256">
<time>2015-08-06T00:04:29Z</time></trkpt>
<trkpt lat="30.026044" lon="102.77228">
<time>2015-08-06T00:04:30Z</time></trkpt>
<trkpt lat="30.026144" lon="102.77213">
<time>2015-08-06T00:04:31Z</time></trkpt>
<trkpt lat="30.026284" lon="102.772">
<time>2015-08-06T00:04:32Z</time></trkpt>
<trkpt lat="30.026424" lon="102.77188">
<time>2015-08-06T00:04:33Z</time></trkpt>
<trkpt lat="30.026993" lon="102.7715">
<time>2015-08-06T00:04:34Z</time></trkpt>
<trkpt lat="30.027303" lon="102.77128">
<time>2015-08-06T00:04:35Z</time></trkpt>
<trkpt lat="30.027623" lon="102.77111">
<time>2015-08-06T00:04:36Z</time></trkpt>
<trkpt lat="30.028093" lon="102.77093">
<time>2015-08-06T00:04:37Z</time></trkpt>
<trkpt lat="30.028423" lon="102.77081">
<time>2015-08-06T00:04:38Z</time></trkpt>
<trkpt lat="30.028583" lon="102.77077">
<time>2015-08-06T00:04:39Z</time></trkpt>
<trkpt lat="30.028723" lon="102.77075">
<time>2015-08-06T00:04:40Z</time></trkpt>
<trkpt lat="30.028863" lon="102.77074">
<time>2015-08-06T00:04:41Z</time></trkpt>
<trkpt lat="30.028983" lon="102.77073">
<time>2015-08-06T00:04:42Z</time></trkpt>
<trkpt lat="30.029153" lon="102.77074">
<time>2015-08-06T00:04:43Z</time></trkpt>
<trkpt lat="30.029913" lon="102.77075">
<time>2015-08-06T00:04:44Z</time></trkpt>
<trkpt lat="30.030133" lon="102.77078">
<time>2015-08-06T00:04:45Z</time></trkpt>
<trkpt lat="30.030303" lon="102.77082">
<time>2015-08-06T00:04:46Z</time></trkpt>
<trkpt lat="30.030473" lon="102.77091">
<time>2015-08-06T00:04:47Z</time></trkpt>
<trkpt lat="30.030913" lon="102.77116">
<time>2015-08-06T00:04:48Z</time></trkpt>
<trkpt lat="30.031223" lon="102.77132">
<time>2015-08-06T00:04:49Z</time></trkpt>
<trkpt lat="30.031423" lon="102.77139">
<time>2015-08-06T00:04:50Z</time></trkpt>
<trkpt lat="30.031523" lon="102.77139">
<time>2015-08-06T00:04:51Z</time></trkpt>
<trkpt lat="30.031653" lon="102.77139">
<time>2015-08-06T00:04:52Z</time></trkpt>
<trkpt lat="30.031763" lon="102.77137">
<time>2015-08-06T00:04:53Z</time></trkpt>
<trkpt lat="30.031893" lon="102.77133">
<time>2015-08-06T00:04:54Z</time></trkpt>
<trkpt lat="30.032063" lon="102.77121">
<time>2015-08-06T00:04:55Z</time></trkpt>
<trkpt lat="30.032203" lon="102.77108">
<time>2015-08-06T00:04:56Z</time></trkpt>
<trkpt lat="30.032303" lon="102.77093">
<time>2015-08-06T00:04:57Z</time></trkpt>
<trkpt lat="30.032792" lon="102.769799">
<time>2015-08-06T00:04:58Z</time></trkpt>
<trkpt lat="30.033012" lon="102.769329">
<time>2015-08-06T00:04:59Z</time></trkpt>
<trkpt lat="30.033171" lon="102.769079">
<time>2015-08-06T00:05:00Z</time></trkpt>
<trkpt lat="30.033331" lon="102.768859">
<time>2015-08-06T00:05:01Z</time></trkpt>
<trkpt lat="30.033641" lon="102.768539">
<time>2015-08-06T00:05:02Z</time></trkpt>
<trkpt lat="30.033951" lon="102.768209">
<time>2015-08-06T00:05:03Z</time></trkpt>
<trkpt lat="30.034271" lon="102.767918">
<time>2015-08-06T00:05:04Z</time></trkpt>
<trkpt lat="30.03556" lon="102.766848">
<time>2015-08-06T00:05:05Z</time></trkpt>
<trkpt lat="30.036179" lon="102.766218">
<time>2015-08-06T00:05:06Z</time></trkpt>
<trkpt lat="30.036419" lon="102.766008">
<time>2015-08-06T00:05:07Z</time></trkpt>
<trkpt lat="30.036639" lon="102.765848">
<time>2015-08-06T00:05:08Z</time></trkpt>
<trkpt lat="30.036889" lon="102.765728">
<time>2015-08-06T00:05:09Z</time></trkpt>
<trkpt lat="30.037069" lon="102.765648">
<time>2015-08-06T00:05:10Z</time></trkpt>
<trkpt lat="30.037289" lon="102.765578">
<time>2015-08-06T00:05:11Z</time></trkpt>
<trkpt lat="30.037449" lon="102.765558">
<time>2015-08-06T00:05:12Z</time></trkpt>
<trkpt lat="30.037599" lon="102.765558">
<time>2015-08-06T00:05:13Z</time></trkpt>
<trkpt lat="30.037799" lon="102.765568">
<time>2015-08-06T00:05:14Z</time></trkpt>
<trkpt lat="30.037929" lon="102.765608">
<time>2015-08-06T00:05:15Z</time></trkpt>
<trkpt lat="30.038039" lon="102.765648">
<time>2015-08-06T00:05:16Z</time></trkpt>
<trkpt lat="30.038199" lon="102.765718">
<time>2015-08-06T00:05:17Z</time></trkpt>
<trkpt lat="30.038869" lon="102.766078">
<time>2015-08-06T00:05:18Z</time></trkpt>
<trkpt lat="30.039389" lon="102.766278">
<time>2015-08-06T00:05:19Z</time></trkpt>
<trkpt lat="30.039559" lon="102.766328">
<time>2015-08-06T00:05:20Z</time></trkpt>
<trkpt lat="30.039689" lon="102.766328">
<time>2015-08-06T00:05:21Z</time></trkpt>
<trkpt lat="30.039779" lon="102.766328">
<time>2015-08-06T00:05:22Z</time></trkpt>
<trkpt lat="30.039889" lon="102.766298">
<time>2015-08-06T00:05:23Z</time></trkpt>
<trkpt lat="30.040199" lon="102.766198">
<time>2015-08-06T00:05:24Z</time></trkpt>
<trkpt lat="30.041119" lon="102.765878">
<time>2015-08-06T00:05:25Z</time></trkpt>
<trkpt lat="30.041379" lon="102.765788">
<time>2015-08-06T00:05:26Z</time></trkpt>
<trkpt lat="30.041509" lon="102.765728">
<time>2015-08-06T00:05:27Z</time></trkpt>
<trkpt lat="30.041589" lon="102.765658">
<time>2015-08-06T00:05:28Z</time></trkpt>
<trkpt lat="30.041689" lon="102.765548">
<time>2015-08-06T00:05:29Z</time></trkpt>
<trkpt lat="30.041829" lon="102.765368">
<time>2015-08-06T00:05:30Z</time></trkpt>
<trkpt lat="30.042039" lon="102.765088">
<time>2015-08-06T00:05:31Z</time></trkpt>
<trkpt lat="30.042229" lon="102.764848">
<time>2015-08-06T00:05:32Z</time></trkpt>
<trkpt lat="30.042398" lon="102.764698">
<time>2015-08-06T00:05:33Z</time></trkpt>
<trkpt lat="30.042598" lon="102.764578">
<time>2015-08-06T00:05:34Z</time></trkpt>
<trkpt lat="30.042758" lon="102.764517">
<time>2015-08-06T00:05:35Z</time></trkpt>
<trkpt lat="30.042908" lon="102.764497">
<time>2015-08-06T00:05:36Z</time></trkpt>
<trkpt lat="30.043118" lon="102.764487">
<time>2015-08-06T00:05:37Z</time></trkpt>
<trkpt lat="30.043348" lon="102.764507">
<time>2015-08-06T00:05:38Z</time></trkpt>
<trkpt lat="30.043588" lon="102.764537">
<time>2015-08-06T00:05:39Z</time></trkpt>
<trkpt lat="30.043768" lon="102.764587">
<time>2015-08-06T00:05:40Z</time></trkpt>
<trkpt lat="30.043908" lon="102.764637">
<time>2015-08-06T00:05:41Z</time></trkpt>
<trkpt lat="30.044038" lon="102.764707">
<time>2015-08-06T00:05:42Z</time></trkpt>
<trkpt lat="30.044239" lon="102.764857">
<time>2015-08-06T00:05:43Z</time></trkpt>
<trkpt lat="30.044589" lon="102.765168">
<time>2015-08-06T00:05:44Z</time></trkpt>
<trkpt lat="30.044679" lon="102.765218">
<time>2015-08-06T00:05:45Z</time></trkpt>
<trkpt lat="30.044779" lon="102.765278">
<time>2015-08-06T00:05:46Z</time></trkpt>
<trkpt lat="30.044939" lon="102.765308">
<time>2015-08-06T00:05:47Z</time></trkpt>
<trkpt lat="30.045129" lon="102.765328">
<time>2015-08-06T00:05:48Z</time></trkpt>
<trkpt lat="30.045349" lon="102.765338">
<time>2015-08-06T00:05:49Z</time></trkpt>
<trkpt lat="30.045499" lon="102.765358">
<time>2015-08-06T00:05:50Z</time></trkpt>
<trkpt lat="30.045599" lon="102.765388">
<time>2015-08-06T00:05:51Z</time></trkpt>
<trkpt lat="30.045709" lon="102.765438">
<time>2015-08-06T00:05:52Z</time></trkpt>
<trkpt lat="30.045799" lon="102.765508">
<time>2015-08-06T00:05:53Z</time></trkpt>
<trkpt lat="30.045889" lon="102.765628">
<time>2015-08-06T00:05:54Z</time></trkpt>
<trkpt lat="30.045949" lon="102.765738">
<time>2015-08-06T00:05:55Z</time></trkpt>
<trkpt lat="30.046009" lon="102.765858">
<time>2015-08-06T00:05:56Z</time></trkpt>
<trkpt lat="30.046029" lon="102.766028">
<time>2015-08-06T00:05:57Z</time></trkpt>
<trkpt lat="30.046039" lon="102.766118">
<time>2015-08-06T00:05:58Z</time></trkpt>
<trkpt lat="30.046039" lon="102.766168">
<time>2015-08-06T00:05:59Z</time></trkpt>
<trkpt lat="30.04604" lon="102.766518">
<time>2015-08-06T00:06:00Z</time></trkpt>
<trkpt lat="30.04607" lon="102.766808">
<time>2015-08-06T00:06:01Z</time></trkpt>
<trkpt lat="30.04609" lon="102.766958">
<time>2015-08-06T00:06:02Z</time></trkpt>
<trkpt lat="30.04614" lon="102.767138">
<time>2015-08-06T00:06:03Z</time></trkpt>
<trkpt lat="30.04619" lon="102.767288">
<time>2015-08-06T00:06:04Z</time></trkpt>
<trkpt lat="30.04629" lon="102.767478">
<time>2015-08-06T00:06:05Z</time></trkpt>
<trkpt lat="30.04642" lon="102.767658">
<time>2015-08-06T00:06:06Z</time></trkpt>
<trkpt lat="30.04652" lon="102.767758">
<time>2015-08-06T00:06:07Z</time></trkpt>
<trkpt lat="30.046661" lon="102.767848">
<time>2015-08-06T00:06:08Z</time></trkpt>
<trkpt lat="30.046841" lon="102.767948">
<time>2015-08-06T00:06:09Z</time></trkpt>
<trkpt lat="30.046991" lon="102.768018">
<time>2015-08-06T00:06:10Z</time></trkpt>
<trkpt lat="30.047301" lon="102.768128">
<time>2015-08-06T00:06:11Z</time></trkpt>
<trkpt lat="30.047301" lon="102.768128">
<time>2015-08-06T00:06:12Z</time></trkpt>
<trkpt lat="30.047461" lon="102.768158">
<time>2015-08-06T00:06:13Z</time></trkpt>
<trkpt lat="30.048121" lon="102.768408">
<time>2015-08-06T00:06:14Z</time></trkpt>
<trkpt lat="30.049972" lon="102.769128">
<time>2015-08-06T00:06:15Z</time></trkpt>
<trkpt lat="30.050592" lon="102.769378">
<time>2015-08-06T00:06:16Z</time></trkpt>
<trkpt lat="30.051962" lon="102.769938">
<time>2015-08-06T00:06:17Z</time></trkpt>
<trkpt lat="30.052062" lon="102.769978">
<time>2015-08-06T00:06:18Z</time></trkpt>
<trkpt lat="30.052072" lon="102.769958">
<time>2015-08-06T00:06:19Z</time></trkpt>
<trkpt lat="30.052112" lon="102.769918">
<time>2015-08-06T00:06:20Z</time></trkpt>
<trkpt lat="30.052132" lon="102.769898">
<time>2015-08-06T00:06:21Z</time></trkpt>
<trkpt lat="30.052162" lon="102.769878">
<time>2015-08-06T00:06:22Z</time></trkpt>
<trkpt lat="30.052202" lon="102.769868">
<time>2015-08-06T00:06:23Z</time></trkpt>
<trkpt lat="30.052232" lon="102.769868">
<time>2015-08-06T00:06:24Z</time></trkpt>
<trkpt lat="30.052272" lon="102.769868">
<time>2015-08-06T00:06:25Z</time></trkpt>
<trkpt lat="30.052302" lon="102.769878">
<time>2015-08-06T00:06:26Z</time></trkpt>
<trkpt lat="30.052322" lon="102.769888">
<time>2015-08-06T00:06:27Z</time></trkpt>
<trkpt lat="30.052332" lon="102.769908">
<time>2015-08-06T00:06:28Z</time></trkpt>
<trkpt lat="30.052342" lon="102.769918">
<time>2015-08-06T00:06:29Z</time></trkpt>
<trkpt lat="30.052352" lon="102.769918">
<time>2015-08-06T00:06:30Z</time></trkpt>
<trkpt lat="30.052472" lon="102.769808">
<time>2015-08-06T00:06:31Z</time></trkpt>
<trkpt lat="30.054481" lon="102.768068">
<time>2015-08-06T00:06:32Z</time></trkpt>
<trkpt lat="30.054611" lon="102.767968">
<time>2015-08-06T00:06:33Z</time></trkpt>
<trkpt lat="30.054741" lon="102.767848">
<time>2015-08-06T00:06:34Z</time></trkpt>
<trkpt lat="30.05497" lon="102.767668">
<time>2015-08-06T00:06:35Z</time></trkpt>
<trkpt lat="30.05545" lon="102.767288">
<time>2015-08-06T00:06:36Z</time></trkpt>
<trkpt lat="30.05562" lon="102.767148">
<time>2015-08-06T00:06:37Z</time></trkpt>
<trkpt lat="30.05583" lon="102.766957">
<time>2015-08-06T00:06:38Z</time></trkpt>
<trkpt lat="30.05622" lon="102.766597">
<time>2015-08-06T00:06:39Z</time></trkpt>
<trkpt lat="30.05643" lon="102.766387">
<time>2015-08-06T00:06:40Z</time></trkpt>
<trkpt lat="30.0565" lon="102.766317">
<time>2015-08-06T00:06:41Z</time></trkpt>
<trkpt lat="30.05663" lon="102.766197">
<time>2015-08-06T00:06:42Z</time></trkpt>
<trkpt lat="30.057499" lon="102.765417">
<time>2015-08-06T00:06:43Z</time></trkpt>
<trkpt lat="30.057899" lon="102.765077">
<time>2015-08-06T00:06:44Z</time></trkpt>
<trkpt lat="30.058429" lon="102.764607">
<time>2015-08-06T00:06:45Z</time></trkpt>
<trkpt lat="30.058828" lon="102.764257">
<time>2015-08-06T00:06:46Z</time></trkpt>
<trkpt lat="30.059348" lon="102.763807">
<time>2015-08-06T00:06:47Z</time></trkpt>
<trkpt lat="30.059648" lon="102.763547">
<time>2015-08-06T00:06:48Z</time></trkpt>
<trkpt lat="30.060737" lon="102.762597">
<time>2015-08-06T00:06:49Z</time></trkpt>
<trkpt lat="30.060957" lon="102.762397">
<time>2015-08-06T00:06:50Z</time></trkpt>
<trkpt lat="30.061627" lon="102.761817">
<time>2015-08-06T00:06:51Z</time></trkpt>
<trkpt lat="30.061757" lon="102.761697">
<time>2015-08-06T00:06:52Z</time></trkpt>
<trkpt lat="30.062237" lon="102.761287">
<time>2015-08-06T00:06:53Z</time></trkpt>
<trkpt lat="30.062247" lon="102.761277">
<time>2015-08-06T00:06:54Z</time></trkpt>
<trkpt lat="30.062377" lon="102.761157">
<time>2015-08-06T00:06:55Z</time></trkpt>
<trkpt lat="30.062507" lon="102.761017">
<time>2015-08-06T00:06:56Z</time></trkpt>
<trkpt lat="30.062577" lon="102.760937">
<time>2015-08-06T00:06:57Z</time></trkpt>
<trkpt lat="30.062597" lon="102.760917">
<time>2015-08-06T00:06:58Z</time></trkpt>
<trkpt lat="30.062657" lon="102.760817">
<time>2015-08-06T00:06:59Z</time></trkpt>
<trkpt lat="30.062836" lon="102.760467">
<time>2015-08-06T00:07:00Z</time></trkpt>
<trkpt lat="30.062886" lon="102.760357">
<time>2015-08-06T00:07:01Z</time></trkpt>
<trkpt lat="30.063666" lon="102.758727">
<time>2015-08-06T00:07:02Z</time></trkpt>
<trkpt lat="30.063786" lon="102.758427">
<time>2015-08-06T00:07:03Z</time></trkpt>
<trkpt lat="30.063906" lon="102.758187">
<time>2015-08-06T00:07:04Z</time></trkpt>
<trkpt lat="30.064085" lon="102.757817">
<time>2015-08-06T00:07:05Z</time></trkpt>
<trkpt lat="30.064185" lon="102.757627">
<time>2015-08-06T00:07:06Z</time></trkpt>
<trkpt lat="30.064235" lon="102.757547">
<time>2015-08-06T00:07:07Z</time></trkpt>
<trkpt lat="30.064315" lon="102.757467">
<time>2015-08-06T00:07:08Z</time></trkpt>
<trkpt lat="30.064415" lon="102.757367">
<time>2015-08-06T00:07:09Z</time></trkpt>
<trkpt lat="30.064805" lon="102.757017">
<time>2015-08-06T00:07:10Z</time></trkpt>
<trkpt lat="30.064915" lon="102.756917">
<time>2015-08-06T00:07:11Z</time></trkpt>
<trkpt lat="30.065085" lon="102.756767">
<time>2015-08-06T00:07:12Z</time></trkpt>
<trkpt lat="30.065165" lon="102.756707">
<time>2015-08-06T00:07:13Z</time></trkpt>
<trkpt lat="30.065255" lon="102.756627">
<time>2015-08-06T00:07:14Z</time></trkpt>
<trkpt lat="30.065805" lon="102.756157">
<time>2015-08-06T00:07:15Z</time></trkpt>
<trkpt lat="30.066075" lon="102.755917">
<time>2015-08-06T00:07:16Z</time></trkpt>
<trkpt lat="30.066125" lon="102.755877">
<time>2015-08-06T00:07:17Z</time></trkpt>
<trkpt lat="30.066225" lon="102.755807">
<time>2015-08-06T00:07:18Z</time></trkpt>
<trkpt lat="30.066325" lon="102.755737">
<time>2015-08-06T00:07:19Z</time></trkpt>
<trkpt lat="30.066465" lon="102.755657">
<time>2015-08-06T00:07:20Z</time></trkpt>
<trkpt lat="30.066765" lon="102.755507">
<time>2015-08-06T00:07:21Z</time></trkpt>
<trkpt lat="30.067035" lon="102.755387">
<time>2015-08-06T00:07:22Z</time></trkpt>
<trkpt lat="30.067395" lon="102.755227">
<time>2015-08-06T00:07:23Z</time></trkpt>
<trkpt lat="30.067685" lon="102.755117">
<time>2015-08-06T00:07:24Z</time></trkpt>
<trkpt lat="30.067835" lon="102.755037">
<time>2015-08-06T00:07:25Z</time></trkpt>
<trkpt lat="30.067915" lon="102.754997">
<time>2015-08-06T00:07:26Z</time></trkpt>
<trkpt lat="30.068075" lon="102.754917">
<time>2015-08-06T00:07:27Z</time></trkpt>
<trkpt lat="30.068175" lon="102.754867">
<time>2015-08-06T00:07:28Z</time></trkpt>
<trkpt lat="30.068265" lon="102.754817">
<time>2015-08-06T00:07:29Z</time></trkpt>
<trkpt lat="30.068345" lon="102.754747">
<time>2015-08-06T00:07:30Z</time></trkpt>
<trkpt lat="30.068365" lon="102.754727">
<time>2015-08-06T00:07:31Z</time></trkpt>
<trkpt lat="30.068445" lon="102.754647">
<time>2015-08-06T00:07:32Z</time></trkpt>
<trkpt lat="30.068514" lon="102.754557">
<time>2015-08-06T00:07:33Z</time></trkpt>
<trkpt lat="30.068584" lon="102.754477">
<time>2015-08-06T00:07:34Z</time></trkpt>
<trkpt lat="30.068664" lon="102.754367">
<time>2015-08-06T00:07:35Z</time></trkpt>
<trkpt lat="30.068774" lon="102.754167">
<time>2015-08-06T00:07:36Z</time></trkpt>
<trkpt lat="30.068864" lon="102.753957">
<time>2015-08-06T00:07:37Z</time></trkpt>
<trkpt lat="30.068944" lon="102.753698">
<time>2015-08-06T00:07:38Z</time></trkpt>
<trkpt lat="30.069034" lon="102.753368">
<time>2015-08-06T00:07:39Z</time></trkpt>
<trkpt lat="30.069164" lon="102.752928">
<time>2015-08-06T00:07:40Z</time></trkpt>
<trkpt lat="30.069764" lon="102.750849">
<time>2015-08-06T00:07:41Z</time></trkpt>
<trkpt lat="30.069824" lon="102.750669">
<time>2015-08-06T00:07:42Z</time></trkpt>
<trkpt lat="30.070054" lon="102.750009">
<time>2015-08-06T00:07:43Z</time></trkpt>
<trkpt lat="30.070334" lon="102.749249">
<time>2015-08-06T00:07:44Z</time></trkpt>
<trkpt lat="30.070504" lon="102.74875">
<time>2015-08-06T00:07:45Z</time></trkpt>
<trkpt lat="30.070724" lon="102.74809">
<time>2015-08-06T00:07:46Z</time></trkpt>
<trkpt lat="30.070814" lon="102.74778">
<time>2015-08-06T00:07:47Z</time></trkpt>
<trkpt lat="30.070914" lon="102.74743">
<time>2015-08-06T00:07:48Z</time></trkpt>
<trkpt lat="30.070964" lon="102.74722">
<time>2015-08-06T00:07:49Z</time></trkpt>
<trkpt lat="30.071024" lon="102.746991">
<time>2015-08-06T00:07:50Z</time></trkpt>
<trkpt lat="30.071094" lon="102.746831">
<time>2015-08-06T00:07:51Z</time></trkpt>
<trkpt lat="30.071104" lon="102.746761">
<time>2015-08-06T00:07:52Z</time></trkpt>
<trkpt lat="30.071124" lon="102.746691">
<time>2015-08-06T00:07:53Z</time></trkpt>
<trkpt lat="30.071144" lon="102.746621">
<time>2015-08-06T00:07:54Z</time></trkpt>
<trkpt lat="30.071154" lon="102.746531">
<time>2015-08-06T00:07:55Z</time></trkpt>
<trkpt lat="30.071164" lon="102.746451">
<time>2015-08-06T00:07:56Z</time></trkpt>
<trkpt lat="30.071194" lon="102.746131">
<time>2015-08-06T00:07:57Z</time></trkpt>
<trkpt lat="30.071204" lon="102.746041">
<time>2015-08-06T00:07:58Z</time></trkpt>
<trkpt lat="30.071224" lon="102.745931">
<time>2015-08-06T00:07:59Z</time></trkpt>
<trkpt lat="30.071234" lon="102.745891">
<time>2015-08-06T00:08:00Z</time></trkpt>
<trkpt lat="30.071244" lon="102.745861">
<time>2015-08-06T00:08:01Z</time></trkpt>
<trkpt lat="30.071254" lon="102.745801">
<time>2015-08-06T00:08:02Z</time></trkpt>
<trkpt lat="30.071294" lon="102.745711">
<time>2015-08-06T00:08:03Z</time></trkpt>
<trkpt lat="30.071334" lon="102.745631">
<time>2015-08-06T00:08:04Z</time></trkpt>
<trkpt lat="30.071394" lon="102.745531">
<time>2015-08-06T00:08:05Z</time></trkpt>
<trkpt lat="30.071474" lon="102.745382">
<time>2015-08-06T00:08:06Z</time></trkpt>
<trkpt lat="30.071604" lon="102.745152">
<time>2015-08-06T00:08:07Z</time></trkpt>
<trkpt lat="30.071804" lon="102.744782">
<time>2015-08-06T00:08:08Z</time></trkpt>
<trkpt lat="30.071834" lon="102.744722">
<time>2015-08-06T00:08:09Z</time></trkpt>
<trkpt lat="30.071864" lon="102.744652">
<time>2015-08-06T00:08:10Z</time></trkpt>
<trkpt lat="30.071894" lon="102.744582">
<time>2015-08-06T00:08:11Z</time></trkpt>
<trkpt lat="30.071914" lon="102.744512">
<time>2015-08-06T00:08:12Z</time></trkpt>
<trkpt lat="30.072034" lon="102.744092">
<time>2015-08-06T00:08:13Z</time></trkpt>
<trkpt lat="30.072234" lon="102.743183">
<time>2015-08-06T00:08:14Z</time></trkpt>
<trkpt lat="30.072495" lon="102.742444">
<time>2015-08-06T00:08:15Z</time></trkpt>
<trkpt lat="30.072715" lon="102.741784">
<time>2015-08-06T00:08:16Z</time></trkpt>
<trkpt lat="30.072835" lon="102.741265">
<time>2015-08-06T00:08:17Z</time></trkpt>
<trkpt lat="30.072985" lon="102.740585">
<time>2015-08-06T00:08:18Z</time></trkpt>
<trkpt lat="30.073125" lon="102.739996">
<time>2015-08-06T00:08:19Z</time></trkpt>
<trkpt lat="30.073235" lon="102.739676">
<time>2015-08-06T00:08:20Z</time></trkpt>
<trkpt lat="30.073396" lon="102.739356">
<time>2015-08-06T00:08:21Z</time></trkpt>
<trkpt lat="30.073616" lon="102.738847">
<time>2015-08-06T00:08:22Z</time></trkpt>
<trkpt lat="30.073766" lon="102.738647">
<time>2015-08-06T00:08:23Z</time></trkpt>
<trkpt lat="30.073936" lon="102.738457">
<time>2015-08-06T00:08:24Z</time></trkpt>
<trkpt lat="30.074586" lon="102.738017">
<time>2015-08-06T00:08:25Z</time></trkpt>
<trkpt lat="30.075196" lon="102.737638">
<time>2015-08-06T00:08:26Z</time></trkpt>
<trkpt lat="30.075536" lon="102.737438">
<time>2015-08-06T00:08:27Z</time></trkpt>
<trkpt lat="30.075796" lon="102.737298">
<time>2015-08-06T00:08:28Z</time></trkpt>
<trkpt lat="30.076506" lon="102.737048">
<time>2015-08-06T00:08:29Z</time></trkpt>
<trkpt lat="30.076606" lon="102.736998">
<time>2015-08-06T00:08:30Z</time></trkpt>
<trkpt lat="30.076747" lon="102.736898">
<time>2015-08-06T00:08:31Z</time></trkpt>
<trkpt lat="30.076777" lon="102.736859">
<time>2015-08-06T00:08:32Z</time></trkpt>
<trkpt lat="30.076827" lon="102.736809">
<time>2015-08-06T00:08:33Z</time></trkpt>
<trkpt lat="30.077007" lon="102.736579">
<time>2015-08-06T00:08:34Z</time></trkpt>
<trkpt lat="30.077687" lon="102.73559">
<time>2015-08-06T00:08:35Z</time></trkpt>
<trkpt lat="30.077717" lon="102.73555">
<time>2015-08-06T00:08:36Z</time></trkpt>
<trkpt lat="30.078027" lon="102.7351">
<time>2015-08-06T00:08:37Z</time></trkpt>
<trkpt lat="30.078147" lon="102.734931">
<time>2015-08-06T00:08:38Z</time></trkpt>
<trkpt lat="30.078258" lon="102.734771">
<time>2015-08-06T00:08:39Z</time></trkpt>
<trkpt lat="30.078308" lon="102.734681">
<time>2015-08-06T00:08:40Z</time></trkpt>
<trkpt lat="30.078348" lon="102.734581">
<time>2015-08-06T00:08:41Z</time></trkpt>
<trkpt lat="30.078428" lon="102.734341">
<time>2015-08-06T00:08:42Z</time></trkpt>
<trkpt lat="30.078598" lon="102.733822">
<time>2015-08-06T00:08:43Z</time></trkpt>
<trkpt lat="30.078628" lon="102.733722">
<time>2015-08-06T00:08:44Z</time></trkpt>
<trkpt lat="30.078708" lon="102.733462">
<time>2015-08-06T00:08:45Z</time></trkpt>
<trkpt lat="30.078788" lon="102.733232">
<time>2015-08-06T00:08:46Z</time></trkpt>
<trkpt lat="30.078889" lon="102.732973">
<time>2015-08-06T00:08:47Z</time></trkpt>
<trkpt lat="30.078999" lon="102.732773">
<time>2015-08-06T00:08:48Z</time></trkpt>
<trkpt lat="30.079129" lon="102.732563">
<time>2015-08-06T00:08:49Z</time></trkpt>
<trkpt lat="30.079349" lon="102.732284">
<time>2015-08-06T00:08:50Z</time></trkpt>
<trkpt lat="30.079609" lon="102.731944">
<time>2015-08-06T00:08:51Z</time></trkpt>
<trkpt lat="30.079919" lon="102.731564">
<time>2015-08-06T00:08:52Z</time></trkpt>
<trkpt lat="30.08035" lon="102.731065">
<time>2015-08-06T00:08:53Z</time></trkpt>
<trkpt lat="30.08079" lon="102.730506">
<time>2015-08-06T00:08:54Z</time></trkpt>
<trkpt lat="30.08108" lon="102.730156">
<time>2015-08-06T00:08:55Z</time></trkpt>
<trkpt lat="30.081231" lon="102.729976">
<time>2015-08-06T00:08:56Z</time></trkpt>
<trkpt lat="30.081381" lon="102.729807">
<time>2015-08-06T00:08:57Z</time></trkpt>
<trkpt lat="30.081481" lon="102.729717">
<time>2015-08-06T00:08:58Z</time></trkpt>
<trkpt lat="30.081551" lon="102.729667">
<time>2015-08-06T00:08:59Z</time></trkpt>
<trkpt lat="30.081641" lon="102.729607">
<time>2015-08-06T00:09:00Z</time></trkpt>
<trkpt lat="30.081741" lon="102.729567">
<time>2015-08-06T00:09:01Z</time></trkpt>
<trkpt lat="30.081871" lon="102.729517">
<time>2015-08-06T00:09:02Z</time></trkpt>
<trkpt lat="30.082301" lon="102.729377">
<time>2015-08-06T00:09:03Z</time></trkpt>
<trkpt lat="30.082491" lon="102.729287">
<time>2015-08-06T00:09:04Z</time></trkpt>
<trkpt lat="30.082711" lon="102.729187">
<time>2015-08-06T00:09:05Z</time></trkpt>
<trkpt lat="30.083341" lon="102.728858">
<time>2015-08-06T00:09:06Z</time></trkpt>
<trkpt lat="30.083571" lon="102.728738">
<time>2015-08-06T00:09:07Z</time></trkpt>
<trkpt lat="30.083771" lon="102.728628">
<time>2015-08-06T00:09:08Z</time></trkpt>
<trkpt lat="30.083882" lon="102.728558">
<time>2015-08-06T00:09:09Z</time></trkpt>
<trkpt lat="30.084112" lon="102.728388">
<time>2015-08-06T00:09:10Z</time></trkpt>
<trkpt lat="30.084722" lon="102.727869">
<time>2015-08-06T00:09:11Z</time></trkpt>
<trkpt lat="30.085012" lon="102.727619">
<time>2015-08-06T00:09:12Z</time></trkpt>
<trkpt lat="30.085332" lon="102.72733">
<time>2015-08-06T00:09:13Z</time></trkpt>
<trkpt lat="30.085793" lon="102.72698">
<time>2015-08-06T00:09:14Z</time></trkpt>
<trkpt lat="30.085983" lon="102.726841">
<time>2015-08-06T00:09:15Z</time></trkpt>
<trkpt lat="30.086193" lon="102.726681">
<time>2015-08-06T00:09:16Z</time></trkpt>
<trkpt lat="30.086423" lon="102.726471">
<time>2015-08-06T00:09:17Z</time></trkpt>
<trkpt lat="30.086623" lon="102.726241">
<time>2015-08-06T00:09:18Z</time></trkpt>
<trkpt lat="30.086894" lon="102.725882">
<time>2015-08-06T00:09:19Z</time></trkpt>
<trkpt lat="30.086994" lon="102.725732">
<time>2015-08-06T00:09:20Z</time></trkpt>
<trkpt lat="30.087084" lon="102.725552">
<time>2015-08-06T00:09:21Z</time></trkpt>
<trkpt lat="30.087194" lon="102.725273">
<time>2015-08-06T00:09:22Z</time></trkpt>
<trkpt lat="30.087425" lon="102.724624">
<time>2015-08-06T00:09:23Z</time></trkpt>
<trkpt lat="30.087605" lon="102.724075">
<time>2015-08-06T00:09:24Z</time></trkpt>
<trkpt lat="30.087655" lon="102.723825">
<time>2015-08-06T00:09:25Z</time></trkpt>
<trkpt lat="30.087676" lon="102.723675">
<time>2015-08-06T00:09:26Z</time></trkpt>
<trkpt lat="30.087676" lon="102.723455">
<time>2015-08-06T00:09:27Z</time></trkpt>
<trkpt lat="30.087627" lon="102.722597">
<time>2015-08-06T00:09:28Z</time></trkpt>
<trkpt lat="30.087568" lon="102.721509">
<time>2015-08-06T00:09:29Z</time></trkpt>
<trkpt lat="30.087538" lon="102.721289">
<time>2015-08-06T00:09:30Z</time></trkpt>
<trkpt lat="30.087498" lon="102.721129">
<time>2015-08-06T00:09:31Z</time></trkpt>
<trkpt lat="30.087428" lon="102.72095">
<time>2015-08-06T00:09:32Z</time></trkpt>
<trkpt lat="30.087368" lon="102.72083">
<time>2015-08-06T00:09:33Z</time></trkpt>
<trkpt lat="30.087288" lon="102.72071">
<time>2015-08-06T00:09:34Z</time></trkpt>
<trkpt lat="30.087179" lon="102.72056">
<time>2015-08-06T00:09:35Z</time></trkpt>
<trkpt lat="30.087029" lon="102.720361">
<time>2015-08-06T00:09:36Z</time></trkpt>
<trkpt lat="30.086959" lon="102.720241">
<time>2015-08-06T00:09:37Z</time></trkpt>
<trkpt lat="30.086889" lon="102.720101">
<time>2015-08-06T00:09:38Z</time></trkpt>
<trkpt lat="30.086839" lon="102.719961">
<time>2015-08-06T00:09:39Z</time></trkpt>
<trkpt lat="30.086809" lon="102.719791">
<time>2015-08-06T00:09:40Z</time></trkpt>
<trkpt lat="30.08678" lon="102.719502">
<time>2015-08-06T00:09:41Z</time></trkpt>
<trkpt lat="30.08676" lon="102.719023">
<time>2015-08-06T00:09:42Z</time></trkpt>
<trkpt lat="30.08677" lon="102.718793">
<time>2015-08-06T00:09:43Z</time></trkpt>
<trkpt lat="30.086811" lon="102.718584">
<time>2015-08-06T00:09:44Z</time></trkpt>
<trkpt lat="30.086861" lon="102.718404">
<time>2015-08-06T00:09:45Z</time></trkpt>
<trkpt lat="30.086941" lon="102.718174">
<time>2015-08-06T00:09:46Z</time></trkpt>
<trkpt lat="30.087001" lon="102.718015">
<time>2015-08-06T00:09:47Z</time></trkpt>
<trkpt lat="30.087081" lon="102.717885">
<time>2015-08-06T00:09:48Z</time></trkpt>
<trkpt lat="30.087162" lon="102.717765">
<time>2015-08-06T00:09:49Z</time></trkpt>
<trkpt lat="30.087262" lon="102.717635">
<time>2015-08-06T00:09:50Z</time></trkpt>
<trkpt lat="30.087382" lon="102.717495">
<time>2015-08-06T00:09:51Z</time></trkpt>
<trkpt lat="30.087913" lon="102.716936">
<time>2015-08-06T00:09:52Z</time></trkpt>
<trkpt lat="30.088113" lon="102.716727">
<time>2015-08-06T00:09:53Z</time></trkpt>
<trkpt lat="30.088203" lon="102.716607">
<time>2015-08-06T00:09:54Z</time></trkpt>
<trkpt lat="30.088263" lon="102.716507">
<time>2015-08-06T00:09:55Z</time></trkpt>
<trkpt lat="30.088333" lon="102.716367">
<time>2015-08-06T00:09:56Z</time></trkpt>
<trkpt lat="30.088453" lon="102.716178">
<time>2015-08-06T00:09:57Z</time></trkpt>
<trkpt lat="30.088554" lon="102.716058">
<time>2015-08-06T00:09:58Z</time></trkpt>
<trkpt lat="30.088634" lon="102.715978">
<time>2015-08-06T00:09:59Z</time></trkpt>
<trkpt lat="30.088704" lon="102.715918">
<time>2015-08-06T00:10:00Z</time></trkpt>
<trkpt lat="30.088864" lon="102.715828">
<time>2015-08-06T00:10:01Z</time></trkpt>
<trkpt lat="30.089004" lon="102.715729">
<time>2015-08-06T00:10:02Z</time></trkpt>
<trkpt lat="30.089114" lon="102.715619">
<time>2015-08-06T00:10:03Z</time></trkpt>
<trkpt lat="30.089274" lon="102.715369">
<time>2015-08-06T00:10:04Z</time></trkpt>
<trkpt lat="30.089455" lon="102.71501">
<time>2015-08-06T00:10:05Z</time></trkpt>
<trkpt lat="30.089605" lon="102.71471">
<time>2015-08-06T00:10:06Z</time></trkpt>
<trkpt lat="30.089816" lon="102.714201">
<time>2015-08-06T00:10:07Z</time></trkpt>
<trkpt lat="30.089986" lon="102.713642">
<time>2015-08-06T00:10:08Z</time></trkpt>
<trkpt lat="30.090107" lon="102.713213">
<time>2015-08-06T00:10:09Z</time></trkpt>
<trkpt lat="30.090177" lon="102.712884">
<time>2015-08-06T00:10:10Z</time></trkpt>
<trkpt lat="30.090248" lon="102.712395">
<time>2015-08-06T00:10:11Z</time></trkpt>
<trkpt lat="30.090299" lon="102.711806">
<time>2015-08-06T00:10:12Z</time></trkpt>
<trkpt lat="30.090349" lon="102.711277">
<time>2015-08-06T00:10:13Z</time></trkpt>
<trkpt lat="30.09038" lon="102.710538">
<time>2015-08-06T00:10:14Z</time></trkpt>
<trkpt lat="30.090411" lon="102.710199">
<time>2015-08-06T00:10:15Z</time></trkpt>
<trkpt lat="30.090431" lon="102.710029">
<time>2015-08-06T00:10:16Z</time></trkpt>
<trkpt lat="30.090451" lon="102.70986">
<time>2015-08-06T00:10:17Z</time></trkpt>
<trkpt lat="30.090542" lon="102.70956">
<time>2015-08-06T00:10:18Z</time></trkpt>
<trkpt lat="30.090692" lon="102.709131">
<time>2015-08-06T00:10:19Z</time></trkpt>
<trkpt lat="30.091064" lon="102.708053">
<time>2015-08-06T00:10:20Z</time></trkpt>
<trkpt lat="30.091275" lon="102.707515">
<time>2015-08-06T00:10:21Z</time></trkpt>
<trkpt lat="30.091375" lon="102.707285">
<time>2015-08-06T00:10:22Z</time></trkpt>
<trkpt lat="30.091465" lon="102.707105">
<time>2015-08-06T00:10:23Z</time></trkpt>
<trkpt lat="30.091615" lon="102.706846">
<time>2015-08-06T00:10:24Z</time></trkpt>
<trkpt lat="30.091656" lon="102.706766">
<time>2015-08-06T00:10:25Z</time></trkpt>
<trkpt lat="30.091696" lon="102.706686">
<time>2015-08-06T00:10:26Z</time></trkpt>
<trkpt lat="30.091736" lon="102.706577">
<time>2015-08-06T00:10:27Z</time></trkpt>
<trkpt lat="30.091756" lon="102.706517">
<time>2015-08-06T00:10:28Z</time></trkpt>
<trkpt lat="30.091776" lon="102.706437">
<time>2015-08-06T00:10:29Z</time></trkpt>
<trkpt lat="30.091786" lon="102.706317">
<time>2015-08-06T00:10:30Z</time></trkpt>
<trkpt lat="30.091847" lon="102.705848">
<time>2015-08-06T00:10:31Z</time></trkpt>
<trkpt lat="30.091908" lon="102.705309">
<time>2015-08-06T00:10:32Z</time></trkpt>
<trkpt lat="30.091908" lon="102.705209">
<time>2015-08-06T00:10:33Z</time></trkpt>
<trkpt lat="30.091908" lon="102.70511">
<time>2015-08-06T00:10:34Z</time></trkpt>
<trkpt lat="30.091908" lon="102.70502">
<time>2015-08-06T00:10:35Z</time></trkpt>
<trkpt lat="30.091869" lon="102.704721">
<time>2015-08-06T00:10:36Z</time></trkpt>
<trkpt lat="30.091819" lon="102.704401">
<time>2015-08-06T00:10:37Z</time></trkpt>
<trkpt lat="30.09176" lon="102.704072">
<time>2015-08-06T00:10:38Z</time></trkpt>
<trkpt lat="30.09169" lon="102.703852">
<time>2015-08-06T00:10:39Z</time></trkpt>
<trkpt lat="30.09157" lon="102.703463">
<time>2015-08-06T00:10:40Z</time></trkpt>
<trkpt lat="30.091531" lon="102.703284">
<time>2015-08-06T00:10:41Z</time></trkpt>
<trkpt lat="30.091521" lon="102.703244">
<time>2015-08-06T00:10:42Z</time></trkpt>
<trkpt lat="30.091511" lon="102.703214">
<time>2015-08-06T00:10:43Z</time></trkpt>
<trkpt lat="30.091511" lon="102.703194">
<time>2015-08-06T00:10:44Z</time></trkpt>
<trkpt lat="30.091511" lon="102.703174">
<time>2015-08-06T00:10:45Z</time></trkpt>
<trkpt lat="30.091511" lon="102.703154">
<time>2015-08-06T00:10:46Z</time></trkpt>
<trkpt lat="30.091511" lon="102.703124">
<time>2015-08-06T00:10:47Z</time></trkpt>
<trkpt lat="30.091511" lon="102.703094">
<time>2015-08-06T00:10:48Z</time></trkpt>
<trkpt lat="30.091521" lon="102.703054">
<time>2015-08-06T00:10:49Z</time></trkpt>
<trkpt lat="30.091541" lon="102.703014">
<time>2015-08-06T00:10:50Z</time></trkpt>
<trkpt lat="30.091571" lon="102.702944">
<time>2015-08-06T00:10:51Z</time></trkpt>
<trkpt lat="30.091591" lon="102.702895">
<time>2015-08-06T00:10:52Z</time></trkpt>
<trkpt lat="30.091641" lon="102.702805">
<time>2015-08-06T00:10:53Z</time></trkpt>
<trkpt lat="30.091702" lon="102.702735">
<time>2015-08-06T00:10:54Z</time></trkpt>
<trkpt lat="30.091922" lon="102.702426">
<time>2015-08-06T00:10:55Z</time></trkpt>
<trkpt lat="30.092062" lon="102.702246">
<time>2015-08-06T00:10:56Z</time></trkpt>
<trkpt lat="30.092223" lon="102.702036">
<time>2015-08-06T00:10:57Z</time></trkpt>
<trkpt lat="30.092363" lon="102.701897">
<time>2015-08-06T00:10:58Z</time></trkpt>
<trkpt lat="30.092573" lon="102.701697">
<time>2015-08-06T00:10:59Z</time></trkpt>
<trkpt lat="30.092603" lon="102.701667">
<time>2015-08-06T00:11:00Z</time></trkpt>
<trkpt lat="30.092633" lon="102.701627">
<time>2015-08-06T00:11:01Z</time></trkpt>
<trkpt lat="30.092663" lon="102.701587">
<time>2015-08-06T00:11:02Z</time></trkpt>
<trkpt lat="30.092673" lon="102.701547">
<time>2015-08-06T00:11:03Z</time></trkpt>
<trkpt lat="30.092683" lon="102.701498">
<time>2015-08-06T00:11:04Z</time></trkpt>
<trkpt lat="30.092694" lon="102.701448">
<time>2015-08-06T00:11:05Z</time></trkpt>
<trkpt lat="30.092694" lon="102.701408">
<time>2015-08-06T00:11:06Z</time></trkpt>
<trkpt lat="30.092694" lon="102.701368">
<time>2015-08-06T00:11:07Z</time></trkpt>
<trkpt lat="30.092684" lon="102.701328">
<time>2015-08-06T00:11:08Z</time></trkpt>
<trkpt lat="30.092674" lon="102.701278">
<time>2015-08-06T00:11:09Z</time></trkpt>
<trkpt lat="30.092624" lon="102.701128">
<time>2015-08-06T00:11:10Z</time></trkpt>
<trkpt lat="30.092584" lon="102.701039">
<time>2015-08-06T00:11:11Z</time></trkpt>
<trkpt lat="30.092564" lon="102.700979">
<time>2015-08-06T00:11:12Z</time></trkpt>
<trkpt lat="30.092544" lon="102.700919">
<time>2015-08-06T00:11:13Z</time></trkpt>
<trkpt lat="30.092505" lon="102.700769">
<time>2015-08-06T00:11:14Z</time></trkpt>
<trkpt lat="30.092485" lon="102.70063">
<time>2015-08-06T00:11:15Z</time></trkpt>
<trkpt lat="30.092475" lon="102.70044">
<time>2015-08-06T00:11:16Z</time></trkpt>
<trkpt lat="30.092465" lon="102.700201">
<time>2015-08-06T00:11:17Z</time></trkpt>
<trkpt lat="30.092446" lon="102.700081">
<time>2015-08-06T00:11:18Z</time></trkpt>
<trkpt lat="30.092406" lon="102.699871">
<time>2015-08-06T00:11:19Z</time></trkpt>
<trkpt lat="30.092297" lon="102.699492">
<time>2015-08-06T00:11:20Z</time></trkpt>
<trkpt lat="30.092197" lon="102.699193">
<time>2015-08-06T00:11:21Z</time></trkpt>
<trkpt lat="30.092097" lon="102.698983">
<time>2015-08-06T00:11:22Z</time></trkpt>
<trkpt lat="30.092018" lon="102.698814">
<time>2015-08-06T00:11:23Z</time></trkpt>
<trkpt lat="30.091918" lon="102.698634">
<time>2015-08-06T00:11:24Z</time></trkpt>
<trkpt lat="30.091848" lon="102.698494">
<time>2015-08-06T00:11:25Z</time></trkpt>
<trkpt lat="30.091739" lon="102.698305">
<time>2015-08-06T00:11:26Z</time></trkpt>
<trkpt lat="30.091639" lon="102.698115">
<time>2015-08-06T00:11:27Z</time></trkpt>
<trkpt lat="30.091609" lon="102.698056">
<time>2015-08-06T00:11:28Z</time></trkpt>
<trkpt lat="30.091569" lon="102.697986">
<time>2015-08-06T00:11:29Z</time></trkpt>
<trkpt lat="30.091519" lon="102.697926">
<time>2015-08-06T00:11:30Z</time></trkpt>
<trkpt lat="30.091499" lon="102.697906">
<time>2015-08-06T00:11:31Z</time></trkpt>
<trkpt lat="30.091339" lon="102.697756">
<time>2015-08-06T00:11:32Z</time></trkpt>
<trkpt lat="30.0912" lon="102.697617">
<time>2015-08-06T00:11:33Z</time></trkpt>
<trkpt lat="30.09107" lon="102.697477">
<time>2015-08-06T00:11:34Z</time></trkpt>
<trkpt lat="30.09104" lon="102.697447">
<time>2015-08-06T00:11:35Z</time></trkpt>
<trkpt lat="30.09101" lon="102.697397">
<time>2015-08-06T00:11:36Z</time></trkpt>
<trkpt lat="30.09099" lon="102.697367">
<time>2015-08-06T00:11:37Z</time></trkpt>
<trkpt lat="30.09097" lon="102.697327">
<time>2015-08-06T00:11:38Z</time></trkpt>
<trkpt lat="30.09095" lon="102.697287">
<time>2015-08-06T00:11:39Z</time></trkpt>
<trkpt lat="30.09093" lon="102.697237">
<time>2015-08-06T00:11:40Z</time></trkpt>
<trkpt lat="30.090821" lon="102.696948">
<time>2015-08-06T00:11:41Z</time></trkpt>
<trkpt lat="30.090731" lon="102.696719">
<time>2015-08-06T00:11:42Z</time></trkpt>
<trkpt lat="30.090721" lon="102.696689">
<time>2015-08-06T00:11:43Z</time></trkpt>
<trkpt lat="30.090701" lon="102.696659">
<time>2015-08-06T00:11:44Z</time></trkpt>
<trkpt lat="30.090681" lon="102.696619">
<time>2015-08-06T00:11:45Z</time></trkpt>
<trkpt lat="30.090651" lon="102.696579">
<time>2015-08-06T00:11:46Z</time></trkpt>
<trkpt lat="30.090611" lon="102.696539">
<time>2015-08-06T00:11:47Z</time></trkpt>
<trkpt lat="30.090571" lon="102.696499">
<time>2015-08-06T00:11:48Z</time></trkpt>
<trkpt lat="30.090522" lon="102.696469">
<time>2015-08-06T00:11:49Z</time></trkpt>
<trkpt lat="30.090422" lon="102.696419">
<time>2015-08-06T00:11:50Z</time></trkpt>
<trkpt lat="30.090352" lon="102.696389">
<time>2015-08-06T00:11:51Z</time></trkpt>
<trkpt lat="30.090282" lon="102.69635">
<time>2015-08-06T00:11:52Z</time></trkpt>
<trkpt lat="30.090212" lon="102.69631">
<time>2015-08-06T00:11:53Z</time></trkpt>
<trkpt lat="30.090152" lon="102.69626">
<time>2015-08-06T00:11:54Z</time></trkpt>
<trkpt lat="30.090102" lon="102.69622">
<time>2015-08-06T00:11:55Z</time></trkpt>
<trkpt lat="30.090062" lon="102.69617">
<time>2015-08-06T00:11:56Z</time></trkpt>
<trkpt lat="30.090012" lon="102.69609">
<time>2015-08-06T00:11:57Z</time></trkpt>
<trkpt lat="30.089773" lon="102.695691">
<time>2015-08-06T00:11:58Z</time></trkpt>
<trkpt lat="30.089763" lon="102.695661">
<time>2015-08-06T00:11:59Z</time></trkpt>
<trkpt lat="30.089753" lon="102.695631">
<time>2015-08-06T00:12:00Z</time></trkpt>
<trkpt lat="30.089733" lon="102.695611">
<time>2015-08-06T00:12:01Z</time></trkpt>
<trkpt lat="30.089713" lon="102.695581">
<time>2015-08-06T00:12:02Z</time></trkpt>
<trkpt lat="30.089693" lon="102.695561">
<time>2015-08-06T00:12:03Z</time></trkpt>
<trkpt lat="30.089683" lon="102.695541">
<time>2015-08-06T00:12:04Z</time></trkpt>
<trkpt lat="30.089663" lon="102.695512">
<time>2015-08-06T00:12:05Z</time></trkpt>
<trkpt lat="30.089653" lon="102.695492">
<time>2015-08-06T00:12:06Z</time></trkpt>
<trkpt lat="30.089643" lon="102.695462">
<time>2015-08-06T00:12:07Z</time></trkpt>
<trkpt lat="30.089623" lon="102.695382">
<time>2015-08-06T00:12:08Z</time></trkpt>
<trkpt lat="30.089613" lon="102.695322">
<time>2015-08-06T00:12:09Z</time></trkpt>
<trkpt lat="30.089584" lon="102.695202">
<time>2015-08-06T00:12:10Z</time></trkpt>
<trkpt lat="30.089514" lon="102.694873">
<time>2015-08-06T00:12:11Z</time></trkpt>
<trkpt lat="30.089445" lon="102.694574">
<time>2015-08-06T00:12:12Z</time></trkpt>
<trkpt lat="30.089365" lon="102.694145">
<time>2015-08-06T00:12:13Z</time></trkpt>
<trkpt lat="30.089336" lon="102.693975">
<time>2015-08-06T00:12:14Z</time></trkpt>
<trkpt lat="30.089336" lon="102.693885">
<time>2015-08-06T00:12:15Z</time></trkpt>
<trkpt lat="30.089326" lon="102.693796">
<time>2015-08-06T00:12:16Z</time></trkpt>
<trkpt lat="30.089336" lon="102.693706">
<time>2015-08-06T00:12:17Z</time></trkpt>
<trkpt lat="30.089346" lon="102.693586">
<time>2015-08-06T00:12:18Z</time></trkpt>
<trkpt lat="30.089357" lon="102.693377">
<time>2015-08-06T00:12:19Z</time></trkpt>
<trkpt lat="30.089347" lon="102.693277">
<time>2015-08-06T00:12:20Z</time></trkpt>
<trkpt lat="30.089347" lon="102.693217">
<time>2015-08-06T00:12:21Z</time></trkpt>
<trkpt lat="30.089337" lon="102.693147">
<time>2015-08-06T00:12:22Z</time></trkpt>
<trkpt lat="30.089327" lon="102.693077">
<time>2015-08-06T00:12:23Z</time></trkpt>
<trkpt lat="30.089307" lon="102.692998">
<time>2015-08-06T00:12:24Z</time></trkpt>
<trkpt lat="30.089287" lon="102.692948">
<time>2015-08-06T00:12:25Z</time></trkpt>
<trkpt lat="30.089228" lon="102.692788">
<time>2015-08-06T00:12:26Z</time></trkpt>
<trkpt lat="30.089138" lon="102.692599">
<time>2015-08-06T00:12:27Z</time></trkpt>
<trkpt lat="30.089048" lon="102.692429">
<time>2015-08-06T00:12:28Z</time></trkpt>
<trkpt lat="30.088999" lon="102.692329">
<time>2015-08-06T00:12:29Z</time></trkpt>
<trkpt lat="30.088939" lon="102.69223">
<time>2015-08-06T00:12:30Z</time></trkpt>
<trkpt lat="30.088899" lon="102.69217">
<time>2015-08-06T00:12:31Z</time></trkpt>
<trkpt lat="30.088869" lon="102.69213">
<time>2015-08-06T00:12:32Z</time></trkpt>
<trkpt lat="30.088829" lon="102.69209">
<time>2015-08-06T00:12:33Z</time></trkpt>
<trkpt lat="30.088759" lon="102.69202">
<time>2015-08-06T00:12:34Z</time></trkpt>
<trkpt lat="30.088639" lon="102.69192">
<time>2015-08-06T00:12:35Z</time></trkpt>
<trkpt lat="30.088589" lon="102.69186">
<time>2015-08-06T00:12:36Z</time></trkpt>
<trkpt lat="30.088529" lon="102.691801">
<time>2015-08-06T00:12:37Z</time></trkpt>
<trkpt lat="30.08849" lon="102.691751">
<time>2015-08-06T00:12:38Z</time></trkpt>
<trkpt lat="30.08846" lon="102.691691">
<time>2015-08-06T00:12:39Z</time></trkpt>
<trkpt lat="30.08842" lon="102.691621">
<time>2015-08-06T00:12:40Z</time></trkpt>
<trkpt lat="30.08839" lon="102.691551">
<time>2015-08-06T00:12:41Z</time></trkpt>
<trkpt lat="30.08837" lon="102.691461">
<time>2015-08-06T00:12:42Z</time></trkpt>
<trkpt lat="30.08835" lon="102.691352">
<time>2015-08-06T00:12:43Z</time></trkpt>
<trkpt lat="30.088331" lon="102.690923">
<time>2015-08-06T00:12:44Z</time></trkpt>
<trkpt lat="30.088313" lon="102.689905">
<time>2015-08-06T00:12:45Z</time></trkpt>
<trkpt lat="30.088304" lon="102.689008">
<time>2015-08-06T00:12:46Z</time></trkpt>
<trkpt lat="30.088285" lon="102.688459">
<time>2015-08-06T00:12:47Z</time></trkpt>
<trkpt lat="30.088266" lon="102.688279">
<time>2015-08-06T00:12:48Z</time></trkpt>
<trkpt lat="30.088256" lon="102.6882">
<time>2015-08-06T00:12:49Z</time></trkpt>
<trkpt lat="30.088246" lon="102.68813">
<time>2015-08-06T00:12:50Z</time></trkpt>
<trkpt lat="30.088226" lon="102.68806">
<time>2015-08-06T00:12:51Z</time></trkpt>
<trkpt lat="30.088206" lon="102.688">
<time>2015-08-06T00:12:52Z</time></trkpt>
<trkpt lat="30.088176" lon="102.68794">
<time>2015-08-06T00:12:53Z</time></trkpt>
<trkpt lat="30.088146" lon="102.68785">
<time>2015-08-06T00:12:54Z</time></trkpt>
<trkpt lat="30.088077" lon="102.687721">
<time>2015-08-06T00:12:55Z</time></trkpt>
<trkpt lat="30.087957" lon="102.687471">
<time>2015-08-06T00:12:56Z</time></trkpt>
<trkpt lat="30.087937" lon="102.687412">
<time>2015-08-06T00:12:57Z</time></trkpt>
<trkpt lat="30.087917" lon="102.687342">
<time>2015-08-06T00:12:58Z</time></trkpt>
<trkpt lat="30.087907" lon="102.687292">
<time>2015-08-06T00:12:59Z</time></trkpt>
<trkpt lat="30.087888" lon="102.687232">
<time>2015-08-06T00:13:00Z</time></trkpt>
<trkpt lat="30.087878" lon="102.687152">
<time>2015-08-06T00:13:01Z</time></trkpt>
<trkpt lat="30.087868" lon="102.687052">
<time>2015-08-06T00:13:02Z</time></trkpt>
<trkpt lat="30.087858" lon="102.686883">
<time>2015-08-06T00:13:03Z</time></trkpt>
<trkpt lat="30.087848" lon="102.686833">
<time>2015-08-06T00:13:04Z</time></trkpt>
<trkpt lat="30.087848" lon="102.686773">
<time>2015-08-06T00:13:05Z</time></trkpt>
<trkpt lat="30.087838" lon="102.686723">
<time>2015-08-06T00:13:06Z</time></trkpt>
<trkpt lat="30.087829" lon="102.686673">
<time>2015-08-06T00:13:07Z</time></trkpt>
<trkpt lat="30.087819" lon="102.686624">
<time>2015-08-06T00:13:08Z</time></trkpt>
<trkpt lat="30.087799" lon="102.686574">
<time>2015-08-06T00:13:09Z</time></trkpt>
<trkpt lat="30.087749" lon="102.686464">
<time>2015-08-06T00:13:10Z</time></trkpt>
<trkpt lat="30.087709" lon="102.686374">
<time>2015-08-06T00:13:11Z</time></trkpt>
<trkpt lat="30.087639" lon="102.686235">
<time>2015-08-06T00:13:12Z</time></trkpt>
<trkpt lat="30.087609" lon="102.686165">
<time>2015-08-06T00:13:13Z</time></trkpt>
<trkpt lat="30.08759" lon="102.686105">
<time>2015-08-06T00:13:14Z</time></trkpt>
<trkpt lat="30.08757" lon="102.686005">
<time>2015-08-06T00:13:15Z</time></trkpt>
<trkpt lat="30.08755" lon="102.685925">
<time>2015-08-06T00:13:16Z</time></trkpt>
<trkpt lat="30.08754" lon="102.685855">
<time>2015-08-06T00:13:17Z</time></trkpt>
<trkpt lat="30.08753" lon="102.685766">
<time>2015-08-06T00:13:18Z</time></trkpt>
<trkpt lat="30.08753" lon="102.685626">
<time>2015-08-06T00:13:19Z</time></trkpt>
<trkpt lat="30.087521" lon="102.685417">
<time>2015-08-06T00:13:20Z</time></trkpt>
<trkpt lat="30.087521" lon="102.685307">
<time>2015-08-06T00:13:21Z</time></trkpt>
<trkpt lat="30.087511" lon="102.685197">
<time>2015-08-06T00:13:22Z</time></trkpt>
<trkpt lat="30.087501" lon="102.685127">
<time>2015-08-06T00:13:23Z</time></trkpt>
<trkpt lat="30.087482" lon="102.685048">
<time>2015-08-06T00:13:24Z</time></trkpt>
<trkpt lat="30.087462" lon="102.684968">
<time>2015-08-06T00:13:25Z</time></trkpt>
<trkpt lat="30.087432" lon="102.684888">
<time>2015-08-06T00:13:26Z</time></trkpt>
<trkpt lat="30.087402" lon="102.684818">
<time>2015-08-06T00:13:27Z</time></trkpt>
<trkpt lat="30.087362" lon="102.684738">
<time>2015-08-06T00:13:28Z</time></trkpt>
<trkpt lat="30.087213" lon="102.684499">
<time>2015-08-06T00:13:29Z</time></trkpt>
<trkpt lat="30.087033" lon="102.68421">
<time>2015-08-06T00:13:30Z</time></trkpt>
<trkpt lat="30.086774" lon="102.683771">
<time>2015-08-06T00:13:31Z</time></trkpt>
<trkpt lat="30.086664" lon="102.683601">
<time>2015-08-06T00:13:32Z</time></trkpt>
<trkpt lat="30.086614" lon="102.683531">
<time>2015-08-06T00:13:33Z</time></trkpt>
<trkpt lat="30.086564" lon="102.683462">
<time>2015-08-06T00:13:34Z</time></trkpt>
<trkpt lat="30.086525" lon="102.683422">
<time>2015-08-06T00:13:35Z</time></trkpt>
<trkpt lat="30.086485" lon="102.683382">
<time>2015-08-06T00:13:36Z</time></trkpt>
<trkpt lat="30.086435" lon="102.683352">
<time>2015-08-06T00:13:37Z</time></trkpt>
<trkpt lat="30.086395" lon="102.683322">
<time>2015-08-06T00:13:38Z</time></trkpt>
<trkpt lat="30.086275" lon="102.683232">
<time>2015-08-06T00:13:39Z</time></trkpt>
<trkpt lat="30.086205" lon="102.683192">
<time>2015-08-06T00:13:40Z</time></trkpt>
<trkpt lat="30.086125" lon="102.683142">
<time>2015-08-06T00:13:41Z</time></trkpt>
<trkpt lat="30.086055" lon="102.683073">
<time>2015-08-06T00:13:42Z</time></trkpt>
<trkpt lat="30.086005" lon="102.683023">
<time>2015-08-06T00:13:43Z</time></trkpt>
<trkpt lat="30.085965" lon="102.682973">
<time>2015-08-06T00:13:44Z</time></trkpt>
<trkpt lat="30.085925" lon="102.682913">
<time>2015-08-06T00:13:45Z</time></trkpt>
<trkpt lat="30.085876" lon="102.682843">
<time>2015-08-06T00:13:46Z</time></trkpt>
<trkpt lat="30.085826" lon="102.682773">
<time>2015-08-06T00:13:47Z</time></trkpt>
<trkpt lat="30.085786" lon="102.682704">
<time>2015-08-06T00:13:48Z</time></trkpt>
<trkpt lat="30.085766" lon="102.682664">
<time>2015-08-06T00:13:49Z</time></trkpt>
<trkpt lat="30.085736" lon="102.682614">
<time>2015-08-06T00:13:50Z</time></trkpt>
<trkpt lat="30.085706" lon="102.682544">
<time>2015-08-06T00:13:51Z</time></trkpt>
<trkpt lat="30.085676" lon="102.682464">
<time>2015-08-06T00:13:52Z</time></trkpt>
<trkpt lat="30.085666" lon="102.682414">
<time>2015-08-06T00:13:53Z</time></trkpt>
<trkpt lat="30.085627" lon="102.682255">
<time>2015-08-06T00:13:54Z</time></trkpt>
<trkpt lat="30.085597" lon="102.682075">
<time>2015-08-06T00:13:55Z</time></trkpt>
<trkpt lat="30.085587" lon="102.682025">
<time>2015-08-06T00:13:56Z</time></trkpt>
<trkpt lat="30.085577" lon="102.681985">
<time>2015-08-06T00:13:57Z</time></trkpt>
<trkpt lat="30.085567" lon="102.681946">
<time>2015-08-06T00:13:58Z</time></trkpt>
<trkpt lat="30.085557" lon="102.681916">
<time>2015-08-06T00:13:59Z</time></trkpt>
<trkpt lat="30.085547" lon="102.681896">
<time>2015-08-06T00:14:00Z</time></trkpt>
<trkpt lat="30.085537" lon="102.681876">
<time>2015-08-06T00:14:01Z</time></trkpt>
<trkpt lat="30.085517" lon="102.681846">
<time>2015-08-06T00:14:02Z</time></trkpt>
<trkpt lat="30.085498" lon="102.681806">
<time>2015-08-06T00:14:03Z</time></trkpt>
<trkpt lat="30.085458" lon="102.681766">
<time>2015-08-06T00:14:04Z</time></trkpt>
<trkpt lat="30.085428" lon="102.681746">
<time>2015-08-06T00:14:05Z</time></trkpt>
<trkpt lat="30.085398" lon="102.681726">
<time>2015-08-06T00:14:06Z</time></trkpt>
<trkpt lat="30.085368" lon="102.681706">
<time>2015-08-06T00:14:07Z</time></trkpt>
<trkpt lat="30.085328" lon="102.681686">
<time>2015-08-06T00:14:08Z</time></trkpt>
<trkpt lat="30.085298" lon="102.681676">
<time>2015-08-06T00:14:09Z</time></trkpt>
<trkpt lat="30.085248" lon="102.681676">
<time>2015-08-06T00:14:10Z</time></trkpt>
<trkpt lat="30.085218" lon="102.681666">
<time>2015-08-06T00:14:11Z</time></trkpt>
<trkpt lat="30.085178" lon="102.681666">
<time>2015-08-06T00:14:12Z</time></trkpt>
<trkpt lat="30.085128" lon="102.681666">
<time>2015-08-06T00:14:13Z</time></trkpt>
<trkpt lat="30.085018" lon="102.681666">
<time>2015-08-06T00:14:14Z</time></trkpt>
<trkpt lat="30.084968" lon="102.681666">
<time>2015-08-06T00:14:15Z</time></trkpt>
<trkpt lat="30.084938" lon="102.681666">
<time>2015-08-06T00:14:16Z</time></trkpt>
<trkpt lat="30.084898" lon="102.681656">
<time>2015-08-06T00:14:17Z</time></trkpt>
<trkpt lat="30.084868" lon="102.681636">
<time>2015-08-06T00:14:18Z</time></trkpt>
<trkpt lat="30.084818" lon="102.681626">
<time>2015-08-06T00:14:19Z</time></trkpt>
<trkpt lat="30.084788" lon="102.681606">
<time>2015-08-06T00:14:20Z</time></trkpt>
<trkpt lat="30.084748" lon="102.681577">
<time>2015-08-06T00:14:21Z</time></trkpt>
<trkpt lat="30.084668" lon="102.681507">
<time>2015-08-06T00:14:22Z</time></trkpt>
<trkpt lat="30.084379" lon="102.681208">
<time>2015-08-06T00:14:23Z</time></trkpt>
<trkpt lat="30.084159" lon="102.680988">
<time>2015-08-06T00:14:24Z</time></trkpt>
<trkpt lat="30.083979" lon="102.680838">
<time>2015-08-06T00:14:25Z</time></trkpt>
<trkpt lat="30.0837" lon="102.680609">
<time>2015-08-06T00:14:26Z</time></trkpt>
<trkpt lat="30.08334" lon="102.6803">
<time>2015-08-06T00:14:27Z</time></trkpt>
<trkpt lat="30.082761" lon="102.679821">
<time>2015-08-06T00:14:28Z</time></trkpt>
<trkpt lat="30.082711" lon="102.679791">
<time>2015-08-06T00:14:29Z</time></trkpt>
<trkpt lat="30.082581" lon="102.679672">
<time>2015-08-06T00:14:30Z</time></trkpt>
<trkpt lat="30.082502" lon="102.679592">
<time>2015-08-06T00:14:31Z</time></trkpt>
<trkpt lat="30.082412" lon="102.679472">
<time>2015-08-06T00:14:32Z</time></trkpt>
<trkpt lat="30.082352" lon="102.679372">
<time>2015-08-06T00:14:33Z</time></trkpt>
<trkpt lat="30.082262" lon="102.679203">
<time>2015-08-06T00:14:34Z</time></trkpt>
<trkpt lat="30.082083" lon="102.678824">
<time>2015-08-06T00:14:35Z</time></trkpt>
<trkpt lat="30.081954" lon="102.678564">
<time>2015-08-06T00:14:36Z</time></trkpt>
<trkpt lat="30.081884" lon="102.678455">
<time>2015-08-06T00:14:37Z</time></trkpt>
<trkpt lat="30.081814" lon="102.678345">
<time>2015-08-06T00:14:38Z</time></trkpt>
<trkpt lat="30.081734" lon="102.678245">
<time>2015-08-06T00:14:39Z</time></trkpt>
<trkpt lat="30.081654" lon="102.678146">
<time>2015-08-06T00:14:40Z</time></trkpt>
<trkpt lat="30.081455" lon="102.677916">
<time>2015-08-06T00:14:41Z</time></trkpt>
<trkpt lat="30.081325" lon="102.677747">
<time>2015-08-06T00:14:42Z</time></trkpt>
<trkpt lat="30.081225" lon="102.677587">
<time>2015-08-06T00:14:43Z</time></trkpt>
<trkpt lat="30.081156" lon="102.677457">
<time>2015-08-06T00:14:44Z</time></trkpt>
<trkpt lat="30.081126" lon="102.677378">
<time>2015-08-06T00:14:45Z</time></trkpt>
<trkpt lat="30.081086" lon="102.677288">
<time>2015-08-06T00:14:46Z</time></trkpt>
<trkpt lat="30.081056" lon="102.677208">
<time>2015-08-06T00:14:47Z</time></trkpt>
<trkpt lat="30.081036" lon="102.677108">
<time>2015-08-06T00:14:48Z</time></trkpt>
<trkpt lat="30.081007" lon="102.676969">
<time>2015-08-06T00:14:49Z</time></trkpt>
<trkpt lat="30.080997" lon="102.676899">
<time>2015-08-06T00:14:50Z</time></trkpt>
<trkpt lat="30.080997" lon="102.676809">
<time>2015-08-06T00:14:51Z</time></trkpt>
<trkpt lat="30.080988" lon="102.67649">
<time>2015-08-06T00:14:52Z</time></trkpt>
<trkpt lat="30.080998" lon="102.67629">
<time>2015-08-06T00:14:53Z</time></trkpt>
<trkpt lat="30.080998" lon="102.676221">
<time>2015-08-06T00:14:54Z</time></trkpt>
<trkpt lat="30.080988" lon="102.676141">
<time>2015-08-06T00:14:55Z</time></trkpt>
<trkpt lat="30.080988" lon="102.676061">
<time>2015-08-06T00:14:56Z</time></trkpt>
<trkpt lat="30.080978" lon="102.676001">
<time>2015-08-06T00:14:57Z</time></trkpt>
<trkpt lat="30.080968" lon="102.675971">
<time>2015-08-06T00:14:58Z</time></trkpt>
<trkpt lat="30.080949" lon="102.675921">
<time>2015-08-06T00:14:59Z</time></trkpt>
<trkpt lat="30.080929" lon="102.675872">
<time>2015-08-06T00:15:00Z</time></trkpt>
<trkpt lat="30.080899" lon="102.675782">
<time>2015-08-06T00:15:01Z</time></trkpt>
<trkpt lat="30.080839" lon="102.675692">
<time>2015-08-06T00:15:02Z</time></trkpt>
<trkpt lat="30.080779" lon="102.675582">
<time>2015-08-06T00:15:03Z</time></trkpt>
<trkpt lat="30.08061" lon="102.675303">
<time>2015-08-06T00:15:04Z</time></trkpt>
<trkpt lat="30.080251" lon="102.674745">
<time>2015-08-06T00:15:05Z</time></trkpt>
<trkpt lat="30.079952" lon="102.674246">
<time>2015-08-06T00:15:06Z</time></trkpt>
<trkpt lat="30.079673" lon="102.673747">
<time>2015-08-06T00:15:07Z</time></trkpt>
<trkpt lat="30.079553" lon="102.673548">
<time>2015-08-06T00:15:08Z</time></trkpt>
<trkpt lat="30.079404" lon="102.673268">
<time>2015-08-06T00:15:09Z</time></trkpt>
<trkpt lat="30.079354" lon="102.673149">
<time>2015-08-06T00:15:10Z</time></trkpt>
<trkpt lat="30.079324" lon="102.673039">
<time>2015-08-06T00:15:11Z</time></trkpt>
<trkpt lat="30.079294" lon="102.672949">
<time>2015-08-06T00:15:12Z</time></trkpt>
<trkpt lat="30.079284" lon="102.672869">
<time>2015-08-06T00:15:13Z</time></trkpt>
<trkpt lat="30.079265" lon="102.67277">
<time>2015-08-06T00:15:14Z</time></trkpt>
<trkpt lat="30.079265" lon="102.67261">
<time>2015-08-06T00:15:15Z</time></trkpt>
<trkpt lat="30.079265" lon="102.672481">
<time>2015-08-06T00:15:16Z</time></trkpt>
<trkpt lat="30.079285" lon="102.672381">
<time>2015-08-06T00:15:17Z</time></trkpt>
<trkpt lat="30.079316" lon="102.672241">
<time>2015-08-06T00:15:18Z</time></trkpt>
<trkpt lat="30.079366" lon="102.672062">
<time>2015-08-06T00:15:19Z</time></trkpt>
<trkpt lat="30.079497" lon="102.671752">
<time>2015-08-06T00:15:20Z</time></trkpt>
<trkpt lat="30.079697" lon="102.671264">
<time>2015-08-06T00:15:21Z</time></trkpt>
<trkpt lat="30.079768" lon="102.671114">
<time>2015-08-06T00:15:22Z</time></trkpt>
<trkpt lat="30.079838" lon="102.670984">
<time>2015-08-06T00:15:23Z</time></trkpt>
<trkpt lat="30.079938" lon="102.670845">
<time>2015-08-06T00:15:24Z</time></trkpt>
<trkpt lat="30.080049" lon="102.670715">
<time>2015-08-06T00:15:25Z</time></trkpt>
<trkpt lat="30.080269" lon="102.670516">
<time>2015-08-06T00:15:26Z</time></trkpt>
<trkpt lat="30.080499" lon="102.670296">
<time>2015-08-06T00:15:27Z</time></trkpt>
<trkpt lat="30.08075" lon="102.670027">
<time>2015-08-06T00:15:28Z</time></trkpt>
<trkpt lat="30.081211" lon="102.669508">
<time>2015-08-06T00:15:29Z</time></trkpt>
<trkpt lat="30.081742" lon="102.66886">
<time>2015-08-06T00:15:30Z</time></trkpt>
<trkpt lat="30.082053" lon="102.668471">
<time>2015-08-06T00:15:31Z</time></trkpt>
<trkpt lat="30.082273" lon="102.668172">
<time>2015-08-06T00:15:32Z</time></trkpt>
<trkpt lat="30.082404" lon="102.667992">
<time>2015-08-06T00:15:33Z</time></trkpt>
<trkpt lat="30.082584" lon="102.667733">
<time>2015-08-06T00:15:34Z</time></trkpt>
<trkpt lat="30.082715" lon="102.667513">
<time>2015-08-06T00:15:35Z</time></trkpt>
<trkpt lat="30.082755" lon="102.667424">
<time>2015-08-06T00:15:36Z</time></trkpt>
<trkpt lat="30.082795" lon="102.667324">
<time>2015-08-06T00:15:37Z</time></trkpt>
<trkpt lat="30.082876" lon="102.667055">
<time>2015-08-06T00:15:38Z</time></trkpt>
<trkpt lat="30.082976" lon="102.666686">
<time>2015-08-06T00:15:39Z</time></trkpt>
<trkpt lat="30.083077" lon="102.666257">
<time>2015-08-06T00:15:40Z</time></trkpt>
<trkpt lat="30.083128" lon="102.665928">
<time>2015-08-06T00:15:41Z</time></trkpt>
<trkpt lat="30.083148" lon="102.665708">
<time>2015-08-06T00:15:42Z</time></trkpt>
<trkpt lat="30.083158" lon="102.665559">
<time>2015-08-06T00:15:43Z</time></trkpt>
<trkpt lat="30.083149" lon="102.665419">
<time>2015-08-06T00:15:44Z</time></trkpt>
<trkpt lat="30.083149" lon="102.665299">
<time>2015-08-06T00:15:45Z</time></trkpt>
<trkpt lat="30.083159" lon="102.66505">
<time>2015-08-06T00:15:46Z</time></trkpt>
<trkpt lat="30.08317" lon="102.66487">
<time>2015-08-06T00:15:47Z</time></trkpt>
<trkpt lat="30.08318" lon="102.664711">
<time>2015-08-06T00:15:48Z</time></trkpt>
<trkpt lat="30.083221" lon="102.664441">
<time>2015-08-06T00:15:49Z</time></trkpt>
<trkpt lat="30.083251" lon="102.664202">
<time>2015-08-06T00:15:50Z</time></trkpt>
<trkpt lat="30.083272" lon="102.663933">
<time>2015-08-06T00:15:51Z</time></trkpt>
<trkpt lat="30.083283" lon="102.663394">
<time>2015-08-06T00:15:52Z</time></trkpt>
<trkpt lat="30.083283" lon="102.663314">
<time>2015-08-06T00:15:53Z</time></trkpt>
<trkpt lat="30.083273" lon="102.663265">
<time>2015-08-06T00:15:54Z</time></trkpt>
<trkpt lat="30.083263" lon="102.663215">
<time>2015-08-06T00:15:55Z</time></trkpt>
<trkpt lat="30.083253" lon="102.663155">
<time>2015-08-06T00:15:56Z</time></trkpt>
<trkpt lat="30.083233" lon="102.663115">
<time>2015-08-06T00:15:57Z</time></trkpt>
<trkpt lat="30.083144" lon="102.662885">
<time>2015-08-06T00:15:58Z</time></trkpt>
<trkpt lat="30.083094" lon="102.662706">
<time>2015-08-06T00:15:59Z</time></trkpt>
<trkpt lat="30.083064" lon="102.662516">
<time>2015-08-06T00:16:00Z</time></trkpt>
<trkpt lat="30.083035" lon="102.662347">
<time>2015-08-06T00:16:01Z</time></trkpt>
<trkpt lat="30.083005" lon="102.662227">
<time>2015-08-06T00:16:02Z</time></trkpt>
<trkpt lat="30.082985" lon="102.662147">
<time>2015-08-06T00:16:03Z</time></trkpt>
<trkpt lat="30.082945" lon="102.662068">
<time>2015-08-06T00:16:04Z</time></trkpt>
<trkpt lat="30.082915" lon="102.662008">
<time>2015-08-06T00:16:05Z</time></trkpt>
<trkpt lat="30.082875" lon="102.661968">
<time>2015-08-06T00:16:06Z</time></trkpt>
<trkpt lat="30.082855" lon="102.661928">
<time>2015-08-06T00:16:07Z</time></trkpt>
<trkpt lat="30.082825" lon="102.661878">
<time>2015-08-06T00:16:08Z</time></trkpt>
<trkpt lat="30.082776" lon="102.661828">
<time>2015-08-06T00:16:09Z</time></trkpt>
<trkpt lat="30.082726" lon="102.661778">
<time>2015-08-06T00:16:10Z</time></trkpt>
<trkpt lat="30.082646" lon="102.661699">
<time>2015-08-06T00:16:11Z</time></trkpt>
<trkpt lat="30.082486" lon="102.661569">
<time>2015-08-06T00:16:12Z</time></trkpt>
<trkpt lat="30.082087" lon="102.66117">
<time>2015-08-06T00:16:13Z</time></trkpt>
<trkpt lat="30.081678" lon="102.660731">
<time>2015-08-06T00:16:14Z</time></trkpt>
<trkpt lat="30.081348" lon="102.660352">
<time>2015-08-06T00:16:15Z</time></trkpt>
<trkpt lat="30.081169" lon="102.660143">
<time>2015-08-06T00:16:16Z</time></trkpt>
<trkpt lat="30.080899" lon="102.659784">
<time>2015-08-06T00:16:17Z</time></trkpt>
<trkpt lat="30.08072" lon="102.659524">
<time>2015-08-06T00:16:18Z</time></trkpt>
<trkpt lat="30.08063" lon="102.659375">
<time>2015-08-06T00:16:19Z</time></trkpt>
<trkpt lat="30.08052" lon="102.659175">
<time>2015-08-06T00:16:20Z</time></trkpt>
<trkpt lat="30.080371" lon="102.658876">
<time>2015-08-06T00:16:21Z</time></trkpt>
<trkpt lat="30.080252" lon="102.658577">
<time>2015-08-06T00:16:22Z</time></trkpt>
<trkpt lat="30.080192" lon="102.658447">
<time>2015-08-06T00:16:23Z</time></trkpt>
<trkpt lat="30.080132" lon="102.658327">
<time>2015-08-06T00:16:24Z</time></trkpt>
<trkpt lat="30.080082" lon="102.658248">
<time>2015-08-06T00:16:25Z</time></trkpt>
<trkpt lat="30.080022" lon="102.658158">
<time>2015-08-06T00:16:26Z</time></trkpt>
<trkpt lat="30.079873" lon="102.657948">
<time>2015-08-06T00:16:27Z</time></trkpt>
<trkpt lat="30.079763" lon="102.657799">
<time>2015-08-06T00:16:28Z</time></trkpt>
<trkpt lat="30.079703" lon="102.657719">
<time>2015-08-06T00:16:29Z</time></trkpt>
<trkpt lat="30.079663" lon="102.657649">
<time>2015-08-06T00:16:30Z</time></trkpt>
<trkpt lat="30.079633" lon="102.657589">
<time>2015-08-06T00:16:31Z</time></trkpt>
<trkpt lat="30.079604" lon="102.657529">
<time>2015-08-06T00:16:32Z</time></trkpt>
<trkpt lat="30.079574" lon="102.65743">
<time>2015-08-06T00:16:33Z</time></trkpt>
<trkpt lat="30.079534" lon="102.65732">
<time>2015-08-06T00:16:34Z</time></trkpt>
<trkpt lat="30.079464" lon="102.65711">
<time>2015-08-06T00:16:35Z</time></trkpt>
<trkpt lat="30.079425" lon="102.657011">
<time>2015-08-06T00:16:36Z</time></trkpt>
<trkpt lat="30.079405" lon="102.656951">
<time>2015-08-06T00:16:37Z</time></trkpt>
<trkpt lat="30.079355" lon="102.656841">
<time>2015-08-06T00:16:38Z</time></trkpt>
<trkpt lat="30.079275" lon="102.656701">
<time>2015-08-06T00:16:39Z</time></trkpt>
<trkpt lat="30.079016" lon="102.656263">
<time>2015-08-06T00:16:40Z</time></trkpt>
<trkpt lat="30.078916" lon="102.656073">
<time>2015-08-06T00:16:41Z</time></trkpt>
<trkpt lat="30.078757" lon="102.655754">
<time>2015-08-06T00:16:42Z</time></trkpt>
<trkpt lat="30.078647" lon="102.655495">
<time>2015-08-06T00:16:43Z</time></trkpt>
<trkpt lat="30.078548" lon="102.655165">
<time>2015-08-06T00:16:44Z</time></trkpt>
<trkpt lat="30.078459" lon="102.654736">
<time>2015-08-06T00:16:45Z</time></trkpt>
<trkpt lat="30.078419" lon="102.654507">
<time>2015-08-06T00:16:46Z</time></trkpt>
<trkpt lat="30.078399" lon="102.654397">
<time>2015-08-06T00:16:47Z</time></trkpt>
<trkpt lat="30.078389" lon="102.654298">
<time>2015-08-06T00:16:48Z</time></trkpt>
<trkpt lat="30.07838" lon="102.654178">
<time>2015-08-06T00:16:49Z</time></trkpt>
<trkpt lat="30.07838" lon="102.654068">
<time>2015-08-06T00:16:50Z</time></trkpt>
<trkpt lat="30.07839" lon="102.653958">
<time>2015-08-06T00:16:51Z</time></trkpt>
<trkpt lat="30.0784" lon="102.653749">
<time>2015-08-06T00:16:52Z</time></trkpt>
<trkpt lat="30.078401" lon="102.653609">
<time>2015-08-06T00:16:53Z</time></trkpt>
<trkpt lat="30.078391" lon="102.653499">
<time>2015-08-06T00:16:54Z</time></trkpt>
<trkpt lat="30.078381" lon="102.65339">
<time>2015-08-06T00:16:55Z</time></trkpt>
<trkpt lat="30.078361" lon="102.6533">
<time>2015-08-06T00:16:56Z</time></trkpt>
<trkpt lat="30.078341" lon="102.65319">
<time>2015-08-06T00:16:57Z</time></trkpt>
<trkpt lat="30.078312" lon="102.6531">
<time>2015-08-06T00:16:58Z</time></trkpt>
<trkpt lat="30.078182" lon="102.652682">
<time>2015-08-06T00:16:59Z</time></trkpt>
<trkpt lat="30.078043" lon="102.652243">
<time>2015-08-06T00:17:00Z</time></trkpt>
<trkpt lat="30.077576" lon="102.650696">
<time>2015-08-06T00:17:01Z</time></trkpt>
<trkpt lat="30.077526" lon="102.650517">
<time>2015-08-06T00:17:02Z</time></trkpt>
<trkpt lat="30.077467" lon="102.650297">
<time>2015-08-06T00:17:03Z</time></trkpt>
<trkpt lat="30.077427" lon="102.650068">
<time>2015-08-06T00:17:04Z</time></trkpt>
<trkpt lat="30.077407" lon="102.649888">
<time>2015-08-06T00:17:05Z</time></trkpt>
<trkpt lat="30.077378" lon="102.649669">
<time>2015-08-06T00:17:06Z</time></trkpt>
<trkpt lat="30.077368" lon="102.649589">
<time>2015-08-06T00:17:07Z</time></trkpt>
<trkpt lat="30.077368" lon="102.649519">
<time>2015-08-06T00:17:08Z</time></trkpt>
<trkpt lat="30.077368" lon="102.649469">
<time>2015-08-06T00:17:09Z</time></trkpt>
<trkpt lat="30.077378" lon="102.64938">
<time>2015-08-06T00:17:10Z</time></trkpt>
<trkpt lat="30.077388" lon="102.6493">
<time>2015-08-06T00:17:11Z</time></trkpt>
<trkpt lat="30.077419" lon="102.64922">
<time>2015-08-06T00:17:12Z</time></trkpt>
<trkpt lat="30.077499" lon="102.64905">
<time>2015-08-06T00:17:13Z</time></trkpt>
<trkpt lat="30.077589" lon="102.648871">
<time>2015-08-06T00:17:14Z</time></trkpt>
<trkpt lat="30.077639" lon="102.648751">
<time>2015-08-06T00:17:15Z</time></trkpt>
<trkpt lat="30.077669" lon="102.648661">
<time>2015-08-06T00:17:16Z</time></trkpt>
<trkpt lat="30.07769" lon="102.648581">
<time>2015-08-06T00:17:17Z</time></trkpt>
<trkpt lat="30.07769" lon="102.648482">
<time>2015-08-06T00:17:18Z</time></trkpt>
<trkpt lat="30.07769" lon="102.648392">
<time>2015-08-06T00:17:19Z</time></trkpt>
<trkpt lat="30.07769" lon="102.648332">
<time>2015-08-06T00:17:20Z</time></trkpt>
<trkpt lat="30.07767" lon="102.648282">
<time>2015-08-06T00:17:21Z</time></trkpt>
<trkpt lat="30.07763" lon="102.648182">
<time>2015-08-06T00:17:22Z</time></trkpt>
<trkpt lat="30.07758" lon="102.648083">
<time>2015-08-06T00:17:23Z</time></trkpt>
<trkpt lat="30.077521" lon="102.647993">
<time>2015-08-06T00:17:24Z</time></trkpt>
<trkpt lat="30.077411" lon="102.647833">
<time>2015-08-06T00:17:25Z</time></trkpt>
<trkpt lat="30.077311" lon="102.647694">
<time>2015-08-06T00:17:26Z</time></trkpt>
<trkpt lat="30.077231" lon="102.647594">
<time>2015-08-06T00:17:27Z</time></trkpt>
<trkpt lat="30.077151" lon="102.647514">
<time>2015-08-06T00:17:28Z</time></trkpt>
<trkpt lat="30.077092" lon="102.647474">
<time>2015-08-06T00:17:29Z</time></trkpt>
<trkpt lat="30.077032" lon="102.647434">
<time>2015-08-06T00:17:30Z</time></trkpt>
<trkpt lat="30.076862" lon="102.647364">
<time>2015-08-06T00:17:31Z</time></trkpt>
<trkpt lat="30.076732" lon="102.647314">
<time>2015-08-06T00:17:32Z</time></trkpt>
<trkpt lat="30.076652" lon="102.647275">
<time>2015-08-06T00:17:33Z</time></trkpt>
<trkpt lat="30.076572" lon="102.647205">
<time>2015-08-06T00:17:34Z</time></trkpt>
<trkpt lat="30.076502" lon="102.647145">
<time>2015-08-06T00:17:35Z</time></trkpt>
<trkpt lat="30.076352" lon="102.647005">
<time>2015-08-06T00:17:36Z</time></trkpt>
<trkpt lat="30.076242" lon="102.646895">
<time>2015-08-06T00:17:37Z</time></trkpt>
<trkpt lat="30.076133" lon="102.646816">
<time>2015-08-06T00:17:38Z</time></trkpt>
<trkpt lat="30.075973" lon="102.646726">
<time>2015-08-06T00:17:39Z</time></trkpt>
<trkpt lat="30.075703" lon="102.646606">
<time>2015-08-06T00:17:40Z</time></trkpt>
<trkpt lat="30.075593" lon="102.646556">
<time>2015-08-06T00:17:41Z</time></trkpt>
<trkpt lat="30.075513" lon="102.646506">
<time>2015-08-06T00:17:42Z</time></trkpt>
<trkpt lat="30.075443" lon="102.646457">
<time>2015-08-06T00:17:43Z</time></trkpt>
<trkpt lat="30.075383" lon="102.646387">
<time>2015-08-06T00:17:44Z</time></trkpt>
<trkpt lat="30.075304" lon="102.646267">
<time>2015-08-06T00:17:45Z</time></trkpt>
<trkpt lat="30.075254" lon="102.646177">
<time>2015-08-06T00:17:46Z</time></trkpt>
<trkpt lat="30.075204" lon="102.646067">
<time>2015-08-06T00:17:47Z</time></trkpt>
<trkpt lat="30.075144" lon="102.645928">
<time>2015-08-06T00:17:48Z</time></trkpt>
<trkpt lat="30.075094" lon="102.645798">
<time>2015-08-06T00:17:49Z</time></trkpt>
<trkpt lat="30.075065" lon="102.645678">
<time>2015-08-06T00:17:50Z</time></trkpt>
<trkpt lat="30.075055" lon="102.645549">
<time>2015-08-06T00:17:51Z</time></trkpt>
<trkpt lat="30.075055" lon="102.645499">
<time>2015-08-06T00:17:52Z</time></trkpt>
<trkpt lat="30.075055" lon="102.645449">
<time>2015-08-06T00:17:53Z</time></trkpt>
<trkpt lat="30.075065" lon="102.645389">
<time>2015-08-06T00:17:54Z</time></trkpt>
<trkpt lat="30.075065" lon="102.645339">
<time>2015-08-06T00:17:55Z</time></trkpt>
<trkpt lat="30.075085" lon="102.645299">
<time>2015-08-06T00:17:56Z</time></trkpt>
<trkpt lat="30.075095" lon="102.645249">
<time>2015-08-06T00:17:57Z</time></trkpt>
<trkpt lat="30.075196" lon="102.64498">
<time>2015-08-06T00:17:58Z</time></trkpt>
<trkpt lat="30.075216" lon="102.64489">
<time>2015-08-06T00:17:59Z</time></trkpt>
<trkpt lat="30.075236" lon="102.64482">
<time>2015-08-06T00:18:00Z</time></trkpt>
<trkpt lat="30.075246" lon="102.64477">
<time>2015-08-06T00:18:01Z</time></trkpt>
<trkpt lat="30.075256" lon="102.644701">
<time>2015-08-06T00:18:02Z</time></trkpt>
<trkpt lat="30.075256" lon="102.644571">
<time>2015-08-06T00:18:03Z</time></trkpt>
<trkpt lat="30.075237" lon="102.644421">
<time>2015-08-06T00:18:04Z</time></trkpt>
<trkpt lat="30.075187" lon="102.644262">
<time>2015-08-06T00:18:05Z</time></trkpt>
<trkpt lat="30.075117" lon="102.644122">
<time>2015-08-06T00:18:06Z</time></trkpt>
<trkpt lat="30.074968" lon="102.643872">
<time>2015-08-06T00:18:07Z</time></trkpt>
<trkpt lat="30.074658" lon="102.643334">
<time>2015-08-06T00:18:08Z</time></trkpt>
<trkpt lat="30.074459" lon="102.642925">
<time>2015-08-06T00:18:09Z</time></trkpt>
<trkpt lat="30.07416" lon="102.642226">
<time>2015-08-06T00:18:10Z</time></trkpt>
<trkpt lat="30.074051" lon="102.641987">
<time>2015-08-06T00:18:11Z</time></trkpt>
<trkpt lat="30.073961" lon="102.641797">
<time>2015-08-06T00:18:12Z</time></trkpt>
<trkpt lat="30.073881" lon="102.641648">
<time>2015-08-06T00:18:13Z</time></trkpt>
<trkpt lat="30.073791" lon="102.641488">
<time>2015-08-06T00:18:14Z</time></trkpt>
<trkpt lat="30.073662" lon="102.641318">
<time>2015-08-06T00:18:15Z</time></trkpt>
<trkpt lat="30.073243" lon="102.64073">
<time>2015-08-06T00:18:16Z</time></trkpt>
<trkpt lat="30.073013" lon="102.6404">
<time>2015-08-06T00:18:17Z</time></trkpt>
<trkpt lat="30.072843" lon="102.640191">
<time>2015-08-06T00:18:18Z</time></trkpt>
<trkpt lat="30.072694" lon="102.640031">
<time>2015-08-06T00:18:19Z</time></trkpt>
<trkpt lat="30.072454" lon="102.639802">
<time>2015-08-06T00:18:20Z</time></trkpt>
<trkpt lat="30.072184" lon="102.639542">
<time>2015-08-06T00:18:21Z</time></trkpt>
<trkpt lat="30.071995" lon="102.639323">
<time>2015-08-06T00:18:22Z</time></trkpt>
<trkpt lat="30.071895" lon="102.639173">
<time>2015-08-06T00:18:23Z</time></trkpt>
<trkpt lat="30.071825" lon="102.639023">
<time>2015-08-06T00:18:24Z</time></trkpt>
<trkpt lat="30.071696" lon="102.638724">
<time>2015-08-06T00:18:25Z</time></trkpt>
<trkpt lat="30.071566" lon="102.638375">
<time>2015-08-06T00:18:26Z</time></trkpt>
<trkpt lat="30.071257" lon="102.637546">
<time>2015-08-06T00:18:27Z</time></trkpt>
<trkpt lat="30.071088" lon="102.636988">
<time>2015-08-06T00:18:28Z</time></trkpt>
<trkpt lat="30.070969" lon="102.636578">
<time>2015-08-06T00:18:29Z</time></trkpt>
<trkpt lat="30.07081" lon="102.63601">
<time>2015-08-06T00:18:30Z</time></trkpt>
<trkpt lat="30.07075" lon="102.63584">
<time>2015-08-06T00:18:31Z</time></trkpt>
<trkpt lat="30.0707" lon="102.6357">
<time>2015-08-06T00:18:32Z</time></trkpt>
<trkpt lat="30.07063" lon="102.635561">
<time>2015-08-06T00:18:33Z</time></trkpt>
<trkpt lat="30.070551" lon="102.635391">
<time>2015-08-06T00:18:34Z</time></trkpt>
<trkpt lat="30.070421" lon="102.635151">
<time>2015-08-06T00:18:35Z</time></trkpt>
<trkpt lat="30.070202" lon="102.634652">
<time>2015-08-06T00:18:36Z</time></trkpt>
<trkpt lat="30.069943" lon="102.634034">
<time>2015-08-06T00:18:37Z</time></trkpt>
<trkpt lat="30.069823" lon="102.633784">
<time>2015-08-06T00:18:38Z</time></trkpt>
<trkpt lat="30.069763" lon="102.633684">
<time>2015-08-06T00:18:39Z</time></trkpt>
<trkpt lat="30.069703" lon="102.633604">
<time>2015-08-06T00:18:40Z</time></trkpt>
<trkpt lat="30.069643" lon="102.633535">
<time>2015-08-06T00:18:41Z</time></trkpt>
<trkpt lat="30.069523" lon="102.633415">
<time>2015-08-06T00:18:42Z</time></trkpt>
<trkpt lat="30.069304" lon="102.633215">
<time>2015-08-06T00:18:43Z</time></trkpt>
<trkpt lat="30.069044" lon="102.633026">
<time>2015-08-06T00:18:44Z</time></trkpt>
<trkpt lat="30.068824" lon="102.632896">
<time>2015-08-06T00:18:45Z</time></trkpt>
<trkpt lat="30.068374" lon="102.632676">
<time>2015-08-06T00:18:46Z</time></trkpt>
<trkpt lat="30.068005" lon="102.632487">
<time>2015-08-06T00:18:47Z</time></trkpt>
<trkpt lat="30.067785" lon="102.632377">
<time>2015-08-06T00:18:48Z</time></trkpt>
<trkpt lat="30.067685" lon="102.632337">
<time>2015-08-06T00:18:49Z</time></trkpt>
<trkpt lat="30.067595" lon="102.632307">
<time>2015-08-06T00:18:50Z</time></trkpt>
<trkpt lat="30.067505" lon="102.632287">
<time>2015-08-06T00:18:51Z</time></trkpt>
<trkpt lat="30.067445" lon="102.632267">
<time>2015-08-06T00:18:52Z</time></trkpt>
<trkpt lat="30.067345" lon="102.632247">
<time>2015-08-06T00:18:53Z</time></trkpt>
<trkpt lat="30.067215" lon="102.632207">
<time>2015-08-06T00:18:54Z</time></trkpt>
<trkpt lat="30.067085" lon="102.632157">
<time>2015-08-06T00:18:55Z</time></trkpt>
<trkpt lat="30.066905" lon="102.632088">
<time>2015-08-06T00:18:56Z</time></trkpt>
<trkpt lat="30.066755" lon="102.632008">
<time>2015-08-06T00:18:57Z</time></trkpt>
<trkpt lat="30.066605" lon="102.631928">
<time>2015-08-06T00:18:58Z</time></trkpt>
<trkpt lat="30.066416" lon="102.631818">
<time>2015-08-06T00:18:59Z</time></trkpt>
<trkpt lat="30.066286" lon="102.631728">
<time>2015-08-06T00:19:00Z</time></trkpt>
<trkpt lat="30.065816" lon="102.631419">
<time>2015-08-06T00:19:01Z</time></trkpt>
<trkpt lat="30.065616" lon="102.631289">
<time>2015-08-06T00:19:02Z</time></trkpt>
<trkpt lat="30.065456" lon="102.631179">
<time>2015-08-06T00:19:03Z</time></trkpt>
<trkpt lat="30.065366" lon="102.631109">
<time>2015-08-06T00:19:04Z</time></trkpt>
<trkpt lat="30.065297" lon="102.63104">
<time>2015-08-06T00:19:05Z</time></trkpt>
<trkpt lat="30.065237" lon="102.63099">
<time>2015-08-06T00:19:06Z</time></trkpt>
<trkpt lat="30.065187" lon="102.63093">
<time>2015-08-06T00:19:07Z</time></trkpt>
<trkpt lat="30.065107" lon="102.63084">
<time>2015-08-06T00:19:08Z</time></trkpt>
<trkpt lat="30.064937" lon="102.63061">
<time>2015-08-06T00:19:09Z</time></trkpt>
<trkpt lat="30.064827" lon="102.630451">
<time>2015-08-06T00:19:10Z</time></trkpt>
<trkpt lat="30.064698" lon="102.630261">
<time>2015-08-06T00:19:11Z</time></trkpt>
<trkpt lat="30.064638" lon="102.630161">
<time>2015-08-06T00:19:12Z</time></trkpt>
<trkpt lat="30.064598" lon="102.630091">
<time>2015-08-06T00:19:13Z</time></trkpt>
<trkpt lat="30.064558" lon="102.629992">
<time>2015-08-06T00:19:14Z</time></trkpt>
<trkpt lat="30.064528" lon="102.629902">
<time>2015-08-06T00:19:15Z</time></trkpt>
<trkpt lat="30.064498" lon="102.629802">
<time>2015-08-06T00:19:16Z</time></trkpt>
<trkpt lat="30.064498" lon="102.629752">
<time>2015-08-06T00:19:17Z</time></trkpt>
<trkpt lat="30.064488" lon="102.629712">
<time>2015-08-06T00:19:18Z</time></trkpt>
<trkpt lat="30.064488" lon="102.629652">
<time>2015-08-06T00:19:19Z</time></trkpt>
<trkpt lat="30.064478" lon="102.629582">
<time>2015-08-06T00:19:20Z</time></trkpt>
<trkpt lat="30.064459" lon="102.629473">
<time>2015-08-06T00:19:21Z</time></trkpt>
<trkpt lat="30.064429" lon="102.629363">
<time>2015-08-06T00:19:22Z</time></trkpt>
<trkpt lat="30.064389" lon="102.629213">
<time>2015-08-06T00:19:23Z</time></trkpt>
<trkpt lat="30.064349" lon="102.629103">
<time>2015-08-06T00:19:24Z</time></trkpt>
<trkpt lat="30.064289" lon="102.628953">
<time>2015-08-06T00:19:25Z</time></trkpt>
<trkpt lat="30.064229" lon="102.628844">
<time>2015-08-06T00:19:26Z</time></trkpt>
<trkpt lat="30.06415" lon="102.628694">
<time>2015-08-06T00:19:27Z</time></trkpt>
<trkpt lat="30.06406" lon="102.628564">
<time>2015-08-06T00:19:28Z</time></trkpt>
<trkpt lat="30.06401" lon="102.628484">
<time>2015-08-06T00:19:29Z</time></trkpt>
<trkpt lat="30.06396" lon="102.628424">
<time>2015-08-06T00:19:30Z</time></trkpt>
<trkpt lat="30.06388" lon="102.628345">
<time>2015-08-06T00:19:31Z</time></trkpt>
<trkpt lat="30.06378" lon="102.628225">
<time>2015-08-06T00:19:32Z</time></trkpt>
<trkpt lat="30.06349" lon="102.628005">
<time>2015-08-06T00:19:33Z</time></trkpt>
<trkpt lat="30.063231" lon="102.627816">
<time>2015-08-06T00:19:34Z</time></trkpt>
<trkpt lat="30.063141" lon="102.627756">
<time>2015-08-06T00:19:35Z</time></trkpt>
<trkpt lat="30.063031" lon="102.627696">
<time>2015-08-06T00:19:36Z</time></trkpt>
<trkpt lat="30.062971" lon="102.627666">
<time>2015-08-06T00:19:37Z</time></trkpt>
<trkpt lat="30.062921" lon="102.627636">
<time>2015-08-06T00:19:38Z</time></trkpt>
<trkpt lat="30.062691" lon="102.627476">
<time>2015-08-06T00:19:39Z</time></trkpt>
<trkpt lat="30.062681" lon="102.627466">
<time>2015-08-06T00:19:40Z</time></trkpt>
<trkpt lat="30.062681" lon="102.627466">
<time>2015-08-06T00:19:41Z</time></trkpt>
<trkpt lat="30.062641" lon="102.627446">
<time>2015-08-06T00:19:42Z</time></trkpt>
<trkpt lat="30.062601" lon="102.627406">
<time>2015-08-06T00:19:43Z</time></trkpt>
<trkpt lat="30.062561" lon="102.627366">
<time>2015-08-06T00:19:44Z</time></trkpt>
<trkpt lat="30.062541" lon="102.627326">
<time>2015-08-06T00:19:45Z</time></trkpt>
<trkpt lat="30.062481" lon="102.627276">
<time>2015-08-06T00:19:46Z</time></trkpt>
<trkpt lat="30.062212" lon="102.627037">
<time>2015-08-06T00:19:47Z</time></trkpt>
<trkpt lat="30.061442" lon="102.626478">
<time>2015-08-06T00:19:48Z</time></trkpt>
<trkpt lat="30.060633" lon="102.625829">
<time>2015-08-06T00:19:49Z</time></trkpt>
<trkpt lat="30.060013" lon="102.62542">
<time>2015-08-06T00:19:50Z</time></trkpt>
<trkpt lat="30.059874" lon="102.62532">
<time>2015-08-06T00:19:51Z</time></trkpt>
<trkpt lat="30.059794" lon="102.62527">
<time>2015-08-06T00:19:52Z</time></trkpt>
<trkpt lat="30.059734" lon="102.62523">
<time>2015-08-06T00:19:53Z</time></trkpt>
<trkpt lat="30.059684" lon="102.62518">
<time>2015-08-06T00:19:54Z</time></trkpt>
<trkpt lat="30.059654" lon="102.62515">
<time>2015-08-06T00:19:55Z</time></trkpt>
<trkpt lat="30.059624" lon="102.62512">
<time>2015-08-06T00:19:56Z</time></trkpt>
<trkpt lat="30.059594" lon="102.62508">
<time>2015-08-06T00:19:57Z</time></trkpt>
<trkpt lat="30.059544" lon="102.625">
<time>2015-08-06T00:19:58Z</time></trkpt>
<trkpt lat="30.059524" lon="102.624961">
<time>2015-08-06T00:19:59Z</time></trkpt>
<trkpt lat="30.059484" lon="102.624891">
<time>2015-08-06T00:20:00Z</time></trkpt>
<trkpt lat="30.059454" lon="102.624821">
<time>2015-08-06T00:20:01Z</time></trkpt>
<trkpt lat="30.059424" lon="102.624711">
<time>2015-08-06T00:20:02Z</time></trkpt>
<trkpt lat="30.059364" lon="102.624511">
<time>2015-08-06T00:20:03Z</time></trkpt>
<trkpt lat="30.059285" lon="102.624272">
<time>2015-08-06T00:20:04Z</time></trkpt>
<trkpt lat="30.059245" lon="102.624132">
<time>2015-08-06T00:20:05Z</time></trkpt>
<trkpt lat="30.059215" lon="102.624002">
<time>2015-08-06T00:20:06Z</time></trkpt>
<trkpt lat="30.059205" lon="102.623892">
<time>2015-08-06T00:20:07Z</time></trkpt>
<trkpt lat="30.059205" lon="102.623792">
<time>2015-08-06T00:20:08Z</time></trkpt>
<trkpt lat="30.059215" lon="102.623663">
<time>2015-08-06T00:20:09Z</time></trkpt>
<trkpt lat="30.059256" lon="102.623433">
<time>2015-08-06T00:20:10Z</time></trkpt>
<trkpt lat="30.059316" lon="102.623114">
<time>2015-08-06T00:20:11Z</time></trkpt>
<trkpt lat="30.059386" lon="102.622814">
<time>2015-08-06T00:20:12Z</time></trkpt>
<trkpt lat="30.059426" lon="102.622684">
<time>2015-08-06T00:20:13Z</time></trkpt>
<trkpt lat="30.059487" lon="102.622534">
<time>2015-08-06T00:20:14Z</time></trkpt>
<trkpt lat="30.059547" lon="102.622435">
<time>2015-08-06T00:20:15Z</time></trkpt>
<trkpt lat="30.059597" lon="102.622345">
<time>2015-08-06T00:20:16Z</time></trkpt>
<trkpt lat="30.059677" lon="102.622255">
<time>2015-08-06T00:20:17Z</time></trkpt>
<trkpt lat="30.059787" lon="102.622115">
<time>2015-08-06T00:20:18Z</time></trkpt>
<trkpt lat="30.059917" lon="102.622005">
<time>2015-08-06T00:20:19Z</time></trkpt>
<trkpt lat="30.060057" lon="102.621895">
<time>2015-08-06T00:20:20Z</time></trkpt>
<trkpt lat="30.060448" lon="102.621666">
<time>2015-08-06T00:20:21Z</time></trkpt>
<trkpt lat="30.060578" lon="102.621576">
<time>2015-08-06T00:20:22Z</time></trkpt>
<trkpt lat="30.060678" lon="102.621486">
<time>2015-08-06T00:20:23Z</time></trkpt>
<trkpt lat="30.060818" lon="102.621326">
<time>2015-08-06T00:20:24Z</time></trkpt>
<trkpt lat="30.060878" lon="102.621216">
<time>2015-08-06T00:20:25Z</time></trkpt>
<trkpt lat="30.060948" lon="102.621047">
<time>2015-08-06T00:20:26Z</time></trkpt>
<trkpt lat="30.060968" lon="102.620947">
<time>2015-08-06T00:20:27Z</time></trkpt>
<trkpt lat="30.060968" lon="102.620827">
<time>2015-08-06T00:20:28Z</time></trkpt>
<trkpt lat="30.060969" lon="102.620637">
<time>2015-08-06T00:20:29Z</time></trkpt>
<trkpt lat="30.060939" lon="102.620428">
<time>2015-08-06T00:20:30Z</time></trkpt>
<trkpt lat="30.060859" lon="102.620128">
<time>2015-08-06T00:20:31Z</time></trkpt>
<trkpt lat="30.060779" lon="102.619938">
<time>2015-08-06T00:20:32Z</time></trkpt>
<trkpt lat="30.060699" lon="102.619778">
<time>2015-08-06T00:20:33Z</time></trkpt>
<trkpt lat="30.06058" lon="102.619529">
<time>2015-08-06T00:20:34Z</time></trkpt>
<trkpt lat="30.06052" lon="102.619419">
<time>2015-08-06T00:20:35Z</time></trkpt>
<trkpt lat="30.06041" lon="102.619239">
<time>2015-08-06T00:20:36Z</time></trkpt>
<trkpt lat="30.06029" lon="102.619129">
<time>2015-08-06T00:20:37Z</time></trkpt>
<trkpt lat="30.06018" lon="102.61905">
<time>2015-08-06T00:20:38Z</time></trkpt>
<trkpt lat="30.0601" lon="102.619">
<time>2015-08-06T00:20:39Z</time></trkpt>
<trkpt lat="30.05994" lon="102.61892">
<time>2015-08-06T00:20:40Z</time></trkpt>
<trkpt lat="30.05982" lon="102.61887">
<time>2015-08-06T00:20:41Z</time></trkpt>
<trkpt lat="30.05973" lon="102.61883">
<time>2015-08-06T00:20:42Z</time></trkpt>
<trkpt lat="30.05964" lon="102.61877">
<time>2015-08-06T00:20:43Z</time></trkpt>
<trkpt lat="30.05959" lon="102.61872">
<time>2015-08-06T00:20:44Z</time></trkpt>
<trkpt lat="30.05954" lon="102.61865">
<time>2015-08-06T00:20:45Z</time></trkpt>
<trkpt lat="30.059511" lon="102.61857">
<time>2015-08-06T00:20:46Z</time></trkpt>
<trkpt lat="30.059491" lon="102.61848">
<time>2015-08-06T00:20:47Z</time></trkpt>
<trkpt lat="30.059471" lon="102.618271">
<time>2015-08-06T00:20:48Z</time></trkpt>
<trkpt lat="30.059441" lon="102.618061">
<time>2015-08-06T00:20:49Z</time></trkpt>
<trkpt lat="30.059431" lon="102.617971">
<time>2015-08-06T00:20:50Z</time></trkpt>
<trkpt lat="30.059411" lon="102.617881">
<time>2015-08-06T00:20:51Z</time></trkpt>
<trkpt lat="30.059381" lon="102.617781">
<time>2015-08-06T00:20:52Z</time></trkpt>
<trkpt lat="30.059351" lon="102.617691">
<time>2015-08-06T00:20:53Z</time></trkpt>
<trkpt lat="30.059152" lon="102.617272">
<time>2015-08-06T00:20:54Z</time></trkpt>
<trkpt lat="30.059032" lon="102.617022">
<time>2015-08-06T00:20:55Z</time></trkpt>
<trkpt lat="30.058852" lon="102.616583">
<time>2015-08-06T00:20:56Z</time></trkpt>
<trkpt lat="30.058703" lon="102.616084">
<time>2015-08-06T00:20:57Z</time></trkpt>
<trkpt lat="30.058623" lon="102.615804">
<time>2015-08-06T00:20:58Z</time></trkpt>
<trkpt lat="30.058473" lon="102.615325">
<time>2015-08-06T00:20:59Z</time></trkpt>
<trkpt lat="30.058373" lon="102.615055">
<time>2015-08-06T00:21:00Z</time></trkpt>
<trkpt lat="30.058294" lon="102.614845">
<time>2015-08-06T00:21:01Z</time></trkpt>
<trkpt lat="30.058184" lon="102.614625">
<time>2015-08-06T00:21:02Z</time></trkpt>
<trkpt lat="30.058054" lon="102.614416">
<time>2015-08-06T00:21:03Z</time></trkpt>
<trkpt lat="30.057914" lon="102.614216">
<time>2015-08-06T00:21:04Z</time></trkpt>
<trkpt lat="30.057774" lon="102.614026">
<time>2015-08-06T00:21:05Z</time></trkpt>
<trkpt lat="30.057634" lon="102.613856">
<time>2015-08-06T00:21:06Z</time></trkpt>
<trkpt lat="30.057434" lon="102.613657">
<time>2015-08-06T00:21:07Z</time></trkpt>
<trkpt lat="30.057085" lon="102.613367">
<time>2015-08-06T00:21:08Z</time></trkpt>
<trkpt lat="30.056745" lon="102.613097">
<time>2015-08-06T00:21:09Z</time></trkpt>
<trkpt lat="30.056505" lon="102.612937">
<time>2015-08-06T00:21:10Z</time></trkpt>
<trkpt lat="30.056165" lon="102.612728">
<time>2015-08-06T00:21:11Z</time></trkpt>
<trkpt lat="30.055915" lon="102.612578">
<time>2015-08-06T00:21:12Z</time></trkpt>
<trkpt lat="30.055805" lon="102.612528">
<time>2015-08-06T00:21:13Z</time></trkpt>
<trkpt lat="30.055705" lon="102.612488">
<time>2015-08-06T00:21:14Z</time></trkpt>
<trkpt lat="30.055515" lon="102.612448">
<time>2015-08-06T00:21:15Z</time></trkpt>
<trkpt lat="30.055345" lon="102.612418">
<time>2015-08-06T00:21:16Z</time></trkpt>
<trkpt lat="30.055195" lon="102.612398">
<time>2015-08-06T00:21:17Z</time></trkpt>
<trkpt lat="30.055065" lon="102.612368">
<time>2015-08-06T00:21:18Z</time></trkpt>
<trkpt lat="30.054915" lon="102.612308">
<time>2015-08-06T00:21:19Z</time></trkpt>
<trkpt lat="30.054745" lon="102.612198">
<time>2015-08-06T00:21:20Z</time></trkpt>
<trkpt lat="30.054576" lon="102.612059">
<time>2015-08-06T00:21:21Z</time></trkpt>
<trkpt lat="30.054496" lon="102.611969">
<time>2015-08-06T00:21:22Z</time></trkpt>
<trkpt lat="30.054426" lon="102.611889">
<time>2015-08-06T00:21:23Z</time></trkpt>
<trkpt lat="30.054366" lon="102.611779">
<time>2015-08-06T00:21:24Z</time></trkpt>
<trkpt lat="30.054326" lon="102.611659">
<time>2015-08-06T00:21:25Z</time></trkpt>
<trkpt lat="30.054256" lon="102.611389">
<time>2015-08-06T00:21:26Z</time></trkpt>
<trkpt lat="30.053957" lon="102.609901">
<time>2015-08-06T00:21:27Z</time></trkpt>
<trkpt lat="30.053917" lon="102.609671">
<time>2015-08-06T00:21:28Z</time></trkpt>
<trkpt lat="30.053897" lon="102.609511">
<time>2015-08-06T00:21:29Z</time></trkpt>
<trkpt lat="30.053887" lon="102.609321">
<time>2015-08-06T00:21:30Z</time></trkpt>
<trkpt lat="30.053887" lon="102.609122">
<time>2015-08-06T00:21:31Z</time></trkpt>
<trkpt lat="30.054008" lon="102.608282">
<time>2015-08-06T00:21:32Z</time></trkpt>
<trkpt lat="30.054028" lon="102.608073">
<time>2015-08-06T00:21:33Z</time></trkpt>
<trkpt lat="30.054038" lon="102.607933">
<time>2015-08-06T00:21:34Z</time></trkpt>
<trkpt lat="30.054038" lon="102.607793">
<time>2015-08-06T00:21:35Z</time></trkpt>
<trkpt lat="30.054018" lon="102.607643">
<time>2015-08-06T00:21:36Z</time></trkpt>
<trkpt lat="30.053998" lon="102.607523">
<time>2015-08-06T00:21:37Z</time></trkpt>
<trkpt lat="30.053958" lon="102.607303">
<time>2015-08-06T00:21:38Z</time></trkpt>
<trkpt lat="30.053779" lon="102.606544">
<time>2015-08-06T00:21:39Z</time></trkpt>
<trkpt lat="30.053669" lon="102.606074">
<time>2015-08-06T00:21:40Z</time></trkpt>
<trkpt lat="30.053609" lon="102.605824">
<time>2015-08-06T00:21:41Z</time></trkpt>
<trkpt lat="30.053569" lon="102.605725">
<time>2015-08-06T00:21:42Z</time></trkpt>
<trkpt lat="30.053529" lon="102.605635">
<time>2015-08-06T00:21:43Z</time></trkpt>
<trkpt lat="30.053459" lon="102.605555">
<time>2015-08-06T00:21:44Z</time></trkpt>
<trkpt lat="30.053369" lon="102.605465">
<time>2015-08-06T00:21:45Z</time></trkpt>
<trkpt lat="30.053219" lon="102.605335">
<time>2015-08-06T00:21:46Z</time></trkpt>
<trkpt lat="30.052869" lon="102.605075">
<time>2015-08-06T00:21:47Z</time></trkpt>
<trkpt lat="30.052779" lon="102.605015">
<time>2015-08-06T00:21:48Z</time></trkpt>
<trkpt lat="30.052689" lon="102.604965">
<time>2015-08-06T00:21:49Z</time></trkpt>
<trkpt lat="30.052589" lon="102.604925">
<time>2015-08-06T00:21:50Z</time></trkpt>
<trkpt lat="30.052459" lon="102.604895">
<time>2015-08-06T00:21:51Z</time></trkpt>
<trkpt lat="30.052329" lon="102.604865">
<time>2015-08-06T00:21:52Z</time></trkpt>
<trkpt lat="30.051739" lon="102.604785">
<time>2015-08-06T00:21:53Z</time></trkpt>
<trkpt lat="30.050809" lon="102.604635">
<time>2015-08-06T00:21:54Z</time></trkpt>
<trkpt lat="30.050589" lon="102.604595">
<time>2015-08-06T00:21:55Z</time></trkpt>
<trkpt lat="30.050419" lon="102.604536">
<time>2015-08-06T00:21:56Z</time></trkpt>
<trkpt lat="30.050099" lon="102.604356">
<time>2015-08-06T00:21:57Z</time></trkpt>
<trkpt lat="30.04965" lon="102.604016">
<time>2015-08-06T00:21:58Z</time></trkpt>
<trkpt lat="30.0495" lon="102.603906">
<time>2015-08-06T00:21:59Z</time></trkpt>
<trkpt lat="30.04943" lon="102.603846">
<time>2015-08-06T00:22:00Z</time></trkpt>
<trkpt lat="30.04936" lon="102.603776">
<time>2015-08-06T00:22:01Z</time></trkpt>
<trkpt lat="30.04931" lon="102.603706">
<time>2015-08-06T00:22:02Z</time></trkpt>
<trkpt lat="30.04926" lon="102.603626">
<time>2015-08-06T00:22:03Z</time></trkpt>
<trkpt lat="30.04922" lon="102.603506">
<time>2015-08-06T00:22:04Z</time></trkpt>
<trkpt lat="30.04918" lon="102.603376">
<time>2015-08-06T00:22:05Z</time></trkpt>
<trkpt lat="30.04915" lon="102.603157">
<time>2015-08-06T00:22:06Z</time></trkpt>
<trkpt lat="30.04912" lon="102.602867">
<time>2015-08-06T00:22:07Z</time></trkpt>
<trkpt lat="30.04908" lon="102.602547">
<time>2015-08-06T00:22:08Z</time></trkpt>
<trkpt lat="30.04905" lon="102.602277">
<time>2015-08-06T00:22:09Z</time></trkpt>
<trkpt lat="30.04902" lon="102.602097">
<time>2015-08-06T00:22:10Z</time></trkpt>
<trkpt lat="30.04898" lon="102.601907">
<time>2015-08-06T00:22:11Z</time></trkpt>
<trkpt lat="30.0489" lon="102.601677">
<time>2015-08-06T00:22:12Z</time></trkpt>
<trkpt lat="30.04875" lon="102.601378">
<time>2015-08-06T00:22:13Z</time></trkpt>
<trkpt lat="30.04849" lon="102.600878">
<time>2015-08-06T00:22:14Z</time></trkpt>
<trkpt lat="30.04838" lon="102.600698">
<time>2015-08-06T00:22:15Z</time></trkpt>
<trkpt lat="30.04822" lon="102.600438">
<time>2015-08-06T00:22:16Z</time></trkpt>
<trkpt lat="30.048021" lon="102.600148">
<time>2015-08-06T00:22:17Z</time></trkpt>
<trkpt lat="30.047921" lon="102.600018">
<time>2015-08-06T00:22:18Z</time></trkpt>
<trkpt lat="30.047771" lon="102.599828">
<time>2015-08-06T00:22:19Z</time></trkpt>
<trkpt lat="30.047681" lon="102.599699">
<time>2015-08-06T00:22:20Z</time></trkpt>
<trkpt lat="30.047571" lon="102.599599">
<time>2015-08-06T00:22:21Z</time></trkpt>
<trkpt lat="30.047511" lon="102.599559">
<time>2015-08-06T00:22:22Z</time></trkpt>
<trkpt lat="30.047421" lon="102.599529">
<time>2015-08-06T00:22:23Z</time></trkpt>
<trkpt lat="30.047301" lon="102.599489">
<time>2015-08-06T00:22:24Z</time></trkpt>
<trkpt lat="30.046501" lon="102.599289">
<time>2015-08-06T00:22:25Z</time></trkpt>
<trkpt lat="30.046271" lon="102.599209">
<time>2015-08-06T00:22:26Z</time></trkpt>
<trkpt lat="30.046111" lon="102.599129">
<time>2015-08-06T00:22:27Z</time></trkpt>
<trkpt lat="30.045621" lon="102.598789">
<time>2015-08-06T00:22:28Z</time></trkpt>
<trkpt lat="30.045171" lon="102.598509">
<time>2015-08-06T00:22:29Z</time></trkpt>
<trkpt lat="30.044531" lon="102.598069">
<time>2015-08-06T00:22:30Z</time></trkpt>
<trkpt lat="30.044311" lon="102.597919">
<time>2015-08-06T00:22:31Z</time></trkpt>
<trkpt lat="30.044171" lon="102.597839">
<time>2015-08-06T00:22:32Z</time></trkpt>
<trkpt lat="30.044101" lon="102.59781">
<time>2015-08-06T00:22:33Z</time></trkpt>
<trkpt lat="30.044011" lon="102.59778">
<time>2015-08-06T00:22:34Z</time></trkpt>
<trkpt lat="30.043961" lon="102.59778">
<time>2015-08-06T00:22:35Z</time></trkpt>
<trkpt lat="30.043881" lon="102.59777">
<time>2015-08-06T00:22:36Z</time></trkpt>
<trkpt lat="30.043701" lon="102.59777">
<time>2015-08-06T00:22:37Z</time></trkpt>
<trkpt lat="30.042631" lon="102.59781">
<time>2015-08-06T00:22:38Z</time></trkpt>
<trkpt lat="30.042381" lon="102.59781">
<time>2015-08-06T00:22:39Z</time></trkpt>
<trkpt lat="30.042321" lon="102.59781">
<time>2015-08-06T00:22:40Z</time></trkpt>
<trkpt lat="30.042261" lon="102.59779">
<time>2015-08-06T00:22:41Z</time></trkpt>
<trkpt lat="30.042201" lon="102.59777">
<time>2015-08-06T00:22:42Z</time></trkpt>
<trkpt lat="30.042111" lon="102.59773">
<time>2015-08-06T00:22:43Z</time></trkpt>
<trkpt lat="30.041701" lon="102.59754">
<time>2015-08-06T00:22:44Z</time></trkpt>
<trkpt lat="30.041081" lon="102.59722">
<time>2015-08-06T00:22:45Z</time></trkpt>
<trkpt lat="30.040871" lon="102.59711">
<time>2015-08-06T00:22:46Z</time></trkpt>
<trkpt lat="30.040801" lon="102.59706">
<time>2015-08-06T00:22:47Z</time></trkpt>
<trkpt lat="30.040751" lon="102.59703">
<time>2015-08-06T00:22:48Z</time></trkpt>
<trkpt lat="30.040651" lon="102.59694">
<time>2015-08-06T00:22:49Z</time></trkpt>
<trkpt lat="30.040591" lon="102.59686">
<time>2015-08-06T00:22:50Z</time></trkpt>
<trkpt lat="30.040561" lon="102.59681">
<time>2015-08-06T00:22:51Z</time></trkpt>
<trkpt lat="30.040541" lon="102.59676">
<time>2015-08-06T00:22:52Z</time></trkpt>
<trkpt lat="30.040521" lon="102.59671">
<time>2015-08-06T00:22:53Z</time></trkpt>
<trkpt lat="30.040511" lon="102.59665">
<time>2015-08-06T00:22:54Z</time></trkpt>
<trkpt lat="30.040481" lon="102.59654">
<time>2015-08-06T00:22:55Z</time></trkpt>
<trkpt lat="30.040461" lon="102.59637">
<time>2015-08-06T00:22:56Z</time></trkpt>
<trkpt lat="30.040391" lon="102.59539">
<time>2015-08-06T00:22:57Z</time></trkpt>
<trkpt lat="30.040381" lon="102.59516">
<time>2015-08-06T00:22:58Z</time></trkpt>
<trkpt lat="30.040381" lon="102.595011">
<time>2015-08-06T00:22:59Z</time></trkpt>
<trkpt lat="30.040391" lon="102.594841">
<time>2015-08-06T00:23:00Z</time></trkpt>
<trkpt lat="30.040411" lon="102.594661">
<time>2015-08-06T00:23:01Z</time></trkpt>
<trkpt lat="30.040431" lon="102.594461">
<time>2015-08-06T00:23:02Z</time></trkpt>
<trkpt lat="30.040521" lon="102.593891">
<time>2015-08-06T00:23:03Z</time></trkpt>
<trkpt lat="30.040621" lon="102.593361">
<time>2015-08-06T00:23:04Z</time></trkpt>
<trkpt lat="30.04085" lon="102.592431">
<time>2015-08-06T00:23:05Z</time></trkpt>
<trkpt lat="30.04093" lon="102.592091">
<time>2015-08-06T00:23:06Z</time></trkpt>
<trkpt lat="30.04095" lon="102.591951">
<time>2015-08-06T00:23:07Z</time></trkpt>
<trkpt lat="30.04097" lon="102.591791">
<time>2015-08-06T00:23:08Z</time></trkpt>
<trkpt lat="30.04098" lon="102.591691">
<time>2015-08-06T00:23:09Z</time></trkpt>
<trkpt lat="30.04098" lon="102.591601">
<time>2015-08-06T00:23:10Z</time></trkpt>
<trkpt lat="30.04097" lon="102.591481">
<time>2015-08-06T00:23:11Z</time></trkpt>
<trkpt lat="30.04094" lon="102.591211">
<time>2015-08-06T00:23:12Z</time></trkpt>
<trkpt lat="30.04079" lon="102.590181">
<time>2015-08-06T00:23:13Z</time></trkpt>
<trkpt lat="30.04076" lon="102.590001">
<time>2015-08-06T00:23:14Z</time></trkpt>
<trkpt lat="30.04075" lon="102.589921">
<time>2015-08-06T00:23:15Z</time></trkpt>
<trkpt lat="30.04072" lon="102.589851">
<time>2015-08-06T00:23:16Z</time></trkpt>
<trkpt lat="30.0407" lon="102.589781">
<time>2015-08-06T00:23:17Z</time></trkpt>
<trkpt lat="30.04067" lon="102.589701">
<time>2015-08-06T00:23:18Z</time></trkpt>
<trkpt lat="30.04062" lon="102.589591">
<time>2015-08-06T00:23:19Z</time></trkpt>
<trkpt lat="30.04055" lon="102.589471">
<time>2015-08-06T00:23:20Z</time></trkpt>
<trkpt lat="30.039709" lon="102.588051">
<time>2015-08-06T00:23:21Z</time></trkpt>
<trkpt lat="30.039499" lon="102.587711">
<time>2015-08-06T00:23:22Z</time></trkpt>
<trkpt lat="30.039449" lon="102.587581">
<time>2015-08-06T00:23:23Z</time></trkpt>
<trkpt lat="30.039409" lon="102.587471">
<time>2015-08-06T00:23:24Z</time></trkpt>
<trkpt lat="30.039369" lon="102.587351">
<time>2015-08-06T00:23:25Z</time></trkpt>
<trkpt lat="30.039349" lon="102.587221">
<time>2015-08-06T00:23:26Z</time></trkpt>
<trkpt lat="30.039339" lon="102.587101">
<time>2015-08-06T00:23:27Z</time></trkpt>
<trkpt lat="30.039329" lon="102.586931">
<time>2015-08-06T00:23:28Z</time></trkpt>
<trkpt lat="30.039359" lon="102.586661">
<time>2015-08-06T00:23:29Z</time></trkpt>
<trkpt lat="30.039418" lon="102.586021">
<time>2015-08-06T00:23:30Z</time></trkpt>
<trkpt lat="30.039508" lon="102.5848">
<time>2015-08-06T00:23:31Z</time></trkpt>
<trkpt lat="30.039528" lon="102.58446">
<time>2015-08-06T00:23:32Z</time></trkpt>
<trkpt lat="30.039577" lon="102.58407">
<time>2015-08-06T00:23:33Z</time></trkpt>
<trkpt lat="30.039757" lon="102.5828">
<time>2015-08-06T00:23:34Z</time></trkpt>
<trkpt lat="30.039866" lon="102.581859">
<time>2015-08-06T00:23:35Z</time></trkpt>
<trkpt lat="30.039876" lon="102.581719">
<time>2015-08-06T00:23:36Z</time></trkpt>
<trkpt lat="30.039876" lon="102.581619">
<time>2015-08-06T00:23:37Z</time></trkpt>
<trkpt lat="30.039876" lon="102.581529">
<time>2015-08-06T00:23:38Z</time></trkpt>
<trkpt lat="30.039866" lon="102.581449">
<time>2015-08-06T00:23:39Z</time></trkpt>
<trkpt lat="30.039856" lon="102.581369">
<time>2015-08-06T00:23:40Z</time></trkpt>
<trkpt lat="30.039836" lon="102.581299">
<time>2015-08-06T00:23:41Z</time></trkpt>
<trkpt lat="30.039796" lon="102.581139">
<time>2015-08-06T00:23:42Z</time></trkpt>
<trkpt lat="30.039655" lon="102.580629">
<time>2015-08-06T00:23:43Z</time></trkpt>
<trkpt lat="30.039515" lon="102.580138">
<time>2015-08-06T00:23:44Z</time></trkpt>
<trkpt lat="30.039405" lon="102.579778">
<time>2015-08-06T00:23:45Z</time></trkpt>
<trkpt lat="30.039334" lon="102.579498">
<time>2015-08-06T00:23:46Z</time></trkpt>
<trkpt lat="30.039314" lon="102.579438">
<time>2015-08-06T00:23:47Z</time></trkpt>
<trkpt lat="30.039294" lon="102.579368">
<time>2015-08-06T00:23:48Z</time></trkpt>
<trkpt lat="30.039294" lon="102.579328">
<time>2015-08-06T00:23:49Z</time></trkpt>
<trkpt lat="30.039284" lon="102.579278">
<time>2015-08-06T00:23:50Z</time></trkpt>
<trkpt lat="30.039294" lon="102.579238">
<time>2015-08-06T00:23:51Z</time></trkpt>
<trkpt lat="30.039294" lon="102.579198">
<time>2015-08-06T00:23:52Z</time></trkpt>
<trkpt lat="30.039304" lon="102.579148">
<time>2015-08-06T00:23:53Z</time></trkpt>
<trkpt lat="30.039334" lon="102.579028">
<time>2015-08-06T00:23:54Z</time></trkpt>
<trkpt lat="30.039384" lon="102.578878">
<time>2015-08-06T00:23:55Z</time></trkpt>
<trkpt lat="30.039464" lon="102.578697">
<time>2015-08-06T00:23:56Z</time></trkpt>
<trkpt lat="30.039494" lon="102.578617">
<time>2015-08-06T00:23:57Z</time></trkpt>
<trkpt lat="30.039514" lon="102.578537">
<time>2015-08-06T00:23:58Z</time></trkpt>
<trkpt lat="30.039534" lon="102.578467">
<time>2015-08-06T00:23:59Z</time></trkpt>
<trkpt lat="30.039534" lon="102.578407">
<time>2015-08-06T00:24:00Z</time></trkpt>
<trkpt lat="30.039534" lon="102.578357">
<time>2015-08-06T00:24:01Z</time></trkpt>
<trkpt lat="30.039534" lon="102.578327">
<time>2015-08-06T00:24:02Z</time></trkpt>
<trkpt lat="30.039524" lon="102.578287">
<time>2015-08-06T00:24:03Z</time></trkpt>
<trkpt lat="30.039523" lon="102.578237">
<time>2015-08-06T00:24:04Z</time></trkpt>
<trkpt lat="30.039503" lon="102.578187">
<time>2015-08-06T00:24:05Z</time></trkpt>
<trkpt lat="30.039483" lon="102.578117">
<time>2015-08-06T00:24:06Z</time></trkpt>
<trkpt lat="30.039453" lon="102.578047">
<time>2015-08-06T00:24:07Z</time></trkpt>
<trkpt lat="30.039423" lon="102.577997">
<time>2015-08-06T00:24:08Z</time></trkpt>
<trkpt lat="30.039373" lon="102.577937">
<time>2015-08-06T00:24:09Z</time></trkpt>
<trkpt lat="30.039323" lon="102.577897">
<time>2015-08-06T00:24:10Z</time></trkpt>
<trkpt lat="30.039243" lon="102.577837">
<time>2015-08-06T00:24:11Z</time></trkpt>
<trkpt lat="30.039123" lon="102.577787">
<time>2015-08-06T00:24:12Z</time></trkpt>
<trkpt lat="30.038923" lon="102.577727">
<time>2015-08-06T00:24:13Z</time></trkpt>
<trkpt lat="30.037793" lon="102.577347">
<time>2015-08-06T00:24:14Z</time></trkpt>
<trkpt lat="30.037323" lon="102.577157">
<time>2015-08-06T00:24:15Z</time></trkpt>
<trkpt lat="30.037142" lon="102.577046">
<time>2015-08-06T00:24:16Z</time></trkpt>
<trkpt lat="30.037012" lon="102.576956">
<time>2015-08-06T00:24:17Z</time></trkpt>
<trkpt lat="30.036852" lon="102.576836">
<time>2015-08-06T00:24:18Z</time></trkpt>
<trkpt lat="30.036632" lon="102.576626">
<time>2015-08-06T00:24:19Z</time></trkpt>
<trkpt lat="30.036522" lon="102.576476">
<time>2015-08-06T00:24:20Z</time></trkpt>
<trkpt lat="30.036442" lon="102.576296">
<time>2015-08-06T00:24:21Z</time></trkpt>
<trkpt lat="30.036312" lon="102.575966">
<time>2015-08-06T00:24:22Z</time></trkpt>
<trkpt lat="30.036041" lon="102.575235">
<time>2015-08-06T00:24:23Z</time></trkpt>
<trkpt lat="30.0358" lon="102.574675">
<time>2015-08-06T00:24:24Z</time></trkpt>
<trkpt lat="30.03558" lon="102.574194">
<time>2015-08-06T00:24:25Z</time></trkpt>
<trkpt lat="30.034247" lon="102.571642">
<time>2015-08-06T00:24:26Z</time></trkpt>
<trkpt lat="30.034187" lon="102.571552">
<time>2015-08-06T00:24:27Z</time></trkpt>
<trkpt lat="30.034127" lon="102.571462">
<time>2015-08-06T00:24:28Z</time></trkpt>
<trkpt lat="30.034047" lon="102.571362">
<time>2015-08-06T00:24:29Z</time></trkpt>
<trkpt lat="30.033947" lon="102.571272">
<time>2015-08-06T00:24:30Z</time></trkpt>
<trkpt lat="30.033506" lon="102.570851">
<time>2015-08-06T00:24:31Z</time></trkpt>
<trkpt lat="30.032816" lon="102.570241">
<time>2015-08-06T00:24:32Z</time></trkpt>
<trkpt lat="30.032705" lon="102.57014">
<time>2015-08-06T00:24:33Z</time></trkpt>
<trkpt lat="30.032595" lon="102.57007">
<time>2015-08-06T00:24:34Z</time></trkpt>
<trkpt lat="30.032505" lon="102.57001">
<time>2015-08-06T00:24:35Z</time></trkpt>
<trkpt lat="30.032415" lon="102.56997">
<time>2015-08-06T00:24:36Z</time></trkpt>
<trkpt lat="30.032065" lon="102.56985">
<time>2015-08-06T00:24:37Z</time></trkpt>
<trkpt lat="30.031455" lon="102.56967">
<time>2015-08-06T00:24:38Z</time></trkpt>
<trkpt lat="30.031205" lon="102.56961">
<time>2015-08-06T00:24:39Z</time></trkpt>
<trkpt lat="30.030935" lon="102.56958">
<time>2015-08-06T00:24:40Z</time></trkpt>
<trkpt lat="30.030465" lon="102.56954">
<time>2015-08-06T00:24:41Z</time></trkpt>
<trkpt lat="30.029935" lon="102.56948">
<time>2015-08-06T00:24:42Z</time></trkpt>
<trkpt lat="30.029174" lon="102.56936">
<time>2015-08-06T00:24:43Z</time></trkpt>
<trkpt lat="30.028694" lon="102.56931">
<time>2015-08-06T00:24:44Z</time></trkpt>
<trkpt lat="30.028584" lon="102.56929">
<time>2015-08-06T00:24:45Z</time></trkpt>
<trkpt lat="30.028484" lon="102.56926">
<time>2015-08-06T00:24:46Z</time></trkpt>
<trkpt lat="30.028384" lon="102.56922">
<time>2015-08-06T00:24:47Z</time></trkpt>
<trkpt lat="30.028304" lon="102.56916">
<time>2015-08-06T00:24:48Z</time></trkpt>
<trkpt lat="30.028194" lon="102.569099">
<time>2015-08-06T00:24:49Z</time></trkpt>
<trkpt lat="30.028094" lon="102.569019">
<time>2015-08-06T00:24:50Z</time></trkpt>
<trkpt lat="30.028004" lon="102.568929">
<time>2015-08-06T00:24:51Z</time></trkpt>
<trkpt lat="30.027794" lon="102.568669">
<time>2015-08-06T00:24:52Z</time></trkpt>
<trkpt lat="30.027643" lon="102.568469">
<time>2015-08-06T00:24:53Z</time></trkpt>
<trkpt lat="30.027533" lon="102.568299">
<time>2015-08-06T00:24:54Z</time></trkpt>
<trkpt lat="30.027443" lon="102.568108">
<time>2015-08-06T00:24:55Z</time></trkpt>
<trkpt lat="30.027363" lon="102.567898">
<time>2015-08-06T00:24:56Z</time></trkpt>
<trkpt lat="30.027322" lon="102.567628">
<time>2015-08-06T00:24:57Z</time></trkpt>
<trkpt lat="30.027312" lon="102.567337">
<time>2015-08-06T00:24:58Z</time></trkpt>
<trkpt lat="30.027332" lon="102.566997">
<time>2015-08-06T00:24:59Z</time></trkpt>
<trkpt lat="30.027351" lon="102.566667">
<time>2015-08-06T00:25:00Z</time></trkpt>
<trkpt lat="30.027361" lon="102.566506">
<time>2015-08-06T00:25:01Z</time></trkpt>
<trkpt lat="30.027381" lon="102.566336">
<time>2015-08-06T00:25:02Z</time></trkpt>
<trkpt lat="30.02744" lon="102.566116">
<time>2015-08-06T00:25:03Z</time></trkpt>
<trkpt lat="30.02752" lon="102.565936">
<time>2015-08-06T00:25:04Z</time></trkpt>
<trkpt lat="30.02766" lon="102.565655">
<time>2015-08-06T00:25:05Z</time></trkpt>
<trkpt lat="30.027789" lon="102.565435">
<time>2015-08-06T00:25:06Z</time></trkpt>
<trkpt lat="30.027889" lon="102.565235">
<time>2015-08-06T00:25:07Z</time></trkpt>
<trkpt lat="30.027949" lon="102.565085">
<time>2015-08-06T00:25:08Z</time></trkpt>
<trkpt lat="30.027969" lon="102.564994">
<time>2015-08-06T00:25:09Z</time></trkpt>
<trkpt lat="30.027979" lon="102.564904">
<time>2015-08-06T00:25:10Z</time></trkpt>
<trkpt lat="30.027979" lon="102.564824">
<time>2015-08-06T00:25:11Z</time></trkpt>
<trkpt lat="30.027968" lon="102.564734">
<time>2015-08-06T00:25:12Z</time></trkpt>
<trkpt lat="30.027958" lon="102.564674">
<time>2015-08-06T00:25:13Z</time></trkpt>
<trkpt lat="30.027938" lon="102.564604">
<time>2015-08-06T00:25:14Z</time></trkpt>
<trkpt lat="30.027908" lon="102.564544">
<time>2015-08-06T00:25:15Z</time></trkpt>
<trkpt lat="30.027888" lon="102.564484">
<time>2015-08-06T00:25:16Z</time></trkpt>
<trkpt lat="30.027808" lon="102.564364">
<time>2015-08-06T00:25:17Z</time></trkpt>
<trkpt lat="30.027738" lon="102.564263">
<time>2015-08-06T00:25:18Z</time></trkpt>
<trkpt lat="30.027317" lon="102.563843">
<time>2015-08-06T00:25:19Z</time></trkpt>
<trkpt lat="30.027117" lon="102.563673">
<time>2015-08-06T00:25:20Z</time></trkpt>
<trkpt lat="30.026847" lon="102.563462">
<time>2015-08-06T00:25:21Z</time></trkpt>
<trkpt lat="30.026566" lon="102.563272">
<time>2015-08-06T00:25:22Z</time></trkpt>
<trkpt lat="30.026346" lon="102.563122">
<time>2015-08-06T00:25:23Z</time></trkpt>
<trkpt lat="30.026156" lon="102.562992">
<time>2015-08-06T00:25:24Z</time></trkpt>
<trkpt lat="30.026006" lon="102.562902">
<time>2015-08-06T00:25:25Z</time></trkpt>
<trkpt lat="30.025856" lon="102.562831">
<time>2015-08-06T00:25:26Z</time></trkpt>
<trkpt lat="30.025636" lon="102.562741">
<time>2015-08-06T00:25:27Z</time></trkpt>
<trkpt lat="30.024595" lon="102.562321">
<time>2015-08-06T00:25:28Z</time></trkpt>
<trkpt lat="30.024215" lon="102.562161">
<time>2015-08-06T00:25:29Z</time></trkpt>
<trkpt lat="30.023955" lon="102.56205">
<time>2015-08-06T00:25:30Z</time></trkpt>
<trkpt lat="30.023754" lon="102.56191">
<time>2015-08-06T00:25:31Z</time></trkpt>
<trkpt lat="30.023003" lon="102.561329">
<time>2015-08-06T00:25:32Z</time></trkpt>
<trkpt lat="30.022793" lon="102.561149">
<time>2015-08-06T00:25:33Z</time></trkpt>
<trkpt lat="30.022613" lon="102.560969">
<time>2015-08-06T00:25:34Z</time></trkpt>
<trkpt lat="30.022372" lon="102.560668">
<time>2015-08-06T00:25:35Z</time></trkpt>
<trkpt lat="30.022142" lon="102.560368">
<time>2015-08-06T00:25:36Z</time></trkpt>
<trkpt lat="30.021771" lon="102.559897">
<time>2015-08-06T00:25:37Z</time></trkpt>
<trkpt lat="30.021491" lon="102.559547">
<time>2015-08-06T00:25:38Z</time></trkpt>
<trkpt lat="30.02127" lon="102.559296">
<time>2015-08-06T00:25:39Z</time></trkpt>
<trkpt lat="30.02106" lon="102.559086">
<time>2015-08-06T00:25:40Z</time></trkpt>
<trkpt lat="30.02086" lon="102.558916">
<time>2015-08-06T00:25:41Z</time></trkpt>
<trkpt lat="30.020639" lon="102.558725">
<time>2015-08-06T00:25:42Z</time></trkpt>
<trkpt lat="30.020319" lon="102.558465">
<time>2015-08-06T00:25:43Z</time></trkpt>
<trkpt lat="30.020008" lon="102.558225">
<time>2015-08-06T00:25:44Z</time></trkpt>
<trkpt lat="30.019828" lon="102.558084">
<time>2015-08-06T00:25:45Z</time></trkpt>
<trkpt lat="30.019628" lon="102.557944">
<time>2015-08-06T00:25:46Z</time></trkpt>
<trkpt lat="30.019227" lon="102.557674">
<time>2015-08-06T00:25:47Z</time></trkpt>
<trkpt lat="30.019127" lon="102.557604">
<time>2015-08-06T00:25:48Z</time></trkpt>
<trkpt lat="30.019037" lon="102.557533">
<time>2015-08-06T00:25:49Z</time></trkpt>
<trkpt lat="30.018967" lon="102.557473">
<time>2015-08-06T00:25:50Z</time></trkpt>
<trkpt lat="30.018897" lon="102.557383">
<time>2015-08-06T00:25:51Z</time></trkpt>
<trkpt lat="30.018737" lon="102.557173">
<time>2015-08-06T00:25:52Z</time></trkpt>
<trkpt lat="30.018576" lon="102.556942">
<time>2015-08-06T00:25:53Z</time></trkpt>
<trkpt lat="30.018416" lon="102.556712">
<time>2015-08-06T00:25:54Z</time></trkpt>
<trkpt lat="30.018245" lon="102.556502">
<time>2015-08-06T00:25:55Z</time></trkpt>
<trkpt lat="30.018095" lon="102.556331">
<time>2015-08-06T00:25:56Z</time></trkpt>
<trkpt lat="30.017955" lon="102.556161">
<time>2015-08-06T00:25:57Z</time></trkpt>
<trkpt lat="30.017855" lon="102.556031">
<time>2015-08-06T00:25:58Z</time></trkpt>
<trkpt lat="30.017784" lon="102.555901">
<time>2015-08-06T00:25:59Z</time></trkpt>
<trkpt lat="30.017714" lon="102.55571">
<time>2015-08-06T00:26:00Z</time></trkpt>
<trkpt lat="30.017654" lon="102.55552">
<time>2015-08-06T00:26:01Z</time></trkpt>
<trkpt lat="30.017583" lon="102.55531">
<time>2015-08-06T00:26:02Z</time></trkpt>
<trkpt lat="30.017543" lon="102.555129">
<time>2015-08-06T00:26:03Z</time></trkpt>
<trkpt lat="30.017523" lon="102.554979">
<time>2015-08-06T00:26:04Z</time></trkpt>
<trkpt lat="30.017512" lon="102.554829">
<time>2015-08-06T00:26:05Z</time></trkpt>
<trkpt lat="30.017492" lon="102.554628">
<time>2015-08-06T00:26:06Z</time></trkpt>
<trkpt lat="30.017482" lon="102.554438">
<time>2015-08-06T00:26:07Z</time></trkpt>
<trkpt lat="30.017451" lon="102.554248">
<time>2015-08-06T00:26:08Z</time></trkpt>
<trkpt lat="30.017401" lon="102.554077">
<time>2015-08-06T00:26:09Z</time></trkpt>
<trkpt lat="30.017301" lon="102.553797">
<time>2015-08-06T00:26:10Z</time></trkpt>
<trkpt lat="30.0172" lon="102.553536">
<time>2015-08-06T00:26:11Z</time></trkpt>
<trkpt lat="30.01711" lon="102.553366">
<time>2015-08-06T00:26:12Z</time></trkpt>
<trkpt lat="30.017009" lon="102.553196">
<time>2015-08-06T00:26:13Z</time></trkpt>
<trkpt lat="30.016759" lon="102.552805">
<time>2015-08-06T00:26:14Z</time></trkpt>
<trkpt lat="30.016598" lon="102.552574">
<time>2015-08-06T00:26:15Z</time></trkpt>
<trkpt lat="30.016488" lon="102.552434">
<time>2015-08-06T00:26:16Z</time></trkpt>
<trkpt lat="30.016298" lon="102.552244">
<time>2015-08-06T00:26:17Z</time></trkpt>
<trkpt lat="30.016087" lon="102.552043">
<time>2015-08-06T00:26:18Z</time></trkpt>
<trkpt lat="30.015987" lon="102.551933">
<time>2015-08-06T00:26:19Z</time></trkpt>
<trkpt lat="30.015917" lon="102.551843">
<time>2015-08-06T00:26:20Z</time></trkpt>
<trkpt lat="30.015847" lon="102.551743">
<time>2015-08-06T00:26:21Z</time></trkpt>
<trkpt lat="30.015756" lon="102.551603">
<time>2015-08-06T00:26:22Z</time></trkpt>
<trkpt lat="30.015626" lon="102.551382">
<time>2015-08-06T00:26:23Z</time></trkpt>
<trkpt lat="30.015496" lon="102.551102">
<time>2015-08-06T00:26:24Z</time></trkpt>
<trkpt lat="30.015375" lon="102.550861">
<time>2015-08-06T00:26:25Z</time></trkpt>
<trkpt lat="30.015244" lon="102.550551">
<time>2015-08-06T00:26:26Z</time></trkpt>
<trkpt lat="30.015124" lon="102.55026">
<time>2015-08-06T00:26:27Z</time></trkpt>
<trkpt lat="30.015033" lon="102.550009">
<time>2015-08-06T00:26:28Z</time></trkpt>
<trkpt lat="30.014923" lon="102.549689">
<time>2015-08-06T00:26:29Z</time></trkpt>
<trkpt lat="30.014822" lon="102.549408">
<time>2015-08-06T00:26:30Z</time></trkpt>
<trkpt lat="30.014732" lon="102.549178">
<time>2015-08-06T00:26:31Z</time></trkpt>
<trkpt lat="30.014651" lon="102.549007">
<time>2015-08-06T00:26:32Z</time></trkpt>
<trkpt lat="30.014501" lon="102.548717">
<time>2015-08-06T00:26:33Z</time></trkpt>
<trkpt lat="30.01436" lon="102.548486">
<time>2015-08-06T00:26:34Z</time></trkpt>
<trkpt lat="30.01421" lon="102.548246">
<time>2015-08-06T00:26:35Z</time></trkpt>
<trkpt lat="30.012836" lon="102.546201">
<time>2015-08-06T00:26:36Z</time></trkpt>
<trkpt lat="30.012565" lon="102.545791">
<time>2015-08-06T00:26:37Z</time></trkpt>
<trkpt lat="30.012424" lon="102.54555">
<time>2015-08-06T00:26:38Z</time></trkpt>
<trkpt lat="30.012294" lon="102.545289">
<time>2015-08-06T00:26:39Z</time></trkpt>
<trkpt lat="30.012173" lon="102.545009">
<time>2015-08-06T00:26:40Z</time></trkpt>
<trkpt lat="30.011821" lon="102.544167">
<time>2015-08-06T00:26:41Z</time></trkpt>
<trkpt lat="30.011751" lon="102.544027">
<time>2015-08-06T00:26:42Z</time></trkpt>
<trkpt lat="30.01168" lon="102.543866">
<time>2015-08-06T00:26:43Z</time></trkpt>
<trkpt lat="30.01153" lon="102.543616">
<time>2015-08-06T00:26:44Z</time></trkpt>
<trkpt lat="30.01143" lon="102.543465">
<time>2015-08-06T00:26:45Z</time></trkpt>
<trkpt lat="30.011359" lon="102.543355">
<time>2015-08-06T00:26:46Z</time></trkpt>
<trkpt lat="30.011269" lon="102.543235">
<time>2015-08-06T00:26:47Z</time></trkpt>
<trkpt lat="30.011169" lon="102.543115">
<time>2015-08-06T00:26:48Z</time></trkpt>
<trkpt lat="30.010958" lon="102.542884">
<time>2015-08-06T00:26:49Z</time></trkpt>
<trkpt lat="30.010728" lon="102.542673">
<time>2015-08-06T00:26:50Z</time></trkpt>
<trkpt lat="30.010628" lon="102.542553">
<time>2015-08-06T00:26:51Z</time></trkpt>
<trkpt lat="30.010537" lon="102.542433">
<time>2015-08-06T00:26:52Z</time></trkpt>
<trkpt lat="30.010477" lon="102.542323">
<time>2015-08-06T00:26:53Z</time></trkpt>
<trkpt lat="30.010397" lon="102.542142">
<time>2015-08-06T00:26:54Z</time></trkpt>
<trkpt lat="30.010246" lon="102.541761">
<time>2015-08-06T00:26:55Z</time></trkpt>
<trkpt lat="30.010175" lon="102.541531">
<time>2015-08-06T00:26:56Z</time></trkpt>
<trkpt lat="30.010105" lon="102.5413">
<time>2015-08-06T00:26:57Z</time></trkpt>
<trkpt lat="30.010054" lon="102.54108">
<time>2015-08-06T00:26:58Z</time></trkpt>
<trkpt lat="30.009943" lon="102.540488">
<time>2015-08-06T00:26:59Z</time></trkpt>
<trkpt lat="30.009913" lon="102.540358">
<time>2015-08-06T00:27:00Z</time></trkpt>
<trkpt lat="30.009892" lon="102.540208">
<time>2015-08-06T00:27:01Z</time></trkpt>
<trkpt lat="30.009882" lon="102.540037">
<time>2015-08-06T00:27:02Z</time></trkpt>
<trkpt lat="30.009881" lon="102.539847">
<time>2015-08-06T00:27:03Z</time></trkpt>
<trkpt lat="30.009916" lon="102.537721">
<time>2015-08-06T00:27:04Z</time></trkpt>
<trkpt lat="30.009903" lon="102.536178">
<time>2015-08-06T00:27:05Z</time></trkpt>
<trkpt lat="30.009892" lon="102.536017">
<time>2015-08-06T00:27:06Z</time></trkpt>
<trkpt lat="30.009862" lon="102.535847">
<time>2015-08-06T00:27:07Z</time></trkpt>
<trkpt lat="30.009811" lon="102.535676">
<time>2015-08-06T00:27:08Z</time></trkpt>
<trkpt lat="30.009751" lon="102.535516">
<time>2015-08-06T00:27:09Z</time></trkpt>
<trkpt lat="30.009701" lon="102.535375">
<time>2015-08-06T00:27:10Z</time></trkpt>
<trkpt lat="30.009479" lon="102.534824">
<time>2015-08-06T00:27:11Z</time></trkpt>
<trkpt lat="30.009439" lon="102.534714">
<time>2015-08-06T00:27:12Z</time></trkpt>
<trkpt lat="30.009399" lon="102.534593">
<time>2015-08-06T00:27:13Z</time></trkpt>
<trkpt lat="30.009379" lon="102.534513">
<time>2015-08-06T00:27:14Z</time></trkpt>
<trkpt lat="30.009358" lon="102.534433">
<time>2015-08-06T00:27:15Z</time></trkpt>
<trkpt lat="30.009348" lon="102.534333">
<time>2015-08-06T00:27:16Z</time></trkpt>
<trkpt lat="30.009338" lon="102.534222">
<time>2015-08-06T00:27:17Z</time></trkpt>
<trkpt lat="30.009347" lon="102.534092">
<time>2015-08-06T00:27:18Z</time></trkpt>
<trkpt lat="30.009386" lon="102.533611">
<time>2015-08-06T00:27:19Z</time></trkpt>
<trkpt lat="30.009386" lon="102.53339">
<time>2015-08-06T00:27:20Z</time></trkpt>
<trkpt lat="30.009345" lon="102.533099">
<time>2015-08-06T00:27:21Z</time></trkpt>
<trkpt lat="30.00908" lon="102.531295">
<time>2015-08-06T00:27:22Z</time></trkpt>
<trkpt lat="30.009029" lon="102.530783">
<time>2015-08-06T00:27:23Z</time></trkpt>
<trkpt lat="30.008968" lon="102.530422">
<time>2015-08-06T00:27:24Z</time></trkpt>
<trkpt lat="30.008877" lon="102.530051">
<time>2015-08-06T00:27:25Z</time></trkpt>
<trkpt lat="30.008686" lon="102.5295">
<time>2015-08-06T00:27:26Z</time></trkpt>
<trkpt lat="30.008605" lon="102.529229">
<time>2015-08-06T00:27:27Z</time></trkpt>
<trkpt lat="30.008524" lon="102.528928">
<time>2015-08-06T00:27:28Z</time></trkpt>
<trkpt lat="30.008362" lon="102.528126">
<time>2015-08-06T00:27:29Z</time></trkpt>
<trkpt lat="30.007997" lon="102.52606">
<time>2015-08-06T00:27:30Z</time></trkpt>
<trkpt lat="30.007855" lon="102.525368">
<time>2015-08-06T00:27:31Z</time></trkpt>
<trkpt lat="30.007622" lon="102.524295">
<time>2015-08-06T00:27:32Z</time></trkpt>
<trkpt lat="30.00751" lon="102.523573">
<time>2015-08-06T00:27:33Z</time></trkpt>
<trkpt lat="30.007437" lon="102.522529">
<time>2015-08-06T00:27:34Z</time></trkpt>
<trkpt lat="30.007425" lon="102.521817">
<time>2015-08-06T00:27:35Z</time></trkpt>
<trkpt lat="30.007421" lon="102.520343">
<time>2015-08-06T00:27:36Z</time></trkpt>
<trkpt lat="30.007379" lon="102.519741">
<time>2015-08-06T00:27:37Z</time></trkpt>
<trkpt lat="30.007348" lon="102.519169">
<time>2015-08-06T00:27:38Z</time></trkpt>
<trkpt lat="30.007347" lon="102.518848">
<time>2015-08-06T00:27:39Z</time></trkpt>
<trkpt lat="30.007376" lon="102.518507">
<time>2015-08-06T00:27:40Z</time></trkpt>
<trkpt lat="30.007414" lon="102.518026">
<time>2015-08-06T00:27:41Z</time></trkpt>
<trkpt lat="30.007503" lon="102.517504">
<time>2015-08-06T00:27:42Z</time></trkpt>
<trkpt lat="30.007967" lon="102.515528">
<time>2015-08-06T00:27:43Z</time></trkpt>
<trkpt lat="30.007987" lon="102.515408">
<time>2015-08-06T00:27:44Z</time></trkpt>
<trkpt lat="30.007996" lon="102.515257">
<time>2015-08-06T00:27:45Z</time></trkpt>
<trkpt lat="30.007986" lon="102.515117">
<time>2015-08-06T00:27:46Z</time></trkpt>
<trkpt lat="30.007966" lon="102.514976">
<time>2015-08-06T00:27:47Z</time></trkpt>
<trkpt lat="30.007925" lon="102.514836">
<time>2015-08-06T00:27:48Z</time></trkpt>
<trkpt lat="30.007865" lon="102.514716">
<time>2015-08-06T00:27:49Z</time></trkpt>
<trkpt lat="30.007744" lon="102.514525">
<time>2015-08-06T00:27:50Z</time></trkpt>
<trkpt lat="30.007624" lon="102.514354">
<time>2015-08-06T00:27:51Z</time></trkpt>
<trkpt lat="30.007554" lon="102.514254">
<time>2015-08-06T00:27:52Z</time></trkpt>
<trkpt lat="30.007473" lon="102.514134">
<time>2015-08-06T00:27:53Z</time></trkpt>
<trkpt lat="30.007423" lon="102.514094">
<time>2015-08-06T00:27:54Z</time></trkpt>
<trkpt lat="30.007373" lon="102.514043">
<time>2015-08-06T00:27:55Z</time></trkpt>
<trkpt lat="30.007323" lon="102.513993">
<time>2015-08-06T00:27:56Z</time></trkpt>
<trkpt lat="30.007243" lon="102.513943">
<time>2015-08-06T00:27:57Z</time></trkpt>
<trkpt lat="30.007042" lon="102.513853">
<time>2015-08-06T00:27:58Z</time></trkpt>
<trkpt lat="30.006852" lon="102.513763">
<time>2015-08-06T00:27:59Z</time></trkpt>
<trkpt lat="30.006772" lon="102.513732">
<time>2015-08-06T00:28:00Z</time></trkpt>
<trkpt lat="30.006662" lon="102.513682">
<time>2015-08-06T00:28:01Z</time></trkpt>
<trkpt lat="30.006552" lon="102.513602">
<time>2015-08-06T00:28:02Z</time></trkpt>
<trkpt lat="30.006471" lon="102.513532">
<time>2015-08-06T00:28:03Z</time></trkpt>
<trkpt lat="30.006401" lon="102.513452">
<time>2015-08-06T00:28:04Z</time></trkpt>
<trkpt lat="30.006331" lon="102.513351">
<time>2015-08-06T00:28:05Z</time></trkpt>
<trkpt lat="30.00604" lon="102.51296">
<time>2015-08-06T00:28:06Z</time></trkpt>
<trkpt lat="30.005738" lon="102.512468">
<time>2015-08-06T00:28:07Z</time></trkpt>
<trkpt lat="30.005477" lon="102.511997">
<time>2015-08-06T00:28:08Z</time></trkpt>
<trkpt lat="30.005427" lon="102.511867">
<time>2015-08-06T00:28:09Z</time></trkpt>
<trkpt lat="30.005386" lon="102.511756">
<time>2015-08-06T00:28:10Z</time></trkpt>
<trkpt lat="30.005346" lon="102.511616">
<time>2015-08-06T00:28:11Z</time></trkpt>
<trkpt lat="30.005315" lon="102.511465">
<time>2015-08-06T00:28:12Z</time></trkpt>
<trkpt lat="30.005295" lon="102.511315">
<time>2015-08-06T00:28:13Z</time></trkpt>
<trkpt lat="30.005284" lon="102.511164">
<time>2015-08-06T00:28:14Z</time></trkpt>
<trkpt lat="30.005291" lon="102.50983">
<time>2015-08-06T00:28:15Z</time></trkpt>
<trkpt lat="30.00529" lon="102.50969">
<time>2015-08-06T00:28:16Z</time></trkpt>
<trkpt lat="30.0053" lon="102.509599">
<time>2015-08-06T00:28:17Z</time></trkpt>
<trkpt lat="30.00532" lon="102.509479">
<time>2015-08-06T00:28:18Z</time></trkpt>
<trkpt lat="30.005349" lon="102.509338">
<time>2015-08-06T00:28:19Z</time></trkpt>
<trkpt lat="30.005399" lon="102.509168">
<time>2015-08-06T00:28:20Z</time></trkpt>
<trkpt lat="30.005478" lon="102.508937">
<time>2015-08-06T00:28:21Z</time></trkpt>
<trkpt lat="30.005953" lon="102.507372">
<time>2015-08-06T00:28:22Z</time></trkpt>
<trkpt lat="30.006092" lon="102.50683">
<time>2015-08-06T00:28:23Z</time></trkpt>
<trkpt lat="30.006111" lon="102.5067">
<time>2015-08-06T00:28:24Z</time></trkpt>
<trkpt lat="30.006131" lon="102.50658">
<time>2015-08-06T00:28:25Z</time></trkpt>
<trkpt lat="30.00614" lon="102.506389">
<time>2015-08-06T00:28:26Z</time></trkpt>
<trkpt lat="30.00613" lon="102.506228">
<time>2015-08-06T00:28:27Z</time></trkpt>
<trkpt lat="30.006108" lon="102.505707">
<time>2015-08-06T00:28:28Z</time></trkpt>
<trkpt lat="30.006098" lon="102.505586">
<time>2015-08-06T00:28:29Z</time></trkpt>
<trkpt lat="30.006078" lon="102.505486">
<time>2015-08-06T00:28:30Z</time></trkpt>
<trkpt lat="30.006037" lon="102.505376">
<time>2015-08-06T00:28:31Z</time></trkpt>
<trkpt lat="30.006007" lon="102.505295">
<time>2015-08-06T00:28:32Z</time></trkpt>
<trkpt lat="30.005977" lon="102.505225">
<time>2015-08-06T00:28:33Z</time></trkpt>
<trkpt lat="30.005937" lon="102.505165">
<time>2015-08-06T00:28:34Z</time></trkpt>
<trkpt lat="30.005846" lon="102.505065">
<time>2015-08-06T00:28:35Z</time></trkpt>
<trkpt lat="30.005766" lon="102.504984">
<time>2015-08-06T00:28:36Z</time></trkpt>
<trkpt lat="30.005626" lon="102.504894">
<time>2015-08-06T00:28:37Z</time></trkpt>
<trkpt lat="30.005486" lon="102.504804">
<time>2015-08-06T00:28:38Z</time></trkpt>
<trkpt lat="30.004985" lon="102.504563">
<time>2015-08-06T00:28:39Z</time></trkpt>
<trkpt lat="30.004835" lon="102.504493">
<time>2015-08-06T00:28:40Z</time></trkpt>
<trkpt lat="30.004725" lon="102.504453">
<time>2015-08-06T00:28:41Z</time></trkpt>
<trkpt lat="30.004635" lon="102.504433">
<time>2015-08-06T00:28:42Z</time></trkpt>
<trkpt lat="30.004344" lon="102.504382">
<time>2015-08-06T00:28:43Z</time></trkpt>
<trkpt lat="30.004234" lon="102.504362">
<time>2015-08-06T00:28:44Z</time></trkpt>
<trkpt lat="30.004114" lon="102.504332">
<time>2015-08-06T00:28:45Z</time></trkpt>
<trkpt lat="30.004004" lon="102.504272">
<time>2015-08-06T00:28:46Z</time></trkpt>
<trkpt lat="30.003924" lon="102.504212">
<time>2015-08-06T00:28:47Z</time></trkpt>
<trkpt lat="30.003703" lon="102.503991">
<time>2015-08-06T00:28:48Z</time></trkpt>
<trkpt lat="30.003593" lon="102.503901">
<time>2015-08-06T00:28:49Z</time></trkpt>
<trkpt lat="30.003463" lon="102.503811">
<time>2015-08-06T00:28:50Z</time></trkpt>
<trkpt lat="30.003152" lon="102.50362">
<time>2015-08-06T00:28:51Z</time></trkpt>
<trkpt lat="30.003112" lon="102.50359">
<time>2015-08-06T00:28:52Z</time></trkpt>
<trkpt lat="30.003062" lon="102.50354">
<time>2015-08-06T00:28:53Z</time></trkpt>
<trkpt lat="30.003022" lon="102.50349">
<time>2015-08-06T00:28:54Z</time></trkpt>
<trkpt lat="30.003002" lon="102.503449">
<time>2015-08-06T00:28:55Z</time></trkpt>
<trkpt lat="30.002951" lon="102.503339">
<time>2015-08-06T00:28:56Z</time></trkpt>
<trkpt lat="30.002901" lon="102.503189">
<time>2015-08-06T00:28:57Z</time></trkpt>
<trkpt lat="30.002749" lon="102.502667">
<time>2015-08-06T00:28:58Z</time></trkpt>
<trkpt lat="30.002668" lon="102.502376">
<time>2015-08-06T00:28:59Z</time></trkpt>
<trkpt lat="30.002638" lon="102.502205">
<time>2015-08-06T00:29:00Z</time></trkpt>
<trkpt lat="30.002607" lon="102.502015">
<time>2015-08-06T00:29:01Z</time></trkpt>
<trkpt lat="30.002587" lon="102.501864">
<time>2015-08-06T00:29:02Z</time></trkpt>
<trkpt lat="30.002586" lon="102.501744">
<time>2015-08-06T00:29:03Z</time></trkpt>
<trkpt lat="30.002616" lon="102.501483">
<time>2015-08-06T00:29:04Z</time></trkpt>
<trkpt lat="30.002674" lon="102.501022">
<time>2015-08-06T00:29:05Z</time></trkpt>
<trkpt lat="30.002684" lon="102.500821">
<time>2015-08-06T00:29:06Z</time></trkpt>
<trkpt lat="30.002673" lon="102.50063">
<time>2015-08-06T00:29:07Z</time></trkpt>
<trkpt lat="30.002652" lon="102.50041">
<time>2015-08-06T00:29:08Z</time></trkpt>
<trkpt lat="30.002592" lon="102.500179">
<time>2015-08-06T00:29:09Z</time></trkpt>
<trkpt lat="30.002551" lon="102.500018">
<time>2015-08-06T00:29:10Z</time></trkpt>
<trkpt lat="30.002359" lon="102.499236">
<time>2015-08-06T00:29:11Z</time></trkpt>
<trkpt lat="30.002339" lon="102.499105">
<time>2015-08-06T00:29:12Z</time></trkpt>
<trkpt lat="30.002328" lon="102.499035">
<time>2015-08-06T00:29:13Z</time></trkpt>
<trkpt lat="30.002318" lon="102.498955">
<time>2015-08-06T00:29:14Z</time></trkpt>
<trkpt lat="30.002308" lon="102.498854">
<time>2015-08-06T00:29:15Z</time></trkpt>
<trkpt lat="30.002308" lon="102.498774">
<time>2015-08-06T00:29:16Z</time></trkpt>
<trkpt lat="30.002336" lon="102.498283">
<time>2015-08-06T00:29:17Z</time></trkpt>
<trkpt lat="30.002336" lon="102.498182">
<time>2015-08-06T00:29:18Z</time></trkpt>
<trkpt lat="30.002326" lon="102.498082">
<time>2015-08-06T00:29:19Z</time></trkpt>
<trkpt lat="30.002315" lon="102.497951">
<time>2015-08-06T00:29:20Z</time></trkpt>
<trkpt lat="30.002285" lon="102.497841">
<time>2015-08-06T00:29:21Z</time></trkpt>
<trkpt lat="30.002224" lon="102.49756">
<time>2015-08-06T00:29:22Z</time></trkpt>
<trkpt lat="30.002173" lon="102.497289">
<time>2015-08-06T00:29:23Z</time></trkpt>
<trkpt lat="30.002163" lon="102.497229">
<time>2015-08-06T00:29:24Z</time></trkpt>
<trkpt lat="30.002163" lon="102.497159">
<time>2015-08-06T00:29:25Z</time></trkpt>
<trkpt lat="30.002173" lon="102.497099">
<time>2015-08-06T00:29:26Z</time></trkpt>
<trkpt lat="30.002192" lon="102.497018">
<time>2015-08-06T00:29:27Z</time></trkpt>
<trkpt lat="30.002232" lon="102.496858">
<time>2015-08-06T00:29:28Z</time></trkpt>
<trkpt lat="30.002331" lon="102.496597">
<time>2015-08-06T00:29:29Z</time></trkpt>
<trkpt lat="30.002391" lon="102.496426">
<time>2015-08-06T00:29:30Z</time></trkpt>
<trkpt lat="30.00241" lon="102.496326">
<time>2015-08-06T00:29:31Z</time></trkpt>
<trkpt lat="30.00242" lon="102.496276">
<time>2015-08-06T00:29:32Z</time></trkpt>
<trkpt lat="30.00243" lon="102.496206">
<time>2015-08-06T00:29:33Z</time></trkpt>
<trkpt lat="30.00244" lon="102.496135">
<time>2015-08-06T00:29:34Z</time></trkpt>
<trkpt lat="30.00244" lon="102.496085">
<time>2015-08-06T00:29:35Z</time></trkpt>
<trkpt lat="30.002439" lon="102.496035">
<time>2015-08-06T00:29:36Z</time></trkpt>
<trkpt lat="30.002429" lon="102.495985">
<time>2015-08-06T00:29:37Z</time></trkpt>
<trkpt lat="30.002409" lon="102.495925">
<time>2015-08-06T00:29:38Z</time></trkpt>
<trkpt lat="30.002369" lon="102.495824">
<time>2015-08-06T00:29:39Z</time></trkpt>
<trkpt lat="30.002328" lon="102.495724">
<time>2015-08-06T00:29:40Z</time></trkpt>
<trkpt lat="30.002198" lon="102.495463">
<time>2015-08-06T00:29:41Z</time></trkpt>
<trkpt lat="30.002087" lon="102.495273">
<time>2015-08-06T00:29:42Z</time></trkpt>
<trkpt lat="30.001987" lon="102.495112">
<time>2015-08-06T00:29:43Z</time></trkpt>
<trkpt lat="30.001876" lon="102.494982">
<time>2015-08-06T00:29:44Z</time></trkpt>
<trkpt lat="30.001706" lon="102.494831">
<time>2015-08-06T00:29:45Z</time></trkpt>
<trkpt lat="30.001636" lon="102.494781">
<time>2015-08-06T00:29:46Z</time></trkpt>
<trkpt lat="30.001585" lon="102.494731">
<time>2015-08-06T00:29:47Z</time></trkpt>
<trkpt lat="30.001525" lon="102.494661">
<time>2015-08-06T00:29:48Z</time></trkpt>
<trkpt lat="30.001475" lon="102.49459">
<time>2015-08-06T00:29:49Z</time></trkpt>
<trkpt lat="30.001445" lon="102.49454">
<time>2015-08-06T00:29:50Z</time></trkpt>
<trkpt lat="30.001425" lon="102.49449">
<time>2015-08-06T00:29:51Z</time></trkpt>
<trkpt lat="30.001405" lon="102.49442">
<time>2015-08-06T00:29:52Z</time></trkpt>
<trkpt lat="30.001384" lon="102.49436">
<time>2015-08-06T00:29:53Z</time></trkpt>
<trkpt lat="30.001364" lon="102.494249">
<time>2015-08-06T00:29:54Z</time></trkpt>
<trkpt lat="30.001344" lon="102.494119">
<time>2015-08-06T00:29:55Z</time></trkpt>
<trkpt lat="30.001303" lon="102.493898">
<time>2015-08-06T00:29:56Z</time></trkpt>
<trkpt lat="30.001282" lon="102.493687">
<time>2015-08-06T00:29:57Z</time></trkpt>
<trkpt lat="30.001262" lon="102.493577">
<time>2015-08-06T00:29:58Z</time></trkpt>
<trkpt lat="30.001262" lon="102.493497">
<time>2015-08-06T00:29:59Z</time></trkpt>
<trkpt lat="30.001262" lon="102.493407">
<time>2015-08-06T00:30:00Z</time></trkpt>
<trkpt lat="30.001271" lon="102.493326">
<time>2015-08-06T00:30:01Z</time></trkpt>
<trkpt lat="30.001301" lon="102.493186">
<time>2015-08-06T00:30:02Z</time></trkpt>
<trkpt lat="30.00133" lon="102.493065">
<time>2015-08-06T00:30:03Z</time></trkpt>
<trkpt lat="30.00139" lon="102.492805">
<time>2015-08-06T00:30:04Z</time></trkpt>
<trkpt lat="30.001409" lon="102.492724">
<time>2015-08-06T00:30:05Z</time></trkpt>
<trkpt lat="30.001439" lon="102.492614">
<time>2015-08-06T00:30:06Z</time></trkpt>
<trkpt lat="30.001439" lon="102.492534">
<time>2015-08-06T00:30:07Z</time></trkpt>
<trkpt lat="30.001439" lon="102.492443">
<time>2015-08-06T00:30:08Z</time></trkpt>
<trkpt lat="30.001438" lon="102.492363">
<time>2015-08-06T00:30:09Z</time></trkpt>
<trkpt lat="30.001428" lon="102.492273">
<time>2015-08-06T00:30:10Z</time></trkpt>
<trkpt lat="30.001367" lon="102.491992">
<time>2015-08-06T00:30:11Z</time></trkpt>
<trkpt lat="30.001327" lon="102.491841">
<time>2015-08-06T00:30:12Z</time></trkpt>
<trkpt lat="30.001286" lon="102.491721">
<time>2015-08-06T00:30:13Z</time></trkpt>
<trkpt lat="30.001186" lon="102.49145">
<time>2015-08-06T00:30:14Z</time></trkpt>
<trkpt lat="30.001065" lon="102.491189">
<time>2015-08-06T00:30:15Z</time></trkpt>
<trkpt lat="30.000924" lon="102.490979">
<time>2015-08-06T00:30:16Z</time></trkpt>
<trkpt lat="30.000744" lon="102.490768">
<time>2015-08-06T00:30:17Z</time></trkpt>
<trkpt lat="30.000573" lon="102.490567">
<time>2015-08-06T00:30:18Z</time></trkpt>
<trkpt lat="30.000382" lon="102.490367">
<time>2015-08-06T00:30:19Z</time></trkpt>
<trkpt lat="30.000202" lon="102.490156">
<time>2015-08-06T00:30:20Z</time></trkpt>
<trkpt lat="30.000011" lon="102.489905">
<time>2015-08-06T00:30:21Z</time></trkpt>
<trkpt lat="29.999891" lon="102.489745">
<time>2015-08-06T00:30:22Z</time></trkpt>
<trkpt lat="29.99982" lon="102.489634">
<time>2015-08-06T00:30:23Z</time></trkpt>
<trkpt lat="29.99979" lon="102.489564">
<time>2015-08-06T00:30:24Z</time></trkpt>
<trkpt lat="29.99976" lon="102.489494">
<time>2015-08-06T00:30:25Z</time></trkpt>
<trkpt lat="29.99973" lon="102.489414">
<time>2015-08-06T00:30:26Z</time></trkpt>
<trkpt lat="29.999719" lon="102.489343">
<time>2015-08-06T00:30:27Z</time></trkpt>
<trkpt lat="29.999699" lon="102.489263">
<time>2015-08-06T00:30:28Z</time></trkpt>
<trkpt lat="29.999679" lon="102.489153">
<time>2015-08-06T00:30:29Z</time></trkpt>
<trkpt lat="29.999617" lon="102.488551">
<time>2015-08-06T00:30:30Z</time></trkpt>
<trkpt lat="29.999566" lon="102.488089">
<time>2015-08-06T00:30:31Z</time></trkpt>
<trkpt lat="29.999545" lon="102.487889">
<time>2015-08-06T00:30:32Z</time></trkpt>
<trkpt lat="29.999534" lon="102.487688">
<time>2015-08-06T00:30:33Z</time></trkpt>
<trkpt lat="29.999534" lon="102.487537">
<time>2015-08-06T00:30:34Z</time></trkpt>
<trkpt lat="29.999544" lon="102.487457">
<time>2015-08-06T00:30:35Z</time></trkpt>
<trkpt lat="29.999554" lon="102.487377">
<time>2015-08-06T00:30:36Z</time></trkpt>
<trkpt lat="29.999563" lon="102.487307">
<time>2015-08-06T00:30:37Z</time></trkpt>
<trkpt lat="29.999583" lon="102.487226">
<time>2015-08-06T00:30:38Z</time></trkpt>
<trkpt lat="29.999643" lon="102.487096">
<time>2015-08-06T00:30:39Z</time></trkpt>
<trkpt lat="29.999732" lon="102.486935">
<time>2015-08-06T00:30:40Z</time></trkpt>
<trkpt lat="29.999812" lon="102.486805">
<time>2015-08-06T00:30:41Z</time></trkpt>
<trkpt lat="30.000011" lon="102.486524">
<time>2015-08-06T00:30:42Z</time></trkpt>
<trkpt lat="30.00023" lon="102.486213">
<time>2015-08-06T00:30:43Z</time></trkpt>
<trkpt lat="30.00034" lon="102.486053">
<time>2015-08-06T00:30:44Z</time></trkpt>
<trkpt lat="30.000439" lon="102.485892">
<time>2015-08-06T00:30:45Z</time></trkpt>
<trkpt lat="30.000519" lon="102.485742">
<time>2015-08-06T00:30:46Z</time></trkpt>
<trkpt lat="30.000578" lon="102.485621">
<time>2015-08-06T00:30:47Z</time></trkpt>
<trkpt lat="30.000638" lon="102.485491">
<time>2015-08-06T00:30:48Z</time></trkpt>
<trkpt lat="30.000698" lon="102.48534">
<time>2015-08-06T00:30:49Z</time></trkpt>
<trkpt lat="30.000787" lon="102.485049">
<time>2015-08-06T00:30:50Z</time></trkpt>
<trkpt lat="30.000896" lon="102.484728">
<time>2015-08-06T00:30:51Z</time></trkpt>
<trkpt lat="30.000985" lon="102.484508">
<time>2015-08-06T00:30:52Z</time></trkpt>
<trkpt lat="30.001105" lon="102.484297">
<time>2015-08-06T00:30:53Z</time></trkpt>
<trkpt lat="30.001254" lon="102.484066">
<time>2015-08-06T00:30:54Z</time></trkpt>
<trkpt lat="30.001423" lon="102.483805">
<time>2015-08-06T00:30:55Z</time></trkpt>
<trkpt lat="30.001592" lon="102.483565">
<time>2015-08-06T00:30:56Z</time></trkpt>
<trkpt lat="30.001672" lon="102.483434">
<time>2015-08-06T00:30:57Z</time></trkpt>
<trkpt lat="30.001732" lon="102.483314">
<time>2015-08-06T00:30:58Z</time></trkpt>
<trkpt lat="30.001781" lon="102.483213">
<time>2015-08-06T00:30:59Z</time></trkpt>
<trkpt lat="30.00186" lon="102.482862">
<time>2015-08-06T00:31:00Z</time></trkpt>
<trkpt lat="30.001979" lon="102.48225">
<time>2015-08-06T00:31:01Z</time></trkpt>
<trkpt lat="30.002097" lon="102.481668">
<time>2015-08-06T00:31:02Z</time></trkpt>
<trkpt lat="30.002264" lon="102.480806">
<time>2015-08-06T00:31:03Z</time></trkpt>
<trkpt lat="30.002324" lon="102.480505">
<time>2015-08-06T00:31:04Z</time></trkpt>
<trkpt lat="30.002353" lon="102.480304">
<time>2015-08-06T00:31:05Z</time></trkpt>
<trkpt lat="30.002372" lon="102.480103">
<time>2015-08-06T00:31:06Z</time></trkpt>
<trkpt lat="30.002372" lon="102.479893">
<time>2015-08-06T00:31:07Z</time></trkpt>
<trkpt lat="30.002361" lon="102.479692">
<time>2015-08-06T00:31:08Z</time></trkpt>
<trkpt lat="30.002266" lon="102.477826">
<time>2015-08-06T00:31:09Z</time></trkpt>
<trkpt lat="30.002245" lon="102.477395">
<time>2015-08-06T00:31:10Z</time></trkpt>
<trkpt lat="30.002224" lon="102.477204">
<time>2015-08-06T00:31:11Z</time></trkpt>
<trkpt lat="30.002194" lon="102.477084">
<time>2015-08-06T00:31:12Z</time></trkpt>
<trkpt lat="30.002174" lon="102.476974">
<time>2015-08-06T00:31:13Z</time></trkpt>
<trkpt lat="30.002103" lon="102.476843">
<time>2015-08-06T00:31:14Z</time></trkpt>
<trkpt lat="30.002043" lon="102.476723">
<time>2015-08-06T00:31:15Z</time></trkpt>
<trkpt lat="30.001852" lon="102.476492">
<time>2015-08-06T00:31:16Z</time></trkpt>
<trkpt lat="30.001621" lon="102.476181">
<time>2015-08-06T00:31:17Z</time></trkpt>
<trkpt lat="30.001009" lon="102.475369">
<time>2015-08-06T00:31:18Z</time></trkpt>
<trkpt lat="30.000648" lon="102.474927">
<time>2015-08-06T00:31:19Z</time></trkpt>
<trkpt lat="30.000447" lon="102.474707">
<time>2015-08-06T00:31:20Z</time></trkpt>
<trkpt lat="30.000247" lon="102.474516">
<time>2015-08-06T00:31:21Z</time></trkpt>
<trkpt lat="30.000016" lon="102.474316">
<time>2015-08-06T00:31:22Z</time></trkpt>
<trkpt lat="29.999415" lon="102.473784">
<time>2015-08-06T00:31:23Z</time></trkpt>
<trkpt lat="29.999224" lon="102.473593">
<time>2015-08-06T00:31:24Z</time></trkpt>
<trkpt lat="29.999054" lon="102.473423">
<time>2015-08-06T00:31:25Z</time></trkpt>
<trkpt lat="29.998973" lon="102.473333">
<time>2015-08-06T00:31:26Z</time></trkpt>
<trkpt lat="29.998883" lon="102.473212">
<time>2015-08-06T00:31:27Z</time></trkpt>
<trkpt lat="29.998843" lon="102.473152">
<time>2015-08-06T00:31:28Z</time></trkpt>
<trkpt lat="29.998803" lon="102.473082">
<time>2015-08-06T00:31:29Z</time></trkpt>
<trkpt lat="29.998752" lon="102.472972">
<time>2015-08-06T00:31:30Z</time></trkpt>
<trkpt lat="29.998722" lon="102.472881">
<time>2015-08-06T00:31:31Z</time></trkpt>
<trkpt lat="29.998692" lon="102.472791">
<time>2015-08-06T00:31:32Z</time></trkpt>
<trkpt lat="29.998601" lon="102.4725">
<time>2015-08-06T00:31:33Z</time></trkpt>
<trkpt lat="29.99856" lon="102.472229">
<time>2015-08-06T00:31:34Z</time></trkpt>
<trkpt lat="29.99855" lon="102.472089">
<time>2015-08-06T00:31:35Z</time></trkpt>
<trkpt lat="29.99855" lon="102.471968">
<time>2015-08-06T00:31:36Z</time></trkpt>
<trkpt lat="29.998559" lon="102.471848">
<time>2015-08-06T00:31:37Z</time></trkpt>
<trkpt lat="29.998579" lon="102.471738">
<time>2015-08-06T00:31:38Z</time></trkpt>
<trkpt lat="29.998619" lon="102.471597">
<time>2015-08-06T00:31:39Z</time></trkpt>
<trkpt lat="29.998678" lon="102.471447">
<time>2015-08-06T00:31:40Z</time></trkpt>
<trkpt lat="29.998798" lon="102.471216">
<time>2015-08-06T00:31:41Z</time></trkpt>
<trkpt lat="29.998887" lon="102.471086">
<time>2015-08-06T00:31:42Z</time></trkpt>
<trkpt lat="29.998987" lon="102.470976">
<time>2015-08-06T00:31:43Z</time></trkpt>
<trkpt lat="29.999067" lon="102.470905">
<time>2015-08-06T00:31:44Z</time></trkpt>
<trkpt lat="29.999167" lon="102.470835">
<time>2015-08-06T00:31:45Z</time></trkpt>
<trkpt lat="29.999266" lon="102.470775">
<time>2015-08-06T00:31:46Z</time></trkpt>
<trkpt lat="29.999386" lon="102.470715">
<time>2015-08-06T00:31:47Z</time></trkpt>
<trkpt lat="29.999496" lon="102.470665">
<time>2015-08-06T00:31:48Z</time></trkpt>
<trkpt lat="29.999636" lon="102.470624">
<time>2015-08-06T00:31:49Z</time></trkpt>
<trkpt lat="29.999786" lon="102.470584">
<time>2015-08-06T00:31:50Z</time></trkpt>
<trkpt lat="29.999856" lon="102.470564">
<time>2015-08-06T00:31:51Z</time></trkpt>
<trkpt lat="30.000016" lon="102.470534">
<time>2015-08-06T00:31:52Z</time></trkpt>
<trkpt lat="30.000915" lon="102.470384">
<time>2015-08-06T00:31:53Z</time></trkpt>
<trkpt lat="30.001125" lon="102.470344">
<time>2015-08-06T00:31:54Z</time></trkpt>
<trkpt lat="30.001275" lon="102.470293">
<time>2015-08-06T00:31:55Z</time></trkpt>
<trkpt lat="30.001415" lon="102.470243">
<time>2015-08-06T00:31:56Z</time></trkpt>
<trkpt lat="30.001585" lon="102.470163">
<time>2015-08-06T00:31:57Z</time></trkpt>
<trkpt lat="30.001795" lon="102.470053">
<time>2015-08-06T00:31:58Z</time></trkpt>
<trkpt lat="30.001944" lon="102.469962">
<time>2015-08-06T00:31:59Z</time></trkpt>
<trkpt lat="30.002104" lon="102.469862">
<time>2015-08-06T00:32:00Z</time></trkpt>
<trkpt lat="30.002284" lon="102.469732">
<time>2015-08-06T00:32:01Z</time></trkpt>
<trkpt lat="30.002493" lon="102.469531">
<time>2015-08-06T00:32:02Z</time></trkpt>
<trkpt lat="30.002812" lon="102.46916">
<time>2015-08-06T00:32:03Z</time></trkpt>
<trkpt lat="30.003141" lon="102.468729">
<time>2015-08-06T00:32:04Z</time></trkpt>
<trkpt lat="30.00333" lon="102.468388">
<time>2015-08-06T00:32:05Z</time></trkpt>
<trkpt lat="30.003479" lon="102.468097">
<time>2015-08-06T00:32:06Z</time></trkpt>
<trkpt lat="30.003788" lon="102.467425">
<time>2015-08-06T00:32:07Z</time></trkpt>
<trkpt lat="30.004742" lon="102.465429">
<time>2015-08-06T00:32:08Z</time></trkpt>
<trkpt lat="30.004782" lon="102.465359">
<time>2015-08-06T00:32:09Z</time></trkpt>
<trkpt lat="30.004902" lon="102.465128">
<time>2015-08-06T00:32:10Z</time></trkpt>
<trkpt lat="30.005021" lon="102.464928">
<time>2015-08-06T00:32:11Z</time></trkpt>
<trkpt lat="30.005131" lon="102.464777">
<time>2015-08-06T00:32:12Z</time></trkpt>
<trkpt lat="30.00525" lon="102.464627">
<time>2015-08-06T00:32:13Z</time></trkpt>
<trkpt lat="30.0054" lon="102.464446">
<time>2015-08-06T00:32:14Z</time></trkpt>
<trkpt lat="30.005579" lon="102.464256">
<time>2015-08-06T00:32:15Z</time></trkpt>
<trkpt lat="30.005829" lon="102.464025">
<time>2015-08-06T00:32:16Z</time></trkpt>
<trkpt lat="30.006168" lon="102.463774">
<time>2015-08-06T00:32:17Z</time></trkpt>
<trkpt lat="30.006318" lon="102.463674">
<time>2015-08-06T00:32:18Z</time></trkpt>
<trkpt lat="30.008266" lon="102.462691">
<time>2015-08-06T00:32:19Z</time></trkpt>
<trkpt lat="30.008505" lon="102.462561">
<time>2015-08-06T00:32:20Z</time></trkpt>
<trkpt lat="30.008695" lon="102.462461">
<time>2015-08-06T00:32:21Z</time></trkpt>
<trkpt lat="30.008815" lon="102.46237">
<time>2015-08-06T00:32:22Z</time></trkpt>
<trkpt lat="30.008905" lon="102.46229">
<time>2015-08-06T00:32:23Z</time></trkpt>
<trkpt lat="30.009024" lon="102.46216">
<time>2015-08-06T00:32:24Z</time></trkpt>
<trkpt lat="30.009124" lon="102.46204">
<time>2015-08-06T00:32:25Z</time></trkpt>
<trkpt lat="30.009194" lon="102.461879">
<time>2015-08-06T00:32:26Z</time></trkpt>
<trkpt lat="30.009273" lon="102.461679">
<time>2015-08-06T00:32:27Z</time></trkpt>
<trkpt lat="30.009323" lon="102.461488">
<time>2015-08-06T00:32:28Z</time></trkpt>
<trkpt lat="30.009461" lon="102.460676">
<time>2015-08-06T00:32:29Z</time></trkpt>
<trkpt lat="30.00951" lon="102.460325">
<time>2015-08-06T00:32:30Z</time></trkpt>
<trkpt lat="30.00951" lon="102.460245">
<time>2015-08-06T00:32:31Z</time></trkpt>
<trkpt lat="30.009509" lon="102.460195">
<time>2015-08-06T00:32:32Z</time></trkpt>
<trkpt lat="30.009489" lon="102.460104">
<time>2015-08-06T00:32:33Z</time></trkpt>
<trkpt lat="30.009469" lon="102.460024">
<time>2015-08-06T00:32:34Z</time></trkpt>
<trkpt lat="30.009117" lon="102.459322">
<time>2015-08-06T00:32:35Z</time></trkpt>
<trkpt lat="30.008896" lon="102.458801">
<time>2015-08-06T00:32:36Z</time></trkpt>
<trkpt lat="30.008866" lon="102.458711">
<time>2015-08-06T00:32:37Z</time></trkpt>
<trkpt lat="30.008836" lon="102.45859">
<time>2015-08-06T00:32:38Z</time></trkpt>
<trkpt lat="30.008815" lon="102.45851">
<time>2015-08-06T00:32:39Z</time></trkpt>
<trkpt lat="30.008805" lon="102.4584">
<time>2015-08-06T00:32:40Z</time></trkpt>
<trkpt lat="30.008785" lon="102.458149">
<time>2015-08-06T00:32:41Z</time></trkpt>
<trkpt lat="30.008774" lon="102.457909">
<time>2015-08-06T00:32:42Z</time></trkpt>
<trkpt lat="30.008764" lon="102.457798">
<time>2015-08-06T00:32:43Z</time></trkpt>
<trkpt lat="30.008743" lon="102.457698">
<time>2015-08-06T00:32:44Z</time></trkpt>
<trkpt lat="30.008713" lon="102.457588">
<time>2015-08-06T00:32:45Z</time></trkpt>
<trkpt lat="30.008683" lon="102.457477">
<time>2015-08-06T00:32:46Z</time></trkpt>
<trkpt lat="30.008552" lon="102.457207">
<time>2015-08-06T00:32:47Z</time></trkpt>
<trkpt lat="30.008412" lon="102.456926">
<time>2015-08-06T00:32:48Z</time></trkpt>
<trkpt lat="30.008121" lon="102.456465">
<time>2015-08-06T00:32:49Z</time></trkpt>
<trkpt lat="30.00785" lon="102.456044">
<time>2015-08-06T00:32:50Z</time></trkpt>
<trkpt lat="30.007779" lon="102.455923">
<time>2015-08-06T00:32:51Z</time></trkpt>
<trkpt lat="30.007759" lon="102.455863">
<time>2015-08-06T00:32:52Z</time></trkpt>
<trkpt lat="30.007739" lon="102.455803">
<time>2015-08-06T00:32:53Z</time></trkpt>
<trkpt lat="30.007729" lon="102.455743">
<time>2015-08-06T00:32:54Z</time></trkpt>
<trkpt lat="30.007709" lon="102.455683">
<time>2015-08-06T00:32:55Z</time></trkpt>
<trkpt lat="30.007689" lon="102.455613">
<time>2015-08-06T00:32:56Z</time></trkpt>
<trkpt lat="30.007678" lon="102.455472">
<time>2015-08-06T00:32:57Z</time></trkpt>
<trkpt lat="30.007658" lon="102.455141">
<time>2015-08-06T00:32:58Z</time></trkpt>
<trkpt lat="30.007637" lon="102.454941">
<time>2015-08-06T00:32:59Z</time></trkpt>
<trkpt lat="30.007617" lon="102.454841">
<time>2015-08-06T00:33:00Z</time></trkpt>
<trkpt lat="30.007597" lon="102.454771">
<time>2015-08-06T00:33:01Z</time></trkpt>
<trkpt lat="30.007577" lon="102.45471">
<time>2015-08-06T00:33:02Z</time></trkpt>
<trkpt lat="30.007546" lon="102.45463">
<time>2015-08-06T00:33:03Z</time></trkpt>
<trkpt lat="30.007496" lon="102.45456">
<time>2015-08-06T00:33:04Z</time></trkpt>
<trkpt lat="30.007386" lon="102.45442">
<time>2015-08-06T00:33:05Z</time></trkpt>
<trkpt lat="30.007276" lon="102.454299">
<time>2015-08-06T00:33:06Z</time></trkpt>
<trkpt lat="30.007195" lon="102.454229">
<time>2015-08-06T00:33:07Z</time></trkpt>
<trkpt lat="30.007075" lon="102.454109">
<time>2015-08-06T00:33:08Z</time></trkpt>
<trkpt lat="30.006955" lon="102.453959">
<time>2015-08-06T00:33:09Z</time></trkpt>
<trkpt lat="30.006905" lon="102.453858">
<time>2015-08-06T00:33:10Z</time></trkpt>
<trkpt lat="30.006854" lon="102.453718">
<time>2015-08-06T00:33:11Z</time></trkpt>
<trkpt lat="30.006794" lon="102.453487">
<time>2015-08-06T00:33:12Z</time></trkpt>
<trkpt lat="30.006753" lon="102.453317">
<time>2015-08-06T00:33:13Z</time></trkpt>
<trkpt lat="30.006713" lon="102.453207">
<time>2015-08-06T00:33:14Z</time></trkpt>
<trkpt lat="30.006673" lon="102.453116">
<time>2015-08-06T00:33:15Z</time></trkpt>
<trkpt lat="30.006623" lon="102.453036">
<time>2015-08-06T00:33:16Z</time></trkpt>
<trkpt lat="30.006573" lon="102.452966">
<time>2015-08-06T00:33:17Z</time></trkpt>
<trkpt lat="30.006483" lon="102.452896">
<time>2015-08-06T00:33:18Z</time></trkpt>
<trkpt lat="30.006382" lon="102.452846">
<time>2015-08-06T00:33:19Z</time></trkpt>
<trkpt lat="30.006272" lon="102.452816">
<time>2015-08-06T00:33:20Z</time></trkpt>
<trkpt lat="30.006182" lon="102.452796">
<time>2015-08-06T00:33:21Z</time></trkpt>
<trkpt lat="30.006082" lon="102.452796">
<time>2015-08-06T00:33:22Z</time></trkpt>
<trkpt lat="30.005922" lon="102.452806">
<time>2015-08-06T00:33:23Z</time></trkpt>
<trkpt lat="30.005612" lon="102.452846">
<time>2015-08-06T00:33:24Z</time></trkpt>
<trkpt lat="30.005502" lon="102.452846">
<time>2015-08-06T00:33:25Z</time></trkpt>
<trkpt lat="30.005412" lon="102.452836">
<time>2015-08-06T00:33:26Z</time></trkpt>
<trkpt lat="30.005312" lon="102.452806">
<time>2015-08-06T00:33:27Z</time></trkpt>
<trkpt lat="30.005232" lon="102.452776">
<time>2015-08-06T00:33:28Z</time></trkpt>
<trkpt lat="30.005152" lon="102.452726">
<time>2015-08-06T00:33:29Z</time></trkpt>
<trkpt lat="30.005082" lon="102.452665">
<time>2015-08-06T00:33:30Z</time></trkpt>
<trkpt lat="30.004992" lon="102.452565">
<time>2015-08-06T00:33:31Z</time></trkpt>
<trkpt lat="30.004841" lon="102.452355">
<time>2015-08-06T00:33:32Z</time></trkpt>
<trkpt lat="30.004761" lon="102.452224">
<time>2015-08-06T00:33:33Z</time></trkpt>
<trkpt lat="30.004671" lon="102.452124">
<time>2015-08-06T00:33:34Z</time></trkpt>
<trkpt lat="30.004551" lon="102.451984">
<time>2015-08-06T00:33:35Z</time></trkpt>
<trkpt lat="30.00447" lon="102.451904">
<time>2015-08-06T00:33:36Z</time></trkpt>
<trkpt lat="30.00431" lon="102.451773">
<time>2015-08-06T00:33:37Z</time></trkpt>
<trkpt lat="30.00423" lon="102.451713">
<time>2015-08-06T00:33:38Z</time></trkpt>
<trkpt lat="30.0041" lon="102.451653">
<time>2015-08-06T00:33:39Z</time></trkpt>
<trkpt lat="30.00394" lon="102.451593">
<time>2015-08-06T00:33:40Z</time></trkpt>
<trkpt lat="30.00372" lon="102.451523">
<time>2015-08-06T00:33:41Z</time></trkpt>
<trkpt lat="30.003259" lon="102.451413">
<time>2015-08-06T00:33:42Z</time></trkpt>
<trkpt lat="30.002769" lon="102.451262">
<time>2015-08-06T00:33:43Z</time></trkpt>
<trkpt lat="30.001828" lon="102.450982">
<time>2015-08-06T00:33:44Z</time></trkpt>
<trkpt lat="30.001128" lon="102.450701">
<time>2015-08-06T00:33:45Z</time></trkpt>
<trkpt lat="30.000007" lon="102.45022">
<time>2015-08-06T00:33:46Z</time></trkpt>
<trkpt lat="29.999576" lon="102.450019">
<time>2015-08-06T00:33:47Z</time></trkpt>
<trkpt lat="29.999316" lon="102.449889">
<time>2015-08-06T00:33:48Z</time></trkpt>
<trkpt lat="29.998705" lon="102.449508">
<time>2015-08-06T00:33:49Z</time></trkpt>
<trkpt lat="29.997904" lon="102.448957">
<time>2015-08-06T00:33:50Z</time></trkpt>
<trkpt lat="29.997704" lon="102.448807">
<time>2015-08-06T00:33:51Z</time></trkpt>
<trkpt lat="29.997523" lon="102.448646">
<time>2015-08-06T00:33:52Z</time></trkpt>
<trkpt lat="29.997243" lon="102.448366">
<time>2015-08-06T00:33:53Z</time></trkpt>
<trkpt lat="29.996972" lon="102.448015">
<time>2015-08-06T00:33:54Z</time></trkpt>
<trkpt lat="29.996471" lon="102.447233">
<time>2015-08-06T00:33:55Z</time></trkpt>
<trkpt lat="29.99636" lon="102.447063">
<time>2015-08-06T00:33:56Z</time></trkpt>
<trkpt lat="29.99625" lon="102.446943">
<time>2015-08-06T00:33:57Z</time></trkpt>
<trkpt lat="29.99615" lon="102.446862">
<time>2015-08-06T00:33:58Z</time></trkpt>
<trkpt lat="29.99605" lon="102.446782">
<time>2015-08-06T00:33:59Z</time></trkpt>
<trkpt lat="29.99595" lon="102.446722">
<time>2015-08-06T00:34:00Z</time></trkpt>
<trkpt lat="29.995849" lon="102.446672">
<time>2015-08-06T00:34:01Z</time></trkpt>
<trkpt lat="29.995769" lon="102.446632">
<time>2015-08-06T00:34:02Z</time></trkpt>
<trkpt lat="29.995689" lon="102.446612">
<time>2015-08-06T00:34:03Z</time></trkpt>
<trkpt lat="29.995549" lon="102.446592">
<time>2015-08-06T00:34:04Z</time></trkpt>
<trkpt lat="29.995439" lon="102.446582">
<time>2015-08-06T00:34:05Z</time></trkpt>
<trkpt lat="29.995369" lon="102.446582">
<time>2015-08-06T00:34:06Z</time></trkpt>
<trkpt lat="29.995259" lon="102.446602">
<time>2015-08-06T00:34:07Z</time></trkpt>
<trkpt lat="29.995179" lon="102.446612">
<time>2015-08-06T00:34:08Z</time></trkpt>
<trkpt lat="29.995069" lon="102.446642">
<time>2015-08-06T00:34:09Z</time></trkpt>
<trkpt lat="29.99497" lon="102.446692">
<time>2015-08-06T00:34:10Z</time></trkpt>
<trkpt lat="29.99488" lon="102.446732">
<time>2015-08-06T00:34:11Z</time></trkpt>
<trkpt lat="29.99454" lon="102.446923">
<time>2015-08-06T00:34:12Z</time></trkpt>
<trkpt lat="29.993661" lon="102.447454">
<time>2015-08-06T00:34:13Z</time></trkpt>
<trkpt lat="29.993052" lon="102.447805">
<time>2015-08-06T00:34:14Z</time></trkpt>
<trkpt lat="29.992772" lon="102.447975">
<time>2015-08-06T00:34:15Z</time></trkpt>
<trkpt lat="29.992662" lon="102.448005">
<time>2015-08-06T00:34:16Z</time></trkpt>
<trkpt lat="29.992552" lon="102.448035">
<time>2015-08-06T00:34:17Z</time></trkpt>
<trkpt lat="29.992442" lon="102.448025">
<time>2015-08-06T00:34:18Z</time></trkpt>
<trkpt lat="29.992332" lon="102.448005">
<time>2015-08-06T00:34:19Z</time></trkpt>
<trkpt lat="29.992242" lon="102.447955">
<time>2015-08-06T00:34:20Z</time></trkpt>
<trkpt lat="29.992092" lon="102.447855">
<time>2015-08-06T00:34:21Z</time></trkpt>
<trkpt lat="29.991881" lon="102.447674">
<time>2015-08-06T00:34:22Z</time></trkpt>
<trkpt lat="29.991691" lon="102.447504">
<time>2015-08-06T00:34:23Z</time></trkpt>
<trkpt lat="29.99101" lon="102.446842">
<time>2015-08-06T00:34:24Z</time></trkpt>
<trkpt lat="29.990829" lon="102.446682">
<time>2015-08-06T00:34:25Z</time></trkpt>
<trkpt lat="29.990709" lon="102.446592">
<time>2015-08-06T00:34:26Z</time></trkpt>
<trkpt lat="29.990559" lon="102.446522">
<time>2015-08-06T00:34:27Z</time></trkpt>
<trkpt lat="29.990449" lon="102.446462">
<time>2015-08-06T00:34:28Z</time></trkpt>
<trkpt lat="29.990019" lon="102.446361">
<time>2015-08-06T00:34:29Z</time></trkpt>
<trkpt lat="29.987918" lon="102.44588">
<time>2015-08-06T00:34:30Z</time></trkpt>
<trkpt lat="29.987708" lon="102.44584">
<time>2015-08-06T00:34:31Z</time></trkpt>
<trkpt lat="29.987638" lon="102.44584">
<time>2015-08-06T00:34:32Z</time></trkpt>
<trkpt lat="29.987508" lon="102.44582">
<time>2015-08-06T00:34:33Z</time></trkpt>
<trkpt lat="29.987408" lon="102.44582">
<time>2015-08-06T00:34:34Z</time></trkpt>
<trkpt lat="29.987298" lon="102.44584">
<time>2015-08-06T00:34:35Z</time></trkpt>
<trkpt lat="29.987108" lon="102.445921">
<time>2015-08-06T00:34:36Z</time></trkpt>
<trkpt lat="29.986878" lon="102.446011">
<time>2015-08-06T00:34:37Z</time></trkpt>
<trkpt lat="29.985769" lon="102.446532">
<time>2015-08-06T00:34:38Z</time></trkpt>
<trkpt lat="29.985599" lon="102.446622">
<time>2015-08-06T00:34:39Z</time></trkpt>
<trkpt lat="29.98542" lon="102.446702">
<time>2015-08-06T00:34:40Z</time></trkpt>
<trkpt lat="29.98528" lon="102.446752">
<time>2015-08-06T00:34:41Z</time></trkpt>
<trkpt lat="29.9852" lon="102.446773">
<time>2015-08-06T00:34:42Z</time></trkpt>
<trkpt lat="29.98512" lon="102.446783">
<time>2015-08-06T00:34:43Z</time></trkpt>
<trkpt lat="29.98505" lon="102.446793">
<time>2015-08-06T00:34:44Z</time></trkpt>
<trkpt lat="29.98496" lon="102.446783">
<time>2015-08-06T00:34:45Z</time></trkpt>
<trkpt lat="29.98489" lon="102.446763">
<time>2015-08-06T00:34:46Z</time></trkpt>
<trkpt lat="29.98479" lon="102.446722">
<time>2015-08-06T00:34:47Z</time></trkpt>
<trkpt lat="29.984559" lon="102.446622">
<time>2015-08-06T00:34:48Z</time></trkpt>
<trkpt lat="29.984429" lon="102.446572">
<time>2015-08-06T00:34:49Z</time></trkpt>
<trkpt lat="29.984289" lon="102.446522">
<time>2015-08-06T00:34:50Z</time></trkpt>
<trkpt lat="29.984169" lon="102.446482">
<time>2015-08-06T00:34:51Z</time></trkpt>
<trkpt lat="29.984119" lon="102.446482">
<time>2015-08-06T00:34:52Z</time></trkpt>
<trkpt lat="29.984039" lon="102.446462">
<time>2015-08-06T00:34:53Z</time></trkpt>
<trkpt lat="29.983979" lon="102.446462">
<time>2015-08-06T00:34:54Z</time></trkpt>
<trkpt lat="29.983879" lon="102.446482">
<time>2015-08-06T00:34:55Z</time></trkpt>
<trkpt lat="29.983779" lon="102.446512">
<time>2015-08-06T00:34:56Z</time></trkpt>
<trkpt lat="29.983529" lon="102.446592">
<time>2015-08-06T00:34:57Z</time></trkpt>
<trkpt lat="29.98315" lon="102.446702">
<time>2015-08-06T00:34:58Z</time></trkpt>
<trkpt lat="29.98298" lon="102.446733">
<time>2015-08-06T00:34:59Z</time></trkpt>
<trkpt lat="29.98283" lon="102.446743">
<time>2015-08-06T00:35:00Z</time></trkpt>
<trkpt lat="29.9826" lon="102.446743">
<time>2015-08-06T00:35:01Z</time></trkpt>
<trkpt lat="29.98229" lon="102.446702">
<time>2015-08-06T00:35:02Z</time></trkpt>
<trkpt lat="29.981499" lon="102.446612">
<time>2015-08-06T00:35:03Z</time></trkpt>
<trkpt lat="29.980969" lon="102.446562">
<time>2015-08-06T00:35:04Z</time></trkpt>
<trkpt lat="29.980899" lon="102.446532">
<time>2015-08-06T00:35:05Z</time></trkpt>
<trkpt lat="29.980819" lon="102.446502">
<time>2015-08-06T00:35:06Z</time></trkpt>
<trkpt lat="29.980749" lon="102.446452">
<time>2015-08-06T00:35:07Z</time></trkpt>
<trkpt lat="29.980699" lon="102.446412">
<time>2015-08-06T00:35:08Z</time></trkpt>
<trkpt lat="29.980629" lon="102.446312">
<time>2015-08-06T00:35:09Z</time></trkpt>
<trkpt lat="29.980569" lon="102.446191">
<time>2015-08-06T00:35:10Z</time></trkpt>
<trkpt lat="29.980518" lon="102.446071">
<time>2015-08-06T00:35:11Z</time></trkpt>
<trkpt lat="29.980458" lon="102.445901">
<time>2015-08-06T00:35:12Z</time></trkpt>
<trkpt lat="29.980408" lon="102.44571">
<time>2015-08-06T00:35:13Z</time></trkpt>
<trkpt lat="29.980397" lon="102.44555">
<time>2015-08-06T00:35:14Z</time></trkpt>
<trkpt lat="29.980397" lon="102.44536">
<time>2015-08-06T00:35:15Z</time></trkpt>
<trkpt lat="29.980475" lon="102.444508">
<time>2015-08-06T00:35:16Z</time></trkpt>
<trkpt lat="29.980534" lon="102.444007">
<time>2015-08-06T00:35:17Z</time></trkpt>
<trkpt lat="29.980554" lon="102.443856">
<time>2015-08-06T00:35:18Z</time></trkpt>
<trkpt lat="29.980564" lon="102.443686">
<time>2015-08-06T00:35:19Z</time></trkpt>
<trkpt lat="29.980563" lon="102.443506">
<time>2015-08-06T00:35:20Z</time></trkpt>
<trkpt lat="29.980543" lon="102.443325">
<time>2015-08-06T00:35:21Z</time></trkpt>
<trkpt lat="29.980503" lon="102.443115">
<time>2015-08-06T00:35:22Z</time></trkpt>
<trkpt lat="29.980362" lon="102.442484">
<time>2015-08-06T00:35:23Z</time></trkpt>
<trkpt lat="29.980311" lon="102.442313">
<time>2015-08-06T00:35:24Z</time></trkpt>
<trkpt lat="29.980241" lon="102.442153">
<time>2015-08-06T00:35:25Z</time></trkpt>
<trkpt lat="29.980141" lon="102.442003">
<time>2015-08-06T00:35:26Z</time></trkpt>
<trkpt lat="29.98003" lon="102.441852">
<time>2015-08-06T00:35:27Z</time></trkpt>
<trkpt lat="29.979509" lon="102.441261">
<time>2015-08-06T00:35:28Z</time></trkpt>
<trkpt lat="29.979399" lon="102.441141">
<time>2015-08-06T00:35:29Z</time></trkpt>
<trkpt lat="29.979289" lon="102.441041">
<time>2015-08-06T00:35:30Z</time></trkpt>
<trkpt lat="29.979199" lon="102.440981">
<time>2015-08-06T00:35:31Z</time></trkpt>
<trkpt lat="29.979069" lon="102.440921">
<time>2015-08-06T00:35:32Z</time></trkpt>
<trkpt lat="29.978799" lon="102.44082">
<time>2015-08-06T00:35:33Z</time></trkpt>
<trkpt lat="29.978288" lon="102.44068">
<time>2015-08-06T00:35:34Z</time></trkpt>
<trkpt lat="29.976978" lon="102.44032">
<time>2015-08-06T00:35:35Z</time></trkpt>
<trkpt lat="29.976768" lon="102.440289">
<time>2015-08-06T00:35:36Z</time></trkpt>
<trkpt lat="29.976548" lon="102.440279">
<time>2015-08-06T00:35:37Z</time></trkpt>
<trkpt lat="29.975878" lon="102.44029">
<time>2015-08-06T00:35:38Z</time></trkpt>
<trkpt lat="29.975738" lon="102.440279">
<time>2015-08-06T00:35:39Z</time></trkpt>
<trkpt lat="29.975568" lon="102.440249">
<time>2015-08-06T00:35:40Z</time></trkpt>
<trkpt lat="29.975457" lon="102.440219">
<time>2015-08-06T00:35:41Z</time></trkpt>
<trkpt lat="29.975287" lon="102.440149">
<time>2015-08-06T00:35:42Z</time></trkpt>
<trkpt lat="29.975067" lon="102.440019">
<time>2015-08-06T00:35:43Z</time></trkpt>
<trkpt lat="29.974887" lon="102.439869">
<time>2015-08-06T00:35:44Z</time></trkpt>
<trkpt lat="29.974737" lon="102.439718">
<time>2015-08-06T00:35:45Z</time></trkpt>
<trkpt lat="29.974606" lon="102.439548">
<time>2015-08-06T00:35:46Z</time></trkpt>
<trkpt lat="29.973834" lon="102.438386">
<time>2015-08-06T00:35:47Z</time></trkpt>
<trkpt lat="29.973544" lon="102.437975">
<time>2015-08-06T00:35:48Z</time></trkpt>
<trkpt lat="29.973464" lon="102.437865">
<time>2015-08-06T00:35:49Z</time></trkpt>
<trkpt lat="29.973383" lon="102.437765">
<time>2015-08-06T00:35:50Z</time></trkpt>
<trkpt lat="29.973313" lon="102.437685">
<time>2015-08-06T00:35:51Z</time></trkpt>
<trkpt lat="29.973243" lon="102.437625">
<time>2015-08-06T00:35:52Z</time></trkpt>
<trkpt lat="29.973153" lon="102.437555">
<time>2015-08-06T00:35:53Z</time></trkpt>
<trkpt lat="29.973103" lon="102.437524">
<time>2015-08-06T00:35:54Z</time></trkpt>
<trkpt lat="29.972973" lon="102.437444">
<time>2015-08-06T00:35:55Z</time></trkpt>
<trkpt lat="29.972743" lon="102.437324">
<time>2015-08-06T00:35:56Z</time></trkpt>
<trkpt lat="29.972242" lon="102.437064">
<time>2015-08-06T00:35:57Z</time></trkpt>
<trkpt lat="29.971231" lon="102.436543">
<time>2015-08-06T00:35:58Z</time></trkpt>
<trkpt lat="29.971091" lon="102.436463">
<time>2015-08-06T00:35:59Z</time></trkpt>
<trkpt lat="29.970961" lon="102.436372">
<time>2015-08-06T00:36:00Z</time></trkpt>
<trkpt lat="29.970861" lon="102.436282">
<time>2015-08-06T00:36:01Z</time></trkpt>
<trkpt lat="29.970781" lon="102.436182">
<time>2015-08-06T00:36:02Z</time></trkpt>
<trkpt lat="29.970721" lon="102.436092">
<time>2015-08-06T00:36:03Z</time></trkpt>
<trkpt lat="29.970661" lon="102.435982">
<time>2015-08-06T00:36:04Z</time></trkpt>
<trkpt lat="29.97061" lon="102.435852">
<time>2015-08-06T00:36:05Z</time></trkpt>
<trkpt lat="29.97056" lon="102.435701">
<time>2015-08-06T00:36:06Z</time></trkpt>
<trkpt lat="29.970379" lon="102.43501">
<time>2015-08-06T00:36:07Z</time></trkpt>
<trkpt lat="29.970309" lon="102.43478">
<time>2015-08-06T00:36:08Z</time></trkpt>
<trkpt lat="29.970268" lon="102.43461">
<time>2015-08-06T00:36:09Z</time></trkpt>
<trkpt lat="29.970218" lon="102.434379">
<time>2015-08-06T00:36:10Z</time></trkpt>
<trkpt lat="29.970208" lon="102.434249">
<time>2015-08-06T00:36:11Z</time></trkpt>
<trkpt lat="29.970208" lon="102.434159">
<time>2015-08-06T00:36:12Z</time></trkpt>
<trkpt lat="29.970218" lon="102.434099">
<time>2015-08-06T00:36:13Z</time></trkpt>
<trkpt lat="29.970237" lon="102.433978">
<time>2015-08-06T00:36:14Z</time></trkpt>
<trkpt lat="29.970347" lon="102.433678">
<time>2015-08-06T00:36:15Z</time></trkpt>
<trkpt lat="29.970486" lon="102.433277">
<time>2015-08-06T00:36:16Z</time></trkpt>
<trkpt lat="29.970536" lon="102.433157">
<time>2015-08-06T00:36:17Z</time></trkpt>
<trkpt lat="29.970556" lon="102.433037">
<time>2015-08-06T00:36:18Z</time></trkpt>
<trkpt lat="29.970556" lon="102.432947">
<time>2015-08-06T00:36:19Z</time></trkpt>
<trkpt lat="29.970546" lon="102.432827">
<time>2015-08-06T00:36:20Z</time></trkpt>
<trkpt lat="29.970536" lon="102.432666">
<time>2015-08-06T00:36:21Z</time></trkpt>
<trkpt lat="29.970485" lon="102.432526">
<time>2015-08-06T00:36:22Z</time></trkpt>
<trkpt lat="29.970425" lon="102.432376">
<time>2015-08-06T00:36:23Z</time></trkpt>
<trkpt lat="29.970295" lon="102.432196">
<time>2015-08-06T00:36:24Z</time></trkpt>
<trkpt lat="29.970165" lon="102.432075">
<time>2015-08-06T00:36:25Z</time></trkpt>
<trkpt lat="29.969975" lon="102.431975">
<time>2015-08-06T00:36:26Z</time></trkpt>
<trkpt lat="29.969434" lon="102.431755">
<time>2015-08-06T00:36:27Z</time></trkpt>
<trkpt lat="29.968854" lon="102.431455">
<time>2015-08-06T00:36:28Z</time></trkpt>
<trkpt lat="29.968303" lon="102.431124">
<time>2015-08-06T00:36:29Z</time></trkpt>
<trkpt lat="29.967843" lon="102.430844">
<time>2015-08-06T00:36:30Z</time></trkpt>
<trkpt lat="29.967643" lon="102.430703">
<time>2015-08-06T00:36:31Z</time></trkpt>
<trkpt lat="29.967553" lon="102.430623">
<time>2015-08-06T00:36:32Z</time></trkpt>
<trkpt lat="29.967483" lon="102.430543">
<time>2015-08-06T00:36:33Z</time></trkpt>
<trkpt lat="29.967413" lon="102.430443">
<time>2015-08-06T00:36:34Z</time></trkpt>
<trkpt lat="29.967302" lon="102.430213">
<time>2015-08-06T00:36:35Z</time></trkpt>
<trkpt lat="29.967152" lon="102.429832">
<time>2015-08-06T00:36:36Z</time></trkpt>
<trkpt lat="29.967072" lon="102.429662">
<time>2015-08-06T00:36:37Z</time></trkpt>
<trkpt lat="29.967001" lon="102.429542">
<time>2015-08-06T00:36:38Z</time></trkpt>
<trkpt lat="29.966941" lon="102.429432">
<time>2015-08-06T00:36:39Z</time></trkpt>
<trkpt lat="29.966841" lon="102.429311">
<time>2015-08-06T00:36:40Z</time></trkpt>
<trkpt lat="29.966761" lon="102.429211">
<time>2015-08-06T00:36:41Z</time></trkpt>
<trkpt lat="29.966661" lon="102.429111">
<time>2015-08-06T00:36:42Z</time></trkpt>
<trkpt lat="29.966561" lon="102.429021">
<time>2015-08-06T00:36:43Z</time></trkpt>
<trkpt lat="29.966461" lon="102.428921">
<time>2015-08-06T00:36:44Z</time></trkpt>
<trkpt lat="29.96637" lon="102.428821">
<time>2015-08-06T00:36:45Z</time></trkpt>
<trkpt lat="29.96627" lon="102.428711">
<time>2015-08-06T00:36:46Z</time></trkpt>
<trkpt lat="29.96619" lon="102.4286">
<time>2015-08-06T00:36:47Z</time></trkpt>
<trkpt lat="29.96613" lon="102.42849">
<time>2015-08-06T00:36:48Z</time></trkpt>
<trkpt lat="29.96606" lon="102.42836">
<time>2015-08-06T00:36:49Z</time></trkpt>
<trkpt lat="29.96602" lon="102.4282">
<time>2015-08-06T00:36:50Z</time></trkpt>
<trkpt lat="29.965989" lon="102.42803">
<time>2015-08-06T00:36:51Z</time></trkpt>
<trkpt lat="29.965969" lon="102.427839">
<time>2015-08-06T00:36:52Z</time></trkpt>
<trkpt lat="29.965969" lon="102.427649">
<time>2015-08-06T00:36:53Z</time></trkpt>
<trkpt lat="29.965959" lon="102.427459">
<time>2015-08-06T00:36:54Z</time></trkpt>
<trkpt lat="29.965939" lon="102.427279">
<time>2015-08-06T00:36:55Z</time></trkpt>
<trkpt lat="29.965898" lon="102.427119">
<time>2015-08-06T00:36:56Z</time></trkpt>
<trkpt lat="29.965848" lon="102.426958">
<time>2015-08-06T00:36:57Z</time></trkpt>
<trkpt lat="29.965778" lon="102.426798">
<time>2015-08-06T00:36:58Z</time></trkpt>
<trkpt lat="29.965577" lon="102.426368">
<time>2015-08-06T00:36:59Z</time></trkpt>
<trkpt lat="29.965507" lon="102.426227">
<time>2015-08-06T00:37:00Z</time></trkpt>
<trkpt lat="29.965447" lon="102.426077">
<time>2015-08-06T00:37:01Z</time></trkpt>
<trkpt lat="29.965407" lon="102.425927">
<time>2015-08-06T00:37:02Z</time></trkpt>
<trkpt lat="29.965377" lon="102.425767">
<time>2015-08-06T00:37:03Z</time></trkpt>
<trkpt lat="29.965377" lon="102.425607">
<time>2015-08-06T00:37:04Z</time></trkpt>
<trkpt lat="29.965376" lon="102.425446">
<time>2015-08-06T00:37:05Z</time></trkpt>
<trkpt lat="29.965406" lon="102.425266">
<time>2015-08-06T00:37:06Z</time></trkpt>
<trkpt lat="29.965426" lon="102.425176">
<time>2015-08-06T00:37:07Z</time></trkpt>
<trkpt lat="29.965446" lon="102.425096">
<time>2015-08-06T00:37:08Z</time></trkpt>
<trkpt lat="29.965456" lon="102.425016">
<time>2015-08-06T00:37:09Z</time></trkpt>
<trkpt lat="29.965456" lon="102.424936">
<time>2015-08-06T00:37:10Z</time></trkpt>
<trkpt lat="29.965456" lon="102.424846">
<time>2015-08-06T00:37:11Z</time></trkpt>
<trkpt lat="29.965446" lon="102.424766">
<time>2015-08-06T00:37:12Z</time></trkpt>
<trkpt lat="29.965426" lon="102.424675">
<time>2015-08-06T00:37:13Z</time></trkpt>
<trkpt lat="29.965396" lon="102.424605">
<time>2015-08-06T00:37:14Z</time></trkpt>
<trkpt lat="29.965095" lon="102.423935">
<time>2015-08-06T00:37:15Z</time></trkpt>
<trkpt lat="29.964974" lon="102.423604">
<time>2015-08-06T00:37:16Z</time></trkpt>
<trkpt lat="29.964844" lon="102.423304">
<time>2015-08-06T00:37:17Z</time></trkpt>
<trkpt lat="29.964764" lon="102.423144">
<time>2015-08-06T00:37:18Z</time></trkpt>
<trkpt lat="29.964694" lon="102.423024">
<time>2015-08-06T00:37:19Z</time></trkpt>
<trkpt lat="29.964614" lon="102.422913">
<time>2015-08-06T00:37:20Z</time></trkpt>
<trkpt lat="29.964514" lon="102.422763">
<time>2015-08-06T00:37:21Z</time></trkpt>
<trkpt lat="29.964403" lon="102.422623">
<time>2015-08-06T00:37:22Z</time></trkpt>
<trkpt lat="29.964113" lon="102.422273">
<time>2015-08-06T00:37:23Z</time></trkpt>
<trkpt lat="29.963893" lon="102.422063">
<time>2015-08-06T00:37:24Z</time></trkpt>
<trkpt lat="29.963543" lon="102.421692">
<time>2015-08-06T00:37:25Z</time></trkpt>
<trkpt lat="29.963202" lon="102.421342">
<time>2015-08-06T00:37:26Z</time></trkpt>
<trkpt lat="29.962772" lon="102.420911">
<time>2015-08-06T00:37:27Z</time></trkpt>
<trkpt lat="29.962592" lon="102.420741">
<time>2015-08-06T00:37:28Z</time></trkpt>
<trkpt lat="29.962502" lon="102.420661">
<time>2015-08-06T00:37:29Z</time></trkpt>
<trkpt lat="29.962422" lon="102.420581">
<time>2015-08-06T00:37:30Z</time></trkpt>
<trkpt lat="29.962332" lon="102.420531">
<time>2015-08-06T00:37:31Z</time></trkpt>
<trkpt lat="29.962261" lon="102.420491">
<time>2015-08-06T00:37:32Z</time></trkpt>
<trkpt lat="29.962161" lon="102.420451">
<time>2015-08-06T00:37:33Z</time></trkpt>
<trkpt lat="29.962051" lon="102.420441">
<time>2015-08-06T00:37:34Z</time></trkpt>
<trkpt lat="29.961951" lon="102.420431">
<time>2015-08-06T00:37:35Z</time></trkpt>
<trkpt lat="29.961831" lon="102.420431">
<time>2015-08-06T00:37:36Z</time></trkpt>
<trkpt lat="29.961601" lon="102.420461">
<time>2015-08-06T00:37:37Z</time></trkpt>
<trkpt lat="29.961272" lon="102.420501">
<time>2015-08-06T00:37:38Z</time></trkpt>
<trkpt lat="29.960792" lon="102.420561">
<time>2015-08-06T00:37:39Z</time></trkpt>
<trkpt lat="29.960692" lon="102.420571">
<time>2015-08-06T00:37:40Z</time></trkpt>
<trkpt lat="29.960602" lon="102.420571">
<time>2015-08-06T00:37:41Z</time></trkpt>
<trkpt lat="29.960522" lon="102.420561">
<time>2015-08-06T00:37:42Z</time></trkpt>
<trkpt lat="29.960442" lon="102.420551">
<time>2015-08-06T00:37:43Z</time></trkpt>
<trkpt lat="29.960342" lon="102.420531">
<time>2015-08-06T00:37:44Z</time></trkpt>
<trkpt lat="29.960211" lon="102.420471">
<time>2015-08-06T00:37:45Z</time></trkpt>
<trkpt lat="29.959881" lon="102.420291">
<time>2015-08-06T00:37:46Z</time></trkpt>
<trkpt lat="29.959231" lon="102.41982">
<time>2015-08-06T00:37:47Z</time></trkpt>
<trkpt lat="29.958921" lon="102.41961">
<time>2015-08-06T00:37:48Z</time></trkpt>
<trkpt lat="29.958721" lon="102.41946">
<time>2015-08-06T00:37:49Z</time></trkpt>
<trkpt lat="29.95853" lon="102.41928">
<time>2015-08-06T00:37:50Z</time></trkpt>
<trkpt lat="29.95834" lon="102.4191">
<time>2015-08-06T00:37:51Z</time></trkpt>
<trkpt lat="29.95826" lon="102.41901">
<time>2015-08-06T00:37:52Z</time></trkpt>
<trkpt lat="29.95818" lon="102.41893">
<time>2015-08-06T00:37:53Z</time></trkpt>
<trkpt lat="29.95808" lon="102.41885">
<time>2015-08-06T00:37:54Z</time></trkpt>
<trkpt lat="29.95799" lon="102.41878">
<time>2015-08-06T00:37:55Z</time></trkpt>
<trkpt lat="29.9579" lon="102.41872">
<time>2015-08-06T00:37:56Z</time></trkpt>
<trkpt lat="29.9578" lon="102.418649">
<time>2015-08-06T00:37:57Z</time></trkpt>
<trkpt lat="29.95769" lon="102.418559">
<time>2015-08-06T00:37:58Z</time></trkpt>
<trkpt lat="29.95764" lon="102.418509">
<time>2015-08-06T00:37:59Z</time></trkpt>
<trkpt lat="29.9576" lon="102.418469">
<time>2015-08-06T00:38:00Z</time></trkpt>
<trkpt lat="29.95756" lon="102.418409">
<time>2015-08-06T00:38:01Z</time></trkpt>
<trkpt lat="29.95753" lon="102.418349">
<time>2015-08-06T00:38:02Z</time></trkpt>
<trkpt lat="29.95752" lon="102.418299">
<time>2015-08-06T00:38:03Z</time></trkpt>
<trkpt lat="29.95751" lon="102.418239">
<time>2015-08-06T00:38:04Z</time></trkpt>
<trkpt lat="29.95751" lon="102.418179">
<time>2015-08-06T00:38:05Z</time></trkpt>
<trkpt lat="29.95753" lon="102.418119">
<time>2015-08-06T00:38:06Z</time></trkpt>
<trkpt lat="29.957549" lon="102.418059">
<time>2015-08-06T00:38:07Z</time></trkpt>
<trkpt lat="29.957609" lon="102.417979">
<time>2015-08-06T00:38:08Z</time></trkpt>
<trkpt lat="29.957689" lon="102.417889">
<time>2015-08-06T00:38:09Z</time></trkpt>
<trkpt lat="29.957799" lon="102.417769">
<time>2015-08-06T00:38:10Z</time></trkpt>
<trkpt lat="29.957859" lon="102.417669">
<time>2015-08-06T00:38:11Z</time></trkpt>
<trkpt lat="29.957939" lon="102.417538">
<time>2015-08-06T00:38:12Z</time></trkpt>
<trkpt lat="29.957989" lon="102.417418">
<time>2015-08-06T00:38:13Z</time></trkpt>
<trkpt lat="29.958029" lon="102.417298">
<time>2015-08-06T00:38:14Z</time></trkpt>
<trkpt lat="29.958228" lon="102.416728">
<time>2015-08-06T00:38:15Z</time></trkpt>
<trkpt lat="29.958268" lon="102.416628">
<time>2015-08-06T00:38:16Z</time></trkpt>
<trkpt lat="29.958298" lon="102.416528">
<time>2015-08-06T00:38:17Z</time></trkpt>
<trkpt lat="29.958318" lon="102.416408">
<time>2015-08-06T00:38:18Z</time></trkpt>
<trkpt lat="29.958318" lon="102.416297">
<time>2015-08-06T00:38:19Z</time></trkpt>
<trkpt lat="29.958298" lon="102.416167">
<time>2015-08-06T00:38:20Z</time></trkpt>
<trkpt lat="29.958268" lon="102.416067">
<time>2015-08-06T00:38:21Z</time></trkpt>
<trkpt lat="29.958228" lon="102.415967">
<time>2015-08-06T00:38:22Z</time></trkpt>
<trkpt lat="29.958188" lon="102.415887">
<time>2015-08-06T00:38:23Z</time></trkpt>
<trkpt lat="29.957958" lon="102.415497">
<time>2015-08-06T00:38:24Z</time></trkpt>
<trkpt lat="29.957657" lon="102.415037">
<time>2015-08-06T00:38:25Z</time></trkpt>
<trkpt lat="29.957447" lon="102.414696">
<time>2015-08-06T00:38:26Z</time></trkpt>
<trkpt lat="29.957377" lon="102.414586">
<time>2015-08-06T00:38:27Z</time></trkpt>
<trkpt lat="29.957307" lon="102.414466">
<time>2015-08-06T00:38:28Z</time></trkpt>
<trkpt lat="29.957247" lon="102.414346">
<time>2015-08-06T00:38:29Z</time></trkpt>
<trkpt lat="29.957187" lon="102.414176">
<time>2015-08-06T00:38:30Z</time></trkpt>
<trkpt lat="29.957157" lon="102.414036">
<time>2015-08-06T00:38:31Z</time></trkpt>
<trkpt lat="29.957147" lon="102.413846">
<time>2015-08-06T00:38:32Z</time></trkpt>
<trkpt lat="29.957136" lon="102.413666">
<time>2015-08-06T00:38:33Z</time></trkpt>
<trkpt lat="29.957146" lon="102.413476">
<time>2015-08-06T00:38:34Z</time></trkpt>
<trkpt lat="29.957176" lon="102.413075">
<time>2015-08-06T00:38:35Z</time></trkpt>
<trkpt lat="29.957206" lon="102.412885">
<time>2015-08-06T00:38:36Z</time></trkpt>
<trkpt lat="29.957256" lon="102.412695">
<time>2015-08-06T00:38:37Z</time></trkpt>
<trkpt lat="29.957326" lon="102.412475">
<time>2015-08-06T00:38:38Z</time></trkpt>
<trkpt lat="29.957436" lon="102.412165">
<time>2015-08-06T00:38:39Z</time></trkpt>
<trkpt lat="29.957925" lon="102.410924">
<time>2015-08-06T00:38:40Z</time></trkpt>
<trkpt lat="29.958405" lon="102.410004">
<time>2015-08-06T00:38:41Z</time></trkpt>
<trkpt lat="29.958495" lon="102.409793">
<time>2015-08-06T00:38:42Z</time></trkpt>
<trkpt lat="29.958564" lon="102.409623">
<time>2015-08-06T00:38:43Z</time></trkpt>
<trkpt lat="29.958634" lon="102.409373">
<time>2015-08-06T00:38:44Z</time></trkpt>
<trkpt lat="29.958674" lon="102.409153">
<time>2015-08-06T00:38:45Z</time></trkpt>
<trkpt lat="29.958694" lon="102.409043">
<time>2015-08-06T00:38:46Z</time></trkpt>
<trkpt lat="29.958704" lon="102.408933">
<time>2015-08-06T00:38:47Z</time></trkpt>
<trkpt lat="29.958714" lon="102.408843">
<time>2015-08-06T00:38:48Z</time></trkpt>
<trkpt lat="29.958704" lon="102.408743">
<time>2015-08-06T00:38:49Z</time></trkpt>
<trkpt lat="29.958694" lon="102.408653">
<time>2015-08-06T00:38:50Z</time></trkpt>
<trkpt lat="29.958674" lon="102.408533">
<time>2015-08-06T00:38:51Z</time></trkpt>
<trkpt lat="29.958654" lon="102.408453">
<time>2015-08-06T00:38:52Z</time></trkpt>
<trkpt lat="29.958614" lon="102.408363">
<time>2015-08-06T00:38:53Z</time></trkpt>
<trkpt lat="29.958564" lon="102.408273">
<time>2015-08-06T00:38:54Z</time></trkpt>
<trkpt lat="29.958484" lon="102.408183">
<time>2015-08-06T00:38:55Z</time></trkpt>
<trkpt lat="29.958294" lon="102.408023">
<time>2015-08-06T00:38:56Z</time></trkpt>
<trkpt lat="29.958134" lon="102.407883">
<time>2015-08-06T00:38:57Z</time></trkpt>
<trkpt lat="29.958044" lon="102.407793">
<time>2015-08-06T00:38:58Z</time></trkpt>
<trkpt lat="29.957994" lon="102.407723">
<time>2015-08-06T00:38:59Z</time></trkpt>
<trkpt lat="29.957944" lon="102.407633">
<time>2015-08-06T00:39:00Z</time></trkpt>
<trkpt lat="29.957904" lon="102.407553">
<time>2015-08-06T00:39:01Z</time></trkpt>
<trkpt lat="29.957824" lon="102.407363">
<time>2015-08-06T00:39:02Z</time></trkpt>
<trkpt lat="29.957754" lon="102.407163">
<time>2015-08-06T00:39:03Z</time></trkpt>
<trkpt lat="29.957724" lon="102.407032">
<time>2015-08-06T00:39:04Z</time></trkpt>
<trkpt lat="29.957684" lon="102.406922">
<time>2015-08-06T00:39:05Z</time></trkpt>
<trkpt lat="29.957644" lon="102.406812">
<time>2015-08-06T00:39:06Z</time></trkpt>
<trkpt lat="29.957593" lon="102.406712">
<time>2015-08-06T00:39:07Z</time></trkpt>
<trkpt lat="29.957533" lon="102.406612">
<time>2015-08-06T00:39:08Z</time></trkpt>
<trkpt lat="29.957443" lon="102.406512">
<time>2015-08-06T00:39:09Z</time></trkpt>
<trkpt lat="29.957363" lon="102.406442">
<time>2015-08-06T00:39:10Z</time></trkpt>
<trkpt lat="29.957173" lon="102.406292">
<time>2015-08-06T00:39:11Z</time></trkpt>
<trkpt lat="29.956683" lon="102.405922">
<time>2015-08-06T00:39:12Z</time></trkpt>
<trkpt lat="29.954583" lon="102.404352">
<time>2015-08-06T00:39:13Z</time></trkpt>
<trkpt lat="29.954433" lon="102.404242">
<time>2015-08-06T00:39:14Z</time></trkpt>
<trkpt lat="29.954233" lon="102.404132">
<time>2015-08-06T00:39:15Z</time></trkpt>
<trkpt lat="29.953903" lon="102.404012">
<time>2015-08-06T00:39:16Z</time></trkpt>
<trkpt lat="29.953603" lon="102.403882">
<time>2015-08-06T00:39:17Z</time></trkpt>
<trkpt lat="29.953383" lon="102.403782">
<time>2015-08-06T00:39:18Z</time></trkpt>
<trkpt lat="29.953293" lon="102.403722">
<time>2015-08-06T00:39:19Z</time></trkpt>
<trkpt lat="29.953163" lon="102.403612">
<time>2015-08-06T00:39:20Z</time></trkpt>
<trkpt lat="29.953063" lon="102.403492">
<time>2015-08-06T00:39:21Z</time></trkpt>
<trkpt lat="29.952973" lon="102.403352">
<time>2015-08-06T00:39:22Z</time></trkpt>
<trkpt lat="29.952883" lon="102.403192">
<time>2015-08-06T00:39:23Z</time></trkpt>
<trkpt lat="29.952823" lon="102.403072">
<time>2015-08-06T00:39:24Z</time></trkpt>
<trkpt lat="29.952743" lon="102.402942">
<time>2015-08-06T00:39:25Z</time></trkpt>
<trkpt lat="29.952633" lon="102.402792">
<time>2015-08-06T00:39:26Z</time></trkpt>
<trkpt lat="29.952243" lon="102.402412">
<time>2015-08-06T00:39:27Z</time></trkpt>
<trkpt lat="29.952163" lon="102.402332">
<time>2015-08-06T00:39:28Z</time></trkpt>
<trkpt lat="29.952113" lon="102.402262">
<time>2015-08-06T00:39:29Z</time></trkpt>
<trkpt lat="29.952053" lon="102.402172">
<time>2015-08-06T00:39:30Z</time></trkpt>
<trkpt lat="29.952013" lon="102.402082">
<time>2015-08-06T00:39:31Z</time></trkpt>
<trkpt lat="29.951973" lon="102.401972">
<time>2015-08-06T00:39:32Z</time></trkpt>
<trkpt lat="29.951923" lon="102.401762">
<time>2015-08-06T00:39:33Z</time></trkpt>
<trkpt lat="29.951873" lon="102.401562">
<time>2015-08-06T00:39:34Z</time></trkpt>
<trkpt lat="29.951843" lon="102.401492">
<time>2015-08-06T00:39:35Z</time></trkpt>
<trkpt lat="29.951813" lon="102.401422">
<time>2015-08-06T00:39:36Z</time></trkpt>
<trkpt lat="29.951783" lon="102.401372">
<time>2015-08-06T00:39:37Z</time></trkpt>
<trkpt lat="29.951743" lon="102.401322">
<time>2015-08-06T00:39:38Z</time></trkpt>
<trkpt lat="29.951663" lon="102.401242">
<time>2015-08-06T00:39:39Z</time></trkpt>
<trkpt lat="29.951573" lon="102.401182">
<time>2015-08-06T00:39:40Z</time></trkpt>
<trkpt lat="29.951463" lon="102.401122">
<time>2015-08-06T00:39:41Z</time></trkpt>
<trkpt lat="29.951313" lon="102.401042">
<time>2015-08-06T00:39:42Z</time></trkpt>
<trkpt lat="29.950833" lon="102.400842">
<time>2015-08-06T00:39:43Z</time></trkpt>
<trkpt lat="29.950673" lon="102.400762">
<time>2015-08-06T00:39:44Z</time></trkpt>
<trkpt lat="29.950553" lon="102.400682">
<time>2015-08-06T00:39:45Z</time></trkpt>
<trkpt lat="29.950433" lon="102.400572">
<time>2015-08-06T00:39:46Z</time></trkpt>
<trkpt lat="29.950303" lon="102.400422">
<time>2015-08-06T00:39:47Z</time></trkpt>
<trkpt lat="29.950193" lon="102.400272">
<time>2015-08-06T00:39:48Z</time></trkpt>
<trkpt lat="29.950113" lon="102.400112">
<time>2015-08-06T00:39:49Z</time></trkpt>
<trkpt lat="29.949623" lon="102.399002">
<time>2015-08-06T00:39:50Z</time></trkpt>
<trkpt lat="29.949583" lon="102.398932">
<time>2015-08-06T00:39:51Z</time></trkpt>
<trkpt lat="29.949543" lon="102.398862">
<time>2015-08-06T00:39:52Z</time></trkpt>
<trkpt lat="29.949493" lon="102.398792">
<time>2015-08-06T00:39:53Z</time></trkpt>
<trkpt lat="29.949443" lon="102.398732">
<time>2015-08-06T00:39:54Z</time></trkpt>
<trkpt lat="29.949373" lon="102.398662">
<time>2015-08-06T00:39:55Z</time></trkpt>
<trkpt lat="29.949283" lon="102.398572">
<time>2015-08-06T00:39:56Z</time></trkpt>
<trkpt lat="29.948053" lon="102.397632">
<time>2015-08-06T00:39:57Z</time></trkpt>
<trkpt lat="29.947883" lon="102.397492">
<time>2015-08-06T00:39:58Z</time></trkpt>
<trkpt lat="29.947743" lon="102.397352">
<time>2015-08-06T00:39:59Z</time></trkpt>
<trkpt lat="29.947623" lon="102.397162">
<time>2015-08-06T00:40:00Z</time></trkpt>
<trkpt lat="29.947563" lon="102.397062">
<time>2015-08-06T00:40:01Z</time></trkpt>
<trkpt lat="29.947503" lon="102.396922">
<time>2015-08-06T00:40:02Z</time></trkpt>
<trkpt lat="29.947443" lon="102.396802">
<time>2015-08-06T00:40:03Z</time></trkpt>
<trkpt lat="29.947393" lon="102.396602">
<time>2015-08-06T00:40:04Z</time></trkpt>
<trkpt lat="29.947143" lon="102.395743">
<time>2015-08-06T00:40:05Z</time></trkpt>
<trkpt lat="29.947033" lon="102.395343">
<time>2015-08-06T00:40:06Z</time></trkpt>
<trkpt lat="29.946973" lon="102.395063">
<time>2015-08-06T00:40:07Z</time></trkpt>
<trkpt lat="29.946953" lon="102.394933">
<time>2015-08-06T00:40:08Z</time></trkpt>
<trkpt lat="29.946953" lon="102.394793">
<time>2015-08-06T00:40:09Z</time></trkpt>
<trkpt lat="29.946954" lon="102.394653">
<time>2015-08-06T00:40:10Z</time></trkpt>
<trkpt lat="29.946964" lon="102.394523">
<time>2015-08-06T00:40:11Z</time></trkpt>
<trkpt lat="29.946974" lon="102.394393">
<time>2015-08-06T00:40:12Z</time></trkpt>
<trkpt lat="29.947004" lon="102.394283">
<time>2015-08-06T00:40:13Z</time></trkpt>
<trkpt lat="29.947034" lon="102.394183">
<time>2015-08-06T00:40:14Z</time></trkpt>
<trkpt lat="29.947084" lon="102.394073">
<time>2015-08-06T00:40:15Z</time></trkpt>
<trkpt lat="29.947144" lon="102.393933">
<time>2015-08-06T00:40:16Z</time></trkpt>
<trkpt lat="29.947334" lon="102.393573">
<time>2015-08-06T00:40:17Z</time></trkpt>
<trkpt lat="29.947424" lon="102.393403">
<time>2015-08-06T00:40:18Z</time></trkpt>
<trkpt lat="29.947464" lon="102.393283">
<time>2015-08-06T00:40:19Z</time></trkpt>
<trkpt lat="29.947474" lon="102.393193">
<time>2015-08-06T00:40:20Z</time></trkpt>
<trkpt lat="29.947464" lon="102.393083">
<time>2015-08-06T00:40:21Z</time></trkpt>
<trkpt lat="29.947454" lon="102.392983">
<time>2015-08-06T00:40:22Z</time></trkpt>
<trkpt lat="29.947414" lon="102.392863">
<time>2015-08-06T00:40:23Z</time></trkpt>
<trkpt lat="29.947274" lon="102.392474">
<time>2015-08-06T00:40:24Z</time></trkpt>
<trkpt lat="29.946954" lon="102.391734">
<time>2015-08-06T00:40:25Z</time></trkpt>
<trkpt lat="29.946865" lon="102.391534">
<time>2015-08-06T00:40:26Z</time></trkpt>
<trkpt lat="29.946785" lon="102.391364">
<time>2015-08-06T00:40:27Z</time></trkpt>
<trkpt lat="29.946745" lon="102.391264">
<time>2015-08-06T00:40:28Z</time></trkpt>
<trkpt lat="29.946705" lon="102.391154">
<time>2015-08-06T00:40:29Z</time></trkpt>
<trkpt lat="29.946685" lon="102.391014">
<time>2015-08-06T00:40:30Z</time></trkpt>
<trkpt lat="29.946665" lon="102.390884">
<time>2015-08-06T00:40:31Z</time></trkpt>
<trkpt lat="29.946605" lon="102.390474">
<time>2015-08-06T00:40:32Z</time></trkpt>
<trkpt lat="29.946545" lon="102.390105">
<time>2015-08-06T00:40:33Z</time></trkpt>
<trkpt lat="29.946525" lon="102.390025">
<time>2015-08-06T00:40:34Z</time></trkpt>
<trkpt lat="29.946505" lon="102.389935">
<time>2015-08-06T00:40:35Z</time></trkpt>
<trkpt lat="29.946485" lon="102.389885">
<time>2015-08-06T00:40:36Z</time></trkpt>
<trkpt lat="29.946445" lon="102.389835">
<time>2015-08-06T00:40:37Z</time></trkpt>
<trkpt lat="29.946415" lon="102.389775">
<time>2015-08-06T00:40:38Z</time></trkpt>
<trkpt lat="29.946365" lon="102.389735">
<time>2015-08-06T00:40:39Z</time></trkpt>
<trkpt lat="29.946325" lon="102.389695">
<time>2015-08-06T00:40:40Z</time></trkpt>
<trkpt lat="29.946275" lon="102.389665">
<time>2015-08-06T00:40:41Z</time></trkpt>
<trkpt lat="29.946205" lon="102.389625">
<time>2015-08-06T00:40:42Z</time></trkpt>
<trkpt lat="29.946135" lon="102.389595">
<time>2015-08-06T00:40:43Z</time></trkpt>
<trkpt lat="29.945795" lon="102.389485">
<time>2015-08-06T00:40:44Z</time></trkpt>
<trkpt lat="29.945645" lon="102.389425">
<time>2015-08-06T00:40:45Z</time></trkpt>
<trkpt lat="29.945545" lon="102.389365">
<time>2015-08-06T00:40:46Z</time></trkpt>
<trkpt lat="29.945446" lon="102.389275">
<time>2015-08-06T00:40:47Z</time></trkpt>
<trkpt lat="29.945356" lon="102.389135">
<time>2015-08-06T00:40:48Z</time></trkpt>
<trkpt lat="29.945296" lon="102.389005">
<time>2015-08-06T00:40:49Z</time></trkpt>
<trkpt lat="29.945176" lon="102.388765">
<time>2015-08-06T00:40:50Z</time></trkpt>
<trkpt lat="29.945096" lon="102.388556">
<time>2015-08-06T00:40:51Z</time></trkpt>
<trkpt lat="29.945006" lon="102.388376">
<time>2015-08-06T00:40:52Z</time></trkpt>
<trkpt lat="29.944916" lon="102.388186">
<time>2015-08-06T00:40:53Z</time></trkpt>
<trkpt lat="29.944836" lon="102.388046">
<time>2015-08-06T00:40:54Z</time></trkpt>
<trkpt lat="29.944716" lon="102.387876">
<time>2015-08-06T00:40:55Z</time></trkpt>
<trkpt lat="29.944586" lon="102.387726">
<time>2015-08-06T00:40:56Z</time></trkpt>
<trkpt lat="29.944416" lon="102.387586">
<time>2015-08-06T00:40:57Z</time></trkpt>
<trkpt lat="29.943367" lon="102.386967">
<time>2015-08-06T00:40:58Z</time></trkpt>
<trkpt lat="29.943207" lon="102.386887">
<time>2015-08-06T00:40:59Z</time></trkpt>
<trkpt lat="29.943027" lon="102.386807">
<time>2015-08-06T00:41:00Z</time></trkpt>
<trkpt lat="29.942857" lon="102.386767">
<time>2015-08-06T00:41:01Z</time></trkpt>
<trkpt lat="29.942737" lon="102.386747">
<time>2015-08-06T00:41:02Z</time></trkpt>
<trkpt lat="29.942657" lon="102.386737">
<time>2015-08-06T00:41:03Z</time></trkpt>
<trkpt lat="29.942587" lon="102.386747">
<time>2015-08-06T00:41:04Z</time></trkpt>
<trkpt lat="29.942497" lon="102.386767">
<time>2015-08-06T00:41:05Z</time></trkpt>
<trkpt lat="29.942437" lon="102.386787">
<time>2015-08-06T00:41:06Z</time></trkpt>
<trkpt lat="29.942357" lon="102.386817">
<time>2015-08-06T00:41:07Z</time></trkpt>
<trkpt lat="29.942287" lon="102.386847">
<time>2015-08-06T00:41:08Z</time></trkpt>
<trkpt lat="29.942127" lon="102.386957">
<time>2015-08-06T00:41:09Z</time></trkpt>
<trkpt lat="29.941897" lon="102.387107">
<time>2015-08-06T00:41:10Z</time></trkpt>
<trkpt lat="29.941797" lon="102.387157">
<time>2015-08-06T00:41:11Z</time></trkpt>
<trkpt lat="29.941697" lon="102.387206">
<time>2015-08-06T00:41:12Z</time></trkpt>
<trkpt lat="29.941447" lon="102.387296">
<time>2015-08-06T00:41:13Z</time></trkpt>
<trkpt lat="29.940246" lon="102.387596">
<time>2015-08-06T00:41:14Z</time></trkpt>
<trkpt lat="29.940106" lon="102.387626">
<time>2015-08-06T00:41:15Z</time></trkpt>
<trkpt lat="29.939976" lon="102.387646">
<time>2015-08-06T00:41:16Z</time></trkpt>
<trkpt lat="29.939826" lon="102.387656">
<time>2015-08-06T00:41:17Z</time></trkpt>
<trkpt lat="29.939666" lon="102.387666">
<time>2015-08-06T00:41:18Z</time></trkpt>
<trkpt lat="29.938836" lon="102.387626">
<time>2015-08-06T00:41:19Z</time></trkpt>
<trkpt lat="29.938696" lon="102.387606">
<time>2015-08-06T00:41:20Z</time></trkpt>
<trkpt lat="29.938546" lon="102.387616">
<time>2015-08-06T00:41:21Z</time></trkpt>
<trkpt lat="29.938376" lon="102.387636">
<time>2015-08-06T00:41:22Z</time></trkpt>
<trkpt lat="29.937176" lon="102.387866">
<time>2015-08-06T00:41:23Z</time></trkpt>
<trkpt lat="29.936976" lon="102.387896">
<time>2015-08-06T00:41:24Z</time></trkpt>
<trkpt lat="29.936756" lon="102.387926">
<time>2015-08-06T00:41:25Z</time></trkpt>
<trkpt lat="29.936546" lon="102.387926">
<time>2015-08-06T00:41:26Z</time></trkpt>
<trkpt lat="29.936256" lon="102.387926">
<time>2015-08-06T00:41:27Z</time></trkpt>
<trkpt lat="29.935996" lon="102.387916">
<time>2015-08-06T00:41:28Z</time></trkpt>
<trkpt lat="29.934056" lon="102.387726">
<time>2015-08-06T00:41:29Z</time></trkpt>
<trkpt lat="29.933686" lon="102.387666">
<time>2015-08-06T00:41:30Z</time></trkpt>
<trkpt lat="29.933257" lon="102.387557">
<time>2015-08-06T00:41:31Z</time></trkpt>
<trkpt lat="29.932797" lon="102.387427">
<time>2015-08-06T00:41:32Z</time></trkpt>
<trkpt lat="29.932177" lon="102.387207">
<time>2015-08-06T00:41:33Z</time></trkpt>
<trkpt lat="29.931647" lon="102.387017">
<time>2015-08-06T00:41:34Z</time></trkpt>
<trkpt lat="29.931197" lon="102.386847">
<time>2015-08-06T00:41:35Z</time></trkpt>
<trkpt lat="29.931077" lon="102.386797">
<time>2015-08-06T00:41:36Z</time></trkpt>
<trkpt lat="29.930967" lon="102.386737">
<time>2015-08-06T00:41:37Z</time></trkpt>
<trkpt lat="29.930587" lon="102.386497">
<time>2015-08-06T00:41:38Z</time></trkpt>
<trkpt lat="29.930327" lon="102.386327">
<time>2015-08-06T00:41:39Z</time></trkpt>
<trkpt lat="29.930087" lon="102.386188">
<time>2015-08-06T00:41:40Z</time></trkpt>
<trkpt lat="29.930017" lon="102.386138">
<time>2015-08-06T00:41:41Z</time></trkpt>
<trkpt lat="29.929927" lon="102.386088">
<time>2015-08-06T00:41:42Z</time></trkpt>
<trkpt lat="29.929847" lon="102.386058">
<time>2015-08-06T00:41:43Z</time></trkpt>
<trkpt lat="29.929797" lon="102.386048">
<time>2015-08-06T00:41:44Z</time></trkpt>
<trkpt lat="29.929737" lon="102.386038">
<time>2015-08-06T00:41:45Z</time></trkpt>
<trkpt lat="29.929677" lon="102.386028">
<time>2015-08-06T00:41:46Z</time></trkpt>
<trkpt lat="29.928458" lon="102.385758">
<time>2015-08-06T00:41:47Z</time></trkpt>
<trkpt lat="29.927098" lon="102.385498">
<time>2015-08-06T00:41:48Z</time></trkpt>
<trkpt lat="29.926778" lon="102.385428">
<time>2015-08-06T00:41:49Z</time></trkpt>
<trkpt lat="29.926388" lon="102.385388">
<time>2015-08-06T00:41:50Z</time></trkpt>
<trkpt lat="29.925868" lon="102.385398">
<time>2015-08-06T00:41:51Z</time></trkpt>
<trkpt lat="29.925638" lon="102.385398">
<time>2015-08-06T00:41:52Z</time></trkpt>
<trkpt lat="29.925458" lon="102.385428">
<time>2015-08-06T00:41:53Z</time></trkpt>
<trkpt lat="29.925068" lon="102.385488">
<time>2015-08-06T00:41:54Z</time></trkpt>
<trkpt lat="29.924968" lon="102.385498">
<time>2015-08-06T00:41:55Z</time></trkpt>
<trkpt lat="29.924888" lon="102.385498">
<time>2015-08-06T00:41:56Z</time></trkpt>
<trkpt lat="29.924838" lon="102.385498">
<time>2015-08-06T00:41:57Z</time></trkpt>
<trkpt lat="29.924758" lon="102.385488">
<time>2015-08-06T00:41:58Z</time></trkpt>
<trkpt lat="29.924658" lon="102.385468">
<time>2015-08-06T00:41:59Z</time></trkpt>
<trkpt lat="29.924498" lon="102.385418">
<time>2015-08-06T00:42:00Z</time></trkpt>
<trkpt lat="29.924188" lon="102.385318">
<time>2015-08-06T00:42:01Z</time></trkpt>
<trkpt lat="29.923958" lon="102.385238">
<time>2015-08-06T00:42:02Z</time></trkpt>
<trkpt lat="29.923818" lon="102.385198">
<time>2015-08-06T00:42:03Z</time></trkpt>
<trkpt lat="29.923658" lon="102.385139">
<time>2015-08-06T00:42:04Z</time></trkpt>
<trkpt lat="29.923528" lon="102.385079">
<time>2015-08-06T00:42:05Z</time></trkpt>
<trkpt lat="29.923378" lon="102.384999">
<time>2015-08-06T00:42:06Z</time></trkpt>
<trkpt lat="29.922868" lon="102.384699">
<time>2015-08-06T00:42:07Z</time></trkpt>
<trkpt lat="29.922419" lon="102.384419">
<time>2015-08-06T00:42:08Z</time></trkpt>
<trkpt lat="29.921849" lon="102.384079">
<time>2015-08-06T00:42:09Z</time></trkpt>
<trkpt lat="29.921509" lon="102.38385">
<time>2015-08-06T00:42:10Z</time></trkpt>
<trkpt lat="29.921289" lon="102.38371">
<time>2015-08-06T00:42:11Z</time></trkpt>
<trkpt lat="29.921039" lon="102.38359">
<time>2015-08-06T00:42:12Z</time></trkpt>
<trkpt lat="29.920699" lon="102.38343">
<time>2015-08-06T00:42:13Z</time></trkpt>
<trkpt lat="29.91994" lon="102.38308">
<time>2015-08-06T00:42:14Z</time></trkpt>
<trkpt lat="29.91978" lon="102.38301">
<time>2015-08-06T00:42:15Z</time></trkpt>
<trkpt lat="29.91963" lon="102.38295">
<time>2015-08-06T00:42:16Z</time></trkpt>
<trkpt lat="29.91947" lon="102.38289">
<time>2015-08-06T00:42:17Z</time></trkpt>
<trkpt lat="29.91929" lon="102.38282">
<time>2015-08-06T00:42:18Z</time></trkpt>
<trkpt lat="29.91919" lon="102.382791">
<time>2015-08-06T00:42:19Z</time></trkpt>
<trkpt lat="29.91904" lon="102.382741">
<time>2015-08-06T00:42:20Z</time></trkpt>
<trkpt lat="29.91881" lon="102.382681">
<time>2015-08-06T00:42:21Z</time></trkpt>
<trkpt lat="29.91853" lon="102.382621">
<time>2015-08-06T00:42:22Z</time></trkpt>
<trkpt lat="29.91837" lon="102.382581">
<time>2015-08-06T00:42:23Z</time></trkpt>
<trkpt lat="29.91824" lon="102.382541">
<time>2015-08-06T00:42:24Z</time></trkpt>
<trkpt lat="29.91812" lon="102.382511">
<time>2015-08-06T00:42:25Z</time></trkpt>
<trkpt lat="29.91792" lon="102.382471">
<time>2015-08-06T00:42:26Z</time></trkpt>
<trkpt lat="29.91772" lon="102.382421">
<time>2015-08-06T00:42:27Z</time></trkpt>
<trkpt lat="29.91722" lon="102.382311">
<time>2015-08-06T00:42:28Z</time></trkpt>
<trkpt lat="29.91703" lon="102.382251">
<time>2015-08-06T00:42:29Z</time></trkpt>
<trkpt lat="29.91694" lon="102.382221">
<time>2015-08-06T00:42:30Z</time></trkpt>
<trkpt lat="29.91684" lon="102.382181">
<time>2015-08-06T00:42:31Z</time></trkpt>
<trkpt lat="29.91675" lon="102.382121">
<time>2015-08-06T00:42:32Z</time></trkpt>
<trkpt lat="29.91668" lon="102.382081">
<time>2015-08-06T00:42:33Z</time></trkpt>
<trkpt lat="29.91661" lon="102.382031">
<time>2015-08-06T00:42:34Z</time></trkpt>
<trkpt lat="29.916321" lon="102.381791">
<time>2015-08-06T00:42:35Z</time></trkpt>
<trkpt lat="29.916191" lon="102.381682">
<time>2015-08-06T00:42:36Z</time></trkpt>
<trkpt lat="29.916101" lon="102.381612">
<time>2015-08-06T00:42:37Z</time></trkpt>
<trkpt lat="29.915821" lon="102.381452">
<time>2015-08-06T00:42:38Z</time></trkpt>
<trkpt lat="29.915361" lon="102.381202">
<time>2015-08-06T00:42:39Z</time></trkpt>
<trkpt lat="29.914871" lon="102.380962">
<time>2015-08-06T00:42:40Z</time></trkpt>
<trkpt lat="29.914671" lon="102.380832">
<time>2015-08-06T00:42:41Z</time></trkpt>
<trkpt lat="29.914542" lon="102.380742">
<time>2015-08-06T00:42:42Z</time></trkpt>
<trkpt lat="29.914452" lon="102.380653">
<time>2015-08-06T00:42:43Z</time></trkpt>
<trkpt lat="29.914352" lon="102.380543">
<time>2015-08-06T00:42:44Z</time></trkpt>
<trkpt lat="29.913892" lon="102.379873">
<time>2015-08-06T00:42:45Z</time></trkpt>
<trkpt lat="29.913553" lon="102.379394">
<time>2015-08-06T00:42:46Z</time></trkpt>
<trkpt lat="29.913253" lon="102.378954">
<time>2015-08-06T00:42:47Z</time></trkpt>
<trkpt lat="29.913163" lon="102.378794">
<time>2015-08-06T00:42:48Z</time></trkpt>
<trkpt lat="29.913103" lon="102.378665">
<time>2015-08-06T00:42:49Z</time></trkpt>
<trkpt lat="29.913053" lon="102.378535">
<time>2015-08-06T00:42:50Z</time></trkpt>
<trkpt lat="29.913024" lon="102.378415">
<time>2015-08-06T00:42:51Z</time></trkpt>
<trkpt lat="29.912994" lon="102.378135">
<time>2015-08-06T00:42:52Z</time></trkpt>
<trkpt lat="29.912944" lon="102.377935">
<time>2015-08-06T00:42:53Z</time></trkpt>
<trkpt lat="29.912884" lon="102.377795">
<time>2015-08-06T00:42:54Z</time></trkpt>
<trkpt lat="29.912764" lon="102.377606">
<time>2015-08-06T00:42:55Z</time></trkpt>
<trkpt lat="29.912535" lon="102.377316">
<time>2015-08-06T00:42:56Z</time></trkpt>
<trkpt lat="29.912395" lon="102.377196">
<time>2015-08-06T00:42:57Z</time></trkpt>
<trkpt lat="29.912245" lon="102.377106">
<time>2015-08-06T00:42:58Z</time></trkpt>
<trkpt lat="29.912075" lon="102.377036">
<time>2015-08-06T00:42:59Z</time></trkpt>
<trkpt lat="29.911945" lon="102.377006">
<time>2015-08-06T00:43:00Z</time></trkpt>
<trkpt lat="29.911785" lon="102.376986">
<time>2015-08-06T00:43:01Z</time></trkpt>
<trkpt lat="29.911655" lon="102.376976">
<time>2015-08-06T00:43:02Z</time></trkpt>
<trkpt lat="29.911545" lon="102.376986">
<time>2015-08-06T00:43:03Z</time></trkpt>
<trkpt lat="29.911445" lon="102.376996">
<time>2015-08-06T00:43:04Z</time></trkpt>
<trkpt lat="29.911315" lon="102.377026">
<time>2015-08-06T00:43:05Z</time></trkpt>
<trkpt lat="29.911065" lon="102.377096">
<time>2015-08-06T00:43:06Z</time></trkpt>
<trkpt lat="29.910865" lon="102.377146">
<time>2015-08-06T00:43:07Z</time></trkpt>
<trkpt lat="29.910735" lon="102.377186">
<time>2015-08-06T00:43:08Z</time></trkpt>
<trkpt lat="29.910525" lon="102.377226">
<time>2015-08-06T00:43:09Z</time></trkpt>
<trkpt lat="29.910205" lon="102.377256">
<time>2015-08-06T00:43:10Z</time></trkpt>
<trkpt lat="29.910015" lon="102.377266">
<time>2015-08-06T00:43:11Z</time></trkpt>
<trkpt lat="29.909735" lon="102.377276">
<time>2015-08-06T00:43:12Z</time></trkpt>
<trkpt lat="29.909495" lon="102.377296">
<time>2015-08-06T00:43:13Z</time></trkpt>
<trkpt lat="29.909305" lon="102.377286">
<time>2015-08-06T00:43:14Z</time></trkpt>
<trkpt lat="29.909145" lon="102.377266">
<time>2015-08-06T00:43:15Z</time></trkpt>
<trkpt lat="29.908975" lon="102.377236">
<time>2015-08-06T00:43:16Z</time></trkpt>
<trkpt lat="29.908865" lon="102.377206">
<time>2015-08-06T00:43:17Z</time></trkpt>
<trkpt lat="29.908725" lon="102.377156">
<time>2015-08-06T00:43:18Z</time></trkpt>
<trkpt lat="29.908365" lon="102.377006">
<time>2015-08-06T00:43:19Z</time></trkpt>
<trkpt lat="29.908125" lon="102.376907">
<time>2015-08-06T00:43:20Z</time></trkpt>
<trkpt lat="29.907985" lon="102.376847">
<time>2015-08-06T00:43:21Z</time></trkpt>
<trkpt lat="29.907915" lon="102.376807">
<time>2015-08-06T00:43:22Z</time></trkpt>
<trkpt lat="29.907855" lon="102.376747">
<time>2015-08-06T00:43:23Z</time></trkpt>
<trkpt lat="29.907785" lon="102.376667">
<time>2015-08-06T00:43:24Z</time></trkpt>
<trkpt lat="29.907725" lon="102.376577">
<time>2015-08-06T00:43:25Z</time></trkpt>
<trkpt lat="29.907686" lon="102.376487">
<time>2015-08-06T00:43:26Z</time></trkpt>
<trkpt lat="29.907656" lon="102.376367">
<time>2015-08-06T00:43:27Z</time></trkpt>
<trkpt lat="29.907656" lon="102.376207">
<time>2015-08-06T00:43:28Z</time></trkpt>
<trkpt lat="29.907666" lon="102.376008">
<time>2015-08-06T00:43:29Z</time></trkpt>
<trkpt lat="29.907726" lon="102.375568">
<time>2015-08-06T00:43:30Z</time></trkpt>
<trkpt lat="29.907777" lon="102.375099">
<time>2015-08-06T00:43:31Z</time></trkpt>
<trkpt lat="29.907787" lon="102.375009">
<time>2015-08-06T00:43:32Z</time></trkpt>
<trkpt lat="29.907777" lon="102.374869">
<time>2015-08-06T00:43:33Z</time></trkpt>
<trkpt lat="29.907767" lon="102.374789">
<time>2015-08-06T00:43:34Z</time></trkpt>
<trkpt lat="29.907747" lon="102.374709">
<time>2015-08-06T00:43:35Z</time></trkpt>
<trkpt lat="29.907707" lon="102.374599">
<time>2015-08-06T00:43:36Z</time></trkpt>
<trkpt lat="29.907668" lon="102.374489">
<time>2015-08-06T00:43:37Z</time></trkpt>
<trkpt lat="29.907568" lon="102.374309">
<time>2015-08-06T00:43:38Z</time></trkpt>
<trkpt lat="29.907328" lon="102.37386">
<time>2015-08-06T00:43:39Z</time></trkpt>
<trkpt lat="29.907208" lon="102.37368">
<time>2015-08-06T00:43:40Z</time></trkpt>
<trkpt lat="29.907099" lon="102.37354">
<time>2015-08-06T00:43:41Z</time></trkpt>
<trkpt lat="29.906989" lon="102.373401">
<time>2015-08-06T00:43:42Z</time></trkpt>
<trkpt lat="29.906899" lon="102.373301">
<time>2015-08-06T00:43:43Z</time></trkpt>
<trkpt lat="29.906829" lon="102.373241">
<time>2015-08-06T00:43:44Z</time></trkpt>
<trkpt lat="29.906749" lon="102.373201">
<time>2015-08-06T00:43:45Z</time></trkpt>
<trkpt lat="29.906659" lon="102.373151">
<time>2015-08-06T00:43:46Z</time></trkpt>
<trkpt lat="29.906569" lon="102.373121">
<time>2015-08-06T00:43:47Z</time></trkpt>
<trkpt lat="29.906439" lon="102.373101">
<time>2015-08-06T00:43:48Z</time></trkpt>
<trkpt lat="29.906309" lon="102.373081">
<time>2015-08-06T00:43:49Z</time></trkpt>
<trkpt lat="29.906079" lon="102.373071">
<time>2015-08-06T00:43:50Z</time></trkpt>
<trkpt lat="29.905809" lon="102.373071">
<time>2015-08-06T00:43:51Z</time></trkpt>
<trkpt lat="29.905629" lon="102.373081">
<time>2015-08-06T00:43:52Z</time></trkpt>
<trkpt lat="29.905449" lon="102.373111">
<time>2015-08-06T00:43:53Z</time></trkpt>
<trkpt lat="29.904749" lon="102.373291">
<time>2015-08-06T00:43:54Z</time></trkpt>
<trkpt lat="29.904669" lon="102.373311">
<time>2015-08-06T00:43:55Z</time></trkpt>
<trkpt lat="29.904589" lon="102.373321">
<time>2015-08-06T00:43:56Z</time></trkpt>
<trkpt lat="29.904519" lon="102.373321">
<time>2015-08-06T00:43:57Z</time></trkpt>
<trkpt lat="29.904459" lon="102.373311">
<time>2015-08-06T00:43:58Z</time></trkpt>
<trkpt lat="29.904019" lon="102.373241">
<time>2015-08-06T00:43:59Z</time></trkpt>
<trkpt lat="29.903669" lon="102.373231">
<time>2015-08-06T00:44:00Z</time></trkpt>
<trkpt lat="29.903409" lon="102.373231">
<time>2015-08-06T00:44:01Z</time></trkpt>
<trkpt lat="29.903169" lon="102.373231">
<time>2015-08-06T00:44:02Z</time></trkpt>
<trkpt lat="29.903129" lon="102.373231">
<time>2015-08-06T00:44:03Z</time></trkpt>
<trkpt lat="29.903069" lon="102.373221">
<time>2015-08-06T00:44:04Z</time></trkpt>
<trkpt lat="29.903009" lon="102.373201">
<time>2015-08-06T00:44:05Z</time></trkpt>
<trkpt lat="29.902959" lon="102.373181">
<time>2015-08-06T00:44:06Z</time></trkpt>
<trkpt lat="29.902879" lon="102.373141">
<time>2015-08-06T00:44:07Z</time></trkpt>
<trkpt lat="29.902559" lon="102.372941">
<time>2015-08-06T00:44:08Z</time></trkpt>
<trkpt lat="29.902449" lon="102.372891">
<time>2015-08-06T00:44:09Z</time></trkpt>
<trkpt lat="29.902349" lon="102.372861">
<time>2015-08-06T00:44:10Z</time></trkpt>
<trkpt lat="29.902279" lon="102.372841">
<time>2015-08-06T00:44:11Z</time></trkpt>
<trkpt lat="29.902209" lon="102.372831">
<time>2015-08-06T00:44:12Z</time></trkpt>
<trkpt lat="29.902139" lon="102.372831">
<time>2015-08-06T00:44:13Z</time></trkpt>
<trkpt lat="29.902059" lon="102.372841">
<time>2015-08-06T00:44:14Z</time></trkpt>
<trkpt lat="29.901979" lon="102.372861">
<time>2015-08-06T00:44:15Z</time></trkpt>
<trkpt lat="29.901909" lon="102.372881">
<time>2015-08-06T00:44:16Z</time></trkpt>
<trkpt lat="29.901799" lon="102.372921">
<time>2015-08-06T00:44:17Z</time></trkpt>
<trkpt lat="29.901709" lon="102.372991">
<time>2015-08-06T00:44:18Z</time></trkpt>
<trkpt lat="29.901409" lon="102.373291">
<time>2015-08-06T00:44:19Z</time></trkpt>
<trkpt lat="29.901369" lon="102.373331">
<time>2015-08-06T00:44:20Z</time></trkpt>
<trkpt lat="29.901349" lon="102.373381">
<time>2015-08-06T00:44:21Z</time></trkpt>
<trkpt lat="29.901329" lon="102.373431">
<time>2015-08-06T00:44:22Z</time></trkpt>
<trkpt lat="29.901309" lon="102.373481">
<time>2015-08-06T00:44:23Z</time></trkpt>
<trkpt lat="29.901299" lon="102.373541">
<time>2015-08-06T00:44:24Z</time></trkpt>
<trkpt lat="29.901289" lon="102.373611">
<time>2015-08-06T00:44:25Z</time></trkpt>
<trkpt lat="29.901278" lon="102.37389">
<time>2015-08-06T00:44:26Z</time></trkpt>
<trkpt lat="29.901268" lon="102.37397">
<time>2015-08-06T00:44:27Z</time></trkpt>
<trkpt lat="29.901258" lon="102.37406">
<time>2015-08-06T00:44:28Z</time></trkpt>
<trkpt lat="29.901238" lon="102.37412">
<time>2015-08-06T00:44:29Z</time></trkpt>
<trkpt lat="29.901218" lon="102.37417">
<time>2015-08-06T00:44:30Z</time></trkpt>
<trkpt lat="29.901198" lon="102.37421">
<time>2015-08-06T00:44:31Z</time></trkpt>
<trkpt lat="29.901178" lon="102.37424">
<time>2015-08-06T00:44:32Z</time></trkpt>
<trkpt lat="29.901158" lon="102.37426">
<time>2015-08-06T00:44:33Z</time></trkpt>
<trkpt lat="29.901118" lon="102.37429">
<time>2015-08-06T00:44:34Z</time></trkpt>
<trkpt lat="29.901048" lon="102.37433">
<time>2015-08-06T00:44:35Z</time></trkpt>
<trkpt lat="29.900968" lon="102.37436">
<time>2015-08-06T00:44:36Z</time></trkpt>
<trkpt lat="29.900928" lon="102.37437">
<time>2015-08-06T00:44:37Z</time></trkpt>
<trkpt lat="29.900828" lon="102.37439">
<time>2015-08-06T00:44:38Z</time></trkpt>
<trkpt lat="29.900738" lon="102.3744">
<time>2015-08-06T00:44:39Z</time></trkpt>
<trkpt lat="29.900668" lon="102.37442">
<time>2015-08-06T00:44:40Z</time></trkpt>
<trkpt lat="29.900588" lon="102.37445">
<time>2015-08-06T00:44:41Z</time></trkpt>
<trkpt lat="29.900478" lon="102.37449">
<time>2015-08-06T00:44:42Z</time></trkpt>
<trkpt lat="29.900398" lon="102.374539">
<time>2015-08-06T00:44:43Z</time></trkpt>
<trkpt lat="29.900348" lon="102.374569">
<time>2015-08-06T00:44:44Z</time></trkpt>
<trkpt lat="29.900288" lon="102.374619">
<time>2015-08-06T00:44:45Z</time></trkpt>
<trkpt lat="29.900217" lon="102.374699">
<time>2015-08-06T00:44:46Z</time></trkpt>
<trkpt lat="29.899957" lon="102.375009">
<time>2015-08-06T00:44:47Z</time></trkpt>
<trkpt lat="29.899837" lon="102.375149">
<time>2015-08-06T00:44:48Z</time></trkpt>
<trkpt lat="29.899757" lon="102.375209">
<time>2015-08-06T00:44:49Z</time></trkpt>
<trkpt lat="29.899667" lon="102.375259">
<time>2015-08-06T00:44:50Z</time></trkpt>
<trkpt lat="29.899597" lon="102.375299">
<time>2015-08-06T00:44:51Z</time></trkpt>
<trkpt lat="29.899527" lon="102.375329">
<time>2015-08-06T00:44:52Z</time></trkpt>
<trkpt lat="29.899457" lon="102.375339">
<time>2015-08-06T00:44:53Z</time></trkpt>
<trkpt lat="29.899397" lon="102.375349">
<time>2015-08-06T00:44:54Z</time></trkpt>
<trkpt lat="29.899297" lon="102.375359">
<time>2015-08-06T00:44:55Z</time></trkpt>
<trkpt lat="29.899187" lon="102.375359">
<time>2015-08-06T00:44:56Z</time></trkpt>
<trkpt lat="29.898697" lon="102.375299">
<time>2015-08-06T00:44:57Z</time></trkpt>
<trkpt lat="29.898457" lon="102.375269">
<time>2015-08-06T00:44:58Z</time></trkpt>
<trkpt lat="29.898337" lon="102.375249">
<time>2015-08-06T00:44:59Z</time></trkpt>
<trkpt lat="29.898277" lon="102.375229">
<time>2015-08-06T00:45:00Z</time></trkpt>
<trkpt lat="29.898217" lon="102.375209">
<time>2015-08-06T00:45:01Z</time></trkpt>
<trkpt lat="29.898167" lon="102.375189">
<time>2015-08-06T00:45:02Z</time></trkpt>
<trkpt lat="29.898097" lon="102.375139">
<time>2015-08-06T00:45:03Z</time></trkpt>
<trkpt lat="29.898067" lon="102.375119">
<time>2015-08-06T00:45:04Z</time></trkpt>
<trkpt lat="29.898037" lon="102.375089">
<time>2015-08-06T00:45:05Z</time></trkpt>
<trkpt lat="29.897967" lon="102.375009">
<time>2015-08-06T00:45:06Z</time></trkpt>
<trkpt lat="29.897947" lon="102.374979">
<time>2015-08-06T00:45:07Z</time></trkpt>
<trkpt lat="29.897897" lon="102.374899">
<time>2015-08-06T00:45:08Z</time></trkpt>
<trkpt lat="29.897877" lon="102.374839">
<time>2015-08-06T00:45:09Z</time></trkpt>
<trkpt lat="29.897858" lon="102.374759">
<time>2015-08-06T00:45:10Z</time></trkpt>
<trkpt lat="29.897838" lon="102.374679">
<time>2015-08-06T00:45:11Z</time></trkpt>
<trkpt lat="29.897828" lon="102.374609">
<time>2015-08-06T00:45:12Z</time></trkpt>
<trkpt lat="29.897828" lon="102.37451">
<time>2015-08-06T00:45:13Z</time></trkpt>
<trkpt lat="29.897828" lon="102.37443">
<time>2015-08-06T00:45:14Z</time></trkpt>
<trkpt lat="29.897889" lon="102.3738">
<time>2015-08-06T00:45:15Z</time></trkpt>
<trkpt lat="29.897949" lon="102.373331">
<time>2015-08-06T00:45:16Z</time></trkpt>
<trkpt lat="29.897959" lon="102.373191">
<time>2015-08-06T00:45:17Z</time></trkpt>
<trkpt lat="29.897959" lon="102.373101">
<time>2015-08-06T00:45:18Z</time></trkpt>
<trkpt lat="29.897959" lon="102.372991">
<time>2015-08-06T00:45:19Z</time></trkpt>
<trkpt lat="29.897949" lon="102.372911">
<time>2015-08-06T00:45:20Z</time></trkpt>
<trkpt lat="29.89793" lon="102.372822">
<time>2015-08-06T00:45:21Z</time></trkpt>
<trkpt lat="29.89791" lon="102.372742">
<time>2015-08-06T00:45:22Z</time></trkpt>
<trkpt lat="29.89788" lon="102.372652">
<time>2015-08-06T00:45:23Z</time></trkpt>
<trkpt lat="29.89785" lon="102.372582">
<time>2015-08-06T00:45:24Z</time></trkpt>
<trkpt lat="29.89781" lon="102.372482">
<time>2015-08-06T00:45:25Z</time></trkpt>
<trkpt lat="29.89763" lon="102.372093">
<time>2015-08-06T00:45:26Z</time></trkpt>
<trkpt lat="29.897551" lon="102.371923">
<time>2015-08-06T00:45:27Z</time></trkpt>
<trkpt lat="29.897401" lon="102.371633">
<time>2015-08-06T00:45:28Z</time></trkpt>
<trkpt lat="29.897321" lon="102.371453">
<time>2015-08-06T00:45:29Z</time></trkpt>
<trkpt lat="29.897221" lon="102.371214">
<time>2015-08-06T00:45:30Z</time></trkpt>
<trkpt lat="29.897132" lon="102.371054">
<time>2015-08-06T00:45:31Z</time></trkpt>
<trkpt lat="29.897082" lon="102.370984">
<time>2015-08-06T00:45:32Z</time></trkpt>
<trkpt lat="29.897032" lon="102.370914">
<time>2015-08-06T00:45:33Z</time></trkpt>
<trkpt lat="29.896882" lon="102.370764">
<time>2015-08-06T00:45:34Z</time></trkpt>
<trkpt lat="29.896782" lon="102.370674">
<time>2015-08-06T00:45:35Z</time></trkpt>
<trkpt lat="29.896632" lon="102.370555">
<time>2015-08-06T00:45:36Z</time></trkpt>
<trkpt lat="29.895953" lon="102.370045">
<time>2015-08-06T00:45:37Z</time></trkpt>
<trkpt lat="29.895513" lon="102.369716">
<time>2015-08-06T00:45:38Z</time></trkpt>
<trkpt lat="29.895313" lon="102.369566">
<time>2015-08-06T00:45:39Z</time></trkpt>
<trkpt lat="29.895204" lon="102.369476">
<time>2015-08-06T00:45:40Z</time></trkpt>
<trkpt lat="29.895124" lon="102.369406">
<time>2015-08-06T00:45:41Z</time></trkpt>
<trkpt lat="29.895064" lon="102.369326">
<time>2015-08-06T00:45:42Z</time></trkpt>
<trkpt lat="29.894994" lon="102.369236">
<time>2015-08-06T00:45:43Z</time></trkpt>
<trkpt lat="29.894894" lon="102.369077">
<time>2015-08-06T00:45:44Z</time></trkpt>
<trkpt lat="29.894824" lon="102.368937">
<time>2015-08-06T00:45:45Z</time></trkpt>
<trkpt lat="29.894754" lon="102.368767">
<time>2015-08-06T00:45:46Z</time></trkpt>
<trkpt lat="29.894635" lon="102.368447">
<time>2015-08-06T00:45:47Z</time></trkpt>
<trkpt lat="29.894306" lon="102.367489">
<time>2015-08-06T00:45:48Z</time></trkpt>
<trkpt lat="29.894216" lon="102.367299">
<time>2015-08-06T00:45:49Z</time></trkpt>
<trkpt lat="29.894176" lon="102.367219">
<time>2015-08-06T00:45:50Z</time></trkpt>
<trkpt lat="29.894136" lon="102.367149">
<time>2015-08-06T00:45:51Z</time></trkpt>
<trkpt lat="29.894087" lon="102.367089">
<time>2015-08-06T00:45:52Z</time></trkpt>
<trkpt lat="29.894037" lon="102.367029">
<time>2015-08-06T00:45:53Z</time></trkpt>
<trkpt lat="29.893927" lon="102.36691">
<time>2015-08-06T00:45:54Z</time></trkpt>
<trkpt lat="29.893817" lon="102.3668">
<time>2015-08-06T00:45:55Z</time></trkpt>
<trkpt lat="29.893737" lon="102.36671">
<time>2015-08-06T00:45:56Z</time></trkpt>
<trkpt lat="29.893687" lon="102.36665">
<time>2015-08-06T00:45:57Z</time></trkpt>
<trkpt lat="29.893657" lon="102.3666">
<time>2015-08-06T00:45:58Z</time></trkpt>
<trkpt lat="29.893637" lon="102.36655">
<time>2015-08-06T00:45:59Z</time></trkpt>
<trkpt lat="29.893617" lon="102.3665">
<time>2015-08-06T00:46:00Z</time></trkpt>
<trkpt lat="29.893597" lon="102.36643">
<time>2015-08-06T00:46:01Z</time></trkpt>
<trkpt lat="29.893578" lon="102.366311">
<time>2015-08-06T00:46:02Z</time></trkpt>
<trkpt lat="29.893518" lon="102.366001">
<time>2015-08-06T00:46:03Z</time></trkpt>
<trkpt lat="29.893498" lon="102.365921">
<time>2015-08-06T00:46:04Z</time></trkpt>
<trkpt lat="29.893468" lon="102.365851">
<time>2015-08-06T00:46:05Z</time></trkpt>
<trkpt lat="29.893448" lon="102.365801">
<time>2015-08-06T00:46:06Z</time></trkpt>
<trkpt lat="29.893418" lon="102.365761">
<time>2015-08-06T00:46:07Z</time></trkpt>
<trkpt lat="29.893378" lon="102.365701">
<time>2015-08-06T00:46:08Z</time></trkpt>
<trkpt lat="29.893348" lon="102.365661">
<time>2015-08-06T00:46:09Z</time></trkpt>
<trkpt lat="29.893288" lon="102.365602">
<time>2015-08-06T00:46:10Z</time></trkpt>
<trkpt lat="29.893029" lon="102.365402">
<time>2015-08-06T00:46:11Z</time></trkpt>
<trkpt lat="29.892949" lon="102.365332">
<time>2015-08-06T00:46:12Z</time></trkpt>
<trkpt lat="29.892889" lon="102.365272">
<time>2015-08-06T00:46:13Z</time></trkpt>
<trkpt lat="29.892729" lon="102.365072">
<time>2015-08-06T00:46:14Z</time></trkpt>
<trkpt lat="29.892669" lon="102.364982">
<time>2015-08-06T00:46:15Z</time></trkpt>
<trkpt lat="29.892619" lon="102.364883">
<time>2015-08-06T00:46:16Z</time></trkpt>
<trkpt lat="29.89259" lon="102.364803">
<time>2015-08-06T00:46:17Z</time></trkpt>
<trkpt lat="29.89257" lon="102.364723">
<time>2015-08-06T00:46:18Z</time></trkpt>
<trkpt lat="29.89255" lon="102.364653">
<time>2015-08-06T00:46:19Z</time></trkpt>
<trkpt lat="29.89255" lon="102.364593">
<time>2015-08-06T00:46:20Z</time></trkpt>
<trkpt lat="29.89255" lon="102.364533">
<time>2015-08-06T00:46:21Z</time></trkpt>
<trkpt lat="29.89256" lon="102.364483">
<time>2015-08-06T00:46:22Z</time></trkpt>
<trkpt lat="29.89258" lon="102.364413">
<time>2015-08-06T00:46:23Z</time></trkpt>
<trkpt lat="29.89261" lon="102.364333">
<time>2015-08-06T00:46:24Z</time></trkpt>
<trkpt lat="29.89269" lon="102.364184">
<time>2015-08-06T00:46:25Z</time></trkpt>
<trkpt lat="29.892841" lon="102.363904">
<time>2015-08-06T00:46:26Z</time></trkpt>
<trkpt lat="29.892891" lon="102.363784">
<time>2015-08-06T00:46:27Z</time></trkpt>
<trkpt lat="29.892921" lon="102.363694">
<time>2015-08-06T00:46:28Z</time></trkpt>
<trkpt lat="29.892941" lon="102.363605">
<time>2015-08-06T00:46:29Z</time></trkpt>
<trkpt lat="29.892961" lon="102.363515">
<time>2015-08-06T00:46:30Z</time></trkpt>
<trkpt lat="29.892971" lon="102.363425">
<time>2015-08-06T00:46:31Z</time></trkpt>
<trkpt lat="29.892972" lon="102.363335">
<time>2015-08-06T00:46:32Z</time></trkpt>
<trkpt lat="29.892962" lon="102.363255">
<time>2015-08-06T00:46:33Z</time></trkpt>
<trkpt lat="29.892952" lon="102.363175">
<time>2015-08-06T00:46:34Z</time></trkpt>
<trkpt lat="29.892932" lon="102.363105">
<time>2015-08-06T00:46:35Z</time></trkpt>
<trkpt lat="29.892912" lon="102.363035">
<time>2015-08-06T00:46:36Z</time></trkpt>
<trkpt lat="29.892882" lon="102.362966">
<time>2015-08-06T00:46:37Z</time></trkpt>
<trkpt lat="29.892842" lon="102.362906">
<time>2015-08-06T00:46:38Z</time></trkpt>
<trkpt lat="29.892802" lon="102.362846">
<time>2015-08-06T00:46:39Z</time></trkpt>
<trkpt lat="29.892752" lon="102.362796">
<time>2015-08-06T00:46:40Z</time></trkpt>
<trkpt lat="29.892692" lon="102.362746">
<time>2015-08-06T00:46:41Z</time></trkpt>
<trkpt lat="29.892622" lon="102.362696">
<time>2015-08-06T00:46:42Z</time></trkpt>
<trkpt lat="29.892543" lon="102.362656">
<time>2015-08-06T00:46:43Z</time></trkpt>
<trkpt lat="29.892203" lon="102.362506">
<time>2015-08-06T00:46:44Z</time></trkpt>
<trkpt lat="29.892113" lon="102.362466">
<time>2015-08-06T00:46:45Z</time></trkpt>
<trkpt lat="29.892043" lon="102.362416">
<time>2015-08-06T00:46:46Z</time></trkpt>
<trkpt lat="29.891983" lon="102.362367">
<time>2015-08-06T00:46:47Z</time></trkpt>
<trkpt lat="29.891883" lon="102.362297">
<time>2015-08-06T00:46:48Z</time></trkpt>
<trkpt lat="29.891813" lon="102.362227">
<time>2015-08-06T00:46:49Z</time></trkpt>
<trkpt lat="29.891773" lon="102.362177">
<time>2015-08-06T00:46:50Z</time></trkpt>
<trkpt lat="29.891723" lon="102.362107">
<time>2015-08-06T00:46:51Z</time></trkpt>
<trkpt lat="29.891663" lon="102.361997">
<time>2015-08-06T00:46:52Z</time></trkpt>
<trkpt lat="29.891624" lon="102.361937">
<time>2015-08-06T00:46:53Z</time></trkpt>
<trkpt lat="29.891564" lon="102.361768">
<time>2015-08-06T00:46:54Z</time></trkpt>
<trkpt lat="29.891474" lon="102.361478">
<time>2015-08-06T00:46:55Z</time></trkpt>
<trkpt lat="29.891424" lon="102.361328">
<time>2015-08-06T00:46:56Z</time></trkpt>
<trkpt lat="29.891375" lon="102.361198">
<time>2015-08-06T00:46:57Z</time></trkpt>
<trkpt lat="29.891325" lon="102.361089">
<time>2015-08-06T00:46:58Z</time></trkpt>
<trkpt lat="29.891285" lon="102.361019">
<time>2015-08-06T00:46:59Z</time></trkpt>
<trkpt lat="29.891255" lon="102.360969">
<time>2015-08-06T00:47:00Z</time></trkpt>
<trkpt lat="29.891175" lon="102.360849">
<time>2015-08-06T00:47:01Z</time></trkpt>
<trkpt lat="29.891006" lon="102.360609">
<time>2015-08-06T00:47:02Z</time></trkpt>
<trkpt lat="29.890886" lon="102.36045">
<time>2015-08-06T00:47:03Z</time></trkpt>
<trkpt lat="29.890806" lon="102.36037">
<time>2015-08-06T00:47:04Z</time></trkpt>
<trkpt lat="29.890766" lon="102.36034">
<time>2015-08-06T00:47:05Z</time></trkpt>
<trkpt lat="29.890726" lon="102.36031">
<time>2015-08-06T00:47:06Z</time></trkpt>
<trkpt lat="29.890676" lon="102.36029">
<time>2015-08-06T00:47:07Z</time></trkpt>
<trkpt lat="29.890626" lon="102.36027">
<time>2015-08-06T00:47:08Z</time></trkpt>
<trkpt lat="29.890566" lon="102.36026">
<time>2015-08-06T00:47:09Z</time></trkpt>
<trkpt lat="29.890506" lon="102.36026">
<time>2015-08-06T00:47:10Z</time></trkpt>
<trkpt lat="29.890456" lon="102.36026">
<time>2015-08-06T00:47:11Z</time></trkpt>
<trkpt lat="29.890386" lon="102.36026">
<time>2015-08-06T00:47:12Z</time></trkpt>
<trkpt lat="29.890246" lon="102.36028">
<time>2015-08-06T00:47:13Z</time></trkpt>
<trkpt lat="29.890196" lon="102.36029">
<time>2015-08-06T00:47:14Z</time></trkpt>
<trkpt lat="29.890116" lon="102.36029">
<time>2015-08-06T00:47:15Z</time></trkpt>
<trkpt lat="29.890016" lon="102.36028">
<time>2015-08-06T00:47:16Z</time></trkpt>
<trkpt lat="29.889936" lon="102.36027">
<time>2015-08-06T00:47:17Z</time></trkpt>
<trkpt lat="29.889836" lon="102.36025">
<time>2015-08-06T00:47:18Z</time></trkpt>
<trkpt lat="29.889676" lon="102.3602">
<time>2015-08-06T00:47:19Z</time></trkpt>
<trkpt lat="29.889566" lon="102.36015">
<time>2015-08-06T00:47:20Z</time></trkpt>
<trkpt lat="29.889506" lon="102.36012">
<time>2015-08-06T00:47:21Z</time></trkpt>
<trkpt lat="29.889436" lon="102.36008">
<time>2015-08-06T00:47:22Z</time></trkpt>
<trkpt lat="29.889336" lon="102.36002">
<time>2015-08-06T00:47:23Z</time></trkpt>
<trkpt lat="29.889257" lon="102.359951">
<time>2015-08-06T00:47:24Z</time></trkpt>
<trkpt lat="29.889167" lon="102.359841">
<time>2015-08-06T00:47:25Z</time></trkpt>
<trkpt lat="29.889117" lon="102.359771">
<time>2015-08-06T00:47:26Z</time></trkpt>
<trkpt lat="29.889077" lon="102.359691">
<time>2015-08-06T00:47:27Z</time></trkpt>
<trkpt lat="29.889037" lon="102.359611">
<time>2015-08-06T00:47:28Z</time></trkpt>
<trkpt lat="29.888997" lon="102.359511">
<time>2015-08-06T00:47:29Z</time></trkpt>
<trkpt lat="29.888967" lon="102.359431">
<time>2015-08-06T00:47:30Z</time></trkpt>
<trkpt lat="29.888937" lon="102.359332">
<time>2015-08-06T00:47:31Z</time></trkpt>
<trkpt lat="29.888908" lon="102.359222">
<time>2015-08-06T00:47:32Z</time></trkpt>
<trkpt lat="29.888898" lon="102.359142">
<time>2015-08-06T00:47:33Z</time></trkpt>
<trkpt lat="29.888878" lon="102.359052">
<time>2015-08-06T00:47:34Z</time></trkpt>
<trkpt lat="29.888858" lon="102.358952">
<time>2015-08-06T00:47:35Z</time></trkpt>
<trkpt lat="29.88874" lon="102.357824">
<time>2015-08-06T00:47:36Z</time></trkpt>
<trkpt lat="29.88872" lon="102.357614">
<time>2015-08-06T00:47:37Z</time></trkpt>
<trkpt lat="29.88872" lon="102.357415">
<time>2015-08-06T00:47:38Z</time></trkpt>
<trkpt lat="29.888711" lon="102.357295">
<time>2015-08-06T00:47:39Z</time></trkpt>
<trkpt lat="29.888721" lon="102.357255">
<time>2015-08-06T00:47:40Z</time></trkpt>
<trkpt lat="29.888731" lon="102.357215">
<time>2015-08-06T00:47:41Z</time></trkpt>
<trkpt lat="29.888751" lon="102.357135">
<time>2015-08-06T00:47:42Z</time></trkpt>
<trkpt lat="29.888781" lon="102.357035">
<time>2015-08-06T00:47:43Z</time></trkpt>
<trkpt lat="29.888811" lon="102.356936">
<time>2015-08-06T00:47:44Z</time></trkpt>
<trkpt lat="29.888811" lon="102.356856">
<time>2015-08-06T00:47:45Z</time></trkpt>
<trkpt lat="29.888821" lon="102.356786">
<time>2015-08-06T00:47:46Z</time></trkpt>
<trkpt lat="29.888811" lon="102.356726">
<time>2015-08-06T00:47:47Z</time></trkpt>
<trkpt lat="29.888802" lon="102.356676">
<time>2015-08-06T00:47:48Z</time></trkpt>
<trkpt lat="29.888772" lon="102.356626">
<time>2015-08-06T00:47:49Z</time></trkpt>
<trkpt lat="29.888742" lon="102.356566">
<time>2015-08-06T00:47:50Z</time></trkpt>
<trkpt lat="29.888692" lon="102.356486">
<time>2015-08-06T00:47:51Z</time></trkpt>
<trkpt lat="29.888642" lon="102.356417">
<time>2015-08-06T00:47:52Z</time></trkpt>
<trkpt lat="29.888562" lon="102.356347">
<time>2015-08-06T00:47:53Z</time></trkpt>
<trkpt lat="29.888462" lon="102.356277">
<time>2015-08-06T00:47:54Z</time></trkpt>
<trkpt lat="29.888252" lon="102.356167">
<time>2015-08-06T00:47:55Z</time></trkpt>
<trkpt lat="29.888112" lon="102.356087">
<time>2015-08-06T00:47:56Z</time></trkpt>
<trkpt lat="29.887973" lon="102.356017">
<time>2015-08-06T00:47:57Z</time></trkpt>
<trkpt lat="29.887863" lon="102.355937">
<time>2015-08-06T00:47:58Z</time></trkpt>
<trkpt lat="29.887763" lon="102.355848">
<time>2015-08-06T00:47:59Z</time></trkpt>
<trkpt lat="29.887693" lon="102.355788">
<time>2015-08-06T00:48:00Z</time></trkpt>
<trkpt lat="29.887613" lon="102.355698">
<time>2015-08-06T00:48:01Z</time></trkpt>
<trkpt lat="29.887264" lon="102.355249">
<time>2015-08-06T00:48:02Z</time></trkpt>
<trkpt lat="29.886495" lon="102.35428">
<time>2015-08-06T00:48:03Z</time></trkpt>
<trkpt lat="29.886416" lon="102.354191">
<time>2015-08-06T00:48:04Z</time></trkpt>
<trkpt lat="29.886326" lon="102.354111">
<time>2015-08-06T00:48:05Z</time></trkpt>
<trkpt lat="29.886226" lon="102.354031">
<time>2015-08-06T00:48:06Z</time></trkpt>
<trkpt lat="29.886106" lon="102.353961">
<time>2015-08-06T00:48:07Z</time></trkpt>
<trkpt lat="29.885776" lon="102.353781">
<time>2015-08-06T00:48:08Z</time></trkpt>
<trkpt lat="29.885377" lon="102.353552">
<time>2015-08-06T00:48:09Z</time></trkpt>
<trkpt lat="29.885247" lon="102.353462">
<time>2015-08-06T00:48:10Z</time></trkpt>
<trkpt lat="29.885167" lon="102.353392">
<time>2015-08-06T00:48:11Z</time></trkpt>
<trkpt lat="29.885107" lon="102.353342">
<time>2015-08-06T00:48:12Z</time></trkpt>
<trkpt lat="29.885047" lon="102.353272">
<time>2015-08-06T00:48:13Z</time></trkpt>
<trkpt lat="29.884688" lon="102.352813">
<time>2015-08-06T00:48:14Z</time></trkpt>
<trkpt lat="29.884438" lon="102.352444">
<time>2015-08-06T00:48:15Z</time></trkpt>
<trkpt lat="29.884349" lon="102.352314">
<time>2015-08-06T00:48:16Z</time></trkpt>
<trkpt lat="29.884309" lon="102.352264">
<time>2015-08-06T00:48:17Z</time></trkpt>
<trkpt lat="29.884259" lon="102.352204">
<time>2015-08-06T00:48:18Z</time></trkpt>
<trkpt lat="29.884209" lon="102.352154">
<time>2015-08-06T00:48:19Z</time></trkpt>
<trkpt lat="29.884159" lon="102.352114">
<time>2015-08-06T00:48:20Z</time></trkpt>
<trkpt lat="29.884039" lon="102.352025">
<time>2015-08-06T00:48:21Z</time></trkpt>
<trkpt lat="29.883989" lon="102.351995">
<time>2015-08-06T00:48:22Z</time></trkpt>
<trkpt lat="29.883809" lon="102.351885">
<time>2015-08-06T00:48:23Z</time></trkpt>
<trkpt lat="29.883739" lon="102.351855">
<time>2015-08-06T00:48:24Z</time></trkpt>
<trkpt lat="29.88359" lon="102.351785">
<time>2015-08-06T00:48:25Z</time></trkpt>
<trkpt lat="29.88346" lon="102.351725">
<time>2015-08-06T00:48:26Z</time></trkpt>
<trkpt lat="29.88339" lon="102.351685">
<time>2015-08-06T00:48:27Z</time></trkpt>
<trkpt lat="29.88331" lon="102.351635">
<time>2015-08-06T00:48:28Z</time></trkpt>
<trkpt lat="29.88326" lon="102.351595">
<time>2015-08-06T00:48:29Z</time></trkpt>
<trkpt lat="29.88321" lon="102.351555">
<time>2015-08-06T00:48:30Z</time></trkpt>
<trkpt lat="29.88314" lon="102.351486">
<time>2015-08-06T00:48:31Z</time></trkpt>
<trkpt lat="29.8831" lon="102.351436">
<time>2015-08-06T00:48:32Z</time></trkpt>
<trkpt lat="29.882911" lon="102.351176">
<time>2015-08-06T00:48:33Z</time></trkpt>
<trkpt lat="29.882841" lon="102.351096">
<time>2015-08-06T00:48:34Z</time></trkpt>
<trkpt lat="29.882821" lon="102.351076">
<time>2015-08-06T00:48:35Z</time></trkpt>
<trkpt lat="29.882781" lon="102.351046">
<time>2015-08-06T00:48:36Z</time></trkpt>
<trkpt lat="29.882751" lon="102.351026">
<time>2015-08-06T00:48:37Z</time></trkpt>
<trkpt lat="29.882731" lon="102.351017">
<time>2015-08-06T00:48:38Z</time></trkpt>
<trkpt lat="29.882691" lon="102.351007">
<time>2015-08-06T00:48:39Z</time></trkpt>
<trkpt lat="29.882661" lon="102.350997">
<time>2015-08-06T00:48:40Z</time></trkpt>
<trkpt lat="29.882651" lon="102.350997">
<time>2015-08-06T00:48:41Z</time></trkpt>
<trkpt lat="29.882601" lon="102.350997">
<time>2015-08-06T00:48:42Z</time></trkpt>
<trkpt lat="29.882571" lon="102.350997">
<time>2015-08-06T00:48:43Z</time></trkpt>
<trkpt lat="29.882551" lon="102.350997">
<time>2015-08-06T00:48:44Z</time></trkpt>
<trkpt lat="29.882521" lon="102.351007">
<time>2015-08-06T00:48:45Z</time></trkpt>
<trkpt lat="29.882481" lon="102.351017">
<time>2015-08-06T00:48:46Z</time></trkpt>
<trkpt lat="29.882441" lon="102.351036">
<time>2015-08-06T00:48:47Z</time></trkpt>
<trkpt lat="29.882291" lon="102.351126">
<time>2015-08-06T00:48:48Z</time></trkpt>
<trkpt lat="29.88201" lon="102.351356">
<time>2015-08-06T00:48:49Z</time></trkpt>
<trkpt lat="29.8819" lon="102.351426">
<time>2015-08-06T00:48:50Z</time></trkpt>
<trkpt lat="29.88176" lon="102.351496">
<time>2015-08-06T00:48:51Z</time></trkpt>
<trkpt lat="29.88166" lon="102.351546">
<time>2015-08-06T00:48:52Z</time></trkpt>
<trkpt lat="29.88153" lon="102.351595">
<time>2015-08-06T00:48:53Z</time></trkpt>
<trkpt lat="29.88142" lon="102.351625">
<time>2015-08-06T00:48:54Z</time></trkpt>
<trkpt lat="29.88129" lon="102.351655">
<time>2015-08-06T00:48:55Z</time></trkpt>
<trkpt lat="29.88119" lon="102.351675">
<time>2015-08-06T00:48:56Z</time></trkpt>
<trkpt lat="29.88104" lon="102.351695">
<time>2015-08-06T00:48:57Z</time></trkpt>
<trkpt lat="29.88087" lon="102.351705">
<time>2015-08-06T00:48:58Z</time></trkpt>
<trkpt lat="29.88063" lon="102.351695">
<time>2015-08-06T00:48:59Z</time></trkpt>
<trkpt lat="29.88041" lon="102.351685">
<time>2015-08-06T00:49:00Z</time></trkpt>
<trkpt lat="29.88024" lon="102.351685">
<time>2015-08-06T00:49:01Z</time></trkpt>
<trkpt lat="29.88016" lon="102.351685">
<time>2015-08-06T00:49:02Z</time></trkpt>
<trkpt lat="29.88008" lon="102.351705">
<time>2015-08-06T00:49:03Z</time></trkpt>
<trkpt lat="29.88003" lon="102.351725">
<time>2015-08-06T00:49:04Z</time></trkpt>
<trkpt lat="29.87996" lon="102.351765">
<time>2015-08-06T00:49:05Z</time></trkpt>
<trkpt lat="29.8799" lon="102.351795">
<time>2015-08-06T00:49:06Z</time></trkpt>
<trkpt lat="29.87983" lon="102.351835">
<time>2015-08-06T00:49:07Z</time></trkpt>
<trkpt lat="29.879369" lon="102.352234">
<time>2015-08-06T00:49:08Z</time></trkpt>
<trkpt lat="29.879139" lon="102.352434">
<time>2015-08-06T00:49:09Z</time></trkpt>
<trkpt lat="29.878928" lon="102.352654">
<time>2015-08-06T00:49:10Z</time></trkpt>
<trkpt lat="29.878397" lon="102.353322">
<time>2015-08-06T00:49:11Z</time></trkpt>
<trkpt lat="29.878347" lon="102.353372">
<time>2015-08-06T00:49:12Z</time></trkpt>
<trkpt lat="29.878277" lon="102.353442">
<time>2015-08-06T00:49:13Z</time></trkpt>
<trkpt lat="29.878217" lon="102.353482">
<time>2015-08-06T00:49:14Z</time></trkpt>
<trkpt lat="29.878147" lon="102.353522">
<time>2015-08-06T00:49:15Z</time></trkpt>
<trkpt lat="29.878067" lon="102.353562">
<time>2015-08-06T00:49:16Z</time></trkpt>
<trkpt lat="29.877987" lon="102.353592">
<time>2015-08-06T00:49:17Z</time></trkpt>
<trkpt lat="29.877887" lon="102.353612">
<time>2015-08-06T00:49:18Z</time></trkpt>
<trkpt lat="29.877777" lon="102.353622">
<time>2015-08-06T00:49:19Z</time></trkpt>
<trkpt lat="29.877387" lon="102.353632">
<time>2015-08-06T00:49:20Z</time></trkpt>
<trkpt lat="29.877207" lon="102.353652">
<time>2015-08-06T00:49:21Z</time></trkpt>
<trkpt lat="29.877027" lon="102.353702">
<time>2015-08-06T00:49:22Z</time></trkpt>
<trkpt lat="29.876837" lon="102.353752">
<time>2015-08-06T00:49:23Z</time></trkpt>
<trkpt lat="29.876777" lon="102.353762">
<time>2015-08-06T00:49:24Z</time></trkpt>
<trkpt lat="29.876697" lon="102.353772">
<time>2015-08-06T00:49:25Z</time></trkpt>
<trkpt lat="29.876677" lon="102.353772">
<time>2015-08-06T00:49:26Z</time></trkpt>
<trkpt lat="29.876647" lon="102.353762">
<time>2015-08-06T00:49:27Z</time></trkpt>
<trkpt lat="29.876617" lon="102.353752">
<time>2015-08-06T00:49:28Z</time></trkpt>
<trkpt lat="29.876587" lon="102.353742">
<time>2015-08-06T00:49:29Z</time></trkpt>
<trkpt lat="29.876567" lon="102.353722">
<time>2015-08-06T00:49:30Z</time></trkpt>
<trkpt lat="29.876547" lon="102.353702">
<time>2015-08-06T00:49:31Z</time></trkpt>
<trkpt lat="29.876527" lon="102.353672">
<time>2015-08-06T00:49:32Z</time></trkpt>
<trkpt lat="29.876517" lon="102.353642">
<time>2015-08-06T00:49:33Z</time></trkpt>
<trkpt lat="29.876497" lon="102.353612">
<time>2015-08-06T00:49:34Z</time></trkpt>
<trkpt lat="29.876487" lon="102.353572">
<time>2015-08-06T00:49:35Z</time></trkpt>
<trkpt lat="29.876487" lon="102.353532">
<time>2015-08-06T00:49:36Z</time></trkpt>
<trkpt lat="29.876487" lon="102.353492">
<time>2015-08-06T00:49:37Z</time></trkpt>
<trkpt lat="29.876487" lon="102.353452">
<time>2015-08-06T00:49:38Z</time></trkpt>
<trkpt lat="29.876497" lon="102.353422">
<time>2015-08-06T00:49:39Z</time></trkpt>
<trkpt lat="29.876507" lon="102.353382">
<time>2015-08-06T00:49:40Z</time></trkpt>
<trkpt lat="29.876517" lon="102.353352">
<time>2015-08-06T00:49:41Z</time></trkpt>
<trkpt lat="29.876547" lon="102.353322">
<time>2015-08-06T00:49:42Z</time></trkpt>
<trkpt lat="29.876577" lon="102.353303">
<time>2015-08-06T00:49:43Z</time></trkpt>
<trkpt lat="29.876617" lon="102.353263">
<time>2015-08-06T00:49:44Z</time></trkpt>
<trkpt lat="29.876748" lon="102.353193">
<time>2015-08-06T00:49:45Z</time></trkpt>
<trkpt lat="29.876828" lon="102.353153">
<time>2015-08-06T00:49:46Z</time></trkpt>
<trkpt lat="29.876978" lon="102.353093">
<time>2015-08-06T00:49:47Z</time></trkpt>
<trkpt lat="29.877038" lon="102.353073">
<time>2015-08-06T00:49:48Z</time></trkpt>
<trkpt lat="29.877088" lon="102.353063">
<time>2015-08-06T00:49:49Z</time></trkpt>
<trkpt lat="29.877368" lon="102.353033">
<time>2015-08-06T00:49:50Z</time></trkpt>
<trkpt lat="29.877538" lon="102.353023">
<time>2015-08-06T00:49:51Z</time></trkpt>
<trkpt lat="29.877718" lon="102.353013">
<time>2015-08-06T00:49:52Z</time></trkpt>
<trkpt lat="29.877828" lon="102.352993">
<time>2015-08-06T00:49:53Z</time></trkpt>
<trkpt lat="29.877888" lon="102.352973">
<time>2015-08-06T00:49:54Z</time></trkpt>
<trkpt lat="29.877938" lon="102.352943">
<time>2015-08-06T00:49:55Z</time></trkpt>
<trkpt lat="29.877978" lon="102.352913">
<time>2015-08-06T00:49:56Z</time></trkpt>
<trkpt lat="29.878028" lon="102.352883">
<time>2015-08-06T00:49:57Z</time></trkpt>
<trkpt lat="29.878068" lon="102.352843">
<time>2015-08-06T00:49:58Z</time></trkpt>
<trkpt lat="29.878319" lon="102.352524">
<time>2015-08-06T00:49:59Z</time></trkpt>
<trkpt lat="29.878589" lon="102.352135">
<time>2015-08-06T00:50:00Z</time></trkpt>
<trkpt lat="29.878649" lon="102.352045">
<time>2015-08-06T00:50:01Z</time></trkpt>
<trkpt lat="29.87869" lon="102.351965">
<time>2015-08-06T00:50:02Z</time></trkpt>
<trkpt lat="29.87872" lon="102.351915">
<time>2015-08-06T00:50:03Z</time></trkpt>
<trkpt lat="29.87875" lon="102.351855">
<time>2015-08-06T00:50:04Z</time></trkpt>
<trkpt lat="29.87877" lon="102.351785">
<time>2015-08-06T00:50:05Z</time></trkpt>
<trkpt lat="29.87882" lon="102.351476">
<time>2015-08-06T00:50:06Z</time></trkpt>
<trkpt lat="29.87884" lon="102.351416">
<time>2015-08-06T00:50:07Z</time></trkpt>
<trkpt lat="29.878851" lon="102.351356">
<time>2015-08-06T00:50:08Z</time></trkpt>
<trkpt lat="29.878871" lon="102.351316">
<time>2015-08-06T00:50:09Z</time></trkpt>
<trkpt lat="29.878901" lon="102.351266">
<time>2015-08-06T00:50:10Z</time></trkpt>
<trkpt lat="29.878931" lon="102.351226">
<time>2015-08-06T00:50:11Z</time></trkpt>
<trkpt lat="29.878961" lon="102.351186">
<time>2015-08-06T00:50:12Z</time></trkpt>
<trkpt lat="29.878991" lon="102.351156">
<time>2015-08-06T00:50:13Z</time></trkpt>
<trkpt lat="29.879381" lon="102.350797">
<time>2015-08-06T00:50:14Z</time></trkpt>
<trkpt lat="29.879592" lon="102.350637">
<time>2015-08-06T00:50:15Z</time></trkpt>
<trkpt lat="29.879642" lon="102.350597">
<time>2015-08-06T00:50:16Z</time></trkpt>
<trkpt lat="29.879702" lon="102.350577">
<time>2015-08-06T00:50:17Z</time></trkpt>
<trkpt lat="29.879732" lon="102.350567">
<time>2015-08-06T00:50:18Z</time></trkpt>
<trkpt lat="29.879772" lon="102.350557">
<time>2015-08-06T00:50:19Z</time></trkpt>
<trkpt lat="29.879802" lon="102.350547">
<time>2015-08-06T00:50:20Z</time></trkpt>
<trkpt lat="29.879832" lon="102.350547">
<time>2015-08-06T00:50:21Z</time></trkpt>
<trkpt lat="29.879872" lon="102.350547">
<time>2015-08-06T00:50:22Z</time></trkpt>
<trkpt lat="29.879932" lon="102.350557">
<time>2015-08-06T00:50:23Z</time></trkpt>
<trkpt lat="29.879992" lon="102.350577">
<time>2015-08-06T00:50:24Z</time></trkpt>
<trkpt lat="29.880062" lon="102.350607">
<time>2015-08-06T00:50:25Z</time></trkpt>
<trkpt lat="29.880152" lon="102.350647">
<time>2015-08-06T00:50:26Z</time></trkpt>
<trkpt lat="29.880262" lon="102.350697">
<time>2015-08-06T00:50:27Z</time></trkpt>
<trkpt lat="29.880362" lon="102.350727">
<time>2015-08-06T00:50:28Z</time></trkpt>
<trkpt lat="29.880461" lon="102.350747">
<time>2015-08-06T00:50:29Z</time></trkpt>
<trkpt lat="29.880541" lon="102.350757">
<time>2015-08-06T00:50:30Z</time></trkpt>
<trkpt lat="29.880591" lon="102.350757">
<time>2015-08-06T00:50:31Z</time></trkpt>
<trkpt lat="29.880661" lon="102.350747">
<time>2015-08-06T00:50:32Z</time></trkpt>
<trkpt lat="29.880711" lon="102.350747">
<time>2015-08-06T00:50:33Z</time></trkpt>
<trkpt lat="29.880802" lon="102.350717">
<time>2015-08-06T00:50:34Z</time></trkpt>
<trkpt lat="29.880872" lon="102.350697">
<time>2015-08-06T00:50:35Z</time></trkpt>
<trkpt lat="29.880932" lon="102.350677">
<time>2015-08-06T00:50:36Z</time></trkpt>
<trkpt lat="29.881042" lon="102.350637">
<time>2015-08-06T00:50:37Z</time></trkpt>
<trkpt lat="29.881142" lon="102.350577">
<time>2015-08-06T00:50:38Z</time></trkpt>
<trkpt lat="29.881202" lon="102.350537">
<time>2015-08-06T00:50:39Z</time></trkpt>
<trkpt lat="29.881252" lon="102.350508">
<time>2015-08-06T00:50:40Z</time></trkpt>
<trkpt lat="29.881292" lon="102.350458">
<time>2015-08-06T00:50:41Z</time></trkpt>
<trkpt lat="29.881342" lon="102.350418">
<time>2015-08-06T00:50:42Z</time></trkpt>
<trkpt lat="29.881442" lon="102.350278">
<time>2015-08-06T00:50:43Z</time></trkpt>
<trkpt lat="29.881532" lon="102.350148">
<time>2015-08-06T00:50:44Z</time></trkpt>
<trkpt lat="29.881613" lon="102.350038">
<time>2015-08-06T00:50:45Z</time></trkpt>
<trkpt lat="29.881813" lon="102.349829">
<time>2015-08-06T00:50:46Z</time></trkpt>
<trkpt lat="29.882033" lon="102.349589">
<time>2015-08-06T00:50:47Z</time></trkpt>
<trkpt lat="29.882124" lon="102.349479">
<time>2015-08-06T00:50:48Z</time></trkpt>
<trkpt lat="29.882204" lon="102.34934">
<time>2015-08-06T00:50:49Z</time></trkpt>
<trkpt lat="29.882264" lon="102.3492">
<time>2015-08-06T00:50:50Z</time></trkpt>
<trkpt lat="29.882294" lon="102.34911">
<time>2015-08-06T00:50:51Z</time></trkpt>
<trkpt lat="29.882314" lon="102.34902">
<time>2015-08-06T00:50:52Z</time></trkpt>
<trkpt lat="29.882425" lon="102.348521">
<time>2015-08-06T00:50:53Z</time></trkpt>
<trkpt lat="29.882496" lon="102.348332">
<time>2015-08-06T00:50:54Z</time></trkpt>
<trkpt lat="29.882586" lon="102.348092">
<time>2015-08-06T00:50:55Z</time></trkpt>
<trkpt lat="29.882616" lon="102.348022">
<time>2015-08-06T00:50:56Z</time></trkpt>
<trkpt lat="29.882646" lon="102.347902">
<time>2015-08-06T00:50:57Z</time></trkpt>
<trkpt lat="29.882656" lon="102.347833">
<time>2015-08-06T00:50:58Z</time></trkpt>
<trkpt lat="29.882666" lon="102.347773">
<time>2015-08-06T00:50:59Z</time></trkpt>
<trkpt lat="29.882677" lon="102.347713">
<time>2015-08-06T00:51:00Z</time></trkpt>
<trkpt lat="29.882677" lon="102.347663">
<time>2015-08-06T00:51:01Z</time></trkpt>
<trkpt lat="29.882667" lon="102.347593">
<time>2015-08-06T00:51:02Z</time></trkpt>
<trkpt lat="29.882657" lon="102.347533">
<time>2015-08-06T00:51:03Z</time></trkpt>
<trkpt lat="29.882627" lon="102.347373">
<time>2015-08-06T00:51:04Z</time></trkpt>
<trkpt lat="29.882438" lon="102.346685">
<time>2015-08-06T00:51:05Z</time></trkpt>
<trkpt lat="29.882339" lon="102.346375">
<time>2015-08-06T00:51:06Z</time></trkpt>
<trkpt lat="29.882309" lon="102.346286">
<time>2015-08-06T00:51:07Z</time></trkpt>
<trkpt lat="29.882269" lon="102.346206">
<time>2015-08-06T00:51:08Z</time></trkpt>
<trkpt lat="29.88216" lon="102.345986">
<time>2015-08-06T00:51:09Z</time></trkpt>
<trkpt lat="29.88198" lon="102.345697">
<time>2015-08-06T00:51:10Z</time></trkpt>
<trkpt lat="29.881841" lon="102.345437">
<time>2015-08-06T00:51:11Z</time></trkpt>
<trkpt lat="29.881781" lon="102.345298">
<time>2015-08-06T00:51:12Z</time></trkpt>
<trkpt lat="29.881731" lon="102.345158">
<time>2015-08-06T00:51:13Z</time></trkpt>
<trkpt lat="29.881681" lon="102.344998">
<time>2015-08-06T00:51:14Z</time></trkpt>
<trkpt lat="29.881632" lon="102.344808">
<time>2015-08-06T00:51:15Z</time></trkpt>
<trkpt lat="29.881592" lon="102.344619">
<time>2015-08-06T00:51:16Z</time></trkpt>
<trkpt lat="29.881513" lon="102.3443">
<time>2015-08-06T00:51:17Z</time></trkpt>
<trkpt lat="29.881493" lon="102.34421">
<time>2015-08-06T00:51:18Z</time></trkpt>
<trkpt lat="29.881473" lon="102.34411">
<time>2015-08-06T00:51:19Z</time></trkpt>
<trkpt lat="29.881463" lon="102.34401">
<time>2015-08-06T00:51:20Z</time></trkpt>
<trkpt lat="29.881463" lon="102.34393">
<time>2015-08-06T00:51:21Z</time></trkpt>
<trkpt lat="29.881463" lon="102.34388">
<time>2015-08-06T00:51:22Z</time></trkpt>
<trkpt lat="29.881463" lon="102.34383">
<time>2015-08-06T00:51:23Z</time></trkpt>
<trkpt lat="29.881474" lon="102.3438">
<time>2015-08-06T00:51:24Z</time></trkpt>
<trkpt lat="29.881494" lon="102.343761">
<time>2015-08-06T00:51:25Z</time></trkpt>
<trkpt lat="29.881514" lon="102.343731">
<time>2015-08-06T00:51:26Z</time></trkpt>
<trkpt lat="29.881554" lon="102.343681">
<time>2015-08-06T00:51:27Z</time></trkpt>
<trkpt lat="29.881624" lon="102.343631">
<time>2015-08-06T00:51:28Z</time></trkpt>
<trkpt lat="29.881684" lon="102.343591">
<time>2015-08-06T00:51:29Z</time></trkpt>
<trkpt lat="29.881864" lon="102.343481">
<time>2015-08-06T00:51:30Z</time></trkpt>
<trkpt lat="29.881914" lon="102.343451">
<time>2015-08-06T00:51:31Z</time></trkpt>
<trkpt lat="29.881944" lon="102.343421">
<time>2015-08-06T00:51:32Z</time></trkpt>
<trkpt lat="29.881974" lon="102.343391">
<time>2015-08-06T00:51:33Z</time></trkpt>
<trkpt lat="29.882004" lon="102.343341">
<time>2015-08-06T00:51:34Z</time></trkpt>
<trkpt lat="29.882034" lon="102.343291">
<time>2015-08-06T00:51:35Z</time></trkpt>
<trkpt lat="29.882055" lon="102.343252">
<time>2015-08-06T00:51:36Z</time></trkpt>
<trkpt lat="29.882075" lon="102.343202">
<time>2015-08-06T00:51:37Z</time></trkpt>
<trkpt lat="29.882085" lon="102.343152">
<time>2015-08-06T00:51:38Z</time></trkpt>
<trkpt lat="29.882095" lon="102.343102">
<time>2015-08-06T00:51:39Z</time></trkpt>
<trkpt lat="29.882095" lon="102.343052">
<time>2015-08-06T00:51:40Z</time></trkpt>
<trkpt lat="29.882095" lon="102.342922">
<time>2015-08-06T00:51:41Z</time></trkpt>
<trkpt lat="29.882076" lon="102.342493">
<time>2015-08-06T00:51:42Z</time></trkpt>
<trkpt lat="29.882037" lon="102.342104">
<time>2015-08-06T00:51:43Z</time></trkpt>
<trkpt lat="29.882017" lon="102.341884">
<time>2015-08-06T00:51:44Z</time></trkpt>
<trkpt lat="29.882017" lon="102.341794">
<time>2015-08-06T00:51:45Z</time></trkpt>
<trkpt lat="29.882017" lon="102.341705">
<time>2015-08-06T00:51:46Z</time></trkpt>
<trkpt lat="29.882028" lon="102.341605">
<time>2015-08-06T00:51:47Z</time></trkpt>
<trkpt lat="29.882038" lon="102.341505">
<time>2015-08-06T00:51:48Z</time></trkpt>
<trkpt lat="29.882098" lon="102.341216">
<time>2015-08-06T00:51:49Z</time></trkpt>
<trkpt lat="29.882098" lon="102.341176">
<time>2015-08-06T00:51:50Z</time></trkpt>
<trkpt lat="29.882098" lon="102.341136">
<time>2015-08-06T00:51:51Z</time></trkpt>
<trkpt lat="29.882088" lon="102.341086">
<time>2015-08-06T00:51:52Z</time></trkpt>
<trkpt lat="29.882089" lon="102.341036">
<time>2015-08-06T00:51:53Z</time></trkpt>
<trkpt lat="29.882079" lon="102.340986">
<time>2015-08-06T00:51:54Z</time></trkpt>
<trkpt lat="29.882059" lon="102.340926">
<time>2015-08-06T00:51:55Z</time></trkpt>
<trkpt lat="29.882029" lon="102.340866">
<time>2015-08-06T00:51:56Z</time></trkpt>
<trkpt lat="29.881879" lon="102.340577">
<time>2015-08-06T00:51:57Z</time></trkpt>
<trkpt lat="29.881311" lon="102.339629">
<time>2015-08-06T00:51:58Z</time></trkpt>
<trkpt lat="29.881202" lon="102.339369">
<time>2015-08-06T00:51:59Z</time></trkpt>
<trkpt lat="29.881182" lon="102.3393">
<time>2015-08-06T00:52:00Z</time></trkpt>
<trkpt lat="29.881162" lon="102.33924">
<time>2015-08-06T00:52:01Z</time></trkpt>
<trkpt lat="29.881142" lon="102.33916">
<time>2015-08-06T00:52:02Z</time></trkpt>
<trkpt lat="29.881122" lon="102.33909">
<time>2015-08-06T00:52:03Z</time></trkpt>
<trkpt lat="29.881112" lon="102.33902">
<time>2015-08-06T00:52:04Z</time></trkpt>
<trkpt lat="29.881112" lon="102.33895">
<time>2015-08-06T00:52:05Z</time></trkpt>
<trkpt lat="29.881103" lon="102.33887">
<time>2015-08-06T00:52:06Z</time></trkpt>
<trkpt lat="29.881094" lon="102.338222">
<time>2015-08-06T00:52:07Z</time></trkpt>
<trkpt lat="29.881094" lon="102.338142">
<time>2015-08-06T00:52:08Z</time></trkpt>
<trkpt lat="29.881074" lon="102.338072">
<time>2015-08-06T00:52:09Z</time></trkpt>
<trkpt lat="29.881054" lon="102.338012">
<time>2015-08-06T00:52:10Z</time></trkpt>
<trkpt lat="29.881034" lon="102.337962">
<time>2015-08-06T00:52:11Z</time></trkpt>
<trkpt lat="29.881004" lon="102.337902">
<time>2015-08-06T00:52:12Z</time></trkpt>
<trkpt lat="29.880974" lon="102.337863">
<time>2015-08-06T00:52:13Z</time></trkpt>
<trkpt lat="29.880945" lon="102.337823">
<time>2015-08-06T00:52:14Z</time></trkpt>
<trkpt lat="29.880905" lon="102.337783">
<time>2015-08-06T00:52:15Z</time></trkpt>
<trkpt lat="29.880855" lon="102.337743">
<time>2015-08-06T00:52:16Z</time></trkpt>
<trkpt lat="29.880815" lon="102.337723">
<time>2015-08-06T00:52:17Z</time></trkpt>
<trkpt lat="29.880725" lon="102.337683">
<time>2015-08-06T00:52:18Z</time></trkpt>
<trkpt lat="29.880625" lon="102.337643">
<time>2015-08-06T00:52:19Z</time></trkpt>
<trkpt lat="29.880565" lon="102.337623">
<time>2015-08-06T00:52:20Z</time></trkpt>
<trkpt lat="29.880435" lon="102.337573">
<time>2015-08-06T00:52:21Z</time></trkpt>
<trkpt lat="29.880235" lon="102.337513">
<time>2015-08-06T00:52:22Z</time></trkpt>
<trkpt lat="29.880055" lon="102.337443">
<time>2015-08-06T00:52:23Z</time></trkpt>
<trkpt lat="29.879965" lon="102.337423">
<time>2015-08-06T00:52:24Z</time></trkpt>
<trkpt lat="29.879895" lon="102.337414">
<time>2015-08-06T00:52:25Z</time></trkpt>
<trkpt lat="29.879835" lon="102.337404">
<time>2015-08-06T00:52:26Z</time></trkpt>
<trkpt lat="29.879765" lon="102.337394">
<time>2015-08-06T00:52:27Z</time></trkpt>
<trkpt lat="29.879605" lon="102.337384">
<time>2015-08-06T00:52:28Z</time></trkpt>
<trkpt lat="29.879525" lon="102.337384">
<time>2015-08-06T00:52:29Z</time></trkpt>
<trkpt lat="29.879465" lon="102.337384">
<time>2015-08-06T00:52:30Z</time></trkpt>
<trkpt lat="29.879395" lon="102.337374">
<time>2015-08-06T00:52:31Z</time></trkpt>
<trkpt lat="29.879315" lon="102.337344">
<time>2015-08-06T00:52:32Z</time></trkpt>
<trkpt lat="29.879276" lon="102.337314">
<time>2015-08-06T00:52:33Z</time></trkpt>
<trkpt lat="29.879246" lon="102.337284">
<time>2015-08-06T00:52:34Z</time></trkpt>
<trkpt lat="29.879226" lon="102.337264">
<time>2015-08-06T00:52:35Z</time></trkpt>
<trkpt lat="29.879206" lon="102.337234">
<time>2015-08-06T00:52:36Z</time></trkpt>
<trkpt lat="29.879186" lon="102.337204">
<time>2015-08-06T00:52:37Z</time></trkpt>
<trkpt lat="29.879166" lon="102.337154">
<time>2015-08-06T00:52:38Z</time></trkpt>
<trkpt lat="29.879156" lon="102.337104">
<time>2015-08-06T00:52:39Z</time></trkpt>
<trkpt lat="29.879146" lon="102.337054">
<time>2015-08-06T00:52:40Z</time></trkpt>
<trkpt lat="29.879136" lon="102.337014">
<time>2015-08-06T00:52:41Z</time></trkpt>
<trkpt lat="29.879136" lon="102.336984">
<time>2015-08-06T00:52:42Z</time></trkpt>
<trkpt lat="29.879136" lon="102.336964">
<time>2015-08-06T00:52:43Z</time></trkpt>
<trkpt lat="29.879146" lon="102.336954">
<time>2015-08-06T00:52:44Z</time></trkpt>
<trkpt lat="29.879146" lon="102.336925">
<time>2015-08-06T00:52:45Z</time></trkpt>
<trkpt lat="29.879156" lon="102.336895">
<time>2015-08-06T00:52:46Z</time></trkpt>
<trkpt lat="29.879176" lon="102.336865">
<time>2015-08-06T00:52:47Z</time></trkpt>
<trkpt lat="29.879196" lon="102.336825">
<time>2015-08-06T00:52:48Z</time></trkpt>
<trkpt lat="29.879247" lon="102.336755">
<time>2015-08-06T00:52:49Z</time></trkpt>
<trkpt lat="29.879317" lon="102.336655">
<time>2015-08-06T00:52:50Z</time></trkpt>
<trkpt lat="29.879377" lon="102.336555">
<time>2015-08-06T00:52:51Z</time></trkpt>
<trkpt lat="29.879407" lon="102.336505">
<time>2015-08-06T00:52:52Z</time></trkpt>
<trkpt lat="29.879437" lon="102.336465">
<time>2015-08-06T00:52:53Z</time></trkpt>
<trkpt lat="29.879457" lon="102.336416">
<time>2015-08-06T00:52:54Z</time></trkpt>
<trkpt lat="29.879467" lon="102.336366">
<time>2015-08-06T00:52:55Z</time></trkpt>
<trkpt lat="29.879487" lon="102.336316">
<time>2015-08-06T00:52:56Z</time></trkpt>
<trkpt lat="29.879497" lon="102.336266">
<time>2015-08-06T00:52:57Z</time></trkpt>
<trkpt lat="29.879498" lon="102.336196">
<time>2015-08-06T00:52:58Z</time></trkpt>
<trkpt lat="29.879508" lon="102.336126">
<time>2015-08-06T00:52:59Z</time></trkpt>
<trkpt lat="29.879488" lon="102.335887">
<time>2015-08-06T00:53:00Z</time></trkpt>
<trkpt lat="29.879459" lon="102.335667">
<time>2015-08-06T00:53:01Z</time></trkpt>
<trkpt lat="29.879419" lon="102.335418">
<time>2015-08-06T00:53:02Z</time></trkpt>
<trkpt lat="29.87934" lon="102.335118">
<time>2015-08-06T00:53:03Z</time></trkpt>
<trkpt lat="29.87928" lon="102.334889">
<time>2015-08-06T00:53:04Z</time></trkpt>
<trkpt lat="29.87925" lon="102.334789">
<time>2015-08-06T00:53:05Z</time></trkpt>
<trkpt lat="29.879071" lon="102.33436">
<time>2015-08-06T00:53:06Z</time></trkpt>
<trkpt lat="29.879011" lon="102.33427">
<time>2015-08-06T00:53:07Z</time></trkpt>
<trkpt lat="29.878981" lon="102.33424">
<time>2015-08-06T00:53:08Z</time></trkpt>
<trkpt lat="29.878971" lon="102.33422">
<time>2015-08-06T00:53:09Z</time></trkpt>
<trkpt lat="29.878951" lon="102.33421">
<time>2015-08-06T00:53:10Z</time></trkpt>
<trkpt lat="29.878931" lon="102.3342">
<time>2015-08-06T00:53:11Z</time></trkpt>
<trkpt lat="29.878911" lon="102.3342">
<time>2015-08-06T00:53:12Z</time></trkpt>
<trkpt lat="29.878881" lon="102.3342">
<time>2015-08-06T00:53:13Z</time></trkpt>
<trkpt lat="29.878851" lon="102.3342">
<time>2015-08-06T00:53:14Z</time></trkpt>
<trkpt lat="29.878831" lon="102.33421">
<time>2015-08-06T00:53:15Z</time></trkpt>
<trkpt lat="29.878811" lon="102.33421">
<time>2015-08-06T00:53:16Z</time></trkpt>
<trkpt lat="29.878791" lon="102.33422">
<time>2015-08-06T00:53:17Z</time></trkpt>
<trkpt lat="29.878781" lon="102.33424">
<time>2015-08-06T00:53:18Z</time></trkpt>
<trkpt lat="29.878761" lon="102.33426">
<time>2015-08-06T00:53:19Z</time></trkpt>
<trkpt lat="29.878751" lon="102.33428">
<time>2015-08-06T00:53:20Z</time></trkpt>
<trkpt lat="29.878741" lon="102.3343">
<time>2015-08-06T00:53:21Z</time></trkpt>
<trkpt lat="29.878731" lon="102.33433">
<time>2015-08-06T00:53:22Z</time></trkpt>
<trkpt lat="29.878731" lon="102.33435">
<time>2015-08-06T00:53:23Z</time></trkpt>
<trkpt lat="29.878731" lon="102.33438">
<time>2015-08-06T00:53:24Z</time></trkpt>
<trkpt lat="29.878741" lon="102.33442">
<time>2015-08-06T00:53:25Z</time></trkpt>
<trkpt lat="29.878741" lon="102.33446">
<time>2015-08-06T00:53:26Z</time></trkpt>
<trkpt lat="29.878751" lon="102.33449">
<time>2015-08-06T00:53:27Z</time></trkpt>
<trkpt lat="29.878781" lon="102.334559">
<time>2015-08-06T00:53:28Z</time></trkpt>
<trkpt lat="29.8789" lon="102.334849">
<time>2015-08-06T00:53:29Z</time></trkpt>
<trkpt lat="29.879159" lon="102.335418">
<time>2015-08-06T00:53:30Z</time></trkpt>
<trkpt lat="29.879189" lon="102.335507">
<time>2015-08-06T00:53:31Z</time></trkpt>
<trkpt lat="29.879209" lon="102.335597">
<time>2015-08-06T00:53:32Z</time></trkpt>
<trkpt lat="29.879228" lon="102.335807">
<time>2015-08-06T00:53:33Z</time></trkpt>
<trkpt lat="29.879238" lon="102.335877">
<time>2015-08-06T00:53:34Z</time></trkpt>
<trkpt lat="29.879238" lon="102.335947">
<time>2015-08-06T00:53:35Z</time></trkpt>
<trkpt lat="29.879228" lon="102.335996">
<time>2015-08-06T00:53:36Z</time></trkpt>
<trkpt lat="29.879218" lon="102.336056">
<time>2015-08-06T00:53:37Z</time></trkpt>
<trkpt lat="29.879198" lon="102.336116">
<time>2015-08-06T00:53:38Z</time></trkpt>
<trkpt lat="29.879178" lon="102.336166">
<time>2015-08-06T00:53:39Z</time></trkpt>
<trkpt lat="29.879158" lon="102.336206">
<time>2015-08-06T00:53:40Z</time></trkpt>
<trkpt lat="29.879138" lon="102.336246">
<time>2015-08-06T00:53:41Z</time></trkpt>
<trkpt lat="29.879108" lon="102.336256">
<time>2015-08-06T00:53:42Z</time></trkpt>
<trkpt lat="29.879077" lon="102.336276">
<time>2015-08-06T00:53:43Z</time></trkpt>
<trkpt lat="29.879047" lon="102.336286">
<time>2015-08-06T00:53:44Z</time></trkpt>
<trkpt lat="29.879017" lon="102.336286">
<time>2015-08-06T00:53:45Z</time></trkpt>
<trkpt lat="29.878988" lon="102.336276">
<time>2015-08-06T00:53:46Z</time></trkpt>
<trkpt lat="29.878958" lon="102.336266">
<time>2015-08-06T00:53:47Z</time></trkpt>
<trkpt lat="29.878938" lon="102.336246">
<time>2015-08-06T00:53:48Z</time></trkpt>
<trkpt lat="29.878918" lon="102.336226">
<time>2015-08-06T00:53:49Z</time></trkpt>
<trkpt lat="29.878898" lon="102.336196">
<time>2015-08-06T00:53:50Z</time></trkpt>
<trkpt lat="29.878888" lon="102.336156">
<time>2015-08-06T00:53:51Z</time></trkpt>
<trkpt lat="29.878878" lon="102.336106">
<time>2015-08-06T00:53:52Z</time></trkpt>
<trkpt lat="29.878868" lon="102.336066">
<time>2015-08-06T00:53:53Z</time></trkpt>
<trkpt lat="29.878858" lon="102.336006">
<time>2015-08-06T00:53:54Z</time></trkpt>
<trkpt lat="29.878868" lon="102.335847">
<time>2015-08-06T00:53:55Z</time></trkpt>
<trkpt lat="29.878869" lon="102.335747">
<time>2015-08-06T00:53:56Z</time></trkpt>
<trkpt lat="29.878859" lon="102.335577">
<time>2015-08-06T00:53:57Z</time></trkpt>
<trkpt lat="29.878839" lon="102.335438">
<time>2015-08-06T00:53:58Z</time></trkpt>
<trkpt lat="29.878819" lon="102.335318">
<time>2015-08-06T00:53:59Z</time></trkpt>
<trkpt lat="29.87878" lon="102.335198">
<time>2015-08-06T00:54:00Z</time></trkpt>
<trkpt lat="29.87872" lon="102.335058">
<time>2015-08-06T00:54:01Z</time></trkpt>
<trkpt lat="29.87866" lon="102.334929">
<time>2015-08-06T00:54:02Z</time></trkpt>
<trkpt lat="29.878311" lon="102.33429">
<time>2015-08-06T00:54:03Z</time></trkpt>
<trkpt lat="29.878242" lon="102.33413">
<time>2015-08-06T00:54:04Z</time></trkpt>
<trkpt lat="29.878222" lon="102.334021">
<time>2015-08-06T00:54:05Z</time></trkpt>
<trkpt lat="29.878212" lon="102.333971">
<time>2015-08-06T00:54:06Z</time></trkpt>
<trkpt lat="29.878212" lon="102.333921">
<time>2015-08-06T00:54:07Z</time></trkpt>
<trkpt lat="29.878212" lon="102.333861">
<time>2015-08-06T00:54:08Z</time></trkpt>
<trkpt lat="29.878222" lon="102.333801">
<time>2015-08-06T00:54:09Z</time></trkpt>
<trkpt lat="29.878242" lon="102.333731">
<time>2015-08-06T00:54:10Z</time></trkpt>
<trkpt lat="29.878363" lon="102.333412">
<time>2015-08-06T00:54:11Z</time></trkpt>
<trkpt lat="29.878383" lon="102.333352">
<time>2015-08-06T00:54:12Z</time></trkpt>
<trkpt lat="29.878383" lon="102.333302">
<time>2015-08-06T00:54:13Z</time></trkpt>
<trkpt lat="29.878393" lon="102.333252">
<time>2015-08-06T00:54:14Z</time></trkpt>
<trkpt lat="29.878393" lon="102.333212">
<time>2015-08-06T00:54:15Z</time></trkpt>
<trkpt lat="29.878383" lon="102.333162">
<time>2015-08-06T00:54:16Z</time></trkpt>
<trkpt lat="29.878374" lon="102.333113">
<time>2015-08-06T00:54:17Z</time></trkpt>
<trkpt lat="29.878364" lon="102.333073">
<time>2015-08-06T00:54:18Z</time></trkpt>
<trkpt lat="29.878354" lon="102.333033">
<time>2015-08-06T00:54:19Z</time></trkpt>
<trkpt lat="29.878194" lon="102.332753">
<time>2015-08-06T00:54:20Z</time></trkpt>
<trkpt lat="29.877815" lon="102.332155">
<time>2015-08-06T00:54:21Z</time></trkpt>
<trkpt lat="29.877736" lon="102.332015">
<time>2015-08-06T00:54:22Z</time></trkpt>
<trkpt lat="29.877726" lon="102.331965">
<time>2015-08-06T00:54:23Z</time></trkpt>
<trkpt lat="29.877706" lon="102.331915">
<time>2015-08-06T00:54:24Z</time></trkpt>
<trkpt lat="29.877696" lon="102.331865">
<time>2015-08-06T00:54:25Z</time></trkpt>
<trkpt lat="29.877696" lon="102.331815">
<time>2015-08-06T00:54:26Z</time></trkpt>
<trkpt lat="29.877686" lon="102.331745">
<time>2015-08-06T00:54:27Z</time></trkpt>
<trkpt lat="29.877686" lon="102.331676">
<time>2015-08-06T00:54:28Z</time></trkpt>
<trkpt lat="29.877696" lon="102.331616">
<time>2015-08-06T00:54:29Z</time></trkpt>
<trkpt lat="29.877696" lon="102.331566">
<time>2015-08-06T00:54:30Z</time></trkpt>
<trkpt lat="29.877707" lon="102.331516">
<time>2015-08-06T00:54:31Z</time></trkpt>
<trkpt lat="29.877717" lon="102.331476">
<time>2015-08-06T00:54:32Z</time></trkpt>
<trkpt lat="29.877737" lon="102.331426">
<time>2015-08-06T00:54:33Z</time></trkpt>
<trkpt lat="29.877757" lon="102.331386">
<time>2015-08-06T00:54:34Z</time></trkpt>
<trkpt lat="29.877837" lon="102.331177">
<time>2015-08-06T00:54:35Z</time></trkpt>
<trkpt lat="29.877867" lon="102.331097">
<time>2015-08-06T00:54:36Z</time></trkpt>
<trkpt lat="29.877877" lon="102.331047">
<time>2015-08-06T00:54:37Z</time></trkpt>
<trkpt lat="29.877888" lon="102.330987">
<time>2015-08-06T00:54:38Z</time></trkpt>
<trkpt lat="29.877888" lon="102.330937">
<time>2015-08-06T00:54:39Z</time></trkpt>
<trkpt lat="29.877888" lon="102.330897">
<time>2015-08-06T00:54:40Z</time></trkpt>
<trkpt lat="29.877878" lon="102.330847">
<time>2015-08-06T00:54:41Z</time></trkpt>
<trkpt lat="29.877868" lon="102.330797">
<time>2015-08-06T00:54:42Z</time></trkpt>
<trkpt lat="29.877848" lon="102.330748">
<time>2015-08-06T00:54:43Z</time></trkpt>
<trkpt lat="29.877808" lon="102.330678">
<time>2015-08-06T00:54:44Z</time></trkpt>
<trkpt lat="29.877718" lon="102.330518">
<time>2015-08-06T00:54:45Z</time></trkpt>
<trkpt lat="29.877379" lon="102.330009">
<time>2015-08-06T00:54:46Z</time></trkpt>
<trkpt lat="29.8772" lon="102.32978">
<time>2015-08-06T00:54:47Z</time></trkpt>
<trkpt lat="29.87711" lon="102.32968">
<time>2015-08-06T00:54:48Z</time></trkpt>
<trkpt lat="29.87708" lon="102.32965">
<time>2015-08-06T00:54:49Z</time></trkpt>
<trkpt lat="29.87704" lon="102.32962">
<time>2015-08-06T00:54:50Z</time></trkpt>
<trkpt lat="29.87699" lon="102.3296">
<time>2015-08-06T00:54:51Z</time></trkpt>
<trkpt lat="29.87695" lon="102.32958">
<time>2015-08-06T00:54:52Z</time></trkpt>
<trkpt lat="29.87691" lon="102.32956">
<time>2015-08-06T00:54:53Z</time></trkpt>
<trkpt lat="29.87686" lon="102.32955">
<time>2015-08-06T00:54:54Z</time></trkpt>
<trkpt lat="29.87678" lon="102.32954">
<time>2015-08-06T00:54:55Z</time></trkpt>
<trkpt lat="29.87669" lon="102.32954">
<time>2015-08-06T00:54:56Z</time></trkpt>
<trkpt lat="29.87656" lon="102.32955">
<time>2015-08-06T00:54:57Z</time></trkpt>
<trkpt lat="29.87635" lon="102.32958">
<time>2015-08-06T00:54:58Z</time></trkpt>
<trkpt lat="29.87599" lon="102.32963">
<time>2015-08-06T00:54:59Z</time></trkpt>
<trkpt lat="29.87578" lon="102.32966">
<time>2015-08-06T00:55:00Z</time></trkpt>
<trkpt lat="29.87558" lon="102.32969">
<time>2015-08-06T00:55:01Z</time></trkpt>
<trkpt lat="29.87534" lon="102.32972">
<time>2015-08-06T00:55:02Z</time></trkpt>
<trkpt lat="29.87515" lon="102.32972">
<time>2015-08-06T00:55:03Z</time></trkpt>
<trkpt lat="29.8751" lon="102.32972">
<time>2015-08-06T00:55:04Z</time></trkpt>
<trkpt lat="29.87505" lon="102.32971">
<time>2015-08-06T00:55:05Z</time></trkpt>
<trkpt lat="29.875" lon="102.32969">
<time>2015-08-06T00:55:06Z</time></trkpt>
<trkpt lat="29.87497" lon="102.32967">
<time>2015-08-06T00:55:07Z</time></trkpt>
<trkpt lat="29.87493" lon="102.32964">
<time>2015-08-06T00:55:08Z</time></trkpt>
<trkpt lat="29.8749" lon="102.3296">
<time>2015-08-06T00:55:09Z</time></trkpt>
<trkpt lat="29.87487" lon="102.32956">
<time>2015-08-06T00:55:10Z</time></trkpt>
<trkpt lat="29.874851" lon="102.32951">
<time>2015-08-06T00:55:11Z</time></trkpt>
<trkpt lat="29.874831" lon="102.32947">
<time>2015-08-06T00:55:12Z</time></trkpt>
<trkpt lat="29.874821" lon="102.32941">
<time>2015-08-06T00:55:13Z</time></trkpt>
<trkpt lat="29.874811" lon="102.329361">
<time>2015-08-06T00:55:14Z</time></trkpt>
<trkpt lat="29.874811" lon="102.329301">
<time>2015-08-06T00:55:15Z</time></trkpt>
<trkpt lat="29.874821" lon="102.329241">
<time>2015-08-06T00:55:16Z</time></trkpt>
<trkpt lat="29.874831" lon="102.329181">
<time>2015-08-06T00:55:17Z</time></trkpt>
<trkpt lat="29.874851" lon="102.329121">
<time>2015-08-06T00:55:18Z</time></trkpt>
<trkpt lat="29.874891" lon="102.329021">
<time>2015-08-06T00:55:19Z</time></trkpt>
<trkpt lat="29.874952" lon="102.328862">
<time>2015-08-06T00:55:20Z</time></trkpt>
<trkpt lat="29.874962" lon="102.328762">
<time>2015-08-06T00:55:21Z</time></trkpt>
<trkpt lat="29.874972" lon="102.328692">
<time>2015-08-06T00:55:22Z</time></trkpt>
<trkpt lat="29.874962" lon="102.328632">
<time>2015-08-06T00:55:23Z</time></trkpt>
<trkpt lat="29.874962" lon="102.328582">
<time>2015-08-06T00:55:24Z</time></trkpt>
<trkpt lat="29.874942" lon="102.328522">
<time>2015-08-06T00:55:25Z</time></trkpt>
<trkpt lat="29.874923" lon="102.328462">
<time>2015-08-06T00:55:26Z</time></trkpt>
<trkpt lat="29.874893" lon="102.328403">
<time>2015-08-06T00:55:27Z</time></trkpt>
<trkpt lat="29.874853" lon="102.328353">
<time>2015-08-06T00:55:28Z</time></trkpt>
<trkpt lat="29.874813" lon="102.328303">
<time>2015-08-06T00:55:29Z</time></trkpt>
<trkpt lat="29.874753" lon="102.328253">
<time>2015-08-06T00:55:30Z</time></trkpt>
<trkpt lat="29.874673" lon="102.328213">
<time>2015-08-06T00:55:31Z</time></trkpt>
<trkpt lat="29.874593" lon="102.328173">
<time>2015-08-06T00:55:32Z</time></trkpt>
<trkpt lat="29.874513" lon="102.328153">
<time>2015-08-06T00:55:33Z</time></trkpt>
<trkpt lat="29.874413" lon="102.328123">
<time>2015-08-06T00:55:34Z</time></trkpt>
<trkpt lat="29.874323" lon="102.328083">
<time>2015-08-06T00:55:35Z</time></trkpt>
<trkpt lat="29.874243" lon="102.328043">
<time>2015-08-06T00:55:36Z</time></trkpt>
<trkpt lat="29.874183" lon="102.327993">
<time>2015-08-06T00:55:37Z</time></trkpt>
<trkpt lat="29.874134" lon="102.327944">
<time>2015-08-06T00:55:38Z</time></trkpt>
<trkpt lat="29.874074" lon="102.327854">
<time>2015-08-06T00:55:39Z</time></trkpt>
<trkpt lat="29.874034" lon="102.327754">
<time>2015-08-06T00:55:40Z</time></trkpt>
<trkpt lat="29.874014" lon="102.327684">
<time>2015-08-06T00:55:41Z</time></trkpt>
<trkpt lat="29.874004" lon="102.327614">
<time>2015-08-06T00:55:42Z</time></trkpt>
<trkpt lat="29.873994" lon="102.327524">
<time>2015-08-06T00:55:43Z</time></trkpt>
<trkpt lat="29.874004" lon="102.327455">
<time>2015-08-06T00:55:44Z</time></trkpt>
<trkpt lat="29.874035" lon="102.327355">
<time>2015-08-06T00:55:45Z</time></trkpt>
<trkpt lat="29.874055" lon="102.327305">
<time>2015-08-06T00:55:46Z</time></trkpt>
<trkpt lat="29.874085" lon="102.327235">
<time>2015-08-06T00:55:47Z</time></trkpt>
<trkpt lat="29.874125" lon="102.327175">
<time>2015-08-06T00:55:48Z</time></trkpt>
<trkpt lat="29.874155" lon="102.327115">
<time>2015-08-06T00:55:49Z</time></trkpt>
<trkpt lat="29.874325" lon="102.326926">
<time>2015-08-06T00:55:50Z</time></trkpt>
<trkpt lat="29.874416" lon="102.326806">
<time>2015-08-06T00:55:51Z</time></trkpt>
<trkpt lat="29.874456" lon="102.326716">
<time>2015-08-06T00:55:52Z</time></trkpt>
<trkpt lat="29.874486" lon="102.326666">
<time>2015-08-06T00:55:53Z</time></trkpt>
<trkpt lat="29.874506" lon="102.326616">
<time>2015-08-06T00:55:54Z</time></trkpt>
<trkpt lat="29.874516" lon="102.326546">
<time>2015-08-06T00:55:55Z</time></trkpt>
<trkpt lat="29.874536" lon="102.326467">
<time>2015-08-06T00:55:56Z</time></trkpt>
<trkpt lat="29.874537" lon="102.326387">
<time>2015-08-06T00:55:57Z</time></trkpt>
<trkpt lat="29.874547" lon="102.326197">
<time>2015-08-06T00:55:58Z</time></trkpt>
<trkpt lat="29.874518" lon="102.325499">
<time>2015-08-06T00:55:59Z</time></trkpt>
<trkpt lat="29.874508" lon="102.325369">
<time>2015-08-06T00:56:00Z</time></trkpt>
<trkpt lat="29.874489" lon="102.325259">
<time>2015-08-06T00:56:01Z</time></trkpt>
<trkpt lat="29.874459" lon="102.325119">
<time>2015-08-06T00:56:02Z</time></trkpt>
<trkpt lat="29.874419" lon="102.32502">
<time>2015-08-06T00:56:03Z</time></trkpt>
<trkpt lat="29.874379" lon="102.32494">
<time>2015-08-06T00:56:04Z</time></trkpt>
<trkpt lat="29.87432" lon="102.32483">
<time>2015-08-06T00:56:05Z</time></trkpt>
<trkpt lat="29.87424" lon="102.3247">
<time>2015-08-06T00:56:06Z</time></trkpt>
<trkpt lat="29.874" lon="102.324361">
<time>2015-08-06T00:56:07Z</time></trkpt>
<trkpt lat="29.873841" lon="102.324132">
<time>2015-08-06T00:56:08Z</time></trkpt>
<trkpt lat="29.873761" lon="102.324032">
<time>2015-08-06T00:56:09Z</time></trkpt>
<trkpt lat="29.873711" lon="102.323972">
<time>2015-08-06T00:56:10Z</time></trkpt>
<trkpt lat="29.873641" lon="102.323902">
<time>2015-08-06T00:56:11Z</time></trkpt>
<trkpt lat="29.873611" lon="102.323862">
<time>2015-08-06T00:56:12Z</time></trkpt>
<trkpt lat="29.873561" lon="102.323822">
<time>2015-08-06T00:56:13Z</time></trkpt>
<trkpt lat="29.873462" lon="102.323742">
<time>2015-08-06T00:56:14Z</time></trkpt>
<trkpt lat="29.873402" lon="102.323712">
<time>2015-08-06T00:56:15Z</time></trkpt>
<trkpt lat="29.873292" lon="102.323643">
<time>2015-08-06T00:56:16Z</time></trkpt>
<trkpt lat="29.873122" lon="102.323563">
<time>2015-08-06T00:56:17Z</time></trkpt>
<trkpt lat="29.872882" lon="102.323443">
<time>2015-08-06T00:56:18Z</time></trkpt>
<trkpt lat="29.872752" lon="102.323363">
<time>2015-08-06T00:56:19Z</time></trkpt>
<trkpt lat="29.872682" lon="102.323313">
<time>2015-08-06T00:56:20Z</time></trkpt>
<trkpt lat="29.872573" lon="102.323233">
<time>2015-08-06T00:56:21Z</time></trkpt>
<trkpt lat="29.872453" lon="102.323134">
<time>2015-08-06T00:56:22Z</time></trkpt>
<trkpt lat="29.872353" lon="102.323034">
<time>2015-08-06T00:56:23Z</time></trkpt>
<trkpt lat="29.872243" lon="102.322894">
<time>2015-08-06T00:56:24Z</time></trkpt>
<trkpt lat="29.872154" lon="102.322784">
<time>2015-08-06T00:56:25Z</time></trkpt>
<trkpt lat="29.872084" lon="102.322645">
<time>2015-08-06T00:56:26Z</time></trkpt>
<trkpt lat="29.872034" lon="102.322555">
<time>2015-08-06T00:56:27Z</time></trkpt>
<trkpt lat="29.872004" lon="102.322475">
<time>2015-08-06T00:56:28Z</time></trkpt>
<trkpt lat="29.871915" lon="102.322256">
<time>2015-08-06T00:56:29Z</time></trkpt>
<trkpt lat="29.871795" lon="102.321996">
<time>2015-08-06T00:56:30Z</time></trkpt>
<trkpt lat="29.871715" lon="102.321856">
<time>2015-08-06T00:56:31Z</time></trkpt>
<trkpt lat="29.871646" lon="102.321747">
<time>2015-08-06T00:56:32Z</time></trkpt>
<trkpt lat="29.871586" lon="102.321677">
<time>2015-08-06T00:56:33Z</time></trkpt>
<trkpt lat="29.871496" lon="102.321577">
<time>2015-08-06T00:56:34Z</time></trkpt>
<trkpt lat="29.871346" lon="102.321427">
<time>2015-08-06T00:56:35Z</time></trkpt>
<trkpt lat="29.871147" lon="102.321238">
<time>2015-08-06T00:56:36Z</time></trkpt>
<trkpt lat="29.871027" lon="102.321138">
<time>2015-08-06T00:56:37Z</time></trkpt>
<trkpt lat="29.870957" lon="102.321058">
<time>2015-08-06T00:56:38Z</time></trkpt>
<trkpt lat="29.870897" lon="102.320968">
<time>2015-08-06T00:56:39Z</time></trkpt>
<trkpt lat="29.870847" lon="102.320878">
<time>2015-08-06T00:56:40Z</time></trkpt>
<trkpt lat="29.870797" lon="102.320749">
<time>2015-08-06T00:56:41Z</time></trkpt>
<trkpt lat="29.870758" lon="102.320629">
<time>2015-08-06T00:56:42Z</time></trkpt>
<trkpt lat="29.870718" lon="102.320509">
<time>2015-08-06T00:56:43Z</time></trkpt>
<trkpt lat="29.870688" lon="102.32038">
<time>2015-08-06T00:56:44Z</time></trkpt>
<trkpt lat="29.870559" lon="102.319791">
<time>2015-08-06T00:56:45Z</time></trkpt>
<trkpt lat="29.87052" lon="102.319621">
<time>2015-08-06T00:56:46Z</time></trkpt>
<trkpt lat="29.87049" lon="102.319521">
<time>2015-08-06T00:56:47Z</time></trkpt>
<trkpt lat="29.87045" lon="102.319431">
<time>2015-08-06T00:56:48Z</time></trkpt>
<trkpt lat="29.87042" lon="102.319362">
<time>2015-08-06T00:56:49Z</time></trkpt>
<trkpt lat="29.87038" lon="102.319302">
<time>2015-08-06T00:56:50Z</time></trkpt>
<trkpt lat="29.87032" lon="102.319232">
<time>2015-08-06T00:56:51Z</time></trkpt>
<trkpt lat="29.87027" lon="102.319182">
<time>2015-08-06T00:56:52Z</time></trkpt>
<trkpt lat="29.870191" lon="102.319112">
<time>2015-08-06T00:56:53Z</time></trkpt>
<trkpt lat="29.870121" lon="102.319062">
<time>2015-08-06T00:56:54Z</time></trkpt>
<trkpt lat="29.870001" lon="102.318982">
<time>2015-08-06T00:56:55Z</time></trkpt>
<trkpt lat="29.869471" lon="102.318683">
<time>2015-08-06T00:56:56Z</time></trkpt>
<trkpt lat="29.869162" lon="102.318533">
<time>2015-08-06T00:56:57Z</time></trkpt>
<trkpt lat="29.868942" lon="102.318444">
<time>2015-08-06T00:56:58Z</time></trkpt>
<trkpt lat="29.868782" lon="102.318414">
<time>2015-08-06T00:56:59Z</time></trkpt>
<trkpt lat="29.868622" lon="102.318394">
<time>2015-08-06T00:57:00Z</time></trkpt>
<trkpt lat="29.868432" lon="102.318394">
<time>2015-08-06T00:57:01Z</time></trkpt>
<trkpt lat="29.868012" lon="102.318384">
<time>2015-08-06T00:57:02Z</time></trkpt>
<trkpt lat="29.867882" lon="102.318364">
<time>2015-08-06T00:57:03Z</time></trkpt>
<trkpt lat="29.867832" lon="102.318354">
<time>2015-08-06T00:57:04Z</time></trkpt>
<trkpt lat="29.867782" lon="102.318344">
<time>2015-08-06T00:57:05Z</time></trkpt>
<trkpt lat="29.867702" lon="102.318304">
<time>2015-08-06T00:57:06Z</time></trkpt>
<trkpt lat="29.867642" lon="102.318284">
<time>2015-08-06T00:57:07Z</time></trkpt>
<trkpt lat="29.867582" lon="102.318254">
<time>2015-08-06T00:57:08Z</time></trkpt>
<trkpt lat="29.867492" lon="102.318204">
<time>2015-08-06T00:57:09Z</time></trkpt>
<trkpt lat="29.867423" lon="102.318164">
<time>2015-08-06T00:57:10Z</time></trkpt>
<trkpt lat="29.867353" lon="102.318124">
<time>2015-08-06T00:57:11Z</time></trkpt>
<trkpt lat="29.867293" lon="102.318094">
<time>2015-08-06T00:57:12Z</time></trkpt>
<trkpt lat="29.867163" lon="102.318005">
<time>2015-08-06T00:57:13Z</time></trkpt>
<trkpt lat="29.866943" lon="102.317855">
<time>2015-08-06T00:57:14Z</time></trkpt>
<trkpt lat="29.866773" lon="102.317745">
<time>2015-08-06T00:57:15Z</time></trkpt>
<trkpt lat="29.866534" lon="102.317585">
<time>2015-08-06T00:57:16Z</time></trkpt>
<trkpt lat="29.866364" lon="102.317456">
<time>2015-08-06T00:57:17Z</time></trkpt>
<trkpt lat="29.866224" lon="102.317346">
<time>2015-08-06T00:57:18Z</time></trkpt>
<trkpt lat="29.866004" lon="102.317156">
<time>2015-08-06T00:57:19Z</time></trkpt>
<trkpt lat="29.865715" lon="102.316897">
<time>2015-08-06T00:57:20Z</time></trkpt>
<trkpt lat="29.865216" lon="102.316448">
<time>2015-08-06T00:57:21Z</time></trkpt>
<trkpt lat="29.864966" lon="102.316258">
<time>2015-08-06T00:57:22Z</time></trkpt>
<trkpt lat="29.864886" lon="102.316208">
<time>2015-08-06T00:57:23Z</time></trkpt>
<trkpt lat="29.864816" lon="102.316168">
<time>2015-08-06T00:57:24Z</time></trkpt>
<trkpt lat="29.864647" lon="102.316109">
<time>2015-08-06T00:57:25Z</time></trkpt>
<trkpt lat="29.864587" lon="102.316089">
<time>2015-08-06T00:57:26Z</time></trkpt>
<trkpt lat="29.864507" lon="102.316079">
<time>2015-08-06T00:57:27Z</time></trkpt>
<trkpt lat="29.864427" lon="102.316069">
<time>2015-08-06T00:57:28Z</time></trkpt>
<trkpt lat="29.864347" lon="102.316069">
<time>2015-08-06T00:57:29Z</time></trkpt>
<trkpt lat="29.863917" lon="102.316109">
<time>2015-08-06T00:57:30Z</time></trkpt>
<trkpt lat="29.863547" lon="102.316139">
<time>2015-08-06T00:57:31Z</time></trkpt>
<trkpt lat="29.863447" lon="102.316139">
<time>2015-08-06T00:57:32Z</time></trkpt>
<trkpt lat="29.863367" lon="102.316129">
<time>2015-08-06T00:57:33Z</time></trkpt>
<trkpt lat="29.863317" lon="102.316119">
<time>2015-08-06T00:57:34Z</time></trkpt>
<trkpt lat="29.863257" lon="102.316099">
<time>2015-08-06T00:57:35Z</time></trkpt>
<trkpt lat="29.863197" lon="102.316079">
<time>2015-08-06T00:57:36Z</time></trkpt>
<trkpt lat="29.863137" lon="102.316039">
<time>2015-08-06T00:57:37Z</time></trkpt>
<trkpt lat="29.863057" lon="102.315969">
<time>2015-08-06T00:57:38Z</time></trkpt>
<trkpt lat="29.863017" lon="102.315919">
<time>2015-08-06T00:57:39Z</time></trkpt>
<trkpt lat="29.862967" lon="102.315839">
<time>2015-08-06T00:57:40Z</time></trkpt>
<trkpt lat="29.862887" lon="102.315709">
<time>2015-08-06T00:57:41Z</time></trkpt>
<trkpt lat="29.862668" lon="102.3153">
<time>2015-08-06T00:57:42Z</time></trkpt>
<trkpt lat="29.862628" lon="102.31524">
<time>2015-08-06T00:57:43Z</time></trkpt>
<trkpt lat="29.862568" lon="102.315171">
<time>2015-08-06T00:57:44Z</time></trkpt>
<trkpt lat="29.862528" lon="102.315131">
<time>2015-08-06T00:57:45Z</time></trkpt>
<trkpt lat="29.862479" lon="102.315091">
<time>2015-08-06T00:57:46Z</time></trkpt>
<trkpt lat="29.862429" lon="102.315071">
<time>2015-08-06T00:57:47Z</time></trkpt>
<trkpt lat="29.862389" lon="102.315051">
<time>2015-08-06T00:57:48Z</time></trkpt>
<trkpt lat="29.862349" lon="102.315031">
<time>2015-08-06T00:57:49Z</time></trkpt>
<trkpt lat="29.862289" lon="102.315021">
<time>2015-08-06T00:57:50Z</time></trkpt>
<trkpt lat="29.861959" lon="102.314961">
<time>2015-08-06T00:57:51Z</time></trkpt>
<trkpt lat="29.861829" lon="102.314921">
<time>2015-08-06T00:57:52Z</time></trkpt>
<trkpt lat="29.861709" lon="102.314881">
<time>2015-08-06T00:57:53Z</time></trkpt>
<trkpt lat="29.861639" lon="102.314841">
<time>2015-08-06T00:57:54Z</time></trkpt>
<trkpt lat="29.861549" lon="102.314791">
<time>2015-08-06T00:57:55Z</time></trkpt>
<trkpt lat="29.861499" lon="102.314751">
<time>2015-08-06T00:57:56Z</time></trkpt>
<trkpt lat="29.861399" lon="102.314682">
<time>2015-08-06T00:57:57Z</time></trkpt>
<trkpt lat="29.86124" lon="102.314542">
<time>2015-08-06T00:57:58Z</time></trkpt>
<trkpt lat="29.86103" lon="102.314362">
<time>2015-08-06T00:57:59Z</time></trkpt>
<trkpt lat="29.86095" lon="102.314282">
<time>2015-08-06T00:58:00Z</time></trkpt>
<trkpt lat="29.8609" lon="102.314242">
<time>2015-08-06T00:58:01Z</time></trkpt>
<trkpt lat="29.86086" lon="102.314203">
<time>2015-08-06T00:58:02Z</time></trkpt>
<trkpt lat="29.86084" lon="102.314153">
<time>2015-08-06T00:58:03Z</time></trkpt>
<trkpt lat="29.86082" lon="102.314123">
<time>2015-08-06T00:58:04Z</time></trkpt>
<trkpt lat="29.86081" lon="102.314093">
<time>2015-08-06T00:58:05Z</time></trkpt>
<trkpt lat="29.860791" lon="102.314043">
<time>2015-08-06T00:58:06Z</time></trkpt>
<trkpt lat="29.860791" lon="102.314003">
<time>2015-08-06T00:58:07Z</time></trkpt>
<trkpt lat="29.860791" lon="102.313953">
<time>2015-08-06T00:58:08Z</time></trkpt>
<trkpt lat="29.860791" lon="102.313903">
<time>2015-08-06T00:58:09Z</time></trkpt>
<trkpt lat="29.860811" lon="102.313843">
<time>2015-08-06T00:58:10Z</time></trkpt>
<trkpt lat="29.860831" lon="102.313793">
<time>2015-08-06T00:58:11Z</time></trkpt>
<trkpt lat="29.860861" lon="102.313753">
<time>2015-08-06T00:58:12Z</time></trkpt>
<trkpt lat="29.860891" lon="102.313714">
<time>2015-08-06T00:58:13Z</time></trkpt>
<trkpt lat="29.860921" lon="102.313684">
<time>2015-08-06T00:58:14Z</time></trkpt>
<trkpt lat="29.860961" lon="102.313664">
<time>2015-08-06T00:58:15Z</time></trkpt>
<trkpt lat="29.860981" lon="102.313654">
<time>2015-08-06T00:58:16Z</time></trkpt>
<trkpt lat="29.861021" lon="102.313644">
<time>2015-08-06T00:58:17Z</time></trkpt>
<trkpt lat="29.861051" lon="102.313634">
<time>2015-08-06T00:58:18Z</time></trkpt>
<trkpt lat="29.861081" lon="102.313634">
<time>2015-08-06T00:58:19Z</time></trkpt>
<trkpt lat="29.861201" lon="102.313634">
<time>2015-08-06T00:58:20Z</time></trkpt>
<trkpt lat="29.861301" lon="102.313644">
<time>2015-08-06T00:58:21Z</time></trkpt>
<trkpt lat="29.861681" lon="102.313684">
<time>2015-08-06T00:58:22Z</time></trkpt>
<trkpt lat="29.861941" lon="102.313713">
<time>2015-08-06T00:58:23Z</time></trkpt>
<trkpt lat="29.862221" lon="102.313763">
<time>2015-08-06T00:58:24Z</time></trkpt>
<trkpt lat="29.862351" lon="102.313793">
<time>2015-08-06T00:58:25Z</time></trkpt>
<trkpt lat="29.862491" lon="102.313843">
<time>2015-08-06T00:58:26Z</time></trkpt>
<trkpt lat="29.862771" lon="102.313963">
<time>2015-08-06T00:58:27Z</time></trkpt>
<trkpt lat="29.86321" lon="102.314163">
<time>2015-08-06T00:58:28Z</time></trkpt>
<trkpt lat="29.86338" lon="102.314232">
<time>2015-08-06T00:58:29Z</time></trkpt>
<trkpt lat="29.86343" lon="102.314242">
<time>2015-08-06T00:58:30Z</time></trkpt>
<trkpt lat="29.86347" lon="102.314242">
<time>2015-08-06T00:58:31Z</time></trkpt>
<trkpt lat="29.86351" lon="102.314232">
<time>2015-08-06T00:58:32Z</time></trkpt>
<trkpt lat="29.86354" lon="102.314222">
<time>2015-08-06T00:58:33Z</time></trkpt>
<trkpt lat="29.86357" lon="102.314212">
<time>2015-08-06T00:58:34Z</time></trkpt>
<trkpt lat="29.86359" lon="102.314202">
<time>2015-08-06T00:58:35Z</time></trkpt>
<trkpt lat="29.86366" lon="102.314143">
<time>2015-08-06T00:58:36Z</time></trkpt>
<trkpt lat="29.86365" lon="102.314043">
<time>2015-08-06T00:58:37Z</time></trkpt>
<trkpt lat="29.86365" lon="102.314013">
<time>2015-08-06T00:58:38Z</time></trkpt>
<trkpt lat="29.863641" lon="102.313993">
<time>2015-08-06T00:58:39Z</time></trkpt>
<trkpt lat="29.863631" lon="102.313963">
<time>2015-08-06T00:58:40Z</time></trkpt>
<trkpt lat="29.863611" lon="102.313933">
<time>2015-08-06T00:58:41Z</time></trkpt>
<trkpt lat="29.863591" lon="102.313913">
<time>2015-08-06T00:58:42Z</time></trkpt>
<trkpt lat="29.863581" lon="102.313903">
<time>2015-08-06T00:58:43Z</time></trkpt>
<trkpt lat="29.863541" lon="102.313873">
<time>2015-08-06T00:58:44Z</time></trkpt>
<trkpt lat="29.863501" lon="102.313853">
<time>2015-08-06T00:58:45Z</time></trkpt>
<trkpt lat="29.863401" lon="102.313823">
<time>2015-08-06T00:58:46Z</time></trkpt>
<trkpt lat="29.863191" lon="102.313773">
<time>2015-08-06T00:58:47Z</time></trkpt>
<trkpt lat="29.862981" lon="102.313723">
<time>2015-08-06T00:58:48Z</time></trkpt>
<trkpt lat="29.862761" lon="102.313654">
<time>2015-08-06T00:58:49Z</time></trkpt>
<trkpt lat="29.862671" lon="102.313614">
<time>2015-08-06T00:58:50Z</time></trkpt>
<trkpt lat="29.862581" lon="102.313574">
<time>2015-08-06T00:58:51Z</time></trkpt>
<trkpt lat="29.862342" lon="102.313424">
<time>2015-08-06T00:58:52Z</time></trkpt>
<trkpt lat="29.862192" lon="102.313354">
<time>2015-08-06T00:58:53Z</time></trkpt>
<trkpt lat="29.862102" lon="102.313314">
<time>2015-08-06T00:58:54Z</time></trkpt>
<trkpt lat="29.862002" lon="102.313284">
<time>2015-08-06T00:58:55Z</time></trkpt>
<trkpt lat="29.861912" lon="102.313254">
<time>2015-08-06T00:58:56Z</time></trkpt>
<trkpt lat="29.861822" lon="102.313234">
<time>2015-08-06T00:58:57Z</time></trkpt>
<trkpt lat="29.861292" lon="102.313175">
<time>2015-08-06T00:58:58Z</time></trkpt>
<trkpt lat="29.860362" lon="102.313095">
<time>2015-08-06T00:58:59Z</time></trkpt>
<trkpt lat="29.860172" lon="102.313065">
<time>2015-08-06T00:59:00Z</time></trkpt>
<trkpt lat="29.860122" lon="102.313045">
<time>2015-08-06T00:59:01Z</time></trkpt>
<trkpt lat="29.860063" lon="102.313025">
<time>2015-08-06T00:59:02Z</time></trkpt>
<trkpt lat="29.859953" lon="102.312965">
<time>2015-08-06T00:59:03Z</time></trkpt>
<trkpt lat="29.859863" lon="102.312905">
<time>2015-08-06T00:59:04Z</time></trkpt>
<trkpt lat="29.859104" lon="102.312306">
<time>2015-08-06T00:59:05Z</time></trkpt>
<trkpt lat="29.858794" lon="102.312077">
<time>2015-08-06T00:59:06Z</time></trkpt>
<trkpt lat="29.858674" lon="102.312007">
<time>2015-08-06T00:59:07Z</time></trkpt>
<trkpt lat="29.858624" lon="102.311987">
<time>2015-08-06T00:59:08Z</time></trkpt>
<trkpt lat="29.858575" lon="102.311967">
<time>2015-08-06T00:59:09Z</time></trkpt>
<trkpt lat="29.858525" lon="102.311957">
<time>2015-08-06T00:59:10Z</time></trkpt>
<trkpt lat="29.858475" lon="102.311957">
<time>2015-08-06T00:59:11Z</time></trkpt>
<trkpt lat="29.858425" lon="102.311967">
<time>2015-08-06T00:59:12Z</time></trkpt>
<trkpt lat="29.858375" lon="102.311987">
<time>2015-08-06T00:59:13Z</time></trkpt>
<trkpt lat="29.858334" lon="102.311997">
<time>2015-08-06T00:59:14Z</time></trkpt>
<trkpt lat="29.858264" lon="102.312037">
<time>2015-08-06T00:59:15Z</time></trkpt>
<trkpt lat="29.858234" lon="102.312067">
<time>2015-08-06T00:59:16Z</time></trkpt>
<trkpt lat="29.858194" lon="102.312107">
<time>2015-08-06T00:59:17Z</time></trkpt>
<trkpt lat="29.858154" lon="102.312157">
<time>2015-08-06T00:59:18Z</time></trkpt>
<trkpt lat="29.858114" lon="102.312217">
<time>2015-08-06T00:59:19Z</time></trkpt>
<trkpt lat="29.858084" lon="102.312306">
<time>2015-08-06T00:59:20Z</time></trkpt>
<trkpt lat="29.858074" lon="102.312366">
<time>2015-08-06T00:59:21Z</time></trkpt>
<trkpt lat="29.858064" lon="102.312436">
<time>2015-08-06T00:59:22Z</time></trkpt>
<trkpt lat="29.858064" lon="102.312506">
<time>2015-08-06T00:59:23Z</time></trkpt>
<trkpt lat="29.858073" lon="102.312576">
<time>2015-08-06T00:59:24Z</time></trkpt>
<trkpt lat="29.858093" lon="102.312656">
<time>2015-08-06T00:59:25Z</time></trkpt>
<trkpt lat="29.858113" lon="102.312746">
<time>2015-08-06T00:59:26Z</time></trkpt>
<trkpt lat="29.858272" lon="102.313225">
<time>2015-08-06T00:59:27Z</time></trkpt>
<trkpt lat="29.85859" lon="102.314153">
<time>2015-08-06T00:59:28Z</time></trkpt>
<trkpt lat="29.85865" lon="102.314282">
<time>2015-08-06T00:59:29Z</time></trkpt>
<trkpt lat="29.85871" lon="102.314402">
<time>2015-08-06T00:59:30Z</time></trkpt>
<trkpt lat="29.85878" lon="102.314492">
<time>2015-08-06T00:59:31Z</time></trkpt>
<trkpt lat="29.85883" lon="102.314572">
<time>2015-08-06T00:59:32Z</time></trkpt>
<trkpt lat="29.85891" lon="102.314652">
<time>2015-08-06T00:59:33Z</time></trkpt>
<trkpt lat="29.859009" lon="102.314741">
<time>2015-08-06T00:59:34Z</time></trkpt>
<trkpt lat="29.859209" lon="102.314881">
<time>2015-08-06T00:59:35Z</time></trkpt>
<trkpt lat="29.859399" lon="102.314971">
<time>2015-08-06T00:59:36Z</time></trkpt>
<trkpt lat="29.859499" lon="102.315011">
<time>2015-08-06T00:59:37Z</time></trkpt>
<trkpt lat="29.859629" lon="102.315041">
<time>2015-08-06T00:59:38Z</time></trkpt>
<trkpt lat="29.859779" lon="102.315071">
<time>2015-08-06T00:59:39Z</time></trkpt>
<trkpt lat="29.859929" lon="102.315101">
<time>2015-08-06T00:59:40Z</time></trkpt>
<trkpt lat="29.860388" lon="102.315181">
<time>2015-08-06T00:59:41Z</time></trkpt>
<trkpt lat="29.860498" lon="102.31521">
<time>2015-08-06T00:59:42Z</time></trkpt>
<trkpt lat="29.860548" lon="102.31523">
<time>2015-08-06T00:59:43Z</time></trkpt>
<trkpt lat="29.860568" lon="102.31524">
<time>2015-08-06T00:59:44Z</time></trkpt>
<trkpt lat="29.860598" lon="102.31526">
<time>2015-08-06T00:59:45Z</time></trkpt>
<trkpt lat="29.860618" lon="102.31528">
<time>2015-08-06T00:59:46Z</time></trkpt>
<trkpt lat="29.860628" lon="102.31531">
<time>2015-08-06T00:59:47Z</time></trkpt>
<trkpt lat="29.860648" lon="102.31534">
<time>2015-08-06T00:59:48Z</time></trkpt>
<trkpt lat="29.860658" lon="102.31537">
<time>2015-08-06T00:59:49Z</time></trkpt>
<trkpt lat="29.860658" lon="102.31541">
<time>2015-08-06T00:59:50Z</time></trkpt>
<trkpt lat="29.860658" lon="102.31545">
<time>2015-08-06T00:59:51Z</time></trkpt>
<trkpt lat="29.860658" lon="102.31547">
<time>2015-08-06T00:59:52Z</time></trkpt>
<trkpt lat="29.860648" lon="102.3155">
<time>2015-08-06T00:59:53Z</time></trkpt>
<trkpt lat="29.860638" lon="102.31552">
<time>2015-08-06T00:59:54Z</time></trkpt>
<trkpt lat="29.860628" lon="102.31554">
<time>2015-08-06T00:59:55Z</time></trkpt>
<trkpt lat="29.860608" lon="102.31555">
<time>2015-08-06T00:59:56Z</time></trkpt>
<trkpt lat="29.860588" lon="102.31556">
<time>2015-08-06T00:59:57Z</time></trkpt>
<trkpt lat="29.860568" lon="102.31558">
<time>2015-08-06T00:59:58Z</time></trkpt>
<trkpt lat="29.860528" lon="102.31559">
<time>2015-08-06T00:59:59Z</time></trkpt>
<trkpt lat="29.860488" lon="102.31559">
<time>2015-08-06T01:00:00Z</time></trkpt>
<trkpt lat="29.860368" lon="102.31557">
<time>2015-08-06T01:00:01Z</time></trkpt>
<trkpt lat="29.860278" lon="102.31555">
<time>2015-08-06T01:00:02Z</time></trkpt>
<trkpt lat="29.859638" lon="102.3154">
<time>2015-08-06T01:00:03Z</time></trkpt>
<trkpt lat="29.859158" lon="102.31528">
<time>2015-08-06T01:00:04Z</time></trkpt>
<trkpt lat="29.858939" lon="102.315201">
<time>2015-08-06T01:00:05Z</time></trkpt>
<trkpt lat="29.858819" lon="102.315151">
<time>2015-08-06T01:00:06Z</time></trkpt>
<trkpt lat="29.858689" lon="102.315081">
<time>2015-08-06T01:00:07Z</time></trkpt>
<trkpt lat="29.858579" lon="102.315001">
<time>2015-08-06T01:00:08Z</time></trkpt>
<trkpt lat="29.858499" lon="102.314931">
<time>2015-08-06T01:00:09Z</time></trkpt>
<trkpt lat="29.858399" lon="102.314841">
<time>2015-08-06T01:00:10Z</time></trkpt>
<trkpt lat="29.858309" lon="102.314732">
<time>2015-08-06T01:00:11Z</time></trkpt>
<trkpt lat="29.85821" lon="102.314592">
<time>2015-08-06T01:00:12Z</time></trkpt>
<trkpt lat="29.85808" lon="102.314322">
<time>2015-08-06T01:00:13Z</time></trkpt>
<trkpt lat="29.857871" lon="102.313764">
<time>2015-08-06T01:00:14Z</time></trkpt>
<trkpt lat="29.857692" lon="102.313275">
<time>2015-08-06T01:00:15Z</time></trkpt>
<trkpt lat="29.857642" lon="102.313175">
<time>2015-08-06T01:00:16Z</time></trkpt>
<trkpt lat="29.857593" lon="102.313085">
<time>2015-08-06T01:00:17Z</time></trkpt>
<trkpt lat="29.857513" lon="102.312975">
<time>2015-08-06T01:00:18Z</time></trkpt>
<trkpt lat="29.857443" lon="102.312895">
<time>2015-08-06T01:00:19Z</time></trkpt>
<trkpt lat="29.857373" lon="102.312825">
<time>2015-08-06T01:00:20Z</time></trkpt>
<trkpt lat="29.857263" lon="102.312746">
<time>2015-08-06T01:00:21Z</time></trkpt>
<trkpt lat="29.857143" lon="102.312676">
<time>2015-08-06T01:00:22Z</time></trkpt>
<trkpt lat="29.856474" lon="102.312287">
<time>2015-08-06T01:00:23Z</time></trkpt>
<trkpt lat="29.855975" lon="102.311997">
<time>2015-08-06T01:00:24Z</time></trkpt>
<trkpt lat="29.855585" lon="102.311768">
<time>2015-08-06T01:00:25Z</time></trkpt>
<trkpt lat="29.855455" lon="102.311678">
<time>2015-08-06T01:00:26Z</time></trkpt>
<trkpt lat="29.855355" lon="102.311588">
<time>2015-08-06T01:00:27Z</time></trkpt>
<trkpt lat="29.855286" lon="102.311508">
<time>2015-08-06T01:00:28Z</time></trkpt>
<trkpt lat="29.855216" lon="102.311438">
<time>2015-08-06T01:00:29Z</time></trkpt>
<trkpt lat="29.855176" lon="102.311358">
<time>2015-08-06T01:00:30Z</time></trkpt>
<trkpt lat="29.855126" lon="102.311279">
<time>2015-08-06T01:00:31Z</time></trkpt>
<trkpt lat="29.855076" lon="102.311159">
<time>2015-08-06T01:00:32Z</time></trkpt>
<trkpt lat="29.855036" lon="102.311049">
<time>2015-08-06T01:00:33Z</time></trkpt>
<trkpt lat="29.854987" lon="102.310859">
<time>2015-08-06T01:00:34Z</time></trkpt>
<trkpt lat="29.854967" lon="102.31076">
<time>2015-08-06T01:00:35Z</time></trkpt>
<trkpt lat="29.854739" lon="102.309702">
<time>2015-08-06T01:00:36Z</time></trkpt>
<trkpt lat="29.854739" lon="102.309702">
<time>2015-08-06T01:00:37Z</time></trkpt>
<trkpt lat="29.854709" lon="102.309612">
<time>2015-08-06T01:00:38Z</time></trkpt>
<trkpt lat="29.854669" lon="102.309412">
<time>2015-08-06T01:00:39Z</time></trkpt>
<trkpt lat="29.85453" lon="102.308823">
<time>2015-08-06T01:00:40Z</time></trkpt>
<trkpt lat="29.853796" lon="102.305659">
<time>2015-08-06T01:00:41Z</time></trkpt>
<trkpt lat="29.852664" lon="102.300948">
<time>2015-08-06T01:00:42Z</time></trkpt>
<trkpt lat="29.851422" lon="102.295877">
<time>2015-08-06T01:00:43Z</time></trkpt>
<trkpt lat="29.8503" lon="102.291194">
<time>2015-08-06T01:00:44Z</time></trkpt>
<trkpt lat="29.849962" lon="102.289757">
<time>2015-08-06T01:00:45Z</time></trkpt>
<trkpt lat="29.849385" lon="102.28726">
<time>2015-08-06T01:00:46Z</time></trkpt>
<trkpt lat="29.848401" lon="102.283006">
<time>2015-08-06T01:00:47Z</time></trkpt>
<trkpt lat="29.847476" lon="102.278901">
<time>2015-08-06T01:00:48Z</time></trkpt>
<trkpt lat="29.846749" lon="102.275614">
<time>2015-08-06T01:00:49Z</time></trkpt>
<trkpt lat="29.846082" lon="102.272487">
<time>2015-08-06T01:00:50Z</time></trkpt>
<trkpt lat="29.845534" lon="102.269779">
<time>2015-08-06T01:00:51Z</time></trkpt>
<trkpt lat="29.845295" lon="102.26854">
<time>2015-08-06T01:00:52Z</time></trkpt>
<trkpt lat="29.845186" lon="102.268091">
<time>2015-08-06T01:00:53Z</time></trkpt>
<trkpt lat="29.845156" lon="102.267941">
<time>2015-08-06T01:00:54Z</time></trkpt>
<trkpt lat="29.845086" lon="102.267571">
<time>2015-08-06T01:00:55Z</time></trkpt>
<trkpt lat="29.844897" lon="102.266841">
<time>2015-08-06T01:00:56Z</time></trkpt>
<trkpt lat="29.844757" lon="102.266222">
<time>2015-08-06T01:00:57Z</time></trkpt>
<trkpt lat="29.844657" lon="102.265762">
<time>2015-08-06T01:00:58Z</time></trkpt>
<trkpt lat="29.844627" lon="102.265592">
<time>2015-08-06T01:00:59Z</time></trkpt>
<trkpt lat="29.844428" lon="102.264713">
<time>2015-08-06T01:01:00Z</time></trkpt>
<trkpt lat="29.844438" lon="102.264663">
<time>2015-08-06T01:01:01Z</time></trkpt>
<trkpt lat="29.844219" lon="102.263683">
<time>2015-08-06T01:01:02Z</time></trkpt>
<trkpt lat="29.844149" lon="102.263403">
<time>2015-08-06T01:01:03Z</time></trkpt>
<trkpt lat="29.844129" lon="102.263313">
<time>2015-08-06T01:01:04Z</time></trkpt>
<trkpt lat="29.844129" lon="102.263313">
<time>2015-08-06T01:01:05Z</time></trkpt>
<trkpt lat="29.844139" lon="102.263273">
<time>2015-08-06T01:01:06Z</time></trkpt>
<trkpt lat="29.844119" lon="102.263203">
<time>2015-08-06T01:01:07Z</time></trkpt>
<trkpt lat="29.844099" lon="102.263134">
<time>2015-08-06T01:01:08Z</time></trkpt>
<trkpt lat="29.844079" lon="102.263104">
<time>2015-08-06T01:01:09Z</time></trkpt>
<trkpt lat="29.843959" lon="102.262584">
<time>2015-08-06T01:01:10Z</time></trkpt>
<trkpt lat="29.843869" lon="102.262264">
<time>2015-08-06T01:01:11Z</time></trkpt>
<trkpt lat="29.84378" lon="102.262014">
<time>2015-08-06T01:01:12Z</time></trkpt>
<trkpt lat="29.84367" lon="102.261744">
<time>2015-08-06T01:01:13Z</time></trkpt>
<trkpt lat="29.84361" lon="102.261544">
<time>2015-08-06T01:01:14Z</time></trkpt>
<trkpt lat="29.8436" lon="102.261434">
<time>2015-08-06T01:01:15Z</time></trkpt>
<trkpt lat="29.8436" lon="102.261324">
<time>2015-08-06T01:01:16Z</time></trkpt>
<trkpt lat="29.84362" lon="102.261224">
<time>2015-08-06T01:01:17Z</time></trkpt>
<trkpt lat="29.84366" lon="102.261144">
<time>2015-08-06T01:01:18Z</time></trkpt>
<trkpt lat="29.84366" lon="102.261124">
<time>2015-08-06T01:01:19Z</time></trkpt>
<trkpt lat="29.84371" lon="102.261064">
<time>2015-08-06T01:01:20Z</time></trkpt>
<trkpt lat="29.84379" lon="102.260964">
<time>2015-08-06T01:01:21Z</time></trkpt>
<trkpt lat="29.84386" lon="102.260904">
<time>2015-08-06T01:01:22Z</time></trkpt>
<trkpt lat="29.844" lon="102.260815">
<time>2015-08-06T01:01:23Z</time></trkpt>
<trkpt lat="29.84432" lon="102.260635">
<time>2015-08-06T01:01:24Z</time></trkpt>
<trkpt lat="29.84503" lon="102.260255">
<time>2015-08-06T01:01:25Z</time></trkpt>
<trkpt lat="29.84511" lon="102.260215">
<time>2015-08-06T01:01:26Z</time></trkpt>
<trkpt lat="29.84516" lon="102.260155">
<time>2015-08-06T01:01:27Z</time></trkpt>
<trkpt lat="29.84522" lon="102.260075">
<time>2015-08-06T01:01:28Z</time></trkpt>
<trkpt lat="29.845261" lon="102.259965">
<time>2015-08-06T01:01:29Z</time></trkpt>
<trkpt lat="29.845261" lon="102.259895">
<time>2015-08-06T01:01:30Z</time></trkpt>
<trkpt lat="29.845251" lon="102.259805">
<time>2015-08-06T01:01:31Z</time></trkpt>
<trkpt lat="29.845221" lon="102.259695">
<time>2015-08-06T01:01:32Z</time></trkpt>
<trkpt lat="29.845101" lon="102.259535">
<time>2015-08-06T01:01:33Z</time></trkpt>
<trkpt lat="29.844881" lon="102.259315">
<time>2015-08-06T01:01:34Z</time></trkpt>
<trkpt lat="29.844781" lon="102.259185">
<time>2015-08-06T01:01:35Z</time></trkpt>
<trkpt lat="29.844701" lon="102.259045">
<time>2015-08-06T01:01:36Z</time></trkpt>
<trkpt lat="29.844671" lon="102.258955">
<time>2015-08-06T01:01:37Z</time></trkpt>
<trkpt lat="29.844641" lon="102.258835">
<time>2015-08-06T01:01:38Z</time></trkpt>
<trkpt lat="29.844641" lon="102.258695">
<time>2015-08-06T01:01:39Z</time></trkpt>
<trkpt lat="29.844651" lon="102.257955">
<time>2015-08-06T01:01:40Z</time></trkpt>
<trkpt lat="29.844682" lon="102.257176">
<time>2015-08-06T01:01:41Z</time></trkpt>
<trkpt lat="29.844682" lon="102.256976">
<time>2015-08-06T01:01:42Z</time></trkpt>
<trkpt lat="29.844652" lon="102.256716">
<time>2015-08-06T01:01:43Z</time></trkpt>
<trkpt lat="29.844602" lon="102.256506">
<time>2015-08-06T01:01:44Z</time></trkpt>
<trkpt lat="29.844522" lon="102.256236">
<time>2015-08-06T01:01:45Z</time></trkpt>
<trkpt lat="29.844462" lon="102.256096">
<time>2015-08-06T01:01:46Z</time></trkpt>
<trkpt lat="29.844382" lon="102.255956">
<time>2015-08-06T01:01:47Z</time></trkpt>
<trkpt lat="29.844252" lon="102.255776">
<time>2015-08-06T01:01:48Z</time></trkpt>
<trkpt lat="29.843982" lon="102.255506">
<time>2015-08-06T01:01:49Z</time></trkpt>
<trkpt lat="29.843622" lon="102.255176">
<time>2015-08-06T01:01:50Z</time></trkpt>
<trkpt lat="29.843102" lon="102.254716">
<time>2015-08-06T01:01:51Z</time></trkpt>
<trkpt lat="29.842813" lon="102.254456">
<time>2015-08-06T01:01:52Z</time></trkpt>
<trkpt lat="29.842493" lon="102.254206">
<time>2015-08-06T01:01:53Z</time></trkpt>
<trkpt lat="29.842373" lon="102.254116">
<time>2015-08-06T01:01:54Z</time></trkpt>
<trkpt lat="29.842253" lon="102.254066">
<time>2015-08-06T01:01:55Z</time></trkpt>
<trkpt lat="29.842133" lon="102.254046">
<time>2015-08-06T01:01:56Z</time></trkpt>
<trkpt lat="29.841973" lon="102.254046">
<time>2015-08-06T01:01:57Z</time></trkpt>
<trkpt lat="29.841803" lon="102.254066">
<time>2015-08-06T01:01:58Z</time></trkpt>
<trkpt lat="29.841463" lon="102.254046">
<time>2015-08-06T01:01:59Z</time></trkpt>
<trkpt lat="29.841263" lon="102.254036">
<time>2015-08-06T01:02:00Z</time></trkpt>
<trkpt lat="29.841153" lon="102.254006">
<time>2015-08-06T01:02:01Z</time></trkpt>
<trkpt lat="29.841083" lon="102.253966">
<time>2015-08-06T01:02:02Z</time></trkpt>
<trkpt lat="29.841023" lon="102.253926">
<time>2015-08-06T01:02:03Z</time></trkpt>
<trkpt lat="29.840863" lon="102.253776">
<time>2015-08-06T01:02:04Z</time></trkpt>
<trkpt lat="29.840673" lon="102.253596">
<time>2015-08-06T01:02:05Z</time></trkpt>
<trkpt lat="29.840403" lon="102.253346">
<time>2015-08-06T01:02:06Z</time></trkpt>
<trkpt lat="29.840233" lon="102.253216">
<time>2015-08-06T01:02:07Z</time></trkpt>
<trkpt lat="29.839723" lon="102.252906">
<time>2015-08-06T01:02:08Z</time></trkpt>
<trkpt lat="29.839573" lon="102.252796">
<time>2015-08-06T01:02:09Z</time></trkpt>
<trkpt lat="29.839523" lon="102.252626">
<time>2015-08-06T01:02:10Z</time></trkpt>
<trkpt lat="29.839503" lon="102.252446">
<time>2015-08-06T01:02:11Z</time></trkpt>
<trkpt lat="29.839493" lon="102.252216">
<time>2015-08-06T01:02:12Z</time></trkpt>
<trkpt lat="29.839483" lon="102.251556">
<time>2015-08-06T01:02:13Z</time></trkpt>
<trkpt lat="29.839463" lon="102.251356">
<time>2015-08-06T01:02:14Z</time></trkpt>
<trkpt lat="29.839423" lon="102.251166">
<time>2015-08-06T01:02:15Z</time></trkpt>
<trkpt lat="29.839373" lon="102.251016">
<time>2015-08-06T01:02:16Z</time></trkpt>
<trkpt lat="29.839273" lon="102.250826">
<time>2015-08-06T01:02:17Z</time></trkpt>
<trkpt lat="29.839133" lon="102.250646">
<time>2015-08-06T01:02:18Z</time></trkpt>
<trkpt lat="29.838883" lon="102.250396">
<time>2015-08-06T01:02:19Z</time></trkpt>
<trkpt lat="29.838664" lon="102.250216">
<time>2015-08-06T01:02:20Z</time></trkpt>
<trkpt lat="29.838514" lon="102.250116">
<time>2015-08-06T01:02:21Z</time></trkpt>
<trkpt lat="29.838334" lon="102.250016">
<time>2015-08-06T01:02:22Z</time></trkpt>
<trkpt lat="29.838234" lon="102.249966">
<time>2015-08-06T01:02:23Z</time></trkpt>
<trkpt lat="29.838154" lon="102.249936">
<time>2015-08-06T01:02:24Z</time></trkpt>
<trkpt lat="29.837954" lon="102.249856">
<time>2015-08-06T01:02:25Z</time></trkpt>
<trkpt lat="29.837394" lon="102.249656">
<time>2015-08-06T01:02:26Z</time></trkpt>
<trkpt lat="29.836964" lon="102.249506">
<time>2015-08-06T01:02:27Z</time></trkpt>
<trkpt lat="29.836714" lon="102.249406">
<time>2015-08-06T01:02:28Z</time></trkpt>
<trkpt lat="29.836524" lon="102.249306">
<time>2015-08-06T01:02:29Z</time></trkpt>
<trkpt lat="29.836324" lon="102.249186">
<time>2015-08-06T01:02:30Z</time></trkpt>
<trkpt lat="29.836014" lon="102.248966">
<time>2015-08-06T01:02:31Z</time></trkpt>
<trkpt lat="29.835584" lon="102.248646">
<time>2015-08-06T01:02:32Z</time></trkpt>
<trkpt lat="29.835374" lon="102.248526">
<time>2015-08-06T01:02:33Z</time></trkpt>
<trkpt lat="29.835224" lon="102.248466">
<time>2015-08-06T01:02:34Z</time></trkpt>
<trkpt lat="29.835044" lon="102.248416">
<time>2015-08-06T01:02:35Z</time></trkpt>
<trkpt lat="29.834874" lon="102.248386">
<time>2015-08-06T01:02:36Z</time></trkpt>
<trkpt lat="29.834754" lon="102.248386">
<time>2015-08-06T01:02:37Z</time></trkpt>
<trkpt lat="29.834644" lon="102.248386">
<time>2015-08-06T01:02:38Z</time></trkpt>
<trkpt lat="29.834424" lon="102.248426">
<time>2015-08-06T01:02:39Z</time></trkpt>
<trkpt lat="29.833784" lon="102.248566">
<time>2015-08-06T01:02:40Z</time></trkpt>
<trkpt lat="29.833344" lon="102.248666">
<time>2015-08-06T01:02:41Z</time></trkpt>
<trkpt lat="29.833054" lon="102.248736">
<time>2015-08-06T01:02:42Z</time></trkpt>
<trkpt lat="29.832794" lon="102.248806">
<time>2015-08-06T01:02:43Z</time></trkpt>
<trkpt lat="29.832594" lon="102.248886">
<time>2015-08-06T01:02:44Z</time></trkpt>
<trkpt lat="29.832374" lon="102.248996">
<time>2015-08-06T01:02:45Z</time></trkpt>
<trkpt lat="29.832164" lon="102.249106">
<time>2015-08-06T01:02:46Z</time></trkpt>
<trkpt lat="29.831934" lon="102.249206">
<time>2015-08-06T01:02:47Z</time></trkpt>
<trkpt lat="29.831754" lon="102.249256">
<time>2015-08-06T01:02:48Z</time></trkpt>
<trkpt lat="29.831584" lon="102.249286">
<time>2015-08-06T01:02:49Z</time></trkpt>
<trkpt lat="29.831414" lon="102.249256">
<time>2015-08-06T01:02:50Z</time></trkpt>
<trkpt lat="29.831254" lon="102.249206">
<time>2015-08-06T01:02:51Z</time></trkpt>
<trkpt lat="29.831094" lon="102.249116">
<time>2015-08-06T01:02:52Z</time></trkpt>
<trkpt lat="29.830924" lon="102.248986">
<time>2015-08-06T01:02:53Z</time></trkpt>
<trkpt lat="29.830754" lon="102.248796">
<time>2015-08-06T01:02:54Z</time></trkpt>
<trkpt lat="29.830564" lon="102.248546">
<time>2015-08-06T01:02:55Z</time></trkpt>
<trkpt lat="29.830034" lon="102.247826">
<time>2015-08-06T01:02:56Z</time></trkpt>
<trkpt lat="29.829724" lon="102.247396">
<time>2015-08-06T01:02:57Z</time></trkpt>
<trkpt lat="29.829564" lon="102.247216">
<time>2015-08-06T01:02:58Z</time></trkpt>
<trkpt lat="29.829374" lon="102.247056">
<time>2015-08-06T01:02:59Z</time></trkpt>
<trkpt lat="29.829154" lon="102.246916">
<time>2015-08-06T01:03:00Z</time></trkpt>
<trkpt lat="29.828864" lon="102.246786">
<time>2015-08-06T01:03:01Z</time></trkpt>
<trkpt lat="29.828274" lon="102.246586">
<time>2015-08-06T01:03:02Z</time></trkpt>
<trkpt lat="29.828034" lon="102.246496">
<time>2015-08-06T01:03:03Z</time></trkpt>
<trkpt lat="29.827724" lon="102.246416">
<time>2015-08-06T01:03:04Z</time></trkpt>
<trkpt lat="29.827454" lon="102.246376">
<time>2015-08-06T01:03:05Z</time></trkpt>
<trkpt lat="29.827114" lon="102.246326">
<time>2015-08-06T01:03:06Z</time></trkpt>
<trkpt lat="29.826854" lon="102.246276">
<time>2015-08-06T01:03:07Z</time></trkpt>
<trkpt lat="29.826624" lon="102.246206">
<time>2015-08-06T01:03:08Z</time></trkpt>
<trkpt lat="29.826364" lon="102.246106">
<time>2015-08-06T01:03:09Z</time></trkpt>
<trkpt lat="29.825954" lon="102.245936">
<time>2015-08-06T01:03:10Z</time></trkpt>
<trkpt lat="29.824724" lon="102.245336">
<time>2015-08-06T01:03:11Z</time></trkpt>
<trkpt lat="29.823634" lon="102.244805">
<time>2015-08-06T01:03:12Z</time></trkpt>
<trkpt lat="29.822974" lon="102.244495">
<time>2015-08-06T01:03:13Z</time></trkpt>
<trkpt lat="29.822684" lon="102.244385">
<time>2015-08-06T01:03:14Z</time></trkpt>
<trkpt lat="29.822505" lon="102.244335">
<time>2015-08-06T01:03:15Z</time></trkpt>
<trkpt lat="29.822335" lon="102.244305">
<time>2015-08-06T01:03:16Z</time></trkpt>
<trkpt lat="29.822125" lon="102.244295">
<time>2015-08-06T01:03:17Z</time></trkpt>
<trkpt lat="29.821735" lon="102.244285">
<time>2015-08-06T01:03:18Z</time></trkpt>
<trkpt lat="29.821455" lon="102.244265">
<time>2015-08-06T01:03:19Z</time></trkpt>
<trkpt lat="29.821085" lon="102.244215">
<time>2015-08-06T01:03:20Z</time></trkpt>
<trkpt lat="29.820605" lon="102.244105">
<time>2015-08-06T01:03:21Z</time></trkpt>
<trkpt lat="29.820255" lon="102.244005">
<time>2015-08-06T01:03:22Z</time></trkpt>
<trkpt lat="29.820005" lon="102.243915">
<time>2015-08-06T01:03:23Z</time></trkpt>
<trkpt lat="29.819755" lon="102.243785">
<time>2015-08-06T01:03:24Z</time></trkpt>
<trkpt lat="29.819515" lon="102.243635">
<time>2015-08-06T01:03:25Z</time></trkpt>
<trkpt lat="29.819345" lon="102.243555">
<time>2015-08-06T01:03:26Z</time></trkpt>
<trkpt lat="29.819195" lon="102.243505">
<time>2015-08-06T01:03:27Z</time></trkpt>
<trkpt lat="29.819055" lon="102.243485">
<time>2015-08-06T01:03:28Z</time></trkpt>
<trkpt lat="29.818935" lon="102.243485">
<time>2015-08-06T01:03:29Z</time></trkpt>
<trkpt lat="29.818805" lon="102.243515">
<time>2015-08-06T01:03:30Z</time></trkpt>
<trkpt lat="29.818685" lon="102.243555">
<time>2015-08-06T01:03:31Z</time></trkpt>
<trkpt lat="29.818565" lon="102.243615">
<time>2015-08-06T01:03:32Z</time></trkpt>
<trkpt lat="29.818355" lon="102.243735">
<time>2015-08-06T01:03:33Z</time></trkpt>
<trkpt lat="29.818215" lon="102.243775">
<time>2015-08-06T01:03:34Z</time></trkpt>
<trkpt lat="29.818095" lon="102.243785">
<time>2015-08-06T01:03:35Z</time></trkpt>
<trkpt lat="29.817965" lon="102.243765">
<time>2015-08-06T01:03:36Z</time></trkpt>
<trkpt lat="29.817825" lon="102.243685">
<time>2015-08-06T01:03:37Z</time></trkpt>
<trkpt lat="29.817695" lon="102.243565">
<time>2015-08-06T01:03:38Z</time></trkpt>
<trkpt lat="29.817555" lon="102.243375">
<time>2015-08-06T01:03:39Z</time></trkpt>
<trkpt lat="29.817455" lon="102.243195">
<time>2015-08-06T01:03:40Z</time></trkpt>
<trkpt lat="29.817405" lon="102.243005">
<time>2015-08-06T01:03:41Z</time></trkpt>
<trkpt lat="29.817375" lon="102.242815">
<time>2015-08-06T01:03:42Z</time></trkpt>
<trkpt lat="29.817355" lon="102.242535">
<time>2015-08-06T01:03:43Z</time></trkpt>
<trkpt lat="29.817314" lon="102.241454">
<time>2015-08-06T01:03:44Z</time></trkpt>
<trkpt lat="29.817264" lon="102.240624">
<time>2015-08-06T01:03:45Z</time></trkpt>
<trkpt lat="29.817244" lon="102.240364">
<time>2015-08-06T01:03:46Z</time></trkpt>
<trkpt lat="29.817184" lon="102.240134">
<time>2015-08-06T01:03:47Z</time></trkpt>
<trkpt lat="29.817094" lon="102.239914">
<time>2015-08-06T01:03:48Z</time></trkpt>
<trkpt lat="29.816954" lon="102.239713">
<time>2015-08-06T01:03:49Z</time></trkpt>
<trkpt lat="29.816784" lon="102.239533">
<time>2015-08-06T01:03:50Z</time></trkpt>
<trkpt lat="29.816614" lon="102.239393">
<time>2015-08-06T01:03:51Z</time></trkpt>
<trkpt lat="29.816424" lon="102.239273">
<time>2015-08-06T01:03:52Z</time></trkpt>
<trkpt lat="29.816254" lon="102.239203">
<time>2015-08-06T01:03:53Z</time></trkpt>
<trkpt lat="29.816054" lon="102.239153">
<time>2015-08-06T01:03:54Z</time></trkpt>
<trkpt lat="29.815824" lon="102.239123">
<time>2015-08-06T01:03:55Z</time></trkpt>
<trkpt lat="29.815574" lon="102.239093">
<time>2015-08-06T01:03:56Z</time></trkpt>
<trkpt lat="29.815394" lon="102.239083">
<time>2015-08-06T01:03:57Z</time></trkpt>
<trkpt lat="29.815254" lon="102.239043">
<time>2015-08-06T01:03:58Z</time></trkpt>
<trkpt lat="29.815124" lon="102.238983">
<time>2015-08-06T01:03:59Z</time></trkpt>
<trkpt lat="29.815004" lon="102.238863">
<time>2015-08-06T01:04:00Z</time></trkpt>
<trkpt lat="29.814934" lon="102.238763">
<time>2015-08-06T01:04:01Z</time></trkpt>
<trkpt lat="29.814864" lon="102.238613">
<time>2015-08-06T01:04:02Z</time></trkpt>
<trkpt lat="29.814724" lon="102.238123">
<time>2015-08-06T01:04:03Z</time></trkpt>
<trkpt lat="29.814643" lon="102.237852">
<time>2015-08-06T01:04:04Z</time></trkpt>
<trkpt lat="29.814553" lon="102.237652">
<time>2015-08-06T01:04:05Z</time></trkpt>
<trkpt lat="29.814453" lon="102.237472">
<time>2015-08-06T01:04:06Z</time></trkpt>
<trkpt lat="29.814303" lon="102.237292">
<time>2015-08-06T01:04:07Z</time></trkpt>
<trkpt lat="29.814153" lon="102.237162">
<time>2015-08-06T01:04:08Z</time></trkpt>
<trkpt lat="29.813933" lon="102.236982">
<time>2015-08-06T01:04:09Z</time></trkpt>
<trkpt lat="29.813773" lon="102.236852">
<time>2015-08-06T01:04:10Z</time></trkpt>
<trkpt lat="29.813593" lon="102.236702">
<time>2015-08-06T01:04:11Z</time></trkpt>
<trkpt lat="29.813443" lon="102.236512">
<time>2015-08-06T01:04:12Z</time></trkpt>
<trkpt lat="29.813313" lon="102.236301">
<time>2015-08-06T01:04:13Z</time></trkpt>
<trkpt lat="29.813233" lon="102.236041">
<time>2015-08-06T01:04:14Z</time></trkpt>
<trkpt lat="29.813193" lon="102.235831">
<time>2015-08-06T01:04:15Z</time></trkpt>
<trkpt lat="29.813193" lon="102.235551">
<time>2015-08-06T01:04:16Z</time></trkpt>
<trkpt lat="29.813193" lon="102.235551">
<time>2015-08-06T01:04:17Z</time></trkpt>
<trkpt lat="29.813183" lon="102.235511">
<time>2015-08-06T01:04:18Z</time></trkpt>
<trkpt lat="29.813202" lon="102.235271">
<time>2015-08-06T01:04:19Z</time></trkpt>
<trkpt lat="29.813242" lon="102.23486">
<time>2015-08-06T01:04:20Z</time></trkpt>
<trkpt lat="29.813252" lon="102.23465">
<time>2015-08-06T01:04:21Z</time></trkpt>
<trkpt lat="29.813262" lon="102.23447">
<time>2015-08-06T01:04:22Z</time></trkpt>
<trkpt lat="29.813242" lon="102.2343">
<time>2015-08-06T01:04:23Z</time></trkpt>
<trkpt lat="29.813222" lon="102.23416">
<time>2015-08-06T01:04:24Z</time></trkpt>
<trkpt lat="29.813192" lon="102.23403">
<time>2015-08-06T01:04:25Z</time></trkpt>
<trkpt lat="29.813142" lon="102.23388">
<time>2015-08-06T01:04:26Z</time></trkpt>
<trkpt lat="29.813132" lon="102.233849">
<time>2015-08-06T01:04:27Z</time></trkpt>
<trkpt lat="29.813132" lon="102.233809">
<time>2015-08-06T01:04:28Z</time></trkpt>
<trkpt lat="29.813092" lon="102.233719">
<time>2015-08-06T01:04:29Z</time></trkpt>
<trkpt lat="29.813022" lon="102.233599">
<time>2015-08-06T01:04:30Z</time></trkpt>
<trkpt lat="29.812912" lon="102.233459">
<time>2015-08-06T01:04:31Z</time></trkpt>
<trkpt lat="29.812791" lon="102.233319">
<time>2015-08-06T01:04:32Z</time></trkpt>
<trkpt lat="29.812601" lon="102.233169">
<time>2015-08-06T01:04:33Z</time></trkpt>
<trkpt lat="29.812391" lon="102.233039">
<time>2015-08-06T01:04:34Z</time></trkpt>
<trkpt lat="29.812131" lon="102.232929">
<time>2015-08-06T01:04:35Z</time></trkpt>
<trkpt lat="29.811731" lon="102.232789">
<time>2015-08-06T01:04:36Z</time></trkpt>
<trkpt lat="29.811421" lon="102.232669">
<time>2015-08-06T01:04:37Z</time></trkpt>
<trkpt lat="29.811161" lon="102.232548">
<time>2015-08-06T01:04:38Z</time></trkpt>
<trkpt lat="29.811001" lon="102.232448">
<time>2015-08-06T01:04:39Z</time></trkpt>
<trkpt lat="29.810861" lon="102.232338">
<time>2015-08-06T01:04:40Z</time></trkpt>
<trkpt lat="29.810731" lon="102.232188">
<time>2015-08-06T01:04:41Z</time></trkpt>
<trkpt lat="29.810561" lon="102.231948">
<time>2015-08-06T01:04:42Z</time></trkpt>
<trkpt lat="29.810421" lon="102.231718">
<time>2015-08-06T01:04:43Z</time></trkpt>
<trkpt lat="29.810321" lon="102.231518">
<time>2015-08-06T01:04:44Z</time></trkpt>
<trkpt lat="29.81024" lon="102.231277">
<time>2015-08-06T01:04:45Z</time></trkpt>
<trkpt lat="29.81018" lon="102.230997">
<time>2015-08-06T01:04:46Z</time></trkpt>
<trkpt lat="29.81007" lon="102.230336">
<time>2015-08-06T01:04:47Z</time></trkpt>
<trkpt lat="29.81002" lon="102.230036">
<time>2015-08-06T01:04:48Z</time></trkpt>
<trkpt lat="29.80997" lon="102.229846">
<time>2015-08-06T01:04:49Z</time></trkpt>
<trkpt lat="29.809899" lon="102.229626">
<time>2015-08-06T01:04:50Z</time></trkpt>
<trkpt lat="29.809819" lon="102.229456">
<time>2015-08-06T01:04:51Z</time></trkpt>
<trkpt lat="29.809699" lon="102.229285">
<time>2015-08-06T01:04:52Z</time></trkpt>
<trkpt lat="29.809529" lon="102.229095">
<time>2015-08-06T01:04:53Z</time></trkpt>
<trkpt lat="29.809329" lon="102.228905">
<time>2015-08-06T01:04:54Z</time></trkpt>
<trkpt lat="29.809099" lon="102.228705">
<time>2015-08-06T01:04:55Z</time></trkpt>
<trkpt lat="29.808929" lon="102.228585">
<time>2015-08-06T01:04:56Z</time></trkpt>
<trkpt lat="29.808769" lon="102.228485">
<time>2015-08-06T01:04:57Z</time></trkpt>
<trkpt lat="29.808639" lon="102.228425">
<time>2015-08-06T01:04:58Z</time></trkpt>
<trkpt lat="29.808439" lon="102.228335">
<time>2015-08-06T01:04:59Z</time></trkpt>
<trkpt lat="29.808289" lon="102.228234">
<time>2015-08-06T01:05:00Z</time></trkpt>
<trkpt lat="29.808118" lon="102.228104">
<time>2015-08-06T01:05:01Z</time></trkpt>
<trkpt lat="29.807778" lon="102.227794">
<time>2015-08-06T01:05:02Z</time></trkpt>
<trkpt lat="29.807368" lon="102.227434">
<time>2015-08-06T01:05:03Z</time></trkpt>
<trkpt lat="29.806918" lon="102.227023">
<time>2015-08-06T01:05:04Z</time></trkpt>
<trkpt lat="29.806608" lon="102.226693">
<time>2015-08-06T01:05:05Z</time></trkpt>
<trkpt lat="29.806197" lon="102.226182">
<time>2015-08-06T01:05:06Z</time></trkpt>
<trkpt lat="29.806037" lon="102.226002">
<time>2015-08-06T01:05:07Z</time></trkpt>
<trkpt lat="29.805927" lon="102.225852">
<time>2015-08-06T01:05:08Z</time></trkpt>
<trkpt lat="29.805857" lon="102.225712">
<time>2015-08-06T01:05:09Z</time></trkpt>
<trkpt lat="29.805817" lon="102.225572">
<time>2015-08-06T01:05:10Z</time></trkpt>
<trkpt lat="29.805797" lon="102.225411">
<time>2015-08-06T01:05:11Z</time></trkpt>
<trkpt lat="29.805816" lon="102.225251">
<time>2015-08-06T01:05:12Z</time></trkpt>
<trkpt lat="29.805856" lon="102.225111">
<time>2015-08-06T01:05:13Z</time></trkpt>
<trkpt lat="29.805916" lon="102.224971">
<time>2015-08-06T01:05:14Z</time></trkpt>
<trkpt lat="29.805996" lon="102.224861">
<time>2015-08-06T01:05:15Z</time></trkpt>
<trkpt lat="29.806096" lon="102.224771">
<time>2015-08-06T01:05:16Z</time></trkpt>
<trkpt lat="29.806226" lon="102.2247">
<time>2015-08-06T01:05:17Z</time></trkpt>
<trkpt lat="29.806346" lon="102.22465">
<time>2015-08-06T01:05:18Z</time></trkpt>
<trkpt lat="29.806486" lon="102.22463">
<time>2015-08-06T01:05:19Z</time></trkpt>
<trkpt lat="29.806606" lon="102.22463">
<time>2015-08-06T01:05:20Z</time></trkpt>
<trkpt lat="29.806756" lon="102.22463">
<time>2015-08-06T01:05:21Z</time></trkpt>
<trkpt lat="29.806926" lon="102.22467">
<time>2015-08-06T01:05:22Z</time></trkpt>
<trkpt lat="29.807086" lon="102.2247">
<time>2015-08-06T01:05:23Z</time></trkpt>
<trkpt lat="29.807306" lon="102.224771">
<time>2015-08-06T01:05:24Z</time></trkpt>
<trkpt lat="29.807656" lon="102.224901">
<time>2015-08-06T01:05:25Z</time></trkpt>
<trkpt lat="29.808036" lon="102.225021">
<time>2015-08-06T01:05:26Z</time></trkpt>
<trkpt lat="29.808466" lon="102.225141">
<time>2015-08-06T01:05:27Z</time></trkpt>
<trkpt lat="29.808876" lon="102.225231">
<time>2015-08-06T01:05:28Z</time></trkpt>
<trkpt lat="29.809546" lon="102.225381">
<time>2015-08-06T01:05:29Z</time></trkpt>
<trkpt lat="29.809946" lon="102.225481">
<time>2015-08-06T01:05:30Z</time></trkpt>
<trkpt lat="29.810096" lon="102.225531">
<time>2015-08-06T01:05:31Z</time></trkpt>
<trkpt lat="29.810226" lon="102.225571">
<time>2015-08-06T01:05:32Z</time></trkpt>
<trkpt lat="29.810376" lon="102.225621">
<time>2015-08-06T01:05:33Z</time></trkpt>
<trkpt lat="29.810556" lon="102.225671">
<time>2015-08-06T01:05:34Z</time></trkpt>
<trkpt lat="29.810706" lon="102.225692">
<time>2015-08-06T01:05:35Z</time></trkpt>
<trkpt lat="29.810916" lon="102.225722">
<time>2015-08-06T01:05:36Z</time></trkpt>
<trkpt lat="29.811146" lon="102.225732">
<time>2015-08-06T01:05:37Z</time></trkpt>
<trkpt lat="29.811866" lon="102.225752">
<time>2015-08-06T01:05:38Z</time></trkpt>
<trkpt lat="29.812046" lon="102.225752">
<time>2015-08-06T01:05:39Z</time></trkpt>
<trkpt lat="29.812226" lon="102.225732">
<time>2015-08-06T01:05:40Z</time></trkpt>
<trkpt lat="29.812336" lon="102.225711">
<time>2015-08-06T01:05:41Z</time></trkpt>
<trkpt lat="29.812486" lon="102.225671">
<time>2015-08-06T01:05:42Z</time></trkpt>
<trkpt lat="29.812586" lon="102.225631">
<time>2015-08-06T01:05:43Z</time></trkpt>
<trkpt lat="29.812716" lon="102.225581">
<time>2015-08-06T01:05:44Z</time></trkpt>
<trkpt lat="29.812956" lon="102.225471">
<time>2015-08-06T01:05:45Z</time></trkpt>
<trkpt lat="29.813216" lon="102.225361">
<time>2015-08-06T01:05:46Z</time></trkpt>
<trkpt lat="29.813376" lon="102.225311">
<time>2015-08-06T01:05:47Z</time></trkpt>
<trkpt lat="29.813486" lon="102.225281">
<time>2015-08-06T01:05:48Z</time></trkpt>
<trkpt lat="29.813586" lon="102.225261">
<time>2015-08-06T01:05:49Z</time></trkpt>
<trkpt lat="29.813676" lon="102.225251">
<time>2015-08-06T01:05:50Z</time></trkpt>
<trkpt lat="29.813786" lon="102.225251">
<time>2015-08-06T01:05:51Z</time></trkpt>
<trkpt lat="29.813896" lon="102.225251">
<time>2015-08-06T01:05:52Z</time></trkpt>
<trkpt lat="29.814116" lon="102.225261">
<time>2015-08-06T01:05:53Z</time></trkpt>
<trkpt lat="29.814276" lon="102.225271">
<time>2015-08-06T01:05:54Z</time></trkpt>
<trkpt lat="29.814376" lon="102.225291">
<time>2015-08-06T01:05:55Z</time></trkpt>
<trkpt lat="29.814486" lon="102.225331">
<time>2015-08-06T01:05:56Z</time></trkpt>
<trkpt lat="29.814586" lon="102.225371">
<time>2015-08-06T01:05:57Z</time></trkpt>
<trkpt lat="29.814676" lon="102.225411">
<time>2015-08-06T01:05:58Z</time></trkpt>
<trkpt lat="29.814766" lon="102.225471">
<time>2015-08-06T01:05:59Z</time></trkpt>
<trkpt lat="29.814876" lon="102.225551">
<time>2015-08-06T01:06:00Z</time></trkpt>
<trkpt lat="29.814986" lon="102.225651">
<time>2015-08-06T01:06:01Z</time></trkpt>
<trkpt lat="29.815086" lon="102.225751">
<time>2015-08-06T01:06:02Z</time></trkpt>
<trkpt lat="29.815166" lon="102.225852">
<time>2015-08-06T01:06:03Z</time></trkpt>
<trkpt lat="29.815226" lon="102.225932">
<time>2015-08-06T01:06:04Z</time></trkpt>
<trkpt lat="29.815326" lon="102.226092">
<time>2015-08-06T01:06:05Z</time></trkpt>
<trkpt lat="29.815406" lon="102.226202">
<time>2015-08-06T01:06:06Z</time></trkpt>
<trkpt lat="29.815496" lon="102.226312">
<time>2015-08-06T01:06:07Z</time></trkpt>
<trkpt lat="29.815547" lon="102.226352">
<time>2015-08-06T01:06:08Z</time></trkpt>
<trkpt lat="29.815607" lon="102.226382">
<time>2015-08-06T01:06:09Z</time></trkpt>
<trkpt lat="29.815657" lon="102.226392">
<time>2015-08-06T01:06:10Z</time></trkpt>
<trkpt lat="29.815717" lon="102.226392">
<time>2015-08-06T01:06:11Z</time></trkpt>
<trkpt lat="29.815767" lon="102.226372">
<time>2015-08-06T01:06:12Z</time></trkpt>
<trkpt lat="29.815806" lon="102.226342">
<time>2015-08-06T01:06:13Z</time></trkpt>
<trkpt lat="29.815846" lon="102.226282">
<time>2015-08-06T01:06:14Z</time></trkpt>
<trkpt lat="29.815866" lon="102.226222">
<time>2015-08-06T01:06:15Z</time></trkpt>
<trkpt lat="29.815876" lon="102.226152">
<time>2015-08-06T01:06:16Z</time></trkpt>
<trkpt lat="29.815876" lon="102.226092">
<time>2015-08-06T01:06:17Z</time></trkpt>
<trkpt lat="29.815856" lon="102.226022">
<time>2015-08-06T01:06:18Z</time></trkpt>
<trkpt lat="29.815806" lon="102.225952">
<time>2015-08-06T01:06:19Z</time></trkpt>
<trkpt lat="29.815746" lon="102.225882">
<time>2015-08-06T01:06:20Z</time></trkpt>
<trkpt lat="29.815616" lon="102.225771">
<time>2015-08-06T01:06:21Z</time></trkpt>
<trkpt lat="29.815456" lon="102.225651">
<time>2015-08-06T01:06:22Z</time></trkpt>
<trkpt lat="29.815166" lon="102.225431">
<time>2015-08-06T01:06:23Z</time></trkpt>
<trkpt lat="29.815026" lon="102.225331">
<time>2015-08-06T01:06:24Z</time></trkpt>
<trkpt lat="29.814906" lon="102.225261">
<time>2015-08-06T01:06:25Z</time></trkpt>
<trkpt lat="29.814776" lon="102.225201">
<time>2015-08-06T01:06:26Z</time></trkpt>
<trkpt lat="29.814646" lon="102.225151">
<time>2015-08-06T01:06:27Z</time></trkpt>
<trkpt lat="29.814526" lon="102.225121">
<time>2015-08-06T01:06:28Z</time></trkpt>
<trkpt lat="29.814326" lon="102.225081">
<time>2015-08-06T01:06:29Z</time></trkpt>
<trkpt lat="29.813956" lon="102.225021">
<time>2015-08-06T01:06:30Z</time></trkpt>
<trkpt lat="29.813826" lon="102.225001">
<time>2015-08-06T01:06:31Z</time></trkpt>
<trkpt lat="29.813676" lon="102.224991">
<time>2015-08-06T01:06:32Z</time></trkpt>
<trkpt lat="29.813586" lon="102.224991">
<time>2015-08-06T01:06:33Z</time></trkpt>
<trkpt lat="29.813466" lon="102.225001">
<time>2015-08-06T01:06:34Z</time></trkpt>
<trkpt lat="29.813376" lon="102.225011">
<time>2015-08-06T01:06:35Z</time></trkpt>
<trkpt lat="29.813266" lon="102.225041">
<time>2015-08-06T01:06:36Z</time></trkpt>
<trkpt lat="29.813156" lon="102.225081">
<time>2015-08-06T01:06:37Z</time></trkpt>
<trkpt lat="29.812946" lon="102.225171">
<time>2015-08-06T01:06:38Z</time></trkpt>
<trkpt lat="29.812796" lon="102.225231">
<time>2015-08-06T01:06:39Z</time></trkpt>
<trkpt lat="29.812666" lon="102.225271">
<time>2015-08-06T01:06:40Z</time></trkpt>
<trkpt lat="29.812546" lon="102.225291">
<time>2015-08-06T01:06:41Z</time></trkpt>
<trkpt lat="29.812416" lon="102.225301">
<time>2015-08-06T01:06:42Z</time></trkpt>
<trkpt lat="29.812296" lon="102.225311">
<time>2015-08-06T01:06:43Z</time></trkpt>
<trkpt lat="29.812166" lon="102.225311">
<time>2015-08-06T01:06:44Z</time></trkpt>
<trkpt lat="29.811766" lon="102.225271">
<time>2015-08-06T01:06:45Z</time></trkpt>
<trkpt lat="29.810996" lon="102.225201">
<time>2015-08-06T01:06:46Z</time></trkpt>
<trkpt lat="29.810746" lon="102.225171">
<time>2015-08-06T01:06:47Z</time></trkpt>
<trkpt lat="29.810576" lon="102.225141">
<time>2015-08-06T01:06:48Z</time></trkpt>
<trkpt lat="29.810446" lon="102.225101">
<time>2015-08-06T01:06:49Z</time></trkpt>
<trkpt lat="29.810336" lon="102.225061">
<time>2015-08-06T01:06:50Z</time></trkpt>
<trkpt lat="29.810236" lon="102.225021">
<time>2015-08-06T01:06:51Z</time></trkpt>
<trkpt lat="29.810136" lon="102.224971">
<time>2015-08-06T01:06:52Z</time></trkpt>
<trkpt lat="29.810076" lon="102.224931">
<time>2015-08-06T01:06:53Z</time></trkpt>
<trkpt lat="29.809936" lon="102.224841">
<time>2015-08-06T01:06:54Z</time></trkpt>
<trkpt lat="29.809826" lon="102.22478">
<time>2015-08-06T01:06:55Z</time></trkpt>
<trkpt lat="29.809736" lon="102.22474">
<time>2015-08-06T01:06:56Z</time></trkpt>
<trkpt lat="29.809656" lon="102.2247">
<time>2015-08-06T01:06:57Z</time></trkpt>
<trkpt lat="29.809566" lon="102.22467">
<time>2015-08-06T01:06:58Z</time></trkpt>
<trkpt lat="29.809486" lon="102.22465">
<time>2015-08-06T01:06:59Z</time></trkpt>
<trkpt lat="29.809386" lon="102.22463">
<time>2015-08-06T01:07:00Z</time></trkpt>
<trkpt lat="29.809206" lon="102.22459">
<time>2015-08-06T01:07:01Z</time></trkpt>
<trkpt lat="29.809076" lon="102.22455">
<time>2015-08-06T01:07:02Z</time></trkpt>
<trkpt lat="29.808986" lon="102.22451">
<time>2015-08-06T01:07:03Z</time></trkpt>
<trkpt lat="29.808876" lon="102.22446">
<time>2015-08-06T01:07:04Z</time></trkpt>
<trkpt lat="29.808765" lon="102.2244">
<time>2015-08-06T01:07:05Z</time></trkpt>
<trkpt lat="29.808605" lon="102.22431">
<time>2015-08-06T01:07:06Z</time></trkpt>
<trkpt lat="29.808445" lon="102.22421">
<time>2015-08-06T01:07:07Z</time></trkpt>
<trkpt lat="29.808245" lon="102.22409">
<time>2015-08-06T01:07:08Z</time></trkpt>
<trkpt lat="29.808095" lon="102.22402">
<time>2015-08-06T01:07:09Z</time></trkpt>
<trkpt lat="29.807995" lon="102.22398">
<time>2015-08-06T01:07:10Z</time></trkpt>
<trkpt lat="29.807905" lon="102.22395">
<time>2015-08-06T01:07:11Z</time></trkpt>
<trkpt lat="29.807765" lon="102.223909">
<time>2015-08-06T01:07:12Z</time></trkpt>
<trkpt lat="29.807295" lon="102.223789">
<time>2015-08-06T01:07:13Z</time></trkpt>
<trkpt lat="29.807135" lon="102.223749">
<time>2015-08-06T01:07:14Z</time></trkpt>
<trkpt lat="29.806955" lon="102.223679">
<time>2015-08-06T01:07:15Z</time></trkpt>
<trkpt lat="29.806805" lon="102.223599">
<time>2015-08-06T01:07:16Z</time></trkpt>
<trkpt lat="29.806655" lon="102.223509">
<time>2015-08-06T01:07:17Z</time></trkpt>
<trkpt lat="29.806555" lon="102.223439">
<time>2015-08-06T01:07:18Z</time></trkpt>
<trkpt lat="29.806465" lon="102.223369">
<time>2015-08-06T01:07:19Z</time></trkpt>
<trkpt lat="29.806375" lon="102.223279">
<time>2015-08-06T01:07:20Z</time></trkpt>
<trkpt lat="29.806275" lon="102.223159">
<time>2015-08-06T01:07:21Z</time></trkpt>
<trkpt lat="29.806134" lon="102.222948">
<time>2015-08-06T01:07:22Z</time></trkpt>
<trkpt lat="29.806034" lon="102.222738">
<time>2015-08-06T01:07:23Z</time></trkpt>
<trkpt lat="29.805974" lon="102.222618">
<time>2015-08-06T01:07:24Z</time></trkpt>
<trkpt lat="29.805904" lon="102.222458">
<time>2015-08-06T01:07:25Z</time></trkpt>
<trkpt lat="29.805854" lon="102.222288">
<time>2015-08-06T01:07:26Z</time></trkpt>
<trkpt lat="29.805814" lon="102.222137">
<time>2015-08-06T01:07:27Z</time></trkpt>
<trkpt lat="29.805774" lon="102.221957">
<time>2015-08-06T01:07:28Z</time></trkpt>
<trkpt lat="29.805743" lon="102.221757">
<time>2015-08-06T01:07:29Z</time></trkpt>
<trkpt lat="29.805723" lon="102.221617">
<time>2015-08-06T01:07:30Z</time></trkpt>
<trkpt lat="29.805693" lon="102.221507">
<time>2015-08-06T01:07:31Z</time></trkpt>
<trkpt lat="29.805653" lon="102.221426">
<time>2015-08-06T01:07:32Z</time></trkpt>
<trkpt lat="29.805613" lon="102.221346">
<time>2015-08-06T01:07:33Z</time></trkpt>
<trkpt lat="29.805563" lon="102.221276">
<time>2015-08-06T01:07:34Z</time></trkpt>
<trkpt lat="29.805503" lon="102.221216">
<time>2015-08-06T01:07:35Z</time></trkpt>
<trkpt lat="29.805443" lon="102.221176">
<time>2015-08-06T01:07:36Z</time></trkpt>
<trkpt lat="29.805373" lon="102.221136">
<time>2015-08-06T01:07:37Z</time></trkpt>
<trkpt lat="29.805293" lon="102.221096">
<time>2015-08-06T01:07:38Z</time></trkpt>
<trkpt lat="29.805193" lon="102.221056">
<time>2015-08-06T01:07:39Z</time></trkpt>
<trkpt lat="29.804903" lon="102.220966">
<time>2015-08-06T01:07:40Z</time></trkpt>
<trkpt lat="29.804663" lon="102.220886">
<time>2015-08-06T01:07:41Z</time></trkpt>
<trkpt lat="29.804523" lon="102.220846">
<time>2015-08-06T01:07:42Z</time></trkpt>
<trkpt lat="29.804383" lon="102.220816">
<time>2015-08-06T01:07:43Z</time></trkpt>
<trkpt lat="29.804303" lon="102.220806">
<time>2015-08-06T01:07:44Z</time></trkpt>
<trkpt lat="29.804203" lon="102.220796">
<time>2015-08-06T01:07:45Z</time></trkpt>
<trkpt lat="29.804113" lon="102.220806">
<time>2015-08-06T01:07:46Z</time></trkpt>
<trkpt lat="29.804033" lon="102.220816">
<time>2015-08-06T01:07:47Z</time></trkpt>
<trkpt lat="29.803953" lon="102.220846">
<time>2015-08-06T01:07:48Z</time></trkpt>
<trkpt lat="29.803863" lon="102.220886">
<time>2015-08-06T01:07:49Z</time></trkpt>
<trkpt lat="29.803793" lon="102.220926">
<time>2015-08-06T01:07:50Z</time></trkpt>
<trkpt lat="29.803703" lon="102.220986">
<time>2015-08-06T01:07:51Z</time></trkpt>
<trkpt lat="29.803613" lon="102.221066">
<time>2015-08-06T01:07:52Z</time></trkpt>
<trkpt lat="29.803533" lon="102.221176">
<time>2015-08-06T01:07:53Z</time></trkpt>
<trkpt lat="29.803473" lon="102.221256">
<time>2015-08-06T01:07:54Z</time></trkpt>
<trkpt lat="29.803423" lon="102.221366">
<time>2015-08-06T01:07:55Z</time></trkpt>
<trkpt lat="29.803373" lon="102.221497">
<time>2015-08-06T01:07:56Z</time></trkpt>
<trkpt lat="29.803343" lon="102.221617">
<time>2015-08-06T01:07:57Z</time></trkpt>
<trkpt lat="29.803314" lon="102.221767">
<time>2015-08-06T01:07:58Z</time></trkpt>
<trkpt lat="29.803284" lon="102.221907">
<time>2015-08-06T01:07:59Z</time></trkpt>
<trkpt lat="29.803254" lon="102.222007">
<time>2015-08-06T01:08:00Z</time></trkpt>
<trkpt lat="29.803224" lon="102.222087">
<time>2015-08-06T01:08:01Z</time></trkpt>
<trkpt lat="29.803174" lon="102.222147">
<time>2015-08-06T01:08:02Z</time></trkpt>
<trkpt lat="29.803134" lon="102.222187">
<time>2015-08-06T01:08:03Z</time></trkpt>
<trkpt lat="29.803094" lon="102.222208">
<time>2015-08-06T01:08:04Z</time></trkpt>
<trkpt lat="29.803034" lon="102.222228">
<time>2015-08-06T01:08:05Z</time></trkpt>
<trkpt lat="29.802984" lon="102.222228">
<time>2015-08-06T01:08:06Z</time></trkpt>
<trkpt lat="29.802924" lon="102.222218">
<time>2015-08-06T01:08:07Z</time></trkpt>
<trkpt lat="29.802864" lon="102.222187">
<time>2015-08-06T01:08:08Z</time></trkpt>
<trkpt lat="29.802824" lon="102.222137">
<time>2015-08-06T01:08:09Z</time></trkpt>
<trkpt lat="29.802794" lon="102.222067">
<time>2015-08-06T01:08:10Z</time></trkpt>
<trkpt lat="29.802784" lon="102.221987">
<time>2015-08-06T01:08:11Z</time></trkpt>
<trkpt lat="29.802784" lon="102.221897">
<time>2015-08-06T01:08:12Z</time></trkpt>
<trkpt lat="29.802794" lon="102.221817">
<time>2015-08-06T01:08:13Z</time></trkpt>
<trkpt lat="29.802834" lon="102.221717">
<time>2015-08-06T01:08:14Z</time></trkpt>
<trkpt lat="29.802923" lon="102.221547">
<time>2015-08-06T01:08:15Z</time></trkpt>
<trkpt lat="29.803043" lon="102.221326">
<time>2015-08-06T01:08:16Z</time></trkpt>
<trkpt lat="29.803193" lon="102.221106">
<time>2015-08-06T01:08:17Z</time></trkpt>
<trkpt lat="29.803343" lon="102.220926">
<time>2015-08-06T01:08:18Z</time></trkpt>
<trkpt lat="29.803523" lon="102.220756">
<time>2015-08-06T01:08:19Z</time></trkpt>
<trkpt lat="29.803652" lon="102.220665">
<time>2015-08-06T01:08:20Z</time></trkpt>
<trkpt lat="29.803792" lon="102.220595">
<time>2015-08-06T01:08:21Z</time></trkpt>
<trkpt lat="29.803992" lon="102.220535">
<time>2015-08-06T01:08:22Z</time></trkpt>
<trkpt lat="29.804152" lon="102.220495">
<time>2015-08-06T01:08:23Z</time></trkpt>
<trkpt lat="29.804312" lon="102.220485">
<time>2015-08-06T01:08:24Z</time></trkpt>
<trkpt lat="29.804442" lon="102.220495">
<time>2015-08-06T01:08:25Z</time></trkpt>
<trkpt lat="29.804582" lon="102.220505">
<time>2015-08-06T01:08:26Z</time></trkpt>
<trkpt lat="29.804822" lon="102.220545">
<time>2015-08-06T01:08:27Z</time></trkpt>
<trkpt lat="29.805452" lon="102.220675">
<time>2015-08-06T01:08:28Z</time></trkpt>
<trkpt lat="29.805602" lon="102.220705">
<time>2015-08-06T01:08:29Z</time></trkpt>
<trkpt lat="29.805742" lon="102.220755">
<time>2015-08-06T01:08:30Z</time></trkpt>
<trkpt lat="29.805842" lon="102.220816">
<time>2015-08-06T01:08:31Z</time></trkpt>
<trkpt lat="29.805932" lon="102.220886">
<time>2015-08-06T01:08:32Z</time></trkpt>
<trkpt lat="29.806003" lon="102.220966">
<time>2015-08-06T01:08:33Z</time></trkpt>
<trkpt lat="29.806063" lon="102.221066">
<time>2015-08-06T01:08:34Z</time></trkpt>
<trkpt lat="29.806113" lon="102.221176">
<time>2015-08-06T01:08:35Z</time></trkpt>
<trkpt lat="29.806163" lon="102.221326">
<time>2015-08-06T01:08:36Z</time></trkpt>
<trkpt lat="29.806223" lon="102.221597">
<time>2015-08-06T01:08:37Z</time></trkpt>
<trkpt lat="29.806283" lon="102.221847">
<time>2015-08-06T01:08:38Z</time></trkpt>
<trkpt lat="29.806344" lon="102.222067">
<time>2015-08-06T01:08:39Z</time></trkpt>
<trkpt lat="29.806414" lon="102.222247">
<time>2015-08-06T01:08:40Z</time></trkpt>
<trkpt lat="29.806504" lon="102.222418">
<time>2015-08-06T01:08:41Z</time></trkpt>
<trkpt lat="29.806584" lon="102.222518">
<time>2015-08-06T01:08:42Z</time></trkpt>
<trkpt lat="29.806694" lon="102.222628">
<time>2015-08-06T01:08:43Z</time></trkpt>
<trkpt lat="29.806794" lon="102.222708">
<time>2015-08-06T01:08:44Z</time></trkpt>
<trkpt lat="29.806924" lon="102.222788">
<time>2015-08-06T01:08:45Z</time></trkpt>
<trkpt lat="29.807104" lon="102.222848">
<time>2015-08-06T01:08:46Z</time></trkpt>
<trkpt lat="29.807324" lon="102.222908">
<time>2015-08-06T01:08:47Z</time></trkpt>
<trkpt lat="29.807674" lon="102.222978">
<time>2015-08-06T01:08:48Z</time></trkpt>
<trkpt lat="29.808024" lon="102.223068">
<time>2015-08-06T01:08:49Z</time></trkpt>
<trkpt lat="29.808404" lon="102.223179">
<time>2015-08-06T01:08:50Z</time></trkpt>
<trkpt lat="29.809005" lon="102.223369">
<time>2015-08-06T01:08:51Z</time></trkpt>
<trkpt lat="29.809675" lon="102.223589">
<time>2015-08-06T01:08:52Z</time></trkpt>
<trkpt lat="29.810185" lon="102.223749">
<time>2015-08-06T01:08:53Z</time></trkpt>
<trkpt lat="29.810495" lon="102.223809">
<time>2015-08-06T01:08:54Z</time></trkpt>
<trkpt lat="29.810685" lon="102.223819">
<time>2015-08-06T01:08:55Z</time></trkpt>
<trkpt lat="29.810845" lon="102.223809">
<time>2015-08-06T01:08:56Z</time></trkpt>
<trkpt lat="29.811025" lon="102.223779">
<time>2015-08-06T01:08:57Z</time></trkpt>
<trkpt lat="29.811345" lon="102.223719">
<time>2015-08-06T01:08:58Z</time></trkpt>
<trkpt lat="29.811565" lon="102.223679">
<time>2015-08-06T01:08:59Z</time></trkpt>
<trkpt lat="29.811775" lon="102.223659">
<time>2015-08-06T01:09:00Z</time></trkpt>
<trkpt lat="29.811935" lon="102.223659">
<time>2015-08-06T01:09:01Z</time></trkpt>
<trkpt lat="29.812105" lon="102.223669">
<time>2015-08-06T01:09:02Z</time></trkpt>
<trkpt lat="29.812275" lon="102.223679">
<time>2015-08-06T01:09:03Z</time></trkpt>
<trkpt lat="29.812415" lon="102.223669">
<time>2015-08-06T01:09:04Z</time></trkpt>
<trkpt lat="29.812544" lon="102.223649">
<time>2015-08-06T01:09:05Z</time></trkpt>
<trkpt lat="29.812664" lon="102.223599">
<time>2015-08-06T01:09:06Z</time></trkpt>
<trkpt lat="29.812824" lon="102.223509">
<time>2015-08-06T01:09:07Z</time></trkpt>
<trkpt lat="29.813024" lon="102.223359">
<time>2015-08-06T01:09:08Z</time></trkpt>
<trkpt lat="29.813194" lon="102.223238">
<time>2015-08-06T01:09:09Z</time></trkpt>
<trkpt lat="29.813304" lon="102.223188">
<time>2015-08-06T01:09:10Z</time></trkpt>
<trkpt lat="29.813424" lon="102.223148">
<time>2015-08-06T01:09:11Z</time></trkpt>
<trkpt lat="29.813554" lon="102.223118">
<time>2015-08-06T01:09:12Z</time></trkpt>
<trkpt lat="29.813704" lon="102.223118">
<time>2015-08-06T01:09:13Z</time></trkpt>
<trkpt lat="29.813994" lon="102.223138">
<time>2015-08-06T01:09:14Z</time></trkpt>
<trkpt lat="29.814414" lon="102.223208">
<time>2015-08-06T01:09:15Z</time></trkpt>
<trkpt lat="29.814564" lon="102.223248">
<time>2015-08-06T01:09:16Z</time></trkpt>
<trkpt lat="29.814714" lon="102.223309">
<time>2015-08-06T01:09:17Z</time></trkpt>
<trkpt lat="29.814874" lon="102.223409">
<time>2015-08-06T01:09:18Z</time></trkpt>
<trkpt lat="29.815054" lon="102.223559">
<time>2015-08-06T01:09:19Z</time></trkpt>
<trkpt lat="29.815234" lon="102.223719">
<time>2015-08-06T01:09:20Z</time></trkpt>
<trkpt lat="29.815404" lon="102.223859">
<time>2015-08-06T01:09:21Z</time></trkpt>
<trkpt lat="29.815545" lon="102.223959">
<time>2015-08-06T01:09:22Z</time></trkpt>
<trkpt lat="29.815705" lon="102.224049">
<time>2015-08-06T01:09:23Z</time></trkpt>
<trkpt lat="29.815835" lon="102.224109">
<time>2015-08-06T01:09:24Z</time></trkpt>
<trkpt lat="29.816005" lon="102.22419">
<time>2015-08-06T01:09:25Z</time></trkpt>
<trkpt lat="29.816195" lon="102.22426">
<time>2015-08-06T01:09:26Z</time></trkpt>
<trkpt lat="29.816315" lon="102.22433">
<time>2015-08-06T01:09:27Z</time></trkpt>
<trkpt lat="29.816445" lon="102.22441">
<time>2015-08-06T01:09:28Z</time></trkpt>
<trkpt lat="29.816555" lon="102.2245">
<time>2015-08-06T01:09:29Z</time></trkpt>
<trkpt lat="29.816665" lon="102.22459">
<time>2015-08-06T01:09:30Z</time></trkpt>
<trkpt lat="29.816795" lon="102.2247">
<time>2015-08-06T01:09:31Z</time></trkpt>
<trkpt lat="29.816935" lon="102.22478">
<time>2015-08-06T01:09:32Z</time></trkpt>
<trkpt lat="29.817055" lon="102.22482">
<time>2015-08-06T01:09:33Z</time></trkpt>
<trkpt lat="29.817205" lon="102.22485">
<time>2015-08-06T01:09:34Z</time></trkpt>
<trkpt lat="29.817395" lon="102.22486">
<time>2015-08-06T01:09:35Z</time></trkpt>
<trkpt lat="29.817715" lon="102.22487">
<time>2015-08-06T01:09:36Z</time></trkpt>
<trkpt lat="29.817925" lon="102.22489">
<time>2015-08-06T01:09:37Z</time></trkpt>
<trkpt lat="29.818095" lon="102.22492">
<time>2015-08-06T01:09:38Z</time></trkpt>
<trkpt lat="29.818235" lon="102.22497">
<time>2015-08-06T01:09:39Z</time></trkpt>
<trkpt lat="29.818475" lon="102.225061">
<time>2015-08-06T01:09:40Z</time></trkpt>
<trkpt lat="29.818855" lon="102.225221">
<time>2015-08-06T01:09:41Z</time></trkpt>
<trkpt lat="29.819285" lon="102.225431">
<time>2015-08-06T01:09:42Z</time></trkpt>
<trkpt lat="29.819445" lon="102.225501">
<time>2015-08-06T01:09:43Z</time></trkpt>
<trkpt lat="29.819826" lon="102.225651">
<time>2015-08-06T01:09:44Z</time></trkpt>
<trkpt lat="29.820166" lon="102.225741">
<time>2015-08-06T01:09:45Z</time></trkpt>
<trkpt lat="29.820956" lon="102.225931">
<time>2015-08-06T01:09:46Z</time></trkpt>
<trkpt lat="29.821446" lon="102.226072">
<time>2015-08-06T01:09:47Z</time></trkpt>
<trkpt lat="29.821606" lon="102.226142">
<time>2015-08-06T01:09:48Z</time></trkpt>
<trkpt lat="29.821886" lon="102.226282">
<time>2015-08-06T01:09:49Z</time></trkpt>
<trkpt lat="29.822416" lon="102.226592">
<time>2015-08-06T01:09:50Z</time></trkpt>
<trkpt lat="29.822736" lon="102.226792">
<time>2015-08-06T01:09:51Z</time></trkpt>
<trkpt lat="29.822996" lon="102.226953">
<time>2015-08-06T01:09:52Z</time></trkpt>
<trkpt lat="29.823236" lon="102.227083">
<time>2015-08-06T01:09:53Z</time></trkpt>
<trkpt lat="29.823567" lon="102.227233">
<time>2015-08-06T01:09:54Z</time></trkpt>
<trkpt lat="29.823987" lon="102.227403">
<time>2015-08-06T01:09:55Z</time></trkpt>
<trkpt lat="29.824297" lon="102.227573">
<time>2015-08-06T01:09:56Z</time></trkpt>
<trkpt lat="29.824477" lon="102.227693">
<time>2015-08-06T01:09:57Z</time></trkpt>
<trkpt lat="29.824687" lon="102.227853">
<time>2015-08-06T01:09:58Z</time></trkpt>
<trkpt lat="29.824867" lon="102.228004">
<time>2015-08-06T01:09:59Z</time></trkpt>
<trkpt lat="29.825067" lon="102.228124">
<time>2015-08-06T01:10:00Z</time></trkpt>
<trkpt lat="29.825277" lon="102.228224">
<time>2015-08-06T01:10:01Z</time></trkpt>
<trkpt lat="29.825547" lon="102.228354">
<time>2015-08-06T01:10:02Z</time></trkpt>
<trkpt lat="29.825807" lon="102.228474">
<time>2015-08-06T01:10:03Z</time></trkpt>
<trkpt lat="29.826057" lon="102.228614">
<time>2015-08-06T01:10:04Z</time></trkpt>
<trkpt lat="29.826438" lon="102.228854">
<time>2015-08-06T01:10:05Z</time></trkpt>
<trkpt lat="29.826718" lon="102.229035">
<time>2015-08-06T01:10:06Z</time></trkpt>
<trkpt lat="29.826918" lon="102.229155">
<time>2015-08-06T01:10:07Z</time></trkpt>
<trkpt lat="29.827118" lon="102.229255">
<time>2015-08-06T01:10:08Z</time></trkpt>
<trkpt lat="29.827328" lon="102.229315">
<time>2015-08-06T01:10:09Z</time></trkpt>
<trkpt lat="29.827498" lon="102.229335">
<time>2015-08-06T01:10:10Z</time></trkpt>
<trkpt lat="29.827648" lon="102.229325">
<time>2015-08-06T01:10:11Z</time></trkpt>
<trkpt lat="29.827788" lon="102.229305">
<time>2015-08-06T01:10:12Z</time></trkpt>
<trkpt lat="29.827968" lon="102.229265">
<time>2015-08-06T01:10:13Z</time></trkpt>
<trkpt lat="29.828348" lon="102.229165">
<time>2015-08-06T01:10:14Z</time></trkpt>
<trkpt lat="29.829197" lon="102.228944">
<time>2015-08-06T01:10:15Z</time></trkpt>
<trkpt lat="29.829347" lon="102.228894">
<time>2015-08-06T01:10:16Z</time></trkpt>
<trkpt lat="29.829417" lon="102.228864">
<time>2015-08-06T01:10:17Z</time></trkpt>
<trkpt lat="29.829477" lon="102.228824">
<time>2015-08-06T01:10:18Z</time></trkpt>
<trkpt lat="29.829517" lon="102.228794">
<time>2015-08-06T01:10:19Z</time></trkpt>
<trkpt lat="29.829557" lon="102.228754">
<time>2015-08-06T01:10:20Z</time></trkpt>
<trkpt lat="29.829587" lon="102.228704">
<time>2015-08-06T01:10:21Z</time></trkpt>
<trkpt lat="29.829617" lon="102.228644">
<time>2015-08-06T01:10:22Z</time></trkpt>
<trkpt lat="29.829637" lon="102.228584">
<time>2015-08-06T01:10:23Z</time></trkpt>
<trkpt lat="29.829637" lon="102.228514">
<time>2015-08-06T01:10:24Z</time></trkpt>
<trkpt lat="29.829627" lon="102.228454">
<time>2015-08-06T01:10:25Z</time></trkpt>
<trkpt lat="29.829607" lon="102.228404">
<time>2015-08-06T01:10:26Z</time></trkpt>
<trkpt lat="29.829587" lon="102.228354">
<time>2015-08-06T01:10:27Z</time></trkpt>
<trkpt lat="29.829557" lon="102.228304">
<time>2015-08-06T01:10:28Z</time></trkpt>
<trkpt lat="29.829507" lon="102.228274">
<time>2015-08-06T01:10:29Z</time></trkpt>
<trkpt lat="29.829457" lon="102.228234">
<time>2015-08-06T01:10:30Z</time></trkpt>
<trkpt lat="29.829397" lon="102.228204">
<time>2015-08-06T01:10:31Z</time></trkpt>
<trkpt lat="29.829307" lon="102.228174">
<time>2015-08-06T01:10:32Z</time></trkpt>
<trkpt lat="29.829187" lon="102.228154">
<time>2015-08-06T01:10:33Z</time></trkpt>
<trkpt lat="29.828757" lon="102.228074">
<time>2015-08-06T01:10:34Z</time></trkpt>
<trkpt lat="29.828087" lon="102.227973">
<time>2015-08-06T01:10:35Z</time></trkpt>
<trkpt lat="29.827817" lon="102.227923">
<time>2015-08-06T01:10:36Z</time></trkpt>
<trkpt lat="29.827687" lon="102.227903">
<time>2015-08-06T01:10:37Z</time></trkpt>
<trkpt lat="29.827567" lon="102.227863">
<time>2015-08-06T01:10:38Z</time></trkpt>
<trkpt lat="29.827457" lon="102.227823">
<time>2015-08-06T01:10:39Z</time></trkpt>
<trkpt lat="29.827347" lon="102.227753">
<time>2015-08-06T01:10:40Z</time></trkpt>
<trkpt lat="29.827237" lon="102.227663">
<time>2015-08-06T01:10:41Z</time></trkpt>
<trkpt lat="29.827147" lon="102.227573">
<time>2015-08-06T01:10:42Z</time></trkpt>
<trkpt lat="29.827056" lon="102.227443">
<time>2015-08-06T01:10:43Z</time></trkpt>
<trkpt lat="29.826996" lon="102.227313">
<time>2015-08-06T01:10:44Z</time></trkpt>
<trkpt lat="29.826956" lon="102.227213">
<time>2015-08-06T01:10:45Z</time></trkpt>
<trkpt lat="29.826926" lon="102.227073">
<time>2015-08-06T01:10:46Z</time></trkpt>
<trkpt lat="29.826896" lon="102.226882">
<time>2015-08-06T01:10:47Z</time></trkpt>
<trkpt lat="29.826866" lon="102.226602">
<time>2015-08-06T01:10:48Z</time></trkpt>
<trkpt lat="29.826805" lon="102.225571">
<time>2015-08-06T01:10:49Z</time></trkpt>
<trkpt lat="29.826775" lon="102.22516">
<time>2015-08-06T01:10:50Z</time></trkpt>
<trkpt lat="29.826784" lon="102.22496">
<time>2015-08-06T01:10:51Z</time></trkpt>
<trkpt lat="29.826794" lon="102.2248">
<time>2015-08-06T01:10:52Z</time></trkpt>
<trkpt lat="29.826834" lon="102.22467">
<time>2015-08-06T01:10:53Z</time></trkpt>
<trkpt lat="29.826884" lon="102.22453">
<time>2015-08-06T01:10:54Z</time></trkpt>
<trkpt lat="29.826944" lon="102.224389">
<time>2015-08-06T01:10:55Z</time></trkpt>
<trkpt lat="29.827034" lon="102.224239">
<time>2015-08-06T01:10:56Z</time></trkpt>
<trkpt lat="29.827164" lon="102.224039">
<time>2015-08-06T01:10:57Z</time></trkpt>
<trkpt lat="29.827323" lon="102.223799">
<time>2015-08-06T01:10:58Z</time></trkpt>
<trkpt lat="29.827433" lon="102.223608">
<time>2015-08-06T01:10:59Z</time></trkpt>
<trkpt lat="29.827543" lon="102.223408">
<time>2015-08-06T01:11:00Z</time></trkpt>
<trkpt lat="29.827603" lon="102.223248">
<time>2015-08-06T01:11:01Z</time></trkpt>
<trkpt lat="29.827633" lon="102.223128">
<time>2015-08-06T01:11:02Z</time></trkpt>
<trkpt lat="29.827663" lon="102.222978">
<time>2015-08-06T01:11:03Z</time></trkpt>
<trkpt lat="29.827673" lon="102.222858">
<time>2015-08-06T01:11:04Z</time></trkpt>
<trkpt lat="29.827672" lon="102.222737">
<time>2015-08-06T01:11:05Z</time></trkpt>
<trkpt lat="29.827662" lon="102.222607">
<time>2015-08-06T01:11:06Z</time></trkpt>
<trkpt lat="29.827632" lon="102.222437">
<time>2015-08-06T01:11:07Z</time></trkpt>
<trkpt lat="29.827602" lon="102.222277">
<time>2015-08-06T01:11:08Z</time></trkpt>
<trkpt lat="29.827592" lon="102.222187">
<time>2015-08-06T01:11:09Z</time></trkpt>
<trkpt lat="29.827552" lon="102.221996">
<time>2015-08-06T01:11:10Z</time></trkpt>
<trkpt lat="29.827542" lon="102.221836">
<time>2015-08-06T01:11:11Z</time></trkpt>
<trkpt lat="29.827542" lon="102.221726">
<time>2015-08-06T01:11:12Z</time></trkpt>
<trkpt lat="29.827561" lon="102.221606">
<time>2015-08-06T01:11:13Z</time></trkpt>
<trkpt lat="29.827591" lon="102.221526">
<time>2015-08-06T01:11:14Z</time></trkpt>
<trkpt lat="29.827621" lon="102.221436">
<time>2015-08-06T01:11:15Z</time></trkpt>
<trkpt lat="29.827671" lon="102.221366">
<time>2015-08-06T01:11:16Z</time></trkpt>
<trkpt lat="29.827731" lon="102.221295">
<time>2015-08-06T01:11:17Z</time></trkpt>
<trkpt lat="29.827811" lon="102.221235">
<time>2015-08-06T01:11:18Z</time></trkpt>
<trkpt lat="29.827891" lon="102.221195">
<time>2015-08-06T01:11:19Z</time></trkpt>
<trkpt lat="29.827981" lon="102.221155">
<time>2015-08-06T01:11:20Z</time></trkpt>
<trkpt lat="29.828121" lon="102.221125">
<time>2015-08-06T01:11:21Z</time></trkpt>
<trkpt lat="29.828281" lon="102.221095">
<time>2015-08-06T01:11:22Z</time></trkpt>
<trkpt lat="29.828471" lon="102.221075">
<time>2015-08-06T01:11:23Z</time></trkpt>
<trkpt lat="29.828661" lon="102.221075">
<time>2015-08-06T01:11:24Z</time></trkpt>
<trkpt lat="29.828801" lon="102.221075">
<time>2015-08-06T01:11:25Z</time></trkpt>
<trkpt lat="29.829001" lon="102.221095">
<time>2015-08-06T01:11:26Z</time></trkpt>
<trkpt lat="29.829461" lon="102.221155">
<time>2015-08-06T01:11:27Z</time></trkpt>
<trkpt lat="29.829711" lon="102.221195">
<time>2015-08-06T01:11:28Z</time></trkpt>
<trkpt lat="29.829791" lon="102.221205">
<time>2015-08-06T01:11:29Z</time></trkpt>
<trkpt lat="29.829851" lon="102.221205">
<time>2015-08-06T01:11:30Z</time></trkpt>
<trkpt lat="29.829911" lon="102.221195">
<time>2015-08-06T01:11:31Z</time></trkpt>
<trkpt lat="29.829971" lon="102.221165">
<time>2015-08-06T01:11:32Z</time></trkpt>
<trkpt lat="29.830011" lon="102.221135">
<time>2015-08-06T01:11:33Z</time></trkpt>
<trkpt lat="29.830051" lon="102.221105">
<time>2015-08-06T01:11:34Z</time></trkpt>
<trkpt lat="29.830081" lon="102.221065">
<time>2015-08-06T01:11:35Z</time></trkpt>
<trkpt lat="29.830091" lon="102.221015">
<time>2015-08-06T01:11:36Z</time></trkpt>
<trkpt lat="29.830111" lon="102.220975">
<time>2015-08-06T01:11:37Z</time></trkpt>
<trkpt lat="29.830111" lon="102.220925">
<time>2015-08-06T01:11:38Z</time></trkpt>
<trkpt lat="29.8301" lon="102.220875">
<time>2015-08-06T01:11:39Z</time></trkpt>
<trkpt lat="29.83009" lon="102.220825">
<time>2015-08-06T01:11:40Z</time></trkpt>
<trkpt lat="29.83006" lon="102.220785">
<time>2015-08-06T01:11:41Z</time></trkpt>
<trkpt lat="29.83003" lon="102.220755">
<time>2015-08-06T01:11:42Z</time></trkpt>
<trkpt lat="29.83" lon="102.220725">
<time>2015-08-06T01:11:43Z</time></trkpt>
<trkpt lat="29.82996" lon="102.220695">
<time>2015-08-06T01:11:44Z</time></trkpt>
<trkpt lat="29.82991" lon="102.220685">
<time>2015-08-06T01:11:45Z</time></trkpt>
<trkpt lat="29.82986" lon="102.220675">
<time>2015-08-06T01:11:46Z</time></trkpt>
<trkpt lat="29.82981" lon="102.220665">
<time>2015-08-06T01:11:47Z</time></trkpt>
<trkpt lat="29.82974" lon="102.220665">
<time>2015-08-06T01:11:48Z</time></trkpt>
<trkpt lat="29.82967" lon="102.220675">
<time>2015-08-06T01:11:49Z</time></trkpt>
<trkpt lat="29.82903" lon="102.220735">
<time>2015-08-06T01:11:50Z</time></trkpt>
<trkpt lat="29.828541" lon="102.220785">
<time>2015-08-06T01:11:51Z</time></trkpt>
<trkpt lat="29.828271" lon="102.220785">
<time>2015-08-06T01:11:52Z</time></trkpt>
<trkpt lat="29.827941" lon="102.220775">
<time>2015-08-06T01:11:53Z</time></trkpt>
<trkpt lat="29.827481" lon="102.220745">
<time>2015-08-06T01:11:54Z</time></trkpt>
<trkpt lat="29.827221" lon="102.220725">
<time>2015-08-06T01:11:55Z</time></trkpt>
<trkpt lat="29.827091" lon="102.220725">
<time>2015-08-06T01:11:56Z</time></trkpt>
<trkpt lat="29.826991" lon="102.220745">
<time>2015-08-06T01:11:57Z</time></trkpt>
<trkpt lat="29.826881" lon="102.220775">
<time>2015-08-06T01:11:58Z</time></trkpt>
<trkpt lat="29.826781" lon="102.220825">
<time>2015-08-06T01:11:59Z</time></trkpt>
<trkpt lat="29.826701" lon="102.220875">
<time>2015-08-06T01:12:00Z</time></trkpt>
<trkpt lat="29.826621" lon="102.220955">
<time>2015-08-06T01:12:01Z</time></trkpt>
<trkpt lat="29.826561" lon="102.221025">
<time>2015-08-06T01:12:02Z</time></trkpt>
<trkpt lat="29.826501" lon="102.221125">
<time>2015-08-06T01:12:03Z</time></trkpt>
<trkpt lat="29.826441" lon="102.221255">
<time>2015-08-06T01:12:04Z</time></trkpt>
<trkpt lat="29.826381" lon="102.221436">
<time>2015-08-06T01:12:05Z</time></trkpt>
<trkpt lat="29.826053" lon="102.222727">
<time>2015-08-06T01:12:06Z</time></trkpt>
<trkpt lat="29.825764" lon="102.223879">
<time>2015-08-06T01:12:07Z</time></trkpt>
<trkpt lat="29.825694" lon="102.224079">
<time>2015-08-06T01:12:08Z</time></trkpt>
<trkpt lat="29.825624" lon="102.224269">
<time>2015-08-06T01:12:09Z</time></trkpt>
<trkpt lat="29.825554" lon="102.22442">
<time>2015-08-06T01:12:10Z</time></trkpt>
<trkpt lat="29.825494" lon="102.2245">
<time>2015-08-06T01:12:11Z</time></trkpt>
<trkpt lat="29.825414" lon="102.22458">
<time>2015-08-06T01:12:12Z</time></trkpt>
<trkpt lat="29.825344" lon="102.22464">
<time>2015-08-06T01:12:13Z</time></trkpt>
<trkpt lat="29.825254" lon="102.2247">
<time>2015-08-06T01:12:14Z</time></trkpt>
<trkpt lat="29.825174" lon="102.22473">
<time>2015-08-06T01:12:15Z</time></trkpt>
<trkpt lat="29.825114" lon="102.22474">
<time>2015-08-06T01:12:16Z</time></trkpt>
<trkpt lat="29.825054" lon="102.22474">
<time>2015-08-06T01:12:17Z</time></trkpt>
<trkpt lat="29.824954" lon="102.22474">
<time>2015-08-06T01:12:18Z</time></trkpt>
<trkpt lat="29.824874" lon="102.22472">
<time>2015-08-06T01:12:19Z</time></trkpt>
<trkpt lat="29.824804" lon="102.22469">
<time>2015-08-06T01:12:20Z</time></trkpt>
<trkpt lat="29.824724" lon="102.22466">
<time>2015-08-06T01:12:21Z</time></trkpt>
<trkpt lat="29.824664" lon="102.2246">
<time>2015-08-06T01:12:22Z</time></trkpt>
<trkpt lat="29.824604" lon="102.22453">
<time>2015-08-06T01:12:23Z</time></trkpt>
<trkpt lat="29.824544" lon="102.22444">
<time>2015-08-06T01:12:24Z</time></trkpt>
<trkpt lat="29.824494" lon="102.224329">
<time>2015-08-06T01:12:25Z</time></trkpt>
<trkpt lat="29.824474" lon="102.224249">
<time>2015-08-06T01:12:26Z</time></trkpt>
<trkpt lat="29.824454" lon="102.224189">
<time>2015-08-06T01:12:27Z</time></trkpt>
<trkpt lat="29.824454" lon="102.224119">
<time>2015-08-06T01:12:28Z</time></trkpt>
<trkpt lat="29.824454" lon="102.224019">
<time>2015-08-06T01:12:29Z</time></trkpt>
<trkpt lat="29.824474" lon="102.223909">
<time>2015-08-06T01:12:30Z</time></trkpt>
<trkpt lat="29.824504" lon="102.223799">
<time>2015-08-06T01:12:31Z</time></trkpt>
<trkpt lat="29.824544" lon="102.223679">
<time>2015-08-06T01:12:32Z</time></trkpt>
<trkpt lat="29.824593" lon="102.223579">
<time>2015-08-06T01:12:33Z</time></trkpt>
<trkpt lat="29.824663" lon="102.223448">
<time>2015-08-06T01:12:34Z</time></trkpt>
<trkpt lat="29.824743" lon="102.223288">
<time>2015-08-06T01:12:35Z</time></trkpt>
<trkpt lat="29.824923" lon="102.222998">
<time>2015-08-06T01:12:36Z</time></trkpt>
<trkpt lat="29.825103" lon="102.222717">
<time>2015-08-06T01:12:37Z</time></trkpt>
<trkpt lat="29.825212" lon="102.222517">
<time>2015-08-06T01:12:38Z</time></trkpt>
<trkpt lat="29.825272" lon="102.222377">
<time>2015-08-06T01:12:39Z</time></trkpt>
<trkpt lat="29.825322" lon="102.222247">
<time>2015-08-06T01:12:40Z</time></trkpt>
<trkpt lat="29.825342" lon="102.222137">
<time>2015-08-06T01:12:41Z</time></trkpt>
<trkpt lat="29.825352" lon="102.221996">
<time>2015-08-06T01:12:42Z</time></trkpt>
<trkpt lat="29.825352" lon="102.221856">
<time>2015-08-06T01:12:43Z</time></trkpt>
<trkpt lat="29.825342" lon="102.221756">
<time>2015-08-06T01:12:44Z</time></trkpt>
<trkpt lat="29.825332" lon="102.221676">
<time>2015-08-06T01:12:45Z</time></trkpt>
<trkpt lat="29.825312" lon="102.221566">
<time>2015-08-06T01:12:46Z</time></trkpt>
<trkpt lat="29.825291" lon="102.221446">
<time>2015-08-06T01:12:47Z</time></trkpt>
<trkpt lat="29.825211" lon="102.221025">
<time>2015-08-06T01:12:48Z</time></trkpt>
<trkpt lat="29.825171" lon="102.220815">
<time>2015-08-06T01:12:49Z</time></trkpt>
<trkpt lat="29.825131" lon="102.220625">
<time>2015-08-06T01:12:50Z</time></trkpt>
<trkpt lat="29.825111" lon="102.220525">
<time>2015-08-06T01:12:51Z</time></trkpt>
<trkpt lat="29.82508" lon="102.220444">
<time>2015-08-06T01:12:52Z</time></trkpt>
<trkpt lat="29.82505" lon="102.220354">
<time>2015-08-06T01:12:53Z</time></trkpt>
<trkpt lat="29.82502" lon="102.220294">
<time>2015-08-06T01:12:54Z</time></trkpt>
<trkpt lat="29.82502" lon="102.220214">
<time>2015-08-06T01:12:55Z</time></trkpt>
<trkpt lat="29.82505" lon="102.220044">
<time>2015-08-06T01:12:56Z</time></trkpt>
<trkpt lat="29.82507" lon="102.219914">
<time>2015-08-06T01:12:57Z</time></trkpt>
<trkpt lat="29.82509" lon="102.219814">
<time>2015-08-06T01:12:58Z</time></trkpt>
<trkpt lat="29.82509" lon="102.219814">
<time>2015-08-06T01:12:59Z</time></trkpt>
<trkpt lat="29.82513" lon="102.219774">
<time>2015-08-06T01:13:00Z</time></trkpt>
<trkpt lat="29.82529" lon="102.219683">
<time>2015-08-06T01:13:01Z</time></trkpt>
<trkpt lat="29.8254" lon="102.219633">
<time>2015-08-06T01:13:02Z</time></trkpt>
<trkpt lat="29.8255" lon="102.219623">
<time>2015-08-06T01:13:03Z</time></trkpt>
<trkpt lat="29.82562" lon="102.219623">
<time>2015-08-06T01:13:04Z</time></trkpt>
<trkpt lat="29.82572" lon="102.219623">
<time>2015-08-06T01:13:05Z</time></trkpt>
<trkpt lat="29.82589" lon="102.219653">
<time>2015-08-06T01:13:06Z</time></trkpt>
<trkpt lat="29.82623" lon="102.219703">
<time>2015-08-06T01:13:07Z</time></trkpt>
<trkpt lat="29.82707" lon="102.219824">
<time>2015-08-06T01:13:08Z</time></trkpt>
<trkpt lat="29.82739" lon="102.219854">
<time>2015-08-06T01:13:09Z</time></trkpt>
<trkpt lat="29.82776" lon="102.219844">
<time>2015-08-06T01:13:10Z</time></trkpt>
<trkpt lat="29.82821" lon="102.219803">
<time>2015-08-06T01:13:11Z</time></trkpt>
<trkpt lat="29.828599" lon="102.219763">
<time>2015-08-06T01:13:12Z</time></trkpt>
<trkpt lat="29.828919" lon="102.219693">
<time>2015-08-06T01:13:13Z</time></trkpt>
<trkpt lat="29.829229" lon="102.219603">
<time>2015-08-06T01:13:14Z</time></trkpt>
<trkpt lat="29.829629" lon="102.219463">
<time>2015-08-06T01:13:15Z</time></trkpt>
<trkpt lat="29.830319" lon="102.219223">
<time>2015-08-06T01:13:16Z</time></trkpt>
<trkpt lat="29.830739" lon="102.219092">
<time>2015-08-06T01:13:17Z</time></trkpt>
<trkpt lat="29.830959" lon="102.219062">
<time>2015-08-06T01:13:18Z</time></trkpt>
<trkpt lat="29.831129" lon="102.219052">
<time>2015-08-06T01:13:19Z</time></trkpt>
<trkpt lat="29.831339" lon="102.219082">
<time>2015-08-06T01:13:20Z</time></trkpt>
<trkpt lat="29.831549" lon="102.219132">
<time>2015-08-06T01:13:21Z</time></trkpt>
<trkpt lat="29.831819" lon="102.219243">
<time>2015-08-06T01:13:22Z</time></trkpt>
<trkpt lat="29.832139" lon="102.219413">
<time>2015-08-06T01:13:23Z</time></trkpt>
<trkpt lat="29.832429" lon="102.219583">
<time>2015-08-06T01:13:24Z</time></trkpt>
<trkpt lat="29.832679" lon="102.219773">
<time>2015-08-06T01:13:25Z</time></trkpt>
<trkpt lat="29.832979" lon="102.220024">
<time>2015-08-06T01:13:26Z</time></trkpt>
<trkpt lat="29.83335" lon="102.220344">
<time>2015-08-06T01:13:27Z</time></trkpt>
<trkpt lat="29.83338" lon="102.220364">
<time>2015-08-06T01:13:28Z</time></trkpt>
<trkpt lat="29.83343" lon="102.220424">
<time>2015-08-06T01:13:29Z</time></trkpt>
<trkpt lat="29.83346" lon="102.220484">
<time>2015-08-06T01:13:30Z</time></trkpt>
<trkpt lat="29.8335" lon="102.220544">
<time>2015-08-06T01:13:31Z</time></trkpt>
<trkpt lat="29.83352" lon="102.220604">
<time>2015-08-06T01:13:32Z</time></trkpt>
<trkpt lat="29.83353" lon="102.220634">
<time>2015-08-06T01:13:33Z</time></trkpt>
<trkpt lat="29.83353" lon="102.220664">
<time>2015-08-06T01:13:34Z</time></trkpt>
<trkpt lat="29.83353" lon="102.220715">
<time>2015-08-06T01:13:35Z</time></trkpt>
<trkpt lat="29.83351" lon="102.220795">
<time>2015-08-06T01:13:36Z</time></trkpt>
<trkpt lat="29.83348" lon="102.220865">
<time>2015-08-06T01:13:37Z</time></trkpt>
<trkpt lat="29.83343" lon="102.220965">
<time>2015-08-06T01:13:38Z</time></trkpt>
<trkpt lat="29.83335" lon="102.221095">
<time>2015-08-06T01:13:39Z</time></trkpt>
<trkpt lat="29.833201" lon="102.221325">
<time>2015-08-06T01:13:40Z</time></trkpt>
<trkpt lat="29.833031" lon="102.221566">
<time>2015-08-06T01:13:41Z</time></trkpt>
<trkpt lat="29.832931" lon="102.221696">
<time>2015-08-06T01:13:42Z</time></trkpt>
<trkpt lat="29.832811" lon="102.221816">
<time>2015-08-06T01:13:43Z</time></trkpt>
<trkpt lat="29.832651" lon="102.221946">
<time>2015-08-06T01:13:44Z</time></trkpt>
<trkpt lat="29.832501" lon="102.222056">
<time>2015-08-06T01:13:45Z</time></trkpt>
<trkpt lat="29.832372" lon="102.222176">
<time>2015-08-06T01:13:46Z</time></trkpt>
<trkpt lat="29.832262" lon="102.222327">
<time>2015-08-06T01:13:47Z</time></trkpt>
<trkpt lat="29.832182" lon="102.222497">
<time>2015-08-06T01:13:48Z</time></trkpt>
<trkpt lat="29.832122" lon="102.222687">
<time>2015-08-06T01:13:49Z</time></trkpt>
<trkpt lat="29.832082" lon="102.222877">
<time>2015-08-06T01:13:50Z</time></trkpt>
<trkpt lat="29.832023" lon="102.223208">
<time>2015-08-06T01:13:51Z</time></trkpt>
<trkpt lat="29.831993" lon="102.223408">
<time>2015-08-06T01:13:52Z</time></trkpt>
<trkpt lat="29.831993" lon="102.223558">
<time>2015-08-06T01:13:53Z</time></trkpt>
<trkpt lat="29.832033" lon="102.223698">
<time>2015-08-06T01:13:54Z</time></trkpt>
<trkpt lat="29.832073" lon="102.223779">
<time>2015-08-06T01:13:55Z</time></trkpt>
<trkpt lat="29.832133" lon="102.223839">
<time>2015-08-06T01:13:56Z</time></trkpt>
<trkpt lat="29.832233" lon="102.223899">
<time>2015-08-06T01:13:57Z</time></trkpt>
<trkpt lat="29.832333" lon="102.223919">
<time>2015-08-06T01:13:58Z</time></trkpt>
<trkpt lat="29.832433" lon="102.223919">
<time>2015-08-06T01:13:59Z</time></trkpt>
<trkpt lat="29.832573" lon="102.223899">
<time>2015-08-06T01:14:00Z</time></trkpt>
<trkpt lat="29.832713" lon="102.223849">
<time>2015-08-06T01:14:01Z</time></trkpt>
<trkpt lat="29.833063" lon="102.223718">
<time>2015-08-06T01:14:02Z</time></trkpt>
<trkpt lat="29.833353" lon="102.223618">
<time>2015-08-06T01:14:03Z</time></trkpt>
<trkpt lat="29.833673" lon="102.223538">
<time>2015-08-06T01:14:04Z</time></trkpt>
<trkpt lat="29.834253" lon="102.223408">
<time>2015-08-06T01:14:05Z</time></trkpt>
<trkpt lat="29.834383" lon="102.223368">
<time>2015-08-06T01:14:06Z</time></trkpt>
<trkpt lat="29.834592" lon="102.223298">
<time>2015-08-06T01:14:07Z</time></trkpt>
<trkpt lat="29.834762" lon="102.223208">
<time>2015-08-06T01:14:08Z</time></trkpt>
<trkpt lat="29.834872" lon="102.223138">
<time>2015-08-06T01:14:09Z</time></trkpt>
<trkpt lat="29.834982" lon="102.223058">
<time>2015-08-06T01:14:10Z</time></trkpt>
<trkpt lat="29.835082" lon="102.222987">
<time>2015-08-06T01:14:11Z</time></trkpt>
<trkpt lat="29.835182" lon="102.222887">
<time>2015-08-06T01:14:12Z</time></trkpt>
<trkpt lat="29.835502" lon="102.222557">
<time>2015-08-06T01:14:13Z</time></trkpt>
<trkpt lat="29.835951" lon="102.222076">
<time>2015-08-06T01:14:14Z</time></trkpt>
<trkpt lat="29.836191" lon="102.221836">
<time>2015-08-06T01:14:15Z</time></trkpt>
<trkpt lat="29.836321" lon="102.221706">
<time>2015-08-06T01:14:16Z</time></trkpt>
<trkpt lat="29.836381" lon="102.221646">
<time>2015-08-06T01:14:17Z</time></trkpt>
<trkpt lat="29.836501" lon="102.221566">
<time>2015-08-06T01:14:18Z</time></trkpt>
<trkpt lat="29.836571" lon="102.221525">
<time>2015-08-06T01:14:19Z</time></trkpt>
<trkpt lat="29.836641" lon="102.221485">
<time>2015-08-06T01:14:20Z</time></trkpt>
<trkpt lat="29.836761" lon="102.221445">
<time>2015-08-06T01:14:21Z</time></trkpt>
<trkpt lat="29.836871" lon="102.221415">
<time>2015-08-06T01:14:22Z</time></trkpt>
<trkpt lat="29.83719" lon="102.221345">
<time>2015-08-06T01:14:23Z</time></trkpt>
<trkpt lat="29.83741" lon="102.221285">
<time>2015-08-06T01:14:24Z</time></trkpt>
<trkpt lat="29.83758" lon="102.221235">
<time>2015-08-06T01:14:25Z</time></trkpt>
<trkpt lat="29.83776" lon="102.221165">
<time>2015-08-06T01:14:26Z</time></trkpt>
<trkpt lat="29.83792" lon="102.221085">
<time>2015-08-06T01:14:27Z</time></trkpt>
<trkpt lat="29.83818" lon="102.220935">
<time>2015-08-06T01:14:28Z</time></trkpt>
<trkpt lat="29.83863" lon="102.220624">
<time>2015-08-06T01:14:29Z</time></trkpt>
<trkpt lat="29.839519" lon="102.220003">
<time>2015-08-06T01:14:30Z</time></trkpt>
<trkpt lat="29.840318" lon="102.219453">
<time>2015-08-06T01:14:31Z</time></trkpt>
<trkpt lat="29.840568" lon="102.219262">
<time>2015-08-06T01:14:32Z</time></trkpt>
<trkpt lat="29.840648" lon="102.219192">
<time>2015-08-06T01:14:33Z</time></trkpt>
<trkpt lat="29.840708" lon="102.219132">
<time>2015-08-06T01:14:34Z</time></trkpt>
<trkpt lat="29.840748" lon="102.219072">
<time>2015-08-06T01:14:35Z</time></trkpt>
<trkpt lat="29.840788" lon="102.219002">
<time>2015-08-06T01:14:36Z</time></trkpt>
<trkpt lat="29.840818" lon="102.218932">
<time>2015-08-06T01:14:37Z</time></trkpt>
<trkpt lat="29.840828" lon="102.218872">
<time>2015-08-06T01:14:38Z</time></trkpt>
<trkpt lat="29.840838" lon="102.218782">
<time>2015-08-06T01:14:39Z</time></trkpt>
<trkpt lat="29.840838" lon="102.218722">
<time>2015-08-06T01:14:40Z</time></trkpt>
<trkpt lat="29.840817" lon="102.218641">
<time>2015-08-06T01:14:41Z</time></trkpt>
<trkpt lat="29.840807" lon="102.218581">
<time>2015-08-06T01:14:42Z</time></trkpt>
<trkpt lat="29.840767" lon="102.218511">
<time>2015-08-06T01:14:43Z</time></trkpt>
<trkpt lat="29.840717" lon="102.218441">
<time>2015-08-06T01:14:44Z</time></trkpt>
<trkpt lat="29.840657" lon="102.218381">
<time>2015-08-06T01:14:45Z</time></trkpt>
<trkpt lat="29.840587" lon="102.218321">
<time>2015-08-06T01:14:46Z</time></trkpt>
<trkpt lat="29.840507" lon="102.218271">
<time>2015-08-06T01:14:47Z</time></trkpt>
<trkpt lat="29.840337" lon="102.218181">
<time>2015-08-06T01:14:48Z</time></trkpt>
<trkpt lat="29.839877" lon="102.218011">
<time>2015-08-06T01:14:49Z</time></trkpt>
<trkpt lat="29.839497" lon="102.21787">
<time>2015-08-06T01:14:50Z</time></trkpt>
<trkpt lat="29.839347" lon="102.21781">
<time>2015-08-06T01:14:51Z</time></trkpt>
<trkpt lat="29.839247" lon="102.21775">
<time>2015-08-06T01:14:52Z</time></trkpt>
<trkpt lat="29.839147" lon="102.21767">
<time>2015-08-06T01:14:53Z</time></trkpt>
<trkpt lat="29.839087" lon="102.21762">
<time>2015-08-06T01:14:54Z</time></trkpt>
<trkpt lat="29.839036" lon="102.21755">
<time>2015-08-06T01:14:55Z</time></trkpt>
<trkpt lat="29.838986" lon="102.21744">
<time>2015-08-06T01:14:56Z</time></trkpt>
<trkpt lat="29.838966" lon="102.21736">
<time>2015-08-06T01:14:57Z</time></trkpt>
<trkpt lat="29.838966" lon="102.217259">
<time>2015-08-06T01:14:58Z</time></trkpt>
<trkpt lat="29.838976" lon="102.217149">
<time>2015-08-06T01:14:59Z</time></trkpt>
<trkpt lat="29.838996" lon="102.217059">
<time>2015-08-06T01:15:00Z</time></trkpt>
<trkpt lat="29.839026" lon="102.216989">
<time>2015-08-06T01:15:01Z</time></trkpt>
<trkpt lat="29.839066" lon="102.216919">
<time>2015-08-06T01:15:02Z</time></trkpt>
<trkpt lat="29.839116" lon="102.216859">
<time>2015-08-06T01:15:03Z</time></trkpt>
<trkpt lat="29.839196" lon="102.216789">
<time>2015-08-06T01:15:04Z</time></trkpt>
<trkpt lat="29.839465" lon="102.216608">
<time>2015-08-06T01:15:05Z</time></trkpt>
<trkpt lat="29.840235" lon="102.216138">
<time>2015-08-06T01:15:06Z</time></trkpt>
<trkpt lat="29.840824" lon="102.215787">
<time>2015-08-06T01:15:07Z</time></trkpt>
<trkpt lat="29.841224" lon="102.215567">
<time>2015-08-06T01:15:08Z</time></trkpt>
<trkpt lat="29.841364" lon="102.215497">
<time>2015-08-06T01:15:09Z</time></trkpt>
<trkpt lat="29.841494" lon="102.215467">
<time>2015-08-06T01:15:10Z</time></trkpt>
<trkpt lat="29.841574" lon="102.215447">
<time>2015-08-06T01:15:11Z</time></trkpt>
<trkpt lat="29.841654" lon="102.215447">
<time>2015-08-06T01:15:12Z</time></trkpt>
<trkpt lat="29.841724" lon="102.215447">
<time>2015-08-06T01:15:13Z</time></trkpt>
<trkpt lat="29.841834" lon="102.215457">
<time>2015-08-06T01:15:14Z</time></trkpt>
<trkpt lat="29.841924" lon="102.215487">
<time>2015-08-06T01:15:15Z</time></trkpt>
<trkpt lat="29.842054" lon="102.215537">
<time>2015-08-06T01:15:16Z</time></trkpt>
<trkpt lat="29.842164" lon="102.215587">
<time>2015-08-06T01:15:17Z</time></trkpt>
<trkpt lat="29.842284" lon="102.215677">
<time>2015-08-06T01:15:18Z</time></trkpt>
<trkpt lat="29.842444" lon="102.215797">
<time>2015-08-06T01:15:19Z</time></trkpt>
<trkpt lat="29.842594" lon="102.215907">
<time>2015-08-06T01:15:20Z</time></trkpt>
<trkpt lat="29.842835" lon="102.216068">
<time>2015-08-06T01:15:21Z</time></trkpt>
<trkpt lat="29.842955" lon="102.216138">
<time>2015-08-06T01:15:22Z</time></trkpt>
<trkpt lat="29.843095" lon="102.216218">
<time>2015-08-06T01:15:23Z</time></trkpt>
<trkpt lat="29.843245" lon="102.216278">
<time>2015-08-06T01:15:24Z</time></trkpt>
<trkpt lat="29.843445" lon="102.216348">
<time>2015-08-06T01:15:25Z</time></trkpt>
<trkpt lat="29.843665" lon="102.216408">
<time>2015-08-06T01:15:26Z</time></trkpt>
<trkpt lat="29.844135" lon="102.216508">
<time>2015-08-06T01:15:27Z</time></trkpt>
<trkpt lat="29.844575" lon="102.216578">
<time>2015-08-06T01:15:28Z</time></trkpt>
<trkpt lat="29.845015" lon="102.216668">
<time>2015-08-06T01:15:29Z</time></trkpt>
<trkpt lat="29.845515" lon="102.216768">
<time>2015-08-06T01:15:30Z</time></trkpt>
<trkpt lat="29.845965" lon="102.216859">
<time>2015-08-06T01:15:31Z</time></trkpt>
<trkpt lat="29.846245" lon="102.216889">
<time>2015-08-06T01:15:32Z</time></trkpt>
<trkpt lat="29.846485" lon="102.216889">
<time>2015-08-06T01:15:33Z</time></trkpt>
<trkpt lat="29.846625" lon="102.216879">
<time>2015-08-06T01:15:34Z</time></trkpt>
<trkpt lat="29.846835" lon="102.216849">
<time>2015-08-06T01:15:35Z</time></trkpt>
<trkpt lat="29.846995" lon="102.216798">
<time>2015-08-06T01:15:36Z</time></trkpt>
<trkpt lat="29.847165" lon="102.216738">
<time>2015-08-06T01:15:37Z</time></trkpt>
<trkpt lat="29.847315" lon="102.216668">
<time>2015-08-06T01:15:38Z</time></trkpt>
<trkpt lat="29.847505" lon="102.216558">
<time>2015-08-06T01:15:39Z</time></trkpt>
<trkpt lat="29.847735" lon="102.216428">
<time>2015-08-06T01:15:40Z</time></trkpt>
<trkpt lat="29.848214" lon="102.216107">
<time>2015-08-06T01:15:41Z</time></trkpt>
<trkpt lat="29.848384" lon="102.216007">
<time>2015-08-06T01:15:42Z</time></trkpt>
<trkpt lat="29.848504" lon="102.215967">
<time>2015-08-06T01:15:43Z</time></trkpt>
<trkpt lat="29.848584" lon="102.215947">
<time>2015-08-06T01:15:44Z</time></trkpt>
<trkpt lat="29.848674" lon="102.215927">
<time>2015-08-06T01:15:45Z</time></trkpt>
<trkpt lat="29.848794" lon="102.215927">
<time>2015-08-06T01:15:46Z</time></trkpt>
<trkpt lat="29.848884" lon="102.215937">
<time>2015-08-06T01:15:47Z</time></trkpt>
<trkpt lat="29.848994" lon="102.215957">
<time>2015-08-06T01:15:48Z</time></trkpt>
<trkpt lat="29.849094" lon="102.215987">
<time>2015-08-06T01:15:49Z</time></trkpt>
<trkpt lat="29.849224" lon="102.216037">
<time>2015-08-06T01:15:50Z</time></trkpt>
<trkpt lat="29.849604" lon="102.216187">
<time>2015-08-06T01:15:51Z</time></trkpt>
<trkpt lat="29.850345" lon="102.216478">
<time>2015-08-06T01:15:52Z</time></trkpt>
<trkpt lat="29.850565" lon="102.216578">
<time>2015-08-06T01:15:53Z</time></trkpt>
<trkpt lat="29.850905" lon="102.216698">
<time>2015-08-06T01:15:54Z</time></trkpt>
<trkpt lat="29.851115" lon="102.216748">
<time>2015-08-06T01:15:55Z</time></trkpt>
<trkpt lat="29.851265" lon="102.216778">
<time>2015-08-06T01:15:56Z</time></trkpt>
<trkpt lat="29.851425" lon="102.216788">
<time>2015-08-06T01:15:57Z</time></trkpt>
<trkpt lat="29.851635" lon="102.216778">
<time>2015-08-06T01:15:58Z</time></trkpt>
<trkpt lat="29.851785" lon="102.216778">
<time>2015-08-06T01:15:59Z</time></trkpt>
<trkpt lat="29.852325" lon="102.216718">
<time>2015-08-06T01:16:00Z</time></trkpt>
<trkpt lat="29.852725" lon="102.216668">
<time>2015-08-06T01:16:01Z</time></trkpt>
<trkpt lat="29.853005" lon="102.216618">
<time>2015-08-06T01:16:02Z</time></trkpt>
<trkpt lat="29.853135" lon="102.216588">
<time>2015-08-06T01:16:03Z</time></trkpt>
<trkpt lat="29.853264" lon="102.216558">
<time>2015-08-06T01:16:04Z</time></trkpt>
<trkpt lat="29.853584" lon="102.216458">
<time>2015-08-06T01:16:05Z</time></trkpt>
<trkpt lat="29.854034" lon="102.216287">
<time>2015-08-06T01:16:06Z</time></trkpt>
<trkpt lat="29.854534" lon="102.216077">
<time>2015-08-06T01:16:07Z</time></trkpt>
<trkpt lat="29.854734" lon="102.215977">
<time>2015-08-06T01:16:08Z</time></trkpt>
<trkpt lat="29.854834" lon="102.215917">
<time>2015-08-06T01:16:09Z</time></trkpt>
<trkpt lat="29.854924" lon="102.215847">
<time>2015-08-06T01:16:10Z</time></trkpt>
<trkpt lat="29.855053" lon="102.215757">
<time>2015-08-06T01:16:11Z</time></trkpt>
<trkpt lat="29.855143" lon="102.215677">
<time>2015-08-06T01:16:12Z</time></trkpt>
<trkpt lat="29.855663" lon="102.215146">
<time>2015-08-06T01:16:13Z</time></trkpt>
<trkpt lat="29.855882" lon="102.214925">
<time>2015-08-06T01:16:14Z</time></trkpt>
<trkpt lat="29.856012" lon="102.214825">
<time>2015-08-06T01:16:15Z</time></trkpt>
<trkpt lat="29.856082" lon="102.214775">
<time>2015-08-06T01:16:16Z</time></trkpt>
<trkpt lat="29.856132" lon="102.214765">
<time>2015-08-06T01:16:17Z</time></trkpt>
<trkpt lat="29.856202" lon="102.214755">
<time>2015-08-06T01:16:18Z</time></trkpt>
<trkpt lat="29.856292" lon="102.214765">
<time>2015-08-06T01:16:19Z</time></trkpt>
<trkpt lat="29.856372" lon="102.214775">
<time>2015-08-06T01:16:20Z</time></trkpt>
<trkpt lat="29.856442" lon="102.214815">
<time>2015-08-06T01:16:21Z</time></trkpt>
<trkpt lat="29.856492" lon="102.214855">
<time>2015-08-06T01:16:22Z</time></trkpt>
<trkpt lat="29.856532" lon="102.214905">
<time>2015-08-06T01:16:23Z</time></trkpt>
<trkpt lat="29.856572" lon="102.214965">
<time>2015-08-06T01:16:24Z</time></trkpt>
<trkpt lat="29.856623" lon="102.215056">
<time>2015-08-06T01:16:25Z</time></trkpt>
<trkpt lat="29.856673" lon="102.215216">
<time>2015-08-06T01:16:26Z</time></trkpt>
<trkpt lat="29.856733" lon="102.215466">
<time>2015-08-06T01:16:27Z</time></trkpt>
<trkpt lat="29.856793" lon="102.215676">
<time>2015-08-06T01:16:28Z</time></trkpt>
<trkpt lat="29.856833" lon="102.215787">
<time>2015-08-06T01:16:29Z</time></trkpt>
<trkpt lat="29.856914" lon="102.215957">
<time>2015-08-06T01:16:30Z</time></trkpt>
<trkpt lat="29.856954" lon="102.216037">
<time>2015-08-06T01:16:31Z</time></trkpt>
<trkpt lat="29.857034" lon="102.216137">
<time>2015-08-06T01:16:32Z</time></trkpt>
<trkpt lat="29.857084" lon="102.216217">
<time>2015-08-06T01:16:33Z</time></trkpt>
<trkpt lat="29.857164" lon="102.216297">
<time>2015-08-06T01:16:34Z</time></trkpt>
<trkpt lat="29.857314" lon="102.216468">
<time>2015-08-06T01:16:35Z</time></trkpt>
<trkpt lat="29.857775" lon="102.216858">
<time>2015-08-06T01:16:36Z</time></trkpt>
<trkpt lat="29.858265" lon="102.217279">
<time>2015-08-06T01:16:37Z</time></trkpt>
<trkpt lat="29.858495" lon="102.217449">
<time>2015-08-06T01:16:38Z</time></trkpt>
<trkpt lat="29.858635" lon="102.217539">
<time>2015-08-06T01:16:39Z</time></trkpt>
<trkpt lat="29.858895" lon="102.217689">
<time>2015-08-06T01:16:40Z</time></trkpt>
<trkpt lat="29.859106" lon="102.21782">
<time>2015-08-06T01:16:41Z</time></trkpt>
<trkpt lat="29.859186" lon="102.21787">
<time>2015-08-06T01:16:42Z</time></trkpt>
<trkpt lat="29.859246" lon="102.21791">
<time>2015-08-06T01:16:43Z</time></trkpt>
<trkpt lat="29.859296" lon="102.21797">
<time>2015-08-06T01:16:44Z</time></trkpt>
<trkpt lat="29.859346" lon="102.21802">
<time>2015-08-06T01:16:45Z</time></trkpt>
<trkpt lat="29.859386" lon="102.21809">
<time>2015-08-06T01:16:46Z</time></trkpt>
<trkpt lat="29.859426" lon="102.21817">
<time>2015-08-06T01:16:47Z</time></trkpt>
<trkpt lat="29.859476" lon="102.21831">
<time>2015-08-06T01:16:48Z</time></trkpt>
<trkpt lat="29.859516" lon="102.218511">
<time>2015-08-06T01:16:49Z</time></trkpt>
<trkpt lat="29.859647" lon="102.219262">
<time>2015-08-06T01:16:50Z</time></trkpt>
<trkpt lat="29.859707" lon="102.219562">
<time>2015-08-06T01:16:51Z</time></trkpt>
<trkpt lat="29.859768" lon="102.219842">
<time>2015-08-06T01:16:52Z</time></trkpt>
<trkpt lat="29.859918" lon="102.220363">
<time>2015-08-06T01:16:53Z</time></trkpt>
<trkpt lat="29.860089" lon="102.220904">
<time>2015-08-06T01:16:54Z</time></trkpt>
<trkpt lat="29.860159" lon="102.221124">
<time>2015-08-06T01:16:55Z</time></trkpt>
<trkpt lat="29.860209" lon="102.221244">
<time>2015-08-06T01:16:56Z</time></trkpt>
<trkpt lat="29.860259" lon="102.221354">
<time>2015-08-06T01:16:57Z</time></trkpt>
<trkpt lat="29.860329" lon="102.221485">
<time>2015-08-06T01:16:58Z</time></trkpt>
<trkpt lat="29.86059" lon="102.221905">
<time>2015-08-06T01:16:59Z</time></trkpt>
<trkpt lat="29.8611" lon="102.222686">
<time>2015-08-06T01:17:00Z</time></trkpt>
<trkpt lat="29.861361" lon="102.223067">
<time>2015-08-06T01:17:01Z</time></trkpt>
<trkpt lat="29.861421" lon="102.223127">
<time>2015-08-06T01:17:02Z</time></trkpt>
<trkpt lat="29.861501" lon="102.223197">
<time>2015-08-06T01:17:03Z</time></trkpt>
<trkpt lat="29.861561" lon="102.223227">
<time>2015-08-06T01:17:04Z</time></trkpt>
<trkpt lat="29.861621" lon="102.223247">
<time>2015-08-06T01:17:05Z</time></trkpt>
<trkpt lat="29.861691" lon="102.223257">
<time>2015-08-06T01:17:06Z</time></trkpt>
<trkpt lat="29.861761" lon="102.223247">
<time>2015-08-06T01:17:07Z</time></trkpt>
<trkpt lat="29.861841" lon="102.223217">
<time>2015-08-06T01:17:08Z</time></trkpt>
<trkpt lat="29.861881" lon="102.223197">
<time>2015-08-06T01:17:09Z</time></trkpt>
<trkpt lat="29.861951" lon="102.223137">
<time>2015-08-06T01:17:10Z</time></trkpt>
<trkpt lat="29.862031" lon="102.223057">
<time>2015-08-06T01:17:11Z</time></trkpt>
<trkpt lat="29.86211" lon="102.222946">
<time>2015-08-06T01:17:12Z</time></trkpt>
<trkpt lat="29.86233" lon="102.222616">
<time>2015-08-06T01:17:13Z</time></trkpt>
<trkpt lat="29.86257" lon="102.222195">
<time>2015-08-06T01:17:14Z</time></trkpt>
<trkpt lat="29.86267" lon="102.222015">
<time>2015-08-06T01:17:15Z</time></trkpt>
<trkpt lat="29.862739" lon="102.221845">
<time>2015-08-06T01:17:16Z</time></trkpt>
<trkpt lat="29.862809" lon="102.221655">
<time>2015-08-06T01:17:17Z</time></trkpt>
<trkpt lat="29.862879" lon="102.221414">
<time>2015-08-06T01:17:18Z</time></trkpt>
<trkpt lat="29.862959" lon="102.221144">
<time>2015-08-06T01:17:19Z</time></trkpt>
<trkpt lat="29.863009" lon="102.220944">
<time>2015-08-06T01:17:20Z</time></trkpt>
<trkpt lat="29.863058" lon="102.220824">
<time>2015-08-06T01:17:21Z</time></trkpt>
<trkpt lat="29.863098" lon="102.220744">
<time>2015-08-06T01:17:22Z</time></trkpt>
<trkpt lat="29.863138" lon="102.220683">
<time>2015-08-06T01:17:23Z</time></trkpt>
<trkpt lat="29.863178" lon="102.220643">
<time>2015-08-06T01:17:24Z</time></trkpt>
<trkpt lat="29.863218" lon="102.220603">
<time>2015-08-06T01:17:25Z</time></trkpt>
<trkpt lat="29.863288" lon="102.220553">
<time>2015-08-06T01:17:26Z</time></trkpt>
<trkpt lat="29.863348" lon="102.220523">
<time>2015-08-06T01:17:27Z</time></trkpt>
<trkpt lat="29.863418" lon="102.220503">
<time>2015-08-06T01:17:28Z</time></trkpt>
<trkpt lat="29.863488" lon="102.220493">
<time>2015-08-06T01:17:29Z</time></trkpt>
<trkpt lat="29.863558" lon="102.220493">
<time>2015-08-06T01:17:30Z</time></trkpt>
<trkpt lat="29.863628" lon="102.220503">
<time>2015-08-06T01:17:31Z</time></trkpt>
<trkpt lat="29.863748" lon="102.220533">
<time>2015-08-06T01:17:32Z</time></trkpt>
<trkpt lat="29.864108" lon="102.220623">
<time>2015-08-06T01:17:33Z</time></trkpt>
<trkpt lat="29.864518" lon="102.220723">
<time>2015-08-06T01:17:34Z</time></trkpt>
<trkpt lat="29.864788" lon="102.220774">
<time>2015-08-06T01:17:35Z</time></trkpt>
<trkpt lat="29.864968" lon="102.220784">
<time>2015-08-06T01:17:36Z</time></trkpt>
<trkpt lat="29.865248" lon="102.220784">
<time>2015-08-06T01:17:37Z</time></trkpt>
<trkpt lat="29.866038" lon="102.220774">
<time>2015-08-06T01:17:38Z</time></trkpt>
<trkpt lat="29.866388" lon="102.220753">
<time>2015-08-06T01:17:39Z</time></trkpt>
<trkpt lat="29.866578" lon="102.220733">
<time>2015-08-06T01:17:40Z</time></trkpt>
<trkpt lat="29.866678" lon="102.220713">
<time>2015-08-06T01:17:41Z</time></trkpt>
<trkpt lat="29.866778" lon="102.220673">
<time>2015-08-06T01:17:42Z</time></trkpt>
<trkpt lat="29.866858" lon="102.220633">
<time>2015-08-06T01:17:43Z</time></trkpt>
<trkpt lat="29.866948" lon="102.220593">
<time>2015-08-06T01:17:44Z</time></trkpt>
<trkpt lat="29.867048" lon="102.220533">
<time>2015-08-06T01:17:45Z</time></trkpt>
<trkpt lat="29.867108" lon="102.220493">
<time>2015-08-06T01:17:46Z</time></trkpt>
<trkpt lat="29.867188" lon="102.220423">
<time>2015-08-06T01:17:47Z</time></trkpt>
<trkpt lat="29.867278" lon="102.220343">
<time>2015-08-06T01:17:48Z</time></trkpt>
<trkpt lat="29.867348" lon="102.220273">
<time>2015-08-06T01:17:49Z</time></trkpt>
<trkpt lat="29.867428" lon="102.220183">
<time>2015-08-06T01:17:50Z</time></trkpt>
<trkpt lat="29.867488" lon="102.220113">
<time>2015-08-06T01:17:51Z</time></trkpt>
<trkpt lat="29.867697" lon="102.219802">
<time>2015-08-06T01:17:52Z</time></trkpt>
<trkpt lat="29.868256" lon="102.218931">
<time>2015-08-06T01:17:53Z</time></trkpt>
<trkpt lat="29.868785" lon="102.2181">
<time>2015-08-06T01:17:54Z</time></trkpt>
<trkpt lat="29.869115" lon="102.217659">
<time>2015-08-06T01:17:55Z</time></trkpt>
<trkpt lat="29.869225" lon="102.217529">
<time>2015-08-06T01:17:56Z</time></trkpt>
<trkpt lat="29.869305" lon="102.217459">
<time>2015-08-06T01:17:57Z</time></trkpt>
<trkpt lat="29.869405" lon="102.217389">
<time>2015-08-06T01:17:58Z</time></trkpt>
<trkpt lat="29.869525" lon="102.217339">
<time>2015-08-06T01:17:59Z</time></trkpt>
<trkpt lat="29.869614" lon="102.217319">
<time>2015-08-06T01:18:00Z</time></trkpt>
<trkpt lat="29.869704" lon="102.217308">
<time>2015-08-06T01:18:01Z</time></trkpt>
<trkpt lat="29.869814" lon="102.217298">
<time>2015-08-06T01:18:02Z</time></trkpt>
<trkpt lat="29.869914" lon="102.217298">
<time>2015-08-06T01:18:03Z</time></trkpt>
<trkpt lat="29.870004" lon="102.217318">
<time>2015-08-06T01:18:04Z</time></trkpt>
<trkpt lat="29.870104" lon="102.217349">
<time>2015-08-06T01:18:05Z</time></trkpt>
<trkpt lat="29.870165" lon="102.217369">
<time>2015-08-06T01:18:06Z</time></trkpt>
<trkpt lat="29.870275" lon="102.217429">
<time>2015-08-06T01:18:07Z</time></trkpt>
<trkpt lat="29.870515" lon="102.217599">
<time>2015-08-06T01:18:08Z</time></trkpt>
<trkpt lat="29.871095" lon="102.217989">
<time>2015-08-06T01:18:09Z</time></trkpt>
<trkpt lat="29.871636" lon="102.21838">
<time>2015-08-06T01:18:10Z</time></trkpt>
<trkpt lat="29.871796" lon="102.21848">
<time>2015-08-06T01:18:11Z</time></trkpt>
<trkpt lat="29.871926" lon="102.21859">
<time>2015-08-06T01:18:12Z</time></trkpt>
<trkpt lat="29.872066" lon="102.21869">
<time>2015-08-06T01:18:13Z</time></trkpt>
<trkpt lat="29.872186" lon="102.218811">
<time>2015-08-06T01:18:14Z</time></trkpt>
<trkpt lat="29.872276" lon="102.218901">
<time>2015-08-06T01:18:15Z</time></trkpt>
<trkpt lat="29.872386" lon="102.219021">
<time>2015-08-06T01:18:16Z</time></trkpt>
<trkpt lat="29.872516" lon="102.219191">
<time>2015-08-06T01:18:17Z</time></trkpt>
<trkpt lat="29.872907" lon="102.219672">
<time>2015-08-06T01:18:18Z</time></trkpt>
<trkpt lat="29.873007" lon="102.219772">
<time>2015-08-06T01:18:19Z</time></trkpt>
<trkpt lat="29.873137" lon="102.219862">
<time>2015-08-06T01:18:20Z</time></trkpt>
<trkpt lat="29.873197" lon="102.219902">
<time>2015-08-06T01:18:21Z</time></trkpt>
<trkpt lat="29.873287" lon="102.219952">
<time>2015-08-06T01:18:22Z</time></trkpt>
<trkpt lat="29.873387" lon="102.219992">
<time>2015-08-06T01:18:23Z</time></trkpt>
<trkpt lat="29.873487" lon="102.220012">
<time>2015-08-06T01:18:24Z</time></trkpt>
<trkpt lat="29.873657" lon="102.220022">
<time>2015-08-06T01:18:25Z</time></trkpt>
<trkpt lat="29.873797" lon="102.220012">
<time>2015-08-06T01:18:26Z</time></trkpt>
<trkpt lat="29.874147" lon="102.219962">
<time>2015-08-06T01:18:27Z</time></trkpt>
<trkpt lat="29.874277" lon="102.219952">
<time>2015-08-06T01:18:28Z</time></trkpt>
<trkpt lat="29.874437" lon="102.219962">
<time>2015-08-06T01:18:29Z</time></trkpt>
<trkpt lat="29.874557" lon="102.219982">
<time>2015-08-06T01:18:30Z</time></trkpt>
<trkpt lat="29.874687" lon="102.220012">
<time>2015-08-06T01:18:31Z</time></trkpt>
<trkpt lat="29.874847" lon="102.220082">
<time>2015-08-06T01:18:32Z</time></trkpt>
<trkpt lat="29.874997" lon="102.220152">
<time>2015-08-06T01:18:33Z</time></trkpt>
<trkpt lat="29.875267" lon="102.220313">
<time>2015-08-06T01:18:34Z</time></trkpt>
<trkpt lat="29.875548" lon="102.220493">
<time>2015-08-06T01:18:35Z</time></trkpt>
<trkpt lat="29.875678" lon="102.220593">
<time>2015-08-06T01:18:36Z</time></trkpt>
<trkpt lat="29.875758" lon="102.220663">
<time>2015-08-06T01:18:37Z</time></trkpt>
<trkpt lat="29.875838" lon="102.220743">
<time>2015-08-06T01:18:38Z</time></trkpt>
<trkpt lat="29.875908" lon="102.220843">
<time>2015-08-06T01:18:39Z</time></trkpt>
<trkpt lat="29.875988" lon="102.220963">
<time>2015-08-06T01:18:40Z</time></trkpt>
<trkpt lat="29.876068" lon="102.221084">
<time>2015-08-06T01:18:41Z</time></trkpt>
<trkpt lat="29.876158" lon="102.221284">
<time>2015-08-06T01:18:42Z</time></trkpt>
<trkpt lat="29.876238" lon="102.221444">
<time>2015-08-06T01:18:43Z</time></trkpt>
<trkpt lat="29.876309" lon="102.221554">
<time>2015-08-06T01:18:44Z</time></trkpt>
<trkpt lat="29.876369" lon="102.221644">
<time>2015-08-06T01:18:45Z</time></trkpt>
<trkpt lat="29.876459" lon="102.221744">
<time>2015-08-06T01:18:46Z</time></trkpt>
<trkpt lat="29.876539" lon="102.221825">
<time>2015-08-06T01:18:47Z</time></trkpt>
<trkpt lat="29.876629" lon="102.221895">
<time>2015-08-06T01:18:48Z</time></trkpt>
<trkpt lat="29.876719" lon="102.221945">
<time>2015-08-06T01:18:49Z</time></trkpt>
<trkpt lat="29.876799" lon="102.221995">
<time>2015-08-06T01:18:50Z</time></trkpt>
<trkpt lat="29.876879" lon="102.222025">
<time>2015-08-06T01:18:51Z</time></trkpt>
<trkpt lat="29.876969" lon="102.222055">
<time>2015-08-06T01:18:52Z</time></trkpt>
<trkpt lat="29.877199" lon="102.222105">
<time>2015-08-06T01:18:53Z</time></trkpt>
<trkpt lat="29.877839" lon="102.222195">
<time>2015-08-06T01:18:54Z</time></trkpt>
<trkpt lat="29.878709" lon="102.222325">
<time>2015-08-06T01:18:55Z</time></trkpt>
<trkpt lat="29.879289" lon="102.222415">
<time>2015-08-06T01:18:56Z</time></trkpt>
<trkpt lat="29.879969" lon="102.222515">
<time>2015-08-06T01:18:57Z</time></trkpt>
<trkpt lat="29.880649" lon="102.222615">
<time>2015-08-06T01:18:58Z</time></trkpt>
<trkpt lat="29.881059" lon="102.222665">
<time>2015-08-06T01:18:59Z</time></trkpt>
<trkpt lat="29.881329" lon="102.222696">
<time>2015-08-06T01:19:00Z</time></trkpt>
<trkpt lat="29.881519" lon="102.222706">
<time>2015-08-06T01:19:01Z</time></trkpt>
<trkpt lat="29.881729" lon="102.222706">
<time>2015-08-06T01:19:02Z</time></trkpt>
<trkpt lat="29.882119" lon="102.222685">
<time>2015-08-06T01:19:03Z</time></trkpt>
<trkpt lat="29.882849" lon="102.222665">
<time>2015-08-06T01:19:04Z</time></trkpt>
<trkpt lat="29.883119" lon="102.222635">
<time>2015-08-06T01:19:05Z</time></trkpt>
<trkpt lat="29.883289" lon="102.222635">
<time>2015-08-06T01:19:06Z</time></trkpt>
<trkpt lat="29.883469" lon="102.222645">
<time>2015-08-06T01:19:07Z</time></trkpt>
<trkpt lat="29.883609" lon="102.222675">
<time>2015-08-06T01:19:08Z</time></trkpt>
<trkpt lat="29.883709" lon="102.222715">
<time>2015-08-06T01:19:09Z</time></trkpt>
<trkpt lat="29.883809" lon="102.222776">
<time>2015-08-06T01:19:10Z</time></trkpt>
<trkpt lat="29.883899" lon="102.222836">
<time>2015-08-06T01:19:11Z</time></trkpt>
<trkpt lat="29.88402" lon="102.222966">
<time>2015-08-06T01:19:12Z</time></trkpt>
<trkpt lat="29.88421" lon="102.223196">
<time>2015-08-06T01:19:13Z</time></trkpt>
<trkpt lat="29.88428" lon="102.223256">
<time>2015-08-06T01:19:14Z</time></trkpt>
<trkpt lat="29.88435" lon="102.223316">
<time>2015-08-06T01:19:15Z</time></trkpt>
<trkpt lat="29.88444" lon="102.223356">
<time>2015-08-06T01:19:16Z</time></trkpt>
<trkpt lat="29.88452" lon="102.223396">
<time>2015-08-06T01:19:17Z</time></trkpt>
<trkpt lat="29.8846" lon="102.223406">
<time>2015-08-06T01:19:18Z</time></trkpt>
<trkpt lat="29.88468" lon="102.223416">
<time>2015-08-06T01:19:19Z</time></trkpt>
<trkpt lat="29.88478" lon="102.223416">
<time>2015-08-06T01:19:20Z</time></trkpt>
<trkpt lat="29.88487" lon="102.223396">
<time>2015-08-06T01:19:21Z</time></trkpt>
<trkpt lat="29.88494" lon="102.223366">
<time>2015-08-06T01:19:22Z</time></trkpt>
<trkpt lat="29.88502" lon="102.223336">
<time>2015-08-06T01:19:23Z</time></trkpt>
<trkpt lat="29.8851" lon="102.223286">
<time>2015-08-06T01:19:24Z</time></trkpt>
<trkpt lat="29.88524" lon="102.223186">
<time>2015-08-06T01:19:25Z</time></trkpt>
<trkpt lat="29.885579" lon="102.222936">
<time>2015-08-06T01:19:26Z</time></trkpt>
<trkpt lat="29.885719" lon="102.222836">
<time>2015-08-06T01:19:27Z</time></trkpt>
<trkpt lat="29.885839" lon="102.222795">
<time>2015-08-06T01:19:28Z</time></trkpt>
<trkpt lat="29.885909" lon="102.222775">
<time>2015-08-06T01:19:29Z</time></trkpt>
<trkpt lat="29.885969" lon="102.222755">
<time>2015-08-06T01:19:30Z</time></trkpt>
<trkpt lat="29.886039" lon="102.222745">
<time>2015-08-06T01:19:31Z</time></trkpt>
<trkpt lat="29.886089" lon="102.222745">
<time>2015-08-06T01:19:32Z</time></trkpt>
<trkpt lat="29.886149" lon="102.222745">
<time>2015-08-06T01:19:33Z</time></trkpt>
<trkpt lat="29.886209" lon="102.222765">
<time>2015-08-06T01:19:34Z</time></trkpt>
<trkpt lat="29.886259" lon="102.222775">
<time>2015-08-06T01:19:35Z</time></trkpt>
<trkpt lat="29.886319" lon="102.222795">
<time>2015-08-06T01:19:36Z</time></trkpt>
<trkpt lat="29.886399" lon="102.222836">
<time>2015-08-06T01:19:37Z</time></trkpt>
<trkpt lat="29.886489" lon="102.222886">
<time>2015-08-06T01:19:38Z</time></trkpt>
<trkpt lat="29.886599" lon="102.222956">
<time>2015-08-06T01:19:39Z</time></trkpt>
<trkpt lat="29.88716" lon="102.223356">
<time>2015-08-06T01:19:40Z</time></trkpt>
<trkpt lat="29.88745" lon="102.223516">
<time>2015-08-06T01:19:41Z</time></trkpt>
<trkpt lat="29.88754" lon="102.223566">
<time>2015-08-06T01:19:42Z</time></trkpt>
<trkpt lat="29.88766" lon="102.223596">
<time>2015-08-06T01:19:43Z</time></trkpt>
<trkpt lat="29.88774" lon="102.223596">
<time>2015-08-06T01:19:44Z</time></trkpt>
<trkpt lat="29.88782" lon="102.223606">
<time>2015-08-06T01:19:45Z</time></trkpt>
<trkpt lat="29.88789" lon="102.223596">
<time>2015-08-06T01:19:46Z</time></trkpt>
<trkpt lat="29.88797" lon="102.223576">
<time>2015-08-06T01:19:47Z</time></trkpt>
<trkpt lat="29.88804" lon="102.223556">
<time>2015-08-06T01:19:48Z</time></trkpt>
<trkpt lat="29.88812" lon="102.223526">
<time>2015-08-06T01:19:49Z</time></trkpt>
<trkpt lat="29.88822" lon="102.223476">
<time>2015-08-06T01:19:50Z</time></trkpt>
<trkpt lat="29.88835" lon="102.223386">
<time>2015-08-06T01:19:51Z</time></trkpt>
<trkpt lat="29.88859" lon="102.223246">
<time>2015-08-06T01:19:52Z</time></trkpt>
<trkpt lat="29.88872" lon="102.223186">
<time>2015-08-06T01:19:53Z</time></trkpt>
<trkpt lat="29.88879" lon="102.223156">
<time>2015-08-06T01:19:54Z</time></trkpt>
<trkpt lat="29.88888" lon="102.223126">
<time>2015-08-06T01:19:55Z</time></trkpt>
<trkpt lat="29.888959" lon="102.223106">
<time>2015-08-06T01:19:56Z</time></trkpt>
<trkpt lat="29.889019" lon="102.223086">
<time>2015-08-06T01:19:57Z</time></trkpt>
<trkpt lat="29.889119" lon="102.223076">
<time>2015-08-06T01:19:58Z</time></trkpt>
<trkpt lat="29.889509" lon="102.223036">
<time>2015-08-06T01:19:59Z</time></trkpt>
<trkpt lat="29.890089" lon="102.222986">
<time>2015-08-06T01:20:00Z</time></trkpt>
<trkpt lat="29.890299" lon="102.222976">
<time>2015-08-06T01:20:01Z</time></trkpt>
<trkpt lat="29.890389" lon="102.222966">
<time>2015-08-06T01:20:02Z</time></trkpt>
<trkpt lat="29.890499" lon="102.222976">
<time>2015-08-06T01:20:03Z</time></trkpt>
<trkpt lat="29.890789" lon="102.223016">
<time>2015-08-06T01:20:04Z</time></trkpt>
<trkpt lat="29.891009" lon="102.223036">
<time>2015-08-06T01:20:05Z</time></trkpt>
<trkpt lat="29.891139" lon="102.223036">
<time>2015-08-06T01:20:06Z</time></trkpt>
<trkpt lat="29.891259" lon="102.223026">
<time>2015-08-06T01:20:07Z</time></trkpt>
<trkpt lat="29.891339" lon="102.223016">
<time>2015-08-06T01:20:08Z</time></trkpt>
<trkpt lat="29.891439" lon="102.222986">
<time>2015-08-06T01:20:09Z</time></trkpt>
<trkpt lat="29.891519" lon="102.222935">
<time>2015-08-06T01:20:10Z</time></trkpt>
<trkpt lat="29.891629" lon="102.222885">
<time>2015-08-06T01:20:11Z</time></trkpt>
<trkpt lat="29.891709" lon="102.222835">
<time>2015-08-06T01:20:12Z</time></trkpt>
<trkpt lat="29.892379" lon="102.222445">
<time>2015-08-06T01:20:13Z</time></trkpt>
<trkpt lat="29.892779" lon="102.222184">
<time>2015-08-06T01:20:14Z</time></trkpt>
<trkpt lat="29.892958" lon="102.222074">
<time>2015-08-06T01:20:15Z</time></trkpt>
<trkpt lat="29.893428" lon="102.221774">
<time>2015-08-06T01:20:16Z</time></trkpt>
<trkpt lat="29.893698" lon="102.221584">
<time>2015-08-06T01:20:17Z</time></trkpt>
<trkpt lat="29.893848" lon="102.221443">
<time>2015-08-06T01:20:18Z</time></trkpt>
<trkpt lat="29.894008" lon="102.221263">
<time>2015-08-06T01:20:19Z</time></trkpt>
<trkpt lat="29.894107" lon="102.221123">
<time>2015-08-06T01:20:20Z</time></trkpt>
<trkpt lat="29.894187" lon="102.220943">
<time>2015-08-06T01:20:21Z</time></trkpt>
<trkpt lat="29.894257" lon="102.220753">
<time>2015-08-06T01:20:22Z</time></trkpt>
<trkpt lat="29.894297" lon="102.220572">
<time>2015-08-06T01:20:23Z</time></trkpt>
<trkpt lat="29.894317" lon="102.220362">
<time>2015-08-06T01:20:24Z</time></trkpt>
<trkpt lat="29.894317" lon="102.220182">
<time>2015-08-06T01:20:25Z</time></trkpt>
<trkpt lat="29.894296" lon="102.220002">
<time>2015-08-06T01:20:26Z</time></trkpt>
<trkpt lat="29.894256" lon="102.219811">
<time>2015-08-06T01:20:27Z</time></trkpt>
<trkpt lat="29.894206" lon="102.219651">
<time>2015-08-06T01:20:28Z</time></trkpt>
<trkpt lat="29.894136" lon="102.219481">
<time>2015-08-06T01:20:29Z</time></trkpt>
<trkpt lat="29.894026" lon="102.21926">
<time>2015-08-06T01:20:30Z</time></trkpt>
<trkpt lat="29.893775" lon="102.21887">
<time>2015-08-06T01:20:31Z</time></trkpt>
<trkpt lat="29.893284" lon="102.218189">
<time>2015-08-06T01:20:32Z</time></trkpt>
<trkpt lat="29.892684" lon="102.217268">
<time>2015-08-06T01:20:33Z</time></trkpt>
<trkpt lat="29.892503" lon="102.216977">
<time>2015-08-06T01:20:34Z</time></trkpt>
<trkpt lat="29.892443" lon="102.216837">
<time>2015-08-06T01:20:35Z</time></trkpt>
<trkpt lat="29.892423" lon="102.216717">
<time>2015-08-06T01:20:36Z</time></trkpt>
<trkpt lat="29.892403" lon="102.216587">
<time>2015-08-06T01:20:37Z</time></trkpt>
<trkpt lat="29.892413" lon="102.216487">
<time>2015-08-06T01:20:38Z</time></trkpt>
<trkpt lat="29.892423" lon="102.216366">
<time>2015-08-06T01:20:39Z</time></trkpt>
<trkpt lat="29.892462" lon="102.216266">
<time>2015-08-06T01:20:40Z</time></trkpt>
<trkpt lat="29.892492" lon="102.216186">
<time>2015-08-06T01:20:41Z</time></trkpt>
<trkpt lat="29.892562" lon="102.216096">
<time>2015-08-06T01:20:42Z</time></trkpt>
<trkpt lat="29.892642" lon="102.216016">
<time>2015-08-06T01:20:43Z</time></trkpt>
<trkpt lat="29.892732" lon="102.215946">
<time>2015-08-06T01:20:44Z</time></trkpt>
<trkpt lat="29.892782" lon="102.215916">
<time>2015-08-06T01:20:45Z</time></trkpt>
<trkpt lat="29.892832" lon="102.215886">
<time>2015-08-06T01:20:46Z</time></trkpt>
<trkpt lat="29.892992" lon="102.215815">
<time>2015-08-06T01:20:47Z</time></trkpt>
<trkpt lat="29.893772" lon="102.215535">
<time>2015-08-06T01:20:48Z</time></trkpt>
<trkpt lat="29.895041" lon="102.215104">
<time>2015-08-06T01:20:49Z</time></trkpt>
<trkpt lat="29.895261" lon="102.215044">
<time>2015-08-06T01:20:50Z</time></trkpt>
<trkpt lat="29.895411" lon="102.215014">
<time>2015-08-06T01:20:51Z</time></trkpt>
<trkpt lat="29.895581" lon="102.215014">
<time>2015-08-06T01:20:52Z</time></trkpt>
<trkpt lat="29.895701" lon="102.215014">
<time>2015-08-06T01:20:53Z</time></trkpt>
<trkpt lat="29.895821" lon="102.215034">
<time>2015-08-06T01:20:54Z</time></trkpt>
<trkpt lat="29.895931" lon="102.215054">
<time>2015-08-06T01:20:55Z</time></trkpt>
<trkpt lat="29.896051" lon="102.215094">
<time>2015-08-06T01:20:56Z</time></trkpt>
<trkpt lat="29.896261" lon="102.215174">
<time>2015-08-06T01:20:57Z</time></trkpt>
<trkpt lat="29.897612" lon="102.215765">
<time>2015-08-06T01:20:58Z</time></trkpt>
<trkpt lat="29.898772" lon="102.216216">
<time>2015-08-06T01:20:59Z</time></trkpt>
<trkpt lat="29.899232" lon="102.216426">
<time>2015-08-06T01:21:00Z</time></trkpt>
<trkpt lat="29.899422" lon="102.216526">
<time>2015-08-06T01:21:01Z</time></trkpt>
<trkpt lat="29.899603" lon="102.216636">
<time>2015-08-06T01:21:02Z</time></trkpt>
<trkpt lat="29.899933" lon="102.216867">
<time>2015-08-06T01:21:03Z</time></trkpt>
<trkpt lat="29.900463" lon="102.217257">
<time>2015-08-06T01:21:04Z</time></trkpt>
<trkpt lat="29.900884" lon="102.217568">
<time>2015-08-06T01:21:05Z</time></trkpt>
<trkpt lat="29.901154" lon="102.217778">
<time>2015-08-06T01:21:06Z</time></trkpt>
<trkpt lat="29.901294" lon="102.217908">
<time>2015-08-06T01:21:07Z</time></trkpt>
<trkpt lat="29.901444" lon="102.218079">
<time>2015-08-06T01:21:08Z</time></trkpt>
<trkpt lat="29.901684" lon="102.218379">
<time>2015-08-06T01:21:09Z</time></trkpt>
<trkpt lat="29.902025" lon="102.21884">
<time>2015-08-06T01:21:10Z</time></trkpt>
<trkpt lat="29.902826" lon="102.219981">
<time>2015-08-06T01:21:11Z</time></trkpt>
<trkpt lat="29.902996" lon="102.220201">
<time>2015-08-06T01:21:12Z</time></trkpt>
<trkpt lat="29.903166" lon="102.220392">
<time>2015-08-06T01:21:13Z</time></trkpt>
<trkpt lat="29.903387" lon="102.220582">
<time>2015-08-06T01:21:14Z</time></trkpt>
<trkpt lat="29.903787" lon="102.220872">
<time>2015-08-06T01:21:15Z</time></trkpt>
<trkpt lat="29.904357" lon="102.221283">
<time>2015-08-06T01:21:16Z</time></trkpt>
<trkpt lat="29.904848" lon="102.221633">
<time>2015-08-06T01:21:17Z</time></trkpt>
<trkpt lat="29.905168" lon="102.221874">
<time>2015-08-06T01:21:18Z</time></trkpt>
<trkpt lat="29.905318" lon="102.222014">
<time>2015-08-06T01:21:19Z</time></trkpt>
<trkpt lat="29.905448" lon="102.222134">
<time>2015-08-06T01:21:20Z</time></trkpt>
<trkpt lat="29.905588" lon="102.222324">
<time>2015-08-06T01:21:21Z</time></trkpt>
<trkpt lat="29.905999" lon="102.222945">
<time>2015-08-06T01:21:22Z</time></trkpt>
<trkpt lat="29.906289" lon="102.223426">
<time>2015-08-06T01:21:23Z</time></trkpt>
<trkpt lat="29.906459" lon="102.223676">
<time>2015-08-06T01:21:24Z</time></trkpt>
<trkpt lat="29.9066" lon="102.223856">
<time>2015-08-06T01:21:25Z</time></trkpt>
<trkpt lat="29.90673" lon="102.223996">
<time>2015-08-06T01:21:26Z</time></trkpt>
<trkpt lat="29.90709" lon="102.224297">
<time>2015-08-06T01:21:27Z</time></trkpt>
<trkpt lat="29.90732" lon="102.224487">
<time>2015-08-06T01:21:28Z</time></trkpt>
<trkpt lat="29.90753" lon="102.224707">
<time>2015-08-06T01:21:29Z</time></trkpt>
<trkpt lat="29.907681" lon="102.224887">
<time>2015-08-06T01:21:30Z</time></trkpt>
<trkpt lat="29.907751" lon="102.225017">
<time>2015-08-06T01:21:31Z</time></trkpt>
<trkpt lat="29.907821" lon="102.225148">
<time>2015-08-06T01:21:32Z</time></trkpt>
<trkpt lat="29.907921" lon="102.225418">
<time>2015-08-06T01:21:33Z</time></trkpt>
<trkpt lat="29.908041" lon="102.225808">
<time>2015-08-06T01:21:34Z</time></trkpt>
<trkpt lat="29.908232" lon="102.226419">
<time>2015-08-06T01:21:35Z</time></trkpt>
<trkpt lat="29.908382" lon="102.2268">
<time>2015-08-06T01:21:36Z</time></trkpt>
<trkpt lat="29.908422" lon="102.2269">
<time>2015-08-06T01:21:37Z</time></trkpt>
<trkpt lat="29.908472" lon="102.22699">
<time>2015-08-06T01:21:38Z</time></trkpt>
<trkpt lat="29.908532" lon="102.22707">
<time>2015-08-06T01:21:39Z</time></trkpt>
<trkpt lat="29.908592" lon="102.22715">
<time>2015-08-06T01:21:40Z</time></trkpt>
<trkpt lat="29.908632" lon="102.22719">
<time>2015-08-06T01:21:41Z</time></trkpt>
<trkpt lat="29.908702" lon="102.22724">
<time>2015-08-06T01:21:42Z</time></trkpt>
<trkpt lat="29.908742" lon="102.22728">
<time>2015-08-06T01:21:43Z</time></trkpt>
<trkpt lat="29.908822" lon="102.22732">
<time>2015-08-06T01:21:44Z</time></trkpt>
<trkpt lat="29.908882" lon="102.22734">
<time>2015-08-06T01:21:45Z</time></trkpt>
<trkpt lat="29.908962" lon="102.22737">
<time>2015-08-06T01:21:46Z</time></trkpt>
<trkpt lat="29.909072" lon="102.22739">
<time>2015-08-06T01:21:47Z</time></trkpt>
<trkpt lat="29.909162" lon="102.2274">
<time>2015-08-06T01:21:48Z</time></trkpt>
<trkpt lat="29.909262" lon="102.2274">
<time>2015-08-06T01:21:49Z</time></trkpt>
<trkpt lat="29.909472" lon="102.22737">
<time>2015-08-06T01:21:50Z</time></trkpt>
<trkpt lat="29.909472" lon="102.22737">
<time>2015-08-06T01:21:51Z</time></trkpt>
<trkpt lat="29.909512" lon="102.22738">
<time>2015-08-06T01:21:52Z</time></trkpt>
<trkpt lat="29.909902" lon="102.22733">
<time>2015-08-06T01:21:53Z</time></trkpt>
<trkpt lat="29.910692" lon="102.2272">
<time>2015-08-06T01:21:54Z</time></trkpt>
<trkpt lat="29.911342" lon="102.22711">
<time>2015-08-06T01:21:55Z</time></trkpt>
<trkpt lat="29.911752" lon="102.22709">
<time>2015-08-06T01:21:56Z</time></trkpt>
<trkpt lat="29.912082" lon="102.2271">
<time>2015-08-06T01:21:57Z</time></trkpt>
<trkpt lat="29.912492" lon="102.22714">
<time>2015-08-06T01:21:58Z</time></trkpt>
<trkpt lat="29.912822" lon="102.2272">
<time>2015-08-06T01:21:59Z</time></trkpt>
<trkpt lat="29.913132" lon="102.22727">
<time>2015-08-06T01:22:00Z</time></trkpt>
<trkpt lat="29.913312" lon="102.22732">
<time>2015-08-06T01:22:01Z</time></trkpt>
<trkpt lat="29.913422" lon="102.22736">
<time>2015-08-06T01:22:02Z</time></trkpt>
<trkpt lat="29.913672" lon="102.22744">
<time>2015-08-06T01:22:03Z</time></trkpt>
<trkpt lat="29.913923" lon="102.22756">
<time>2015-08-06T01:22:04Z</time></trkpt>
<trkpt lat="29.914193" lon="102.2277">
<time>2015-08-06T01:22:05Z</time></trkpt>
<trkpt lat="29.914433" lon="102.22784">
<time>2015-08-06T01:22:06Z</time></trkpt>
<trkpt lat="29.914703" lon="102.228011">
<time>2015-08-06T01:22:07Z</time></trkpt>
<trkpt lat="29.915103" lon="102.228311">
<time>2015-08-06T01:22:08Z</time></trkpt>
<trkpt lat="29.915703" lon="102.228791">
<time>2015-08-06T01:22:09Z</time></trkpt>
<trkpt lat="29.915763" lon="102.228831">
<time>2015-08-06T01:22:10Z</time></trkpt>
<trkpt lat="29.915803" lon="102.228831">
<time>2015-08-06T01:22:11Z</time></trkpt>
<trkpt lat="29.915953" lon="102.228922">
<time>2015-08-06T01:22:12Z</time></trkpt>
<trkpt lat="29.916113" lon="102.228972">
<time>2015-08-06T01:22:13Z</time></trkpt>
<trkpt lat="29.916264" lon="102.228992">
<time>2015-08-06T01:22:14Z</time></trkpt>
<trkpt lat="29.916453" lon="102.228982">
<time>2015-08-06T01:22:15Z</time></trkpt>
<trkpt lat="29.916683" lon="102.228942">
<time>2015-08-06T01:22:16Z</time></trkpt>
<trkpt lat="29.917033" lon="102.228861">
<time>2015-08-06T01:22:17Z</time></trkpt>
<trkpt lat="29.917643" lon="102.228721">
<time>2015-08-06T01:22:18Z</time></trkpt>
<trkpt lat="29.918083" lon="102.228601">
<time>2015-08-06T01:22:19Z</time></trkpt>
<trkpt lat="29.918273" lon="102.228521">
<time>2015-08-06T01:22:20Z</time></trkpt>
<trkpt lat="29.918433" lon="102.228441">
<time>2015-08-06T01:22:21Z</time></trkpt>
<trkpt lat="29.918703" lon="102.228271">
<time>2015-08-06T01:22:22Z</time></trkpt>
<trkpt lat="29.919073" lon="102.22802">
<time>2015-08-06T01:22:23Z</time></trkpt>
<trkpt lat="29.919323" lon="102.22786">
<time>2015-08-06T01:22:24Z</time></trkpt>
<trkpt lat="29.919503" lon="102.22776">
<time>2015-08-06T01:22:25Z</time></trkpt>
<trkpt lat="29.919752" lon="102.22767">
<time>2015-08-06T01:22:26Z</time></trkpt>
<trkpt lat="29.920112" lon="102.22758">
<time>2015-08-06T01:22:27Z</time></trkpt>
<trkpt lat="29.920602" lon="102.22747">
<time>2015-08-06T01:22:28Z</time></trkpt>
<trkpt lat="29.920812" lon="102.22742">
<time>2015-08-06T01:22:29Z</time></trkpt>
<trkpt lat="29.921002" lon="102.22737">
<time>2015-08-06T01:22:30Z</time></trkpt>
<trkpt lat="29.921272" lon="102.22726">
<time>2015-08-06T01:22:31Z</time></trkpt>
<trkpt lat="29.921372" lon="102.22721">
<time>2015-08-06T01:22:32Z</time></trkpt>
<trkpt lat="29.921482" lon="102.227139">
<time>2015-08-06T01:22:33Z</time></trkpt>
<trkpt lat="29.921662" lon="102.227029">
<time>2015-08-06T01:22:34Z</time></trkpt>
<trkpt lat="29.921782" lon="102.226969">
<time>2015-08-06T01:22:35Z</time></trkpt>
<trkpt lat="29.921952" lon="102.226899">
<time>2015-08-06T01:22:36Z</time></trkpt>
<trkpt lat="29.922092" lon="102.226859">
<time>2015-08-06T01:22:37Z</time></trkpt>
<trkpt lat="29.922262" lon="102.226809">
<time>2015-08-06T01:22:38Z</time></trkpt>
<trkpt lat="29.922482" lon="102.226769">
<time>2015-08-06T01:22:39Z</time></trkpt>
<trkpt lat="29.922972" lon="102.226699">
<time>2015-08-06T01:22:40Z</time></trkpt>
<trkpt lat="29.923622" lon="102.226599">
<time>2015-08-06T01:22:41Z</time></trkpt>
<trkpt lat="29.924571" lon="102.226469">
<time>2015-08-06T01:22:42Z</time></trkpt>
<trkpt lat="29.925211" lon="102.226378">
<time>2015-08-06T01:22:43Z</time></trkpt>
<trkpt lat="29.925461" lon="102.226358">
<time>2015-08-06T01:22:44Z</time></trkpt>
<trkpt lat="29.925741" lon="102.226368">
<time>2015-08-06T01:22:45Z</time></trkpt>
<trkpt lat="29.926091" lon="102.226408">
<time>2015-08-06T01:22:46Z</time></trkpt>
<trkpt lat="29.926621" lon="102.226519">
<time>2015-08-06T01:22:47Z</time></trkpt>
<trkpt lat="29.927812" lon="102.226729">
<time>2015-08-06T01:22:48Z</time></trkpt>
<trkpt lat="29.928212" lon="102.226839">
<time>2015-08-06T01:22:49Z</time></trkpt>
<trkpt lat="29.928362" lon="102.226889">
<time>2015-08-06T01:22:50Z</time></trkpt>
<trkpt lat="29.928522" lon="102.226959">
<time>2015-08-06T01:22:51Z</time></trkpt>
<trkpt lat="29.928702" lon="102.227059">
<time>2015-08-06T01:22:52Z</time></trkpt>
<trkpt lat="29.929042" lon="102.227289">
<time>2015-08-06T01:22:53Z</time></trkpt>
<trkpt lat="29.929432" lon="102.22758">
<time>2015-08-06T01:22:54Z</time></trkpt>
<trkpt lat="29.929562" lon="102.22766">
<time>2015-08-06T01:22:55Z</time></trkpt>
<trkpt lat="29.929722" lon="102.22773">
<time>2015-08-06T01:22:56Z</time></trkpt>
<trkpt lat="29.929942" lon="102.2278">
<time>2015-08-06T01:22:57Z</time></trkpt>
<trkpt lat="29.930623" lon="102.22797">
<time>2015-08-06T01:22:58Z</time></trkpt>
<trkpt lat="29.931203" lon="102.2281">
<time>2015-08-06T01:22:59Z</time></trkpt>
<trkpt lat="29.932573" lon="102.228491">
<time>2015-08-06T01:23:00Z</time></trkpt>
<trkpt lat="29.933413" lon="102.228711">
<time>2015-08-06T01:23:01Z</time></trkpt>
<trkpt lat="29.934163" lon="102.228921">
<time>2015-08-06T01:23:02Z</time></trkpt>
<trkpt lat="29.934373" lon="102.228961">
<time>2015-08-06T01:23:03Z</time></trkpt>
<trkpt lat="29.934483" lon="102.228971">
<time>2015-08-06T01:23:04Z</time></trkpt>
<trkpt lat="29.934593" lon="102.228981">
<time>2015-08-06T01:23:05Z</time></trkpt>
<trkpt lat="29.934723" lon="102.228971">
<time>2015-08-06T01:23:06Z</time></trkpt>
<trkpt lat="29.935333" lon="102.228911">
<time>2015-08-06T01:23:07Z</time></trkpt>
<trkpt lat="29.936203" lon="102.228821">
<time>2015-08-06T01:23:08Z</time></trkpt>
<trkpt lat="29.936743" lon="102.228751">
<time>2015-08-06T01:23:09Z</time></trkpt>
<trkpt lat="29.936953" lon="102.228701">
<time>2015-08-06T01:23:10Z</time></trkpt>
<trkpt lat="29.937193" lon="102.22862">
<time>2015-08-06T01:23:11Z</time></trkpt>
<trkpt lat="29.937343" lon="102.22857">
<time>2015-08-06T01:23:12Z</time></trkpt>
<trkpt lat="29.937503" lon="102.2285">
<time>2015-08-06T01:23:13Z</time></trkpt>
<trkpt lat="29.937803" lon="102.22836">
<time>2015-08-06T01:23:14Z</time></trkpt>
<trkpt lat="29.938253" lon="102.22815">
<time>2015-08-06T01:23:15Z</time></trkpt>
<trkpt lat="29.938372" lon="102.2281">
<time>2015-08-06T01:23:16Z</time></trkpt>
<trkpt lat="29.938522" lon="102.22805">
<time>2015-08-06T01:23:17Z</time></trkpt>
<trkpt lat="29.938642" lon="102.22802">
<time>2015-08-06T01:23:18Z</time></trkpt>
<trkpt lat="29.938772" lon="102.22799">
<time>2015-08-06T01:23:19Z</time></trkpt>
<trkpt lat="29.938872" lon="102.22798">
<time>2015-08-06T01:23:20Z</time></trkpt>
<trkpt lat="29.939302" lon="102.22796">
<time>2015-08-06T01:23:21Z</time></trkpt>
<trkpt lat="29.939432" lon="102.22793">
<time>2015-08-06T01:23:22Z</time></trkpt>
<trkpt lat="29.939562" lon="102.2279">
<time>2015-08-06T01:23:23Z</time></trkpt>
<trkpt lat="29.939702" lon="102.22785">
<time>2015-08-06T01:23:24Z</time></trkpt>
<trkpt lat="29.939872" lon="102.227749">
<time>2015-08-06T01:23:25Z</time></trkpt>
<trkpt lat="29.939972" lon="102.227689">
<time>2015-08-06T01:23:26Z</time></trkpt>
<trkpt lat="29.940112" lon="102.227559">
<time>2015-08-06T01:23:27Z</time></trkpt>
<trkpt lat="29.940222" lon="102.227429">
<time>2015-08-06T01:23:28Z</time></trkpt>
<trkpt lat="29.940432" lon="102.227229">
<time>2015-08-06T01:23:29Z</time></trkpt>
<trkpt lat="29.940572" lon="102.227119">
<time>2015-08-06T01:23:30Z</time></trkpt>
<trkpt lat="29.940682" lon="102.227039">
<time>2015-08-06T01:23:31Z</time></trkpt>
<trkpt lat="29.940782" lon="102.226979">
<time>2015-08-06T01:23:32Z</time></trkpt>
<trkpt lat="29.940892" lon="102.226949">
<time>2015-08-06T01:23:33Z</time></trkpt>
<trkpt lat="29.941002" lon="102.226919">
<time>2015-08-06T01:23:34Z</time></trkpt>
<trkpt lat="29.941122" lon="102.226909">
<time>2015-08-06T01:23:35Z</time></trkpt>
<trkpt lat="29.941222" lon="102.226909">
<time>2015-08-06T01:23:36Z</time></trkpt>
<trkpt lat="29.941342" lon="102.226929">
<time>2015-08-06T01:23:37Z</time></trkpt>
<trkpt lat="29.941452" lon="102.226949">
<time>2015-08-06T01:23:38Z</time></trkpt>
<trkpt lat="29.941612" lon="102.226999">
<time>2015-08-06T01:23:39Z</time></trkpt>
<trkpt lat="29.942062" lon="102.227169">
<time>2015-08-06T01:23:40Z</time></trkpt>
<trkpt lat="29.942382" lon="102.227269">
<time>2015-08-06T01:23:41Z</time></trkpt>
<trkpt lat="29.942552" lon="102.227309">
<time>2015-08-06T01:23:42Z</time></trkpt>
<trkpt lat="29.942692" lon="102.227329">
<time>2015-08-06T01:23:43Z</time></trkpt>
<trkpt lat="29.942842" lon="102.227329">
<time>2015-08-06T01:23:44Z</time></trkpt>
<trkpt lat="29.943032" lon="102.227329">
<time>2015-08-06T01:23:45Z</time></trkpt>
<trkpt lat="29.943782" lon="102.227219">
<time>2015-08-06T01:23:46Z</time></trkpt>
<trkpt lat="29.944252" lon="102.227149">
<time>2015-08-06T01:23:47Z</time></trkpt>
<trkpt lat="29.944572" lon="102.227079">
<time>2015-08-06T01:23:48Z</time></trkpt>
<trkpt lat="29.944902" lon="102.226988">
<time>2015-08-06T01:23:49Z</time></trkpt>
<trkpt lat="29.945192" lon="102.226888">
<time>2015-08-06T01:23:50Z</time></trkpt>
<trkpt lat="29.945391" lon="102.226808">
<time>2015-08-06T01:23:51Z</time></trkpt>
<trkpt lat="29.945591" lon="102.226718">
<time>2015-08-06T01:23:52Z</time></trkpt>
<trkpt lat="29.945911" lon="102.226568">
<time>2015-08-06T01:23:53Z</time></trkpt>
<trkpt lat="29.946651" lon="102.226208">
<time>2015-08-06T01:23:54Z</time></trkpt>
<trkpt lat="29.946831" lon="102.226127">
<time>2015-08-06T01:23:55Z</time></trkpt>
<trkpt lat="29.947001" lon="102.226017">
<time>2015-08-06T01:23:56Z</time></trkpt>
<trkpt lat="29.947121" lon="102.225917">
<time>2015-08-06T01:23:57Z</time></trkpt>
<trkpt lat="29.947231" lon="102.225817">
<time>2015-08-06T01:23:58Z</time></trkpt>
<trkpt lat="29.947331" lon="102.225707">
<time>2015-08-06T01:23:59Z</time></trkpt>
<trkpt lat="29.94753" lon="102.225467">
<time>2015-08-06T01:24:00Z</time></trkpt>
<trkpt lat="29.94782" lon="102.225126">
<time>2015-08-06T01:24:01Z</time></trkpt>
<trkpt lat="29.94805" lon="102.224846">
<time>2015-08-06T01:24:02Z</time></trkpt>
<trkpt lat="29.9482" lon="102.224616">
<time>2015-08-06T01:24:03Z</time></trkpt>
<trkpt lat="29.948309" lon="102.224415">
<time>2015-08-06T01:24:04Z</time></trkpt>
<trkpt lat="29.948609" lon="102.223785">
<time>2015-08-06T01:24:05Z</time></trkpt>
<trkpt lat="29.948998" lon="102.222904">
<time>2015-08-06T01:24:06Z</time></trkpt>
<trkpt lat="29.949158" lon="102.222463">
<time>2015-08-06T01:24:07Z</time></trkpt>
<trkpt lat="29.949297" lon="102.221982">
<time>2015-08-06T01:24:08Z</time></trkpt>
<trkpt lat="29.949457" lon="102.221452">
<time>2015-08-06T01:24:09Z</time></trkpt>
<trkpt lat="29.949497" lon="102.221251">
<time>2015-08-06T01:24:10Z</time></trkpt>
<trkpt lat="29.949526" lon="102.221031">
<time>2015-08-06T01:24:11Z</time></trkpt>
<trkpt lat="29.949546" lon="102.220821">
<time>2015-08-06T01:24:12Z</time></trkpt>
<trkpt lat="29.949546" lon="102.220671">
<time>2015-08-06T01:24:13Z</time></trkpt>
<trkpt lat="29.949536" lon="102.22053">
<time>2015-08-06T01:24:14Z</time></trkpt>
<trkpt lat="29.949516" lon="102.2204">
<time>2015-08-06T01:24:15Z</time></trkpt>
<trkpt lat="29.949395" lon="102.219759">
<time>2015-08-06T01:24:16Z</time></trkpt>
<trkpt lat="29.949355" lon="102.219489">
<time>2015-08-06T01:24:17Z</time></trkpt>
<trkpt lat="29.949355" lon="102.219309">
<time>2015-08-06T01:24:18Z</time></trkpt>
<trkpt lat="29.949364" lon="102.219158">
<time>2015-08-06T01:24:19Z</time></trkpt>
<trkpt lat="29.949404" lon="102.218998">
<time>2015-08-06T01:24:20Z</time></trkpt>
<trkpt lat="29.949444" lon="102.218898">
<time>2015-08-06T01:24:21Z</time></trkpt>
<trkpt lat="29.949504" lon="102.218758">
<time>2015-08-06T01:24:22Z</time></trkpt>
<trkpt lat="29.949564" lon="102.218618">
<time>2015-08-06T01:24:23Z</time></trkpt>
<trkpt lat="29.949734" lon="102.218357">
<time>2015-08-06T01:24:24Z</time></trkpt>
<trkpt lat="29.949893" lon="102.218097">
<time>2015-08-06T01:24:25Z</time></trkpt>
<trkpt lat="29.950053" lon="102.217817">
<time>2015-08-06T01:24:26Z</time></trkpt>
<trkpt lat="29.950133" lon="102.217646">
<time>2015-08-06T01:24:27Z</time></trkpt>
<trkpt lat="29.950203" lon="102.217476">
<time>2015-08-06T01:24:28Z</time></trkpt>
<trkpt lat="29.950252" lon="102.217306">
<time>2015-08-06T01:24:29Z</time></trkpt>
<trkpt lat="29.950302" lon="102.217136">
<time>2015-08-06T01:24:30Z</time></trkpt>
<trkpt lat="29.950382" lon="102.216685">
<time>2015-08-06T01:24:31Z</time></trkpt>
<trkpt lat="29.950501" lon="102.216184">
<time>2015-08-06T01:24:32Z</time></trkpt>
<trkpt lat="29.950551" lon="102.216024">
<time>2015-08-06T01:24:33Z</time></trkpt>
<trkpt lat="29.950601" lon="102.215864">
<time>2015-08-06T01:24:34Z</time></trkpt>
<trkpt lat="29.950661" lon="102.215713">
<time>2015-08-06T01:24:35Z</time></trkpt>
<trkpt lat="29.950721" lon="102.215593">
<time>2015-08-06T01:24:36Z</time></trkpt>
<trkpt lat="29.95086" lon="102.215353">
<time>2015-08-06T01:24:37Z</time></trkpt>
<trkpt lat="29.951399" lon="102.214501">
<time>2015-08-06T01:24:38Z</time></trkpt>
<trkpt lat="29.951579" lon="102.214241">
<time>2015-08-06T01:24:39Z</time></trkpt>
<trkpt lat="29.951689" lon="102.214111">
<time>2015-08-06T01:24:40Z</time></trkpt>
<trkpt lat="29.951809" lon="102.213981">
<time>2015-08-06T01:24:41Z</time></trkpt>
<trkpt lat="29.952228" lon="102.21358">
<time>2015-08-06T01:24:42Z</time></trkpt>
<trkpt lat="29.952668" lon="102.213179">
<time>2015-08-06T01:24:43Z</time></trkpt>
<trkpt lat="29.952828" lon="102.213049">
<time>2015-08-06T01:24:44Z</time></trkpt>
<trkpt lat="29.953017" lon="102.212909">
<time>2015-08-06T01:24:45Z</time></trkpt>
<trkpt lat="29.953177" lon="102.212809">
<time>2015-08-06T01:24:46Z</time></trkpt>
<trkpt lat="29.953307" lon="102.212739">
<time>2015-08-06T01:24:47Z</time></trkpt>
<trkpt lat="29.953457" lon="102.212668">
<time>2015-08-06T01:24:48Z</time></trkpt>
<trkpt lat="29.953607" lon="102.212618">
<time>2015-08-06T01:24:49Z</time></trkpt>
<trkpt lat="29.953787" lon="102.212558">
<time>2015-08-06T01:24:50Z</time></trkpt>
<trkpt lat="29.953987" lon="102.212508">
<time>2015-08-06T01:24:51Z</time></trkpt>
<trkpt lat="29.954137" lon="102.212488">
<time>2015-08-06T01:24:52Z</time></trkpt>
<trkpt lat="29.954337" lon="102.212468">
<time>2015-08-06T01:24:53Z</time></trkpt>
<trkpt lat="29.954477" lon="102.212468">
<time>2015-08-06T01:24:54Z</time></trkpt>
<trkpt lat="29.954647" lon="102.212478">
<time>2015-08-06T01:24:55Z</time></trkpt>
<trkpt lat="29.954847" lon="102.212498">
<time>2015-08-06T01:24:56Z</time></trkpt>
<trkpt lat="29.955017" lon="102.212528">
<time>2015-08-06T01:24:57Z</time></trkpt>
<trkpt lat="29.955327" lon="102.212598">
<time>2015-08-06T01:24:58Z</time></trkpt>
<trkpt lat="29.955947" lon="102.212718">
<time>2015-08-06T01:24:59Z</time></trkpt>
<trkpt lat="29.956867" lon="102.212929">
<time>2015-08-06T01:25:00Z</time></trkpt>
<trkpt lat="29.957778" lon="102.213109">
<time>2015-08-06T01:25:01Z</time></trkpt>
<trkpt lat="29.958668" lon="102.213309">
<time>2015-08-06T01:25:02Z</time></trkpt>
<trkpt lat="29.959658" lon="102.21353">
<time>2015-08-06T01:25:03Z</time></trkpt>
<trkpt lat="29.960218" lon="102.21366">
<time>2015-08-06T01:25:04Z</time></trkpt>
<trkpt lat="29.960458" lon="102.21371">
<time>2015-08-06T01:25:05Z</time></trkpt>
<trkpt lat="29.960748" lon="102.21377">
<time>2015-08-06T01:25:06Z</time></trkpt>
<trkpt lat="29.960998" lon="102.21382">
<time>2015-08-06T01:25:07Z</time></trkpt>
<trkpt lat="29.961248" lon="102.21386">
<time>2015-08-06T01:25:08Z</time></trkpt>
<trkpt lat="29.961428" lon="102.21387">
<time>2015-08-06T01:25:09Z</time></trkpt>
<trkpt lat="29.961618" lon="102.21388">
<time>2015-08-06T01:25:10Z</time></trkpt>
<trkpt lat="29.961848" lon="102.21386">
<time>2015-08-06T01:25:11Z</time></trkpt>
<trkpt lat="29.962198" lon="102.21384">
<time>2015-08-06T01:25:12Z</time></trkpt>
<trkpt lat="29.962648" lon="102.21378">
<time>2015-08-06T01:25:13Z</time></trkpt>
<trkpt lat="29.963198" lon="102.21371">
<time>2015-08-06T01:25:14Z</time></trkpt>
<trkpt lat="29.964108" lon="102.21359">
<time>2015-08-06T01:25:15Z</time></trkpt>
<trkpt lat="29.964318" lon="102.21356">
<time>2015-08-06T01:25:16Z</time></trkpt>
<trkpt lat="29.964438" lon="102.213519">
<time>2015-08-06T01:25:17Z</time></trkpt>
<trkpt lat="29.964578" lon="102.213469">
<time>2015-08-06T01:25:18Z</time></trkpt>
<trkpt lat="29.964668" lon="102.213439">
<time>2015-08-06T01:25:19Z</time></trkpt>
<trkpt lat="29.964758" lon="102.213379">
<time>2015-08-06T01:25:20Z</time></trkpt>
<trkpt lat="29.964888" lon="102.213289">
<time>2015-08-06T01:25:21Z</time></trkpt>
<trkpt lat="29.965098" lon="102.213109">
<time>2015-08-06T01:25:22Z</time></trkpt>
<trkpt lat="29.965467" lon="102.212778">
<time>2015-08-06T01:25:23Z</time></trkpt>
<trkpt lat="29.965707" lon="102.212588">
<time>2015-08-06T01:25:24Z</time></trkpt>
<trkpt lat="29.965847" lon="102.212498">
<time>2015-08-06T01:25:25Z</time></trkpt>
<trkpt lat="29.965967" lon="102.212438">
<time>2015-08-06T01:25:26Z</time></trkpt>
<trkpt lat="29.966127" lon="102.212388">
<time>2015-08-06T01:25:27Z</time></trkpt>
<trkpt lat="29.966237" lon="102.212368">
<time>2015-08-06T01:25:28Z</time></trkpt>
<trkpt lat="29.966357" lon="102.212368">
<time>2015-08-06T01:25:29Z</time></trkpt>
<trkpt lat="29.966517" lon="102.212388">
<time>2015-08-06T01:25:30Z</time></trkpt>
<trkpt lat="29.966737" lon="102.212448">
<time>2015-08-06T01:25:31Z</time></trkpt>
<trkpt lat="29.967277" lon="102.212608">
<time>2015-08-06T01:25:32Z</time></trkpt>
<trkpt lat="29.967757" lon="102.212748">
<time>2015-08-06T01:25:33Z</time></trkpt>
<trkpt lat="29.968277" lon="102.212878">
<time>2015-08-06T01:25:34Z</time></trkpt>
<trkpt lat="29.968827" lon="102.212988">
<time>2015-08-06T01:25:35Z</time></trkpt>
<trkpt lat="29.969167" lon="102.213039">
<time>2015-08-06T01:25:36Z</time></trkpt>
<trkpt lat="29.969337" lon="102.213049">
<time>2015-08-06T01:25:37Z</time></trkpt>
<trkpt lat="29.969567" lon="102.213069">
<time>2015-08-06T01:25:38Z</time></trkpt>
<trkpt lat="29.970288" lon="102.213099">
<time>2015-08-06T01:25:39Z</time></trkpt>
<trkpt lat="29.970648" lon="102.213129">
<time>2015-08-06T01:25:40Z</time></trkpt>
<trkpt lat="29.970918" lon="102.213159">
<time>2015-08-06T01:25:41Z</time></trkpt>
<trkpt lat="29.971208" lon="102.213199">
<time>2015-08-06T01:25:42Z</time></trkpt>
<trkpt lat="29.971328" lon="102.213219">
<time>2015-08-06T01:25:43Z</time></trkpt>
<trkpt lat="29.971468" lon="102.213249">
<time>2015-08-06T01:25:44Z</time></trkpt>
<trkpt lat="29.971578" lon="102.213279">
<time>2015-08-06T01:25:45Z</time></trkpt>
<trkpt lat="29.971718" lon="102.213319">
<time>2015-08-06T01:25:46Z</time></trkpt>
<trkpt lat="29.972158" lon="102.213499">
<time>2015-08-06T01:25:47Z</time></trkpt>
<trkpt lat="29.972658" lon="102.213679">
<time>2015-08-06T01:25:48Z</time></trkpt>
<trkpt lat="29.973178" lon="102.21383">
<time>2015-08-06T01:25:49Z</time></trkpt>
<trkpt lat="29.973408" lon="102.21389">
<time>2015-08-06T01:25:50Z</time></trkpt>
<trkpt lat="29.973659" lon="102.21394">
<time>2015-08-06T01:25:51Z</time></trkpt>
<trkpt lat="29.973889" lon="102.21396">
<time>2015-08-06T01:25:52Z</time></trkpt>
<trkpt lat="29.974039" lon="102.21396">
<time>2015-08-06T01:25:53Z</time></trkpt>
<trkpt lat="29.974229" lon="102.21395">
<time>2015-08-06T01:25:54Z</time></trkpt>
<trkpt lat="29.974398" lon="102.21392">
<time>2015-08-06T01:25:55Z</time></trkpt>
<trkpt lat="29.974578" lon="102.21386">
<time>2015-08-06T01:25:56Z</time></trkpt>
<trkpt lat="29.974798" lon="102.21378">
<time>2015-08-06T01:25:57Z</time></trkpt>
<trkpt lat="29.975028" lon="102.213669">
<time>2015-08-06T01:25:58Z</time></trkpt>
<trkpt lat="29.975288" lon="102.213529">
<time>2015-08-06T01:25:59Z</time></trkpt>
<trkpt lat="29.975608" lon="102.213369">
<time>2015-08-06T01:26:00Z</time></trkpt>
<trkpt lat="29.975888" lon="102.213209">
<time>2015-08-06T01:26:01Z</time></trkpt>
<trkpt lat="29.976237" lon="102.213018">
<time>2015-08-06T01:26:02Z</time></trkpt>
<trkpt lat="29.976657" lon="102.212788">
<time>2015-08-06T01:26:03Z</time></trkpt>
<trkpt lat="29.976907" lon="102.212668">
<time>2015-08-06T01:26:04Z</time></trkpt>
<trkpt lat="29.977057" lon="102.212588">
<time>2015-08-06T01:26:05Z</time></trkpt>
<trkpt lat="29.977357" lon="102.212457">
<time>2015-08-06T01:26:06Z</time></trkpt>
<trkpt lat="29.977637" lon="102.212357">
<time>2015-08-06T01:26:07Z</time></trkpt>
<trkpt lat="29.977887" lon="102.212287">
<time>2015-08-06T01:26:08Z</time></trkpt>
<trkpt lat="29.978406" lon="102.212117">
<time>2015-08-06T01:26:09Z</time></trkpt>
<trkpt lat="29.978586" lon="102.212047">
<time>2015-08-06T01:26:10Z</time></trkpt>
<trkpt lat="29.978736" lon="102.211986">
<time>2015-08-06T01:26:11Z</time></trkpt>
<trkpt lat="29.978896" lon="102.211906">
<time>2015-08-06T01:26:12Z</time></trkpt>
<trkpt lat="29.979066" lon="102.211796">
<time>2015-08-06T01:26:13Z</time></trkpt>
<trkpt lat="29.979246" lon="102.211666">
<time>2015-08-06T01:26:14Z</time></trkpt>
<trkpt lat="29.979426" lon="102.211526">
<time>2015-08-06T01:26:15Z</time></trkpt>
<trkpt lat="29.979635" lon="102.211335">
<time>2015-08-06T01:26:16Z</time></trkpt>
<trkpt lat="29.979735" lon="102.211235">
<time>2015-08-06T01:26:17Z</time></trkpt>
<trkpt lat="29.979885" lon="102.211125">
<time>2015-08-06T01:26:18Z</time></trkpt>
<trkpt lat="29.980005" lon="102.211025">
<time>2015-08-06T01:26:19Z</time></trkpt>
<trkpt lat="29.980544" lon="102.210614">
<time>2015-08-06T01:26:20Z</time></trkpt>
<trkpt lat="29.980844" lon="102.210374">
<time>2015-08-06T01:26:21Z</time></trkpt>
<trkpt lat="29.981094" lon="102.210153">
<time>2015-08-06T01:26:22Z</time></trkpt>
<trkpt lat="29.981224" lon="102.210033">
<time>2015-08-06T01:26:23Z</time></trkpt>
<trkpt lat="29.981383" lon="102.209883">
<time>2015-08-06T01:26:24Z</time></trkpt>
<trkpt lat="29.981673" lon="102.209592">
<time>2015-08-06T01:26:25Z</time></trkpt>
<trkpt lat="29.981833" lon="102.209462">
<time>2015-08-06T01:26:26Z</time></trkpt>
<trkpt lat="29.981983" lon="102.209352">
<time>2015-08-06T01:26:27Z</time></trkpt>
<trkpt lat="29.982123" lon="102.209272">
<time>2015-08-06T01:26:28Z</time></trkpt>
<trkpt lat="29.982253" lon="102.209202">
<time>2015-08-06T01:26:29Z</time></trkpt>
<trkpt lat="29.982792" lon="102.208921">
<time>2015-08-06T01:26:30Z</time></trkpt>
<trkpt lat="29.983402" lon="102.208641">
<time>2015-08-06T01:26:31Z</time></trkpt>
<trkpt lat="29.983732" lon="102.20849">
<time>2015-08-06T01:26:32Z</time></trkpt>
<trkpt lat="29.984101" lon="102.20835">
<time>2015-08-06T01:26:33Z</time></trkpt>
<trkpt lat="29.984551" lon="102.20819">
<time>2015-08-06T01:26:34Z</time></trkpt>
<trkpt lat="29.984821" lon="102.20811">
<time>2015-08-06T01:26:35Z</time></trkpt>
<trkpt lat="29.985051" lon="102.208059">
<time>2015-08-06T01:26:36Z</time></trkpt>
<trkpt lat="29.985181" lon="102.208049">
<time>2015-08-06T01:26:37Z</time></trkpt>
<trkpt lat="29.985361" lon="102.208029">
<time>2015-08-06T01:26:38Z</time></trkpt>
<trkpt lat="29.985661" lon="102.208029">
<time>2015-08-06T01:26:39Z</time></trkpt>
<trkpt lat="29.986291" lon="102.208019">
<time>2015-08-06T01:26:40Z</time></trkpt>
<trkpt lat="29.986481" lon="102.208009">
<time>2015-08-06T01:26:41Z</time></trkpt>
<trkpt lat="29.986631" lon="102.207989">
<time>2015-08-06T01:26:42Z</time></trkpt>
<trkpt lat="29.986791" lon="102.207949">
<time>2015-08-06T01:26:43Z</time></trkpt>
<trkpt lat="29.986961" lon="102.207899">
<time>2015-08-06T01:26:44Z</time></trkpt>
<trkpt lat="29.987111" lon="102.207839">
<time>2015-08-06T01:26:45Z</time></trkpt>
<trkpt lat="29.987311" lon="102.207739">
<time>2015-08-06T01:26:46Z</time></trkpt>
<trkpt lat="29.98768" lon="102.207548">
<time>2015-08-06T01:26:47Z</time></trkpt>
<trkpt lat="29.98841" lon="102.207158">
<time>2015-08-06T01:26:48Z</time></trkpt>
<trkpt lat="29.988849" lon="102.206907">
<time>2015-08-06T01:26:49Z</time></trkpt>
<trkpt lat="29.989169" lon="102.206747">
<time>2015-08-06T01:26:50Z</time></trkpt>
<trkpt lat="29.989409" lon="102.206637">
<time>2015-08-06T01:26:51Z</time></trkpt>
<trkpt lat="29.989579" lon="102.206567">
<time>2015-08-06T01:26:52Z</time></trkpt>
<trkpt lat="29.989769" lon="102.206516">
<time>2015-08-06T01:26:53Z</time></trkpt>
<trkpt lat="29.990169" lon="102.206406">
<time>2015-08-06T01:26:54Z</time></trkpt>
<trkpt lat="29.990389" lon="102.206376">
<time>2015-08-06T01:26:55Z</time></trkpt>
<trkpt lat="29.990479" lon="102.206356">
<time>2015-08-06T01:26:56Z</time></trkpt>
<trkpt lat="29.990609" lon="102.206336">
<time>2015-08-06T01:26:57Z</time></trkpt>
<trkpt lat="29.990719" lon="102.206326">
<time>2015-08-06T01:26:58Z</time></trkpt>
<trkpt lat="29.990859" lon="102.206316">
<time>2015-08-06T01:26:59Z</time></trkpt>
<trkpt lat="29.991359" lon="102.206326">
<time>2015-08-06T01:27:00Z</time></trkpt>
<trkpt lat="29.992129" lon="102.206336">
<time>2015-08-06T01:27:01Z</time></trkpt>
<trkpt lat="29.993139" lon="102.206356">
<time>2015-08-06T01:27:02Z</time></trkpt>
<trkpt lat="29.993519" lon="102.206356">
<time>2015-08-06T01:27:03Z</time></trkpt>
<trkpt lat="29.993749" lon="102.206336">
<time>2015-08-06T01:27:04Z</time></trkpt>
<trkpt lat="29.993959" lon="102.206316">
<time>2015-08-06T01:27:05Z</time></trkpt>
<trkpt lat="29.994159" lon="102.206276">
<time>2015-08-06T01:27:06Z</time></trkpt>
<trkpt lat="29.994438" lon="102.206186">
<time>2015-08-06T01:27:07Z</time></trkpt>
<trkpt lat="29.994868" lon="102.206025">
<time>2015-08-06T01:27:08Z</time></trkpt>
<trkpt lat="29.995638" lon="102.205735">
<time>2015-08-06T01:27:09Z</time></trkpt>
<trkpt lat="29.996637" lon="102.205344">
<time>2015-08-06T01:27:10Z</time></trkpt>
<trkpt lat="29.997317" lon="102.205084">
<time>2015-08-06T01:27:11Z</time></trkpt>
<trkpt lat="29.997597" lon="102.204983">
<time>2015-08-06T01:27:12Z</time></trkpt>
<trkpt lat="29.997947" lon="102.204833">
<time>2015-08-06T01:27:13Z</time></trkpt>
<trkpt lat="29.998176" lon="102.204713">
<time>2015-08-06T01:27:14Z</time></trkpt>
<trkpt lat="29.998396" lon="102.204563">
<time>2015-08-06T01:27:15Z</time></trkpt>
<trkpt lat="29.998556" lon="102.204452">
<time>2015-08-06T01:27:16Z</time></trkpt>
<trkpt lat="29.998796" lon="102.204252">
<time>2015-08-06T01:27:17Z</time></trkpt>
<trkpt lat="29.999145" lon="102.203951">
<time>2015-08-06T01:27:18Z</time></trkpt>
<trkpt lat="29.999435" lon="102.203711">
<time>2015-08-06T01:27:19Z</time></trkpt>
<trkpt lat="29.999784" lon="102.20341">
<time>2015-08-06T01:27:20Z</time></trkpt>
<trkpt lat="30.000014" lon="102.2032">
<time>2015-08-06T01:27:21Z</time></trkpt>
<trkpt lat="30.000154" lon="102.20307">
<time>2015-08-06T01:27:22Z</time></trkpt>
<trkpt lat="30.000374" lon="102.202849">
<time>2015-08-06T01:27:23Z</time></trkpt>
<trkpt lat="30.000593" lon="102.202609">
<time>2015-08-06T01:27:24Z</time></trkpt>
<trkpt lat="30.000823" lon="102.202318">
<time>2015-08-06T01:27:25Z</time></trkpt>
<trkpt lat="30.001092" lon="102.201977">
<time>2015-08-06T01:27:26Z</time></trkpt>
<trkpt lat="30.001412" lon="102.201547">
<time>2015-08-06T01:27:27Z</time></trkpt>
<trkpt lat="30.001751" lon="102.201096">
<time>2015-08-06T01:27:28Z</time></trkpt>
<trkpt lat="30.001951" lon="102.200815">
<time>2015-08-06T01:27:29Z</time></trkpt>
<trkpt lat="30.00207" lon="102.200625">
<time>2015-08-06T01:27:30Z</time></trkpt>
<trkpt lat="30.00214" lon="102.200494">
<time>2015-08-06T01:27:31Z</time></trkpt>
<trkpt lat="30.00224" lon="102.200254">
<time>2015-08-06T01:27:32Z</time></trkpt>
<trkpt lat="30.002439" lon="102.199663">
<time>2015-08-06T01:27:33Z</time></trkpt>
<trkpt lat="30.002528" lon="102.199442">
<time>2015-08-06T01:27:34Z</time></trkpt>
<trkpt lat="30.002628" lon="102.199212">
<time>2015-08-06T01:27:35Z</time></trkpt>
<trkpt lat="30.002718" lon="102.199032">
<time>2015-08-06T01:27:36Z</time></trkpt>
<trkpt lat="30.002828" lon="102.198871">
<time>2015-08-06T01:27:37Z</time></trkpt>
<trkpt lat="30.002937" lon="102.198701">
<time>2015-08-06T01:27:38Z</time></trkpt>
<trkpt lat="30.003057" lon="102.198551">
<time>2015-08-06T01:27:39Z</time></trkpt>
<trkpt lat="30.003147" lon="102.19846">
<time>2015-08-06T01:27:40Z</time></trkpt>
<trkpt lat="30.003277" lon="102.19834">
<time>2015-08-06T01:27:41Z</time></trkpt>
<trkpt lat="30.003417" lon="102.1982">
<time>2015-08-06T01:27:42Z</time></trkpt>
<trkpt lat="30.003596" lon="102.198049">
<time>2015-08-06T01:27:43Z</time></trkpt>
<trkpt lat="30.003786" lon="102.197869">
<time>2015-08-06T01:27:44Z</time></trkpt>
<trkpt lat="30.003886" lon="102.197749">
<time>2015-08-06T01:27:45Z</time></trkpt>
<trkpt lat="30.004075" lon="102.197498">
<time>2015-08-06T01:27:46Z</time></trkpt>
<trkpt lat="30.004654" lon="102.196646">
<time>2015-08-06T01:27:47Z</time></trkpt>
<trkpt lat="30.005173" lon="102.195785">
<time>2015-08-06T01:27:48Z</time></trkpt>
<trkpt lat="30.005522" lon="102.195243">
<time>2015-08-06T01:27:49Z</time></trkpt>
<trkpt lat="30.006539" lon="102.19363">
<time>2015-08-06T01:27:50Z</time></trkpt>
<trkpt lat="30.007377" lon="102.192317">
<time>2015-08-06T01:27:51Z</time></trkpt>
<trkpt lat="30.007915" lon="102.191445">
<time>2015-08-06T01:27:52Z</time></trkpt>
<trkpt lat="30.008225" lon="102.190984">
<time>2015-08-06T01:27:53Z</time></trkpt>
<trkpt lat="30.008524" lon="102.190633">
<time>2015-08-06T01:27:54Z</time></trkpt>
<trkpt lat="30.008953" lon="102.190192">
<time>2015-08-06T01:27:55Z</time></trkpt>
<trkpt lat="30.010001" lon="102.18913">
<time>2015-08-06T01:27:56Z</time></trkpt>
<trkpt lat="30.010191" lon="102.188939">
<time>2015-08-06T01:27:57Z</time></trkpt>
<trkpt lat="30.010321" lon="102.188839">
<time>2015-08-06T01:27:58Z</time></trkpt>
<trkpt lat="30.010451" lon="102.188749">
<time>2015-08-06T01:27:59Z</time></trkpt>
<trkpt lat="30.010571" lon="102.188689">
<time>2015-08-06T01:28:00Z</time></trkpt>
<trkpt lat="30.01084" lon="102.188589">
<time>2015-08-06T01:28:01Z</time></trkpt>
<trkpt lat="30.01174" lon="102.188348">
<time>2015-08-06T01:28:02Z</time></trkpt>
<trkpt lat="30.01235" lon="102.188158">
<time>2015-08-06T01:28:03Z</time></trkpt>
<trkpt lat="30.01248" lon="102.188108">
<time>2015-08-06T01:28:04Z</time></trkpt>
<trkpt lat="30.01258" lon="102.188057">
<time>2015-08-06T01:28:05Z</time></trkpt>
<trkpt lat="30.012699" lon="102.187977">
<time>2015-08-06T01:28:06Z</time></trkpt>
<trkpt lat="30.012829" lon="102.187877">
<time>2015-08-06T01:28:07Z</time></trkpt>
<trkpt lat="30.012969" lon="102.187737">
<time>2015-08-06T01:28:08Z</time></trkpt>
<trkpt lat="30.013897" lon="102.186744">
<time>2015-08-06T01:28:09Z</time></trkpt>
<trkpt lat="30.015185" lon="102.185391">
<time>2015-08-06T01:28:10Z</time></trkpt>
<trkpt lat="30.015893" lon="102.184649">
<time>2015-08-06T01:28:11Z</time></trkpt>
<trkpt lat="30.016113" lon="102.184439">
<time>2015-08-06T01:28:12Z</time></trkpt>
<trkpt lat="30.016313" lon="102.184289">
<time>2015-08-06T01:28:13Z</time></trkpt>
<trkpt lat="30.016473" lon="102.184188">
<time>2015-08-06T01:28:14Z</time></trkpt>
<trkpt lat="30.016643" lon="102.184108">
<time>2015-08-06T01:28:15Z</time></trkpt>
<trkpt lat="30.016892" lon="102.184018">
<time>2015-08-06T01:28:16Z</time></trkpt>
<trkpt lat="30.017102" lon="102.183958">
<time>2015-08-06T01:28:17Z</time></trkpt>
<trkpt lat="30.017722" lon="102.183787">
<time>2015-08-06T01:28:18Z</time></trkpt>
<trkpt lat="30.018482" lon="102.183577">
<time>2015-08-06T01:28:19Z</time></trkpt>
<trkpt lat="30.018891" lon="102.183487">
<time>2015-08-06T01:28:20Z</time></trkpt>
<trkpt lat="30.019231" lon="102.183426">
<time>2015-08-06T01:28:21Z</time></trkpt>
<trkpt lat="30.019481" lon="102.183386">
<time>2015-08-06T01:28:22Z</time></trkpt>
<trkpt lat="30.019651" lon="102.183376">
<time>2015-08-06T01:28:23Z</time></trkpt>
<trkpt lat="30.020041" lon="102.183356">
<time>2015-08-06T01:28:24Z</time></trkpt>
<trkpt lat="30.020561" lon="102.183346">
<time>2015-08-06T01:28:25Z</time></trkpt>
<trkpt lat="30.020761" lon="102.183316">
<time>2015-08-06T01:28:26Z</time></trkpt>
<trkpt lat="30.020941" lon="102.183286">
<time>2015-08-06T01:28:27Z</time></trkpt>
<trkpt lat="30.021071" lon="102.183246">
<time>2015-08-06T01:28:28Z</time></trkpt>
<trkpt lat="30.021271" lon="102.183196">
<time>2015-08-06T01:28:29Z</time></trkpt>
<trkpt lat="30.021861" lon="102.182995">
<time>2015-08-06T01:28:30Z</time></trkpt>
<trkpt lat="30.02209" lon="102.182915">
<time>2015-08-06T01:28:31Z</time></trkpt>
<trkpt lat="30.02233" lon="102.182835">
<time>2015-08-06T01:28:32Z</time></trkpt>
<trkpt lat="30.02249" lon="102.182755">
<time>2015-08-06T01:28:33Z</time></trkpt>
<trkpt lat="30.02266" lon="102.182665">
<time>2015-08-06T01:28:34Z</time></trkpt>
<trkpt lat="30.02291" lon="102.182504">
<time>2015-08-06T01:28:35Z</time></trkpt>
<trkpt lat="30.023579" lon="102.182063">
<time>2015-08-06T01:28:36Z</time></trkpt>
<trkpt lat="30.023769" lon="102.181953">
<time>2015-08-06T01:28:37Z</time></trkpt>
<trkpt lat="30.023939" lon="102.181883">
<time>2015-08-06T01:28:38Z</time></trkpt>
<trkpt lat="30.024118" lon="102.181833">
<time>2015-08-06T01:28:39Z</time></trkpt>
<trkpt lat="30.024268" lon="102.181792">
<time>2015-08-06T01:28:40Z</time></trkpt>
<trkpt lat="30.024418" lon="102.181772">
<time>2015-08-06T01:28:41Z</time></trkpt>
<trkpt lat="30.024558" lon="102.181762">
<time>2015-08-06T01:28:42Z</time></trkpt>
<trkpt lat="30.024738" lon="102.181762">
<time>2015-08-06T01:28:43Z</time></trkpt>
<trkpt lat="30.024988" lon="102.181772">
<time>2015-08-06T01:28:44Z</time></trkpt>
<trkpt lat="30.025308" lon="102.181812">
<time>2015-08-06T01:28:45Z</time></trkpt>
<trkpt lat="30.026529" lon="102.181953">
<time>2015-08-06T01:28:46Z</time></trkpt>
<trkpt lat="30.027869" lon="102.182113">
<time>2015-08-06T01:28:47Z</time></trkpt>
<trkpt lat="30.028369" lon="102.182173">
<time>2015-08-06T01:28:48Z</time></trkpt>
<trkpt lat="30.028579" lon="102.182173">
<time>2015-08-06T01:28:49Z</time></trkpt>
<trkpt lat="30.028739" lon="102.182153">
<time>2015-08-06T01:28:50Z</time></trkpt>
<trkpt lat="30.028859" lon="102.182133">
<time>2015-08-06T01:28:51Z</time></trkpt>
<trkpt lat="30.028959" lon="102.182093">
<time>2015-08-06T01:28:52Z</time></trkpt>
<trkpt lat="30.029059" lon="102.182043">
<time>2015-08-06T01:28:53Z</time></trkpt>
<trkpt lat="30.029159" lon="102.181993">
<time>2015-08-06T01:28:54Z</time></trkpt>
<trkpt lat="30.029738" lon="102.181612">
<time>2015-08-06T01:28:55Z</time></trkpt>
<trkpt lat="30.030158" lon="102.181331">
<time>2015-08-06T01:28:56Z</time></trkpt>
<trkpt lat="30.030487" lon="102.181131">
<time>2015-08-06T01:28:57Z</time></trkpt>
<trkpt lat="30.030867" lon="102.181181">
<time>2015-08-06T01:28:58Z</time></trkpt>
<trkpt lat="30.031097" lon="102.181221">
<time>2015-08-06T01:28:59Z</time></trkpt>
<trkpt lat="30.031317" lon="102.181281">
<time>2015-08-06T01:29:00Z</time></trkpt>
<trkpt lat="30.031558" lon="102.181321">
<time>2015-08-06T01:29:01Z</time></trkpt>
<trkpt lat="30.031738" lon="102.181331">
<time>2015-08-06T01:29:02Z</time></trkpt>
<trkpt lat="30.031898" lon="102.181331">
<time>2015-08-06T01:29:03Z</time></trkpt>
<trkpt lat="30.032048" lon="102.181321">
<time>2015-08-06T01:29:04Z</time></trkpt>
<trkpt lat="30.032437" lon="102.181271">
<time>2015-08-06T01:29:05Z</time></trkpt>
<trkpt lat="30.033017" lon="102.181191">
<time>2015-08-06T01:29:06Z</time></trkpt>
<trkpt lat="30.033267" lon="102.181131">
<time>2015-08-06T01:29:07Z</time></trkpt>
<trkpt lat="30.033387" lon="102.181101">
<time>2015-08-06T01:29:08Z</time></trkpt>
<trkpt lat="30.033537" lon="102.18104">
<time>2015-08-06T01:29:09Z</time></trkpt>
<trkpt lat="30.033897" lon="102.18087">
<time>2015-08-06T01:29:10Z</time></trkpt>
<trkpt lat="30.034137" lon="102.18075">
<time>2015-08-06T01:29:11Z</time></trkpt>
<trkpt lat="30.034306" lon="102.18069">
<time>2015-08-06T01:29:12Z</time></trkpt>
<trkpt lat="30.034496" lon="102.180619">
<time>2015-08-06T01:29:13Z</time></trkpt>
<trkpt lat="30.035596" lon="102.180268">
<time>2015-08-06T01:29:14Z</time></trkpt>
<trkpt lat="30.036565" lon="102.179958">
<time>2015-08-06T01:29:15Z</time></trkpt>
<trkpt lat="30.036855" lon="102.179837">
<time>2015-08-06T01:29:16Z</time></trkpt>
<trkpt lat="30.037055" lon="102.179757">
<time>2015-08-06T01:29:17Z</time></trkpt>
<trkpt lat="30.037225" lon="102.179677">
<time>2015-08-06T01:29:18Z</time></trkpt>
<trkpt lat="30.037424" lon="102.179557">
<time>2015-08-06T01:29:19Z</time></trkpt>
<trkpt lat="30.037824" lon="102.179316">
<time>2015-08-06T01:29:20Z</time></trkpt>
<trkpt lat="30.038373" lon="102.178975">
<time>2015-08-06T01:29:21Z</time></trkpt>
<trkpt lat="30.038633" lon="102.178805">
<time>2015-08-06T01:29:22Z</time></trkpt>
<trkpt lat="30.038853" lon="102.178644">
<time>2015-08-06T01:29:23Z</time></trkpt>
<trkpt lat="30.039102" lon="102.178454">
<time>2015-08-06T01:29:24Z</time></trkpt>
<trkpt lat="30.039312" lon="102.178294">
<time>2015-08-06T01:29:25Z</time></trkpt>
<trkpt lat="30.039402" lon="102.178233">
<time>2015-08-06T01:29:26Z</time></trkpt>
<trkpt lat="30.039512" lon="102.178163">
<time>2015-08-06T01:29:27Z</time></trkpt>
<trkpt lat="30.039612" lon="102.178113">
<time>2015-08-06T01:29:28Z</time></trkpt>
<trkpt lat="30.039732" lon="102.178063">
<time>2015-08-06T01:29:29Z</time></trkpt>
<trkpt lat="30.040101" lon="102.177923">
<time>2015-08-06T01:29:30Z</time></trkpt>
<trkpt lat="30.040571" lon="102.177762">
<time>2015-08-06T01:29:31Z</time></trkpt>
<trkpt lat="30.040791" lon="102.177652">
<time>2015-08-06T01:29:32Z</time></trkpt>
<trkpt lat="30.040921" lon="102.177562">
<time>2015-08-06T01:29:33Z</time></trkpt>
<trkpt lat="30.04103" lon="102.177452">
<time>2015-08-06T01:29:34Z</time></trkpt>
<trkpt lat="30.04114" lon="102.177331">
<time>2015-08-06T01:29:35Z</time></trkpt>
<trkpt lat="30.04122" lon="102.177241">
<time>2015-08-06T01:29:36Z</time></trkpt>
<trkpt lat="30.041449" lon="102.17692">
<time>2015-08-06T01:29:37Z</time></trkpt>
<trkpt lat="30.041868" lon="102.176269">
<time>2015-08-06T01:29:38Z</time></trkpt>
<trkpt lat="30.042028" lon="102.176008">
<time>2015-08-06T01:29:39Z</time></trkpt>
<trkpt lat="30.042108" lon="102.175858">
<time>2015-08-06T01:29:40Z</time></trkpt>
<trkpt lat="30.042167" lon="102.175677">
<time>2015-08-06T01:29:41Z</time></trkpt>
<trkpt lat="30.042207" lon="102.175537">
<time>2015-08-06T01:29:42Z</time></trkpt>
<trkpt lat="30.042336" lon="102.175086">
<time>2015-08-06T01:29:43Z</time></trkpt>
<trkpt lat="30.042396" lon="102.174885">
<time>2015-08-06T01:29:44Z</time></trkpt>
<trkpt lat="30.042465" lon="102.174715">
<time>2015-08-06T01:29:45Z</time></trkpt>
<trkpt lat="30.042525" lon="102.174615">
<time>2015-08-06T01:29:46Z</time></trkpt>
<trkpt lat="30.042605" lon="102.174524">
<time>2015-08-06T01:29:47Z</time></trkpt>
<trkpt lat="30.042705" lon="102.174414">
<time>2015-08-06T01:29:48Z</time></trkpt>
<trkpt lat="30.042855" lon="102.174294">
<time>2015-08-06T01:29:49Z</time></trkpt>
<trkpt lat="30.042984" lon="102.174164">
<time>2015-08-06T01:29:50Z</time></trkpt>
<trkpt lat="30.043074" lon="102.174063">
<time>2015-08-06T01:29:51Z</time></trkpt>
<trkpt lat="30.043144" lon="102.173973">
<time>2015-08-06T01:29:52Z</time></trkpt>
<trkpt lat="30.043194" lon="102.173883">
<time>2015-08-06T01:29:53Z</time></trkpt>
<trkpt lat="30.043244" lon="102.173783">
<time>2015-08-06T01:29:54Z</time></trkpt>
<trkpt lat="30.043293" lon="102.173642">
<time>2015-08-06T01:29:55Z</time></trkpt>
<trkpt lat="30.043373" lon="102.173372">
<time>2015-08-06T01:29:56Z</time></trkpt>
<trkpt lat="30.043512" lon="102.17272">
<time>2015-08-06T01:29:57Z</time></trkpt>
<trkpt lat="30.043631" lon="102.172169">
<time>2015-08-06T01:29:58Z</time></trkpt>
<trkpt lat="30.04371" lon="102.171768">
<time>2015-08-06T01:29:59Z</time></trkpt>
<trkpt lat="30.043779" lon="102.171517">
<time>2015-08-06T01:30:00Z</time></trkpt>
<trkpt lat="30.043839" lon="102.171347">
<time>2015-08-06T01:30:01Z</time></trkpt>
<trkpt lat="30.043919" lon="102.171116">
<time>2015-08-06T01:30:02Z</time></trkpt>
<trkpt lat="30.044078" lon="102.170765">
<time>2015-08-06T01:30:03Z</time></trkpt>
<trkpt lat="30.044387" lon="102.170104">
<time>2015-08-06T01:30:04Z</time></trkpt>
<trkpt lat="30.045114" lon="102.16846">
<time>2015-08-06T01:30:05Z</time></trkpt>
<trkpt lat="30.045811" lon="102.166896">
<time>2015-08-06T01:30:06Z</time></trkpt>
<trkpt lat="30.046339" lon="102.165893">
<time>2015-08-06T01:30:07Z</time></trkpt>
<trkpt lat="30.046747" lon="102.165101">
<time>2015-08-06T01:30:08Z</time></trkpt>
<trkpt lat="30.047146" lon="102.16431">
<time>2015-08-06T01:30:09Z</time></trkpt>
<trkpt lat="30.047345" lon="102.163949">
<time>2015-08-06T01:30:10Z</time></trkpt>
<trkpt lat="30.047485" lon="102.163718">
<time>2015-08-06T01:30:11Z</time></trkpt>
<trkpt lat="30.047594" lon="102.163558">
<time>2015-08-06T01:30:12Z</time></trkpt>
<trkpt lat="30.047694" lon="102.163427">
<time>2015-08-06T01:30:13Z</time></trkpt>
<trkpt lat="30.047824" lon="102.163287">
<time>2015-08-06T01:30:14Z</time></trkpt>
<trkpt lat="30.048073" lon="102.163016">
<time>2015-08-06T01:30:15Z</time></trkpt>
<trkpt lat="30.048712" lon="102.162375">
<time>2015-08-06T01:30:16Z</time></trkpt>
<trkpt lat="30.049501" lon="102.161583">
<time>2015-08-06T01:30:17Z</time></trkpt>
<trkpt lat="30.05006" lon="102.161022">
<time>2015-08-06T01:30:18Z</time></trkpt>
<trkpt lat="30.050739" lon="102.16035">
<time>2015-08-06T01:30:19Z</time></trkpt>
<trkpt lat="30.051048" lon="102.160029">
<time>2015-08-06T01:30:20Z</time></trkpt>
<trkpt lat="30.051357" lon="102.159688">
<time>2015-08-06T01:30:21Z</time></trkpt>
<trkpt lat="30.051637" lon="102.159327">
<time>2015-08-06T01:30:22Z</time></trkpt>
<trkpt lat="30.051796" lon="102.159097">
<time>2015-08-06T01:30:23Z</time></trkpt>
<trkpt lat="30.051946" lon="102.158896">
<time>2015-08-06T01:30:24Z</time></trkpt>
<trkpt lat="30.052116" lon="102.158716">
<time>2015-08-06T01:30:25Z</time></trkpt>
<trkpt lat="30.052195" lon="102.158646">
<time>2015-08-06T01:30:26Z</time></trkpt>
<trkpt lat="30.052295" lon="102.158596">
<time>2015-08-06T01:30:27Z</time></trkpt>
<trkpt lat="30.052405" lon="102.158535">
<time>2015-08-06T01:30:28Z</time></trkpt>
<trkpt lat="30.052525" lon="102.158505">
<time>2015-08-06T01:30:29Z</time></trkpt>
<trkpt lat="30.052615" lon="102.158485">
<time>2015-08-06T01:30:30Z</time></trkpt>
<trkpt lat="30.052715" lon="102.158475">
<time>2015-08-06T01:30:31Z</time></trkpt>
<trkpt lat="30.052815" lon="102.158485">
<time>2015-08-06T01:30:32Z</time></trkpt>
<trkpt lat="30.052935" lon="102.158505">
<time>2015-08-06T01:30:33Z</time></trkpt>
<trkpt lat="30.053065" lon="102.158535">
<time>2015-08-06T01:30:34Z</time></trkpt>
<trkpt lat="30.053175" lon="102.158586">
<time>2015-08-06T01:30:35Z</time></trkpt>
<trkpt lat="30.053295" lon="102.158656">
<time>2015-08-06T01:30:36Z</time></trkpt>
<trkpt lat="30.053416" lon="102.158736">
<time>2015-08-06T01:30:37Z</time></trkpt>
<trkpt lat="30.053596" lon="102.158876">
<time>2015-08-06T01:30:38Z</time></trkpt>
<trkpt lat="30.053826" lon="102.159077">
<time>2015-08-06T01:30:39Z</time></trkpt>
<trkpt lat="30.053996" lon="102.159197">
<time>2015-08-06T01:30:40Z</time></trkpt>
<trkpt lat="30.054147" lon="102.159297">
<time>2015-08-06T01:30:41Z</time></trkpt>
<trkpt lat="30.054297" lon="102.159367">
<time>2015-08-06T01:30:42Z</time></trkpt>
<trkpt lat="30.054427" lon="102.159418">
<time>2015-08-06T01:30:43Z</time></trkpt>
<trkpt lat="30.054557" lon="102.159458">
<time>2015-08-06T01:30:44Z</time></trkpt>
<trkpt lat="30.054667" lon="102.159488">
<time>2015-08-06T01:30:45Z</time></trkpt>
<trkpt lat="30.054807" lon="102.159498">
<time>2015-08-06T01:30:46Z</time></trkpt>
<trkpt lat="30.055007" lon="102.159508">
<time>2015-08-06T01:30:47Z</time></trkpt>
<trkpt lat="30.055407" lon="102.159508">
<time>2015-08-06T01:30:48Z</time></trkpt>
<trkpt lat="30.055887" lon="102.159518">
<time>2015-08-06T01:30:49Z</time></trkpt>
<trkpt lat="30.056247" lon="102.159538">
<time>2015-08-06T01:30:50Z</time></trkpt>
<trkpt lat="30.056407" lon="102.159568">
<time>2015-08-06T01:30:51Z</time></trkpt>
<trkpt lat="30.056537" lon="102.159598">
<time>2015-08-06T01:30:52Z</time></trkpt>
<trkpt lat="30.056797" lon="102.159678">
<time>2015-08-06T01:30:53Z</time></trkpt>
<trkpt lat="30.056987" lon="102.159738">
<time>2015-08-06T01:30:54Z</time></trkpt>
<trkpt lat="30.057268" lon="102.159848">
<time>2015-08-06T01:30:55Z</time></trkpt>
<trkpt lat="30.057558" lon="102.159979">
<time>2015-08-06T01:30:56Z</time></trkpt>
<trkpt lat="30.057798" lon="102.160129">
<time>2015-08-06T01:30:57Z</time></trkpt>
<trkpt lat="30.057938" lon="102.160229">
<time>2015-08-06T01:30:58Z</time></trkpt>
<trkpt lat="30.058049" lon="102.16032">
<time>2015-08-06T01:30:59Z</time></trkpt>
<trkpt lat="30.058129" lon="102.16041">
<time>2015-08-06T01:31:00Z</time></trkpt>
<trkpt lat="30.058179" lon="102.16049">
<time>2015-08-06T01:31:01Z</time></trkpt>
<trkpt lat="30.058279" lon="102.16064">
<time>2015-08-06T01:31:02Z</time></trkpt>
<trkpt lat="30.05841" lon="102.160861">
<time>2015-08-06T01:31:03Z</time></trkpt>
<trkpt lat="30.05851" lon="102.161031">
<time>2015-08-06T01:31:04Z</time></trkpt>
<trkpt lat="30.05869" lon="102.161332">
<time>2015-08-06T01:31:05Z</time></trkpt>
<trkpt lat="30.058801" lon="102.161492">
<time>2015-08-06T01:31:06Z</time></trkpt>
<trkpt lat="30.058921" lon="102.161633">
<time>2015-08-06T01:31:07Z</time></trkpt>
<trkpt lat="30.059101" lon="102.161823">
<time>2015-08-06T01:31:08Z</time></trkpt>
<trkpt lat="30.059232" lon="102.161943">
<time>2015-08-06T01:31:09Z</time></trkpt>
<trkpt lat="30.059402" lon="102.162084">
<time>2015-08-06T01:31:10Z</time></trkpt>
<trkpt lat="30.059482" lon="102.162184">
<time>2015-08-06T01:31:11Z</time></trkpt>
<trkpt lat="30.059562" lon="102.162294">
<time>2015-08-06T01:31:12Z</time></trkpt>
<trkpt lat="30.059683" lon="102.162475">
<time>2015-08-06T01:31:13Z</time></trkpt>
<trkpt lat="30.059743" lon="102.162605">
<time>2015-08-06T01:31:14Z</time></trkpt>
<trkpt lat="30.059783" lon="102.162705">
<time>2015-08-06T01:31:15Z</time></trkpt>
<trkpt lat="30.059833" lon="102.162886">
<time>2015-08-06T01:31:16Z</time></trkpt>
<trkpt lat="30.059914" lon="102.163176">
<time>2015-08-06T01:31:17Z</time></trkpt>
<trkpt lat="30.060055" lon="102.163688">
<time>2015-08-06T01:31:18Z</time></trkpt>
<trkpt lat="30.060135" lon="102.163978">
<time>2015-08-06T01:31:19Z</time></trkpt>
<trkpt lat="30.060196" lon="102.164139">
<time>2015-08-06T01:31:20Z</time></trkpt>
<trkpt lat="30.060246" lon="102.164229">
<time>2015-08-06T01:31:21Z</time></trkpt>
<trkpt lat="30.060306" lon="102.164329">
<time>2015-08-06T01:31:22Z</time></trkpt>
<trkpt lat="30.060366" lon="102.164419">
<time>2015-08-06T01:31:23Z</time></trkpt>
<trkpt lat="30.060426" lon="102.1645">
<time>2015-08-06T01:31:24Z</time></trkpt>
<trkpt lat="30.060517" lon="102.16459">
<time>2015-08-06T01:31:25Z</time></trkpt>
<trkpt lat="30.060587" lon="102.16467">
<time>2015-08-06T01:31:26Z</time></trkpt>
<trkpt lat="30.060697" lon="102.16478">
<time>2015-08-06T01:31:27Z</time></trkpt>
<trkpt lat="30.060757" lon="102.16485">
<time>2015-08-06T01:31:28Z</time></trkpt>
<trkpt lat="30.060827" lon="102.164941">
<time>2015-08-06T01:31:29Z</time></trkpt>
<trkpt lat="30.060897" lon="102.165031">
<time>2015-08-06T01:31:30Z</time></trkpt>
<trkpt lat="30.060947" lon="102.165101">
<time>2015-08-06T01:31:31Z</time></trkpt>
<trkpt lat="30.060988" lon="102.165191">
<time>2015-08-06T01:31:32Z</time></trkpt>
<trkpt lat="30.061028" lon="102.165261">
<time>2015-08-06T01:31:33Z</time></trkpt>
<trkpt lat="30.061088" lon="102.165412">
<time>2015-08-06T01:31:34Z</time></trkpt>
<trkpt lat="30.061299" lon="102.166003">
<time>2015-08-06T01:31:35Z</time></trkpt>
<trkpt lat="30.061349" lon="102.166143">
<time>2015-08-06T01:31:36Z</time></trkpt>
<trkpt lat="30.06147" lon="102.166504">
<time>2015-08-06T01:31:37Z</time></trkpt>
<trkpt lat="30.061591" lon="102.166845">
<time>2015-08-06T01:31:38Z</time></trkpt>
<trkpt lat="30.061621" lon="102.167006">
<time>2015-08-06T01:31:39Z</time></trkpt>
<trkpt lat="30.061651" lon="102.167106">
<time>2015-08-06T01:31:40Z</time></trkpt>
<trkpt lat="30.061661" lon="102.167196">
<time>2015-08-06T01:31:41Z</time></trkpt>
<trkpt lat="30.061672" lon="102.167356">
<time>2015-08-06T01:31:42Z</time></trkpt>
<trkpt lat="30.061682" lon="102.167497">
<time>2015-08-06T01:31:43Z</time></trkpt>
<trkpt lat="30.061673" lon="102.167958">
<time>2015-08-06T01:31:44Z</time></trkpt>
<trkpt lat="30.061644" lon="102.16871">
<time>2015-08-06T01:31:45Z</time></trkpt>
<trkpt lat="30.061615" lon="102.169351">
<time>2015-08-06T01:31:46Z</time></trkpt>
<trkpt lat="30.061616" lon="102.169642">
<time>2015-08-06T01:31:47Z</time></trkpt>
<trkpt lat="30.061626" lon="102.169852">
<time>2015-08-06T01:31:48Z</time></trkpt>
<trkpt lat="30.061627" lon="102.170013">
<time>2015-08-06T01:31:49Z</time></trkpt>
<trkpt lat="30.061647" lon="102.170223">
<time>2015-08-06T01:31:50Z</time></trkpt>
<trkpt lat="30.061809" lon="102.171426">
<time>2015-08-06T01:31:51Z</time></trkpt>
<trkpt lat="30.061982" lon="102.17288">
<time>2015-08-06T01:31:52Z</time></trkpt>
<trkpt lat="30.062033" lon="102.173211">
<time>2015-08-06T01:31:53Z</time></trkpt>
<trkpt lat="30.062073" lon="102.173411">
<time>2015-08-06T01:31:54Z</time></trkpt>
<trkpt lat="30.062133" lon="102.173612">
<time>2015-08-06T01:31:55Z</time></trkpt>
<trkpt lat="30.062194" lon="102.173742">
<time>2015-08-06T01:31:56Z</time></trkpt>
<trkpt lat="30.062254" lon="102.173872">
<time>2015-08-06T01:31:57Z</time></trkpt>
<trkpt lat="30.062314" lon="102.173952">
<time>2015-08-06T01:31:58Z</time></trkpt>
<trkpt lat="30.062454" lon="102.174123">
<time>2015-08-06T01:31:59Z</time></trkpt>
<trkpt lat="30.062625" lon="102.174323">
<time>2015-08-06T01:32:00Z</time></trkpt>
<trkpt lat="30.062975" lon="102.174674">
<time>2015-08-06T01:32:01Z</time></trkpt>
<trkpt lat="30.063316" lon="102.175005">
<time>2015-08-06T01:32:02Z</time></trkpt>
<trkpt lat="30.063416" lon="102.175085">
<time>2015-08-06T01:32:03Z</time></trkpt>
<trkpt lat="30.063496" lon="102.175135">
<time>2015-08-06T01:32:04Z</time></trkpt>
<trkpt lat="30.063556" lon="102.175175">
<time>2015-08-06T01:32:05Z</time></trkpt>
<trkpt lat="30.063636" lon="102.175205">
<time>2015-08-06T01:32:06Z</time></trkpt>
<trkpt lat="30.063727" lon="102.175225">
<time>2015-08-06T01:32:07Z</time></trkpt>
<trkpt lat="30.063797" lon="102.175245">
<time>2015-08-06T01:32:08Z</time></trkpt>
<trkpt lat="30.063887" lon="102.175255">
<time>2015-08-06T01:32:09Z</time></trkpt>
<trkpt lat="30.063987" lon="102.175245">
<time>2015-08-06T01:32:10Z</time></trkpt>
<trkpt lat="30.064116" lon="102.175215">
<time>2015-08-06T01:32:11Z</time></trkpt>
<trkpt lat="30.064246" lon="102.175185">
<time>2015-08-06T01:32:12Z</time></trkpt>
<trkpt lat="30.064376" lon="102.175125">
<time>2015-08-06T01:32:13Z</time></trkpt>
<trkpt lat="30.064996" lon="102.174804">
<time>2015-08-06T01:32:14Z</time></trkpt>
<trkpt lat="30.065345" lon="102.174644">
<time>2015-08-06T01:32:15Z</time></trkpt>
<trkpt lat="30.065635" lon="102.174494">
<time>2015-08-06T01:32:16Z</time></trkpt>
<trkpt lat="30.065785" lon="102.174393">
<time>2015-08-06T01:32:17Z</time></trkpt>
<trkpt lat="30.065885" lon="102.174313">
<time>2015-08-06T01:32:18Z</time></trkpt>
<trkpt lat="30.066005" lon="102.174213">
<time>2015-08-06T01:32:19Z</time></trkpt>
<trkpt lat="30.066114" lon="102.174093">
<time>2015-08-06T01:32:20Z</time></trkpt>
<trkpt lat="30.066294" lon="102.173882">
<time>2015-08-06T01:32:21Z</time></trkpt>
<trkpt lat="30.066434" lon="102.173692">
<time>2015-08-06T01:32:22Z</time></trkpt>
<trkpt lat="30.066603" lon="102.173501">
<time>2015-08-06T01:32:23Z</time></trkpt>
<trkpt lat="30.066982" lon="102.17303">
<time>2015-08-06T01:32:24Z</time></trkpt>
<trkpt lat="30.067372" lon="102.172559">
<time>2015-08-06T01:32:25Z</time></trkpt>
<trkpt lat="30.067501" lon="102.172368">
<time>2015-08-06T01:32:26Z</time></trkpt>
<trkpt lat="30.067581" lon="102.172248">
<time>2015-08-06T01:32:27Z</time></trkpt>
<trkpt lat="30.067651" lon="102.172058">
<time>2015-08-06T01:32:28Z</time></trkpt>
<trkpt lat="30.0677" lon="102.171877">
<time>2015-08-06T01:32:29Z</time></trkpt>
<trkpt lat="30.06773" lon="102.171717">
<time>2015-08-06T01:32:30Z</time></trkpt>
<trkpt lat="30.06776" lon="102.171546">
<time>2015-08-06T01:32:31Z</time></trkpt>
<trkpt lat="30.067759" lon="102.171326">
<time>2015-08-06T01:32:32Z</time></trkpt>
<trkpt lat="30.067769" lon="102.171095">
<time>2015-08-06T01:32:33Z</time></trkpt>
<trkpt lat="30.067778" lon="102.170935">
<time>2015-08-06T01:32:34Z</time></trkpt>
<trkpt lat="30.067818" lon="102.170805">
<time>2015-08-06T01:32:35Z</time></trkpt>
<trkpt lat="30.067858" lon="102.170704">
<time>2015-08-06T01:32:36Z</time></trkpt>
<trkpt lat="30.067908" lon="102.170604">
<time>2015-08-06T01:32:37Z</time></trkpt>
<trkpt lat="30.067958" lon="102.170524">
<time>2015-08-06T01:32:38Z</time></trkpt>
<trkpt lat="30.068028" lon="102.170464">
<time>2015-08-06T01:32:39Z</time></trkpt>
<trkpt lat="30.068117" lon="102.170394">
<time>2015-08-06T01:32:40Z</time></trkpt>
<trkpt lat="30.068227" lon="102.170293">
<time>2015-08-06T01:32:41Z</time></trkpt>
<trkpt lat="30.068377" lon="102.170173">
<time>2015-08-06T01:32:42Z</time></trkpt>
<trkpt lat="30.068467" lon="102.170083">
<time>2015-08-06T01:32:43Z</time></trkpt>
<trkpt lat="30.068547" lon="102.169973">
<time>2015-08-06T01:32:44Z</time></trkpt>
<trkpt lat="30.068597" lon="102.169912">
<time>2015-08-06T01:32:45Z</time></trkpt>
<trkpt lat="30.068656" lon="102.169822">
<time>2015-08-06T01:32:46Z</time></trkpt>
<trkpt lat="30.068706" lon="102.169712">
<time>2015-08-06T01:32:47Z</time></trkpt>
<trkpt lat="30.068776" lon="102.169551">
<time>2015-08-06T01:32:48Z</time></trkpt>
<trkpt lat="30.068865" lon="102.169341">
<time>2015-08-06T01:32:49Z</time></trkpt>
<trkpt lat="30.068965" lon="102.16911">
<time>2015-08-06T01:32:50Z</time></trkpt>
<trkpt lat="30.069085" lon="102.16889">
<time>2015-08-06T01:32:51Z</time></trkpt>
<trkpt lat="30.069294" lon="102.168559">
<time>2015-08-06T01:32:52Z</time></trkpt>
<trkpt lat="30.069464" lon="102.168298">
<time>2015-08-06T01:32:53Z</time></trkpt>
<trkpt lat="30.069703" lon="102.168018">
<time>2015-08-06T01:32:54Z</time></trkpt>
<trkpt lat="30.070032" lon="102.167617">
<time>2015-08-06T01:32:55Z</time></trkpt>
<trkpt lat="30.070212" lon="102.167426">
<time>2015-08-06T01:32:56Z</time></trkpt>
<trkpt lat="30.070322" lon="102.167316">
<time>2015-08-06T01:32:57Z</time></trkpt>
<trkpt lat="30.070462" lon="102.167226">
<time>2015-08-06T01:32:58Z</time></trkpt>
<trkpt lat="30.070581" lon="102.167146">
<time>2015-08-06T01:32:59Z</time></trkpt>
<trkpt lat="30.070811" lon="102.167055">
<time>2015-08-06T01:33:00Z</time></trkpt>
<trkpt lat="30.070991" lon="102.167015">
<time>2015-08-06T01:33:01Z</time></trkpt>
<trkpt lat="30.071141" lon="102.167005">
<time>2015-08-06T01:33:02Z</time></trkpt>
<trkpt lat="30.071251" lon="102.167005">
<time>2015-08-06T01:33:03Z</time></trkpt>
<trkpt lat="30.071371" lon="102.167015">
<time>2015-08-06T01:33:04Z</time></trkpt>
<trkpt lat="30.071511" lon="102.167035">
<time>2015-08-06T01:33:05Z</time></trkpt>
<trkpt lat="30.071821" lon="102.167115">
<time>2015-08-06T01:33:06Z</time></trkpt>
<trkpt lat="30.072071" lon="102.167196">
<time>2015-08-06T01:33:07Z</time></trkpt>
<trkpt lat="30.072262" lon="102.167236">
<time>2015-08-06T01:33:08Z</time></trkpt>
<trkpt lat="30.072392" lon="102.167246">
<time>2015-08-06T01:33:09Z</time></trkpt>
<trkpt lat="30.072532" lon="102.167226">
<time>2015-08-06T01:33:10Z</time></trkpt>
<trkpt lat="30.072661" lon="102.167206">
<time>2015-08-06T01:33:11Z</time></trkpt>
<trkpt lat="30.073011" lon="102.167095">
<time>2015-08-06T01:33:12Z</time></trkpt>
<trkpt lat="30.073221" lon="102.167035">
<time>2015-08-06T01:33:13Z</time></trkpt>
<trkpt lat="30.073401" lon="102.166985">
<time>2015-08-06T01:33:14Z</time></trkpt>
<trkpt lat="30.073741" lon="102.166885">
<time>2015-08-06T01:33:15Z</time></trkpt>
<trkpt lat="30.073821" lon="102.166855">
<time>2015-08-06T01:33:16Z</time></trkpt>
<trkpt lat="30.074191" lon="102.166765">
<time>2015-08-06T01:33:17Z</time></trkpt>
<trkpt lat="30.074511" lon="102.166724">
<time>2015-08-06T01:33:18Z</time></trkpt>
<trkpt lat="30.074641" lon="102.166704">
<time>2015-08-06T01:33:19Z</time></trkpt>
<trkpt lat="30.074791" lon="102.166704">
<time>2015-08-06T01:33:20Z</time></trkpt>
<trkpt lat="30.075111" lon="102.166704">
<time>2015-08-06T01:33:21Z</time></trkpt>
<trkpt lat="30.075331" lon="102.166704">
<time>2015-08-06T01:33:22Z</time></trkpt>
<trkpt lat="30.075441" lon="102.166684">
<time>2015-08-06T01:33:23Z</time></trkpt>
<trkpt lat="30.07553" lon="102.166654">
<time>2015-08-06T01:33:24Z</time></trkpt>
<trkpt lat="30.0756" lon="102.166624">
<time>2015-08-06T01:33:25Z</time></trkpt>
<trkpt lat="30.07568" lon="102.166574">
<time>2015-08-06T01:33:26Z</time></trkpt>
<trkpt lat="30.07575" lon="102.166514">
<time>2015-08-06T01:33:27Z</time></trkpt>
<trkpt lat="30.07581" lon="102.166444">
<time>2015-08-06T01:33:28Z</time></trkpt>
<trkpt lat="30.07587" lon="102.166353">
<time>2015-08-06T01:33:29Z</time></trkpt>
<trkpt lat="30.07591" lon="102.166253">
<time>2015-08-06T01:33:30Z</time></trkpt>
<trkpt lat="30.075949" lon="102.166043">
<time>2015-08-06T01:33:31Z</time></trkpt>
<trkpt lat="30.076038" lon="102.165171">
<time>2015-08-06T01:33:32Z</time></trkpt>
<trkpt lat="30.076116" lon="102.164359">
<time>2015-08-06T01:33:33Z</time></trkpt>
<trkpt lat="30.076155" lon="102.163898">
<time>2015-08-06T01:33:34Z</time></trkpt>
<trkpt lat="30.076145" lon="102.163597">
<time>2015-08-06T01:33:35Z</time></trkpt>
<trkpt lat="30.076124" lon="102.163436">
<time>2015-08-06T01:33:36Z</time></trkpt>
<trkpt lat="30.076074" lon="102.163286">
<time>2015-08-06T01:33:37Z</time></trkpt>
<trkpt lat="30.075994" lon="102.163106">
<time>2015-08-06T01:33:38Z</time></trkpt>
<trkpt lat="30.075863" lon="102.162875">
<time>2015-08-06T01:33:39Z</time></trkpt>
<trkpt lat="30.075613" lon="102.162494">
<time>2015-08-06T01:33:40Z</time></trkpt>
<trkpt lat="30.075492" lon="102.162304">
<time>2015-08-06T01:33:41Z</time></trkpt>
<trkpt lat="30.075402" lon="102.162133">
<time>2015-08-06T01:33:42Z</time></trkpt>
<trkpt lat="30.075352" lon="102.161993">
<time>2015-08-06T01:33:43Z</time></trkpt>
<trkpt lat="30.075321" lon="102.161843">
<time>2015-08-06T01:33:44Z</time></trkpt>
<trkpt lat="30.075301" lon="102.161682">
<time>2015-08-06T01:33:45Z</time></trkpt>
<trkpt lat="30.075311" lon="102.161492">
<time>2015-08-06T01:33:46Z</time></trkpt>
<trkpt lat="30.075331" lon="102.161351">
<time>2015-08-06T01:33:47Z</time></trkpt>
<trkpt lat="30.07538" lon="102.161121">
<time>2015-08-06T01:33:48Z</time></trkpt>
<trkpt lat="30.0754" lon="102.161031">
<time>2015-08-06T01:33:49Z</time></trkpt>
<trkpt lat="30.07541" lon="102.16091">
<time>2015-08-06T01:33:50Z</time></trkpt>
<trkpt lat="30.07542" lon="102.16081">
<time>2015-08-06T01:33:51Z</time></trkpt>
<trkpt lat="30.075409" lon="102.16073">
<time>2015-08-06T01:33:52Z</time></trkpt>
<trkpt lat="30.075389" lon="102.16064">
<time>2015-08-06T01:33:53Z</time></trkpt>
<trkpt lat="30.075349" lon="102.16056">
<time>2015-08-06T01:33:54Z</time></trkpt>
<trkpt lat="30.075319" lon="102.160479">
<time>2015-08-06T01:33:55Z</time></trkpt>
<trkpt lat="30.075269" lon="102.160409">
<time>2015-08-06T01:33:56Z</time></trkpt>
<trkpt lat="30.075219" lon="102.160339">
<time>2015-08-06T01:33:57Z</time></trkpt>
<trkpt lat="30.075139" lon="102.160259">
<time>2015-08-06T01:33:58Z</time></trkpt>
<trkpt lat="30.074988" lon="102.160139">
<time>2015-08-06T01:33:59Z</time></trkpt>
<trkpt lat="30.074758" lon="102.159988">
<time>2015-08-06T01:34:00Z</time></trkpt>
<trkpt lat="30.074638" lon="102.159878">
<time>2015-08-06T01:34:01Z</time></trkpt>
<trkpt lat="30.074538" lon="102.159778">
<time>2015-08-06T01:34:02Z</time></trkpt>
<trkpt lat="30.074488" lon="102.159718">
<time>2015-08-06T01:34:03Z</time></trkpt>
<trkpt lat="30.074457" lon="102.159677">
<time>2015-08-06T01:34:04Z</time></trkpt>
<trkpt lat="30.074427" lon="102.159627">
<time>2015-08-06T01:34:05Z</time></trkpt>
<trkpt lat="30.074407" lon="102.159587">
<time>2015-08-06T01:34:06Z</time></trkpt>
<trkpt lat="30.074367" lon="102.159467">
<time>2015-08-06T01:34:07Z</time></trkpt>
<trkpt lat="30.074337" lon="102.159357">
<time>2015-08-06T01:34:08Z</time></trkpt>
<trkpt lat="30.074307" lon="102.159176">
<time>2015-08-06T01:34:09Z</time></trkpt>
<trkpt lat="30.074225" lon="102.158515">
<time>2015-08-06T01:34:10Z</time></trkpt>
<trkpt lat="30.074185" lon="102.158254">
<time>2015-08-06T01:34:11Z</time></trkpt>
<trkpt lat="30.074124" lon="102.158024">
<time>2015-08-06T01:34:12Z</time></trkpt>
<trkpt lat="30.074074" lon="102.157883">
<time>2015-08-06T01:34:13Z</time></trkpt>
<trkpt lat="30.073994" lon="102.157703">
<time>2015-08-06T01:34:14Z</time></trkpt>
<trkpt lat="30.073833" lon="102.157432">
<time>2015-08-06T01:34:15Z</time></trkpt>
<trkpt lat="30.073603" lon="102.156981">
<time>2015-08-06T01:34:16Z</time></trkpt>
<trkpt lat="30.073462" lon="102.15669">
<time>2015-08-06T01:34:17Z</time></trkpt>
<trkpt lat="30.073362" lon="102.15643">
<time>2015-08-06T01:34:18Z</time></trkpt>
<trkpt lat="30.073291" lon="102.156109">
<time>2015-08-06T01:34:19Z</time></trkpt>
<trkpt lat="30.073271" lon="102.155939">
<time>2015-08-06T01:34:20Z</time></trkpt>
<trkpt lat="30.07326" lon="102.155708">
<time>2015-08-06T01:34:21Z</time></trkpt>
<trkpt lat="30.07327" lon="102.155508">
<time>2015-08-06T01:34:22Z</time></trkpt>
<trkpt lat="30.07329" lon="102.155347">
<time>2015-08-06T01:34:23Z</time></trkpt>
<trkpt lat="30.073329" lon="102.155097">
<time>2015-08-06T01:34:24Z</time></trkpt>
<trkpt lat="30.073399" lon="102.154776">
<time>2015-08-06T01:34:25Z</time></trkpt>
<trkpt lat="30.073498" lon="102.154375">
<time>2015-08-06T01:34:26Z</time></trkpt>
<trkpt lat="30.073597" lon="102.154004">
<time>2015-08-06T01:34:27Z</time></trkpt>
<trkpt lat="30.073647" lon="102.153764">
<time>2015-08-06T01:34:28Z</time></trkpt>
<trkpt lat="30.073657" lon="102.153633">
<time>2015-08-06T01:34:29Z</time></trkpt>
<trkpt lat="30.073676" lon="102.153383">
<time>2015-08-06T01:34:30Z</time></trkpt>
<trkpt lat="30.073645" lon="102.153002">
<time>2015-08-06T01:34:31Z</time></trkpt>
<trkpt lat="30.073645" lon="102.152801">
<time>2015-08-06T01:34:32Z</time></trkpt>
<trkpt lat="30.073635" lon="102.152661">
<time>2015-08-06T01:34:33Z</time></trkpt>
<trkpt lat="30.073644" lon="102.15244">
<time>2015-08-06T01:34:34Z</time></trkpt>
<trkpt lat="30.073674" lon="102.15221">
<time>2015-08-06T01:34:35Z</time></trkpt>
<trkpt lat="30.073842" lon="102.151288">
<time>2015-08-06T01:34:36Z</time></trkpt>
<trkpt lat="30.073961" lon="102.150546">
<time>2015-08-06T01:34:37Z</time></trkpt>
<trkpt lat="30.07404" lon="102.150115">
<time>2015-08-06T01:34:38Z</time></trkpt>
<trkpt lat="30.07415" lon="102.149684">
<time>2015-08-06T01:34:39Z</time></trkpt>
<trkpt lat="30.074289" lon="102.149193">
<time>2015-08-06T01:34:40Z</time></trkpt>
<trkpt lat="30.074398" lon="102.148802">
<time>2015-08-06T01:34:41Z</time></trkpt>
<trkpt lat="30.074498" lon="102.148502">
<time>2015-08-06T01:34:42Z</time></trkpt>
<trkpt lat="30.074567" lon="102.148271">
<time>2015-08-06T01:34:43Z</time></trkpt>
<trkpt lat="30.074667" lon="102.148051">
<time>2015-08-06T01:34:44Z</time></trkpt>
<trkpt lat="30.074786" lon="102.14783">
<time>2015-08-06T01:34:45Z</time></trkpt>
<trkpt lat="30.074886" lon="102.14765">
<time>2015-08-06T01:34:46Z</time></trkpt>
<trkpt lat="30.075086" lon="102.147309">
<time>2015-08-06T01:34:47Z</time></trkpt>
<trkpt lat="30.075215" lon="102.147058">
<time>2015-08-06T01:34:48Z</time></trkpt>
<trkpt lat="30.075285" lon="102.146858">
<time>2015-08-06T01:34:49Z</time></trkpt>
<trkpt lat="30.075325" lon="102.146687">
<time>2015-08-06T01:34:50Z</time></trkpt>
<trkpt lat="30.075354" lon="102.146527">
<time>2015-08-06T01:34:51Z</time></trkpt>
<trkpt lat="30.075354" lon="102.146377">
<time>2015-08-06T01:34:52Z</time></trkpt>
<trkpt lat="30.075334" lon="102.146206">
<time>2015-08-06T01:34:53Z</time></trkpt>
<trkpt lat="30.075283" lon="102.145936">
<time>2015-08-06T01:34:54Z</time></trkpt>
<trkpt lat="30.075122" lon="102.145345">
<time>2015-08-06T01:34:55Z</time></trkpt>
<trkpt lat="30.074931" lon="102.144623">
<time>2015-08-06T01:34:56Z</time></trkpt>
<trkpt lat="30.07482" lon="102.144132">
<time>2015-08-06T01:34:57Z</time></trkpt>
<trkpt lat="30.07475" lon="102.143651">
<time>2015-08-06T01:34:58Z</time></trkpt>
<trkpt lat="30.074618" lon="102.142779">
<time>2015-08-06T01:34:59Z</time></trkpt>
<trkpt lat="30.074557" lon="102.142318">
<time>2015-08-06T01:35:00Z</time></trkpt>
<trkpt lat="30.074517" lon="102.141987">
<time>2015-08-06T01:35:01Z</time></trkpt>
<trkpt lat="30.074507" lon="102.141777">
<time>2015-08-06T01:35:02Z</time></trkpt>
<trkpt lat="30.074496" lon="102.141587">
<time>2015-08-06T01:35:03Z</time></trkpt>
<trkpt lat="30.074516" lon="102.141376">
<time>2015-08-06T01:35:04Z</time></trkpt>
<trkpt lat="30.074546" lon="102.141096">
<time>2015-08-06T01:35:05Z</time></trkpt>
<trkpt lat="30.074585" lon="102.140805">
<time>2015-08-06T01:35:06Z</time></trkpt>
<trkpt lat="30.074674" lon="102.140394">
<time>2015-08-06T01:35:07Z</time></trkpt>
<trkpt lat="30.074784" lon="102.139833">
<time>2015-08-06T01:35:08Z</time></trkpt>
<trkpt lat="30.074843" lon="102.139482">
<time>2015-08-06T01:35:09Z</time></trkpt>
<trkpt lat="30.074883" lon="102.139262">
<time>2015-08-06T01:35:10Z</time></trkpt>
<trkpt lat="30.074893" lon="102.139111">
<time>2015-08-06T01:35:11Z</time></trkpt>
<trkpt lat="30.074882" lon="102.138971">
<time>2015-08-06T01:35:12Z</time></trkpt>
<trkpt lat="30.074842" lon="102.138801">
<time>2015-08-06T01:35:13Z</time></trkpt>
<trkpt lat="30.074792" lon="102.13863">
<time>2015-08-06T01:35:14Z</time></trkpt>
<trkpt lat="30.074721" lon="102.1384">
<time>2015-08-06T01:35:15Z</time></trkpt>
<trkpt lat="30.074661" lon="102.13821">
<time>2015-08-06T01:35:16Z</time></trkpt>
<trkpt lat="30.074621" lon="102.137929">
<time>2015-08-06T01:35:17Z</time></trkpt>
<trkpt lat="30.07459" lon="102.137518">
<time>2015-08-06T01:35:18Z</time></trkpt>
<trkpt lat="30.07458" lon="102.137308">
<time>2015-08-06T01:35:19Z</time></trkpt>
<trkpt lat="30.07454" lon="102.137188">
<time>2015-08-06T01:35:20Z</time></trkpt>
<trkpt lat="30.074489" lon="102.137067">
<time>2015-08-06T01:35:21Z</time></trkpt>
<trkpt lat="30.074409" lon="102.136947">
<time>2015-08-06T01:35:22Z</time></trkpt>
<trkpt lat="30.074349" lon="102.136877">
<time>2015-08-06T01:35:23Z</time></trkpt>
<trkpt lat="30.074259" lon="102.136797">
<time>2015-08-06T01:35:24Z</time></trkpt>
<trkpt lat="30.074109" lon="102.136707">
<time>2015-08-06T01:35:25Z</time></trkpt>
<trkpt lat="30.073739" lon="102.136536">
<time>2015-08-06T01:35:26Z</time></trkpt>
<trkpt lat="30.073579" lon="102.136446">
<time>2015-08-06T01:35:27Z</time></trkpt>
<trkpt lat="30.073358" lon="102.136286">
<time>2015-08-06T01:35:28Z</time></trkpt>
<trkpt lat="30.073138" lon="102.136086">
<time>2015-08-06T01:35:29Z</time></trkpt>
<trkpt lat="30.072798" lon="102.135755">
<time>2015-08-06T01:35:30Z</time></trkpt>
<trkpt lat="30.072247" lon="102.135184">
<time>2015-08-06T01:35:31Z</time></trkpt>
<trkpt lat="30.071956" lon="102.134873">
<time>2015-08-06T01:35:32Z</time></trkpt>
<trkpt lat="30.071736" lon="102.134613">
<time>2015-08-06T01:35:33Z</time></trkpt>
<trkpt lat="30.071546" lon="102.134352">
<time>2015-08-06T01:35:34Z</time></trkpt>
<trkpt lat="30.071415" lon="102.134122">
<time>2015-08-06T01:35:35Z</time></trkpt>
<trkpt lat="30.071004" lon="102.13331">
<time>2015-08-06T01:35:36Z</time></trkpt>
<trkpt lat="30.070753" lon="102.132819">
<time>2015-08-06T01:35:37Z</time></trkpt>
<trkpt lat="30.070643" lon="102.132639">
<time>2015-08-06T01:35:38Z</time></trkpt>
<trkpt lat="30.070553" lon="102.132529">
<time>2015-08-06T01:35:39Z</time></trkpt>
<trkpt lat="30.070443" lon="102.132429">
<time>2015-08-06T01:35:40Z</time></trkpt>
<trkpt lat="30.070343" lon="102.132339">
<time>2015-08-06T01:35:41Z</time></trkpt>
<trkpt lat="30.070213" lon="102.132248">
<time>2015-08-06T01:35:42Z</time></trkpt>
<trkpt lat="30.070033" lon="102.132138">
<time>2015-08-06T01:35:43Z</time></trkpt>
<trkpt lat="30.069722" lon="102.131998">
<time>2015-08-06T01:35:44Z</time></trkpt>
<trkpt lat="30.069522" lon="102.131888">
<time>2015-08-06T01:35:45Z</time></trkpt>
<trkpt lat="30.069382" lon="102.131768">
<time>2015-08-06T01:35:46Z</time></trkpt>
<trkpt lat="30.069262" lon="102.131657">
<time>2015-08-06T01:35:47Z</time></trkpt>
<trkpt lat="30.069182" lon="102.131537">
<time>2015-08-06T01:35:48Z</time></trkpt>
<trkpt lat="30.069102" lon="102.131417">
<time>2015-08-06T01:35:49Z</time></trkpt>
<trkpt lat="30.069041" lon="102.131287">
<time>2015-08-06T01:35:50Z</time></trkpt>
<trkpt lat="30.068991" lon="102.131176">
<time>2015-08-06T01:35:51Z</time></trkpt>
<trkpt lat="30.068961" lon="102.131066">
<time>2015-08-06T01:35:52Z</time></trkpt>
<trkpt lat="30.068931" lon="102.130756">
<time>2015-08-06T01:35:53Z</time></trkpt>
<trkpt lat="30.06891" lon="102.130305">
<time>2015-08-06T01:35:54Z</time></trkpt>
<trkpt lat="30.06891" lon="102.130125">
<time>2015-08-06T01:35:55Z</time></trkpt>
<trkpt lat="30.06889" lon="102.129964">
<time>2015-08-06T01:35:56Z</time></trkpt>
<trkpt lat="30.06886" lon="102.129834">
<time>2015-08-06T01:35:57Z</time></trkpt>
<trkpt lat="30.068819" lon="102.129714">
<time>2015-08-06T01:35:58Z</time></trkpt>
<trkpt lat="30.068769" lon="102.129574">
<time>2015-08-06T01:35:59Z</time></trkpt>
<trkpt lat="30.068699" lon="102.129443">
<time>2015-08-06T01:36:00Z</time></trkpt>
<trkpt lat="30.068619" lon="102.129323">
<time>2015-08-06T01:36:01Z</time></trkpt>
<trkpt lat="30.068459" lon="102.129143">
<time>2015-08-06T01:36:02Z</time></trkpt>
<trkpt lat="30.068248" lon="102.128923">
<time>2015-08-06T01:36:03Z</time></trkpt>
<trkpt lat="30.068088" lon="102.128722">
<time>2015-08-06T01:36:04Z</time></trkpt>
<trkpt lat="30.067998" lon="102.128582">
<time>2015-08-06T01:36:05Z</time></trkpt>
<trkpt lat="30.067958" lon="102.128462">
<time>2015-08-06T01:36:06Z</time></trkpt>
<trkpt lat="30.067938" lon="102.128312">
<time>2015-08-06T01:36:07Z</time></trkpt>
<trkpt lat="30.067937" lon="102.128161">
<time>2015-08-06T01:36:08Z</time></trkpt>
<trkpt lat="30.067947" lon="102.128051">
<time>2015-08-06T01:36:09Z</time></trkpt>
<trkpt lat="30.067967" lon="102.127841">
<time>2015-08-06T01:36:10Z</time></trkpt>
<trkpt lat="30.068017" lon="102.12756">
<time>2015-08-06T01:36:11Z</time></trkpt>
<trkpt lat="30.068037" lon="102.12739">
<time>2015-08-06T01:36:12Z</time></trkpt>
<trkpt lat="30.068046" lon="102.1272">
<time>2015-08-06T01:36:13Z</time></trkpt>
<trkpt lat="30.068036" lon="102.127019">
<time>2015-08-06T01:36:14Z</time></trkpt>
<trkpt lat="30.067996" lon="102.126819">
<time>2015-08-06T01:36:15Z</time></trkpt>
<trkpt lat="30.067956" lon="102.126679">
<time>2015-08-06T01:36:16Z</time></trkpt>
<trkpt lat="30.067896" lon="102.126539">
<time>2015-08-06T01:36:17Z</time></trkpt>
<trkpt lat="30.067835" lon="102.126398">
<time>2015-08-06T01:36:18Z</time></trkpt>
<trkpt lat="30.067685" lon="102.126188">
<time>2015-08-06T01:36:19Z</time></trkpt>
<trkpt lat="30.067395" lon="102.125837">
<time>2015-08-06T01:36:20Z</time></trkpt>
<trkpt lat="30.067214" lon="102.125607">
<time>2015-08-06T01:36:21Z</time></trkpt>
<trkpt lat="30.067044" lon="102.125407">
<time>2015-08-06T01:36:22Z</time></trkpt>
<trkpt lat="30.066874" lon="102.125156">
<time>2015-08-06T01:36:23Z</time></trkpt>
<trkpt lat="30.066784" lon="102.125016">
<time>2015-08-06T01:36:24Z</time></trkpt>
<trkpt lat="30.066684" lon="102.124806">
<time>2015-08-06T01:36:25Z</time></trkpt>
<trkpt lat="30.066593" lon="102.124596">
<time>2015-08-06T01:36:26Z</time></trkpt>
<trkpt lat="30.066503" lon="102.124315">
<time>2015-08-06T01:36:27Z</time></trkpt>
<trkpt lat="30.066433" lon="102.124035">
<time>2015-08-06T01:36:28Z</time></trkpt>
<trkpt lat="30.066362" lon="102.123624">
<time>2015-08-06T01:36:29Z</time></trkpt>
<trkpt lat="30.066332" lon="102.123494">
<time>2015-08-06T01:36:30Z</time></trkpt>
<trkpt lat="30.066322" lon="102.123454">
<time>2015-08-06T01:36:31Z</time></trkpt>
<trkpt lat="30.066302" lon="102.123434">
<time>2015-08-06T01:36:32Z</time></trkpt>
<trkpt lat="30.066282" lon="102.123414">
<time>2015-08-06T01:36:33Z</time></trkpt>
<trkpt lat="30.066262" lon="102.123404">
<time>2015-08-06T01:36:34Z</time></trkpt>
<trkpt lat="30.066232" lon="102.123394">
<time>2015-08-06T01:36:35Z</time></trkpt>
<trkpt lat="30.066202" lon="102.123394">
<time>2015-08-06T01:36:36Z</time></trkpt>
<trkpt lat="30.066182" lon="102.123404">
<time>2015-08-06T01:36:37Z</time></trkpt>
<trkpt lat="30.066152" lon="102.123414">
<time>2015-08-06T01:36:38Z</time></trkpt>
<trkpt lat="30.066132" lon="102.123424">
<time>2015-08-06T01:36:39Z</time></trkpt>
<trkpt lat="30.066122" lon="102.123444">
<time>2015-08-06T01:36:40Z</time></trkpt>
<trkpt lat="30.066112" lon="102.123484">
<time>2015-08-06T01:36:41Z</time></trkpt>
<trkpt lat="30.066112" lon="102.123524">
<time>2015-08-06T01:36:42Z</time></trkpt>
<trkpt lat="30.066112" lon="102.123564">
<time>2015-08-06T01:36:43Z</time></trkpt>
<trkpt lat="30.066112" lon="102.123594">
<time>2015-08-06T01:36:44Z</time></trkpt>
<trkpt lat="30.066132" lon="102.123694">
<time>2015-08-06T01:36:45Z</time></trkpt>
<trkpt lat="30.066313" lon="102.124385">
<time>2015-08-06T01:36:46Z</time></trkpt>
<trkpt lat="30.066333" lon="102.124465">
<time>2015-08-06T01:36:47Z</time></trkpt>
<trkpt lat="30.066343" lon="102.124515">
<time>2015-08-06T01:36:48Z</time></trkpt>
<trkpt lat="30.066343" lon="102.124555">
<time>2015-08-06T01:36:49Z</time></trkpt>
<trkpt lat="30.066343" lon="102.124586">
<time>2015-08-06T01:36:50Z</time></trkpt>
<trkpt lat="30.066333" lon="102.124616">
<time>2015-08-06T01:36:51Z</time></trkpt>
<trkpt lat="30.066323" lon="102.124646">
<time>2015-08-06T01:36:52Z</time></trkpt>
<trkpt lat="30.066313" lon="102.124666">
<time>2015-08-06T01:36:53Z</time></trkpt>
<trkpt lat="30.066293" lon="102.124676">
<time>2015-08-06T01:36:54Z</time></trkpt>
<trkpt lat="30.066273" lon="102.124686">
<time>2015-08-06T01:36:55Z</time></trkpt>
<trkpt lat="30.066233" lon="102.124696">
<time>2015-08-06T01:36:56Z</time></trkpt>
<trkpt lat="30.066213" lon="102.124686">
<time>2015-08-06T01:36:57Z</time></trkpt>
<trkpt lat="30.066183" lon="102.124686">
<time>2015-08-06T01:36:58Z</time></trkpt>
<trkpt lat="30.066153" lon="102.124666">
<time>2015-08-06T01:36:59Z</time></trkpt>
<trkpt lat="30.066143" lon="102.124646">
<time>2015-08-06T01:37:00Z</time></trkpt>
<trkpt lat="30.066133" lon="102.124616">
<time>2015-08-06T01:37:01Z</time></trkpt>
<trkpt lat="30.066123" lon="102.124576">
<time>2015-08-06T01:37:02Z</time></trkpt>
<trkpt lat="30.066043" lon="102.124175">
<time>2015-08-06T01:37:03Z</time></trkpt>
<trkpt lat="30.065922" lon="102.123634">
<time>2015-08-06T01:37:04Z</time></trkpt>
<trkpt lat="30.065852" lon="102.123384">
<time>2015-08-06T01:37:05Z</time></trkpt>
<trkpt lat="30.065782" lon="102.123213">
<time>2015-08-06T01:37:06Z</time></trkpt>
<trkpt lat="30.065722" lon="102.123093">
<time>2015-08-06T01:37:07Z</time></trkpt>
<trkpt lat="30.065652" lon="102.122943">
<time>2015-08-06T01:37:08Z</time></trkpt>
<trkpt lat="30.065561" lon="102.122813">
<time>2015-08-06T01:37:09Z</time></trkpt>
<trkpt lat="30.065451" lon="102.122673">
<time>2015-08-06T01:37:10Z</time></trkpt>
<trkpt lat="30.065061" lon="102.122192">
<time>2015-08-06T01:37:11Z</time></trkpt>
<trkpt lat="30.064871" lon="102.121922">
<time>2015-08-06T01:37:12Z</time></trkpt>
<trkpt lat="30.06474" lon="102.121701">
<time>2015-08-06T01:37:13Z</time></trkpt>
<trkpt lat="30.06469" lon="102.121551">
<time>2015-08-06T01:37:14Z</time></trkpt>
<trkpt lat="30.06466" lon="102.121381">
<time>2015-08-06T01:37:15Z</time></trkpt>
<trkpt lat="30.06465" lon="102.121251">
<time>2015-08-06T01:37:16Z</time></trkpt>
<trkpt lat="30.06466" lon="102.1211">
<time>2015-08-06T01:37:17Z</time></trkpt>
<trkpt lat="30.06469" lon="102.12096">
<time>2015-08-06T01:37:18Z</time></trkpt>
<trkpt lat="30.064739" lon="102.1208">
<time>2015-08-06T01:37:19Z</time></trkpt>
<trkpt lat="30.064799" lon="102.12066">
<time>2015-08-06T01:37:20Z</time></trkpt>
<trkpt lat="30.064889" lon="102.12054">
<time>2015-08-06T01:37:21Z</time></trkpt>
<trkpt lat="30.064979" lon="102.120419">
<time>2015-08-06T01:37:22Z</time></trkpt>
<trkpt lat="30.065059" lon="102.120329">
<time>2015-08-06T01:37:23Z</time></trkpt>
<trkpt lat="30.065399" lon="102.120009">
<time>2015-08-06T01:37:24Z</time></trkpt>
<trkpt lat="30.065688" lon="102.119638">
<time>2015-08-06T01:37:25Z</time></trkpt>
<trkpt lat="30.065888" lon="102.119308">
<time>2015-08-06T01:37:26Z</time></trkpt>
<trkpt lat="30.066008" lon="102.119088">
<time>2015-08-06T01:37:27Z</time></trkpt>
<trkpt lat="30.066297" lon="102.118527">
<time>2015-08-06T01:37:28Z</time></trkpt>
<trkpt lat="30.066407" lon="102.118377">
<time>2015-08-06T01:37:29Z</time></trkpt>
<trkpt lat="30.066527" lon="102.118256">
<time>2015-08-06T01:37:30Z</time></trkpt>
<trkpt lat="30.066627" lon="102.118156">
<time>2015-08-06T01:37:31Z</time></trkpt>
<trkpt lat="30.066767" lon="102.118066">
<time>2015-08-06T01:37:32Z</time></trkpt>
<trkpt lat="30.067177" lon="102.117806">
<time>2015-08-06T01:37:33Z</time></trkpt>
<trkpt lat="30.067317" lon="102.117726">
<time>2015-08-06T01:37:34Z</time></trkpt>
<trkpt lat="30.067417" lon="102.117616">
<time>2015-08-06T01:37:35Z</time></trkpt>
<trkpt lat="30.067526" lon="102.117495">
<time>2015-08-06T01:37:36Z</time></trkpt>
<trkpt lat="30.067626" lon="102.117375">
<time>2015-08-06T01:37:37Z</time></trkpt>
<trkpt lat="30.067716" lon="102.117225">
<time>2015-08-06T01:37:38Z</time></trkpt>
<trkpt lat="30.067816" lon="102.117025">
<time>2015-08-06T01:37:39Z</time></trkpt>
<trkpt lat="30.068135" lon="102.116384">
<time>2015-08-06T01:37:40Z</time></trkpt>
<trkpt lat="30.068265" lon="102.116074">
<time>2015-08-06T01:37:41Z</time></trkpt>
<trkpt lat="30.068345" lon="102.115823">
<time>2015-08-06T01:37:42Z</time></trkpt>
<trkpt lat="30.068465" lon="102.115373">
<time>2015-08-06T01:37:43Z</time></trkpt>
<trkpt lat="30.068574" lon="102.114922">
<time>2015-08-06T01:37:44Z</time></trkpt>
<trkpt lat="30.068664" lon="102.114462">
<time>2015-08-06T01:37:45Z</time></trkpt>
<trkpt lat="30.068804" lon="102.113821">
<time>2015-08-06T01:37:46Z</time></trkpt>
<trkpt lat="30.068993" lon="102.11302">
<time>2015-08-06T01:37:47Z</time></trkpt>
<trkpt lat="30.069113" lon="102.1126">
<time>2015-08-06T01:37:48Z</time></trkpt>
<trkpt lat="30.069253" lon="102.112349">
<time>2015-08-06T01:37:49Z</time></trkpt>
<trkpt lat="30.069392" lon="102.112079">
<time>2015-08-06T01:37:50Z</time></trkpt>
<trkpt lat="30.069742" lon="102.111578">
<time>2015-08-06T01:37:51Z</time></trkpt>
<trkpt lat="30.070172" lon="102.111018">
<time>2015-08-06T01:37:52Z</time></trkpt>
<trkpt lat="30.070302" lon="102.110828">
<time>2015-08-06T01:37:53Z</time></trkpt>
<trkpt lat="30.070401" lon="102.110667">
<time>2015-08-06T01:37:54Z</time></trkpt>
<trkpt lat="30.070471" lon="102.110507">
<time>2015-08-06T01:37:55Z</time></trkpt>
<trkpt lat="30.070791" lon="102.109717">
<time>2015-08-06T01:37:56Z</time></trkpt>
<trkpt lat="30.070871" lon="102.109526">
<time>2015-08-06T01:37:57Z</time></trkpt>
<trkpt lat="30.071011" lon="102.109276">
<time>2015-08-06T01:37:58Z</time></trkpt>
<trkpt lat="30.07161" lon="102.108315">
<time>2015-08-06T01:37:59Z</time></trkpt>
<trkpt lat="30.07186" lon="102.107875">
<time>2015-08-06T01:38:00Z</time></trkpt>
<trkpt lat="30.07193" lon="102.107685">
<time>2015-08-06T01:38:01Z</time></trkpt>
<trkpt lat="30.07196" lon="102.107545">
<time>2015-08-06T01:38:02Z</time></trkpt>
<trkpt lat="30.07197" lon="102.107424">
<time>2015-08-06T01:38:03Z</time></trkpt>
<trkpt lat="30.07197" lon="102.107304">
<time>2015-08-06T01:38:04Z</time></trkpt>
<trkpt lat="30.07193" lon="102.107124">
<time>2015-08-06T01:38:05Z</time></trkpt>
<trkpt lat="30.071849" lon="102.106784">
<time>2015-08-06T01:38:06Z</time></trkpt>
<trkpt lat="30.071769" lon="102.106424">
<time>2015-08-06T01:38:07Z</time></trkpt>
<trkpt lat="30.071739" lon="102.106234">
<time>2015-08-06T01:38:08Z</time></trkpt>
<trkpt lat="30.071729" lon="102.106063">
<time>2015-08-06T01:38:09Z</time></trkpt>
<trkpt lat="30.071749" lon="102.105903">
<time>2015-08-06T01:38:10Z</time></trkpt>
<trkpt lat="30.071779" lon="102.105773">
<time>2015-08-06T01:38:11Z</time></trkpt>
<trkpt lat="30.071849" lon="102.105623">
<time>2015-08-06T01:38:12Z</time></trkpt>
<trkpt lat="30.071949" lon="102.105453">
<time>2015-08-06T01:38:13Z</time></trkpt>
<trkpt lat="30.072109" lon="102.105173">
<time>2015-08-06T01:38:14Z</time></trkpt>
<trkpt lat="30.072179" lon="102.105013">
<time>2015-08-06T01:38:15Z</time></trkpt>
<trkpt lat="30.072219" lon="102.104852">
<time>2015-08-06T01:38:16Z</time></trkpt>
<trkpt lat="30.072229" lon="102.104652">
<time>2015-08-06T01:38:17Z</time></trkpt>
<trkpt lat="30.072209" lon="102.104462">
<time>2015-08-06T01:38:18Z</time></trkpt>
<trkpt lat="30.072148" lon="102.104232">
<time>2015-08-06T01:38:19Z</time></trkpt>
<trkpt lat="30.072068" lon="102.103802">
<time>2015-08-06T01:38:20Z</time></trkpt>
<trkpt lat="30.072038" lon="102.103622">
<time>2015-08-06T01:38:21Z</time></trkpt>
<trkpt lat="30.072038" lon="102.103522">
<time>2015-08-06T01:38:22Z</time></trkpt>
<trkpt lat="30.072058" lon="102.103441">
<time>2015-08-06T01:38:23Z</time></trkpt>
<trkpt lat="30.072068" lon="102.103361">
<time>2015-08-06T01:38:24Z</time></trkpt>
<trkpt lat="30.072118" lon="102.103211">
<time>2015-08-06T01:38:25Z</time></trkpt>
<trkpt lat="30.072198" lon="102.103021">
<time>2015-08-06T01:38:26Z</time></trkpt>
<trkpt lat="30.072578" lon="102.102371">
<time>2015-08-06T01:38:27Z</time></trkpt>
<trkpt lat="30.072658" lon="102.102231">
<time>2015-08-06T01:38:28Z</time></trkpt>
<trkpt lat="30.072718" lon="102.102061">
<time>2015-08-06T01:38:29Z</time></trkpt>
<trkpt lat="30.072758" lon="102.1019">
<time>2015-08-06T01:38:30Z</time></trkpt>
<trkpt lat="30.072788" lon="102.10173">
<time>2015-08-06T01:38:31Z</time></trkpt>
<trkpt lat="30.072818" lon="102.10144">
<time>2015-08-06T01:38:32Z</time></trkpt>
<trkpt lat="30.072838" lon="102.10121">
<time>2015-08-06T01:38:33Z</time></trkpt>
<trkpt lat="30.072888" lon="102.10105">
<time>2015-08-06T01:38:34Z</time></trkpt>
<trkpt lat="30.072958" lon="102.10091">
<time>2015-08-06T01:38:35Z</time></trkpt>
<trkpt lat="30.073048" lon="102.10077">
<time>2015-08-06T01:38:36Z</time></trkpt>
<trkpt lat="30.073308" lon="102.10044">
<time>2015-08-06T01:38:37Z</time></trkpt>
<trkpt lat="30.073468" lon="102.10025">
<time>2015-08-06T01:38:38Z</time></trkpt>
<trkpt lat="30.073817" lon="102.099729">
<time>2015-08-06T01:38:39Z</time></trkpt>
<trkpt lat="30.074087" lon="102.099299">
<time>2015-08-06T01:38:40Z</time></trkpt>
<trkpt lat="30.074337" lon="102.098869">
<time>2015-08-06T01:38:41Z</time></trkpt>
<trkpt lat="30.074667" lon="102.098319">
<time>2015-08-06T01:38:42Z</time></trkpt>
<trkpt lat="30.075187" lon="102.097568">
<time>2015-08-06T01:38:43Z</time></trkpt>
<trkpt lat="30.076457" lon="102.096208">
<time>2015-08-06T01:38:44Z</time></trkpt>
<trkpt lat="30.077127" lon="102.095518">
<time>2015-08-06T01:38:45Z</time></trkpt>
<trkpt lat="30.077297" lon="102.095328">
<time>2015-08-06T01:38:46Z</time></trkpt>
<trkpt lat="30.077487" lon="102.095188">
<time>2015-08-06T01:38:47Z</time></trkpt>
<trkpt lat="30.077717" lon="102.095047">
<time>2015-08-06T01:38:48Z</time></trkpt>
<trkpt lat="30.079107" lon="102.094297">
<time>2015-08-06T01:38:49Z</time></trkpt>
<trkpt lat="30.079407" lon="102.094127">
<time>2015-08-06T01:38:50Z</time></trkpt>
<trkpt lat="30.079577" lon="102.093977">
<time>2015-08-06T01:38:51Z</time></trkpt>
<trkpt lat="30.079677" lon="102.093837">
<time>2015-08-06T01:38:52Z</time></trkpt>
<trkpt lat="30.079767" lon="102.093677">
<time>2015-08-06T01:38:53Z</time></trkpt>
<trkpt lat="30.079817" lon="102.093527">
<time>2015-08-06T01:38:54Z</time></trkpt>
<trkpt lat="30.079857" lon="102.093347">
<time>2015-08-06T01:38:55Z</time></trkpt>
<trkpt lat="30.079867" lon="102.093107">
<time>2015-08-06T01:38:56Z</time></trkpt>
<trkpt lat="30.079848" lon="102.092907">
<time>2015-08-06T01:38:57Z</time></trkpt>
<trkpt lat="30.079818" lon="102.092687">
<time>2015-08-06T01:38:58Z</time></trkpt>
<trkpt lat="30.079668" lon="102.092217">
<time>2015-08-06T01:38:59Z</time></trkpt>
<trkpt lat="30.079348" lon="102.091187">
<time>2015-08-06T01:39:00Z</time></trkpt>
<trkpt lat="30.079038" lon="102.090147">
<time>2015-08-06T01:39:01Z</time></trkpt>
<trkpt lat="30.078978" lon="102.089837">
<time>2015-08-06T01:39:02Z</time></trkpt>
<trkpt lat="30.078958" lon="102.089637">
<time>2015-08-06T01:39:03Z</time></trkpt>
<trkpt lat="30.078938" lon="102.089397">
<time>2015-08-06T01:39:04Z</time></trkpt>
<trkpt lat="30.078919" lon="102.088807">
<time>2015-08-06T01:39:05Z</time></trkpt>
<trkpt lat="30.078959" lon="102.088067">
<time>2015-08-06T01:39:06Z</time></trkpt>
<trkpt lat="30.078979" lon="102.087737">
<time>2015-08-06T01:39:07Z</time></trkpt>
<trkpt lat="30.078979" lon="102.087397">
<time>2015-08-06T01:39:08Z</time></trkpt>
<trkpt lat="30.078939" lon="102.087077">
<time>2015-08-06T01:39:09Z</time></trkpt>
<trkpt lat="30.078879" lon="102.086787">
<time>2015-08-06T01:39:10Z</time></trkpt>
<trkpt lat="30.078839" lon="102.086527">
<time>2015-08-06T01:39:11Z</time></trkpt>
<trkpt lat="30.07883" lon="102.086297">
<time>2015-08-06T01:39:12Z</time></trkpt>
<trkpt lat="30.07886" lon="102.086087">
<time>2015-08-06T01:39:13Z</time></trkpt>
<trkpt lat="30.07891" lon="102.085877">
<time>2015-08-06T01:39:14Z</time></trkpt>
<trkpt lat="30.07914" lon="102.085317">
<time>2015-08-06T01:39:15Z</time></trkpt>
<trkpt lat="30.07923" lon="102.085088">
<time>2015-08-06T01:39:16Z</time></trkpt>
<trkpt lat="30.07928" lon="102.084848">
<time>2015-08-06T01:39:17Z</time></trkpt>
<trkpt lat="30.07927" lon="102.084648">
<time>2015-08-06T01:39:18Z</time></trkpt>
<trkpt lat="30.07925" lon="102.084448">
<time>2015-08-06T01:39:19Z</time></trkpt>
<trkpt lat="30.079171" lon="102.083898">
<time>2015-08-06T01:39:20Z</time></trkpt>
<trkpt lat="30.079131" lon="102.083248">
<time>2015-08-06T01:39:21Z</time></trkpt>
<trkpt lat="30.079111" lon="102.082988">
<time>2015-08-06T01:39:22Z</time></trkpt>
<trkpt lat="30.079101" lon="102.082658">
<time>2015-08-06T01:39:23Z</time></trkpt>
<trkpt lat="30.079122" lon="102.082378">
<time>2015-08-06T01:39:24Z</time></trkpt>
<trkpt lat="30.079142" lon="102.081669">
<time>2015-08-06T01:39:25Z</time></trkpt>
<trkpt lat="30.079172" lon="102.081059">
<time>2015-08-06T01:39:26Z</time></trkpt>
<trkpt lat="30.079163" lon="102.080949">
<time>2015-08-06T01:39:27Z</time></trkpt>
<trkpt lat="30.079163" lon="102.080809">
<time>2015-08-06T01:39:28Z</time></trkpt>
<trkpt lat="30.079143" lon="102.080689">
<time>2015-08-06T01:39:29Z</time></trkpt>
<trkpt lat="30.079133" lon="102.080569">
<time>2015-08-06T01:39:30Z</time></trkpt>
<trkpt lat="30.079113" lon="102.080409">
<time>2015-08-06T01:39:31Z</time></trkpt>
<trkpt lat="30.079053" lon="102.080079">
<time>2015-08-06T01:39:32Z</time></trkpt>
<trkpt lat="30.078874" lon="102.07931">
<time>2015-08-06T01:39:33Z</time></trkpt>
<trkpt lat="30.078834" lon="102.07906">
<time>2015-08-06T01:39:34Z</time></trkpt>
<trkpt lat="30.078824" lon="102.07894">
<time>2015-08-06T01:39:35Z</time></trkpt>
<trkpt lat="30.078824" lon="102.07883">
<time>2015-08-06T01:39:36Z</time></trkpt>
<trkpt lat="30.078834" lon="102.07874">
<time>2015-08-06T01:39:37Z</time></trkpt>
<trkpt lat="30.078844" lon="102.07865">
<time>2015-08-06T01:39:38Z</time></trkpt>
<trkpt lat="30.078874" lon="102.07855">
<time>2015-08-06T01:39:39Z</time></trkpt>
<trkpt lat="30.078934" lon="102.07841">
<time>2015-08-06T01:39:40Z</time></trkpt>
<trkpt lat="30.079185" lon="102.077911">
<time>2015-08-06T01:39:41Z</time></trkpt>
<trkpt lat="30.079235" lon="102.077811">
<time>2015-08-06T01:39:42Z</time></trkpt>
<trkpt lat="30.079295" lon="102.077671">
<time>2015-08-06T01:39:43Z</time></trkpt>
<trkpt lat="30.079335" lon="102.077561">
<time>2015-08-06T01:39:44Z</time></trkpt>
<trkpt lat="30.079375" lon="102.077451">
<time>2015-08-06T01:39:45Z</time></trkpt>
<trkpt lat="30.079415" lon="102.077321">
<time>2015-08-06T01:39:46Z</time></trkpt>
<trkpt lat="30.079746" lon="102.076072">
<time>2015-08-06T01:39:47Z</time></trkpt>
<trkpt lat="30.079787" lon="102.075972">
<time>2015-08-06T01:39:48Z</time></trkpt>
<trkpt lat="30.079847" lon="102.075832">
<time>2015-08-06T01:39:49Z</time></trkpt>
<trkpt lat="30.079897" lon="102.075722">
<time>2015-08-06T01:39:50Z</time></trkpt>
<trkpt lat="30.079947" lon="102.075602">
<time>2015-08-06T01:39:51Z</time></trkpt>
<trkpt lat="30.080047" lon="102.075442">
<time>2015-08-06T01:39:52Z</time></trkpt>
<trkpt lat="30.080247" lon="102.075123">
<time>2015-08-06T01:39:53Z</time></trkpt>
<trkpt lat="30.080328" lon="102.074983">
<time>2015-08-06T01:39:54Z</time></trkpt>
<trkpt lat="30.080378" lon="102.074873">
<time>2015-08-06T01:39:55Z</time></trkpt>
<trkpt lat="30.080438" lon="102.074723">
<time>2015-08-06T01:39:56Z</time></trkpt>
<trkpt lat="30.080478" lon="102.074573">
<time>2015-08-06T01:39:57Z</time></trkpt>
<trkpt lat="30.080508" lon="102.074453">
<time>2015-08-06T01:39:58Z</time></trkpt>
<trkpt lat="30.080528" lon="102.074343">
<time>2015-08-06T01:39:59Z</time></trkpt>
<trkpt lat="30.080538" lon="102.074243">
<time>2015-08-06T01:40:00Z</time></trkpt>
<trkpt lat="30.080548" lon="102.074143">
<time>2015-08-06T01:40:01Z</time></trkpt>
<trkpt lat="30.080548" lon="102.074024">
<time>2015-08-06T01:40:02Z</time></trkpt>
<trkpt lat="30.08053" lon="102.072974">
<time>2015-08-06T01:40:03Z</time></trkpt>
<trkpt lat="30.08051" lon="102.072835">
<time>2015-08-06T01:40:04Z</time></trkpt>
<trkpt lat="30.08049" lon="102.072745">
<time>2015-08-06T01:40:05Z</time></trkpt>
<trkpt lat="30.08046" lon="102.072645">
<time>2015-08-06T01:40:06Z</time></trkpt>
<trkpt lat="30.08041" lon="102.072535">
<time>2015-08-06T01:40:07Z</time></trkpt>
<trkpt lat="30.08033" lon="102.072415">
<time>2015-08-06T01:40:08Z</time></trkpt>
<trkpt lat="30.080011" lon="102.072025">
<time>2015-08-06T01:40:09Z</time></trkpt>
<trkpt lat="30.079951" lon="102.071915">
<time>2015-08-06T01:40:10Z</time></trkpt>
<trkpt lat="30.079911" lon="102.071816">
<time>2015-08-06T01:40:11Z</time></trkpt>
<trkpt lat="30.079891" lon="102.071716">
<time>2015-08-06T01:40:12Z</time></trkpt>
<trkpt lat="30.079871" lon="102.071626">
<time>2015-08-06T01:40:13Z</time></trkpt>
<trkpt lat="30.079871" lon="102.071536">
<time>2015-08-06T01:40:14Z</time></trkpt>
<trkpt lat="30.079881" lon="102.071436">
<time>2015-08-06T01:40:15Z</time></trkpt>
<trkpt lat="30.079912" lon="102.071176">
<time>2015-08-06T01:40:16Z</time></trkpt>
<trkpt lat="30.080012" lon="102.070587">
<time>2015-08-06T01:40:17Z</time></trkpt>
<trkpt lat="30.080153" lon="102.069887">
<time>2015-08-06T01:40:18Z</time></trkpt>
<trkpt lat="30.080183" lon="102.069768">
<time>2015-08-06T01:40:19Z</time></trkpt>
<trkpt lat="30.080223" lon="102.069668">
<time>2015-08-06T01:40:20Z</time></trkpt>
<trkpt lat="30.080283" lon="102.069578">
<time>2015-08-06T01:40:21Z</time></trkpt>
<trkpt lat="30.080444" lon="102.069368">
<time>2015-08-06T01:40:22Z</time></trkpt>
<trkpt lat="30.080874" lon="102.068878">
<time>2015-08-06T01:40:23Z</time></trkpt>
<trkpt lat="30.081034" lon="102.068659">
<time>2015-08-06T01:40:24Z</time></trkpt>
<trkpt lat="30.081105" lon="102.068549">
<time>2015-08-06T01:40:25Z</time></trkpt>
<trkpt lat="30.081175" lon="102.068429">
<time>2015-08-06T01:40:26Z</time></trkpt>
<trkpt lat="30.081235" lon="102.068319">
<time>2015-08-06T01:40:27Z</time></trkpt>
<trkpt lat="30.081295" lon="102.068169">
<time>2015-08-06T01:40:28Z</time></trkpt>
<trkpt lat="30.081365" lon="102.067969">
<time>2015-08-06T01:40:29Z</time></trkpt>
<trkpt lat="30.081496" lon="102.06755">
<time>2015-08-06T01:40:30Z</time></trkpt>
<trkpt lat="30.081586" lon="102.06728">
<time>2015-08-06T01:40:31Z</time></trkpt>
<trkpt lat="30.081667" lon="102.06707">
<time>2015-08-06T01:40:32Z</time></trkpt>
<trkpt lat="30.081747" lon="102.066941">
<time>2015-08-06T01:40:33Z</time></trkpt>
<trkpt lat="30.081837" lon="102.066801">
<time>2015-08-06T01:40:34Z</time></trkpt>
<trkpt lat="30.081967" lon="102.066641">
<time>2015-08-06T01:40:35Z</time></trkpt>
<trkpt lat="30.082097" lon="102.066511">
<time>2015-08-06T01:40:36Z</time></trkpt>
<trkpt lat="30.082227" lon="102.066361">
<time>2015-08-06T01:40:37Z</time></trkpt>
<trkpt lat="30.082318" lon="102.066231">
<time>2015-08-06T01:40:38Z</time></trkpt>
<trkpt lat="30.082378" lon="102.066132">
<time>2015-08-06T01:40:39Z</time></trkpt>
<trkpt lat="30.082438" lon="102.066032">
<time>2015-08-06T01:40:40Z</time></trkpt>
<trkpt lat="30.082719" lon="102.065442">
<time>2015-08-06T01:40:41Z</time></trkpt>
<trkpt lat="30.082809" lon="102.065253">
<time>2015-08-06T01:40:42Z</time></trkpt>
<trkpt lat="30.082889" lon="102.065093">
<time>2015-08-06T01:40:43Z</time></trkpt>
<trkpt lat="30.082969" lon="102.064963">
<time>2015-08-06T01:40:44Z</time></trkpt>
<trkpt lat="30.08306" lon="102.064853">
<time>2015-08-06T01:40:45Z</time></trkpt>
<trkpt lat="30.08315" lon="102.064753">
<time>2015-08-06T01:40:46Z</time></trkpt>
<trkpt lat="30.08322" lon="102.064683">
<time>2015-08-06T01:40:47Z</time></trkpt>
<trkpt lat="30.08334" lon="102.064584">
<time>2015-08-06T01:40:48Z</time></trkpt>
<trkpt lat="30.08345" lon="102.064514">
<time>2015-08-06T01:40:49Z</time></trkpt>
<trkpt lat="30.08354" lon="102.064464">
<time>2015-08-06T01:40:50Z</time></trkpt>
<trkpt lat="30.08364" lon="102.064444">
<time>2015-08-06T01:40:51Z</time></trkpt>
<trkpt lat="30.08386" lon="102.064404">
<time>2015-08-06T01:40:52Z</time></trkpt>
<trkpt lat="30.08403" lon="102.064394">
<time>2015-08-06T01:40:53Z</time></trkpt>
<trkpt lat="30.0842" lon="102.064384">
<time>2015-08-06T01:40:54Z</time></trkpt>
<trkpt lat="30.08442" lon="102.064354">
<time>2015-08-06T01:40:55Z</time></trkpt>
<trkpt lat="30.08462" lon="102.064324">
<time>2015-08-06T01:40:56Z</time></trkpt>
<trkpt lat="30.08481" lon="102.064274">
<time>2015-08-06T01:40:57Z</time></trkpt>
<trkpt lat="30.08496" lon="102.064204">
<time>2015-08-06T01:40:58Z</time></trkpt>
<trkpt lat="30.085131" lon="102.064104">
<time>2015-08-06T01:40:59Z</time></trkpt>
<trkpt lat="30.085281" lon="102.063994">
<time>2015-08-06T01:41:00Z</time></trkpt>
<trkpt lat="30.085731" lon="102.063585">
<time>2015-08-06T01:41:01Z</time></trkpt>
<trkpt lat="30.086552" lon="102.062886">
<time>2015-08-06T01:41:02Z</time></trkpt>
<trkpt lat="30.086983" lon="102.062436">
<time>2015-08-06T01:41:03Z</time></trkpt>
<trkpt lat="30.087344" lon="102.062007">
<time>2015-08-06T01:41:04Z</time></trkpt>
<trkpt lat="30.087975" lon="102.061198">
<time>2015-08-06T01:41:05Z</time></trkpt>
<trkpt lat="30.088246" lon="102.060759">
<time>2015-08-06T01:41:06Z</time></trkpt>
<trkpt lat="30.088306" lon="102.060669">
<time>2015-08-06T01:41:07Z</time></trkpt>
<trkpt lat="30.088346" lon="102.060599">
<time>2015-08-06T01:41:08Z</time></trkpt>
<trkpt lat="30.088366" lon="102.060519">
<time>2015-08-06T01:41:09Z</time></trkpt>
<trkpt lat="30.088396" lon="102.060429">
<time>2015-08-06T01:41:10Z</time></trkpt>
<trkpt lat="30.088416" lon="102.060329">
<time>2015-08-06T01:41:11Z</time></trkpt>
<trkpt lat="30.088447" lon="102.06019">
<time>2015-08-06T01:41:12Z</time></trkpt>
<trkpt lat="30.088467" lon="102.06002">
<time>2015-08-06T01:41:13Z</time></trkpt>
<trkpt lat="30.088477" lon="102.05989">
<time>2015-08-06T01:41:14Z</time></trkpt>
<trkpt lat="30.088497" lon="102.05976">
<time>2015-08-06T01:41:15Z</time></trkpt>
<trkpt lat="30.088527" lon="102.05965">
<time>2015-08-06T01:41:16Z</time></trkpt>
<trkpt lat="30.088568" lon="102.05955">
<time>2015-08-06T01:41:17Z</time></trkpt>
<trkpt lat="30.088608" lon="102.059461">
<time>2015-08-06T01:41:18Z</time></trkpt>
<trkpt lat="30.088668" lon="102.059371">
<time>2015-08-06T01:41:19Z</time></trkpt>
<trkpt lat="30.088858" lon="102.059181">
<time>2015-08-06T01:41:20Z</time></trkpt>
<trkpt lat="30.089449" lon="102.058682">
<time>2015-08-06T01:41:21Z</time></trkpt>
<trkpt lat="30.089759" lon="102.058472">
<time>2015-08-06T01:41:22Z</time></trkpt>
<trkpt lat="30.08987" lon="102.058392">
<time>2015-08-06T01:41:23Z</time></trkpt>
<trkpt lat="30.08999" lon="102.058352">
<time>2015-08-06T01:41:24Z</time></trkpt>
<trkpt lat="30.09034" lon="102.058232">
<time>2015-08-06T01:41:25Z</time></trkpt>
<trkpt lat="30.09081" lon="102.058033">
<time>2015-08-06T01:41:26Z</time></trkpt>
<trkpt lat="30.091231" lon="102.057733">
<time>2015-08-06T01:41:27Z</time></trkpt>
<trkpt lat="30.091952" lon="102.057024">
<time>2015-08-06T01:41:28Z</time></trkpt>
<trkpt lat="30.092663" lon="102.056336">
<time>2015-08-06T01:41:29Z</time></trkpt>
<trkpt lat="30.093364" lon="102.055826">
<time>2015-08-06T01:41:30Z</time></trkpt>
<trkpt lat="30.094295" lon="102.055417">
<time>2015-08-06T01:41:31Z</time></trkpt>
<trkpt lat="30.094855" lon="102.055098">
<time>2015-08-06T01:41:32Z</time></trkpt>
<trkpt lat="30.095516" lon="102.054539">
<time>2015-08-06T01:41:33Z</time></trkpt>
<trkpt lat="30.095867" lon="102.054229">
<time>2015-08-06T01:41:34Z</time></trkpt>
<trkpt lat="30.095997" lon="102.054109">
<time>2015-08-06T01:41:35Z</time></trkpt>
<trkpt lat="30.096147" lon="102.05394">
<time>2015-08-06T01:41:36Z</time></trkpt>
<trkpt lat="30.096258" lon="102.05379">
<time>2015-08-06T01:41:37Z</time></trkpt>
<trkpt lat="30.096498" lon="102.053421">
<time>2015-08-06T01:41:38Z</time></trkpt>
<trkpt lat="30.096569" lon="102.053291">
<time>2015-08-06T01:41:39Z</time></trkpt>
<trkpt lat="30.096609" lon="102.053191">
<time>2015-08-06T01:41:40Z</time></trkpt>
<trkpt lat="30.09683" lon="102.052652">
<time>2015-08-06T01:41:41Z</time></trkpt>
<trkpt lat="30.09697" lon="102.052382">
<time>2015-08-06T01:41:42Z</time></trkpt>
<trkpt lat="30.097051" lon="102.052283">
<time>2015-08-06T01:41:43Z</time></trkpt>
<trkpt lat="30.097141" lon="102.052183">
<time>2015-08-06T01:41:44Z</time></trkpt>
<trkpt lat="30.097231" lon="102.052133">
<time>2015-08-06T01:41:45Z</time></trkpt>
<trkpt lat="30.097341" lon="102.052093">
<time>2015-08-06T01:41:46Z</time></trkpt>
<trkpt lat="30.097491" lon="102.052033">
<time>2015-08-06T01:41:47Z</time></trkpt>
<trkpt lat="30.097611" lon="102.052003">
<time>2015-08-06T01:41:48Z</time></trkpt>
<trkpt lat="30.097731" lon="102.051973">
<time>2015-08-06T01:41:49Z</time></trkpt>
<trkpt lat="30.097841" lon="102.051933">
<time>2015-08-06T01:41:50Z</time></trkpt>
<trkpt lat="30.097971" lon="102.051873">
<time>2015-08-06T01:41:51Z</time></trkpt>
<trkpt lat="30.098082" lon="102.051793">
<time>2015-08-06T01:41:52Z</time></trkpt>
<trkpt lat="30.098352" lon="102.051524">
<time>2015-08-06T01:41:53Z</time></trkpt>
<trkpt lat="30.098793" lon="102.051035">
<time>2015-08-06T01:41:54Z</time></trkpt>
<trkpt lat="30.099114" lon="102.050706">
<time>2015-08-06T01:41:55Z</time></trkpt>
<trkpt lat="30.099724" lon="102.050296">
<time>2015-08-06T01:41:56Z</time></trkpt>
<trkpt lat="30.099865" lon="102.050177">
<time>2015-08-06T01:41:57Z</time></trkpt>
<trkpt lat="30.099955" lon="102.050097">
<time>2015-08-06T01:41:58Z</time></trkpt>
<trkpt lat="30.100055" lon="102.049977">
<time>2015-08-06T01:41:59Z</time></trkpt>
<trkpt lat="30.100456" lon="102.049408">
<time>2015-08-06T01:42:00Z</time></trkpt>
<trkpt lat="30.100757" lon="102.048999">
<time>2015-08-06T01:42:01Z</time></trkpt>
<trkpt lat="30.100867" lon="102.048869">
<time>2015-08-06T01:42:02Z</time></trkpt>
<trkpt lat="30.100988" lon="102.048759">
<time>2015-08-06T01:42:03Z</time></trkpt>
<trkpt lat="30.101348" lon="102.04842">
<time>2015-08-06T01:42:04Z</time></trkpt>
<trkpt lat="30.101849" lon="102.047901">
<time>2015-08-06T01:42:05Z</time></trkpt>
<trkpt lat="30.10215" lon="102.047572">
<time>2015-08-06T01:42:06Z</time></trkpt>
<trkpt lat="30.10227" lon="102.047432">
<time>2015-08-06T01:42:07Z</time></trkpt>
<trkpt lat="30.102391" lon="102.047242">
<time>2015-08-06T01:42:08Z</time></trkpt>
<trkpt lat="30.102471" lon="102.047063">
<time>2015-08-06T01:42:09Z</time></trkpt>
<trkpt lat="30.102551" lon="102.046893">
<time>2015-08-06T01:42:10Z</time></trkpt>
<trkpt lat="30.102612" lon="102.046694">
<time>2015-08-06T01:42:11Z</time></trkpt>
<trkpt lat="30.102652" lon="102.046484">
<time>2015-08-06T01:42:12Z</time></trkpt>
<trkpt lat="30.102693" lon="102.046254">
<time>2015-08-06T01:42:13Z</time></trkpt>
<trkpt lat="30.102754" lon="102.045646">
<time>2015-08-06T01:42:14Z</time></trkpt>
<trkpt lat="30.102754" lon="102.045526">
<time>2015-08-06T01:42:15Z</time></trkpt>
<trkpt lat="30.102755" lon="102.045396">
<time>2015-08-06T01:42:16Z</time></trkpt>
<trkpt lat="30.102676" lon="102.044738">
<time>2015-08-06T01:42:17Z</time></trkpt>
<trkpt lat="30.102548" lon="102.044039">
<time>2015-08-06T01:42:18Z</time></trkpt>
<trkpt lat="30.102409" lon="102.04351">
<time>2015-08-06T01:42:19Z</time></trkpt>
<trkpt lat="30.102389" lon="102.043431">
<time>2015-08-06T01:42:20Z</time></trkpt>
<trkpt lat="30.102369" lon="102.043371">
<time>2015-08-06T01:42:21Z</time></trkpt>
<trkpt lat="30.102349" lon="102.043311">
<time>2015-08-06T01:42:22Z</time></trkpt>
<trkpt lat="30.102309" lon="102.043251">
<time>2015-08-06T01:42:23Z</time></trkpt>
<trkpt lat="30.10227" lon="102.043201">
<time>2015-08-06T01:42:24Z</time></trkpt>
<trkpt lat="30.10224" lon="102.043171">
<time>2015-08-06T01:42:25Z</time></trkpt>
<trkpt lat="30.10219" lon="102.043131">
<time>2015-08-06T01:42:26Z</time></trkpt>
<trkpt lat="30.10216" lon="102.043101">
<time>2015-08-06T01:42:27Z</time></trkpt>
<trkpt lat="30.10209" lon="102.043052">
<time>2015-08-06T01:42:28Z</time></trkpt>
<trkpt lat="30.101531" lon="102.042762">
<time>2015-08-06T01:42:29Z</time></trkpt>
<trkpt lat="30.101381" lon="102.042682">
<time>2015-08-06T01:42:30Z</time></trkpt>
<trkpt lat="30.101241" lon="102.042593">
<time>2015-08-06T01:42:31Z</time></trkpt>
<trkpt lat="30.101021" lon="102.042433">
<time>2015-08-06T01:42:32Z</time></trkpt>
<trkpt lat="30.100413" lon="102.041864">
<time>2015-08-06T01:42:33Z</time></trkpt>
<trkpt lat="30.100123" lon="102.041635">
<time>2015-08-06T01:42:34Z</time></trkpt>
<trkpt lat="30.100023" lon="102.041585">
<time>2015-08-06T01:42:35Z</time></trkpt>
<trkpt lat="30.099933" lon="102.041535">
<time>2015-08-06T01:42:36Z</time></trkpt>
<trkpt lat="30.099813" lon="102.041515">
<time>2015-08-06T01:42:37Z</time></trkpt>
<trkpt lat="30.099693" lon="102.041505">
<time>2015-08-06T01:42:38Z</time></trkpt>
<trkpt lat="30.099573" lon="102.041495">
<time>2015-08-06T01:42:39Z</time></trkpt>
<trkpt lat="30.099303" lon="102.041485">
<time>2015-08-06T01:42:40Z</time></trkpt>
<trkpt lat="30.099153" lon="102.041465">
<time>2015-08-06T01:42:41Z</time></trkpt>
<trkpt lat="30.099054" lon="102.041445">
<time>2015-08-06T01:42:42Z</time></trkpt>
<trkpt lat="30.098974" lon="102.041405">
<time>2015-08-06T01:42:43Z</time></trkpt>
<trkpt lat="30.098904" lon="102.041375">
<time>2015-08-06T01:42:44Z</time></trkpt>
<trkpt lat="30.098824" lon="102.041326">
<time>2015-08-06T01:42:45Z</time></trkpt>
<trkpt lat="30.098754" lon="102.041276">
<time>2015-08-06T01:42:46Z</time></trkpt>
<trkpt lat="30.098674" lon="102.041186">
<time>2015-08-06T01:42:47Z</time></trkpt>
<trkpt lat="30.098455" lon="102.040827">
<time>2015-08-06T01:42:48Z</time></trkpt>
<trkpt lat="30.098066" lon="102.040188">
<time>2015-08-06T01:42:49Z</time></trkpt>
<trkpt lat="30.098007" lon="102.040108">
<time>2015-08-06T01:42:50Z</time></trkpt>
<trkpt lat="30.097947" lon="102.040029">
<time>2015-08-06T01:42:51Z</time></trkpt>
<trkpt lat="30.097877" lon="102.039949">
<time>2015-08-06T01:42:52Z</time></trkpt>
<trkpt lat="30.097777" lon="102.039869">
<time>2015-08-06T01:42:53Z</time></trkpt>
<trkpt lat="30.097438" lon="102.0396">
<time>2015-08-06T01:42:54Z</time></trkpt>
<trkpt lat="30.096779" lon="102.039071">
<time>2015-08-06T01:42:55Z</time></trkpt>
<trkpt lat="30.096071" lon="102.038403">
<time>2015-08-06T01:42:56Z</time></trkpt>
<trkpt lat="30.095961" lon="102.038273">
<time>2015-08-06T01:42:57Z</time></trkpt>
<trkpt lat="30.095871" lon="102.038143">
<time>2015-08-06T01:42:58Z</time></trkpt>
<trkpt lat="30.095802" lon="102.037984">
<time>2015-08-06T01:42:59Z</time></trkpt>
<trkpt lat="30.095314" lon="102.036846">
<time>2015-08-06T01:43:00Z</time></trkpt>
<trkpt lat="30.095076" lon="102.036218">
<time>2015-08-06T01:43:01Z</time></trkpt>
<trkpt lat="30.095006" lon="102.036019">
<time>2015-08-06T01:43:02Z</time></trkpt>
<trkpt lat="30.094977" lon="102.035929">
<time>2015-08-06T01:43:03Z</time></trkpt>
<trkpt lat="30.094927" lon="102.035849">
<time>2015-08-06T01:43:04Z</time></trkpt>
<trkpt lat="30.094867" lon="102.035769">
<time>2015-08-06T01:43:05Z</time></trkpt>
<trkpt lat="30.094807" lon="102.035699">
<time>2015-08-06T01:43:06Z</time></trkpt>
<trkpt lat="30.094707" lon="102.035629">
<time>2015-08-06T01:43:07Z</time></trkpt>
<trkpt lat="30.09335" lon="102.034712">
<time>2015-08-06T01:43:08Z</time></trkpt>
<trkpt lat="30.09306" lon="102.034532">
<time>2015-08-06T01:43:09Z</time></trkpt>
<trkpt lat="30.092391" lon="102.034173">
<time>2015-08-06T01:43:10Z</time></trkpt>
<trkpt lat="30.092291" lon="102.034133">
<time>2015-08-06T01:43:11Z</time></trkpt>
<trkpt lat="30.092181" lon="102.034103">
<time>2015-08-06T01:43:12Z</time></trkpt>
<trkpt lat="30.092051" lon="102.034084">
<time>2015-08-06T01:43:13Z</time></trkpt>
<trkpt lat="30.091901" lon="102.034064">
<time>2015-08-06T01:43:14Z</time></trkpt>
<trkpt lat="30.091781" lon="102.034064">
<time>2015-08-06T01:43:15Z</time></trkpt>
<trkpt lat="30.091671" lon="102.034054">
<time>2015-08-06T01:43:16Z</time></trkpt>
<trkpt lat="30.091371" lon="102.034084">
<time>2015-08-06T01:43:17Z</time></trkpt>
<trkpt lat="30.090951" lon="102.034173">
<time>2015-08-06T01:43:18Z</time></trkpt>
<trkpt lat="30.090611" lon="102.034253">
<time>2015-08-06T01:43:19Z</time></trkpt>
<trkpt lat="30.090401" lon="102.034293">
<time>2015-08-06T01:43:20Z</time></trkpt>
<trkpt lat="30.090291" lon="102.034313">
<time>2015-08-06T01:43:21Z</time></trkpt>
<trkpt lat="30.090241" lon="102.034323">
<time>2015-08-06T01:43:22Z</time></trkpt>
<trkpt lat="30.090181" lon="102.034333">
<time>2015-08-06T01:43:23Z</time></trkpt>
<trkpt lat="30.090061" lon="102.034333">
<time>2015-08-06T01:43:24Z</time></trkpt>
<trkpt lat="30.089941" lon="102.034313">
<time>2015-08-06T01:43:25Z</time></trkpt>
<trkpt lat="30.089851" lon="102.034293">
<time>2015-08-06T01:43:26Z</time></trkpt>
<trkpt lat="30.089741" lon="102.034253">
<time>2015-08-06T01:43:27Z</time></trkpt>
<trkpt lat="30.089641" lon="102.034203">
<time>2015-08-06T01:43:28Z</time></trkpt>
<trkpt lat="30.089491" lon="102.034133">
<time>2015-08-06T01:43:29Z</time></trkpt>
<trkpt lat="30.089401" lon="102.034064">
<time>2015-08-06T01:43:30Z</time></trkpt>
<trkpt lat="30.089052" lon="102.033904">
<time>2015-08-06T01:43:31Z</time></trkpt>
<trkpt lat="30.088922" lon="102.033854">
<time>2015-08-06T01:43:32Z</time></trkpt>
<trkpt lat="30.088702" lon="102.033784">
<time>2015-08-06T01:43:33Z</time></trkpt>
<trkpt lat="30.088482" lon="102.033725">
<time>2015-08-06T01:43:34Z</time></trkpt>
<trkpt lat="30.088262" lon="102.033665">
<time>2015-08-06T01:43:35Z</time></trkpt>
<trkpt lat="30.087933" lon="102.033545">
<time>2015-08-06T01:43:36Z</time></trkpt>
<trkpt lat="30.087693" lon="102.033425">
<time>2015-08-06T01:43:37Z</time></trkpt>
<trkpt lat="30.087453" lon="102.033276">
<time>2015-08-06T01:43:38Z</time></trkpt>
<trkpt lat="30.087284" lon="102.033156">
<time>2015-08-06T01:43:39Z</time></trkpt>
<trkpt lat="30.087194" lon="102.033066">
<time>2015-08-06T01:43:40Z</time></trkpt>
<trkpt lat="30.087124" lon="102.032996">
<time>2015-08-06T01:43:41Z</time></trkpt>
<trkpt lat="30.087064" lon="102.032927">
<time>2015-08-06T01:43:42Z</time></trkpt>
<trkpt lat="30.086965" lon="102.032777">
<time>2015-08-06T01:43:43Z</time></trkpt>
<trkpt lat="30.086776" lon="102.032378">
<time>2015-08-06T01:43:44Z</time></trkpt>
<trkpt lat="30.086437" lon="102.03166">
<time>2015-08-06T01:43:45Z</time></trkpt>
<trkpt lat="30.086398" lon="102.03156">
<time>2015-08-06T01:43:46Z</time></trkpt>
<trkpt lat="30.086378" lon="102.031471">
<time>2015-08-06T01:43:47Z</time></trkpt>
<trkpt lat="30.086349" lon="102.031191">
<time>2015-08-06T01:43:48Z</time></trkpt>
<trkpt lat="30.086339" lon="102.031102">
<time>2015-08-06T01:43:49Z</time></trkpt>
<trkpt lat="30.086339" lon="102.031022">
<time>2015-08-06T01:43:50Z</time></trkpt>
<trkpt lat="30.086349" lon="102.030952">
<time>2015-08-06T01:43:51Z</time></trkpt>
<trkpt lat="30.08638" lon="102.030862">
<time>2015-08-06T01:43:52Z</time></trkpt>
<trkpt lat="30.08643" lon="102.030782">
<time>2015-08-06T01:43:53Z</time></trkpt>
<trkpt lat="30.086701" lon="102.030334">
<time>2015-08-06T01:43:54Z</time></trkpt>
<trkpt lat="30.086751" lon="102.030234">
<time>2015-08-06T01:43:55Z</time></trkpt>
<trkpt lat="30.086781" lon="102.030154">
<time>2015-08-06T01:43:56Z</time></trkpt>
<trkpt lat="30.086802" lon="102.030054">
<time>2015-08-06T01:43:57Z</time></trkpt>
<trkpt lat="30.086812" lon="102.029965">
<time>2015-08-06T01:43:58Z</time></trkpt>
<trkpt lat="30.086812" lon="102.029885">
<time>2015-08-06T01:43:59Z</time></trkpt>
<trkpt lat="30.086802" lon="102.029785">
<time>2015-08-06T01:44:00Z</time></trkpt>
<trkpt lat="30.086625" lon="102.028828">
<time>2015-08-06T01:44:01Z</time></trkpt>
<trkpt lat="30.086407" lon="102.02793">
<time>2015-08-06T01:44:02Z</time></trkpt>
<trkpt lat="30.086278" lon="102.027501">
<time>2015-08-06T01:44:03Z</time></trkpt>
<trkpt lat="30.086239" lon="102.027412">
<time>2015-08-06T01:44:04Z</time></trkpt>
<trkpt lat="30.086199" lon="102.027342">
<time>2015-08-06T01:44:05Z</time></trkpt>
<trkpt lat="30.08594" lon="102.026853">
<time>2015-08-06T01:44:06Z</time></trkpt>
<trkpt lat="30.085701" lon="102.026464">
<time>2015-08-06T01:44:07Z</time></trkpt>
<trkpt lat="30.085572" lon="102.026265">
<time>2015-08-06T01:44:08Z</time></trkpt>
<trkpt lat="30.085442" lon="102.026015">
<time>2015-08-06T01:44:09Z</time></trkpt>
<trkpt lat="30.085353" lon="102.025776">
<time>2015-08-06T01:44:10Z</time></trkpt>
<trkpt lat="30.085115" lon="102.025058">
<time>2015-08-06T01:44:11Z</time></trkpt>
<trkpt lat="30.084748" lon="102.023881">
<time>2015-08-06T01:44:12Z</time></trkpt>
<trkpt lat="30.084362" lon="102.022605">
<time>2015-08-06T01:44:13Z</time></trkpt>
<trkpt lat="30.084243" lon="102.022216">
<time>2015-08-06T01:44:14Z</time></trkpt>
<trkpt lat="30.084144" lon="102.021937">
<time>2015-08-06T01:44:15Z</time></trkpt>
<trkpt lat="30.084074" lon="102.021758">
<time>2015-08-06T01:44:16Z</time></trkpt>
<trkpt lat="30.084005" lon="102.021638">
<time>2015-08-06T01:44:17Z</time></trkpt>
<trkpt lat="30.083905" lon="102.021468">
<time>2015-08-06T01:44:18Z</time></trkpt>
<trkpt lat="30.083795" lon="102.021339">
<time>2015-08-06T01:44:19Z</time></trkpt>
<trkpt lat="30.083686" lon="102.021199">
<time>2015-08-06T01:44:20Z</time></trkpt>
<trkpt lat="30.083556" lon="102.02105">
<time>2015-08-06T01:44:21Z</time></trkpt>
<trkpt lat="30.083337" lon="102.0208">
<time>2015-08-06T01:44:22Z</time></trkpt>
<trkpt lat="30.083317" lon="102.02078">
<time>2015-08-06T01:44:23Z</time></trkpt>
<trkpt lat="30.083217" lon="102.020671">
<time>2015-08-06T01:44:24Z</time></trkpt>
<trkpt lat="30.083098" lon="102.020541">
<time>2015-08-06T01:44:25Z</time></trkpt>
<trkpt lat="30.082958" lon="102.020392">
<time>2015-08-06T01:44:26Z</time></trkpt>
<trkpt lat="30.082908" lon="102.020332">
<time>2015-08-06T01:44:27Z</time></trkpt>
<trkpt lat="30.082859" lon="102.020262">
<time>2015-08-06T01:44:28Z</time></trkpt>
<trkpt lat="30.082789" lon="102.020172">
<time>2015-08-06T01:44:29Z</time></trkpt>
<trkpt lat="30.082689" lon="102.020033">
<time>2015-08-06T01:44:30Z</time></trkpt>
<trkpt lat="30.082609" lon="102.019933">
<time>2015-08-06T01:44:31Z</time></trkpt>
<trkpt lat="30.08256" lon="102.019863">
<time>2015-08-06T01:44:32Z</time></trkpt>
<trkpt lat="30.08252" lon="102.019793">
<time>2015-08-06T01:44:33Z</time></trkpt>
<trkpt lat="30.08249" lon="102.019734">
<time>2015-08-06T01:44:34Z</time></trkpt>
<trkpt lat="30.0824" lon="102.019594">
<time>2015-08-06T01:44:35Z</time></trkpt>
<trkpt lat="30.082351" lon="102.019534">
<time>2015-08-06T01:44:36Z</time></trkpt>
<trkpt lat="30.082271" lon="102.019434">
<time>2015-08-06T01:44:37Z</time></trkpt>
<trkpt lat="30.082201" lon="102.019345">
<time>2015-08-06T01:44:38Z</time></trkpt>
<trkpt lat="30.082121" lon="102.019255">
<time>2015-08-06T01:44:39Z</time></trkpt>
<trkpt lat="30.082052" lon="102.019195">
<time>2015-08-06T01:44:40Z</time></trkpt>
<trkpt lat="30.081852" lon="102.018996">
<time>2015-08-06T01:44:41Z</time></trkpt>
<trkpt lat="30.081742" lon="102.018886">
<time>2015-08-06T01:44:42Z</time></trkpt>
<trkpt lat="30.081623" lon="102.018766">
<time>2015-08-06T01:44:43Z</time></trkpt>
<trkpt lat="30.081573" lon="102.018717">
<time>2015-08-06T01:44:44Z</time></trkpt>
<trkpt lat="30.081513" lon="102.018657">
<time>2015-08-06T01:44:45Z</time></trkpt>
<trkpt lat="30.081453" lon="102.018587">
<time>2015-08-06T01:44:46Z</time></trkpt>
<trkpt lat="30.081374" lon="102.018487">
<time>2015-08-06T01:44:47Z</time></trkpt>
<trkpt lat="30.081274" lon="102.018318">
<time>2015-08-06T01:44:48Z</time></trkpt>
<trkpt lat="30.081135" lon="102.018059">
<time>2015-08-06T01:44:49Z</time></trkpt>
<trkpt lat="30.080976" lon="102.01768">
<time>2015-08-06T01:44:50Z</time></trkpt>
<trkpt lat="30.080916" lon="102.01752">
<time>2015-08-06T01:44:51Z</time></trkpt>
<trkpt lat="30.080857" lon="102.017391">
<time>2015-08-06T01:44:52Z</time></trkpt>
<trkpt lat="30.080787" lon="102.017211">
<time>2015-08-06T01:44:53Z</time></trkpt>
<trkpt lat="30.080708" lon="102.017062">
<time>2015-08-06T01:44:54Z</time></trkpt>
<trkpt lat="30.080668" lon="102.017002">
<time>2015-08-06T01:44:55Z</time></trkpt>
<trkpt lat="30.080638" lon="102.016962">
<time>2015-08-06T01:44:56Z</time></trkpt>
<trkpt lat="30.080578" lon="102.016892">
<time>2015-08-06T01:44:57Z</time></trkpt>
<trkpt lat="30.080528" lon="102.016832">
<time>2015-08-06T01:44:58Z</time></trkpt>
<trkpt lat="30.080439" lon="102.016772">
<time>2015-08-06T01:44:59Z</time></trkpt>
<trkpt lat="30.080359" lon="102.016743">
<time>2015-08-06T01:45:00Z</time></trkpt>
<trkpt lat="30.080279" lon="102.016713">
<time>2015-08-06T01:45:01Z</time></trkpt>
<trkpt lat="30.080199" lon="102.016703">
<time>2015-08-06T01:45:02Z</time></trkpt>
<trkpt lat="30.080119" lon="102.016693">
<time>2015-08-06T01:45:03Z</time></trkpt>
<trkpt lat="30.079829" lon="102.016703">
<time>2015-08-06T01:45:04Z</time></trkpt>
<trkpt lat="30.079669" lon="102.016703">
<time>2015-08-06T01:45:05Z</time></trkpt>
<trkpt lat="30.079529" lon="102.016703">
<time>2015-08-06T01:45:06Z</time></trkpt>
<trkpt lat="30.079409" lon="102.016683">
<time>2015-08-06T01:45:07Z</time></trkpt>
<trkpt lat="30.079299" lon="102.016663">
<time>2015-08-06T01:45:08Z</time></trkpt>
<trkpt lat="30.079089" lon="102.016613">
<time>2015-08-06T01:45:09Z</time></trkpt>
<trkpt lat="30.078749" lon="102.016503">
<time>2015-08-06T01:45:10Z</time></trkpt>
<trkpt lat="30.07823" lon="102.016344">
<time>2015-08-06T01:45:11Z</time></trkpt>
<trkpt lat="30.07813" lon="102.016304">
<time>2015-08-06T01:45:12Z</time></trkpt>
<trkpt lat="30.07805" lon="102.016254">
<time>2015-08-06T01:45:13Z</time></trkpt>
<trkpt lat="30.078" lon="102.016224">
<time>2015-08-06T01:45:14Z</time></trkpt>
<trkpt lat="30.07796" lon="102.016174">
<time>2015-08-06T01:45:15Z</time></trkpt>
<trkpt lat="30.07791" lon="102.016134">
<time>2015-08-06T01:45:16Z</time></trkpt>
<trkpt lat="30.077871" lon="102.016075">
<time>2015-08-06T01:45:17Z</time></trkpt>
<trkpt lat="30.077811" lon="102.015995">
<time>2015-08-06T01:45:18Z</time></trkpt>
<trkpt lat="30.077741" lon="102.015865">
<time>2015-08-06T01:45:19Z</time></trkpt>
<trkpt lat="30.077702" lon="102.015726">
<time>2015-08-06T01:45:20Z</time></trkpt>
<trkpt lat="30.077682" lon="102.015626">
<time>2015-08-06T01:45:21Z</time></trkpt>
<trkpt lat="30.077623" lon="102.015347">
<time>2015-08-06T01:45:22Z</time></trkpt>
<trkpt lat="30.077583" lon="102.015137">
<time>2015-08-06T01:45:23Z</time></trkpt>
<trkpt lat="30.077534" lon="102.014908">
<time>2015-08-06T01:45:24Z</time></trkpt>
<trkpt lat="30.077494" lon="102.014779">
<time>2015-08-06T01:45:25Z</time></trkpt>
<trkpt lat="30.077455" lon="102.014669">
<time>2015-08-06T01:45:26Z</time></trkpt>
<trkpt lat="30.077405" lon="102.014579">
<time>2015-08-06T01:45:27Z</time></trkpt>
<trkpt lat="30.077365" lon="102.014499">
<time>2015-08-06T01:45:28Z</time></trkpt>
<trkpt lat="30.077305" lon="102.01441">
<time>2015-08-06T01:45:29Z</time></trkpt>
<trkpt lat="30.077246" lon="102.01435">
<time>2015-08-06T01:45:30Z</time></trkpt>
<trkpt lat="30.077146" lon="102.01425">
<time>2015-08-06T01:45:31Z</time></trkpt>
<trkpt lat="30.077036" lon="102.01417">
<time>2015-08-06T01:45:32Z</time></trkpt>
<trkpt lat="30.076837" lon="102.014031">
<time>2015-08-06T01:45:33Z</time></trkpt>
<trkpt lat="30.076647" lon="102.013911">
<time>2015-08-06T01:45:34Z</time></trkpt>
<trkpt lat="30.076278" lon="102.013672">
<time>2015-08-06T01:45:35Z</time></trkpt>
<trkpt lat="30.076088" lon="102.013542">
<time>2015-08-06T01:45:36Z</time></trkpt>
<trkpt lat="30.076018" lon="102.013493">
<time>2015-08-06T01:45:37Z</time></trkpt>
<trkpt lat="30.075898" lon="102.013383">
<time>2015-08-06T01:45:38Z</time></trkpt>
<trkpt lat="30.075829" lon="102.013323">
<time>2015-08-06T01:45:39Z</time></trkpt>
<trkpt lat="30.075619" lon="102.013104">
<time>2015-08-06T01:45:40Z</time></trkpt>
<trkpt lat="30.07546" lon="102.012934">
<time>2015-08-06T01:45:41Z</time></trkpt>
<trkpt lat="30.07528" lon="102.012765">
<time>2015-08-06T01:45:42Z</time></trkpt>
<trkpt lat="30.075161" lon="102.012645">
<time>2015-08-06T01:45:43Z</time></trkpt>
<trkpt lat="30.074801" lon="102.012346">
<time>2015-08-06T01:45:44Z</time></trkpt>
<trkpt lat="30.073854" lon="102.011568">
<time>2015-08-06T01:45:45Z</time></trkpt>
<trkpt lat="30.073704" lon="102.011459">
<time>2015-08-06T01:45:46Z</time></trkpt>
<trkpt lat="30.073544" lon="102.011359">
<time>2015-08-06T01:45:47Z</time></trkpt>
<trkpt lat="30.073375" lon="102.011279">
<time>2015-08-06T01:45:48Z</time></trkpt>
<trkpt lat="30.073065" lon="102.01115">
<time>2015-08-06T01:45:49Z</time></trkpt>
<trkpt lat="30.072795" lon="102.01105">
<time>2015-08-06T01:45:50Z</time></trkpt>
<trkpt lat="30.072576" lon="102.01097">
<time>2015-08-06T01:45:51Z</time></trkpt>
<trkpt lat="30.071906" lon="102.010731">
<time>2015-08-06T01:45:52Z</time></trkpt>
<trkpt lat="30.071647" lon="102.010631">
<time>2015-08-06T01:45:53Z</time></trkpt>
<trkpt lat="30.071377" lon="102.010512">
<time>2015-08-06T01:45:54Z</time></trkpt>
<trkpt lat="30.071247" lon="102.010442">
<time>2015-08-06T01:45:55Z</time></trkpt>
<trkpt lat="30.070998" lon="102.010293">
<time>2015-08-06T01:45:56Z</time></trkpt>
<trkpt lat="30.070758" lon="102.010133">
<time>2015-08-06T01:45:57Z</time></trkpt>
<trkpt lat="30.070519" lon="102.009974">
<time>2015-08-06T01:45:58Z</time></trkpt>
<trkpt lat="30.070229" lon="102.009834">
<time>2015-08-06T01:45:59Z</time></trkpt>
<trkpt lat="30.069959" lon="102.009744">
<time>2015-08-06T01:46:00Z</time></trkpt>
<trkpt lat="30.06936" lon="102.009605">
<time>2015-08-06T01:46:01Z</time></trkpt>
<trkpt lat="30.06908" lon="102.009535">
<time>2015-08-06T01:46:02Z</time></trkpt>
<trkpt lat="30.06886" lon="102.009495">
<time>2015-08-06T01:46:03Z</time></trkpt>
<trkpt lat="30.06871" lon="102.009475">
<time>2015-08-06T01:46:04Z</time></trkpt>
<trkpt lat="30.0685" lon="102.009465">
<time>2015-08-06T01:46:05Z</time></trkpt>
<trkpt lat="30.06832" lon="102.009465">
<time>2015-08-06T01:46:06Z</time></trkpt>
<trkpt lat="30.06784" lon="102.009475">
<time>2015-08-06T01:46:07Z</time></trkpt>
<trkpt lat="30.06768" lon="102.009465">
<time>2015-08-06T01:46:08Z</time></trkpt>
<trkpt lat="30.06759" lon="102.009445">
<time>2015-08-06T01:46:09Z</time></trkpt>
<trkpt lat="30.06751" lon="102.009415">
<time>2015-08-06T01:46:10Z</time></trkpt>
<trkpt lat="30.06743" lon="102.009375">
<time>2015-08-06T01:46:11Z</time></trkpt>
<trkpt lat="30.0674" lon="102.009346">
<time>2015-08-06T01:46:12Z</time></trkpt>
<trkpt lat="30.06737" lon="102.009316">
<time>2015-08-06T01:46:13Z</time></trkpt>
<trkpt lat="30.067301" lon="102.009256">
<time>2015-08-06T01:46:14Z</time></trkpt>
<trkpt lat="30.067221" lon="102.009136">
<time>2015-08-06T01:46:15Z</time></trkpt>
<trkpt lat="30.067121" lon="102.008987">
<time>2015-08-06T01:46:16Z</time></trkpt>
<trkpt lat="30.067042" lon="102.008857">
<time>2015-08-06T01:46:17Z</time></trkpt>
<trkpt lat="30.066883" lon="102.008598">
<time>2015-08-06T01:46:18Z</time></trkpt>
<trkpt lat="30.066823" lon="102.008488">
<time>2015-08-06T01:46:19Z</time></trkpt>
<trkpt lat="30.066743" lon="102.008369">
<time>2015-08-06T01:46:20Z</time></trkpt>
<trkpt lat="30.066654" lon="102.008259">
<time>2015-08-06T01:46:21Z</time></trkpt>
<trkpt lat="30.066584" lon="102.008169">
<time>2015-08-06T01:46:22Z</time></trkpt>
<trkpt lat="30.066494" lon="102.00809">
<time>2015-08-06T01:46:23Z</time></trkpt>
<trkpt lat="30.066404" lon="102.008">
<time>2015-08-06T01:46:24Z</time></trkpt>
<trkpt lat="30.066195" lon="102.00783">
<time>2015-08-06T01:46:25Z</time></trkpt>
<trkpt lat="30.065636" lon="102.007422">
<time>2015-08-06T01:46:26Z</time></trkpt>
<trkpt lat="30.065556" lon="102.007352">
<time>2015-08-06T01:46:27Z</time></trkpt>
<trkpt lat="30.065387" lon="102.007212">
<time>2015-08-06T01:46:28Z</time></trkpt>
<trkpt lat="30.065227" lon="102.007073">
<time>2015-08-06T01:46:29Z</time></trkpt>
<trkpt lat="30.064928" lon="102.006754">
<time>2015-08-06T01:46:30Z</time></trkpt>
<trkpt lat="30.06449" lon="102.006255">
<time>2015-08-06T01:46:31Z</time></trkpt>
<trkpt lat="30.06436" lon="102.006096">
<time>2015-08-06T01:46:32Z</time></trkpt>
<trkpt lat="30.064191" lon="102.005896">
<time>2015-08-06T01:46:33Z</time></trkpt>
<trkpt lat="30.064131" lon="102.005807">
<time>2015-08-06T01:46:34Z</time></trkpt>
<trkpt lat="30.064061" lon="102.005667">
<time>2015-08-06T01:46:35Z</time></trkpt>
<trkpt lat="30.064022" lon="102.005587">
<time>2015-08-06T01:46:36Z</time></trkpt>
<trkpt lat="30.063982" lon="102.005478">
<time>2015-08-06T01:46:37Z</time></trkpt>
<trkpt lat="30.063923" lon="102.005199">
<time>2015-08-06T01:46:38Z</time></trkpt>
<trkpt lat="30.063864" lon="102.00472">
<time>2015-08-06T01:46:39Z</time></trkpt>
<trkpt lat="30.063825" lon="102.004501">
<time>2015-08-06T01:46:40Z</time></trkpt>
<trkpt lat="30.063756" lon="102.004272">
<time>2015-08-06T01:46:41Z</time></trkpt>
<trkpt lat="30.063686" lon="102.004132">
<time>2015-08-06T01:46:42Z</time></trkpt>
<trkpt lat="30.063616" lon="102.004012">
<time>2015-08-06T01:46:43Z</time></trkpt>
<trkpt lat="30.063507" lon="102.003863">
<time>2015-08-06T01:46:44Z</time></trkpt>
<trkpt lat="30.063268" lon="102.003604">
<time>2015-08-06T01:46:45Z</time></trkpt>
<trkpt lat="30.063158" lon="102.003474">
<time>2015-08-06T01:46:46Z</time></trkpt>
<trkpt lat="30.063059" lon="102.003315">
<time>2015-08-06T01:46:47Z</time></trkpt>
<trkpt lat="30.063029" lon="102.003265">
<time>2015-08-06T01:46:48Z</time></trkpt>
<trkpt lat="30.062989" lon="102.003185">
<time>2015-08-06T01:46:49Z</time></trkpt>
<trkpt lat="30.062959" lon="102.003115">
<time>2015-08-06T01:46:50Z</time></trkpt>
<trkpt lat="30.062939" lon="102.003026">
<time>2015-08-06T01:46:51Z</time></trkpt>
<trkpt lat="30.06292" lon="102.002946">
<time>2015-08-06T01:46:52Z</time></trkpt>
<trkpt lat="30.06291" lon="102.002826">
<time>2015-08-06T01:46:53Z</time></trkpt>
<trkpt lat="30.062911" lon="102.002617">
<time>2015-08-06T01:46:54Z</time></trkpt>
<trkpt lat="30.062901" lon="102.002437">
<time>2015-08-06T01:46:55Z</time></trkpt>
<trkpt lat="30.062892" lon="102.002308">
<time>2015-08-06T01:46:56Z</time></trkpt>
<trkpt lat="30.062862" lon="102.002168">
<time>2015-08-06T01:46:57Z</time></trkpt>
<trkpt lat="30.062792" lon="102.002019">
<time>2015-08-06T01:46:58Z</time></trkpt>
<trkpt lat="30.062733" lon="102.001929">
<time>2015-08-06T01:46:59Z</time></trkpt>
<trkpt lat="30.062643" lon="102.001839">
<time>2015-08-06T01:47:00Z</time></trkpt>
<trkpt lat="30.062563" lon="102.001769">
<time>2015-08-06T01:47:01Z</time></trkpt>
<trkpt lat="30.062463" lon="102.00171">
<time>2015-08-06T01:47:02Z</time></trkpt>
<trkpt lat="30.062154" lon="102.00157">
<time>2015-08-06T01:47:03Z</time></trkpt>
<trkpt lat="30.062034" lon="102.0015">
<time>2015-08-06T01:47:04Z</time></trkpt>
<trkpt lat="30.061894" lon="102.001431">
<time>2015-08-06T01:47:05Z</time></trkpt>
<trkpt lat="30.061794" lon="102.001361">
<time>2015-08-06T01:47:06Z</time></trkpt>
<trkpt lat="30.061655" lon="102.001241">
<time>2015-08-06T01:47:07Z</time></trkpt>
<trkpt lat="30.061575" lon="102.001141">
<time>2015-08-06T01:47:08Z</time></trkpt>
<trkpt lat="30.061466" lon="102.001002">
<time>2015-08-06T01:47:09Z</time></trkpt>
<trkpt lat="30.061237" lon="102.000653">
<time>2015-08-06T01:47:10Z</time></trkpt>
<trkpt lat="30.060988" lon="102.000284">
<time>2015-08-06T01:47:11Z</time></trkpt>
<trkpt lat="30.060819" lon="102.000005">
<time>2015-08-06T01:47:12Z</time></trkpt>
<trkpt lat="30.06063" lon="101.999696">
<time>2015-08-06T01:47:13Z</time></trkpt>
<trkpt lat="30.06055" lon="101.999527">
<time>2015-08-06T01:47:14Z</time></trkpt>
<trkpt lat="30.060471" lon="101.999357">
<time>2015-08-06T01:47:15Z</time></trkpt>
<trkpt lat="30.060391" lon="101.999158">
<time>2015-08-06T01:47:16Z</time></trkpt>
<trkpt lat="30.060342" lon="101.998938">
<time>2015-08-06T01:47:17Z</time></trkpt>
<trkpt lat="30.060302" lon="101.998739">
<time>2015-08-06T01:47:18Z</time></trkpt>
<trkpt lat="30.060244" lon="101.998171">
<time>2015-08-06T01:47:19Z</time></trkpt>
<trkpt lat="30.060186" lon="101.997503">
<time>2015-08-06T01:47:20Z</time></trkpt>
<trkpt lat="30.060157" lon="101.997274">
<time>2015-08-06T01:47:21Z</time></trkpt>
<trkpt lat="30.060107" lon="101.997094">
<time>2015-08-06T01:47:22Z</time></trkpt>
<trkpt lat="30.060038" lon="101.996855">
<time>2015-08-06T01:47:23Z</time></trkpt>
<trkpt lat="30.059969" lon="101.996596">
<time>2015-08-06T01:47:24Z</time></trkpt>
<trkpt lat="30.059919" lon="101.996416">
<time>2015-08-06T01:47:25Z</time></trkpt>
<trkpt lat="30.05989" lon="101.996257">
<time>2015-08-06T01:47:26Z</time></trkpt>
<trkpt lat="30.059881" lon="101.996038">
<time>2015-08-06T01:47:27Z</time></trkpt>
<trkpt lat="30.059883" lon="101.99538">
<time>2015-08-06T01:47:28Z</time></trkpt>
<trkpt lat="30.059926" lon="101.994333">
<time>2015-08-06T01:47:29Z</time></trkpt>
<trkpt lat="30.059907" lon="101.994024">
<time>2015-08-06T01:47:30Z</time></trkpt>
<trkpt lat="30.059877" lon="101.993795">
<time>2015-08-06T01:47:31Z</time></trkpt>
<trkpt lat="30.059818" lon="101.993516">
<time>2015-08-06T01:47:32Z</time></trkpt>
<trkpt lat="30.059759" lon="101.993336">
<time>2015-08-06T01:47:33Z</time></trkpt>
<trkpt lat="30.05966" lon="101.993007">
<time>2015-08-06T01:47:34Z</time></trkpt>
<trkpt lat="30.059611" lon="101.992778">
<time>2015-08-06T01:47:35Z</time></trkpt>
<trkpt lat="30.059581" lon="101.992569">
<time>2015-08-06T01:47:36Z</time></trkpt>
<trkpt lat="30.059572" lon="101.992399">
<time>2015-08-06T01:47:37Z</time></trkpt>
<trkpt lat="30.059572" lon="101.99216">
<time>2015-08-06T01:47:38Z</time></trkpt>
<trkpt lat="30.059614" lon="101.991492">
<time>2015-08-06T01:47:39Z</time></trkpt>
<trkpt lat="30.059616" lon="101.990974">
<time>2015-08-06T01:47:40Z</time></trkpt>
<trkpt lat="30.059607" lon="101.990734">
<time>2015-08-06T01:47:41Z</time></trkpt>
<trkpt lat="30.059597" lon="101.990585">
<time>2015-08-06T01:47:42Z</time></trkpt>
<trkpt lat="30.059588" lon="101.990375">
<time>2015-08-06T01:47:43Z</time></trkpt>
<trkpt lat="30.059539" lon="101.989997">
<time>2015-08-06T01:47:44Z</time></trkpt>
<trkpt lat="30.059372" lon="101.98896">
<time>2015-08-06T01:47:45Z</time></trkpt>
<trkpt lat="30.059205" lon="101.988043">
<time>2015-08-06T01:47:46Z</time></trkpt>
<trkpt lat="30.058987" lon="101.987156">
<time>2015-08-06T01:47:47Z</time></trkpt>
<trkpt lat="30.058968" lon="101.987026">
<time>2015-08-06T01:47:48Z</time></trkpt>
<trkpt lat="30.058948" lon="101.986916">
<time>2015-08-06T01:47:49Z</time></trkpt>
<trkpt lat="30.058919" lon="101.986817">
<time>2015-08-06T01:47:50Z</time></trkpt>
<trkpt lat="30.058869" lon="101.986667">
<time>2015-08-06T01:47:51Z</time></trkpt>
<trkpt lat="30.058779" lon="101.986488">
<time>2015-08-06T01:47:52Z</time></trkpt>
<trkpt lat="30.058551" lon="101.986119">
<time>2015-08-06T01:47:53Z</time></trkpt>
<trkpt lat="30.058461" lon="101.985949">
<time>2015-08-06T01:47:54Z</time></trkpt>
<trkpt lat="30.058421" lon="101.98583">
<time>2015-08-06T01:47:55Z</time></trkpt>
<trkpt lat="30.058412" lon="101.9858">
<time>2015-08-06T01:47:56Z</time></trkpt>
<trkpt lat="30.058412" lon="101.9858">
<time>2015-08-06T01:47:57Z</time></trkpt>
<trkpt lat="30.058372" lon="101.98573">
<time>2015-08-06T01:47:58Z</time></trkpt>
<trkpt lat="30.058283" lon="101.985231">
<time>2015-08-06T01:47:59Z</time></trkpt>
<trkpt lat="30.057882" lon="101.982091">
<time>2015-08-06T01:48:00Z</time></trkpt>
<trkpt lat="30.057442" lon="101.978801">
<time>2015-08-06T01:48:01Z</time></trkpt>
<trkpt lat="30.057276" lon="101.977525">
<time>2015-08-06T01:48:02Z</time></trkpt>
<trkpt lat="30.057276" lon="101.977525">
<time>2015-08-06T01:48:03Z</time></trkpt>
<trkpt lat="30.057116" lon="101.977535">
<time>2015-08-06T01:48:04Z</time></trkpt>
<trkpt lat="30.057096" lon="101.977535">
<time>2015-08-06T01:48:05Z</time></trkpt>
<trkpt lat="30.057076" lon="101.977535">
<time>2015-08-06T01:48:06Z</time></trkpt>
<trkpt lat="30.057056" lon="101.977525">
<time>2015-08-06T01:48:07Z</time></trkpt>
<trkpt lat="30.057036" lon="101.977515">
<time>2015-08-06T01:48:08Z</time></trkpt>
<trkpt lat="30.057026" lon="101.977495">
<time>2015-08-06T01:48:09Z</time></trkpt>
<trkpt lat="30.056996" lon="101.977425">
<time>2015-08-06T01:48:10Z</time></trkpt>
<trkpt lat="30.056956" lon="101.977335">
<time>2015-08-06T01:48:11Z</time></trkpt>
<trkpt lat="30.056946" lon="101.977315">
<time>2015-08-06T01:48:12Z</time></trkpt>
<trkpt lat="30.056936" lon="101.977305">
<time>2015-08-06T01:48:13Z</time></trkpt>
<trkpt lat="30.056817" lon="101.977196">
<time>2015-08-06T01:48:14Z</time></trkpt>
<trkpt lat="30.056777" lon="101.977156">
<time>2015-08-06T01:48:15Z</time></trkpt>
<trkpt lat="30.056727" lon="101.977096">
<time>2015-08-06T01:48:16Z</time></trkpt>
<trkpt lat="30.056697" lon="101.977036">
<time>2015-08-06T01:48:17Z</time></trkpt>
<trkpt lat="30.056657" lon="101.976976">
<time>2015-08-06T01:48:18Z</time></trkpt>
<trkpt lat="30.056627" lon="101.976917">
<time>2015-08-06T01:48:19Z</time></trkpt>
<trkpt lat="30.056608" lon="101.976867">
<time>2015-08-06T01:48:20Z</time></trkpt>
<trkpt lat="30.056389" lon="101.976298">
<time>2015-08-06T01:48:21Z</time></trkpt>
<trkpt lat="30.05635" lon="101.976189">
<time>2015-08-06T01:48:22Z</time></trkpt>
<trkpt lat="30.05634" lon="101.976159">
<time>2015-08-06T01:48:23Z</time></trkpt>
<trkpt lat="30.05634" lon="101.976139">
<time>2015-08-06T01:48:24Z</time></trkpt>
<trkpt lat="30.05634" lon="101.976019">
<time>2015-08-06T01:48:25Z</time></trkpt>
<trkpt lat="30.05634" lon="101.975999">
<time>2015-08-06T01:48:26Z</time></trkpt>
<trkpt lat="30.05633" lon="101.975969">
<time>2015-08-06T01:48:27Z</time></trkpt>
<trkpt lat="30.05632" lon="101.975949">
<time>2015-08-06T01:48:28Z</time></trkpt>
<trkpt lat="30.05631" lon="101.975939">
<time>2015-08-06T01:48:29Z</time></trkpt>
<trkpt lat="30.05629" lon="101.9759">
<time>2015-08-06T01:48:30Z</time></trkpt>
<trkpt lat="30.056311" lon="101.97565">
<time>2015-08-06T01:48:31Z</time></trkpt>
<trkpt lat="30.056362" lon="101.975461">
<time>2015-08-06T01:48:32Z</time></trkpt>
<trkpt lat="30.056513" lon="101.975092">
<time>2015-08-06T01:48:33Z</time></trkpt>
<trkpt lat="30.056606" lon="101.974045">
<time>2015-08-06T01:48:34Z</time></trkpt>
<trkpt lat="30.056616" lon="101.974025">
<time>2015-08-06T01:48:35Z</time></trkpt>
<trkpt lat="30.056636" lon="101.973995">
<time>2015-08-06T01:48:36Z</time></trkpt>
<trkpt lat="30.056656" lon="101.973965">
<time>2015-08-06T01:48:37Z</time></trkpt>
<trkpt lat="30.056686" lon="101.973945">
<time>2015-08-06T01:48:38Z</time></trkpt>
<trkpt lat="30.056716" lon="101.973925">
<time>2015-08-06T01:48:39Z</time></trkpt>
<trkpt lat="30.056756" lon="101.973905">
<time>2015-08-06T01:48:40Z</time></trkpt>
<trkpt lat="30.056796" lon="101.973875">
<time>2015-08-06T01:48:41Z</time></trkpt>
<trkpt lat="30.056796" lon="101.973875">
<time>2015-08-06T01:48:42Z</time></trkpt>
<trkpt lat="30.056737" lon="101.973407">
<time>2015-08-06T01:48:43Z</time></trkpt>
<trkpt lat="30.056688" lon="101.973147">
<time>2015-08-06T01:48:44Z</time></trkpt>
<trkpt lat="30.056648" lon="101.973028">
<time>2015-08-06T01:48:45Z</time></trkpt>
<trkpt lat="30.056619" lon="101.972968">
<time>2015-08-06T01:48:46Z</time></trkpt>
<trkpt lat="30.056579" lon="101.972908">
<time>2015-08-06T01:48:47Z</time></trkpt>
<trkpt lat="30.056519" lon="101.972818">
<time>2015-08-06T01:48:48Z</time></trkpt>
<trkpt lat="30.056509" lon="101.972808">
<time>2015-08-06T01:48:49Z</time></trkpt>
<trkpt lat="30.05641" lon="101.972639">
<time>2015-08-06T01:48:50Z</time></trkpt>
<trkpt lat="30.05639" lon="101.972619">
<time>2015-08-06T01:48:51Z</time></trkpt>
<trkpt lat="30.055612" lon="101.971592">
<time>2015-08-06T01:48:52Z</time></trkpt>
<trkpt lat="30.055134" lon="101.971043">
<time>2015-08-06T01:48:53Z</time></trkpt>
<trkpt lat="30.055014" lon="101.970944">
<time>2015-08-06T01:48:54Z</time></trkpt>
<trkpt lat="30.054974" lon="101.970904">
<time>2015-08-06T01:48:55Z</time></trkpt>
<trkpt lat="30.054944" lon="101.970874">
<time>2015-08-06T01:48:56Z</time></trkpt>
<trkpt lat="30.054924" lon="101.970844">
<time>2015-08-06T01:48:57Z</time></trkpt>
<trkpt lat="30.054905" lon="101.970804">
<time>2015-08-06T01:48:58Z</time></trkpt>
<trkpt lat="30.054885" lon="101.970754">
<time>2015-08-06T01:48:59Z</time></trkpt>
<trkpt lat="30.054865" lon="101.970685">
<time>2015-08-06T01:49:00Z</time></trkpt>
<trkpt lat="30.054855" lon="101.970605">
<time>2015-08-06T01:49:01Z</time></trkpt>
<trkpt lat="30.054836" lon="101.970246">
<time>2015-08-06T01:49:02Z</time></trkpt>
<trkpt lat="30.054817" lon="101.970036">
<time>2015-08-06T01:49:03Z</time></trkpt>
<trkpt lat="30.054817" lon="101.969996">
<time>2015-08-06T01:49:04Z</time></trkpt>
<trkpt lat="30.054769" lon="101.969308">
<time>2015-08-06T01:49:05Z</time></trkpt>
<trkpt lat="30.054729" lon="101.969119">
<time>2015-08-06T01:49:06Z</time></trkpt>
<trkpt lat="30.054699" lon="101.969009">
<time>2015-08-06T01:49:07Z</time></trkpt>
<trkpt lat="30.05466" lon="101.968899">
<time>2015-08-06T01:49:08Z</time></trkpt>
<trkpt lat="30.0546" lon="101.96873">
<time>2015-08-06T01:49:09Z</time></trkpt>
<trkpt lat="30.05455" lon="101.9686">
<time>2015-08-06T01:49:10Z</time></trkpt>
<trkpt lat="30.054531" lon="101.96853">
<time>2015-08-06T01:49:11Z</time></trkpt>
<trkpt lat="30.054521" lon="101.968481">
<time>2015-08-06T01:49:12Z</time></trkpt>
<trkpt lat="30.054521" lon="101.968421">
<time>2015-08-06T01:49:13Z</time></trkpt>
<trkpt lat="30.054531" lon="101.968361">
<time>2015-08-06T01:49:14Z</time></trkpt>
<trkpt lat="30.054541" lon="101.968311">
<time>2015-08-06T01:49:15Z</time></trkpt>
<trkpt lat="30.054582" lon="101.968112">
<time>2015-08-06T01:49:16Z</time></trkpt>
<trkpt lat="30.054653" lon="101.967763">
<time>2015-08-06T01:49:17Z</time></trkpt>
<trkpt lat="30.054734" lon="101.967294">
<time>2015-08-06T01:49:18Z</time></trkpt>
<trkpt lat="30.054765" lon="101.966945">
<time>2015-08-06T01:49:19Z</time></trkpt>
<trkpt lat="30.054776" lon="101.966346">
<time>2015-08-06T01:49:20Z</time></trkpt>
<trkpt lat="30.054767" lon="101.966027">
<time>2015-08-06T01:49:21Z</time></trkpt>
<trkpt lat="30.054748" lon="101.965858">
<time>2015-08-06T01:49:22Z</time></trkpt>
<trkpt lat="30.054708" lon="101.965728">
<time>2015-08-06T01:49:23Z</time></trkpt>
<trkpt lat="30.054658" lon="101.965628">
<time>2015-08-06T01:49:24Z</time></trkpt>
<trkpt lat="30.054579" lon="101.965529">
<time>2015-08-06T01:49:25Z</time></trkpt>
<trkpt lat="30.0542" lon="101.965179">
<time>2015-08-06T01:49:26Z</time></trkpt>
<trkpt lat="30.05405" lon="101.96505">
<time>2015-08-06T01:49:27Z</time></trkpt>
<trkpt lat="30.05393" lon="101.96498">
<time>2015-08-06T01:49:28Z</time></trkpt>
<trkpt lat="30.05382" lon="101.96493">
<time>2015-08-06T01:49:29Z</time></trkpt>
<trkpt lat="30.05364" lon="101.96485">
<time>2015-08-06T01:49:30Z</time></trkpt>
<trkpt lat="30.05356" lon="101.964801">
<time>2015-08-06T01:49:31Z</time></trkpt>
<trkpt lat="30.053451" lon="101.964701">
<time>2015-08-06T01:49:32Z</time></trkpt>
<trkpt lat="30.053361" lon="101.964601">
<time>2015-08-06T01:49:33Z</time></trkpt>
<trkpt lat="30.053271" lon="101.964461">
<time>2015-08-06T01:49:34Z</time></trkpt>
<trkpt lat="30.053202" lon="101.964392">
<time>2015-08-06T01:49:35Z</time></trkpt>
<trkpt lat="30.053112" lon="101.964342">
<time>2015-08-06T01:49:36Z</time></trkpt>
<trkpt lat="30.052832" lon="101.964192">
<time>2015-08-06T01:49:37Z</time></trkpt>
<trkpt lat="30.052483" lon="101.963953">
<time>2015-08-06T01:49:38Z</time></trkpt>
<trkpt lat="30.052223" lon="101.963723">
<time>2015-08-06T01:49:39Z</time></trkpt>
<trkpt lat="30.051984" lon="101.963464">
<time>2015-08-06T01:49:40Z</time></trkpt>
<trkpt lat="30.051745" lon="101.963185">
<time>2015-08-06T01:49:41Z</time></trkpt>
<trkpt lat="30.051645" lon="101.963055">
<time>2015-08-06T01:49:42Z</time></trkpt>
<trkpt lat="30.051535" lon="101.962965">
<time>2015-08-06T01:49:43Z</time></trkpt>
<trkpt lat="30.051346" lon="101.962836">
<time>2015-08-06T01:49:44Z</time></trkpt>
<trkpt lat="30.051176" lon="101.962766">
<time>2015-08-06T01:49:45Z</time></trkpt>
<trkpt lat="30.051036" lon="101.962666">
<time>2015-08-06T01:49:46Z</time></trkpt>
<trkpt lat="30.050826" lon="101.962527">
<time>2015-08-06T01:49:47Z</time></trkpt>
<trkpt lat="30.050637" lon="101.962427">
<time>2015-08-06T01:49:48Z</time></trkpt>
<trkpt lat="30.050327" lon="101.962317">
<time>2015-08-06T01:49:49Z</time></trkpt>
<trkpt lat="30.050097" lon="101.962257">
<time>2015-08-06T01:49:50Z</time></trkpt>
<trkpt lat="30.049907" lon="101.962217">
<time>2015-08-06T01:49:51Z</time></trkpt>
<trkpt lat="30.049587" lon="101.962207">
<time>2015-08-06T01:49:52Z</time></trkpt>
<trkpt lat="30.049267" lon="101.962197">
<time>2015-08-06T01:49:53Z</time></trkpt>
<trkpt lat="30.049137" lon="101.962167">
<time>2015-08-06T01:49:54Z</time></trkpt>
<trkpt lat="30.048967" lon="101.962128">
<time>2015-08-06T01:49:55Z</time></trkpt>
<trkpt lat="30.048608" lon="101.962008">
<time>2015-08-06T01:49:56Z</time></trkpt>
<trkpt lat="30.048108" lon="101.961798">
<time>2015-08-06T01:49:57Z</time></trkpt>
<trkpt lat="30.047848" lon="101.961689">
<time>2015-08-06T01:49:58Z</time></trkpt>
<trkpt lat="30.047619" lon="101.961559">
<time>2015-08-06T01:49:59Z</time></trkpt>
<trkpt lat="30.047509" lon="101.961489">
<time>2015-08-06T01:50:00Z</time></trkpt>
<trkpt lat="30.047429" lon="101.961419">
<time>2015-08-06T01:50:01Z</time></trkpt>
<trkpt lat="30.047279" lon="101.96125">
<time>2015-08-06T01:50:02Z</time></trkpt>
<trkpt lat="30.046741" lon="101.960592">
<time>2015-08-06T01:50:03Z</time></trkpt>
<trkpt lat="30.046572" lon="101.960352">
<time>2015-08-06T01:50:04Z</time></trkpt>
<trkpt lat="30.046452" lon="101.960212">
<time>2015-08-06T01:50:05Z</time></trkpt>
<trkpt lat="30.046342" lon="101.960103">
<time>2015-08-06T01:50:06Z</time></trkpt>
<trkpt lat="30.046193" lon="101.959973">
<time>2015-08-06T01:50:07Z</time></trkpt>
<trkpt lat="30.046003" lon="101.959843">
<time>2015-08-06T01:50:08Z</time></trkpt>
<trkpt lat="30.045823" lon="101.959754">
<time>2015-08-06T01:50:09Z</time></trkpt>
<trkpt lat="30.045574" lon="101.959594">
<time>2015-08-06T01:50:10Z</time></trkpt>
<trkpt lat="30.045264" lon="101.959474">
<time>2015-08-06T01:50:11Z</time></trkpt>
<trkpt lat="30.044964" lon="101.959395">
<time>2015-08-06T01:50:12Z</time></trkpt>
<trkpt lat="30.044484" lon="101.959325">
<time>2015-08-06T01:50:13Z</time></trkpt>
<trkpt lat="30.044354" lon="101.959295">
<time>2015-08-06T01:50:14Z</time></trkpt>
<trkpt lat="30.044314" lon="101.959275">
<time>2015-08-06T01:50:15Z</time></trkpt>
<trkpt lat="30.044264" lon="101.959265">
<time>2015-08-06T01:50:16Z</time></trkpt>
<trkpt lat="30.044204" lon="101.959245">
<time>2015-08-06T01:50:17Z</time></trkpt>
<trkpt lat="30.044154" lon="101.959215">
<time>2015-08-06T01:50:18Z</time></trkpt>
<trkpt lat="30.044104" lon="101.959185">
<time>2015-08-06T01:50:19Z</time></trkpt>
<trkpt lat="30.044065" lon="101.959165">
<time>2015-08-06T01:50:20Z</time></trkpt>
<trkpt lat="30.044035" lon="101.959145">
<time>2015-08-06T01:50:21Z</time></trkpt>
<trkpt lat="30.043935" lon="101.959055">
<time>2015-08-06T01:50:22Z</time></trkpt>
<trkpt lat="30.043845" lon="101.958976">
<time>2015-08-06T01:50:23Z</time></trkpt>
<trkpt lat="30.043665" lon="101.958796">
<time>2015-08-06T01:50:24Z</time></trkpt>
<trkpt lat="30.043446" lon="101.958607">
<time>2015-08-06T01:50:25Z</time></trkpt>
<trkpt lat="30.043436" lon="101.958597">
<time>2015-08-06T01:50:26Z</time></trkpt>
<trkpt lat="30.043386" lon="101.958567">
<time>2015-08-06T01:50:27Z</time></trkpt>
<trkpt lat="30.043346" lon="101.958537">
<time>2015-08-06T01:50:28Z</time></trkpt>
<trkpt lat="30.043316" lon="101.958517">
<time>2015-08-06T01:50:29Z</time></trkpt>
<trkpt lat="30.043276" lon="101.958497">
<time>2015-08-06T01:50:30Z</time></trkpt>
<trkpt lat="30.043246" lon="101.958477">
<time>2015-08-06T01:50:31Z</time></trkpt>
<trkpt lat="30.043216" lon="101.958467">
<time>2015-08-06T01:50:32Z</time></trkpt>
<trkpt lat="30.043176" lon="101.958457">
<time>2015-08-06T01:50:33Z</time></trkpt>
<trkpt lat="30.043036" lon="101.958437">
<time>2015-08-06T01:50:34Z</time></trkpt>
<trkpt lat="30.042696" lon="101.958407">
<time>2015-08-06T01:50:35Z</time></trkpt>
<trkpt lat="30.042596" lon="101.958407">
<time>2015-08-06T01:50:36Z</time></trkpt>
<trkpt lat="30.042496" lon="101.958427">
<time>2015-08-06T01:50:37Z</time></trkpt>
<trkpt lat="30.042416" lon="101.958447">
<time>2015-08-06T01:50:38Z</time></trkpt>
<trkpt lat="30.042156" lon="101.958517">
<time>2015-08-06T01:50:39Z</time></trkpt>
<trkpt lat="30.041946" lon="101.958617">
<time>2015-08-06T01:50:40Z</time></trkpt>
<trkpt lat="30.041615" lon="101.958846">
<time>2015-08-06T01:50:41Z</time></trkpt>
<trkpt lat="30.041425" lon="101.958976">
<time>2015-08-06T01:50:42Z</time></trkpt>
<trkpt lat="30.041255" lon="101.959065">
<time>2015-08-06T01:50:43Z</time></trkpt>
<trkpt lat="30.040934" lon="101.959195">
<time>2015-08-06T01:50:44Z</time></trkpt>
<trkpt lat="30.040634" lon="101.959275">
<time>2015-08-06T01:50:45Z</time></trkpt>
<trkpt lat="30.040444" lon="101.959325">
<time>2015-08-06T01:50:46Z</time></trkpt>
<trkpt lat="30.040224" lon="101.959365">
<time>2015-08-06T01:50:47Z</time></trkpt>
<trkpt lat="30.039934" lon="101.959415">
<time>2015-08-06T01:50:48Z</time></trkpt>
<trkpt lat="30.039414" lon="101.959455">
<time>2015-08-06T01:50:49Z</time></trkpt>
<trkpt lat="30.039104" lon="101.959485">
<time>2015-08-06T01:50:50Z</time></trkpt>
<trkpt lat="30.038143" lon="101.959654">
<time>2015-08-06T01:50:51Z</time></trkpt>
<trkpt lat="30.038023" lon="101.959674">
<time>2015-08-06T01:50:52Z</time></trkpt>
<trkpt lat="30.037473" lon="101.959764">
<time>2015-08-06T01:50:53Z</time></trkpt>
<trkpt lat="30.037083" lon="101.959794">
<time>2015-08-06T01:50:54Z</time></trkpt>
<trkpt lat="30.036413" lon="101.959794">
<time>2015-08-06T01:50:55Z</time></trkpt>
<trkpt lat="30.035133" lon="101.959814">
<time>2015-08-06T01:50:56Z</time></trkpt>
<trkpt lat="30.034293" lon="101.959814">
<time>2015-08-06T01:50:57Z</time></trkpt>
<trkpt lat="30.033833" lon="101.959784">
<time>2015-08-06T01:50:58Z</time></trkpt>
<trkpt lat="30.033343" lon="101.959754">
<time>2015-08-06T01:50:59Z</time></trkpt>
<trkpt lat="30.032853" lon="101.959664">
<time>2015-08-06T01:51:00Z</time></trkpt>
<trkpt lat="30.032283" lon="101.959565">
<time>2015-08-06T01:51:01Z</time></trkpt>
<trkpt lat="30.031724" lon="101.959435">
<time>2015-08-06T01:51:02Z</time></trkpt>
<trkpt lat="30.031084" lon="101.959195">
<time>2015-08-06T01:51:03Z</time></trkpt>
<trkpt lat="30.030445" lon="101.958956">
<time>2015-08-06T01:51:04Z</time></trkpt>
<trkpt lat="30.029816" lon="101.958717">
<time>2015-08-06T01:51:05Z</time></trkpt>
<trkpt lat="30.029726" lon="101.958687">
<time>2015-08-06T01:51:06Z</time></trkpt>
<trkpt lat="30.029506" lon="101.958607">
<time>2015-08-06T01:51:07Z</time></trkpt>
<trkpt lat="30.029506" lon="101.958607">
<time>2015-08-06T01:51:08Z</time></trkpt>
<trkpt lat="30.029506" lon="101.958447">
<time>2015-08-06T01:51:09Z</time></trkpt>
<trkpt lat="30.029506" lon="101.958407">
<time>2015-08-06T01:51:10Z</time></trkpt>
<trkpt lat="30.029506" lon="101.958388">
<time>2015-08-06T01:51:11Z</time></trkpt>
<trkpt lat="30.029516" lon="101.958358">
<time>2015-08-06T01:51:12Z</time></trkpt>
<trkpt lat="30.029526" lon="101.958328">
<time>2015-08-06T01:51:13Z</time></trkpt>
<trkpt lat="30.029547" lon="101.958288">
<time>2015-08-06T01:51:14Z</time></trkpt>
<trkpt lat="30.029597" lon="101.958248">
<time>2015-08-06T01:51:15Z</time></trkpt>
<trkpt lat="30.029657" lon="101.958218">
<time>2015-08-06T01:51:16Z</time></trkpt>
<trkpt lat="30.030328" lon="101.957859">
<time>2015-08-06T01:51:17Z</time></trkpt>
<trkpt lat="30.030758" lon="101.957629">
<time>2015-08-06T01:51:18Z</time></trkpt>
<trkpt lat="30.030868" lon="101.957569">
<time>2015-08-06T01:51:19Z</time></trkpt>
<trkpt lat="30.030908" lon="101.95753">
<time>2015-08-06T01:51:20Z</time></trkpt>
<trkpt lat="30.030948" lon="101.9575">
<time>2015-08-06T01:51:21Z</time></trkpt>
<trkpt lat="30.030968" lon="101.95747">
<time>2015-08-06T01:51:22Z</time></trkpt>
<trkpt lat="30.030989" lon="101.95743">
<time>2015-08-06T01:51:23Z</time></trkpt>
<trkpt lat="30.030999" lon="101.95739">
<time>2015-08-06T01:51:24Z</time></trkpt>
<trkpt lat="30.031009" lon="101.95734">
<time>2015-08-06T01:51:25Z</time></trkpt>
<trkpt lat="30.031009" lon="101.95731">
<time>2015-08-06T01:51:26Z</time></trkpt>
<trkpt lat="30.031009" lon="101.95728">
<time>2015-08-06T01:51:27Z</time></trkpt>
<trkpt lat="30.030999" lon="101.95725">
<time>2015-08-06T01:51:28Z</time></trkpt>
<trkpt lat="30.030999" lon="101.95722">
<time>2015-08-06T01:51:29Z</time></trkpt>
<trkpt lat="30.030979" lon="101.95719">
<time>2015-08-06T01:51:30Z</time></trkpt>
<trkpt lat="30.030969" lon="101.95716">
<time>2015-08-06T01:51:31Z</time></trkpt>
<trkpt lat="30.030949" lon="101.95713">
<time>2015-08-06T01:51:32Z</time></trkpt>
<trkpt lat="30.030401" lon="101.956542">
<time>2015-08-06T01:51:33Z</time></trkpt>
<trkpt lat="30.030351" lon="101.956502">
<time>2015-08-06T01:51:34Z</time></trkpt>
<trkpt lat="30.030301" lon="101.956472">
<time>2015-08-06T01:51:35Z</time></trkpt>
<trkpt lat="30.030271" lon="101.956462">
<time>2015-08-06T01:51:36Z</time></trkpt>
<trkpt lat="30.030231" lon="101.956452">
<time>2015-08-06T01:51:37Z</time></trkpt>
<trkpt lat="30.030191" lon="101.956452">
<time>2015-08-06T01:51:38Z</time></trkpt>
<trkpt lat="30.030151" lon="101.956452">
<time>2015-08-06T01:51:39Z</time></trkpt>
<trkpt lat="30.030111" lon="101.956462">
<time>2015-08-06T01:51:40Z</time></trkpt>
<trkpt lat="30.030081" lon="101.956482">
<time>2015-08-06T01:51:41Z</time></trkpt>
<trkpt lat="30.030041" lon="101.956502">
<time>2015-08-06T01:51:42Z</time></trkpt>
<trkpt lat="30.030001" lon="101.956542">
<time>2015-08-06T01:51:43Z</time></trkpt>
<trkpt lat="30.0299" lon="101.956632">
<time>2015-08-06T01:51:44Z</time></trkpt>
<trkpt lat="30.02949" lon="101.956961">
<time>2015-08-06T01:51:45Z</time></trkpt>
<trkpt lat="30.029399" lon="101.957041">
<time>2015-08-06T01:51:46Z</time></trkpt>
<trkpt lat="30.029349" lon="101.957071">
<time>2015-08-06T01:51:47Z</time></trkpt>
<trkpt lat="30.029309" lon="101.957091">
<time>2015-08-06T01:51:48Z</time></trkpt>
<trkpt lat="30.029269" lon="101.957111">
<time>2015-08-06T01:51:49Z</time></trkpt>
<trkpt lat="30.029239" lon="101.957111">
<time>2015-08-06T01:51:50Z</time></trkpt>
<trkpt lat="30.029199" lon="101.957121">
<time>2015-08-06T01:51:51Z</time></trkpt>
<trkpt lat="30.029159" lon="101.957111">
<time>2015-08-06T01:51:52Z</time></trkpt>
<trkpt lat="30.029099" lon="101.957101">
<time>2015-08-06T01:51:53Z</time></trkpt>
<trkpt lat="30.028999" lon="101.957091">
<time>2015-08-06T01:51:54Z</time></trkpt>
<trkpt lat="30.02879" lon="101.957021">
<time>2015-08-06T01:51:55Z</time></trkpt>
<trkpt lat="30.02854" lon="101.956941">
<time>2015-08-06T01:51:56Z</time></trkpt>
<trkpt lat="30.02819" lon="101.956781">
<time>2015-08-06T01:51:57Z</time></trkpt>
<trkpt lat="30.027221" lon="101.956402">
<time>2015-08-06T01:51:58Z</time></trkpt>
<trkpt lat="30.026881" lon="101.956283">
<time>2015-08-06T01:51:59Z</time></trkpt>
<trkpt lat="30.026591" lon="101.956193">
<time>2015-08-06T01:52:00Z</time></trkpt>
<trkpt lat="30.026462" lon="101.956163">
<time>2015-08-06T01:52:01Z</time></trkpt>
<trkpt lat="30.026282" lon="101.956133">
<time>2015-08-06T01:52:02Z</time></trkpt>
<trkpt lat="30.026142" lon="101.956133">
<time>2015-08-06T01:52:03Z</time></trkpt>
<trkpt lat="30.026002" lon="101.956133">
<time>2015-08-06T01:52:04Z</time></trkpt>
<trkpt lat="30.025872" lon="101.956123">
<time>2015-08-06T01:52:05Z</time></trkpt>
<trkpt lat="30.025692" lon="101.956063">
<time>2015-08-06T01:52:06Z</time></trkpt>
<trkpt lat="30.025132" lon="101.955864">
<time>2015-08-06T01:52:07Z</time></trkpt>
<trkpt lat="30.024303" lon="101.955534">
<time>2015-08-06T01:52:08Z</time></trkpt>
<trkpt lat="30.023903" lon="101.955345">
<time>2015-08-06T01:52:09Z</time></trkpt>
<trkpt lat="30.023833" lon="101.955325">
<time>2015-08-06T01:52:10Z</time></trkpt>
<trkpt lat="30.023773" lon="101.955305">
<time>2015-08-06T01:52:11Z</time></trkpt>
<trkpt lat="30.023744" lon="101.955295">
<time>2015-08-06T01:52:12Z</time></trkpt>
<trkpt lat="30.023704" lon="101.955295">
<time>2015-08-06T01:52:13Z</time></trkpt>
<trkpt lat="30.023664" lon="101.955295">
<time>2015-08-06T01:52:14Z</time></trkpt>
<trkpt lat="30.023613" lon="101.955305">
<time>2015-08-06T01:52:15Z</time></trkpt>
<trkpt lat="30.023573" lon="101.955325">
<time>2015-08-06T01:52:16Z</time></trkpt>
<trkpt lat="30.023393" lon="101.955435">
<time>2015-08-06T01:52:17Z</time></trkpt>
<trkpt lat="30.023143" lon="101.955584">
<time>2015-08-06T01:52:18Z</time></trkpt>
<trkpt lat="30.023103" lon="101.955604">
<time>2015-08-06T01:52:19Z</time></trkpt>
<trkpt lat="30.023063" lon="101.955624">
<time>2015-08-06T01:52:20Z</time></trkpt>
<trkpt lat="30.023013" lon="101.955644">
<time>2015-08-06T01:52:21Z</time></trkpt>
<trkpt lat="30.022953" lon="101.955654">
<time>2015-08-06T01:52:22Z</time></trkpt>
<trkpt lat="30.022903" lon="101.955664">
<time>2015-08-06T01:52:23Z</time></trkpt>
<trkpt lat="30.022833" lon="101.955664">
<time>2015-08-06T01:52:24Z</time></trkpt>
<trkpt lat="30.022793" lon="101.955664">
<time>2015-08-06T01:52:25Z</time></trkpt>
<trkpt lat="30.022463" lon="101.955654">
<time>2015-08-06T01:52:26Z</time></trkpt>
<trkpt lat="30.022373" lon="101.955644">
<time>2015-08-06T01:52:27Z</time></trkpt>
<trkpt lat="30.022303" lon="101.955634">
<time>2015-08-06T01:52:28Z</time></trkpt>
<trkpt lat="30.022213" lon="101.955604">
<time>2015-08-06T01:52:29Z</time></trkpt>
<trkpt lat="30.022113" lon="101.955554">
<time>2015-08-06T01:52:30Z</time></trkpt>
<trkpt lat="30.021064" lon="101.955046">
<time>2015-08-06T01:52:31Z</time></trkpt>
<trkpt lat="30.021064" lon="101.955046">
<time>2015-08-06T01:52:32Z</time></trkpt>
<trkpt lat="30.021105" lon="101.954856">
<time>2015-08-06T01:52:33Z</time></trkpt>
<trkpt lat="30.021105" lon="101.954856">
<time>2015-08-06T01:52:34Z</time></trkpt>
<trkpt lat="30.021165" lon="101.954836">
<time>2015-08-06T01:52:35Z</time></trkpt>
<trkpt lat="30.021245" lon="101.954816">
<time>2015-08-06T01:52:36Z</time></trkpt>
<trkpt lat="30.021385" lon="101.954806">
<time>2015-08-06T01:52:37Z</time></trkpt>
<trkpt lat="30.021705" lon="101.954786">
<time>2015-08-06T01:52:38Z</time></trkpt>
<trkpt lat="30.021805" lon="101.954776">
<time>2015-08-06T01:52:39Z</time></trkpt>
<trkpt lat="30.021875" lon="101.954766">
<time>2015-08-06T01:52:40Z</time></trkpt>
<trkpt lat="30.021915" lon="101.954746">
<time>2015-08-06T01:52:41Z</time></trkpt>
<trkpt lat="30.021955" lon="101.954736">
<time>2015-08-06T01:52:42Z</time></trkpt>
<trkpt lat="30.021975" lon="101.954726">
<time>2015-08-06T01:52:43Z</time></trkpt>
<trkpt lat="30.021995" lon="101.954706">
<time>2015-08-06T01:52:44Z</time></trkpt>
<trkpt lat="30.022005" lon="101.954686">
<time>2015-08-06T01:52:45Z</time></trkpt>
<trkpt lat="30.022015" lon="101.954657">
<time>2015-08-06T01:52:46Z</time></trkpt>
<trkpt lat="30.022015" lon="101.954627">
<time>2015-08-06T01:52:47Z</time></trkpt>
<trkpt lat="30.022005" lon="101.954597">
<time>2015-08-06T01:52:48Z</time></trkpt>
<trkpt lat="30.022005" lon="101.954567">
<time>2015-08-06T01:52:49Z</time></trkpt>
<trkpt lat="30.021985" lon="101.954537">
<time>2015-08-06T01:52:50Z</time></trkpt>
<trkpt lat="30.021975" lon="101.954527">
<time>2015-08-06T01:52:51Z</time></trkpt>
<trkpt lat="30.021945" lon="101.954507">
<time>2015-08-06T01:52:52Z</time></trkpt>
<trkpt lat="30.021925" lon="101.954497">
<time>2015-08-06T01:52:53Z</time></trkpt>
<trkpt lat="30.021895" lon="101.954477">
<time>2015-08-06T01:52:54Z</time></trkpt>
<trkpt lat="30.021855" lon="101.954467">
<time>2015-08-06T01:52:55Z</time></trkpt>
<trkpt lat="30.021785" lon="101.954447">
<time>2015-08-06T01:52:56Z</time></trkpt>
<trkpt lat="30.021585" lon="101.954447">
<time>2015-08-06T01:52:57Z</time></trkpt>
<trkpt lat="30.021086" lon="101.954407">
<time>2015-08-06T01:52:58Z</time></trkpt>
<trkpt lat="30.020916" lon="101.954377">
<time>2015-08-06T01:52:59Z</time></trkpt>
<trkpt lat="30.020506" lon="101.954257">
<time>2015-08-06T01:53:00Z</time></trkpt>
<trkpt lat="30.020116" lon="101.954098">
<time>2015-08-06T01:53:01Z</time></trkpt>
<trkpt lat="30.019936" lon="101.954048">
<time>2015-08-06T01:53:02Z</time></trkpt>
<trkpt lat="30.019856" lon="101.954028">
<time>2015-08-06T01:53:03Z</time></trkpt>
<trkpt lat="30.019626" lon="101.953988">
<time>2015-08-06T01:53:04Z</time></trkpt>
<trkpt lat="30.019127" lon="101.953948">
<time>2015-08-06T01:53:05Z</time></trkpt>
<trkpt lat="30.018457" lon="101.953838">
<time>2015-08-06T01:53:06Z</time></trkpt>
<trkpt lat="30.017777" lon="101.953709">
<time>2015-08-06T01:53:07Z</time></trkpt>
<trkpt lat="30.017487" lon="101.953639">
<time>2015-08-06T01:53:08Z</time></trkpt>
<trkpt lat="30.017377" lon="101.953599">
<time>2015-08-06T01:53:09Z</time></trkpt>
<trkpt lat="30.017297" lon="101.953569">
<time>2015-08-06T01:53:10Z</time></trkpt>
<trkpt lat="30.017237" lon="101.953529">
<time>2015-08-06T01:53:11Z</time></trkpt>
<trkpt lat="30.017158" lon="101.953469">
<time>2015-08-06T01:53:12Z</time></trkpt>
<trkpt lat="30.016978" lon="101.95332">
<time>2015-08-06T01:53:13Z</time></trkpt>
<trkpt lat="30.016888" lon="101.95326">
<time>2015-08-06T01:53:14Z</time></trkpt>
<trkpt lat="30.016838" lon="101.95323">
<time>2015-08-06T01:53:15Z</time></trkpt>
<trkpt lat="30.016778" lon="101.9532">
<time>2015-08-06T01:53:16Z</time></trkpt>
<trkpt lat="30.016728" lon="101.95319">
<time>2015-08-06T01:53:17Z</time></trkpt>
<trkpt lat="30.016648" lon="101.95318">
<time>2015-08-06T01:53:18Z</time></trkpt>
<trkpt lat="30.016428" lon="101.95317">
<time>2015-08-06T01:53:19Z</time></trkpt>
<trkpt lat="30.016288" lon="101.95315">
<time>2015-08-06T01:53:20Z</time></trkpt>
<trkpt lat="30.016208" lon="101.95313">
<time>2015-08-06T01:53:21Z</time></trkpt>
<trkpt lat="30.016148" lon="101.95311">
<time>2015-08-06T01:53:22Z</time></trkpt>
<trkpt lat="30.016088" lon="101.95308">
<time>2015-08-06T01:53:23Z</time></trkpt>
<trkpt lat="30.016019" lon="101.95303">
<time>2015-08-06T01:53:24Z</time></trkpt>
<trkpt lat="30.015949" lon="101.952961">
<time>2015-08-06T01:53:25Z</time></trkpt>
<trkpt lat="30.015679" lon="101.952731">
<time>2015-08-06T01:53:26Z</time></trkpt>
<trkpt lat="30.015619" lon="101.952691">
<time>2015-08-06T01:53:27Z</time></trkpt>
<trkpt lat="30.015539" lon="101.952641">
<time>2015-08-06T01:53:28Z</time></trkpt>
<trkpt lat="30.01543" lon="101.952571">
<time>2015-08-06T01:53:29Z</time></trkpt>
<trkpt lat="30.0149" lon="101.952292">
<time>2015-08-06T01:53:30Z</time></trkpt>
<trkpt lat="30.01467" lon="101.952182">
<time>2015-08-06T01:53:31Z</time></trkpt>
<trkpt lat="30.014481" lon="101.952083">
<time>2015-08-06T01:53:32Z</time></trkpt>
<trkpt lat="30.014281" lon="101.951953">
<time>2015-08-06T01:53:33Z</time></trkpt>
<trkpt lat="30.014081" lon="101.951813">
<time>2015-08-06T01:53:34Z</time></trkpt>
<trkpt lat="30.013921" lon="101.951723">
<time>2015-08-06T01:53:35Z</time></trkpt>
<trkpt lat="30.013782" lon="101.951653">
<time>2015-08-06T01:53:36Z</time></trkpt>
<trkpt lat="30.013652" lon="101.951604">
<time>2015-08-06T01:53:37Z</time></trkpt>
<trkpt lat="30.012423" lon="101.951204">
<time>2015-08-06T01:53:38Z</time></trkpt>
<trkpt lat="30.012353" lon="101.951195">
<time>2015-08-06T01:53:39Z</time></trkpt>
<trkpt lat="30.012253" lon="101.951175">
<time>2015-08-06T01:53:40Z</time></trkpt>
<trkpt lat="30.012173" lon="101.951165">
<time>2015-08-06T01:53:41Z</time></trkpt>
<trkpt lat="30.012063" lon="101.951185">
<time>2015-08-06T01:53:42Z</time></trkpt>
<trkpt lat="30.011792" lon="101.951244">
<time>2015-08-06T01:53:43Z</time></trkpt>
<trkpt lat="30.011172" lon="101.951494">
<time>2015-08-06T01:53:44Z</time></trkpt>
<trkpt lat="30.010972" lon="101.951604">
<time>2015-08-06T01:53:45Z</time></trkpt>
<trkpt lat="30.010751" lon="101.951723">
<time>2015-08-06T01:53:46Z</time></trkpt>
<trkpt lat="30.010581" lon="101.951783">
<time>2015-08-06T01:53:47Z</time></trkpt>
<trkpt lat="30.010301" lon="101.951863">
<time>2015-08-06T01:53:48Z</time></trkpt>
<trkpt lat="30.010061" lon="101.951923">
<time>2015-08-06T01:53:49Z</time></trkpt>
<trkpt lat="30.009851" lon="101.952013">
<time>2015-08-06T01:53:50Z</time></trkpt>
<trkpt lat="30.009581" lon="101.952123">
<time>2015-08-06T01:53:51Z</time></trkpt>
<trkpt lat="30.00945" lon="101.952163">
<time>2015-08-06T01:53:52Z</time></trkpt>
<trkpt lat="30.00931" lon="101.952192">
<time>2015-08-06T01:53:53Z</time></trkpt>
<trkpt lat="30.00915" lon="101.952182">
<time>2015-08-06T01:53:54Z</time></trkpt>
<trkpt lat="30.00903" lon="101.952182">
<time>2015-08-06T01:53:55Z</time></trkpt>
<trkpt lat="30.008931" lon="101.952143">
<time>2015-08-06T01:53:56Z</time></trkpt>
<trkpt lat="30.008601" lon="101.952013">
<time>2015-08-06T01:53:57Z</time></trkpt>
<trkpt lat="30.007951" lon="101.951724">
<time>2015-08-06T01:53:58Z</time></trkpt>
<trkpt lat="30.007552" lon="101.951534">
<time>2015-08-06T01:53:59Z</time></trkpt>
<trkpt lat="30.007352" lon="101.951404">
<time>2015-08-06T01:54:00Z</time></trkpt>
<trkpt lat="30.007053" lon="101.951185">
<time>2015-08-06T01:54:01Z</time></trkpt>
<trkpt lat="30.006703" lon="101.950905">
<time>2015-08-06T01:54:02Z</time></trkpt>
<trkpt lat="30.006573" lon="101.950796">
<time>2015-08-06T01:54:03Z</time></trkpt>
<trkpt lat="30.006494" lon="101.950696">
<time>2015-08-06T01:54:04Z</time></trkpt>
<trkpt lat="30.006434" lon="101.950616">
<time>2015-08-06T01:54:05Z</time></trkpt>
<trkpt lat="30.006354" lon="101.950486">
<time>2015-08-06T01:54:06Z</time></trkpt>
<trkpt lat="30.006225" lon="101.950247">
<time>2015-08-06T01:54:07Z</time></trkpt>
<trkpt lat="30.006105" lon="101.950047">
<time>2015-08-06T01:54:08Z</time></trkpt>
<trkpt lat="30.006045" lon="101.949937">
<time>2015-08-06T01:54:09Z</time></trkpt>
<trkpt lat="30.005965" lon="101.949838">
<time>2015-08-06T01:54:10Z</time></trkpt>
<trkpt lat="30.005896" lon="101.949758">
<time>2015-08-06T01:54:11Z</time></trkpt>
<trkpt lat="30.005756" lon="101.949628">
<time>2015-08-06T01:54:12Z</time></trkpt>
<trkpt lat="30.005576" lon="101.949498">
<time>2015-08-06T01:54:13Z</time></trkpt>
<trkpt lat="30.005337" lon="101.949339">
<time>2015-08-06T01:54:14Z</time></trkpt>
<trkpt lat="30.004997" lon="101.949129">
<time>2015-08-06T01:54:15Z</time></trkpt>
<trkpt lat="30.004547" lon="101.94887">
<time>2015-08-06T01:54:16Z</time></trkpt>
<trkpt lat="30.004418" lon="101.9488">
<time>2015-08-06T01:54:17Z</time></trkpt>
<trkpt lat="30.004348" lon="101.94877">
<time>2015-08-06T01:54:18Z</time></trkpt>
<trkpt lat="30.004278" lon="101.94877">
<time>2015-08-06T01:54:19Z</time></trkpt>
<trkpt lat="30.004208" lon="101.94877">
<time>2015-08-06T01:54:20Z</time></trkpt>
<trkpt lat="30.004128" lon="101.94878">
<time>2015-08-06T01:54:21Z</time></trkpt>
<trkpt lat="30.003998" lon="101.94882">
<time>2015-08-06T01:54:22Z</time></trkpt>
<trkpt lat="30.003717" lon="101.94892">
<time>2015-08-06T01:54:23Z</time></trkpt>
<trkpt lat="30.003647" lon="101.94892">
<time>2015-08-06T01:54:24Z</time></trkpt>
<trkpt lat="30.003587" lon="101.94892">
<time>2015-08-06T01:54:25Z</time></trkpt>
<trkpt lat="30.003547" lon="101.94891">
<time>2015-08-06T01:54:26Z</time></trkpt>
<trkpt lat="30.003497" lon="101.94889">
<time>2015-08-06T01:54:27Z</time></trkpt>
<trkpt lat="30.003467" lon="101.94887">
<time>2015-08-06T01:54:28Z</time></trkpt>
<trkpt lat="30.003438" lon="101.94885">
<time>2015-08-06T01:54:29Z</time></trkpt>
<trkpt lat="30.003368" lon="101.94878">
<time>2015-08-06T01:54:30Z</time></trkpt>
<trkpt lat="30.003268" lon="101.94866">
<time>2015-08-06T01:54:31Z</time></trkpt>
<trkpt lat="30.003098" lon="101.948431">
<time>2015-08-06T01:54:32Z</time></trkpt>
<trkpt lat="30.002939" lon="101.948231">
<time>2015-08-06T01:54:33Z</time></trkpt>
<trkpt lat="30.002869" lon="101.948151">
<time>2015-08-06T01:54:34Z</time></trkpt>
<trkpt lat="30.002819" lon="101.948111">
<time>2015-08-06T01:54:35Z</time></trkpt>
<trkpt lat="30.002769" lon="101.948071">
<time>2015-08-06T01:54:36Z</time></trkpt>
<trkpt lat="30.002709" lon="101.948041">
<time>2015-08-06T01:54:37Z</time></trkpt>
<trkpt lat="30.002659" lon="101.948011">
<time>2015-08-06T01:54:38Z</time></trkpt>
<trkpt lat="30.002469" lon="101.947972">
<time>2015-08-06T01:54:39Z</time></trkpt>
<trkpt lat="30.002169" lon="101.947902">
<time>2015-08-06T01:54:40Z</time></trkpt>
<trkpt lat="30.00137" lon="101.947602">
<time>2015-08-06T01:54:41Z</time></trkpt>
<trkpt lat="30.00086" lon="101.947413">
<time>2015-08-06T01:54:42Z</time></trkpt>
<trkpt lat="30.000711" lon="101.947343">
<time>2015-08-06T01:54:43Z</time></trkpt>
<trkpt lat="30.000641" lon="101.947293">
<time>2015-08-06T01:54:44Z</time></trkpt>
<trkpt lat="30.000601" lon="101.947243">
<time>2015-08-06T01:54:45Z</time></trkpt>
<trkpt lat="30.000571" lon="101.947193">
<time>2015-08-06T01:54:46Z</time></trkpt>
<trkpt lat="30.000551" lon="101.947133">
<time>2015-08-06T01:54:47Z</time></trkpt>
<trkpt lat="30.000551" lon="101.947043">
<time>2015-08-06T01:54:48Z</time></trkpt>
<trkpt lat="30.000551" lon="101.946954">
<time>2015-08-06T01:54:49Z</time></trkpt>
<trkpt lat="30.000562" lon="101.946854">
<time>2015-08-06T01:54:50Z</time></trkpt>
<trkpt lat="30.000592" lon="101.946734">
<time>2015-08-06T01:54:51Z</time></trkpt>
<trkpt lat="30.000702" lon="101.946435">
<time>2015-08-06T01:54:52Z</time></trkpt>
<trkpt lat="30.000793" lon="101.946175">
<time>2015-08-06T01:54:53Z</time></trkpt>
<trkpt lat="30.000833" lon="101.946045">
<time>2015-08-06T01:54:54Z</time></trkpt>
<trkpt lat="30.000863" lon="101.945906">
<time>2015-08-06T01:54:55Z</time></trkpt>
<trkpt lat="30.000894" lon="101.945666">
<time>2015-08-06T01:54:56Z</time></trkpt>
<trkpt lat="30.000945" lon="101.945317">
<time>2015-08-06T01:54:57Z</time></trkpt>
<trkpt lat="30.000975" lon="101.945007">
<time>2015-08-06T01:54:58Z</time></trkpt>
<trkpt lat="30.001006" lon="101.944848">
<time>2015-08-06T01:54:59Z</time></trkpt>
<trkpt lat="30.001046" lon="101.944668">
<time>2015-08-06T01:55:00Z</time></trkpt>
<trkpt lat="30.001066" lon="101.944568">
<time>2015-08-06T01:55:01Z</time></trkpt>
<trkpt lat="30.001066" lon="101.944518">
<time>2015-08-06T01:55:02Z</time></trkpt>
<trkpt lat="30.001066" lon="101.944478">
<time>2015-08-06T01:55:03Z</time></trkpt>
<trkpt lat="30.001046" lon="101.944418">
<time>2015-08-06T01:55:04Z</time></trkpt>
<trkpt lat="30.001036" lon="101.944389">
<time>2015-08-06T01:55:05Z</time></trkpt>
<trkpt lat="30.001006" lon="101.944359">
<time>2015-08-06T01:55:06Z</time></trkpt>
<trkpt lat="30.000987" lon="101.944329">
<time>2015-08-06T01:55:07Z</time></trkpt>
<trkpt lat="30.000947" lon="101.944309">
<time>2015-08-06T01:55:08Z</time></trkpt>
<trkpt lat="30.000917" lon="101.944299">
<time>2015-08-06T01:55:09Z</time></trkpt>
<trkpt lat="30.000877" lon="101.944299">
<time>2015-08-06T01:55:10Z</time></trkpt>
<trkpt lat="30.000837" lon="101.944299">
<time>2015-08-06T01:55:11Z</time></trkpt>
<trkpt lat="30.000797" lon="101.944309">
<time>2015-08-06T01:55:12Z</time></trkpt>
<trkpt lat="30.000005" lon="101.944888">
<time>2015-08-06T01:55:13Z</time></trkpt>
<trkpt lat="29.999915" lon="101.944967">
<time>2015-08-06T01:55:14Z</time></trkpt>
<trkpt lat="29.999815" lon="101.945017">
<time>2015-08-06T01:55:15Z</time></trkpt>
<trkpt lat="29.999715" lon="101.945067">
<time>2015-08-06T01:55:16Z</time></trkpt>
<trkpt lat="29.999585" lon="101.945107">
<time>2015-08-06T01:55:17Z</time></trkpt>
<trkpt lat="29.999455" lon="101.945147">
<time>2015-08-06T01:55:18Z</time></trkpt>
<trkpt lat="29.999345" lon="101.945177">
<time>2015-08-06T01:55:19Z</time></trkpt>
<trkpt lat="29.999215" lon="101.945217">
<time>2015-08-06T01:55:20Z</time></trkpt>
<trkpt lat="29.998985" lon="101.945307">
<time>2015-08-06T01:55:21Z</time></trkpt>
<trkpt lat="29.998855" lon="101.945347">
<time>2015-08-06T01:55:22Z</time></trkpt>
<trkpt lat="29.998694" lon="101.945377">
<time>2015-08-06T01:55:23Z</time></trkpt>
<trkpt lat="29.998554" lon="101.945397">
<time>2015-08-06T01:55:24Z</time></trkpt>
<trkpt lat="29.998474" lon="101.945397">
<time>2015-08-06T01:55:25Z</time></trkpt>
<trkpt lat="29.998394" lon="101.945387">
<time>2015-08-06T01:55:26Z</time></trkpt>
<trkpt lat="29.998305" lon="101.945357">
<time>2015-08-06T01:55:27Z</time></trkpt>
<trkpt lat="29.998205" lon="101.945307">
<time>2015-08-06T01:55:28Z</time></trkpt>
<trkpt lat="29.998065" lon="101.945187">
<time>2015-08-06T01:55:29Z</time></trkpt>
<trkpt lat="29.997805" lon="101.944968">
<time>2015-08-06T01:55:30Z</time></trkpt>
<trkpt lat="29.997326" lon="101.944558">
<time>2015-08-06T01:55:31Z</time></trkpt>
<trkpt lat="29.996917" lon="101.944159">
<time>2015-08-06T01:55:32Z</time></trkpt>
<trkpt lat="29.996218" lon="101.94347">
<time>2015-08-06T01:55:33Z</time></trkpt>
<trkpt lat="29.996078" lon="101.943331">
<time>2015-08-06T01:55:34Z</time></trkpt>
<trkpt lat="29.996009" lon="101.943221">
<time>2015-08-06T01:55:35Z</time></trkpt>
<trkpt lat="29.995939" lon="101.943071">
<time>2015-08-06T01:55:36Z</time></trkpt>
<trkpt lat="29.995879" lon="101.942921">
<time>2015-08-06T01:55:37Z</time></trkpt>
<trkpt lat="29.9958" lon="101.942652">
<time>2015-08-06T01:55:38Z</time></trkpt>
<trkpt lat="29.99576" lon="101.942532">
<time>2015-08-06T01:55:39Z</time></trkpt>
<trkpt lat="29.9957" lon="101.942402">
<time>2015-08-06T01:55:40Z</time></trkpt>
<trkpt lat="29.99563" lon="101.942273">
<time>2015-08-06T01:55:41Z</time></trkpt>
<trkpt lat="29.995491" lon="101.942053">
<time>2015-08-06T01:55:42Z</time></trkpt>
<trkpt lat="29.995371" lon="101.941833">
<time>2015-08-06T01:55:43Z</time></trkpt>
<trkpt lat="29.995311" lon="101.941704">
<time>2015-08-06T01:55:44Z</time></trkpt>
<trkpt lat="29.995282" lon="101.941614">
<time>2015-08-06T01:55:45Z</time></trkpt>
<trkpt lat="29.995252" lon="101.941494">
<time>2015-08-06T01:55:46Z</time></trkpt>
<trkpt lat="29.995232" lon="101.941324">
<time>2015-08-06T01:55:47Z</time></trkpt>
<trkpt lat="29.995222" lon="101.941135">
<time>2015-08-06T01:55:48Z</time></trkpt>
<trkpt lat="29.995213" lon="101.941005">
<time>2015-08-06T01:55:49Z</time></trkpt>
<trkpt lat="29.995193" lon="101.940895">
<time>2015-08-06T01:55:50Z</time></trkpt>
<trkpt lat="29.995163" lon="101.940815">
<time>2015-08-06T01:55:51Z</time></trkpt>
<trkpt lat="29.995143" lon="101.940715">
<time>2015-08-06T01:55:52Z</time></trkpt>
<trkpt lat="29.995103" lon="101.940595">
<time>2015-08-06T01:55:53Z</time></trkpt>
<trkpt lat="29.995014" lon="101.940386">
<time>2015-08-06T01:55:54Z</time></trkpt>
<trkpt lat="29.994804" lon="101.940066">
<time>2015-08-06T01:55:55Z</time></trkpt>
<trkpt lat="29.994595" lon="101.939777">
<time>2015-08-06T01:55:56Z</time></trkpt>
<trkpt lat="29.994495" lon="101.939647">
<time>2015-08-06T01:55:57Z</time></trkpt>
<trkpt lat="29.994405" lon="101.939547">
<time>2015-08-06T01:55:58Z</time></trkpt>
<trkpt lat="29.994115" lon="101.939388">
<time>2015-08-06T01:55:59Z</time></trkpt>
<trkpt lat="29.993996" lon="101.939328">
<time>2015-08-06T01:56:00Z</time></trkpt>
<trkpt lat="29.993836" lon="101.939248">
<time>2015-08-06T01:56:01Z</time></trkpt>
<trkpt lat="29.993666" lon="101.939178">
<time>2015-08-06T01:56:02Z</time></trkpt>
<trkpt lat="29.993556" lon="101.939138">
<time>2015-08-06T01:56:03Z</time></trkpt>
<trkpt lat="29.993466" lon="101.939078">
<time>2015-08-06T01:56:04Z</time></trkpt>
<trkpt lat="29.993416" lon="101.939038">
<time>2015-08-06T01:56:05Z</time></trkpt>
<trkpt lat="29.993356" lon="101.938988">
<time>2015-08-06T01:56:06Z</time></trkpt>
<trkpt lat="29.993296" lon="101.938898">
<time>2015-08-06T01:56:07Z</time></trkpt>
<trkpt lat="29.993207" lon="101.938709">
<time>2015-08-06T01:56:08Z</time></trkpt>
<trkpt lat="29.993057" lon="101.938399">
<time>2015-08-06T01:56:09Z</time></trkpt>
<trkpt lat="29.992918" lon="101.93809">
<time>2015-08-06T01:56:10Z</time></trkpt>
<trkpt lat="29.992838" lon="101.93795">
<time>2015-08-06T01:56:11Z</time></trkpt>
<trkpt lat="29.992768" lon="101.93785">
<time>2015-08-06T01:56:12Z</time></trkpt>
<trkpt lat="29.992688" lon="101.93777">
<time>2015-08-06T01:56:13Z</time></trkpt>
<trkpt lat="29.992618" lon="101.93772">
<time>2015-08-06T01:56:14Z</time></trkpt>
<trkpt lat="29.992548" lon="101.93768">
<time>2015-08-06T01:56:15Z</time></trkpt>
<trkpt lat="29.992478" lon="101.93765">
<time>2015-08-06T01:56:16Z</time></trkpt>
<trkpt lat="29.992388" lon="101.93763">
<time>2015-08-06T01:56:17Z</time></trkpt>
<trkpt lat="29.992308" lon="101.93762">
<time>2015-08-06T01:56:18Z</time></trkpt>
<trkpt lat="29.992228" lon="101.93763">
<time>2015-08-06T01:56:19Z</time></trkpt>
<trkpt lat="29.992158" lon="101.93765">
<time>2015-08-06T01:56:20Z</time></trkpt>
<trkpt lat="29.992048" lon="101.9377">
<time>2015-08-06T01:56:21Z</time></trkpt>
<trkpt lat="29.991968" lon="101.93775">
<time>2015-08-06T01:56:22Z</time></trkpt>
<trkpt lat="29.991868" lon="101.93781">
<time>2015-08-06T01:56:23Z</time></trkpt>
<trkpt lat="29.991788" lon="101.93786">
<time>2015-08-06T01:56:24Z</time></trkpt>
<trkpt lat="29.991708" lon="101.9379">
<time>2015-08-06T01:56:25Z</time></trkpt>
<trkpt lat="29.991638" lon="101.93792">
<time>2015-08-06T01:56:26Z</time></trkpt>
<trkpt lat="29.991578" lon="101.93793">
<time>2015-08-06T01:56:27Z</time></trkpt>
<trkpt lat="29.991488" lon="101.93793">
<time>2015-08-06T01:56:28Z</time></trkpt>
<trkpt lat="29.991398" lon="101.93791">
<time>2015-08-06T01:56:29Z</time></trkpt>
<trkpt lat="29.991288" lon="101.93786">
<time>2015-08-06T01:56:30Z</time></trkpt>
<trkpt lat="29.991188" lon="101.9378">
<time>2015-08-06T01:56:31Z</time></trkpt>
<trkpt lat="29.991018" lon="101.9377">
<time>2015-08-06T01:56:32Z</time></trkpt>
<trkpt lat="29.990819" lon="101.937501">
<time>2015-08-06T01:56:33Z</time></trkpt>
<trkpt lat="29.990499" lon="101.937051">
<time>2015-08-06T01:56:34Z</time></trkpt>
<trkpt lat="29.9904" lon="101.936882">
<time>2015-08-06T01:56:35Z</time></trkpt>
<trkpt lat="29.99031" lon="101.936752">
<time>2015-08-06T01:56:36Z</time></trkpt>
<trkpt lat="29.9902" lon="101.936632">
<time>2015-08-06T01:56:37Z</time></trkpt>
<trkpt lat="29.99006" lon="101.936492">
<time>2015-08-06T01:56:38Z</time></trkpt>
<trkpt lat="29.98993" lon="101.936372">
<time>2015-08-06T01:56:39Z</time></trkpt>
<trkpt lat="29.989801" lon="101.936263">
<time>2015-08-06T01:56:40Z</time></trkpt>
<trkpt lat="29.989711" lon="101.936203">
<time>2015-08-06T01:56:41Z</time></trkpt>
<trkpt lat="29.989621" lon="101.936163">
<time>2015-08-06T01:56:42Z</time></trkpt>
<trkpt lat="29.989521" lon="101.936133">
<time>2015-08-06T01:56:43Z</time></trkpt>
<trkpt lat="29.989411" lon="101.936103">
<time>2015-08-06T01:56:44Z</time></trkpt>
<trkpt lat="29.989161" lon="101.936063">
<time>2015-08-06T01:56:45Z</time></trkpt>
<trkpt lat="29.989001" lon="101.936023">
<time>2015-08-06T01:56:46Z</time></trkpt>
<trkpt lat="29.988911" lon="101.936003">
<time>2015-08-06T01:56:47Z</time></trkpt>
<trkpt lat="29.988821" lon="101.935963">
<time>2015-08-06T01:56:48Z</time></trkpt>
<trkpt lat="29.988771" lon="101.935923">
<time>2015-08-06T01:56:49Z</time></trkpt>
<trkpt lat="29.988721" lon="101.935873">
<time>2015-08-06T01:56:50Z</time></trkpt>
<trkpt lat="29.988691" lon="101.935813">
<time>2015-08-06T01:56:51Z</time></trkpt>
<trkpt lat="29.988671" lon="101.935743">
<time>2015-08-06T01:56:52Z</time></trkpt>
<trkpt lat="29.988662" lon="101.935653">
<time>2015-08-06T01:56:53Z</time></trkpt>
<trkpt lat="29.988662" lon="101.935564">
<time>2015-08-06T01:56:54Z</time></trkpt>
<trkpt lat="29.988652" lon="101.935464">
<time>2015-08-06T01:56:55Z</time></trkpt>
<trkpt lat="29.988652" lon="101.935344">
<time>2015-08-06T01:56:56Z</time></trkpt>
<trkpt lat="29.988632" lon="101.935254">
<time>2015-08-06T01:56:57Z</time></trkpt>
<trkpt lat="29.988602" lon="101.935184">
<time>2015-08-06T01:56:58Z</time></trkpt>
<trkpt lat="29.988562" lon="101.935084">
<time>2015-08-06T01:56:59Z</time></trkpt>
<trkpt lat="29.988523" lon="101.934994">
<time>2015-08-06T01:57:00Z</time></trkpt>
<trkpt lat="29.988453" lon="101.934865">
<time>2015-08-06T01:57:01Z</time></trkpt>
<trkpt lat="29.988333" lon="101.934665">
<time>2015-08-06T01:57:02Z</time></trkpt>
<trkpt lat="29.988114" lon="101.934325">
<time>2015-08-06T01:57:03Z</time></trkpt>
<trkpt lat="29.988044" lon="101.934196">
<time>2015-08-06T01:57:04Z</time></trkpt>
<trkpt lat="29.988004" lon="101.934106">
<time>2015-08-06T01:57:05Z</time></trkpt>
<trkpt lat="29.987984" lon="101.934016">
<time>2015-08-06T01:57:06Z</time></trkpt>
<trkpt lat="29.987964" lon="101.933896">
<time>2015-08-06T01:57:07Z</time></trkpt>
<trkpt lat="29.987944" lon="101.933756">
<time>2015-08-06T01:57:08Z</time></trkpt>
<trkpt lat="29.987925" lon="101.933656">
<time>2015-08-06T01:57:09Z</time></trkpt>
<trkpt lat="29.987895" lon="101.933556">
<time>2015-08-06T01:57:10Z</time></trkpt>
<trkpt lat="29.987855" lon="101.933447">
<time>2015-08-06T01:57:11Z</time></trkpt>
<trkpt lat="29.987785" lon="101.933287">
<time>2015-08-06T01:57:12Z</time></trkpt>
<trkpt lat="29.987705" lon="101.933147">
<time>2015-08-06T01:57:13Z</time></trkpt>
<trkpt lat="29.987646" lon="101.933057">
<time>2015-08-06T01:57:14Z</time></trkpt>
<trkpt lat="29.987586" lon="101.932977">
<time>2015-08-06T01:57:15Z</time></trkpt>
<trkpt lat="29.987526" lon="101.932897">
<time>2015-08-06T01:57:16Z</time></trkpt>
<trkpt lat="29.987446" lon="101.932837">
<time>2015-08-06T01:57:17Z</time></trkpt>
<trkpt lat="29.987336" lon="101.932788">
<time>2015-08-06T01:57:18Z</time></trkpt>
<trkpt lat="29.987216" lon="101.932738">
<time>2015-08-06T01:57:19Z</time></trkpt>
<trkpt lat="29.987116" lon="101.932698">
<time>2015-08-06T01:57:20Z</time></trkpt>
<trkpt lat="29.987046" lon="101.932638">
<time>2015-08-06T01:57:21Z</time></trkpt>
<trkpt lat="29.986996" lon="101.932578">
<time>2015-08-06T01:57:22Z</time></trkpt>
<trkpt lat="29.986926" lon="101.932458">
<time>2015-08-06T01:57:23Z</time></trkpt>
<trkpt lat="29.986847" lon="101.932258">
<time>2015-08-06T01:57:24Z</time></trkpt>
<trkpt lat="29.986737" lon="101.931969">
<time>2015-08-06T01:57:25Z</time></trkpt>
<trkpt lat="29.986657" lon="101.931669">
<time>2015-08-06T01:57:26Z</time></trkpt>
<trkpt lat="29.986598" lon="101.931359">
<time>2015-08-06T01:57:27Z</time></trkpt>
<trkpt lat="29.986529" lon="101.93088">
<time>2015-08-06T01:57:28Z</time></trkpt>
<trkpt lat="29.986469" lon="101.93059">
<time>2015-08-06T01:57:29Z</time></trkpt>
<trkpt lat="29.986419" lon="101.930401">
<time>2015-08-06T01:57:30Z</time></trkpt>
<trkpt lat="29.986369" lon="101.930251">
<time>2015-08-06T01:57:31Z</time></trkpt>
<trkpt lat="29.98631" lon="101.930121">
<time>2015-08-06T01:57:32Z</time></trkpt>
<trkpt lat="29.98621" lon="101.929971">
<time>2015-08-06T01:57:33Z</time></trkpt>
<trkpt lat="29.986" lon="101.929701">
<time>2015-08-06T01:57:34Z</time></trkpt>
<trkpt lat="29.9859" lon="101.929542">
<time>2015-08-06T01:57:35Z</time></trkpt>
<trkpt lat="29.98585" lon="101.929452">
<time>2015-08-06T01:57:36Z</time></trkpt>
<trkpt lat="29.985821" lon="101.929362">
<time>2015-08-06T01:57:37Z</time></trkpt>
<trkpt lat="29.985801" lon="101.929272">
<time>2015-08-06T01:57:38Z</time></trkpt>
<trkpt lat="29.985791" lon="101.929142">
<time>2015-08-06T01:57:39Z</time></trkpt>
<trkpt lat="29.985801" lon="101.928932">
<time>2015-08-06T01:57:40Z</time></trkpt>
<trkpt lat="29.985822" lon="101.928613">
<time>2015-08-06T01:57:41Z</time></trkpt>
<trkpt lat="29.985822" lon="101.928403">
<time>2015-08-06T01:57:42Z</time></trkpt>
<trkpt lat="29.985822" lon="101.928193">
<time>2015-08-06T01:57:43Z</time></trkpt>
<trkpt lat="29.985832" lon="101.928043">
<time>2015-08-06T01:57:44Z</time></trkpt>
<trkpt lat="29.985852" lon="101.927913">
<time>2015-08-06T01:57:45Z</time></trkpt>
<trkpt lat="29.985883" lon="101.927784">
<time>2015-08-06T01:57:46Z</time></trkpt>
<trkpt lat="29.985933" lon="101.927664">
<time>2015-08-06T01:57:47Z</time></trkpt>
<trkpt lat="29.986013" lon="101.927504">
<time>2015-08-06T01:57:48Z</time></trkpt>
<trkpt lat="29.986073" lon="101.927374">
<time>2015-08-06T01:57:49Z</time></trkpt>
<trkpt lat="29.986123" lon="101.927224">
<time>2015-08-06T01:57:50Z</time></trkpt>
<trkpt lat="29.986163" lon="101.927084">
<time>2015-08-06T01:57:51Z</time></trkpt>
<trkpt lat="29.986194" lon="101.926904">
<time>2015-08-06T01:57:52Z</time></trkpt>
<trkpt lat="29.986264" lon="101.926505">
<time>2015-08-06T01:57:53Z</time></trkpt>
<trkpt lat="29.986375" lon="101.925915">
<time>2015-08-06T01:57:54Z</time></trkpt>
<trkpt lat="29.986405" lon="101.925766">
<time>2015-08-06T01:57:55Z</time></trkpt>
<trkpt lat="29.986445" lon="101.925646">
<time>2015-08-06T01:57:56Z</time></trkpt>
<trkpt lat="29.986495" lon="101.925546">
<time>2015-08-06T01:57:57Z</time></trkpt>
<trkpt lat="29.986555" lon="101.925456">
<time>2015-08-06T01:57:58Z</time></trkpt>
<trkpt lat="29.986655" lon="101.925326">
<time>2015-08-06T01:57:59Z</time></trkpt>
<trkpt lat="29.986776" lon="101.925176">
<time>2015-08-06T01:58:00Z</time></trkpt>
<trkpt lat="29.986916" lon="101.924986">
<time>2015-08-06T01:58:01Z</time></trkpt>
<trkpt lat="29.987026" lon="101.924807">
<time>2015-08-06T01:58:02Z</time></trkpt>
<trkpt lat="29.987126" lon="101.924617">
<time>2015-08-06T01:58:03Z</time></trkpt>
<trkpt lat="29.987206" lon="101.924447">
<time>2015-08-06T01:58:04Z</time></trkpt>
<trkpt lat="29.987307" lon="101.924227">
<time>2015-08-06T01:58:05Z</time></trkpt>
<trkpt lat="29.987367" lon="101.924117">
<time>2015-08-06T01:58:06Z</time></trkpt>
<trkpt lat="29.987437" lon="101.924007">
<time>2015-08-06T01:58:07Z</time></trkpt>
<trkpt lat="29.987537" lon="101.923887">
<time>2015-08-06T01:58:08Z</time></trkpt>
<trkpt lat="29.987677" lon="101.923727">
<time>2015-08-06T01:58:09Z</time></trkpt>
<trkpt lat="29.987827" lon="101.923558">
<time>2015-08-06T01:58:10Z</time></trkpt>
<trkpt lat="29.987928" lon="101.923428">
<time>2015-08-06T01:58:11Z</time></trkpt>
<trkpt lat="29.987978" lon="101.923328">
<time>2015-08-06T01:58:12Z</time></trkpt>
<trkpt lat="29.988008" lon="101.923238">
<time>2015-08-06T01:58:13Z</time></trkpt>
<trkpt lat="29.988028" lon="101.923138">
<time>2015-08-06T01:58:14Z</time></trkpt>
<trkpt lat="29.988038" lon="101.923018">
<time>2015-08-06T01:58:15Z</time></trkpt>
<trkpt lat="29.988038" lon="101.922878">
<time>2015-08-06T01:58:16Z</time></trkpt>
<trkpt lat="29.988028" lon="101.922688">
<time>2015-08-06T01:58:17Z</time></trkpt>
<trkpt lat="29.988009" lon="101.922399">
<time>2015-08-06T01:58:18Z</time></trkpt>
<trkpt lat="29.987999" lon="101.922169">
<time>2015-08-06T01:58:19Z</time></trkpt>
<trkpt lat="29.987999" lon="101.921949">
<time>2015-08-06T01:58:20Z</time></trkpt>
<trkpt lat="29.988019" lon="101.921719">
<time>2015-08-06T01:58:21Z</time></trkpt>
<trkpt lat="29.98806" lon="101.921399">
<time>2015-08-06T01:58:22Z</time></trkpt>
<trkpt lat="29.98807" lon="101.921209">
<time>2015-08-06T01:58:23Z</time></trkpt>
<trkpt lat="29.98807" lon="101.92108">
<time>2015-08-06T01:58:24Z</time></trkpt>
<trkpt lat="29.98806" lon="101.92096">
<time>2015-08-06T01:58:25Z</time></trkpt>
<trkpt lat="29.98804" lon="101.9208">
<time>2015-08-06T01:58:26Z</time></trkpt>
<trkpt lat="29.98799" lon="101.9205">
<time>2015-08-06T01:58:27Z</time></trkpt>
<trkpt lat="29.987941" lon="101.92024">
<time>2015-08-06T01:58:28Z</time></trkpt>
<trkpt lat="29.987891" lon="101.92">
<time>2015-08-06T01:58:29Z</time></trkpt>
<trkpt lat="29.987881" lon="101.91991">
<time>2015-08-06T01:58:30Z</time></trkpt>
<trkpt lat="29.987891" lon="101.91983">
<time>2015-08-06T01:58:31Z</time></trkpt>
<trkpt lat="29.987911" lon="101.919771">
<time>2015-08-06T01:58:32Z</time></trkpt>
<trkpt lat="29.987931" lon="101.919721">
<time>2015-08-06T01:58:33Z</time></trkpt>
<trkpt lat="29.987971" lon="101.919671">
<time>2015-08-06T01:58:34Z</time></trkpt>
<trkpt lat="29.988031" lon="101.919631">
<time>2015-08-06T01:58:35Z</time></trkpt>
<trkpt lat="29.988101" lon="101.919591">
<time>2015-08-06T01:58:36Z</time></trkpt>
<trkpt lat="29.988241" lon="101.919531">
<time>2015-08-06T01:58:37Z</time></trkpt>
<trkpt lat="29.988591" lon="101.919371">
<time>2015-08-06T01:58:38Z</time></trkpt>
<trkpt lat="29.988932" lon="101.919191">
<time>2015-08-06T01:58:39Z</time></trkpt>
<trkpt lat="29.989092" lon="101.919091">
<time>2015-08-06T01:58:40Z</time></trkpt>
<trkpt lat="29.989182" lon="101.919011">
<time>2015-08-06T01:58:41Z</time></trkpt>
<trkpt lat="29.989282" lon="101.918911">
<time>2015-08-06T01:58:42Z</time></trkpt>
<trkpt lat="29.989422" lon="101.918741">
<time>2015-08-06T01:58:43Z</time></trkpt>
<trkpt lat="29.989592" lon="101.918531">
<time>2015-08-06T01:58:44Z</time></trkpt>
<trkpt lat="29.989722" lon="101.918361">
<time>2015-08-06T01:58:45Z</time></trkpt>
<trkpt lat="29.989792" lon="101.918261">
<time>2015-08-06T01:58:46Z</time></trkpt>
<trkpt lat="29.989822" lon="101.918171">
<time>2015-08-06T01:58:47Z</time></trkpt>
<trkpt lat="29.989852" lon="101.918052">
<time>2015-08-06T01:58:48Z</time></trkpt>
<trkpt lat="29.989863" lon="101.917922">
<time>2015-08-06T01:58:49Z</time></trkpt>
<trkpt lat="29.989873" lon="101.917692">
<time>2015-08-06T01:58:50Z</time></trkpt>
<trkpt lat="29.989873" lon="101.917392">
<time>2015-08-06T01:58:51Z</time></trkpt>
<trkpt lat="29.989883" lon="101.917122">
<time>2015-08-06T01:58:52Z</time></trkpt>
<trkpt lat="29.989903" lon="101.916962">
<time>2015-08-06T01:58:53Z</time></trkpt>
<trkpt lat="29.989933" lon="101.916812">
<time>2015-08-06T01:58:54Z</time></trkpt>
<trkpt lat="29.989974" lon="101.916682">
<time>2015-08-06T01:58:55Z</time></trkpt>
<trkpt lat="29.990024" lon="101.916552">
<time>2015-08-06T01:58:56Z</time></trkpt>
<trkpt lat="29.990084" lon="101.916392">
<time>2015-08-06T01:58:57Z</time></trkpt>
<trkpt lat="29.990134" lon="101.916202">
<time>2015-08-06T01:58:58Z</time></trkpt>
<trkpt lat="29.990184" lon="101.916003">
<time>2015-08-06T01:58:59Z</time></trkpt>
<trkpt lat="29.990204" lon="101.915823">
<time>2015-08-06T01:59:00Z</time></trkpt>
<trkpt lat="29.990214" lon="101.915683">
<time>2015-08-06T01:59:01Z</time></trkpt>
<trkpt lat="29.990214" lon="101.915563">
<time>2015-08-06T01:59:02Z</time></trkpt>
<trkpt lat="29.990194" lon="101.915443">
<time>2015-08-06T01:59:03Z</time></trkpt>
<trkpt lat="29.990154" lon="101.915303">
<time>2015-08-06T01:59:04Z</time></trkpt>
<trkpt lat="29.990065" lon="101.915073">
<time>2015-08-06T01:59:05Z</time></trkpt>
<trkpt lat="29.989935" lon="101.914763">
<time>2015-08-06T01:59:06Z</time></trkpt>
<trkpt lat="29.989775" lon="101.914393">
<time>2015-08-06T01:59:07Z</time></trkpt>
<trkpt lat="29.989695" lon="101.914183">
<time>2015-08-06T01:59:08Z</time></trkpt>
<trkpt lat="29.989665" lon="101.914033">
<time>2015-08-06T01:59:09Z</time></trkpt>
<trkpt lat="29.989655" lon="101.913874">
<time>2015-08-06T01:59:10Z</time></trkpt>
<trkpt lat="29.989665" lon="101.913734">
<time>2015-08-06T01:59:11Z</time></trkpt>
<trkpt lat="29.989686" lon="101.913594">
<time>2015-08-06T01:59:12Z</time></trkpt>
<trkpt lat="29.989726" lon="101.913434">
<time>2015-08-06T01:59:13Z</time></trkpt>
<trkpt lat="29.989786" lon="101.913254">
<time>2015-08-06T01:59:14Z</time></trkpt>
<trkpt lat="29.989836" lon="101.913054">
<time>2015-08-06T01:59:15Z</time></trkpt>
<trkpt lat="29.989876" lon="101.912864">
<time>2015-08-06T01:59:16Z</time></trkpt>
<trkpt lat="29.989896" lon="101.912674">
<time>2015-08-06T01:59:17Z</time></trkpt>
<trkpt lat="29.989906" lon="101.912454">
<time>2015-08-06T01:59:18Z</time></trkpt>
<trkpt lat="29.989896" lon="101.912134">
<time>2015-08-06T01:59:19Z</time></trkpt>
<trkpt lat="29.989887" lon="101.911814">
<time>2015-08-06T01:59:20Z</time></trkpt>
<trkpt lat="29.989887" lon="101.911674">
<time>2015-08-06T01:59:21Z</time></trkpt>
<trkpt lat="29.989877" lon="101.911514">
<time>2015-08-06T01:59:22Z</time></trkpt>
<trkpt lat="29.989857" lon="101.911344">
<time>2015-08-06T01:59:23Z</time></trkpt>
<trkpt lat="29.989827" lon="101.911204">
<time>2015-08-06T01:59:24Z</time></trkpt>
<trkpt lat="29.989797" lon="101.911084">
<time>2015-08-06T01:59:25Z</time></trkpt>
<trkpt lat="29.989757" lon="101.910974">
<time>2015-08-06T01:59:26Z</time></trkpt>
<trkpt lat="29.989697" lon="101.910824">
<time>2015-08-06T01:59:27Z</time></trkpt>
<trkpt lat="29.989617" lon="101.910644">
<time>2015-08-06T01:59:28Z</time></trkpt>
<trkpt lat="29.989527" lon="101.910424">
<time>2015-08-06T01:59:29Z</time></trkpt>
<trkpt lat="29.989417" lon="101.910095">
<time>2015-08-06T01:59:30Z</time></trkpt>
<trkpt lat="29.989298" lon="101.909705">
<time>2015-08-06T01:59:31Z</time></trkpt>
<trkpt lat="29.989208" lon="101.909435">
<time>2015-08-06T01:59:32Z</time></trkpt>
<trkpt lat="29.989118" lon="101.909195">
<time>2015-08-06T01:59:33Z</time></trkpt>
<trkpt lat="29.989008" lon="101.908955">
<time>2015-08-06T01:59:34Z</time></trkpt>
<trkpt lat="29.988848" lon="101.908595">
<time>2015-08-06T01:59:35Z</time></trkpt>
<trkpt lat="29.988748" lon="101.908375">
<time>2015-08-06T01:59:36Z</time></trkpt>
<trkpt lat="29.988678" lon="101.908185">
<time>2015-08-06T01:59:37Z</time></trkpt>
<trkpt lat="29.988628" lon="101.907995">
<time>2015-08-06T01:59:38Z</time></trkpt>
<trkpt lat="29.988588" lon="101.907805">
<time>2015-08-06T01:59:39Z</time></trkpt>
<trkpt lat="29.988568" lon="101.907605">
<time>2015-08-06T01:59:40Z</time></trkpt>
<trkpt lat="29.988548" lon="101.907395">
<time>2015-08-06T01:59:41Z</time></trkpt>
<trkpt lat="29.988538" lon="101.907045">
<time>2015-08-06T01:59:42Z</time></trkpt>
<trkpt lat="29.988519" lon="101.906495">
<time>2015-08-06T01:59:43Z</time></trkpt>
<trkpt lat="29.988519" lon="101.906305">
<time>2015-08-06T01:59:44Z</time></trkpt>
<trkpt lat="29.988529" lon="101.906125">
<time>2015-08-06T01:59:45Z</time></trkpt>
<trkpt lat="29.988549" lon="101.906005">
<time>2015-08-06T01:59:46Z</time></trkpt>
<trkpt lat="29.988589" lon="101.905835">
<time>2015-08-06T01:59:47Z</time></trkpt>
<trkpt lat="29.988659" lon="101.905585">
<time>2015-08-06T01:59:48Z</time></trkpt>
<trkpt lat="29.988689" lon="101.905445">
<time>2015-08-06T01:59:49Z</time></trkpt>
<trkpt lat="29.988709" lon="101.905355">
<time>2015-08-06T01:59:50Z</time></trkpt>
<trkpt lat="29.988699" lon="101.905245">
<time>2015-08-06T01:59:51Z</time></trkpt>
<trkpt lat="29.988679" lon="101.905145">
<time>2015-08-06T01:59:52Z</time></trkpt>
<trkpt lat="29.988629" lon="101.905045">
<time>2015-08-06T01:59:53Z</time></trkpt>
<trkpt lat="29.988549" lon="101.904915">
<time>2015-08-06T01:59:54Z</time></trkpt>
<trkpt lat="29.988409" lon="101.904705">
<time>2015-08-06T01:59:55Z</time></trkpt>
<trkpt lat="29.988349" lon="101.904575">
<time>2015-08-06T01:59:56Z</time></trkpt>
<trkpt lat="29.988319" lon="101.904485">
<time>2015-08-06T01:59:57Z</time></trkpt>
<trkpt lat="29.988309" lon="101.904405">
<time>2015-08-06T01:59:58Z</time></trkpt>
<trkpt lat="29.988329" lon="101.904325">
<time>2015-08-06T01:59:59Z</time></trkpt>
<trkpt lat="29.988349" lon="101.904255">
<time>2015-08-06T02:00:00Z</time></trkpt>
<trkpt lat="29.988379" lon="101.904205">
<time>2015-08-06T02:00:01Z</time></trkpt>
<trkpt lat="29.988429" lon="101.904165">
<time>2015-08-06T02:00:02Z</time></trkpt>
<trkpt lat="29.988499" lon="101.904115">
<time>2015-08-06T02:00:03Z</time></trkpt>
<trkpt lat="29.988599" lon="101.904065">
<time>2015-08-06T02:00:04Z</time></trkpt>
<trkpt lat="29.988839" lon="101.903945">
<time>2015-08-06T02:00:05Z</time></trkpt>
<trkpt lat="29.988939" lon="101.903875">
<time>2015-08-06T02:00:06Z</time></trkpt>
<trkpt lat="29.989009" lon="101.903805">
<time>2015-08-06T02:00:07Z</time></trkpt>
<trkpt lat="29.989109" lon="101.903685">
<time>2015-08-06T02:00:08Z</time></trkpt>
<trkpt lat="29.989229" lon="101.903515">
<time>2015-08-06T02:00:09Z</time></trkpt>
<trkpt lat="29.989349" lon="101.903325">
<time>2015-08-06T02:00:10Z</time></trkpt>
<trkpt lat="29.989479" lon="101.903144">
<time>2015-08-06T02:00:11Z</time></trkpt>
<trkpt lat="29.989759" lon="101.902814">
<time>2015-08-06T02:00:12Z</time></trkpt>
<trkpt lat="29.989919" lon="101.902604">
<time>2015-08-06T02:00:13Z</time></trkpt>
<trkpt lat="29.989999" lon="101.902464">
<time>2015-08-06T02:00:14Z</time></trkpt>
<trkpt lat="29.990049" lon="101.902334">
<time>2015-08-06T02:00:15Z</time></trkpt>
<trkpt lat="29.990079" lon="101.902184">
<time>2015-08-06T02:00:16Z</time></trkpt>
<trkpt lat="29.990099" lon="101.901944">
<time>2015-08-06T02:00:17Z</time></trkpt>
<trkpt lat="29.990109" lon="101.901414">
<time>2015-08-06T02:00:18Z</time></trkpt>
<trkpt lat="29.990099" lon="101.901034">
<time>2015-08-06T02:00:19Z</time></trkpt>
<trkpt lat="29.990099" lon="101.900744">
<time>2015-08-06T02:00:20Z</time></trkpt>
<trkpt lat="29.990129" lon="101.900504">
<time>2015-08-06T02:00:21Z</time></trkpt>
<trkpt lat="29.990159" lon="101.900264">
<time>2015-08-06T02:00:22Z</time></trkpt>
<trkpt lat="29.990179" lon="101.900144">
<time>2015-08-06T02:00:23Z</time></trkpt>
<trkpt lat="29.990169" lon="101.900044">
<time>2015-08-06T02:00:24Z</time></trkpt>
<trkpt lat="29.990159" lon="101.899914">
<time>2015-08-06T02:00:25Z</time></trkpt>
<trkpt lat="29.990129" lon="101.899724">
<time>2015-08-06T02:00:26Z</time></trkpt>
<trkpt lat="29.990079" lon="101.899443">
<time>2015-08-06T02:00:27Z</time></trkpt>
<trkpt lat="29.990019" lon="101.899163">
<time>2015-08-06T02:00:28Z</time></trkpt>
<trkpt lat="29.989999" lon="101.898993">
<time>2015-08-06T02:00:29Z</time></trkpt>
<trkpt lat="29.989989" lon="101.898853">
<time>2015-08-06T02:00:30Z</time></trkpt>
<trkpt lat="29.989999" lon="101.898753">
<time>2015-08-06T02:00:31Z</time></trkpt>
<trkpt lat="29.990029" lon="101.898663">
<time>2015-08-06T02:00:32Z</time></trkpt>
<trkpt lat="29.990079" lon="101.898583">
<time>2015-08-06T02:00:33Z</time></trkpt>
<trkpt lat="29.990139" lon="101.898493">
<time>2015-08-06T02:00:34Z</time></trkpt>
<trkpt lat="29.990229" lon="101.898423">
<time>2015-08-06T02:00:35Z</time></trkpt>
<trkpt lat="29.990369" lon="101.898323">
<time>2015-08-06T02:00:36Z</time></trkpt>
<trkpt lat="29.990629" lon="101.898123">
<time>2015-08-06T02:00:37Z</time></trkpt>
<trkpt lat="29.990719" lon="101.898033">
<time>2015-08-06T02:00:38Z</time></trkpt>
<trkpt lat="29.990779" lon="101.897943">
<time>2015-08-06T02:00:39Z</time></trkpt>
<trkpt lat="29.990849" lon="101.897833">
<time>2015-08-06T02:00:40Z</time></trkpt>
<trkpt lat="29.990919" lon="101.897693">
<time>2015-08-06T02:00:41Z</time></trkpt>
<trkpt lat="29.991049" lon="101.897363">
<time>2015-08-06T02:00:42Z</time></trkpt>
<trkpt lat="29.991289" lon="101.896832">
<time>2015-08-06T02:00:43Z</time></trkpt>
<trkpt lat="29.991429" lon="101.896502">
<time>2015-08-06T02:00:44Z</time></trkpt>
<trkpt lat="29.991539" lon="101.896302">
<time>2015-08-06T02:00:45Z</time></trkpt>
<trkpt lat="29.991669" lon="101.896112">
<time>2015-08-06T02:00:46Z</time></trkpt>
<trkpt lat="29.991809" lon="101.895932">
<time>2015-08-06T02:00:47Z</time></trkpt>
<trkpt lat="29.991949" lon="101.895762">
<time>2015-08-06T02:00:48Z</time></trkpt>
<trkpt lat="29.992409" lon="101.895261">
<time>2015-08-06T02:00:49Z</time></trkpt>
<trkpt lat="29.992519" lon="101.895121">
<time>2015-08-06T02:00:50Z</time></trkpt>
<trkpt lat="29.992619" lon="101.894981">
<time>2015-08-06T02:00:51Z</time></trkpt>
<trkpt lat="29.992699" lon="101.894811">
<time>2015-08-06T02:00:52Z</time></trkpt>
<trkpt lat="29.992749" lon="101.894661">
<time>2015-08-06T02:00:53Z</time></trkpt>
<trkpt lat="29.992799" lon="101.894481">
<time>2015-08-06T02:00:54Z</time></trkpt>
<trkpt lat="29.992849" lon="101.894261">
<time>2015-08-06T02:00:55Z</time></trkpt>
<trkpt lat="29.992879" lon="101.894011">
<time>2015-08-06T02:00:56Z</time></trkpt>
<trkpt lat="29.992899" lon="101.89378">
<time>2015-08-06T02:00:57Z</time></trkpt>
<trkpt lat="29.992928" lon="101.89348">
<time>2015-08-06T02:00:58Z</time></trkpt>
<trkpt lat="29.992938" lon="101.89315">
<time>2015-08-06T02:00:59Z</time></trkpt>
<trkpt lat="29.992958" lon="101.89293">
<time>2015-08-06T02:01:00Z</time></trkpt>
<trkpt lat="29.992998" lon="101.89269">
<time>2015-08-06T02:01:01Z</time></trkpt>
<trkpt lat="29.993048" lon="101.8924">
<time>2015-08-06T02:01:02Z</time></trkpt>
<trkpt lat="29.993078" lon="101.892219">
<time>2015-08-06T02:01:03Z</time></trkpt>
<trkpt lat="29.993078" lon="101.892099">
<time>2015-08-06T02:01:04Z</time></trkpt>
<trkpt lat="29.993078" lon="101.891989">
<time>2015-08-06T02:01:05Z</time></trkpt>
<trkpt lat="29.993048" lon="101.891839">
<time>2015-08-06T02:01:06Z</time></trkpt>
<trkpt lat="29.992998" lon="101.891579">
<time>2015-08-06T02:01:07Z</time></trkpt>
<trkpt lat="29.992677" lon="101.890118">
<time>2015-08-06T02:01:08Z</time></trkpt>
<trkpt lat="29.992557" lon="101.889447">
<time>2015-08-06T02:01:09Z</time></trkpt>
<trkpt lat="29.992487" lon="101.889017">
<time>2015-08-06T02:01:10Z</time></trkpt>
<trkpt lat="29.992467" lon="101.888817">
<time>2015-08-06T02:01:11Z</time></trkpt>
<trkpt lat="29.992457" lon="101.888627">
<time>2015-08-06T02:01:12Z</time></trkpt>
<trkpt lat="29.992466" lon="101.888436">
<time>2015-08-06T02:01:13Z</time></trkpt>
<trkpt lat="29.992486" lon="101.888296">
<time>2015-08-06T02:01:14Z</time></trkpt>
<trkpt lat="29.992506" lon="101.888206">
<time>2015-08-06T02:01:15Z</time></trkpt>
<trkpt lat="29.992546" lon="101.888106">
<time>2015-08-06T02:01:16Z</time></trkpt>
<trkpt lat="29.992596" lon="101.887996">
<time>2015-08-06T02:01:17Z</time></trkpt>
<trkpt lat="29.992656" lon="101.887896">
<time>2015-08-06T02:01:18Z</time></trkpt>
<trkpt lat="29.992776" lon="101.887706">
<time>2015-08-06T02:01:19Z</time></trkpt>
<trkpt lat="29.992836" lon="101.887576">
<time>2015-08-06T02:01:20Z</time></trkpt>
<trkpt lat="29.992866" lon="101.887475">
<time>2015-08-06T02:01:21Z</time></trkpt>
<trkpt lat="29.992896" lon="101.887365">
<time>2015-08-06T02:01:22Z</time></trkpt>
<trkpt lat="29.992906" lon="101.887225">
<time>2015-08-06T02:01:23Z</time></trkpt>
<trkpt lat="29.992906" lon="101.887065">
<time>2015-08-06T02:01:24Z</time></trkpt>
<trkpt lat="29.992896" lon="101.886855">
<time>2015-08-06T02:01:25Z</time></trkpt>
<trkpt lat="29.992865" lon="101.886495">
<time>2015-08-06T02:01:26Z</time></trkpt>
<trkpt lat="29.992855" lon="101.886184">
<time>2015-08-06T02:01:27Z</time></trkpt>
<trkpt lat="29.992865" lon="101.885754">
<time>2015-08-06T02:01:28Z</time></trkpt>
<trkpt lat="29.992895" lon="101.885013">
<time>2015-08-06T02:01:29Z</time></trkpt>
<trkpt lat="29.992964" lon="101.883561">
<time>2015-08-06T02:01:30Z</time></trkpt>
<trkpt lat="29.992963" lon="101.883261">
<time>2015-08-06T02:01:31Z</time></trkpt>
<trkpt lat="29.993003" lon="101.883061">
<time>2015-08-06T02:01:32Z</time></trkpt>
<trkpt lat="29.993083" lon="101.882921">
<time>2015-08-06T02:01:33Z</time></trkpt>
<trkpt lat="29.993163" lon="101.882891">
<time>2015-08-06T02:01:34Z</time></trkpt>
<trkpt lat="29.993243" lon="101.882891">
<time>2015-08-06T02:01:35Z</time></trkpt>
<trkpt lat="29.993313" lon="101.882931">
<time>2015-08-06T02:01:36Z</time></trkpt>
<trkpt lat="29.993373" lon="101.882991">
<time>2015-08-06T02:01:37Z</time></trkpt>
<trkpt lat="29.993413" lon="101.883091">
<time>2015-08-06T02:01:38Z</time></trkpt>
<trkpt lat="29.993453" lon="101.883181">
<time>2015-08-06T02:01:39Z</time></trkpt>
<trkpt lat="29.993533" lon="101.883421">
<time>2015-08-06T02:01:40Z</time></trkpt>
<trkpt lat="29.993594" lon="101.883672">
<time>2015-08-06T02:01:41Z</time></trkpt>
<trkpt lat="29.993704" lon="101.884132">
<time>2015-08-06T02:01:42Z</time></trkpt>
<trkpt lat="29.993804" lon="101.884563">
<time>2015-08-06T02:01:43Z</time></trkpt>
<trkpt lat="29.993915" lon="101.884973">
<time>2015-08-06T02:01:44Z</time></trkpt>
<trkpt lat="29.993955" lon="101.885153">
<time>2015-08-06T02:01:45Z</time></trkpt>
<trkpt lat="29.993975" lon="101.885373">
<time>2015-08-06T02:01:46Z</time></trkpt>
<trkpt lat="29.993975" lon="101.885594">
<time>2015-08-06T02:01:47Z</time></trkpt>
<trkpt lat="29.993965" lon="101.885874">
<time>2015-08-06T02:01:48Z</time></trkpt>
<trkpt lat="29.993955" lon="101.886074">
<time>2015-08-06T02:01:49Z</time></trkpt>
<trkpt lat="29.993955" lon="101.886254">
<time>2015-08-06T02:01:50Z</time></trkpt>
<trkpt lat="29.993955" lon="101.886334">
<time>2015-08-06T02:01:51Z</time></trkpt>
<trkpt lat="29.993975" lon="101.886394">
<time>2015-08-06T02:01:52Z</time></trkpt>
<trkpt lat="29.993995" lon="101.886434">
<time>2015-08-06T02:01:53Z</time></trkpt>
<trkpt lat="29.994025" lon="101.886464">
<time>2015-08-06T02:01:54Z</time></trkpt>
<trkpt lat="29.994065" lon="101.886484">
<time>2015-08-06T02:01:55Z</time></trkpt>
<trkpt lat="29.994095" lon="101.886484">
<time>2015-08-06T02:01:56Z</time></trkpt>
<trkpt lat="29.994125" lon="101.886474">
<time>2015-08-06T02:01:57Z</time></trkpt>
<trkpt lat="29.994165" lon="101.886454">
<time>2015-08-06T02:01:58Z</time></trkpt>
<trkpt lat="29.994195" lon="101.886414">
<time>2015-08-06T02:01:59Z</time></trkpt>
<trkpt lat="29.994215" lon="101.886374">
<time>2015-08-06T02:02:00Z</time></trkpt>
<trkpt lat="29.994235" lon="101.886324">
<time>2015-08-06T02:02:01Z</time></trkpt>
<trkpt lat="29.994265" lon="101.886244">
<time>2015-08-06T02:02:02Z</time></trkpt>
<trkpt lat="29.994285" lon="101.886124">
<time>2015-08-06T02:02:03Z</time></trkpt>
<trkpt lat="29.994345" lon="101.885854">
<time>2015-08-06T02:02:04Z</time></trkpt>
<trkpt lat="29.994415" lon="101.885483">
<time>2015-08-06T02:02:05Z</time></trkpt>
<trkpt lat="29.994465" lon="101.885243">
<time>2015-08-06T02:02:06Z</time></trkpt>
<trkpt lat="29.994495" lon="101.885083">
<time>2015-08-06T02:02:07Z</time></trkpt>
<trkpt lat="29.994514" lon="101.884933">
<time>2015-08-06T02:02:08Z</time></trkpt>
<trkpt lat="29.994534" lon="101.884703">
<time>2015-08-06T02:02:09Z</time></trkpt>
<trkpt lat="29.994554" lon="101.884472">
<time>2015-08-06T02:02:10Z</time></trkpt>
<trkpt lat="29.994564" lon="101.884312">
<time>2015-08-06T02:02:11Z</time></trkpt>
<trkpt lat="29.994574" lon="101.884192">
<time>2015-08-06T02:02:12Z</time></trkpt>
<trkpt lat="29.994604" lon="101.884052">
<time>2015-08-06T02:02:13Z</time></trkpt>
<trkpt lat="29.994634" lon="101.883932">
<time>2015-08-06T02:02:14Z</time></trkpt>
<trkpt lat="29.994684" lon="101.883792">
<time>2015-08-06T02:02:15Z</time></trkpt>
<trkpt lat="29.994823" lon="101.883231">
<time>2015-08-06T02:02:16Z</time></trkpt>
<trkpt lat="29.994943" lon="101.882841">
<time>2015-08-06T02:02:17Z</time></trkpt>
<trkpt lat="29.994953" lon="101.88266">
<time>2015-08-06T02:02:18Z</time></trkpt>
<trkpt lat="29.994983" lon="101.8825">
<time>2015-08-06T02:02:19Z</time></trkpt>
<trkpt lat="29.995013" lon="101.88234">
<time>2015-08-06T02:02:20Z</time></trkpt>
<trkpt lat="29.995083" lon="101.88213">
<time>2015-08-06T02:02:21Z</time></trkpt>
<trkpt lat="29.995142" lon="101.88194">
<time>2015-08-06T02:02:22Z</time></trkpt>
<trkpt lat="29.995212" lon="101.881699">
<time>2015-08-06T02:02:23Z</time></trkpt>
<trkpt lat="29.995262" lon="101.881479">
<time>2015-08-06T02:02:24Z</time></trkpt>
<trkpt lat="29.995302" lon="101.881209">
<time>2015-08-06T02:02:25Z</time></trkpt>
<trkpt lat="29.995371" lon="101.880708">
<time>2015-08-06T02:02:26Z</time></trkpt>
<trkpt lat="29.995521" lon="101.879677">
<time>2015-08-06T02:02:27Z</time></trkpt>
<trkpt lat="29.99565" lon="101.878916">
<time>2015-08-06T02:02:28Z</time></trkpt>
<trkpt lat="29.99568" lon="101.878776">
<time>2015-08-06T02:02:29Z</time></trkpt>
<trkpt lat="29.99572" lon="101.878665">
<time>2015-08-06T02:02:30Z</time></trkpt>
<trkpt lat="29.99575" lon="101.878595">
<time>2015-08-06T02:02:31Z</time></trkpt>
<trkpt lat="29.9958" lon="101.878545">
<time>2015-08-06T02:02:32Z</time></trkpt>
<trkpt lat="29.99585" lon="101.878505">
<time>2015-08-06T02:02:33Z</time></trkpt>
<trkpt lat="29.9959" lon="101.878495">
<time>2015-08-06T02:02:34Z</time></trkpt>
<trkpt lat="29.99595" lon="101.878485">
<time>2015-08-06T02:02:35Z</time></trkpt>
<trkpt lat="29.996" lon="101.878495">
<time>2015-08-06T02:02:36Z</time></trkpt>
<trkpt lat="29.99605" lon="101.878505">
<time>2015-08-06T02:02:37Z</time></trkpt>
<trkpt lat="29.99609" lon="101.878535">
<time>2015-08-06T02:02:38Z</time></trkpt>
<trkpt lat="29.99613" lon="101.878575">
<time>2015-08-06T02:02:39Z</time></trkpt>
<trkpt lat="29.99617" lon="101.878625">
<time>2015-08-06T02:02:40Z</time></trkpt>
<trkpt lat="29.9962" lon="101.878695">
<time>2015-08-06T02:02:41Z</time></trkpt>
<trkpt lat="29.99621" lon="101.878776">
<time>2015-08-06T02:02:42Z</time></trkpt>
<trkpt lat="29.99622" lon="101.878856">
<time>2015-08-06T02:02:43Z</time></trkpt>
<trkpt lat="29.99625" lon="101.879356">
<time>2015-08-06T02:02:44Z</time></trkpt>
<trkpt lat="29.996241" lon="101.879747">
<time>2015-08-06T02:02:45Z</time></trkpt>
<trkpt lat="29.996281" lon="101.880217">
<time>2015-08-06T02:02:46Z</time></trkpt>
<trkpt lat="29.996291" lon="101.880638">
<time>2015-08-06T02:02:47Z</time></trkpt>
<trkpt lat="29.996292" lon="101.880948">
<time>2015-08-06T02:02:48Z</time></trkpt>
<trkpt lat="29.996312" lon="101.881038">
<time>2015-08-06T02:02:49Z</time></trkpt>
<trkpt lat="29.996352" lon="101.881098">
<time>2015-08-06T02:02:50Z</time></trkpt>
<trkpt lat="29.996402" lon="101.881159">
<time>2015-08-06T02:02:51Z</time></trkpt>
<trkpt lat="29.996462" lon="101.881159">
<time>2015-08-06T02:02:52Z</time></trkpt>
<trkpt lat="29.996522" lon="101.881129">
<time>2015-08-06T02:02:53Z</time></trkpt>
<trkpt lat="29.996562" lon="101.881078">
<time>2015-08-06T02:02:54Z</time></trkpt>
<trkpt lat="29.996592" lon="101.880988">
<time>2015-08-06T02:02:55Z</time></trkpt>
<trkpt lat="29.996612" lon="101.880838">
<time>2015-08-06T02:02:56Z</time></trkpt>
<trkpt lat="29.996591" lon="101.880688">
<time>2015-08-06T02:02:57Z</time></trkpt>
<trkpt lat="29.996601" lon="101.880488">
<time>2015-08-06T02:02:58Z</time></trkpt>
<trkpt lat="29.996641" lon="101.880007">
<time>2015-08-06T02:02:59Z</time></trkpt>
<trkpt lat="29.996721" lon="101.879637">
<time>2015-08-06T02:03:00Z</time></trkpt>
<trkpt lat="29.99679" lon="101.879406">
<time>2015-08-06T02:03:01Z</time></trkpt>
<trkpt lat="29.99684" lon="101.879266">
<time>2015-08-06T02:03:02Z</time></trkpt>
<trkpt lat="29.99687" lon="101.879126">
<time>2015-08-06T02:03:03Z</time></trkpt>
<trkpt lat="29.9969" lon="101.878976">
<time>2015-08-06T02:03:04Z</time></trkpt>
<trkpt lat="29.99692" lon="101.878776">
<time>2015-08-06T02:03:05Z</time></trkpt>
<trkpt lat="29.99695" lon="101.878455">
<time>2015-08-06T02:03:06Z</time></trkpt>
<trkpt lat="29.996979" lon="101.878175">
<time>2015-08-06T02:03:07Z</time></trkpt>
<trkpt lat="29.997029" lon="101.877884">
<time>2015-08-06T02:03:08Z</time></trkpt>
<trkpt lat="29.997109" lon="101.877594">
<time>2015-08-06T02:03:09Z</time></trkpt>
<trkpt lat="29.997219" lon="101.877283">
<time>2015-08-06T02:03:10Z</time></trkpt>
<trkpt lat="29.997298" lon="101.877043">
<time>2015-08-06T02:03:11Z</time></trkpt>
<trkpt lat="29.997408" lon="101.876733">
<time>2015-08-06T02:03:12Z</time></trkpt>
<trkpt lat="29.997468" lon="101.876653">
<time>2015-08-06T02:03:13Z</time></trkpt>
<trkpt lat="29.997548" lon="101.876593">
<time>2015-08-06T02:03:14Z</time></trkpt>
<trkpt lat="29.997618" lon="101.876593">
<time>2015-08-06T02:03:15Z</time></trkpt>
<trkpt lat="29.997688" lon="101.876633">
<time>2015-08-06T02:03:16Z</time></trkpt>
<trkpt lat="29.997728" lon="101.876703">
<time>2015-08-06T02:03:17Z</time></trkpt>
<trkpt lat="29.997748" lon="101.876813">
<time>2015-08-06T02:03:18Z</time></trkpt>
<trkpt lat="29.997718" lon="101.876923">
<time>2015-08-06T02:03:19Z</time></trkpt>
<trkpt lat="29.997668" lon="101.877043">
<time>2015-08-06T02:03:20Z</time></trkpt>
<trkpt lat="29.997608" lon="101.877193">
<time>2015-08-06T02:03:21Z</time></trkpt>
<trkpt lat="29.997489" lon="101.877484">
<time>2015-08-06T02:03:22Z</time></trkpt>
<trkpt lat="29.997379" lon="101.877754">
<time>2015-08-06T02:03:23Z</time></trkpt>
<trkpt lat="29.997319" lon="101.877964">
<time>2015-08-06T02:03:24Z</time></trkpt>
<trkpt lat="29.997309" lon="101.878065">
<time>2015-08-06T02:03:25Z</time></trkpt>
<trkpt lat="29.997329" lon="101.878135">
<time>2015-08-06T02:03:26Z</time></trkpt>
<trkpt lat="29.997379" lon="101.878215">
<time>2015-08-06T02:03:27Z</time></trkpt>
<trkpt lat="29.997449" lon="101.878255">
<time>2015-08-06T02:03:28Z</time></trkpt>
<trkpt lat="29.997519" lon="101.878255">
<time>2015-08-06T02:03:29Z</time></trkpt>
<trkpt lat="29.997589" lon="101.878225">
<time>2015-08-06T02:03:30Z</time></trkpt>
<trkpt lat="29.997649" lon="101.878145">
<time>2015-08-06T02:03:31Z</time></trkpt>
<trkpt lat="29.997699" lon="101.878045">
<time>2015-08-06T02:03:32Z</time></trkpt>
<trkpt lat="29.997729" lon="101.877934">
<time>2015-08-06T02:03:33Z</time></trkpt>
<trkpt lat="29.997779" lon="101.877714">
<time>2015-08-06T02:03:34Z</time></trkpt>
<trkpt lat="29.997829" lon="101.877494">
<time>2015-08-06T02:03:35Z</time></trkpt>
<trkpt lat="29.997889" lon="101.877283">
<time>2015-08-06T02:03:36Z</time></trkpt>
<trkpt lat="29.998028" lon="101.876913">
<time>2015-08-06T02:03:37Z</time></trkpt>
<trkpt lat="29.998198" lon="101.876562">
<time>2015-08-06T02:03:38Z</time></trkpt>
<trkpt lat="29.998397" lon="101.876192">
<time>2015-08-06T02:03:39Z</time></trkpt>
<trkpt lat="29.998547" lon="101.875972">
<time>2015-08-06T02:03:40Z</time></trkpt>
<trkpt lat="29.998717" lon="101.875751">
<time>2015-08-06T02:03:41Z</time></trkpt>
<trkpt lat="29.998897" lon="101.875521">
<time>2015-08-06T02:03:42Z</time></trkpt>
<trkpt lat="29.999097" lon="101.8752">
<time>2015-08-06T02:03:43Z</time></trkpt>
<trkpt lat="29.999216" lon="101.87502">
<time>2015-08-06T02:03:44Z</time></trkpt>
<trkpt lat="29.999356" lon="101.87477">
<time>2015-08-06T02:03:45Z</time></trkpt>
<trkpt lat="29.999486" lon="101.87456">
<time>2015-08-06T02:03:46Z</time></trkpt>
<trkpt lat="29.999556" lon="101.874469">
<time>2015-08-06T02:03:47Z</time></trkpt>
<trkpt lat="29.999636" lon="101.874379">
<time>2015-08-06T02:03:48Z</time></trkpt>
<trkpt lat="29.999716" lon="101.874309">
<time>2015-08-06T02:03:49Z</time></trkpt>
<trkpt lat="29.999796" lon="101.874249">
<time>2015-08-06T02:03:50Z</time></trkpt>
<trkpt lat="29.999915" lon="101.874179">
<time>2015-08-06T02:03:51Z</time></trkpt>
<trkpt lat="30.000015" lon="101.874119">
<time>2015-08-06T02:03:52Z</time></trkpt>
<trkpt lat="30.000205" lon="101.874009">
<time>2015-08-06T02:03:53Z</time></trkpt>
<trkpt lat="30.000285" lon="101.873959">
<time>2015-08-06T02:03:54Z</time></trkpt>
<trkpt lat="30.000345" lon="101.873899">
<time>2015-08-06T02:03:55Z</time></trkpt>
<trkpt lat="30.000655" lon="101.873548">
<time>2015-08-06T02:03:56Z</time></trkpt>
<trkpt lat="30.000955" lon="101.873237">
<time>2015-08-06T02:03:57Z</time></trkpt>
<trkpt lat="30.001204" lon="101.872887">
<time>2015-08-06T02:03:58Z</time></trkpt>
<trkpt lat="30.001663" lon="101.872226">
<time>2015-08-06T02:03:59Z</time></trkpt>
<trkpt lat="30.001813" lon="101.871986">
<time>2015-08-06T02:04:00Z</time></trkpt>
<trkpt lat="30.001893" lon="101.871865">
<time>2015-08-06T02:04:01Z</time></trkpt>
<trkpt lat="30.001933" lon="101.871815">
<time>2015-08-06T02:04:02Z</time></trkpt>
<trkpt lat="30.001963" lon="101.871775">
<time>2015-08-06T02:04:03Z</time></trkpt>
<trkpt lat="30.002013" lon="101.871725">
<time>2015-08-06T02:04:05Z</time></trkpt>
<trkpt lat="30.002053" lon="101.871685">
<time>2015-08-06T02:04:06Z</time></trkpt>
<trkpt lat="30.002343" lon="101.871475">
<time>2015-08-06T02:04:07Z</time></trkpt>
<trkpt lat="30.002612" lon="101.871254">
<time>2015-08-06T02:04:08Z</time></trkpt>
<trkpt lat="30.002892" lon="101.871014">
<time>2015-08-06T02:04:09Z</time></trkpt>
<trkpt lat="30.003252" lon="101.870653">
<time>2015-08-06T02:04:10Z</time></trkpt>
<trkpt lat="30.003621" lon="101.870283">
<time>2015-08-06T02:04:11Z</time></trkpt>
<trkpt lat="30.004041" lon="101.869842">
<time>2015-08-06T02:04:12Z</time></trkpt>
<trkpt lat="30.00464" lon="101.869161">
<time>2015-08-06T02:04:13Z</time></trkpt>
<trkpt lat="30.00488" lon="101.86893">
<time>2015-08-06T02:04:14Z</time></trkpt>
<trkpt lat="30.005409" lon="101.86851">
<time>2015-08-06T02:04:15Z</time></trkpt>
<trkpt lat="30.006158" lon="101.867919">
<time>2015-08-06T02:04:16Z</time></trkpt>
<trkpt lat="30.006508" lon="101.867688">
<time>2015-08-06T02:04:17Z</time></trkpt>
<trkpt lat="30.006608" lon="101.867628">
<time>2015-08-06T02:04:18Z</time></trkpt>
<trkpt lat="30.006738" lon="101.867568">
<time>2015-08-06T02:04:19Z</time></trkpt>
<trkpt lat="30.006968" lon="101.867488">
<time>2015-08-06T02:04:20Z</time></trkpt>
<trkpt lat="30.007118" lon="101.867428">
<time>2015-08-06T02:04:21Z</time></trkpt>
<trkpt lat="30.007268" lon="101.867348">
<time>2015-08-06T02:04:22Z</time></trkpt>
<trkpt lat="30.007448" lon="101.867237">
<time>2015-08-06T02:04:23Z</time></trkpt>
<trkpt lat="30.007657" lon="101.867077">
<time>2015-08-06T02:04:24Z</time></trkpt>
<trkpt lat="30.008077" lon="101.866767">
<time>2015-08-06T02:04:25Z</time></trkpt>
<trkpt lat="30.008217" lon="101.866676">
<time>2015-08-06T02:04:26Z</time></trkpt>
<trkpt lat="30.008327" lon="101.866616">
<time>2015-08-06T02:04:27Z</time></trkpt>
<trkpt lat="30.008497" lon="101.866546">
<time>2015-08-06T02:04:28Z</time></trkpt>
<trkpt lat="30.008617" lon="101.866486">
<time>2015-08-06T02:04:29Z</time></trkpt>
<trkpt lat="30.008697" lon="101.866436">
<time>2015-08-06T02:04:30Z</time></trkpt>
<trkpt lat="30.008826" lon="101.866346">
<time>2015-08-06T02:04:31Z</time></trkpt>
<trkpt lat="30.009156" lon="101.866095">
<time>2015-08-06T02:04:32Z</time></trkpt>
<trkpt lat="30.009396" lon="101.865915">
<time>2015-08-06T02:04:33Z</time></trkpt>
<trkpt lat="30.009606" lon="101.865795">
<time>2015-08-06T02:04:34Z</time></trkpt>
<trkpt lat="30.009886" lon="101.865644">
<time>2015-08-06T02:04:35Z</time></trkpt>
<trkpt lat="30.010175" lon="101.865494">
<time>2015-08-06T02:04:36Z</time></trkpt>
<trkpt lat="30.010325" lon="101.865404">
<time>2015-08-06T02:04:37Z</time></trkpt>
<trkpt lat="30.010785" lon="101.865103">
<time>2015-08-06T02:04:38Z</time></trkpt>
<trkpt lat="30.011045" lon="101.864913">
<time>2015-08-06T02:04:39Z</time></trkpt>
<trkpt lat="30.011174" lon="101.864823">
<time>2015-08-06T02:04:40Z</time></trkpt>
<trkpt lat="30.011234" lon="101.864763">
<time>2015-08-06T02:04:41Z</time></trkpt>
<trkpt lat="30.011294" lon="101.864703">
<time>2015-08-06T02:04:42Z</time></trkpt>
<trkpt lat="30.011354" lon="101.864613">
<time>2015-08-06T02:04:43Z</time></trkpt>
<trkpt lat="30.011404" lon="101.864542">
<time>2015-08-06T02:04:44Z</time></trkpt>
<trkpt lat="30.011494" lon="101.864322">
<time>2015-08-06T02:04:45Z</time></trkpt>
<trkpt lat="30.011594" lon="101.864122">
<time>2015-08-06T02:04:46Z</time></trkpt>
<trkpt lat="30.011813" lon="101.863751">
<time>2015-08-06T02:04:47Z</time></trkpt>
<trkpt lat="30.012192" lon="101.86321">
<time>2015-08-06T02:04:48Z</time></trkpt>
<trkpt lat="30.012292" lon="101.862939">
<time>2015-08-06T02:04:49Z</time></trkpt>
<trkpt lat="30.012471" lon="101.862539">
<time>2015-08-06T02:04:50Z</time></trkpt>
<trkpt lat="30.012591" lon="101.862248">
<time>2015-08-06T02:04:51Z</time></trkpt>
<trkpt lat="30.01278" lon="101.861757">
<time>2015-08-06T02:04:52Z</time></trkpt>
<trkpt lat="30.01281" lon="101.861717">
<time>2015-08-06T02:04:53Z</time></trkpt>
<trkpt lat="30.01284" lon="101.861687">
<time>2015-08-06T02:04:54Z</time></trkpt>
<trkpt lat="30.01289" lon="101.861667">
<time>2015-08-06T02:04:55Z</time></trkpt>
<trkpt lat="30.01294" lon="101.861657">
<time>2015-08-06T02:04:56Z</time></trkpt>
<trkpt lat="30.013" lon="101.861667">
<time>2015-08-06T02:04:57Z</time></trkpt>
<trkpt lat="30.01306" lon="101.861697">
<time>2015-08-06T02:04:58Z</time></trkpt>
<trkpt lat="30.01309" lon="101.861747">
<time>2015-08-06T02:04:59Z</time></trkpt>
<trkpt lat="30.01311" lon="101.861807">
<time>2015-08-06T02:05:00Z</time></trkpt>
<trkpt lat="30.013131" lon="101.861887">
<time>2015-08-06T02:05:01Z</time></trkpt>
<trkpt lat="30.013121" lon="101.861968">
<time>2015-08-06T02:05:02Z</time></trkpt>
<trkpt lat="30.012942" lon="101.862799">
<time>2015-08-06T02:05:03Z</time></trkpt>
<trkpt lat="30.012802" lon="101.86332">
<time>2015-08-06T02:05:04Z</time></trkpt>
<trkpt lat="30.012703" lon="101.863651">
<time>2015-08-06T02:05:05Z</time></trkpt>
<trkpt lat="30.012543" lon="101.863931">
<time>2015-08-06T02:05:06Z</time></trkpt>
<trkpt lat="30.012434" lon="101.864082">
<time>2015-08-06T02:05:07Z</time></trkpt>
<trkpt lat="30.012264" lon="101.864392">
<time>2015-08-06T02:05:08Z</time></trkpt>
<trkpt lat="30.012214" lon="101.864512">
<time>2015-08-06T02:05:09Z</time></trkpt>
<trkpt lat="30.012204" lon="101.864562">
<time>2015-08-06T02:05:10Z</time></trkpt>
<trkpt lat="30.012214" lon="101.864653">
<time>2015-08-06T02:05:11Z</time></trkpt>
<trkpt lat="30.012244" lon="101.864703">
<time>2015-08-06T02:05:12Z</time></trkpt>
<trkpt lat="30.012284" lon="101.864733">
<time>2015-08-06T02:05:13Z</time></trkpt>
<trkpt lat="30.012334" lon="101.864763">
<time>2015-08-06T02:05:14Z</time></trkpt>
<trkpt lat="30.012394" lon="101.864753">
<time>2015-08-06T02:05:15Z</time></trkpt>
<trkpt lat="30.012454" lon="101.864733">
<time>2015-08-06T02:05:16Z</time></trkpt>
<trkpt lat="30.012504" lon="101.864703">
<time>2015-08-06T02:05:17Z</time></trkpt>
<trkpt lat="30.012554" lon="101.864633">
<time>2015-08-06T02:05:18Z</time></trkpt>
<trkpt lat="30.012614" lon="101.864582">
<time>2015-08-06T02:05:19Z</time></trkpt>
<trkpt lat="30.013093" lon="101.863881">
<time>2015-08-06T02:05:20Z</time></trkpt>
<trkpt lat="30.013273" lon="101.863601">
<time>2015-08-06T02:05:21Z</time></trkpt>
<trkpt lat="30.013313" lon="101.863541">
<time>2015-08-06T02:05:22Z</time></trkpt>
<trkpt lat="30.013343" lon="101.8635">
<time>2015-08-06T02:05:23Z</time></trkpt>
<trkpt lat="30.013393" lon="101.86341">
<time>2015-08-06T02:05:24Z</time></trkpt>
<trkpt lat="30.013851" lon="101.862499">
<time>2015-08-06T02:05:25Z</time></trkpt>
<trkpt lat="30.0142" lon="101.861847">
<time>2015-08-06T02:05:26Z</time></trkpt>
<trkpt lat="30.01445" lon="101.861346">
<time>2015-08-06T02:05:27Z</time></trkpt>
<trkpt lat="30.014579" lon="101.861076">
<time>2015-08-06T02:05:28Z</time></trkpt>
<trkpt lat="30.014639" lon="101.860936">
<time>2015-08-06T02:05:29Z</time></trkpt>
<trkpt lat="30.014669" lon="101.860835">
<time>2015-08-06T02:05:30Z</time></trkpt>
<trkpt lat="30.014699" lon="101.860725">
<time>2015-08-06T02:05:31Z</time></trkpt>
<trkpt lat="30.014937" lon="101.859753">
<time>2015-08-06T02:05:32Z</time></trkpt>
<trkpt lat="30.014997" lon="101.859573">
<time>2015-08-06T02:05:33Z</time></trkpt>
<trkpt lat="30.015057" lon="101.859332">
<time>2015-08-06T02:05:34Z</time></trkpt>
<trkpt lat="30.015097" lon="101.859202">
<time>2015-08-06T02:05:35Z</time></trkpt>
<trkpt lat="30.015117" lon="101.859142">
<time>2015-08-06T02:05:36Z</time></trkpt>
<trkpt lat="30.015127" lon="101.859122">
<time>2015-08-06T02:05:37Z</time></trkpt>
<trkpt lat="30.015147" lon="101.859102">
<time>2015-08-06T02:05:38Z</time></trkpt>
<trkpt lat="30.015166" lon="101.859072">
<time>2015-08-06T02:05:39Z</time></trkpt>
<trkpt lat="30.015186" lon="101.859062">
<time>2015-08-06T02:05:40Z</time></trkpt>
<trkpt lat="30.015206" lon="101.859042">
<time>2015-08-06T02:05:41Z</time></trkpt>
<trkpt lat="30.015236" lon="101.859032">
<time>2015-08-06T02:05:42Z</time></trkpt>
<trkpt lat="30.015256" lon="101.859032">
<time>2015-08-06T02:05:43Z</time></trkpt>
<trkpt lat="30.015276" lon="101.859042">
<time>2015-08-06T02:05:44Z</time></trkpt>
<trkpt lat="30.015296" lon="101.859052">
<time>2015-08-06T02:05:45Z</time></trkpt>
<trkpt lat="30.015316" lon="101.859062">
<time>2015-08-06T02:05:46Z</time></trkpt>
<trkpt lat="30.015336" lon="101.859082">
<time>2015-08-06T02:05:47Z</time></trkpt>
<trkpt lat="30.015357" lon="101.859112">
<time>2015-08-06T02:05:48Z</time></trkpt>
<trkpt lat="30.015367" lon="101.859132">
<time>2015-08-06T02:05:49Z</time></trkpt>
<trkpt lat="30.015367" lon="101.859152">
<time>2015-08-06T02:05:50Z</time></trkpt>
<trkpt lat="30.015377" lon="101.859182">
<time>2015-08-06T02:05:51Z</time></trkpt>
<trkpt lat="30.015387" lon="101.859232">
<time>2015-08-06T02:05:52Z</time></trkpt>
<trkpt lat="30.015377" lon="101.859603">
<time>2015-08-06T02:05:53Z</time></trkpt>
<trkpt lat="30.015368" lon="101.860144">
<time>2015-08-06T02:05:54Z</time></trkpt>
<trkpt lat="30.015299" lon="101.861166">
<time>2015-08-06T02:05:55Z</time></trkpt>
<trkpt lat="30.0153" lon="101.861226">
<time>2015-08-06T02:05:56Z</time></trkpt>
<trkpt lat="30.0153" lon="101.861266">
<time>2015-08-06T02:05:57Z</time></trkpt>
<trkpt lat="30.01531" lon="101.861286">
<time>2015-08-06T02:05:58Z</time></trkpt>
<trkpt lat="30.01533" lon="101.861316">
<time>2015-08-06T02:05:59Z</time></trkpt>
<trkpt lat="30.01535" lon="101.861336">
<time>2015-08-06T02:06:00Z</time></trkpt>
<trkpt lat="30.01538" lon="101.861336">
<time>2015-08-06T02:06:01Z</time></trkpt>
<trkpt lat="30.0154" lon="101.861336">
<time>2015-08-06T02:06:02Z</time></trkpt>
<trkpt lat="30.01542" lon="101.861336">
<time>2015-08-06T02:06:03Z</time></trkpt>
<trkpt lat="30.01544" lon="101.861326">
<time>2015-08-06T02:06:04Z</time></trkpt>
<trkpt lat="30.01546" lon="101.861306">
<time>2015-08-06T02:06:05Z</time></trkpt>
<trkpt lat="30.01547" lon="101.861296">
<time>2015-08-06T02:06:06Z</time></trkpt>
<trkpt lat="30.01548" lon="101.861276">
<time>2015-08-06T02:06:07Z</time></trkpt>
<trkpt lat="30.0155" lon="101.861246">
<time>2015-08-06T02:06:08Z</time></trkpt>
<trkpt lat="30.01552" lon="101.861186">
<time>2015-08-06T02:06:09Z</time></trkpt>
<trkpt lat="30.015808" lon="101.860414">
<time>2015-08-06T02:06:10Z</time></trkpt>
<trkpt lat="30.015938" lon="101.860064">
<time>2015-08-06T02:06:11Z</time></trkpt>
<trkpt lat="30.016107" lon="101.859633">
<time>2015-08-06T02:06:12Z</time></trkpt>
<trkpt lat="30.016287" lon="101.859392">
<time>2015-08-06T02:06:13Z</time></trkpt>
<trkpt lat="30.016397" lon="101.859242">
<time>2015-08-06T02:06:14Z</time></trkpt>
<trkpt lat="30.016477" lon="101.859162">
<time>2015-08-06T02:06:15Z</time></trkpt>
<trkpt lat="30.016556" lon="101.859082">
<time>2015-08-06T02:06:16Z</time></trkpt>
<trkpt lat="30.016626" lon="101.859012">
<time>2015-08-06T02:06:17Z</time></trkpt>
<trkpt lat="30.016696" lon="101.858952">
<time>2015-08-06T02:06:18Z</time></trkpt>
<trkpt lat="30.016776" lon="101.858901">
<time>2015-08-06T02:06:19Z</time></trkpt>
<trkpt lat="30.016856" lon="101.858851">
<time>2015-08-06T02:06:20Z</time></trkpt>
<trkpt lat="30.016936" lon="101.858811">
<time>2015-08-06T02:06:21Z</time></trkpt>
<trkpt lat="30.017016" lon="101.858771">
<time>2015-08-06T02:06:22Z</time></trkpt>
<trkpt lat="30.017156" lon="101.858721">
<time>2015-08-06T02:06:23Z</time></trkpt>
<trkpt lat="30.017326" lon="101.858641">
<time>2015-08-06T02:06:24Z</time></trkpt>
<trkpt lat="30.017396" lon="101.858611">
<time>2015-08-06T02:06:25Z</time></trkpt>
<trkpt lat="30.017466" lon="101.858561">
<time>2015-08-06T02:06:26Z</time></trkpt>
<trkpt lat="30.017526" lon="101.858521">
<time>2015-08-06T02:06:27Z</time></trkpt>
<trkpt lat="30.017606" lon="101.85844">
<time>2015-08-06T02:06:28Z</time></trkpt>
<trkpt lat="30.017905" lon="101.85809">
<time>2015-08-06T02:06:29Z</time></trkpt>
<trkpt lat="30.018115" lon="101.857829">
<time>2015-08-06T02:06:30Z</time></trkpt>
<trkpt lat="30.018234" lon="101.857649">
<time>2015-08-06T02:06:31Z</time></trkpt>
<trkpt lat="30.018344" lon="101.857509">
<time>2015-08-06T02:06:32Z</time></trkpt>
<trkpt lat="30.018404" lon="101.857448">
<time>2015-08-06T02:06:33Z</time></trkpt>
<trkpt lat="30.018454" lon="101.857408">
<time>2015-08-06T02:06:34Z</time></trkpt>
<trkpt lat="30.018494" lon="101.857378">
<time>2015-08-06T02:06:35Z</time></trkpt>
<trkpt lat="30.018544" lon="101.857358">
<time>2015-08-06T02:06:36Z</time></trkpt>
<trkpt lat="30.018594" lon="101.857328">
<time>2015-08-06T02:06:37Z</time></trkpt>
<trkpt lat="30.018714" lon="101.857268">
<time>2015-08-06T02:06:38Z</time></trkpt>
<trkpt lat="30.019004" lon="101.857128">
<time>2015-08-06T02:06:39Z</time></trkpt>
<trkpt lat="30.019283" lon="101.857007">
<time>2015-08-06T02:06:40Z</time></trkpt>
<trkpt lat="30.019483" lon="101.856917">
<time>2015-08-06T02:06:41Z</time></trkpt>
<trkpt lat="30.019673" lon="101.856837">
<time>2015-08-06T02:06:42Z</time></trkpt>
<trkpt lat="30.019843" lon="101.856757">
<time>2015-08-06T02:06:43Z</time></trkpt>
<trkpt lat="30.020093" lon="101.856657">
<time>2015-08-06T02:06:44Z</time></trkpt>
<trkpt lat="30.020323" lon="101.856597">
<time>2015-08-06T02:06:45Z</time></trkpt>
<trkpt lat="30.020563" lon="101.856526">
<time>2015-08-06T02:06:46Z</time></trkpt>
<trkpt lat="30.020853" lon="101.856456">
<time>2015-08-06T02:06:47Z</time></trkpt>
<trkpt lat="30.021003" lon="101.856436">
<time>2015-08-06T02:06:48Z</time></trkpt>
<trkpt lat="30.021102" lon="101.856406">
<time>2015-08-06T02:06:49Z</time></trkpt>
<trkpt lat="30.021152" lon="101.856396">
<time>2015-08-06T02:06:50Z</time></trkpt>
<trkpt lat="30.021202" lon="101.856376">
<time>2015-08-06T02:06:51Z</time></trkpt>
<trkpt lat="30.021272" lon="101.856346">
<time>2015-08-06T02:06:52Z</time></trkpt>
<trkpt lat="30.021322" lon="101.856316">
<time>2015-08-06T02:06:53Z</time></trkpt>
<trkpt lat="30.021372" lon="101.856286">
<time>2015-08-06T02:06:54Z</time></trkpt>
<trkpt lat="30.021672" lon="101.856065">
<time>2015-08-06T02:06:55Z</time></trkpt>
<trkpt lat="30.021752" lon="101.856015">
<time>2015-08-06T02:06:56Z</time></trkpt>
<trkpt lat="30.021822" lon="101.855985">
<time>2015-08-06T02:06:57Z</time></trkpt>
<trkpt lat="30.021862" lon="101.855965">
<time>2015-08-06T02:06:58Z</time></trkpt>
<trkpt lat="30.021912" lon="101.855955">
<time>2015-08-06T02:06:59Z</time></trkpt>
<trkpt lat="30.021942" lon="101.855945">
<time>2015-08-06T02:07:00Z</time></trkpt>
<trkpt lat="30.021992" lon="101.855935">
<time>2015-08-06T02:07:01Z</time></trkpt>
<trkpt lat="30.022082" lon="101.855935">
<time>2015-08-06T02:07:02Z</time></trkpt>
<trkpt lat="30.022392" lon="101.855945">
<time>2015-08-06T02:07:03Z</time></trkpt>
<trkpt lat="30.022652" lon="101.855945">
<time>2015-08-06T02:07:04Z</time></trkpt>
<trkpt lat="30.022822" lon="101.855945">
<time>2015-08-06T02:07:05Z</time></trkpt>
<trkpt lat="30.022982" lon="101.855935">
<time>2015-08-06T02:07:06Z</time></trkpt>
<trkpt lat="30.023622" lon="101.855845">
<time>2015-08-06T02:07:07Z</time></trkpt>
<trkpt lat="30.024141" lon="101.855745">
<time>2015-08-06T02:07:08Z</time></trkpt>
<trkpt lat="30.024331" lon="101.855705">
<time>2015-08-06T02:07:09Z</time></trkpt>
<trkpt lat="30.024461" lon="101.855685">
<time>2015-08-06T02:07:10Z</time></trkpt>
<trkpt lat="30.024601" lon="101.855644">
<time>2015-08-06T02:07:11Z</time></trkpt>
<trkpt lat="30.024691" lon="101.855624">
<time>2015-08-06T02:07:12Z</time></trkpt>
<trkpt lat="30.024881" lon="101.855544">
<time>2015-08-06T02:07:13Z</time></trkpt>
<trkpt lat="30.025011" lon="101.855474">
<time>2015-08-06T02:07:14Z</time></trkpt>
<trkpt lat="30.025171" lon="101.855394">
<time>2015-08-06T02:07:15Z</time></trkpt>
<trkpt lat="30.025321" lon="101.855324">
<time>2015-08-06T02:07:16Z</time></trkpt>
<trkpt lat="30.025411" lon="101.855274">
<time>2015-08-06T02:07:17Z</time></trkpt>
<trkpt lat="30.025531" lon="101.855224">
<time>2015-08-06T02:07:18Z</time></trkpt>
<trkpt lat="30.025701" lon="101.855173">
<time>2015-08-06T02:07:19Z</time></trkpt>
<trkpt lat="30.025871" lon="101.855123">
<time>2015-08-06T02:07:20Z</time></trkpt>
<trkpt lat="30.02599" lon="101.855083">
<time>2015-08-06T02:07:21Z</time></trkpt>
<trkpt lat="30.02606" lon="101.855043">
<time>2015-08-06T02:07:22Z</time></trkpt>
<trkpt lat="30.02612" lon="101.855013">
<time>2015-08-06T02:07:23Z</time></trkpt>
<trkpt lat="30.02621" lon="101.854953">
<time>2015-08-06T02:07:24Z</time></trkpt>
<trkpt lat="30.02666" lon="101.854642">
<time>2015-08-06T02:07:25Z</time></trkpt>
<trkpt lat="30.02676" lon="101.854572">
<time>2015-08-06T02:07:26Z</time></trkpt>
<trkpt lat="30.02683" lon="101.854512">
<time>2015-08-06T02:07:27Z</time></trkpt>
<trkpt lat="30.02687" lon="101.854472">
<time>2015-08-06T02:07:28Z</time></trkpt>
<trkpt lat="30.026919" lon="101.854402">
<time>2015-08-06T02:07:29Z</time></trkpt>
<trkpt lat="30.026949" lon="101.854352">
<time>2015-08-06T02:07:30Z</time></trkpt>
<trkpt lat="30.026979" lon="101.854302">
<time>2015-08-06T02:07:31Z</time></trkpt>
<trkpt lat="30.027009" lon="101.854231">
<time>2015-08-06T02:07:32Z</time></trkpt>
<trkpt lat="30.027039" lon="101.854141">
<time>2015-08-06T02:07:33Z</time></trkpt>
<trkpt lat="30.027099" lon="101.853901">
<time>2015-08-06T02:07:34Z</time></trkpt>
<trkpt lat="30.027188" lon="101.85349">
<time>2015-08-06T02:07:35Z</time></trkpt>
<trkpt lat="30.027267" lon="101.853089">
<time>2015-08-06T02:07:36Z</time></trkpt>
<trkpt lat="30.027337" lon="101.852818">
<time>2015-08-06T02:07:37Z</time></trkpt>
<trkpt lat="30.027357" lon="101.852718">
<time>2015-08-06T02:07:38Z</time></trkpt>
<trkpt lat="30.027406" lon="101.852548">
<time>2015-08-06T02:07:39Z</time></trkpt>
<trkpt lat="30.027446" lon="101.852448">
<time>2015-08-06T02:07:40Z</time></trkpt>
<trkpt lat="30.027496" lon="101.852347">
<time>2015-08-06T02:07:41Z</time></trkpt>
<trkpt lat="30.027596" lon="101.852127">
<time>2015-08-06T02:07:42Z</time></trkpt>
<trkpt lat="30.027725" lon="101.851896">
<time>2015-08-06T02:07:43Z</time></trkpt>
<trkpt lat="30.027885" lon="101.851646">
<time>2015-08-06T02:07:44Z</time></trkpt>
<trkpt lat="30.028095" lon="101.851385">
<time>2015-08-06T02:07:45Z</time></trkpt>
<trkpt lat="30.028244" lon="101.851205">
<time>2015-08-06T02:07:46Z</time></trkpt>
<trkpt lat="30.028344" lon="101.851105">
<time>2015-08-06T02:07:47Z</time></trkpt>
<trkpt lat="30.028384" lon="101.851075">
<time>2015-08-06T02:07:48Z</time></trkpt>
<trkpt lat="30.028414" lon="101.851055">
<time>2015-08-06T02:07:49Z</time></trkpt>
<trkpt lat="30.028484" lon="101.851014">
<time>2015-08-06T02:07:50Z</time></trkpt>
<trkpt lat="30.028524" lon="101.850994">
<time>2015-08-06T02:07:51Z</time></trkpt>
<trkpt lat="30.028564" lon="101.850984">
<time>2015-08-06T02:07:52Z</time></trkpt>
<trkpt lat="30.028614" lon="101.850964">
<time>2015-08-06T02:07:53Z</time></trkpt>
<trkpt lat="30.028674" lon="101.850944">
<time>2015-08-06T02:07:54Z</time></trkpt>
<trkpt lat="30.029214" lon="101.850824">
<time>2015-08-06T02:07:55Z</time></trkpt>
<trkpt lat="30.029843" lon="101.850714">
<time>2015-08-06T02:07:56Z</time></trkpt>
<trkpt lat="30.030383" lon="101.850613">
<time>2015-08-06T02:07:57Z</time></trkpt>
<trkpt lat="30.030923" lon="101.850513">
<time>2015-08-06T02:07:58Z</time></trkpt>
<trkpt lat="30.031013" lon="101.850493">
<time>2015-08-06T02:07:59Z</time></trkpt>
<trkpt lat="30.031083" lon="101.850473">
<time>2015-08-06T02:08:00Z</time></trkpt>
<trkpt lat="30.031143" lon="101.850443">
<time>2015-08-06T02:08:01Z</time></trkpt>
<trkpt lat="30.031193" lon="101.850423">
<time>2015-08-06T02:08:02Z</time></trkpt>
<trkpt lat="30.031263" lon="101.850373">
<time>2015-08-06T02:08:03Z</time></trkpt>
<trkpt lat="30.031313" lon="101.850333">
<time>2015-08-06T02:08:04Z</time></trkpt>
<trkpt lat="30.031343" lon="101.850293">
<time>2015-08-06T02:08:05Z</time></trkpt>
<trkpt lat="30.031393" lon="101.850243">
<time>2015-08-06T02:08:06Z</time></trkpt>
<trkpt lat="30.031433" lon="101.850193">
<time>2015-08-06T02:08:07Z</time></trkpt>
<trkpt lat="30.031463" lon="101.850152">
<time>2015-08-06T02:08:08Z</time></trkpt>
<trkpt lat="30.031512" lon="101.850072">
<time>2015-08-06T02:08:09Z</time></trkpt>
<trkpt lat="30.031552" lon="101.850002">
<time>2015-08-06T02:08:10Z</time></trkpt>
<trkpt lat="30.031692" lon="101.849671">
<time>2015-08-06T02:08:11Z</time></trkpt>
<trkpt lat="30.031851" lon="101.849301">
<time>2015-08-06T02:08:12Z</time></trkpt>
<trkpt lat="30.031921" lon="101.84911">
<time>2015-08-06T02:08:13Z</time></trkpt>
<trkpt lat="30.031951" lon="101.84902">
<time>2015-08-06T02:08:14Z</time></trkpt>
<trkpt lat="30.03197" lon="101.84893">
<time>2015-08-06T02:08:15Z</time></trkpt>
<trkpt lat="30.03199" lon="101.848829">
<time>2015-08-06T02:08:16Z</time></trkpt>
<trkpt lat="30.03201" lon="101.848749">
<time>2015-08-06T02:08:17Z</time></trkpt>
<trkpt lat="30.03203" lon="101.848599">
<time>2015-08-06T02:08:18Z</time></trkpt>
<trkpt lat="30.032059" lon="101.848328">
<time>2015-08-06T02:08:19Z</time></trkpt>
<trkpt lat="30.032079" lon="101.848238">
<time>2015-08-06T02:08:20Z</time></trkpt>
<trkpt lat="30.032119" lon="101.848118">
<time>2015-08-06T02:08:21Z</time></trkpt>
<trkpt lat="30.032149" lon="101.848038">
<time>2015-08-06T02:08:22Z</time></trkpt>
<trkpt lat="30.032219" lon="101.847887">
<time>2015-08-06T02:08:23Z</time></trkpt>
<trkpt lat="30.032398" lon="101.847547">
<time>2015-08-06T02:08:24Z</time></trkpt>
<trkpt lat="30.032508" lon="101.847316">
<time>2015-08-06T02:08:25Z</time></trkpt>
<trkpt lat="30.032637" lon="101.847106">
<time>2015-08-06T02:08:26Z</time></trkpt>
<trkpt lat="30.032727" lon="101.846985">
<time>2015-08-06T02:08:27Z</time></trkpt>
<trkpt lat="30.032827" lon="101.846865">
<time>2015-08-06T02:08:28Z</time></trkpt>
<trkpt lat="30.032957" lon="101.846715">
<time>2015-08-06T02:08:29Z</time></trkpt>
<trkpt lat="30.033136" lon="101.846524">
<time>2015-08-06T02:08:30Z</time></trkpt>
<trkpt lat="30.033536" lon="101.846183">
<time>2015-08-06T02:08:31Z</time></trkpt>
<trkpt lat="30.033775" lon="101.845973">
<time>2015-08-06T02:08:32Z</time></trkpt>
<trkpt lat="30.033875" lon="101.845873">
<time>2015-08-06T02:08:33Z</time></trkpt>
<trkpt lat="30.033985" lon="101.845742">
<time>2015-08-06T02:08:34Z</time></trkpt>
<trkpt lat="30.034075" lon="101.845622">
<time>2015-08-06T02:08:35Z</time></trkpt>
<trkpt lat="30.034214" lon="101.845402">
<time>2015-08-06T02:08:36Z</time></trkpt>
<trkpt lat="30.034314" lon="101.845241">
<time>2015-08-06T02:08:37Z</time></trkpt>
<trkpt lat="30.034354" lon="101.845181">
<time>2015-08-06T02:08:38Z</time></trkpt>
<trkpt lat="30.034394" lon="101.845141">
<time>2015-08-06T02:08:39Z</time></trkpt>
<trkpt lat="30.034434" lon="101.845091">
<time>2015-08-06T02:08:40Z</time></trkpt>
<trkpt lat="30.034484" lon="101.845061">
<time>2015-08-06T02:08:41Z</time></trkpt>
<trkpt lat="30.034654" lon="101.844931">
<time>2015-08-06T02:08:42Z</time></trkpt>
<trkpt lat="30.034774" lon="101.84486">
<time>2015-08-06T02:08:43Z</time></trkpt>
<trkpt lat="30.034863" lon="101.84479">
<time>2015-08-06T02:08:44Z</time></trkpt>
<trkpt lat="30.034943" lon="101.84472">
<time>2015-08-06T02:08:45Z</time></trkpt>
<trkpt lat="30.035013" lon="101.84465">
<time>2015-08-06T02:08:46Z</time></trkpt>
<trkpt lat="30.035063" lon="101.84457">
<time>2015-08-06T02:08:47Z</time></trkpt>
<trkpt lat="30.035123" lon="101.844499">
<time>2015-08-06T02:08:48Z</time></trkpt>
<trkpt lat="30.035193" lon="101.844379">
<time>2015-08-06T02:08:49Z</time></trkpt>
<trkpt lat="30.035312" lon="101.844179">
<time>2015-08-06T02:08:50Z</time></trkpt>
<trkpt lat="30.035372" lon="101.844068">
<time>2015-08-06T02:08:51Z</time></trkpt>
<trkpt lat="30.035432" lon="101.843988">
<time>2015-08-06T02:08:52Z</time></trkpt>
<trkpt lat="30.035482" lon="101.843918">
<time>2015-08-06T02:08:53Z</time></trkpt>
<trkpt lat="30.035522" lon="101.843878">
<time>2015-08-06T02:08:54Z</time></trkpt>
<trkpt lat="30.035572" lon="101.843838">
<time>2015-08-06T02:08:55Z</time></trkpt>
<trkpt lat="30.035622" lon="101.843798">
<time>2015-08-06T02:08:56Z</time></trkpt>
<trkpt lat="30.035761" lon="101.843688">
<time>2015-08-06T02:08:57Z</time></trkpt>
<trkpt lat="30.036331" lon="101.843287">
<time>2015-08-06T02:08:58Z</time></trkpt>
<trkpt lat="30.036491" lon="101.843166">
<time>2015-08-06T02:08:59Z</time></trkpt>
<trkpt lat="30.03661" lon="101.843076">
<time>2015-08-06T02:09:00Z</time></trkpt>
<trkpt lat="30.03669" lon="101.842996">
<time>2015-08-06T02:09:01Z</time></trkpt>
<trkpt lat="30.03675" lon="101.842906">
<time>2015-08-06T02:09:02Z</time></trkpt>
<trkpt lat="30.03684" lon="101.842795">
<time>2015-08-06T02:09:03Z</time></trkpt>
<trkpt lat="30.03693" lon="101.842645">
<time>2015-08-06T02:09:04Z</time></trkpt>
<trkpt lat="30.037258" lon="101.842014">
<time>2015-08-06T02:09:05Z</time></trkpt>
<trkpt lat="30.037498" lon="101.841522">
<time>2015-08-06T02:09:06Z</time></trkpt>
<trkpt lat="30.037637" lon="101.841212">
<time>2015-08-06T02:09:07Z</time></trkpt>
<trkpt lat="30.037856" lon="101.840731">
<time>2015-08-06T02:09:08Z</time></trkpt>
<trkpt lat="30.037906" lon="101.84062">
<time>2015-08-06T02:09:09Z</time></trkpt>
<trkpt lat="30.037966" lon="101.84052">
<time>2015-08-06T02:09:10Z</time></trkpt>
<trkpt lat="30.038026" lon="101.84044">
<time>2015-08-06T02:09:11Z</time></trkpt>
<trkpt lat="30.038076" lon="101.84037">
<time>2015-08-06T02:09:12Z</time></trkpt>
<trkpt lat="30.038155" lon="101.8403">
<time>2015-08-06T02:09:13Z</time></trkpt>
<trkpt lat="30.038195" lon="101.840269">
<time>2015-08-06T02:09:14Z</time></trkpt>
<trkpt lat="30.038315" lon="101.840179">
<time>2015-08-06T02:09:15Z</time></trkpt>
<trkpt lat="30.038435" lon="101.840099">
<time>2015-08-06T02:09:16Z</time></trkpt>
<trkpt lat="30.038595" lon="101.839979">
<time>2015-08-06T02:09:17Z</time></trkpt>
<trkpt lat="30.038715" lon="101.839858">
<time>2015-08-06T02:09:18Z</time></trkpt>
<trkpt lat="30.038844" lon="101.839698">
<time>2015-08-06T02:09:19Z</time></trkpt>
<trkpt lat="30.038914" lon="101.839588">
<time>2015-08-06T02:09:20Z</time></trkpt>
<trkpt lat="30.038994" lon="101.839458">
<time>2015-08-06T02:09:21Z</time></trkpt>
<trkpt lat="30.039213" lon="101.839026">
<time>2015-08-06T02:09:22Z</time></trkpt>
<trkpt lat="30.039353" lon="101.838716">
<time>2015-08-06T02:09:23Z</time></trkpt>
<trkpt lat="30.039502" lon="101.838385">
<time>2015-08-06T02:09:24Z</time></trkpt>
<trkpt lat="30.039631" lon="101.838084">
<time>2015-08-06T02:09:25Z</time></trkpt>
<trkpt lat="30.039751" lon="101.837824">
<time>2015-08-06T02:09:26Z</time></trkpt>
<trkpt lat="30.03988" lon="101.837513">
<time>2015-08-06T02:09:27Z</time></trkpt>
<trkpt lat="30.03992" lon="101.837443">
<time>2015-08-06T02:09:28Z</time></trkpt>
<trkpt lat="30.03995" lon="101.837393">
<time>2015-08-06T02:09:29Z</time></trkpt>
<trkpt lat="30.03998" lon="101.837342">
<time>2015-08-06T02:09:30Z</time></trkpt>
<trkpt lat="30.04002" lon="101.837302">
<time>2015-08-06T02:09:31Z</time></trkpt>
<trkpt lat="30.04005" lon="101.837262">
<time>2015-08-06T02:09:32Z</time></trkpt>
<trkpt lat="30.04017" lon="101.837152">
<time>2015-08-06T02:09:33Z</time></trkpt>
<trkpt lat="30.04027" lon="101.837062">
<time>2015-08-06T02:09:34Z</time></trkpt>
<trkpt lat="30.040359" lon="101.836961">
<time>2015-08-06T02:09:35Z</time></trkpt>
<trkpt lat="30.040419" lon="101.836901">
<time>2015-08-06T02:09:36Z</time></trkpt>
<trkpt lat="30.040449" lon="101.836861">
<time>2015-08-06T02:09:37Z</time></trkpt>
<trkpt lat="30.040479" lon="101.836821">
<time>2015-08-06T02:09:38Z</time></trkpt>
<trkpt lat="30.040579" lon="101.836651">
<time>2015-08-06T02:09:39Z</time></trkpt>
<trkpt lat="30.040808" lon="101.83621">
<time>2015-08-06T02:09:40Z</time></trkpt>
<trkpt lat="30.041127" lon="101.835608">
<time>2015-08-06T02:09:41Z</time></trkpt>
<trkpt lat="30.041226" lon="101.835388">
<time>2015-08-06T02:09:42Z</time></trkpt>
<trkpt lat="30.041316" lon="101.835177">
<time>2015-08-06T02:09:43Z</time></trkpt>
<trkpt lat="30.041346" lon="101.835097">
<time>2015-08-06T02:09:44Z</time></trkpt>
<trkpt lat="30.041376" lon="101.834967">
<time>2015-08-06T02:09:45Z</time></trkpt>
<trkpt lat="30.041445" lon="101.834696">
<time>2015-08-06T02:09:46Z</time></trkpt>
<trkpt lat="30.041584" lon="101.834155">
<time>2015-08-06T02:09:47Z</time></trkpt>
<trkpt lat="30.041663" lon="101.833794">
<time>2015-08-06T02:09:48Z</time></trkpt>
<trkpt lat="30.041713" lon="101.833543">
<time>2015-08-06T02:09:49Z</time></trkpt>
<trkpt lat="30.041753" lon="101.833393">
<time>2015-08-06T02:09:50Z</time></trkpt>
<trkpt lat="30.041793" lon="101.833262">
<time>2015-08-06T02:09:51Z</time></trkpt>
<trkpt lat="30.041832" lon="101.833142">
<time>2015-08-06T02:09:52Z</time></trkpt>
<trkpt lat="30.041862" lon="101.833082">
<time>2015-08-06T02:09:53Z</time></trkpt>
<trkpt lat="30.041872" lon="101.833052">
<time>2015-08-06T02:09:54Z</time></trkpt>
<trkpt lat="30.041922" lon="101.832952">
<time>2015-08-06T02:09:55Z</time></trkpt>
<trkpt lat="30.042042" lon="101.832781">
<time>2015-08-06T02:09:56Z</time></trkpt>
<trkpt lat="30.042321" lon="101.83232">
<time>2015-08-06T02:09:57Z</time></trkpt>
<trkpt lat="30.04239" lon="101.83214">
<time>2015-08-06T02:09:58Z</time></trkpt>
<trkpt lat="30.04244" lon="101.831979">
<time>2015-08-06T02:09:59Z</time></trkpt>
<trkpt lat="30.04245" lon="101.831789">
<time>2015-08-06T02:10:00Z</time></trkpt>
<trkpt lat="30.042439" lon="101.831428">
<time>2015-08-06T02:10:01Z</time></trkpt>
<trkpt lat="30.042408" lon="101.830897">
<time>2015-08-06T02:10:02Z</time></trkpt>
<trkpt lat="30.042398" lon="101.830686">
<time>2015-08-06T02:10:03Z</time></trkpt>
<trkpt lat="30.042397" lon="101.830395">
<time>2015-08-06T02:10:04Z</time></trkpt>
<trkpt lat="30.042457" lon="101.830145">
<time>2015-08-06T02:10:05Z</time></trkpt>
<trkpt lat="30.042506" lon="101.830005">
<time>2015-08-06T02:10:06Z</time></trkpt>
<trkpt lat="30.042556" lon="101.829864">
<time>2015-08-06T02:10:07Z</time></trkpt>
<trkpt lat="30.042656" lon="101.829634">
<time>2015-08-06T02:10:08Z</time></trkpt>
<trkpt lat="30.042745" lon="101.829483">
<time>2015-08-06T02:10:09Z</time></trkpt>
<trkpt lat="30.042835" lon="101.829373">
<time>2015-08-06T02:10:10Z</time></trkpt>
<trkpt lat="30.042975" lon="101.829253">
<time>2015-08-06T02:10:11Z</time></trkpt>
<trkpt lat="30.043155" lon="101.829112">
<time>2015-08-06T02:10:12Z</time></trkpt>
<trkpt lat="30.043584" lon="101.828731">
<time>2015-08-06T02:10:13Z</time></trkpt>
<trkpt lat="30.043674" lon="101.828631">
<time>2015-08-06T02:10:14Z</time></trkpt>
<trkpt lat="30.043734" lon="101.828541">
<time>2015-08-06T02:10:15Z</time></trkpt>
<trkpt lat="30.043734" lon="101.828471">
<time>2015-08-06T02:10:16Z</time></trkpt>
<trkpt lat="30.043703" lon="101.828411">
<time>2015-08-06T02:10:17Z</time></trkpt>
<trkpt lat="30.043663" lon="101.82837">
<time>2015-08-06T02:10:18Z</time></trkpt>
<trkpt lat="30.043603" lon="101.82833">
<time>2015-08-06T02:10:19Z</time></trkpt>
<trkpt lat="30.043513" lon="101.82833">
<time>2015-08-06T02:10:20Z</time></trkpt>
<trkpt lat="30.043423" lon="101.82837">
<time>2015-08-06T02:10:21Z</time></trkpt>
<trkpt lat="30.043004" lon="101.828581">
<time>2015-08-06T02:10:22Z</time></trkpt>
<trkpt lat="30.042924" lon="101.828641">
<time>2015-08-06T02:10:23Z</time></trkpt>
<trkpt lat="30.042854" lon="101.828691">
<time>2015-08-06T02:10:24Z</time></trkpt>
<trkpt lat="30.042484" lon="101.828922">
<time>2015-08-06T02:10:25Z</time></trkpt>
<trkpt lat="30.042225" lon="101.829072">
<time>2015-08-06T02:10:26Z</time></trkpt>
<trkpt lat="30.042115" lon="101.829152">
<time>2015-08-06T02:10:27Z</time></trkpt>
<trkpt lat="30.042005" lon="101.829223">
<time>2015-08-06T02:10:28Z</time></trkpt>
<trkpt lat="30.041945" lon="101.829263">
<time>2015-08-06T02:10:29Z</time></trkpt>
<trkpt lat="30.041885" lon="101.829323">
<time>2015-08-06T02:10:30Z</time></trkpt>
<trkpt lat="30.041855" lon="101.829373">
<time>2015-08-06T02:10:31Z</time></trkpt>
<trkpt lat="30.041775" lon="101.829493">
<time>2015-08-06T02:10:32Z</time></trkpt>
<trkpt lat="30.041666" lon="101.829674">
<time>2015-08-06T02:10:33Z</time></trkpt>
<trkpt lat="30.041516" lon="101.829934">
<time>2015-08-06T02:10:34Z</time></trkpt>
<trkpt lat="30.041436" lon="101.830045">
<time>2015-08-06T02:10:35Z</time></trkpt>
<trkpt lat="30.041387" lon="101.830105">
<time>2015-08-06T02:10:36Z</time></trkpt>
<trkpt lat="30.040938" lon="101.830807">
<time>2015-08-06T02:10:37Z</time></trkpt>
<trkpt lat="30.040918" lon="101.830847">
<time>2015-08-06T02:10:38Z</time></trkpt>
<trkpt lat="30.040898" lon="101.830887">
<time>2015-08-06T02:10:39Z</time></trkpt>
<trkpt lat="30.040878" lon="101.830907">
<time>2015-08-06T02:10:40Z</time></trkpt>
<trkpt lat="30.040858" lon="101.830917">
<time>2015-08-06T02:10:41Z</time></trkpt>
<trkpt lat="30.040818" lon="101.830937">
<time>2015-08-06T02:10:42Z</time></trkpt>
<trkpt lat="30.040788" lon="101.830947">
<time>2015-08-06T02:10:43Z</time></trkpt>
<trkpt lat="30.040758" lon="101.830937">
<time>2015-08-06T02:10:44Z</time></trkpt>
<trkpt lat="30.040738" lon="101.830937">
<time>2015-08-06T02:10:45Z</time></trkpt>
<trkpt lat="30.040718" lon="101.830927">
<time>2015-08-06T02:10:46Z</time></trkpt>
<trkpt lat="30.040708" lon="101.830917">
<time>2015-08-06T02:10:47Z</time></trkpt>
<trkpt lat="30.040688" lon="101.830907">
<time>2015-08-06T02:10:48Z</time></trkpt>
<trkpt lat="30.040678" lon="101.830887">
<time>2015-08-06T02:10:49Z</time></trkpt>
<trkpt lat="30.040658" lon="101.830867">
<time>2015-08-06T02:10:50Z</time></trkpt>
<trkpt lat="30.040658" lon="101.830837">
<time>2015-08-06T02:10:51Z</time></trkpt>
<trkpt lat="30.040648" lon="101.830797">
<time>2015-08-06T02:10:52Z</time></trkpt>
<trkpt lat="30.040648" lon="101.830756">
<time>2015-08-06T02:10:53Z</time></trkpt>
<trkpt lat="30.040658" lon="101.830726">
<time>2015-08-06T02:10:54Z</time></trkpt>
<trkpt lat="30.040668" lon="101.830686">
<time>2015-08-06T02:10:55Z</time></trkpt>
<trkpt lat="30.040708" lon="101.830616">
<time>2015-08-06T02:10:56Z</time></trkpt>
<trkpt lat="30.040787" lon="101.830496">
<time>2015-08-06T02:10:57Z</time></trkpt>
<trkpt lat="30.040857" lon="101.830386">
<time>2015-08-06T02:10:58Z</time></trkpt>
<trkpt lat="30.040987" lon="101.830195">
<time>2015-08-06T02:10:59Z</time></trkpt>
<trkpt lat="30.041096" lon="101.830035">
<time>2015-08-06T02:11:00Z</time></trkpt>
<trkpt lat="30.041196" lon="101.829884">
<time>2015-08-06T02:11:01Z</time></trkpt>
<trkpt lat="30.041276" lon="101.829744">
<time>2015-08-06T02:11:02Z</time></trkpt>
<trkpt lat="30.041336" lon="101.829614">
<time>2015-08-06T02:11:03Z</time></trkpt>
<trkpt lat="30.041395" lon="101.829473">
<time>2015-08-06T02:11:04Z</time></trkpt>
<trkpt lat="30.041455" lon="101.829303">
<time>2015-08-06T02:11:05Z</time></trkpt>
<trkpt lat="30.041525" lon="101.829152">
<time>2015-08-06T02:11:06Z</time></trkpt>
<trkpt lat="30.041565" lon="101.829082">
<time>2015-08-06T02:11:07Z</time></trkpt>
<trkpt lat="30.041595" lon="101.829042">
<time>2015-08-06T02:11:08Z</time></trkpt>
<trkpt lat="30.041635" lon="101.829002">
<time>2015-08-06T02:11:09Z</time></trkpt>
<trkpt lat="30.041694" lon="101.828922">
<time>2015-08-06T02:11:10Z</time></trkpt>
<trkpt lat="30.041844" lon="101.828772">
<time>2015-08-06T02:11:11Z</time></trkpt>
<trkpt lat="30.042044" lon="101.828571">
<time>2015-08-06T02:11:12Z</time></trkpt>
<trkpt lat="30.042164" lon="101.828461">
<time>2015-08-06T02:11:13Z</time></trkpt>
<trkpt lat="30.042233" lon="101.828371">
<time>2015-08-06T02:11:14Z</time></trkpt>
<trkpt lat="30.042283" lon="101.8283">
<time>2015-08-06T02:11:15Z</time></trkpt>
<trkpt lat="30.042403" lon="101.82813">
<time>2015-08-06T02:11:16Z</time></trkpt>
<trkpt lat="30.042533" lon="101.827929">
<time>2015-08-06T02:11:17Z</time></trkpt>
<trkpt lat="30.042612" lon="101.827819">
<time>2015-08-06T02:11:18Z</time></trkpt>
<trkpt lat="30.042682" lon="101.827729">
<time>2015-08-06T02:11:19Z</time></trkpt>
<trkpt lat="30.042722" lon="101.827679">
<time>2015-08-06T02:11:20Z</time></trkpt>
<trkpt lat="30.042762" lon="101.827629">
<time>2015-08-06T02:11:21Z</time></trkpt>
<trkpt lat="30.042802" lon="101.827599">
<time>2015-08-06T02:11:22Z</time></trkpt>
<trkpt lat="30.042842" lon="101.827559">
<time>2015-08-06T02:11:23Z</time></trkpt>
<trkpt lat="30.042922" lon="101.827498">
<time>2015-08-06T02:11:24Z</time></trkpt>
<trkpt lat="30.043052" lon="101.827428">
<time>2015-08-06T02:11:25Z</time></trkpt>
<trkpt lat="30.043111" lon="101.827378">
<time>2015-08-06T02:11:26Z</time></trkpt>
<trkpt lat="30.043171" lon="101.827328">
<time>2015-08-06T02:11:27Z</time></trkpt>
<trkpt lat="30.043221" lon="101.827278">
<time>2015-08-06T02:11:28Z</time></trkpt>
<trkpt lat="30.043281" lon="101.827218">
<time>2015-08-06T02:11:29Z</time></trkpt>
<trkpt lat="30.043331" lon="101.827148">
<time>2015-08-06T02:11:30Z</time></trkpt>
<trkpt lat="30.043401" lon="101.827037">
<time>2015-08-06T02:11:31Z</time></trkpt>
<trkpt lat="30.04357" lon="101.826757">
<time>2015-08-06T02:11:32Z</time></trkpt>
<trkpt lat="30.04371" lon="101.826546">
<time>2015-08-06T02:11:33Z</time></trkpt>
<trkpt lat="30.04376" lon="101.826476">
<time>2015-08-06T02:11:34Z</time></trkpt>
<trkpt lat="30.04381" lon="101.826426">
<time>2015-08-06T02:11:35Z</time></trkpt>
<trkpt lat="30.04385" lon="101.826396">
<time>2015-08-06T02:11:36Z</time></trkpt>
<trkpt lat="30.0439" lon="101.826356">
<time>2015-08-06T02:11:37Z</time></trkpt>
<trkpt lat="30.04394" lon="101.826325">
<time>2015-08-06T02:11:38Z</time></trkpt>
<trkpt lat="30.043989" lon="101.826305">
<time>2015-08-06T02:11:39Z</time></trkpt>
<trkpt lat="30.044109" lon="101.826265">
<time>2015-08-06T02:11:40Z</time></trkpt>
<trkpt lat="30.044229" lon="101.826225">
<time>2015-08-06T02:11:41Z</time></trkpt>
<trkpt lat="30.044309" lon="101.826195">
<time>2015-08-06T02:11:42Z</time></trkpt>
<trkpt lat="30.044369" lon="101.826165">
<time>2015-08-06T02:11:43Z</time></trkpt>
<trkpt lat="30.044419" lon="101.826145">
<time>2015-08-06T02:11:44Z</time></trkpt>
<trkpt lat="30.044469" lon="101.826105">
<time>2015-08-06T02:11:45Z</time></trkpt>
<trkpt lat="30.044509" lon="101.826065">
<time>2015-08-06T02:11:46Z</time></trkpt>
<trkpt lat="30.044559" lon="101.826025">
<time>2015-08-06T02:11:47Z</time></trkpt>
<trkpt lat="30.044599" lon="101.825965">
<time>2015-08-06T02:11:48Z</time></trkpt>
<trkpt lat="30.044659" lon="101.825884">
<time>2015-08-06T02:11:49Z</time></trkpt>
<trkpt lat="30.044728" lon="101.825754">
<time>2015-08-06T02:11:50Z</time></trkpt>
<trkpt lat="30.044788" lon="101.825664">
<time>2015-08-06T02:11:51Z</time></trkpt>
<trkpt lat="30.044868" lon="101.825564">
<time>2015-08-06T02:11:52Z</time></trkpt>
<trkpt lat="30.044938" lon="101.825493">
<time>2015-08-06T02:11:53Z</time></trkpt>
<trkpt lat="30.044998" lon="101.825443">
<time>2015-08-06T02:11:54Z</time></trkpt>
<trkpt lat="30.045048" lon="101.825423">
<time>2015-08-06T02:11:55Z</time></trkpt>
<trkpt lat="30.045088" lon="101.825393">
<time>2015-08-06T02:11:56Z</time></trkpt>
<trkpt lat="30.045128" lon="101.825383">
<time>2015-08-06T02:11:57Z</time></trkpt>
<trkpt lat="30.045168" lon="101.825373">
<time>2015-08-06T02:11:58Z</time></trkpt>
<trkpt lat="30.045208" lon="101.825363">
<time>2015-08-06T02:11:59Z</time></trkpt>
<trkpt lat="30.045248" lon="101.825373">
<time>2015-08-06T02:12:00Z</time></trkpt>
<trkpt lat="30.045278" lon="101.825373">
<time>2015-08-06T02:12:01Z</time></trkpt>
<trkpt lat="30.045308" lon="101.825383">
<time>2015-08-06T02:12:02Z</time></trkpt>
<trkpt lat="30.045338" lon="101.825403">
<time>2015-08-06T02:12:03Z</time></trkpt>
<trkpt lat="30.045378" lon="101.825423">
<time>2015-08-06T02:12:04Z</time></trkpt>
<trkpt lat="30.045418" lon="101.825463">
<time>2015-08-06T02:12:05Z</time></trkpt>
<trkpt lat="30.045478" lon="101.825523">
<time>2015-08-06T02:12:06Z</time></trkpt>
<trkpt lat="30.045528" lon="101.825574">
<time>2015-08-06T02:12:07Z</time></trkpt>
<trkpt lat="30.045578" lon="101.825624">
<time>2015-08-06T02:12:08Z</time></trkpt>
<trkpt lat="30.045638" lon="101.825694">
<time>2015-08-06T02:12:09Z</time></trkpt>
<trkpt lat="30.045689" lon="101.825784">
<time>2015-08-06T02:12:10Z</time></trkpt>
<trkpt lat="30.045739" lon="101.825844">
<time>2015-08-06T02:12:11Z</time></trkpt>
<trkpt lat="30.045799" lon="101.825904">
<time>2015-08-06T02:12:12Z</time></trkpt>
<trkpt lat="30.045879" lon="101.825944">
<time>2015-08-06T02:12:13Z</time></trkpt>
<trkpt lat="30.045929" lon="101.825965">
<time>2015-08-06T02:12:14Z</time></trkpt>
<trkpt lat="30.045989" lon="101.825965">
<time>2015-08-06T02:12:15Z</time></trkpt>
<trkpt lat="30.046039" lon="101.825965">
<time>2015-08-06T02:12:16Z</time></trkpt>
<trkpt lat="30.046079" lon="101.825954">
<time>2015-08-06T02:12:17Z</time></trkpt>
<trkpt lat="30.046109" lon="101.825944">
<time>2015-08-06T02:12:18Z</time></trkpt>
<trkpt lat="30.046219" lon="101.825884">
<time>2015-08-06T02:12:19Z</time></trkpt>
<trkpt lat="30.046329" lon="101.825834">
<time>2015-08-06T02:12:20Z</time></trkpt>
<trkpt lat="30.046488" lon="101.825764">
<time>2015-08-06T02:12:21Z</time></trkpt>
<trkpt lat="30.046698" lon="101.825694">
<time>2015-08-06T02:12:22Z</time></trkpt>
<trkpt lat="30.046828" lon="101.825654">
<time>2015-08-06T02:12:23Z</time></trkpt>
<trkpt lat="30.047088" lon="101.825553">
<time>2015-08-06T02:12:24Z</time></trkpt>
<trkpt lat="30.047258" lon="101.825493">
<time>2015-08-06T02:12:25Z</time></trkpt>
<trkpt lat="30.047438" lon="101.825413">
<time>2015-08-06T02:12:26Z</time></trkpt>
<trkpt lat="30.047718" lon="101.825283">
<time>2015-08-06T02:12:27Z</time></trkpt>
<trkpt lat="30.047827" lon="101.825233">
<time>2015-08-06T02:12:28Z</time></trkpt>
<trkpt lat="30.048107" lon="101.825112">
<time>2015-08-06T02:12:29Z</time></trkpt>
<trkpt lat="30.048367" lon="101.824972">
<time>2015-08-06T02:12:30Z</time></trkpt>
<trkpt lat="30.048457" lon="101.824932">
<time>2015-08-06T02:12:31Z</time></trkpt>
<trkpt lat="30.048607" lon="101.824842">
<time>2015-08-06T02:12:32Z</time></trkpt>
<trkpt lat="30.048847" lon="101.824711">
<time>2015-08-06T02:12:33Z</time></trkpt>
<trkpt lat="30.048926" lon="101.824681">
<time>2015-08-06T02:12:34Z</time></trkpt>
<trkpt lat="30.049076" lon="101.824621">
<time>2015-08-06T02:12:35Z</time></trkpt>
<trkpt lat="30.049256" lon="101.824551">
<time>2015-08-06T02:12:36Z</time></trkpt>
<trkpt lat="30.049576" lon="101.824441">
<time>2015-08-06T02:12:37Z</time></trkpt>
<trkpt lat="30.049706" lon="101.824391">
<time>2015-08-06T02:12:38Z</time></trkpt>
<trkpt lat="30.049766" lon="101.82436">
<time>2015-08-06T02:12:39Z</time></trkpt>
<trkpt lat="30.049826" lon="101.82433">
<time>2015-08-06T02:12:40Z</time></trkpt>
<trkpt lat="30.049896" lon="101.82429">
<time>2015-08-06T02:12:41Z</time></trkpt>
<trkpt lat="30.049966" lon="101.82425">
<time>2015-08-06T02:12:42Z</time></trkpt>
<trkpt lat="30.050195" lon="101.82409">
<time>2015-08-06T02:12:43Z</time></trkpt>
<trkpt lat="30.051084" lon="101.823248">
<time>2015-08-06T02:12:44Z</time></trkpt>
<trkpt lat="30.051633" lon="101.822586">
<time>2015-08-06T02:12:45Z</time></trkpt>
<trkpt lat="30.051852" lon="101.822406">
<time>2015-08-06T02:12:46Z</time></trkpt>
<trkpt lat="30.052162" lon="101.822075">
<time>2015-08-06T02:12:47Z</time></trkpt>
<trkpt lat="30.052281" lon="101.821944">
<time>2015-08-06T02:12:48Z</time></trkpt>
<trkpt lat="30.052501" lon="101.821764">
<time>2015-08-06T02:12:49Z</time></trkpt>
<trkpt lat="30.052711" lon="101.821624">
<time>2015-08-06T02:12:50Z</time></trkpt>
<trkpt lat="30.052811" lon="101.821564">
<time>2015-08-06T02:12:51Z</time></trkpt>
<trkpt lat="30.052881" lon="101.821533">
<time>2015-08-06T02:12:52Z</time></trkpt>
<trkpt lat="30.052921" lon="101.821523">
<time>2015-08-06T02:12:53Z</time></trkpt>
<trkpt lat="30.052961" lon="101.821523">
<time>2015-08-06T02:12:54Z</time></trkpt>
<trkpt lat="30.053001" lon="101.821513">
<time>2015-08-06T02:12:55Z</time></trkpt>
<trkpt lat="30.053031" lon="101.821523">
<time>2015-08-06T02:12:56Z</time></trkpt>
<trkpt lat="30.053061" lon="101.821533">
<time>2015-08-06T02:12:57Z</time></trkpt>
<trkpt lat="30.053101" lon="101.821564">
<time>2015-08-06T02:12:58Z</time></trkpt>
<trkpt lat="30.053141" lon="101.821594">
<time>2015-08-06T02:12:59Z</time></trkpt>
<trkpt lat="30.053181" lon="101.821624">
<time>2015-08-06T02:13:00Z</time></trkpt>
<trkpt lat="30.053251" lon="101.821714">
<time>2015-08-06T02:13:01Z</time></trkpt>
<trkpt lat="30.053311" lon="101.821784">
<time>2015-08-06T02:13:02Z</time></trkpt>
<trkpt lat="30.053371" lon="101.821864">
<time>2015-08-06T02:13:03Z</time></trkpt>
<trkpt lat="30.053411" lon="101.821954">
<time>2015-08-06T02:13:04Z</time></trkpt>
<trkpt lat="30.053451" lon="101.822015">
<time>2015-08-06T02:13:05Z</time></trkpt>
<trkpt lat="30.053472" lon="101.822085">
<time>2015-08-06T02:13:06Z</time></trkpt>
<trkpt lat="30.053492" lon="101.822145">
<time>2015-08-06T02:13:07Z</time></trkpt>
<trkpt lat="30.053502" lon="101.822205">
<time>2015-08-06T02:13:08Z</time></trkpt>
<trkpt lat="30.053502" lon="101.822255">
<time>2015-08-06T02:13:09Z</time></trkpt>
<trkpt lat="30.053502" lon="101.822295">
<time>2015-08-06T02:13:10Z</time></trkpt>
<trkpt lat="30.053482" lon="101.822446">
<time>2015-08-06T02:13:11Z</time></trkpt>
<trkpt lat="30.053463" lon="101.822566">
<time>2015-08-06T02:13:12Z</time></trkpt>
<trkpt lat="30.053403" lon="101.822776">
<time>2015-08-06T02:13:13Z</time></trkpt>
<trkpt lat="30.053274" lon="101.823137">
<time>2015-08-06T02:13:14Z</time></trkpt>
<trkpt lat="30.052756" lon="101.8244">
<time>2015-08-06T02:13:15Z</time></trkpt>
<trkpt lat="30.052706" lon="101.824481">
<time>2015-08-06T02:13:16Z</time></trkpt>
<trkpt lat="30.052666" lon="101.824551">
<time>2015-08-06T02:13:17Z</time></trkpt>
<trkpt lat="30.052656" lon="101.824591">
<time>2015-08-06T02:13:18Z</time></trkpt>
<trkpt lat="30.052646" lon="101.824621">
<time>2015-08-06T02:13:19Z</time></trkpt>
<trkpt lat="30.052646" lon="101.824641">
<time>2015-08-06T02:13:20Z</time></trkpt>
<trkpt lat="30.052646" lon="101.824671">
<time>2015-08-06T02:13:21Z</time></trkpt>
<trkpt lat="30.052657" lon="101.824691">
<time>2015-08-06T02:13:22Z</time></trkpt>
<trkpt lat="30.052677" lon="101.824711">
<time>2015-08-06T02:13:23Z</time></trkpt>
<trkpt lat="30.052697" lon="101.824731">
<time>2015-08-06T02:13:24Z</time></trkpt>
<trkpt lat="30.052727" lon="101.824741">
<time>2015-08-06T02:13:25Z</time></trkpt>
<trkpt lat="30.052747" lon="101.824741">
<time>2015-08-06T02:13:26Z</time></trkpt>
<trkpt lat="30.052767" lon="101.824741">
<time>2015-08-06T02:13:27Z</time></trkpt>
<trkpt lat="30.052797" lon="101.824741">
<time>2015-08-06T02:13:28Z</time></trkpt>
<trkpt lat="30.052817" lon="101.824731">
<time>2015-08-06T02:13:29Z</time></trkpt>
<trkpt lat="30.052827" lon="101.824721">
<time>2015-08-06T02:13:30Z</time></trkpt>
<trkpt lat="30.052847" lon="101.824701">
<time>2015-08-06T02:13:31Z</time></trkpt>
<trkpt lat="30.052866" lon="101.824681">
<time>2015-08-06T02:13:32Z</time></trkpt>
<trkpt lat="30.052886" lon="101.824651">
<time>2015-08-06T02:13:33Z</time></trkpt>
<trkpt lat="30.052986" lon="101.824481">
<time>2015-08-06T02:13:34Z</time></trkpt>
<trkpt lat="30.053096" lon="101.82427">
<time>2015-08-06T02:13:35Z</time></trkpt>
<trkpt lat="30.053195" lon="101.82408">
<time>2015-08-06T02:13:36Z</time></trkpt>
<trkpt lat="30.053265" lon="101.823899">
<time>2015-08-06T02:13:37Z</time></trkpt>
<trkpt lat="30.053464" lon="101.823548">
<time>2015-08-06T02:13:38Z</time></trkpt>
<trkpt lat="30.053734" lon="101.823147">
<time>2015-08-06T02:13:39Z</time></trkpt>
<trkpt lat="30.053963" lon="101.822797">
<time>2015-08-06T02:13:40Z</time></trkpt>
<trkpt lat="30.054142" lon="101.822496">
<time>2015-08-06T02:13:41Z</time></trkpt>
<trkpt lat="30.054302" lon="101.822215">
<time>2015-08-06T02:13:42Z</time></trkpt>
<trkpt lat="30.054432" lon="101.822025">
<time>2015-08-06T02:13:43Z</time></trkpt>
<trkpt lat="30.054511" lon="101.821924">
<time>2015-08-06T02:13:44Z</time></trkpt>
<trkpt lat="30.054571" lon="101.821844">
<time>2015-08-06T02:13:45Z</time></trkpt>
<trkpt lat="30.054641" lon="101.821794">
<time>2015-08-06T02:13:46Z</time></trkpt>
<trkpt lat="30.054701" lon="101.821734">
<time>2015-08-06T02:13:47Z</time></trkpt>
<trkpt lat="30.054851" lon="101.821614">
<time>2015-08-06T02:13:48Z</time></trkpt>
<trkpt lat="30.054981" lon="101.821513">
<time>2015-08-06T02:13:49Z</time></trkpt>
<trkpt lat="30.05518" lon="101.821383">
<time>2015-08-06T02:13:50Z</time></trkpt>
<trkpt lat="30.05534" lon="101.821283">
<time>2015-08-06T02:13:51Z</time></trkpt>
<trkpt lat="30.05548" lon="101.821172">
<time>2015-08-06T02:13:52Z</time></trkpt>
<trkpt lat="30.05556" lon="101.821092">
<time>2015-08-06T02:13:53Z</time></trkpt>
<trkpt lat="30.056348" lon="101.820381">
<time>2015-08-06T02:13:54Z</time></trkpt>
<trkpt lat="30.056538" lon="101.82023">
<time>2015-08-06T02:13:55Z</time></trkpt>
<trkpt lat="30.056698" lon="101.82008">
<time>2015-08-06T02:13:56Z</time></trkpt>
<trkpt lat="30.057347" lon="101.819418">
<time>2015-08-06T02:13:57Z</time></trkpt>
<trkpt lat="30.057646" lon="101.819067">
<time>2015-08-06T02:13:58Z</time></trkpt>
<trkpt lat="30.057855" lon="101.818757">
<time>2015-08-06T02:13:59Z</time></trkpt>
<trkpt lat="30.057965" lon="101.818456">
<time>2015-08-06T02:14:00Z</time></trkpt>
<trkpt lat="30.058044" lon="101.818065">
<time>2015-08-06T02:14:01Z</time></trkpt>
<trkpt lat="30.058063" lon="101.817704">
<time>2015-08-06T02:14:02Z</time></trkpt>
<trkpt lat="30.058003" lon="101.817283">
<time>2015-08-06T02:14:03Z</time></trkpt>
<trkpt lat="30.057922" lon="101.816992">
<time>2015-08-06T02:14:04Z</time></trkpt>
<trkpt lat="30.057902" lon="101.816912">
<time>2015-08-06T02:14:05Z</time></trkpt>
<trkpt lat="30.057862" lon="101.816832">
<time>2015-08-06T02:14:06Z</time></trkpt>
<trkpt lat="30.057832" lon="101.816782">
<time>2015-08-06T02:14:07Z</time></trkpt>
<trkpt lat="30.057792" lon="101.816722">
<time>2015-08-06T02:14:08Z</time></trkpt>
<trkpt lat="30.057732" lon="101.816651">
<time>2015-08-06T02:14:09Z</time></trkpt>
<trkpt lat="30.057701" lon="101.816621">
<time>2015-08-06T02:14:10Z</time></trkpt>
<trkpt lat="30.057651" lon="101.816591">
<time>2015-08-06T02:14:11Z</time></trkpt>
<trkpt lat="30.057611" lon="101.816581">
<time>2015-08-06T02:14:12Z</time></trkpt>
<trkpt lat="30.057561" lon="101.816571">
<time>2015-08-06T02:14:13Z</time></trkpt>
<trkpt lat="30.057511" lon="101.816561">
<time>2015-08-06T02:14:14Z</time></trkpt>
<trkpt lat="30.057461" lon="101.816571">
<time>2015-08-06T02:14:15Z</time></trkpt>
<trkpt lat="30.057411" lon="101.816571">
<time>2015-08-06T02:14:16Z</time></trkpt>
<trkpt lat="30.057351" lon="101.816591">
<time>2015-08-06T02:14:17Z</time></trkpt>
<trkpt lat="30.057212" lon="101.816641">
<time>2015-08-06T02:14:18Z</time></trkpt>
<trkpt lat="30.056982" lon="101.816742">
<time>2015-08-06T02:14:19Z</time></trkpt>
<trkpt lat="30.056792" lon="101.816832">
<time>2015-08-06T02:14:20Z</time></trkpt>
<trkpt lat="30.056652" lon="101.816912">
<time>2015-08-06T02:14:21Z</time></trkpt>
<trkpt lat="30.056522" lon="101.816992">
<time>2015-08-06T02:14:22Z</time></trkpt>
<trkpt lat="30.056352" lon="101.817113">
<time>2015-08-06T02:14:23Z</time></trkpt>
<trkpt lat="30.056203" lon="101.817203">
<time>2015-08-06T02:14:24Z</time></trkpt>
<trkpt lat="30.056113" lon="101.817253">
<time>2015-08-06T02:14:25Z</time></trkpt>
<trkpt lat="30.056023" lon="101.817303">
<time>2015-08-06T02:14:26Z</time></trkpt>
<trkpt lat="30.055923" lon="101.817333">
<time>2015-08-06T02:14:27Z</time></trkpt>
<trkpt lat="30.054774" lon="101.817844">
<time>2015-08-06T02:14:28Z</time></trkpt>
<trkpt lat="30.054724" lon="101.817885">
<time>2015-08-06T02:14:29Z</time></trkpt>
<trkpt lat="30.054664" lon="101.817925">
<time>2015-08-06T02:14:30Z</time></trkpt>
<trkpt lat="30.054624" lon="101.817935">
<time>2015-08-06T02:14:31Z</time></trkpt>
<trkpt lat="30.054594" lon="101.817945">
<time>2015-08-06T02:14:32Z</time></trkpt>
<trkpt lat="30.054574" lon="101.817935">
<time>2015-08-06T02:14:33Z</time></trkpt>
<trkpt lat="30.054554" lon="101.817935">
<time>2015-08-06T02:14:34Z</time></trkpt>
<trkpt lat="30.054534" lon="101.817925">
<time>2015-08-06T02:14:35Z</time></trkpt>
<trkpt lat="30.054524" lon="101.817915">
<time>2015-08-06T02:14:36Z</time></trkpt>
<trkpt lat="30.054504" lon="101.817895">
<time>2015-08-06T02:14:37Z</time></trkpt>
<trkpt lat="30.054494" lon="101.817875">
<time>2015-08-06T02:14:38Z</time></trkpt>
<trkpt lat="30.054494" lon="101.817854">
<time>2015-08-06T02:14:39Z</time></trkpt>
<trkpt lat="30.054484" lon="101.817834">
<time>2015-08-06T02:14:40Z</time></trkpt>
<trkpt lat="30.054494" lon="101.817804">
<time>2015-08-06T02:14:41Z</time></trkpt>
<trkpt lat="30.054494" lon="101.817784">
<time>2015-08-06T02:14:42Z</time></trkpt>
<trkpt lat="30.054514" lon="101.817764">
<time>2015-08-06T02:14:43Z</time></trkpt>
<trkpt lat="30.054534" lon="101.817734">
<time>2015-08-06T02:14:44Z</time></trkpt>
<trkpt lat="30.054553" lon="101.817714">
<time>2015-08-06T02:14:45Z</time></trkpt>
<trkpt lat="30.054593" lon="101.817694">
<time>2015-08-06T02:14:46Z</time></trkpt>
<trkpt lat="30.054663" lon="101.817654">
<time>2015-08-06T02:14:47Z</time></trkpt>
<trkpt lat="30.054743" lon="101.817614">
<time>2015-08-06T02:14:48Z</time></trkpt>
<trkpt lat="30.055642" lon="101.816872">
<time>2015-08-06T02:14:49Z</time></trkpt>
<trkpt lat="30.056101" lon="101.816541">
<time>2015-08-06T02:14:50Z</time></trkpt>
<trkpt lat="30.056611" lon="101.816221">
<time>2015-08-06T02:14:51Z</time></trkpt>
<trkpt lat="30.05683" lon="101.81608">
<time>2015-08-06T02:14:52Z</time></trkpt>
<trkpt lat="30.05725" lon="101.815809">
<time>2015-08-06T02:14:53Z</time></trkpt>
<trkpt lat="30.05743" lon="101.815639">
<time>2015-08-06T02:14:54Z</time></trkpt>
<trkpt lat="30.057839" lon="101.815278">
<time>2015-08-06T02:14:55Z</time></trkpt>
<trkpt lat="30.058029" lon="101.815148">
<time>2015-08-06T02:14:56Z</time></trkpt>
<trkpt lat="30.058368" lon="101.814937">
<time>2015-08-06T02:14:57Z</time></trkpt>
<trkpt lat="30.058598" lon="101.814857">
<time>2015-08-06T02:14:58Z</time></trkpt>
<trkpt lat="30.058778" lon="101.814787">
<time>2015-08-06T02:14:59Z</time></trkpt>
<trkpt lat="30.058998" lon="101.814767">
<time>2015-08-06T02:15:00Z</time></trkpt>
<trkpt lat="30.059378" lon="101.814747">
<time>2015-08-06T02:15:01Z</time></trkpt>
<trkpt lat="30.059658" lon="101.814717">
<time>2015-08-06T02:15:02Z</time></trkpt>
<trkpt lat="30.060268" lon="101.814597">
<time>2015-08-06T02:15:03Z</time></trkpt>
<trkpt lat="30.060727" lon="101.814356">
<time>2015-08-06T02:15:04Z</time></trkpt>
<trkpt lat="30.061197" lon="101.814095">
<time>2015-08-06T02:15:05Z</time></trkpt>
<trkpt lat="30.061457" lon="101.813935">
<time>2015-08-06T02:15:06Z</time></trkpt>
<trkpt lat="30.061656" lon="101.813825">
<time>2015-08-06T02:15:07Z</time></trkpt>
<trkpt lat="30.061726" lon="101.813785">
<time>2015-08-06T02:15:08Z</time></trkpt>
<trkpt lat="30.061796" lon="101.813764">
<time>2015-08-06T02:15:09Z</time></trkpt>
<trkpt lat="30.061856" lon="101.813744">
<time>2015-08-06T02:15:10Z</time></trkpt>
<trkpt lat="30.061926" lon="101.813724">
<time>2015-08-06T02:15:11Z</time></trkpt>
<trkpt lat="30.061986" lon="101.813714">
<time>2015-08-06T02:15:12Z</time></trkpt>
<trkpt lat="30.062296" lon="101.813674">
<time>2015-08-06T02:15:13Z</time></trkpt>
<trkpt lat="30.062556" lon="101.813634">
<time>2015-08-06T02:15:14Z</time></trkpt>
<trkpt lat="30.062646" lon="101.813614">
<time>2015-08-06T02:15:15Z</time></trkpt>
<trkpt lat="30.062676" lon="101.813594">
<time>2015-08-06T02:15:16Z</time></trkpt>
<trkpt lat="30.062706" lon="101.813584">
<time>2015-08-06T02:15:17Z</time></trkpt>
<trkpt lat="30.062736" lon="101.813554">
<time>2015-08-06T02:15:18Z</time></trkpt>
<trkpt lat="30.062756" lon="101.813534">
<time>2015-08-06T02:15:19Z</time></trkpt>
<trkpt lat="30.062776" lon="101.813514">
<time>2015-08-06T02:15:20Z</time></trkpt>
<trkpt lat="30.062786" lon="101.813484">
<time>2015-08-06T02:15:21Z</time></trkpt>
<trkpt lat="30.062796" lon="101.813454">
<time>2015-08-06T02:15:22Z</time></trkpt>
<trkpt lat="30.062796" lon="101.813424">
<time>2015-08-06T02:15:23Z</time></trkpt>
<trkpt lat="30.062786" lon="101.813384">
<time>2015-08-06T02:15:24Z</time></trkpt>
<trkpt lat="30.062776" lon="101.813353">
<time>2015-08-06T02:15:25Z</time></trkpt>
<trkpt lat="30.062756" lon="101.813333">
<time>2015-08-06T02:15:26Z</time></trkpt>
<trkpt lat="30.062745" lon="101.813313">
<time>2015-08-06T02:15:27Z</time></trkpt>
<trkpt lat="30.062725" lon="101.813303">
<time>2015-08-06T02:15:28Z</time></trkpt>
<trkpt lat="30.062715" lon="101.813293">
<time>2015-08-06T02:15:29Z</time></trkpt>
<trkpt lat="30.062695" lon="101.813283">
<time>2015-08-06T02:15:30Z</time></trkpt>
<trkpt lat="30.062665" lon="101.813273">
<time>2015-08-06T02:15:31Z</time></trkpt>
<trkpt lat="30.062625" lon="101.813273">
<time>2015-08-06T02:15:32Z</time></trkpt>
<trkpt lat="30.062585" lon="101.813273">
<time>2015-08-06T02:15:33Z</time></trkpt>
<trkpt lat="30.062525" lon="101.813273">
<time>2015-08-06T02:15:34Z</time></trkpt>
<trkpt lat="30.062306" lon="101.813333">
<time>2015-08-06T02:15:35Z</time></trkpt>
<trkpt lat="30.062126" lon="101.813374">
<time>2015-08-06T02:15:36Z</time></trkpt>
<trkpt lat="30.062036" lon="101.813384">
<time>2015-08-06T02:15:37Z</time></trkpt>
<trkpt lat="30.061976" lon="101.813384">
<time>2015-08-06T02:15:38Z</time></trkpt>
<trkpt lat="30.061936" lon="101.813374">
<time>2015-08-06T02:15:39Z</time></trkpt>
<trkpt lat="30.061886" lon="101.813364">
<time>2015-08-06T02:15:40Z</time></trkpt>
<trkpt lat="30.061776" lon="101.813333">
<time>2015-08-06T02:15:41Z</time></trkpt>
<trkpt lat="30.061555" lon="101.813283">
<time>2015-08-06T02:15:42Z</time></trkpt>
<trkpt lat="30.061315" lon="101.813203">
<time>2015-08-06T02:15:43Z</time></trkpt>
<trkpt lat="30.061255" lon="101.813173">
<time>2015-08-06T02:15:44Z</time></trkpt>
<trkpt lat="30.061225" lon="101.813153">
<time>2015-08-06T02:15:45Z</time></trkpt>
<trkpt lat="30.061205" lon="101.813133">
<time>2015-08-06T02:15:46Z</time></trkpt>
<trkpt lat="30.061195" lon="101.813103">
<time>2015-08-06T02:15:47Z</time></trkpt>
<trkpt lat="30.061185" lon="101.813083">
<time>2015-08-06T02:15:48Z</time></trkpt>
<trkpt lat="30.061185" lon="101.813063">
<time>2015-08-06T02:15:49Z</time></trkpt>
<trkpt lat="30.061185" lon="101.813033">
<time>2015-08-06T02:15:50Z</time></trkpt>
<trkpt lat="30.061185" lon="101.813013">
<time>2015-08-06T02:15:51Z</time></trkpt>
<trkpt lat="30.061185" lon="101.812993">
<time>2015-08-06T02:15:52Z</time></trkpt>
<trkpt lat="30.061205" lon="101.812973">
<time>2015-08-06T02:15:53Z</time></trkpt>
<trkpt lat="30.061215" lon="101.812953">
<time>2015-08-06T02:15:54Z</time></trkpt>
<trkpt lat="30.061225" lon="101.812943">
<time>2015-08-06T02:15:55Z</time></trkpt>
<trkpt lat="30.061255" lon="101.812933">
<time>2015-08-06T02:15:56Z</time></trkpt>
<trkpt lat="30.061275" lon="101.812923">
<time>2015-08-06T02:15:57Z</time></trkpt>
<trkpt lat="30.061295" lon="101.812923">
<time>2015-08-06T02:15:58Z</time></trkpt>
<trkpt lat="30.061315" lon="101.812923">
<time>2015-08-06T02:15:59Z</time></trkpt>
<trkpt lat="30.061335" lon="101.812933">
<time>2015-08-06T02:16:00Z</time></trkpt>
<trkpt lat="30.061385" lon="101.812943">
<time>2015-08-06T02:16:01Z</time></trkpt>
<trkpt lat="30.061455" lon="101.812963">
<time>2015-08-06T02:16:02Z</time></trkpt>
<trkpt lat="30.061545" lon="101.813003">
<time>2015-08-06T02:16:03Z</time></trkpt>
<trkpt lat="30.061635" lon="101.813033">
<time>2015-08-06T02:16:04Z</time></trkpt>
<trkpt lat="30.061705" lon="101.813043">
<time>2015-08-06T02:16:05Z</time></trkpt>
<trkpt lat="30.061765" lon="101.813053">
<time>2015-08-06T02:16:06Z</time></trkpt>
<trkpt lat="30.061845" lon="101.813053">
<time>2015-08-06T02:16:07Z</time></trkpt>
<trkpt lat="30.061905" lon="101.813043">
<time>2015-08-06T02:16:08Z</time></trkpt>
<trkpt lat="30.061955" lon="101.813033">
<time>2015-08-06T02:16:09Z</time></trkpt>
<trkpt lat="30.062015" lon="101.813013">
<time>2015-08-06T02:16:10Z</time></trkpt>
<trkpt lat="30.062085" lon="101.812993">
<time>2015-08-06T02:16:11Z</time></trkpt>
<trkpt lat="30.062175" lon="101.812953">
<time>2015-08-06T02:16:12Z</time></trkpt>
<trkpt lat="30.062295" lon="101.812912">
<time>2015-08-06T02:16:13Z</time></trkpt>
<trkpt lat="30.062455" lon="101.812852">
<time>2015-08-06T02:16:14Z</time></trkpt>
<trkpt lat="30.062565" lon="101.812802">
<time>2015-08-06T02:16:15Z</time></trkpt>
<trkpt lat="30.062644" lon="101.812762">
<time>2015-08-06T02:16:16Z</time></trkpt>
<trkpt lat="30.062954" lon="101.812572">
<time>2015-08-06T02:16:17Z</time></trkpt>
<trkpt lat="30.063124" lon="101.812471">
<time>2015-08-06T02:16:18Z</time></trkpt>
<trkpt lat="30.063603" lon="101.812151">
<time>2015-08-06T02:16:19Z</time></trkpt>
<trkpt lat="30.063713" lon="101.81207">
<time>2015-08-06T02:16:20Z</time></trkpt>
<trkpt lat="30.063833" lon="101.81199">
<time>2015-08-06T02:16:21Z</time></trkpt>
<trkpt lat="30.064103" lon="101.81181">
<time>2015-08-06T02:16:22Z</time></trkpt>
<trkpt lat="30.064572" lon="101.811489">
<time>2015-08-06T02:16:23Z</time></trkpt>
<trkpt lat="30.064742" lon="101.811379">
<time>2015-08-06T02:16:24Z</time></trkpt>
<trkpt lat="30.064962" lon="101.811228">
<time>2015-08-06T02:16:25Z</time></trkpt>
<trkpt lat="30.065052" lon="101.811178">
<time>2015-08-06T02:16:26Z</time></trkpt>
<trkpt lat="30.065122" lon="101.811138">
<time>2015-08-06T02:16:27Z</time></trkpt>
<trkpt lat="30.065202" lon="101.811108">
<time>2015-08-06T02:16:28Z</time></trkpt>
<trkpt lat="30.065271" lon="101.811068">
<time>2015-08-06T02:16:29Z</time></trkpt>
<trkpt lat="30.065351" lon="101.811048">
<time>2015-08-06T02:16:30Z</time></trkpt>
<trkpt lat="30.065461" lon="101.811018">
<time>2015-08-06T02:16:31Z</time></trkpt>
<trkpt lat="30.065631" lon="101.810988">
<time>2015-08-06T02:16:32Z</time></trkpt>
<trkpt lat="30.065681" lon="101.810978">
<time>2015-08-06T02:16:33Z</time></trkpt>
<trkpt lat="30.065711" lon="101.810968">
<time>2015-08-06T02:16:34Z</time></trkpt>
<trkpt lat="30.065741" lon="101.810948">
<time>2015-08-06T02:16:35Z</time></trkpt>
<trkpt lat="30.065771" lon="101.810928">
<time>2015-08-06T02:16:36Z</time></trkpt>
<trkpt lat="30.065801" lon="101.810898">
<time>2015-08-06T02:16:37Z</time></trkpt>
<trkpt lat="30.065811" lon="101.810878">
<time>2015-08-06T02:16:38Z</time></trkpt>
<trkpt lat="30.065831" lon="101.810847">
<time>2015-08-06T02:16:39Z</time></trkpt>
<trkpt lat="30.065841" lon="101.810827">
<time>2015-08-06T02:16:40Z</time></trkpt>
<trkpt lat="30.065851" lon="101.810807">
<time>2015-08-06T02:16:41Z</time></trkpt>
<trkpt lat="30.065851" lon="101.810787">
<time>2015-08-06T02:16:42Z</time></trkpt>
<trkpt lat="30.065851" lon="101.810747">
<time>2015-08-06T02:16:43Z</time></trkpt>
<trkpt lat="30.065841" lon="101.810727">
<time>2015-08-06T02:16:44Z</time></trkpt>
<trkpt lat="30.065841" lon="101.810697">
<time>2015-08-06T02:16:45Z</time></trkpt>
<trkpt lat="30.065831" lon="101.810677">
<time>2015-08-06T02:16:46Z</time></trkpt>
<trkpt lat="30.065821" lon="101.810657">
<time>2015-08-06T02:16:47Z</time></trkpt>
<trkpt lat="30.065801" lon="101.810637">
<time>2015-08-06T02:16:48Z</time></trkpt>
<trkpt lat="30.065791" lon="101.810617">
<time>2015-08-06T02:16:49Z</time></trkpt>
<trkpt lat="30.065761" lon="101.810597">
<time>2015-08-06T02:16:50Z</time></trkpt>
<trkpt lat="30.065741" lon="101.810587">
<time>2015-08-06T02:16:51Z</time></trkpt>
<trkpt lat="30.065711" lon="101.810567">
<time>2015-08-06T02:16:52Z</time></trkpt>
<trkpt lat="30.065661" lon="101.810567">
<time>2015-08-06T02:16:53Z</time></trkpt>
<trkpt lat="30.065571" lon="101.810557">
<time>2015-08-06T02:16:54Z</time></trkpt>
<trkpt lat="30.065391" lon="101.810577">
<time>2015-08-06T02:16:55Z</time></trkpt>
<trkpt lat="30.065141" lon="101.810637">
<time>2015-08-06T02:16:56Z</time></trkpt>
<trkpt lat="30.064961" lon="101.810707">
<time>2015-08-06T02:16:57Z</time></trkpt>
<trkpt lat="30.064281" lon="101.811048">
<time>2015-08-06T02:16:58Z</time></trkpt>
<trkpt lat="30.063802" lon="101.811299">
<time>2015-08-06T02:16:59Z</time></trkpt>
<trkpt lat="30.063492" lon="101.811439">
<time>2015-08-06T02:17:00Z</time></trkpt>
<trkpt lat="30.063182" lon="101.811539">
<time>2015-08-06T02:17:01Z</time></trkpt>
<trkpt lat="30.062912" lon="101.811599">
<time>2015-08-06T02:17:02Z</time></trkpt>
<trkpt lat="30.062682" lon="101.811639">
<time>2015-08-06T02:17:03Z</time></trkpt>
<trkpt lat="30.062313" lon="101.81168">
<time>2015-08-06T02:17:04Z</time></trkpt>
<trkpt lat="30.062033" lon="101.81171">
<time>2015-08-06T02:17:05Z</time></trkpt>
<trkpt lat="30.061943" lon="101.81172">
<time>2015-08-06T02:17:06Z</time></trkpt>
<trkpt lat="30.061883" lon="101.81172">
<time>2015-08-06T02:17:07Z</time></trkpt>
<trkpt lat="30.061853" lon="101.81171">
<time>2015-08-06T02:17:08Z</time></trkpt>
<trkpt lat="30.061833" lon="101.8117">
<time>2015-08-06T02:17:09Z</time></trkpt>
<trkpt lat="30.061813" lon="101.81168">
<time>2015-08-06T02:17:10Z</time></trkpt>
<trkpt lat="30.061802" lon="101.81166">
<time>2015-08-06T02:17:11Z</time></trkpt>
<trkpt lat="30.061782" lon="101.811629">
<time>2015-08-06T02:17:12Z</time></trkpt>
<trkpt lat="30.061782" lon="101.811599">
<time>2015-08-06T02:17:13Z</time></trkpt>
<trkpt lat="30.061772" lon="101.811579">
<time>2015-08-06T02:17:14Z</time></trkpt>
<trkpt lat="30.061772" lon="101.811549">
<time>2015-08-06T02:17:15Z</time></trkpt>
<trkpt lat="30.061782" lon="101.811519">
<time>2015-08-06T02:17:16Z</time></trkpt>
<trkpt lat="30.061792" lon="101.811499">
<time>2015-08-06T02:17:17Z</time></trkpt>
<trkpt lat="30.061812" lon="101.811479">
<time>2015-08-06T02:17:18Z</time></trkpt>
<trkpt lat="30.061832" lon="101.811469">
<time>2015-08-06T02:17:19Z</time></trkpt>
<trkpt lat="30.061862" lon="101.811459">
<time>2015-08-06T02:17:20Z</time></trkpt>
<trkpt lat="30.061892" lon="101.811449">
<time>2015-08-06T02:17:21Z</time></trkpt>
<trkpt lat="30.061922" lon="101.811449">
<time>2015-08-06T02:17:22Z</time></trkpt>
<trkpt lat="30.061972" lon="101.811449">
<time>2015-08-06T02:17:23Z</time></trkpt>
<trkpt lat="30.062062" lon="101.811449">
<time>2015-08-06T02:17:24Z</time></trkpt>
<trkpt lat="30.062202" lon="101.811449">
<time>2015-08-06T02:17:25Z</time></trkpt>
<trkpt lat="30.062332" lon="101.811449">
<time>2015-08-06T02:17:26Z</time></trkpt>
<trkpt lat="30.062422" lon="101.811439">
<time>2015-08-06T02:17:27Z</time></trkpt>
<trkpt lat="30.062532" lon="101.811409">
<time>2015-08-06T02:17:28Z</time></trkpt>
<trkpt lat="30.062622" lon="101.811379">
<time>2015-08-06T02:17:29Z</time></trkpt>
<trkpt lat="30.062682" lon="101.811349">
<time>2015-08-06T02:17:30Z</time></trkpt>
<trkpt lat="30.062742" lon="101.811319">
<time>2015-08-06T02:17:31Z</time></trkpt>
<trkpt lat="30.062792" lon="101.811279">
<time>2015-08-06T02:17:32Z</time></trkpt>
<trkpt lat="30.062842" lon="101.811239">
<time>2015-08-06T02:17:33Z</time></trkpt>
<trkpt lat="30.062912" lon="101.811168">
<time>2015-08-06T02:17:34Z</time></trkpt>
<trkpt lat="30.062991" lon="101.811078">
<time>2015-08-06T02:17:35Z</time></trkpt>
<trkpt lat="30.063121" lon="101.810908">
<time>2015-08-06T02:17:36Z</time></trkpt>
<trkpt lat="30.063241" lon="101.810727">
<time>2015-08-06T02:17:37Z</time></trkpt>
<trkpt lat="30.063361" lon="101.810577">
<time>2015-08-06T02:17:38Z</time></trkpt>
<trkpt lat="30.06342" lon="101.810507">
<time>2015-08-06T02:17:39Z</time></trkpt>
<trkpt lat="30.06348" lon="101.810447">
<time>2015-08-06T02:17:40Z</time></trkpt>
<trkpt lat="30.06354" lon="101.810407">
<time>2015-08-06T02:17:41Z</time></trkpt>
<trkpt lat="30.06359" lon="101.810366">
<time>2015-08-06T02:17:42Z</time></trkpt>
<trkpt lat="30.06367" lon="101.810316">
<time>2015-08-06T02:17:43Z</time></trkpt>
<trkpt lat="30.06425" lon="101.810006">
<time>2015-08-06T02:17:44Z</time></trkpt>
<trkpt lat="30.064879" lon="101.809645">
<time>2015-08-06T02:17:45Z</time></trkpt>
<trkpt lat="30.065339" lon="101.809424">
<time>2015-08-06T02:17:46Z</time></trkpt>
<trkpt lat="30.065488" lon="101.809334">
<time>2015-08-06T02:17:47Z</time></trkpt>
<trkpt lat="30.065608" lon="101.809254">
<time>2015-08-06T02:17:48Z</time></trkpt>
<trkpt lat="30.065978" lon="101.808983">
<time>2015-08-06T02:17:49Z</time></trkpt>
<trkpt lat="30.066138" lon="101.808873">
<time>2015-08-06T02:17:50Z</time></trkpt>
<trkpt lat="30.066267" lon="101.808773">
<time>2015-08-06T02:17:51Z</time></trkpt>
<trkpt lat="30.066357" lon="101.808703">
<time>2015-08-06T02:17:52Z</time></trkpt>
<trkpt lat="30.066547" lon="101.808542">
<time>2015-08-06T02:17:53Z</time></trkpt>
<trkpt lat="30.066637" lon="101.808452">
<time>2015-08-06T02:17:54Z</time></trkpt>
<trkpt lat="30.066727" lon="101.808382">
<time>2015-08-06T02:17:55Z</time></trkpt>
<trkpt lat="30.066817" lon="101.808312">
<time>2015-08-06T02:17:56Z</time></trkpt>
<trkpt lat="30.066877" lon="101.808272">
<time>2015-08-06T02:17:57Z</time></trkpt>
<trkpt lat="30.066956" lon="101.808231">
<time>2015-08-06T02:17:58Z</time></trkpt>
<trkpt lat="30.068256" lon="101.80771">
<time>2015-08-06T02:17:59Z</time></trkpt>
<trkpt lat="30.068815" lon="101.80751">
<time>2015-08-06T02:18:00Z</time></trkpt>
<trkpt lat="30.069075" lon="101.80745">
<time>2015-08-06T02:18:01Z</time></trkpt>
<trkpt lat="30.069165" lon="101.807419">
<time>2015-08-06T02:18:02Z</time></trkpt>
<trkpt lat="30.069295" lon="101.807389">
<time>2015-08-06T02:18:03Z</time></trkpt>
<trkpt lat="30.069395" lon="101.807379">
<time>2015-08-06T02:18:04Z</time></trkpt>
<trkpt lat="30.069585" lon="101.807349">
<time>2015-08-06T02:18:05Z</time></trkpt>
<trkpt lat="30.069765" lon="101.807339">
<time>2015-08-06T02:18:06Z</time></trkpt>
<trkpt lat="30.070065" lon="101.807329">
<time>2015-08-06T02:18:07Z</time></trkpt>
<trkpt lat="30.070425" lon="101.807289">
<time>2015-08-06T02:18:08Z</time></trkpt>
<trkpt lat="30.070655" lon="101.807249">
<time>2015-08-06T02:18:09Z</time></trkpt>
<trkpt lat="30.071165" lon="101.807149">
<time>2015-08-06T02:18:10Z</time></trkpt>
<trkpt lat="30.071245" lon="101.807139">
<time>2015-08-06T02:18:11Z</time></trkpt>
<trkpt lat="30.071315" lon="101.807129">
<time>2015-08-06T02:18:12Z</time></trkpt>
<trkpt lat="30.071375" lon="101.807129">
<time>2015-08-06T02:18:13Z</time></trkpt>
<trkpt lat="30.071445" lon="101.807129">
<time>2015-08-06T02:18:14Z</time></trkpt>
<trkpt lat="30.071515" lon="101.807139">
<time>2015-08-06T02:18:15Z</time></trkpt>
<trkpt lat="30.071765" lon="101.807179">
<time>2015-08-06T02:18:16Z</time></trkpt>
<trkpt lat="30.072095" lon="101.807219">
<time>2015-08-06T02:18:17Z</time></trkpt>
<trkpt lat="30.072245" lon="101.807239">
<time>2015-08-06T02:18:18Z</time></trkpt>
<trkpt lat="30.072545" lon="101.807229">
<time>2015-08-06T02:18:19Z</time></trkpt>
<trkpt lat="30.073315" lon="101.807129">
<time>2015-08-06T02:18:20Z</time></trkpt>
<trkpt lat="30.074024" lon="101.807069">
<time>2015-08-06T02:18:21Z</time></trkpt>
<trkpt lat="30.074345" lon="101.807109">
<time>2015-08-06T02:18:22Z</time></trkpt>
<trkpt lat="30.074545" lon="101.807149">
<time>2015-08-06T02:18:23Z</time></trkpt>
<trkpt lat="30.074775" lon="101.807229">
<time>2015-08-06T02:18:24Z</time></trkpt>
<trkpt lat="30.075165" lon="101.807499">
<time>2015-08-06T02:18:25Z</time></trkpt>
<trkpt lat="30.076157" lon="101.808291">
<time>2015-08-06T02:18:26Z</time></trkpt>
<trkpt lat="30.076247" lon="101.808331">
<time>2015-08-06T02:18:27Z</time></trkpt>
<trkpt lat="30.076347" lon="101.808361">
<time>2015-08-06T02:18:28Z</time></trkpt>
<trkpt lat="30.076407" lon="101.808371">
<time>2015-08-06T02:18:29Z</time></trkpt>
<trkpt lat="30.076467" lon="101.808351">
<time>2015-08-06T02:18:30Z</time></trkpt>
<trkpt lat="30.076497" lon="101.808331">
<time>2015-08-06T02:18:31Z</time></trkpt>
<trkpt lat="30.076517" lon="101.808291">
<time>2015-08-06T02:18:32Z</time></trkpt>
<trkpt lat="30.076527" lon="101.808241">
<time>2015-08-06T02:18:33Z</time></trkpt>
<trkpt lat="30.076526" lon="101.808191">
<time>2015-08-06T02:18:34Z</time></trkpt>
<trkpt lat="30.076506" lon="101.808151">
<time>2015-08-06T02:18:35Z</time></trkpt>
<trkpt lat="30.076476" lon="101.808091">
<time>2015-08-06T02:18:36Z</time></trkpt>
<trkpt lat="30.076386" lon="101.807981">
<time>2015-08-06T02:18:37Z</time></trkpt>
<trkpt lat="30.076216" lon="101.80778">
<time>2015-08-06T02:18:38Z</time></trkpt>
<trkpt lat="30.075534" lon="101.806928">
<time>2015-08-06T02:18:39Z</time></trkpt>
<trkpt lat="30.074492" lon="101.805876">
<time>2015-08-06T02:18:40Z</time></trkpt>
<trkpt lat="30.074202" lon="101.805545">
<time>2015-08-06T02:18:41Z</time></trkpt>
<trkpt lat="30.074132" lon="101.805415">
<time>2015-08-06T02:18:42Z</time></trkpt>
<trkpt lat="30.074111" lon="101.805285">
<time>2015-08-06T02:18:43Z</time></trkpt>
<trkpt lat="30.074141" lon="101.805164">
<time>2015-08-06T02:18:44Z</time></trkpt>
<trkpt lat="30.074211" lon="101.805094">
<time>2015-08-06T02:18:45Z</time></trkpt>
<trkpt lat="30.074291" lon="101.805024">
<time>2015-08-06T02:18:46Z</time></trkpt>
<trkpt lat="30.074361" lon="101.805004">
<time>2015-08-06T02:18:47Z</time></trkpt>
<trkpt lat="30.074431" lon="101.804994">
<time>2015-08-06T02:18:48Z</time></trkpt>
<trkpt lat="30.074511" lon="101.805004">
<time>2015-08-06T02:18:49Z</time></trkpt>
<trkpt lat="30.075992" lon="101.805355">
<time>2015-08-06T02:18:50Z</time></trkpt>
<trkpt lat="30.076162" lon="101.805385">
<time>2015-08-06T02:18:51Z</time></trkpt>
<trkpt lat="30.076262" lon="101.805395">
<time>2015-08-06T02:18:52Z</time></trkpt>
<trkpt lat="30.076362" lon="101.805395">
<time>2015-08-06T02:18:53Z</time></trkpt>
<trkpt lat="30.076412" lon="101.805375">
<time>2015-08-06T02:18:54Z</time></trkpt>
<trkpt lat="30.076481" lon="101.805325">
<time>2015-08-06T02:18:55Z</time></trkpt>
<trkpt lat="30.076541" lon="101.805264">
<time>2015-08-06T02:18:56Z</time></trkpt>
<trkpt lat="30.076581" lon="101.805204">
<time>2015-08-06T02:18:57Z</time></trkpt>
<trkpt lat="30.076601" lon="101.805124">
<time>2015-08-06T02:18:58Z</time></trkpt>
<trkpt lat="30.076611" lon="101.805044">
<time>2015-08-06T02:18:59Z</time></trkpt>
<trkpt lat="30.076611" lon="101.804974">
<time>2015-08-06T02:19:00Z</time></trkpt>
<trkpt lat="30.076581" lon="101.804904">
<time>2015-08-06T02:19:01Z</time></trkpt>
<trkpt lat="30.076531" lon="101.804843">
<time>2015-08-06T02:19:02Z</time></trkpt>
<trkpt lat="30.076451" lon="101.804783">
<time>2015-08-06T02:19:03Z</time></trkpt>
<trkpt lat="30.0763" lon="101.804713">
<time>2015-08-06T02:19:04Z</time></trkpt>
<trkpt lat="30.07595" lon="101.804613">
<time>2015-08-06T02:19:05Z</time></trkpt>
<trkpt lat="30.07538" lon="101.804493">
<time>2015-08-06T02:19:06Z</time></trkpt>
<trkpt lat="30.07475" lon="101.804352">
<time>2015-08-06T02:19:07Z</time></trkpt>
<trkpt lat="30.07461" lon="101.804322">
<time>2015-08-06T02:19:08Z</time></trkpt>
<trkpt lat="30.07451" lon="101.804282">
<time>2015-08-06T02:19:09Z</time></trkpt>
<trkpt lat="30.07444" lon="101.804232">
<time>2015-08-06T02:19:10Z</time></trkpt>
<trkpt lat="30.074379" lon="101.804172">
<time>2015-08-06T02:19:11Z</time></trkpt>
<trkpt lat="30.074339" lon="101.804072">
<time>2015-08-06T02:19:12Z</time></trkpt>
<trkpt lat="30.074329" lon="101.803861">
<time>2015-08-06T02:19:13Z</time></trkpt>
<trkpt lat="30.074388" lon="101.803501">
<time>2015-08-06T02:19:14Z</time></trkpt>
<trkpt lat="30.074458" lon="101.8032">
<time>2015-08-06T02:19:15Z</time></trkpt>
<trkpt lat="30.074517" lon="101.802949">
<time>2015-08-06T02:19:16Z</time></trkpt>
<trkpt lat="30.074547" lon="101.802789">
<time>2015-08-06T02:19:17Z</time></trkpt>
<trkpt lat="30.074557" lon="101.802679">
<time>2015-08-06T02:19:18Z</time></trkpt>
<trkpt lat="30.074557" lon="101.802599">
<time>2015-08-06T02:19:19Z</time></trkpt>
<trkpt lat="30.074557" lon="101.802508">
<time>2015-08-06T02:19:20Z</time></trkpt>
<trkpt lat="30.074536" lon="101.802118">
<time>2015-08-06T02:19:21Z</time></trkpt>
<trkpt lat="30.074495" lon="101.801185">
<time>2015-08-06T02:19:22Z</time></trkpt>
<trkpt lat="30.074444" lon="101.800624">
<time>2015-08-06T02:19:23Z</time></trkpt>
<trkpt lat="30.074443" lon="101.800394">
<time>2015-08-06T02:19:24Z</time></trkpt>
<trkpt lat="30.074453" lon="101.800233">
<time>2015-08-06T02:19:25Z</time></trkpt>
<trkpt lat="30.074473" lon="101.800073">
<time>2015-08-06T02:19:26Z</time></trkpt>
<trkpt lat="30.074512" lon="101.799803">
<time>2015-08-06T02:19:27Z</time></trkpt>
<trkpt lat="30.074552" lon="101.799632">
<time>2015-08-06T02:19:28Z</time></trkpt>
<trkpt lat="30.074572" lon="101.799562">
<time>2015-08-06T02:19:29Z</time></trkpt>
<trkpt lat="30.074602" lon="101.799502">
<time>2015-08-06T02:19:30Z</time></trkpt>
<trkpt lat="30.074632" lon="101.799462">
<time>2015-08-06T02:19:31Z</time></trkpt>
<trkpt lat="30.074662" lon="101.799412">
<time>2015-08-06T02:19:32Z</time></trkpt>
<trkpt lat="30.074682" lon="101.799392">
<time>2015-08-06T02:19:33Z</time></trkpt>
<trkpt lat="30.074712" lon="101.799362">
<time>2015-08-06T02:19:34Z</time></trkpt>
<trkpt lat="30.074742" lon="101.799342">
<time>2015-08-06T02:19:35Z</time></trkpt>
<trkpt lat="30.074771" lon="101.799322">
<time>2015-08-06T02:19:36Z</time></trkpt>
<trkpt lat="30.074801" lon="101.799311">
<time>2015-08-06T02:19:37Z</time></trkpt>
<trkpt lat="30.074831" lon="101.799301">
<time>2015-08-06T02:19:38Z</time></trkpt>
<trkpt lat="30.074861" lon="101.799301">
<time>2015-08-06T02:19:39Z</time></trkpt>
<trkpt lat="30.074911" lon="101.799291">
<time>2015-08-06T02:19:40Z</time></trkpt>
<trkpt lat="30.074951" lon="101.799301">
<time>2015-08-06T02:19:41Z</time></trkpt>
<trkpt lat="30.075021" lon="101.799311">
<time>2015-08-06T02:19:42Z</time></trkpt>
<trkpt lat="30.075182" lon="101.799362">
<time>2015-08-06T02:19:43Z</time></trkpt>
<trkpt lat="30.075612" lon="101.799512">
<time>2015-08-06T02:19:44Z</time></trkpt>
<trkpt lat="30.075872" lon="101.799582">
<time>2015-08-06T02:19:45Z</time></trkpt>
<trkpt lat="30.075982" lon="101.799592">
<time>2015-08-06T02:19:46Z</time></trkpt>
<trkpt lat="30.076042" lon="101.799592">
<time>2015-08-06T02:19:47Z</time></trkpt>
<trkpt lat="30.076142" lon="101.799592">
<time>2015-08-06T02:19:48Z</time></trkpt>
<trkpt lat="30.076302" lon="101.799572">
<time>2015-08-06T02:19:49Z</time></trkpt>
<trkpt lat="30.076712" lon="101.799502">
<time>2015-08-06T02:19:50Z</time></trkpt>
<trkpt lat="30.076932" lon="101.799462">
<time>2015-08-06T02:19:51Z</time></trkpt>
<trkpt lat="30.077092" lon="101.799432">
<time>2015-08-06T02:19:52Z</time></trkpt>
<trkpt lat="30.077252" lon="101.799382">
<time>2015-08-06T02:19:53Z</time></trkpt>
<trkpt lat="30.077432" lon="101.799311">
<time>2015-08-06T02:19:54Z</time></trkpt>
<trkpt lat="30.077591" lon="101.799231">
<time>2015-08-06T02:19:55Z</time></trkpt>
<trkpt lat="30.077751" lon="101.799131">
<time>2015-08-06T02:19:56Z</time></trkpt>
<trkpt lat="30.077871" lon="101.799051">
<time>2015-08-06T02:19:57Z</time></trkpt>
<trkpt lat="30.078001" lon="101.798941">
<time>2015-08-06T02:19:58Z</time></trkpt>
<trkpt lat="30.078141" lon="101.7988">
<time>2015-08-06T02:19:59Z</time></trkpt>
<trkpt lat="30.07826" lon="101.79868">
<time>2015-08-06T02:20:00Z</time></trkpt>
<trkpt lat="30.07838" lon="101.79852">
<time>2015-08-06T02:20:01Z</time></trkpt>
<trkpt lat="30.0785" lon="101.798329">
<time>2015-08-06T02:20:02Z</time></trkpt>
<trkpt lat="30.07859" lon="101.798219">
<time>2015-08-06T02:20:03Z</time></trkpt>
<trkpt lat="30.07864" lon="101.798169">
<time>2015-08-06T02:20:04Z</time></trkpt>
<trkpt lat="30.07868" lon="101.798149">
<time>2015-08-06T02:20:05Z</time></trkpt>
<trkpt lat="30.07873" lon="101.798119">
<time>2015-08-06T02:20:06Z</time></trkpt>
<trkpt lat="30.07878" lon="101.798089">
<time>2015-08-06T02:20:07Z</time></trkpt>
<trkpt lat="30.07882" lon="101.798069">
<time>2015-08-06T02:20:08Z</time></trkpt>
<trkpt lat="30.07888" lon="101.798059">
<time>2015-08-06T02:20:09Z</time></trkpt>
<trkpt lat="30.078949" lon="101.798039">
<time>2015-08-06T02:20:10Z</time></trkpt>
<trkpt lat="30.079229" lon="101.797999">
<time>2015-08-06T02:20:11Z</time></trkpt>
<trkpt lat="30.079389" lon="101.797969">
<time>2015-08-06T02:20:12Z</time></trkpt>
<trkpt lat="30.079499" lon="101.797918">
<time>2015-08-06T02:20:13Z</time></trkpt>
<trkpt lat="30.079659" lon="101.797838">
<time>2015-08-06T02:20:14Z</time></trkpt>
<trkpt lat="30.079789" lon="101.797748">
<time>2015-08-06T02:20:15Z</time></trkpt>
<trkpt lat="30.080598" lon="101.796886">
<time>2015-08-06T02:20:16Z</time></trkpt>
<trkpt lat="30.080658" lon="101.796806">
<time>2015-08-06T02:20:17Z</time></trkpt>
<trkpt lat="30.080717" lon="101.796716">
<time>2015-08-06T02:20:18Z</time></trkpt>
<trkpt lat="30.080727" lon="101.796616">
<time>2015-08-06T02:20:19Z</time></trkpt>
<trkpt lat="30.080727" lon="101.796566">
<time>2015-08-06T02:20:20Z</time></trkpt>
<trkpt lat="30.080717" lon="101.796515">
<time>2015-08-06T02:20:21Z</time></trkpt>
<trkpt lat="30.080697" lon="101.796455">
<time>2015-08-06T02:20:22Z</time></trkpt>
<trkpt lat="30.080647" lon="101.796365">
<time>2015-08-06T02:20:23Z</time></trkpt>
<trkpt lat="30.080587" lon="101.796305">
<time>2015-08-06T02:20:24Z</time></trkpt>
<trkpt lat="30.080537" lon="101.796275">
<time>2015-08-06T02:20:25Z</time></trkpt>
<trkpt lat="30.080497" lon="101.796265">
<time>2015-08-06T02:20:26Z</time></trkpt>
<trkpt lat="30.080457" lon="101.796255">
<time>2015-08-06T02:20:27Z</time></trkpt>
<trkpt lat="30.080387" lon="101.796275">
<time>2015-08-06T02:20:28Z</time></trkpt>
<trkpt lat="30.080347" lon="101.796295">
<time>2015-08-06T02:20:29Z</time></trkpt>
<trkpt lat="30.080277" lon="101.796335">
<time>2015-08-06T02:20:30Z</time></trkpt>
<trkpt lat="30.079987" lon="101.796596">
<time>2015-08-06T02:20:31Z</time></trkpt>
<trkpt lat="30.079798" lon="101.796776">
<time>2015-08-06T02:20:32Z</time></trkpt>
<trkpt lat="30.079718" lon="101.796846">
<time>2015-08-06T02:20:33Z</time></trkpt>
<trkpt lat="30.079658" lon="101.796876">
<time>2015-08-06T02:20:34Z</time></trkpt>
<trkpt lat="30.079588" lon="101.796906">
<time>2015-08-06T02:20:35Z</time></trkpt>
<trkpt lat="30.079498" lon="101.796916">
<time>2015-08-06T02:20:36Z</time></trkpt>
<trkpt lat="30.079428" lon="101.796916">
<time>2015-08-06T02:20:37Z</time></trkpt>
<trkpt lat="30.079358" lon="101.796906">
<time>2015-08-06T02:20:38Z</time></trkpt>
<trkpt lat="30.079268" lon="101.796876">
<time>2015-08-06T02:20:39Z</time></trkpt>
<trkpt lat="30.079078" lon="101.796806">
<time>2015-08-06T02:20:40Z</time></trkpt>
<trkpt lat="30.078977" lon="101.796766">
<time>2015-08-06T02:20:41Z</time></trkpt>
<trkpt lat="30.078907" lon="101.796756">
<time>2015-08-06T02:20:42Z</time></trkpt>
<trkpt lat="30.078837" lon="101.796756">
<time>2015-08-06T02:20:43Z</time></trkpt>
<trkpt lat="30.078777" lon="101.796756">
<time>2015-08-06T02:20:44Z</time></trkpt>
<trkpt lat="30.078708" lon="101.796776">
<time>2015-08-06T02:20:45Z</time></trkpt>
<trkpt lat="30.078638" lon="101.796816">
<time>2015-08-06T02:20:46Z</time></trkpt>
<trkpt lat="30.078578" lon="101.796846">
<time>2015-08-06T02:20:47Z</time></trkpt>
<trkpt lat="30.078388" lon="101.796966">
<time>2015-08-06T02:20:48Z</time></trkpt>
<trkpt lat="30.078148" lon="101.797147">
<time>2015-08-06T02:20:49Z</time></trkpt>
<trkpt lat="30.077958" lon="101.797267">
<time>2015-08-06T02:20:50Z</time></trkpt>
<trkpt lat="30.077868" lon="101.797317">
<time>2015-08-06T02:20:51Z</time></trkpt>
<trkpt lat="30.077758" lon="101.797357">
<time>2015-08-06T02:20:52Z</time></trkpt>
<trkpt lat="30.077708" lon="101.797367">
<time>2015-08-06T02:20:53Z</time></trkpt>
<trkpt lat="30.077618" lon="101.797377">
<time>2015-08-06T02:20:54Z</time></trkpt>
<trkpt lat="30.077498" lon="101.797377">
<time>2015-08-06T02:20:55Z</time></trkpt>
<trkpt lat="30.077228" lon="101.797367">
<time>2015-08-06T02:20:56Z</time></trkpt>
<trkpt lat="30.076878" lon="101.797337">
<time>2015-08-06T02:20:57Z</time></trkpt>
<trkpt lat="30.076138" lon="101.797247">
<time>2015-08-06T02:20:58Z</time></trkpt>
<trkpt lat="30.075668" lon="101.797207">
<time>2015-08-06T02:20:59Z</time></trkpt>
<trkpt lat="30.075258" lon="101.797277">
<time>2015-08-06T02:21:00Z</time></trkpt>
<trkpt lat="30.074628" lon="101.797418">
<time>2015-08-06T02:21:01Z</time></trkpt>
<trkpt lat="30.074558" lon="101.797428">
<time>2015-08-06T02:21:02Z</time></trkpt>
<trkpt lat="30.074529" lon="101.797438">
<time>2015-08-06T02:21:03Z</time></trkpt>
<trkpt lat="30.074499" lon="101.797438">
<time>2015-08-06T02:21:04Z</time></trkpt>
<trkpt lat="30.074468" lon="101.797428">
<time>2015-08-06T02:21:05Z</time></trkpt>
<trkpt lat="30.074448" lon="101.797418">
<time>2015-08-06T02:21:06Z</time></trkpt>
<trkpt lat="30.074428" lon="101.797398">
<time>2015-08-06T02:21:07Z</time></trkpt>
<trkpt lat="30.074408" lon="101.797377">
<time>2015-08-06T02:21:08Z</time></trkpt>
<trkpt lat="30.074398" lon="101.797347">
<time>2015-08-06T02:21:09Z</time></trkpt>
<trkpt lat="30.074388" lon="101.797307">
<time>2015-08-06T02:21:10Z</time></trkpt>
<trkpt lat="30.074398" lon="101.797277">
<time>2015-08-06T02:21:11Z</time></trkpt>
<trkpt lat="30.074408" lon="101.797237">
<time>2015-08-06T02:21:12Z</time></trkpt>
<trkpt lat="30.074418" lon="101.797217">
<time>2015-08-06T02:21:13Z</time></trkpt>
<trkpt lat="30.074438" lon="101.797187">
<time>2015-08-06T02:21:14Z</time></trkpt>
<trkpt lat="30.074468" lon="101.797167">
<time>2015-08-06T02:21:15Z</time></trkpt>
<trkpt lat="30.074488" lon="101.797147">
<time>2015-08-06T02:21:16Z</time></trkpt>
<trkpt lat="30.074528" lon="101.797127">
<time>2015-08-06T02:21:17Z</time></trkpt>
<trkpt lat="30.074578" lon="101.797117">
<time>2015-08-06T02:21:18Z</time></trkpt>
<trkpt lat="30.074728" lon="101.797077">
<time>2015-08-06T02:21:19Z</time></trkpt>
<trkpt lat="30.075088" lon="101.796987">
<time>2015-08-06T02:21:20Z</time></trkpt>
<trkpt lat="30.075218" lon="101.796957">
<time>2015-08-06T02:21:21Z</time></trkpt>
<trkpt lat="30.075278" lon="101.796927">
<time>2015-08-06T02:21:22Z</time></trkpt>
<trkpt lat="30.075318" lon="101.796896">
<time>2015-08-06T02:21:23Z</time></trkpt>
<trkpt lat="30.075348" lon="101.796876">
<time>2015-08-06T02:21:24Z</time></trkpt>
<trkpt lat="30.075378" lon="101.796846">
<time>2015-08-06T02:21:25Z</time></trkpt>
<trkpt lat="30.075398" lon="101.796806">
<time>2015-08-06T02:21:26Z</time></trkpt>
<trkpt lat="30.075427" lon="101.796766">
<time>2015-08-06T02:21:27Z</time></trkpt>
<trkpt lat="30.075457" lon="101.796706">
<time>2015-08-06T02:21:28Z</time></trkpt>
<trkpt lat="30.075477" lon="101.796646">
<time>2015-08-06T02:21:29Z</time></trkpt>
<trkpt lat="30.075617" lon="101.796345">
<time>2015-08-06T02:21:30Z</time></trkpt>
<trkpt lat="30.075746" lon="101.795834">
<time>2015-08-06T02:21:31Z</time></trkpt>
<trkpt lat="30.075925" lon="101.795053">
<time>2015-08-06T02:21:32Z</time></trkpt>
<trkpt lat="30.075975" lon="101.794902">
<time>2015-08-06T02:21:33Z</time></trkpt>
<trkpt lat="30.076024" lon="101.794702">
<time>2015-08-06T02:21:34Z</time></trkpt>
<trkpt lat="30.076094" lon="101.794381">
<time>2015-08-06T02:21:35Z</time></trkpt>
<trkpt lat="30.076124" lon="101.794211">
<time>2015-08-06T02:21:36Z</time></trkpt>
<trkpt lat="30.076153" lon="101.794061">
<time>2015-08-06T02:21:37Z</time></trkpt>
<trkpt lat="30.076163" lon="101.79393">
<time>2015-08-06T02:21:38Z</time></trkpt>
<trkpt lat="30.076173" lon="101.79382">
<time>2015-08-06T02:21:39Z</time></trkpt>
<trkpt lat="30.076173" lon="101.79374">
<time>2015-08-06T02:21:40Z</time></trkpt>
<trkpt lat="30.076163" lon="101.79363">
<time>2015-08-06T02:21:41Z</time></trkpt>
<trkpt lat="30.076142" lon="101.793389">
<time>2015-08-06T02:21:42Z</time></trkpt>
<trkpt lat="30.076112" lon="101.793099">
<time>2015-08-06T02:21:43Z</time></trkpt>
<trkpt lat="30.076102" lon="101.792959">
<time>2015-08-06T02:21:44Z</time></trkpt>
<trkpt lat="30.076112" lon="101.792898">
<time>2015-08-06T02:21:45Z</time></trkpt>
<trkpt lat="30.076112" lon="101.792838">
<time>2015-08-06T02:21:46Z</time></trkpt>
<trkpt lat="30.076121" lon="101.792788">
<time>2015-08-06T02:21:47Z</time></trkpt>
<trkpt lat="30.076141" lon="101.792738">
<time>2015-08-06T02:21:48Z</time></trkpt>
<trkpt lat="30.076151" lon="101.792708">
<time>2015-08-06T02:21:49Z</time></trkpt>
<trkpt lat="30.076171" lon="101.792668">
<time>2015-08-06T02:21:50Z</time></trkpt>
<trkpt lat="30.076201" lon="101.792618">
<time>2015-08-06T02:21:51Z</time></trkpt>
<trkpt lat="30.076221" lon="101.792588">
<time>2015-08-06T02:21:52Z</time></trkpt>
<trkpt lat="30.076251" lon="101.792558">
<time>2015-08-06T02:21:53Z</time></trkpt>
<trkpt lat="30.076291" lon="101.792528">
<time>2015-08-06T02:21:54Z</time></trkpt>
<trkpt lat="30.076361" lon="101.792468">
<time>2015-08-06T02:21:55Z</time></trkpt>
<trkpt lat="30.076551" lon="101.792337">
<time>2015-08-06T02:21:56Z</time></trkpt>
<trkpt lat="30.07702" lon="101.792017">
<time>2015-08-06T02:21:57Z</time></trkpt>
<trkpt lat="30.07713" lon="101.791937">
<time>2015-08-06T02:21:58Z</time></trkpt>
<trkpt lat="30.07718" lon="101.791886">
<time>2015-08-06T02:21:59Z</time></trkpt>
<trkpt lat="30.07722" lon="101.791846">
<time>2015-08-06T02:22:00Z</time></trkpt>
<trkpt lat="30.07725" lon="101.791796">
<time>2015-08-06T02:22:01Z</time></trkpt>
<trkpt lat="30.07726" lon="101.791766">
<time>2015-08-06T02:22:02Z</time></trkpt>
<trkpt lat="30.07728" lon="101.791716">
<time>2015-08-06T02:22:03Z</time></trkpt>
<trkpt lat="30.07729" lon="101.791676">
<time>2015-08-06T02:22:04Z</time></trkpt>
<trkpt lat="30.0773" lon="101.791646">
<time>2015-08-06T02:22:05Z</time></trkpt>
<trkpt lat="30.0773" lon="101.791596">
<time>2015-08-06T02:22:06Z</time></trkpt>
<trkpt lat="30.07729" lon="101.791556">
<time>2015-08-06T02:22:07Z</time></trkpt>
<trkpt lat="30.07728" lon="101.791526">
<time>2015-08-06T02:22:08Z</time></trkpt>
<trkpt lat="30.07727" lon="101.791496">
<time>2015-08-06T02:22:09Z</time></trkpt>
<trkpt lat="30.07725" lon="101.791456">
<time>2015-08-06T02:22:10Z</time></trkpt>
<trkpt lat="30.077209" lon="101.791386">
<time>2015-08-06T02:22:11Z</time></trkpt>
<trkpt lat="30.076909" lon="101.790935">
<time>2015-08-06T02:22:12Z</time></trkpt>
<trkpt lat="30.076748" lon="101.790694">
<time>2015-08-06T02:22:13Z</time></trkpt>
<trkpt lat="30.076618" lon="101.790484">
<time>2015-08-06T02:22:14Z</time></trkpt>
<trkpt lat="30.076438" lon="101.790143">
<time>2015-08-06T02:22:15Z</time></trkpt>
<trkpt lat="30.076317" lon="101.789923">
<time>2015-08-06T02:22:16Z</time></trkpt>
<trkpt lat="30.076237" lon="101.789823">
<time>2015-08-06T02:22:17Z</time></trkpt>
<trkpt lat="30.076177" lon="101.789752">
<time>2015-08-06T02:22:18Z</time></trkpt>
<trkpt lat="30.076137" lon="101.789712">
<time>2015-08-06T02:22:19Z</time></trkpt>
<trkpt lat="30.076087" lon="101.789672">
<time>2015-08-06T02:22:20Z</time></trkpt>
<trkpt lat="30.076047" lon="101.789652">
<time>2015-08-06T02:22:21Z</time></trkpt>
<trkpt lat="30.076027" lon="101.789642">
<time>2015-08-06T02:22:22Z</time></trkpt>
<trkpt lat="30.075997" lon="101.789642">
<time>2015-08-06T02:22:23Z</time></trkpt>
<trkpt lat="30.075957" lon="101.789652">
<time>2015-08-06T02:22:24Z</time></trkpt>
<trkpt lat="30.075927" lon="101.789652">
<time>2015-08-06T02:22:25Z</time></trkpt>
<trkpt lat="30.075897" lon="101.789672">
<time>2015-08-06T02:22:26Z</time></trkpt>
<trkpt lat="30.075857" lon="101.789702">
<time>2015-08-06T02:22:27Z</time></trkpt>
<trkpt lat="30.075827" lon="101.789722">
<time>2015-08-06T02:22:28Z</time></trkpt>
<trkpt lat="30.075807" lon="101.789752">
<time>2015-08-06T02:22:29Z</time></trkpt>
<trkpt lat="30.075787" lon="101.789773">
<time>2015-08-06T02:22:30Z</time></trkpt>
<trkpt lat="30.075767" lon="101.789813">
<time>2015-08-06T02:22:31Z</time></trkpt>
<trkpt lat="30.075767" lon="101.789853">
<time>2015-08-06T02:22:32Z</time></trkpt>
<trkpt lat="30.075757" lon="101.789933">
<time>2015-08-06T02:22:33Z</time></trkpt>
<trkpt lat="30.075748" lon="101.790073">
<time>2015-08-06T02:22:34Z</time></trkpt>
<trkpt lat="30.075758" lon="101.790414">
<time>2015-08-06T02:22:35Z</time></trkpt>
<trkpt lat="30.075768" lon="101.790654">
<time>2015-08-06T02:22:36Z</time></trkpt>
<trkpt lat="30.075769" lon="101.790734">
<time>2015-08-06T02:22:37Z</time></trkpt>
<trkpt lat="30.075759" lon="101.790814">
<time>2015-08-06T02:22:38Z</time></trkpt>
<trkpt lat="30.075739" lon="101.790885">
<time>2015-08-06T02:22:39Z</time></trkpt>
<trkpt lat="30.075699" lon="101.790975">
<time>2015-08-06T02:22:40Z</time></trkpt>
<trkpt lat="30.075679" lon="101.791035">
<time>2015-08-06T02:22:41Z</time></trkpt>
<trkpt lat="30.075659" lon="101.791055">
<time>2015-08-06T02:22:42Z</time></trkpt>
<trkpt lat="30.075619" lon="101.791095">
<time>2015-08-06T02:22:43Z</time></trkpt>
<trkpt lat="30.075589" lon="101.791125">
<time>2015-08-06T02:22:44Z</time></trkpt>
<trkpt lat="30.075559" lon="101.791145">
<time>2015-08-06T02:22:45Z</time></trkpt>
<trkpt lat="30.075519" lon="101.791165">
<time>2015-08-06T02:22:46Z</time></trkpt>
<trkpt lat="30.075479" lon="101.791185">
<time>2015-08-06T02:22:47Z</time></trkpt>
<trkpt lat="30.075429" lon="101.791195">
<time>2015-08-06T02:22:48Z</time></trkpt>
<trkpt lat="30.075379" lon="101.791205">
<time>2015-08-06T02:22:49Z</time></trkpt>
<trkpt lat="30.075339" lon="101.791205">
<time>2015-08-06T02:22:50Z</time></trkpt>
<trkpt lat="30.075279" lon="101.791185">
<time>2015-08-06T02:22:51Z</time></trkpt>
<trkpt lat="30.075259" lon="101.791185">
<time>2015-08-06T02:22:52Z</time></trkpt>
<trkpt lat="30.075209" lon="101.791155">
<time>2015-08-06T02:22:53Z</time></trkpt>
<trkpt lat="30.075179" lon="101.791135">
<time>2015-08-06T02:22:54Z</time></trkpt>
<trkpt lat="30.075129" lon="101.791095">
<time>2015-08-06T02:22:55Z</time></trkpt>
<trkpt lat="30.075069" lon="101.791035">
<time>2015-08-06T02:22:56Z</time></trkpt>
<trkpt lat="30.074999" lon="101.790955">
<time>2015-08-06T02:22:57Z</time></trkpt>
<trkpt lat="30.074899" lon="101.790825">
<time>2015-08-06T02:22:58Z</time></trkpt>
<trkpt lat="30.074839" lon="101.790754">
<time>2015-08-06T02:22:59Z</time></trkpt>
<trkpt lat="30.074788" lon="101.790714">
<time>2015-08-06T02:23:00Z</time></trkpt>
<trkpt lat="30.074748" lon="101.790684">
<time>2015-08-06T02:23:01Z</time></trkpt>
<trkpt lat="30.074718" lon="101.790664">
<time>2015-08-06T02:23:02Z</time></trkpt>
<trkpt lat="30.074678" lon="101.790634">
<time>2015-08-06T02:23:03Z</time></trkpt>
<trkpt lat="30.074648" lon="101.790624">
<time>2015-08-06T02:23:04Z</time></trkpt>
<trkpt lat="30.074608" lon="101.790624">
<time>2015-08-06T02:23:05Z</time></trkpt>
<trkpt lat="30.074578" lon="101.790624">
<time>2015-08-06T02:23:06Z</time></trkpt>
<trkpt lat="30.074538" lon="101.790624">
<time>2015-08-06T02:23:07Z</time></trkpt>
<trkpt lat="30.074518" lon="101.790624">
<time>2015-08-06T02:23:08Z</time></trkpt>
<trkpt lat="30.074488" lon="101.790634">
<time>2015-08-06T02:23:09Z</time></trkpt>
<trkpt lat="30.074458" lon="101.790654">
<time>2015-08-06T02:23:10Z</time></trkpt>
<trkpt lat="30.074438" lon="101.790674">
<time>2015-08-06T02:23:11Z</time></trkpt>
<trkpt lat="30.074418" lon="101.790694">
<time>2015-08-06T02:23:12Z</time></trkpt>
<trkpt lat="30.074399" lon="101.790734">
<time>2015-08-06T02:23:13Z</time></trkpt>
<trkpt lat="30.074379" lon="101.790774">
<time>2015-08-06T02:23:14Z</time></trkpt>
<trkpt lat="30.074359" lon="101.790815">
<time>2015-08-06T02:23:15Z</time></trkpt>
<trkpt lat="30.074349" lon="101.790855">
<time>2015-08-06T02:23:16Z</time></trkpt>
<trkpt lat="30.074329" lon="101.791035">
<time>2015-08-06T02:23:17Z</time></trkpt>
<trkpt lat="30.074319" lon="101.791235">
<time>2015-08-06T02:23:18Z</time></trkpt>
<trkpt lat="30.07431" lon="101.791476">
<time>2015-08-06T02:23:19Z</time></trkpt>
<trkpt lat="30.07431" lon="101.791586">
<time>2015-08-06T02:23:20Z</time></trkpt>
<trkpt lat="30.07431" lon="101.791756">
<time>2015-08-06T02:23:21Z</time></trkpt>
<trkpt lat="30.07432" lon="101.792057">
<time>2015-08-06T02:23:22Z</time></trkpt>
<trkpt lat="30.074311" lon="101.792137">
<time>2015-08-06T02:23:23Z</time></trkpt>
<trkpt lat="30.074301" lon="101.792177">
<time>2015-08-06T02:23:24Z</time></trkpt>
<trkpt lat="30.074291" lon="101.792227">
<time>2015-08-06T02:23:25Z</time></trkpt>
<trkpt lat="30.074281" lon="101.792277">
<time>2015-08-06T02:23:26Z</time></trkpt>
<trkpt lat="30.074261" lon="101.792317">
<time>2015-08-06T02:23:27Z</time></trkpt>
<trkpt lat="30.074251" lon="101.792347">
<time>2015-08-06T02:23:28Z</time></trkpt>
<trkpt lat="30.074231" lon="101.792388">
<time>2015-08-06T02:23:29Z</time></trkpt>
<trkpt lat="30.074211" lon="101.792418">
<time>2015-08-06T02:23:30Z</time></trkpt>
<trkpt lat="30.074181" lon="101.792448">
<time>2015-08-06T02:23:31Z</time></trkpt>
<trkpt lat="30.074161" lon="101.792468">
<time>2015-08-06T02:23:32Z</time></trkpt>
<trkpt lat="30.074121" lon="101.792498">
<time>2015-08-06T02:23:33Z</time></trkpt>
<trkpt lat="30.074081" lon="101.792518">
<time>2015-08-06T02:23:34Z</time></trkpt>
<trkpt lat="30.074041" lon="101.792528">
<time>2015-08-06T02:23:35Z</time></trkpt>
<trkpt lat="30.074001" lon="101.792538">
<time>2015-08-06T02:23:36Z</time></trkpt>
<trkpt lat="30.073951" lon="101.792528">
<time>2015-08-06T02:23:37Z</time></trkpt>
<trkpt lat="30.073881" lon="101.792518">
<time>2015-08-06T02:23:38Z</time></trkpt>
<trkpt lat="30.073661" lon="101.792458">
<time>2015-08-06T02:23:39Z</time></trkpt>
<trkpt lat="30.073401" lon="101.792368">
<time>2015-08-06T02:23:40Z</time></trkpt>
<trkpt lat="30.073131" lon="101.792277">
<time>2015-08-06T02:23:41Z</time></trkpt>
<trkpt lat="30.073011" lon="101.792237">
<time>2015-08-06T02:23:42Z</time></trkpt>
<trkpt lat="30.072911" lon="101.792197">
<time>2015-08-06T02:23:43Z</time></trkpt>
<trkpt lat="30.072861" lon="101.792167">
<time>2015-08-06T02:23:44Z</time></trkpt>
<trkpt lat="30.072811" lon="101.792137">
<time>2015-08-06T02:23:45Z</time></trkpt>
<trkpt lat="30.07278" lon="101.792117">
<time>2015-08-06T02:23:46Z</time></trkpt>
<trkpt lat="30.07275" lon="101.792087">
<time>2015-08-06T02:23:47Z</time></trkpt>
<trkpt lat="30.07263" lon="101.791967">
<time>2015-08-06T02:23:48Z</time></trkpt>
<trkpt lat="30.07234" lon="101.791626">
<time>2015-08-06T02:23:49Z</time></trkpt>
<trkpt lat="30.072099" lon="101.791336">
<time>2015-08-06T02:23:50Z</time></trkpt>
<trkpt lat="30.072039" lon="101.791255">
<time>2015-08-06T02:23:51Z</time></trkpt>
<trkpt lat="30.071979" lon="101.791185">
<time>2015-08-06T02:23:52Z</time></trkpt>
<trkpt lat="30.071929" lon="101.791105">
<time>2015-08-06T02:23:53Z</time></trkpt>
<trkpt lat="30.071889" lon="101.791035">
<time>2015-08-06T02:23:54Z</time></trkpt>
<trkpt lat="30.071859" lon="101.790965">
<time>2015-08-06T02:23:55Z</time></trkpt>
<trkpt lat="30.071819" lon="101.790885">
<time>2015-08-06T02:23:56Z</time></trkpt>
<trkpt lat="30.071809" lon="101.790825">
<time>2015-08-06T02:23:57Z</time></trkpt>
<trkpt lat="30.071799" lon="101.790785">
<time>2015-08-06T02:23:58Z</time></trkpt>
<trkpt lat="30.071789" lon="101.790744">
<time>2015-08-06T02:23:59Z</time></trkpt>
<trkpt lat="30.071788" lon="101.790724">
<time>2015-08-06T02:24:00Z</time></trkpt>
<trkpt lat="30.071788" lon="101.790694">
<time>2015-08-06T02:24:01Z</time></trkpt>
<trkpt lat="30.071798" lon="101.790674">
<time>2015-08-06T02:24:02Z</time></trkpt>
<trkpt lat="30.071808" lon="101.790644">
<time>2015-08-06T02:24:03Z</time></trkpt>
<trkpt lat="30.071818" lon="101.790624">
<time>2015-08-06T02:24:04Z</time></trkpt>
<trkpt lat="30.071828" lon="101.790614">
<time>2015-08-06T02:24:05Z</time></trkpt>
<trkpt lat="30.071848" lon="101.790604">
<time>2015-08-06T02:24:06Z</time></trkpt>
<trkpt lat="30.071878" lon="101.790604">
<time>2015-08-06T02:24:07Z</time></trkpt>
<trkpt lat="30.071888" lon="101.790594">
<time>2015-08-06T02:24:08Z</time></trkpt>
<trkpt lat="30.071908" lon="101.790604">
<time>2015-08-06T02:24:09Z</time></trkpt>
<trkpt lat="30.071918" lon="101.790604">
<time>2015-08-06T02:24:10Z</time></trkpt>
<trkpt lat="30.071938" lon="101.790614">
<time>2015-08-06T02:24:11Z</time></trkpt>
<trkpt lat="30.071948" lon="101.790634">
<time>2015-08-06T02:24:12Z</time></trkpt>
<trkpt lat="30.072038" lon="101.790684">
<time>2015-08-06T02:24:13Z</time></trkpt>
<trkpt lat="30.072569" lon="101.791115">
<time>2015-08-06T02:24:14Z</time></trkpt>
<trkpt lat="30.072689" lon="101.791185">
<time>2015-08-06T02:24:15Z</time></trkpt>
<trkpt lat="30.072789" lon="101.791215">
<time>2015-08-06T02:24:16Z</time></trkpt>
<trkpt lat="30.072899" lon="101.791215">
<time>2015-08-06T02:24:17Z</time></trkpt>
<trkpt lat="30.072959" lon="101.791215">
<time>2015-08-06T02:24:18Z</time></trkpt>
<trkpt lat="30.073009" lon="101.791195">
<time>2015-08-06T02:24:19Z</time></trkpt>
<trkpt lat="30.073049" lon="101.791185">
<time>2015-08-06T02:24:20Z</time></trkpt>
<trkpt lat="30.073099" lon="101.791155">
<time>2015-08-06T02:24:21Z</time></trkpt>
<trkpt lat="30.073129" lon="101.791135">
<time>2015-08-06T02:24:22Z</time></trkpt>
<trkpt lat="30.073169" lon="101.791105">
<time>2015-08-06T02:24:23Z</time></trkpt>
<trkpt lat="30.073209" lon="101.791065">
<time>2015-08-06T02:24:24Z</time></trkpt>
<trkpt lat="30.073249" lon="101.791025">
<time>2015-08-06T02:24:25Z</time></trkpt>
<trkpt lat="30.073279" lon="101.790965">
<time>2015-08-06T02:24:26Z</time></trkpt>
<trkpt lat="30.073329" lon="101.790885">
<time>2015-08-06T02:24:27Z</time></trkpt>
<trkpt lat="30.073369" lon="101.790774">
<time>2015-08-06T02:24:28Z</time></trkpt>
<trkpt lat="30.073418" lon="101.790654">
<time>2015-08-06T02:24:29Z</time></trkpt>
<trkpt lat="30.073468" lon="101.790504">
<time>2015-08-06T02:24:30Z</time></trkpt>
<trkpt lat="30.073488" lon="101.790404">
<time>2015-08-06T02:24:31Z</time></trkpt>
<trkpt lat="30.073518" lon="101.790243">
<time>2015-08-06T02:24:32Z</time></trkpt>
<trkpt lat="30.073537" lon="101.789973">
<time>2015-08-06T02:24:33Z</time></trkpt>
<trkpt lat="30.073547" lon="101.789622">
<time>2015-08-06T02:24:34Z</time></trkpt>
<trkpt lat="30.073547" lon="101.789332">
<time>2015-08-06T02:24:35Z</time></trkpt>
<trkpt lat="30.073536" lon="101.789121">
<time>2015-08-06T02:24:36Z</time></trkpt>
<trkpt lat="30.073516" lon="101.788941">
<time>2015-08-06T02:24:37Z</time></trkpt>
<trkpt lat="30.073496" lon="101.788751">
<time>2015-08-06T02:24:38Z</time></trkpt>
<trkpt lat="30.073476" lon="101.78858">
<time>2015-08-06T02:24:39Z</time></trkpt>
<trkpt lat="30.073405" lon="101.7883">
<time>2015-08-06T02:24:40Z</time></trkpt>
<trkpt lat="30.073315" lon="101.787989">
<time>2015-08-06T02:24:41Z</time></trkpt>
<trkpt lat="30.073244" lon="101.787699">
<time>2015-08-06T02:24:42Z</time></trkpt>
<trkpt lat="30.073214" lon="101.787589">
<time>2015-08-06T02:24:43Z</time></trkpt>
<trkpt lat="30.073194" lon="101.787438">
<time>2015-08-06T02:24:44Z</time></trkpt>
<trkpt lat="30.073184" lon="101.787268">
<time>2015-08-06T02:24:45Z</time></trkpt>
<trkpt lat="30.073184" lon="101.787078">
<time>2015-08-06T02:24:46Z</time></trkpt>
<trkpt lat="30.073193" lon="101.786917">
<time>2015-08-06T02:24:47Z</time></trkpt>
<trkpt lat="30.073223" lon="101.786667">
<time>2015-08-06T02:24:48Z</time></trkpt>
<trkpt lat="30.073302" lon="101.786066">
<time>2015-08-06T02:24:49Z</time></trkpt>
<trkpt lat="30.073401" lon="101.785345">
<time>2015-08-06T02:24:50Z</time></trkpt>
<trkpt lat="30.073431" lon="101.785074">
<time>2015-08-06T02:24:51Z</time></trkpt>
<trkpt lat="30.073451" lon="101.784914">
<time>2015-08-06T02:24:52Z</time></trkpt>
<trkpt lat="30.073451" lon="101.784764">
<time>2015-08-06T02:24:53Z</time></trkpt>
<trkpt lat="30.07346" lon="101.784684">
<time>2015-08-06T02:24:54Z</time></trkpt>
<trkpt lat="30.07345" lon="101.784583">
<time>2015-08-06T02:24:55Z</time></trkpt>
<trkpt lat="30.07344" lon="101.784493">
<time>2015-08-06T02:24:56Z</time></trkpt>
<trkpt lat="30.07342" lon="101.784423">
<time>2015-08-06T02:24:57Z</time></trkpt>
<trkpt lat="30.07342" lon="101.784373">
<time>2015-08-06T02:24:58Z</time></trkpt>
<trkpt lat="30.0734" lon="101.784313">
<time>2015-08-06T02:24:59Z</time></trkpt>
<trkpt lat="30.07338" lon="101.784233">
<time>2015-08-06T02:25:00Z</time></trkpt>
<trkpt lat="30.07336" lon="101.784153">
<time>2015-08-06T02:25:01Z</time></trkpt>
<trkpt lat="30.07328" lon="101.783942">
<time>2015-08-06T02:25:02Z</time></trkpt>
<trkpt lat="30.073089" lon="101.783472">
<time>2015-08-06T02:25:03Z</time></trkpt>
<trkpt lat="30.073029" lon="101.783281">
<time>2015-08-06T02:25:04Z</time></trkpt>
<trkpt lat="30.072969" lon="101.783121">
<time>2015-08-06T02:25:05Z</time></trkpt>
<trkpt lat="30.072928" lon="101.782981">
<time>2015-08-06T02:25:06Z</time></trkpt>
<trkpt lat="30.072908" lon="101.782861">
<time>2015-08-06T02:25:07Z</time></trkpt>
<trkpt lat="30.072888" lon="101.78269">
<time>2015-08-06T02:25:08Z</time></trkpt>
<trkpt lat="30.072878" lon="101.78252">
<time>2015-08-06T02:25:09Z</time></trkpt>
<trkpt lat="30.072867" lon="101.7822">
<time>2015-08-06T02:25:10Z</time></trkpt>
<trkpt lat="30.072857" lon="101.781879">
<time>2015-08-06T02:25:11Z</time></trkpt>
<trkpt lat="30.072846" lon="101.781238">
<time>2015-08-06T02:25:12Z</time></trkpt>
<trkpt lat="30.072836" lon="101.781008">
<time>2015-08-06T02:25:13Z</time></trkpt>
<trkpt lat="30.072826" lon="101.780857">
<time>2015-08-06T02:25:14Z</time></trkpt>
<trkpt lat="30.072826" lon="101.780737">
<time>2015-08-06T02:25:15Z</time></trkpt>
<trkpt lat="30.072806" lon="101.780637">
<time>2015-08-06T02:25:16Z</time></trkpt>
<trkpt lat="30.072786" lon="101.780527">
<time>2015-08-06T02:25:17Z</time></trkpt>
<trkpt lat="30.072765" lon="101.780447">
<time>2015-08-06T02:25:18Z</time></trkpt>
<trkpt lat="30.072725" lon="101.780337">
<time>2015-08-06T02:25:19Z</time></trkpt>
<trkpt lat="30.072655" lon="101.780186">
<time>2015-08-06T02:25:20Z</time></trkpt>
<trkpt lat="30.072565" lon="101.779976">
<time>2015-08-06T02:25:21Z</time></trkpt>
<trkpt lat="30.072555" lon="101.779966">
<time>2015-08-06T02:25:22Z</time></trkpt>
<trkpt lat="30.072465" lon="101.779756">
<time>2015-08-06T02:25:23Z</time></trkpt>
<trkpt lat="30.072284" lon="101.779415">
<time>2015-08-06T02:25:24Z</time></trkpt>
<trkpt lat="30.072114" lon="101.779055">
<time>2015-08-06T02:25:25Z</time></trkpt>
<trkpt lat="30.072054" lon="101.778914">
<time>2015-08-06T02:25:26Z</time></trkpt>
<trkpt lat="30.071974" lon="101.778734">
<time>2015-08-06T02:25:27Z</time></trkpt>
<trkpt lat="30.071883" lon="101.778584">
<time>2015-08-06T02:25:28Z</time></trkpt>
<trkpt lat="30.071833" lon="101.778484">
<time>2015-08-06T02:25:29Z</time></trkpt>
<trkpt lat="30.071753" lon="101.778304">
<time>2015-08-06T02:25:30Z</time></trkpt>
<trkpt lat="30.071723" lon="101.778213">
<time>2015-08-06T02:25:31Z</time></trkpt>
<trkpt lat="30.071663" lon="101.778063">
<time>2015-08-06T02:25:32Z</time></trkpt>
<trkpt lat="30.071593" lon="101.777863">
<time>2015-08-06T02:25:33Z</time></trkpt>
<trkpt lat="30.071522" lon="101.777663">
<time>2015-08-06T02:25:34Z</time></trkpt>
<trkpt lat="30.071422" lon="101.777382">
<time>2015-08-06T02:25:35Z</time></trkpt>
<trkpt lat="30.071302" lon="101.776972">
<time>2015-08-06T02:25:36Z</time></trkpt>
<trkpt lat="30.071221" lon="101.776731">
<time>2015-08-06T02:25:37Z</time></trkpt>
<trkpt lat="30.071111" lon="101.776301">
<time>2015-08-06T02:25:38Z</time></trkpt>
<trkpt lat="30.071061" lon="101.77607">
<time>2015-08-06T02:25:39Z</time></trkpt>
<trkpt lat="30.071041" lon="101.77599">
<time>2015-08-06T02:25:40Z</time></trkpt>
<trkpt lat="30.071011" lon="101.77591">
<time>2015-08-06T02:25:41Z</time></trkpt>
<trkpt lat="30.070981" lon="101.77578">
<time>2015-08-06T02:25:42Z</time></trkpt>
<trkpt lat="30.07092" lon="101.77563">
<time>2015-08-06T02:25:43Z</time></trkpt>
<trkpt lat="30.07088" lon="101.77552">
<time>2015-08-06T02:25:44Z</time></trkpt>
<trkpt lat="30.07083" lon="101.77543">
<time>2015-08-06T02:25:45Z</time></trkpt>
<trkpt lat="30.07077" lon="101.775329">
<time>2015-08-06T02:25:46Z</time></trkpt>
<trkpt lat="30.0707" lon="101.775209">
<time>2015-08-06T02:25:47Z</time></trkpt>
<trkpt lat="30.070359" lon="101.774699">
<time>2015-08-06T02:25:48Z</time></trkpt>
<trkpt lat="30.070239" lon="101.774488">
<time>2015-08-06T02:25:49Z</time></trkpt>
<trkpt lat="30.070149" lon="101.774288">
<time>2015-08-06T02:25:50Z</time></trkpt>
<trkpt lat="30.070059" lon="101.774078">
<time>2015-08-06T02:25:51Z</time></trkpt>
<trkpt lat="30.070019" lon="101.773978">
<time>2015-08-06T02:25:52Z</time></trkpt>
<trkpt lat="30.069989" lon="101.773868">
<time>2015-08-06T02:25:53Z</time></trkpt>
<trkpt lat="30.069969" lon="101.773787">
<time>2015-08-06T02:25:54Z</time></trkpt>
<trkpt lat="30.069958" lon="101.773657">
<time>2015-08-06T02:25:55Z</time></trkpt>
<trkpt lat="30.069948" lon="101.773497">
<time>2015-08-06T02:25:56Z</time></trkpt>
<trkpt lat="30.069938" lon="101.773377">
<time>2015-08-06T02:25:57Z</time></trkpt>
<trkpt lat="30.069928" lon="101.773327">
<time>2015-08-06T02:25:58Z</time></trkpt>
<trkpt lat="30.069918" lon="101.773267">
<time>2015-08-06T02:25:59Z</time></trkpt>
<trkpt lat="30.069898" lon="101.773237">
<time>2015-08-06T02:26:00Z</time></trkpt>
<trkpt lat="30.069878" lon="101.773207">
<time>2015-08-06T02:26:01Z</time></trkpt>
<trkpt lat="30.069868" lon="101.773187">
<time>2015-08-06T02:26:02Z</time></trkpt>
<trkpt lat="30.069858" lon="101.773187">
<time>2015-08-06T02:26:03Z</time></trkpt>
<trkpt lat="30.069838" lon="101.773177">
<time>2015-08-06T02:26:04Z</time></trkpt>
<trkpt lat="30.069828" lon="101.773177">
<time>2015-08-06T02:26:05Z</time></trkpt>
<trkpt lat="30.069808" lon="101.773167">
<time>2015-08-06T02:26:06Z</time></trkpt>
<trkpt lat="30.069788" lon="101.773177">
<time>2015-08-06T02:26:07Z</time></trkpt>
<trkpt lat="30.069768" lon="101.773187">
<time>2015-08-06T02:26:08Z</time></trkpt>
<trkpt lat="30.069748" lon="101.773197">
<time>2015-08-06T02:26:09Z</time></trkpt>
<trkpt lat="30.069728" lon="101.773217">
<time>2015-08-06T02:26:10Z</time></trkpt>
<trkpt lat="30.069708" lon="101.773237">
<time>2015-08-06T02:26:11Z</time></trkpt>
<trkpt lat="30.069698" lon="101.773277">
<time>2015-08-06T02:26:12Z</time></trkpt>
<trkpt lat="30.069678" lon="101.773317">
<time>2015-08-06T02:26:13Z</time></trkpt>
<trkpt lat="30.069668" lon="101.773377">
<time>2015-08-06T02:26:14Z</time></trkpt>
<trkpt lat="30.069648" lon="101.773547">
<time>2015-08-06T02:26:15Z</time></trkpt>
<trkpt lat="30.069679" lon="101.773797">
<time>2015-08-06T02:26:16Z</time></trkpt>
<trkpt lat="30.069729" lon="101.774138">
<time>2015-08-06T02:26:17Z</time></trkpt>
<trkpt lat="30.069889" lon="101.774669">
<time>2015-08-06T02:26:18Z</time></trkpt>
<trkpt lat="30.06998" lon="101.774919">
<time>2015-08-06T02:26:19Z</time></trkpt>
<trkpt lat="30.06998" lon="101.774969">
<time>2015-08-06T02:26:20Z</time></trkpt>
<trkpt lat="30.06997" lon="101.774999">
<time>2015-08-06T02:26:21Z</time></trkpt>
<trkpt lat="30.06995" lon="101.775039">
<time>2015-08-06T02:26:22Z</time></trkpt>
<trkpt lat="30.0699" lon="101.775069">
<time>2015-08-06T02:26:23Z</time></trkpt>
<trkpt lat="30.06985" lon="101.775069">
<time>2015-08-06T02:26:24Z</time></trkpt>
<trkpt lat="30.06978" lon="101.775059">
<time>2015-08-06T02:26:25Z</time></trkpt>
<trkpt lat="30.06973" lon="101.775029">
<time>2015-08-06T02:26:26Z</time></trkpt>
<trkpt lat="30.06967" lon="101.774969">
<time>2015-08-06T02:26:27Z</time></trkpt>
<trkpt lat="30.069509" lon="101.774699">
<time>2015-08-06T02:26:28Z</time></trkpt>
<trkpt lat="30.069419" lon="101.774498">
<time>2015-08-06T02:26:29Z</time></trkpt>
<trkpt lat="30.069239" lon="101.774078">
<time>2015-08-06T02:26:30Z</time></trkpt>
<trkpt lat="30.069109" lon="101.773757">
<time>2015-08-06T02:26:31Z</time></trkpt>
<trkpt lat="30.069018" lon="101.773517">
<time>2015-08-06T02:26:32Z</time></trkpt>
<trkpt lat="30.068988" lon="101.773417">
<time>2015-08-06T02:26:33Z</time></trkpt>
<trkpt lat="30.068978" lon="101.773347">
<time>2015-08-06T02:26:34Z</time></trkpt>
<trkpt lat="30.068978" lon="101.773297">
<time>2015-08-06T02:26:35Z</time></trkpt>
<trkpt lat="30.068968" lon="101.773217">
<time>2015-08-06T02:26:36Z</time></trkpt>
<trkpt lat="30.068978" lon="101.773107">
<time>2015-08-06T02:26:37Z</time></trkpt>
<trkpt lat="30.068998" lon="101.772846">
<time>2015-08-06T02:26:38Z</time></trkpt>
<trkpt lat="30.069028" lon="101.772616">
<time>2015-08-06T02:26:39Z</time></trkpt>
<trkpt lat="30.069037" lon="101.772466">
<time>2015-08-06T02:26:40Z</time></trkpt>
<trkpt lat="30.069047" lon="101.772346">
<time>2015-08-06T02:26:41Z</time></trkpt>
<trkpt lat="30.069047" lon="101.772286">
<time>2015-08-06T02:26:42Z</time></trkpt>
<trkpt lat="30.069037" lon="101.772215">
<time>2015-08-06T02:26:43Z</time></trkpt>
<trkpt lat="30.069007" lon="101.772045">
<time>2015-08-06T02:26:44Z</time></trkpt>
<trkpt lat="30.068947" lon="101.771705">
<time>2015-08-06T02:26:45Z</time></trkpt>
<trkpt lat="30.068836" lon="101.771254">
<time>2015-08-06T02:26:46Z</time></trkpt>
<trkpt lat="30.068736" lon="101.770784">
<time>2015-08-06T02:26:47Z</time></trkpt>
<trkpt lat="30.068656" lon="101.770393">
<time>2015-08-06T02:26:48Z</time></trkpt>
<trkpt lat="30.068596" lon="101.770183">
<time>2015-08-06T02:26:49Z</time></trkpt>
<trkpt lat="30.068565" lon="101.770033">
<time>2015-08-06T02:26:50Z</time></trkpt>
<trkpt lat="30.068535" lon="101.769803">
<time>2015-08-06T02:26:51Z</time></trkpt>
<trkpt lat="30.068495" lon="101.769122">
<time>2015-08-06T02:26:52Z</time></trkpt>
<trkpt lat="30.068474" lon="101.768561">
<time>2015-08-06T02:26:53Z</time></trkpt>
<trkpt lat="30.068464" lon="101.768141">
<time>2015-08-06T02:26:54Z</time></trkpt>
<trkpt lat="30.068444" lon="101.76756">
<time>2015-08-06T02:26:55Z</time></trkpt>
<trkpt lat="30.068443" lon="101.76724">
<time>2015-08-06T02:26:56Z</time></trkpt>
<trkpt lat="30.068433" lon="101.76704">
<time>2015-08-06T02:26:57Z</time></trkpt>
<trkpt lat="30.068423" lon="101.766739">
<time>2015-08-06T02:26:58Z</time></trkpt>
<trkpt lat="30.068423" lon="101.766599">
<time>2015-08-06T02:26:59Z</time></trkpt>
<trkpt lat="30.068423" lon="101.766499">
<time>2015-08-06T02:27:00Z</time></trkpt>
<trkpt lat="30.068443" lon="101.766329">
<time>2015-08-06T02:27:01Z</time></trkpt>
<trkpt lat="30.068463" lon="101.766159">
<time>2015-08-06T02:27:02Z</time></trkpt>
<trkpt lat="30.068502" lon="101.765868">
<time>2015-08-06T02:27:03Z</time></trkpt>
<trkpt lat="30.068512" lon="101.765738">
<time>2015-08-06T02:27:04Z</time></trkpt>
<trkpt lat="30.068532" lon="101.765588">
<time>2015-08-06T02:27:05Z</time></trkpt>
<trkpt lat="30.068542" lon="101.765488">
<time>2015-08-06T02:27:06Z</time></trkpt>
<trkpt lat="30.068552" lon="101.765278">
<time>2015-08-06T02:27:07Z</time></trkpt>
<trkpt lat="30.068562" lon="101.765128">
<time>2015-08-06T02:27:08Z</time></trkpt>
<trkpt lat="30.068582" lon="101.765038">
<time>2015-08-06T02:27:09Z</time></trkpt>
<trkpt lat="30.068602" lon="101.764928">
<time>2015-08-06T02:27:10Z</time></trkpt>
<trkpt lat="30.068682" lon="101.764657">
<time>2015-08-06T02:27:11Z</time></trkpt>
<trkpt lat="30.068811" lon="101.764177">
<time>2015-08-06T02:27:12Z</time></trkpt>
<trkpt lat="30.069031" lon="101.763917">
<time>2015-08-06T02:27:13Z</time></trkpt>
<trkpt lat="30.070061" lon="101.762615">
<time>2015-08-06T02:27:14Z</time></trkpt>
<trkpt lat="30.070091" lon="101.762585">
<time>2015-08-06T02:27:15Z</time></trkpt>
<trkpt lat="30.070111" lon="101.762535">
<time>2015-08-06T02:27:16Z</time></trkpt>
<trkpt lat="30.070131" lon="101.762505">
<time>2015-08-06T02:27:17Z</time></trkpt>
<trkpt lat="30.07015" lon="101.762445">
<time>2015-08-06T02:27:18Z</time></trkpt>
<trkpt lat="30.07018" lon="101.762355">
<time>2015-08-06T02:27:19Z</time></trkpt>
<trkpt lat="30.07018" lon="101.762255">
<time>2015-08-06T02:27:20Z</time></trkpt>
<trkpt lat="30.07018" lon="101.762185">
<time>2015-08-06T02:27:21Z</time></trkpt>
<trkpt lat="30.07016" lon="101.762115">
<time>2015-08-06T02:27:22Z</time></trkpt>
<trkpt lat="30.07015" lon="101.762055">
<time>2015-08-06T02:27:23Z</time></trkpt>
<trkpt lat="30.07012" lon="101.761985">
<time>2015-08-06T02:27:24Z</time></trkpt>
<trkpt lat="30.0701" lon="101.761935">
<time>2015-08-06T02:27:25Z</time></trkpt>
<trkpt lat="30.07006" lon="101.761875">
<time>2015-08-06T02:27:26Z</time></trkpt>
<trkpt lat="30.07001" lon="101.761805">
<time>2015-08-06T02:27:27Z</time></trkpt>
<trkpt lat="30.06994" lon="101.761695">
<time>2015-08-06T02:27:28Z</time></trkpt>
<trkpt lat="30.06981" lon="101.761525">
<time>2015-08-06T02:27:29Z</time></trkpt>
<trkpt lat="30.06967" lon="101.761354">
<time>2015-08-06T02:27:30Z</time></trkpt>
<trkpt lat="30.06951" lon="101.761134">
<time>2015-08-06T02:27:31Z</time></trkpt>
<trkpt lat="30.0694" lon="101.760984">
<time>2015-08-06T02:27:32Z</time></trkpt>
<trkpt lat="30.06915" lon="101.760604">
<time>2015-08-06T02:27:33Z</time></trkpt>
<trkpt lat="30.068809" lon="101.760044">
<time>2015-08-06T02:27:34Z</time></trkpt>
<trkpt lat="30.068399" lon="101.759323">
<time>2015-08-06T02:27:35Z</time></trkpt>
<trkpt lat="30.068029" lon="101.758693">
<time>2015-08-06T02:27:36Z</time></trkpt>
<trkpt lat="30.067799" lon="101.758282">
<time>2015-08-06T02:27:37Z</time></trkpt>
<trkpt lat="30.067548" lon="101.757822">
<time>2015-08-06T02:27:38Z</time></trkpt>
<trkpt lat="30.067358" lon="101.757502">
<time>2015-08-06T02:27:39Z</time></trkpt>
<trkpt lat="30.067268" lon="101.757362">
<time>2015-08-06T02:27:40Z</time></trkpt>
<trkpt lat="30.067188" lon="101.757252">
<time>2015-08-06T02:27:41Z</time></trkpt>
<trkpt lat="30.067108" lon="101.757132">
<time>2015-08-06T02:27:42Z</time></trkpt>
<trkpt lat="30.067008" lon="101.757012">
<time>2015-08-06T02:27:43Z</time></trkpt>
<trkpt lat="30.066888" lon="101.756862">
<time>2015-08-06T02:27:44Z</time></trkpt>
<trkpt lat="30.066758" lon="101.756721">
<time>2015-08-06T02:27:45Z</time></trkpt>
<trkpt lat="30.066568" lon="101.756531">
<time>2015-08-06T02:27:46Z</time></trkpt>
<trkpt lat="30.066268" lon="101.756261">
<time>2015-08-06T02:27:47Z</time></trkpt>
<trkpt lat="30.065918" lon="101.755971">
<time>2015-08-06T02:27:48Z</time></trkpt>
<trkpt lat="30.065468" lon="101.755581">
<time>2015-08-06T02:27:49Z</time></trkpt>
<trkpt lat="30.065248" lon="101.755401">
<time>2015-08-06T02:27:50Z</time></trkpt>
<trkpt lat="30.065018" lon="101.755211">
<time>2015-08-06T02:27:51Z</time></trkpt>
<trkpt lat="30.064668" lon="101.754941">
<time>2015-08-06T02:27:52Z</time></trkpt>
<trkpt lat="30.064188" lon="101.75454">
<time>2015-08-06T02:27:53Z</time></trkpt>
<trkpt lat="30.063757" lon="101.75417">
<time>2015-08-06T02:27:54Z</time></trkpt>
<trkpt lat="30.063327" lon="101.75381">
<time>2015-08-06T02:27:55Z</time></trkpt>
<trkpt lat="30.063167" lon="101.75366">
<time>2015-08-06T02:27:56Z</time></trkpt>
<trkpt lat="30.063087" lon="101.75357">
<time>2015-08-06T02:27:57Z</time></trkpt>
<trkpt lat="30.063017" lon="101.75349">
<time>2015-08-06T02:27:58Z</time></trkpt>
<trkpt lat="30.062927" lon="101.75335">
<time>2015-08-06T02:27:59Z</time></trkpt>
<trkpt lat="30.062747" lon="101.75306">
<time>2015-08-06T02:28:00Z</time></trkpt>
<trkpt lat="30.062557" lon="101.75274">
<time>2015-08-06T02:28:01Z</time></trkpt>
<trkpt lat="30.062447" lon="101.75256">
<time>2015-08-06T02:28:02Z</time></trkpt>
<trkpt lat="30.062337" lon="101.752379">
<time>2015-08-06T02:28:03Z</time></trkpt>
<trkpt lat="30.062097" lon="101.752029">
<time>2015-08-06T02:28:04Z</time></trkpt>
<trkpt lat="30.061867" lon="101.751629">
<time>2015-08-06T02:28:05Z</time></trkpt>
<trkpt lat="30.061677" lon="101.751329">
<time>2015-08-06T02:28:06Z</time></trkpt>
<trkpt lat="30.061507" lon="101.751049">
<time>2015-08-06T02:28:07Z</time></trkpt>
<trkpt lat="30.061347" lon="101.750819">
<time>2015-08-06T02:28:08Z</time></trkpt>
<trkpt lat="30.061167" lon="101.750509">
<time>2015-08-06T02:28:09Z</time></trkpt>
<trkpt lat="30.061057" lon="101.750299">
<time>2015-08-06T02:28:10Z</time></trkpt>
<trkpt lat="30.060977" lon="101.750159">
<time>2015-08-06T02:28:11Z</time></trkpt>
<trkpt lat="30.060917" lon="101.750019">
<time>2015-08-06T02:28:12Z</time></trkpt>
<trkpt lat="30.060817" lon="101.749759">
<time>2015-08-06T02:28:13Z</time></trkpt>
<trkpt lat="30.060737" lon="101.749499">
<time>2015-08-06T02:28:14Z</time></trkpt>
<trkpt lat="30.060667" lon="101.749249">
<time>2015-08-06T02:28:15Z</time></trkpt>
<trkpt lat="30.060607" lon="101.748928">
<time>2015-08-06T02:28:16Z</time></trkpt>
<trkpt lat="30.060287" lon="101.747508">
<time>2015-08-06T02:28:17Z</time></trkpt>
<trkpt lat="30.060247" lon="101.747268">
<time>2015-08-06T02:28:18Z</time></trkpt>
<trkpt lat="30.060197" lon="101.747018">
<time>2015-08-06T02:28:19Z</time></trkpt>
<trkpt lat="30.060157" lon="101.746758">
<time>2015-08-06T02:28:20Z</time></trkpt>
<trkpt lat="30.060127" lon="101.746438">
<time>2015-08-06T02:28:21Z</time></trkpt>
<trkpt lat="30.060127" lon="101.746148">
<time>2015-08-06T02:28:22Z</time></trkpt>
<trkpt lat="30.060137" lon="101.745848">
<time>2015-08-06T02:28:23Z</time></trkpt>
<trkpt lat="30.060197" lon="101.744838">
<time>2015-08-06T02:28:24Z</time></trkpt>
<trkpt lat="30.060237" lon="101.743858">
<time>2015-08-06T02:28:25Z</time></trkpt>
<trkpt lat="30.060257" lon="101.743148">
<time>2015-08-06T02:28:26Z</time></trkpt>
<trkpt lat="30.060248" lon="101.742228">
<time>2015-08-06T02:28:27Z</time></trkpt>
<trkpt lat="30.060248" lon="101.741498">
<time>2015-08-06T02:28:28Z</time></trkpt>
<trkpt lat="30.060248" lon="101.741148">
<time>2015-08-06T02:28:29Z</time></trkpt>
<trkpt lat="30.060258" lon="101.740938">
<time>2015-08-06T02:28:30Z</time></trkpt>
<trkpt lat="30.060248" lon="101.740668">
<time>2015-08-06T02:28:31Z</time></trkpt>
<trkpt lat="30.060208" lon="101.740148">
<time>2015-08-06T02:28:32Z</time></trkpt>
<trkpt lat="30.060178" lon="101.739528">
<time>2015-08-06T02:28:33Z</time></trkpt>
<trkpt lat="30.060149" lon="101.739068">
<time>2015-08-06T02:28:34Z</time></trkpt>
<trkpt lat="30.060109" lon="101.738838">
<time>2015-08-06T02:28:35Z</time></trkpt>
<trkpt lat="30.060069" lon="101.738698">
<time>2015-08-06T02:28:36Z</time></trkpt>
<trkpt lat="30.060019" lon="101.738518">
<time>2015-08-06T02:28:37Z</time></trkpt>
<trkpt lat="30.059969" lon="101.738399">
<time>2015-08-06T02:28:38Z</time></trkpt>
<trkpt lat="30.059929" lon="101.738309">
<time>2015-08-06T02:28:39Z</time></trkpt>
<trkpt lat="30.059879" lon="101.738219">
<time>2015-08-06T02:28:40Z</time></trkpt>
<trkpt lat="30.059739" lon="101.737999">
<time>2015-08-06T02:28:41Z</time></trkpt>
<trkpt lat="30.059439" lon="101.737449">
<time>2015-08-06T02:28:42Z</time></trkpt>
<trkpt lat="30.05898" lon="101.736689">
<time>2015-08-06T02:28:43Z</time></trkpt>
<trkpt lat="30.05869" lon="101.736119">
<time>2015-08-06T02:28:44Z</time></trkpt>
<trkpt lat="30.058" lon="101.73472">
<time>2015-08-06T02:28:45Z</time></trkpt>
<trkpt lat="30.057361" lon="101.73347">
<time>2015-08-06T02:28:46Z</time></trkpt>
<trkpt lat="30.056692" lon="101.732161">
<time>2015-08-06T02:28:47Z</time></trkpt>
<trkpt lat="30.056322" lon="101.731471">
<time>2015-08-06T02:28:48Z</time></trkpt>
<trkpt lat="30.056113" lon="101.731052">
<time>2015-08-06T02:28:49Z</time></trkpt>
<trkpt lat="30.055753" lon="101.730382">
<time>2015-08-06T02:28:50Z</time></trkpt>
<trkpt lat="30.054874" lon="101.728943">
<time>2015-08-06T02:28:51Z</time></trkpt>
<trkpt lat="30.053985" lon="101.727484">
<time>2015-08-06T02:28:52Z</time></trkpt>
<trkpt lat="30.053645" lon="101.727054">
<time>2015-08-06T02:28:53Z</time></trkpt>
<trkpt lat="30.053366" lon="101.726724">
<time>2015-08-06T02:28:54Z</time></trkpt>
<trkpt lat="30.052247" lon="101.725775">
<time>2015-08-06T02:28:55Z</time></trkpt>
<trkpt lat="30.052107" lon="101.725635">
<time>2015-08-06T02:28:56Z</time></trkpt>
<trkpt lat="30.052007" lon="101.725505">
<time>2015-08-06T02:28:57Z</time></trkpt>
<trkpt lat="30.051927" lon="101.725375">
<time>2015-08-06T02:28:58Z</time></trkpt>
<trkpt lat="30.051817" lon="101.725126">
<time>2015-08-06T02:28:59Z</time></trkpt>
<trkpt lat="30.051717" lon="101.724806">
<time>2015-08-06T02:29:00Z</time></trkpt>
<trkpt lat="30.051698" lon="101.724586">
<time>2015-08-06T02:29:01Z</time></trkpt>
<trkpt lat="30.051728" lon="101.724256">
<time>2015-08-06T02:29:02Z</time></trkpt>
<trkpt lat="30.051848" lon="101.723857">
<time>2015-08-06T02:29:03Z</time></trkpt>
<trkpt lat="30.052009" lon="101.723497">
<time>2015-08-06T02:29:04Z</time></trkpt>
<trkpt lat="30.052139" lon="101.723227">
<time>2015-08-06T02:29:05Z</time></trkpt>
<trkpt lat="30.052269" lon="101.722918">
<time>2015-08-06T02:29:06Z</time></trkpt>
<trkpt lat="30.052449" lon="101.722528">
<time>2015-08-06T02:29:07Z</time></trkpt>
<trkpt lat="30.05276" lon="101.721878">
<time>2015-08-06T02:29:08Z</time></trkpt>
<trkpt lat="30.05295" lon="101.721469">
<time>2015-08-06T02:29:09Z</time></trkpt>
<trkpt lat="30.053261" lon="101.720799">
<time>2015-08-06T02:29:10Z</time></trkpt>
<trkpt lat="30.053532" lon="101.72021">
<time>2015-08-06T02:29:11Z</time></trkpt>
<trkpt lat="30.053742" lon="101.719731">
<time>2015-08-06T02:29:12Z</time></trkpt>
<trkpt lat="30.053903" lon="101.719381">
<time>2015-08-06T02:29:13Z</time></trkpt>
<trkpt lat="30.054023" lon="101.719141">
<time>2015-08-06T02:29:14Z</time></trkpt>
<trkpt lat="30.054123" lon="101.718931">
<time>2015-08-06T02:29:15Z</time></trkpt>
<trkpt lat="30.054213" lon="101.718771">
<time>2015-08-06T02:29:16Z</time></trkpt>
<trkpt lat="30.054394" lon="101.718512">
<time>2015-08-06T02:29:17Z</time></trkpt>
<trkpt lat="30.054544" lon="101.718322">
<time>2015-08-06T02:29:18Z</time></trkpt>
<trkpt lat="30.054654" lon="101.718202">
<time>2015-08-06T02:29:19Z</time></trkpt>
<trkpt lat="30.054774" lon="101.718092">
<time>2015-08-06T02:29:20Z</time></trkpt>
<trkpt lat="30.055064" lon="101.717862">
<time>2015-08-06T02:29:21Z</time></trkpt>
<trkpt lat="30.055915" lon="101.717183">
<time>2015-08-06T02:29:22Z</time></trkpt>
<trkpt lat="30.056345" lon="101.716833">
<time>2015-08-06T02:29:23Z</time></trkpt>
<trkpt lat="30.056686" lon="101.716554">
<time>2015-08-06T02:29:24Z</time></trkpt>
<trkpt lat="30.057597" lon="101.715825">
<time>2015-08-06T02:29:25Z</time></trkpt>
<trkpt lat="30.058447" lon="101.715125">
<time>2015-08-06T02:29:26Z</time></trkpt>
<trkpt lat="30.059208" lon="101.714506">
<time>2015-08-06T02:29:27Z</time></trkpt>
<trkpt lat="30.060059" lon="101.713847">
<time>2015-08-06T02:29:28Z</time></trkpt>
<trkpt lat="30.060299" lon="101.713687">
<time>2015-08-06T02:29:29Z</time></trkpt>
<trkpt lat="30.060469" lon="101.713587">
<time>2015-08-06T02:29:30Z</time></trkpt>
<trkpt lat="30.060589" lon="101.713517">
<time>2015-08-06T02:29:31Z</time></trkpt>
<trkpt lat="30.060789" lon="101.713457">
<time>2015-08-06T02:29:32Z</time></trkpt>
<trkpt lat="30.06097" lon="101.713407">
<time>2015-08-06T02:29:33Z</time></trkpt>
<trkpt lat="30.06175" lon="101.713228">
<time>2015-08-06T02:29:34Z</time></trkpt>
<trkpt lat="30.06221" lon="101.713118">
<time>2015-08-06T02:29:35Z</time></trkpt>
<trkpt lat="30.06262" lon="101.713038">
<time>2015-08-06T02:29:36Z</time></trkpt>
<trkpt lat="30.06277" lon="101.713008">
<time>2015-08-06T02:29:37Z</time></trkpt>
<trkpt lat="30.06289" lon="101.712978">
<time>2015-08-06T02:29:38Z</time></trkpt>
<trkpt lat="30.06298" lon="101.712948">
<time>2015-08-06T02:29:39Z</time></trkpt>
<trkpt lat="30.06308" lon="101.712888">
<time>2015-08-06T02:29:40Z</time></trkpt>
<trkpt lat="30.06337" lon="101.712698">
<time>2015-08-06T02:29:41Z</time></trkpt>
<trkpt lat="30.063761" lon="101.712428">
<time>2015-08-06T02:29:42Z</time></trkpt>
<trkpt lat="30.064281" lon="101.712059">
<time>2015-08-06T02:29:43Z</time></trkpt>
<trkpt lat="30.064481" lon="101.711909">
<time>2015-08-06T02:29:44Z</time></trkpt>
<trkpt lat="30.064612" lon="101.711809">
<time>2015-08-06T02:29:45Z</time></trkpt>
<trkpt lat="30.064702" lon="101.711709">
<time>2015-08-06T02:29:46Z</time></trkpt>
<trkpt lat="30.064822" lon="101.7116">
<time>2015-08-06T02:29:47Z</time></trkpt>
<trkpt lat="30.064972" lon="101.71142">
<time>2015-08-06T02:29:48Z</time></trkpt>
<trkpt lat="30.065142" lon="101.71121">
<time>2015-08-06T02:29:49Z</time></trkpt>
<trkpt lat="30.065273" lon="101.71105">
<time>2015-08-06T02:29:50Z</time></trkpt>
<trkpt lat="30.065383" lon="101.71091">
<time>2015-08-06T02:29:51Z</time></trkpt>
<trkpt lat="30.065623" lon="101.710621">
<time>2015-08-06T02:29:52Z</time></trkpt>
<trkpt lat="30.065874" lon="101.710311">
<time>2015-08-06T02:29:53Z</time></trkpt>
<trkpt lat="30.066124" lon="101.710002">
<time>2015-08-06T02:29:54Z</time></trkpt>
<trkpt lat="30.066274" lon="101.709852">
<time>2015-08-06T02:29:55Z</time></trkpt>
<trkpt lat="30.066364" lon="101.709772">
<time>2015-08-06T02:29:56Z</time></trkpt>
<trkpt lat="30.066484" lon="101.709692">
<time>2015-08-06T02:29:57Z</time></trkpt>
<trkpt lat="30.066584" lon="101.709622">
<time>2015-08-06T02:29:58Z</time></trkpt>
<trkpt lat="30.066705" lon="101.709562">
<time>2015-08-06T02:29:59Z</time></trkpt>
<trkpt lat="30.066845" lon="101.709492">
<time>2015-08-06T02:30:00Z</time></trkpt>
<trkpt lat="30.067005" lon="101.709432">
<time>2015-08-06T02:30:01Z</time></trkpt>
<trkpt lat="30.067145" lon="101.709402">
<time>2015-08-06T02:30:02Z</time></trkpt>
<trkpt lat="30.068055" lon="101.709183">
<time>2015-08-06T02:30:03Z</time></trkpt>
<trkpt lat="30.068845" lon="101.709003">
<time>2015-08-06T02:30:04Z</time></trkpt>
<trkpt lat="30.069035" lon="101.708963">
<time>2015-08-06T02:30:05Z</time></trkpt>
<trkpt lat="30.069175" lon="101.708913">
<time>2015-08-06T02:30:06Z</time></trkpt>
<trkpt lat="30.069295" lon="101.708863">
<time>2015-08-06T02:30:07Z</time></trkpt>
<trkpt lat="30.069416" lon="101.708803">
<time>2015-08-06T02:30:08Z</time></trkpt>
<trkpt lat="30.069716" lon="101.708623">
<time>2015-08-06T02:30:09Z</time></trkpt>
<trkpt lat="30.069916" lon="101.708494">
<time>2015-08-06T02:30:10Z</time></trkpt>
<trkpt lat="30.070216" lon="101.708274">
<time>2015-08-06T02:30:11Z</time></trkpt>
<trkpt lat="30.070757" lon="101.707844">
<time>2015-08-06T02:30:12Z</time></trkpt>
<trkpt lat="30.071077" lon="101.707595">
<time>2015-08-06T02:30:13Z</time></trkpt>
<trkpt lat="30.071488" lon="101.707285">
<time>2015-08-06T02:30:14Z</time></trkpt>
<trkpt lat="30.071828" lon="101.707016">
<time>2015-08-06T02:30:15Z</time></trkpt>
<trkpt lat="30.072088" lon="101.706846">
<time>2015-08-06T02:30:16Z</time></trkpt>
<trkpt lat="30.072298" lon="101.706726">
<time>2015-08-06T02:30:17Z</time></trkpt>
<trkpt lat="30.072569" lon="101.706616">
<time>2015-08-06T02:30:18Z</time></trkpt>
<trkpt lat="30.072799" lon="101.706536">
<time>2015-08-06T02:30:19Z</time></trkpt>
<trkpt lat="30.073239" lon="101.706406">
<time>2015-08-06T02:30:20Z</time></trkpt>
<trkpt lat="30.073689" lon="101.706267">
<time>2015-08-06T02:30:21Z</time></trkpt>
<trkpt lat="30.07471" lon="101.705927">
<time>2015-08-06T02:30:22Z</time></trkpt>
<trkpt lat="30.07577" lon="101.705578">
<time>2015-08-06T02:30:23Z</time></trkpt>
<trkpt lat="30.07616" lon="101.705448">
<time>2015-08-06T02:30:24Z</time></trkpt>
<trkpt lat="30.076811" lon="101.705238">
<time>2015-08-06T02:30:25Z</time></trkpt>
<trkpt lat="30.077051" lon="101.705148">
<time>2015-08-06T02:30:26Z</time></trkpt>
<trkpt lat="30.077221" lon="101.705058">
<time>2015-08-06T02:30:27Z</time></trkpt>
<trkpt lat="30.077471" lon="101.704919">
<time>2015-08-06T02:30:28Z</time></trkpt>
<trkpt lat="30.077872" lon="101.704669">
<time>2015-08-06T02:30:29Z</time></trkpt>
<trkpt lat="30.078612" lon="101.70417">
<time>2015-08-06T02:30:30Z</time></trkpt>
<trkpt lat="30.079253" lon="101.70372">
<time>2015-08-06T02:30:31Z</time></trkpt>
<trkpt lat="30.079673" lon="101.703421">
<time>2015-08-06T02:30:32Z</time></trkpt>
<trkpt lat="30.080364" lon="101.702941">
<time>2015-08-06T02:30:33Z</time></trkpt>
<trkpt lat="30.080724" lon="101.702682">
<time>2015-08-06T02:30:34Z</time></trkpt>
<trkpt lat="30.081315" lon="101.702213">
<time>2015-08-06T02:30:35Z</time></trkpt>
<trkpt lat="30.081616" lon="101.701973">
<time>2015-08-06T02:30:36Z</time></trkpt>
<trkpt lat="30.081966" lon="101.701673">
<time>2015-08-06T02:30:37Z</time></trkpt>
<trkpt lat="30.082166" lon="101.701504">
<time>2015-08-06T02:30:38Z</time></trkpt>
<trkpt lat="30.082667" lon="101.701074">
<time>2015-08-06T02:30:39Z</time></trkpt>
<trkpt lat="30.083047" lon="101.700755">
<time>2015-08-06T02:30:40Z</time></trkpt>
<trkpt lat="30.083258" lon="101.700555">
<time>2015-08-06T02:30:41Z</time></trkpt>
<trkpt lat="30.083348" lon="101.700455">
<time>2015-08-06T02:30:42Z</time></trkpt>
<trkpt lat="30.083488" lon="101.700286">
<time>2015-08-06T02:30:43Z</time></trkpt>
<trkpt lat="30.083598" lon="101.700136">
<time>2015-08-06T02:30:44Z</time></trkpt>
<trkpt lat="30.083689" lon="101.699986">
<time>2015-08-06T02:30:45Z</time></trkpt>
<trkpt lat="30.08414" lon="101.699197">
<time>2015-08-06T02:30:46Z</time></trkpt>
<trkpt lat="30.084601" lon="101.698399">
<time>2015-08-06T02:30:47Z</time></trkpt>
<trkpt lat="30.084842" lon="101.697989">
<time>2015-08-06T02:30:48Z</time></trkpt>
<trkpt lat="30.085103" lon="101.69754">
<time>2015-08-06T02:30:49Z</time></trkpt>
<trkpt lat="30.085393" lon="101.697031">
<time>2015-08-06T02:30:50Z</time></trkpt>
<trkpt lat="30.085845" lon="101.696242">
<time>2015-08-06T02:30:51Z</time></trkpt>
<trkpt lat="30.086116" lon="101.695763">
<time>2015-08-06T02:30:52Z</time></trkpt>
<trkpt lat="30.086507" lon="101.695104">
<time>2015-08-06T02:30:53Z</time></trkpt>
<trkpt lat="30.087008" lon="101.694246">
<time>2015-08-06T02:30:54Z</time></trkpt>
<trkpt lat="30.087209" lon="101.693896">
<time>2015-08-06T02:30:55Z</time></trkpt>
<trkpt lat="30.08749" lon="101.693367">
<time>2015-08-06T02:30:56Z</time></trkpt>
<trkpt lat="30.08769" lon="101.692888">
<time>2015-08-06T02:30:57Z</time></trkpt>
<trkpt lat="30.087911" lon="101.692339">
<time>2015-08-06T02:30:58Z</time></trkpt>
<trkpt lat="30.088303" lon="101.691361">
<time>2015-08-06T02:30:59Z</time></trkpt>
<trkpt lat="30.088464" lon="101.690942">
<time>2015-08-06T02:31:00Z</time></trkpt>
<trkpt lat="30.088615" lon="101.690483">
<time>2015-08-06T02:31:01Z</time></trkpt>
<trkpt lat="30.088665" lon="101.690273">
<time>2015-08-06T02:31:02Z</time></trkpt>
<trkpt lat="30.088685" lon="101.690073">
<time>2015-08-06T02:31:03Z</time></trkpt>
<trkpt lat="30.088706" lon="101.689784">
<time>2015-08-06T02:31:04Z</time></trkpt>
<trkpt lat="30.088727" lon="101.689395">
<time>2015-08-06T02:31:05Z</time></trkpt>
<trkpt lat="30.088747" lon="101.689115">
<time>2015-08-06T02:31:06Z</time></trkpt>
<trkpt lat="30.088798" lon="101.688397">
<time>2015-08-06T02:31:07Z</time></trkpt>
<trkpt lat="30.088809" lon="101.687957">
<time>2015-08-06T02:31:08Z</time></trkpt>
<trkpt lat="30.08885" lon="101.687369">
<time>2015-08-06T02:31:09Z</time></trkpt>
<trkpt lat="30.088861" lon="101.686939">
<time>2015-08-06T02:31:10Z</time></trkpt>
<trkpt lat="30.088861" lon="101.68674">
<time>2015-08-06T02:31:11Z</time></trkpt>
<trkpt lat="30.088842" lon="101.68652">
<time>2015-08-06T02:31:12Z</time></trkpt>
<trkpt lat="30.088782" lon="101.686131">
<time>2015-08-06T02:31:13Z</time></trkpt>
<trkpt lat="30.088624" lon="101.685323">
<time>2015-08-06T02:31:14Z</time></trkpt>
<trkpt lat="30.088624" lon="101.685023">
<time>2015-08-06T02:31:15Z</time></trkpt>
<trkpt lat="30.088635" lon="101.684684">
<time>2015-08-06T02:31:16Z</time></trkpt>
<trkpt lat="30.088646" lon="101.684454">
<time>2015-08-06T02:31:17Z</time></trkpt>
<trkpt lat="30.088656" lon="101.684155">
<time>2015-08-06T02:31:18Z</time></trkpt>
<trkpt lat="30.088657" lon="101.683776">
<time>2015-08-06T02:31:19Z</time></trkpt>
<trkpt lat="30.088658" lon="101.683047">
<time>2015-08-06T02:31:20Z</time></trkpt>
<trkpt lat="30.08863" lon="101.682209">
<time>2015-08-06T02:31:21Z</time></trkpt>
<trkpt lat="30.08861" lon="101.681889">
<time>2015-08-06T02:31:22Z</time></trkpt>
<trkpt lat="30.088591" lon="101.68166">
<time>2015-08-06T02:31:23Z</time></trkpt>
<trkpt lat="30.088521" lon="101.6813">
<time>2015-08-06T02:31:24Z</time></trkpt>
<trkpt lat="30.088452" lon="101.680991">
<time>2015-08-06T02:31:25Z</time></trkpt>
<trkpt lat="30.088323" lon="101.680652">
<time>2015-08-06T02:31:26Z</time></trkpt>
<trkpt lat="30.088183" lon="101.680352">
<time>2015-08-06T02:31:27Z</time></trkpt>
<trkpt lat="30.087974" lon="101.679973">
<time>2015-08-06T02:31:28Z</time></trkpt>
<trkpt lat="30.087754" lon="101.679664">
<time>2015-08-06T02:31:29Z</time></trkpt>
<trkpt lat="30.087475" lon="101.679305">
<time>2015-08-06T02:31:30Z</time></trkpt>
<trkpt lat="30.087336" lon="101.679025">
<time>2015-08-06T02:31:31Z</time></trkpt>
<trkpt lat="30.087206" lon="101.678716">
<time>2015-08-06T02:31:32Z</time></trkpt>
<trkpt lat="30.086848" lon="101.677857">
<time>2015-08-06T02:31:33Z</time></trkpt>
<trkpt lat="30.086808" lon="101.677718">
<time>2015-08-06T02:31:34Z</time></trkpt>
<trkpt lat="30.086788" lon="101.677608">
<time>2015-08-06T02:31:35Z</time></trkpt>
<trkpt lat="30.086779" lon="101.677498">
<time>2015-08-06T02:31:36Z</time></trkpt>
<trkpt lat="30.086779" lon="101.677349">
<time>2015-08-06T02:31:37Z</time></trkpt>
<trkpt lat="30.086809" lon="101.677189">
<time>2015-08-06T02:31:38Z</time></trkpt>
<trkpt lat="30.08696" lon="101.67681">
<time>2015-08-06T02:31:39Z</time></trkpt>
<trkpt lat="30.08701" lon="101.67664">
<time>2015-08-06T02:31:40Z</time></trkpt>
<trkpt lat="30.08704" lon="101.67654">
<time>2015-08-06T02:31:41Z</time></trkpt>
<trkpt lat="30.087081" lon="101.67638">
<time>2015-08-06T02:31:42Z</time></trkpt>
<trkpt lat="30.087121" lon="101.676071">
<time>2015-08-06T02:31:43Z</time></trkpt>
<trkpt lat="30.087132" lon="101.675802">
<time>2015-08-06T02:31:44Z</time></trkpt>
<trkpt lat="30.087142" lon="101.675602">
<time>2015-08-06T02:31:45Z</time></trkpt>
<trkpt lat="30.087123" lon="101.675323">
<time>2015-08-06T02:31:46Z</time></trkpt>
<trkpt lat="30.087063" lon="101.674933">
<time>2015-08-06T02:31:47Z</time></trkpt>
<trkpt lat="30.087034" lon="101.674714">
<time>2015-08-06T02:31:48Z</time></trkpt>
<trkpt lat="30.086944" lon="101.674355">
<time>2015-08-06T02:31:49Z</time></trkpt>
<trkpt lat="30.086765" lon="101.673886">
<time>2015-08-06T02:31:50Z</time></trkpt>
<trkpt lat="30.086616" lon="101.673596">
<time>2015-08-06T02:31:51Z</time></trkpt>
<trkpt lat="30.086407" lon="101.673227">
<time>2015-08-06T02:31:52Z</time></trkpt>
<trkpt lat="30.086277" lon="101.672978">
<time>2015-08-06T02:31:53Z</time></trkpt>
<trkpt lat="30.086128" lon="101.672548">
<time>2015-08-06T02:31:54Z</time></trkpt>
<trkpt lat="30.085939" lon="101.67201">
<time>2015-08-06T02:31:55Z</time></trkpt>
<trkpt lat="30.08561" lon="101.671261">
<time>2015-08-06T02:31:56Z</time></trkpt>
<trkpt lat="30.085551" lon="101.671131">
<time>2015-08-06T02:31:57Z</time></trkpt>
<trkpt lat="30.085501" lon="101.671002">
<time>2015-08-06T02:31:58Z</time></trkpt>
<trkpt lat="30.085481" lon="101.670912">
<time>2015-08-06T02:31:59Z</time></trkpt>
<trkpt lat="30.085471" lon="101.670802">
<time>2015-08-06T02:32:00Z</time></trkpt>
<trkpt lat="30.085461" lon="101.670692">
<time>2015-08-06T02:32:01Z</time></trkpt>
<trkpt lat="30.085462" lon="101.670563">
<time>2015-08-06T02:32:02Z</time></trkpt>
<trkpt lat="30.085482" lon="101.670413">
<time>2015-08-06T02:32:03Z</time></trkpt>
<trkpt lat="30.085502" lon="101.670273">
<time>2015-08-06T02:32:04Z</time></trkpt>
<trkpt lat="30.085634" lon="101.669505">
<time>2015-08-06T02:32:05Z</time></trkpt>
<trkpt lat="30.085634" lon="101.669315">
<time>2015-08-06T02:32:06Z</time></trkpt>
<trkpt lat="30.085644" lon="101.669215">
<time>2015-08-06T02:32:07Z</time></trkpt>
<trkpt lat="30.085645" lon="101.669116">
<time>2015-08-06T02:32:08Z</time></trkpt>
<trkpt lat="30.085625" lon="101.668856">
<time>2015-08-06T02:32:09Z</time></trkpt>
<trkpt lat="30.085566" lon="101.668517">
<time>2015-08-06T02:32:10Z</time></trkpt>
<trkpt lat="30.085417" lon="101.667868">
<time>2015-08-06T02:32:11Z</time></trkpt>
<trkpt lat="30.085347" lon="101.667569">
<time>2015-08-06T02:32:12Z</time></trkpt>
<trkpt lat="30.085288" lon="101.667379">
<time>2015-08-06T02:32:13Z</time></trkpt>
<trkpt lat="30.085218" lon="101.6672">
<time>2015-08-06T02:32:14Z</time></trkpt>
<trkpt lat="30.085148" lon="101.66708">
<time>2015-08-06T02:32:15Z</time></trkpt>
<trkpt lat="30.085049" lon="101.66688">
<time>2015-08-06T02:32:16Z</time></trkpt>
<trkpt lat="30.08477" lon="101.666361">
<time>2015-08-06T02:32:17Z</time></trkpt>
<trkpt lat="30.08459" lon="101.665992">
<time>2015-08-06T02:32:18Z</time></trkpt>
<trkpt lat="30.084491" lon="101.665802">
<time>2015-08-06T02:32:19Z</time></trkpt>
<trkpt lat="30.084391" lon="101.665633">
<time>2015-08-06T02:32:20Z</time></trkpt>
<trkpt lat="30.084331" lon="101.665493">
<time>2015-08-06T02:32:21Z</time></trkpt>
<trkpt lat="30.084302" lon="101.665393">
<time>2015-08-06T02:32:22Z</time></trkpt>
<trkpt lat="30.084272" lon="101.665264">
<time>2015-08-06T02:32:23Z</time></trkpt>
<trkpt lat="30.084203" lon="101.664884">
<time>2015-08-06T02:32:24Z</time></trkpt>
<trkpt lat="30.084173" lon="101.664705">
<time>2015-08-06T02:32:25Z</time></trkpt>
<trkpt lat="30.084094" lon="101.664276">
<time>2015-08-06T02:32:26Z</time></trkpt>
<trkpt lat="30.084015" lon="101.663807">
<time>2015-08-06T02:32:27Z</time></trkpt>
<trkpt lat="30.083935" lon="101.663417">
<time>2015-08-06T02:32:28Z</time></trkpt>
<trkpt lat="30.083886" lon="101.663108">
<time>2015-08-06T02:32:29Z</time></trkpt>
<trkpt lat="30.083807" lon="101.662649">
<time>2015-08-06T02:32:30Z</time></trkpt>
<trkpt lat="30.083718" lon="101.66201">
<time>2015-08-06T02:32:31Z</time></trkpt>
<trkpt lat="30.083679" lon="101.661751">
<time>2015-08-06T02:32:32Z</time></trkpt>
<trkpt lat="30.083639" lon="101.661551">
<time>2015-08-06T02:32:33Z</time></trkpt>
<trkpt lat="30.083619" lon="101.661441">
<time>2015-08-06T02:32:34Z</time></trkpt>
<trkpt lat="30.083569" lon="101.661272">
<time>2015-08-06T02:32:35Z</time></trkpt>
<trkpt lat="30.083421" lon="101.660673">
<time>2015-08-06T02:32:36Z</time></trkpt>
<trkpt lat="30.083371" lon="101.660453">
<time>2015-08-06T02:32:37Z</time></trkpt>
<trkpt lat="30.083341" lon="101.660344">
<time>2015-08-06T02:32:38Z</time></trkpt>
<trkpt lat="30.083252" lon="101.659845">
<time>2015-08-06T02:32:39Z</time></trkpt>
<trkpt lat="30.083173" lon="101.659545">
<time>2015-08-06T02:32:40Z</time></trkpt>
<trkpt lat="30.083073" lon="101.659246">
<time>2015-08-06T02:32:41Z</time></trkpt>
<trkpt lat="30.082994" lon="101.659046">
<time>2015-08-06T02:32:42Z</time></trkpt>
<trkpt lat="30.082804" lon="101.658687">
<time>2015-08-06T02:32:43Z</time></trkpt>
<trkpt lat="30.082705" lon="101.658467">
<time>2015-08-06T02:32:44Z</time></trkpt>
<trkpt lat="30.082635" lon="101.658308">
<time>2015-08-06T02:32:45Z</time></trkpt>
<trkpt lat="30.082575" lon="101.658168">
<time>2015-08-06T02:32:46Z</time></trkpt>
<trkpt lat="30.082525" lon="101.658038">
<time>2015-08-06T02:32:47Z</time></trkpt>
<trkpt lat="30.082446" lon="101.657799">
<time>2015-08-06T02:32:48Z</time></trkpt>
<trkpt lat="30.082396" lon="101.657609">
<time>2015-08-06T02:32:49Z</time></trkpt>
<trkpt lat="30.082317" lon="101.65736">
<time>2015-08-06T02:32:50Z</time></trkpt>
<trkpt lat="30.082237" lon="101.65713">
<time>2015-08-06T02:32:51Z</time></trkpt>
<trkpt lat="30.082128" lon="101.656841">
<time>2015-08-06T02:32:52Z</time></trkpt>
<trkpt lat="30.082038" lon="101.656581">
<time>2015-08-06T02:32:53Z</time></trkpt>
<trkpt lat="30.081988" lon="101.656412">
<time>2015-08-06T02:32:54Z</time></trkpt>
<trkpt lat="30.081919" lon="101.655983">
<time>2015-08-06T02:32:55Z</time></trkpt>
<trkpt lat="30.081781" lon="101.655074">
<time>2015-08-06T02:32:56Z</time></trkpt>
<trkpt lat="30.081682" lon="101.654555">
<time>2015-08-06T02:32:57Z</time></trkpt>
<trkpt lat="30.081583" lon="101.653957">
<time>2015-08-06T02:32:58Z</time></trkpt>
<trkpt lat="30.081534" lon="101.653627">
<time>2015-08-06T02:32:59Z</time></trkpt>
<trkpt lat="30.081464" lon="101.653348">
<time>2015-08-06T02:33:00Z</time></trkpt>
<trkpt lat="30.081404" lon="101.653148">
<time>2015-08-06T02:33:01Z</time></trkpt>
<trkpt lat="30.081116" lon="101.65239">
<time>2015-08-06T02:33:02Z</time></trkpt>
<trkpt lat="30.081026" lon="101.65214">
<time>2015-08-06T02:33:03Z</time></trkpt>
<trkpt lat="30.080956" lon="101.65201">
<time>2015-08-06T02:33:04Z</time></trkpt>
<trkpt lat="30.080857" lon="101.651831">
<time>2015-08-06T02:33:05Z</time></trkpt>
<trkpt lat="30.080737" lon="101.651651">
<time>2015-08-06T02:33:06Z</time></trkpt>
<trkpt lat="30.080657" lon="101.651491">
<time>2015-08-06T02:33:07Z</time></trkpt>
<trkpt lat="30.080598" lon="101.651352">
<time>2015-08-06T02:33:08Z</time></trkpt>
<trkpt lat="30.080558" lon="101.651202">
<time>2015-08-06T02:33:09Z</time></trkpt>
<trkpt lat="30.080518" lon="101.650982">
<time>2015-08-06T02:33:10Z</time></trkpt>
<trkpt lat="30.080469" lon="101.650703">
<time>2015-08-06T02:33:11Z</time></trkpt>
<trkpt lat="30.080419" lon="101.650483">
<time>2015-08-06T02:33:12Z</time></trkpt>
<trkpt lat="30.080379" lon="101.650334">
<time>2015-08-06T02:33:13Z</time></trkpt>
<trkpt lat="30.08033" lon="101.650134">
<time>2015-08-06T02:33:14Z</time></trkpt>
<trkpt lat="30.08026" lon="101.649825">
<time>2015-08-06T02:33:15Z</time></trkpt>
<trkpt lat="30.080221" lon="101.649595">
<time>2015-08-06T02:33:16Z</time></trkpt>
<trkpt lat="30.080122" lon="101.648817">
<time>2015-08-06T02:33:17Z</time></trkpt>
<trkpt lat="30.080013" lon="101.648098">
<time>2015-08-06T02:33:18Z</time></trkpt>
<trkpt lat="30.079944" lon="101.647569">
<time>2015-08-06T02:33:19Z</time></trkpt>
<trkpt lat="30.079885" lon="101.64693">
<time>2015-08-06T02:33:20Z</time></trkpt>
<trkpt lat="30.079846" lon="101.646411">
<time>2015-08-06T02:33:21Z</time></trkpt>
<trkpt lat="30.079817" lon="101.646151">
<time>2015-08-06T02:33:22Z</time></trkpt>
<trkpt lat="30.079728" lon="101.645593">
<time>2015-08-06T02:33:23Z</time></trkpt>
<trkpt lat="30.079678" lon="101.645233">
<time>2015-08-06T02:33:24Z</time></trkpt>
<trkpt lat="30.079609" lon="101.644624">
<time>2015-08-06T02:33:25Z</time></trkpt>
<trkpt lat="30.07956" lon="101.644065">
<time>2015-08-06T02:33:26Z</time></trkpt>
<trkpt lat="30.079531" lon="101.643556">
<time>2015-08-06T02:33:27Z</time></trkpt>
<trkpt lat="30.079502" lon="101.643147">
<time>2015-08-06T02:33:28Z</time></trkpt>
<trkpt lat="30.079482" lon="101.642808">
<time>2015-08-06T02:33:29Z</time></trkpt>
<trkpt lat="30.079463" lon="101.642388">
<time>2015-08-06T02:33:30Z</time></trkpt>
<trkpt lat="30.079463" lon="101.642089">
<time>2015-08-06T02:33:31Z</time></trkpt>
<trkpt lat="30.079454" lon="101.641909">
<time>2015-08-06T02:33:32Z</time></trkpt>
<trkpt lat="30.079434" lon="101.641739">
<time>2015-08-06T02:33:33Z</time></trkpt>
<trkpt lat="30.079374" lon="101.64142">
<time>2015-08-06T02:33:34Z</time></trkpt>
<trkpt lat="30.079325" lon="101.64112">
<time>2015-08-06T02:33:35Z</time></trkpt>
<trkpt lat="30.079275" lon="101.640831">
<time>2015-08-06T02:33:36Z</time></trkpt>
<trkpt lat="30.079266" lon="101.640482">
<time>2015-08-06T02:33:37Z</time></trkpt>
<trkpt lat="30.079237" lon="101.640032">
<time>2015-08-06T02:33:38Z</time></trkpt>
<trkpt lat="30.079207" lon="101.639673">
<time>2015-08-06T02:33:39Z</time></trkpt>
<trkpt lat="30.079188" lon="101.639413">
<time>2015-08-06T02:33:40Z</time></trkpt>
<trkpt lat="30.079158" lon="101.639134">
<time>2015-08-06T02:33:41Z</time></trkpt>
<trkpt lat="30.079098" lon="101.638824">
<time>2015-08-06T02:33:42Z</time></trkpt>
<trkpt lat="30.079079" lon="101.638695">
<time>2015-08-06T02:33:43Z</time></trkpt>
<trkpt lat="30.079069" lon="101.638485">
<time>2015-08-06T02:33:44Z</time></trkpt>
<trkpt lat="30.079069" lon="101.638315">
<time>2015-08-06T02:33:45Z</time></trkpt>
<trkpt lat="30.07907" lon="101.638026">
<time>2015-08-06T02:33:46Z</time></trkpt>
<trkpt lat="30.07906" lon="101.637806">
<time>2015-08-06T02:33:47Z</time></trkpt>
<trkpt lat="30.079011" lon="101.637407">
<time>2015-08-06T02:33:48Z</time></trkpt>
<trkpt lat="30.078981" lon="101.637157">
<time>2015-08-06T02:33:49Z</time></trkpt>
<trkpt lat="30.078971" lon="101.636898">
<time>2015-08-06T02:33:50Z</time></trkpt>
<trkpt lat="30.078992" lon="101.636748">
<time>2015-08-06T02:33:51Z</time></trkpt>
<trkpt lat="30.079052" lon="101.636348">
<time>2015-08-06T02:33:52Z</time></trkpt>
<trkpt lat="30.079083" lon="101.636079">
<time>2015-08-06T02:33:53Z</time></trkpt>
<trkpt lat="30.079083" lon="101.635699">
<time>2015-08-06T02:33:54Z</time></trkpt>
<trkpt lat="30.079063" lon="101.63547">
<time>2015-08-06T02:33:55Z</time></trkpt>
<trkpt lat="30.079044" lon="101.63525">
<time>2015-08-06T02:33:56Z</time></trkpt>
<trkpt lat="30.078984" lon="101.634921">
<time>2015-08-06T02:33:57Z</time></trkpt>
<trkpt lat="30.078935" lon="101.634671">
<time>2015-08-06T02:33:58Z</time></trkpt>
<trkpt lat="30.078905" lon="101.634411">
<time>2015-08-06T02:33:59Z</time></trkpt>
<trkpt lat="30.078875" lon="101.634132">
<time>2015-08-06T02:34:00Z</time></trkpt>
<trkpt lat="30.078866" lon="101.633892">
<time>2015-08-06T02:34:01Z</time></trkpt>
<trkpt lat="30.078876" lon="101.633583">
<time>2015-08-06T02:34:02Z</time></trkpt>
<trkpt lat="30.078897" lon="101.633163">
<time>2015-08-06T02:34:03Z</time></trkpt>
<trkpt lat="30.078897" lon="101.632624">
<time>2015-08-06T02:34:04Z</time></trkpt>
<trkpt lat="30.078928" lon="101.631845">
<time>2015-08-06T02:34:05Z</time></trkpt>
<trkpt lat="30.07891" lon="101.631016">
<time>2015-08-06T02:34:06Z</time></trkpt>
<trkpt lat="30.0789" lon="101.630627">
<time>2015-08-06T02:34:07Z</time></trkpt>
<trkpt lat="30.078861" lon="101.630188">
<time>2015-08-06T02:34:08Z</time></trkpt>
<trkpt lat="30.078811" lon="101.629638">
<time>2015-08-06T02:34:09Z</time></trkpt>
<trkpt lat="30.078782" lon="101.629319">
<time>2015-08-06T02:34:10Z</time></trkpt>
<trkpt lat="30.078742" lon="101.62882">
<time>2015-08-06T02:34:11Z</time></trkpt>
<trkpt lat="30.078723" lon="101.62857">
<time>2015-08-06T02:34:12Z</time></trkpt>
<trkpt lat="30.078683" lon="101.62828">
<time>2015-08-06T02:34:13Z</time></trkpt>
<trkpt lat="30.078604" lon="101.627851">
<time>2015-08-06T02:34:14Z</time></trkpt>
<trkpt lat="30.078554" lon="101.627391">
<time>2015-08-06T02:34:15Z</time></trkpt>
<trkpt lat="30.078515" lon="101.627082">
<time>2015-08-06T02:34:16Z</time></trkpt>
<trkpt lat="30.078495" lon="101.626912">
<time>2015-08-06T02:34:17Z</time></trkpt>
<trkpt lat="30.078495" lon="101.626742">
<time>2015-08-06T02:34:18Z</time></trkpt>
<trkpt lat="30.078525" lon="101.626473">
<time>2015-08-06T02:34:19Z</time></trkpt>
<trkpt lat="30.078546" lon="101.626273">
<time>2015-08-06T02:34:20Z</time></trkpt>
<trkpt lat="30.078606" lon="101.625853">
<time>2015-08-06T02:34:21Z</time></trkpt>
<trkpt lat="30.078626" lon="101.625604">
<time>2015-08-06T02:34:22Z</time></trkpt>
<trkpt lat="30.078657" lon="101.625234">
<time>2015-08-06T02:34:23Z</time></trkpt>
<trkpt lat="30.078667" lon="101.625014">
<time>2015-08-06T02:34:24Z</time></trkpt>
<trkpt lat="30.078667" lon="101.624735">
<time>2015-08-06T02:34:25Z</time></trkpt>
<trkpt lat="30.078668" lon="101.624515">
<time>2015-08-06T02:34:26Z</time></trkpt>
<trkpt lat="30.078628" lon="101.624295">
<time>2015-08-06T02:34:27Z</time></trkpt>
<trkpt lat="30.078578" lon="101.624086">
<time>2015-08-06T02:34:28Z</time></trkpt>
<trkpt lat="30.078468" lon="101.623796">
<time>2015-08-06T02:34:29Z</time></trkpt>
<trkpt lat="30.078349" lon="101.623436">
<time>2015-08-06T02:34:30Z</time></trkpt>
<trkpt lat="30.078319" lon="101.623297">
<time>2015-08-06T02:34:31Z</time></trkpt>
<trkpt lat="30.078289" lon="101.623097">
<time>2015-08-06T02:34:32Z</time></trkpt>
<trkpt lat="30.07826" lon="101.622587">
<time>2015-08-06T02:34:33Z</time></trkpt>
<trkpt lat="30.07821" lon="101.622208">
<time>2015-08-06T02:34:34Z</time></trkpt>
<trkpt lat="30.078091" lon="101.621638">
<time>2015-08-06T02:34:35Z</time></trkpt>
<trkpt lat="30.077692" lon="101.62001">
<time>2015-08-06T02:34:36Z</time></trkpt>
<trkpt lat="30.077523" lon="101.619301">
<time>2015-08-06T02:34:37Z</time></trkpt>
<trkpt lat="30.077423" lon="101.618801">
<time>2015-08-06T02:34:38Z</time></trkpt>
<trkpt lat="30.077214" lon="101.618122">
<time>2015-08-06T02:34:39Z</time></trkpt>
<trkpt lat="30.076945" lon="101.617263">
<time>2015-08-06T02:34:40Z</time></trkpt>
<trkpt lat="30.076865" lon="101.617063">
<time>2015-08-06T02:34:41Z</time></trkpt>
<trkpt lat="30.076765" lon="101.616653">
<time>2015-08-06T02:34:42Z</time></trkpt>
<trkpt lat="30.076696" lon="101.616244">
<time>2015-08-06T02:34:43Z</time></trkpt>
<trkpt lat="30.076576" lon="101.615584">
<time>2015-08-06T02:34:44Z</time></trkpt>
<trkpt lat="30.076367" lon="101.614435">
<time>2015-08-06T02:34:45Z</time></trkpt>
<trkpt lat="30.076257" lon="101.613846">
<time>2015-08-06T02:34:46Z</time></trkpt>
<trkpt lat="30.076038" lon="101.612927">
<time>2015-08-06T02:34:47Z</time></trkpt>
<trkpt lat="30.075958" lon="101.612437">
<time>2015-08-06T02:34:48Z</time></trkpt>
<trkpt lat="30.075859" lon="101.611458">
<time>2015-08-06T02:34:49Z</time></trkpt>
<trkpt lat="30.0758" lon="101.610768">
<time>2015-08-06T02:34:50Z</time></trkpt>
<trkpt lat="30.07579" lon="101.610258">
<time>2015-08-06T02:34:51Z</time></trkpt>
<trkpt lat="30.075781" lon="101.608969">
<time>2015-08-06T02:34:52Z</time></trkpt>
<trkpt lat="30.075761" lon="101.608769">
<time>2015-08-06T02:34:53Z</time></trkpt>
<trkpt lat="30.075751" lon="101.608599">
<time>2015-08-06T02:34:54Z</time></trkpt>
<trkpt lat="30.075701" lon="101.608419">
<time>2015-08-06T02:34:55Z</time></trkpt>
<trkpt lat="30.075551" lon="101.6081">
<time>2015-08-06T02:34:56Z</time></trkpt>
<trkpt lat="30.075141" lon="101.60722">
<time>2015-08-06T02:34:57Z</time></trkpt>
<trkpt lat="30.074962" lon="101.60675">
<time>2015-08-06T02:34:58Z</time></trkpt>
<trkpt lat="30.074572" lon="101.605601">
<time>2015-08-06T02:34:59Z</time></trkpt>
<trkpt lat="30.074133" lon="101.604311">
<time>2015-08-06T02:35:00Z</time></trkpt>
<trkpt lat="30.073943" lon="101.603662">
<time>2015-08-06T02:35:01Z</time></trkpt>
<trkpt lat="30.073823" lon="101.603262">
<time>2015-08-06T02:35:02Z</time></trkpt>
<trkpt lat="30.073603" lon="101.602772">
<time>2015-08-06T02:35:03Z</time></trkpt>
<trkpt lat="30.073363" lon="101.602302">
<time>2015-08-06T02:35:04Z</time></trkpt>
<trkpt lat="30.073193" lon="101.601992">
<time>2015-08-06T02:35:05Z</time></trkpt>
<trkpt lat="30.073033" lon="101.601692">
<time>2015-08-06T02:35:06Z</time></trkpt>
<trkpt lat="30.072834" lon="101.601192">
<time>2015-08-06T02:35:07Z</time></trkpt>
<trkpt lat="30.072774" lon="101.600942">
<time>2015-08-06T02:35:08Z</time></trkpt>
<trkpt lat="30.072544" lon="101.600053">
<time>2015-08-06T02:35:09Z</time></trkpt>
<trkpt lat="30.072464" lon="101.599823">
<time>2015-08-06T02:35:10Z</time></trkpt>
<trkpt lat="30.072304" lon="101.599453">
<time>2015-08-06T02:35:11Z</time></trkpt>
<trkpt lat="30.071934" lon="101.598803">
<time>2015-08-06T02:35:12Z</time></trkpt>
<trkpt lat="30.071714" lon="101.598443">
<time>2015-08-06T02:35:13Z</time></trkpt>
<trkpt lat="30.071594" lon="101.598303">
<time>2015-08-06T02:35:14Z</time></trkpt>
<trkpt lat="30.070704" lon="101.597173">
<time>2015-08-06T02:35:15Z</time></trkpt>
<trkpt lat="30.070344" lon="101.596703">
<time>2015-08-06T02:35:16Z</time></trkpt>
<trkpt lat="30.070244" lon="101.596553">
<time>2015-08-06T02:35:17Z</time></trkpt>
<trkpt lat="30.070174" lon="101.596393">
<time>2015-08-06T02:35:18Z</time></trkpt>
<trkpt lat="30.070014" lon="101.595953">
<time>2015-08-06T02:35:19Z</time></trkpt>
<trkpt lat="30.069584" lon="101.594823">
<time>2015-08-06T02:35:20Z</time></trkpt>
<trkpt lat="30.069454" lon="101.594483">
<time>2015-08-06T02:35:21Z</time></trkpt>
<trkpt lat="30.069244" lon="101.593983">
<time>2015-08-06T02:35:22Z</time></trkpt>
<trkpt lat="30.069184" lon="101.593853">
<time>2015-08-06T02:35:23Z</time></trkpt>
<trkpt lat="30.069094" lon="101.593713">
<time>2015-08-06T02:35:24Z</time></trkpt>
<trkpt lat="30.067894" lon="101.592022">
<time>2015-08-06T02:35:25Z</time></trkpt>
<trkpt lat="30.067093" lon="101.590872">
<time>2015-08-06T02:35:26Z</time></trkpt>
<trkpt lat="30.066953" lon="101.590692">
<time>2015-08-06T02:35:27Z</time></trkpt>
<trkpt lat="30.066613" lon="101.590342">
<time>2015-08-06T02:35:28Z</time></trkpt>
<trkpt lat="30.065503" lon="101.589312">
<time>2015-08-06T02:35:29Z</time></trkpt>
<trkpt lat="30.064943" lon="101.588871">
<time>2015-08-06T02:35:30Z</time></trkpt>
<trkpt lat="30.064793" lon="101.588761">
<time>2015-08-06T02:35:31Z</time></trkpt>
<trkpt lat="30.064723" lon="101.588681">
<time>2015-08-06T02:35:32Z</time></trkpt>
<trkpt lat="30.064653" lon="101.588591">
<time>2015-08-06T02:35:33Z</time></trkpt>
<trkpt lat="30.064603" lon="101.588511">
<time>2015-08-06T02:35:34Z</time></trkpt>
<trkpt lat="30.064262" lon="101.587821">
<time>2015-08-06T02:35:35Z</time></trkpt>
<trkpt lat="30.063392" lon="101.58609">
<time>2015-08-06T02:35:36Z</time></trkpt>
<trkpt lat="30.062431" lon="101.584329">
<time>2015-08-06T02:35:37Z</time></trkpt>
<trkpt lat="30.06146" lon="101.582648">
<time>2015-08-06T02:35:38Z</time></trkpt>
<trkpt lat="30.060559" lon="101.581047">
<time>2015-08-06T02:35:39Z</time></trkpt>
<trkpt lat="30.059948" lon="101.579956">
<time>2015-08-06T02:35:40Z</time></trkpt>
<trkpt lat="30.059848" lon="101.579796">
<time>2015-08-06T02:35:41Z</time></trkpt>
<trkpt lat="30.059748" lon="101.579666">
<time>2015-08-06T02:35:42Z</time></trkpt>
<trkpt lat="30.059478" lon="101.579365">
<time>2015-08-06T02:35:43Z</time></trkpt>
<trkpt lat="30.059348" lon="101.579225">
<time>2015-08-06T02:35:44Z</time></trkpt>
<trkpt lat="30.058657" lon="101.578214">
<time>2015-08-06T02:35:45Z</time></trkpt>
<trkpt lat="30.058046" lon="101.577334">
<time>2015-08-06T02:35:46Z</time></trkpt>
<trkpt lat="30.057245" lon="101.576493">
<time>2015-08-06T02:35:47Z</time></trkpt>
<trkpt lat="30.057075" lon="101.576303">
<time>2015-08-06T02:35:48Z</time></trkpt>
<trkpt lat="30.056895" lon="101.576162">
<time>2015-08-06T02:35:49Z</time></trkpt>
<trkpt lat="30.055454" lon="101.575041">
<time>2015-08-06T02:35:50Z</time></trkpt>
<trkpt lat="30.053653" lon="101.57365">
<time>2015-08-06T02:35:51Z</time></trkpt>
<trkpt lat="30.052241" lon="101.572559">
<time>2015-08-06T02:35:52Z</time></trkpt>
<trkpt lat="30.05088" lon="101.571517">
<time>2015-08-06T02:35:53Z</time></trkpt>
<trkpt lat="30.049929" lon="101.570726">
<time>2015-08-06T02:35:54Z</time></trkpt>
<trkpt lat="30.049109" lon="101.570005">
<time>2015-08-06T02:35:55Z</time></trkpt>
<trkpt lat="30.048798" lon="101.569725">
<time>2015-08-06T02:35:56Z</time></trkpt>
<trkpt lat="30.048018" lon="101.569144">
<time>2015-08-06T02:35:57Z</time></trkpt>
<trkpt lat="30.047927" lon="101.569074">
<time>2015-08-06T02:35:58Z</time></trkpt>
<trkpt lat="30.047607" lon="101.568533">
<time>2015-08-06T02:35:59Z</time></trkpt>
<trkpt lat="30.047166" lon="101.567702">
<time>2015-08-06T02:36:00Z</time></trkpt>
<trkpt lat="30.046695" lon="101.566841">
<time>2015-08-06T02:36:01Z</time></trkpt>
<trkpt lat="30.046444" lon="101.56639">
<time>2015-08-06T02:36:02Z</time></trkpt>
<trkpt lat="30.046324" lon="101.56609">
<time>2015-08-06T02:36:03Z</time></trkpt>
<trkpt lat="30.046062" lon="101.565098">
<time>2015-08-06T02:36:04Z</time></trkpt>
<trkpt lat="30.045901" lon="101.564417">
<time>2015-08-06T02:36:05Z</time></trkpt>
<trkpt lat="30.04567" lon="101.563676">
<time>2015-08-06T02:36:06Z</time></trkpt>
<trkpt lat="30.04551" lon="101.563175">
<time>2015-08-06T02:36:07Z</time></trkpt>
<trkpt lat="30.045439" lon="101.562895">
<time>2015-08-06T02:36:08Z</time></trkpt>
<trkpt lat="30.045379" lon="101.562534">
<time>2015-08-06T02:36:09Z</time></trkpt>
<trkpt lat="30.045398" lon="101.562164">
<time>2015-08-06T02:36:10Z</time></trkpt>
<trkpt lat="30.045397" lon="101.561683">
<time>2015-08-06T02:36:11Z</time></trkpt>
<trkpt lat="30.045327" lon="101.561122">
<time>2015-08-06T02:36:12Z</time></trkpt>
<trkpt lat="30.045194" lon="101.559689">
<time>2015-08-06T02:36:13Z</time></trkpt>
<trkpt lat="30.045113" lon="101.558978">
<time>2015-08-06T02:36:14Z</time></trkpt>
<trkpt lat="30.045063" lon="101.558727">
<time>2015-08-06T02:36:15Z</time></trkpt>
<trkpt lat="30.045033" lon="101.558597">
<time>2015-08-06T02:36:16Z</time></trkpt>
<trkpt lat="30.044701" lon="101.557826">
<time>2015-08-06T02:36:17Z</time></trkpt>
<trkpt lat="30.04445" lon="101.557164">
<time>2015-08-06T02:36:18Z</time></trkpt>
<trkpt lat="30.044128" lon="101.556132">
<time>2015-08-06T02:36:19Z</time></trkpt>
<trkpt lat="30.043917" lon="101.555551">
<time>2015-08-06T02:36:20Z</time></trkpt>
<trkpt lat="30.043646" lon="101.55502">
<time>2015-08-06T02:36:21Z</time></trkpt>
<trkpt lat="30.043376" lon="101.554589">
<time>2015-08-06T02:36:22Z</time></trkpt>
<trkpt lat="30.043175" lon="101.554249">
<time>2015-08-06T02:36:23Z</time></trkpt>
<trkpt lat="30.043035" lon="101.554038">
<time>2015-08-06T02:36:24Z</time></trkpt>
<trkpt lat="30.042724" lon="101.553667">
<time>2015-08-06T02:36:25Z</time></trkpt>
<trkpt lat="30.042463" lon="101.553317">
<time>2015-08-06T02:36:26Z</time></trkpt>
<trkpt lat="30.041811" lon="101.552315">
<time>2015-08-06T02:36:27Z</time></trkpt>
<trkpt lat="30.041139" lon="101.551342">
<time>2015-08-06T02:36:28Z</time></trkpt>
<trkpt lat="30.040688" lon="101.550701">
<time>2015-08-06T02:36:29Z</time></trkpt>
<trkpt lat="30.040518" lon="101.55041">
<time>2015-08-06T02:36:30Z</time></trkpt>
<trkpt lat="30.040186" lon="101.549799">
<time>2015-08-06T02:36:31Z</time></trkpt>
<trkpt lat="30.039694" lon="101.548717">
<time>2015-08-06T02:36:32Z</time></trkpt>
<trkpt lat="30.039413" lon="101.548155">
<time>2015-08-06T02:36:33Z</time></trkpt>
<trkpt lat="30.039283" lon="101.547945">
<time>2015-08-06T02:36:34Z</time></trkpt>
<trkpt lat="30.039192" lon="101.547835">
<time>2015-08-06T02:36:35Z</time></trkpt>
<trkpt lat="30.038942" lon="101.547584">
<time>2015-08-06T02:36:36Z</time></trkpt>
<trkpt lat="30.038221" lon="101.546902">
<time>2015-08-06T02:36:37Z</time></trkpt>
<trkpt lat="30.03803" lon="101.546682">
<time>2015-08-06T02:36:38Z</time></trkpt>
<trkpt lat="30.03803" lon="101.546682">
<time>2015-08-06T02:36:39Z</time></trkpt>
<trkpt lat="30.038069" lon="101.54598">
<time>2015-08-06T02:36:40Z</time></trkpt>
<trkpt lat="30.038284" lon="101.543805">
<time>2015-08-06T02:36:41Z</time></trkpt>
<trkpt lat="30.038263" lon="101.543374">
<time>2015-08-06T02:36:42Z</time></trkpt>
<trkpt lat="30.038222" lon="101.543013">
<time>2015-08-06T02:36:43Z</time></trkpt>
<trkpt lat="30.038111" lon="101.542612">
<time>2015-08-06T02:36:44Z</time></trkpt>
<trkpt lat="30.038" lon="101.542191">
<time>2015-08-06T02:36:45Z</time></trkpt>
<trkpt lat="30.037829" lon="101.54171">
<time>2015-08-06T02:36:46Z</time></trkpt>
<trkpt lat="30.037679" lon="101.541429">
<time>2015-08-06T02:36:47Z</time></trkpt>
<trkpt lat="30.037438" lon="101.541188">
<time>2015-08-06T02:36:48Z</time></trkpt>
<trkpt lat="30.037268" lon="101.541058">
<time>2015-08-06T02:36:49Z</time></trkpt>
<trkpt lat="30.037098" lon="101.540968">
<time>2015-08-06T02:36:50Z</time></trkpt>
<trkpt lat="30.036177" lon="101.540757">
<time>2015-08-06T02:36:51Z</time></trkpt>
<trkpt lat="30.035587" lon="101.540637">
<time>2015-08-06T02:36:52Z</time></trkpt>
<trkpt lat="30.035156" lon="101.540497">
<time>2015-08-06T02:36:53Z</time></trkpt>
<trkpt lat="30.034846" lon="101.540346">
<time>2015-08-06T02:36:54Z</time></trkpt>
<trkpt lat="30.034456" lon="101.540116">
<time>2015-08-06T02:36:55Z</time></trkpt>
<trkpt lat="30.034035" lon="101.539785">
<time>2015-08-06T02:36:56Z</time></trkpt>
<trkpt lat="30.033554" lon="101.539494">
<time>2015-08-06T02:36:57Z</time></trkpt>
<trkpt lat="30.032543" lon="101.538842">
<time>2015-08-06T02:36:58Z</time></trkpt>
<trkpt lat="30.032442" lon="101.538792">
<time>2015-08-06T02:36:59Z</time></trkpt>
<trkpt lat="30.032332" lon="101.538762">
<time>2015-08-06T02:37:00Z</time></trkpt>
<trkpt lat="30.031922" lon="101.538692">
<time>2015-08-06T02:37:01Z</time></trkpt>
<trkpt lat="30.031652" lon="101.538622">
<time>2015-08-06T02:37:02Z</time></trkpt>
<trkpt lat="30.031532" lon="101.538572">
<time>2015-08-06T02:37:03Z</time></trkpt>
<trkpt lat="30.031392" lon="101.538501">
<time>2015-08-06T02:37:04Z</time></trkpt>
<trkpt lat="30.031282" lon="101.538411">
<time>2015-08-06T02:37:05Z</time></trkpt>
<trkpt lat="30.031141" lon="101.538261">
<time>2015-08-06T02:37:06Z</time></trkpt>
<trkpt lat="30.03077" lon="101.5379">
<time>2015-08-06T02:37:07Z</time></trkpt>
<trkpt lat="30.03061" lon="101.537749">
<time>2015-08-06T02:37:08Z</time></trkpt>
<trkpt lat="30.03036" lon="101.537599">
<time>2015-08-06T02:37:09Z</time></trkpt>
<trkpt lat="30.029448" lon="101.537108">
<time>2015-08-06T02:37:10Z</time></trkpt>
<trkpt lat="30.029118" lon="101.536947">
<time>2015-08-06T02:37:11Z</time></trkpt>
<trkpt lat="30.028848" lon="101.536817">
<time>2015-08-06T02:37:12Z</time></trkpt>
<trkpt lat="30.028648" lon="101.536757">
<time>2015-08-06T02:37:13Z</time></trkpt>
<trkpt lat="30.028478" lon="101.536747">
<time>2015-08-06T02:37:14Z</time></trkpt>
<trkpt lat="30.028358" lon="101.536747">
<time>2015-08-06T02:37:15Z</time></trkpt>
<trkpt lat="30.028208" lon="101.536757">
<time>2015-08-06T02:37:16Z</time></trkpt>
<trkpt lat="30.028048" lon="101.536747">
<time>2015-08-06T02:37:17Z</time></trkpt>
<trkpt lat="30.027897" lon="101.536717">
<time>2015-08-06T02:37:18Z</time></trkpt>
<trkpt lat="30.027677" lon="101.536616">
<time>2015-08-06T02:37:19Z</time></trkpt>
<trkpt lat="30.027087" lon="101.536326">
<time>2015-08-06T02:37:20Z</time></trkpt>
<trkpt lat="30.026326" lon="101.535925">
<time>2015-08-06T02:37:21Z</time></trkpt>
<trkpt lat="30.025435" lon="101.535554">
<time>2015-08-06T02:37:22Z</time></trkpt>
<trkpt lat="30.023723" lon="101.534852">
<time>2015-08-06T02:37:23Z</time></trkpt>
<trkpt lat="30.022211" lon="101.53422">
<time>2015-08-06T02:37:24Z</time></trkpt>
<trkpt lat="30.02073" lon="101.533638">
<time>2015-08-06T02:37:25Z</time></trkpt>
<trkpt lat="30.020399" lon="101.533488">
<time>2015-08-06T02:37:26Z</time></trkpt>
<trkpt lat="30.020189" lon="101.533368">
<time>2015-08-06T02:37:27Z</time></trkpt>
<trkpt lat="30.019738" lon="101.533047">
<time>2015-08-06T02:37:28Z</time></trkpt>
<trkpt lat="30.018656" lon="101.532245">
<time>2015-08-06T02:37:29Z</time></trkpt>
<trkpt lat="30.018506" lon="101.532114">
<time>2015-08-06T02:37:30Z</time></trkpt>
<trkpt lat="30.018406" lon="101.532014">
<time>2015-08-06T02:37:31Z</time></trkpt>
<trkpt lat="30.018295" lon="101.531863">
<time>2015-08-06T02:37:32Z</time></trkpt>
<trkpt lat="30.018225" lon="101.531703">
<time>2015-08-06T02:37:33Z</time></trkpt>
<trkpt lat="30.018154" lon="101.531372">
<time>2015-08-06T02:37:34Z</time></trkpt>
<trkpt lat="30.018134" lon="101.531161">
<time>2015-08-06T02:37:35Z</time></trkpt>
<trkpt lat="30.018193" lon="101.5308">
<time>2015-08-06T02:37:36Z</time></trkpt>
<trkpt lat="30.018232" lon="101.53061">
<time>2015-08-06T02:37:37Z</time></trkpt>
<trkpt lat="30.018282" lon="101.530459">
<time>2015-08-06T02:37:38Z</time></trkpt>
<trkpt lat="30.018371" lon="101.530329">
<time>2015-08-06T02:37:39Z</time></trkpt>
<trkpt lat="30.018471" lon="101.530229">
<time>2015-08-06T02:37:40Z</time></trkpt>
<trkpt lat="30.018581" lon="101.530148">
<time>2015-08-06T02:37:41Z</time></trkpt>
<trkpt lat="30.01889" lon="101.529978">
<time>2015-08-06T02:37:42Z</time></trkpt>
<trkpt lat="30.019899" lon="101.529537">
<time>2015-08-06T02:37:43Z</time></trkpt>
<trkpt lat="30.021967" lon="101.528624">
<time>2015-08-06T02:37:44Z</time></trkpt>
<trkpt lat="30.023655" lon="101.527862">
<time>2015-08-06T02:37:45Z</time></trkpt>
<trkpt lat="30.023885" lon="101.527721">
<time>2015-08-06T02:37:46Z</time></trkpt>
<trkpt lat="30.023974" lon="101.527651">
<time>2015-08-06T02:37:47Z</time></trkpt>
<trkpt lat="30.024064" lon="101.527551">
<time>2015-08-06T02:37:48Z</time></trkpt>
<trkpt lat="30.024114" lon="101.52744">
<time>2015-08-06T02:37:49Z</time></trkpt>
<trkpt lat="30.024193" lon="101.52723">
<time>2015-08-06T02:37:50Z</time></trkpt>
<trkpt lat="30.02438" lon="101.526056">
<time>2015-08-06T02:37:51Z</time></trkpt>
<trkpt lat="30.024538" lon="101.525183">
<time>2015-08-06T02:37:52Z</time></trkpt>
<trkpt lat="30.024577" lon="101.524973">
<time>2015-08-06T02:37:53Z</time></trkpt>
<trkpt lat="30.024647" lon="101.524792">
<time>2015-08-06T02:37:54Z</time></trkpt>
<trkpt lat="30.024716" lon="101.524652">
<time>2015-08-06T02:37:55Z</time></trkpt>
<trkpt lat="30.024846" lon="101.524471">
<time>2015-08-06T02:37:56Z</time></trkpt>
<trkpt lat="30.025942" lon="101.523177">
<time>2015-08-06T02:37:57Z</time></trkpt>
<trkpt lat="30.027717" lon="101.521131">
<time>2015-08-06T02:37:58Z</time></trkpt>
<trkpt lat="30.028783" lon="101.519867">
<time>2015-08-06T02:37:59Z</time></trkpt>
<trkpt lat="30.029361" lon="101.519195">
<time>2015-08-06T02:38:00Z</time></trkpt>
<trkpt lat="30.02972" lon="101.518783">
<time>2015-08-06T02:38:01Z</time></trkpt>
<trkpt lat="30.030019" lon="101.518362">
<time>2015-08-06T02:38:02Z</time></trkpt>
<trkpt lat="30.031015" lon="101.517018">
<time>2015-08-06T02:38:03Z</time></trkpt>
<trkpt lat="30.031264" lon="101.516737">
<time>2015-08-06T02:38:04Z</time></trkpt>
<trkpt lat="30.031534" lon="101.516476">
<time>2015-08-06T02:38:05Z</time></trkpt>
<trkpt lat="30.032501" lon="101.515593">
<time>2015-08-06T02:38:06Z</time></trkpt>
<trkpt lat="30.033249" lon="101.514901">
<time>2015-08-06T02:38:07Z</time></trkpt>
<trkpt lat="30.035533" lon="101.512894">
<time>2015-08-06T02:38:08Z</time></trkpt>
<trkpt lat="30.035713" lon="101.512713">
<time>2015-08-06T02:38:09Z</time></trkpt>
<trkpt lat="30.035912" lon="101.512483">
<time>2015-08-06T02:38:10Z</time></trkpt>
<trkpt lat="30.036032" lon="101.512292">
<time>2015-08-06T02:38:11Z</time></trkpt>
<trkpt lat="30.036709" lon="101.511319">
<time>2015-08-06T02:38:12Z</time></trkpt>
<trkpt lat="30.037167" lon="101.510627">
<time>2015-08-06T02:38:13Z</time></trkpt>
<trkpt lat="30.037605" lon="101.509994">
<time>2015-08-06T02:38:14Z</time></trkpt>
<trkpt lat="30.037884" lon="101.509583">
<time>2015-08-06T02:38:15Z</time></trkpt>
<trkpt lat="30.038013" lon="101.509382">
<time>2015-08-06T02:38:16Z</time></trkpt>
<trkpt lat="30.038122" lon="101.509142">
<time>2015-08-06T02:38:17Z</time></trkpt>
<trkpt lat="30.038658" lon="101.507847">
<time>2015-08-06T02:38:18Z</time></trkpt>
<trkpt lat="30.038887" lon="101.507306">
<time>2015-08-06T02:38:19Z</time></trkpt>
<trkpt lat="30.039116" lon="101.506864">
<time>2015-08-06T02:38:20Z</time></trkpt>
<trkpt lat="30.039623" lon="101.505991">
<time>2015-08-06T02:38:21Z</time></trkpt>
<trkpt lat="30.04016" lon="101.505108">
<time>2015-08-06T02:38:22Z</time></trkpt>
<trkpt lat="30.040538" lon="101.504446">
<time>2015-08-06T02:38:23Z</time></trkpt>
<trkpt lat="30.040658" lon="101.504245">
<time>2015-08-06T02:38:24Z</time></trkpt>
<trkpt lat="30.040797" lon="101.504065">
<time>2015-08-06T02:38:25Z</time></trkpt>
<trkpt lat="30.041505" lon="101.503252">
<time>2015-08-06T02:38:26Z</time></trkpt>
<trkpt lat="30.041744" lon="101.502991">
<time>2015-08-06T02:38:27Z</time></trkpt>
<trkpt lat="30.041913" lon="101.50277">
<time>2015-08-06T02:38:28Z</time></trkpt>
<trkpt lat="30.042003" lon="101.50265">
<time>2015-08-06T02:38:29Z</time></trkpt>
<trkpt lat="30.042411" lon="101.501897">
<time>2015-08-06T02:38:30Z</time></trkpt>
<trkpt lat="30.043077" lon="101.500723">
<time>2015-08-06T02:38:31Z</time></trkpt>
<trkpt lat="30.043446" lon="101.500182">
<time>2015-08-06T02:38:32Z</time></trkpt>
<trkpt lat="30.043555" lon="101.500021">
<time>2015-08-06T02:38:33Z</time></trkpt>
<trkpt lat="30.043894" lon="101.499549">
<time>2015-08-06T02:38:34Z</time></trkpt>
<trkpt lat="30.044471" lon="101.498727">
<time>2015-08-06T02:38:35Z</time></trkpt>
<trkpt lat="30.044581" lon="101.498596">
<time>2015-08-06T02:38:36Z</time></trkpt>
<trkpt lat="30.04471" lon="101.498446">
<time>2015-08-06T02:38:37Z</time></trkpt>
<trkpt lat="30.04477" lon="101.498375">
<time>2015-08-06T02:38:38Z</time></trkpt>
<trkpt lat="30.045129" lon="101.498125">
<time>2015-08-06T02:38:39Z</time></trkpt>
<trkpt lat="30.045888" lon="101.497653">
<time>2015-08-06T02:38:40Z</time></trkpt>
<trkpt lat="30.045988" lon="101.497553">
<time>2015-08-06T02:38:41Z</time></trkpt>
<trkpt lat="30.046048" lon="101.497472">
<time>2015-08-06T02:38:42Z</time></trkpt>
<trkpt lat="30.046097" lon="101.497362">
<time>2015-08-06T02:38:43Z</time></trkpt>
<trkpt lat="30.046127" lon="101.497252">
<time>2015-08-06T02:38:44Z</time></trkpt>
<trkpt lat="30.046126" lon="101.497121">
<time>2015-08-06T02:38:45Z</time></trkpt>
<trkpt lat="30.046116" lon="101.497051">
<time>2015-08-06T02:38:46Z</time></trkpt>
<trkpt lat="30.046096" lon="101.496901">
<time>2015-08-06T02:38:47Z</time></trkpt>
<trkpt lat="30.045743" lon="101.495987">
<time>2015-08-06T02:38:48Z</time></trkpt>
<trkpt lat="30.045552" lon="101.495496">
<time>2015-08-06T02:38:49Z</time></trkpt>
<trkpt lat="30.045501" lon="101.495355">
<time>2015-08-06T02:38:50Z</time></trkpt>
<trkpt lat="30.045471" lon="101.495205">
<time>2015-08-06T02:38:51Z</time></trkpt>
<trkpt lat="30.04545" lon="101.495004">
<time>2015-08-06T02:38:52Z</time></trkpt>
<trkpt lat="30.04545" lon="101.494834">
<time>2015-08-06T02:38:53Z</time></trkpt>
<trkpt lat="30.045469" lon="101.494553">
<time>2015-08-06T02:38:54Z</time></trkpt>
<trkpt lat="30.045498" lon="101.494322">
<time>2015-08-06T02:38:55Z</time></trkpt>
<trkpt lat="30.045528" lon="101.494131">
<time>2015-08-06T02:38:56Z</time></trkpt>
<trkpt lat="30.045567" lon="101.494011">
<time>2015-08-06T02:38:57Z</time></trkpt>
<trkpt lat="30.045597" lon="101.493951">
<time>2015-08-06T02:38:58Z</time></trkpt>
<trkpt lat="30.045627" lon="101.49387">
<time>2015-08-06T02:38:59Z</time></trkpt>
<trkpt lat="30.045657" lon="101.4938">
<time>2015-08-06T02:39:00Z</time></trkpt>
<trkpt lat="30.045756" lon="101.49366">
<time>2015-08-06T02:39:01Z</time></trkpt>
<trkpt lat="30.045985" lon="101.493339">
<time>2015-08-06T02:39:02Z</time></trkpt>
<trkpt lat="30.046115" lon="101.493188">
<time>2015-08-06T02:39:03Z</time></trkpt>
<trkpt lat="30.046254" lon="101.493018">
<time>2015-08-06T02:39:04Z</time></trkpt>
<trkpt lat="30.046404" lon="101.492877">
<time>2015-08-06T02:39:05Z</time></trkpt>
<trkpt lat="30.046723" lon="101.492596">
<time>2015-08-06T02:39:06Z</time></trkpt>
<trkpt lat="30.046783" lon="101.492536">
<time>2015-08-06T02:39:07Z</time></trkpt>
<trkpt lat="30.047361" lon="101.492024">
<time>2015-08-06T02:39:08Z</time></trkpt>
<trkpt lat="30.047511" lon="101.491844">
<time>2015-08-06T02:39:09Z</time></trkpt>
<trkpt lat="30.04759" lon="101.491723">
<time>2015-08-06T02:39:10Z</time></trkpt>
<trkpt lat="30.04769" lon="101.491543">
<time>2015-08-06T02:39:11Z</time></trkpt>
<trkpt lat="30.047809" lon="101.491272">
<time>2015-08-06T02:39:12Z</time></trkpt>
<trkpt lat="30.048534" lon="101.489436">
<time>2015-08-06T02:39:13Z</time></trkpt>
<trkpt lat="30.048593" lon="101.489295">
<time>2015-08-06T02:39:14Z</time></trkpt>
<trkpt lat="30.048851" lon="101.488653">
<time>2015-08-06T02:39:15Z</time></trkpt>
<trkpt lat="30.04896" lon="101.488382">
<time>2015-08-06T02:39:16Z</time></trkpt>
<trkpt lat="30.04903" lon="101.488181">
<time>2015-08-06T02:39:17Z</time></trkpt>
<trkpt lat="30.049099" lon="101.487911">
<time>2015-08-06T02:39:18Z</time></trkpt>
<trkpt lat="30.049148" lon="101.4876">
<time>2015-08-06T02:39:19Z</time></trkpt>
<trkpt lat="30.049236" lon="101.486887">
<time>2015-08-06T02:39:20Z</time></trkpt>
<trkpt lat="30.049255" lon="101.486636">
<time>2015-08-06T02:39:21Z</time></trkpt>
<trkpt lat="30.049265" lon="101.486516">
<time>2015-08-06T02:39:22Z</time></trkpt>
<trkpt lat="30.049255" lon="101.486426">
<time>2015-08-06T02:39:23Z</time></trkpt>
<trkpt lat="30.049234" lon="101.486335">
<time>2015-08-06T02:39:24Z</time></trkpt>
<trkpt lat="30.049214" lon="101.486255">
<time>2015-08-06T02:39:25Z</time></trkpt>
<trkpt lat="30.049013" lon="101.485784">
<time>2015-08-06T02:39:26Z</time></trkpt>
<trkpt lat="30.048761" lon="101.485202">
<time>2015-08-06T02:39:27Z</time></trkpt>
<trkpt lat="30.048721" lon="101.485081">
<time>2015-08-06T02:39:28Z</time></trkpt>
<trkpt lat="30.04871" lon="101.484971">
<time>2015-08-06T02:39:29Z</time></trkpt>
<trkpt lat="30.04871" lon="101.484901">
<time>2015-08-06T02:39:30Z</time></trkpt>
<trkpt lat="30.04873" lon="101.4848">
<time>2015-08-06T02:39:31Z</time></trkpt>
<trkpt lat="30.04876" lon="101.48474">
<time>2015-08-06T02:39:32Z</time></trkpt>
<trkpt lat="30.048789" lon="101.48466">
<time>2015-08-06T02:39:33Z</time></trkpt>
<trkpt lat="30.048859" lon="101.48456">
<time>2015-08-06T02:39:34Z</time></trkpt>
<trkpt lat="30.049078" lon="101.484249">
<time>2015-08-06T02:39:35Z</time></trkpt>
<trkpt lat="30.049955" lon="101.483075">
<time>2015-08-06T02:39:36Z</time></trkpt>
<trkpt lat="30.050064" lon="101.482924">
<time>2015-08-06T02:39:37Z</time></trkpt>
<trkpt lat="30.050244" lon="101.482694">
<time>2015-08-06T02:39:38Z</time></trkpt>
<trkpt lat="30.050324" lon="101.482613">
<time>2015-08-06T02:39:39Z</time></trkpt>
<trkpt lat="30.050383" lon="101.482563">
<time>2015-08-06T02:39:40Z</time></trkpt>
<trkpt lat="30.050443" lon="101.482523">
<time>2015-08-06T02:39:41Z</time></trkpt>
<trkpt lat="30.050523" lon="101.482483">
<time>2015-08-06T02:39:42Z</time></trkpt>
<trkpt lat="30.050703" lon="101.482413">
<time>2015-08-06T02:39:43Z</time></trkpt>
<trkpt lat="30.050913" lon="101.482352">
<time>2015-08-06T02:39:44Z</time></trkpt>
<trkpt lat="30.051113" lon="101.482322">
<time>2015-08-06T02:39:45Z</time></trkpt>
<trkpt lat="30.051982" lon="101.482222">
<time>2015-08-06T02:39:46Z</time></trkpt>
<trkpt lat="30.052332" lon="101.482182">
<time>2015-08-06T02:39:47Z</time></trkpt>
<trkpt lat="30.052672" lon="101.482142">
<time>2015-08-06T02:39:48Z</time></trkpt>
<trkpt lat="30.052752" lon="101.482142">
<time>2015-08-06T02:39:49Z</time></trkpt>
<trkpt lat="30.052892" lon="101.482162">
<time>2015-08-06T02:39:50Z</time></trkpt>
<trkpt lat="30.053232" lon="101.482242">
<time>2015-08-06T02:39:51Z</time></trkpt>
<trkpt lat="30.053443" lon="101.482312">
<time>2015-08-06T02:39:52Z</time></trkpt>
<trkpt lat="30.053533" lon="101.482342">
<time>2015-08-06T02:39:53Z</time></trkpt>
<trkpt lat="30.053773" lon="101.482382">
<time>2015-08-06T02:39:54Z</time></trkpt>
<trkpt lat="30.053903" lon="101.482402">
<time>2015-08-06T02:39:55Z</time></trkpt>
<trkpt lat="30.054053" lon="101.482402">
<time>2015-08-06T02:39:56Z</time></trkpt>
<trkpt lat="30.054663" lon="101.482382">
<time>2015-08-06T02:39:57Z</time></trkpt>
<trkpt lat="30.054843" lon="101.482372">
<time>2015-08-06T02:39:58Z</time></trkpt>
<trkpt lat="30.055573" lon="101.482322">
<time>2015-08-06T02:39:59Z</time></trkpt>
<trkpt lat="30.056503" lon="101.482282">
<time>2015-08-06T02:40:00Z</time></trkpt>
<trkpt lat="30.056633" lon="101.482272">
<time>2015-08-06T02:40:01Z</time></trkpt>
<trkpt lat="30.056713" lon="101.482252">
<time>2015-08-06T02:40:02Z</time></trkpt>
<trkpt lat="30.056792" lon="101.482212">
<time>2015-08-06T02:40:03Z</time></trkpt>
<trkpt lat="30.056842" lon="101.482172">
<time>2015-08-06T02:40:04Z</time></trkpt>
<trkpt lat="30.056902" lon="101.482091">
<time>2015-08-06T02:40:05Z</time></trkpt>
<trkpt lat="30.056952" lon="101.482011">
<time>2015-08-06T02:40:06Z</time></trkpt>
<trkpt lat="30.056992" lon="101.481911">
<time>2015-08-06T02:40:07Z</time></trkpt>
<trkpt lat="30.057041" lon="101.48168">
<time>2015-08-06T02:40:08Z</time></trkpt>
<trkpt lat="30.05711" lon="101.481219">
<time>2015-08-06T02:40:09Z</time></trkpt>
<trkpt lat="30.057139" lon="101.481098">
<time>2015-08-06T02:40:10Z</time></trkpt>
<trkpt lat="30.057169" lon="101.481008">
<time>2015-08-06T02:40:11Z</time></trkpt>
<trkpt lat="30.057219" lon="101.480958">
<time>2015-08-06T02:40:12Z</time></trkpt>
<trkpt lat="30.057269" lon="101.480918">
<time>2015-08-06T02:40:13Z</time></trkpt>
<trkpt lat="30.057349" lon="101.480888">
<time>2015-08-06T02:40:14Z</time></trkpt>
<trkpt lat="30.057429" lon="101.480878">
<time>2015-08-06T02:40:15Z</time></trkpt>
<trkpt lat="30.057559" lon="101.480867">
<time>2015-08-06T02:40:16Z</time></trkpt>
<trkpt lat="30.057689" lon="101.480898">
<time>2015-08-06T02:40:17Z</time></trkpt>
<trkpt lat="30.057769" lon="101.480918">
<time>2015-08-06T02:40:18Z</time></trkpt>
<trkpt lat="30.057839" lon="101.480958">
<time>2015-08-06T02:40:19Z</time></trkpt>
<trkpt lat="30.057879" lon="101.480988">
<time>2015-08-06T02:40:20Z</time></trkpt>
<trkpt lat="30.057909" lon="101.481038">
<time>2015-08-06T02:40:21Z</time></trkpt>
<trkpt lat="30.057949" lon="101.481108">
<time>2015-08-06T02:40:22Z</time></trkpt>
<trkpt lat="30.05797" lon="101.481229">
<time>2015-08-06T02:40:23Z</time></trkpt>
<trkpt lat="30.05798" lon="101.481389">
<time>2015-08-06T02:40:24Z</time></trkpt>
<trkpt lat="30.05799" lon="101.481479">
<time>2015-08-06T02:40:25Z</time></trkpt>
<trkpt lat="30.057981" lon="101.48169">
<time>2015-08-06T02:40:26Z</time></trkpt>
<trkpt lat="30.057922" lon="101.482041">
<time>2015-08-06T02:40:27Z</time></trkpt>
<trkpt lat="30.057912" lon="101.482152">
<time>2015-08-06T02:40:28Z</time></trkpt>
<trkpt lat="30.057923" lon="101.482242">
<time>2015-08-06T02:40:29Z</time></trkpt>
<trkpt lat="30.057953" lon="101.482342">
<time>2015-08-06T02:40:30Z</time></trkpt>
<trkpt lat="30.057993" lon="101.482432">
<time>2015-08-06T02:40:31Z</time></trkpt>
<trkpt lat="30.058043" lon="101.482493">
<time>2015-08-06T02:40:32Z</time></trkpt>
<trkpt lat="30.058254" lon="101.482663">
<time>2015-08-06T02:40:33Z</time></trkpt>
<trkpt lat="30.058504" lon="101.482814">
<time>2015-08-06T02:40:34Z</time></trkpt>
<trkpt lat="30.058955" lon="101.483064">
<time>2015-08-06T02:40:35Z</time></trkpt>
<trkpt lat="30.059165" lon="101.483165">
<time>2015-08-06T02:40:36Z</time></trkpt>
<trkpt lat="30.059365" lon="101.483225">
<time>2015-08-06T02:40:37Z</time></trkpt>
<trkpt lat="30.059606" lon="101.483275">
<time>2015-08-06T02:40:38Z</time></trkpt>
<trkpt lat="30.060066" lon="101.483355">
<time>2015-08-06T02:40:39Z</time></trkpt>
<trkpt lat="30.060336" lon="101.483405">
<time>2015-08-06T02:40:40Z</time></trkpt>
<trkpt lat="30.060436" lon="101.483426">
<time>2015-08-06T02:40:41Z</time></trkpt>
<trkpt lat="30.060626" lon="101.483506">
<time>2015-08-06T02:40:42Z</time></trkpt>
<trkpt lat="30.061658" lon="101.483957">
<time>2015-08-06T02:40:43Z</time></trkpt>
<trkpt lat="30.061738" lon="101.483987">
<time>2015-08-06T02:40:44Z</time></trkpt>
<trkpt lat="30.061838" lon="101.483997">
<time>2015-08-06T02:40:45Z</time></trkpt>
<trkpt lat="30.061908" lon="101.484007">
<time>2015-08-06T02:40:46Z</time></trkpt>
<trkpt lat="30.061958" lon="101.483997">
<time>2015-08-06T02:40:47Z</time></trkpt>
<trkpt lat="30.062038" lon="101.483987">
<time>2015-08-06T02:40:48Z</time></trkpt>
<trkpt lat="30.062108" lon="101.483957">
<time>2015-08-06T02:40:49Z</time></trkpt>
<trkpt lat="30.062167" lon="101.483937">
<time>2015-08-06T02:40:50Z</time></trkpt>
<trkpt lat="30.062317" lon="101.483857">
<time>2015-08-06T02:40:51Z</time></trkpt>
<trkpt lat="30.062467" lon="101.483747">
<time>2015-08-06T02:40:52Z</time></trkpt>
<trkpt lat="30.062557" lon="101.483676">
<time>2015-08-06T02:40:53Z</time></trkpt>
<trkpt lat="30.062637" lon="101.483636">
<time>2015-08-06T02:40:54Z</time></trkpt>
<trkpt lat="30.062696" lon="101.483596">
<time>2015-08-06T02:40:55Z</time></trkpt>
<trkpt lat="30.062766" lon="101.483576">
<time>2015-08-06T02:40:56Z</time></trkpt>
<trkpt lat="30.062856" lon="101.483566">
<time>2015-08-06T02:40:57Z</time></trkpt>
<trkpt lat="30.062916" lon="101.483566">
<time>2015-08-06T02:40:58Z</time></trkpt>
<trkpt lat="30.063016" lon="101.483576">
<time>2015-08-06T02:40:59Z</time></trkpt>
<trkpt lat="30.063137" lon="101.483606">
<time>2015-08-06T02:41:00Z</time></trkpt>
<trkpt lat="30.063557" lon="101.483726">
<time>2015-08-06T02:41:01Z</time></trkpt>
<trkpt lat="30.063757" lon="101.483767">
<time>2015-08-06T02:41:02Z</time></trkpt>
<trkpt lat="30.063877" lon="101.483777">
<time>2015-08-06T02:41:03Z</time></trkpt>
<trkpt lat="30.063977" lon="101.483787">
<time>2015-08-06T02:41:04Z</time></trkpt>
<trkpt lat="30.064107" lon="101.483777">
<time>2015-08-06T02:41:05Z</time></trkpt>
<trkpt lat="30.064287" lon="101.483736">
<time>2015-08-06T02:41:06Z</time></trkpt>
<trkpt lat="30.064427" lon="101.483696">
<time>2015-08-06T02:41:07Z</time></trkpt>
<trkpt lat="30.064517" lon="101.483666">
<time>2015-08-06T02:41:08Z</time></trkpt>
<trkpt lat="30.064627" lon="101.483626">
<time>2015-08-06T02:41:09Z</time></trkpt>
<trkpt lat="30.064956" lon="101.483455">
<time>2015-08-06T02:41:10Z</time></trkpt>
<trkpt lat="30.065296" lon="101.483255">
<time>2015-08-06T02:41:11Z</time></trkpt>
<trkpt lat="30.065515" lon="101.483165">
<time>2015-08-06T02:41:12Z</time></trkpt>
<trkpt lat="30.065615" lon="101.483124">
<time>2015-08-06T02:41:13Z</time></trkpt>
<trkpt lat="30.065705" lon="101.483104">
<time>2015-08-06T02:41:14Z</time></trkpt>
<trkpt lat="30.065815" lon="101.483074">
<time>2015-08-06T02:41:15Z</time></trkpt>
<trkpt lat="30.066085" lon="101.483054">
<time>2015-08-06T02:41:16Z</time></trkpt>
<trkpt lat="30.066395" lon="101.483024">
<time>2015-08-06T02:41:17Z</time></trkpt>
<trkpt lat="30.066845" lon="101.482954">
<time>2015-08-06T02:41:18Z</time></trkpt>
<trkpt lat="30.067364" lon="101.482853">
<time>2015-08-06T02:41:19Z</time></trkpt>
<trkpt lat="30.067464" lon="101.482843">
<time>2015-08-06T02:41:20Z</time></trkpt>
<trkpt lat="30.067584" lon="101.482833">
<time>2015-08-06T02:41:21Z</time></trkpt>
<trkpt lat="30.067664" lon="101.482843">
<time>2015-08-06T02:41:22Z</time></trkpt>
<trkpt lat="30.068224" lon="101.482863">
<time>2015-08-06T02:41:23Z</time></trkpt>
<trkpt lat="30.068414" lon="101.482874">
<time>2015-08-06T02:41:24Z</time></trkpt>
<trkpt lat="30.068484" lon="101.482863">
<time>2015-08-06T02:41:25Z</time></trkpt>
<trkpt lat="30.068634" lon="101.482833">
<time>2015-08-06T02:41:26Z</time></trkpt>
<trkpt lat="30.068714" lon="101.482803">
<time>2015-08-06T02:41:27Z</time></trkpt>
<trkpt lat="30.068774" lon="101.482773">
<time>2015-08-06T02:41:28Z</time></trkpt>
<trkpt lat="30.069044" lon="101.482653">
<time>2015-08-06T02:41:29Z</time></trkpt>
<trkpt lat="30.069303" lon="101.482502">
<time>2015-08-06T02:41:30Z</time></trkpt>
<trkpt lat="30.069513" lon="101.482382">
<time>2015-08-06T02:41:31Z</time></trkpt>
<trkpt lat="30.069593" lon="101.482322">
<time>2015-08-06T02:41:32Z</time></trkpt>
<trkpt lat="30.069653" lon="101.482282">
<time>2015-08-06T02:41:33Z</time></trkpt>
<trkpt lat="30.069703" lon="101.482231">
<time>2015-08-06T02:41:34Z</time></trkpt>
<trkpt lat="30.069802" lon="101.482111">
<time>2015-08-06T02:41:35Z</time></trkpt>
<trkpt lat="30.069882" lon="101.482011">
<time>2015-08-06T02:41:36Z</time></trkpt>
<trkpt lat="30.069932" lon="101.48195">
<time>2015-08-06T02:41:37Z</time></trkpt>
<trkpt lat="30.070031" lon="101.48181">
<time>2015-08-06T02:41:38Z</time></trkpt>
<trkpt lat="30.070081" lon="101.48175">
<time>2015-08-06T02:41:39Z</time></trkpt>
<trkpt lat="30.070111" lon="101.4817">
<time>2015-08-06T02:41:40Z</time></trkpt>
<trkpt lat="30.070121" lon="101.48167">
<time>2015-08-06T02:41:41Z</time></trkpt>
<trkpt lat="30.070131" lon="101.481639">
<time>2015-08-06T02:41:42Z</time></trkpt>
<trkpt lat="30.070141" lon="101.481609">
<time>2015-08-06T02:41:43Z</time></trkpt>
<trkpt lat="30.070141" lon="101.481569">
<time>2015-08-06T02:41:44Z</time></trkpt>
<trkpt lat="30.070131" lon="101.481519">
<time>2015-08-06T02:41:45Z</time></trkpt>
<trkpt lat="30.07013" lon="101.481399">
<time>2015-08-06T02:41:46Z</time></trkpt>
<trkpt lat="30.070109" lon="101.481018">
<time>2015-08-06T02:41:47Z</time></trkpt>
<trkpt lat="30.070109" lon="101.480927">
<time>2015-08-06T02:41:48Z</time></trkpt>
<trkpt lat="30.070109" lon="101.480867">
<time>2015-08-06T02:41:49Z</time></trkpt>
<trkpt lat="30.070138" lon="101.480777">
<time>2015-08-06T02:41:50Z</time></trkpt>
<trkpt lat="30.070158" lon="101.480747">
<time>2015-08-06T02:41:51Z</time></trkpt>
<trkpt lat="30.070178" lon="101.480707">
<time>2015-08-06T02:41:52Z</time></trkpt>
<trkpt lat="30.070208" lon="101.480676">
<time>2015-08-06T02:41:53Z</time></trkpt>
<trkpt lat="30.070238" lon="101.480646">
<time>2015-08-06T02:41:54Z</time></trkpt>
<trkpt lat="30.070278" lon="101.480616">
<time>2015-08-06T02:41:55Z</time></trkpt>
<trkpt lat="30.070408" lon="101.480546">
<time>2015-08-06T02:41:56Z</time></trkpt>
<trkpt lat="30.070578" lon="101.480476">
<time>2015-08-06T02:41:57Z</time></trkpt>
<trkpt lat="30.070687" lon="101.480416">
<time>2015-08-06T02:41:58Z</time></trkpt>
<trkpt lat="30.070787" lon="101.480335">
<time>2015-08-06T02:41:59Z</time></trkpt>
<trkpt lat="30.070857" lon="101.480255">
<time>2015-08-06T02:42:00Z</time></trkpt>
<trkpt lat="30.070957" lon="101.480125">
<time>2015-08-06T02:42:01Z</time></trkpt>
<trkpt lat="30.071186" lon="101.479794">
<time>2015-08-06T02:42:02Z</time></trkpt>
<trkpt lat="30.071693" lon="101.479021">
<time>2015-08-06T02:42:03Z</time></trkpt>
<trkpt lat="30.071763" lon="101.478931">
<time>2015-08-06T02:42:04Z</time></trkpt>
<trkpt lat="30.071883" lon="101.47873">
<time>2015-08-06T02:42:05Z</time></trkpt>
<trkpt lat="30.071942" lon="101.47859">
<time>2015-08-06T02:42:06Z</time></trkpt>
<trkpt lat="30.072022" lon="101.478389">
<time>2015-08-06T02:42:07Z</time></trkpt>
<trkpt lat="30.072061" lon="101.478259">
<time>2015-08-06T02:42:08Z</time></trkpt>
<trkpt lat="30.072091" lon="101.478088">
<time>2015-08-06T02:42:09Z</time></trkpt>
<trkpt lat="30.07216" lon="101.477677">
<time>2015-08-06T02:42:10Z</time></trkpt>
<trkpt lat="30.072228" lon="101.477195">
<time>2015-08-06T02:42:11Z</time></trkpt>
<trkpt lat="30.072257" lon="101.476935">
<time>2015-08-06T02:42:12Z</time></trkpt>
<trkpt lat="30.072287" lon="101.476724">
<time>2015-08-06T02:42:13Z</time></trkpt>
<trkpt lat="30.072305" lon="101.476002">
<time>2015-08-06T02:42:14Z</time></trkpt>
<trkpt lat="30.072331" lon="101.474668">
<time>2015-08-06T02:42:15Z</time></trkpt>
<trkpt lat="30.072338" lon="101.473655">
<time>2015-08-06T02:42:16Z</time></trkpt>
<trkpt lat="30.072357" lon="101.473173">
<time>2015-08-06T02:42:17Z</time></trkpt>
<trkpt lat="30.072346" lon="101.472832">
<time>2015-08-06T02:42:18Z</time></trkpt>
<trkpt lat="30.072325" lon="101.472471">
<time>2015-08-06T02:42:19Z</time></trkpt>
<trkpt lat="30.072294" lon="101.47213">
<time>2015-08-06T02:42:20Z</time></trkpt>
<trkpt lat="30.072253" lon="101.471829">
<time>2015-08-06T02:42:21Z</time></trkpt>
<trkpt lat="30.072193" lon="101.471528">
<time>2015-08-06T02:42:22Z</time></trkpt>
<trkpt lat="30.072051" lon="101.470987">
<time>2015-08-06T02:42:23Z</time></trkpt>
<trkpt lat="30.071869" lon="101.470214">
<time>2015-08-06T02:42:24Z</time></trkpt>
<trkpt lat="30.071828" lon="101.470034">
<time>2015-08-06T02:42:25Z</time></trkpt>
<trkpt lat="30.071788" lon="101.469793">
<time>2015-08-06T02:42:26Z</time></trkpt>
<trkpt lat="30.071767" lon="101.469462">
<time>2015-08-06T02:42:27Z</time></trkpt>
<trkpt lat="30.071744" lon="101.468289">
<time>2015-08-06T02:42:28Z</time></trkpt>
<trkpt lat="30.071733" lon="101.467777">
<time>2015-08-06T02:42:29Z</time></trkpt>
<trkpt lat="30.07167" lon="101.466694">
<time>2015-08-06T02:42:30Z</time></trkpt>
<trkpt lat="30.071646" lon="101.46525">
<time>2015-08-06T02:42:31Z</time></trkpt>
<trkpt lat="30.071633" lon="101.463906">
<time>2015-08-06T02:42:32Z</time></trkpt>
<trkpt lat="30.07166" lon="101.463074">
<time>2015-08-06T02:42:33Z</time></trkpt>
<trkpt lat="30.071718" lon="101.462051">
<time>2015-08-06T02:42:34Z</time></trkpt>
<trkpt lat="30.071756" lon="101.461249">
<time>2015-08-06T02:42:35Z</time></trkpt>
<trkpt lat="30.071785" lon="101.461008">
<time>2015-08-06T02:42:36Z</time></trkpt>
<trkpt lat="30.071913" lon="101.460146">
<time>2015-08-06T02:42:37Z</time></trkpt>
<trkpt lat="30.071991" lon="101.459194">
<time>2015-08-06T02:42:38Z</time></trkpt>
<trkpt lat="30.072029" lon="101.458502">
<time>2015-08-06T02:42:39Z</time></trkpt>
<trkpt lat="30.072019" lon="101.458271">
<time>2015-08-06T02:42:40Z</time></trkpt>
<trkpt lat="30.071967" lon="101.457459">
<time>2015-08-06T02:42:41Z</time></trkpt>
<trkpt lat="30.071905" lon="101.456547">
<time>2015-08-06T02:42:42Z</time></trkpt>
<trkpt lat="30.071894" lon="101.456166">
<time>2015-08-06T02:42:43Z</time></trkpt>
<trkpt lat="30.071903" lon="101.455705">
<time>2015-08-06T02:42:44Z</time></trkpt>
<trkpt lat="30.072029" lon="101.45388">
<time>2015-08-06T02:42:45Z</time></trkpt>
<trkpt lat="30.072107" lon="101.452948">
<time>2015-08-06T02:42:46Z</time></trkpt>
<trkpt lat="30.072155" lon="101.452186">
<time>2015-08-06T02:42:47Z</time></trkpt>
<trkpt lat="30.072164" lon="101.451896">
<time>2015-08-06T02:42:48Z</time></trkpt>
<trkpt lat="30.072153" lon="101.451525">
<time>2015-08-06T02:42:49Z</time></trkpt>
<trkpt lat="30.072061" lon="101.450312">
<time>2015-08-06T02:42:50Z</time></trkpt>
<trkpt lat="30.072009" lon="101.44957">
<time>2015-08-06T02:42:51Z</time></trkpt>
<trkpt lat="30.071999" lon="101.44934">
<time>2015-08-06T02:42:52Z</time></trkpt>
<trkpt lat="30.072008" lon="101.448989">
<time>2015-08-06T02:42:53Z</time></trkpt>
<trkpt lat="30.072116" lon="101.447937">
<time>2015-08-06T02:42:54Z</time></trkpt>
<trkpt lat="30.072253" lon="101.446654">
<time>2015-08-06T02:42:55Z</time></trkpt>
<trkpt lat="30.072292" lon="101.446193">
<time>2015-08-06T02:42:56Z</time></trkpt>
<trkpt lat="30.072292" lon="101.445792">
<time>2015-08-06T02:42:57Z</time></trkpt>
<trkpt lat="30.072281" lon="101.445682">
<time>2015-08-06T02:42:58Z</time></trkpt>
<trkpt lat="30.072241" lon="101.445522">
<time>2015-08-06T02:42:59Z</time></trkpt>
<trkpt lat="30.072201" lon="101.445391">
<time>2015-08-06T02:43:00Z</time></trkpt>
<trkpt lat="30.072141" lon="101.445261">
<time>2015-08-06T02:43:01Z</time></trkpt>
<trkpt lat="30.07209" lon="101.445161">
<time>2015-08-06T02:43:02Z</time></trkpt>
<trkpt lat="30.07185" lon="101.44481">
<time>2015-08-06T02:43:03Z</time></trkpt>
<trkpt lat="30.070967" lon="101.443498">
<time>2015-08-06T02:43:04Z</time></trkpt>
<trkpt lat="30.070145" lon="101.442285">
<time>2015-08-06T02:43:05Z</time></trkpt>
<trkpt lat="30.069914" lon="101.441955">
<time>2015-08-06T02:43:06Z</time></trkpt>
<trkpt lat="30.069704" lon="101.441604">
<time>2015-08-06T02:43:07Z</time></trkpt>
<trkpt lat="30.069543" lon="101.441324">
<time>2015-08-06T02:43:08Z</time></trkpt>
<trkpt lat="30.069493" lon="101.441203">
<time>2015-08-06T02:43:09Z</time></trkpt>
<trkpt lat="30.069322" lon="101.440632">
<time>2015-08-06T02:43:10Z</time></trkpt>
<trkpt lat="30.069191" lon="101.440151">
<time>2015-08-06T02:43:11Z</time></trkpt>
<trkpt lat="30.06907" lon="101.43939">
<time>2015-08-06T02:43:12Z</time></trkpt>
<trkpt lat="30.068949" lon="101.438549">
<time>2015-08-06T02:43:13Z</time></trkpt>
<trkpt lat="30.068807" lon="101.437887">
<time>2015-08-06T02:43:14Z</time></trkpt>
<trkpt lat="30.068727" lon="101.437617">
<time>2015-08-06T02:43:15Z</time></trkpt>
<trkpt lat="30.068687" lon="101.437447">
<time>2015-08-06T02:43:16Z</time></trkpt>
<trkpt lat="30.068516" lon="101.437006">
<time>2015-08-06T02:43:17Z</time></trkpt>
<trkpt lat="30.068456" lon="101.436866">
<time>2015-08-06T02:43:18Z</time></trkpt>
<trkpt lat="30.068406" lon="101.436776">
<time>2015-08-06T02:43:19Z</time></trkpt>
<trkpt lat="30.068336" lon="101.436685">
<time>2015-08-06T02:43:20Z</time></trkpt>
<trkpt lat="30.067314" lon="101.435634">
<time>2015-08-06T02:43:21Z</time></trkpt>
<trkpt lat="30.067224" lon="101.435524">
<time>2015-08-06T02:43:22Z</time></trkpt>
<trkpt lat="30.067164" lon="101.435454">
<time>2015-08-06T02:43:23Z</time></trkpt>
<trkpt lat="30.067123" lon="101.435383">
<time>2015-08-06T02:43:24Z</time></trkpt>
<trkpt lat="30.067083" lon="101.435303">
<time>2015-08-06T02:43:25Z</time></trkpt>
<trkpt lat="30.067073" lon="101.435213">
<time>2015-08-06T02:43:26Z</time></trkpt>
<trkpt lat="30.067073" lon="101.435123">
<time>2015-08-06T02:43:27Z</time></trkpt>
<trkpt lat="30.067093" lon="101.435043">
<time>2015-08-06T02:43:28Z</time></trkpt>
<trkpt lat="30.067133" lon="101.434963">
<time>2015-08-06T02:43:29Z</time></trkpt>
<trkpt lat="30.067173" lon="101.434903">
<time>2015-08-06T02:43:30Z</time></trkpt>
<trkpt lat="30.067213" lon="101.434853">
<time>2015-08-06T02:43:31Z</time></trkpt>
<trkpt lat="30.067273" lon="101.434792">
<time>2015-08-06T02:43:32Z</time></trkpt>
<trkpt lat="30.067372" lon="101.434742">
<time>2015-08-06T02:43:33Z</time></trkpt>
<trkpt lat="30.067442" lon="101.434722">
<time>2015-08-06T02:43:34Z</time></trkpt>
<trkpt lat="30.067582" lon="101.434702">
<time>2015-08-06T02:43:35Z</time></trkpt>
<trkpt lat="30.067752" lon="101.434672">
<time>2015-08-06T02:43:36Z</time></trkpt>
<trkpt lat="30.067842" lon="101.434662">
<time>2015-08-06T02:43:37Z</time></trkpt>
<trkpt lat="30.067922" lon="101.434632">
<time>2015-08-06T02:43:38Z</time></trkpt>
<trkpt lat="30.067972" lon="101.434592">
<time>2015-08-06T02:43:39Z</time></trkpt>
<trkpt lat="30.067992" lon="101.434552">
<time>2015-08-06T02:43:40Z</time></trkpt>
<trkpt lat="30.068002" lon="101.434512">
<time>2015-08-06T02:43:41Z</time></trkpt>
<trkpt lat="30.068012" lon="101.434462">
<time>2015-08-06T02:43:42Z</time></trkpt>
<trkpt lat="30.068002" lon="101.434412">
<time>2015-08-06T02:43:43Z</time></trkpt>
<trkpt lat="30.067982" lon="101.434362">
<time>2015-08-06T02:43:44Z</time></trkpt>
<trkpt lat="30.067952" lon="101.434322">
<time>2015-08-06T02:43:45Z</time></trkpt>
<trkpt lat="30.067912" lon="101.434282">
<time>2015-08-06T02:43:46Z</time></trkpt>
<trkpt lat="30.067842" lon="101.434252">
<time>2015-08-06T02:43:47Z</time></trkpt>
<trkpt lat="30.067772" lon="101.434232">
<time>2015-08-06T02:43:48Z</time></trkpt>
<trkpt lat="30.067652" lon="101.434202">
<time>2015-08-06T02:43:49Z</time></trkpt>
<trkpt lat="30.067582" lon="101.434182">
<time>2015-08-06T02:43:50Z</time></trkpt>
<trkpt lat="30.067532" lon="101.434141">
<time>2015-08-06T02:43:51Z</time></trkpt>
<trkpt lat="30.067492" lon="101.434101">
<time>2015-08-06T02:43:52Z</time></trkpt>
<trkpt lat="30.067471" lon="101.434061">
<time>2015-08-06T02:43:53Z</time></trkpt>
<trkpt lat="30.067451" lon="101.434011">
<time>2015-08-06T02:43:54Z</time></trkpt>
<trkpt lat="30.067441" lon="101.433961">
<time>2015-08-06T02:43:55Z</time></trkpt>
<trkpt lat="30.067451" lon="101.433881">
<time>2015-08-06T02:43:56Z</time></trkpt>
<trkpt lat="30.067461" lon="101.433821">
<time>2015-08-06T02:43:57Z</time></trkpt>
<trkpt lat="30.067511" lon="101.433671">
<time>2015-08-06T02:43:58Z</time></trkpt>
<trkpt lat="30.067551" lon="101.433551">
<time>2015-08-06T02:43:59Z</time></trkpt>
<trkpt lat="30.067591" lon="101.43342">
<time>2015-08-06T02:44:00Z</time></trkpt>
<trkpt lat="30.06762" lon="101.43318">
<time>2015-08-06T02:44:01Z</time></trkpt>
<trkpt lat="30.06762" lon="101.43301">
<time>2015-08-06T02:44:02Z</time></trkpt>
<trkpt lat="30.067589" lon="101.432709">
<time>2015-08-06T02:44:03Z</time></trkpt>
<trkpt lat="30.067409" lon="101.432018">
<time>2015-08-06T02:44:04Z</time></trkpt>
<trkpt lat="30.067328" lon="101.431718">
<time>2015-08-06T02:44:05Z</time></trkpt>
<trkpt lat="30.067278" lon="101.431588">
<time>2015-08-06T02:44:06Z</time></trkpt>
<trkpt lat="30.067228" lon="101.431508">
<time>2015-08-06T02:44:07Z</time></trkpt>
<trkpt lat="30.067158" lon="101.431428">
<time>2015-08-06T02:44:08Z</time></trkpt>
<trkpt lat="30.067068" lon="101.431337">
<time>2015-08-06T02:44:09Z</time></trkpt>
<trkpt lat="30.066977" lon="101.431277">
<time>2015-08-06T02:44:10Z</time></trkpt>
<trkpt lat="30.066687" lon="101.431117">
<time>2015-08-06T02:44:11Z</time></trkpt>
<trkpt lat="30.066437" lon="101.430967">
<time>2015-08-06T02:44:12Z</time></trkpt>
<trkpt lat="30.066327" lon="101.430887">
<time>2015-08-06T02:44:13Z</time></trkpt>
<trkpt lat="30.066147" lon="101.430747">
<time>2015-08-06T02:44:14Z</time></trkpt>
<trkpt lat="30.065726" lon="101.430386">
<time>2015-08-06T02:44:15Z</time></trkpt>
<trkpt lat="30.065326" lon="101.430026">
<time>2015-08-06T02:44:16Z</time></trkpt>
<trkpt lat="30.064985" lon="101.429755">
<time>2015-08-06T02:44:17Z</time></trkpt>
<trkpt lat="30.064265" lon="101.429265">
<time>2015-08-06T02:44:18Z</time></trkpt>
<trkpt lat="30.063854" lon="101.429024">
<time>2015-08-06T02:44:19Z</time></trkpt>
<trkpt lat="30.063654" lon="101.428934">
<time>2015-08-06T02:44:20Z</time></trkpt>
<trkpt lat="30.063414" lon="101.428834">
<time>2015-08-06T02:44:21Z</time></trkpt>
<trkpt lat="30.063214" lon="101.428774">
<time>2015-08-06T02:44:22Z</time></trkpt>
<trkpt lat="30.062834" lon="101.428704">
<time>2015-08-06T02:44:23Z</time></trkpt>
<trkpt lat="30.062244" lon="101.428624">
<time>2015-08-06T02:44:24Z</time></trkpt>
<trkpt lat="30.061894" lon="101.428594">
<time>2015-08-06T02:44:25Z</time></trkpt>
<trkpt lat="30.061544" lon="101.428594">
<time>2015-08-06T02:44:26Z</time></trkpt>
<trkpt lat="30.061324" lon="101.428614">
<time>2015-08-06T02:44:27Z</time></trkpt>
<trkpt lat="30.061184" lon="101.428624">
<time>2015-08-06T02:44:28Z</time></trkpt>
<trkpt lat="30.061074" lon="101.428624">
<time>2015-08-06T02:44:29Z</time></trkpt>
<trkpt lat="30.060934" lon="101.428594">
<time>2015-08-06T02:44:30Z</time></trkpt>
<trkpt lat="30.060744" lon="101.428544">
<time>2015-08-06T02:44:31Z</time></trkpt>
<trkpt lat="30.060564" lon="101.428494">
<time>2015-08-06T02:44:32Z</time></trkpt>
<trkpt lat="30.060274" lon="101.428464">
<time>2015-08-06T02:44:33Z</time></trkpt>
<trkpt lat="30.059554" lon="101.428414">
<time>2015-08-06T02:44:34Z</time></trkpt>
<trkpt lat="30.059444" lon="101.428404">
<time>2015-08-06T02:44:35Z</time></trkpt>
<trkpt lat="30.059384" lon="101.428384">
<time>2015-08-06T02:44:36Z</time></trkpt>
<trkpt lat="30.059324" lon="101.428364">
<time>2015-08-06T02:44:37Z</time></trkpt>
<trkpt lat="30.059284" lon="101.428334">
<time>2015-08-06T02:44:38Z</time></trkpt>
<trkpt lat="30.059223" lon="101.428274">
<time>2015-08-06T02:44:39Z</time></trkpt>
<trkpt lat="30.059193" lon="101.428224">
<time>2015-08-06T02:44:40Z</time></trkpt>
<trkpt lat="30.059153" lon="101.428154">
<time>2015-08-06T02:44:41Z</time></trkpt>
<trkpt lat="30.059123" lon="101.428093">
<time>2015-08-06T02:44:42Z</time></trkpt>
<trkpt lat="30.059093" lon="101.427913">
<time>2015-08-06T02:44:43Z</time></trkpt>
<trkpt lat="30.059063" lon="101.427743">
<time>2015-08-06T02:44:44Z</time></trkpt>
<trkpt lat="30.059033" lon="101.427553">
<time>2015-08-06T02:44:45Z</time></trkpt>
<trkpt lat="30.059042" lon="101.427433">
<time>2015-08-06T02:44:46Z</time></trkpt>
<trkpt lat="30.059052" lon="101.427373">
<time>2015-08-06T02:44:47Z</time></trkpt>
<trkpt lat="30.059072" lon="101.427323">
<time>2015-08-06T02:44:48Z</time></trkpt>
<trkpt lat="30.059102" lon="101.427262">
<time>2015-08-06T02:44:49Z</time></trkpt>
<trkpt lat="30.059142" lon="101.427222">
<time>2015-08-06T02:44:50Z</time></trkpt>
<trkpt lat="30.059192" lon="101.427172">
<time>2015-08-06T02:44:51Z</time></trkpt>
<trkpt lat="30.059252" lon="101.427122">
<time>2015-08-06T02:44:52Z</time></trkpt>
<trkpt lat="30.059522" lon="101.426952">
<time>2015-08-06T02:44:53Z</time></trkpt>
<trkpt lat="30.059822" lon="101.426782">
<time>2015-08-06T02:44:54Z</time></trkpt>
<trkpt lat="30.060002" lon="101.426722">
<time>2015-08-06T02:44:55Z</time></trkpt>
<trkpt lat="30.060162" lon="101.426672">
<time>2015-08-06T02:44:56Z</time></trkpt>
<trkpt lat="30.060302" lon="101.426642">
<time>2015-08-06T02:44:57Z</time></trkpt>
<trkpt lat="30.060502" lon="101.426612">
<time>2015-08-06T02:44:58Z</time></trkpt>
<trkpt lat="30.061071" lon="101.426552">
<time>2015-08-06T02:44:59Z</time></trkpt>
<trkpt lat="30.061281" lon="101.426572">
<time>2015-08-06T02:45:00Z</time></trkpt>
<trkpt lat="30.061351" lon="101.426562">
<time>2015-08-06T02:45:01Z</time></trkpt>
<trkpt lat="30.061441" lon="101.426542">
<time>2015-08-06T02:45:02Z</time></trkpt>
<trkpt lat="30.061581" lon="101.426441">
<time>2015-08-06T02:45:03Z</time></trkpt>
<trkpt lat="30.061861" lon="101.426221">
<time>2015-08-06T02:45:04Z</time></trkpt>
<trkpt lat="30.062091" lon="101.426091">
<time>2015-08-06T02:45:05Z</time></trkpt>
<trkpt lat="30.062151" lon="101.426051">
<time>2015-08-06T02:45:06Z</time></trkpt>
<trkpt lat="30.062201" lon="101.426001">
<time>2015-08-06T02:45:07Z</time></trkpt>
<trkpt lat="30.062231" lon="101.425941">
<time>2015-08-06T02:45:08Z</time></trkpt>
<trkpt lat="30.062241" lon="101.425901">
<time>2015-08-06T02:45:09Z</time></trkpt>
<trkpt lat="30.062241" lon="101.425821">
<time>2015-08-06T02:45:10Z</time></trkpt>
<trkpt lat="30.06214" lon="101.42529">
<time>2015-08-06T02:45:11Z</time></trkpt>
<trkpt lat="30.061929" lon="101.424269">
<time>2015-08-06T02:45:12Z</time></trkpt>
<trkpt lat="30.061758" lon="101.423689">
<time>2015-08-06T02:45:13Z</time></trkpt>
<trkpt lat="30.061588" lon="101.423218">
<time>2015-08-06T02:45:14Z</time></trkpt>
<trkpt lat="30.061357" lon="101.422688">
<time>2015-08-06T02:45:15Z</time></trkpt>
<trkpt lat="30.061077" lon="101.422077">
<time>2015-08-06T02:45:16Z</time></trkpt>
<trkpt lat="30.060976" lon="101.421787">
<time>2015-08-06T02:45:17Z</time></trkpt>
<trkpt lat="30.060906" lon="101.421647">
<time>2015-08-06T02:45:18Z</time></trkpt>
<trkpt lat="30.060686" lon="101.421266">
<time>2015-08-06T02:45:19Z</time></trkpt>
<trkpt lat="30.060646" lon="101.421176">
<time>2015-08-06T02:45:20Z</time></trkpt>
<trkpt lat="30.060636" lon="101.421076">
<time>2015-08-06T02:45:21Z</time></trkpt>
<trkpt lat="30.060636" lon="101.421006">
<time>2015-08-06T02:45:22Z</time></trkpt>
<trkpt lat="30.060646" lon="101.420866">
<time>2015-08-06T02:45:23Z</time></trkpt>
<trkpt lat="30.060665" lon="101.420766">
<time>2015-08-06T02:45:24Z</time></trkpt>
<trkpt lat="30.060695" lon="101.420656">
<time>2015-08-06T02:45:25Z</time></trkpt>
<trkpt lat="30.060715" lon="101.420586">
<time>2015-08-06T02:45:26Z</time></trkpt>
<trkpt lat="30.060755" lon="101.420536">
<time>2015-08-06T02:45:27Z</time></trkpt>
<trkpt lat="30.060835" lon="101.420456">
<time>2015-08-06T02:45:28Z</time></trkpt>
<trkpt lat="30.060875" lon="101.420426">
<time>2015-08-06T02:45:29Z</time></trkpt>
<trkpt lat="30.060935" lon="101.420406">
<time>2015-08-06T02:45:30Z</time></trkpt>
<trkpt lat="30.060965" lon="101.420406">
<time>2015-08-06T02:45:31Z</time></trkpt>
<trkpt lat="30.061035" lon="101.420406">
<time>2015-08-06T02:45:32Z</time></trkpt>
<trkpt lat="30.061085" lon="101.420416">
<time>2015-08-06T02:45:33Z</time></trkpt>
<trkpt lat="30.061125" lon="101.420426">
<time>2015-08-06T02:45:34Z</time></trkpt>
<trkpt lat="30.061175" lon="101.420456">
<time>2015-08-06T02:45:35Z</time></trkpt>
<trkpt lat="30.061365" lon="101.420586">
<time>2015-08-06T02:45:36Z</time></trkpt>
<trkpt lat="30.062146" lon="101.421046">
<time>2015-08-06T02:45:37Z</time></trkpt>
<trkpt lat="30.062626" lon="101.421296">
<time>2015-08-06T02:45:38Z</time></trkpt>
<trkpt lat="30.062666" lon="101.421306">
<time>2015-08-06T02:45:39Z</time></trkpt>
<trkpt lat="30.062726" lon="101.421306">
<time>2015-08-06T02:45:40Z</time></trkpt>
<trkpt lat="30.062816" lon="101.421306">
<time>2015-08-06T02:45:41Z</time></trkpt>
<trkpt lat="30.063096" lon="101.421276">
<time>2015-08-06T02:45:42Z</time></trkpt>
<trkpt lat="30.063156" lon="101.421286">
<time>2015-08-06T02:45:43Z</time></trkpt>
<trkpt lat="30.063196" lon="101.421286">
<time>2015-08-06T02:45:44Z</time></trkpt>
<trkpt lat="30.063236" lon="101.421296">
<time>2015-08-06T02:45:45Z</time></trkpt>
<trkpt lat="30.063276" lon="101.421316">
<time>2015-08-06T02:45:46Z</time></trkpt>
<trkpt lat="30.063326" lon="101.421356">
<time>2015-08-06T02:45:47Z</time></trkpt>
<trkpt lat="30.063356" lon="101.421396">
<time>2015-08-06T02:45:48Z</time></trkpt>
<trkpt lat="30.063386" lon="101.421436">
<time>2015-08-06T02:45:49Z</time></trkpt>
<trkpt lat="30.063396" lon="101.421476">
<time>2015-08-06T02:45:50Z</time></trkpt>
<trkpt lat="30.063396" lon="101.421546">
<time>2015-08-06T02:45:51Z</time></trkpt>
<trkpt lat="30.063376" lon="101.421777">
<time>2015-08-06T02:45:52Z</time></trkpt>
<trkpt lat="30.063366" lon="101.421877">
<time>2015-08-06T02:45:53Z</time></trkpt>
<trkpt lat="30.063377" lon="101.421947">
<time>2015-08-06T02:45:54Z</time></trkpt>
<trkpt lat="30.063387" lon="101.421997">
<time>2015-08-06T02:45:55Z</time></trkpt>
<trkpt lat="30.063397" lon="101.422047">
<time>2015-08-06T02:45:56Z</time></trkpt>
<trkpt lat="30.063417" lon="101.422087">
<time>2015-08-06T02:45:57Z</time></trkpt>
<trkpt lat="30.063447" lon="101.422127">
<time>2015-08-06T02:45:58Z</time></trkpt>
<trkpt lat="30.063477" lon="101.422167">
<time>2015-08-06T02:45:59Z</time></trkpt>
<trkpt lat="30.063517" lon="101.422227">
<time>2015-08-06T02:46:00Z</time></trkpt>
<trkpt lat="30.063747" lon="101.422437">
<time>2015-08-06T02:46:01Z</time></trkpt>
<trkpt lat="30.063887" lon="101.422577">
<time>2015-08-06T02:46:02Z</time></trkpt>
<trkpt lat="30.063957" lon="101.422647">
<time>2015-08-06T02:46:03Z</time></trkpt>
<trkpt lat="30.063997" lon="101.422728">
<time>2015-08-06T02:46:04Z</time></trkpt>
<trkpt lat="30.064088" lon="101.422908">
<time>2015-08-06T02:46:05Z</time></trkpt>
<trkpt lat="30.064258" lon="101.423208">
<time>2015-08-06T02:46:06Z</time></trkpt>
<trkpt lat="30.064308" lon="101.423278">
<time>2015-08-06T02:46:07Z</time></trkpt>
<trkpt lat="30.064719" lon="101.423939">
<time>2015-08-06T02:46:08Z</time></trkpt>
<trkpt lat="30.064759" lon="101.423999">
<time>2015-08-06T02:46:09Z</time></trkpt>
<trkpt lat="30.064809" lon="101.424049">
<time>2015-08-06T02:46:10Z</time></trkpt>
<trkpt lat="30.064839" lon="101.424069">
<time>2015-08-06T02:46:11Z</time></trkpt>
<trkpt lat="30.064889" lon="101.424079">
<time>2015-08-06T02:46:12Z</time></trkpt>
<trkpt lat="30.064919" lon="101.424079">
<time>2015-08-06T02:46:13Z</time></trkpt>
<trkpt lat="30.064949" lon="101.424059">
<time>2015-08-06T02:46:14Z</time></trkpt>
<trkpt lat="30.064969" lon="101.424049">
<time>2015-08-06T02:46:15Z</time></trkpt>
<trkpt lat="30.064999" lon="101.424019">
<time>2015-08-06T02:46:16Z</time></trkpt>
<trkpt lat="30.065019" lon="101.423989">
<time>2015-08-06T02:46:17Z</time></trkpt>
<trkpt lat="30.065029" lon="101.423959">
<time>2015-08-06T02:46:18Z</time></trkpt>
<trkpt lat="30.065039" lon="101.423919">
<time>2015-08-06T02:46:19Z</time></trkpt>
<trkpt lat="30.065039" lon="101.423879">
<time>2015-08-06T02:46:20Z</time></trkpt>
<trkpt lat="30.065038" lon="101.423799">
<time>2015-08-06T02:46:21Z</time></trkpt>
<trkpt lat="30.065038" lon="101.423698">
<time>2015-08-06T02:46:22Z</time></trkpt>
<trkpt lat="30.065048" lon="101.423498">
<time>2015-08-06T02:46:23Z</time></trkpt>
<trkpt lat="30.065058" lon="101.423398">
<time>2015-08-06T02:46:24Z</time></trkpt>
<trkpt lat="30.065078" lon="101.423298">
<time>2015-08-06T02:46:25Z</time></trkpt>
<trkpt lat="30.065108" lon="101.423218">
<time>2015-08-06T02:46:26Z</time></trkpt>
<trkpt lat="30.065138" lon="101.423168">
<time>2015-08-06T02:46:27Z</time></trkpt>
<trkpt lat="30.065178" lon="101.423098">
<time>2015-08-06T02:46:28Z</time></trkpt>
<trkpt lat="30.065278" lon="101.422978">
<time>2015-08-06T02:46:29Z</time></trkpt>
<trkpt lat="30.065357" lon="101.422868">
<time>2015-08-06T02:46:30Z</time></trkpt>
<trkpt lat="30.065447" lon="101.422747">
<time>2015-08-06T02:46:31Z</time></trkpt>
<trkpt lat="30.065517" lon="101.422637">
<time>2015-08-06T02:46:32Z</time></trkpt>
<trkpt lat="30.065647" lon="101.422417">
<time>2015-08-06T02:46:33Z</time></trkpt>
<trkpt lat="30.065727" lon="101.422257">
<time>2015-08-06T02:46:34Z</time></trkpt>
<trkpt lat="30.065777" lon="101.422137">
<time>2015-08-06T02:46:35Z</time></trkpt>
<trkpt lat="30.065797" lon="101.422057">
<time>2015-08-06T02:46:36Z</time></trkpt>
<trkpt lat="30.065847" lon="101.421907">
<time>2015-08-06T02:46:37Z</time></trkpt>
<trkpt lat="30.065906" lon="101.421386">
<time>2015-08-06T02:46:38Z</time></trkpt>
<trkpt lat="30.065946" lon="101.421056">
<time>2015-08-06T02:46:39Z</time></trkpt>
<trkpt lat="30.065995" lon="101.420656">
<time>2015-08-06T02:46:40Z</time></trkpt>
<trkpt lat="30.066005" lon="101.420465">
<time>2015-08-06T02:46:41Z</time></trkpt>
<trkpt lat="30.065995" lon="101.420355">
<time>2015-08-06T02:46:42Z</time></trkpt>
<trkpt lat="30.065985" lon="101.420275">
<time>2015-08-06T02:46:43Z</time></trkpt>
<trkpt lat="30.065965" lon="101.420195">
<time>2015-08-06T02:46:44Z</time></trkpt>
<trkpt lat="30.065945" lon="101.420125">
<time>2015-08-06T02:46:45Z</time></trkpt>
<trkpt lat="30.065805" lon="101.419765">
<time>2015-08-06T02:46:46Z</time></trkpt>
<trkpt lat="30.065644" lon="101.419355">
<time>2015-08-06T02:46:47Z</time></trkpt>
<trkpt lat="30.065614" lon="101.419245">
<time>2015-08-06T02:46:48Z</time></trkpt>
<trkpt lat="30.065594" lon="101.419174">
<time>2015-08-06T02:46:49Z</time></trkpt>
<trkpt lat="30.065574" lon="101.419054">
<time>2015-08-06T02:46:50Z</time></trkpt>
<trkpt lat="30.065534" lon="101.418764">
<time>2015-08-06T02:46:51Z</time></trkpt>
<trkpt lat="30.065514" lon="101.418654">
<time>2015-08-06T02:46:52Z</time></trkpt>
<trkpt lat="30.065463" lon="101.418414">
<time>2015-08-06T02:46:53Z</time></trkpt>
<trkpt lat="30.065383" lon="101.418104">
<time>2015-08-06T02:46:54Z</time></trkpt>
<trkpt lat="30.065253" lon="101.417693">
<time>2015-08-06T02:46:55Z</time></trkpt>
<trkpt lat="30.065193" lon="101.417443">
<time>2015-08-06T02:46:56Z</time></trkpt>
<trkpt lat="30.065152" lon="101.417163">
<time>2015-08-06T02:46:57Z</time></trkpt>
<trkpt lat="30.065112" lon="101.416853">
<time>2015-08-06T02:46:58Z</time></trkpt>
<trkpt lat="30.065102" lon="101.416663">
<time>2015-08-06T02:46:59Z</time></trkpt>
<trkpt lat="30.065072" lon="101.416483">
<time>2015-08-06T02:47:00Z</time></trkpt>
<trkpt lat="30.065062" lon="101.416403">
<time>2015-08-06T02:47:01Z</time></trkpt>
<trkpt lat="30.065022" lon="101.416273">
<time>2015-08-06T02:47:02Z</time></trkpt>
<trkpt lat="30.064982" lon="101.416182">
<time>2015-08-06T02:47:03Z</time></trkpt>
<trkpt lat="30.064962" lon="101.416152">
<time>2015-08-06T02:47:04Z</time></trkpt>
<trkpt lat="30.064812" lon="101.415872">
<time>2015-08-06T02:47:05Z</time></trkpt>
<trkpt lat="30.064661" lon="101.415592">
<time>2015-08-06T02:47:06Z</time></trkpt>
<trkpt lat="30.064621" lon="101.415492">
<time>2015-08-06T02:47:07Z</time></trkpt>
<trkpt lat="30.064601" lon="101.415402">
<time>2015-08-06T02:47:08Z</time></trkpt>
<trkpt lat="30.064581" lon="101.415252">
<time>2015-08-06T02:47:09Z</time></trkpt>
<trkpt lat="30.064591" lon="101.415162">
<time>2015-08-06T02:47:10Z</time></trkpt>
<trkpt lat="30.064611" lon="101.415042">
<time>2015-08-06T02:47:11Z</time></trkpt>
<trkpt lat="30.064691" lon="101.414812">
<time>2015-08-06T02:47:12Z</time></trkpt>
<trkpt lat="30.064881" lon="101.414331">
<time>2015-08-06T02:47:13Z</time></trkpt>
<trkpt lat="30.06513" lon="101.413671">
<time>2015-08-06T02:47:14Z</time></trkpt>
<trkpt lat="30.06518" lon="101.413581">
<time>2015-08-06T02:47:15Z</time></trkpt>
<trkpt lat="30.06522" lon="101.413521">
<time>2015-08-06T02:47:16Z</time></trkpt>
<trkpt lat="30.06528" lon="101.413441">
<time>2015-08-06T02:47:17Z</time></trkpt>
<trkpt lat="30.06533" lon="101.413391">
<time>2015-08-06T02:47:18Z</time></trkpt>
<trkpt lat="30.06539" lon="101.413331">
<time>2015-08-06T02:47:19Z</time></trkpt>
<trkpt lat="30.0657" lon="101.413091">
<time>2015-08-06T02:47:20Z</time></trkpt>
<trkpt lat="30.06579" lon="101.413001">
<time>2015-08-06T02:47:21Z</time></trkpt>
<trkpt lat="30.06584" lon="101.412951">
<time>2015-08-06T02:47:22Z</time></trkpt>
<trkpt lat="30.06588" lon="101.412881">
<time>2015-08-06T02:47:23Z</time></trkpt>
<trkpt lat="30.0659" lon="101.412831">
<time>2015-08-06T02:47:24Z</time></trkpt>
<trkpt lat="30.06592" lon="101.412751">
<time>2015-08-06T02:47:25Z</time></trkpt>
<trkpt lat="30.06593" lon="101.412681">
<time>2015-08-06T02:47:26Z</time></trkpt>
<trkpt lat="30.06593" lon="101.412591">
<time>2015-08-06T02:47:27Z</time></trkpt>
<trkpt lat="30.065919" lon="101.412521">
<time>2015-08-06T02:47:28Z</time></trkpt>
<trkpt lat="30.065899" lon="101.412441">
<time>2015-08-06T02:47:29Z</time></trkpt>
<trkpt lat="30.065869" lon="101.412351">
<time>2015-08-06T02:47:30Z</time></trkpt>
<trkpt lat="30.065839" lon="101.412311">
<time>2015-08-06T02:47:31Z</time></trkpt>
<trkpt lat="30.065779" lon="101.412231">
<time>2015-08-06T02:47:32Z</time></trkpt>
<trkpt lat="30.065699" lon="101.41215">
<time>2015-08-06T02:47:33Z</time></trkpt>
<trkpt lat="30.065619" lon="101.41209">
<time>2015-08-06T02:47:34Z</time></trkpt>
<trkpt lat="30.065149" lon="101.41182">
<time>2015-08-06T02:47:35Z</time></trkpt>
<trkpt lat="30.064549" lon="101.41144">
<time>2015-08-06T02:47:36Z</time></trkpt>
<trkpt lat="30.064369" lon="101.41136">
<time>2015-08-06T02:47:37Z</time></trkpt>
<trkpt lat="30.064289" lon="101.41132">
<time>2015-08-06T02:47:38Z</time></trkpt>
<trkpt lat="30.064219" lon="101.4113">
<time>2015-08-06T02:47:39Z</time></trkpt>
<trkpt lat="30.064139" lon="101.41128">
<time>2015-08-06T02:47:40Z</time></trkpt>
<trkpt lat="30.064059" lon="101.41127">
<time>2015-08-06T02:47:41Z</time></trkpt>
<trkpt lat="30.063629" lon="101.41124">
<time>2015-08-06T02:47:42Z</time></trkpt>
<trkpt lat="30.063499" lon="101.41122">
<time>2015-08-06T02:47:43Z</time></trkpt>
<trkpt lat="30.063299" lon="101.41116">
<time>2015-08-06T02:47:44Z</time></trkpt>
<trkpt lat="30.063159" lon="101.4111">
<time>2015-08-06T02:47:45Z</time></trkpt>
<trkpt lat="30.062879" lon="101.41094">
<time>2015-08-06T02:47:46Z</time></trkpt>
<trkpt lat="30.062359" lon="101.41065">
<time>2015-08-06T02:47:47Z</time></trkpt>
<trkpt lat="30.061978" lon="101.41045">
<time>2015-08-06T02:47:48Z</time></trkpt>
<trkpt lat="30.061788" lon="101.41036">
<time>2015-08-06T02:47:49Z</time></trkpt>
<trkpt lat="30.061508" lon="101.41025">
<time>2015-08-06T02:47:50Z</time></trkpt>
<trkpt lat="30.061368" lon="101.41019">
<time>2015-08-06T02:47:51Z</time></trkpt>
<trkpt lat="30.060908" lon="101.40992">
<time>2015-08-06T02:47:52Z</time></trkpt>
<trkpt lat="30.060408" lon="101.40961">
<time>2015-08-06T02:47:53Z</time></trkpt>
<trkpt lat="30.060158" lon="101.40943">
<time>2015-08-06T02:47:54Z</time></trkpt>
<trkpt lat="30.059968" lon="101.40926">
<time>2015-08-06T02:47:55Z</time></trkpt>
<trkpt lat="30.059808" lon="101.40914">
<time>2015-08-06T02:47:56Z</time></trkpt>
<trkpt lat="30.059738" lon="101.4091">
<time>2015-08-06T02:47:57Z</time></trkpt>
<trkpt lat="30.059698" lon="101.40909">
<time>2015-08-06T02:47:58Z</time></trkpt>
<trkpt lat="30.059658" lon="101.40908">
<time>2015-08-06T02:47:59Z</time></trkpt>
<trkpt lat="30.059568" lon="101.40906">
<time>2015-08-06T02:48:00Z</time></trkpt>
<trkpt lat="30.059488" lon="101.40906">
<time>2015-08-06T02:48:01Z</time></trkpt>
<trkpt lat="30.059418" lon="101.40907">
<time>2015-08-06T02:48:02Z</time></trkpt>
<trkpt lat="30.059338" lon="101.40907">
<time>2015-08-06T02:48:03Z</time></trkpt>
<trkpt lat="30.059148" lon="101.40909">
<time>2015-08-06T02:48:04Z</time></trkpt>
<trkpt lat="30.059058" lon="101.40908">
<time>2015-08-06T02:48:05Z</time></trkpt>
<trkpt lat="30.058778" lon="101.40904">
<time>2015-08-06T02:48:06Z</time></trkpt>
<trkpt lat="30.058248" lon="101.40895">
<time>2015-08-06T02:48:07Z</time></trkpt>
<trkpt lat="30.058018" lon="101.4089">
<time>2015-08-06T02:48:08Z</time></trkpt>
<trkpt lat="30.057768" lon="101.40879">
<time>2015-08-06T02:48:09Z</time></trkpt>
<trkpt lat="30.057688" lon="101.40875">
<time>2015-08-06T02:48:10Z</time></trkpt>
<trkpt lat="30.057548" lon="101.40864">
<time>2015-08-06T02:48:11Z</time></trkpt>
<trkpt lat="30.057448" lon="101.40853">
<time>2015-08-06T02:48:12Z</time></trkpt>
<trkpt lat="30.057368" lon="101.40842">
<time>2015-08-06T02:48:13Z</time></trkpt>
<trkpt lat="30.057308" lon="101.40831">
<time>2015-08-06T02:48:14Z</time></trkpt>
<trkpt lat="30.057147" lon="101.40795">
<time>2015-08-06T02:48:15Z</time></trkpt>
<trkpt lat="30.057077" lon="101.40778">
<time>2015-08-06T02:48:16Z</time></trkpt>
<trkpt lat="30.057017" lon="101.4076">
<time>2015-08-06T02:48:17Z</time></trkpt>
<trkpt lat="30.057007" lon="101.40752">
<time>2015-08-06T02:48:18Z</time></trkpt>
<trkpt lat="30.056987" lon="101.4074">
<time>2015-08-06T02:48:19Z</time></trkpt>
<trkpt lat="30.056987" lon="101.40679">
<time>2015-08-06T02:48:20Z</time></trkpt>
<trkpt lat="30.056987" lon="101.40633">
<time>2015-08-06T02:48:21Z</time></trkpt>
<trkpt lat="30.056977" lon="101.4062">
<time>2015-08-06T02:48:22Z</time></trkpt>
<trkpt lat="30.056957" lon="101.406089">
<time>2015-08-06T02:48:23Z</time></trkpt>
<trkpt lat="30.056937" lon="101.406019">
<time>2015-08-06T02:48:24Z</time></trkpt>
<trkpt lat="30.056887" lon="101.405939">
<time>2015-08-06T02:48:25Z</time></trkpt>
<trkpt lat="30.056727" lon="101.405669">
<time>2015-08-06T02:48:26Z</time></trkpt>
<trkpt lat="30.056547" lon="101.405409">
<time>2015-08-06T02:48:27Z</time></trkpt>
<trkpt lat="30.056417" lon="101.405239">
<time>2015-08-06T02:48:28Z</time></trkpt>
<trkpt lat="30.056167" lon="101.404979">
<time>2015-08-06T02:48:29Z</time></trkpt>
<trkpt lat="30.055857" lon="101.4047">
<time>2015-08-06T02:48:30Z</time></trkpt>
<trkpt lat="30.055627" lon="101.40454">
<time>2015-08-06T02:48:31Z</time></trkpt>
<trkpt lat="30.055406" lon="101.4044">
<time>2015-08-06T02:48:32Z</time></trkpt>
<trkpt lat="30.055206" lon="101.4043">
<time>2015-08-06T02:48:33Z</time></trkpt>
<trkpt lat="30.055096" lon="101.40425">
<time>2015-08-06T02:48:34Z</time></trkpt>
<trkpt lat="30.054796" lon="101.40415">
<time>2015-08-06T02:48:35Z</time></trkpt>
<trkpt lat="30.054336" lon="101.40397">
<time>2015-08-06T02:48:36Z</time></trkpt>
<trkpt lat="30.054136" lon="101.40387">
<time>2015-08-06T02:48:37Z</time></trkpt>
<trkpt lat="30.053936" lon="101.40374">
<time>2015-08-06T02:48:38Z</time></trkpt>
<trkpt lat="30.053656" lon="101.40355">
<time>2015-08-06T02:48:39Z</time></trkpt>
<trkpt lat="30.053456" lon="101.40345">
<time>2015-08-06T02:48:40Z</time></trkpt>
<trkpt lat="30.053236" lon="101.40334">
<time>2015-08-06T02:48:41Z</time></trkpt>
<trkpt lat="30.053166" lon="101.40332">
<time>2015-08-06T02:48:42Z</time></trkpt>
<trkpt lat="30.053106" lon="101.4033">
<time>2015-08-06T02:48:43Z</time></trkpt>
<trkpt lat="30.053046" lon="101.40328">
<time>2015-08-06T02:48:44Z</time></trkpt>
<trkpt lat="30.052996" lon="101.40327">
<time>2015-08-06T02:48:45Z</time></trkpt>
<trkpt lat="30.052726" lon="101.40321">
<time>2015-08-06T02:48:46Z</time></trkpt>
<trkpt lat="30.052466" lon="101.40317">
<time>2015-08-06T02:48:47Z</time></trkpt>
<trkpt lat="30.052396" lon="101.40316">
<time>2015-08-06T02:48:48Z</time></trkpt>
<trkpt lat="30.052286" lon="101.40315">
<time>2015-08-06T02:48:49Z</time></trkpt>
<trkpt lat="30.052226" lon="101.40315">
<time>2015-08-06T02:48:50Z</time></trkpt>
<trkpt lat="30.051686" lon="101.40313">
<time>2015-08-06T02:48:51Z</time></trkpt>
<trkpt lat="30.051566" lon="101.40311">
<time>2015-08-06T02:48:52Z</time></trkpt>
<trkpt lat="30.051456" lon="101.40306">
<time>2015-08-06T02:48:53Z</time></trkpt>
<trkpt lat="30.051386" lon="101.40297">
<time>2015-08-06T02:48:54Z</time></trkpt>
<trkpt lat="30.051336" lon="101.40286">
<time>2015-08-06T02:48:55Z</time></trkpt>
<trkpt lat="30.051286" lon="101.40267">
<time>2015-08-06T02:48:56Z</time></trkpt>
<trkpt lat="30.051256" lon="101.40248">
<time>2015-08-06T02:48:57Z</time></trkpt>
<trkpt lat="30.051256" lon="101.40238">
<time>2015-08-06T02:48:58Z</time></trkpt>
<trkpt lat="30.051276" lon="101.40223">
<time>2015-08-06T02:48:59Z</time></trkpt>
<trkpt lat="30.051316" lon="101.40207">
<time>2015-08-06T02:49:00Z</time></trkpt>
<trkpt lat="30.051336" lon="101.40194">
<time>2015-08-06T02:49:01Z</time></trkpt>
<trkpt lat="30.051336" lon="101.40186">
<time>2015-08-06T02:49:02Z</time></trkpt>
<trkpt lat="30.051326" lon="101.40179">
<time>2015-08-06T02:49:03Z</time></trkpt>
<trkpt lat="30.051296" lon="101.40169">
<time>2015-08-06T02:49:04Z</time></trkpt>
<trkpt lat="30.051246" lon="101.4016">
<time>2015-08-06T02:49:05Z</time></trkpt>
<trkpt lat="30.051166" lon="101.40152">
<time>2015-08-06T02:49:06Z</time></trkpt>
<trkpt lat="30.051086" lon="101.40146">
<time>2015-08-06T02:49:07Z</time></trkpt>
<trkpt lat="30.051006" lon="101.40141">
<time>2015-08-06T02:49:08Z</time></trkpt>
<trkpt lat="30.050706" lon="101.40127">
<time>2015-08-06T02:49:09Z</time></trkpt>
<trkpt lat="30.049716" lon="101.40088">
<time>2015-08-06T02:49:10Z</time></trkpt>
<trkpt lat="30.049316" lon="101.40073">
<time>2015-08-06T02:49:11Z</time></trkpt>
<trkpt lat="30.048876" lon="101.40059">
<time>2015-08-06T02:49:12Z</time></trkpt>
<trkpt lat="30.048826" lon="101.40056">
<time>2015-08-06T02:49:13Z</time></trkpt>
<trkpt lat="30.048776" lon="101.40051">
<time>2015-08-06T02:49:14Z</time></trkpt>
<trkpt lat="30.048746" lon="101.40047">
<time>2015-08-06T02:49:15Z</time></trkpt>
<trkpt lat="30.048716" lon="101.40039">
<time>2015-08-06T02:49:16Z</time></trkpt>
<trkpt lat="30.048696" lon="101.4003">
<time>2015-08-06T02:49:17Z</time></trkpt>
<trkpt lat="30.048696" lon="101.4002">
<time>2015-08-06T02:49:18Z</time></trkpt>
<trkpt lat="30.048706" lon="101.40013">
<time>2015-08-06T02:49:19Z</time></trkpt>
<trkpt lat="30.048726" lon="101.40005">
<time>2015-08-06T02:49:20Z</time></trkpt>
<trkpt lat="30.048756" lon="101.39999">
<time>2015-08-06T02:49:21Z</time></trkpt>
<trkpt lat="30.048796" lon="101.39993">
<time>2015-08-06T02:49:22Z</time></trkpt>
<trkpt lat="30.048826" lon="101.39989">
<time>2015-08-06T02:49:23Z</time></trkpt>
<trkpt lat="30.048896" lon="101.39981">
<time>2015-08-06T02:49:24Z</time></trkpt>
<trkpt lat="30.048976" lon="101.39974">
<time>2015-08-06T02:49:25Z</time></trkpt>
<trkpt lat="30.049126" lon="101.399581">
<time>2015-08-06T02:49:26Z</time></trkpt>
<trkpt lat="30.049256" lon="101.399411">
<time>2015-08-06T02:49:27Z</time></trkpt>
<trkpt lat="30.049386" lon="101.399231">
<time>2015-08-06T02:49:28Z</time></trkpt>
<trkpt lat="30.049716" lon="101.398691">
<time>2015-08-06T02:49:29Z</time></trkpt>
<trkpt lat="30.049776" lon="101.398561">
<time>2015-08-06T02:49:30Z</time></trkpt>
<trkpt lat="30.049856" lon="101.398381">
<time>2015-08-06T02:49:31Z</time></trkpt>
<trkpt lat="30.049936" lon="101.398171">
<time>2015-08-06T02:49:32Z</time></trkpt>
<trkpt lat="30.049986" lon="101.398021">
<time>2015-08-06T02:49:33Z</time></trkpt>
<trkpt lat="30.050076" lon="101.397641">
<time>2015-08-06T02:49:34Z</time></trkpt>
<trkpt lat="30.050306" lon="101.396612">
<time>2015-08-06T02:49:35Z</time></trkpt>
<trkpt lat="30.050527" lon="101.395822">
<time>2015-08-06T02:49:36Z</time></trkpt>
<trkpt lat="30.050587" lon="101.395652">
<time>2015-08-06T02:49:37Z</time></trkpt>
<trkpt lat="30.050617" lon="101.395592">
<time>2015-08-06T02:49:38Z</time></trkpt>
<trkpt lat="30.050697" lon="101.395462">
<time>2015-08-06T02:49:39Z</time></trkpt>
<trkpt lat="30.050737" lon="101.395432">
<time>2015-08-06T02:49:40Z</time></trkpt>
<trkpt lat="30.050797" lon="101.395392">
<time>2015-08-06T02:49:41Z</time></trkpt>
<trkpt lat="30.050857" lon="101.395382">
<time>2015-08-06T02:49:42Z</time></trkpt>
<trkpt lat="30.050897" lon="101.395382">
<time>2015-08-06T02:49:43Z</time></trkpt>
<trkpt lat="30.050957" lon="101.395392">
<time>2015-08-06T02:49:44Z</time></trkpt>
<trkpt lat="30.051007" lon="101.395412">
<time>2015-08-06T02:49:45Z</time></trkpt>
<trkpt lat="30.051107" lon="101.395482">
<time>2015-08-06T02:49:46Z</time></trkpt>
<trkpt lat="30.051297" lon="101.395632">
<time>2015-08-06T02:49:47Z</time></trkpt>
<trkpt lat="30.051377" lon="101.395702">
<time>2015-08-06T02:49:48Z</time></trkpt>
<trkpt lat="30.051517" lon="101.395772">
<time>2015-08-06T02:49:49Z</time></trkpt>
<trkpt lat="30.051587" lon="101.395782">
<time>2015-08-06T02:49:50Z</time></trkpt>
<trkpt lat="30.051677" lon="101.395772">
<time>2015-08-06T02:49:51Z</time></trkpt>
<trkpt lat="30.051747" lon="101.395752">
<time>2015-08-06T02:49:52Z</time></trkpt>
<trkpt lat="30.051887" lon="101.395692">
<time>2015-08-06T02:49:53Z</time></trkpt>
<trkpt lat="30.051987" lon="101.395652">
<time>2015-08-06T02:49:54Z</time></trkpt>
<trkpt lat="30.052157" lon="101.395552">
<time>2015-08-06T02:49:55Z</time></trkpt>
<trkpt lat="30.052247" lon="101.395492">
<time>2015-08-06T02:49:56Z</time></trkpt>
<trkpt lat="30.052357" lon="101.395392">
<time>2015-08-06T02:49:57Z</time></trkpt>
<trkpt lat="30.052437" lon="101.395312">
<time>2015-08-06T02:49:58Z</time></trkpt>
<trkpt lat="30.052537" lon="101.395182">
<time>2015-08-06T02:49:59Z</time></trkpt>
<trkpt lat="30.052647" lon="101.394992">
<time>2015-08-06T02:50:00Z</time></trkpt>
<trkpt lat="30.052757" lon="101.394772">
<time>2015-08-06T02:50:01Z</time></trkpt>
<trkpt lat="30.053077" lon="101.393973">
<time>2015-08-06T02:50:02Z</time></trkpt>
<trkpt lat="30.053267" lon="101.393513">
<time>2015-08-06T02:50:03Z</time></trkpt>
<trkpt lat="30.053427" lon="101.393203">
<time>2015-08-06T02:50:04Z</time></trkpt>
<trkpt lat="30.053557" lon="101.393023">
<time>2015-08-06T02:50:05Z</time></trkpt>
<trkpt lat="30.054108" lon="101.392274">
<time>2015-08-06T02:50:06Z</time></trkpt>
<trkpt lat="30.054388" lon="101.391924">
<time>2015-08-06T02:50:07Z</time></trkpt>
<trkpt lat="30.054648" lon="101.391634">
<time>2015-08-06T02:50:08Z</time></trkpt>
<trkpt lat="30.054758" lon="101.391474">
<time>2015-08-06T02:50:09Z</time></trkpt>
<trkpt lat="30.054788" lon="101.391424">
<time>2015-08-06T02:50:10Z</time></trkpt>
<trkpt lat="30.054808" lon="101.391344">
<time>2015-08-06T02:50:11Z</time></trkpt>
<trkpt lat="30.054818" lon="101.391284">
<time>2015-08-06T02:50:12Z</time></trkpt>
<trkpt lat="30.054808" lon="101.391204">
<time>2015-08-06T02:50:13Z</time></trkpt>
<trkpt lat="30.054788" lon="101.391105">
<time>2015-08-06T02:50:14Z</time></trkpt>
<trkpt lat="30.054668" lon="101.390745">
<time>2015-08-06T02:50:15Z</time></trkpt>
<trkpt lat="30.054478" lon="101.390175">
<time>2015-08-06T02:50:16Z</time></trkpt>
<trkpt lat="30.054379" lon="101.389935">
<time>2015-08-06T02:50:17Z</time></trkpt>
<trkpt lat="30.054219" lon="101.389536">
<time>2015-08-06T02:50:18Z</time></trkpt>
<trkpt lat="30.054039" lon="101.389046">
<time>2015-08-06T02:50:19Z</time></trkpt>
<trkpt lat="30.053989" lon="101.388876">
<time>2015-08-06T02:50:20Z</time></trkpt>
<trkpt lat="30.053959" lon="101.388716">
<time>2015-08-06T02:50:21Z</time></trkpt>
<trkpt lat="30.053959" lon="101.388627">
<time>2015-08-06T02:50:22Z</time></trkpt>
<trkpt lat="30.053969" lon="101.388007">
<time>2015-08-06T02:50:23Z</time></trkpt>
<trkpt lat="30.05398" lon="101.387867">
<time>2015-08-06T02:50:24Z</time></trkpt>
<trkpt lat="30.05397" lon="101.387777">
<time>2015-08-06T02:50:25Z</time></trkpt>
<trkpt lat="30.05395" lon="101.387717">
<time>2015-08-06T02:50:26Z</time></trkpt>
<trkpt lat="30.05391" lon="101.387657">
<time>2015-08-06T02:50:27Z</time></trkpt>
<trkpt lat="30.05388" lon="101.387627">
<time>2015-08-06T02:50:28Z</time></trkpt>
<trkpt lat="30.05382" lon="101.387587">
<time>2015-08-06T02:50:29Z</time></trkpt>
<trkpt lat="30.05356" lon="101.387438">
<time>2015-08-06T02:50:30Z</time></trkpt>
<trkpt lat="30.05342" lon="101.387348">
<time>2015-08-06T02:50:31Z</time></trkpt>
<trkpt lat="30.0533" lon="101.387258">
<time>2015-08-06T02:50:32Z</time></trkpt>
<trkpt lat="30.05319" lon="101.387148">
<time>2015-08-06T02:50:33Z</time></trkpt>
<trkpt lat="30.05311" lon="101.387038">
<time>2015-08-06T02:50:34Z</time></trkpt>
<trkpt lat="30.05299" lon="101.386798">
<time>2015-08-06T02:50:35Z</time></trkpt>
<trkpt lat="30.05292" lon="101.386628">
<time>2015-08-06T02:50:36Z</time></trkpt>
<trkpt lat="30.05287" lon="101.386478">
<time>2015-08-06T02:50:37Z</time></trkpt>
<trkpt lat="30.05283" lon="101.386389">
<time>2015-08-06T02:50:38Z</time></trkpt>
<trkpt lat="30.0528" lon="101.386309">
<time>2015-08-06T02:50:39Z</time></trkpt>
<trkpt lat="30.05275" lon="101.386259">
<time>2015-08-06T02:50:40Z</time></trkpt>
<trkpt lat="30.05267" lon="101.386189">
<time>2015-08-06T02:50:41Z</time></trkpt>
<trkpt lat="30.052351" lon="101.385939">
<time>2015-08-06T02:50:42Z</time></trkpt>
<trkpt lat="30.051991" lon="101.385689">
<time>2015-08-06T02:50:43Z</time></trkpt>
<trkpt lat="30.051541" lon="101.38537">
<time>2015-08-06T02:50:44Z</time></trkpt>
<trkpt lat="30.051451" lon="101.3853">
<time>2015-08-06T02:50:45Z</time></trkpt>
<trkpt lat="30.051381" lon="101.38523">
<time>2015-08-06T02:50:46Z</time></trkpt>
<trkpt lat="30.051301" lon="101.38512">
<time>2015-08-06T02:50:47Z</time></trkpt>
<trkpt lat="30.051251" lon="101.38503">
<time>2015-08-06T02:50:48Z</time></trkpt>
<trkpt lat="30.051221" lon="101.38498">
<time>2015-08-06T02:50:49Z</time></trkpt>
<trkpt lat="30.051211" lon="101.38494">
<time>2015-08-06T02:50:50Z</time></trkpt>
<trkpt lat="30.051211" lon="101.38491">
<time>2015-08-06T02:50:51Z</time></trkpt>
<trkpt lat="30.051201" lon="101.38488">
<time>2015-08-06T02:50:52Z</time></trkpt>
<trkpt lat="30.051201" lon="101.38485">
<time>2015-08-06T02:50:53Z</time></trkpt>
<trkpt lat="30.051201" lon="101.38481">
<time>2015-08-06T02:50:54Z</time></trkpt>
<trkpt lat="30.051211" lon="101.38473">
<time>2015-08-06T02:50:55Z</time></trkpt>
<trkpt lat="30.051231" lon="101.38467">
<time>2015-08-06T02:50:56Z</time></trkpt>
<trkpt lat="30.051241" lon="101.38461">
<time>2015-08-06T02:50:57Z</time></trkpt>
<trkpt lat="30.051322" lon="101.384431">
<time>2015-08-06T02:50:58Z</time></trkpt>
<trkpt lat="30.051522" lon="101.384011">
<time>2015-08-06T02:50:59Z</time></trkpt>
<trkpt lat="30.051572" lon="101.383911">
<time>2015-08-06T02:51:00Z</time></trkpt>
<trkpt lat="30.051612" lon="101.383821">
<time>2015-08-06T02:51:01Z</time></trkpt>
<trkpt lat="30.051652" lon="101.383731">
<time>2015-08-06T02:51:02Z</time></trkpt>
<trkpt lat="30.051672" lon="101.383681">
<time>2015-08-06T02:51:03Z</time></trkpt>
<trkpt lat="30.051682" lon="101.383641">
<time>2015-08-06T02:51:04Z</time></trkpt>
<trkpt lat="30.051682" lon="101.383591">
<time>2015-08-06T02:51:05Z</time></trkpt>
<trkpt lat="30.051672" lon="101.383571">
<time>2015-08-06T02:51:06Z</time></trkpt>
<trkpt lat="30.051672" lon="101.383541">
<time>2015-08-06T02:51:07Z</time></trkpt>
<trkpt lat="30.051652" lon="101.383511">
<time>2015-08-06T02:51:08Z</time></trkpt>
<trkpt lat="30.051642" lon="101.383492">
<time>2015-08-06T02:51:09Z</time></trkpt>
<trkpt lat="30.051632" lon="101.383472">
<time>2015-08-06T02:51:10Z</time></trkpt>
<trkpt lat="30.051612" lon="101.383452">
<time>2015-08-06T02:51:11Z</time></trkpt>
<trkpt lat="30.051592" lon="101.383442">
<time>2015-08-06T02:51:12Z</time></trkpt>
<trkpt lat="30.051562" lon="101.383432">
<time>2015-08-06T02:51:13Z</time></trkpt>
<trkpt lat="30.051542" lon="101.383432">
<time>2015-08-06T02:51:14Z</time></trkpt>
<trkpt lat="30.051522" lon="101.383432">
<time>2015-08-06T02:51:15Z</time></trkpt>
<trkpt lat="30.051502" lon="101.383442">
<time>2015-08-06T02:51:16Z</time></trkpt>
<trkpt lat="30.051482" lon="101.383452">
<time>2015-08-06T02:51:17Z</time></trkpt>
<trkpt lat="30.051462" lon="101.383482">
<time>2015-08-06T02:51:18Z</time></trkpt>
<trkpt lat="30.051452" lon="101.383502">
<time>2015-08-06T02:51:19Z</time></trkpt>
<trkpt lat="30.051442" lon="101.383521">
<time>2015-08-06T02:51:20Z</time></trkpt>
<trkpt lat="30.051442" lon="101.383551">
<time>2015-08-06T02:51:21Z</time></trkpt>
<trkpt lat="30.051422" lon="101.383621">
<time>2015-08-06T02:51:22Z</time></trkpt>
<trkpt lat="30.051392" lon="101.383711">
<time>2015-08-06T02:51:23Z</time></trkpt>
<trkpt lat="30.051372" lon="101.383811">
<time>2015-08-06T02:51:24Z</time></trkpt>
<trkpt lat="30.051342" lon="101.383931">
<time>2015-08-06T02:51:25Z</time></trkpt>
<trkpt lat="30.051312" lon="101.384021">
<time>2015-08-06T02:51:26Z</time></trkpt>
<trkpt lat="30.051232" lon="101.384171">
<time>2015-08-06T02:51:27Z</time></trkpt>
<trkpt lat="30.051102" lon="101.384391">
<time>2015-08-06T02:51:28Z</time></trkpt>
<trkpt lat="30.051001" lon="101.38457">
<time>2015-08-06T02:51:29Z</time></trkpt>
<trkpt lat="30.050961" lon="101.38465">
<time>2015-08-06T02:51:30Z</time></trkpt>
<trkpt lat="30.050921" lon="101.38472">
<time>2015-08-06T02:51:31Z</time></trkpt>
<trkpt lat="30.050901" lon="101.38479">
<time>2015-08-06T02:51:32Z</time></trkpt>
<trkpt lat="30.050881" lon="101.38486">
<time>2015-08-06T02:51:33Z</time></trkpt>
<trkpt lat="30.050861" lon="101.38493">
<time>2015-08-06T02:51:34Z</time></trkpt>
<trkpt lat="30.050851" lon="101.38498">
<time>2015-08-06T02:51:35Z</time></trkpt>
<trkpt lat="30.050851" lon="101.38503">
<time>2015-08-06T02:51:36Z</time></trkpt>
<trkpt lat="30.050851" lon="101.38509">
<time>2015-08-06T02:51:37Z</time></trkpt>
<trkpt lat="30.050861" lon="101.38513">
<time>2015-08-06T02:51:38Z</time></trkpt>
<trkpt lat="30.050871" lon="101.3852">
<time>2015-08-06T02:51:39Z</time></trkpt>
<trkpt lat="30.050891" lon="101.38526">
<time>2015-08-06T02:51:40Z</time></trkpt>
<trkpt lat="30.050911" lon="101.38532">
<time>2015-08-06T02:51:41Z</time></trkpt>
<trkpt lat="30.050941" lon="101.38539">
<time>2015-08-06T02:51:42Z</time></trkpt>
<trkpt lat="30.051001" lon="101.385469">
<time>2015-08-06T02:51:43Z</time></trkpt>
<trkpt lat="30.051081" lon="101.385569">
<time>2015-08-06T02:51:44Z</time></trkpt>
<trkpt lat="30.051171" lon="101.385679">
<time>2015-08-06T02:51:45Z</time></trkpt>
<trkpt lat="30.051231" lon="101.385739">
<time>2015-08-06T02:51:46Z</time></trkpt>
<trkpt lat="30.051381" lon="101.385879">
<time>2015-08-06T02:51:47Z</time></trkpt>
<trkpt lat="30.05181" lon="101.386269">
<time>2015-08-06T02:51:48Z</time></trkpt>
<trkpt lat="30.05194" lon="101.386399">
<time>2015-08-06T02:51:49Z</time></trkpt>
<trkpt lat="30.052" lon="101.386459">
<time>2015-08-06T02:51:50Z</time></trkpt>
<trkpt lat="30.0521" lon="101.386588">
<time>2015-08-06T02:51:51Z</time></trkpt>
<trkpt lat="30.05214" lon="101.386638">
<time>2015-08-06T02:51:52Z</time></trkpt>
<trkpt lat="30.05216" lon="101.386688">
<time>2015-08-06T02:51:53Z</time></trkpt>
<trkpt lat="30.05219" lon="101.386778">
<time>2015-08-06T02:51:54Z</time></trkpt>
<trkpt lat="30.0522" lon="101.386878">
<time>2015-08-06T02:51:55Z</time></trkpt>
<trkpt lat="30.05221" lon="101.387018">
<time>2015-08-06T02:51:56Z</time></trkpt>
<trkpt lat="30.05222" lon="101.387158">
<time>2015-08-06T02:51:57Z</time></trkpt>
<trkpt lat="30.05224" lon="101.387278">
<time>2015-08-06T02:51:58Z</time></trkpt>
<trkpt lat="30.05228" lon="101.387438">
<time>2015-08-06T02:51:59Z</time></trkpt>
<trkpt lat="30.0523" lon="101.387538">
<time>2015-08-06T02:52:00Z</time></trkpt>
<trkpt lat="30.05233" lon="101.387597">
<time>2015-08-06T02:52:01Z</time></trkpt>
<trkpt lat="30.05237" lon="101.387677">
<time>2015-08-06T02:52:02Z</time></trkpt>
<trkpt lat="30.05244" lon="101.387787">
<time>2015-08-06T02:52:03Z</time></trkpt>
<trkpt lat="30.0525" lon="101.387867">
<time>2015-08-06T02:52:04Z</time></trkpt>
<trkpt lat="30.052649" lon="101.388037">
<time>2015-08-06T02:52:05Z</time></trkpt>
<trkpt lat="30.052759" lon="101.388157">
<time>2015-08-06T02:52:06Z</time></trkpt>
<trkpt lat="30.052819" lon="101.388247">
<time>2015-08-06T02:52:07Z</time></trkpt>
<trkpt lat="30.052849" lon="101.388297">
<time>2015-08-06T02:52:08Z</time></trkpt>
<trkpt lat="30.052869" lon="101.388337">
<time>2015-08-06T02:52:09Z</time></trkpt>
<trkpt lat="30.052879" lon="101.388367">
<time>2015-08-06T02:52:10Z</time></trkpt>
<trkpt lat="30.052889" lon="101.388387">
<time>2015-08-06T02:52:11Z</time></trkpt>
<trkpt lat="30.052889" lon="101.388417">
<time>2015-08-06T02:52:12Z</time></trkpt>
<trkpt lat="30.052889" lon="101.388447">
<time>2015-08-06T02:52:13Z</time></trkpt>
<trkpt lat="30.052889" lon="101.388477">
<time>2015-08-06T02:52:14Z</time></trkpt>
<trkpt lat="30.052889" lon="101.388507">
<time>2015-08-06T02:52:15Z</time></trkpt>
<trkpt lat="30.052879" lon="101.388567">
<time>2015-08-06T02:52:16Z</time></trkpt>
<trkpt lat="30.052859" lon="101.388657">
<time>2015-08-06T02:52:17Z</time></trkpt>
<trkpt lat="30.052829" lon="101.388866">
<time>2015-08-06T02:52:18Z</time></trkpt>
<trkpt lat="30.052819" lon="101.388976">
<time>2015-08-06T02:52:19Z</time></trkpt>
<trkpt lat="30.052809" lon="101.389056">
<time>2015-08-06T02:52:20Z</time></trkpt>
<trkpt lat="30.052809" lon="101.389216">
<time>2015-08-06T02:52:21Z</time></trkpt>
<trkpt lat="30.052819" lon="101.389306">
<time>2015-08-06T02:52:22Z</time></trkpt>
<trkpt lat="30.052839" lon="101.389396">
<time>2015-08-06T02:52:23Z</time></trkpt>
<trkpt lat="30.052859" lon="101.389486">
<time>2015-08-06T02:52:24Z</time></trkpt>
<trkpt lat="30.052899" lon="101.389676">
<time>2015-08-06T02:52:25Z</time></trkpt>
<trkpt lat="30.052919" lon="101.389806">
<time>2015-08-06T02:52:26Z</time></trkpt>
<trkpt lat="30.052929" lon="101.389876">
<time>2015-08-06T02:52:27Z</time></trkpt>
<trkpt lat="30.052928" lon="101.389945">
<time>2015-08-06T02:52:28Z</time></trkpt>
<trkpt lat="30.052928" lon="101.390015">
<time>2015-08-06T02:52:29Z</time></trkpt>
<trkpt lat="30.052918" lon="101.390095">
<time>2015-08-06T02:52:30Z</time></trkpt>
<trkpt lat="30.052898" lon="101.390155">
<time>2015-08-06T02:52:31Z</time></trkpt>
<trkpt lat="30.052888" lon="101.390185">
<time>2015-08-06T02:52:32Z</time></trkpt>
<trkpt lat="30.052868" lon="101.390205">
<time>2015-08-06T02:52:33Z</time></trkpt>
<trkpt lat="30.052858" lon="101.390225">
<time>2015-08-06T02:52:34Z</time></trkpt>
<trkpt lat="30.052838" lon="101.390235">
<time>2015-08-06T02:52:35Z</time></trkpt>
<trkpt lat="30.052818" lon="101.390245">
<time>2015-08-06T02:52:36Z</time></trkpt>
<trkpt lat="30.052798" lon="101.390245">
<time>2015-08-06T02:52:37Z</time></trkpt>
<trkpt lat="30.052768" lon="101.390235">
<time>2015-08-06T02:52:38Z</time></trkpt>
<trkpt lat="30.052748" lon="101.390235">
<time>2015-08-06T02:52:39Z</time></trkpt>
<trkpt lat="30.052728" lon="101.390225">
<time>2015-08-06T02:52:40Z</time></trkpt>
<trkpt lat="30.052718" lon="101.390205">
<time>2015-08-06T02:52:41Z</time></trkpt>
<trkpt lat="30.052698" lon="101.390175">
<time>2015-08-06T02:52:42Z</time></trkpt>
<trkpt lat="30.052698" lon="101.390155">
<time>2015-08-06T02:52:43Z</time></trkpt>
<trkpt lat="30.052688" lon="101.390125">
<time>2015-08-06T02:52:44Z</time></trkpt>
<trkpt lat="30.052688" lon="101.390095">
<time>2015-08-06T02:52:45Z</time></trkpt>
<trkpt lat="30.052698" lon="101.390005">
<time>2015-08-06T02:52:46Z</time></trkpt>
<trkpt lat="30.052719" lon="101.389846">
<time>2015-08-06T02:52:47Z</time></trkpt>
<trkpt lat="30.052729" lon="101.389736">
<time>2015-08-06T02:52:48Z</time></trkpt>
<trkpt lat="30.052729" lon="101.389576">
<time>2015-08-06T02:52:49Z</time></trkpt>
<trkpt lat="30.052699" lon="101.389396">
<time>2015-08-06T02:52:50Z</time></trkpt>
<trkpt lat="30.052649" lon="101.388966">
<time>2015-08-06T02:52:51Z</time></trkpt>
<trkpt lat="30.052639" lon="101.388716">
<time>2015-08-06T02:52:52Z</time></trkpt>
<trkpt lat="30.052619" lon="101.388587">
<time>2015-08-06T02:52:53Z</time></trkpt>
<trkpt lat="30.052589" lon="101.388507">
<time>2015-08-06T02:52:54Z</time></trkpt>
<trkpt lat="30.052549" lon="101.388437">
<time>2015-08-06T02:52:55Z</time></trkpt>
<trkpt lat="30.052499" lon="101.388377">
<time>2015-08-06T02:52:56Z</time></trkpt>
<trkpt lat="30.052449" lon="101.388327">
<time>2015-08-06T02:52:57Z</time></trkpt>
<trkpt lat="30.052379" lon="101.388267">
<time>2015-08-06T02:52:58Z</time></trkpt>
<trkpt lat="30.052219" lon="101.388137">
<time>2015-08-06T02:52:59Z</time></trkpt>
<trkpt lat="30.052139" lon="101.388067">
<time>2015-08-06T02:53:00Z</time></trkpt>
<trkpt lat="30.052029" lon="101.387937">
<time>2015-08-06T02:53:01Z</time></trkpt>
<trkpt lat="30.05189" lon="101.387727">
<time>2015-08-06T02:53:02Z</time></trkpt>
<trkpt lat="30.05182" lon="101.387597">
<time>2015-08-06T02:53:03Z</time></trkpt>
<trkpt lat="30.05176" lon="101.387478">
<time>2015-08-06T02:53:04Z</time></trkpt>
<trkpt lat="30.05169" lon="101.387258">
<time>2015-08-06T02:53:05Z</time></trkpt>
<trkpt lat="30.05165" lon="101.387088">
<time>2015-08-06T02:53:06Z</time></trkpt>
<trkpt lat="30.0516" lon="101.386948">
<time>2015-08-06T02:53:07Z</time></trkpt>
<trkpt lat="30.05156" lon="101.386878">
<time>2015-08-06T02:53:08Z</time></trkpt>
<trkpt lat="30.05152" lon="101.386828">
<time>2015-08-06T02:53:09Z</time></trkpt>
<trkpt lat="30.05146" lon="101.386788">
<time>2015-08-06T02:53:10Z</time></trkpt>
<trkpt lat="30.05138" lon="101.386738">
<time>2015-08-06T02:53:11Z</time></trkpt>
<trkpt lat="30.05123" lon="101.386668">
<time>2015-08-06T02:53:12Z</time></trkpt>
<trkpt lat="30.05104" lon="101.386558">
<time>2015-08-06T02:53:13Z</time></trkpt>
<trkpt lat="30.05079" lon="101.386379">
<time>2015-08-06T02:53:14Z</time></trkpt>
<trkpt lat="30.0504" lon="101.386149">
<time>2015-08-06T02:53:15Z</time></trkpt>
<trkpt lat="30.050251" lon="101.386029">
<time>2015-08-06T02:53:16Z</time></trkpt>
<trkpt lat="30.050171" lon="101.385959">
<time>2015-08-06T02:53:17Z</time></trkpt>
<trkpt lat="30.050121" lon="101.385889">
<time>2015-08-06T02:53:18Z</time></trkpt>
<trkpt lat="30.050091" lon="101.385819">
<time>2015-08-06T02:53:19Z</time></trkpt>
<trkpt lat="30.050031" lon="101.385689">
<time>2015-08-06T02:53:20Z</time></trkpt>
<trkpt lat="30.049931" lon="101.3852">
<time>2015-08-06T02:53:21Z</time></trkpt>
<trkpt lat="30.049881" lon="101.38474">
<time>2015-08-06T02:53:22Z</time></trkpt>
<trkpt lat="30.049852" lon="101.384391">
<time>2015-08-06T02:53:23Z</time></trkpt>
<trkpt lat="30.049852" lon="101.384301">
<time>2015-08-06T02:53:24Z</time></trkpt>
<trkpt lat="30.049892" lon="101.384181">
<time>2015-08-06T02:53:25Z</time></trkpt>
<trkpt lat="30.049922" lon="101.384131">
<time>2015-08-06T02:53:26Z</time></trkpt>
<trkpt lat="30.049982" lon="101.384011">
<time>2015-08-06T02:53:27Z</time></trkpt>
<trkpt lat="30.050042" lon="101.383881">
<time>2015-08-06T02:53:28Z</time></trkpt>
<trkpt lat="30.050072" lon="101.383771">
<time>2015-08-06T02:53:29Z</time></trkpt>
<trkpt lat="30.050062" lon="101.383701">
<time>2015-08-06T02:53:30Z</time></trkpt>
<trkpt lat="30.050052" lon="101.383621">
<time>2015-08-06T02:53:31Z</time></trkpt>
<trkpt lat="30.049982" lon="101.383412">
<time>2015-08-06T02:53:32Z</time></trkpt>
<trkpt lat="30.049952" lon="101.383292">
<time>2015-08-06T02:53:33Z</time></trkpt>
<trkpt lat="30.049942" lon="101.383152">
<time>2015-08-06T02:53:34Z</time></trkpt>
<trkpt lat="30.049932" lon="101.383082">
<time>2015-08-06T02:53:35Z</time></trkpt>
<trkpt lat="30.049973" lon="101.382652">
<time>2015-08-06T02:53:36Z</time></trkpt>
<trkpt lat="30.049993" lon="101.382413">
<time>2015-08-06T02:53:37Z</time></trkpt>
<trkpt lat="30.050093" lon="101.382033">
<time>2015-08-06T02:53:38Z</time></trkpt>
<trkpt lat="30.050143" lon="101.381863">
<time>2015-08-06T02:53:39Z</time></trkpt>
<trkpt lat="30.050174" lon="101.381714">
<time>2015-08-06T02:53:40Z</time></trkpt>
<trkpt lat="30.050154" lon="101.381494">
<time>2015-08-06T02:53:41Z</time></trkpt>
<trkpt lat="30.050114" lon="101.381224">
<time>2015-08-06T02:53:42Z</time></trkpt>
<trkpt lat="30.050044" lon="101.380905">
<time>2015-08-06T02:53:43Z</time></trkpt>
<trkpt lat="30.049954" lon="101.380575">
<time>2015-08-06T02:53:44Z</time></trkpt>
<trkpt lat="30.049925" lon="101.380415">
<time>2015-08-06T02:53:45Z</time></trkpt>
<trkpt lat="30.049925" lon="101.380335">
<time>2015-08-06T02:53:46Z</time></trkpt>
<trkpt lat="30.049925" lon="101.380275">
<time>2015-08-06T02:53:47Z</time></trkpt>
<trkpt lat="30.049945" lon="101.380165">
<time>2015-08-06T02:53:48Z</time></trkpt>
<trkpt lat="30.049965" lon="101.380105">
<time>2015-08-06T02:53:49Z</time></trkpt>
<trkpt lat="30.050015" lon="101.379986">
<time>2015-08-06T02:53:50Z</time></trkpt>
<trkpt lat="30.050045" lon="101.379926">
<time>2015-08-06T02:53:51Z</time></trkpt>
<trkpt lat="30.050125" lon="101.379806">
<time>2015-08-06T02:53:52Z</time></trkpt>
<trkpt lat="30.050195" lon="101.379736">
<time>2015-08-06T02:53:53Z</time></trkpt>
<trkpt lat="30.050285" lon="101.379646">
<time>2015-08-06T02:53:54Z</time></trkpt>
<trkpt lat="30.050355" lon="101.379596">
<time>2015-08-06T02:53:55Z</time></trkpt>
<trkpt lat="30.050445" lon="101.379526">
<time>2015-08-06T02:53:56Z</time></trkpt>
<trkpt lat="30.050515" lon="101.379496">
<time>2015-08-06T02:53:57Z</time></trkpt>
<trkpt lat="30.050585" lon="101.379456">
<time>2015-08-06T02:53:58Z</time></trkpt>
<trkpt lat="30.050765" lon="101.379406">
<time>2015-08-06T02:53:59Z</time></trkpt>
<trkpt lat="30.050845" lon="101.379376">
<time>2015-08-06T02:54:00Z</time></trkpt>
<trkpt lat="30.050895" lon="101.379336">
<time>2015-08-06T02:54:01Z</time></trkpt>
<trkpt lat="30.050926" lon="101.379306">
<time>2015-08-06T02:54:02Z</time></trkpt>
<trkpt lat="30.050946" lon="101.379286">
<time>2015-08-06T02:54:03Z</time></trkpt>
<trkpt lat="30.050976" lon="101.379247">
<time>2015-08-06T02:54:04Z</time></trkpt>
<trkpt lat="30.050996" lon="101.379197">
<time>2015-08-06T02:54:05Z</time></trkpt>
<trkpt lat="30.051016" lon="101.379137">
<time>2015-08-06T02:54:06Z</time></trkpt>
<trkpt lat="30.051026" lon="101.379067">
<time>2015-08-06T02:54:07Z</time></trkpt>
<trkpt lat="30.051036" lon="101.378997">
<time>2015-08-06T02:54:08Z</time></trkpt>
<trkpt lat="30.051096" lon="101.378418">
<time>2015-08-06T02:54:09Z</time></trkpt>
<trkpt lat="30.051147" lon="101.377738">
<time>2015-08-06T02:54:10Z</time></trkpt>
<trkpt lat="30.051187" lon="101.377119">
<time>2015-08-06T02:54:11Z</time></trkpt>
<trkpt lat="30.051178" lon="101.37687">
<time>2015-08-06T02:54:12Z</time></trkpt>
<trkpt lat="30.051168" lon="101.3768">
<time>2015-08-06T02:54:13Z</time></trkpt>
<trkpt lat="30.051138" lon="101.37671">
<time>2015-08-06T02:54:14Z</time></trkpt>
<trkpt lat="30.051108" lon="101.37666">
<time>2015-08-06T02:54:15Z</time></trkpt>
<trkpt lat="30.051068" lon="101.37661">
<time>2015-08-06T02:54:16Z</time></trkpt>
<trkpt lat="30.051018" lon="101.37656">
<time>2015-08-06T02:54:17Z</time></trkpt>
<trkpt lat="30.050948" lon="101.37651">
<time>2015-08-06T02:54:18Z</time></trkpt>
<trkpt lat="30.050748" lon="101.37643">
<time>2015-08-06T02:54:19Z</time></trkpt>
<trkpt lat="30.050508" lon="101.37635">
<time>2015-08-06T02:54:20Z</time></trkpt>
<trkpt lat="30.050298" lon="101.37629">
<time>2015-08-06T02:54:21Z</time></trkpt>
<trkpt lat="30.050168" lon="101.376261">
<time>2015-08-06T02:54:22Z</time></trkpt>
<trkpt lat="30.050038" lon="101.376241">
<time>2015-08-06T02:54:23Z</time></trkpt>
<trkpt lat="30.049918" lon="101.376231">
<time>2015-08-06T02:54:24Z</time></trkpt>
<trkpt lat="30.049838" lon="101.376221">
<time>2015-08-06T02:54:25Z</time></trkpt>
<trkpt lat="30.049408" lon="101.376241">
<time>2015-08-06T02:54:26Z</time></trkpt>
<trkpt lat="30.048998" lon="101.376261">
<time>2015-08-06T02:54:27Z</time></trkpt>
<trkpt lat="30.048898" lon="101.376261">
<time>2015-08-06T02:54:28Z</time></trkpt>
<trkpt lat="30.048748" lon="101.376251">
<time>2015-08-06T02:54:29Z</time></trkpt>
<trkpt lat="30.048588" lon="101.376221">
<time>2015-08-06T02:54:30Z</time></trkpt>
<trkpt lat="30.048368" lon="101.376171">
<time>2015-08-06T02:54:31Z</time></trkpt>
<trkpt lat="30.048278" lon="101.376161">
<time>2015-08-06T02:54:32Z</time></trkpt>
<trkpt lat="30.048188" lon="101.376161">
<time>2015-08-06T02:54:33Z</time></trkpt>
<trkpt lat="30.048138" lon="101.376161">
<time>2015-08-06T02:54:34Z</time></trkpt>
<trkpt lat="30.048028" lon="101.376181">
<time>2015-08-06T02:54:35Z</time></trkpt>
<trkpt lat="30.047928" lon="101.376191">
<time>2015-08-06T02:54:36Z</time></trkpt>
<trkpt lat="30.047488" lon="101.376301">
<time>2015-08-06T02:54:37Z</time></trkpt>
<trkpt lat="30.047428" lon="101.376311">
<time>2015-08-06T02:54:38Z</time></trkpt>
<trkpt lat="30.047398" lon="101.376311">
<time>2015-08-06T02:54:39Z</time></trkpt>
<trkpt lat="30.047378" lon="101.376311">
<time>2015-08-06T02:54:40Z</time></trkpt>
<trkpt lat="30.047348" lon="101.376311">
<time>2015-08-06T02:54:41Z</time></trkpt>
<trkpt lat="30.047328" lon="101.376301">
<time>2015-08-06T02:54:42Z</time></trkpt>
<trkpt lat="30.047298" lon="101.376281">
<time>2015-08-06T02:54:43Z</time></trkpt>
<trkpt lat="30.047278" lon="101.376261">
<time>2015-08-06T02:54:44Z</time></trkpt>
<trkpt lat="30.047258" lon="101.376241">
<time>2015-08-06T02:54:45Z</time></trkpt>
<trkpt lat="30.047248" lon="101.376221">
<time>2015-08-06T02:54:46Z</time></trkpt>
<trkpt lat="30.047238" lon="101.376191">
<time>2015-08-06T02:54:47Z</time></trkpt>
<trkpt lat="30.047238" lon="101.376151">
<time>2015-08-06T02:54:48Z</time></trkpt>
<trkpt lat="30.047238" lon="101.376121">
<time>2015-08-06T02:54:49Z</time></trkpt>
<trkpt lat="30.047248" lon="101.376101">
<time>2015-08-06T02:54:50Z</time></trkpt>
<trkpt lat="30.047258" lon="101.376061">
<time>2015-08-06T02:54:51Z</time></trkpt>
<trkpt lat="30.047278" lon="101.376031">
<time>2015-08-06T02:54:52Z</time></trkpt>
<trkpt lat="30.047289" lon="101.376011">
<time>2015-08-06T02:54:53Z</time></trkpt>
<trkpt lat="30.047309" lon="101.375991">
<time>2015-08-06T02:54:54Z</time></trkpt>
<trkpt lat="30.047449" lon="101.375861">
<time>2015-08-06T02:54:55Z</time></trkpt>
<trkpt lat="30.047539" lon="101.375781">
<time>2015-08-06T02:54:56Z</time></trkpt>
<trkpt lat="30.047669" lon="101.375671">
<time>2015-08-06T02:54:57Z</time></trkpt>
<trkpt lat="30.047789" lon="101.375602">
<time>2015-08-06T02:54:58Z</time></trkpt>
<trkpt lat="30.047889" lon="101.375552">
<time>2015-08-06T02:54:59Z</time></trkpt>
<trkpt lat="30.048039" lon="101.375502">
<time>2015-08-06T02:55:00Z</time></trkpt>
<trkpt lat="30.048179" lon="101.375472">
<time>2015-08-06T02:55:01Z</time></trkpt>
<trkpt lat="30.048299" lon="101.375462">
<time>2015-08-06T02:55:02Z</time></trkpt>
<trkpt lat="30.048619" lon="101.375432">
<time>2015-08-06T02:55:03Z</time></trkpt>
<trkpt lat="30.049219" lon="101.375372">
<time>2015-08-06T02:55:04Z</time></trkpt>
<trkpt lat="30.049719" lon="101.375312">
<time>2015-08-06T02:55:05Z</time></trkpt>
<trkpt lat="30.049819" lon="101.375302">
<time>2015-08-06T02:55:06Z</time></trkpt>
<trkpt lat="30.049869" lon="101.375282">
<time>2015-08-06T02:55:07Z</time></trkpt>
<trkpt lat="30.049909" lon="101.375272">
<time>2015-08-06T02:55:08Z</time></trkpt>
<trkpt lat="30.049939" lon="101.375252">
<time>2015-08-06T02:55:09Z</time></trkpt>
<trkpt lat="30.049969" lon="101.375232">
<time>2015-08-06T02:55:10Z</time></trkpt>
<trkpt lat="30.049989" lon="101.375212">
<time>2015-08-06T02:55:11Z</time></trkpt>
<trkpt lat="30.050009" lon="101.375182">
<time>2015-08-06T02:55:12Z</time></trkpt>
<trkpt lat="30.050029" lon="101.375142">
<time>2015-08-06T02:55:13Z</time></trkpt>
<trkpt lat="30.050039" lon="101.375112">
<time>2015-08-06T02:55:14Z</time></trkpt>
<trkpt lat="30.050049" lon="101.375082">
<time>2015-08-06T02:55:15Z</time></trkpt>
<trkpt lat="30.05006" lon="101.375042">
<time>2015-08-06T02:55:16Z</time></trkpt>
<trkpt lat="30.05006" lon="101.375012">
<time>2015-08-06T02:55:17Z</time></trkpt>
<trkpt lat="30.05011" lon="101.374653">
<time>2015-08-06T02:55:18Z</time></trkpt>
<trkpt lat="30.050251" lon="101.373534">
<time>2015-08-06T02:55:19Z</time></trkpt>
<trkpt lat="30.050403" lon="101.372137">
<time>2015-08-06T02:55:20Z</time></trkpt>
<trkpt lat="30.050574" lon="101.370988">
<time>2015-08-06T02:55:21Z</time></trkpt>
<trkpt lat="30.050765" lon="101.37009">
<time>2015-08-06T02:55:22Z</time></trkpt>
<trkpt lat="30.051126" lon="101.369042">
<time>2015-08-06T02:55:23Z</time></trkpt>
<trkpt lat="30.051507" lon="101.368073">
<time>2015-08-06T02:55:24Z</time></trkpt>
<trkpt lat="30.051598" lon="101.367864">
<time>2015-08-06T02:55:25Z</time></trkpt>
<trkpt lat="30.051648" lon="101.367784">
<time>2015-08-06T02:55:26Z</time></trkpt>
<trkpt lat="30.051718" lon="101.367704">
<time>2015-08-06T02:55:27Z</time></trkpt>
<trkpt lat="30.051828" lon="101.367614">
<time>2015-08-06T02:55:28Z</time></trkpt>
<trkpt lat="30.051998" lon="101.367514">
<time>2015-08-06T02:55:29Z</time></trkpt>
<trkpt lat="30.052629" lon="101.367215">
<time>2015-08-06T02:55:30Z</time></trkpt>
<trkpt lat="30.052699" lon="101.367185">
<time>2015-08-06T02:55:31Z</time></trkpt>
<trkpt lat="30.053509" lon="101.366805">
<time>2015-08-06T02:55:32Z</time></trkpt>
<trkpt lat="30.053859" lon="101.366586">
<time>2015-08-06T02:55:33Z</time></trkpt>
<trkpt lat="30.05411" lon="101.366326">
<time>2015-08-06T02:55:34Z</time></trkpt>
<trkpt lat="30.05434" lon="101.365957">
<time>2015-08-06T02:55:35Z</time></trkpt>
<trkpt lat="30.054541" lon="101.365588">
<time>2015-08-06T02:55:36Z</time></trkpt>
<trkpt lat="30.054841" lon="101.365029">
<time>2015-08-06T02:55:37Z</time></trkpt>
<trkpt lat="30.054972" lon="101.364829">
<time>2015-08-06T02:55:38Z</time></trkpt>
<trkpt lat="30.055122" lon="101.364699">
<time>2015-08-06T02:55:39Z</time></trkpt>
<trkpt lat="30.055322" lon="101.364569">
<time>2015-08-06T02:55:40Z</time></trkpt>
<trkpt lat="30.055552" lon="101.364489">
<time>2015-08-06T02:55:41Z</time></trkpt>
<trkpt lat="30.056042" lon="101.3643">
<time>2015-08-06T02:55:42Z</time></trkpt>
<trkpt lat="30.056263" lon="101.36416">
<time>2015-08-06T02:55:43Z</time></trkpt>
<trkpt lat="30.056433" lon="101.36395">
<time>2015-08-06T02:55:44Z</time></trkpt>
<trkpt lat="30.056754" lon="101.363461">
<time>2015-08-06T02:55:45Z</time></trkpt>
<trkpt lat="30.057054" lon="101.362922">
<time>2015-08-06T02:55:46Z</time></trkpt>
<trkpt lat="30.057355" lon="101.362583">
<time>2015-08-06T02:55:47Z</time></trkpt>
<trkpt lat="30.057615" lon="101.362184">
<time>2015-08-06T02:55:48Z</time></trkpt>
<trkpt lat="30.057676" lon="101.362004">
<time>2015-08-06T02:55:49Z</time></trkpt>
<trkpt lat="30.057716" lon="101.361844">
<time>2015-08-06T02:55:50Z</time></trkpt>
<trkpt lat="30.057716" lon="101.361695">
<time>2015-08-06T02:55:51Z</time></trkpt>
<trkpt lat="30.057706" lon="101.361545">
<time>2015-08-06T02:55:52Z</time></trkpt>
<trkpt lat="30.057677" lon="101.361365">
<time>2015-08-06T02:55:53Z</time></trkpt>
<trkpt lat="30.057607" lon="101.361156">
<time>2015-08-06T02:55:54Z</time></trkpt>
<trkpt lat="30.057517" lon="101.360936">
<time>2015-08-06T02:55:55Z</time></trkpt>
<trkpt lat="30.057377" lon="101.360717">
<time>2015-08-06T02:55:56Z</time></trkpt>
<trkpt lat="30.057218" lon="101.360617">
<time>2015-08-06T02:55:57Z</time></trkpt>
<trkpt lat="30.056548" lon="101.360178">
<time>2015-08-06T02:55:58Z</time></trkpt>
<trkpt lat="30.056428" lon="101.360078">
<time>2015-08-06T02:55:59Z</time></trkpt>
<trkpt lat="30.056349" lon="101.359968">
<time>2015-08-06T02:56:00Z</time></trkpt>
<trkpt lat="30.056279" lon="101.359818">
<time>2015-08-06T02:56:01Z</time></trkpt>
<trkpt lat="30.056259" lon="101.359669">
<time>2015-08-06T02:56:02Z</time></trkpt>
<trkpt lat="30.056259" lon="101.359569">
<time>2015-08-06T02:56:03Z</time></trkpt>
<trkpt lat="30.056289" lon="101.359459">
<time>2015-08-06T02:56:04Z</time></trkpt>
<trkpt lat="30.056329" lon="101.359389">
<time>2015-08-06T02:56:05Z</time></trkpt>
<trkpt lat="30.056379" lon="101.359329">
<time>2015-08-06T02:56:06Z</time></trkpt>
<trkpt lat="30.05648" lon="101.35925">
<time>2015-08-06T02:56:07Z</time></trkpt>
<trkpt lat="30.05661" lon="101.35919">
<time>2015-08-06T02:56:08Z</time></trkpt>
<trkpt lat="30.05689" lon="101.35904">
<time>2015-08-06T02:56:09Z</time></trkpt>
<trkpt lat="30.05699" lon="101.35896">
<time>2015-08-06T02:56:10Z</time></trkpt>
<trkpt lat="30.05706" lon="101.35889">
<time>2015-08-06T02:56:11Z</time></trkpt>
<trkpt lat="30.057231" lon="101.358651">
<time>2015-08-06T02:56:12Z</time></trkpt>
<trkpt lat="30.057441" lon="101.358192">
<time>2015-08-06T02:56:13Z</time></trkpt>
<trkpt lat="30.057602" lon="101.357832">
<time>2015-08-06T02:56:14Z</time></trkpt>
<trkpt lat="30.057752" lon="101.357623">
<time>2015-08-06T02:56:15Z</time></trkpt>
<trkpt lat="30.057832" lon="101.357553">
<time>2015-08-06T02:56:16Z</time></trkpt>
<trkpt lat="30.057942" lon="101.357453">
<time>2015-08-06T02:56:17Z</time></trkpt>
<trkpt lat="30.058042" lon="101.357403">
<time>2015-08-06T02:56:18Z</time></trkpt>
<trkpt lat="30.058112" lon="101.357373">
<time>2015-08-06T02:56:19Z</time></trkpt>
<trkpt lat="30.059383" lon="101.356924">
<time>2015-08-06T02:56:20Z</time></trkpt>
<trkpt lat="30.060984" lon="101.356305">
<time>2015-08-06T02:56:21Z</time></trkpt>
<trkpt lat="30.061535" lon="101.355996">
<time>2015-08-06T02:56:22Z</time></trkpt>
<trkpt lat="30.061895" lon="101.355797">
<time>2015-08-06T02:56:23Z</time></trkpt>
<trkpt lat="30.062065" lon="101.355687">
<time>2015-08-06T02:56:24Z</time></trkpt>
<trkpt lat="30.062195" lon="101.355567">
<time>2015-08-06T02:56:25Z</time></trkpt>
<trkpt lat="30.062275" lon="101.355457">
<time>2015-08-06T02:56:26Z</time></trkpt>
<trkpt lat="30.062346" lon="101.355337">
<time>2015-08-06T02:56:27Z</time></trkpt>
<trkpt lat="30.062386" lon="101.355218">
<time>2015-08-06T02:56:28Z</time></trkpt>
<trkpt lat="30.062426" lon="101.355078">
<time>2015-08-06T02:56:29Z</time></trkpt>
<trkpt lat="30.062456" lon="101.354878">
<time>2015-08-06T02:56:30Z</time></trkpt>
<trkpt lat="30.062518" lon="101.353901">
<time>2015-08-06T02:56:31Z</time></trkpt>
<trkpt lat="30.062499" lon="101.353042">
<time>2015-08-06T02:56:32Z</time></trkpt>
<trkpt lat="30.062431" lon="101.352124">
<time>2015-08-06T02:56:33Z</time></trkpt>
<trkpt lat="30.062332" lon="101.351456">
<time>2015-08-06T02:56:34Z</time></trkpt>
<trkpt lat="30.062262" lon="101.351296">
<time>2015-08-06T02:56:35Z</time></trkpt>
<trkpt lat="30.062212" lon="101.351197">
<time>2015-08-06T02:56:36Z</time></trkpt>
<trkpt lat="30.062113" lon="101.351027">
<time>2015-08-06T02:56:37Z</time></trkpt>
<trkpt lat="30.061953" lon="101.350807">
<time>2015-08-06T02:56:38Z</time></trkpt>
<trkpt lat="30.061833" lon="101.350698">
<time>2015-08-06T02:56:39Z</time></trkpt>
<trkpt lat="30.061683" lon="101.350588">
<time>2015-08-06T02:56:40Z</time></trkpt>
<trkpt lat="30.061284" lon="101.350428">
<time>2015-08-06T02:56:41Z</time></trkpt>
<trkpt lat="30.060364" lon="101.350179">
<time>2015-08-06T02:56:42Z</time></trkpt>
<trkpt lat="30.060244" lon="101.350139">
<time>2015-08-06T02:56:43Z</time></trkpt>
<trkpt lat="30.060154" lon="101.350089">
<time>2015-08-06T02:56:44Z</time></trkpt>
<trkpt lat="30.060114" lon="101.350049">
<time>2015-08-06T02:56:45Z</time></trkpt>
<trkpt lat="30.060074" lon="101.349999">
<time>2015-08-06T02:56:46Z</time></trkpt>
<trkpt lat="30.060055" lon="101.349939">
<time>2015-08-06T02:56:47Z</time></trkpt>
<trkpt lat="30.060045" lon="101.34988">
<time>2015-08-06T02:56:48Z</time></trkpt>
<trkpt lat="30.060045" lon="101.34981">
<time>2015-08-06T02:56:49Z</time></trkpt>
<trkpt lat="30.060055" lon="101.34974">
<time>2015-08-06T02:56:50Z</time></trkpt>
<trkpt lat="30.060115" lon="101.34964">
<time>2015-08-06T02:56:51Z</time></trkpt>
<trkpt lat="30.060255" lon="101.349461">
<time>2015-08-06T02:56:52Z</time></trkpt>
<trkpt lat="30.060566" lon="101.349151">
<time>2015-08-06T02:56:53Z</time></trkpt>
<trkpt lat="30.061037" lon="101.348772">
<time>2015-08-06T02:56:54Z</time></trkpt>
<trkpt lat="30.061397" lon="101.348463">
<time>2015-08-06T02:56:55Z</time></trkpt>
<trkpt lat="30.061507" lon="101.348333">
<time>2015-08-06T02:56:56Z</time></trkpt>
<trkpt lat="30.061678" lon="101.348054">
<time>2015-08-06T02:56:57Z</time></trkpt>
<trkpt lat="30.061748" lon="101.347864">
<time>2015-08-06T02:56:58Z</time></trkpt>
<trkpt lat="30.061808" lon="101.347645">
<time>2015-08-06T02:56:59Z</time></trkpt>
<trkpt lat="30.061809" lon="101.347375">
<time>2015-08-06T02:57:00Z</time></trkpt>
<trkpt lat="30.06175" lon="101.346856">
<time>2015-08-06T02:57:01Z</time></trkpt>
<trkpt lat="30.061661" lon="101.346417">
<time>2015-08-06T02:57:02Z</time></trkpt>
<trkpt lat="30.061292" lon="101.345559">
<time>2015-08-06T02:57:03Z</time></trkpt>
<trkpt lat="30.060953" lon="101.344961">
<time>2015-08-06T02:57:04Z</time></trkpt>
<trkpt lat="30.060724" lon="101.344721">
<time>2015-08-06T02:57:05Z</time></trkpt>
<trkpt lat="30.060494" lon="101.344542">
<time>2015-08-06T02:57:06Z</time></trkpt>
<trkpt lat="30.060094" lon="101.344352">
<time>2015-08-06T02:57:07Z</time></trkpt>
<trkpt lat="30.059725" lon="101.344133">
<time>2015-08-06T02:57:08Z</time></trkpt>
<trkpt lat="30.059505" lon="101.343943">
<time>2015-08-06T02:57:09Z</time></trkpt>
<trkpt lat="30.059156" lon="101.343544">
<time>2015-08-06T02:57:10Z</time></trkpt>
<trkpt lat="30.058667" lon="101.343006">
<time>2015-08-06T02:57:11Z</time></trkpt>
<trkpt lat="30.058557" lon="101.342866">
<time>2015-08-06T02:57:12Z</time></trkpt>
<trkpt lat="30.058447" lon="101.342657">
<time>2015-08-06T02:57:13Z</time></trkpt>
<trkpt lat="30.058388" lon="101.342397">
<time>2015-08-06T02:57:14Z</time></trkpt>
<trkpt lat="30.058338" lon="101.342098">
<time>2015-08-06T02:57:15Z</time></trkpt>
<trkpt lat="30.058299" lon="101.341639">
<time>2015-08-06T02:57:16Z</time></trkpt>
<trkpt lat="30.05834" lon="101.3413">
<time>2015-08-06T02:57:17Z</time></trkpt>
<trkpt lat="30.058521" lon="101.340741">
<time>2015-08-06T02:57:18Z</time></trkpt>
<trkpt lat="30.058722" lon="101.340212">
<time>2015-08-06T02:57:19Z</time></trkpt>
<trkpt lat="30.058832" lon="101.340013">
<time>2015-08-06T02:57:20Z</time></trkpt>
<trkpt lat="30.058872" lon="101.339963">
<time>2015-08-06T02:57:21Z</time></trkpt>
<trkpt lat="30.058922" lon="101.339933">
<time>2015-08-06T02:57:22Z</time></trkpt>
<trkpt lat="30.058992" lon="101.339903">
<time>2015-08-06T02:57:23Z</time></trkpt>
<trkpt lat="30.059092" lon="101.339873">
<time>2015-08-06T02:57:24Z</time></trkpt>
<trkpt lat="30.059432" lon="101.339863">
<time>2015-08-06T02:57:25Z</time></trkpt>
<trkpt lat="30.059752" lon="101.339843">
<time>2015-08-06T02:57:26Z</time></trkpt>
<trkpt lat="30.059893" lon="101.339823">
<time>2015-08-06T02:57:27Z</time></trkpt>
<trkpt lat="30.059973" lon="101.339783">
<time>2015-08-06T02:57:28Z</time></trkpt>
<trkpt lat="30.060033" lon="101.339744">
<time>2015-08-06T02:57:29Z</time></trkpt>
<trkpt lat="30.060173" lon="101.339604">
<time>2015-08-06T02:57:30Z</time></trkpt>
<trkpt lat="30.060273" lon="101.339444">
<time>2015-08-06T02:57:31Z</time></trkpt>
<trkpt lat="30.060303" lon="101.339364">
<time>2015-08-06T02:57:32Z</time></trkpt>
<trkpt lat="30.060324" lon="101.339275">
<time>2015-08-06T02:57:33Z</time></trkpt>
<trkpt lat="30.060324" lon="101.339215">
<time>2015-08-06T02:57:34Z</time></trkpt>
<trkpt lat="30.060314" lon="101.339155">
<time>2015-08-06T02:57:35Z</time></trkpt>
<trkpt lat="30.060304" lon="101.339095">
<time>2015-08-06T02:57:36Z</time></trkpt>
<trkpt lat="30.060274" lon="101.339015">
<time>2015-08-06T02:57:37Z</time></trkpt>
<trkpt lat="30.060114" lon="101.338756">
<time>2015-08-06T02:57:38Z</time></trkpt>
<trkpt lat="30.060005" lon="101.338517">
<time>2015-08-06T02:57:39Z</time></trkpt>
<trkpt lat="30.059965" lon="101.338387">
<time>2015-08-06T02:57:40Z</time></trkpt>
<trkpt lat="30.059935" lon="101.338267">
<time>2015-08-06T02:57:41Z</time></trkpt>
<trkpt lat="30.059926" lon="101.338167">
<time>2015-08-06T02:57:42Z</time></trkpt>
<trkpt lat="30.059936" lon="101.338018">
<time>2015-08-06T02:57:43Z</time></trkpt>
<trkpt lat="30.059926" lon="101.337928">
<time>2015-08-06T02:57:44Z</time></trkpt>
<trkpt lat="30.059936" lon="101.337798">
<time>2015-08-06T02:57:45Z</time></trkpt>
<trkpt lat="30.059977" lon="101.337559">
<time>2015-08-06T02:57:46Z</time></trkpt>
<trkpt lat="30.060087" lon="101.33723">
<time>2015-08-06T02:57:47Z</time></trkpt>
<trkpt lat="30.060398" lon="101.336711">
<time>2015-08-06T02:57:48Z</time></trkpt>
<trkpt lat="30.06092" lon="101.335933">
<time>2015-08-06T02:57:49Z</time></trkpt>
<trkpt lat="30.061501" lon="101.335095">
<time>2015-08-06T02:57:50Z</time></trkpt>
<trkpt lat="30.061803" lon="101.334457">
<time>2015-08-06T02:57:51Z</time></trkpt>
<trkpt lat="30.062043" lon="101.334048">
<time>2015-08-06T02:57:52Z</time></trkpt>
<trkpt lat="30.062284" lon="101.333778">
<time>2015-08-06T02:57:53Z</time></trkpt>
<trkpt lat="30.062404" lon="101.333698">
<time>2015-08-06T02:57:54Z</time></trkpt>
<trkpt lat="30.062464" lon="101.333669">
<time>2015-08-06T02:57:55Z</time></trkpt>
<trkpt lat="30.062594" lon="101.333649">
<time>2015-08-06T02:57:56Z</time></trkpt>
<trkpt lat="30.062704" lon="101.333669">
<time>2015-08-06T02:57:57Z</time></trkpt>
<trkpt lat="30.062794" lon="101.333718">
<time>2015-08-06T02:57:58Z</time></trkpt>
<trkpt lat="30.062864" lon="101.333758">
<time>2015-08-06T02:57:59Z</time></trkpt>
<trkpt lat="30.063024" lon="101.333888">
<time>2015-08-06T02:58:00Z</time></trkpt>
<trkpt lat="30.063114" lon="101.333958">
<time>2015-08-06T02:58:01Z</time></trkpt>
<trkpt lat="30.063203" lon="101.333998">
<time>2015-08-06T02:58:02Z</time></trkpt>
<trkpt lat="30.063273" lon="101.334008">
<time>2015-08-06T02:58:03Z</time></trkpt>
<trkpt lat="30.063323" lon="101.334008">
<time>2015-08-06T02:58:04Z</time></trkpt>
<trkpt lat="30.063383" lon="101.333988">
<time>2015-08-06T02:58:05Z</time></trkpt>
<trkpt lat="30.063434" lon="101.333958">
<time>2015-08-06T02:58:06Z</time></trkpt>
<trkpt lat="30.063494" lon="101.333908">
<time>2015-08-06T02:58:07Z</time></trkpt>
<trkpt lat="30.063654" lon="101.333738">
<time>2015-08-06T02:58:08Z</time></trkpt>
<trkpt lat="30.064185" lon="101.33303">
<time>2015-08-06T02:58:09Z</time></trkpt>
<trkpt lat="30.065208" lon="101.331693">
<time>2015-08-06T02:58:10Z</time></trkpt>
<trkpt lat="30.06587" lon="101.330666">
<time>2015-08-06T02:58:11Z</time></trkpt>
<trkpt lat="30.066131" lon="101.330227">
<time>2015-08-06T02:58:12Z</time></trkpt>
<trkpt lat="30.066271" lon="101.329848">
<time>2015-08-06T02:58:13Z</time></trkpt>
<trkpt lat="30.066392" lon="101.329289">
<time>2015-08-06T02:58:14Z</time></trkpt>
<trkpt lat="30.066413" lon="101.32892">
<time>2015-08-06T02:58:15Z</time></trkpt>
<trkpt lat="30.066314" lon="101.328571">
<time>2015-08-06T02:58:16Z</time></trkpt>
<trkpt lat="30.066065" lon="101.327783">
<time>2015-08-06T02:58:17Z</time></trkpt>
<trkpt lat="30.065966" lon="101.327285">
<time>2015-08-06T02:58:18Z</time></trkpt>
<trkpt lat="30.065957" lon="101.327035">
<time>2015-08-06T02:58:19Z</time></trkpt>
<trkpt lat="30.066018" lon="101.326646">
<time>2015-08-06T02:58:20Z</time></trkpt>
<trkpt lat="30.066149" lon="101.326048">
<time>2015-08-06T02:58:21Z</time></trkpt>
<trkpt lat="30.066229" lon="101.325768">
<time>2015-08-06T02:58:22Z</time></trkpt>
<trkpt lat="30.06633" lon="101.325579">
<time>2015-08-06T02:58:23Z</time></trkpt>
<trkpt lat="30.06654" lon="101.325349">
<time>2015-08-06T02:58:24Z</time></trkpt>
<trkpt lat="30.067011" lon="101.324881">
<time>2015-08-06T02:58:25Z</time></trkpt>
<trkpt lat="30.067211" lon="101.324601">
<time>2015-08-06T02:58:26Z</time></trkpt>
<trkpt lat="30.067532" lon="101.324292">
<time>2015-08-06T02:58:27Z</time></trkpt>
<trkpt lat="30.067903" lon="101.323933">
<time>2015-08-06T02:58:28Z</time></trkpt>
<trkpt lat="30.068294" lon="101.323354">
<time>2015-08-06T02:58:29Z</time></trkpt>
<trkpt lat="30.068495" lon="101.322916">
<time>2015-08-06T02:58:30Z</time></trkpt>
<trkpt lat="30.068515" lon="101.322816">
<time>2015-08-06T02:58:31Z</time></trkpt>
<trkpt lat="30.068525" lon="101.322716">
<time>2015-08-06T02:58:32Z</time></trkpt>
<trkpt lat="30.068515" lon="101.322616">
<time>2015-08-06T02:58:33Z</time></trkpt>
<trkpt lat="30.068475" lon="101.322507">
<time>2015-08-06T02:58:34Z</time></trkpt>
<trkpt lat="30.068356" lon="101.322347">
<time>2015-08-06T02:58:35Z</time></trkpt>
<trkpt lat="30.067897" lon="101.321948">
<time>2015-08-06T02:58:36Z</time></trkpt>
<trkpt lat="30.067647" lon="101.321639">
<time>2015-08-06T02:58:37Z</time></trkpt>
<trkpt lat="30.067298" lon="101.3213">
<time>2015-08-06T02:58:38Z</time></trkpt>
<trkpt lat="30.067158" lon="101.32113">
<time>2015-08-06T02:58:39Z</time></trkpt>
<trkpt lat="30.066969" lon="101.320861">
<time>2015-08-06T02:58:40Z</time></trkpt>
<trkpt lat="30.066909" lon="101.320751">
<time>2015-08-06T02:58:41Z</time></trkpt>
<trkpt lat="30.066859" lon="101.320612">
<time>2015-08-06T02:58:42Z</time></trkpt>
<trkpt lat="30.066849" lon="101.320492">
<time>2015-08-06T02:58:43Z</time></trkpt>
<trkpt lat="30.06686" lon="101.320382">
<time>2015-08-06T02:58:44Z</time></trkpt>
<trkpt lat="30.06691" lon="101.320252">
<time>2015-08-06T02:58:45Z</time></trkpt>
<trkpt lat="30.067231" lon="101.319694">
<time>2015-08-06T02:58:46Z</time></trkpt>
<trkpt lat="30.067592" lon="101.319145">
<time>2015-08-06T02:58:47Z</time></trkpt>
<trkpt lat="30.067913" lon="101.318786">
<time>2015-08-06T02:58:48Z</time></trkpt>
<trkpt lat="30.068063" lon="101.318557">
<time>2015-08-06T02:58:49Z</time></trkpt>
<trkpt lat="30.068123" lon="101.318407">
<time>2015-08-06T02:58:50Z</time></trkpt>
<trkpt lat="30.068154" lon="101.318277">
<time>2015-08-06T02:58:51Z</time></trkpt>
<trkpt lat="30.068154" lon="101.318237">
<time>2015-08-06T02:58:52Z</time></trkpt>
<trkpt lat="30.068154" lon="101.318178">
<time>2015-08-06T02:58:53Z</time></trkpt>
<trkpt lat="30.068134" lon="101.318138">
<time>2015-08-06T02:58:54Z</time></trkpt>
<trkpt lat="30.068094" lon="101.318078">
<time>2015-08-06T02:58:55Z</time></trkpt>
<trkpt lat="30.067994" lon="101.317978">
<time>2015-08-06T02:58:56Z</time></trkpt>
<trkpt lat="30.067495" lon="101.317599">
<time>2015-08-06T02:58:57Z</time></trkpt>
<trkpt lat="30.067205" lon="101.31744">
<time>2015-08-06T02:58:58Z</time></trkpt>
<trkpt lat="30.066835" lon="101.31729">
<time>2015-08-06T02:58:59Z</time></trkpt>
<trkpt lat="30.066456" lon="101.31722">
<time>2015-08-06T02:59:00Z</time></trkpt>
<trkpt lat="30.066266" lon="101.31721">
<time>2015-08-06T02:59:01Z</time></trkpt>
<trkpt lat="30.065966" lon="101.31721">
<time>2015-08-06T02:59:02Z</time></trkpt>
<trkpt lat="30.065386" lon="101.3171">
<time>2015-08-06T02:59:03Z</time></trkpt>
<trkpt lat="30.064976" lon="101.317041">
<time>2015-08-06T02:59:04Z</time></trkpt>
<trkpt lat="30.064516" lon="101.317051">
<time>2015-08-06T02:59:05Z</time></trkpt>
<trkpt lat="30.064356" lon="101.317051">
<time>2015-08-06T02:59:06Z</time></trkpt>
<trkpt lat="30.064246" lon="101.316991">
<time>2015-08-06T02:59:07Z</time></trkpt>
<trkpt lat="30.064146" lon="101.316871">
<time>2015-08-06T02:59:08Z</time></trkpt>
<trkpt lat="30.063887" lon="101.316382">
<time>2015-08-06T02:59:09Z</time></trkpt>
<trkpt lat="30.063419" lon="101.315604">
<time>2015-08-06T02:59:10Z</time></trkpt>
<trkpt lat="30.063309" lon="101.315345">
<time>2015-08-06T02:59:11Z</time></trkpt>
<trkpt lat="30.063289" lon="101.315185">
<time>2015-08-06T02:59:12Z</time></trkpt>
<trkpt lat="30.06331" lon="101.315026">
<time>2015-08-06T02:59:13Z</time></trkpt>
<trkpt lat="30.06335" lon="101.314896">
<time>2015-08-06T02:59:14Z</time></trkpt>
<trkpt lat="30.063621" lon="101.314427">
<time>2015-08-06T02:59:15Z</time></trkpt>
<trkpt lat="30.063921" lon="101.314008">
<time>2015-08-06T02:59:16Z</time></trkpt>
<trkpt lat="30.064042" lon="101.313739">
<time>2015-08-06T02:59:17Z</time></trkpt>
<trkpt lat="30.064143" lon="101.31341">
<time>2015-08-06T02:59:18Z</time></trkpt>
<trkpt lat="30.064173" lon="101.31315">
<time>2015-08-06T02:59:19Z</time></trkpt>
<trkpt lat="30.064184" lon="101.312632">
<time>2015-08-06T02:59:20Z</time></trkpt>
<trkpt lat="30.064145" lon="101.312083">
<time>2015-08-06T02:59:21Z</time></trkpt>
<trkpt lat="30.064105" lon="101.311894">
<time>2015-08-06T02:59:22Z</time></trkpt>
<trkpt lat="30.063996" lon="101.311564">
<time>2015-08-06T02:59:23Z</time></trkpt>
<trkpt lat="30.063906" lon="101.311385">
<time>2015-08-06T02:59:24Z</time></trkpt>
<trkpt lat="30.063836" lon="101.311295">
<time>2015-08-06T02:59:25Z</time></trkpt>
<trkpt lat="30.063737" lon="101.311195">
<time>2015-08-06T02:59:26Z</time></trkpt>
<trkpt lat="30.063657" lon="101.311145">
<time>2015-08-06T02:59:27Z</time></trkpt>
<trkpt lat="30.063527" lon="101.311076">
<time>2015-08-06T02:59:28Z</time></trkpt>
<trkpt lat="30.063377" lon="101.311026">
<time>2015-08-06T02:59:29Z</time></trkpt>
<trkpt lat="30.062677" lon="101.310936">
<time>2015-08-06T02:59:30Z</time></trkpt>
<trkpt lat="30.061478" lon="101.310597">
<time>2015-08-06T02:59:31Z</time></trkpt>
<trkpt lat="30.061188" lon="101.310467">
<time>2015-08-06T02:59:32Z</time></trkpt>
<trkpt lat="30.061008" lon="101.310347">
<time>2015-08-06T02:59:33Z</time></trkpt>
<trkpt lat="30.060938" lon="101.310308">
<time>2015-08-06T02:59:34Z</time></trkpt>
<trkpt lat="30.060888" lon="101.310278">
<time>2015-08-06T02:59:35Z</time></trkpt>
<trkpt lat="30.060868" lon="101.310278">
<time>2015-08-06T02:59:36Z</time></trkpt>
<trkpt lat="30.060838" lon="101.310278">
<time>2015-08-06T02:59:37Z</time></trkpt>
<trkpt lat="30.060818" lon="101.310288">
<time>2015-08-06T02:59:38Z</time></trkpt>
<trkpt lat="30.060798" lon="101.310288">
<time>2015-08-06T02:59:39Z</time></trkpt>
<trkpt lat="30.060778" lon="101.310308">
<time>2015-08-06T02:59:40Z</time></trkpt>
<trkpt lat="30.060768" lon="101.310327">
<time>2015-08-06T02:59:41Z</time></trkpt>
<trkpt lat="30.060768" lon="101.310357">
<time>2015-08-06T02:59:42Z</time></trkpt>
<trkpt lat="30.060758" lon="101.310377">
<time>2015-08-06T02:59:43Z</time></trkpt>
<trkpt lat="30.060768" lon="101.310397">
<time>2015-08-06T02:59:44Z</time></trkpt>
<trkpt lat="30.060768" lon="101.310427">
<time>2015-08-06T02:59:45Z</time></trkpt>
<trkpt lat="30.060778" lon="101.310447">
<time>2015-08-06T02:59:46Z</time></trkpt>
<trkpt lat="30.060798" lon="101.310477">
<time>2015-08-06T02:59:47Z</time></trkpt>
<trkpt lat="30.060848" lon="101.310527">
<time>2015-08-06T02:59:48Z</time></trkpt>
<trkpt lat="30.060918" lon="101.310567">
<time>2015-08-06T02:59:49Z</time></trkpt>
<trkpt lat="30.061407" lon="101.310746">
<time>2015-08-06T02:59:50Z</time></trkpt>
<trkpt lat="30.062696" lon="101.311345">
<time>2015-08-06T02:59:51Z</time></trkpt>
<trkpt lat="30.063096" lon="101.311534">
<time>2015-08-06T02:59:52Z</time></trkpt>
<trkpt lat="30.063166" lon="101.311574">
<time>2015-08-06T02:59:53Z</time></trkpt>
<trkpt lat="30.063216" lon="101.311634">
<time>2015-08-06T02:59:54Z</time></trkpt>
<trkpt lat="30.063256" lon="101.311684">
<time>2015-08-06T02:59:55Z</time></trkpt>
<trkpt lat="30.063306" lon="101.311784">
<time>2015-08-06T02:59:56Z</time></trkpt>
<trkpt lat="30.063345" lon="101.311913">
<time>2015-08-06T02:59:57Z</time></trkpt>
<trkpt lat="30.063355" lon="101.312033">
<time>2015-08-06T02:59:58Z</time></trkpt>
<trkpt lat="30.063345" lon="101.312213">
<time>2015-08-06T02:59:59Z</time></trkpt>
<trkpt lat="30.063304" lon="101.312412">
<time>2015-08-06T03:00:00Z</time></trkpt>
<trkpt lat="30.063174" lon="101.312841">
<time>2015-08-06T03:00:01Z</time></trkpt>
<trkpt lat="30.063013" lon="101.3133">
<time>2015-08-06T03:00:02Z</time></trkpt>
<trkpt lat="30.062732" lon="101.313669">
<time>2015-08-06T03:00:03Z</time></trkpt>
<trkpt lat="30.06203" lon="101.314537">
<time>2015-08-06T03:00:04Z</time></trkpt>
<trkpt lat="30.06182" lon="101.314886">
<time>2015-08-06T03:00:05Z</time></trkpt>
<trkpt lat="30.061749" lon="101.315116">
<time>2015-08-06T03:00:06Z</time></trkpt>
<trkpt lat="30.061769" lon="101.315285">
<time>2015-08-06T03:00:07Z</time></trkpt>
<trkpt lat="30.061809" lon="101.315544">
<time>2015-08-06T03:00:08Z</time></trkpt>
<trkpt lat="30.061978" lon="101.316123">
<time>2015-08-06T03:00:09Z</time></trkpt>
<trkpt lat="30.062196" lon="101.316682">
<time>2015-08-06T03:00:10Z</time></trkpt>
<trkpt lat="30.062345" lon="101.31738">
<time>2015-08-06T03:00:11Z</time></trkpt>
<trkpt lat="30.062424" lon="101.317909">
<time>2015-08-06T03:00:12Z</time></trkpt>
<trkpt lat="30.062583" lon="101.318288">
<time>2015-08-06T03:00:13Z</time></trkpt>
<trkpt lat="30.062733" lon="101.318497">
<time>2015-08-06T03:00:14Z</time></trkpt>
<trkpt lat="30.062893" lon="101.318687">
<time>2015-08-06T03:00:15Z</time></trkpt>
<trkpt lat="30.063102" lon="101.318866">
<time>2015-08-06T03:00:16Z</time></trkpt>
<trkpt lat="30.063262" lon="101.318976">
<time>2015-08-06T03:00:17Z</time></trkpt>
<trkpt lat="30.063362" lon="101.319036">
<time>2015-08-06T03:00:18Z</time></trkpt>
<trkpt lat="30.063452" lon="101.319066">
<time>2015-08-06T03:00:19Z</time></trkpt>
<trkpt lat="30.063602" lon="101.319086">
<time>2015-08-06T03:00:20Z</time></trkpt>
<trkpt lat="30.063882" lon="101.319066">
<time>2015-08-06T03:00:21Z</time></trkpt>
<trkpt lat="30.064172" lon="101.319085">
<time>2015-08-06T03:00:22Z</time></trkpt>
<trkpt lat="30.064292" lon="101.319085">
<time>2015-08-06T03:00:23Z</time></trkpt>
<trkpt lat="30.064362" lon="101.319095">
<time>2015-08-06T03:00:24Z</time></trkpt>
<trkpt lat="30.064412" lon="101.319115">
<time>2015-08-06T03:00:25Z</time></trkpt>
<trkpt lat="30.064442" lon="101.319135">
<time>2015-08-06T03:00:26Z</time></trkpt>
<trkpt lat="30.064462" lon="101.319155">
<time>2015-08-06T03:00:27Z</time></trkpt>
<trkpt lat="30.064492" lon="101.319205">
<time>2015-08-06T03:00:28Z</time></trkpt>
<trkpt lat="30.064502" lon="101.319245">
<time>2015-08-06T03:00:29Z</time></trkpt>
<trkpt lat="30.064512" lon="101.319275">
<time>2015-08-06T03:00:30Z</time></trkpt>
<trkpt lat="30.064512" lon="101.319315">
<time>2015-08-06T03:00:31Z</time></trkpt>
<trkpt lat="30.064501" lon="101.319375">
<time>2015-08-06T03:00:32Z</time></trkpt>
<trkpt lat="30.064481" lon="101.319455">
<time>2015-08-06T03:00:33Z</time></trkpt>
<trkpt lat="30.064461" lon="101.319514">
<time>2015-08-06T03:00:34Z</time></trkpt>
<trkpt lat="30.064381" lon="101.319644">
<time>2015-08-06T03:00:35Z</time></trkpt>
<trkpt lat="30.0641" lon="101.320073">
<time>2015-08-06T03:00:36Z</time></trkpt>
<trkpt lat="30.063849" lon="101.320412">
<time>2015-08-06T03:00:37Z</time></trkpt>
<trkpt lat="30.063619" lon="101.320652">
<time>2015-08-06T03:00:38Z</time></trkpt>
<trkpt lat="30.063529" lon="101.320741">
<time>2015-08-06T03:00:39Z</time></trkpt>
<trkpt lat="30.063479" lon="101.320801">
<time>2015-08-06T03:00:40Z</time></trkpt>
<trkpt lat="30.063459" lon="101.320841">
<time>2015-08-06T03:00:41Z</time></trkpt>
<trkpt lat="30.063439" lon="101.320891">
<time>2015-08-06T03:00:42Z</time></trkpt>
<trkpt lat="30.063428" lon="101.320941">
<time>2015-08-06T03:00:43Z</time></trkpt>
<trkpt lat="30.063428" lon="101.320991">
<time>2015-08-06T03:00:44Z</time></trkpt>
<trkpt lat="30.063438" lon="101.32107">
<time>2015-08-06T03:00:45Z</time></trkpt>
<trkpt lat="30.063468" lon="101.32114">
<time>2015-08-06T03:00:46Z</time></trkpt>
<trkpt lat="30.063488" lon="101.32118">
<time>2015-08-06T03:00:47Z</time></trkpt>
<trkpt lat="30.063538" lon="101.32123">
<time>2015-08-06T03:00:48Z</time></trkpt>
<trkpt lat="30.063638" lon="101.32131">
<time>2015-08-06T03:00:49Z</time></trkpt>
<trkpt lat="30.063838" lon="101.32142">
<time>2015-08-06T03:00:50Z</time></trkpt>
<trkpt lat="30.064237" lon="101.321579">
<time>2015-08-06T03:00:51Z</time></trkpt>
<trkpt lat="30.064527" lon="101.321659">
<time>2015-08-06T03:00:52Z</time></trkpt>
<trkpt lat="30.064607" lon="101.321679">
<time>2015-08-06T03:00:53Z</time></trkpt>
<trkpt lat="30.064677" lon="101.321709">
<time>2015-08-06T03:00:54Z</time></trkpt>
<trkpt lat="30.064697" lon="101.321729">
<time>2015-08-06T03:00:55Z</time></trkpt>
<trkpt lat="30.064717" lon="101.321749">
<time>2015-08-06T03:00:56Z</time></trkpt>
<trkpt lat="30.064727" lon="101.321779">
<time>2015-08-06T03:00:57Z</time></trkpt>
<trkpt lat="30.064727" lon="101.321809">
<time>2015-08-06T03:00:58Z</time></trkpt>
<trkpt lat="30.064727" lon="101.321868">
<time>2015-08-06T03:00:59Z</time></trkpt>
<trkpt lat="30.064717" lon="101.321898">
<time>2015-08-06T03:01:00Z</time></trkpt>
<trkpt lat="30.064697" lon="101.321928">
<time>2015-08-06T03:01:01Z</time></trkpt>
<trkpt lat="30.064676" lon="101.321978">
<time>2015-08-06T03:01:02Z</time></trkpt>
<trkpt lat="30.064646" lon="101.322028">
<time>2015-08-06T03:01:03Z</time></trkpt>
<trkpt lat="30.064626" lon="101.322048">
<time>2015-08-06T03:01:04Z</time></trkpt>
<trkpt lat="30.064526" lon="101.322128">
<time>2015-08-06T03:01:05Z</time></trkpt>
<trkpt lat="30.064286" lon="101.322237">
<time>2015-08-06T03:01:06Z</time></trkpt>
<trkpt lat="30.063275" lon="101.322617">
<time>2015-08-06T03:01:07Z</time></trkpt>
<trkpt lat="30.062985" lon="101.322716">
<time>2015-08-06T03:01:08Z</time></trkpt>
<trkpt lat="30.062755" lon="101.322796">
<time>2015-08-06T03:01:09Z</time></trkpt>
<trkpt lat="30.062665" lon="101.322836">
<time>2015-08-06T03:01:10Z</time></trkpt>
<trkpt lat="30.062595" lon="101.322896">
<time>2015-08-06T03:01:11Z</time></trkpt>
<trkpt lat="30.062555" lon="101.322946">
<time>2015-08-06T03:01:12Z</time></trkpt>
<trkpt lat="30.062524" lon="101.323006">
<time>2015-08-06T03:01:13Z</time></trkpt>
<trkpt lat="30.062494" lon="101.323175">
<time>2015-08-06T03:01:14Z</time></trkpt>
<trkpt lat="30.062464" lon="101.323425">
<time>2015-08-06T03:01:15Z</time></trkpt>
<trkpt lat="30.062423" lon="101.323544">
<time>2015-08-06T03:01:16Z</time></trkpt>
<trkpt lat="30.062273" lon="101.323784">
<time>2015-08-06T03:01:17Z</time></trkpt>
<trkpt lat="30.062042" lon="101.324093">
<time>2015-08-06T03:01:18Z</time></trkpt>
<trkpt lat="30.062002" lon="101.324183">
<time>2015-08-06T03:01:19Z</time></trkpt>
<trkpt lat="30.061962" lon="101.324282">
<time>2015-08-06T03:01:20Z</time></trkpt>
<trkpt lat="30.061952" lon="101.324432">
<time>2015-08-06T03:01:21Z</time></trkpt>
<trkpt lat="30.061942" lon="101.324552">
<time>2015-08-06T03:01:22Z</time></trkpt>
<trkpt lat="30.061951" lon="101.324761">
<time>2015-08-06T03:01:23Z</time></trkpt>
<trkpt lat="30.061961" lon="101.324921">
<time>2015-08-06T03:01:24Z</time></trkpt>
<trkpt lat="30.061941" lon="101.324981">
<time>2015-08-06T03:01:25Z</time></trkpt>
<trkpt lat="30.061901" lon="101.32505">
<time>2015-08-06T03:01:26Z</time></trkpt>
<trkpt lat="30.06176" lon="101.32518">
<time>2015-08-06T03:01:27Z</time></trkpt>
<trkpt lat="30.06164" lon="101.32537">
<time>2015-08-06T03:01:28Z</time></trkpt>
<trkpt lat="30.061489" lon="101.325689">
<time>2015-08-06T03:01:29Z</time></trkpt>
<trkpt lat="30.061429" lon="101.325918">
<time>2015-08-06T03:01:30Z</time></trkpt>
<trkpt lat="30.061419" lon="101.326018">
<time>2015-08-06T03:01:31Z</time></trkpt>
<trkpt lat="30.061419" lon="101.326108">
<time>2015-08-06T03:01:32Z</time></trkpt>
<trkpt lat="30.061448" lon="101.326247">
<time>2015-08-06T03:01:33Z</time></trkpt>
<trkpt lat="30.061508" lon="101.326417">
<time>2015-08-06T03:01:34Z</time></trkpt>
<trkpt lat="30.061558" lon="101.326537">
<time>2015-08-06T03:01:35Z</time></trkpt>
<trkpt lat="30.061578" lon="101.326596">
<time>2015-08-06T03:01:36Z</time></trkpt>
<trkpt lat="30.061587" lon="101.326676">
<time>2015-08-06T03:01:37Z</time></trkpt>
<trkpt lat="30.061577" lon="101.326736">
<time>2015-08-06T03:01:38Z</time></trkpt>
<trkpt lat="30.061557" lon="101.326796">
<time>2015-08-06T03:01:39Z</time></trkpt>
<trkpt lat="30.061537" lon="101.326846">
<time>2015-08-06T03:01:40Z</time></trkpt>
<trkpt lat="30.061497" lon="101.326886">
<time>2015-08-06T03:01:41Z</time></trkpt>
<trkpt lat="30.061457" lon="101.326916">
<time>2015-08-06T03:01:42Z</time></trkpt>
<trkpt lat="30.061407" lon="101.326956">
<time>2015-08-06T03:01:43Z</time></trkpt>
<trkpt lat="30.061297" lon="101.326985">
<time>2015-08-06T03:01:44Z</time></trkpt>
<trkpt lat="30.061057" lon="101.327015">
<time>2015-08-06T03:01:45Z</time></trkpt>
<trkpt lat="30.061007" lon="101.327025">
<time>2015-08-06T03:01:46Z</time></trkpt>
<trkpt lat="30.060927" lon="101.327065">
<time>2015-08-06T03:01:47Z</time></trkpt>
<trkpt lat="30.060837" lon="101.327135">
<time>2015-08-06T03:01:48Z</time></trkpt>
<trkpt lat="30.060696" lon="101.327295">
<time>2015-08-06T03:01:49Z</time></trkpt>
<trkpt lat="30.060285" lon="101.327764">
<time>2015-08-06T03:01:50Z</time></trkpt>
<trkpt lat="30.060075" lon="101.327963">
<time>2015-08-06T03:01:51Z</time></trkpt>
<trkpt lat="30.060015" lon="101.328003">
<time>2015-08-06T03:01:52Z</time></trkpt>
<trkpt lat="30.059975" lon="101.328013">
<time>2015-08-06T03:01:53Z</time></trkpt>
<trkpt lat="30.059945" lon="101.328023">
<time>2015-08-06T03:01:54Z</time></trkpt>
<trkpt lat="30.059915" lon="101.328023">
<time>2015-08-06T03:01:55Z</time></trkpt>
<trkpt lat="30.059865" lon="101.328023">
<time>2015-08-06T03:01:56Z</time></trkpt>
<trkpt lat="30.059815" lon="101.328003">
<time>2015-08-06T03:01:57Z</time></trkpt>
<trkpt lat="30.059775" lon="101.327993">
<time>2015-08-06T03:01:58Z</time></trkpt>
<trkpt lat="30.059755" lon="101.327973">
<time>2015-08-06T03:01:59Z</time></trkpt>
<trkpt lat="30.059735" lon="101.327953">
<time>2015-08-06T03:02:00Z</time></trkpt>
<trkpt lat="30.059725" lon="101.327913">
<time>2015-08-06T03:02:01Z</time></trkpt>
<trkpt lat="30.059725" lon="101.327883">
<time>2015-08-06T03:02:02Z</time></trkpt>
<trkpt lat="30.059735" lon="101.327843">
<time>2015-08-06T03:02:03Z</time></trkpt>
<trkpt lat="30.059745" lon="101.327784">
<time>2015-08-06T03:02:04Z</time></trkpt>
<trkpt lat="30.059785" lon="101.327684">
<time>2015-08-06T03:02:05Z</time></trkpt>
<trkpt lat="30.059866" lon="101.327544">
<time>2015-08-06T03:02:06Z</time></trkpt>
<trkpt lat="30.059946" lon="101.327345">
<time>2015-08-06T03:02:07Z</time></trkpt>
<trkpt lat="30.059996" lon="101.327175">
<time>2015-08-06T03:02:08Z</time></trkpt>
<trkpt lat="30.060067" lon="101.326756">
<time>2015-08-06T03:02:09Z</time></trkpt>
<trkpt lat="30.060148" lon="101.326487">
<time>2015-08-06T03:02:10Z</time></trkpt>
<trkpt lat="30.060238" lon="101.326277">
<time>2015-08-06T03:02:11Z</time></trkpt>
<trkpt lat="30.060419" lon="101.325998">
<time>2015-08-06T03:02:12Z</time></trkpt>
<trkpt lat="30.060519" lon="101.325838">
<time>2015-08-06T03:02:13Z</time></trkpt>
<trkpt lat="30.060569" lon="101.325719">
<time>2015-08-06T03:02:14Z</time></trkpt>
<trkpt lat="30.06064" lon="101.325419">
<time>2015-08-06T03:02:15Z</time></trkpt>
<trkpt lat="30.060741" lon="101.324871">
<time>2015-08-06T03:02:16Z</time></trkpt>
<trkpt lat="30.060872" lon="101.324432">
<time>2015-08-06T03:02:17Z</time></trkpt>
<trkpt lat="30.060953" lon="101.323913">
<time>2015-08-06T03:02:18Z</time></trkpt>
<trkpt lat="30.061125" lon="101.322736">
<time>2015-08-06T03:02:19Z</time></trkpt>
<trkpt lat="30.061196" lon="101.322268">
<time>2015-08-06T03:02:20Z</time></trkpt>
<trkpt lat="30.061197" lon="101.321928">
<time>2015-08-06T03:02:21Z</time></trkpt>
<trkpt lat="30.061118" lon="101.32138">
<time>2015-08-06T03:02:22Z</time></trkpt>
<trkpt lat="30.060879" lon="101.320542">
<time>2015-08-06T03:02:23Z</time></trkpt>
<trkpt lat="30.06066" lon="101.319983">
<time>2015-08-06T03:02:24Z</time></trkpt>
<trkpt lat="30.060421" lon="101.319554">
<time>2015-08-06T03:02:25Z</time></trkpt>
<trkpt lat="30.060302" lon="101.319225">
<time>2015-08-06T03:02:26Z</time></trkpt>
<trkpt lat="30.059993" lon="101.318288">
<time>2015-08-06T03:02:27Z</time></trkpt>
<trkpt lat="30.059795" lon="101.317689">
<time>2015-08-06T03:02:28Z</time></trkpt>
<trkpt lat="30.059276" lon="101.316692">
<time>2015-08-06T03:02:29Z</time></trkpt>
<trkpt lat="30.058898" lon="101.315974">
<time>2015-08-06T03:02:30Z</time></trkpt>
<trkpt lat="30.058579" lon="101.315305">
<time>2015-08-06T03:02:31Z</time></trkpt>
<trkpt lat="30.057422" lon="101.313809">
<time>2015-08-06T03:02:32Z</time></trkpt>
<trkpt lat="30.056993" lon="101.31322">
<time>2015-08-06T03:02:33Z</time></trkpt>
<trkpt lat="30.056754" lon="101.312792">
<time>2015-08-06T03:02:34Z</time></trkpt>
<trkpt lat="30.056644" lon="101.312452">
<time>2015-08-06T03:02:35Z</time></trkpt>
<trkpt lat="30.056545" lon="101.312123">
<time>2015-08-06T03:02:36Z</time></trkpt>
<trkpt lat="30.056465" lon="101.311874">
<time>2015-08-06T03:02:37Z</time></trkpt>
<trkpt lat="30.056276" lon="101.311555">
<time>2015-08-06T03:02:38Z</time></trkpt>
<trkpt lat="30.055408" lon="101.310328">
<time>2015-08-06T03:02:39Z</time></trkpt>
<trkpt lat="30.055089" lon="101.309749">
<time>2015-08-06T03:02:40Z</time></trkpt>
<trkpt lat="30.05487" lon="101.30938">
<time>2015-08-06T03:02:41Z</time></trkpt>
<trkpt lat="30.054561" lon="101.308961">
<time>2015-08-06T03:02:42Z</time></trkpt>
<trkpt lat="30.053673" lon="101.307654">
<time>2015-08-06T03:02:43Z</time></trkpt>
<trkpt lat="30.053523" lon="101.307465">
<time>2015-08-06T03:02:44Z</time></trkpt>
<trkpt lat="30.053483" lon="101.307415">
<time>2015-08-06T03:02:45Z</time></trkpt>
<trkpt lat="30.053453" lon="101.307395">
<time>2015-08-06T03:02:46Z</time></trkpt>
<trkpt lat="30.053433" lon="101.307395">
<time>2015-08-06T03:02:47Z</time></trkpt>
<trkpt lat="30.053403" lon="101.307385">
<time>2015-08-06T03:02:48Z</time></trkpt>
<trkpt lat="30.053383" lon="101.307385">
<time>2015-08-06T03:02:49Z</time></trkpt>
<trkpt lat="30.053363" lon="101.307395">
<time>2015-08-06T03:02:50Z</time></trkpt>
<trkpt lat="30.053333" lon="101.307405">
<time>2015-08-06T03:02:51Z</time></trkpt>
<trkpt lat="30.053303" lon="101.307415">
<time>2015-08-06T03:02:52Z</time></trkpt>
<trkpt lat="30.053273" lon="101.307445">
<time>2015-08-06T03:02:53Z</time></trkpt>
<trkpt lat="30.053223" lon="101.307505">
<time>2015-08-06T03:02:54Z</time></trkpt>
<trkpt lat="30.052862" lon="101.308123">
<time>2015-08-06T03:02:55Z</time></trkpt>
<trkpt lat="30.052782" lon="101.308243">
<time>2015-08-06T03:02:56Z</time></trkpt>
<trkpt lat="30.052752" lon="101.308273">
<time>2015-08-06T03:02:57Z</time></trkpt>
<trkpt lat="30.052722" lon="101.308293">
<time>2015-08-06T03:02:58Z</time></trkpt>
<trkpt lat="30.052672" lon="101.308323">
<time>2015-08-06T03:02:59Z</time></trkpt>
<trkpt lat="30.052642" lon="101.308323">
<time>2015-08-06T03:03:00Z</time></trkpt>
<trkpt lat="30.052622" lon="101.308333">
<time>2015-08-06T03:03:01Z</time></trkpt>
<trkpt lat="30.052582" lon="101.308323">
<time>2015-08-06T03:03:02Z</time></trkpt>
<trkpt lat="30.052552" lon="101.308313">
<time>2015-08-06T03:03:03Z</time></trkpt>
<trkpt lat="30.052522" lon="101.308293">
<time>2015-08-06T03:03:04Z</time></trkpt>
<trkpt lat="30.052482" lon="101.308253">
<time>2015-08-06T03:03:05Z</time></trkpt>
<trkpt lat="30.052462" lon="101.308203">
<time>2015-08-06T03:03:06Z</time></trkpt>
<trkpt lat="30.052462" lon="101.308153">
<time>2015-08-06T03:03:07Z</time></trkpt>
<trkpt lat="30.052462" lon="101.308083">
<time>2015-08-06T03:03:08Z</time></trkpt>
<trkpt lat="30.052513" lon="101.307804">
<time>2015-08-06T03:03:09Z</time></trkpt>
<trkpt lat="30.052593" lon="101.307385">
<time>2015-08-06T03:03:10Z</time></trkpt>
<trkpt lat="30.052675" lon="101.306746">
<time>2015-08-06T03:03:11Z</time></trkpt>
<trkpt lat="30.052816" lon="101.306208">
<time>2015-08-06T03:03:12Z</time></trkpt>
<trkpt lat="30.052896" lon="101.305938">
<time>2015-08-06T03:03:13Z</time></trkpt>
<trkpt lat="30.052916" lon="101.305799">
<time>2015-08-06T03:03:14Z</time></trkpt>
<trkpt lat="30.052906" lon="101.305699">
<time>2015-08-06T03:03:15Z</time></trkpt>
<trkpt lat="30.052887" lon="101.305609">
<time>2015-08-06T03:03:16Z</time></trkpt>
<trkpt lat="30.052837" lon="101.305489">
<time>2015-08-06T03:03:17Z</time></trkpt>
<trkpt lat="30.052707" lon="101.30527">
<time>2015-08-06T03:03:18Z</time></trkpt>
<trkpt lat="30.052607" lon="101.30515">
<time>2015-08-06T03:03:19Z</time></trkpt>
<trkpt lat="30.052508" lon="101.30507">
<time>2015-08-06T03:03:20Z</time></trkpt>
<trkpt lat="30.052428" lon="101.305031">
<time>2015-08-06T03:03:21Z</time></trkpt>
<trkpt lat="30.052388" lon="101.305021">
<time>2015-08-06T03:03:22Z</time></trkpt>
<trkpt lat="30.052328" lon="101.305021">
<time>2015-08-06T03:03:23Z</time></trkpt>
<trkpt lat="30.052188" lon="101.30506">
<time>2015-08-06T03:03:24Z</time></trkpt>
<trkpt lat="30.051947" lon="101.30519">
<time>2015-08-06T03:03:25Z</time></trkpt>
<trkpt lat="30.051807" lon="101.30525">
<time>2015-08-06T03:03:26Z</time></trkpt>
<trkpt lat="30.051697" lon="101.30528">
<time>2015-08-06T03:03:27Z</time></trkpt>
<trkpt lat="30.051637" lon="101.30529">
<time>2015-08-06T03:03:28Z</time></trkpt>
<trkpt lat="30.051587" lon="101.30529">
<time>2015-08-06T03:03:29Z</time></trkpt>
<trkpt lat="30.051537" lon="101.30527">
<time>2015-08-06T03:03:30Z</time></trkpt>
<trkpt lat="30.051477" lon="101.30522">
<time>2015-08-06T03:03:31Z</time></trkpt>
<trkpt lat="30.051447" lon="101.30518">
<time>2015-08-06T03:03:32Z</time></trkpt>
<trkpt lat="30.051417" lon="101.30512">
<time>2015-08-06T03:03:33Z</time></trkpt>
<trkpt lat="30.051408" lon="101.305071">
<time>2015-08-06T03:03:34Z</time></trkpt>
<trkpt lat="30.051408" lon="101.305021">
<time>2015-08-06T03:03:35Z</time></trkpt>
<trkpt lat="30.051428" lon="101.304961">
<time>2015-08-06T03:03:36Z</time></trkpt>
<trkpt lat="30.051448" lon="101.304901">
<time>2015-08-06T03:03:37Z</time></trkpt>
<trkpt lat="30.051528" lon="101.304791">
<time>2015-08-06T03:03:38Z</time></trkpt>
<trkpt lat="30.051759" lon="101.304502">
<time>2015-08-06T03:03:39Z</time></trkpt>
<trkpt lat="30.051919" lon="101.304272">
<time>2015-08-06T03:03:40Z</time></trkpt>
<trkpt lat="30.051989" lon="101.304023">
<time>2015-08-06T03:03:41Z</time></trkpt>
<trkpt lat="30.05203" lon="101.303724">
<time>2015-08-06T03:03:42Z</time></trkpt>
<trkpt lat="30.051971" lon="101.303315">
<time>2015-08-06T03:03:43Z</time></trkpt>
<trkpt lat="30.051853" lon="101.301908">
<time>2015-08-06T03:03:44Z</time></trkpt>
<trkpt lat="30.051824" lon="101.30118">
<time>2015-08-06T03:03:45Z</time></trkpt>
<trkpt lat="30.051825" lon="101.30079">
<time>2015-08-06T03:03:46Z</time></trkpt>
<trkpt lat="30.051906" lon="101.300341">
<time>2015-08-06T03:03:47Z</time></trkpt>
<trkpt lat="30.051976" lon="101.300042">
<time>2015-08-06T03:03:48Z</time></trkpt>
<trkpt lat="30.052006" lon="101.299823">
<time>2015-08-06T03:03:49Z</time></trkpt>
<trkpt lat="30.052007" lon="101.299414">
<time>2015-08-06T03:03:50Z</time></trkpt>
<trkpt lat="30.051938" lon="101.298775">
<time>2015-08-06T03:03:51Z</time></trkpt>
<trkpt lat="30.051919" lon="101.298166">
<time>2015-08-06T03:03:52Z</time></trkpt>
<trkpt lat="30.05192" lon="101.297628">
<time>2015-08-06T03:03:53Z</time></trkpt>
<trkpt lat="30.051881" lon="101.297029">
<time>2015-08-06T03:03:54Z</time></trkpt>
<trkpt lat="30.051963" lon="101.295991">
<time>2015-08-06T03:03:55Z</time></trkpt>
<trkpt lat="30.052023" lon="101.295462">
<time>2015-08-06T03:03:56Z</time></trkpt>
<trkpt lat="30.052074" lon="101.295153">
<time>2015-08-06T03:03:57Z</time></trkpt>
<trkpt lat="30.052104" lon="101.294774">
<time>2015-08-06T03:03:58Z</time></trkpt>
<trkpt lat="30.052075" lon="101.294594">
<time>2015-08-06T03:03:59Z</time></trkpt>
<trkpt lat="30.052035" lon="101.294185">
<time>2015-08-06T03:04:00Z</time></trkpt>
<trkpt lat="30.052036" lon="101.293946">
<time>2015-08-06T03:04:01Z</time></trkpt>
<trkpt lat="30.052036" lon="101.293686">
<time>2015-08-06T03:04:02Z</time></trkpt>
<trkpt lat="30.051977" lon="101.293437">
<time>2015-08-06T03:04:03Z</time></trkpt>
<trkpt lat="30.051847" lon="101.293127">
<time>2015-08-06T03:04:04Z</time></trkpt>
<trkpt lat="30.051658" lon="101.292758">
<time>2015-08-06T03:04:05Z</time></trkpt>
<trkpt lat="30.051148" lon="101.29212">
<time>2015-08-06T03:04:06Z</time></trkpt>
<trkpt lat="30.050679" lon="101.291491">
<time>2015-08-06T03:04:07Z</time></trkpt>
<trkpt lat="30.05026" lon="101.290802">
<time>2015-08-06T03:04:08Z</time></trkpt>
<trkpt lat="30.049991" lon="101.290483">
<time>2015-08-06T03:04:09Z</time></trkpt>
<trkpt lat="30.049731" lon="101.290184">
<time>2015-08-06T03:04:10Z</time></trkpt>
<trkpt lat="30.049572" lon="101.289964">
<time>2015-08-06T03:04:11Z</time></trkpt>
<trkpt lat="30.049372" lon="101.289565">
<time>2015-08-06T03:04:12Z</time></trkpt>
<trkpt lat="30.049053" lon="101.289026">
<time>2015-08-06T03:04:13Z</time></trkpt>
<trkpt lat="30.048844" lon="101.288387">
<time>2015-08-06T03:04:14Z</time></trkpt>
<trkpt lat="30.048665" lon="101.287689">
<time>2015-08-06T03:04:15Z</time></trkpt>
<trkpt lat="30.048536" lon="101.28692">
<time>2015-08-06T03:04:16Z</time></trkpt>
<trkpt lat="30.048287" lon="101.286152">
<time>2015-08-06T03:04:17Z</time></trkpt>
<trkpt lat="30.048117" lon="101.285643">
<time>2015-08-06T03:04:18Z</time></trkpt>
<trkpt lat="30.047808" lon="101.284894">
<time>2015-08-06T03:04:19Z</time></trkpt>
<trkpt lat="30.047499" lon="101.284315">
<time>2015-08-06T03:04:20Z</time></trkpt>
<trkpt lat="30.04718" lon="101.283816">
<time>2015-08-06T03:04:21Z</time></trkpt>
<trkpt lat="30.04701" lon="101.283526">
<time>2015-08-06T03:04:22Z</time></trkpt>
<trkpt lat="30.046881" lon="101.283167">
<time>2015-08-06T03:04:23Z</time></trkpt>
<trkpt lat="30.046652" lon="101.281939">
<time>2015-08-06T03:04:24Z</time></trkpt>
<trkpt lat="30.046453" lon="101.28136">
<time>2015-08-06T03:04:25Z</time></trkpt>
<trkpt lat="30.046223" lon="101.280961">
<time>2015-08-06T03:04:26Z</time></trkpt>
<trkpt lat="30.045874" lon="101.280512">
<time>2015-08-06T03:04:27Z</time></trkpt>
<trkpt lat="30.045744" lon="101.280192">
<time>2015-08-06T03:04:28Z</time></trkpt>
<trkpt lat="30.045614" lon="101.279963">
<time>2015-08-06T03:04:29Z</time></trkpt>
<trkpt lat="30.045375" lon="101.279753">
<time>2015-08-06T03:04:30Z</time></trkpt>
<trkpt lat="30.044875" lon="101.279434">
<time>2015-08-06T03:04:31Z</time></trkpt>
<trkpt lat="30.044625" lon="101.279244">
<time>2015-08-06T03:04:32Z</time></trkpt>
<trkpt lat="30.044136" lon="101.278685">
<time>2015-08-06T03:04:33Z</time></trkpt>
<trkpt lat="30.043667" lon="101.278016">
<time>2015-08-06T03:04:34Z</time></trkpt>
<trkpt lat="30.043158" lon="101.277118">
<time>2015-08-06T03:04:35Z</time></trkpt>
<trkpt lat="30.043088" lon="101.276978">
<time>2015-08-06T03:04:36Z</time></trkpt>
<trkpt lat="30.043018" lon="101.276908">
<time>2015-08-06T03:04:37Z</time></trkpt>
<trkpt lat="30.042968" lon="101.276868">
<time>2015-08-06T03:04:38Z</time></trkpt>
<trkpt lat="30.042918" lon="101.276838">
<time>2015-08-06T03:04:39Z</time></trkpt>
<trkpt lat="30.042858" lon="101.276828">
<time>2015-08-06T03:04:40Z</time></trkpt>
<trkpt lat="30.042778" lon="101.276808">
<time>2015-08-06T03:04:41Z</time></trkpt>
<trkpt lat="30.042698" lon="101.276818">
<time>2015-08-06T03:04:42Z</time></trkpt>
<trkpt lat="30.042608" lon="101.276828">
<time>2015-08-06T03:04:43Z</time></trkpt>
<trkpt lat="30.042168" lon="101.276988">
<time>2015-08-06T03:04:44Z</time></trkpt>
<trkpt lat="30.042108" lon="101.277008">
<time>2015-08-06T03:04:45Z</time></trkpt>
<trkpt lat="30.042058" lon="101.277018">
<time>2015-08-06T03:04:46Z</time></trkpt>
<trkpt lat="30.042038" lon="101.277008">
<time>2015-08-06T03:04:47Z</time></trkpt>
<trkpt lat="30.042018" lon="101.276998">
<time>2015-08-06T03:04:48Z</time></trkpt>
<trkpt lat="30.041998" lon="101.276988">
<time>2015-08-06T03:04:49Z</time></trkpt>
<trkpt lat="30.041988" lon="101.276978">
<time>2015-08-06T03:04:50Z</time></trkpt>
<trkpt lat="30.041978" lon="101.276958">
<time>2015-08-06T03:04:51Z</time></trkpt>
<trkpt lat="30.041958" lon="101.276918">
<time>2015-08-06T03:04:52Z</time></trkpt>
<trkpt lat="30.041958" lon="101.276898">
<time>2015-08-06T03:04:53Z</time></trkpt>
<trkpt lat="30.041958" lon="101.276888">
<time>2015-08-06T03:04:54Z</time></trkpt>
<trkpt lat="30.041958" lon="101.276868">
<time>2015-08-06T03:04:55Z</time></trkpt>
<trkpt lat="30.041958" lon="101.276848">
<time>2015-08-06T03:04:56Z</time></trkpt>
<trkpt lat="30.041958" lon="101.276828">
<time>2015-08-06T03:04:57Z</time></trkpt>
<trkpt lat="30.041968" lon="101.276808">
<time>2015-08-06T03:04:58Z</time></trkpt>
<trkpt lat="30.041998" lon="101.276778">
<time>2015-08-06T03:04:59Z</time></trkpt>
<trkpt lat="30.042028" lon="101.276748">
<time>2015-08-06T03:05:00Z</time></trkpt>
<trkpt lat="30.042058" lon="101.276728">
<time>2015-08-06T03:05:01Z</time></trkpt>
<trkpt lat="30.042678" lon="101.276519">
<time>2015-08-06T03:05:02Z</time></trkpt>
<trkpt lat="30.042738" lon="101.276499">
<time>2015-08-06T03:05:03Z</time></trkpt>
<trkpt lat="30.042828" lon="101.276489">
<time>2015-08-06T03:05:04Z</time></trkpt>
<trkpt lat="30.042868" lon="101.276489">
<time>2015-08-06T03:05:05Z</time></trkpt>
<trkpt lat="30.042938" lon="101.276509">
<time>2015-08-06T03:05:06Z</time></trkpt>
<trkpt lat="30.042998" lon="101.276559">
<time>2015-08-06T03:05:07Z</time></trkpt>
<trkpt lat="30.043038" lon="101.276598">
<time>2015-08-06T03:05:08Z</time></trkpt>
<trkpt lat="30.043208" lon="101.276828">
<time>2015-08-06T03:05:09Z</time></trkpt>
<trkpt lat="30.043667" lon="101.277487">
<time>2015-08-06T03:05:10Z</time></trkpt>
<trkpt lat="30.043987" lon="101.277866">
<time>2015-08-06T03:05:11Z</time></trkpt>
<trkpt lat="30.044147" lon="101.278036">
<time>2015-08-06T03:05:12Z</time></trkpt>
<trkpt lat="30.044236" lon="101.278096">
<time>2015-08-06T03:05:13Z</time></trkpt>
<trkpt lat="30.044456" lon="101.278226">
<time>2015-08-06T03:05:14Z</time></trkpt>
<trkpt lat="30.044656" lon="101.278316">
<time>2015-08-06T03:05:15Z</time></trkpt>
<trkpt lat="30.044956" lon="101.278475">
<time>2015-08-06T03:05:16Z</time></trkpt>
<trkpt lat="30.045076" lon="101.278545">
<time>2015-08-06T03:05:17Z</time></trkpt>
<trkpt lat="30.045396" lon="101.278785">
<time>2015-08-06T03:05:18Z</time></trkpt>
<trkpt lat="30.045456" lon="101.278815">
<time>2015-08-06T03:05:19Z</time></trkpt>
<trkpt lat="30.045506" lon="101.278815">
<time>2015-08-06T03:05:20Z</time></trkpt>
<trkpt lat="30.045546" lon="101.278805">
<time>2015-08-06T03:05:21Z</time></trkpt>
<trkpt lat="30.045566" lon="101.278795">
<time>2015-08-06T03:05:22Z</time></trkpt>
<trkpt lat="30.045586" lon="101.278775">
<time>2015-08-06T03:05:23Z</time></trkpt>
<trkpt lat="30.045586" lon="101.278755">
<time>2015-08-06T03:05:24Z</time></trkpt>
<trkpt lat="30.045596" lon="101.278745">
<time>2015-08-06T03:05:25Z</time></trkpt>
<trkpt lat="30.045596" lon="101.278715">
<time>2015-08-06T03:05:26Z</time></trkpt>
<trkpt lat="30.045596" lon="101.278695">
<time>2015-08-06T03:05:27Z</time></trkpt>
<trkpt lat="30.045596" lon="101.278675">
<time>2015-08-06T03:05:28Z</time></trkpt>
<trkpt lat="30.045586" lon="101.278645">
<time>2015-08-06T03:05:29Z</time></trkpt>
<trkpt lat="30.045576" lon="101.278615">
<time>2015-08-06T03:05:30Z</time></trkpt>
<trkpt lat="30.045566" lon="101.278595">
<time>2015-08-06T03:05:31Z</time></trkpt>
<trkpt lat="30.045516" lon="101.278545">
<time>2015-08-06T03:05:32Z</time></trkpt>
<trkpt lat="30.045346" lon="101.278425">
<time>2015-08-06T03:05:33Z</time></trkpt>
<trkpt lat="30.044866" lon="101.278146">
<time>2015-08-06T03:05:34Z</time></trkpt>
<trkpt lat="30.044747" lon="101.278066">
<time>2015-08-06T03:05:35Z</time></trkpt>
<trkpt lat="30.044677" lon="101.277986">
<time>2015-08-06T03:05:36Z</time></trkpt>
<trkpt lat="30.044607" lon="101.277866">
<time>2015-08-06T03:05:37Z</time></trkpt>
<trkpt lat="30.044357" lon="101.277397">
<time>2015-08-06T03:05:38Z</time></trkpt>
<trkpt lat="30.043548" lon="101.276189">
<time>2015-08-06T03:05:39Z</time></trkpt>
<trkpt lat="30.043389" lon="101.27585">
<time>2015-08-06T03:05:40Z</time></trkpt>
<trkpt lat="30.043309" lon="101.27544">
<time>2015-08-06T03:05:41Z</time></trkpt>
<trkpt lat="30.04311" lon="101.274801">
<time>2015-08-06T03:05:42Z</time></trkpt>
<trkpt lat="30.04278" lon="101.274162">
<time>2015-08-06T03:05:43Z</time></trkpt>
<trkpt lat="30.042561" lon="101.273933">
<time>2015-08-06T03:05:44Z</time></trkpt>
<trkpt lat="30.042191" lon="101.273673">
<time>2015-08-06T03:05:45Z</time></trkpt>
<trkpt lat="30.041351" lon="101.273074">
<time>2015-08-06T03:05:46Z</time></trkpt>
<trkpt lat="30.040022" lon="101.272125">
<time>2015-08-06T03:05:47Z</time></trkpt>
<trkpt lat="30.039723" lon="101.271796">
<time>2015-08-06T03:05:48Z</time></trkpt>
<trkpt lat="30.039443" lon="101.271326">
<time>2015-08-06T03:05:49Z</time></trkpt>
<trkpt lat="30.039184" lon="101.270737">
<time>2015-08-06T03:05:50Z</time></trkpt>
<trkpt lat="30.038974" lon="101.269998">
<time>2015-08-06T03:05:51Z</time></trkpt>
<trkpt lat="30.038775" lon="101.269139">
<time>2015-08-06T03:05:52Z</time></trkpt>
<trkpt lat="30.038616" lon="101.268021">
<time>2015-08-06T03:05:53Z</time></trkpt>
<trkpt lat="30.038546" lon="101.267661">
<time>2015-08-06T03:05:54Z</time></trkpt>
<trkpt lat="30.038566" lon="101.267402">
<time>2015-08-06T03:05:55Z</time></trkpt>
<trkpt lat="30.038606" lon="101.267192">
<time>2015-08-06T03:05:56Z</time></trkpt>
<trkpt lat="30.038616" lon="101.267052">
<time>2015-08-06T03:05:57Z</time></trkpt>
<trkpt lat="30.038606" lon="101.266972">
<time>2015-08-06T03:05:58Z</time></trkpt>
<trkpt lat="30.038576" lon="101.266892">
<time>2015-08-06T03:05:59Z</time></trkpt>
<trkpt lat="30.038536" lon="101.266842">
<time>2015-08-06T03:06:00Z</time></trkpt>
<trkpt lat="30.038507" lon="101.266812">
<time>2015-08-06T03:06:01Z</time></trkpt>
<trkpt lat="30.038437" lon="101.266772">
<time>2015-08-06T03:06:02Z</time></trkpt>
<trkpt lat="30.038267" lon="101.266713">
<time>2015-08-06T03:06:03Z</time></trkpt>
<trkpt lat="30.038077" lon="101.266673">
<time>2015-08-06T03:06:04Z</time></trkpt>
<trkpt lat="30.037887" lon="101.266633">
<time>2015-08-06T03:06:05Z</time></trkpt>
<trkpt lat="30.037727" lon="101.266623">
<time>2015-08-06T03:06:06Z</time></trkpt>
<trkpt lat="30.037257" lon="101.266623">
<time>2015-08-06T03:06:07Z</time></trkpt>
<trkpt lat="30.037077" lon="101.266633">
<time>2015-08-06T03:06:08Z</time></trkpt>
<trkpt lat="30.036997" lon="101.266623">
<time>2015-08-06T03:06:09Z</time></trkpt>
<trkpt lat="30.036927" lon="101.266593">
<time>2015-08-06T03:06:10Z</time></trkpt>
<trkpt lat="30.036897" lon="101.266573">
<time>2015-08-06T03:06:11Z</time></trkpt>
<trkpt lat="30.036847" lon="101.266533">
<time>2015-08-06T03:06:12Z</time></trkpt>
<trkpt lat="30.036817" lon="101.266493">
<time>2015-08-06T03:06:13Z</time></trkpt>
<trkpt lat="30.036807" lon="101.266433">
<time>2015-08-06T03:06:14Z</time></trkpt>
<trkpt lat="30.036807" lon="101.266383">
<time>2015-08-06T03:06:15Z</time></trkpt>
<trkpt lat="30.036827" lon="101.266323">
<time>2015-08-06T03:06:16Z</time></trkpt>
<trkpt lat="30.036867" lon="101.266253">
<time>2015-08-06T03:06:17Z</time></trkpt>
<trkpt lat="30.036947" lon="101.266183">
<time>2015-08-06T03:06:18Z</time></trkpt>
<trkpt lat="30.037327" lon="101.265944">
<time>2015-08-06T03:06:19Z</time></trkpt>
<trkpt lat="30.037797" lon="101.265674">
<time>2015-08-06T03:06:20Z</time></trkpt>
<trkpt lat="30.038037" lon="101.265604">
<time>2015-08-06T03:06:21Z</time></trkpt>
<trkpt lat="30.038127" lon="101.265594">
<time>2015-08-06T03:06:22Z</time></trkpt>
<trkpt lat="30.038207" lon="101.265604">
<time>2015-08-06T03:06:23Z</time></trkpt>
<trkpt lat="30.038437" lon="101.265664">
<time>2015-08-06T03:06:24Z</time></trkpt>
<trkpt lat="30.038517" lon="101.265674">
<time>2015-08-06T03:06:25Z</time></trkpt>
<trkpt lat="30.038627" lon="101.265664">
<time>2015-08-06T03:06:26Z</time></trkpt>
<trkpt lat="30.038707" lon="101.265644">
<time>2015-08-06T03:06:27Z</time></trkpt>
<trkpt lat="30.038757" lon="101.265614">
<time>2015-08-06T03:06:28Z</time></trkpt>
<trkpt lat="30.038917" lon="101.265454">
<time>2015-08-06T03:06:29Z</time></trkpt>
<trkpt lat="30.039148" lon="101.265144">
<time>2015-08-06T03:06:30Z</time></trkpt>
<trkpt lat="30.039518" lon="101.264425">
<time>2015-08-06T03:06:31Z</time></trkpt>
<trkpt lat="30.039738" lon="101.263936">
<time>2015-08-06T03:06:32Z</time></trkpt>
<trkpt lat="30.039889" lon="101.263686">
<time>2015-08-06T03:06:33Z</time></trkpt>
<trkpt lat="30.040059" lon="101.263526">
<time>2015-08-06T03:06:34Z</time></trkpt>
<trkpt lat="30.040279" lon="101.263296">
<time>2015-08-06T03:06:35Z</time></trkpt>
<trkpt lat="30.040359" lon="101.263187">
<time>2015-08-06T03:06:36Z</time></trkpt>
<trkpt lat="30.040399" lon="101.263097">
<time>2015-08-06T03:06:37Z</time></trkpt>
<trkpt lat="30.040459" lon="101.262837">
<time>2015-08-06T03:06:38Z</time></trkpt>
<trkpt lat="30.040539" lon="101.262208">
<time>2015-08-06T03:06:39Z</time></trkpt>
<trkpt lat="30.04062" lon="101.261688">
<time>2015-08-06T03:06:40Z</time></trkpt>
<trkpt lat="30.04079" lon="101.261109">
<time>2015-08-06T03:06:41Z</time></trkpt>
<trkpt lat="30.04096" lon="101.260659">
<time>2015-08-06T03:06:42Z</time></trkpt>
<trkpt lat="30.04102" lon="101.260309">
<time>2015-08-06T03:06:43Z</time></trkpt>
<trkpt lat="30.041001" lon="101.25988">
<time>2015-08-06T03:06:44Z</time></trkpt>
<trkpt lat="30.040911" lon="101.259121">
<time>2015-08-06T03:06:45Z</time></trkpt>
<trkpt lat="30.040911" lon="101.258851">
<time>2015-08-06T03:06:46Z</time></trkpt>
<trkpt lat="30.041091" lon="101.257972">
<time>2015-08-06T03:06:47Z</time></trkpt>
<trkpt lat="30.041131" lon="101.257722">
<time>2015-08-06T03:06:48Z</time></trkpt>
<trkpt lat="30.041141" lon="101.257572">
<time>2015-08-06T03:06:49Z</time></trkpt>
<trkpt lat="30.041072" lon="101.256902">
<time>2015-08-06T03:06:50Z</time></trkpt>
<trkpt lat="30.041042" lon="101.256673">
<time>2015-08-06T03:06:51Z</time></trkpt>
<trkpt lat="30.041052" lon="101.256553">
<time>2015-08-06T03:06:52Z</time></trkpt>
<trkpt lat="30.041062" lon="101.256493">
<time>2015-08-06T03:06:53Z</time></trkpt>
<trkpt lat="30.041072" lon="101.256473">
<time>2015-08-06T03:06:54Z</time></trkpt>
<trkpt lat="30.041082" lon="101.256453">
<time>2015-08-06T03:06:55Z</time></trkpt>
<trkpt lat="30.041102" lon="101.256443">
<time>2015-08-06T03:06:56Z</time></trkpt>
<trkpt lat="30.041132" lon="101.256423">
<time>2015-08-06T03:06:57Z</time></trkpt>
<trkpt lat="30.041142" lon="101.256423">
<time>2015-08-06T03:06:58Z</time></trkpt>
<trkpt lat="30.041162" lon="101.256413">
<time>2015-08-06T03:06:59Z</time></trkpt>
<trkpt lat="30.041182" lon="101.256413">
<time>2015-08-06T03:07:00Z</time></trkpt>
<trkpt lat="30.041192" lon="101.256423">
<time>2015-08-06T03:07:01Z</time></trkpt>
<trkpt lat="30.041212" lon="101.256423">
<time>2015-08-06T03:07:02Z</time></trkpt>
<trkpt lat="30.041232" lon="101.256443">
<time>2015-08-06T03:07:03Z</time></trkpt>
<trkpt lat="30.041242" lon="101.256453">
<time>2015-08-06T03:07:04Z</time></trkpt>
<trkpt lat="30.041252" lon="101.256473">
<time>2015-08-06T03:07:05Z</time></trkpt>
<trkpt lat="30.041262" lon="101.256493">
<time>2015-08-06T03:07:06Z</time></trkpt>
<trkpt lat="30.041282" lon="101.256543">
<time>2015-08-06T03:07:07Z</time></trkpt>
<trkpt lat="30.041502" lon="101.257452">
<time>2015-08-06T03:07:08Z</time></trkpt>
<trkpt lat="30.041581" lon="101.257802">
<time>2015-08-06T03:07:09Z</time></trkpt>
<trkpt lat="30.041641" lon="101.258001">
<time>2015-08-06T03:07:10Z</time></trkpt>
<trkpt lat="30.041681" lon="101.258071">
<time>2015-08-06T03:07:11Z</time></trkpt>
<trkpt lat="30.041721" lon="101.258111">
<time>2015-08-06T03:07:12Z</time></trkpt>
<trkpt lat="30.041751" lon="101.258131">
<time>2015-08-06T03:07:13Z</time></trkpt>
<trkpt lat="30.041791" lon="101.258131">
<time>2015-08-06T03:07:14Z</time></trkpt>
<trkpt lat="30.041821" lon="101.258131">
<time>2015-08-06T03:07:15Z</time></trkpt>
<trkpt lat="30.041841" lon="101.258131">
<time>2015-08-06T03:07:16Z</time></trkpt>
<trkpt lat="30.041861" lon="101.258111">
<time>2015-08-06T03:07:17Z</time></trkpt>
<trkpt lat="30.041881" lon="101.258091">
<time>2015-08-06T03:07:18Z</time></trkpt>
<trkpt lat="30.041891" lon="101.258071">
<time>2015-08-06T03:07:19Z</time></trkpt>
<trkpt lat="30.041911" lon="101.258041">
<time>2015-08-06T03:07:20Z</time></trkpt>
<trkpt lat="30.041911" lon="101.257972">
<time>2015-08-06T03:07:21Z</time></trkpt>
<trkpt lat="30.041962" lon="101.257042">
<time>2015-08-06T03:07:22Z</time></trkpt>
<trkpt lat="30.041962" lon="101.256663">
<time>2015-08-06T03:07:23Z</time></trkpt>
<trkpt lat="30.041842" lon="101.255933">
<time>2015-08-06T03:07:24Z</time></trkpt>
<trkpt lat="30.041832" lon="101.255663">
<time>2015-08-06T03:07:25Z</time></trkpt>
<trkpt lat="30.041912" lon="101.255274">
<time>2015-08-06T03:07:26Z</time></trkpt>
<trkpt lat="30.042032" lon="101.254714">
<time>2015-08-06T03:07:27Z</time></trkpt>
<trkpt lat="30.042173" lon="101.253825">
<time>2015-08-06T03:07:28Z</time></trkpt>
<trkpt lat="30.042293" lon="101.253255">
<time>2015-08-06T03:07:29Z</time></trkpt>
<trkpt lat="30.042303" lon="101.252805">
<time>2015-08-06T03:07:30Z</time></trkpt>
<trkpt lat="30.042233" lon="101.252386">
<time>2015-08-06T03:07:31Z</time></trkpt>
<trkpt lat="30.042233" lon="101.251996">
<time>2015-08-06T03:07:32Z</time></trkpt>
<trkpt lat="30.042283" lon="101.251696">
<time>2015-08-06T03:07:33Z</time></trkpt>
<trkpt lat="30.042413" lon="101.251356">
<time>2015-08-06T03:07:34Z</time></trkpt>
<trkpt lat="30.042523" lon="101.250897">
<time>2015-08-06T03:07:35Z</time></trkpt>
<trkpt lat="30.042603" lon="101.250337">
<time>2015-08-06T03:07:36Z</time></trkpt>
<trkpt lat="30.042583" lon="101.250017">
<time>2015-08-06T03:07:37Z</time></trkpt>
<trkpt lat="30.042513" lon="101.249597">
<time>2015-08-06T03:07:38Z</time></trkpt>
<trkpt lat="30.042453" lon="101.249297">
<time>2015-08-06T03:07:39Z</time></trkpt>
<trkpt lat="30.042433" lon="101.248908">
<time>2015-08-06T03:07:40Z</time></trkpt>
<trkpt lat="30.042423" lon="101.248328">
<time>2015-08-06T03:07:41Z</time></trkpt>
<trkpt lat="30.042443" lon="101.247778">
<time>2015-08-06T03:07:42Z</time></trkpt>
<trkpt lat="30.042483" lon="101.247448">
<time>2015-08-06T03:07:43Z</time></trkpt>
<trkpt lat="30.042483" lon="101.247258">
<time>2015-08-06T03:07:44Z</time></trkpt>
<trkpt lat="30.042453" lon="101.247068">
<time>2015-08-06T03:07:45Z</time></trkpt>
<trkpt lat="30.042393" lon="101.246888">
<time>2015-08-06T03:07:46Z</time></trkpt>
<trkpt lat="30.042273" lon="101.246529">
<time>2015-08-06T03:07:47Z</time></trkpt>
<trkpt lat="30.042113" lon="101.246069">
<time>2015-08-06T03:07:48Z</time></trkpt>
<trkpt lat="30.042023" lon="101.245739">
<time>2015-08-06T03:07:49Z</time></trkpt>
<trkpt lat="30.041863" lon="101.244919">
<time>2015-08-06T03:07:50Z</time></trkpt>
<trkpt lat="30.041703" lon="101.244099">
<time>2015-08-06T03:07:51Z</time></trkpt>
<trkpt lat="30.041533" lon="101.24323">
<time>2015-08-06T03:07:52Z</time></trkpt>
<trkpt lat="30.041423" lon="101.24268">
<time>2015-08-06T03:07:53Z</time></trkpt>
<trkpt lat="30.041393" lon="101.2424">
<time>2015-08-06T03:07:54Z</time></trkpt>
<trkpt lat="30.041393" lon="101.24217">
<time>2015-08-06T03:07:55Z</time></trkpt>
<trkpt lat="30.041442" lon="101.24185">
<time>2015-08-06T03:07:56Z</time></trkpt>
<trkpt lat="30.041492" lon="101.24113">
<time>2015-08-06T03:07:57Z</time></trkpt>
<trkpt lat="30.041492" lon="101.23978">
<time>2015-08-06T03:07:58Z</time></trkpt>
<trkpt lat="30.041502" lon="101.23918">
<time>2015-08-06T03:07:59Z</time></trkpt>
<trkpt lat="30.041511" lon="101.23849">
<time>2015-08-06T03:08:00Z</time></trkpt>
<trkpt lat="30.041471" lon="101.23809">
<time>2015-08-06T03:08:01Z</time></trkpt>
<trkpt lat="30.041471" lon="101.23768">
<time>2015-08-06T03:08:02Z</time></trkpt>
<trkpt lat="30.041521" lon="101.23724">
<time>2015-08-06T03:08:03Z</time></trkpt>
<trkpt lat="30.041621" lon="101.23639">
<time>2015-08-06T03:08:04Z</time></trkpt>
<trkpt lat="30.04169" lon="101.23602">
<time>2015-08-06T03:08:05Z</time></trkpt>
<trkpt lat="30.04182" lon="101.2356">
<time>2015-08-06T03:08:06Z</time></trkpt>
<trkpt lat="30.04205" lon="101.2349">
<time>2015-08-06T03:08:07Z</time></trkpt>
<trkpt lat="30.04223" lon="101.23438">
<time>2015-08-06T03:08:08Z</time></trkpt>
<trkpt lat="30.04229" lon="101.2341">
<time>2015-08-06T03:08:09Z</time></trkpt>
<trkpt lat="30.042309" lon="101.23375">
<time>2015-08-06T03:08:10Z</time></trkpt>
<trkpt lat="30.042309" lon="101.23329">
<time>2015-08-06T03:08:11Z</time></trkpt>
<trkpt lat="30.042299" lon="101.2329">
<time>2015-08-06T03:08:12Z</time></trkpt>
<trkpt lat="30.042259" lon="101.23272">
<time>2015-08-06T03:08:13Z</time></trkpt>
<trkpt lat="30.042179" lon="101.23253">
<time>2015-08-06T03:08:14Z</time></trkpt>
<trkpt lat="30.041938" lon="101.2321">
<time>2015-08-06T03:08:15Z</time></trkpt>
<trkpt lat="30.041788" lon="101.231779">
<time>2015-08-06T03:08:16Z</time></trkpt>
<trkpt lat="30.041728" lon="101.231609">
<time>2015-08-06T03:08:17Z</time></trkpt>
<trkpt lat="30.041678" lon="101.231359">
<time>2015-08-06T03:08:18Z</time></trkpt>
<trkpt lat="30.041658" lon="101.231049">
<time>2015-08-06T03:08:19Z</time></trkpt>
<trkpt lat="30.041617" lon="101.229609">
<time>2015-08-06T03:08:20Z</time></trkpt>
<trkpt lat="30.041556" lon="101.228599">
<time>2015-08-06T03:08:21Z</time></trkpt>
<trkpt lat="30.041516" lon="101.228028">
<time>2015-08-06T03:08:22Z</time></trkpt>
<trkpt lat="30.041485" lon="101.227098">
<time>2015-08-06T03:08:23Z</time></trkpt>
<trkpt lat="30.041524" lon="101.226228">
<time>2015-08-06T03:08:24Z</time></trkpt>
<trkpt lat="30.041534" lon="101.225437">
<time>2015-08-06T03:08:25Z</time></trkpt>
<trkpt lat="30.041653" lon="101.224187">
<time>2015-08-06T03:08:26Z</time></trkpt>
<trkpt lat="30.041821" lon="101.222546">
<time>2015-08-06T03:08:27Z</time></trkpt>
<trkpt lat="30.041871" lon="101.222095">
<time>2015-08-06T03:08:28Z</time></trkpt>
<trkpt lat="30.04195" lon="101.221705">
<time>2015-08-06T03:08:29Z</time></trkpt>
<trkpt lat="30.04205" lon="101.221445">
<time>2015-08-06T03:08:30Z</time></trkpt>
<trkpt lat="30.04235" lon="101.220824">
<time>2015-08-06T03:08:31Z</time></trkpt>
<trkpt lat="30.042639" lon="101.220194">
<time>2015-08-06T03:08:32Z</time></trkpt>
<trkpt lat="30.042789" lon="101.219884">
<time>2015-08-06T03:08:33Z</time></trkpt>
<trkpt lat="30.042848" lon="101.219774">
<time>2015-08-06T03:08:34Z</time></trkpt>
<trkpt lat="30.042928" lon="101.219664">
<time>2015-08-06T03:08:35Z</time></trkpt>
<trkpt lat="30.042978" lon="101.219624">
<time>2015-08-06T03:08:36Z</time></trkpt>
<trkpt lat="30.043038" lon="101.219574">
<time>2015-08-06T03:08:37Z</time></trkpt>
<trkpt lat="30.043108" lon="101.219534">
<time>2015-08-06T03:08:38Z</time></trkpt>
<trkpt lat="30.043168" lon="101.219524">
<time>2015-08-06T03:08:39Z</time></trkpt>
<trkpt lat="30.043288" lon="101.219514">
<time>2015-08-06T03:08:40Z</time></trkpt>
<trkpt lat="30.043438" lon="101.219534">
<time>2015-08-06T03:08:41Z</time></trkpt>
<trkpt lat="30.043648" lon="101.219594">
<time>2015-08-06T03:08:42Z</time></trkpt>
<trkpt lat="30.043718" lon="101.219594">
<time>2015-08-06T03:08:43Z</time></trkpt>
<trkpt lat="30.043768" lon="101.219594">
<time>2015-08-06T03:08:44Z</time></trkpt>
<trkpt lat="30.043828" lon="101.219594">
<time>2015-08-06T03:08:45Z</time></trkpt>
<trkpt lat="30.043868" lon="101.219584">
<time>2015-08-06T03:08:46Z</time></trkpt>
<trkpt lat="30.043928" lon="101.219554">
<time>2015-08-06T03:08:47Z</time></trkpt>
<trkpt lat="30.043978" lon="101.219524">
<time>2015-08-06T03:08:48Z</time></trkpt>
<trkpt lat="30.044098" lon="101.219403">
<time>2015-08-06T03:08:49Z</time></trkpt>
<trkpt lat="30.044388" lon="101.219073">
<time>2015-08-06T03:08:50Z</time></trkpt>
<trkpt lat="30.044677" lon="101.218723">
<time>2015-08-06T03:08:51Z</time></trkpt>
<trkpt lat="30.044887" lon="101.218353">
<time>2015-08-06T03:08:52Z</time></trkpt>
<trkpt lat="30.045396" lon="101.217372">
<time>2015-08-06T03:08:53Z</time></trkpt>
<trkpt lat="30.045645" lon="101.216912">
<time>2015-08-06T03:08:54Z</time></trkpt>
<trkpt lat="30.045825" lon="101.216661">
<time>2015-08-06T03:08:55Z</time></trkpt>
<trkpt lat="30.045945" lon="101.216541">
<time>2015-08-06T03:08:56Z</time></trkpt>
<trkpt lat="30.046285" lon="101.216291">
<time>2015-08-06T03:08:57Z</time></trkpt>
<trkpt lat="30.046754" lon="101.216001">
<time>2015-08-06T03:08:58Z</time></trkpt>
<trkpt lat="30.047544" lon="101.21564">
<time>2015-08-06T03:08:59Z</time></trkpt>
<trkpt lat="30.047704" lon="101.21561">
<time>2015-08-06T03:09:00Z</time></trkpt>
<trkpt lat="30.047834" lon="101.21559">
<time>2015-08-06T03:09:01Z</time></trkpt>
<trkpt lat="30.048004" lon="101.21562">
<time>2015-08-06T03:09:02Z</time></trkpt>
<trkpt lat="30.048174" lon="101.21568">
<time>2015-08-06T03:09:03Z</time></trkpt>
<trkpt lat="30.048544" lon="101.215801">
<time>2015-08-06T03:09:04Z</time></trkpt>
<trkpt lat="30.048694" lon="101.215811">
<time>2015-08-06T03:09:05Z</time></trkpt>
<trkpt lat="30.048774" lon="101.2158">
<time>2015-08-06T03:09:06Z</time></trkpt>
<trkpt lat="30.048834" lon="101.21578">
<time>2015-08-06T03:09:07Z</time></trkpt>
<trkpt lat="30.048884" lon="101.21576">
<time>2015-08-06T03:09:08Z</time></trkpt>
<trkpt lat="30.048944" lon="101.21573">
<time>2015-08-06T03:09:09Z</time></trkpt>
<trkpt lat="30.049024" lon="101.21567">
<time>2015-08-06T03:09:10Z</time></trkpt>
<trkpt lat="30.049174" lon="101.21549">
<time>2015-08-06T03:09:11Z</time></trkpt>
<trkpt lat="30.049543" lon="101.21496">
<time>2015-08-06T03:09:12Z</time></trkpt>
<trkpt lat="30.049823" lon="101.214549">
<time>2015-08-06T03:09:13Z</time></trkpt>
<trkpt lat="30.050182" lon="101.213909">
<time>2015-08-06T03:09:14Z</time></trkpt>
<trkpt lat="30.050561" lon="101.213238">
<time>2015-08-06T03:09:15Z</time></trkpt>
<trkpt lat="30.050971" lon="101.212628">
<time>2015-08-06T03:09:16Z</time></trkpt>
<trkpt lat="30.05131" lon="101.212137">
<time>2015-08-06T03:09:17Z</time></trkpt>
<trkpt lat="30.05146" lon="101.211947">
<time>2015-08-06T03:09:18Z</time></trkpt>
<trkpt lat="30.051639" lon="101.211777">
<time>2015-08-06T03:09:19Z</time></trkpt>
<trkpt lat="30.051909" lon="101.211506">
<time>2015-08-06T03:09:20Z</time></trkpt>
<trkpt lat="30.052169" lon="101.211166">
<time>2015-08-06T03:09:21Z</time></trkpt>
<trkpt lat="30.052568" lon="101.210546">
<time>2015-08-06T03:09:22Z</time></trkpt>
<trkpt lat="30.052887" lon="101.210085">
<time>2015-08-06T03:09:23Z</time></trkpt>
<trkpt lat="30.053157" lon="101.209715">
<time>2015-08-06T03:09:24Z</time></trkpt>
<trkpt lat="30.053437" lon="101.209484">
<time>2015-08-06T03:09:25Z</time></trkpt>
<trkpt lat="30.053756" lon="101.209274">
<time>2015-08-06T03:09:26Z</time></trkpt>
<trkpt lat="30.054146" lon="101.209064">
<time>2015-08-06T03:09:27Z</time></trkpt>
<trkpt lat="30.054666" lon="101.208804">
<time>2015-08-06T03:09:28Z</time></trkpt>
<trkpt lat="30.054846" lon="101.208714">
<time>2015-08-06T03:09:29Z</time></trkpt>
<trkpt lat="30.054975" lon="101.208593">
<time>2015-08-06T03:09:30Z</time></trkpt>
<trkpt lat="30.055115" lon="101.208433">
<time>2015-08-06T03:09:31Z</time></trkpt>
<trkpt lat="30.055335" lon="101.208213">
<time>2015-08-06T03:09:32Z</time></trkpt>
<trkpt lat="30.055475" lon="101.208103">
<time>2015-08-06T03:09:33Z</time></trkpt>
<trkpt lat="30.055685" lon="101.207993">
<time>2015-08-06T03:09:34Z</time></trkpt>
<trkpt lat="30.055944" lon="101.207853">
<time>2015-08-06T03:09:35Z</time></trkpt>
<trkpt lat="30.056134" lon="101.207782">
<time>2015-08-06T03:09:36Z</time></trkpt>
<trkpt lat="30.056464" lon="101.207702">
<time>2015-08-06T03:09:37Z</time></trkpt>
<trkpt lat="30.056794" lon="101.207622">
<time>2015-08-06T03:09:38Z</time></trkpt>
<trkpt lat="30.057254" lon="101.207532">
<time>2015-08-06T03:09:39Z</time></trkpt>
<trkpt lat="30.057714" lon="101.207462">
<time>2015-08-06T03:09:40Z</time></trkpt>
<trkpt lat="30.058774" lon="101.207322">
<time>2015-08-06T03:09:41Z</time></trkpt>
<trkpt lat="30.059634" lon="101.207202">
<time>2015-08-06T03:09:42Z</time></trkpt>
<trkpt lat="30.060633" lon="101.207062">
<time>2015-08-06T03:09:43Z</time></trkpt>
<trkpt lat="30.060743" lon="101.207022">
<time>2015-08-06T03:09:44Z</time></trkpt>
<trkpt lat="30.060843" lon="101.206961">
<time>2015-08-06T03:09:45Z</time></trkpt>
<trkpt lat="30.060983" lon="101.206841">
<time>2015-08-06T03:09:46Z</time></trkpt>
<trkpt lat="30.061133" lon="101.206631">
<time>2015-08-06T03:09:47Z</time></trkpt>
<trkpt lat="30.061342" lon="101.206221">
<time>2015-08-06T03:09:48Z</time></trkpt>
<trkpt lat="30.061761" lon="101.20538">
<time>2015-08-06T03:09:49Z</time></trkpt>
<trkpt lat="30.06191" lon="101.205049">
<time>2015-08-06T03:09:50Z</time></trkpt>
<trkpt lat="30.06206" lon="101.204609">
<time>2015-08-06T03:09:51Z</time></trkpt>
<trkpt lat="30.062179" lon="101.204158">
<time>2015-08-06T03:09:52Z</time></trkpt>
<trkpt lat="30.062476" lon="101.202316">
<time>2015-08-06T03:09:53Z</time></trkpt>
<trkpt lat="30.062744" lon="101.200744">
<time>2015-08-06T03:09:54Z</time></trkpt>
<trkpt lat="30.062863" lon="101.200183">
<time>2015-08-06T03:09:55Z</time></trkpt>
<trkpt lat="30.062943" lon="101.199913">
<time>2015-08-06T03:09:56Z</time></trkpt>
<trkpt lat="30.063132" lon="101.199502">
<time>2015-08-06T03:09:57Z</time></trkpt>
<trkpt lat="30.06368" lon="101.198401">
<time>2015-08-06T03:09:58Z</time></trkpt>
<trkpt lat="30.064318" lon="101.197149">
<time>2015-08-06T03:09:59Z</time></trkpt>
<trkpt lat="30.064996" lon="101.195747">
<time>2015-08-06T03:10:00Z</time></trkpt>
<trkpt lat="30.065136" lon="101.195367">
<time>2015-08-06T03:10:01Z</time></trkpt>
<trkpt lat="30.065235" lon="101.195106">
<time>2015-08-06T03:10:02Z</time></trkpt>
<trkpt lat="30.065255" lon="101.195006">
<time>2015-08-06T03:10:03Z</time></trkpt>
<trkpt lat="30.065275" lon="101.194886">
<time>2015-08-06T03:10:04Z</time></trkpt>
<trkpt lat="30.065275" lon="101.194716">
<time>2015-08-06T03:10:05Z</time></trkpt>
<trkpt lat="30.065254" lon="101.194616">
<time>2015-08-06T03:10:06Z</time></trkpt>
<trkpt lat="30.065234" lon="101.194525">
<time>2015-08-06T03:10:07Z</time></trkpt>
<trkpt lat="30.065144" lon="101.194305">
<time>2015-08-06T03:10:08Z</time></trkpt>
<trkpt lat="30.065024" lon="101.194155">
<time>2015-08-06T03:10:09Z</time></trkpt>
<trkpt lat="30.064883" lon="101.194035">
<time>2015-08-06T03:10:10Z</time></trkpt>
<trkpt lat="30.064743" lon="101.193935">
<time>2015-08-06T03:10:11Z</time></trkpt>
<trkpt lat="30.064453" lon="101.193784">
<time>2015-08-06T03:10:12Z</time></trkpt>
<trkpt lat="30.064183" lon="101.193634">
<time>2015-08-06T03:10:13Z</time></trkpt>
<trkpt lat="30.064053" lon="101.193534">
<time>2015-08-06T03:10:14Z</time></trkpt>
<trkpt lat="30.063952" lon="101.193394">
<time>2015-08-06T03:10:15Z</time></trkpt>
<trkpt lat="30.063922" lon="101.193324">
<time>2015-08-06T03:10:16Z</time></trkpt>
<trkpt lat="30.063902" lon="101.193264">
<time>2015-08-06T03:10:17Z</time></trkpt>
<trkpt lat="30.063912" lon="101.193174">
<time>2015-08-06T03:10:18Z</time></trkpt>
<trkpt lat="30.063942" lon="101.193053">
<time>2015-08-06T03:10:19Z</time></trkpt>
<trkpt lat="30.063992" lon="101.192923">
<time>2015-08-06T03:10:20Z</time></trkpt>
<trkpt lat="30.064121" lon="101.192613">
<time>2015-08-06T03:10:21Z</time></trkpt>
<trkpt lat="30.06421" lon="101.192302">
<time>2015-08-06T03:10:22Z</time></trkpt>
<trkpt lat="30.064459" lon="101.191331">
<time>2015-08-06T03:10:23Z</time></trkpt>
<trkpt lat="30.064915" lon="101.189328">
<time>2015-08-06T03:10:24Z</time></trkpt>
<trkpt lat="30.065302" lon="101.187635">
<time>2015-08-06T03:10:25Z</time></trkpt>
<trkpt lat="30.065422" lon="101.187155">
<time>2015-08-06T03:10:26Z</time></trkpt>
<trkpt lat="30.065521" lon="101.186864">
<time>2015-08-06T03:10:27Z</time></trkpt>
<trkpt lat="30.065681" lon="101.186584">
<time>2015-08-06T03:10:28Z</time></trkpt>
<trkpt lat="30.06601" lon="101.186153">
<time>2015-08-06T03:10:29Z</time></trkpt>
<trkpt lat="30.066149" lon="101.186003">
<time>2015-08-06T03:10:30Z</time></trkpt>
<trkpt lat="30.066479" lon="101.185612">
<time>2015-08-06T03:10:31Z</time></trkpt>
<trkpt lat="30.067986" lon="101.183819">
<time>2015-08-06T03:10:32Z</time></trkpt>
<trkpt lat="30.068724" lon="101.183028">
<time>2015-08-06T03:10:33Z</time></trkpt>
<trkpt lat="30.069133" lon="101.182647">
<time>2015-08-06T03:10:34Z</time></trkpt>
<trkpt lat="30.069782" lon="101.182026">
<time>2015-08-06T03:10:35Z</time></trkpt>
<trkpt lat="30.070062" lon="101.181696">
<time>2015-08-06T03:10:36Z</time></trkpt>
<trkpt lat="30.070251" lon="101.181405">
<time>2015-08-06T03:10:37Z</time></trkpt>
<trkpt lat="30.070421" lon="101.181045">
<time>2015-08-06T03:10:38Z</time></trkpt>
<trkpt lat="30.07058" lon="101.180774">
<time>2015-08-06T03:10:39Z</time></trkpt>
<trkpt lat="30.07076" lon="101.180574">
<time>2015-08-06T03:10:40Z</time></trkpt>
<trkpt lat="30.070969" lon="101.180394">
<time>2015-08-06T03:10:41Z</time></trkpt>
<trkpt lat="30.071219" lon="101.180243">
<time>2015-08-06T03:10:42Z</time></trkpt>
<trkpt lat="30.071509" lon="101.180113">
<time>2015-08-06T03:10:43Z</time></trkpt>
<trkpt lat="30.071729" lon="101.180033">
<time>2015-08-06T03:10:44Z</time></trkpt>
<trkpt lat="30.071869" lon="101.179943">
<time>2015-08-06T03:10:45Z</time></trkpt>
<trkpt lat="30.071978" lon="101.179813">
<time>2015-08-06T03:10:46Z</time></trkpt>
<trkpt lat="30.072108" lon="101.179552">
<time>2015-08-06T03:10:47Z</time></trkpt>
<trkpt lat="30.072157" lon="101.179392">
<time>2015-08-06T03:10:48Z</time></trkpt>
<trkpt lat="30.072167" lon="101.179312">
<time>2015-08-06T03:10:49Z</time></trkpt>
<trkpt lat="30.072177" lon="101.179212">
<time>2015-08-06T03:10:50Z</time></trkpt>
<trkpt lat="30.072177" lon="101.179112">
<time>2015-08-06T03:10:51Z</time></trkpt>
<trkpt lat="30.072147" lon="101.178971">
<time>2015-08-06T03:10:52Z</time></trkpt>
<trkpt lat="30.072127" lon="101.178921">
<time>2015-08-06T03:10:53Z</time></trkpt>
<trkpt lat="30.072016" lon="101.178741">
<time>2015-08-06T03:10:54Z</time></trkpt>
<trkpt lat="30.071555" lon="101.1782">
<time>2015-08-06T03:10:55Z</time></trkpt>
<trkpt lat="30.071375" lon="101.17796">
<time>2015-08-06T03:10:56Z</time></trkpt>
<trkpt lat="30.071284" lon="101.177759">
<time>2015-08-06T03:10:57Z</time></trkpt>
<trkpt lat="30.071234" lon="101.177539">
<time>2015-08-06T03:10:58Z</time></trkpt>
<trkpt lat="30.071224" lon="101.177299">
<time>2015-08-06T03:10:59Z</time></trkpt>
<trkpt lat="30.071253" lon="101.177028">
<time>2015-08-06T03:11:00Z</time></trkpt>
<trkpt lat="30.071303" lon="101.176798">
<time>2015-08-06T03:11:01Z</time></trkpt>
<trkpt lat="30.071412" lon="101.176497">
<time>2015-08-06T03:11:02Z</time></trkpt>
<trkpt lat="30.071611" lon="101.176127">
<time>2015-08-06T03:11:03Z</time></trkpt>
<trkpt lat="30.071821" lon="101.175866">
<time>2015-08-06T03:11:04Z</time></trkpt>
<trkpt lat="30.07213" lon="101.175556">
<time>2015-08-06T03:11:05Z</time></trkpt>
<trkpt lat="30.07242" lon="101.175315">
<time>2015-08-06T03:11:06Z</time></trkpt>
<trkpt lat="30.07255" lon="101.175155">
<time>2015-08-06T03:11:07Z</time></trkpt>
<trkpt lat="30.072669" lon="101.174925">
<time>2015-08-06T03:11:08Z</time></trkpt>
<trkpt lat="30.072759" lon="101.174624">
<time>2015-08-06T03:11:09Z</time></trkpt>
<trkpt lat="30.072848" lon="101.174264">
<time>2015-08-06T03:11:10Z</time></trkpt>
<trkpt lat="30.072898" lon="101.174113">
<time>2015-08-06T03:11:11Z</time></trkpt>
<trkpt lat="30.072987" lon="101.173963">
<time>2015-08-06T03:11:12Z</time></trkpt>
<trkpt lat="30.073127" lon="101.173823">
<time>2015-08-06T03:11:13Z</time></trkpt>
<trkpt lat="30.073327" lon="101.173653">
<time>2015-08-06T03:11:14Z</time></trkpt>
<trkpt lat="30.073437" lon="101.173522">
<time>2015-08-06T03:11:15Z</time></trkpt>
<trkpt lat="30.073636" lon="101.173232">
<time>2015-08-06T03:11:16Z</time></trkpt>
<trkpt lat="30.073746" lon="101.173041">
<time>2015-08-06T03:11:17Z</time></trkpt>
<trkpt lat="30.073795" lon="101.172861">
<time>2015-08-06T03:11:18Z</time></trkpt>
<trkpt lat="30.073795" lon="101.172711">
<time>2015-08-06T03:11:19Z</time></trkpt>
<trkpt lat="30.073734" lon="101.1724">
<time>2015-08-06T03:11:20Z</time></trkpt>
<trkpt lat="30.073563" lon="101.1719">
<time>2015-08-06T03:11:21Z</time></trkpt>
<trkpt lat="30.073493" lon="101.171689">
<time>2015-08-06T03:11:22Z</time></trkpt>
<trkpt lat="30.073462" lon="101.171249">
<time>2015-08-06T03:11:23Z</time></trkpt>
<trkpt lat="30.073422" lon="101.170918">
<time>2015-08-06T03:11:24Z</time></trkpt>
<trkpt lat="30.073351" lon="101.170708">
<time>2015-08-06T03:11:25Z</time></trkpt>
<trkpt lat="30.073241" lon="101.170317">
<time>2015-08-06T03:11:26Z</time></trkpt>
<trkpt lat="30.0732" lon="101.170177">
<time>2015-08-06T03:11:27Z</time></trkpt>
<trkpt lat="30.07324" lon="101.169876">
<time>2015-08-06T03:11:28Z</time></trkpt>
<trkpt lat="30.073259" lon="101.169606">
<time>2015-08-06T03:11:29Z</time></trkpt>
<trkpt lat="30.073259" lon="101.169385">
<time>2015-08-06T03:11:30Z</time></trkpt>
<trkpt lat="30.073208" lon="101.169205">
<time>2015-08-06T03:11:31Z</time></trkpt>
<trkpt lat="30.073118" lon="101.169005">
<time>2015-08-06T03:11:32Z</time></trkpt>
<trkpt lat="30.073038" lon="101.168875">
<time>2015-08-06T03:11:33Z</time></trkpt>
<trkpt lat="30.072918" lon="101.168734">
<time>2015-08-06T03:11:34Z</time></trkpt>
<trkpt lat="30.072727" lon="101.168604">
<time>2015-08-06T03:11:35Z</time></trkpt>
<trkpt lat="30.072417" lon="101.168424">
<time>2015-08-06T03:11:36Z</time></trkpt>
<trkpt lat="30.072327" lon="101.168344">
<time>2015-08-06T03:11:37Z</time></trkpt>
<trkpt lat="30.072217" lon="101.168214">
<time>2015-08-06T03:11:38Z</time></trkpt>
<trkpt lat="30.072146" lon="101.168033">
<time>2015-08-06T03:11:39Z</time></trkpt>
<trkpt lat="30.072106" lon="101.167803">
<time>2015-08-06T03:11:40Z</time></trkpt>
<trkpt lat="30.072085" lon="101.167472">
<time>2015-08-06T03:11:41Z</time></trkpt>
<trkpt lat="30.072064" lon="101.167112">
<time>2015-08-06T03:11:42Z</time></trkpt>
<trkpt lat="30.072044" lon="101.166921">
<time>2015-08-06T03:11:43Z</time></trkpt>
<trkpt lat="30.071984" lon="101.166691">
<time>2015-08-06T03:11:44Z</time></trkpt>
<trkpt lat="30.071481" lon="101.165078">
<time>2015-08-06T03:11:45Z</time></trkpt>
<trkpt lat="30.070887" lon="101.163195">
<time>2015-08-06T03:11:46Z</time></trkpt>
<trkpt lat="30.070324" lon="101.161372">
<time>2015-08-06T03:11:47Z</time></trkpt>
<trkpt lat="30.069931" lon="101.16012">
<time>2015-08-06T03:11:48Z</time></trkpt>
<trkpt lat="30.069791" lon="101.15966">
<time>2015-08-06T03:11:49Z</time></trkpt>
<trkpt lat="30.069629" lon="101.159079">
<time>2015-08-06T03:11:50Z</time></trkpt>
<trkpt lat="30.069579" lon="101.158768">
<time>2015-08-06T03:11:51Z</time></trkpt>
<trkpt lat="30.069568" lon="101.158458">
<time>2015-08-06T03:11:52Z</time></trkpt>
<trkpt lat="30.069588" lon="101.158157">
<time>2015-08-06T03:11:53Z</time></trkpt>
<trkpt lat="30.069716" lon="101.157296">
<time>2015-08-06T03:11:54Z</time></trkpt>
<trkpt lat="30.069804" lon="101.156184">
<time>2015-08-06T03:11:55Z</time></trkpt>
<trkpt lat="30.069981" lon="101.154141">
<time>2015-08-06T03:11:56Z</time></trkpt>
<trkpt lat="30.070059" lon="101.1534">
<time>2015-08-06T03:11:57Z</time></trkpt>
<trkpt lat="30.070128" lon="101.152789">
<time>2015-08-06T03:11:58Z</time></trkpt>
<trkpt lat="30.070297" lon="101.152268">
<time>2015-08-06T03:11:59Z</time></trkpt>
<trkpt lat="30.070456" lon="101.151838">
<time>2015-08-06T03:12:00Z</time></trkpt>
<trkpt lat="30.070556" lon="101.151557">
<time>2015-08-06T03:12:01Z</time></trkpt>
<trkpt lat="30.070596" lon="101.151327">
<time>2015-08-06T03:12:02Z</time></trkpt>
<trkpt lat="30.070605" lon="101.151147">
<time>2015-08-06T03:12:03Z</time></trkpt>
<trkpt lat="30.070645" lon="101.151016">
<time>2015-08-06T03:12:04Z</time></trkpt>
<trkpt lat="30.070685" lon="101.150916">
<time>2015-08-06T03:12:05Z</time></trkpt>
<trkpt lat="30.070805" lon="101.150716">
<time>2015-08-06T03:12:06Z</time></trkpt>
<trkpt lat="30.071054" lon="101.150375">
<time>2015-08-06T03:12:07Z</time></trkpt>
<trkpt lat="30.071124" lon="101.150225">
<time>2015-08-06T03:12:08Z</time></trkpt>
<trkpt lat="30.071173" lon="101.150035">
<time>2015-08-06T03:12:09Z</time></trkpt>
<trkpt lat="30.071193" lon="101.149825">
<time>2015-08-06T03:12:10Z</time></trkpt>
<trkpt lat="30.071193" lon="101.149644">
<time>2015-08-06T03:12:11Z</time></trkpt>
<trkpt lat="30.071142" lon="101.149214">
<time>2015-08-06T03:12:12Z</time></trkpt>
<trkpt lat="30.07104" lon="101.148302">
<time>2015-08-06T03:12:13Z</time></trkpt>
<trkpt lat="30.07097" lon="101.147802">
<time>2015-08-06T03:12:14Z</time></trkpt>
<trkpt lat="30.070879" lon="101.147421">
<time>2015-08-06T03:12:15Z</time></trkpt>
<trkpt lat="30.070587" lon="101.14647">
<time>2015-08-06T03:12:16Z</time></trkpt>
<trkpt lat="30.070487" lon="101.146059">
<time>2015-08-06T03:12:17Z</time></trkpt>
<trkpt lat="30.070476" lon="101.145879">
<time>2015-08-06T03:12:18Z</time></trkpt>
<trkpt lat="30.070476" lon="101.145769">
<time>2015-08-06T03:12:19Z</time></trkpt>
<trkpt lat="30.070496" lon="101.145629">
<time>2015-08-06T03:12:20Z</time></trkpt>
<trkpt lat="30.070556" lon="101.145388">
<time>2015-08-06T03:12:21Z</time></trkpt>
<trkpt lat="30.070705" lon="101.144988">
<time>2015-08-06T03:12:22Z</time></trkpt>
<trkpt lat="30.071432" lon="101.143316">
<time>2015-08-06T03:12:23Z</time></trkpt>
<trkpt lat="30.07206" lon="101.141824">
<time>2015-08-06T03:12:24Z</time></trkpt>
<trkpt lat="30.072239" lon="101.141373">
<time>2015-08-06T03:12:25Z</time></trkpt>
<trkpt lat="30.072309" lon="101.141083">
<time>2015-08-06T03:12:26Z</time></trkpt>
<trkpt lat="30.072468" lon="101.140442">
<time>2015-08-06T03:12:27Z</time></trkpt>
<trkpt lat="30.072567" lon="101.140071">
<time>2015-08-06T03:12:28Z</time></trkpt>
<trkpt lat="30.072637" lon="101.139901">
<time>2015-08-06T03:12:29Z</time></trkpt>
<trkpt lat="30.072727" lon="101.139741">
<time>2015-08-06T03:12:30Z</time></trkpt>
<trkpt lat="30.072836" lon="101.139591">
<time>2015-08-06T03:12:31Z</time></trkpt>
<trkpt lat="30.073006" lon="101.139431">
<time>2015-08-06T03:12:32Z</time></trkpt>
<trkpt lat="30.074105" lon="101.138399">
<time>2015-08-06T03:12:33Z</time></trkpt>
<trkpt lat="30.074374" lon="101.138129">
<time>2015-08-06T03:12:34Z</time></trkpt>
<trkpt lat="30.074514" lon="101.138039">
<time>2015-08-06T03:12:35Z</time></trkpt>
<trkpt lat="30.074624" lon="101.137979">
<time>2015-08-06T03:12:36Z</time></trkpt>
<trkpt lat="30.074754" lon="101.137929">
<time>2015-08-06T03:12:37Z</time></trkpt>
<trkpt lat="30.074954" lon="101.137899">
<time>2015-08-06T03:12:38Z</time></trkpt>
<trkpt lat="30.076104" lon="101.137819">
<time>2015-08-06T03:12:39Z</time></trkpt>
<trkpt lat="30.076644" lon="101.137729">
<time>2015-08-06T03:12:40Z</time></trkpt>
<trkpt lat="30.077093" lon="101.137608">
<time>2015-08-06T03:12:41Z</time></trkpt>
<trkpt lat="30.077543" lon="101.137468">
<time>2015-08-06T03:12:42Z</time></trkpt>
<trkpt lat="30.077893" lon="101.137328">
<time>2015-08-06T03:12:43Z</time></trkpt>
<trkpt lat="30.078083" lon="101.137188">
<time>2015-08-06T03:12:44Z</time></trkpt>
<trkpt lat="30.078253" lon="101.137008">
<time>2015-08-06T03:12:45Z</time></trkpt>
<trkpt lat="30.078372" lon="101.136837">
<time>2015-08-06T03:12:46Z</time></trkpt>
<trkpt lat="30.078462" lon="101.136657">
<time>2015-08-06T03:12:47Z</time></trkpt>
<trkpt lat="30.078532" lon="101.136477">
<time>2015-08-06T03:12:48Z</time></trkpt>
<trkpt lat="30.078571" lon="101.136167">
<time>2015-08-06T03:12:49Z</time></trkpt>
<trkpt lat="30.078641" lon="101.135906">
<time>2015-08-06T03:12:50Z</time></trkpt>
<trkpt lat="30.078741" lon="101.135616">
<time>2015-08-06T03:12:51Z</time></trkpt>
<trkpt lat="30.07888" lon="101.135306">
<time>2015-08-06T03:12:52Z</time></trkpt>
<trkpt lat="30.07898" lon="101.135085">
<time>2015-08-06T03:12:53Z</time></trkpt>
<trkpt lat="30.079029" lon="101.134855">
<time>2015-08-06T03:12:54Z</time></trkpt>
<trkpt lat="30.079039" lon="101.134635">
<time>2015-08-06T03:12:55Z</time></trkpt>
<trkpt lat="30.078999" lon="101.134405">
<time>2015-08-06T03:12:56Z</time></trkpt>
<trkpt lat="30.078909" lon="101.134215">
<time>2015-08-06T03:12:57Z</time></trkpt>
<trkpt lat="30.078558" lon="101.133674">
<time>2015-08-06T03:12:58Z</time></trkpt>
<trkpt lat="30.078327" lon="101.133314">
<time>2015-08-06T03:12:59Z</time></trkpt>
<trkpt lat="30.078247" lon="101.133133">
<time>2015-08-06T03:13:00Z</time></trkpt>
<trkpt lat="30.078217" lon="101.132953">
<time>2015-08-06T03:13:01Z</time></trkpt>
<trkpt lat="30.078187" lon="101.132763">
<time>2015-08-06T03:13:02Z</time></trkpt>
<trkpt lat="30.078156" lon="101.132563">
<time>2015-08-06T03:13:03Z</time></trkpt>
<trkpt lat="30.078076" lon="101.132373">
<time>2015-08-06T03:13:04Z</time></trkpt>
<trkpt lat="30.078006" lon="101.132253">
<time>2015-08-06T03:13:05Z</time></trkpt>
<trkpt lat="30.077836" lon="101.132012">
<time>2015-08-06T03:13:06Z</time></trkpt>
<trkpt lat="30.077505" lon="101.131662">
<time>2015-08-06T03:13:07Z</time></trkpt>
<trkpt lat="30.077195" lon="101.131342">
<time>2015-08-06T03:13:08Z</time></trkpt>
<trkpt lat="30.076954" lon="101.131021">
<time>2015-08-06T03:13:09Z</time></trkpt>
<trkpt lat="30.076403" lon="101.12991">
<time>2015-08-06T03:13:10Z</time></trkpt>
<trkpt lat="30.076282" lon="101.12961">
<time>2015-08-06T03:13:11Z</time></trkpt>
<trkpt lat="30.076222" lon="101.12945">
<time>2015-08-06T03:13:12Z</time></trkpt>
<trkpt lat="30.076202" lon="101.12929">
<time>2015-08-06T03:13:13Z</time></trkpt>
<trkpt lat="30.076232" lon="101.12914">
<time>2015-08-06T03:13:14Z</time></trkpt>
<trkpt lat="30.076312" lon="101.1289">
<time>2015-08-06T03:13:15Z</time></trkpt>
<trkpt lat="30.076431" lon="101.128549">
<time>2015-08-06T03:13:16Z</time></trkpt>
<trkpt lat="30.076461" lon="101.128379">
<time>2015-08-06T03:13:17Z</time></trkpt>
<trkpt lat="30.076441" lon="101.128189">
<time>2015-08-06T03:13:18Z</time></trkpt>
<trkpt lat="30.07631" lon="101.127678">
<time>2015-08-06T03:13:19Z</time></trkpt>
<trkpt lat="30.076169" lon="101.127118">
<time>2015-08-06T03:13:20Z</time></trkpt>
<trkpt lat="30.075938" lon="101.126217">
<time>2015-08-06T03:13:21Z</time></trkpt>
<trkpt lat="30.075667" lon="101.125207">
<time>2015-08-06T03:13:22Z</time></trkpt>
<trkpt lat="30.075627" lon="101.125026">
<time>2015-08-06T03:13:23Z</time></trkpt>
<trkpt lat="30.075577" lon="101.124836">
<time>2015-08-06T03:13:24Z</time></trkpt>
<trkpt lat="30.075567" lon="101.124636">
<time>2015-08-06T03:13:25Z</time></trkpt>
<trkpt lat="30.075566" lon="101.124286">
<time>2015-08-06T03:13:26Z</time></trkpt>
<trkpt lat="30.075655" lon="101.123615">
<time>2015-08-06T03:13:27Z</time></trkpt>
<trkpt lat="30.075705" lon="101.123345">
<time>2015-08-06T03:13:28Z</time></trkpt>
<trkpt lat="30.075715" lon="101.123075">
<time>2015-08-06T03:13:29Z</time></trkpt>
<trkpt lat="30.075695" lon="101.122945">
<time>2015-08-06T03:13:30Z</time></trkpt>
<trkpt lat="30.075665" lon="101.122825">
<time>2015-08-06T03:13:31Z</time></trkpt>
<trkpt lat="30.075625" lon="101.122715">
<time>2015-08-06T03:13:32Z</time></trkpt>
<trkpt lat="30.075524" lon="101.122555">
<time>2015-08-06T03:13:33Z</time></trkpt>
<trkpt lat="30.075174" lon="101.121994">
<time>2015-08-06T03:13:34Z</time></trkpt>
<trkpt lat="30.075064" lon="101.121794">
<time>2015-08-06T03:13:35Z</time></trkpt>
<trkpt lat="30.074983" lon="101.121604">
<time>2015-08-06T03:13:36Z</time></trkpt>
<trkpt lat="30.074953" lon="101.121444">
<time>2015-08-06T03:13:37Z</time></trkpt>
<trkpt lat="30.074943" lon="101.121334">
<time>2015-08-06T03:13:38Z</time></trkpt>
<trkpt lat="30.074943" lon="101.121174">
<time>2015-08-06T03:13:39Z</time></trkpt>
<trkpt lat="30.074973" lon="101.121014">
<time>2015-08-06T03:13:40Z</time></trkpt>
<trkpt lat="30.075003" lon="101.120914">
<time>2015-08-06T03:13:41Z</time></trkpt>
<trkpt lat="30.075043" lon="101.120834">
<time>2015-08-06T03:13:42Z</time></trkpt>
<trkpt lat="30.075142" lon="101.120694">
<time>2015-08-06T03:13:43Z</time></trkpt>
<trkpt lat="30.075252" lon="101.120584">
<time>2015-08-06T03:13:44Z</time></trkpt>
<trkpt lat="30.075392" lon="101.120453">
<time>2015-08-06T03:13:45Z</time></trkpt>
<trkpt lat="30.075452" lon="101.120353">
<time>2015-08-06T03:13:46Z</time></trkpt>
<trkpt lat="30.075522" lon="101.120243">
<time>2015-08-06T03:13:47Z</time></trkpt>
<trkpt lat="30.075622" lon="101.120013">
<time>2015-08-06T03:13:48Z</time></trkpt>
<trkpt lat="30.075712" lon="101.119683">
<time>2015-08-06T03:13:49Z</time></trkpt>
<trkpt lat="30.075861" lon="101.119083">
<time>2015-08-06T03:13:50Z</time></trkpt>
<trkpt lat="30.075921" lon="101.118853">
<time>2015-08-06T03:13:51Z</time></trkpt>
<trkpt lat="30.076001" lon="101.118693">
<time>2015-08-06T03:13:52Z</time></trkpt>
<trkpt lat="30.076081" lon="101.118572">
<time>2015-08-06T03:13:53Z</time></trkpt>
<trkpt lat="30.07622" lon="101.118382">
<time>2015-08-06T03:13:54Z</time></trkpt>
<trkpt lat="30.07627" lon="101.118302">
<time>2015-08-06T03:13:55Z</time></trkpt>
<trkpt lat="30.0763" lon="101.118242">
<time>2015-08-06T03:13:56Z</time></trkpt>
<trkpt lat="30.07631" lon="101.118182">
<time>2015-08-06T03:13:57Z</time></trkpt>
<trkpt lat="30.07632" lon="101.118092">
<time>2015-08-06T03:13:58Z</time></trkpt>
<trkpt lat="30.07631" lon="101.118002">
<time>2015-08-06T03:13:59Z</time></trkpt>
<trkpt lat="30.07629" lon="101.117722">
<time>2015-08-06T03:14:00Z</time></trkpt>
<trkpt lat="30.07625" lon="101.117542">
<time>2015-08-06T03:14:01Z</time></trkpt>
<trkpt lat="30.076159" lon="101.117012">
<time>2015-08-06T03:14:02Z</time></trkpt>
<trkpt lat="30.076079" lon="101.116532">
<time>2015-08-06T03:14:03Z</time></trkpt>
<trkpt lat="30.076039" lon="101.116312">
<time>2015-08-06T03:14:04Z</time></trkpt>
<trkpt lat="30.075938" lon="101.115781">
<time>2015-08-06T03:14:05Z</time></trkpt>
<trkpt lat="30.075868" lon="101.115561">
<time>2015-08-06T03:14:06Z</time></trkpt>
<trkpt lat="30.075718" lon="101.115181">
<time>2015-08-06T03:14:07Z</time></trkpt>
<trkpt lat="30.075607" lon="101.114931">
<time>2015-08-06T03:14:08Z</time></trkpt>
<trkpt lat="30.075517" lon="101.114751">
<time>2015-08-06T03:14:09Z</time></trkpt>
<trkpt lat="30.075317" lon="101.114451">
<time>2015-08-06T03:14:10Z</time></trkpt>
<trkpt lat="30.075087" lon="101.114141">
<time>2015-08-06T03:14:11Z</time></trkpt>
<trkpt lat="30.075037" lon="101.114051">
<time>2015-08-06T03:14:12Z</time></trkpt>
<trkpt lat="30.074977" lon="101.113921">
<time>2015-08-06T03:14:13Z</time></trkpt>
<trkpt lat="30.074937" lon="101.113761">
<time>2015-08-06T03:14:14Z</time></trkpt>
<trkpt lat="30.074937" lon="101.113601">
<time>2015-08-06T03:14:15Z</time></trkpt>
<trkpt lat="30.074946" lon="101.113511">
<time>2015-08-06T03:14:16Z</time></trkpt>
<trkpt lat="30.074986" lon="101.113411">
<time>2015-08-06T03:14:17Z</time></trkpt>
<trkpt lat="30.075036" lon="101.113321">
<time>2015-08-06T03:14:18Z</time></trkpt>
<trkpt lat="30.075116" lon="101.113181">
<time>2015-08-06T03:14:19Z</time></trkpt>
<trkpt lat="30.075286" lon="101.112891">
<time>2015-08-06T03:14:20Z</time></trkpt>
<trkpt lat="30.075586" lon="101.11239">
<time>2015-08-06T03:14:21Z</time></trkpt>
<trkpt lat="30.075696" lon="101.11218">
<time>2015-08-06T03:14:22Z</time></trkpt>
<trkpt lat="30.075815" lon="101.11197">
<time>2015-08-06T03:14:23Z</time></trkpt>
<trkpt lat="30.075875" lon="101.11178">
<time>2015-08-06T03:14:24Z</time></trkpt>
<trkpt lat="30.075895" lon="101.11168">
<time>2015-08-06T03:14:25Z</time></trkpt>
<trkpt lat="30.075905" lon="101.11152">
<time>2015-08-06T03:14:26Z</time></trkpt>
<trkpt lat="30.075875" lon="101.11106">
<time>2015-08-06T03:14:27Z</time></trkpt>
<trkpt lat="30.075855" lon="101.11078">
<time>2015-08-06T03:14:28Z</time></trkpt>
<trkpt lat="30.075865" lon="101.11056">
<time>2015-08-06T03:14:29Z</time></trkpt>
<trkpt lat="30.075924" lon="101.1103">
<time>2015-08-06T03:14:30Z</time></trkpt>
<trkpt lat="30.075984" lon="101.11007">
<time>2015-08-06T03:14:31Z</time></trkpt>
<trkpt lat="30.076054" lon="101.10989">
<time>2015-08-06T03:14:32Z</time></trkpt>
<trkpt lat="30.076134" lon="101.10978">
<time>2015-08-06T03:14:33Z</time></trkpt>
<trkpt lat="30.076244" lon="101.10964">
<time>2015-08-06T03:14:34Z</time></trkpt>
<trkpt lat="30.076424" lon="101.10944">
<time>2015-08-06T03:14:35Z</time></trkpt>
<trkpt lat="30.076514" lon="101.10933">
<time>2015-08-06T03:14:36Z</time></trkpt>
<trkpt lat="30.076564" lon="101.10924">
<time>2015-08-06T03:14:37Z</time></trkpt>
<trkpt lat="30.076594" lon="101.10913">
<time>2015-08-06T03:14:38Z</time></trkpt>
<trkpt lat="30.076614" lon="101.10901">
<time>2015-08-06T03:14:39Z</time></trkpt>
<trkpt lat="30.076614" lon="101.10888">
<time>2015-08-06T03:14:40Z</time></trkpt>
<trkpt lat="30.076604" lon="101.10875">
<time>2015-08-06T03:14:41Z</time></trkpt>
<trkpt lat="30.076503" lon="101.10847">
<time>2015-08-06T03:14:42Z</time></trkpt>
<trkpt lat="30.076253" lon="101.1078">
<time>2015-08-06T03:14:43Z</time></trkpt>
<trkpt lat="30.075903" lon="101.10691">
<time>2015-08-06T03:14:44Z</time></trkpt>
<trkpt lat="30.075712" lon="101.10639">
<time>2015-08-06T03:14:45Z</time></trkpt>
<trkpt lat="30.075642" lon="101.10619">
<time>2015-08-06T03:14:46Z</time></trkpt>
<trkpt lat="30.075562" lon="101.10602">
<time>2015-08-06T03:14:47Z</time></trkpt>
<trkpt lat="30.075482" lon="101.10587">
<time>2015-08-06T03:14:48Z</time></trkpt>
<trkpt lat="30.075352" lon="101.10571">
<time>2015-08-06T03:14:49Z</time></trkpt>
<trkpt lat="30.075162" lon="101.10554">
<time>2015-08-06T03:14:50Z</time></trkpt>
<trkpt lat="30.074632" lon="101.1051">
<time>2015-08-06T03:14:51Z</time></trkpt>
<trkpt lat="30.074252" lon="101.10479">
<time>2015-08-06T03:14:52Z</time></trkpt>
<trkpt lat="30.073992" lon="101.10458">
<time>2015-08-06T03:14:53Z</time></trkpt>
<trkpt lat="30.073882" lon="101.10446">
<time>2015-08-06T03:14:54Z</time></trkpt>
<trkpt lat="30.073782" lon="101.10434">
<time>2015-08-06T03:14:55Z</time></trkpt>
<trkpt lat="30.073722" lon="101.10424">
<time>2015-08-06T03:14:56Z</time></trkpt>
<trkpt lat="30.073702" lon="101.10417">
<time>2015-08-06T03:14:57Z</time></trkpt>
<trkpt lat="30.073682" lon="101.1041">
<time>2015-08-06T03:14:58Z</time></trkpt>
<trkpt lat="30.073621" lon="101.10369">
<time>2015-08-06T03:14:59Z</time></trkpt>
<trkpt lat="30.073581" lon="101.103221">
<time>2015-08-06T03:15:00Z</time></trkpt>
<trkpt lat="30.073581" lon="101.103041">
<time>2015-08-06T03:15:01Z</time></trkpt>
<trkpt lat="30.073591" lon="101.102901">
<time>2015-08-06T03:15:02Z</time></trkpt>
<trkpt lat="30.073621" lon="101.102771">
<time>2015-08-06T03:15:03Z</time></trkpt>
<trkpt lat="30.073721" lon="101.102461">
<time>2015-08-06T03:15:04Z</time></trkpt>
<trkpt lat="30.073791" lon="101.102291">
<time>2015-08-06T03:15:05Z</time></trkpt>
<trkpt lat="30.074011" lon="101.101791">
<time>2015-08-06T03:15:06Z</time></trkpt>
<trkpt lat="30.074091" lon="101.101601">
<time>2015-08-06T03:15:07Z</time></trkpt>
<trkpt lat="30.074141" lon="101.101401">
<time>2015-08-06T03:15:08Z</time></trkpt>
<trkpt lat="30.074221" lon="101.100861">
<time>2015-08-06T03:15:09Z</time></trkpt>
<trkpt lat="30.074291" lon="101.100301">
<time>2015-08-06T03:15:10Z</time></trkpt>
<trkpt lat="30.074321" lon="101.100101">
<time>2015-08-06T03:15:11Z</time></trkpt>
<trkpt lat="30.074401" lon="101.099612">
<time>2015-08-06T03:15:12Z</time></trkpt>
<trkpt lat="30.07444" lon="101.099442">
<time>2015-08-06T03:15:13Z</time></trkpt>
<trkpt lat="30.0745" lon="101.099302">
<time>2015-08-06T03:15:14Z</time></trkpt>
<trkpt lat="30.0746" lon="101.099092">
<time>2015-08-06T03:15:15Z</time></trkpt>
<trkpt lat="30.0748" lon="101.098762">
<time>2015-08-06T03:15:16Z</time></trkpt>
<trkpt lat="30.07495" lon="101.098462">
<time>2015-08-06T03:15:17Z</time></trkpt>
<trkpt lat="30.075" lon="101.098352">
<time>2015-08-06T03:15:18Z</time></trkpt>
<trkpt lat="30.07502" lon="101.098242">
<time>2015-08-06T03:15:19Z</time></trkpt>
<trkpt lat="30.07503" lon="101.098142">
<time>2015-08-06T03:15:20Z</time></trkpt>
<trkpt lat="30.07502" lon="101.098012">
<time>2015-08-06T03:15:21Z</time></trkpt>
<trkpt lat="30.07497" lon="101.097713">
<time>2015-08-06T03:15:22Z</time></trkpt>
<trkpt lat="30.0749" lon="101.097453">
<time>2015-08-06T03:15:23Z</time></trkpt>
<trkpt lat="30.07483" lon="101.097243">
<time>2015-08-06T03:15:24Z</time></trkpt>
<trkpt lat="30.07477" lon="101.097093">
<time>2015-08-06T03:15:25Z</time></trkpt>
<trkpt lat="30.0745" lon="101.096663">
<time>2015-08-06T03:15:26Z</time></trkpt>
<trkpt lat="30.07403" lon="101.095894">
<time>2015-08-06T03:15:27Z</time></trkpt>
<trkpt lat="30.07373" lon="101.095394">
<time>2015-08-06T03:15:28Z</time></trkpt>
<trkpt lat="30.07366" lon="101.095334">
<time>2015-08-06T03:15:29Z</time></trkpt>
<trkpt lat="30.07361" lon="101.095284">
<time>2015-08-06T03:15:30Z</time></trkpt>
<trkpt lat="30.07354" lon="101.095254">
<time>2015-08-06T03:15:31Z</time></trkpt>
<trkpt lat="30.07346" lon="101.095234">
<time>2015-08-06T03:15:32Z</time></trkpt>
<trkpt lat="30.07341" lon="101.095234">
<time>2015-08-06T03:15:33Z</time></trkpt>
<trkpt lat="30.07334" lon="101.095234">
<time>2015-08-06T03:15:34Z</time></trkpt>
<trkpt lat="30.07324" lon="101.095254">
<time>2015-08-06T03:15:35Z</time></trkpt>
<trkpt lat="30.0731" lon="101.095294">
<time>2015-08-06T03:15:36Z</time></trkpt>
<trkpt lat="30.07262" lon="101.095434">
<time>2015-08-06T03:15:37Z</time></trkpt>
<trkpt lat="30.07238" lon="101.095484">
<time>2015-08-06T03:15:38Z</time></trkpt>
<trkpt lat="30.07218" lon="101.095534">
<time>2015-08-06T03:15:39Z</time></trkpt>
<trkpt lat="30.0717" lon="101.095764">
<time>2015-08-06T03:15:40Z</time></trkpt>
<trkpt lat="30.0716" lon="101.095804">
<time>2015-08-06T03:15:41Z</time></trkpt>
<trkpt lat="30.07154" lon="101.095804">
<time>2015-08-06T03:15:42Z</time></trkpt>
<trkpt lat="30.07148" lon="101.095804">
<time>2015-08-06T03:15:43Z</time></trkpt>
<trkpt lat="30.07143" lon="101.095804">
<time>2015-08-06T03:15:44Z</time></trkpt>
<trkpt lat="30.07135" lon="101.095764">
<time>2015-08-06T03:15:45Z</time></trkpt>
<trkpt lat="30.07127" lon="101.095714">
<time>2015-08-06T03:15:46Z</time></trkpt>
<trkpt lat="30.07109" lon="101.095534">
<time>2015-08-06T03:15:47Z</time></trkpt>
<trkpt lat="30.07085" lon="101.095284">
<time>2015-08-06T03:15:48Z</time></trkpt>
<trkpt lat="30.0707" lon="101.095104">
<time>2015-08-06T03:15:49Z</time></trkpt>
<trkpt lat="30.07052" lon="101.094934">
<time>2015-08-06T03:15:50Z</time></trkpt>
<trkpt lat="30.07043" lon="101.094834">
<time>2015-08-06T03:15:51Z</time></trkpt>
<trkpt lat="30.07035" lon="101.094754">
<time>2015-08-06T03:15:52Z</time></trkpt>
<trkpt lat="30.07028" lon="101.094704">
<time>2015-08-06T03:15:53Z</time></trkpt>
<trkpt lat="30.07019" lon="101.094644">
<time>2015-08-06T03:15:54Z</time></trkpt>
<trkpt lat="30.07008" lon="101.094595">
<time>2015-08-06T03:15:55Z</time></trkpt>
<trkpt lat="30.07001" lon="101.094565">
<time>2015-08-06T03:15:56Z</time></trkpt>
<trkpt lat="30.06991" lon="101.094545">
<time>2015-08-06T03:15:57Z</time></trkpt>
<trkpt lat="30.06955" lon="101.094465">
<time>2015-08-06T03:15:58Z</time></trkpt>
<trkpt lat="30.06947" lon="101.094435">
<time>2015-08-06T03:15:59Z</time></trkpt>
<trkpt lat="30.06939" lon="101.094395">
<time>2015-08-06T03:16:00Z</time></trkpt>
<trkpt lat="30.06926" lon="101.094305">
<time>2015-08-06T03:16:01Z</time></trkpt>
<trkpt lat="30.06894" lon="101.094045">
<time>2015-08-06T03:16:02Z</time></trkpt>
<trkpt lat="30.06859" lon="101.093785">
<time>2015-08-06T03:16:03Z</time></trkpt>
<trkpt lat="30.06813" lon="101.093405">
<time>2015-08-06T03:16:04Z</time></trkpt>
<trkpt lat="30.067751" lon="101.093046">
<time>2015-08-06T03:16:05Z</time></trkpt>
<trkpt lat="30.067521" lon="101.092836">
<time>2015-08-06T03:16:06Z</time></trkpt>
<trkpt lat="30.067411" lon="101.092696">
<time>2015-08-06T03:16:07Z</time></trkpt>
<trkpt lat="30.067321" lon="101.092556">
<time>2015-08-06T03:16:08Z</time></trkpt>
<trkpt lat="30.067281" lon="101.092456">
<time>2015-08-06T03:16:09Z</time></trkpt>
<trkpt lat="30.067241" lon="101.092336">
<time>2015-08-06T03:16:10Z</time></trkpt>
<trkpt lat="30.067171" lon="101.092156">
<time>2015-08-06T03:16:11Z</time></trkpt>
<trkpt lat="30.067081" lon="101.092007">
<time>2015-08-06T03:16:12Z</time></trkpt>
<trkpt lat="30.066991" lon="101.091867">
<time>2015-08-06T03:16:13Z</time></trkpt>
<trkpt lat="30.066851" lon="101.091667">
<time>2015-08-06T03:16:14Z</time></trkpt>
<trkpt lat="30.066701" lon="101.091487">
<time>2015-08-06T03:16:15Z</time></trkpt>
<trkpt lat="30.066641" lon="101.091407">
<time>2015-08-06T03:16:16Z</time></trkpt>
<trkpt lat="30.066581" lon="101.091297">
<time>2015-08-06T03:16:17Z</time></trkpt>
<trkpt lat="30.066501" lon="101.091097">
<time>2015-08-06T03:16:18Z</time></trkpt>
<trkpt lat="30.066431" lon="101.090967">
<time>2015-08-06T03:16:19Z</time></trkpt>
<trkpt lat="30.066311" lon="101.090748">
<time>2015-08-06T03:16:20Z</time></trkpt>
<trkpt lat="30.066271" lon="101.090668">
<time>2015-08-06T03:16:21Z</time></trkpt>
<trkpt lat="30.066161" lon="101.090538">
<time>2015-08-06T03:16:22Z</time></trkpt>
<trkpt lat="30.066091" lon="101.090478">
<time>2015-08-06T03:16:23Z</time></trkpt>
<trkpt lat="30.066011" lon="101.090418">
<time>2015-08-06T03:16:24Z</time></trkpt>
<trkpt lat="30.065921" lon="101.090378">
<time>2015-08-06T03:16:25Z</time></trkpt>
<trkpt lat="30.065831" lon="101.090348">
<time>2015-08-06T03:16:26Z</time></trkpt>
<trkpt lat="30.065761" lon="101.090328">
<time>2015-08-06T03:16:27Z</time></trkpt>
<trkpt lat="30.065621" lon="101.090268">
<time>2015-08-06T03:16:28Z</time></trkpt>
<trkpt lat="30.065391" lon="101.090138">
<time>2015-08-06T03:16:29Z</time></trkpt>
<trkpt lat="30.065301" lon="101.090088">
<time>2015-08-06T03:16:30Z</time></trkpt>
<trkpt lat="30.065221" lon="101.090038">
<time>2015-08-06T03:16:31Z</time></trkpt>
<trkpt lat="30.065151" lon="101.090008">
<time>2015-08-06T03:16:32Z</time></trkpt>
<trkpt lat="30.065001" lon="101.089958">
<time>2015-08-06T03:16:33Z</time></trkpt>
<trkpt lat="30.064911" lon="101.089918">
<time>2015-08-06T03:16:34Z</time></trkpt>
<trkpt lat="30.064791" lon="101.089858">
<time>2015-08-06T03:16:35Z</time></trkpt>
<trkpt lat="30.064721" lon="101.089808">
<time>2015-08-06T03:16:36Z</time></trkpt>
<trkpt lat="30.064571" lon="101.089669">
<time>2015-08-06T03:16:37Z</time></trkpt>
<trkpt lat="30.064461" lon="101.089569">
<time>2015-08-06T03:16:38Z</time></trkpt>
<trkpt lat="30.064351" lon="101.089499">
<time>2015-08-06T03:16:39Z</time></trkpt>
<trkpt lat="30.064261" lon="101.089449">
<time>2015-08-06T03:16:40Z</time></trkpt>
<trkpt lat="30.064111" lon="101.089369">
<time>2015-08-06T03:16:41Z</time></trkpt>
<trkpt lat="30.064021" lon="101.089309">
<time>2015-08-06T03:16:42Z</time></trkpt>
<trkpt lat="30.063951" lon="101.089249">
<time>2015-08-06T03:16:43Z</time></trkpt>
<trkpt lat="30.063881" lon="101.089189">
<time>2015-08-06T03:16:44Z</time></trkpt>
<trkpt lat="30.063841" lon="101.089139">
<time>2015-08-06T03:16:45Z</time></trkpt>
<trkpt lat="30.063701" lon="101.088939">
<time>2015-08-06T03:16:46Z</time></trkpt>
<trkpt lat="30.063641" lon="101.088859">
<time>2015-08-06T03:16:47Z</time></trkpt>
<trkpt lat="30.063552" lon="101.08875">
<time>2015-08-06T03:16:48Z</time></trkpt>
<trkpt lat="30.063422" lon="101.08864">
<time>2015-08-06T03:16:49Z</time></trkpt>
<trkpt lat="30.063252" lon="101.08849">
<time>2015-08-06T03:16:50Z</time></trkpt>
<trkpt lat="30.063122" lon="101.08834">
<time>2015-08-06T03:16:51Z</time></trkpt>
<trkpt lat="30.063002" lon="101.08817">
<time>2015-08-06T03:16:52Z</time></trkpt>
<trkpt lat="30.062892" lon="101.08797">
<time>2015-08-06T03:16:53Z</time></trkpt>
<trkpt lat="30.062782" lon="101.08782">
<time>2015-08-06T03:16:54Z</time></trkpt>
<trkpt lat="30.062662" lon="101.087681">
<time>2015-08-06T03:16:55Z</time></trkpt>
<trkpt lat="30.062532" lon="101.087561">
<time>2015-08-06T03:16:56Z</time></trkpt>
<trkpt lat="30.062322" lon="101.087331">
<time>2015-08-06T03:16:57Z</time></trkpt>
<trkpt lat="30.062202" lon="101.087171">
<time>2015-08-06T03:16:58Z</time></trkpt>
<trkpt lat="30.061972" lon="101.086782">
<time>2015-08-06T03:16:59Z</time></trkpt>
<trkpt lat="30.061832" lon="101.086542">
<time>2015-08-06T03:17:00Z</time></trkpt>
<trkpt lat="30.061683" lon="101.086222">
<time>2015-08-06T03:17:01Z</time></trkpt>
<trkpt lat="30.061643" lon="101.086062">
<time>2015-08-06T03:17:02Z</time></trkpt>
<trkpt lat="30.061593" lon="101.085803">
<time>2015-08-06T03:17:03Z</time></trkpt>
<trkpt lat="30.061563" lon="101.085613">
<time>2015-08-06T03:17:04Z</time></trkpt>
<trkpt lat="30.061543" lon="101.085513">
<time>2015-08-06T03:17:05Z</time></trkpt>
<trkpt lat="30.061503" lon="101.085403">
<time>2015-08-06T03:17:06Z</time></trkpt>
<trkpt lat="30.061433" lon="101.085263">
<time>2015-08-06T03:17:07Z</time></trkpt>
<trkpt lat="30.061293" lon="101.085054">
<time>2015-08-06T03:17:08Z</time></trkpt>
<trkpt lat="30.060983" lon="101.084654">
<time>2015-08-06T03:17:09Z</time></trkpt>
<trkpt lat="30.060713" lon="101.084344">
<time>2015-08-06T03:17:10Z</time></trkpt>
<trkpt lat="30.060554" lon="101.084135">
<time>2015-08-06T03:17:11Z</time></trkpt>
<trkpt lat="30.060444" lon="101.083925">
<time>2015-08-06T03:17:12Z</time></trkpt>
<trkpt lat="30.060364" lon="101.083735">
<time>2015-08-06T03:17:13Z</time></trkpt>
<trkpt lat="30.060114" lon="101.083006">
<time>2015-08-06T03:17:14Z</time></trkpt>
<trkpt lat="30.059974" lon="101.082607">
<time>2015-08-06T03:17:15Z</time></trkpt>
<trkpt lat="30.059935" lon="101.082397">
<time>2015-08-06T03:17:16Z</time></trkpt>
<trkpt lat="30.059915" lon="101.082227">
<time>2015-08-06T03:17:17Z</time></trkpt>
<trkpt lat="30.059935" lon="101.081967">
<time>2015-08-06T03:17:18Z</time></trkpt>
<trkpt lat="30.059975" lon="101.081328">
<time>2015-08-06T03:17:19Z</time></trkpt>
<trkpt lat="30.059995" lon="101.081109">
<time>2015-08-06T03:17:20Z</time></trkpt>
<trkpt lat="30.060016" lon="101.080979">
<time>2015-08-06T03:17:21Z</time></trkpt>
<trkpt lat="30.060056" lon="101.080789">
<time>2015-08-06T03:17:22Z</time></trkpt>
<trkpt lat="30.060116" lon="101.080639">
<time>2015-08-06T03:17:23Z</time></trkpt>
<trkpt lat="30.060206" lon="101.080449">
<time>2015-08-06T03:17:24Z</time></trkpt>
<trkpt lat="30.060346" lon="101.0802">
<time>2015-08-06T03:17:25Z</time></trkpt>
<trkpt lat="30.060406" lon="101.08006">
<time>2015-08-06T03:17:26Z</time></trkpt>
<trkpt lat="30.060456" lon="101.07985">
<time>2015-08-06T03:17:27Z</time></trkpt>
<trkpt lat="30.060567" lon="101.079311">
<time>2015-08-06T03:17:28Z</time></trkpt>
<trkpt lat="30.060607" lon="101.079121">
<time>2015-08-06T03:17:29Z</time></trkpt>
<trkpt lat="30.060677" lon="101.078882">
<time>2015-08-06T03:17:30Z</time></trkpt>
<trkpt lat="30.060707" lon="101.078592">
<time>2015-08-06T03:17:31Z</time></trkpt>
<trkpt lat="30.060717" lon="101.078462">
<time>2015-08-06T03:17:32Z</time></trkpt>
<trkpt lat="30.060688" lon="101.078253">
<time>2015-08-06T03:17:33Z</time></trkpt>
<trkpt lat="30.060628" lon="101.078003">
<time>2015-08-06T03:17:34Z</time></trkpt>
<trkpt lat="30.060588" lon="101.077873">
<time>2015-08-06T03:17:35Z</time></trkpt>
<trkpt lat="30.060488" lon="101.077704">
<time>2015-08-06T03:17:36Z</time></trkpt>
<trkpt lat="30.060168" lon="101.077244">
<time>2015-08-06T03:17:37Z</time></trkpt>
<trkpt lat="30.060079" lon="101.077094">
<time>2015-08-06T03:17:38Z</time></trkpt>
<trkpt lat="30.059989" lon="101.076915">
<time>2015-08-06T03:17:39Z</time></trkpt>
<trkpt lat="30.059949" lon="101.076835">
<time>2015-08-06T03:17:40Z</time></trkpt>
<trkpt lat="30.059789" lon="101.076655">
<time>2015-08-06T03:17:41Z</time></trkpt>
<trkpt lat="30.059629" lon="101.076545">
<time>2015-08-06T03:17:42Z</time></trkpt>
<trkpt lat="30.059239" lon="101.076356">
<time>2015-08-06T03:17:43Z</time></trkpt>
<trkpt lat="30.059179" lon="101.076326">
<time>2015-08-06T03:17:44Z</time></trkpt>
<trkpt lat="30.059099" lon="101.076266">
<time>2015-08-06T03:17:45Z</time></trkpt>
<trkpt lat="30.059039" lon="101.076196">
<time>2015-08-06T03:17:46Z</time></trkpt>
<trkpt lat="30.058959" lon="101.076086">
<time>2015-08-06T03:17:47Z</time></trkpt>
<trkpt lat="30.05886" lon="101.075936">
<time>2015-08-06T03:17:48Z</time></trkpt>
<trkpt lat="30.05874" lon="101.075757">
<time>2015-08-06T03:17:49Z</time></trkpt>
<trkpt lat="30.05868" lon="101.075657">
<time>2015-08-06T03:17:50Z</time></trkpt>
<trkpt lat="30.05862" lon="101.075507">
<time>2015-08-06T03:17:51Z</time></trkpt>
<trkpt lat="30.05858" lon="101.075347">
<time>2015-08-06T03:17:52Z</time></trkpt>
<trkpt lat="30.05856" lon="101.075228">
<time>2015-08-06T03:17:53Z</time></trkpt>
<trkpt lat="30.05854" lon="101.075058">
<time>2015-08-06T03:17:54Z</time></trkpt>
<trkpt lat="30.058481" lon="101.074429">
<time>2015-08-06T03:17:55Z</time></trkpt>
<trkpt lat="30.058451" lon="101.074119">
<time>2015-08-06T03:17:56Z</time></trkpt>
<trkpt lat="30.058392" lon="101.07386">
<time>2015-08-06T03:17:57Z</time></trkpt>
<trkpt lat="30.058372" lon="101.07379">
<time>2015-08-06T03:17:58Z</time></trkpt>
<trkpt lat="30.058342" lon="101.07372">
<time>2015-08-06T03:17:59Z</time></trkpt>
<trkpt lat="30.058262" lon="101.07357">
<time>2015-08-06T03:18:00Z</time></trkpt>
<trkpt lat="30.057992" lon="101.073161">
<time>2015-08-06T03:18:01Z</time></trkpt>
<trkpt lat="30.057713" lon="101.072762">
<time>2015-08-06T03:18:02Z</time></trkpt>
<trkpt lat="30.057283" lon="101.072213">
<time>2015-08-06T03:18:03Z</time></trkpt>
<trkpt lat="30.057223" lon="101.072113">
<time>2015-08-06T03:18:04Z</time></trkpt>
<trkpt lat="30.057164" lon="101.071983">
<time>2015-08-06T03:18:05Z</time></trkpt>
<trkpt lat="30.057134" lon="101.071874">
<time>2015-08-06T03:18:06Z</time></trkpt>
<trkpt lat="30.057124" lon="101.071754">
<time>2015-08-06T03:18:07Z</time></trkpt>
<trkpt lat="30.057134" lon="101.071484">
<time>2015-08-06T03:18:08Z</time></trkpt>
<trkpt lat="30.057144" lon="101.071275">
<time>2015-08-06T03:18:09Z</time></trkpt>
<trkpt lat="30.057135" lon="101.071145">
<time>2015-08-06T03:18:10Z</time></trkpt>
<trkpt lat="30.057105" lon="101.070995">
<time>2015-08-06T03:18:11Z</time></trkpt>
<trkpt lat="30.057035" lon="101.070726">
<time>2015-08-06T03:18:12Z</time></trkpt>
<trkpt lat="30.056915" lon="101.070356">
<time>2015-08-06T03:18:13Z</time></trkpt>
<trkpt lat="30.056846" lon="101.070167">
<time>2015-08-06T03:18:14Z</time></trkpt>
<trkpt lat="30.056766" lon="101.069987">
<time>2015-08-06T03:18:15Z</time></trkpt>
<trkpt lat="30.056676" lon="101.069847">
<time>2015-08-06T03:18:16Z</time></trkpt>
<trkpt lat="30.056626" lon="101.069788">
<time>2015-08-06T03:18:17Z</time></trkpt>
<trkpt lat="30.056526" lon="101.069678">
<time>2015-08-06T03:18:18Z</time></trkpt>
<trkpt lat="30.056077" lon="101.069378">
<time>2015-08-06T03:18:19Z</time></trkpt>
<trkpt lat="30.055927" lon="101.069249">
<time>2015-08-06T03:18:20Z</time></trkpt>
<trkpt lat="30.055797" lon="101.069109">
<time>2015-08-06T03:18:21Z</time></trkpt>
<trkpt lat="30.055737" lon="101.069019">
<time>2015-08-06T03:18:22Z</time></trkpt>
<trkpt lat="30.055687" lon="101.068889">
<time>2015-08-06T03:18:23Z</time></trkpt>
<trkpt lat="30.055578" lon="101.06861">
<time>2015-08-06T03:18:24Z</time></trkpt>
<trkpt lat="30.055518" lon="101.06848">
<time>2015-08-06T03:18:25Z</time></trkpt>
<trkpt lat="30.055418" lon="101.06838">
<time>2015-08-06T03:18:26Z</time></trkpt>
<trkpt lat="30.055118" lon="101.068181">
<time>2015-08-06T03:18:27Z</time></trkpt>
<trkpt lat="30.055018" lon="101.068091">
<time>2015-08-06T03:18:28Z</time></trkpt>
<trkpt lat="30.054928" lon="101.067991">
<time>2015-08-06T03:18:29Z</time></trkpt>
<trkpt lat="30.054838" lon="101.067841">
<time>2015-08-06T03:18:30Z</time></trkpt>
<trkpt lat="30.054729" lon="101.067592">
<time>2015-08-06T03:18:31Z</time></trkpt>
<trkpt lat="30.054659" lon="101.067333">
<time>2015-08-06T03:18:32Z</time></trkpt>
<trkpt lat="30.05455" lon="101.066834">
<time>2015-08-06T03:18:33Z</time></trkpt>
<trkpt lat="30.05439" lon="101.066424">
<time>2015-08-06T03:18:34Z</time></trkpt>
<trkpt lat="30.054331" lon="101.066285">
<time>2015-08-06T03:18:35Z</time></trkpt>
<trkpt lat="30.054261" lon="101.066135">
<time>2015-08-06T03:18:36Z</time></trkpt>
<trkpt lat="30.054071" lon="101.065886">
<time>2015-08-06T03:18:37Z</time></trkpt>
<trkpt lat="30.053722" lon="101.065546">
<time>2015-08-06T03:18:38Z</time></trkpt>
<trkpt lat="30.053382" lon="101.065237">
<time>2015-08-06T03:18:39Z</time></trkpt>
<trkpt lat="30.053212" lon="101.065097">
<time>2015-08-06T03:18:40Z</time></trkpt>
<trkpt lat="30.053052" lon="101.064988">
<time>2015-08-06T03:18:41Z</time></trkpt>
<trkpt lat="30.052912" lon="101.064908">
<time>2015-08-06T03:18:42Z</time></trkpt>
<trkpt lat="30.052763" lon="101.064828">
<time>2015-08-06T03:18:43Z</time></trkpt>
<trkpt lat="30.052653" lon="101.064788">
<time>2015-08-06T03:18:44Z</time></trkpt>
<trkpt lat="30.052423" lon="101.064708">
<time>2015-08-06T03:18:45Z</time></trkpt>
<trkpt lat="30.052133" lon="101.064638">
<time>2015-08-06T03:18:46Z</time></trkpt>
<trkpt lat="30.051873" lon="101.064599">
<time>2015-08-06T03:18:47Z</time></trkpt>
<trkpt lat="30.051663" lon="101.064569">
<time>2015-08-06T03:18:48Z</time></trkpt>
<trkpt lat="30.051503" lon="101.064529">
<time>2015-08-06T03:18:49Z</time></trkpt>
<trkpt lat="30.051353" lon="101.064469">
<time>2015-08-06T03:18:50Z</time></trkpt>
<trkpt lat="30.051283" lon="101.064429">
<time>2015-08-06T03:18:51Z</time></trkpt>
<trkpt lat="30.051213" lon="101.064359">
<time>2015-08-06T03:18:52Z</time></trkpt>
<trkpt lat="30.051153" lon="101.064279">
<time>2015-08-06T03:18:53Z</time></trkpt>
<trkpt lat="30.051083" lon="101.06416">
<time>2015-08-06T03:18:54Z</time></trkpt>
<trkpt lat="30.050934" lon="101.063701">
<time>2015-08-06T03:18:55Z</time></trkpt>
<trkpt lat="30.050855" lon="101.063421">
<time>2015-08-06T03:18:56Z</time></trkpt>
<trkpt lat="30.050815" lon="101.063242">
<time>2015-08-06T03:18:57Z</time></trkpt>
<trkpt lat="30.050815" lon="101.063082">
<time>2015-08-06T03:18:58Z</time></trkpt>
<trkpt lat="30.050815" lon="101.062942">
<time>2015-08-06T03:18:59Z</time></trkpt>
<trkpt lat="30.050846" lon="101.062703">
<time>2015-08-06T03:19:00Z</time></trkpt>
<trkpt lat="30.050896" lon="101.062503">
<time>2015-08-06T03:19:01Z</time></trkpt>
<trkpt lat="30.050976" lon="101.062254">
<time>2015-08-06T03:19:02Z</time></trkpt>
<trkpt lat="30.051027" lon="101.062104">
<time>2015-08-06T03:19:03Z</time></trkpt>
<trkpt lat="30.051077" lon="101.061945">
<time>2015-08-06T03:19:04Z</time></trkpt>
<trkpt lat="30.051127" lon="101.061566">
<time>2015-08-06T03:19:05Z</time></trkpt>
<trkpt lat="30.051299" lon="101.060628">
<time>2015-08-06T03:19:06Z</time></trkpt>
<trkpt lat="30.05139" lon="101.060019">
<time>2015-08-06T03:19:07Z</time></trkpt>
<trkpt lat="30.051511" lon="101.0595">
<time>2015-08-06T03:19:08Z</time></trkpt>
<trkpt lat="30.051621" lon="101.059082">
<time>2015-08-06T03:19:09Z</time></trkpt>
<trkpt lat="30.051883" lon="101.058313">
<time>2015-08-06T03:19:10Z</time></trkpt>
<trkpt lat="30.051903" lon="101.058224">
<time>2015-08-06T03:19:11Z</time></trkpt>
<trkpt lat="30.051913" lon="101.058134">
<time>2015-08-06T03:19:12Z</time></trkpt>
<trkpt lat="30.051913" lon="101.058024">
<time>2015-08-06T03:19:13Z</time></trkpt>
<trkpt lat="30.051893" lon="101.057924">
<time>2015-08-06T03:19:14Z</time></trkpt>
<trkpt lat="30.051853" lon="101.057835">
<time>2015-08-06T03:19:15Z</time></trkpt>
<trkpt lat="30.051754" lon="101.057695">
<time>2015-08-06T03:19:16Z</time></trkpt>
<trkpt lat="30.051674" lon="101.057585">
<time>2015-08-06T03:19:17Z</time></trkpt>
<trkpt lat="30.051644" lon="101.057535">
<time>2015-08-06T03:19:18Z</time></trkpt>
<trkpt lat="30.051624" lon="101.057476">
<time>2015-08-06T03:19:19Z</time></trkpt>
<trkpt lat="30.051614" lon="101.057426">
<time>2015-08-06T03:19:20Z</time></trkpt>
<trkpt lat="30.051614" lon="101.057366">
<time>2015-08-06T03:19:21Z</time></trkpt>
<trkpt lat="30.051624" lon="101.057316">
<time>2015-08-06T03:19:22Z</time></trkpt>
<trkpt lat="30.051654" lon="101.057256">
<time>2015-08-06T03:19:23Z</time></trkpt>
<trkpt lat="30.051745" lon="101.057146">
<time>2015-08-06T03:19:24Z</time></trkpt>
<trkpt lat="30.051835" lon="101.057037">
<time>2015-08-06T03:19:25Z</time></trkpt>
<trkpt lat="30.051855" lon="101.056987">
<time>2015-08-06T03:19:26Z</time></trkpt>
<trkpt lat="30.051865" lon="101.056927">
<time>2015-08-06T03:19:27Z</time></trkpt>
<trkpt lat="30.051865" lon="101.056867">
<time>2015-08-06T03:19:28Z</time></trkpt>
<trkpt lat="30.051855" lon="101.056817">
<time>2015-08-06T03:19:29Z</time></trkpt>
<trkpt lat="30.051835" lon="101.056737">
<time>2015-08-06T03:19:30Z</time></trkpt>
<trkpt lat="30.051766" lon="101.056598">
<time>2015-08-06T03:19:31Z</time></trkpt>
<trkpt lat="30.051596" lon="101.056348">
<time>2015-08-06T03:19:32Z</time></trkpt>
<trkpt lat="30.051157" lon="101.05579">
<time>2015-08-06T03:19:33Z</time></trkpt>
<trkpt lat="30.051087" lon="101.05571">
<time>2015-08-06T03:19:34Z</time></trkpt>
<trkpt lat="30.051037" lon="101.05568">
<time>2015-08-06T03:19:35Z</time></trkpt>
<trkpt lat="30.050957" lon="101.05565">
<time>2015-08-06T03:19:36Z</time></trkpt>
<trkpt lat="30.050897" lon="101.05563">
<time>2015-08-06T03:19:37Z</time></trkpt>
<trkpt lat="30.050837" lon="101.05562">
<time>2015-08-06T03:19:38Z</time></trkpt>
<trkpt lat="30.050707" lon="101.05563">
<time>2015-08-06T03:19:39Z</time></trkpt>
<trkpt lat="30.050517" lon="101.05564">
<time>2015-08-06T03:19:40Z</time></trkpt>
<trkpt lat="30.050077" lon="101.0557">
<time>2015-08-06T03:19:41Z</time></trkpt>
<trkpt lat="30.049617" lon="101.05578">
<time>2015-08-06T03:19:42Z</time></trkpt>
<trkpt lat="30.049197" lon="101.05583">
<time>2015-08-06T03:19:43Z</time></trkpt>
<trkpt lat="30.048987" lon="101.05586">
<time>2015-08-06T03:19:44Z</time></trkpt>
<trkpt lat="30.048837" lon="101.05586">
<time>2015-08-06T03:19:45Z</time></trkpt>
<trkpt lat="30.048737" lon="101.05586">
<time>2015-08-06T03:19:46Z</time></trkpt>
<trkpt lat="30.048687" lon="101.05584">
<time>2015-08-06T03:19:47Z</time></trkpt>
<trkpt lat="30.048637" lon="101.05582">
<time>2015-08-06T03:19:48Z</time></trkpt>
<trkpt lat="30.048467" lon="101.05573">
<time>2015-08-06T03:19:49Z</time></trkpt>
<trkpt lat="30.048237" lon="101.055551">
<time>2015-08-06T03:19:50Z</time></trkpt>
<trkpt lat="30.047798" lon="101.055192">
<time>2015-08-06T03:19:51Z</time></trkpt>
<trkpt lat="30.047429" lon="101.054863">
<time>2015-08-06T03:19:52Z</time></trkpt>
<trkpt lat="30.047089" lon="101.054504">
<time>2015-08-06T03:19:53Z</time></trkpt>
<trkpt lat="30.04681" lon="101.054214">
<time>2015-08-06T03:19:54Z</time></trkpt>
<trkpt lat="30.04668" lon="101.054105">
<time>2015-08-06T03:19:55Z</time></trkpt>
<trkpt lat="30.04653" lon="101.053995">
<time>2015-08-06T03:19:56Z</time></trkpt>
<trkpt lat="30.04631" lon="101.053845">
<time>2015-08-06T03:19:57Z</time></trkpt>
<trkpt lat="30.046151" lon="101.053756">
<time>2015-08-06T03:19:58Z</time></trkpt>
<trkpt lat="30.045711" lon="101.053466">
<time>2015-08-06T03:19:59Z</time></trkpt>
<trkpt lat="30.045302" lon="101.053237">
<time>2015-08-06T03:20:00Z</time></trkpt>
<trkpt lat="30.045122" lon="101.053147">
<time>2015-08-06T03:20:01Z</time></trkpt>
<trkpt lat="30.044732" lon="101.052958">
<time>2015-08-06T03:20:02Z</time></trkpt>
<trkpt lat="30.044552" lon="101.052878">
<time>2015-08-06T03:20:03Z</time></trkpt>
<trkpt lat="30.044372" lon="101.052778">
<time>2015-08-06T03:20:04Z</time></trkpt>
<trkpt lat="30.044253" lon="101.052679">
<time>2015-08-06T03:20:05Z</time></trkpt>
<trkpt lat="30.044153" lon="101.052559">
<time>2015-08-06T03:20:06Z</time></trkpt>
<trkpt lat="30.044063" lon="101.052429">
<time>2015-08-06T03:20:07Z</time></trkpt>
<trkpt lat="30.043984" lon="101.05223">
<time>2015-08-06T03:20:08Z</time></trkpt>
<trkpt lat="30.043964" lon="101.05208">
<time>2015-08-06T03:20:09Z</time></trkpt>
<trkpt lat="30.043954" lon="101.051921">
<time>2015-08-06T03:20:10Z</time></trkpt>
<trkpt lat="30.043985" lon="101.051671">
<time>2015-08-06T03:20:11Z</time></trkpt>
<trkpt lat="30.044015" lon="101.051542">
<time>2015-08-06T03:20:12Z</time></trkpt>
<trkpt lat="30.044055" lon="101.051452">
<time>2015-08-06T03:20:13Z</time></trkpt>
<trkpt lat="30.044105" lon="101.051342">
<time>2015-08-06T03:20:14Z</time></trkpt>
<trkpt lat="30.044206" lon="101.051213">
<time>2015-08-06T03:20:15Z</time></trkpt>
<trkpt lat="30.044396" lon="101.050983">
<time>2015-08-06T03:20:16Z</time></trkpt>
<trkpt lat="30.044636" lon="101.050784">
<time>2015-08-06T03:20:17Z</time></trkpt>
<trkpt lat="30.044787" lon="101.050674">
<time>2015-08-06T03:20:18Z</time></trkpt>
<trkpt lat="30.045067" lon="101.050515">
<time>2015-08-06T03:20:19Z</time></trkpt>
<trkpt lat="30.045167" lon="101.050445">
<time>2015-08-06T03:20:20Z</time></trkpt>
<trkpt lat="30.045217" lon="101.050405">
<time>2015-08-06T03:20:21Z</time></trkpt>
<trkpt lat="30.045257" lon="101.050345">
<time>2015-08-06T03:20:22Z</time></trkpt>
<trkpt lat="30.045317" lon="101.050246">
<time>2015-08-06T03:20:23Z</time></trkpt>
<trkpt lat="30.045529" lon="101.049717">
<time>2015-08-06T03:20:24Z</time></trkpt>
<trkpt lat="30.04578" lon="101.049049">
<time>2015-08-06T03:20:25Z</time></trkpt>
<trkpt lat="30.04589" lon="101.04879">
<time>2015-08-06T03:20:26Z</time></trkpt>
<trkpt lat="30.046041" lon="101.048491">
<time>2015-08-06T03:20:27Z</time></trkpt>
<trkpt lat="30.046282" lon="101.048122">
<time>2015-08-06T03:20:28Z</time></trkpt>
<trkpt lat="30.046442" lon="101.047892">
<time>2015-08-06T03:20:29Z</time></trkpt>
<trkpt lat="30.046663" lon="101.047533">
<time>2015-08-06T03:20:30Z</time></trkpt>
<trkpt lat="30.046824" lon="101.047185">
<time>2015-08-06T03:20:31Z</time></trkpt>
<trkpt lat="30.046904" lon="101.047005">
<time>2015-08-06T03:20:32Z</time></trkpt>
<trkpt lat="30.047014" lon="101.046836">
<time>2015-08-06T03:20:33Z</time></trkpt>
<trkpt lat="30.047125" lon="101.046706">
<time>2015-08-06T03:20:34Z</time></trkpt>
<trkpt lat="30.047345" lon="101.046437">
<time>2015-08-06T03:20:35Z</time></trkpt>
<trkpt lat="30.047536" lon="101.046197">
<time>2015-08-06T03:20:36Z</time></trkpt>
<trkpt lat="30.047727" lon="101.045859">
<time>2015-08-06T03:20:37Z</time></trkpt>
<trkpt lat="30.047757" lon="101.045699">
<time>2015-08-06T03:20:38Z</time></trkpt>
<trkpt lat="30.047787" lon="101.045559">
<time>2015-08-06T03:20:39Z</time></trkpt>
<trkpt lat="30.047798" lon="101.04535">
<time>2015-08-06T03:20:40Z</time></trkpt>
<trkpt lat="30.047768" lon="101.045071">
<time>2015-08-06T03:20:41Z</time></trkpt>
<trkpt lat="30.047759" lon="101.044921">
<time>2015-08-06T03:20:42Z</time></trkpt>
<trkpt lat="30.047739" lon="101.044762">
<time>2015-08-06T03:20:43Z</time></trkpt>
<trkpt lat="30.04767" lon="101.044493">
<time>2015-08-06T03:20:44Z</time></trkpt>
<trkpt lat="30.04761" lon="101.044293">
<time>2015-08-06T03:20:45Z</time></trkpt>
<trkpt lat="30.047471" lon="101.043835">
<time>2015-08-06T03:20:46Z</time></trkpt>
<trkpt lat="30.047362" lon="101.043346">
<time>2015-08-06T03:20:47Z</time></trkpt>
<trkpt lat="30.047352" lon="101.043207">
<time>2015-08-06T03:20:48Z</time></trkpt>
<trkpt lat="30.047323" lon="101.042918">
<time>2015-08-06T03:20:49Z</time></trkpt>
<trkpt lat="30.047334" lon="101.042728">
<time>2015-08-06T03:20:50Z</time></trkpt>
<trkpt lat="30.047374" lon="101.042589">
<time>2015-08-06T03:20:51Z</time></trkpt>
<trkpt lat="30.047545" lon="101.041891">
<time>2015-08-06T03:20:52Z</time></trkpt>
<trkpt lat="30.047657" lon="101.041403">
<time>2015-08-06T03:20:53Z</time></trkpt>
<trkpt lat="30.047687" lon="101.041183">
<time>2015-08-06T03:20:54Z</time></trkpt>
<trkpt lat="30.047718" lon="101.040735">
<time>2015-08-06T03:20:55Z</time></trkpt>
<trkpt lat="30.04771" lon="101.040107">
<time>2015-08-06T03:20:56Z</time></trkpt>
<trkpt lat="30.047731" lon="101.039489">
<time>2015-08-06T03:20:57Z</time></trkpt>
<trkpt lat="30.047732" lon="101.03925">
<time>2015-08-06T03:20:58Z</time></trkpt>
<trkpt lat="30.047712" lon="101.03904">
<time>2015-08-06T03:20:59Z</time></trkpt>
<trkpt lat="30.047663" lon="101.038751">
<time>2015-08-06T03:21:00Z</time></trkpt>
<trkpt lat="30.047603" lon="101.038572">
<time>2015-08-06T03:21:01Z</time></trkpt>
<trkpt lat="30.047454" lon="101.038203">
<time>2015-08-06T03:21:02Z</time></trkpt>
<trkpt lat="30.047354" lon="101.038034">
<time>2015-08-06T03:21:03Z</time></trkpt>
<trkpt lat="30.047305" lon="101.037944">
<time>2015-08-06T03:21:04Z</time></trkpt>
<trkpt lat="30.047245" lon="101.037874">
<time>2015-08-06T03:21:05Z</time></trkpt>
<trkpt lat="30.047035" lon="101.037725">
<time>2015-08-06T03:21:06Z</time></trkpt>
<trkpt lat="30.046806" lon="101.037595">
<time>2015-08-06T03:21:07Z</time></trkpt>
<trkpt lat="30.046636" lon="101.037486">
<time>2015-08-06T03:21:08Z</time></trkpt>
<trkpt lat="30.046496" lon="101.037376">
<time>2015-08-06T03:21:09Z</time></trkpt>
<trkpt lat="30.046486" lon="101.037306">
<time>2015-08-06T03:21:10Z</time></trkpt>
<trkpt lat="30.046486" lon="101.037237">
<time>2015-08-06T03:21:11Z</time></trkpt>
<trkpt lat="30.046497" lon="101.037177">
<time>2015-08-06T03:21:12Z</time></trkpt>
<trkpt lat="30.046517" lon="101.037067">
<time>2015-08-06T03:21:13Z</time></trkpt>
<trkpt lat="30.046527" lon="101.037007">
<time>2015-08-06T03:21:14Z</time></trkpt>
<trkpt lat="30.046527" lon="101.036977">
<time>2015-08-06T03:21:15Z</time></trkpt>
<trkpt lat="30.046537" lon="101.036947">
<time>2015-08-06T03:21:16Z</time></trkpt>
<trkpt lat="30.046527" lon="101.036908">
<time>2015-08-06T03:21:17Z</time></trkpt>
<trkpt lat="30.046517" lon="101.036878">
<time>2015-08-06T03:21:18Z</time></trkpt>
<trkpt lat="30.046497" lon="101.036838">
<time>2015-08-06T03:21:19Z</time></trkpt>
<trkpt lat="30.046448" lon="101.036768">
<time>2015-08-06T03:21:20Z</time></trkpt>
<trkpt lat="30.046368" lon="101.036698">
<time>2015-08-06T03:21:21Z</time></trkpt>
<trkpt lat="30.046248" lon="101.036619">
<time>2015-08-06T03:21:22Z</time></trkpt>
<trkpt lat="30.046108" lon="101.036559">
<time>2015-08-06T03:21:23Z</time></trkpt>
<trkpt lat="30.045968" lon="101.036519">
<time>2015-08-06T03:21:24Z</time></trkpt>
<trkpt lat="30.045788" lon="101.036459">
<time>2015-08-06T03:21:25Z</time></trkpt>
<trkpt lat="30.045718" lon="101.036409">
<time>2015-08-06T03:21:26Z</time></trkpt>
<trkpt lat="30.045649" lon="101.03637">
<time>2015-08-06T03:21:27Z</time></trkpt>
<trkpt lat="30.045609" lon="101.03633">
<time>2015-08-06T03:21:28Z</time></trkpt>
<trkpt lat="30.045569" lon="101.03628">
<time>2015-08-06T03:21:29Z</time></trkpt>
<trkpt lat="30.045539" lon="101.03623">
<time>2015-08-06T03:21:30Z</time></trkpt>
<trkpt lat="30.045509" lon="101.03615">
<time>2015-08-06T03:21:31Z</time></trkpt>
<trkpt lat="30.04548" lon="101.035981">
<time>2015-08-06T03:21:32Z</time></trkpt>
<trkpt lat="30.04545" lon="101.035811">
<time>2015-08-06T03:21:33Z</time></trkpt>
<trkpt lat="30.04542" lon="101.035652">
<time>2015-08-06T03:21:34Z</time></trkpt>
<trkpt lat="30.045381" lon="101.035433">
<time>2015-08-06T03:21:35Z</time></trkpt>
<trkpt lat="30.045331" lon="101.035223">
<time>2015-08-06T03:21:36Z</time></trkpt>
<trkpt lat="30.045302" lon="101.035144">
<time>2015-08-06T03:21:37Z</time></trkpt>
<trkpt lat="30.045252" lon="101.034994">
<time>2015-08-06T03:21:38Z</time></trkpt>
<trkpt lat="30.045182" lon="101.034885">
<time>2015-08-06T03:21:39Z</time></trkpt>
<trkpt lat="30.045033" lon="101.034636">
<time>2015-08-06T03:21:40Z</time></trkpt>
<trkpt lat="30.044884" lon="101.034317">
<time>2015-08-06T03:21:41Z</time></trkpt>
<trkpt lat="30.044486" lon="101.033529">
<time>2015-08-06T03:21:42Z</time></trkpt>
<trkpt lat="30.044416" lon="101.03337">
<time>2015-08-06T03:21:43Z</time></trkpt>
<trkpt lat="30.044376" lon="101.03329">
<time>2015-08-06T03:21:44Z</time></trkpt>
<trkpt lat="30.044336" lon="101.03323">
<time>2015-08-06T03:21:45Z</time></trkpt>
<trkpt lat="30.044287" lon="101.033191">
<time>2015-08-06T03:21:46Z</time></trkpt>
<trkpt lat="30.044157" lon="101.033101">
<time>2015-08-06T03:21:47Z</time></trkpt>
<trkpt lat="30.043847" lon="101.032932">
<time>2015-08-06T03:21:48Z</time></trkpt>
<trkpt lat="30.043667" lon="101.032822">
<time>2015-08-06T03:21:49Z</time></trkpt>
<trkpt lat="30.043588" lon="101.032762">
<time>2015-08-06T03:21:50Z</time></trkpt>
<trkpt lat="30.043468" lon="101.032653">
<time>2015-08-06T03:21:51Z</time></trkpt>
<trkpt lat="30.043269" lon="101.032403">
<time>2015-08-06T03:21:52Z</time></trkpt>
<trkpt lat="30.043129" lon="101.032184">
<time>2015-08-06T03:21:53Z</time></trkpt>
<trkpt lat="30.043049" lon="101.032035">
<time>2015-08-06T03:21:54Z</time></trkpt>
<trkpt lat="30.04297" lon="101.031786">
<time>2015-08-06T03:21:55Z</time></trkpt>
<trkpt lat="30.042851" lon="101.031287">
<time>2015-08-06T03:21:56Z</time></trkpt>
<trkpt lat="30.042792" lon="101.031068">
<time>2015-08-06T03:21:57Z</time></trkpt>
<trkpt lat="30.042653" lon="101.03068">
<time>2015-08-06T03:21:58Z</time></trkpt>
<trkpt lat="30.042593" lon="101.03053">
<time>2015-08-06T03:21:59Z</time></trkpt>
<trkpt lat="30.042424" lon="101.030281">
<time>2015-08-06T03:22:00Z</time></trkpt>
<trkpt lat="30.042175" lon="101.030012">
<time>2015-08-06T03:22:01Z</time></trkpt>
<trkpt lat="30.041925" lon="101.029743">
<time>2015-08-06T03:22:02Z</time></trkpt>
<trkpt lat="30.041826" lon="101.029624">
<time>2015-08-06T03:22:03Z</time></trkpt>
<trkpt lat="30.041736" lon="101.029464">
<time>2015-08-06T03:22:04Z</time></trkpt>
<trkpt lat="30.041697" lon="101.029325">
<time>2015-08-06T03:22:05Z</time></trkpt>
<trkpt lat="30.041677" lon="101.029215">
<time>2015-08-06T03:22:06Z</time></trkpt>
<trkpt lat="30.041667" lon="101.029036">
<time>2015-08-06T03:22:07Z</time></trkpt>
<trkpt lat="30.041578" lon="101.028856">
<time>2015-08-06T03:22:08Z</time></trkpt>
<trkpt lat="30.041359" lon="101.028538">
<time>2015-08-06T03:22:09Z</time></trkpt>
<trkpt lat="30.041239" lon="101.028358">
<time>2015-08-06T03:22:10Z</time></trkpt>
<trkpt lat="30.04106" lon="101.028179">
<time>2015-08-06T03:22:11Z</time></trkpt>
<trkpt lat="30.04081" lon="101.028">
<time>2015-08-06T03:22:12Z</time></trkpt>
<trkpt lat="30.040561" lon="101.0278">
<time>2015-08-06T03:22:13Z</time></trkpt>
<trkpt lat="30.040351" lon="101.027611">
<time>2015-08-06T03:22:14Z</time></trkpt>
<trkpt lat="30.039992" lon="101.027163">
<time>2015-08-06T03:22:15Z</time></trkpt>
<trkpt lat="30.039833" lon="101.026993">
<time>2015-08-06T03:22:16Z</time></trkpt>
<trkpt lat="30.039723" lon="101.026894">
<time>2015-08-06T03:22:17Z</time></trkpt>
<trkpt lat="30.039464" lon="101.026694">
<time>2015-08-06T03:22:18Z</time></trkpt>
<trkpt lat="30.039354" lon="101.026625">
<time>2015-08-06T03:22:19Z</time></trkpt>
<trkpt lat="30.039184" lon="101.026535">
<time>2015-08-06T03:22:20Z</time></trkpt>
<trkpt lat="30.039024" lon="101.026465">
<time>2015-08-06T03:22:21Z</time></trkpt>
<trkpt lat="30.038175" lon="101.026216">
<time>2015-08-06T03:22:22Z</time></trkpt>
<trkpt lat="30.037875" lon="101.026107">
<time>2015-08-06T03:22:23Z</time></trkpt>
<trkpt lat="30.037625" lon="101.026007">
<time>2015-08-06T03:22:24Z</time></trkpt>
<trkpt lat="30.037536" lon="101.025947">
<time>2015-08-06T03:22:25Z</time></trkpt>
<trkpt lat="30.037456" lon="101.025897">
<time>2015-08-06T03:22:26Z</time></trkpt>
<trkpt lat="30.037276" lon="101.025728">
<time>2015-08-06T03:22:27Z</time></trkpt>
<trkpt lat="30.036917" lon="101.025359">
<time>2015-08-06T03:22:28Z</time></trkpt>
<trkpt lat="30.036758" lon="101.0252">
<time>2015-08-06T03:22:29Z</time></trkpt>
<trkpt lat="30.036638" lon="101.02511">
<time>2015-08-06T03:22:30Z</time></trkpt>
<trkpt lat="30.036518" lon="101.025031">
<time>2015-08-06T03:22:31Z</time></trkpt>
<trkpt lat="30.036259" lon="101.024851">
<time>2015-08-06T03:22:32Z</time></trkpt>
<trkpt lat="30.036019" lon="101.024702">
<time>2015-08-06T03:22:33Z</time></trkpt>
<trkpt lat="30.035859" lon="101.024553">
<time>2015-08-06T03:22:34Z</time></trkpt>
<trkpt lat="30.035411" lon="101.024015">
<time>2015-08-06T03:22:35Z</time></trkpt>
<trkpt lat="30.035052" lon="101.023536">
<time>2015-08-06T03:22:36Z</time></trkpt>
<trkpt lat="30.034933" lon="101.023347">
<time>2015-08-06T03:22:37Z</time></trkpt>
<trkpt lat="30.034833" lon="101.023148">
<time>2015-08-06T03:22:38Z</time></trkpt>
<trkpt lat="30.034754" lon="101.022989">
<time>2015-08-06T03:22:39Z</time></trkpt>
<trkpt lat="30.034684" lon="101.022819">
<time>2015-08-06T03:22:40Z</time></trkpt>
<trkpt lat="30.034625" lon="101.02259">
<time>2015-08-06T03:22:41Z</time></trkpt>
<trkpt lat="30.034575" lon="101.022401">
<time>2015-08-06T03:22:42Z</time></trkpt>
<trkpt lat="30.034467" lon="101.022002">
<time>2015-08-06T03:22:43Z</time></trkpt>
<trkpt lat="30.034417" lon="101.021883">
<time>2015-08-06T03:22:44Z</time></trkpt>
<trkpt lat="30.034308" lon="101.021624">
<time>2015-08-06T03:22:45Z</time></trkpt>
<trkpt lat="30.034258" lon="101.021534">
<time>2015-08-06T03:22:46Z</time></trkpt>
<trkpt lat="30.034148" lon="101.021385">
<time>2015-08-06T03:22:47Z</time></trkpt>
<trkpt lat="30.033939" lon="101.021146">
<time>2015-08-06T03:22:48Z</time></trkpt>
<trkpt lat="30.033789" lon="101.021006">
<time>2015-08-06T03:22:49Z</time></trkpt>
<trkpt lat="30.0337" lon="101.020877">
<time>2015-08-06T03:22:50Z</time></trkpt>
<trkpt lat="30.03366" lon="101.020817">
<time>2015-08-06T03:22:51Z</time></trkpt>
<trkpt lat="30.03363" lon="101.020747">
<time>2015-08-06T03:22:52Z</time></trkpt>
<trkpt lat="30.03362" lon="101.020667">
<time>2015-08-06T03:22:53Z</time></trkpt>
<trkpt lat="30.033611" lon="101.020568">
<time>2015-08-06T03:22:54Z</time></trkpt>
<trkpt lat="30.033611" lon="101.020359">
<time>2015-08-06T03:22:55Z</time></trkpt>
<trkpt lat="30.033642" lon="101.01995">
<time>2015-08-06T03:22:56Z</time></trkpt>
<trkpt lat="30.033653" lon="101.019851">
<time>2015-08-06T03:22:57Z</time></trkpt>
<trkpt lat="30.033683" lon="101.019691">
<time>2015-08-06T03:22:58Z</time></trkpt>
<trkpt lat="30.033875" lon="101.018994">
<time>2015-08-06T03:22:59Z</time></trkpt>
<trkpt lat="30.033875" lon="101.018994">
<time>2015-08-06T03:23:00Z</time></trkpt>
<trkpt lat="30.034477" lon="101.018287">
<time>2015-08-06T03:23:01Z</time></trkpt>
<trkpt lat="30.03525" lon="101.0174">
<time>2015-08-06T03:23:02Z</time></trkpt>
<trkpt lat="30.035671" lon="101.016922">
<time>2015-08-06T03:23:03Z</time></trkpt>
<trkpt lat="30.035671" lon="101.016922">
<time>2015-08-06T03:23:04Z</time></trkpt>
<trkpt lat="30.035912" lon="101.016643">
<time>2015-08-06T03:23:05Z</time></trkpt>
<trkpt lat="30.036052" lon="101.016504">
<time>2015-08-06T03:23:06Z</time></trkpt>
<trkpt lat="30.038218" lon="101.014661">
<time>2015-08-06T03:23:07Z</time></trkpt>
<trkpt lat="30.038479" lon="101.014402">
<time>2015-08-06T03:23:08Z</time></trkpt>
<trkpt lat="30.038579" lon="101.014243">
<time>2015-08-06T03:23:09Z</time></trkpt>
<trkpt lat="30.03863" lon="101.014033">
<time>2015-08-06T03:23:10Z</time></trkpt>
<trkpt lat="30.03863" lon="101.013894">
<time>2015-08-06T03:23:11Z</time></trkpt>
<trkpt lat="30.038601" lon="101.013685">
<time>2015-08-06T03:23:12Z</time></trkpt>
<trkpt lat="30.038503" lon="101.012948">
<time>2015-08-06T03:23:13Z</time></trkpt>
<trkpt lat="30.038345" lon="101.012131">
<time>2015-08-06T03:23:14Z</time></trkpt>
<trkpt lat="30.038345" lon="101.012131">
<time>2015-08-06T03:23:15Z</time></trkpt>
<trkpt lat="30.038336" lon="101.011992">
<time>2015-08-06T03:23:16Z</time></trkpt>
<trkpt lat="30.038316" lon="101.011743">
<time>2015-08-06T03:23:17Z</time></trkpt>
<trkpt lat="30.038297" lon="101.011543">
<time>2015-08-06T03:23:18Z</time></trkpt>
<trkpt lat="30.038307" lon="101.011454">
<time>2015-08-06T03:23:19Z</time></trkpt>
<trkpt lat="30.038317" lon="101.011384">
<time>2015-08-06T03:23:20Z</time></trkpt>
<trkpt lat="30.038338" lon="101.011284">
<time>2015-08-06T03:23:21Z</time></trkpt>
<trkpt lat="30.038418" lon="101.011095">
<time>2015-08-06T03:23:22Z</time></trkpt>
<trkpt lat="30.038509" lon="101.010856">
<time>2015-08-06T03:23:23Z</time></trkpt>
<trkpt lat="30.03861" lon="101.010488">
<time>2015-08-06T03:23:24Z</time></trkpt>
<trkpt lat="30.038661" lon="101.010279">
<time>2015-08-06T03:23:25Z</time></trkpt>
<trkpt lat="30.038681" lon="101.010229">
<time>2015-08-06T03:23:26Z</time></trkpt>
<trkpt lat="30.038721" lon="101.010079">
<time>2015-08-06T03:23:27Z</time></trkpt>
<trkpt lat="30.038832" lon="101.00986">
<time>2015-08-06T03:23:28Z</time></trkpt>
<trkpt lat="30.038943" lon="101.009671">
<time>2015-08-06T03:23:29Z</time></trkpt>
<trkpt lat="30.039053" lon="101.009482">
<time>2015-08-06T03:23:30Z</time></trkpt>
<trkpt lat="30.039164" lon="101.009233">
<time>2015-08-06T03:23:31Z</time></trkpt>
<trkpt lat="30.039245" lon="101.008944">
<time>2015-08-06T03:23:32Z</time></trkpt>
<trkpt lat="30.039255" lon="101.008924">
<time>2015-08-06T03:23:33Z</time></trkpt>
<trkpt lat="30.039386" lon="101.008605">
<time>2015-08-06T03:23:34Z</time></trkpt>
<trkpt lat="30.039436" lon="101.008486">
<time>2015-08-06T03:23:35Z</time></trkpt>
<trkpt lat="30.039456" lon="101.008386">
<time>2015-08-06T03:23:36Z</time></trkpt>
<trkpt lat="30.039467" lon="101.008237">
<time>2015-08-06T03:23:37Z</time></trkpt>
<trkpt lat="30.039478" lon="101.007938">
<time>2015-08-06T03:23:38Z</time></trkpt>
<trkpt lat="30.039508" lon="101.007759">
<time>2015-08-06T03:23:39Z</time></trkpt>
<trkpt lat="30.039529" lon="101.007589">
<time>2015-08-06T03:23:40Z</time></trkpt>
<trkpt lat="30.039539" lon="101.00743">
<time>2015-08-06T03:23:41Z</time></trkpt>
<trkpt lat="30.03955" lon="101.007271">
<time>2015-08-06T03:23:42Z</time></trkpt>
<trkpt lat="30.03958" lon="101.007071">
<time>2015-08-06T03:23:43Z</time></trkpt>
<trkpt lat="30.039581" lon="101.006892">
<time>2015-08-06T03:23:44Z</time></trkpt>
<trkpt lat="30.039542" lon="101.006384">
<time>2015-08-06T03:23:45Z</time></trkpt>
<trkpt lat="30.039523" lon="101.006135">
<time>2015-08-06T03:23:46Z</time></trkpt>
<trkpt lat="30.039524" lon="101.005976">
<time>2015-08-06T03:23:47Z</time></trkpt>
<trkpt lat="30.039534" lon="101.005866">
<time>2015-08-06T03:23:48Z</time></trkpt>
<trkpt lat="30.039555" lon="101.005707">
<time>2015-08-06T03:23:49Z</time></trkpt>
<trkpt lat="30.039595" lon="101.005488">
<time>2015-08-06T03:23:50Z</time></trkpt>
<trkpt lat="30.039646" lon="101.005299">
<time>2015-08-06T03:23:51Z</time></trkpt>
<trkpt lat="30.039706" lon="101.005119">
<time>2015-08-06T03:23:52Z</time></trkpt>
<trkpt lat="30.039827" lon="101.004811">
<time>2015-08-06T03:23:53Z</time></trkpt>
<trkpt lat="30.039848" lon="101.004691">
<time>2015-08-06T03:23:54Z</time></trkpt>
<trkpt lat="30.039848" lon="101.004612">
<time>2015-08-06T03:23:55Z</time></trkpt>
<trkpt lat="30.039838" lon="101.004552">
<time>2015-08-06T03:23:56Z</time></trkpt>
<trkpt lat="30.039828" lon="101.004492">
<time>2015-08-06T03:23:57Z</time></trkpt>
<trkpt lat="30.039798" lon="101.004442">
<time>2015-08-06T03:23:58Z</time></trkpt>
<trkpt lat="30.039749" lon="101.004363">
<time>2015-08-06T03:23:59Z</time></trkpt>
<trkpt lat="30.039599" lon="101.004203">
<time>2015-08-06T03:24:00Z</time></trkpt>
<trkpt lat="30.03937" lon="101.003924">
<time>2015-08-06T03:24:01Z</time></trkpt>
<trkpt lat="30.03927" lon="101.003765">
<time>2015-08-06T03:24:02Z</time></trkpt>
<trkpt lat="30.039231" lon="101.003655">
<time>2015-08-06T03:24:03Z</time></trkpt>
<trkpt lat="30.039201" lon="101.003536">
<time>2015-08-06T03:24:04Z</time></trkpt>
<trkpt lat="30.039182" lon="101.003397">
<time>2015-08-06T03:24:05Z</time></trkpt>
<trkpt lat="30.039192" lon="101.003257">
<time>2015-08-06T03:24:06Z</time></trkpt>
<trkpt lat="30.039203" lon="101.003058">
<time>2015-08-06T03:24:07Z</time></trkpt>
<trkpt lat="30.039223" lon="101.002909">
<time>2015-08-06T03:24:08Z</time></trkpt>
<trkpt lat="30.039284" lon="101.002709">
<time>2015-08-06T03:24:09Z</time></trkpt>
<trkpt lat="30.039354" lon="101.00251">
<time>2015-08-06T03:24:10Z</time></trkpt>
<trkpt lat="30.039516" lon="101.002032">
<time>2015-08-06T03:24:11Z</time></trkpt>
<trkpt lat="30.039596" lon="101.001823">
<time>2015-08-06T03:24:12Z</time></trkpt>
<trkpt lat="30.039647" lon="101.001684">
<time>2015-08-06T03:24:13Z</time></trkpt>
<trkpt lat="30.039667" lon="101.001554">
<time>2015-08-06T03:24:14Z</time></trkpt>
<trkpt lat="30.039678" lon="101.001395">
<time>2015-08-06T03:24:15Z</time></trkpt>
<trkpt lat="30.039688" lon="101.001106">
<time>2015-08-06T03:24:16Z</time></trkpt>
<trkpt lat="30.039709" lon="101.000976">
<time>2015-08-06T03:24:17Z</time></trkpt>
<trkpt lat="30.039739" lon="101.000837">
<time>2015-08-06T03:24:18Z</time></trkpt>
<trkpt lat="30.0398" lon="101.000638">
<time>2015-08-06T03:24:19Z</time></trkpt>
<trkpt lat="30.040002" lon="101.00002">
<time>2015-08-06T03:24:20Z</time></trkpt>
<trkpt lat="30.040193" lon="100.999493">
<time>2015-08-06T03:24:21Z</time></trkpt>
<trkpt lat="30.040234" lon="100.999194">
<time>2015-08-06T03:24:22Z</time></trkpt>
<trkpt lat="30.040236" lon="100.998746">
<time>2015-08-06T03:24:23Z</time></trkpt>
<trkpt lat="30.040248" lon="100.998068">
<time>2015-08-06T03:24:24Z</time></trkpt>
<trkpt lat="30.040279" lon="100.99778">
<time>2015-08-06T03:24:25Z</time></trkpt>
<trkpt lat="30.040289" lon="100.9977">
<time>2015-08-06T03:24:26Z</time></trkpt>
<trkpt lat="30.040289" lon="100.9976">
<time>2015-08-06T03:24:27Z</time></trkpt>
<trkpt lat="30.04028" lon="100.997491">
<time>2015-08-06T03:24:28Z</time></trkpt>
<trkpt lat="30.04025" lon="100.997431">
<time>2015-08-06T03:24:29Z</time></trkpt>
<trkpt lat="30.04023" lon="100.997381">
<time>2015-08-06T03:24:30Z</time></trkpt>
<trkpt lat="30.04018" lon="100.997311">
<time>2015-08-06T03:24:31Z</time></trkpt>
<trkpt lat="30.04014" lon="100.997262">
<time>2015-08-06T03:24:32Z</time></trkpt>
<trkpt lat="30.04009" lon="100.997222">
<time>2015-08-06T03:24:33Z</time></trkpt>
<trkpt lat="30.04001" lon="100.997172">
<time>2015-08-06T03:24:34Z</time></trkpt>
<trkpt lat="30.039821" lon="100.997063">
<time>2015-08-06T03:24:35Z</time></trkpt>
<trkpt lat="30.039771" lon="100.997013">
<time>2015-08-06T03:24:36Z</time></trkpt>
<trkpt lat="30.039711" lon="100.996953">
<time>2015-08-06T03:24:37Z</time></trkpt>
<trkpt lat="30.039651" lon="100.996853">
<time>2015-08-06T03:24:38Z</time></trkpt>
<trkpt lat="30.039592" lon="100.996764">
<time>2015-08-06T03:24:39Z</time></trkpt>
<trkpt lat="30.039562" lon="100.996674">
<time>2015-08-06T03:24:40Z</time></trkpt>
<trkpt lat="30.039542" lon="100.996594">
<time>2015-08-06T03:24:41Z</time></trkpt>
<trkpt lat="30.039543" lon="100.996505">
<time>2015-08-06T03:24:42Z</time></trkpt>
<trkpt lat="30.039553" lon="100.996286">
<time>2015-08-06T03:24:43Z</time></trkpt>
<trkpt lat="30.039585" lon="100.995778">
<time>2015-08-06T03:24:44Z</time></trkpt>
<trkpt lat="30.039585" lon="100.995638">
<time>2015-08-06T03:24:45Z</time></trkpt>
<trkpt lat="30.039576" lon="100.995449">
<time>2015-08-06T03:24:46Z</time></trkpt>
<trkpt lat="30.039556" lon="100.99534">
<time>2015-08-06T03:24:47Z</time></trkpt>
<trkpt lat="30.039536" lon="100.99527">
<time>2015-08-06T03:24:48Z</time></trkpt>
<trkpt lat="30.039497" lon="100.99517">
<time>2015-08-06T03:24:49Z</time></trkpt>
<trkpt lat="30.039437" lon="100.995101">
<time>2015-08-06T03:24:50Z</time></trkpt>
<trkpt lat="30.039248" lon="100.994852">
<time>2015-08-06T03:24:51Z</time></trkpt>
<trkpt lat="30.039118" lon="100.994692">
<time>2015-08-06T03:24:52Z</time></trkpt>
<trkpt lat="30.039068" lon="100.994603">
<time>2015-08-06T03:24:53Z</time></trkpt>
<trkpt lat="30.039009" lon="100.994483">
<time>2015-08-06T03:24:54Z</time></trkpt>
<trkpt lat="30.038989" lon="100.994394">
<time>2015-08-06T03:24:55Z</time></trkpt>
<trkpt lat="30.038959" lon="100.994264">
<time>2015-08-06T03:24:56Z</time></trkpt>
<trkpt lat="30.03892" lon="100.993915">
<time>2015-08-06T03:24:57Z</time></trkpt>
<trkpt lat="30.038911" lon="100.993736">
<time>2015-08-06T03:24:58Z</time></trkpt>
<trkpt lat="30.038921" lon="100.993607">
<time>2015-08-06T03:24:59Z</time></trkpt>
<trkpt lat="30.038942" lon="100.993487">
<time>2015-08-06T03:25:00Z</time></trkpt>
<trkpt lat="30.038962" lon="100.993418">
<time>2015-08-06T03:25:01Z</time></trkpt>
<trkpt lat="30.039032" lon="100.993268">
<time>2015-08-06T03:25:02Z</time></trkpt>
<trkpt lat="30.039123" lon="100.993139">
<time>2015-08-06T03:25:03Z</time></trkpt>
<trkpt lat="30.039283" lon="100.992959">
<time>2015-08-06T03:25:04Z</time></trkpt>
<trkpt lat="30.039624" lon="100.992571">
<time>2015-08-06T03:25:05Z</time></trkpt>
<trkpt lat="30.039915" lon="100.992292">
<time>2015-08-06T03:25:06Z</time></trkpt>
<trkpt lat="30.040136" lon="100.992123">
<time>2015-08-06T03:25:07Z</time></trkpt>
<trkpt lat="30.040446" lon="100.991993">
<time>2015-08-06T03:25:08Z</time></trkpt>
<trkpt lat="30.040627" lon="100.991874">
<time>2015-08-06T03:25:09Z</time></trkpt>
<trkpt lat="30.040727" lon="100.991784">
<time>2015-08-06T03:25:10Z</time></trkpt>
<trkpt lat="30.040807" lon="100.991675">
<time>2015-08-06T03:25:11Z</time></trkpt>
<trkpt lat="30.040988" lon="100.991286">
<time>2015-08-06T03:25:12Z</time></trkpt>
<trkpt lat="30.0412" lon="100.990838">
<time>2015-08-06T03:25:13Z</time></trkpt>
<trkpt lat="30.04139" lon="100.990619">
<time>2015-08-06T03:25:14Z</time></trkpt>
<trkpt lat="30.041481" lon="100.990529">
<time>2015-08-06T03:25:15Z</time></trkpt>
<trkpt lat="30.041581" lon="100.99041">
<time>2015-08-06T03:25:16Z</time></trkpt>
<trkpt lat="30.041641" lon="100.99033">
<time>2015-08-06T03:25:17Z</time></trkpt>
<trkpt lat="30.041672" lon="100.99025">
<time>2015-08-06T03:25:18Z</time></trkpt>
<trkpt lat="30.041702" lon="100.990151">
<time>2015-08-06T03:25:19Z</time></trkpt>
<trkpt lat="30.041712" lon="100.990081">
<time>2015-08-06T03:25:20Z</time></trkpt>
<trkpt lat="30.041712" lon="100.989972">
<time>2015-08-06T03:25:21Z</time></trkpt>
<trkpt lat="30.041713" lon="100.989812">
<time>2015-08-06T03:25:22Z</time></trkpt>
<trkpt lat="30.041683" lon="100.989663">
<time>2015-08-06T03:25:23Z</time></trkpt>
<trkpt lat="30.041634" lon="100.989474">
<time>2015-08-06T03:25:24Z</time></trkpt>
<trkpt lat="30.041604" lon="100.989394">
<time>2015-08-06T03:25:25Z</time></trkpt>
<trkpt lat="30.041554" lon="100.989294">
<time>2015-08-06T03:25:26Z</time></trkpt>
<trkpt lat="30.041495" lon="100.989235">
<time>2015-08-06T03:25:27Z</time></trkpt>
<trkpt lat="30.041435" lon="100.989195">
<time>2015-08-06T03:25:28Z</time></trkpt>
<trkpt lat="30.041375" lon="100.989165">
<time>2015-08-06T03:25:29Z</time></trkpt>
<trkpt lat="30.041305" lon="100.989155">
<time>2015-08-06T03:25:30Z</time></trkpt>
<trkpt lat="30.041245" lon="100.989145">
<time>2015-08-06T03:25:31Z</time></trkpt>
<trkpt lat="30.040985" lon="100.989135">
<time>2015-08-06T03:25:32Z</time></trkpt>
<trkpt lat="30.040815" lon="100.989085">
<time>2015-08-06T03:25:33Z</time></trkpt>
<trkpt lat="30.040685" lon="100.989015">
<time>2015-08-06T03:25:34Z</time></trkpt>
<trkpt lat="30.040496" lon="100.988896">
<time>2015-08-06T03:25:35Z</time></trkpt>
<trkpt lat="30.040396" lon="100.988816">
<time>2015-08-06T03:25:36Z</time></trkpt>
<trkpt lat="30.040346" lon="100.988747">
<time>2015-08-06T03:25:37Z</time></trkpt>
<trkpt lat="30.039987" lon="100.988338">
<time>2015-08-06T03:25:38Z</time></trkpt>
<trkpt lat="30.039907" lon="100.988269">
<time>2015-08-06T03:25:39Z</time></trkpt>
<trkpt lat="30.039848" lon="100.988229">
<time>2015-08-06T03:25:40Z</time></trkpt>
<trkpt lat="30.039758" lon="100.988199">
<time>2015-08-06T03:25:41Z</time></trkpt>
<trkpt lat="30.039658" lon="100.988189">
<time>2015-08-06T03:25:42Z</time></trkpt>
<trkpt lat="30.039468" lon="100.988189">
<time>2015-08-06T03:25:43Z</time></trkpt>
<trkpt lat="30.038948" lon="100.988159">
<time>2015-08-06T03:25:44Z</time></trkpt>
<trkpt lat="30.038618" lon="100.988089">
<time>2015-08-06T03:25:45Z</time></trkpt>
<trkpt lat="30.038438" lon="100.988069">
<time>2015-08-06T03:25:46Z</time></trkpt>
<trkpt lat="30.038248" lon="100.988069">
<time>2015-08-06T03:25:47Z</time></trkpt>
<trkpt lat="30.037948" lon="100.988059">
<time>2015-08-06T03:25:48Z</time></trkpt>
<trkpt lat="30.037768" lon="100.98804">
<time>2015-08-06T03:25:49Z</time></trkpt>
<trkpt lat="30.037508" lon="100.988">
<time>2015-08-06T03:25:50Z</time></trkpt>
<trkpt lat="30.037418" lon="100.98801">
<time>2015-08-06T03:25:51Z</time></trkpt>
<trkpt lat="30.037368" lon="100.98802">
<time>2015-08-06T03:25:52Z</time></trkpt>
<trkpt lat="30.037268" lon="100.988049">
<time>2015-08-06T03:25:53Z</time></trkpt>
<trkpt lat="30.037138" lon="100.988089">
<time>2015-08-06T03:25:54Z</time></trkpt>
<trkpt lat="30.037048" lon="100.988109">
<time>2015-08-06T03:25:55Z</time></trkpt>
<trkpt lat="30.036868" lon="100.988109">
<time>2015-08-06T03:25:56Z</time></trkpt>
<trkpt lat="30.036758" lon="100.988119">
<time>2015-08-06T03:25:57Z</time></trkpt>
<trkpt lat="30.036678" lon="100.988129">
<time>2015-08-06T03:25:58Z</time></trkpt>
<trkpt lat="30.036608" lon="100.988159">
<time>2015-08-06T03:25:59Z</time></trkpt>
<trkpt lat="30.036538" lon="100.988199">
<time>2015-08-06T03:26:00Z</time></trkpt>
<trkpt lat="30.036488" lon="100.988249">
<time>2015-08-06T03:26:01Z</time></trkpt>
<trkpt lat="30.036127" lon="100.988478">
<time>2015-08-06T03:26:02Z</time></trkpt>
<trkpt lat="30.035656" lon="100.988787">
<time>2015-08-06T03:26:03Z</time></trkpt>
<trkpt lat="30.035566" lon="100.988836">
<time>2015-08-06T03:26:04Z</time></trkpt>
<trkpt lat="30.035476" lon="100.988866">
<time>2015-08-06T03:26:05Z</time></trkpt>
<trkpt lat="30.035376" lon="100.988896">
<time>2015-08-06T03:26:06Z</time></trkpt>
<trkpt lat="30.035265" lon="100.988916">
<time>2015-08-06T03:26:07Z</time></trkpt>
<trkpt lat="30.034725" lon="100.988996">
<time>2015-08-06T03:26:08Z</time></trkpt>
<trkpt lat="30.034605" lon="100.989016">
<time>2015-08-06T03:26:09Z</time></trkpt>
<trkpt lat="30.034515" lon="100.989036">
<time>2015-08-06T03:26:10Z</time></trkpt>
<trkpt lat="30.034435" lon="100.989075">
<time>2015-08-06T03:26:11Z</time></trkpt>
<trkpt lat="30.034275" lon="100.989195">
<time>2015-08-06T03:26:12Z</time></trkpt>
<trkpt lat="30.034124" lon="100.989384">
<time>2015-08-06T03:26:13Z</time></trkpt>
<trkpt lat="30.034044" lon="100.989464">
<time>2015-08-06T03:26:14Z</time></trkpt>
<trkpt lat="30.033974" lon="100.989514">
<time>2015-08-06T03:26:15Z</time></trkpt>
<trkpt lat="30.033844" lon="100.989563">
<time>2015-08-06T03:26:16Z</time></trkpt>
<trkpt lat="30.033463" lon="100.989653">
<time>2015-08-06T03:26:17Z</time></trkpt>
<trkpt lat="30.032462" lon="100.990002">
<time>2015-08-06T03:26:18Z</time></trkpt>
<trkpt lat="30.031692" lon="100.990171">
<time>2015-08-06T03:26:19Z</time></trkpt>
<trkpt lat="30.031371" lon="100.990271">
<time>2015-08-06T03:26:20Z</time></trkpt>
<trkpt lat="30.030971" lon="100.99043">
<time>2015-08-06T03:26:21Z</time></trkpt>
<trkpt lat="30.030671" lon="100.99053">
<time>2015-08-06T03:26:22Z</time></trkpt>
<trkpt lat="30.030481" lon="100.99054">
<time>2015-08-06T03:26:23Z</time></trkpt>
<trkpt lat="30.03026" lon="100.990559">
<time>2015-08-06T03:26:24Z</time></trkpt>
<trkpt lat="30.030051" lon="100.99053">
<time>2015-08-06T03:26:25Z</time></trkpt>
<trkpt lat="30.029511" lon="100.9904">
<time>2015-08-06T03:26:26Z</time></trkpt>
<trkpt lat="30.029022" lon="100.990181">
<time>2015-08-06T03:26:27Z</time></trkpt>
<trkpt lat="30.028632" lon="100.990062">
<time>2015-08-06T03:26:28Z</time></trkpt>
<trkpt lat="30.028602" lon="100.990062">
<time>2015-08-06T03:26:29Z</time></trkpt>
<trkpt lat="30.028562" lon="100.990052">
<time>2015-08-06T03:26:30Z</time></trkpt>
<trkpt lat="30.028532" lon="100.990042">
<time>2015-08-06T03:26:31Z</time></trkpt>
<trkpt lat="30.028502" lon="100.990052">
<time>2015-08-06T03:26:32Z</time></trkpt>
<trkpt lat="30.028482" lon="100.990052">
<time>2015-08-06T03:26:33Z</time></trkpt>
<trkpt lat="30.028472" lon="100.990062">
<time>2015-08-06T03:26:34Z</time></trkpt>
<trkpt lat="30.028452" lon="100.990081">
<time>2015-08-06T03:26:35Z</time></trkpt>
<trkpt lat="30.028452" lon="100.990091">
<time>2015-08-06T03:26:36Z</time></trkpt>
<trkpt lat="30.028442" lon="100.990111">
<time>2015-08-06T03:26:37Z</time></trkpt>
<trkpt lat="30.028442" lon="100.990121">
<time>2015-08-06T03:26:38Z</time></trkpt>
<trkpt lat="30.028442" lon="100.990141">
<time>2015-08-06T03:26:39Z</time></trkpt>
<trkpt lat="30.028442" lon="100.990171">
<time>2015-08-06T03:26:40Z</time></trkpt>
<trkpt lat="30.028462" lon="100.990201">
<time>2015-08-06T03:26:41Z</time></trkpt>
<trkpt lat="30.028491" lon="100.990231">
<time>2015-08-06T03:26:42Z</time></trkpt>
<trkpt lat="30.028521" lon="100.990251">
<time>2015-08-06T03:26:43Z</time></trkpt>
<trkpt lat="30.028651" lon="100.990291">
<time>2015-08-06T03:26:44Z</time></trkpt>
<trkpt lat="30.028831" lon="100.990311">
<time>2015-08-06T03:26:45Z</time></trkpt>
<trkpt lat="30.028881" lon="100.990321">
<time>2015-08-06T03:26:46Z</time></trkpt>
<trkpt lat="30.028911" lon="100.99033">
<time>2015-08-06T03:26:47Z</time></trkpt>
<trkpt lat="30.028931" lon="100.99035">
<time>2015-08-06T03:26:48Z</time></trkpt>
<trkpt lat="30.028951" lon="100.99038">
<time>2015-08-06T03:26:49Z</time></trkpt>
<trkpt lat="30.028961" lon="100.99041">
<time>2015-08-06T03:26:50Z</time></trkpt>
<trkpt lat="30.028961" lon="100.99044">
<time>2015-08-06T03:26:51Z</time></trkpt>
<trkpt lat="30.028961" lon="100.99048">
<time>2015-08-06T03:26:52Z</time></trkpt>
<trkpt lat="30.028961" lon="100.9905">
<time>2015-08-06T03:26:53Z</time></trkpt>
<trkpt lat="30.028951" lon="100.99053">
<time>2015-08-06T03:26:54Z</time></trkpt>
<trkpt lat="30.028941" lon="100.99054">
<time>2015-08-06T03:26:55Z</time></trkpt>
<trkpt lat="30.02892" lon="100.99056">
<time>2015-08-06T03:26:56Z</time></trkpt>
<trkpt lat="30.0289" lon="100.990569">
<time>2015-08-06T03:26:57Z</time></trkpt>
<trkpt lat="30.02887" lon="100.990579">
<time>2015-08-06T03:26:58Z</time></trkpt>
<trkpt lat="30.02884" lon="100.990589">
<time>2015-08-06T03:26:59Z</time></trkpt>
<trkpt lat="30.0288" lon="100.990579">
<time>2015-08-06T03:27:00Z</time></trkpt>
<trkpt lat="30.028491" lon="100.9905">
<time>2015-08-06T03:27:01Z</time></trkpt>
<trkpt lat="30.028131" lon="100.99037">
<time>2015-08-06T03:27:02Z</time></trkpt>
<trkpt lat="30.027941" lon="100.990311">
<time>2015-08-06T03:27:03Z</time></trkpt>
<trkpt lat="30.027732" lon="100.990211">
<time>2015-08-06T03:27:04Z</time></trkpt>
<trkpt lat="30.027322" lon="100.989942">
<time>2015-08-06T03:27:05Z</time></trkpt>
<trkpt lat="30.027173" lon="100.989813">
<time>2015-08-06T03:27:06Z</time></trkpt>
<trkpt lat="30.027043" lon="100.989763">
<time>2015-08-06T03:27:07Z</time></trkpt>
<trkpt lat="30.026883" lon="100.989723">
<time>2015-08-06T03:27:08Z</time></trkpt>
<trkpt lat="30.026713" lon="100.989713">
<time>2015-08-06T03:27:09Z</time></trkpt>
<trkpt lat="30.026533" lon="100.989703">
<time>2015-08-06T03:27:10Z</time></trkpt>
<trkpt lat="30.025984" lon="100.989544">
<time>2015-08-06T03:27:11Z</time></trkpt>
<trkpt lat="30.025514" lon="100.989374">
<time>2015-08-06T03:27:12Z</time></trkpt>
<trkpt lat="30.025384" lon="100.989355">
<time>2015-08-06T03:27:13Z</time></trkpt>
<trkpt lat="30.025164" lon="100.989285">
<time>2015-08-06T03:27:14Z</time></trkpt>
<trkpt lat="30.025044" lon="100.989255">
<time>2015-08-06T03:27:15Z</time></trkpt>
<trkpt lat="30.024944" lon="100.989215">
<time>2015-08-06T03:27:16Z</time></trkpt>
<trkpt lat="30.024845" lon="100.989125">
<time>2015-08-06T03:27:17Z</time></trkpt>
<trkpt lat="30.024755" lon="100.988976">
<time>2015-08-06T03:27:18Z</time></trkpt>
<trkpt lat="30.024626" lon="100.988707">
<time>2015-08-06T03:27:19Z</time></trkpt>
<trkpt lat="30.024487" lon="100.988468">
<time>2015-08-06T03:27:20Z</time></trkpt>
<trkpt lat="30.024287" lon="100.988239">
<time>2015-08-06T03:27:21Z</time></trkpt>
<trkpt lat="30.024088" lon="100.98804">
<time>2015-08-06T03:27:22Z</time></trkpt>
<trkpt lat="30.023978" lon="100.98796">
<time>2015-08-06T03:27:23Z</time></trkpt>
<trkpt lat="30.023869" lon="100.987871">
<time>2015-08-06T03:27:24Z</time></trkpt>
<trkpt lat="30.023819" lon="100.987801">
<time>2015-08-06T03:27:25Z</time></trkpt>
<trkpt lat="30.023769" lon="100.987701">
<time>2015-08-06T03:27:26Z</time></trkpt>
<trkpt lat="30.023729" lon="100.987592">
<time>2015-08-06T03:27:27Z</time></trkpt>
<trkpt lat="30.02368" lon="100.987393">
<time>2015-08-06T03:27:28Z</time></trkpt>
<trkpt lat="30.02364" lon="100.987263">
<time>2015-08-06T03:27:29Z</time></trkpt>
<trkpt lat="30.023591" lon="100.987134">
<time>2015-08-06T03:27:30Z</time></trkpt>
<trkpt lat="30.023461" lon="100.986885">
<time>2015-08-06T03:27:31Z</time></trkpt>
<trkpt lat="30.023362" lon="100.986705">
<time>2015-08-06T03:27:32Z</time></trkpt>
<trkpt lat="30.023243" lon="100.986506">
<time>2015-08-06T03:27:33Z</time></trkpt>
<trkpt lat="30.022964" lon="100.986168">
<time>2015-08-06T03:27:34Z</time></trkpt>
<trkpt lat="30.022874" lon="100.986018">
<time>2015-08-06T03:27:35Z</time></trkpt>
<trkpt lat="30.022765" lon="100.985869">
<time>2015-08-06T03:27:36Z</time></trkpt>
<trkpt lat="30.022675" lon="100.985749">
<time>2015-08-06T03:27:37Z</time></trkpt>
<trkpt lat="30.022555" lon="100.98567">
<time>2015-08-06T03:27:38Z</time></trkpt>
<trkpt lat="30.022216" lon="100.98552">
<time>2015-08-06T03:27:39Z</time></trkpt>
<trkpt lat="30.022016" lon="100.98545">
<time>2015-08-06T03:27:40Z</time></trkpt>
<trkpt lat="30.021876" lon="100.985351">
<time>2015-08-06T03:27:41Z</time></trkpt>
<trkpt lat="30.021736" lon="100.985251">
<time>2015-08-06T03:27:42Z</time></trkpt>
<trkpt lat="30.021557" lon="100.985042">
<time>2015-08-06T03:27:43Z</time></trkpt>
<trkpt lat="30.021129" lon="100.984455">
<time>2015-08-06T03:27:44Z</time></trkpt>
<trkpt lat="30.021019" lon="100.984305">
<time>2015-08-06T03:27:45Z</time></trkpt>
<trkpt lat="30.02093" lon="100.984156">
<time>2015-08-06T03:27:46Z</time></trkpt>
<trkpt lat="30.02081" lon="100.983847">
<time>2015-08-06T03:27:47Z</time></trkpt>
<trkpt lat="30.020602" lon="100.9832">
<time>2015-08-06T03:27:48Z</time></trkpt>
<trkpt lat="30.020384" lon="100.982532">
<time>2015-08-06T03:27:49Z</time></trkpt>
<trkpt lat="30.020285" lon="100.982204">
<time>2015-08-06T03:27:50Z</time></trkpt>
<trkpt lat="30.020167" lon="100.981795">
<time>2015-08-06T03:27:51Z</time></trkpt>
<trkpt lat="30.019979" lon="100.981038">
<time>2015-08-06T03:27:52Z</time></trkpt>
<trkpt lat="30.019919" lon="100.980849">
<time>2015-08-06T03:27:53Z</time></trkpt>
<trkpt lat="30.01976" lon="100.9805">
<time>2015-08-06T03:27:54Z</time></trkpt>
<trkpt lat="30.019671" lon="100.980321">
<time>2015-08-06T03:27:55Z</time></trkpt>
<trkpt lat="30.019631" lon="100.980192">
<time>2015-08-06T03:27:56Z</time></trkpt>
<trkpt lat="30.019611" lon="100.980092">
<time>2015-08-06T03:27:57Z</time></trkpt>
<trkpt lat="30.019582" lon="100.979873">
<time>2015-08-06T03:27:58Z</time></trkpt>
<trkpt lat="30.019554" lon="100.979315">
<time>2015-08-06T03:27:59Z</time></trkpt>
<trkpt lat="30.019495" lon="100.978966">
<time>2015-08-06T03:28:00Z</time></trkpt>
<trkpt lat="30.019426" lon="100.978638">
<time>2015-08-06T03:28:01Z</time></trkpt>
<trkpt lat="30.019406" lon="100.978438">
<time>2015-08-06T03:28:02Z</time></trkpt>
<trkpt lat="30.019357" lon="100.978309">
<time>2015-08-06T03:28:03Z</time></trkpt>
<trkpt lat="30.019297" lon="100.97814">
<time>2015-08-06T03:28:04Z</time></trkpt>
<trkpt lat="30.019258" lon="100.97801">
<time>2015-08-06T03:28:05Z</time></trkpt>
<trkpt lat="30.019238" lon="100.977791">
<time>2015-08-06T03:28:06Z</time></trkpt>
<trkpt lat="30.019199" lon="100.977562">
<time>2015-08-06T03:28:07Z</time></trkpt>
<trkpt lat="30.01909" lon="100.977014">
<time>2015-08-06T03:28:08Z</time></trkpt>
<trkpt lat="30.019041" lon="100.976885">
<time>2015-08-06T03:28:09Z</time></trkpt>
<trkpt lat="30.018991" lon="100.976715">
<time>2015-08-06T03:28:10Z</time></trkpt>
<trkpt lat="30.018982" lon="100.976526">
<time>2015-08-06T03:28:11Z</time></trkpt>
<trkpt lat="30.019023" lon="100.976197">
<time>2015-08-06T03:28:12Z</time></trkpt>
<trkpt lat="30.019043" lon="100.975938">
<time>2015-08-06T03:28:13Z</time></trkpt>
<trkpt lat="30.019034" lon="100.975749">
<time>2015-08-06T03:28:14Z</time></trkpt>
<trkpt lat="30.018925" lon="100.97535">
<time>2015-08-06T03:28:15Z</time></trkpt>
<trkpt lat="30.018707" lon="100.974763">
<time>2015-08-06T03:28:16Z</time></trkpt>
<trkpt lat="30.018598" lon="100.974434">
<time>2015-08-06T03:28:17Z</time></trkpt>
<trkpt lat="30.018499" lon="100.973866">
<time>2015-08-06T03:28:18Z</time></trkpt>
<trkpt lat="30.01842" lon="100.973488">
<time>2015-08-06T03:28:19Z</time></trkpt>
<trkpt lat="30.018331" lon="100.973249">
<time>2015-08-06T03:28:20Z</time></trkpt>
<trkpt lat="30.018182" lon="100.973019">
<time>2015-08-06T03:28:21Z</time></trkpt>
<trkpt lat="30.018022" lon="100.97283">
<time>2015-08-06T03:28:22Z</time></trkpt>
<trkpt lat="30.017863" lon="100.972581">
<time>2015-08-06T03:28:23Z</time></trkpt>
<trkpt lat="30.017763" lon="100.972481">
<time>2015-08-06T03:28:24Z</time></trkpt>
<trkpt lat="30.017274" lon="100.972113">
<time>2015-08-06T03:28:25Z</time></trkpt>
<trkpt lat="30.017174" lon="100.972023">
<time>2015-08-06T03:28:26Z</time></trkpt>
<trkpt lat="30.017085" lon="100.971884">
<time>2015-08-06T03:28:27Z</time></trkpt>
<trkpt lat="30.017015" lon="100.971724">
<time>2015-08-06T03:28:28Z</time></trkpt>
<trkpt lat="30.016877" lon="100.971166">
<time>2015-08-06T03:28:29Z</time></trkpt>
<trkpt lat="30.016788" lon="100.970818">
<time>2015-08-06T03:28:30Z</time></trkpt>
<trkpt lat="30.016788" lon="100.970778">
<time>2015-08-06T03:28:31Z</time></trkpt>
<trkpt lat="30.016788" lon="100.970738">
<time>2015-08-06T03:28:32Z</time></trkpt>
<trkpt lat="30.016788" lon="100.970708">
<time>2015-08-06T03:28:33Z</time></trkpt>
<trkpt lat="30.016798" lon="100.970678">
<time>2015-08-06T03:28:34Z</time></trkpt>
<trkpt lat="30.016798" lon="100.970658">
<time>2015-08-06T03:28:35Z</time></trkpt>
<trkpt lat="30.016818" lon="100.970638">
<time>2015-08-06T03:28:36Z</time></trkpt>
<trkpt lat="30.016838" lon="100.970609">
<time>2015-08-06T03:28:37Z</time></trkpt>
<trkpt lat="30.016868" lon="100.970599">
<time>2015-08-06T03:28:38Z</time></trkpt>
<trkpt lat="30.016908" lon="100.970579">
<time>2015-08-06T03:28:39Z</time></trkpt>
<trkpt lat="30.016948" lon="100.970579">
<time>2015-08-06T03:28:40Z</time></trkpt>
<trkpt lat="30.016968" lon="100.970589">
<time>2015-08-06T03:28:41Z</time></trkpt>
<trkpt lat="30.016988" lon="100.970589">
<time>2015-08-06T03:28:42Z</time></trkpt>
<trkpt lat="30.016998" lon="100.970599">
<time>2015-08-06T03:28:43Z</time></trkpt>
<trkpt lat="30.017018" lon="100.970609">
<time>2015-08-06T03:28:44Z</time></trkpt>
<trkpt lat="30.017038" lon="100.970648">
<time>2015-08-06T03:28:45Z</time></trkpt>
<trkpt lat="30.017068" lon="100.970708">
<time>2015-08-06T03:28:46Z</time></trkpt>
<trkpt lat="30.017088" lon="100.970768">
<time>2015-08-06T03:28:47Z</time></trkpt>
<trkpt lat="30.017197" lon="100.971137">
<time>2015-08-06T03:28:48Z</time></trkpt>
<trkpt lat="30.017227" lon="100.971206">
<time>2015-08-06T03:28:49Z</time></trkpt>
<trkpt lat="30.017247" lon="100.971236">
<time>2015-08-06T03:28:50Z</time></trkpt>
<trkpt lat="30.017266" lon="100.971256">
<time>2015-08-06T03:28:51Z</time></trkpt>
<trkpt lat="30.017276" lon="100.971266">
<time>2015-08-06T03:28:52Z</time></trkpt>
<trkpt lat="30.017306" lon="100.971266">
<time>2015-08-06T03:28:53Z</time></trkpt>
<trkpt lat="30.017336" lon="100.971266">
<time>2015-08-06T03:28:54Z</time></trkpt>
<trkpt lat="30.017356" lon="100.971256">
<time>2015-08-06T03:28:55Z</time></trkpt>
<trkpt lat="30.017366" lon="100.971246">
<time>2015-08-06T03:28:56Z</time></trkpt>
<trkpt lat="30.017387" lon="100.971236">
<time>2015-08-06T03:28:57Z</time></trkpt>
<trkpt lat="30.017397" lon="100.971216">
<time>2015-08-06T03:28:58Z</time></trkpt>
<trkpt lat="30.017407" lon="100.971196">
<time>2015-08-06T03:28:59Z</time></trkpt>
<trkpt lat="30.017417" lon="100.971176">
<time>2015-08-06T03:29:00Z</time></trkpt>
<trkpt lat="30.017417" lon="100.971147">
<time>2015-08-06T03:29:01Z</time></trkpt>
<trkpt lat="30.017417" lon="100.971127">
<time>2015-08-06T03:29:02Z</time></trkpt>
<trkpt lat="30.017407" lon="100.971097">
<time>2015-08-06T03:29:03Z</time></trkpt>
<trkpt lat="30.017377" lon="100.971017">
<time>2015-08-06T03:29:04Z</time></trkpt>
<trkpt lat="30.017297" lon="100.970888">
<time>2015-08-06T03:29:05Z</time></trkpt>
<trkpt lat="30.017138" lon="100.970619">
<time>2015-08-06T03:29:06Z</time></trkpt>
<trkpt lat="30.017069" lon="100.970399">
<time>2015-08-06T03:29:07Z</time></trkpt>
<trkpt lat="30.017029" lon="100.97022">
<time>2015-08-06T03:29:08Z</time></trkpt>
<trkpt lat="30.01701" lon="100.969931">
<time>2015-08-06T03:29:09Z</time></trkpt>
<trkpt lat="30.016981" lon="100.969732">
<time>2015-08-06T03:29:10Z</time></trkpt>
<trkpt lat="30.016931" lon="100.969582">
<time>2015-08-06T03:29:11Z</time></trkpt>
<trkpt lat="30.016802" lon="100.969323">
<time>2015-08-06T03:29:12Z</time></trkpt>
<trkpt lat="30.016702" lon="100.969174">
<time>2015-08-06T03:29:13Z</time></trkpt>
<trkpt lat="30.016573" lon="100.969005">
<time>2015-08-06T03:29:14Z</time></trkpt>
<trkpt lat="30.016114" lon="100.968566">
<time>2015-08-06T03:29:15Z</time></trkpt>
<trkpt lat="30.015675" lon="100.968058">
<time>2015-08-06T03:29:16Z</time></trkpt>
<trkpt lat="30.015476" lon="100.967859">
<time>2015-08-06T03:29:17Z</time></trkpt>
<trkpt lat="30.015196" lon="100.96763">
<time>2015-08-06T03:29:18Z</time></trkpt>
<trkpt lat="30.014827" lon="100.967331">
<time>2015-08-06T03:29:19Z</time></trkpt>
<trkpt lat="30.014528" lon="100.967072">
<time>2015-08-06T03:29:20Z</time></trkpt>
<trkpt lat="30.014348" lon="100.966892">
<time>2015-08-06T03:29:21Z</time></trkpt>
<trkpt lat="30.013949" lon="100.966404">
<time>2015-08-06T03:29:22Z</time></trkpt>
<trkpt lat="30.013461" lon="100.965747">
<time>2015-08-06T03:29:23Z</time></trkpt>
<trkpt lat="30.013441" lon="100.965727">
<time>2015-08-06T03:29:24Z</time></trkpt>
<trkpt lat="30.013441" lon="100.965717">
<time>2015-08-06T03:29:25Z</time></trkpt>
<trkpt lat="30.013431" lon="100.965687">
<time>2015-08-06T03:29:26Z</time></trkpt>
<trkpt lat="30.013431" lon="100.965667">
<time>2015-08-06T03:29:27Z</time></trkpt>
<trkpt lat="30.013441" lon="100.965627">
<time>2015-08-06T03:29:28Z</time></trkpt>
<trkpt lat="30.013462" lon="100.965597">
<time>2015-08-06T03:29:29Z</time></trkpt>
<trkpt lat="30.013472" lon="100.965587">
<time>2015-08-06T03:29:30Z</time></trkpt>
<trkpt lat="30.013492" lon="100.965567">
<time>2015-08-06T03:29:31Z</time></trkpt>
<trkpt lat="30.013522" lon="100.965557">
<time>2015-08-06T03:29:32Z</time></trkpt>
<trkpt lat="30.013532" lon="100.965557">
<time>2015-08-06T03:29:33Z</time></trkpt>
<trkpt lat="30.013552" lon="100.965557">
<time>2015-08-06T03:29:34Z</time></trkpt>
<trkpt lat="30.013572" lon="100.965567">
<time>2015-08-06T03:29:35Z</time></trkpt>
<trkpt lat="30.013592" lon="100.965567">
<time>2015-08-06T03:29:36Z</time></trkpt>
<trkpt lat="30.013612" lon="100.965587">
<time>2015-08-06T03:29:37Z</time></trkpt>
<trkpt lat="30.013681" lon="100.965667">
<time>2015-08-06T03:29:38Z</time></trkpt>
<trkpt lat="30.013761" lon="100.965776">
<time>2015-08-06T03:29:39Z</time></trkpt>
<trkpt lat="30.01406" lon="100.966215">
<time>2015-08-06T03:29:40Z</time></trkpt>
<trkpt lat="30.014259" lon="100.966464">
<time>2015-08-06T03:29:41Z</time></trkpt>
<trkpt lat="30.014289" lon="100.966494">
<time>2015-08-06T03:29:42Z</time></trkpt>
<trkpt lat="30.014319" lon="100.966514">
<time>2015-08-06T03:29:43Z</time></trkpt>
<trkpt lat="30.014339" lon="100.966524">
<time>2015-08-06T03:29:44Z</time></trkpt>
<trkpt lat="30.014369" lon="100.966534">
<time>2015-08-06T03:29:45Z</time></trkpt>
<trkpt lat="30.014399" lon="100.966544">
<time>2015-08-06T03:29:46Z</time></trkpt>
<trkpt lat="30.014409" lon="100.966544">
<time>2015-08-06T03:29:47Z</time></trkpt>
<trkpt lat="30.014429" lon="100.966544">
<time>2015-08-06T03:29:48Z</time></trkpt>
<trkpt lat="30.014449" lon="100.966544">
<time>2015-08-06T03:29:49Z</time></trkpt>
<trkpt lat="30.014469" lon="100.966534">
<time>2015-08-06T03:29:50Z</time></trkpt>
<trkpt lat="30.014489" lon="100.966524">
<time>2015-08-06T03:29:51Z</time></trkpt>
<trkpt lat="30.014499" lon="100.966514">
<time>2015-08-06T03:29:52Z</time></trkpt>
<trkpt lat="30.014519" lon="100.966494">
<time>2015-08-06T03:29:53Z</time></trkpt>
<trkpt lat="30.014529" lon="100.966474">
<time>2015-08-06T03:29:54Z</time></trkpt>
<trkpt lat="30.014529" lon="100.966454">
<time>2015-08-06T03:29:55Z</time></trkpt>
<trkpt lat="30.014529" lon="100.966434">
<time>2015-08-06T03:29:56Z</time></trkpt>
<trkpt lat="30.014529" lon="100.966414">
<time>2015-08-06T03:29:57Z</time></trkpt>
<trkpt lat="30.014519" lon="100.966394">
<time>2015-08-06T03:29:58Z</time></trkpt>
<trkpt lat="30.01451" lon="100.966364">
<time>2015-08-06T03:29:59Z</time></trkpt>
<trkpt lat="30.01445" lon="100.966305">
<time>2015-08-06T03:30:00Z</time></trkpt>
<trkpt lat="30.01423" lon="100.966145">
<time>2015-08-06T03:30:01Z</time></trkpt>
<trkpt lat="30.01411" lon="100.966055">
<time>2015-08-06T03:30:02Z</time></trkpt>
<trkpt lat="30.014041" lon="100.965966">
<time>2015-08-06T03:30:03Z</time></trkpt>
<trkpt lat="30.013991" lon="100.965866">
<time>2015-08-06T03:30:04Z</time></trkpt>
<trkpt lat="30.013921" lon="100.965727">
<time>2015-08-06T03:30:05Z</time></trkpt>
<trkpt lat="30.013802" lon="100.965448">
<time>2015-08-06T03:30:06Z</time></trkpt>
<trkpt lat="30.013653" lon="100.965218">
<time>2015-08-06T03:30:07Z</time></trkpt>
<trkpt lat="30.013483" lon="100.964989">
<time>2015-08-06T03:30:08Z</time></trkpt>
<trkpt lat="30.013384" lon="100.96483">
<time>2015-08-06T03:30:09Z</time></trkpt>
<trkpt lat="30.013334" lon="100.96474">
<time>2015-08-06T03:30:10Z</time></trkpt>
<trkpt lat="30.013304" lon="100.96465">
<time>2015-08-06T03:30:11Z</time></trkpt>
<trkpt lat="30.013274" lon="100.964501">
<time>2015-08-06T03:30:12Z</time></trkpt>
<trkpt lat="30.013186" lon="100.963923">
<time>2015-08-06T03:30:13Z</time></trkpt>
<trkpt lat="30.013108" lon="100.963285">
<time>2015-08-06T03:30:14Z</time></trkpt>
<trkpt lat="30.013059" lon="100.962827">
<time>2015-08-06T03:30:15Z</time></trkpt>
<trkpt lat="30.013049" lon="100.962727">
<time>2015-08-06T03:30:16Z</time></trkpt>
<trkpt lat="30.012989" lon="100.962508">
<time>2015-08-06T03:30:17Z</time></trkpt>
<trkpt lat="30.01293" lon="100.962319">
<time>2015-08-06T03:30:18Z</time></trkpt>
<trkpt lat="30.012711" lon="100.96188">
<time>2015-08-06T03:30:19Z</time></trkpt>
<trkpt lat="30.012313" lon="100.961252">
<time>2015-08-06T03:30:20Z</time></trkpt>
<trkpt lat="30.012193" lon="100.960983">
<time>2015-08-06T03:30:21Z</time></trkpt>
<trkpt lat="30.012104" lon="100.960704">
<time>2015-08-06T03:30:22Z</time></trkpt>
<trkpt lat="30.011955" lon="100.960236">
<time>2015-08-06T03:30:23Z</time></trkpt>
<trkpt lat="30.011926" lon="100.959877">
<time>2015-08-06T03:30:24Z</time></trkpt>
<trkpt lat="30.011937" lon="100.959568">
<time>2015-08-06T03:30:25Z</time></trkpt>
<trkpt lat="30.011957" lon="100.959419">
<time>2015-08-06T03:30:26Z</time></trkpt>
<trkpt lat="30.011977" lon="100.959369">
<time>2015-08-06T03:30:27Z</time></trkpt>
<trkpt lat="30.011987" lon="100.959359">
<time>2015-08-06T03:30:28Z</time></trkpt>
<trkpt lat="30.011997" lon="100.959339">
<time>2015-08-06T03:30:29Z</time></trkpt>
<trkpt lat="30.012017" lon="100.959319">
<time>2015-08-06T03:30:30Z</time></trkpt>
<trkpt lat="30.012027" lon="100.959309">
<time>2015-08-06T03:30:31Z</time></trkpt>
<trkpt lat="30.012057" lon="100.959299">
<time>2015-08-06T03:30:32Z</time></trkpt>
<trkpt lat="30.012077" lon="100.959299">
<time>2015-08-06T03:30:33Z</time></trkpt>
<trkpt lat="30.012107" lon="100.959309">
<time>2015-08-06T03:30:34Z</time></trkpt>
<trkpt lat="30.012117" lon="100.959319">
<time>2015-08-06T03:30:35Z</time></trkpt>
<trkpt lat="30.012127" lon="100.959319">
<time>2015-08-06T03:30:36Z</time></trkpt>
<trkpt lat="30.012147" lon="100.959339">
<time>2015-08-06T03:30:37Z</time></trkpt>
<trkpt lat="30.012157" lon="100.959349">
<time>2015-08-06T03:30:38Z</time></trkpt>
<trkpt lat="30.012167" lon="100.959379">
<time>2015-08-06T03:30:39Z</time></trkpt>
<trkpt lat="30.012167" lon="100.959399">
<time>2015-08-06T03:30:40Z</time></trkpt>
<trkpt lat="30.012177" lon="100.959429">
<time>2015-08-06T03:30:41Z</time></trkpt>
<trkpt lat="30.012177" lon="100.959449">
<time>2015-08-06T03:30:42Z</time></trkpt>
<trkpt lat="30.012177" lon="100.959479">
<time>2015-08-06T03:30:43Z</time></trkpt>
<trkpt lat="30.012136" lon="100.959738">
<time>2015-08-06T03:30:44Z</time></trkpt>
<trkpt lat="30.012096" lon="100.959967">
<time>2015-08-06T03:30:45Z</time></trkpt>
<trkpt lat="30.012096" lon="100.960047">
<time>2015-08-06T03:30:46Z</time></trkpt>
<trkpt lat="30.012095" lon="100.960106">
<time>2015-08-06T03:30:47Z</time></trkpt>
<trkpt lat="30.012105" lon="100.960156">
<time>2015-08-06T03:30:48Z</time></trkpt>
<trkpt lat="30.012115" lon="100.960176">
<time>2015-08-06T03:30:49Z</time></trkpt>
<trkpt lat="30.012125" lon="100.960196">
<time>2015-08-06T03:30:50Z</time></trkpt>
<trkpt lat="30.012135" lon="100.960216">
<time>2015-08-06T03:30:51Z</time></trkpt>
<trkpt lat="30.012145" lon="100.960226">
<time>2015-08-06T03:30:52Z</time></trkpt>
<trkpt lat="30.012155" lon="100.960226">
<time>2015-08-06T03:30:53Z</time></trkpt>
<trkpt lat="30.012175" lon="100.960236">
<time>2015-08-06T03:30:54Z</time></trkpt>
<trkpt lat="30.012195" lon="100.960236">
<time>2015-08-06T03:30:55Z</time></trkpt>
<trkpt lat="30.012205" lon="100.960246">
<time>2015-08-06T03:30:56Z</time></trkpt>
<trkpt lat="30.012215" lon="100.960236">
<time>2015-08-06T03:30:57Z</time></trkpt>
<trkpt lat="30.012235" lon="100.960236">
<time>2015-08-06T03:30:58Z</time></trkpt>
<trkpt lat="30.012255" lon="100.960216">
<time>2015-08-06T03:30:59Z</time></trkpt>
<trkpt lat="30.012265" lon="100.960206">
<time>2015-08-06T03:31:00Z</time></trkpt>
<trkpt lat="30.012285" lon="100.960176">
<time>2015-08-06T03:31:01Z</time></trkpt>
<trkpt lat="30.012295" lon="100.960156">
<time>2015-08-06T03:31:02Z</time></trkpt>
<trkpt lat="30.012305" lon="100.960126">
<time>2015-08-06T03:31:03Z</time></trkpt>
<trkpt lat="30.012305" lon="100.960096">
<time>2015-08-06T03:31:04Z</time></trkpt>
<trkpt lat="30.012306" lon="100.959867">
<time>2015-08-06T03:31:05Z</time></trkpt>
<trkpt lat="30.012306" lon="100.959718">
<time>2015-08-06T03:31:06Z</time></trkpt>
<trkpt lat="30.012307" lon="100.959419">
<time>2015-08-06T03:31:07Z</time></trkpt>
<trkpt lat="30.012328" lon="100.959229">
<time>2015-08-06T03:31:08Z</time></trkpt>
<trkpt lat="30.012378" lon="100.95897">
<time>2015-08-06T03:31:09Z</time></trkpt>
<trkpt lat="30.012409" lon="100.958761">
<time>2015-08-06T03:31:10Z</time></trkpt>
<trkpt lat="30.012409" lon="100.958552">
<time>2015-08-06T03:31:11Z</time></trkpt>
<trkpt lat="30.0124" lon="100.958293">
<time>2015-08-06T03:31:12Z</time></trkpt>
<trkpt lat="30.01237" lon="100.958133">
<time>2015-08-06T03:31:13Z</time></trkpt>
<trkpt lat="30.012321" lon="100.957944">
<time>2015-08-06T03:31:14Z</time></trkpt>
<trkpt lat="30.012202" lon="100.957585">
<time>2015-08-06T03:31:15Z</time></trkpt>
<trkpt lat="30.012023" lon="100.957067">
<time>2015-08-06T03:31:16Z</time></trkpt>
<trkpt lat="30.011943" lon="100.956867">
<time>2015-08-06T03:31:17Z</time></trkpt>
<trkpt lat="30.011625" lon="100.956309">
<time>2015-08-06T03:31:18Z</time></trkpt>
<trkpt lat="30.011505" lon="100.95608">
<time>2015-08-06T03:31:19Z</time></trkpt>
<trkpt lat="30.011416" lon="100.955861">
<time>2015-08-06T03:31:20Z</time></trkpt>
<trkpt lat="30.011366" lon="100.955721">
<time>2015-08-06T03:31:21Z</time></trkpt>
<trkpt lat="30.011356" lon="100.955562">
<time>2015-08-06T03:31:22Z</time></trkpt>
<trkpt lat="30.011327" lon="100.955412">
<time>2015-08-06T03:31:23Z</time></trkpt>
<trkpt lat="30.011257" lon="100.955203">
<time>2015-08-06T03:31:24Z</time></trkpt>
<trkpt lat="30.011198" lon="100.955003">
<time>2015-08-06T03:31:25Z</time></trkpt>
<trkpt lat="30.011178" lon="100.954884">
<time>2015-08-06T03:31:26Z</time></trkpt>
<trkpt lat="30.011138" lon="100.954675">
<time>2015-08-06T03:31:27Z</time></trkpt>
<trkpt lat="30.011129" lon="100.954395">
<time>2015-08-06T03:31:28Z</time></trkpt>
<trkpt lat="30.011139" lon="100.954156">
<time>2015-08-06T03:31:29Z</time></trkpt>
<trkpt lat="30.01116" lon="100.954007">
<time>2015-08-06T03:31:30Z</time></trkpt>
<trkpt lat="30.011231" lon="100.953498">
<time>2015-08-06T03:31:31Z</time></trkpt>
<trkpt lat="30.011282" lon="100.95309">
<time>2015-08-06T03:31:32Z</time></trkpt>
<trkpt lat="30.011313" lon="100.952711">
<time>2015-08-06T03:31:33Z</time></trkpt>
<trkpt lat="30.011313" lon="100.952541">
<time>2015-08-06T03:31:34Z</time></trkpt>
<trkpt lat="30.011293" lon="100.952392">
<time>2015-08-06T03:31:35Z</time></trkpt>
<trkpt lat="30.011254" lon="100.952252">
<time>2015-08-06T03:31:36Z</time></trkpt>
<trkpt lat="30.011184" lon="100.952053">
<time>2015-08-06T03:31:37Z</time></trkpt>
<trkpt lat="30.011105" lon="100.951814">
<time>2015-08-06T03:31:38Z</time></trkpt>
<trkpt lat="30.011015" lon="100.951485">
<time>2015-08-06T03:31:39Z</time></trkpt>
<trkpt lat="30.010956" lon="100.951245">
<time>2015-08-06T03:31:40Z</time></trkpt>
<trkpt lat="30.010886" lon="100.951056">
<time>2015-08-06T03:31:41Z</time></trkpt>
<trkpt lat="30.010817" lon="100.950916">
<time>2015-08-06T03:31:42Z</time></trkpt>
<trkpt lat="30.010697" lon="100.950747">
<time>2015-08-06T03:31:43Z</time></trkpt>
<trkpt lat="30.010577" lon="100.950617">
<time>2015-08-06T03:31:44Z</time></trkpt>
<trkpt lat="30.010497" lon="100.950538">
<time>2015-08-06T03:31:45Z</time></trkpt>
<trkpt lat="30.010038" lon="100.950089">
<time>2015-08-06T03:31:46Z</time></trkpt>
<trkpt lat="30.009679" lon="100.94973">
<time>2015-08-06T03:31:47Z</time></trkpt>
<trkpt lat="30.009539" lon="100.949561">
<time>2015-08-06T03:31:48Z</time></trkpt>
<trkpt lat="30.00941" lon="100.949381">
<time>2015-08-06T03:31:49Z</time></trkpt>
<trkpt lat="30.00933" lon="100.949271">
<time>2015-08-06T03:31:50Z</time></trkpt>
<trkpt lat="30.009211" lon="100.949062">
<time>2015-08-06T03:31:51Z</time></trkpt>
<trkpt lat="30.009121" lon="100.948893">
<time>2015-08-06T03:31:52Z</time></trkpt>
<trkpt lat="30.008931" lon="100.948643">
<time>2015-08-06T03:31:53Z</time></trkpt>
<trkpt lat="30.008782" lon="100.948414">
<time>2015-08-06T03:31:54Z</time></trkpt>
<trkpt lat="30.008672" lon="100.948205">
<time>2015-08-06T03:31:55Z</time></trkpt>
<trkpt lat="30.008563" lon="100.947906">
<time>2015-08-06T03:31:56Z</time></trkpt>
<trkpt lat="30.008503" lon="100.947726">
<time>2015-08-06T03:31:57Z</time></trkpt>
<trkpt lat="30.008404" lon="100.947547">
<time>2015-08-06T03:31:58Z</time></trkpt>
<trkpt lat="30.008095" lon="100.947088">
<time>2015-08-06T03:31:59Z</time></trkpt>
<trkpt lat="30.007935" lon="100.946859">
<time>2015-08-06T03:32:00Z</time></trkpt>
<trkpt lat="30.007795" lon="100.946699">
<time>2015-08-06T03:32:01Z</time></trkpt>
<trkpt lat="30.007686" lon="100.946589">
<time>2015-08-06T03:32:02Z</time></trkpt>
<trkpt lat="30.007546" lon="100.94648">
<time>2015-08-06T03:32:03Z</time></trkpt>
<trkpt lat="30.007296" lon="100.94632">
<time>2015-08-06T03:32:04Z</time></trkpt>
<trkpt lat="30.007226" lon="100.94625">
<time>2015-08-06T03:32:05Z</time></trkpt>
<trkpt lat="30.007166" lon="100.946171">
<time>2015-08-06T03:32:06Z</time></trkpt>
<trkpt lat="30.007127" lon="100.946071">
<time>2015-08-06T03:32:07Z</time></trkpt>
<trkpt lat="30.007097" lon="100.945971">
<time>2015-08-06T03:32:08Z</time></trkpt>
<trkpt lat="30.007077" lon="100.945832">
<time>2015-08-06T03:32:09Z</time></trkpt>
<trkpt lat="30.007038" lon="100.945373">
<time>2015-08-06T03:32:10Z</time></trkpt>
<trkpt lat="30.007008" lon="100.945203">
<time>2015-08-06T03:32:11Z</time></trkpt>
<trkpt lat="30.006949" lon="100.944914">
<time>2015-08-06T03:32:12Z</time></trkpt>
<trkpt lat="30.00684" lon="100.944426">
<time>2015-08-06T03:32:13Z</time></trkpt>
<trkpt lat="30.00675" lon="100.944067">
<time>2015-08-06T03:32:14Z</time></trkpt>
<trkpt lat="30.006611" lon="100.943678">
<time>2015-08-06T03:32:15Z</time></trkpt>
<trkpt lat="30.006442" lon="100.943369">
<time>2015-08-06T03:32:16Z</time></trkpt>
<trkpt lat="30.006173" lon="100.94283">
<time>2015-08-06T03:32:17Z</time></trkpt>
<trkpt lat="30.006103" lon="100.942691">
<time>2015-08-06T03:32:18Z</time></trkpt>
<trkpt lat="30.005963" lon="100.942481">
<time>2015-08-06T03:32:19Z</time></trkpt>
<trkpt lat="30.005844" lon="100.942292">
<time>2015-08-06T03:32:20Z</time></trkpt>
<trkpt lat="30.005534" lon="100.941992">
<time>2015-08-06T03:32:21Z</time></trkpt>
<trkpt lat="30.005325" lon="100.941823">
<time>2015-08-06T03:32:22Z</time></trkpt>
<trkpt lat="30.005175" lon="100.941703">
<time>2015-08-06T03:32:23Z</time></trkpt>
<trkpt lat="30.005085" lon="100.941643">
<time>2015-08-06T03:32:24Z</time></trkpt>
<trkpt lat="30.004965" lon="100.941574">
<time>2015-08-06T03:32:25Z</time></trkpt>
<trkpt lat="30.004775" lon="100.941484">
<time>2015-08-06T03:32:26Z</time></trkpt>
<trkpt lat="30.004565" lon="100.941384">
<time>2015-08-06T03:32:27Z</time></trkpt>
<trkpt lat="30.004416" lon="100.941324">
<time>2015-08-06T03:32:28Z</time></trkpt>
<trkpt lat="30.004256" lon="100.941244">
<time>2015-08-06T03:32:29Z</time></trkpt>
<trkpt lat="30.004166" lon="100.941155">
<time>2015-08-06T03:32:30Z</time></trkpt>
<trkpt lat="30.004016" lon="100.940975">
<time>2015-08-06T03:32:31Z</time></trkpt>
<trkpt lat="30.003787" lon="100.940636">
<time>2015-08-06T03:32:32Z</time></trkpt>
<trkpt lat="30.003667" lon="100.940496">
<time>2015-08-06T03:32:33Z</time></trkpt>
<trkpt lat="30.003457" lon="100.940297">
<time>2015-08-06T03:32:34Z</time></trkpt>
<trkpt lat="30.003328" lon="100.940157">
<time>2015-08-06T03:32:35Z</time></trkpt>
<trkpt lat="30.003168" lon="100.939958">
<time>2015-08-06T03:32:36Z</time></trkpt>
<trkpt lat="30.003068" lon="100.939778">
<time>2015-08-06T03:32:37Z</time></trkpt>
<trkpt lat="30.002998" lon="100.939659">
<time>2015-08-06T03:32:38Z</time></trkpt>
<trkpt lat="30.002879" lon="100.939369">
<time>2015-08-06T03:32:39Z</time></trkpt>
<trkpt lat="30.002789" lon="100.93913">
<time>2015-08-06T03:32:40Z</time></trkpt>
<trkpt lat="30.002749" lon="100.93903">
<time>2015-08-06T03:32:41Z</time></trkpt>
<trkpt lat="30.00253" lon="100.938452">
<time>2015-08-06T03:32:42Z</time></trkpt>
<trkpt lat="30.002441" lon="100.938252">
<time>2015-08-06T03:32:43Z</time></trkpt>
<trkpt lat="30.002261" lon="100.937923">
<time>2015-08-06T03:32:44Z</time></trkpt>
<trkpt lat="30.002022" lon="100.937474">
<time>2015-08-06T03:32:45Z</time></trkpt>
<trkpt lat="30.001683" lon="100.936786">
<time>2015-08-06T03:32:46Z</time></trkpt>
<trkpt lat="30.001574" lon="100.936586">
<time>2015-08-06T03:32:47Z</time></trkpt>
<trkpt lat="30.001494" lon="100.936457">
<time>2015-08-06T03:32:48Z</time></trkpt>
<trkpt lat="30.001344" lon="100.936277">
<time>2015-08-06T03:32:49Z</time></trkpt>
<trkpt lat="30.001154" lon="100.936108">
<time>2015-08-06T03:32:50Z</time></trkpt>
<trkpt lat="30.000735" lon="100.935768">
<time>2015-08-06T03:32:51Z</time></trkpt>
<trkpt lat="30.000295" lon="100.935399">
<time>2015-08-06T03:32:52Z</time></trkpt>
<trkpt lat="30.000026" lon="100.93517">
<time>2015-08-06T03:32:53Z</time></trkpt>
<trkpt lat="29.999906" lon="100.93508">
<time>2015-08-06T03:32:54Z</time></trkpt>
<trkpt lat="29.999696" lon="100.934921">
<time>2015-08-06T03:32:55Z</time></trkpt>
<trkpt lat="29.999436" lon="100.934741">
<time>2015-08-06T03:32:56Z</time></trkpt>
<trkpt lat="29.999237" lon="100.934591">
<time>2015-08-06T03:32:57Z</time></trkpt>
<trkpt lat="29.999037" lon="100.934472">
<time>2015-08-06T03:32:58Z</time></trkpt>
<trkpt lat="29.998737" lon="100.934342">
<time>2015-08-06T03:32:59Z</time></trkpt>
<trkpt lat="29.998377" lon="100.934172">
<time>2015-08-06T03:33:00Z</time></trkpt>
<trkpt lat="29.998237" lon="100.934102">
<time>2015-08-06T03:33:01Z</time></trkpt>
<trkpt lat="29.997978" lon="100.933923">
<time>2015-08-06T03:33:02Z</time></trkpt>
<trkpt lat="29.997538" lon="100.933604">
<time>2015-08-06T03:33:03Z</time></trkpt>
<trkpt lat="29.996969" lon="100.933244">
<time>2015-08-06T03:33:04Z</time></trkpt>
<trkpt lat="29.996429" lon="100.932835">
<time>2015-08-06T03:33:05Z</time></trkpt>
<trkpt lat="29.996199" lon="100.932656">
<time>2015-08-06T03:33:06Z</time></trkpt>
<trkpt lat="29.99611" lon="100.932556">
<time>2015-08-06T03:33:07Z</time></trkpt>
<trkpt lat="29.99604" lon="100.932466">
<time>2015-08-06T03:33:08Z</time></trkpt>
<trkpt lat="29.99583" lon="100.932177">
<time>2015-08-06T03:33:09Z</time></trkpt>
<trkpt lat="29.995291" lon="100.931449">
<time>2015-08-06T03:33:10Z</time></trkpt>
<trkpt lat="29.995082" lon="100.931149">
<time>2015-08-06T03:33:11Z</time></trkpt>
<trkpt lat="29.995032" lon="100.931059">
<time>2015-08-06T03:33:12Z</time></trkpt>
<trkpt lat="29.994982" lon="100.93096">
<time>2015-08-06T03:33:13Z</time></trkpt>
<trkpt lat="29.994962" lon="100.93087">
<time>2015-08-06T03:33:14Z</time></trkpt>
<trkpt lat="29.994942" lon="100.93079">
<time>2015-08-06T03:33:15Z</time></trkpt>
<trkpt lat="29.994942" lon="100.93071">
<time>2015-08-06T03:33:16Z</time></trkpt>
<trkpt lat="29.994952" lon="100.930541">
<time>2015-08-06T03:33:17Z</time></trkpt>
<trkpt lat="29.994983" lon="100.930241">
<time>2015-08-06T03:33:18Z</time></trkpt>
<trkpt lat="29.995013" lon="100.929962">
<time>2015-08-06T03:33:19Z</time></trkpt>
<trkpt lat="29.995033" lon="100.929802">
<time>2015-08-06T03:33:20Z</time></trkpt>
<trkpt lat="29.995034" lon="100.929662">
<time>2015-08-06T03:33:21Z</time></trkpt>
<trkpt lat="29.995024" lon="100.929563">
<time>2015-08-06T03:33:22Z</time></trkpt>
<trkpt lat="29.995004" lon="100.929453">
<time>2015-08-06T03:33:23Z</time></trkpt>
<trkpt lat="29.994974" lon="100.929333">
<time>2015-08-06T03:33:24Z</time></trkpt>
<trkpt lat="29.994785" lon="100.928724">
<time>2015-08-06T03:33:25Z</time></trkpt>
<trkpt lat="29.994625" lon="100.928295">
<time>2015-08-06T03:33:26Z</time></trkpt>
<trkpt lat="29.994536" lon="100.928096">
<time>2015-08-06T03:33:27Z</time></trkpt>
<trkpt lat="29.994486" lon="100.927996">
<time>2015-08-06T03:33:28Z</time></trkpt>
<trkpt lat="29.994436" lon="100.927926">
<time>2015-08-06T03:33:29Z</time></trkpt>
<trkpt lat="29.994356" lon="100.927836">
<time>2015-08-06T03:33:30Z</time></trkpt>
<trkpt lat="29.994236" lon="100.927726">
<time>2015-08-06T03:33:31Z</time></trkpt>
<trkpt lat="29.993946" lon="100.927507">
<time>2015-08-06T03:33:32Z</time></trkpt>
<trkpt lat="29.993826" lon="100.927397">
<time>2015-08-06T03:33:33Z</time></trkpt>
<trkpt lat="29.993726" lon="100.927287">
<time>2015-08-06T03:33:34Z</time></trkpt>
<trkpt lat="29.993657" lon="100.927197">
<time>2015-08-06T03:33:35Z</time></trkpt>
<trkpt lat="29.993587" lon="100.927098">
<time>2015-08-06T03:33:36Z</time></trkpt>
<trkpt lat="29.993547" lon="100.927008">
<time>2015-08-06T03:33:37Z</time></trkpt>
<trkpt lat="29.993497" lon="100.926878">
<time>2015-08-06T03:33:38Z</time></trkpt>
<trkpt lat="29.993437" lon="100.926659">
<time>2015-08-06T03:33:39Z</time></trkpt>
<trkpt lat="29.993368" lon="100.926429">
<time>2015-08-06T03:33:40Z</time></trkpt>
<trkpt lat="29.993308" lon="100.926289">
<time>2015-08-06T03:33:41Z</time></trkpt>
<trkpt lat="29.993228" lon="100.92615">
<time>2015-08-06T03:33:42Z</time></trkpt>
<trkpt lat="29.993168" lon="100.92605">
<time>2015-08-06T03:33:43Z</time></trkpt>
<trkpt lat="29.993088" lon="100.92595">
<time>2015-08-06T03:33:44Z</time></trkpt>
<trkpt lat="29.992968" lon="100.92582">
<time>2015-08-06T03:33:45Z</time></trkpt>
<trkpt lat="29.992828" lon="100.92567">
<time>2015-08-06T03:33:46Z</time></trkpt>
<trkpt lat="29.992709" lon="100.925491">
<time>2015-08-06T03:33:47Z</time></trkpt>
<trkpt lat="29.992569" lon="100.925281">
<time>2015-08-06T03:33:48Z</time></trkpt>
<trkpt lat="29.992439" lon="100.925082">
<time>2015-08-06T03:33:49Z</time></trkpt>
<trkpt lat="29.992329" lon="100.924912">
<time>2015-08-06T03:33:50Z</time></trkpt>
<trkpt lat="29.992219" lon="100.924762">
<time>2015-08-06T03:33:51Z</time></trkpt>
<trkpt lat="29.99208" lon="100.924612">
<time>2015-08-06T03:33:52Z</time></trkpt>
<trkpt lat="29.99197" lon="100.924493">
<time>2015-08-06T03:33:53Z</time></trkpt>
<trkpt lat="29.99191" lon="100.924413">
<time>2015-08-06T03:33:54Z</time></trkpt>
<trkpt lat="29.99188" lon="100.924353">
<time>2015-08-06T03:33:55Z</time></trkpt>
<trkpt lat="29.99183" lon="100.924253">
<time>2015-08-06T03:33:56Z</time></trkpt>
<trkpt lat="29.99176" lon="100.924064">
<time>2015-08-06T03:33:57Z</time></trkpt>
<trkpt lat="29.99171" lon="100.923884">
<time>2015-08-06T03:33:58Z</time></trkpt>
<trkpt lat="29.991611" lon="100.923524">
<time>2015-08-06T03:33:59Z</time></trkpt>
<trkpt lat="29.991561" lon="100.923325">
<time>2015-08-06T03:34:00Z</time></trkpt>
<trkpt lat="29.991541" lon="100.923175">
<time>2015-08-06T03:34:01Z</time></trkpt>
<trkpt lat="29.991492" lon="100.922646">
<time>2015-08-06T03:34:02Z</time></trkpt>
<trkpt lat="29.991452" lon="100.922227">
<time>2015-08-06T03:34:03Z</time></trkpt>
<trkpt lat="29.991422" lon="100.921957">
<time>2015-08-06T03:34:04Z</time></trkpt>
<trkpt lat="29.991402" lon="100.921827">
<time>2015-08-06T03:34:05Z</time></trkpt>
<trkpt lat="29.991382" lon="100.921748">
<time>2015-08-06T03:34:06Z</time></trkpt>
<trkpt lat="29.991353" lon="100.921658">
<time>2015-08-06T03:34:07Z</time></trkpt>
<trkpt lat="29.991333" lon="100.921588">
<time>2015-08-06T03:34:08Z</time></trkpt>
<trkpt lat="29.991303" lon="100.921538">
<time>2015-08-06T03:34:09Z</time></trkpt>
<trkpt lat="29.991253" lon="100.921468">
<time>2015-08-06T03:34:10Z</time></trkpt>
<trkpt lat="29.991143" lon="100.921308">
<time>2015-08-06T03:34:11Z</time></trkpt>
<trkpt lat="29.991063" lon="100.921209">
<time>2015-08-06T03:34:12Z</time></trkpt>
<trkpt lat="29.991003" lon="100.921119">
<time>2015-08-06T03:34:13Z</time></trkpt>
<trkpt lat="29.990953" lon="100.921019">
<time>2015-08-06T03:34:14Z</time></trkpt>
<trkpt lat="29.990923" lon="100.920929">
<time>2015-08-06T03:34:15Z</time></trkpt>
<trkpt lat="29.990893" lon="100.920829">
<time>2015-08-06T03:34:16Z</time></trkpt>
<trkpt lat="29.990873" lon="100.920739">
<time>2015-08-06T03:34:17Z</time></trkpt>
<trkpt lat="29.990844" lon="100.92059">
<time>2015-08-06T03:34:18Z</time></trkpt>
<trkpt lat="29.990804" lon="100.92043">
<time>2015-08-06T03:34:19Z</time></trkpt>
<trkpt lat="29.990754" lon="100.92023">
<time>2015-08-06T03:34:20Z</time></trkpt>
<trkpt lat="29.990684" lon="100.92004">
<time>2015-08-06T03:34:21Z</time></trkpt>
<trkpt lat="29.990584" lon="100.919801">
<time>2015-08-06T03:34:22Z</time></trkpt>
<trkpt lat="29.990444" lon="100.919491">
<time>2015-08-06T03:34:23Z</time></trkpt>
<trkpt lat="29.990285" lon="100.919192">
<time>2015-08-06T03:34:24Z</time></trkpt>
<trkpt lat="29.990225" lon="100.919082">
<time>2015-08-06T03:34:25Z</time></trkpt>
<trkpt lat="29.990155" lon="100.918992">
<time>2015-08-06T03:34:26Z</time></trkpt>
<trkpt lat="29.990085" lon="100.918912">
<time>2015-08-06T03:34:27Z</time></trkpt>
<trkpt lat="29.989995" lon="100.918842">
<time>2015-08-06T03:34:28Z</time></trkpt>
<trkpt lat="29.989915" lon="100.918792">
<time>2015-08-06T03:34:29Z</time></trkpt>
<trkpt lat="29.989815" lon="100.918743">
<time>2015-08-06T03:34:30Z</time></trkpt>
<trkpt lat="29.989685" lon="100.918683">
<time>2015-08-06T03:34:31Z</time></trkpt>
<trkpt lat="29.989555" lon="100.918603">
<time>2015-08-06T03:34:32Z</time></trkpt>
<trkpt lat="29.989485" lon="100.918543">
<time>2015-08-06T03:34:33Z</time></trkpt>
<trkpt lat="29.989435" lon="100.918493">
<time>2015-08-06T03:34:34Z</time></trkpt>
<trkpt lat="29.989385" lon="100.918423">
<time>2015-08-06T03:34:35Z</time></trkpt>
<trkpt lat="29.989355" lon="100.918373">
<time>2015-08-06T03:34:36Z</time></trkpt>
<trkpt lat="29.989335" lon="100.918293">
<time>2015-08-06T03:34:37Z</time></trkpt>
<trkpt lat="29.989316" lon="100.918203">
<time>2015-08-06T03:34:38Z</time></trkpt>
<trkpt lat="29.989296" lon="100.918054">
<time>2015-08-06T03:34:39Z</time></trkpt>
<trkpt lat="29.989276" lon="100.917864">
<time>2015-08-06T03:34:40Z</time></trkpt>
<trkpt lat="29.989256" lon="100.917774">
<time>2015-08-06T03:34:41Z</time></trkpt>
<trkpt lat="29.989236" lon="100.917684">
<time>2015-08-06T03:34:42Z</time></trkpt>
<trkpt lat="29.989186" lon="100.917554">
<time>2015-08-06T03:34:43Z</time></trkpt>
<trkpt lat="29.988956" lon="100.916955">
<time>2015-08-06T03:34:44Z</time></trkpt>
<trkpt lat="29.988877" lon="100.916716">
<time>2015-08-06T03:34:45Z</time></trkpt>
<trkpt lat="29.988857" lon="100.916606">
<time>2015-08-06T03:34:46Z</time></trkpt>
<trkpt lat="29.988847" lon="100.916506">
<time>2015-08-06T03:34:47Z</time></trkpt>
<trkpt lat="29.988847" lon="100.916426">
<time>2015-08-06T03:34:48Z</time></trkpt>
<trkpt lat="29.988847" lon="100.916356">
<time>2015-08-06T03:34:49Z</time></trkpt>
<trkpt lat="29.988867" lon="100.916266">
<time>2015-08-06T03:34:50Z</time></trkpt>
<trkpt lat="29.988927" lon="100.916086">
<time>2015-08-06T03:34:51Z</time></trkpt>
<trkpt lat="29.988997" lon="100.915817">
<time>2015-08-06T03:34:52Z</time></trkpt>
<trkpt lat="29.989027" lon="100.915677">
<time>2015-08-06T03:34:53Z</time></trkpt>
<trkpt lat="29.989037" lon="100.915557">
<time>2015-08-06T03:34:54Z</time></trkpt>
<trkpt lat="29.989048" lon="100.915457">
<time>2015-08-06T03:34:55Z</time></trkpt>
<trkpt lat="29.989038" lon="100.915367">
<time>2015-08-06T03:34:56Z</time></trkpt>
<trkpt lat="29.989008" lon="100.915228">
<time>2015-08-06T03:34:57Z</time></trkpt>
<trkpt lat="29.988968" lon="100.915038">
<time>2015-08-06T03:34:58Z</time></trkpt>
<trkpt lat="29.988888" lon="100.914748">
<time>2015-08-06T03:34:59Z</time></trkpt>
<trkpt lat="29.988828" lon="100.914569">
<time>2015-08-06T03:35:00Z</time></trkpt>
<trkpt lat="29.988778" lon="100.914459">
<time>2015-08-06T03:35:01Z</time></trkpt>
<trkpt lat="29.988728" lon="100.914359">
<time>2015-08-06T03:35:02Z</time></trkpt>
<trkpt lat="29.988688" lon="100.914279">
<time>2015-08-06T03:35:03Z</time></trkpt>
<trkpt lat="29.988608" lon="100.914169">
<time>2015-08-06T03:35:04Z</time></trkpt>
<trkpt lat="29.988498" lon="100.914019">
<time>2015-08-06T03:35:05Z</time></trkpt>
<trkpt lat="29.988409" lon="100.913879">
<time>2015-08-06T03:35:06Z</time></trkpt>
<trkpt lat="29.988349" lon="100.91376">
<time>2015-08-06T03:35:07Z</time></trkpt>
<trkpt lat="29.988299" lon="100.91365">
<time>2015-08-06T03:35:08Z</time></trkpt>
<trkpt lat="29.988249" lon="100.91351">
<time>2015-08-06T03:35:09Z</time></trkpt>
<trkpt lat="29.988149" lon="100.91314">
<time>2015-08-06T03:35:10Z</time></trkpt>
<trkpt lat="29.988099" lon="100.912981">
<time>2015-08-06T03:35:11Z</time></trkpt>
<trkpt lat="29.988059" lon="100.912881">
<time>2015-08-06T03:35:12Z</time></trkpt>
<trkpt lat="29.988009" lon="100.912781">
<time>2015-08-06T03:35:13Z</time></trkpt>
<trkpt lat="29.987949" lon="100.912701">
<time>2015-08-06T03:35:14Z</time></trkpt>
<trkpt lat="29.987869" lon="100.912591">
<time>2015-08-06T03:35:15Z</time></trkpt>
<trkpt lat="29.987719" lon="100.912431">
<time>2015-08-06T03:35:16Z</time></trkpt>
<trkpt lat="29.98734" lon="100.912072">
<time>2015-08-06T03:35:17Z</time></trkpt>
<trkpt lat="29.98703" lon="100.911772">
<time>2015-08-06T03:35:18Z</time></trkpt>
<trkpt lat="29.98687" lon="100.911582">
<time>2015-08-06T03:35:19Z</time></trkpt>
<trkpt lat="29.9867" lon="100.911373">
<time>2015-08-06T03:35:20Z</time></trkpt>
<trkpt lat="29.98657" lon="100.911143">
<time>2015-08-06T03:35:21Z</time></trkpt>
<trkpt lat="29.98648" lon="100.910953">
<time>2015-08-06T03:35:22Z</time></trkpt>
<trkpt lat="29.98635" lon="100.910623">
<time>2015-08-06T03:35:23Z</time></trkpt>
<trkpt lat="29.986051" lon="100.909794">
<time>2015-08-06T03:35:24Z</time></trkpt>
<trkpt lat="29.985961" lon="100.909545">
<time>2015-08-06T03:35:25Z</time></trkpt>
<trkpt lat="29.985901" lon="100.909365">
<time>2015-08-06T03:35:26Z</time></trkpt>
<trkpt lat="29.985841" lon="100.909245">
<time>2015-08-06T03:35:27Z</time></trkpt>
<trkpt lat="29.985781" lon="100.909115">
<time>2015-08-06T03:35:28Z</time></trkpt>
<trkpt lat="29.985731" lon="100.909005">
<time>2015-08-06T03:35:29Z</time></trkpt>
<trkpt lat="29.985701" lon="100.908905">
<time>2015-08-06T03:35:30Z</time></trkpt>
<trkpt lat="29.985671" lon="100.908795">
<time>2015-08-06T03:35:31Z</time></trkpt>
<trkpt lat="29.985661" lon="100.908696">
<time>2015-08-06T03:35:32Z</time></trkpt>
<trkpt lat="29.985651" lon="100.908616">
<time>2015-08-06T03:35:33Z</time></trkpt>
<trkpt lat="29.985651" lon="100.908576">
<time>2015-08-06T03:35:34Z</time></trkpt>
<trkpt lat="29.985671" lon="100.908546">
<time>2015-08-06T03:35:35Z</time></trkpt>
<trkpt lat="29.985701" lon="100.908526">
<time>2015-08-06T03:35:36Z</time></trkpt>
<trkpt lat="29.985741" lon="100.908516">
<time>2015-08-06T03:35:37Z</time></trkpt>
<trkpt lat="29.985791" lon="100.908516">
<time>2015-08-06T03:35:38Z</time></trkpt>
<trkpt lat="29.985831" lon="100.908536">
<time>2015-08-06T03:35:39Z</time></trkpt>
<trkpt lat="29.985871" lon="100.908556">
<time>2015-08-06T03:35:40Z</time></trkpt>
<trkpt lat="29.985911" lon="100.908596">
<time>2015-08-06T03:35:41Z</time></trkpt>
<trkpt lat="29.985941" lon="100.908636">
<time>2015-08-06T03:35:42Z</time></trkpt>
<trkpt lat="29.985971" lon="100.908706">
<time>2015-08-06T03:35:43Z</time></trkpt>
<trkpt lat="29.986031" lon="100.908885">
<time>2015-08-06T03:35:44Z</time></trkpt>
<trkpt lat="29.986081" lon="100.908995">
<time>2015-08-06T03:35:45Z</time></trkpt>
<trkpt lat="29.986121" lon="100.909105">
<time>2015-08-06T03:35:46Z</time></trkpt>
<trkpt lat="29.986181" lon="100.909195">
<time>2015-08-06T03:35:47Z</time></trkpt>
<trkpt lat="29.986261" lon="100.909275">
<time>2015-08-06T03:35:48Z</time></trkpt>
<trkpt lat="29.986331" lon="100.909335">
<time>2015-08-06T03:35:49Z</time></trkpt>
<trkpt lat="29.986421" lon="100.909375">
<time>2015-08-06T03:35:50Z</time></trkpt>
<trkpt lat="29.986521" lon="100.909395">
<time>2015-08-06T03:35:51Z</time></trkpt>
<trkpt lat="29.986631" lon="100.909385">
<time>2015-08-06T03:35:52Z</time></trkpt>
<trkpt lat="29.986791" lon="100.909385">
<time>2015-08-06T03:35:53Z</time></trkpt>
<trkpt lat="29.986981" lon="100.909365">
<time>2015-08-06T03:35:54Z</time></trkpt>
<trkpt lat="29.987091" lon="100.909345">
<time>2015-08-06T03:35:55Z</time></trkpt>
<trkpt lat="29.987171" lon="100.909315">
<time>2015-08-06T03:35:56Z</time></trkpt>
<trkpt lat="29.987231" lon="100.909285">
<time>2015-08-06T03:35:57Z</time></trkpt>
<trkpt lat="29.987291" lon="100.909225">
<time>2015-08-06T03:35:58Z</time></trkpt>
<trkpt lat="29.987351" lon="100.909135">
<time>2015-08-06T03:35:59Z</time></trkpt>
<trkpt lat="29.987371" lon="100.909045">
<time>2015-08-06T03:36:00Z</time></trkpt>
<trkpt lat="29.987381" lon="100.908955">
<time>2015-08-06T03:36:01Z</time></trkpt>
<trkpt lat="29.987361" lon="100.908875">
<time>2015-08-06T03:36:02Z</time></trkpt>
<trkpt lat="29.987321" lon="100.908755">
<time>2015-08-06T03:36:03Z</time></trkpt>
<trkpt lat="29.987241" lon="100.908626">
<time>2015-08-06T03:36:04Z</time></trkpt>
<trkpt lat="29.986951" lon="100.908226">
<time>2015-08-06T03:36:05Z</time></trkpt>
<trkpt lat="29.986411" lon="100.907547">
<time>2015-08-06T03:36:06Z</time></trkpt>
<trkpt lat="29.986271" lon="100.907347">
<time>2015-08-06T03:36:07Z</time></trkpt>
<trkpt lat="29.986232" lon="100.907247">
<time>2015-08-06T03:36:08Z</time></trkpt>
<trkpt lat="29.986202" lon="100.907137">
<time>2015-08-06T03:36:09Z</time></trkpt>
<trkpt lat="29.986192" lon="100.907047">
<time>2015-08-06T03:36:10Z</time></trkpt>
<trkpt lat="29.986202" lon="100.906957">
<time>2015-08-06T03:36:11Z</time></trkpt>
<trkpt lat="29.986222" lon="100.906847">
<time>2015-08-06T03:36:12Z</time></trkpt>
<trkpt lat="29.986282" lon="100.906538">
<time>2015-08-06T03:36:13Z</time></trkpt>
<trkpt lat="29.986302" lon="100.906388">
<time>2015-08-06T03:36:14Z</time></trkpt>
<trkpt lat="29.986312" lon="100.906238">
<time>2015-08-06T03:36:15Z</time></trkpt>
<trkpt lat="29.986302" lon="100.906078">
<time>2015-08-06T03:36:16Z</time></trkpt>
<trkpt lat="29.986292" lon="100.905918">
<time>2015-08-06T03:36:17Z</time></trkpt>
<trkpt lat="29.986302" lon="100.905778">
<time>2015-08-06T03:36:18Z</time></trkpt>
<trkpt lat="29.986322" lon="100.905638">
<time>2015-08-06T03:36:19Z</time></trkpt>
<trkpt lat="29.986372" lon="100.905439">
<time>2015-08-06T03:36:20Z</time></trkpt>
<trkpt lat="29.986542" lon="100.904989">
<time>2015-08-06T03:36:21Z</time></trkpt>
<trkpt lat="29.986602" lon="100.904809">
<time>2015-08-06T03:36:22Z</time></trkpt>
<trkpt lat="29.986632" lon="100.904649">
<time>2015-08-06T03:36:23Z</time></trkpt>
<trkpt lat="29.986642" lon="100.904519">
<time>2015-08-06T03:36:24Z</time></trkpt>
<trkpt lat="29.986642" lon="100.904379">
<time>2015-08-06T03:36:25Z</time></trkpt>
<trkpt lat="29.986632" lon="100.90414">
<time>2015-08-06T03:36:26Z</time></trkpt>
<trkpt lat="29.986542" lon="100.903061">
<time>2015-08-06T03:36:27Z</time></trkpt>
<trkpt lat="29.986492" lon="100.902361">
<time>2015-08-06T03:36:28Z</time></trkpt>
<trkpt lat="29.986482" lon="100.902161">
<time>2015-08-06T03:36:29Z</time></trkpt>
<trkpt lat="29.986502" lon="100.902001">
<time>2015-08-06T03:36:30Z</time></trkpt>
<trkpt lat="29.986532" lon="100.901871">
<time>2015-08-06T03:36:31Z</time></trkpt>
<trkpt lat="29.986592" lon="100.901741">
<time>2015-08-06T03:36:32Z</time></trkpt>
<trkpt lat="29.986692" lon="100.901592">
<time>2015-08-06T03:36:33Z</time></trkpt>
<trkpt lat="29.986833" lon="100.901412">
<time>2015-08-06T03:36:34Z</time></trkpt>
<trkpt lat="29.987053" lon="100.901132">
<time>2015-08-06T03:36:35Z</time></trkpt>
<trkpt lat="29.987193" lon="100.900962">
<time>2015-08-06T03:36:36Z</time></trkpt>
<trkpt lat="29.987243" lon="100.900872">
<time>2015-08-06T03:36:37Z</time></trkpt>
<trkpt lat="29.987273" lon="100.900802">
<time>2015-08-06T03:36:38Z</time></trkpt>
<trkpt lat="29.987273" lon="100.900752">
<time>2015-08-06T03:36:39Z</time></trkpt>
<trkpt lat="29.987273" lon="100.900692">
<time>2015-08-06T03:36:40Z</time></trkpt>
<trkpt lat="29.987263" lon="100.900642">
<time>2015-08-06T03:36:41Z</time></trkpt>
<trkpt lat="29.987233" lon="100.900572">
<time>2015-08-06T03:36:42Z</time></trkpt>
<trkpt lat="29.987163" lon="100.900472">
<time>2015-08-06T03:36:43Z</time></trkpt>
<trkpt lat="29.987103" lon="100.900402">
<time>2015-08-06T03:36:44Z</time></trkpt>
<trkpt lat="29.987053" lon="100.900362">
<time>2015-08-06T03:36:45Z</time></trkpt>
<trkpt lat="29.986983" lon="100.900322">
<time>2015-08-06T03:36:46Z</time></trkpt>
<trkpt lat="29.986923" lon="100.900292">
<time>2015-08-06T03:36:47Z</time></trkpt>
<trkpt lat="29.986863" lon="100.900282">
<time>2015-08-06T03:36:48Z</time></trkpt>
<trkpt lat="29.986803" lon="100.900272">
<time>2015-08-06T03:36:49Z</time></trkpt>
<trkpt lat="29.986743" lon="100.900282">
<time>2015-08-06T03:36:50Z</time></trkpt>
<trkpt lat="29.986683" lon="100.900302">
<time>2015-08-06T03:36:51Z</time></trkpt>
<trkpt lat="29.986623" lon="100.900332">
<time>2015-08-06T03:36:52Z</time></trkpt>
<trkpt lat="29.986563" lon="100.900362">
<time>2015-08-06T03:36:53Z</time></trkpt>
<trkpt lat="29.986463" lon="100.900452">
<time>2015-08-06T03:36:54Z</time></trkpt>
<trkpt lat="29.986283" lon="100.900622">
<time>2015-08-06T03:36:55Z</time></trkpt>
<trkpt lat="29.986153" lon="100.900752">
<time>2015-08-06T03:36:56Z</time></trkpt>
<trkpt lat="29.986023" lon="100.900862">
<time>2015-08-06T03:36:57Z</time></trkpt>
<trkpt lat="29.985913" lon="100.900942">
<time>2015-08-06T03:36:58Z</time></trkpt>
<trkpt lat="29.985833" lon="100.901012">
<time>2015-08-06T03:36:59Z</time></trkpt>
<trkpt lat="29.985753" lon="100.901082">
<time>2015-08-06T03:37:00Z</time></trkpt>
<trkpt lat="29.985653" lon="100.901192">
<time>2015-08-06T03:37:01Z</time></trkpt>
<trkpt lat="29.985583" lon="100.901282">
<time>2015-08-06T03:37:02Z</time></trkpt>
<trkpt lat="29.985473" lon="100.901392">
<time>2015-08-06T03:37:03Z</time></trkpt>
<trkpt lat="29.985332" lon="100.901512">
<time>2015-08-06T03:37:04Z</time></trkpt>
<trkpt lat="29.984972" lon="100.901771">
<time>2015-08-06T03:37:05Z</time></trkpt>
<trkpt lat="29.984482" lon="100.902121">
<time>2015-08-06T03:37:06Z</time></trkpt>
<trkpt lat="29.984182" lon="100.902331">
<time>2015-08-06T03:37:07Z</time></trkpt>
<trkpt lat="29.984082" lon="100.902411">
<time>2015-08-06T03:37:08Z</time></trkpt>
<trkpt lat="29.983992" lon="100.902461">
<time>2015-08-06T03:37:09Z</time></trkpt>
<trkpt lat="29.983922" lon="100.902501">
<time>2015-08-06T03:37:10Z</time></trkpt>
<trkpt lat="29.983862" lon="100.902521">
<time>2015-08-06T03:37:11Z</time></trkpt>
<trkpt lat="29.983802" lon="100.902541">
<time>2015-08-06T03:37:12Z</time></trkpt>
<trkpt lat="29.983722" lon="100.902551">
<time>2015-08-06T03:37:13Z</time></trkpt>
<trkpt lat="29.983642" lon="100.902551">
<time>2015-08-06T03:37:14Z</time></trkpt>
<trkpt lat="29.983432" lon="100.902531">
<time>2015-08-06T03:37:15Z</time></trkpt>
<trkpt lat="29.983042" lon="100.902531">
<time>2015-08-06T03:37:16Z</time></trkpt>
<trkpt lat="29.982902" lon="100.902521">
<time>2015-08-06T03:37:17Z</time></trkpt>
<trkpt lat="29.982762" lon="100.902511">
<time>2015-08-06T03:37:18Z</time></trkpt>
<trkpt lat="29.982642" lon="100.902491">
<time>2015-08-06T03:37:19Z</time></trkpt>
<trkpt lat="29.982482" lon="100.902441">
<time>2015-08-06T03:37:20Z</time></trkpt>
<trkpt lat="29.982202" lon="100.902351">
<time>2015-08-06T03:37:21Z</time></trkpt>
<trkpt lat="29.981802" lon="100.902221">
<time>2015-08-06T03:37:22Z</time></trkpt>
<trkpt lat="29.981502" lon="100.902131">
<time>2015-08-06T03:37:23Z</time></trkpt>
<trkpt lat="29.981432" lon="100.902111">
<time>2015-08-06T03:37:24Z</time></trkpt>
<trkpt lat="29.981362" lon="100.902111">
<time>2015-08-06T03:37:25Z</time></trkpt>
<trkpt lat="29.981302" lon="100.902121">
<time>2015-08-06T03:37:26Z</time></trkpt>
<trkpt lat="29.981242" lon="100.902141">
<time>2015-08-06T03:37:27Z</time></trkpt>
<trkpt lat="29.981172" lon="100.902171">
<time>2015-08-06T03:37:28Z</time></trkpt>
<trkpt lat="29.981102" lon="100.902221">
<time>2015-08-06T03:37:29Z</time></trkpt>
<trkpt lat="29.981012" lon="100.902321">
<time>2015-08-06T03:37:30Z</time></trkpt>
<trkpt lat="29.980932" lon="100.902411">
<time>2015-08-06T03:37:31Z</time></trkpt>
<trkpt lat="29.980882" lon="100.902471">
<time>2015-08-06T03:37:32Z</time></trkpt>
<trkpt lat="29.980832" lon="100.902511">
<time>2015-08-06T03:37:33Z</time></trkpt>
<trkpt lat="29.980782" lon="100.902541">
<time>2015-08-06T03:37:34Z</time></trkpt>
<trkpt lat="29.980732" lon="100.902551">
<time>2015-08-06T03:37:35Z</time></trkpt>
<trkpt lat="29.980702" lon="100.902561">
<time>2015-08-06T03:37:36Z</time></trkpt>
<trkpt lat="29.980652" lon="100.902571">
<time>2015-08-06T03:37:37Z</time></trkpt>
<trkpt lat="29.980592" lon="100.902561">
<time>2015-08-06T03:37:38Z</time></trkpt>
<trkpt lat="29.980522" lon="100.902541">
<time>2015-08-06T03:37:39Z</time></trkpt>
<trkpt lat="29.980442" lon="100.902491">
<time>2015-08-06T03:37:40Z</time></trkpt>
<trkpt lat="29.980372" lon="100.902421">
<time>2015-08-06T03:37:41Z</time></trkpt>
<trkpt lat="29.980332" lon="100.902351">
<time>2015-08-06T03:37:42Z</time></trkpt>
<trkpt lat="29.980312" lon="100.902271">
<time>2015-08-06T03:37:43Z</time></trkpt>
<trkpt lat="29.980312" lon="100.902191">
<time>2015-08-06T03:37:44Z</time></trkpt>
<trkpt lat="29.980322" lon="100.902111">
<time>2015-08-06T03:37:45Z</time></trkpt>
<trkpt lat="29.980342" lon="100.902031">
<time>2015-08-06T03:37:46Z</time></trkpt>
<trkpt lat="29.980382" lon="100.901931">
<time>2015-08-06T03:37:47Z</time></trkpt>
<trkpt lat="29.980432" lon="100.901862">
<time>2015-08-06T03:37:48Z</time></trkpt>
<trkpt lat="29.980482" lon="100.901812">
<time>2015-08-06T03:37:49Z</time></trkpt>
<trkpt lat="29.980542" lon="100.901782">
<time>2015-08-06T03:37:50Z</time></trkpt>
<trkpt lat="29.980622" lon="100.901752">
<time>2015-08-06T03:37:51Z</time></trkpt>
<trkpt lat="29.980752" lon="100.901712">
<time>2015-08-06T03:37:52Z</time></trkpt>
<trkpt lat="29.980922" lon="100.901662">
<time>2015-08-06T03:37:53Z</time></trkpt>
<trkpt lat="29.981032" lon="100.901642">
<time>2015-08-06T03:37:54Z</time></trkpt>
<trkpt lat="29.981132" lon="100.901632">
<time>2015-08-06T03:37:55Z</time></trkpt>
<trkpt lat="29.981242" lon="100.901632">
<time>2015-08-06T03:37:56Z</time></trkpt>
<trkpt lat="29.981352" lon="100.901642">
<time>2015-08-06T03:37:57Z</time></trkpt>
<trkpt lat="29.981522" lon="100.901662">
<time>2015-08-06T03:37:58Z</time></trkpt>
<trkpt lat="29.981802" lon="100.901682">
<time>2015-08-06T03:37:59Z</time></trkpt>
<trkpt lat="29.982102" lon="100.901692">
<time>2015-08-06T03:38:00Z</time></trkpt>
<trkpt lat="29.982322" lon="100.901682">
<time>2015-08-06T03:38:01Z</time></trkpt>
<trkpt lat="29.982532" lon="100.901652">
<time>2015-08-06T03:38:02Z</time></trkpt>
<trkpt lat="29.982732" lon="100.901612">
<time>2015-08-06T03:38:03Z</time></trkpt>
<trkpt lat="29.982872" lon="100.901592">
<time>2015-08-06T03:38:04Z</time></trkpt>
<trkpt lat="29.982992" lon="100.901582">
<time>2015-08-06T03:38:05Z</time></trkpt>
<trkpt lat="29.983112" lon="100.901572">
<time>2015-08-06T03:38:06Z</time></trkpt>
<trkpt lat="29.983272" lon="100.901562">
<time>2015-08-06T03:38:07Z</time></trkpt>
<trkpt lat="29.983362" lon="100.901542">
<time>2015-08-06T03:38:08Z</time></trkpt>
<trkpt lat="29.983442" lon="100.901512">
<time>2015-08-06T03:38:09Z</time></trkpt>
<trkpt lat="29.983512" lon="100.901472">
<time>2015-08-06T03:38:10Z</time></trkpt>
<trkpt lat="29.983602" lon="100.901392">
<time>2015-08-06T03:38:11Z</time></trkpt>
<trkpt lat="29.983723" lon="100.901262">
<time>2015-08-06T03:38:12Z</time></trkpt>
<trkpt lat="29.983823" lon="100.901122">
<time>2015-08-06T03:38:13Z</time></trkpt>
<trkpt lat="29.983893" lon="100.901022">
<time>2015-08-06T03:38:14Z</time></trkpt>
<trkpt lat="29.983963" lon="100.900892">
<time>2015-08-06T03:38:15Z</time></trkpt>
<trkpt lat="29.984043" lon="100.900752">
<time>2015-08-06T03:38:16Z</time></trkpt>
<trkpt lat="29.984123" lon="100.900642">
<time>2015-08-06T03:38:17Z</time></trkpt>
<trkpt lat="29.984253" lon="100.900472">
<time>2015-08-06T03:38:18Z</time></trkpt>
<trkpt lat="29.984443" lon="100.900302">
<time>2015-08-06T03:38:19Z</time></trkpt>
<trkpt lat="29.984543" lon="100.900212">
<time>2015-08-06T03:38:20Z</time></trkpt>
<trkpt lat="29.984613" lon="100.900142">
<time>2015-08-06T03:38:21Z</time></trkpt>
<trkpt lat="29.984663" lon="100.900063">
<time>2015-08-06T03:38:22Z</time></trkpt>
<trkpt lat="29.984713" lon="100.899953">
<time>2015-08-06T03:38:23Z</time></trkpt>
<trkpt lat="29.984842" lon="100.899583">
<time>2015-08-06T03:38:24Z</time></trkpt>
<trkpt lat="29.984882" lon="100.899493">
<time>2015-08-06T03:38:25Z</time></trkpt>
<trkpt lat="29.984912" lon="100.899423">
<time>2015-08-06T03:38:26Z</time></trkpt>
<trkpt lat="29.984972" lon="100.899343">
<time>2015-08-06T03:38:27Z</time></trkpt>
<trkpt lat="29.985082" lon="100.899213">
<time>2015-08-06T03:38:28Z</time></trkpt>
<trkpt lat="29.985312" lon="100.898983">
<time>2015-08-06T03:38:29Z</time></trkpt>
<trkpt lat="29.985512" lon="100.898783">
<time>2015-08-06T03:38:30Z</time></trkpt>
<trkpt lat="29.985602" lon="100.898673">
<time>2015-08-06T03:38:31Z</time></trkpt>
<trkpt lat="29.985672" lon="100.898573">
<time>2015-08-06T03:38:32Z</time></trkpt>
<trkpt lat="29.985742" lon="100.898463">
<time>2015-08-06T03:38:33Z</time></trkpt>
<trkpt lat="29.985892" lon="100.898173">
<time>2015-08-06T03:38:34Z</time></trkpt>
<trkpt lat="29.985992" lon="100.897934">
<time>2015-08-06T03:38:35Z</time></trkpt>
<trkpt lat="29.986072" lon="100.897694">
<time>2015-08-06T03:38:36Z</time></trkpt>
<trkpt lat="29.986132" lon="100.897494">
<time>2015-08-06T03:38:37Z</time></trkpt>
<trkpt lat="29.986192" lon="100.897094">
<time>2015-08-06T03:38:38Z</time></trkpt>
<trkpt lat="29.986232" lon="100.896744">
<time>2015-08-06T03:38:39Z</time></trkpt>
<trkpt lat="29.986242" lon="100.896544">
<time>2015-08-06T03:38:40Z</time></trkpt>
<trkpt lat="29.986232" lon="100.896364">
<time>2015-08-06T03:38:41Z</time></trkpt>
<trkpt lat="29.986202" lon="100.896184">
<time>2015-08-06T03:38:42Z</time></trkpt>
<trkpt lat="29.986162" lon="100.895924">
<time>2015-08-06T03:38:43Z</time></trkpt>
<trkpt lat="29.986122" lon="100.895745">
<time>2015-08-06T03:38:44Z</time></trkpt>
<trkpt lat="29.986072" lon="100.895575">
<time>2015-08-06T03:38:45Z</time></trkpt>
<trkpt lat="29.986032" lon="100.895455">
<time>2015-08-06T03:38:46Z</time></trkpt>
<trkpt lat="29.985972" lon="100.895345">
<time>2015-08-06T03:38:47Z</time></trkpt>
<trkpt lat="29.985872" lon="100.895185">
<time>2015-08-06T03:38:48Z</time></trkpt>
<trkpt lat="29.985772" lon="100.895035">
<time>2015-08-06T03:38:49Z</time></trkpt>
<trkpt lat="29.985712" lon="100.894925">
<time>2015-08-06T03:38:50Z</time></trkpt>
<trkpt lat="29.985682" lon="100.894845">
<time>2015-08-06T03:38:51Z</time></trkpt>
<trkpt lat="29.985672" lon="100.894775">
<time>2015-08-06T03:38:52Z</time></trkpt>
<trkpt lat="29.985662" lon="100.894705">
<time>2015-08-06T03:38:53Z</time></trkpt>
<trkpt lat="29.985672" lon="100.894635">
<time>2015-08-06T03:38:54Z</time></trkpt>
<trkpt lat="29.985702" lon="100.894585">
<time>2015-08-06T03:38:55Z</time></trkpt>
<trkpt lat="29.985722" lon="100.894545">
<time>2015-08-06T03:38:56Z</time></trkpt>
<trkpt lat="29.985772" lon="100.894505">
<time>2015-08-06T03:38:57Z</time></trkpt>
<trkpt lat="29.985822" lon="100.894475">
<time>2015-08-06T03:38:58Z</time></trkpt>
<trkpt lat="29.985882" lon="100.894465">
<time>2015-08-06T03:38:59Z</time></trkpt>
<trkpt lat="29.985982" lon="100.894455">
<time>2015-08-06T03:39:00Z</time></trkpt>
<trkpt lat="29.986122" lon="100.894445">
<time>2015-08-06T03:39:01Z</time></trkpt>
<trkpt lat="29.986272" lon="100.894415">
<time>2015-08-06T03:39:02Z</time></trkpt>
<trkpt lat="29.986382" lon="100.894395">
<time>2015-08-06T03:39:03Z</time></trkpt>
<trkpt lat="29.986492" lon="100.894355">
<time>2015-08-06T03:39:04Z</time></trkpt>
<trkpt lat="29.986602" lon="100.894285">
<time>2015-08-06T03:39:05Z</time></trkpt>
<trkpt lat="29.986702" lon="100.894205">
<time>2015-08-06T03:39:06Z</time></trkpt>
<trkpt lat="29.986832" lon="100.894075">
<time>2015-08-06T03:39:07Z</time></trkpt>
<trkpt lat="29.987182" lon="100.893695">
<time>2015-08-06T03:39:08Z</time></trkpt>
<trkpt lat="29.987361" lon="100.893485">
<time>2015-08-06T03:39:09Z</time></trkpt>
<trkpt lat="29.987461" lon="100.893375">
<time>2015-08-06T03:39:10Z</time></trkpt>
<trkpt lat="29.987531" lon="100.893265">
<time>2015-08-06T03:39:11Z</time></trkpt>
<trkpt lat="29.987631" lon="100.893135">
<time>2015-08-06T03:39:12Z</time></trkpt>
<trkpt lat="29.987781" lon="100.892915">
<time>2015-08-06T03:39:13Z</time></trkpt>
<trkpt lat="29.988031" lon="100.892615">
<time>2015-08-06T03:39:14Z</time></trkpt>
<trkpt lat="29.988111" lon="100.892525">
<time>2015-08-06T03:39:15Z</time></trkpt>
<trkpt lat="29.988181" lon="100.892425">
<time>2015-08-06T03:39:16Z</time></trkpt>
<trkpt lat="29.988251" lon="100.892305">
<time>2015-08-06T03:39:17Z</time></trkpt>
<trkpt lat="29.988311" lon="100.892195">
<time>2015-08-06T03:39:18Z</time></trkpt>
<trkpt lat="29.988401" lon="100.892035">
<time>2015-08-06T03:39:19Z</time></trkpt>
<trkpt lat="29.988521" lon="100.891866">
<time>2015-08-06T03:39:20Z</time></trkpt>
<trkpt lat="29.988711" lon="100.891616">
<time>2015-08-06T03:39:21Z</time></trkpt>
<trkpt lat="29.988891" lon="100.891386">
<time>2015-08-06T03:39:22Z</time></trkpt>
<trkpt lat="29.988991" lon="100.891236">
<time>2015-08-06T03:39:23Z</time></trkpt>
<trkpt lat="29.989081" lon="100.891096">
<time>2015-08-06T03:39:24Z</time></trkpt>
<trkpt lat="29.989201" lon="100.890886">
<time>2015-08-06T03:39:25Z</time></trkpt>
<trkpt lat="29.98938" lon="100.890566">
<time>2015-08-06T03:39:26Z</time></trkpt>
<trkpt lat="29.98959" lon="100.890236">
<time>2015-08-06T03:39:27Z</time></trkpt>
<trkpt lat="29.98982" lon="100.889876">
<time>2015-08-06T03:39:28Z</time></trkpt>
<trkpt lat="29.99039" lon="100.888776">
<time>2015-08-06T03:39:29Z</time></trkpt>
<trkpt lat="29.990479" lon="100.888576">
<time>2015-08-06T03:39:30Z</time></trkpt>
<trkpt lat="29.990539" lon="100.888416">
<time>2015-08-06T03:39:31Z</time></trkpt>
<trkpt lat="29.990599" lon="100.888246">
<time>2015-08-06T03:39:32Z</time></trkpt>
<trkpt lat="29.990639" lon="100.888076">
<time>2015-08-06T03:39:33Z</time></trkpt>
<trkpt lat="29.990659" lon="100.887946">
<time>2015-08-06T03:39:34Z</time></trkpt>
<trkpt lat="29.990669" lon="100.887836">
<time>2015-08-06T03:39:35Z</time></trkpt>
<trkpt lat="29.990669" lon="100.887686">
<time>2015-08-06T03:39:36Z</time></trkpt>
<trkpt lat="29.990669" lon="100.887306">
<time>2015-08-06T03:39:37Z</time></trkpt>
<trkpt lat="29.990669" lon="100.887046">
<time>2015-08-06T03:39:38Z</time></trkpt>
<trkpt lat="29.990679" lon="100.886836">
<time>2015-08-06T03:39:39Z</time></trkpt>
<trkpt lat="29.990708" lon="100.886596">
<time>2015-08-06T03:39:40Z</time></trkpt>
<trkpt lat="29.990788" lon="100.886096">
<time>2015-08-06T03:39:41Z</time></trkpt>
<trkpt lat="29.990828" lon="100.885816">
<time>2015-08-06T03:39:42Z</time></trkpt>
<trkpt lat="29.990858" lon="100.885656">
<time>2015-08-06T03:39:43Z</time></trkpt>
<trkpt lat="29.990868" lon="100.885586">
<time>2015-08-06T03:39:44Z</time></trkpt>
<trkpt lat="29.990898" lon="100.885506">
<time>2015-08-06T03:39:45Z</time></trkpt>
<trkpt lat="29.990928" lon="100.885456">
<time>2015-08-06T03:39:46Z</time></trkpt>
<trkpt lat="29.990958" lon="100.885426">
<time>2015-08-06T03:39:47Z</time></trkpt>
<trkpt lat="29.990998" lon="100.885396">
<time>2015-08-06T03:39:48Z</time></trkpt>
<trkpt lat="29.991048" lon="100.885386">
<time>2015-08-06T03:39:49Z</time></trkpt>
<trkpt lat="29.991098" lon="100.885386">
<time>2015-08-06T03:39:50Z</time></trkpt>
<trkpt lat="29.991158" lon="100.885396">
<time>2015-08-06T03:39:51Z</time></trkpt>
<trkpt lat="29.991228" lon="100.885416">
<time>2015-08-06T03:39:52Z</time></trkpt>
<trkpt lat="29.991288" lon="100.885426">
<time>2015-08-06T03:39:53Z</time></trkpt>
<trkpt lat="29.991338" lon="100.885426">
<time>2015-08-06T03:39:54Z</time></trkpt>
<trkpt lat="29.991388" lon="100.885406">
<time>2015-08-06T03:39:55Z</time></trkpt>
<trkpt lat="29.991438" lon="100.885376">
<time>2015-08-06T03:39:56Z</time></trkpt>
<trkpt lat="29.991468" lon="100.885326">
<time>2015-08-06T03:39:57Z</time></trkpt>
<trkpt lat="29.991498" lon="100.885256">
<time>2015-08-06T03:39:58Z</time></trkpt>
<trkpt lat="29.991548" lon="100.885136">
<time>2015-08-06T03:39:59Z</time></trkpt>
<trkpt lat="29.991607" lon="100.884916">
<time>2015-08-06T03:40:00Z</time></trkpt>
<trkpt lat="29.991767" lon="100.884415">
<time>2015-08-06T03:40:01Z</time></trkpt>
<trkpt lat="29.991917" lon="100.884025">
<time>2015-08-06T03:40:02Z</time></trkpt>
<trkpt lat="29.992007" lon="100.883835">
<time>2015-08-06T03:40:03Z</time></trkpt>
<trkpt lat="29.992067" lon="100.883725">
<time>2015-08-06T03:40:04Z</time></trkpt>
<trkpt lat="29.992147" lon="100.883635">
<time>2015-08-06T03:40:05Z</time></trkpt>
<trkpt lat="29.992286" lon="100.883505">
<time>2015-08-06T03:40:06Z</time></trkpt>
<trkpt lat="29.992556" lon="100.883275">
<time>2015-08-06T03:40:07Z</time></trkpt>
<trkpt lat="29.992716" lon="100.883145">
<time>2015-08-06T03:40:08Z</time></trkpt>
<trkpt lat="29.992806" lon="100.883065">
<time>2015-08-06T03:40:09Z</time></trkpt>
<trkpt lat="29.992886" lon="100.882975">
<time>2015-08-06T03:40:10Z</time></trkpt>
<trkpt lat="29.992956" lon="100.882925">
<time>2015-08-06T03:40:11Z</time></trkpt>
<trkpt lat="29.993006" lon="100.882895">
<time>2015-08-06T03:40:12Z</time></trkpt>
<trkpt lat="29.993066" lon="100.882875">
<time>2015-08-06T03:40:13Z</time></trkpt>
<trkpt lat="29.993126" lon="100.882865">
<time>2015-08-06T03:40:14Z</time></trkpt>
<trkpt lat="29.993196" lon="100.882865">
<time>2015-08-06T03:40:15Z</time></trkpt>
<trkpt lat="29.993316" lon="100.882875">
<time>2015-08-06T03:40:16Z</time></trkpt>
<trkpt lat="29.993406" lon="100.882895">
<time>2015-08-06T03:40:17Z</time></trkpt>
<trkpt lat="29.993476" lon="100.882905">
<time>2015-08-06T03:40:18Z</time></trkpt>
<trkpt lat="29.993556" lon="100.882895">
<time>2015-08-06T03:40:19Z</time></trkpt>
<trkpt lat="29.993616" lon="100.882885">
<time>2015-08-06T03:40:20Z</time></trkpt>
<trkpt lat="29.993666" lon="100.882865">
<time>2015-08-06T03:40:21Z</time></trkpt>
<trkpt lat="29.993716" lon="100.882825">
<time>2015-08-06T03:40:22Z</time></trkpt>
<trkpt lat="29.993786" lon="100.882745">
<time>2015-08-06T03:40:23Z</time></trkpt>
<trkpt lat="29.993886" lon="100.882635">
<time>2015-08-06T03:40:24Z</time></trkpt>
<trkpt lat="29.994006" lon="100.882475">
<time>2015-08-06T03:40:25Z</time></trkpt>
<trkpt lat="29.994106" lon="100.882345">
<time>2015-08-06T03:40:26Z</time></trkpt>
<trkpt lat="29.994255" lon="100.882205">
<time>2015-08-06T03:40:27Z</time></trkpt>
<trkpt lat="29.994405" lon="100.882075">
<time>2015-08-06T03:40:28Z</time></trkpt>
<trkpt lat="29.994545" lon="100.881965">
<time>2015-08-06T03:40:29Z</time></trkpt>
<trkpt lat="29.994675" lon="100.881865">
<time>2015-08-06T03:40:30Z</time></trkpt>
<trkpt lat="29.994805" lon="100.881785">
<time>2015-08-06T03:40:31Z</time></trkpt>
<trkpt lat="29.994935" lon="100.881725">
<time>2015-08-06T03:40:32Z</time></trkpt>
<trkpt lat="29.995025" lon="100.881695">
<time>2015-08-06T03:40:33Z</time></trkpt>
<trkpt lat="29.995115" lon="100.881675">
<time>2015-08-06T03:40:34Z</time></trkpt>
<trkpt lat="29.995245" lon="100.881645">
<time>2015-08-06T03:40:35Z</time></trkpt>
<trkpt lat="29.995365" lon="100.881615">
<time>2015-08-06T03:40:36Z</time></trkpt>
<trkpt lat="29.995465" lon="100.881585">
<time>2015-08-06T03:40:37Z</time></trkpt>
<trkpt lat="29.995555" lon="100.881535">
<time>2015-08-06T03:40:38Z</time></trkpt>
<trkpt lat="29.995615" lon="100.881495">
<time>2015-08-06T03:40:39Z</time></trkpt>
<trkpt lat="29.995695" lon="100.881415">
<time>2015-08-06T03:40:40Z</time></trkpt>
<trkpt lat="29.995775" lon="100.881335">
<time>2015-08-06T03:40:41Z</time></trkpt>
<trkpt lat="29.995855" lon="100.881225">
<time>2015-08-06T03:40:42Z</time></trkpt>
<trkpt lat="29.996035" lon="100.880974">
<time>2015-08-06T03:40:43Z</time></trkpt>
<trkpt lat="29.996134" lon="100.880844">
<time>2015-08-06T03:40:44Z</time></trkpt>
<trkpt lat="29.996224" lon="100.880714">
<time>2015-08-06T03:40:45Z</time></trkpt>
<trkpt lat="29.996334" lon="100.880544">
<time>2015-08-06T03:40:46Z</time></trkpt>
<trkpt lat="29.996424" lon="100.880364">
<time>2015-08-06T03:40:47Z</time></trkpt>
<trkpt lat="29.996504" lon="100.880204">
<time>2015-08-06T03:40:48Z</time></trkpt>
<trkpt lat="29.996624" lon="100.879924">
<time>2015-08-06T03:40:49Z</time></trkpt>
<trkpt lat="29.996694" lon="100.879774">
<time>2015-08-06T03:40:50Z</time></trkpt>
<trkpt lat="29.996773" lon="100.879614">
<time>2015-08-06T03:40:51Z</time></trkpt>
<trkpt lat="29.996813" lon="100.879564">
<time>2015-08-06T03:40:52Z</time></trkpt>
<trkpt lat="29.996843" lon="100.879534">
<time>2015-08-06T03:40:53Z</time></trkpt>
<trkpt lat="29.996883" lon="100.879504">
<time>2015-08-06T03:40:54Z</time></trkpt>
<trkpt lat="29.996913" lon="100.879494">
<time>2015-08-06T03:40:55Z</time></trkpt>
<trkpt lat="29.996963" lon="100.879484">
<time>2015-08-06T03:40:56Z</time></trkpt>
<trkpt lat="29.997013" lon="100.879484">
<time>2015-08-06T03:40:57Z</time></trkpt>
<trkpt lat="29.997053" lon="100.879494">
<time>2015-08-06T03:40:58Z</time></trkpt>
<trkpt lat="29.997093" lon="100.879514">
<time>2015-08-06T03:40:59Z</time></trkpt>
<trkpt lat="29.997133" lon="100.879554">
<time>2015-08-06T03:41:00Z</time></trkpt>
<trkpt lat="29.997173" lon="100.879594">
<time>2015-08-06T03:41:01Z</time></trkpt>
<trkpt lat="29.997223" lon="100.879674">
<time>2015-08-06T03:41:02Z</time></trkpt>
<trkpt lat="29.997304" lon="100.879824">
<time>2015-08-06T03:41:03Z</time></trkpt>
<trkpt lat="29.997424" lon="100.880104">
<time>2015-08-06T03:41:04Z</time></trkpt>
<trkpt lat="29.997464" lon="100.880244">
<time>2015-08-06T03:41:05Z</time></trkpt>
<trkpt lat="29.997494" lon="100.880344">
<time>2015-08-06T03:41:06Z</time></trkpt>
<trkpt lat="29.997504" lon="100.880464">
<time>2015-08-06T03:41:07Z</time></trkpt>
<trkpt lat="29.997504" lon="100.880564">
<time>2015-08-06T03:41:08Z</time></trkpt>
<trkpt lat="29.997504" lon="100.880644">
<time>2015-08-06T03:41:09Z</time></trkpt>
<trkpt lat="29.997484" lon="100.880734">
<time>2015-08-06T03:41:10Z</time></trkpt>
<trkpt lat="29.997474" lon="100.880824">
<time>2015-08-06T03:41:11Z</time></trkpt>
<trkpt lat="29.997445" lon="100.880944">
<time>2015-08-06T03:41:12Z</time></trkpt>
<trkpt lat="29.997415" lon="100.881044">
<time>2015-08-06T03:41:13Z</time></trkpt>
<trkpt lat="29.997385" lon="100.881124">
<time>2015-08-06T03:41:14Z</time></trkpt>
<trkpt lat="29.997355" lon="100.881204">
<time>2015-08-06T03:41:15Z</time></trkpt>
<trkpt lat="29.997305" lon="100.881345">
<time>2015-08-06T03:41:16Z</time></trkpt>
<trkpt lat="29.997275" lon="100.881425">
<time>2015-08-06T03:41:17Z</time></trkpt>
<trkpt lat="29.997245" lon="100.881495">
<time>2015-08-06T03:41:18Z</time></trkpt>
<trkpt lat="29.997235" lon="100.881565">
<time>2015-08-06T03:41:19Z</time></trkpt>
<trkpt lat="29.997225" lon="100.881625">
<time>2015-08-06T03:41:20Z</time></trkpt>
<trkpt lat="29.997215" lon="100.881715">
<time>2015-08-06T03:41:21Z</time></trkpt>
<trkpt lat="29.997205" lon="100.881835">
<time>2015-08-06T03:41:22Z</time></trkpt>
<trkpt lat="29.997195" lon="100.881945">
<time>2015-08-06T03:41:23Z</time></trkpt>
<trkpt lat="29.997185" lon="100.882025">
<time>2015-08-06T03:41:24Z</time></trkpt>
<trkpt lat="29.997165" lon="100.882105">
<time>2015-08-06T03:41:25Z</time></trkpt>
<trkpt lat="29.997136" lon="100.882235">
<time>2015-08-06T03:41:26Z</time></trkpt>
<trkpt lat="29.997126" lon="100.882305">
<time>2015-08-06T03:41:27Z</time></trkpt>
<trkpt lat="29.997116" lon="100.882365">
<time>2015-08-06T03:41:28Z</time></trkpt>
<trkpt lat="29.997106" lon="100.882425">
<time>2015-08-06T03:41:29Z</time></trkpt>
<trkpt lat="29.997116" lon="100.882475">
<time>2015-08-06T03:41:30Z</time></trkpt>
<trkpt lat="29.997126" lon="100.882535">
<time>2015-08-06T03:41:31Z</time></trkpt>
<trkpt lat="29.997156" lon="100.882595">
<time>2015-08-06T03:41:32Z</time></trkpt>
<trkpt lat="29.997186" lon="100.882655">
<time>2015-08-06T03:41:33Z</time></trkpt>
<trkpt lat="29.997276" lon="100.882795">
<time>2015-08-06T03:41:34Z</time></trkpt>
<trkpt lat="29.997356" lon="100.882925">
<time>2015-08-06T03:41:35Z</time></trkpt>
<trkpt lat="29.997566" lon="100.883275">
<time>2015-08-06T03:41:36Z</time></trkpt>
<trkpt lat="29.997596" lon="100.883335">
<time>2015-08-06T03:41:37Z</time></trkpt>
<trkpt lat="29.997626" lon="100.883395">
<time>2015-08-06T03:41:38Z</time></trkpt>
<trkpt lat="29.997656" lon="100.883455">
<time>2015-08-06T03:41:39Z</time></trkpt>
<trkpt lat="29.997696" lon="100.883575">
<time>2015-08-06T03:41:40Z</time></trkpt>
<trkpt lat="29.997717" lon="100.883625">
<time>2015-08-06T03:41:41Z</time></trkpt>
<trkpt lat="29.997747" lon="100.883675">
<time>2015-08-06T03:41:42Z</time></trkpt>
<trkpt lat="29.997767" lon="100.883715">
<time>2015-08-06T03:41:43Z</time></trkpt>
<trkpt lat="29.997807" lon="100.883745">
<time>2015-08-06T03:41:44Z</time></trkpt>
<trkpt lat="29.997837" lon="100.883755">
<time>2015-08-06T03:41:45Z</time></trkpt>
<trkpt lat="29.997867" lon="100.883765">
<time>2015-08-06T03:41:46Z</time></trkpt>
<trkpt lat="29.997907" lon="100.883765">
<time>2015-08-06T03:41:47Z</time></trkpt>
<trkpt lat="29.997937" lon="100.883755">
<time>2015-08-06T03:41:48Z</time></trkpt>
<trkpt lat="29.997957" lon="100.883745">
<time>2015-08-06T03:41:49Z</time></trkpt>
<trkpt lat="29.997967" lon="100.883725">
<time>2015-08-06T03:41:50Z</time></trkpt>
<trkpt lat="29.997977" lon="100.883695">
<time>2015-08-06T03:41:51Z</time></trkpt>
<trkpt lat="29.997977" lon="100.883665">
<time>2015-08-06T03:41:52Z</time></trkpt>
<trkpt lat="29.997977" lon="100.883625">
<time>2015-08-06T03:41:53Z</time></trkpt>
<trkpt lat="29.997956" lon="100.883575">
<time>2015-08-06T03:41:54Z</time></trkpt>
<trkpt lat="29.997936" lon="100.883525">
<time>2015-08-06T03:41:55Z</time></trkpt>
<trkpt lat="29.997846" lon="100.883395">
<time>2015-08-06T03:41:56Z</time></trkpt>
<trkpt lat="29.997636" lon="100.882995">
<time>2015-08-06T03:41:57Z</time></trkpt>
<trkpt lat="29.997456" lon="100.882665">
<time>2015-08-06T03:41:58Z</time></trkpt>
<trkpt lat="29.997416" lon="100.882555">
<time>2015-08-06T03:41:59Z</time></trkpt>
<trkpt lat="29.997396" lon="100.882455">
<time>2015-08-06T03:42:00Z</time></trkpt>
<trkpt lat="29.997406" lon="100.882375">
<time>2015-08-06T03:42:01Z</time></trkpt>
<trkpt lat="29.997436" lon="100.882255">
<time>2015-08-06T03:42:02Z</time></trkpt>
<trkpt lat="29.997505" lon="100.882105">
<time>2015-08-06T03:42:03Z</time></trkpt>
<trkpt lat="29.997635" lon="100.881845">
<time>2015-08-06T03:42:04Z</time></trkpt>
<trkpt lat="29.997855" lon="100.881465">
<time>2015-08-06T03:42:05Z</time></trkpt>
<trkpt lat="29.997925" lon="100.881335">
<time>2015-08-06T03:42:06Z</time></trkpt>
<trkpt lat="29.998015" lon="100.881144">
<time>2015-08-06T03:42:07Z</time></trkpt>
<trkpt lat="29.998124" lon="100.880864">
<time>2015-08-06T03:42:08Z</time></trkpt>
<trkpt lat="29.998214" lon="100.880684">
<time>2015-08-06T03:42:09Z</time></trkpt>
<trkpt lat="29.998294" lon="100.880554">
<time>2015-08-06T03:42:10Z</time></trkpt>
<trkpt lat="29.998474" lon="100.880294">
<time>2015-08-06T03:42:11Z</time></trkpt>
<trkpt lat="29.998534" lon="100.880184">
<time>2015-08-06T03:42:12Z</time></trkpt>
<trkpt lat="29.998584" lon="100.880074">
<time>2015-08-06T03:42:13Z</time></trkpt>
<trkpt lat="29.998634" lon="100.879924">
<time>2015-08-06T03:42:14Z</time></trkpt>
<trkpt lat="29.998693" lon="100.879664">
<time>2015-08-06T03:42:15Z</time></trkpt>
<trkpt lat="29.998743" lon="100.879374">
<time>2015-08-06T03:42:16Z</time></trkpt>
<trkpt lat="29.998803" lon="100.879134">
<time>2015-08-06T03:42:17Z</time></trkpt>
<trkpt lat="29.998853" lon="100.878954">
<time>2015-08-06T03:42:18Z</time></trkpt>
<trkpt lat="29.998933" lon="100.878714">
<time>2015-08-06T03:42:19Z</time></trkpt>
<trkpt lat="29.999122" lon="100.878203">
<time>2015-08-06T03:42:20Z</time></trkpt>
<trkpt lat="29.999172" lon="100.878063">
<time>2015-08-06T03:42:21Z</time></trkpt>
<trkpt lat="29.999202" lon="100.877953">
<time>2015-08-06T03:42:22Z</time></trkpt>
<trkpt lat="29.999212" lon="100.877863">
<time>2015-08-06T03:42:23Z</time></trkpt>
<trkpt lat="29.999222" lon="100.877753">
<time>2015-08-06T03:42:24Z</time></trkpt>
<trkpt lat="29.999232" lon="100.877643">
<time>2015-08-06T03:42:25Z</time></trkpt>
<trkpt lat="29.999242" lon="100.877483">
<time>2015-08-06T03:42:26Z</time></trkpt>
<trkpt lat="29.999241" lon="100.877313">
<time>2015-08-06T03:42:27Z</time></trkpt>
<trkpt lat="29.999261" lon="100.877133">
<time>2015-08-06T03:42:28Z</time></trkpt>
<trkpt lat="29.999281" lon="100.877003">
<time>2015-08-06T03:42:29Z</time></trkpt>
<trkpt lat="29.999321" lon="100.876863">
<time>2015-08-06T03:42:30Z</time></trkpt>
<trkpt lat="29.999401" lon="100.876643">
<time>2015-08-06T03:42:31Z</time></trkpt>
<trkpt lat="29.99969" lon="100.875942">
<time>2015-08-06T03:42:32Z</time></trkpt>
<trkpt lat="29.99982" lon="100.875632">
<time>2015-08-06T03:42:33Z</time></trkpt>
<trkpt lat="29.99988" lon="100.875412">
<time>2015-08-06T03:42:34Z</time></trkpt>
<trkpt lat="29.999919" lon="100.875182">
<time>2015-08-06T03:42:35Z</time></trkpt>
<trkpt lat="29.999939" lon="100.875032">
<time>2015-08-06T03:42:36Z</time></trkpt>
<trkpt lat="29.999949" lon="100.874892">
<time>2015-08-06T03:42:37Z</time></trkpt>
<trkpt lat="29.999959" lon="100.874802">
<time>2015-08-06T03:42:38Z</time></trkpt>
<trkpt lat="29.999959" lon="100.874722">
<time>2015-08-06T03:42:39Z</time></trkpt>
<trkpt lat="29.999949" lon="100.874641">
<time>2015-08-06T03:42:40Z</time></trkpt>
<trkpt lat="29.999939" lon="100.874571">
<time>2015-08-06T03:42:41Z</time></trkpt>
<trkpt lat="29.999919" lon="100.874501">
<time>2015-08-06T03:42:42Z</time></trkpt>
<trkpt lat="29.999889" lon="100.874451">
<time>2015-08-06T03:42:43Z</time></trkpt>
<trkpt lat="29.999859" lon="100.874391">
<time>2015-08-06T03:42:44Z</time></trkpt>
<trkpt lat="29.999828" lon="100.874361">
<time>2015-08-06T03:42:45Z</time></trkpt>
<trkpt lat="29.999788" lon="100.874311">
<time>2015-08-06T03:42:46Z</time></trkpt>
<trkpt lat="29.999748" lon="100.874291">
<time>2015-08-06T03:42:47Z</time></trkpt>
<trkpt lat="29.999708" lon="100.874261">
<time>2015-08-06T03:42:48Z</time></trkpt>
<trkpt lat="29.999668" lon="100.874251">
<time>2015-08-06T03:42:49Z</time></trkpt>
<trkpt lat="29.999618" lon="100.874241">
<time>2015-08-06T03:42:50Z</time></trkpt>
<trkpt lat="29.999558" lon="100.874241">
<time>2015-08-06T03:42:51Z</time></trkpt>
<trkpt lat="29.999508" lon="100.874241">
<time>2015-08-06T03:42:52Z</time></trkpt>
<trkpt lat="29.999448" lon="100.874251">
<time>2015-08-06T03:42:53Z</time></trkpt>
<trkpt lat="29.999378" lon="100.874271">
<time>2015-08-06T03:42:54Z</time></trkpt>
<trkpt lat="29.999238" lon="100.874331">
<time>2015-08-06T03:42:55Z</time></trkpt>
<trkpt lat="29.998989" lon="100.874451">
<time>2015-08-06T03:42:56Z</time></trkpt>
<trkpt lat="29.998599" lon="100.874622">
<time>2015-08-06T03:42:57Z</time></trkpt>
<trkpt lat="29.998349" lon="100.874732">
<time>2015-08-06T03:42:58Z</time></trkpt>
<trkpt lat="29.998239" lon="100.874792">
<time>2015-08-06T03:42:59Z</time></trkpt>
<trkpt lat="29.998159" lon="100.874832">
<time>2015-08-06T03:43:00Z</time></trkpt>
<trkpt lat="29.998109" lon="100.874842">
<time>2015-08-06T03:43:01Z</time></trkpt>
<trkpt lat="29.998059" lon="100.874842">
<time>2015-08-06T03:43:02Z</time></trkpt>
<trkpt lat="29.998009" lon="100.874842">
<time>2015-08-06T03:43:03Z</time></trkpt>
<trkpt lat="29.997959" lon="100.874832">
<time>2015-08-06T03:43:04Z</time></trkpt>
<trkpt lat="29.997909" lon="100.874802">
<time>2015-08-06T03:43:05Z</time></trkpt>
<trkpt lat="29.997859" lon="100.874762">
<time>2015-08-06T03:43:06Z</time></trkpt>
<trkpt lat="29.997809" lon="100.874712">
<time>2015-08-06T03:43:07Z</time></trkpt>
<trkpt lat="29.997729" lon="100.874612">
<time>2015-08-06T03:43:08Z</time></trkpt>
<trkpt lat="29.997649" lon="100.874521">
<time>2015-08-06T03:43:09Z</time></trkpt>
<trkpt lat="29.997599" lon="100.874451">
<time>2015-08-06T03:43:10Z</time></trkpt>
<trkpt lat="29.997528" lon="100.874391">
<time>2015-08-06T03:43:11Z</time></trkpt>
<trkpt lat="29.997468" lon="100.874351">
<time>2015-08-06T03:43:12Z</time></trkpt>
<trkpt lat="29.997378" lon="100.874291">
<time>2015-08-06T03:43:13Z</time></trkpt>
<trkpt lat="29.997308" lon="100.874241">
<time>2015-08-06T03:43:14Z</time></trkpt>
<trkpt lat="29.997268" lon="100.874201">
<time>2015-08-06T03:43:15Z</time></trkpt>
<trkpt lat="29.997238" lon="100.874161">
<time>2015-08-06T03:43:16Z</time></trkpt>
<trkpt lat="29.997218" lon="100.874121">
<time>2015-08-06T03:43:17Z</time></trkpt>
<trkpt lat="29.997208" lon="100.874081">
<time>2015-08-06T03:43:18Z</time></trkpt>
<trkpt lat="29.997208" lon="100.874051">
<time>2015-08-06T03:43:19Z</time></trkpt>
<trkpt lat="29.997208" lon="100.874021">
<time>2015-08-06T03:43:20Z</time></trkpt>
<trkpt lat="29.997228" lon="100.873991">
<time>2015-08-06T03:43:21Z</time></trkpt>
<trkpt lat="29.997248" lon="100.873961">
<time>2015-08-06T03:43:22Z</time></trkpt>
<trkpt lat="29.997278" lon="100.873951">
<time>2015-08-06T03:43:23Z</time></trkpt>
<trkpt lat="29.997298" lon="100.873941">
<time>2015-08-06T03:43:24Z</time></trkpt>
<trkpt lat="29.997338" lon="100.873951">
<time>2015-08-06T03:43:25Z</time></trkpt>
<trkpt lat="29.997368" lon="100.873961">
<time>2015-08-06T03:43:26Z</time></trkpt>
<trkpt lat="29.997398" lon="100.873981">
<time>2015-08-06T03:43:27Z</time></trkpt>
<trkpt lat="29.997438" lon="100.874011">
<time>2015-08-06T03:43:28Z</time></trkpt>
<trkpt lat="29.997508" lon="100.874091">
<time>2015-08-06T03:43:29Z</time></trkpt>
<trkpt lat="29.997738" lon="100.874361">
<time>2015-08-06T03:43:30Z</time></trkpt>
<trkpt lat="29.997849" lon="100.874491">
<time>2015-08-06T03:43:31Z</time></trkpt>
<trkpt lat="29.997899" lon="100.874531">
<time>2015-08-06T03:43:32Z</time></trkpt>
<trkpt lat="29.997939" lon="100.874561">
<time>2015-08-06T03:43:33Z</time></trkpt>
<trkpt lat="29.997979" lon="100.874581">
<time>2015-08-06T03:43:34Z</time></trkpt>
<trkpt lat="29.997999" lon="100.874581">
<time>2015-08-06T03:43:35Z</time></trkpt>
<trkpt lat="29.998039" lon="100.874581">
<time>2015-08-06T03:43:36Z</time></trkpt>
<trkpt lat="29.998069" lon="100.874581">
<time>2015-08-06T03:43:37Z</time></trkpt>
<trkpt lat="29.998109" lon="100.874561">
<time>2015-08-06T03:43:38Z</time></trkpt>
<trkpt lat="29.998149" lon="100.874541">
<time>2015-08-06T03:43:39Z</time></trkpt>
<trkpt lat="29.998189" lon="100.874501">
<time>2015-08-06T03:43:40Z</time></trkpt>
<trkpt lat="29.998239" lon="100.874441">
<time>2015-08-06T03:43:41Z</time></trkpt>
<trkpt lat="29.998318" lon="100.874341">
<time>2015-08-06T03:43:42Z</time></trkpt>
<trkpt lat="29.998418" lon="100.874221">
<time>2015-08-06T03:43:43Z</time></trkpt>
<trkpt lat="29.998568" lon="100.874091">
<time>2015-08-06T03:43:44Z</time></trkpt>
<trkpt lat="29.998718" lon="100.873981">
<time>2015-08-06T03:43:45Z</time></trkpt>
<trkpt lat="29.998898" lon="100.873891">
<time>2015-08-06T03:43:46Z</time></trkpt>
<trkpt lat="29.999138" lon="100.873781">
<time>2015-08-06T03:43:47Z</time></trkpt>
<trkpt lat="29.999258" lon="100.873731">
<time>2015-08-06T03:43:48Z</time></trkpt>
<trkpt lat="29.999368" lon="100.873701">
<time>2015-08-06T03:43:49Z</time></trkpt>
<trkpt lat="29.999458" lon="100.873681">
<time>2015-08-06T03:43:50Z</time></trkpt>
<trkpt lat="29.999598" lon="100.873661">
<time>2015-08-06T03:43:51Z</time></trkpt>
<trkpt lat="29.999868" lon="100.873631">
<time>2015-08-06T03:43:52Z</time></trkpt>
<trkpt lat="30.000028" lon="100.873621">
<time>2015-08-06T03:43:53Z</time></trkpt>
<trkpt lat="30.000068" lon="100.873611">
<time>2015-08-06T03:43:54Z</time></trkpt>
<trkpt lat="30.000158" lon="100.873601">
<time>2015-08-06T03:43:55Z</time></trkpt>
<trkpt lat="30.000198" lon="100.873591">
<time>2015-08-06T03:43:56Z</time></trkpt>
<trkpt lat="30.000228" lon="100.873581">
<time>2015-08-06T03:43:57Z</time></trkpt>
<trkpt lat="30.000258" lon="100.873571">
<time>2015-08-06T03:43:58Z</time></trkpt>
<trkpt lat="30.000288" lon="100.873551">
<time>2015-08-06T03:43:59Z</time></trkpt>
<trkpt lat="30.000338" lon="100.873521">
<time>2015-08-06T03:44:00Z</time></trkpt>
<trkpt lat="30.000368" lon="100.873501">
<time>2015-08-06T03:44:01Z</time></trkpt>
<trkpt lat="30.000438" lon="100.873441">
<time>2015-08-06T03:44:02Z</time></trkpt>
<trkpt lat="30.000507" lon="100.873401">
<time>2015-08-06T03:44:03Z</time></trkpt>
<trkpt lat="30.000537" lon="100.873381">
<time>2015-08-06T03:44:04Z</time></trkpt>
<trkpt lat="30.000567" lon="100.873361">
<time>2015-08-06T03:44:05Z</time></trkpt>
<trkpt lat="30.000617" lon="100.873341">
<time>2015-08-06T03:44:06Z</time></trkpt>
<trkpt lat="30.000657" lon="100.873321">
<time>2015-08-06T03:44:07Z</time></trkpt>
<trkpt lat="30.000697" lon="100.873311">
<time>2015-08-06T03:44:08Z</time></trkpt>
<trkpt lat="30.000747" lon="100.873301">
<time>2015-08-06T03:44:09Z</time></trkpt>
<trkpt lat="30.000797" lon="100.873291">
<time>2015-08-06T03:44:10Z</time></trkpt>
<trkpt lat="30.000837" lon="100.873291">
<time>2015-08-06T03:44:11Z</time></trkpt>
<trkpt lat="30.000887" lon="100.873281">
<time>2015-08-06T03:44:12Z</time></trkpt>
<trkpt lat="30.001047" lon="100.873271">
<time>2015-08-06T03:44:13Z</time></trkpt>
<trkpt lat="30.001347" lon="100.873251">
<time>2015-08-06T03:44:14Z</time></trkpt>
<trkpt lat="30.001577" lon="100.873231">
<time>2015-08-06T03:44:15Z</time></trkpt>
<trkpt lat="30.001697" lon="100.873221">
<time>2015-08-06T03:44:16Z</time></trkpt>
<trkpt lat="30.001787" lon="100.873211">
<time>2015-08-06T03:44:17Z</time></trkpt>
<trkpt lat="30.001837" lon="100.873211">
<time>2015-08-06T03:44:18Z</time></trkpt>
<trkpt lat="30.001897" lon="100.873191">
<time>2015-08-06T03:44:19Z</time></trkpt>
<trkpt lat="30.001957" lon="100.873181">
<time>2015-08-06T03:44:20Z</time></trkpt>
<trkpt lat="30.002037" lon="100.873151">
<time>2015-08-06T03:44:21Z</time></trkpt>
<trkpt lat="30.002077" lon="100.87314">
<time>2015-08-06T03:44:22Z</time></trkpt>
<trkpt lat="30.002117" lon="100.87313">
<time>2015-08-06T03:44:23Z</time></trkpt>
<trkpt lat="30.002247" lon="100.87307">
<time>2015-08-06T03:44:24Z</time></trkpt>
<trkpt lat="30.002437" lon="100.873">
<time>2015-08-06T03:44:25Z</time></trkpt>
<trkpt lat="30.002537" lon="100.87296">
<time>2015-08-06T03:44:26Z</time></trkpt>
<trkpt lat="30.002637" lon="100.87293">
<time>2015-08-06T03:44:27Z</time></trkpt>
<trkpt lat="30.002717" lon="100.8729">
<time>2015-08-06T03:44:28Z</time></trkpt>
<trkpt lat="30.002757" lon="100.87289">
<time>2015-08-06T03:44:29Z</time></trkpt>
<trkpt lat="30.002787" lon="100.87289">
<time>2015-08-06T03:44:30Z</time></trkpt>
<trkpt lat="30.002817" lon="100.87289">
<time>2015-08-06T03:44:31Z</time></trkpt>
<trkpt lat="30.002837" lon="100.87289">
<time>2015-08-06T03:44:32Z</time></trkpt>
<trkpt lat="30.002857" lon="100.87289">
<time>2015-08-06T03:44:33Z</time></trkpt>
<trkpt lat="30.002907" lon="100.8729">
<time>2015-08-06T03:44:34Z</time></trkpt>
<trkpt lat="30.002927" lon="100.87291">
<time>2015-08-06T03:44:35Z</time></trkpt>
<trkpt lat="30.002967" lon="100.87292">
<time>2015-08-06T03:44:36Z</time></trkpt>
<trkpt lat="30.002987" lon="100.87294">
<time>2015-08-06T03:44:37Z</time></trkpt>
<trkpt lat="30.003017" lon="100.87296">
<time>2015-08-06T03:44:38Z</time></trkpt>
<trkpt lat="30.003047" lon="100.87298">
<time>2015-08-06T03:44:39Z</time></trkpt>
<trkpt lat="30.003067" lon="100.873">
<time>2015-08-06T03:44:40Z</time></trkpt>
<trkpt lat="30.003097" lon="100.87302">
<time>2015-08-06T03:44:41Z</time></trkpt>
<trkpt lat="30.003117" lon="100.87305">
<time>2015-08-06T03:44:42Z</time></trkpt>
<trkpt lat="30.003137" lon="100.87308">
<time>2015-08-06T03:44:43Z</time></trkpt>
<trkpt lat="30.003157" lon="100.8731">
<time>2015-08-06T03:44:44Z</time></trkpt>
<trkpt lat="30.003167" lon="100.87313">
<time>2015-08-06T03:44:45Z</time></trkpt>
<trkpt lat="30.003187" lon="100.87316">
<time>2015-08-06T03:44:46Z</time></trkpt>
<trkpt lat="30.003197" lon="100.87318">
<time>2015-08-06T03:44:47Z</time></trkpt>
<trkpt lat="30.003207" lon="100.873221">
<time>2015-08-06T03:44:48Z</time></trkpt>
<trkpt lat="30.003227" lon="100.873271">
<time>2015-08-06T03:44:49Z</time></trkpt>
<trkpt lat="30.003227" lon="100.873301">
<time>2015-08-06T03:44:50Z</time></trkpt>
<trkpt lat="30.003237" lon="100.873331">
<time>2015-08-06T03:44:51Z</time></trkpt>
<trkpt lat="30.003247" lon="100.873381">
<time>2015-08-06T03:44:52Z</time></trkpt>
<trkpt lat="30.003248" lon="100.873421">
<time>2015-08-06T03:44:53Z</time></trkpt>
<trkpt lat="30.003248" lon="100.873451">
<time>2015-08-06T03:44:54Z</time></trkpt>
<trkpt lat="30.003238" lon="100.873501">
<time>2015-08-06T03:44:55Z</time></trkpt>
<trkpt lat="30.003238" lon="100.873541">
<time>2015-08-06T03:44:56Z</time></trkpt>
<trkpt lat="30.003228" lon="100.873561">
<time>2015-08-06T03:44:57Z</time></trkpt>
<trkpt lat="30.003218" lon="100.873591">
<time>2015-08-06T03:44:58Z</time></trkpt>
<trkpt lat="30.003208" lon="100.873611">
<time>2015-08-06T03:44:59Z</time></trkpt>
<trkpt lat="30.003188" lon="100.873641">
<time>2015-08-06T03:45:00Z</time></trkpt>
<trkpt lat="30.003168" lon="100.873681">
<time>2015-08-06T03:45:01Z</time></trkpt>
<trkpt lat="30.003048" lon="100.873831">
<time>2015-08-06T03:45:02Z</time></trkpt>
<trkpt lat="30.002998" lon="100.873901">
<time>2015-08-06T03:45:03Z</time></trkpt>
<trkpt lat="30.002968" lon="100.873941">
<time>2015-08-06T03:45:04Z</time></trkpt>
<trkpt lat="30.002948" lon="100.873971">
<time>2015-08-06T03:45:05Z</time></trkpt>
<trkpt lat="30.002928" lon="100.874011">
<time>2015-08-06T03:45:06Z</time></trkpt>
<trkpt lat="30.002908" lon="100.874051">
<time>2015-08-06T03:45:07Z</time></trkpt>
<trkpt lat="30.002898" lon="100.874081">
<time>2015-08-06T03:45:08Z</time></trkpt>
<trkpt lat="30.002888" lon="100.874121">
<time>2015-08-06T03:45:09Z</time></trkpt>
<trkpt lat="30.002858" lon="100.874201">
<time>2015-08-06T03:45:10Z</time></trkpt>
<trkpt lat="30.002808" lon="100.874361">
<time>2015-08-06T03:45:11Z</time></trkpt>
<trkpt lat="30.002729" lon="100.874671">
<time>2015-08-06T03:45:12Z</time></trkpt>
<trkpt lat="30.002649" lon="100.874952">
<time>2015-08-06T03:45:13Z</time></trkpt>
<trkpt lat="30.002619" lon="100.875032">
<time>2015-08-06T03:45:14Z</time></trkpt>
<trkpt lat="30.002589" lon="100.875162">
<time>2015-08-06T03:45:15Z</time></trkpt>
<trkpt lat="30.002589" lon="100.875192">
<time>2015-08-06T03:45:16Z</time></trkpt>
<trkpt lat="30.002599" lon="100.875232">
<time>2015-08-06T03:45:17Z</time></trkpt>
<trkpt lat="30.002619" lon="100.875252">
<time>2015-08-06T03:45:18Z</time></trkpt>
<trkpt lat="30.002639" lon="100.875272">
<time>2015-08-06T03:45:19Z</time></trkpt>
<trkpt lat="30.002659" lon="100.875272">
<time>2015-08-06T03:45:20Z</time></trkpt>
<trkpt lat="30.002669" lon="100.875282">
<time>2015-08-06T03:45:21Z</time></trkpt>
<trkpt lat="30.002699" lon="100.875282">
<time>2015-08-06T03:45:22Z</time></trkpt>
<trkpt lat="30.002729" lon="100.875272">
<time>2015-08-06T03:45:23Z</time></trkpt>
<trkpt lat="30.002749" lon="100.875272">
<time>2015-08-06T03:45:24Z</time></trkpt>
<trkpt lat="30.002759" lon="100.875262">
<time>2015-08-06T03:45:25Z</time></trkpt>
<trkpt lat="30.002779" lon="100.875242">
<time>2015-08-06T03:45:26Z</time></trkpt>
<trkpt lat="30.002789" lon="100.875212">
<time>2015-08-06T03:45:27Z</time></trkpt>
<trkpt lat="30.002809" lon="100.875152">
<time>2015-08-06T03:45:28Z</time></trkpt>
<trkpt lat="30.002829" lon="100.875032">
<time>2015-08-06T03:45:29Z</time></trkpt>
<trkpt lat="30.002839" lon="100.874912">
<time>2015-08-06T03:45:30Z</time></trkpt>
<trkpt lat="30.002859" lon="100.874781">
<time>2015-08-06T03:45:31Z</time></trkpt>
<trkpt lat="30.002879" lon="100.874681">
<time>2015-08-06T03:45:32Z</time></trkpt>
<trkpt lat="30.002919" lon="100.874571">
<time>2015-08-06T03:45:33Z</time></trkpt>
<trkpt lat="30.002949" lon="100.874511">
<time>2015-08-06T03:45:34Z</time></trkpt>
<trkpt lat="30.002989" lon="100.874421">
<time>2015-08-06T03:45:35Z</time></trkpt>
<trkpt lat="30.003068" lon="100.874291">
<time>2015-08-06T03:45:36Z</time></trkpt>
<trkpt lat="30.003118" lon="100.874231">
<time>2015-08-06T03:45:37Z</time></trkpt>
<trkpt lat="30.003188" lon="100.874151">
<time>2015-08-06T03:45:38Z</time></trkpt>
<trkpt lat="30.003268" lon="100.874071">
<time>2015-08-06T03:45:39Z</time></trkpt>
<trkpt lat="30.003378" lon="100.873971">
<time>2015-08-06T03:45:40Z</time></trkpt>
<trkpt lat="30.003578" lon="100.873811">
<time>2015-08-06T03:45:41Z</time></trkpt>
<trkpt lat="30.003828" lon="100.873601">
<time>2015-08-06T03:45:42Z</time></trkpt>
<trkpt lat="30.004127" lon="100.873341">
<time>2015-08-06T03:45:43Z</time></trkpt>
<trkpt lat="30.004337" lon="100.87316">
<time>2015-08-06T03:45:44Z</time></trkpt>
<trkpt lat="30.004437" lon="100.87304">
<time>2015-08-06T03:45:45Z</time></trkpt>
<trkpt lat="30.004507" lon="100.87294">
<time>2015-08-06T03:45:46Z</time></trkpt>
<trkpt lat="30.004547" lon="100.87287">
<time>2015-08-06T03:45:47Z</time></trkpt>
<trkpt lat="30.004577" lon="100.87281">
<time>2015-08-06T03:45:48Z</time></trkpt>
<trkpt lat="30.004597" lon="100.87272">
<time>2015-08-06T03:45:49Z</time></trkpt>
<trkpt lat="30.004627" lon="100.87263">
<time>2015-08-06T03:45:50Z</time></trkpt>
<trkpt lat="30.004647" lon="100.87253">
<time>2015-08-06T03:45:51Z</time></trkpt>
<trkpt lat="30.004646" lon="100.87246">
<time>2015-08-06T03:45:52Z</time></trkpt>
<trkpt lat="30.004636" lon="100.87238">
<time>2015-08-06T03:45:53Z</time></trkpt>
<trkpt lat="30.004616" lon="100.87231">
<time>2015-08-06T03:45:54Z</time></trkpt>
<trkpt lat="30.004596" lon="100.87226">
<time>2015-08-06T03:45:55Z</time></trkpt>
<trkpt lat="30.004566" lon="100.8722">
<time>2015-08-06T03:45:56Z</time></trkpt>
<trkpt lat="30.004536" lon="100.87216">
<time>2015-08-06T03:45:57Z</time></trkpt>
<trkpt lat="30.004496" lon="100.87213">
<time>2015-08-06T03:45:58Z</time></trkpt>
<trkpt lat="30.004456" lon="100.87209">
<time>2015-08-06T03:45:59Z</time></trkpt>
<trkpt lat="30.004406" lon="100.87206">
<time>2015-08-06T03:46:00Z</time></trkpt>
<trkpt lat="30.004336" lon="100.87203">
<time>2015-08-06T03:46:01Z</time></trkpt>
<trkpt lat="30.004256" lon="100.87201">
<time>2015-08-06T03:46:02Z</time></trkpt>
<trkpt lat="30.003866" lon="100.8719">
<time>2015-08-06T03:46:03Z</time></trkpt>
<trkpt lat="30.003656" lon="100.87186">
<time>2015-08-06T03:46:04Z</time></trkpt>
<trkpt lat="30.003566" lon="100.87183">
<time>2015-08-06T03:46:05Z</time></trkpt>
<trkpt lat="30.003446" lon="100.8718">
<time>2015-08-06T03:46:06Z</time></trkpt>
<trkpt lat="30.003246" lon="100.87171">
<time>2015-08-06T03:46:07Z</time></trkpt>
<trkpt lat="30.003146" lon="100.871669">
<time>2015-08-06T03:46:08Z</time></trkpt>
<trkpt lat="30.003076" lon="100.871649">
<time>2015-08-06T03:46:09Z</time></trkpt>
<trkpt lat="30.002996" lon="100.871639">
<time>2015-08-06T03:46:10Z</time></trkpt>
<trkpt lat="30.002896" lon="100.871629">
<time>2015-08-06T03:46:11Z</time></trkpt>
<trkpt lat="30.002396" lon="100.871629">
<time>2015-08-06T03:46:12Z</time></trkpt>
<trkpt lat="30.002176" lon="100.871629">
<time>2015-08-06T03:46:13Z</time></trkpt>
<trkpt lat="30.002056" lon="100.871629">
<time>2015-08-06T03:46:14Z</time></trkpt>
<trkpt lat="30.001906" lon="100.871609">
<time>2015-08-06T03:46:15Z</time></trkpt>
<trkpt lat="30.001605" lon="100.871549">
<time>2015-08-06T03:46:16Z</time></trkpt>
<trkpt lat="30.001395" lon="100.871509">
<time>2015-08-06T03:46:17Z</time></trkpt>
<trkpt lat="30.001305" lon="100.871499">
<time>2015-08-06T03:46:18Z</time></trkpt>
<trkpt lat="30.001195" lon="100.871509">
<time>2015-08-06T03:46:19Z</time></trkpt>
<trkpt lat="30.001085" lon="100.871519">
<time>2015-08-06T03:46:20Z</time></trkpt>
<trkpt lat="30.000905" lon="100.871579">
<time>2015-08-06T03:46:21Z</time></trkpt>
<trkpt lat="30.000536" lon="100.87173">
<time>2015-08-06T03:46:22Z</time></trkpt>
<trkpt lat="30.000326" lon="100.87181">
<time>2015-08-06T03:46:23Z</time></trkpt>
<trkpt lat="30.000156" lon="100.87183">
<time>2015-08-06T03:46:24Z</time></trkpt>
<trkpt lat="30.000026" lon="100.87183">
<time>2015-08-06T03:46:25Z</time></trkpt>
<trkpt lat="29.999876" lon="100.87185">
<time>2015-08-06T03:46:26Z</time></trkpt>
<trkpt lat="29.999746" lon="100.87187">
<time>2015-08-06T03:46:27Z</time></trkpt>
<trkpt lat="29.999626" lon="100.8719">
<time>2015-08-06T03:46:28Z</time></trkpt>
<trkpt lat="29.999486" lon="100.87195">
<time>2015-08-06T03:46:29Z</time></trkpt>
<trkpt lat="29.999396" lon="100.87199">
<time>2015-08-06T03:46:30Z</time></trkpt>
<trkpt lat="29.999246" lon="100.87206">
<time>2015-08-06T03:46:31Z</time></trkpt>
<trkpt lat="29.999036" lon="100.87217">
<time>2015-08-06T03:46:32Z</time></trkpt>
<trkpt lat="29.998916" lon="100.87224">
<time>2015-08-06T03:46:33Z</time></trkpt>
<trkpt lat="29.998826" lon="100.87227">
<time>2015-08-06T03:46:34Z</time></trkpt>
<trkpt lat="29.998746" lon="100.87229">
<time>2015-08-06T03:46:35Z</time></trkpt>
<trkpt lat="29.998636" lon="100.87231">
<time>2015-08-06T03:46:36Z</time></trkpt>
<trkpt lat="29.998526" lon="100.87232">
<time>2015-08-06T03:46:37Z</time></trkpt>
<trkpt lat="29.998416" lon="100.87233">
<time>2015-08-06T03:46:38Z</time></trkpt>
<trkpt lat="29.998336" lon="100.87232">
<time>2015-08-06T03:46:39Z</time></trkpt>
<trkpt lat="29.998256" lon="100.8723">
<time>2015-08-06T03:46:40Z</time></trkpt>
<trkpt lat="29.998176" lon="100.87226">
<time>2015-08-06T03:46:41Z</time></trkpt>
<trkpt lat="29.997916" lon="100.87205">
<time>2015-08-06T03:46:42Z</time></trkpt>
<trkpt lat="29.997826" lon="100.87198">
<time>2015-08-06T03:46:43Z</time></trkpt>
<trkpt lat="29.997786" lon="100.87192">
<time>2015-08-06T03:46:44Z</time></trkpt>
<trkpt lat="29.997756" lon="100.87186">
<time>2015-08-06T03:46:45Z</time></trkpt>
<trkpt lat="29.997726" lon="100.87176">
<time>2015-08-06T03:46:46Z</time></trkpt>
<trkpt lat="29.997675" lon="100.87155">
<time>2015-08-06T03:46:47Z</time></trkpt>
<trkpt lat="29.997635" lon="100.871409">
<time>2015-08-06T03:46:48Z</time></trkpt>
<trkpt lat="29.997585" lon="100.871339">
<time>2015-08-06T03:46:49Z</time></trkpt>
<trkpt lat="29.997555" lon="100.871289">
<time>2015-08-06T03:46:50Z</time></trkpt>
<trkpt lat="29.997515" lon="100.871269">
<time>2015-08-06T03:46:51Z</time></trkpt>
<trkpt lat="29.997455" lon="100.871239">
<time>2015-08-06T03:46:52Z</time></trkpt>
<trkpt lat="29.997415" lon="100.871239">
<time>2015-08-06T03:46:53Z</time></trkpt>
<trkpt lat="29.997355" lon="100.871229">
<time>2015-08-06T03:46:54Z</time></trkpt>
<trkpt lat="29.997245" lon="100.871239">
<time>2015-08-06T03:46:55Z</time></trkpt>
<trkpt lat="29.997175" lon="100.871229">
<time>2015-08-06T03:46:56Z</time></trkpt>
<trkpt lat="29.997095" lon="100.871209">
<time>2015-08-06T03:46:57Z</time></trkpt>
<trkpt lat="29.997015" lon="100.871159">
<time>2015-08-06T03:46:58Z</time></trkpt>
<trkpt lat="29.996915" lon="100.871089">
<time>2015-08-06T03:46:59Z</time></trkpt>
<trkpt lat="29.996845" lon="100.871009">
<time>2015-08-06T03:47:00Z</time></trkpt>
<trkpt lat="29.996785" lon="100.870929">
<time>2015-08-06T03:47:01Z</time></trkpt>
<trkpt lat="29.996725" lon="100.870829">
<time>2015-08-06T03:47:02Z</time></trkpt>
<trkpt lat="29.996664" lon="100.870719">
<time>2015-08-06T03:47:03Z</time></trkpt>
<trkpt lat="29.996594" lon="100.870599">
<time>2015-08-06T03:47:04Z</time></trkpt>
<trkpt lat="29.996524" lon="100.870509">
<time>2015-08-06T03:47:05Z</time></trkpt>
<trkpt lat="29.996464" lon="100.870439">
<time>2015-08-06T03:47:06Z</time></trkpt>
<trkpt lat="29.996404" lon="100.870389">
<time>2015-08-06T03:47:07Z</time></trkpt>
<trkpt lat="29.996294" lon="100.870309">
<time>2015-08-06T03:47:08Z</time></trkpt>
<trkpt lat="29.996234" lon="100.870249">
<time>2015-08-06T03:47:09Z</time></trkpt>
<trkpt lat="29.996194" lon="100.870179">
<time>2015-08-06T03:47:10Z</time></trkpt>
<trkpt lat="29.996154" lon="100.870109">
<time>2015-08-06T03:47:11Z</time></trkpt>
<trkpt lat="29.996084" lon="100.869978">
<time>2015-08-06T03:47:12Z</time></trkpt>
<trkpt lat="29.996044" lon="100.869918">
<time>2015-08-06T03:47:13Z</time></trkpt>
<trkpt lat="29.995993" lon="100.869858">
<time>2015-08-06T03:47:14Z</time></trkpt>
<trkpt lat="29.995883" lon="100.869738">
<time>2015-08-06T03:47:15Z</time></trkpt>
<trkpt lat="29.995783" lon="100.869618">
<time>2015-08-06T03:47:16Z</time></trkpt>
<trkpt lat="29.995693" lon="100.869498">
<time>2015-08-06T03:47:17Z</time></trkpt>
<trkpt lat="29.995603" lon="100.869398">
<time>2015-08-06T03:47:18Z</time></trkpt>
<trkpt lat="29.995443" lon="100.869248">
<time>2015-08-06T03:47:19Z</time></trkpt>
<trkpt lat="29.995152" lon="100.869018">
<time>2015-08-06T03:47:20Z</time></trkpt>
<trkpt lat="29.995002" lon="100.868908">
<time>2015-08-06T03:47:21Z</time></trkpt>
<trkpt lat="29.994892" lon="100.868858">
<time>2015-08-06T03:47:22Z</time></trkpt>
<trkpt lat="29.994812" lon="100.868818">
<time>2015-08-06T03:47:23Z</time></trkpt>
<trkpt lat="29.994722" lon="100.868788">
<time>2015-08-06T03:47:24Z</time></trkpt>
<trkpt lat="29.994632" lon="100.868768">
<time>2015-08-06T03:47:25Z</time></trkpt>
<trkpt lat="29.994542" lon="100.868748">
<time>2015-08-06T03:47:26Z</time></trkpt>
<trkpt lat="29.994492" lon="100.868718">
<time>2015-08-06T03:47:27Z</time></trkpt>
<trkpt lat="29.994462" lon="100.868687">
<time>2015-08-06T03:47:28Z</time></trkpt>
<trkpt lat="29.994442" lon="100.868647">
<time>2015-08-06T03:47:29Z</time></trkpt>
<trkpt lat="29.994442" lon="100.868597">
<time>2015-08-06T03:47:30Z</time></trkpt>
<trkpt lat="29.994442" lon="100.868557">
<time>2015-08-06T03:47:31Z</time></trkpt>
<trkpt lat="29.994472" lon="100.868527">
<time>2015-08-06T03:47:32Z</time></trkpt>
<trkpt lat="29.994502" lon="100.868507">
<time>2015-08-06T03:47:33Z</time></trkpt>
<trkpt lat="29.994532" lon="100.868497">
<time>2015-08-06T03:47:34Z</time></trkpt>
<trkpt lat="29.994582" lon="100.868497">
<time>2015-08-06T03:47:35Z</time></trkpt>
<trkpt lat="29.994632" lon="100.868507">
<time>2015-08-06T03:47:36Z</time></trkpt>
<trkpt lat="29.994702" lon="100.868537">
<time>2015-08-06T03:47:37Z</time></trkpt>
<trkpt lat="29.994802" lon="100.868587">
<time>2015-08-06T03:47:38Z</time></trkpt>
<trkpt lat="29.994912" lon="100.868667">
<time>2015-08-06T03:47:39Z</time></trkpt>
<trkpt lat="29.995102" lon="100.868778">
<time>2015-08-06T03:47:40Z</time></trkpt>
<trkpt lat="29.995342" lon="100.868928">
<time>2015-08-06T03:47:41Z</time></trkpt>
<trkpt lat="29.995442" lon="100.868978">
<time>2015-08-06T03:47:42Z</time></trkpt>
<trkpt lat="29.995582" lon="100.869048">
<time>2015-08-06T03:47:43Z</time></trkpt>
<trkpt lat="29.995683" lon="100.869108">
<time>2015-08-06T03:47:44Z</time></trkpt>
<trkpt lat="29.995743" lon="100.869148">
<time>2015-08-06T03:47:45Z</time></trkpt>
<trkpt lat="29.995783" lon="100.869178">
<time>2015-08-06T03:47:46Z</time></trkpt>
<trkpt lat="29.995823" lon="100.869208">
<time>2015-08-06T03:47:47Z</time></trkpt>
<trkpt lat="29.995863" lon="100.869258">
<time>2015-08-06T03:47:48Z</time></trkpt>
<trkpt lat="29.995923" lon="100.869328">
<time>2015-08-06T03:47:49Z</time></trkpt>
<trkpt lat="29.995993" lon="100.869428">
<time>2015-08-06T03:47:50Z</time></trkpt>
<trkpt lat="29.996083" lon="100.869528">
<time>2015-08-06T03:47:51Z</time></trkpt>
<trkpt lat="29.996163" lon="100.869598">
<time>2015-08-06T03:47:52Z</time></trkpt>
<trkpt lat="29.996263" lon="100.869688">
<time>2015-08-06T03:47:53Z</time></trkpt>
<trkpt lat="29.996534" lon="100.869928">
<time>2015-08-06T03:47:54Z</time></trkpt>
<trkpt lat="29.996754" lon="100.870129">
<time>2015-08-06T03:47:55Z</time></trkpt>
<trkpt lat="29.996904" lon="100.870279">
<time>2015-08-06T03:47:56Z</time></trkpt>
<trkpt lat="29.997064" lon="100.870469">
<time>2015-08-06T03:47:57Z</time></trkpt>
<trkpt lat="29.997154" lon="100.870579">
<time>2015-08-06T03:47:58Z</time></trkpt>
<trkpt lat="29.997214" lon="100.870629">
<time>2015-08-06T03:47:59Z</time></trkpt>
<trkpt lat="29.997264" lon="100.870659">
<time>2015-08-06T03:48:00Z</time></trkpt>
<trkpt lat="29.997314" lon="100.870669">
<time>2015-08-06T03:48:01Z</time></trkpt>
<trkpt lat="29.997354" lon="100.870669">
<time>2015-08-06T03:48:02Z</time></trkpt>
<trkpt lat="29.997434" lon="100.870659">
<time>2015-08-06T03:48:03Z</time></trkpt>
<trkpt lat="29.997534" lon="100.870639">
<time>2015-08-06T03:48:04Z</time></trkpt>
<trkpt lat="29.997684" lon="100.870599">
<time>2015-08-06T03:48:05Z</time></trkpt>
<trkpt lat="29.997754" lon="100.870589">
<time>2015-08-06T03:48:06Z</time></trkpt>
<trkpt lat="29.997814" lon="100.870589">
<time>2015-08-06T03:48:07Z</time></trkpt>
<trkpt lat="29.997864" lon="100.870599">
<time>2015-08-06T03:48:08Z</time></trkpt>
<trkpt lat="29.997904" lon="100.870629">
<time>2015-08-06T03:48:09Z</time></trkpt>
<trkpt lat="29.997944" lon="100.870659">
<time>2015-08-06T03:48:10Z</time></trkpt>
<trkpt lat="29.997974" lon="100.870699">
<time>2015-08-06T03:48:11Z</time></trkpt>
<trkpt lat="29.998005" lon="100.870749">
<time>2015-08-06T03:48:12Z</time></trkpt>
<trkpt lat="29.998045" lon="100.870829">
<time>2015-08-06T03:48:13Z</time></trkpt>
<trkpt lat="29.998125" lon="100.870979">
<time>2015-08-06T03:48:14Z</time></trkpt>
<trkpt lat="29.998195" lon="100.871089">
<time>2015-08-06T03:48:15Z</time></trkpt>
<trkpt lat="29.998255" lon="100.871189">
<time>2015-08-06T03:48:16Z</time></trkpt>
<trkpt lat="29.998315" lon="100.871249">
<time>2015-08-06T03:48:17Z</time></trkpt>
<trkpt lat="29.998365" lon="100.871279">
<time>2015-08-06T03:48:18Z</time></trkpt>
<trkpt lat="29.998415" lon="100.871299">
<time>2015-08-06T03:48:19Z</time></trkpt>
<trkpt lat="29.998485" lon="100.871319">
<time>2015-08-06T03:48:20Z</time></trkpt>
<trkpt lat="29.998545" lon="100.871309">
<time>2015-08-06T03:48:21Z</time></trkpt>
<trkpt lat="29.998605" lon="100.871299">
<time>2015-08-06T03:48:22Z</time></trkpt>
<trkpt lat="29.998695" lon="100.871259">
<time>2015-08-06T03:48:23Z</time></trkpt>
<trkpt lat="29.998815" lon="100.871199">
<time>2015-08-06T03:48:24Z</time></trkpt>
<trkpt lat="29.999125" lon="100.871009">
<time>2015-08-06T03:48:25Z</time></trkpt>
<trkpt lat="29.999774" lon="100.870639">
<time>2015-08-06T03:48:26Z</time></trkpt>
<trkpt lat="30.000024" lon="100.870529">
<time>2015-08-06T03:48:27Z</time></trkpt>
<trkpt lat="30.000384" lon="100.870369">
<time>2015-08-06T03:48:28Z</time></trkpt>
<trkpt lat="30.000604" lon="100.870269">
<time>2015-08-06T03:48:29Z</time></trkpt>
<trkpt lat="30.001084" lon="100.870108">
<time>2015-08-06T03:48:30Z</time></trkpt>
<trkpt lat="30.001204" lon="100.870058">
<time>2015-08-06T03:48:31Z</time></trkpt>
<trkpt lat="30.001274" lon="100.870008">
<time>2015-08-06T03:48:32Z</time></trkpt>
<trkpt lat="30.001354" lon="100.869938">
<time>2015-08-06T03:48:33Z</time></trkpt>
<trkpt lat="30.001403" lon="100.869868">
<time>2015-08-06T03:48:34Z</time></trkpt>
<trkpt lat="30.001463" lon="100.869778">
<time>2015-08-06T03:48:35Z</time></trkpt>
<trkpt lat="30.001543" lon="100.869598">
<time>2015-08-06T03:48:36Z</time></trkpt>
<trkpt lat="30.001633" lon="100.869358">
<time>2015-08-06T03:48:37Z</time></trkpt>
<trkpt lat="30.001693" lon="100.869198">
<time>2015-08-06T03:48:38Z</time></trkpt>
<trkpt lat="30.001743" lon="100.869098">
<time>2015-08-06T03:48:39Z</time></trkpt>
<trkpt lat="30.001793" lon="100.869038">
<time>2015-08-06T03:48:40Z</time></trkpt>
<trkpt lat="30.001842" lon="100.868988">
<time>2015-08-06T03:48:41Z</time></trkpt>
<trkpt lat="30.001902" lon="100.868937">
<time>2015-08-06T03:48:42Z</time></trkpt>
<trkpt lat="30.001972" lon="100.868897">
<time>2015-08-06T03:48:43Z</time></trkpt>
<trkpt lat="30.002192" lon="100.868817">
<time>2015-08-06T03:48:44Z</time></trkpt>
<trkpt lat="30.002332" lon="100.868777">
<time>2015-08-06T03:48:45Z</time></trkpt>
<trkpt lat="30.002442" lon="100.868757">
<time>2015-08-06T03:48:46Z</time></trkpt>
<trkpt lat="30.002542" lon="100.868737">
<time>2015-08-06T03:48:47Z</time></trkpt>
<trkpt lat="30.002632" lon="100.868737">
<time>2015-08-06T03:48:48Z</time></trkpt>
<trkpt lat="30.002752" lon="100.868747">
<time>2015-08-06T03:48:49Z</time></trkpt>
<trkpt lat="30.002962" lon="100.868757">
<time>2015-08-06T03:48:50Z</time></trkpt>
<trkpt lat="30.003282" lon="100.868807">
<time>2015-08-06T03:48:51Z</time></trkpt>
<trkpt lat="30.003442" lon="100.868817">
<time>2015-08-06T03:48:52Z</time></trkpt>
<trkpt lat="30.003552" lon="100.868817">
<time>2015-08-06T03:48:53Z</time></trkpt>
<trkpt lat="30.003642" lon="100.868797">
<time>2015-08-06T03:48:54Z</time></trkpt>
<trkpt lat="30.003782" lon="100.868777">
<time>2015-08-06T03:48:55Z</time></trkpt>
<trkpt lat="30.003902" lon="100.868747">
<time>2015-08-06T03:48:56Z</time></trkpt>
<trkpt lat="30.003982" lon="100.868727">
<time>2015-08-06T03:48:57Z</time></trkpt>
<trkpt lat="30.004062" lon="100.868717">
<time>2015-08-06T03:48:58Z</time></trkpt>
<trkpt lat="30.004282" lon="100.868697">
<time>2015-08-06T03:48:59Z</time></trkpt>
<trkpt lat="30.004392" lon="100.868697">
<time>2015-08-06T03:49:00Z</time></trkpt>
<trkpt lat="30.004522" lon="100.868697">
<time>2015-08-06T03:49:01Z</time></trkpt>
<trkpt lat="30.004712" lon="100.868727">
<time>2015-08-06T03:49:02Z</time></trkpt>
<trkpt lat="30.004882" lon="100.868757">
<time>2015-08-06T03:49:03Z</time></trkpt>
<trkpt lat="30.005002" lon="100.868777">
<time>2015-08-06T03:49:04Z</time></trkpt>
<trkpt lat="30.005352" lon="100.868867">
<time>2015-08-06T03:49:05Z</time></trkpt>
<trkpt lat="30.005562" lon="100.868907">
<time>2015-08-06T03:49:06Z</time></trkpt>
<trkpt lat="30.005752" lon="100.868927">
<time>2015-08-06T03:49:07Z</time></trkpt>
<trkpt lat="30.005902" lon="100.868937">
<time>2015-08-06T03:49:08Z</time></trkpt>
<trkpt lat="30.006322" lon="100.868937">
<time>2015-08-06T03:49:09Z</time></trkpt>
<trkpt lat="30.006692" lon="100.868957">
<time>2015-08-06T03:49:10Z</time></trkpt>
<trkpt lat="30.006862" lon="100.868937">
<time>2015-08-06T03:49:11Z</time></trkpt>
<trkpt lat="30.006952" lon="100.868907">
<time>2015-08-06T03:49:12Z</time></trkpt>
<trkpt lat="30.007042" lon="100.868877">
<time>2015-08-06T03:49:13Z</time></trkpt>
<trkpt lat="30.007132" lon="100.868827">
<time>2015-08-06T03:49:14Z</time></trkpt>
<trkpt lat="30.007212" lon="100.868777">
<time>2015-08-06T03:49:15Z</time></trkpt>
<trkpt lat="30.007282" lon="100.868717">
<time>2015-08-06T03:49:16Z</time></trkpt>
<trkpt lat="30.007342" lon="100.868657">
<time>2015-08-06T03:49:17Z</time></trkpt>
<trkpt lat="30.007382" lon="100.868597">
<time>2015-08-06T03:49:18Z</time></trkpt>
<trkpt lat="30.007432" lon="100.868517">
<time>2015-08-06T03:49:19Z</time></trkpt>
<trkpt lat="30.007512" lon="100.868377">
<time>2015-08-06T03:49:20Z</time></trkpt>
<trkpt lat="30.007701" lon="100.867977">
<time>2015-08-06T03:49:21Z</time></trkpt>
<trkpt lat="30.007781" lon="100.867806">
<time>2015-08-06T03:49:22Z</time></trkpt>
<trkpt lat="30.007831" lon="100.867686">
<time>2015-08-06T03:49:23Z</time></trkpt>
<trkpt lat="30.007871" lon="100.867566">
<time>2015-08-06T03:49:24Z</time></trkpt>
<trkpt lat="30.007901" lon="100.867446">
<time>2015-08-06T03:49:25Z</time></trkpt>
<trkpt lat="30.00794" lon="100.867206">
<time>2015-08-06T03:49:26Z</time></trkpt>
<trkpt lat="30.00799" lon="100.866846">
<time>2015-08-06T03:49:27Z</time></trkpt>
<trkpt lat="30.00803" lon="100.866585">
<time>2015-08-06T03:49:28Z</time></trkpt>
<trkpt lat="30.008039" lon="100.866445">
<time>2015-08-06T03:49:29Z</time></trkpt>
<trkpt lat="30.008029" lon="100.866305">
<time>2015-08-06T03:49:30Z</time></trkpt>
<trkpt lat="30.007999" lon="100.866105">
<time>2015-08-06T03:49:31Z</time></trkpt>
<trkpt lat="30.007888" lon="100.865474">
<time>2015-08-06T03:49:32Z</time></trkpt>
<trkpt lat="30.007878" lon="100.865384">
<time>2015-08-06T03:49:33Z</time></trkpt>
<trkpt lat="30.007878" lon="100.865314">
<time>2015-08-06T03:49:34Z</time></trkpt>
<trkpt lat="30.007878" lon="100.865244">
<time>2015-08-06T03:49:35Z</time></trkpt>
<trkpt lat="30.007888" lon="100.865174">
<time>2015-08-06T03:49:36Z</time></trkpt>
<trkpt lat="30.007908" lon="100.865104">
<time>2015-08-06T03:49:37Z</time></trkpt>
<trkpt lat="30.007937" lon="100.865044">
<time>2015-08-06T03:49:38Z</time></trkpt>
<trkpt lat="30.007987" lon="100.864994">
<time>2015-08-06T03:49:39Z</time></trkpt>
<trkpt lat="30.008047" lon="100.864944">
<time>2015-08-06T03:49:40Z</time></trkpt>
<trkpt lat="30.008097" lon="100.864924">
<time>2015-08-06T03:49:41Z</time></trkpt>
<trkpt lat="30.008157" lon="100.864904">
<time>2015-08-06T03:49:42Z</time></trkpt>
<trkpt lat="30.008227" lon="100.864904">
<time>2015-08-06T03:49:43Z</time></trkpt>
<trkpt lat="30.008277" lon="100.864904">
<time>2015-08-06T03:49:44Z</time></trkpt>
<trkpt lat="30.008307" lon="100.864914">
<time>2015-08-06T03:49:45Z</time></trkpt>
<trkpt lat="30.008357" lon="100.864934">
<time>2015-08-06T03:49:46Z</time></trkpt>
<trkpt lat="30.008397" lon="100.864964">
<time>2015-08-06T03:49:47Z</time></trkpt>
<trkpt lat="30.008447" lon="100.865014">
<time>2015-08-06T03:49:48Z</time></trkpt>
<trkpt lat="30.008498" lon="100.865084">
<time>2015-08-06T03:49:49Z</time></trkpt>
<trkpt lat="30.008578" lon="100.865214">
<time>2015-08-06T03:49:50Z</time></trkpt>
<trkpt lat="30.008698" lon="100.865404">
<time>2015-08-06T03:49:51Z</time></trkpt>
<trkpt lat="30.008828" lon="100.865594">
<time>2015-08-06T03:49:52Z</time></trkpt>
<trkpt lat="30.009019" lon="100.865895">
<time>2015-08-06T03:49:53Z</time></trkpt>
<trkpt lat="30.009119" lon="100.866065">
<time>2015-08-06T03:49:54Z</time></trkpt>
<trkpt lat="30.009159" lon="100.866155">
<time>2015-08-06T03:49:55Z</time></trkpt>
<trkpt lat="30.009189" lon="100.866235">
<time>2015-08-06T03:49:56Z</time></trkpt>
<trkpt lat="30.009209" lon="100.866315">
<time>2015-08-06T03:49:57Z</time></trkpt>
<trkpt lat="30.009259" lon="100.866525">
<time>2015-08-06T03:49:58Z</time></trkpt>
<trkpt lat="30.0093" lon="100.866715">
<time>2015-08-06T03:49:59Z</time></trkpt>
<trkpt lat="30.00933" lon="100.866815">
<time>2015-08-06T03:50:00Z</time></trkpt>
<trkpt lat="30.00935" lon="100.866876">
<time>2015-08-06T03:50:01Z</time></trkpt>
<trkpt lat="30.00938" lon="100.866926">
<time>2015-08-06T03:50:02Z</time></trkpt>
<trkpt lat="30.00942" lon="100.866966">
<time>2015-08-06T03:50:03Z</time></trkpt>
<trkpt lat="30.00945" lon="100.867006">
<time>2015-08-06T03:50:04Z</time></trkpt>
<trkpt lat="30.0095" lon="100.867036">
<time>2015-08-06T03:50:05Z</time></trkpt>
<trkpt lat="30.00956" lon="100.867066">
<time>2015-08-06T03:50:06Z</time></trkpt>
<trkpt lat="30.00962" lon="100.867086">
<time>2015-08-06T03:50:07Z</time></trkpt>
<trkpt lat="30.00974" lon="100.867116">
<time>2015-08-06T03:50:08Z</time></trkpt>
<trkpt lat="30.0099" lon="100.867136">
<time>2015-08-06T03:50:09Z</time></trkpt>
<trkpt lat="30.00998" lon="100.867136">
<time>2015-08-06T03:50:10Z</time></trkpt>
<trkpt lat="30.01002" lon="100.867136">
<time>2015-08-06T03:50:11Z</time></trkpt>
<trkpt lat="30.01008" lon="100.867116">
<time>2015-08-06T03:50:12Z</time></trkpt>
<trkpt lat="30.01012" lon="100.867086">
<time>2015-08-06T03:50:13Z</time></trkpt>
<trkpt lat="30.01015" lon="100.867056">
<time>2015-08-06T03:50:14Z</time></trkpt>
<trkpt lat="30.01018" lon="100.867026">
<time>2015-08-06T03:50:15Z</time></trkpt>
<trkpt lat="30.0102" lon="100.866986">
<time>2015-08-06T03:50:16Z</time></trkpt>
<trkpt lat="30.01022" lon="100.866946">
<time>2015-08-06T03:50:17Z</time></trkpt>
<trkpt lat="30.01022" lon="100.866906">
<time>2015-08-06T03:50:18Z</time></trkpt>
<trkpt lat="30.01022" lon="100.866866">
<time>2015-08-06T03:50:19Z</time></trkpt>
<trkpt lat="30.01021" lon="100.866835">
<time>2015-08-06T03:50:20Z</time></trkpt>
<trkpt lat="30.0102" lon="100.866815">
<time>2015-08-06T03:50:21Z</time></trkpt>
<trkpt lat="30.01018" lon="100.866775">
<time>2015-08-06T03:50:22Z</time></trkpt>
<trkpt lat="30.01015" lon="100.866745">
<time>2015-08-06T03:50:23Z</time></trkpt>
<trkpt lat="30.01011" lon="100.866735">
<time>2015-08-06T03:50:24Z</time></trkpt>
<trkpt lat="30.01001" lon="100.866695">
<time>2015-08-06T03:50:25Z</time></trkpt>
<trkpt lat="30.00979" lon="100.866595">
<time>2015-08-06T03:50:26Z</time></trkpt>
<trkpt lat="30.009699" lon="100.866545">
<time>2015-08-06T03:50:27Z</time></trkpt>
<trkpt lat="30.009659" lon="100.866515">
<time>2015-08-06T03:50:28Z</time></trkpt>
<trkpt lat="30.009619" lon="100.866475">
<time>2015-08-06T03:50:29Z</time></trkpt>
<trkpt lat="30.009589" lon="100.866425">
<time>2015-08-06T03:50:30Z</time></trkpt>
<trkpt lat="30.009569" lon="100.866385">
<time>2015-08-06T03:50:31Z</time></trkpt>
<trkpt lat="30.009549" lon="100.866305">
<time>2015-08-06T03:50:32Z</time></trkpt>
<trkpt lat="30.009529" lon="100.866185">
<time>2015-08-06T03:50:33Z</time></trkpt>
<trkpt lat="30.009458" lon="100.865664">
<time>2015-08-06T03:50:34Z</time></trkpt>
<trkpt lat="30.009377" lon="100.865034">
<time>2015-08-06T03:50:35Z</time></trkpt>
<trkpt lat="30.009317" lon="100.864704">
<time>2015-08-06T03:50:36Z</time></trkpt>
<trkpt lat="30.009237" lon="100.864363">
<time>2015-08-06T03:50:37Z</time></trkpt>
<trkpt lat="30.009116" lon="100.863923">
<time>2015-08-06T03:50:38Z</time></trkpt>
<trkpt lat="30.008965" lon="100.863442">
<time>2015-08-06T03:50:39Z</time></trkpt>
<trkpt lat="30.008915" lon="100.863282">
<time>2015-08-06T03:50:40Z</time></trkpt>
<trkpt lat="30.008855" lon="100.863122">
<time>2015-08-06T03:50:41Z</time></trkpt>
<trkpt lat="30.008765" lon="100.862922">
<time>2015-08-06T03:50:42Z</time></trkpt>
<trkpt lat="30.008484" lon="100.862421">
<time>2015-08-06T03:50:43Z</time></trkpt>
<trkpt lat="30.008273" lon="100.862081">
<time>2015-08-06T03:50:44Z</time></trkpt>
<trkpt lat="30.008213" lon="100.862001">
<time>2015-08-06T03:50:45Z</time></trkpt>
<trkpt lat="30.008133" lon="100.861921">
<time>2015-08-06T03:50:46Z</time></trkpt>
<trkpt lat="30.008073" lon="100.861861">
<time>2015-08-06T03:50:47Z</time></trkpt>
<trkpt lat="30.007993" lon="100.861801">
<time>2015-08-06T03:50:48Z</time></trkpt>
<trkpt lat="30.007823" lon="100.861701">
<time>2015-08-06T03:50:49Z</time></trkpt>
<trkpt lat="30.007433" lon="100.86149">
<time>2015-08-06T03:50:50Z</time></trkpt>
<trkpt lat="30.007333" lon="100.86144">
<time>2015-08-06T03:50:51Z</time></trkpt>
<trkpt lat="30.007253" lon="100.86142">
<time>2015-08-06T03:50:52Z</time></trkpt>
<trkpt lat="30.007152" lon="100.86141">
<time>2015-08-06T03:50:53Z</time></trkpt>
<trkpt lat="30.007072" lon="100.86141">
<time>2015-08-06T03:50:54Z</time></trkpt>
<trkpt lat="30.007023" lon="100.86143">
<time>2015-08-06T03:50:55Z</time></trkpt>
<trkpt lat="30.006943" lon="100.86146">
<time>2015-08-06T03:50:56Z</time></trkpt>
<trkpt lat="30.006833" lon="100.861521">
<time>2015-08-06T03:50:57Z</time></trkpt>
<trkpt lat="30.006653" lon="100.861651">
<time>2015-08-06T03:50:58Z</time></trkpt>
<trkpt lat="30.006473" lon="100.861801">
<time>2015-08-06T03:50:59Z</time></trkpt>
<trkpt lat="30.006163" lon="100.862051">
<time>2015-08-06T03:51:00Z</time></trkpt>
<trkpt lat="30.006004" lon="100.862211">
<time>2015-08-06T03:51:01Z</time></trkpt>
<trkpt lat="30.005834" lon="100.862381">
<time>2015-08-06T03:51:02Z</time></trkpt>
<trkpt lat="30.005724" lon="100.862512">
<time>2015-08-06T03:51:03Z</time></trkpt>
<trkpt lat="30.005514" lon="100.862802">
<time>2015-08-06T03:51:04Z</time></trkpt>
<trkpt lat="30.005345" lon="100.863062">
<time>2015-08-06T03:51:05Z</time></trkpt>
<trkpt lat="30.005265" lon="100.863182">
<time>2015-08-06T03:51:06Z</time></trkpt>
<trkpt lat="30.005235" lon="100.863252">
<time>2015-08-06T03:51:07Z</time></trkpt>
<trkpt lat="30.005205" lon="100.863332">
<time>2015-08-06T03:51:08Z</time></trkpt>
<trkpt lat="30.005195" lon="100.863402">
<time>2015-08-06T03:51:09Z</time></trkpt>
<trkpt lat="30.005195" lon="100.863473">
<time>2015-08-06T03:51:10Z</time></trkpt>
<trkpt lat="30.005195" lon="100.863563">
<time>2015-08-06T03:51:11Z</time></trkpt>
<trkpt lat="30.005206" lon="100.863623">
<time>2015-08-06T03:51:12Z</time></trkpt>
<trkpt lat="30.005216" lon="100.863693">
<time>2015-08-06T03:51:13Z</time></trkpt>
<trkpt lat="30.005226" lon="100.863763">
<time>2015-08-06T03:51:14Z</time></trkpt>
<trkpt lat="30.005256" lon="100.863873">
<time>2015-08-06T03:51:15Z</time></trkpt>
<trkpt lat="30.005266" lon="100.863913">
<time>2015-08-06T03:51:16Z</time></trkpt>
<trkpt lat="30.005276" lon="100.863973">
<time>2015-08-06T03:51:17Z</time></trkpt>
<trkpt lat="30.005276" lon="100.864013">
<time>2015-08-06T03:51:18Z</time></trkpt>
<trkpt lat="30.005276" lon="100.864053">
<time>2015-08-06T03:51:19Z</time></trkpt>
<trkpt lat="30.005266" lon="100.864103">
<time>2015-08-06T03:51:20Z</time></trkpt>
<trkpt lat="30.005256" lon="100.864143">
<time>2015-08-06T03:51:21Z</time></trkpt>
<trkpt lat="30.005236" lon="100.864183">
<time>2015-08-06T03:51:22Z</time></trkpt>
<trkpt lat="30.005216" lon="100.864203">
<time>2015-08-06T03:51:23Z</time></trkpt>
<trkpt lat="30.005196" lon="100.864223">
<time>2015-08-06T03:51:24Z</time></trkpt>
<trkpt lat="30.005186" lon="100.864243">
<time>2015-08-06T03:51:25Z</time></trkpt>
<trkpt lat="30.005156" lon="100.864243">
<time>2015-08-06T03:51:26Z</time></trkpt>
<trkpt lat="30.005136" lon="100.864243">
<time>2015-08-06T03:51:27Z</time></trkpt>
<trkpt lat="30.005106" lon="100.864243">
<time>2015-08-06T03:51:28Z</time></trkpt>
<trkpt lat="30.005076" lon="100.864223">
<time>2015-08-06T03:51:29Z</time></trkpt>
<trkpt lat="30.005046" lon="100.864193">
<time>2015-08-06T03:51:30Z</time></trkpt>
<trkpt lat="30.005026" lon="100.864173">
<time>2015-08-06T03:51:31Z</time></trkpt>
<trkpt lat="30.005006" lon="100.864143">
<time>2015-08-06T03:51:32Z</time></trkpt>
<trkpt lat="30.004976" lon="100.864093">
<time>2015-08-06T03:51:33Z</time></trkpt>
<trkpt lat="30.004936" lon="100.864023">
<time>2015-08-06T03:51:34Z</time></trkpt>
<trkpt lat="30.004906" lon="100.863973">
<time>2015-08-06T03:51:35Z</time></trkpt>
<trkpt lat="30.004876" lon="100.863913">
<time>2015-08-06T03:51:36Z</time></trkpt>
<trkpt lat="30.004846" lon="100.863823">
<time>2015-08-06T03:51:37Z</time></trkpt>
<trkpt lat="30.004826" lon="100.863743">
<time>2015-08-06T03:51:38Z</time></trkpt>
<trkpt lat="30.004816" lon="100.863653">
<time>2015-08-06T03:51:39Z</time></trkpt>
<trkpt lat="30.004815" lon="100.863563">
<time>2015-08-06T03:51:40Z</time></trkpt>
<trkpt lat="30.004835" lon="100.863483">
<time>2015-08-06T03:51:41Z</time></trkpt>
<trkpt lat="30.004855" lon="100.863422">
<time>2015-08-06T03:51:42Z</time></trkpt>
<trkpt lat="30.004885" lon="100.863342">
<time>2015-08-06T03:51:43Z</time></trkpt>
<trkpt lat="30.004945" lon="100.863232">
<time>2015-08-06T03:51:44Z</time></trkpt>
<trkpt lat="30.004985" lon="100.863132">
<time>2015-08-06T03:51:45Z</time></trkpt>
<trkpt lat="30.005015" lon="100.863032">
<time>2015-08-06T03:51:46Z</time></trkpt>
<trkpt lat="30.005035" lon="100.862962">
<time>2015-08-06T03:51:47Z</time></trkpt>
<trkpt lat="30.005045" lon="100.862882">
<time>2015-08-06T03:51:48Z</time></trkpt>
<trkpt lat="30.005034" lon="100.862812">
<time>2015-08-06T03:51:49Z</time></trkpt>
<trkpt lat="30.005014" lon="100.862752">
<time>2015-08-06T03:51:50Z</time></trkpt>
<trkpt lat="30.004994" lon="100.862702">
<time>2015-08-06T03:51:51Z</time></trkpt>
<trkpt lat="30.004964" lon="100.862652">
<time>2015-08-06T03:51:52Z</time></trkpt>
<trkpt lat="30.004894" lon="100.862562">
<time>2015-08-06T03:51:53Z</time></trkpt>
<trkpt lat="30.004534" lon="100.862181">
<time>2015-08-06T03:51:54Z</time></trkpt>
<trkpt lat="30.004273" lon="100.861901">
<time>2015-08-06T03:51:55Z</time></trkpt>
<trkpt lat="30.004203" lon="100.861811">
<time>2015-08-06T03:51:56Z</time></trkpt>
<trkpt lat="30.004153" lon="100.861741">
<time>2015-08-06T03:51:57Z</time></trkpt>
<trkpt lat="30.004133" lon="100.861681">
<time>2015-08-06T03:51:58Z</time></trkpt>
<trkpt lat="30.004123" lon="100.861611">
<time>2015-08-06T03:51:59Z</time></trkpt>
<trkpt lat="30.004123" lon="100.861521">
<time>2015-08-06T03:52:00Z</time></trkpt>
<trkpt lat="30.004132" lon="100.86142">
<time>2015-08-06T03:52:01Z</time></trkpt>
<trkpt lat="30.004152" lon="100.86133">
<time>2015-08-06T03:52:02Z</time></trkpt>
<trkpt lat="30.004212" lon="100.86114">
<time>2015-08-06T03:52:03Z</time></trkpt>
<trkpt lat="30.004391" lon="100.8606">
<time>2015-08-06T03:52:04Z</time></trkpt>
<trkpt lat="30.0046" lon="100.859979">
<time>2015-08-06T03:52:05Z</time></trkpt>
<trkpt lat="30.0047" lon="100.859669">
<time>2015-08-06T03:52:06Z</time></trkpt>
<trkpt lat="30.00479" lon="100.859408">
<time>2015-08-06T03:52:07Z</time></trkpt>
<trkpt lat="30.004859" lon="100.859208">
<time>2015-08-06T03:52:08Z</time></trkpt>
<trkpt lat="30.004909" lon="100.859098">
<time>2015-08-06T03:52:09Z</time></trkpt>
<trkpt lat="30.004969" lon="100.859018">
<time>2015-08-06T03:52:10Z</time></trkpt>
<trkpt lat="30.005039" lon="100.858928">
<time>2015-08-06T03:52:11Z</time></trkpt>
<trkpt lat="30.005129" lon="100.858848">
<time>2015-08-06T03:52:12Z</time></trkpt>
<trkpt lat="30.005199" lon="100.858798">
<time>2015-08-06T03:52:13Z</time></trkpt>
<trkpt lat="30.005279" lon="100.858758">
<time>2015-08-06T03:52:14Z</time></trkpt>
<trkpt lat="30.005339" lon="100.858728">
<time>2015-08-06T03:52:15Z</time></trkpt>
<trkpt lat="30.005399" lon="100.858697">
<time>2015-08-06T03:52:16Z</time></trkpt>
<trkpt lat="30.005459" lon="100.858687">
<time>2015-08-06T03:52:17Z</time></trkpt>
<trkpt lat="30.005528" lon="100.858667">
<time>2015-08-06T03:52:18Z</time></trkpt>
<trkpt lat="30.005608" lon="100.858667">
<time>2015-08-06T03:52:19Z</time></trkpt>
<trkpt lat="30.005748" lon="100.858657">
<time>2015-08-06T03:52:20Z</time></trkpt>
<trkpt lat="30.006158" lon="100.858667">
<time>2015-08-06T03:52:21Z</time></trkpt>
<trkpt lat="30.006568" lon="100.858667">
<time>2015-08-06T03:52:22Z</time></trkpt>
<trkpt lat="30.007279" lon="100.858747">
<time>2015-08-06T03:52:23Z</time></trkpt>
<trkpt lat="30.007759" lon="100.858798">
<time>2015-08-06T03:52:24Z</time></trkpt>
<trkpt lat="30.007929" lon="100.858808">
<time>2015-08-06T03:52:25Z</time></trkpt>
<trkpt lat="30.008049" lon="100.858838">
<time>2015-08-06T03:52:26Z</time></trkpt>
<trkpt lat="30.008139" lon="100.858878">
<time>2015-08-06T03:52:27Z</time></trkpt>
<trkpt lat="30.008219" lon="100.858908">
<time>2015-08-06T03:52:28Z</time></trkpt>
<trkpt lat="30.008309" lon="100.858958">
<time>2015-08-06T03:52:29Z</time></trkpt>
<trkpt lat="30.008429" lon="100.859038">
<time>2015-08-06T03:52:30Z</time></trkpt>
<trkpt lat="30.008819" lon="100.859258">
<time>2015-08-06T03:52:31Z</time></trkpt>
<trkpt lat="30.008909" lon="100.859318">
<time>2015-08-06T03:52:32Z</time></trkpt>
<trkpt lat="30.00901" lon="100.859388">
<time>2015-08-06T03:52:33Z</time></trkpt>
<trkpt lat="30.00912" lon="100.859488">
<time>2015-08-06T03:52:34Z</time></trkpt>
<trkpt lat="30.00928" lon="100.859628">
<time>2015-08-06T03:52:35Z</time></trkpt>
<trkpt lat="30.00942" lon="100.859749">
<time>2015-08-06T03:52:36Z</time></trkpt>
<trkpt lat="30.00958" lon="100.859859">
<time>2015-08-06T03:52:37Z</time></trkpt>
<trkpt lat="30.00968" lon="100.859929">
<time>2015-08-06T03:52:38Z</time></trkpt>
<trkpt lat="30.00982" lon="100.859999">
<time>2015-08-06T03:52:39Z</time></trkpt>
<trkpt lat="30.009941" lon="100.860049">
<time>2015-08-06T03:52:40Z</time></trkpt>
<trkpt lat="30.010201" lon="100.860159">
<time>2015-08-06T03:52:41Z</time></trkpt>
<trkpt lat="30.010541" lon="100.860319">
<time>2015-08-06T03:52:42Z</time></trkpt>
<trkpt lat="30.010741" lon="100.860409">
<time>2015-08-06T03:52:43Z</time></trkpt>
<trkpt lat="30.010851" lon="100.860439">
<time>2015-08-06T03:52:44Z</time></trkpt>
<trkpt lat="30.010951" lon="100.860439">
<time>2015-08-06T03:52:45Z</time></trkpt>
<trkpt lat="30.011041" lon="100.860429">
<time>2015-08-06T03:52:46Z</time></trkpt>
<trkpt lat="30.011131" lon="100.860399">
<time>2015-08-06T03:52:47Z</time></trkpt>
<trkpt lat="30.011221" lon="100.860359">
<time>2015-08-06T03:52:48Z</time></trkpt>
<trkpt lat="30.011321" lon="100.860309">
<time>2015-08-06T03:52:49Z</time></trkpt>
<trkpt lat="30.011451" lon="100.860229">
<time>2015-08-06T03:52:50Z</time></trkpt>
<trkpt lat="30.011601" lon="100.860149">
<time>2015-08-06T03:52:51Z</time></trkpt>
<trkpt lat="30.011741" lon="100.860049">
<time>2015-08-06T03:52:52Z</time></trkpt>
<trkpt lat="30.01183" lon="100.859979">
<time>2015-08-06T03:52:53Z</time></trkpt>
<trkpt lat="30.01191" lon="100.859919">
<time>2015-08-06T03:52:54Z</time></trkpt>
<trkpt lat="30.012" lon="100.859819">
<time>2015-08-06T03:52:55Z</time></trkpt>
<trkpt lat="30.01206" lon="100.859728">
<time>2015-08-06T03:52:56Z</time></trkpt>
<trkpt lat="30.01212" lon="100.859628">
<time>2015-08-06T03:52:57Z</time></trkpt>
<trkpt lat="30.01215" lon="100.859548">
<time>2015-08-06T03:52:58Z</time></trkpt>
<trkpt lat="30.01217" lon="100.859448">
<time>2015-08-06T03:52:59Z</time></trkpt>
<trkpt lat="30.01218" lon="100.859328">
<time>2015-08-06T03:53:00Z</time></trkpt>
<trkpt lat="30.012169" lon="100.859208">
<time>2015-08-06T03:53:01Z</time></trkpt>
<trkpt lat="30.012149" lon="100.859088">
<time>2015-08-06T03:53:02Z</time></trkpt>
<trkpt lat="30.012109" lon="100.858948">
<time>2015-08-06T03:53:03Z</time></trkpt>
<trkpt lat="30.012059" lon="100.858747">
<time>2015-08-06T03:53:04Z</time></trkpt>
<trkpt lat="30.011988" lon="100.858517">
<time>2015-08-06T03:53:05Z</time></trkpt>
<trkpt lat="30.011938" lon="100.858387">
<time>2015-08-06T03:53:06Z</time></trkpt>
<trkpt lat="30.011908" lon="100.858297">
<time>2015-08-06T03:53:07Z</time></trkpt>
<trkpt lat="30.011888" lon="100.858157">
<time>2015-08-06T03:53:08Z</time></trkpt>
<trkpt lat="30.011857" lon="100.857976">
<time>2015-08-06T03:53:09Z</time></trkpt>
<trkpt lat="30.011827" lon="100.857816">
<time>2015-08-06T03:53:10Z</time></trkpt>
<trkpt lat="30.011787" lon="100.857676">
<time>2015-08-06T03:53:11Z</time></trkpt>
<trkpt lat="30.011727" lon="100.857496">
<time>2015-08-06T03:53:12Z</time></trkpt>
<trkpt lat="30.011636" lon="100.857286">
<time>2015-08-06T03:53:13Z</time></trkpt>
<trkpt lat="30.011566" lon="100.857075">
<time>2015-08-06T03:53:14Z</time></trkpt>
<trkpt lat="30.011466" lon="100.856785">
<time>2015-08-06T03:53:15Z</time></trkpt>
<trkpt lat="30.011415" lon="100.856635">
<time>2015-08-06T03:53:16Z</time></trkpt>
<trkpt lat="30.011385" lon="100.856515">
<time>2015-08-06T03:53:17Z</time></trkpt>
<trkpt lat="30.011295" lon="100.856124">
<time>2015-08-06T03:53:18Z</time></trkpt>
<trkpt lat="30.011234" lon="100.855784">
<time>2015-08-06T03:53:19Z</time></trkpt>
<trkpt lat="30.011174" lon="100.855584">
<time>2015-08-06T03:53:20Z</time></trkpt>
<trkpt lat="30.011093" lon="100.855363">
<time>2015-08-06T03:53:21Z</time></trkpt>
<trkpt lat="30.011033" lon="100.855263">
<time>2015-08-06T03:53:22Z</time></trkpt>
<trkpt lat="30.010983" lon="100.855183">
<time>2015-08-06T03:53:23Z</time></trkpt>
<trkpt lat="30.010933" lon="100.855133">
<time>2015-08-06T03:53:24Z</time></trkpt>
<trkpt lat="30.010883" lon="100.855093">
<time>2015-08-06T03:53:25Z</time></trkpt>
<trkpt lat="30.010753" lon="100.855013">
<time>2015-08-06T03:53:26Z</time></trkpt>
<trkpt lat="30.010603" lon="100.854903">
<time>2015-08-06T03:53:27Z</time></trkpt>
<trkpt lat="30.010523" lon="100.854843">
<time>2015-08-06T03:53:28Z</time></trkpt>
<trkpt lat="30.010382" lon="100.854713">
<time>2015-08-06T03:53:29Z</time></trkpt>
<trkpt lat="30.010272" lon="100.854582">
<time>2015-08-06T03:53:30Z</time></trkpt>
<trkpt lat="30.010202" lon="100.854492">
<time>2015-08-06T03:53:31Z</time></trkpt>
<trkpt lat="30.010152" lon="100.854392">
<time>2015-08-06T03:53:32Z</time></trkpt>
<trkpt lat="30.010122" lon="100.854302">
<time>2015-08-06T03:53:33Z</time></trkpt>
<trkpt lat="30.010102" lon="100.854222">
<time>2015-08-06T03:53:34Z</time></trkpt>
<trkpt lat="30.010081" lon="100.854102">
<time>2015-08-06T03:53:35Z</time></trkpt>
<trkpt lat="30.010081" lon="100.853972">
<time>2015-08-06T03:53:36Z</time></trkpt>
<trkpt lat="30.010081" lon="100.853872">
<time>2015-08-06T03:53:37Z</time></trkpt>
<trkpt lat="30.010101" lon="100.853751">
<time>2015-08-06T03:53:38Z</time></trkpt>
<trkpt lat="30.01017" lon="100.853451">
<time>2015-08-06T03:53:39Z</time></trkpt>
<trkpt lat="30.01027" lon="100.853061">
<time>2015-08-06T03:53:40Z</time></trkpt>
<trkpt lat="30.010339" lon="100.8528">
<time>2015-08-06T03:53:41Z</time></trkpt>
<trkpt lat="30.010379" lon="100.85267">
<time>2015-08-06T03:53:42Z</time></trkpt>
<trkpt lat="30.010389" lon="100.8526">
<time>2015-08-06T03:53:43Z</time></trkpt>
<trkpt lat="30.010389" lon="100.8525">
<time>2015-08-06T03:53:44Z</time></trkpt>
<trkpt lat="30.010389" lon="100.85239">
<time>2015-08-06T03:53:45Z</time></trkpt>
<trkpt lat="30.010379" lon="100.85229">
<time>2015-08-06T03:53:46Z</time></trkpt>
<trkpt lat="30.010358" lon="100.852179">
<time>2015-08-06T03:53:47Z</time></trkpt>
<trkpt lat="30.010338" lon="100.852089">
<time>2015-08-06T03:53:48Z</time></trkpt>
<trkpt lat="30.010298" lon="100.851979">
<time>2015-08-06T03:53:49Z</time></trkpt>
<trkpt lat="30.010228" lon="100.851789">
<time>2015-08-06T03:53:50Z</time></trkpt>
<trkpt lat="30.010157" lon="100.851629">
<time>2015-08-06T03:53:51Z</time></trkpt>
<trkpt lat="30.010117" lon="100.851509">
<time>2015-08-06T03:53:52Z</time></trkpt>
<trkpt lat="30.010107" lon="100.851418">
<time>2015-08-06T03:53:53Z</time></trkpt>
<trkpt lat="30.010097" lon="100.851258">
<time>2015-08-06T03:53:54Z</time></trkpt>
<trkpt lat="30.010127" lon="100.851108">
<time>2015-08-06T03:53:55Z</time></trkpt>
<trkpt lat="30.010156" lon="100.850948">
<time>2015-08-06T03:53:56Z</time></trkpt>
<trkpt lat="30.010216" lon="100.850788">
<time>2015-08-06T03:53:57Z</time></trkpt>
<trkpt lat="30.010256" lon="100.850678">
<time>2015-08-06T03:53:58Z</time></trkpt>
<trkpt lat="30.010276" lon="100.850607">
<time>2015-08-06T03:53:59Z</time></trkpt>
<trkpt lat="30.010286" lon="100.850537">
<time>2015-08-06T03:54:00Z</time></trkpt>
<trkpt lat="30.010305" lon="100.850427">
<time>2015-08-06T03:54:01Z</time></trkpt>
<trkpt lat="30.010315" lon="100.849997">
<time>2015-08-06T03:54:02Z</time></trkpt>
<trkpt lat="30.010334" lon="100.849816">
<time>2015-08-06T03:54:03Z</time></trkpt>
<trkpt lat="30.010324" lon="100.849746">
<time>2015-08-06T03:54:04Z</time></trkpt>
<trkpt lat="30.010314" lon="100.849696">
<time>2015-08-06T03:54:05Z</time></trkpt>
<trkpt lat="30.010294" lon="100.849666">
<time>2015-08-06T03:54:06Z</time></trkpt>
<trkpt lat="30.010264" lon="100.849636">
<time>2015-08-06T03:54:07Z</time></trkpt>
<trkpt lat="30.010234" lon="100.849616">
<time>2015-08-06T03:54:08Z</time></trkpt>
<trkpt lat="30.010204" lon="100.849596">
<time>2015-08-06T03:54:09Z</time></trkpt>
<trkpt lat="30.010174" lon="100.849576">
<time>2015-08-06T03:54:10Z</time></trkpt>
<trkpt lat="30.010114" lon="100.849556">
<time>2015-08-06T03:54:11Z</time></trkpt>
<trkpt lat="30.009994" lon="100.849506">
<time>2015-08-06T03:54:12Z</time></trkpt>
<trkpt lat="30.009924" lon="100.849466">
<time>2015-08-06T03:54:13Z</time></trkpt>
<trkpt lat="30.009814" lon="100.849386">
<time>2015-08-06T03:54:14Z</time></trkpt>
<trkpt lat="30.009714" lon="100.849306">
<time>2015-08-06T03:54:15Z</time></trkpt>
<trkpt lat="30.009603" lon="100.849186">
<time>2015-08-06T03:54:16Z</time></trkpt>
<trkpt lat="30.009463" lon="100.849025">
<time>2015-08-06T03:54:17Z</time></trkpt>
<trkpt lat="30.009343" lon="100.848905">
<time>2015-08-06T03:54:18Z</time></trkpt>
<trkpt lat="30.009283" lon="100.848865">
<time>2015-08-06T03:54:19Z</time></trkpt>
<trkpt lat="30.009243" lon="100.848835">
<time>2015-08-06T03:54:20Z</time></trkpt>
<trkpt lat="30.009153" lon="100.848805">
<time>2015-08-06T03:54:21Z</time></trkpt>
<trkpt lat="30.008873" lon="100.848705">
<time>2015-08-06T03:54:22Z</time></trkpt>
<trkpt lat="30.008502" lon="100.848545">
<time>2015-08-06T03:54:23Z</time></trkpt>
<trkpt lat="30.008012" lon="100.848324">
<time>2015-08-06T03:54:24Z</time></trkpt>
<trkpt lat="30.007622" lon="100.848164">
<time>2015-08-06T03:54:25Z</time></trkpt>
<trkpt lat="30.007351" lon="100.848064">
<time>2015-08-06T03:54:26Z</time></trkpt>
<trkpt lat="30.007171" lon="100.848014">
<time>2015-08-06T03:54:27Z</time></trkpt>
<trkpt lat="30.006941" lon="100.847964">
<time>2015-08-06T03:54:28Z</time></trkpt>
<trkpt lat="30.006421" lon="100.847894">
<time>2015-08-06T03:54:29Z</time></trkpt>
<trkpt lat="30.005991" lon="100.847834">
<time>2015-08-06T03:54:30Z</time></trkpt>
<trkpt lat="30.005461" lon="100.847774">
<time>2015-08-06T03:54:31Z</time></trkpt>
<trkpt lat="30.005191" lon="100.847754">
<time>2015-08-06T03:54:32Z</time></trkpt>
<trkpt lat="30.004981" lon="100.847724">
<time>2015-08-06T03:54:33Z</time></trkpt>
<trkpt lat="30.004811" lon="100.847694">
<time>2015-08-06T03:54:34Z</time></trkpt>
<trkpt lat="30.004501" lon="100.847624">
<time>2015-08-06T03:54:35Z</time></trkpt>
<trkpt lat="30.00411" lon="100.847513">
<time>2015-08-06T03:54:36Z</time></trkpt>
<trkpt lat="30.00375" lon="100.847423">
<time>2015-08-06T03:54:37Z</time></trkpt>
<trkpt lat="30.00359" lon="100.847403">
<time>2015-08-06T03:54:38Z</time></trkpt>
<trkpt lat="30.00342" lon="100.847393">
<time>2015-08-06T03:54:39Z</time></trkpt>
<trkpt lat="30.00328" lon="100.847403">
<time>2015-08-06T03:54:40Z</time></trkpt>
<trkpt lat="30.00312" lon="100.847423">
<time>2015-08-06T03:54:41Z</time></trkpt>
<trkpt lat="30.00298" lon="100.847443">
<time>2015-08-06T03:54:42Z</time></trkpt>
<trkpt lat="30.00289" lon="100.847443">
<time>2015-08-06T03:54:43Z</time></trkpt>
<trkpt lat="30.0028" lon="100.847433">
<time>2015-08-06T03:54:44Z</time></trkpt>
<trkpt lat="30.00274" lon="100.847423">
<time>2015-08-06T03:54:45Z</time></trkpt>
<trkpt lat="30.00264" lon="100.847383">
<time>2015-08-06T03:54:46Z</time></trkpt>
<trkpt lat="30.00257" lon="100.847343">
<time>2015-08-06T03:54:47Z</time></trkpt>
<trkpt lat="30.00238" lon="100.847223">
<time>2015-08-06T03:54:48Z</time></trkpt>
<trkpt lat="30.00213" lon="100.847053">
<time>2015-08-06T03:54:49Z</time></trkpt>
<trkpt lat="30.00201" lon="100.846983">
<time>2015-08-06T03:54:50Z</time></trkpt>
<trkpt lat="30.001869" lon="100.846913">
<time>2015-08-06T03:54:51Z</time></trkpt>
<trkpt lat="30.001639" lon="100.846812">
<time>2015-08-06T03:54:52Z</time></trkpt>
<trkpt lat="30.001489" lon="100.846752">
<time>2015-08-06T03:54:53Z</time></trkpt>
<trkpt lat="30.001389" lon="100.846692">
<time>2015-08-06T03:54:54Z</time></trkpt>
<trkpt lat="30.001259" lon="100.846612">
<time>2015-08-06T03:54:55Z</time></trkpt>
<trkpt lat="30.001139" lon="100.846512">
<time>2015-08-06T03:54:56Z</time></trkpt>
<trkpt lat="30.001009" lon="100.846392">
<time>2015-08-06T03:54:57Z</time></trkpt>
<trkpt lat="30.000818" lon="100.846212">
<time>2015-08-06T03:54:58Z</time></trkpt>
<trkpt lat="30.000658" lon="100.846041">
<time>2015-08-06T03:54:59Z</time></trkpt>
<trkpt lat="30.000548" lon="100.845951">
<time>2015-08-06T03:55:00Z</time></trkpt>
<trkpt lat="30.000458" lon="100.845881">
<time>2015-08-06T03:55:01Z</time></trkpt>
<trkpt lat="30.000317" lon="100.845801">
<time>2015-08-06T03:55:02Z</time></trkpt>
<trkpt lat="30.000027" lon="100.845651">
<time>2015-08-06T03:55:03Z</time></trkpt>
<trkpt lat="29.999186" lon="100.84509">
<time>2015-08-06T03:55:04Z</time></trkpt>
<trkpt lat="29.999056" lon="100.845">
<time>2015-08-06T03:55:05Z</time></trkpt>
<trkpt lat="29.998926" lon="100.84495">
<time>2015-08-06T03:55:06Z</time></trkpt>
<trkpt lat="29.998776" lon="100.8449">
<time>2015-08-06T03:55:07Z</time></trkpt>
<trkpt lat="29.998616" lon="100.84486">
<time>2015-08-06T03:55:08Z</time></trkpt>
<trkpt lat="29.998446" lon="100.84483">
<time>2015-08-06T03:55:09Z</time></trkpt>
<trkpt lat="29.998276" lon="100.84479">
<time>2015-08-06T03:55:10Z</time></trkpt>
<trkpt lat="29.998186" lon="100.84477">
<time>2015-08-06T03:55:11Z</time></trkpt>
<trkpt lat="29.998126" lon="100.84474">
<time>2015-08-06T03:55:12Z</time></trkpt>
<trkpt lat="29.998066" lon="100.84469">
<time>2015-08-06T03:55:13Z</time></trkpt>
<trkpt lat="29.997995" lon="100.844599">
<time>2015-08-06T03:55:14Z</time></trkpt>
<trkpt lat="29.997965" lon="100.844509">
<time>2015-08-06T03:55:15Z</time></trkpt>
<trkpt lat="29.997935" lon="100.844409">
<time>2015-08-06T03:55:16Z</time></trkpt>
<trkpt lat="29.997925" lon="100.844319">
<time>2015-08-06T03:55:17Z</time></trkpt>
<trkpt lat="29.997945" lon="100.844229">
<time>2015-08-06T03:55:18Z</time></trkpt>
<trkpt lat="29.997975" lon="100.844139">
<time>2015-08-06T03:55:19Z</time></trkpt>
<trkpt lat="29.998014" lon="100.844069">
<time>2015-08-06T03:55:20Z</time></trkpt>
<trkpt lat="29.998074" lon="100.843999">
<time>2015-08-06T03:55:21Z</time></trkpt>
<trkpt lat="29.998154" lon="100.843928">
<time>2015-08-06T03:55:22Z</time></trkpt>
<trkpt lat="29.998234" lon="100.843888">
<time>2015-08-06T03:55:23Z</time></trkpt>
<trkpt lat="29.998374" lon="100.843818">
<time>2015-08-06T03:55:24Z</time></trkpt>
<trkpt lat="29.998524" lon="100.843738">
<time>2015-08-06T03:55:25Z</time></trkpt>
<trkpt lat="29.999043" lon="100.843468">
<time>2015-08-06T03:55:26Z</time></trkpt>
<trkpt lat="29.999473" lon="100.843247">
<time>2015-08-06T03:55:27Z</time></trkpt>
<trkpt lat="29.999733" lon="100.843147">
<time>2015-08-06T03:55:28Z</time></trkpt>
<trkpt lat="29.999913" lon="100.843097">
<time>2015-08-06T03:55:29Z</time></trkpt>
<trkpt lat="30.000033" lon="100.843067">
<time>2015-08-06T03:55:30Z</time></trkpt>
<trkpt lat="30.000613" lon="100.842967">
<time>2015-08-06T03:55:31Z</time></trkpt>
<trkpt lat="30.000872" lon="100.842917">
<time>2015-08-06T03:55:32Z</time></trkpt>
<trkpt lat="30.001072" lon="100.842877">
<time>2015-08-06T03:55:33Z</time></trkpt>
<trkpt lat="30.001312" lon="100.842857">
<time>2015-08-06T03:55:34Z</time></trkpt>
<trkpt lat="30.001462" lon="100.842857">
<time>2015-08-06T03:55:35Z</time></trkpt>
<trkpt lat="30.001632" lon="100.842857">
<time>2015-08-06T03:55:36Z</time></trkpt>
<trkpt lat="30.001882" lon="100.842877">
<time>2015-08-06T03:55:37Z</time></trkpt>
<trkpt lat="30.002662" lon="100.842947">
<time>2015-08-06T03:55:38Z</time></trkpt>
<trkpt lat="30.003093" lon="100.842997">
<time>2015-08-06T03:55:39Z</time></trkpt>
<trkpt lat="30.003553" lon="100.843007">
<time>2015-08-06T03:55:40Z</time></trkpt>
<trkpt lat="30.003923" lon="100.843007">
<time>2015-08-06T03:55:41Z</time></trkpt>
<trkpt lat="30.004213" lon="100.842997">
<time>2015-08-06T03:55:42Z</time></trkpt>
<trkpt lat="30.004473" lon="100.842957">
<time>2015-08-06T03:55:43Z</time></trkpt>
<trkpt lat="30.004902" lon="100.842877">
<time>2015-08-06T03:55:44Z</time></trkpt>
<trkpt lat="30.005362" lon="100.842777">
<time>2015-08-06T03:55:45Z</time></trkpt>
<trkpt lat="30.005692" lon="100.842716">
<time>2015-08-06T03:55:46Z</time></trkpt>
<trkpt lat="30.006312" lon="100.842616">
<time>2015-08-06T03:55:47Z</time></trkpt>
<trkpt lat="30.006942" lon="100.842546">
<time>2015-08-06T03:55:48Z</time></trkpt>
<trkpt lat="30.007492" lon="100.842466">
<time>2015-08-06T03:55:49Z</time></trkpt>
<trkpt lat="30.007982" lon="100.842416">
<time>2015-08-06T03:55:50Z</time></trkpt>
<trkpt lat="30.008222" lon="100.842396">
<time>2015-08-06T03:55:51Z</time></trkpt>
<trkpt lat="30.008642" lon="100.842406">
<time>2015-08-06T03:55:52Z</time></trkpt>
<trkpt lat="30.009132" lon="100.842426">
<time>2015-08-06T03:55:53Z</time></trkpt>
<trkpt lat="30.009822" lon="100.842456">
<time>2015-08-06T03:55:54Z</time></trkpt>
<trkpt lat="30.010042" lon="100.842466">
<time>2015-08-06T03:55:55Z</time></trkpt>
<trkpt lat="30.010422" lon="100.842496">
<time>2015-08-06T03:55:56Z</time></trkpt>
<trkpt lat="30.011142" lon="100.842576">
<time>2015-08-06T03:55:57Z</time></trkpt>
<trkpt lat="30.011752" lon="100.842646">
<time>2015-08-06T03:55:58Z</time></trkpt>
<trkpt lat="30.012032" lon="100.842696">
<time>2015-08-06T03:55:59Z</time></trkpt>
<trkpt lat="30.012272" lon="100.842736">
<time>2015-08-06T03:56:00Z</time></trkpt>
<trkpt lat="30.012582" lon="100.842786">
<time>2015-08-06T03:56:01Z</time></trkpt>
<trkpt lat="30.012732" lon="100.842796">
<time>2015-08-06T03:56:02Z</time></trkpt>
<trkpt lat="30.012882" lon="100.842796">
<time>2015-08-06T03:56:03Z</time></trkpt>
<trkpt lat="30.013012" lon="100.842786">
<time>2015-08-06T03:56:04Z</time></trkpt>
<trkpt lat="30.013112" lon="100.842756">
<time>2015-08-06T03:56:05Z</time></trkpt>
<trkpt lat="30.013182" lon="100.842726">
<time>2015-08-06T03:56:06Z</time></trkpt>
<trkpt lat="30.013262" lon="100.842686">
<time>2015-08-06T03:56:07Z</time></trkpt>
<trkpt lat="30.013332" lon="100.842636">
<time>2015-08-06T03:56:08Z</time></trkpt>
<trkpt lat="30.013422" lon="100.842546">
<time>2015-08-06T03:56:09Z</time></trkpt>
<trkpt lat="30.013522" lon="100.842456">
<time>2015-08-06T03:56:10Z</time></trkpt>
<trkpt lat="30.013651" lon="100.842306">
<time>2015-08-06T03:56:11Z</time></trkpt>
<trkpt lat="30.013791" lon="100.842105">
<time>2015-08-06T03:56:12Z</time></trkpt>
<trkpt lat="30.013911" lon="100.841875">
<time>2015-08-06T03:56:13Z</time></trkpt>
<trkpt lat="30.01397" lon="100.841775">
<time>2015-08-06T03:56:14Z</time></trkpt>
<trkpt lat="30.01402" lon="100.841665">
<time>2015-08-06T03:56:15Z</time></trkpt>
<trkpt lat="30.01415" lon="100.841334">
<time>2015-08-06T03:56:16Z</time></trkpt>
<trkpt lat="30.014259" lon="100.841054">
<time>2015-08-06T03:56:17Z</time></trkpt>
<trkpt lat="30.014369" lon="100.840763">
<time>2015-08-06T03:56:18Z</time></trkpt>
<trkpt lat="30.014398" lon="100.840643">
<time>2015-08-06T03:56:19Z</time></trkpt>
<trkpt lat="30.014408" lon="100.840533">
<time>2015-08-06T03:56:20Z</time></trkpt>
<trkpt lat="30.014398" lon="100.840443">
<time>2015-08-06T03:56:21Z</time></trkpt>
<trkpt lat="30.014378" lon="100.840383">
<time>2015-08-06T03:56:22Z</time></trkpt>
<trkpt lat="30.014358" lon="100.840323">
<time>2015-08-06T03:56:23Z</time></trkpt>
<trkpt lat="30.014318" lon="100.840263">
<time>2015-08-06T03:56:24Z</time></trkpt>
<trkpt lat="30.014268" lon="100.840182">
<time>2015-08-06T03:56:25Z</time></trkpt>
<trkpt lat="30.013937" lon="100.839732">
<time>2015-08-06T03:56:26Z</time></trkpt>
<trkpt lat="30.013676" lon="100.839361">
<time>2015-08-06T03:56:27Z</time></trkpt>
<trkpt lat="30.013456" lon="100.839041">
<time>2015-08-06T03:56:28Z</time></trkpt>
<trkpt lat="30.013365" lon="100.838861">
<time>2015-08-06T03:56:29Z</time></trkpt>
<trkpt lat="30.013345" lon="100.83881">
<time>2015-08-06T03:56:30Z</time></trkpt>
<trkpt lat="30.013345" lon="100.8387">
<time>2015-08-06T03:56:31Z</time></trkpt>
<trkpt lat="30.013355" lon="100.83863">
<time>2015-08-06T03:56:32Z</time></trkpt>
<trkpt lat="30.013385" lon="100.83856">
<time>2015-08-06T03:56:33Z</time></trkpt>
<trkpt lat="30.013405" lon="100.83853">
<time>2015-08-06T03:56:34Z</time></trkpt>
<trkpt lat="30.013445" lon="100.8385">
<time>2015-08-06T03:56:35Z</time></trkpt>
<trkpt lat="30.013504" lon="100.83847">
<time>2015-08-06T03:56:36Z</time></trkpt>
<trkpt lat="30.013744" lon="100.83835">
<time>2015-08-06T03:56:37Z</time></trkpt>
<trkpt lat="30.014214" lon="100.838089">
<time>2015-08-06T03:56:38Z</time></trkpt>
<trkpt lat="30.014474" lon="100.837949">
<time>2015-08-06T03:56:39Z</time></trkpt>
<trkpt lat="30.014663" lon="100.837869">
<time>2015-08-06T03:56:40Z</time></trkpt>
<trkpt lat="30.014793" lon="100.837809">
<time>2015-08-06T03:56:41Z</time></trkpt>
<trkpt lat="30.015013" lon="100.837739">
<time>2015-08-06T03:56:42Z</time></trkpt>
<trkpt lat="30.015203" lon="100.837659">
<time>2015-08-06T03:56:43Z</time></trkpt>
<trkpt lat="30.015343" lon="100.837609">
<time>2015-08-06T03:56:44Z</time></trkpt>
<trkpt lat="30.015463" lon="100.837558">
<time>2015-08-06T03:56:45Z</time></trkpt>
<trkpt lat="30.015543" lon="100.837518">
<time>2015-08-06T03:56:46Z</time></trkpt>
<trkpt lat="30.015603" lon="100.837478">
<time>2015-08-06T03:56:47Z</time></trkpt>
<trkpt lat="30.015673" lon="100.837418">
<time>2015-08-06T03:56:48Z</time></trkpt>
<trkpt lat="30.015742" lon="100.837358">
<time>2015-08-06T03:56:49Z</time></trkpt>
<trkpt lat="30.015852" lon="100.837258">
<time>2015-08-06T03:56:50Z</time></trkpt>
<trkpt lat="30.015952" lon="100.837158">
<time>2015-08-06T03:56:51Z</time></trkpt>
<trkpt lat="30.016072" lon="100.837008">
<time>2015-08-06T03:56:52Z</time></trkpt>
<trkpt lat="30.016211" lon="100.836817">
<time>2015-08-06T03:56:53Z</time></trkpt>
<trkpt lat="30.016351" lon="100.836617">
<time>2015-08-06T03:56:54Z</time></trkpt>
<trkpt lat="30.016441" lon="100.836477">
<time>2015-08-06T03:56:55Z</time></trkpt>
<trkpt lat="30.01658" lon="100.836266">
<time>2015-08-06T03:56:56Z</time></trkpt>
<trkpt lat="30.01683" lon="100.835826">
<time>2015-08-06T03:56:57Z</time></trkpt>
<trkpt lat="30.017129" lon="100.835305">
<time>2015-08-06T03:56:58Z</time></trkpt>
<trkpt lat="30.017288" lon="100.835025">
<time>2015-08-06T03:56:59Z</time></trkpt>
<trkpt lat="30.017458" lon="100.834804">
<time>2015-08-06T03:57:00Z</time></trkpt>
<trkpt lat="30.017637" lon="100.834614">
<time>2015-08-06T03:57:01Z</time></trkpt>
<trkpt lat="30.017797" lon="100.834454">
<time>2015-08-06T03:57:02Z</time></trkpt>
<trkpt lat="30.018077" lon="100.834193">
<time>2015-08-06T03:57:03Z</time></trkpt>
<trkpt lat="30.018256" lon="100.834023">
<time>2015-08-06T03:57:04Z</time></trkpt>
<trkpt lat="30.018326" lon="100.833933">
<time>2015-08-06T03:57:05Z</time></trkpt>
<trkpt lat="30.018356" lon="100.833883">
<time>2015-08-06T03:57:06Z</time></trkpt>
<trkpt lat="30.018376" lon="100.833843">
<time>2015-08-06T03:57:07Z</time></trkpt>
<trkpt lat="30.018386" lon="100.833793">
<time>2015-08-06T03:57:08Z</time></trkpt>
<trkpt lat="30.018396" lon="100.833742">
<time>2015-08-06T03:57:09Z</time></trkpt>
<trkpt lat="30.018396" lon="100.833692">
<time>2015-08-06T03:57:10Z</time></trkpt>
<trkpt lat="30.018386" lon="100.833642">
<time>2015-08-06T03:57:11Z</time></trkpt>
<trkpt lat="30.018365" lon="100.833582">
<time>2015-08-06T03:57:12Z</time></trkpt>
<trkpt lat="30.018335" lon="100.833542">
<time>2015-08-06T03:57:13Z</time></trkpt>
<trkpt lat="30.018295" lon="100.833502">
<time>2015-08-06T03:57:14Z</time></trkpt>
<trkpt lat="30.018245" lon="100.833462">
<time>2015-08-06T03:57:15Z</time></trkpt>
<trkpt lat="30.017905" lon="100.833202">
<time>2015-08-06T03:57:16Z</time></trkpt>
<trkpt lat="30.017744" lon="100.833061">
<time>2015-08-06T03:57:17Z</time></trkpt>
<trkpt lat="30.017434" lon="100.832771">
<time>2015-08-06T03:57:18Z</time></trkpt>
<trkpt lat="30.017224" lon="100.832541">
<time>2015-08-06T03:57:19Z</time></trkpt>
<trkpt lat="30.017133" lon="100.8324">
<time>2015-08-06T03:57:20Z</time></trkpt>
<trkpt lat="30.017073" lon="100.83231">
<time>2015-08-06T03:57:21Z</time></trkpt>
<trkpt lat="30.017063" lon="100.83225">
<time>2015-08-06T03:57:22Z</time></trkpt>
<trkpt lat="30.017073" lon="100.83218">
<time>2015-08-06T03:57:23Z</time></trkpt>
<trkpt lat="30.017093" lon="100.83211">
<time>2015-08-06T03:57:24Z</time></trkpt>
<trkpt lat="30.017123" lon="100.83205">
<time>2015-08-06T03:57:25Z</time></trkpt>
<trkpt lat="30.017143" lon="100.83201">
<time>2015-08-06T03:57:26Z</time></trkpt>
<trkpt lat="30.017192" lon="100.83197">
<time>2015-08-06T03:57:27Z</time></trkpt>
<trkpt lat="30.017222" lon="100.83195">
<time>2015-08-06T03:57:28Z</time></trkpt>
<trkpt lat="30.017272" lon="100.83193">
<time>2015-08-06T03:57:29Z</time></trkpt>
<trkpt lat="30.017342" lon="100.83191">
<time>2015-08-06T03:57:30Z</time></trkpt>
<trkpt lat="30.017442" lon="100.83188">
<time>2015-08-06T03:57:31Z</time></trkpt>
<trkpt lat="30.017602" lon="100.83184">
<time>2015-08-06T03:57:32Z</time></trkpt>
<trkpt lat="30.018102" lon="100.831719">
<time>2015-08-06T03:57:33Z</time></trkpt>
<trkpt lat="30.018332" lon="100.831649">
<time>2015-08-06T03:57:34Z</time></trkpt>
<trkpt lat="30.018682" lon="100.831559">
<time>2015-08-06T03:57:35Z</time></trkpt>
<trkpt lat="30.019012" lon="100.831479">
<time>2015-08-06T03:57:36Z</time></trkpt>
<trkpt lat="30.019311" lon="100.831429">
<time>2015-08-06T03:57:37Z</time></trkpt>
<trkpt lat="30.019521" lon="100.831429">
<time>2015-08-06T03:57:38Z</time></trkpt>
<trkpt lat="30.019671" lon="100.831439">
<time>2015-08-06T03:57:39Z</time></trkpt>
<trkpt lat="30.019821" lon="100.831439">
<time>2015-08-06T03:57:40Z</time></trkpt>
<trkpt lat="30.019982" lon="100.831459">
<time>2015-08-06T03:57:41Z</time></trkpt>
<trkpt lat="30.020142" lon="100.831489">
<time>2015-08-06T03:57:42Z</time></trkpt>
<trkpt lat="30.020262" lon="100.831509">
<time>2015-08-06T03:57:43Z</time></trkpt>
<trkpt lat="30.020902" lon="100.831699">
<time>2015-08-06T03:57:44Z</time></trkpt>
<trkpt lat="30.021322" lon="100.831759">
<time>2015-08-06T03:57:45Z</time></trkpt>
<trkpt lat="30.021432" lon="100.831759">
<time>2015-08-06T03:57:46Z</time></trkpt>
<trkpt lat="30.021492" lon="100.831759">
<time>2015-08-06T03:57:47Z</time></trkpt>
<trkpt lat="30.021552" lon="100.831749">
<time>2015-08-06T03:57:48Z</time></trkpt>
<trkpt lat="30.021602" lon="100.831729">
<time>2015-08-06T03:57:49Z</time></trkpt>
<trkpt lat="30.021652" lon="100.831689">
<time>2015-08-06T03:57:50Z</time></trkpt>
<trkpt lat="30.021702" lon="100.831649">
<time>2015-08-06T03:57:51Z</time></trkpt>
<trkpt lat="30.021742" lon="100.831609">
<time>2015-08-06T03:57:52Z</time></trkpt>
<trkpt lat="30.021782" lon="100.831539">
<time>2015-08-06T03:57:53Z</time></trkpt>
<trkpt lat="30.021822" lon="100.831479">
<time>2015-08-06T03:57:54Z</time></trkpt>
<trkpt lat="30.021921" lon="100.831279">
<time>2015-08-06T03:57:55Z</time></trkpt>
<trkpt lat="30.022111" lon="100.830918">
<time>2015-08-06T03:57:56Z</time></trkpt>
<trkpt lat="30.02232" lon="100.830477">
<time>2015-08-06T03:57:57Z</time></trkpt>
<trkpt lat="30.022499" lon="100.830087">
<time>2015-08-06T03:57:58Z</time></trkpt>
<trkpt lat="30.022618" lon="100.829846">
<time>2015-08-06T03:57:59Z</time></trkpt>
<trkpt lat="30.022698" lon="100.829706">
<time>2015-08-06T03:58:00Z</time></trkpt>
<trkpt lat="30.022748" lon="100.829646">
<time>2015-08-06T03:58:01Z</time></trkpt>
<trkpt lat="30.022808" lon="100.829576">
<time>2015-08-06T03:58:02Z</time></trkpt>
<trkpt lat="30.022868" lon="100.829506">
<time>2015-08-06T03:58:03Z</time></trkpt>
<trkpt lat="30.022928" lon="100.829436">
<time>2015-08-06T03:58:04Z</time></trkpt>
<trkpt lat="30.023087" lon="100.829305">
<time>2015-08-06T03:58:05Z</time></trkpt>
<trkpt lat="30.023177" lon="100.829235">
<time>2015-08-06T03:58:06Z</time></trkpt>
<trkpt lat="30.023237" lon="100.829175">
<time>2015-08-06T03:58:07Z</time></trkpt>
<trkpt lat="30.023277" lon="100.829115">
<time>2015-08-06T03:58:08Z</time></trkpt>
<trkpt lat="30.023317" lon="100.829045">
<time>2015-08-06T03:58:09Z</time></trkpt>
<trkpt lat="30.023347" lon="100.828975">
<time>2015-08-06T03:58:10Z</time></trkpt>
<trkpt lat="30.023367" lon="100.828915">
<time>2015-08-06T03:58:11Z</time></trkpt>
<trkpt lat="30.023377" lon="100.828855">
<time>2015-08-06T03:58:12Z</time></trkpt>
<trkpt lat="30.023376" lon="100.828764">
<time>2015-08-06T03:58:13Z</time></trkpt>
<trkpt lat="30.023356" lon="100.828694">
<time>2015-08-06T03:58:14Z</time></trkpt>
<trkpt lat="30.023336" lon="100.828614">
<time>2015-08-06T03:58:15Z</time></trkpt>
<trkpt lat="30.023286" lon="100.828504">
<time>2015-08-06T03:58:16Z</time></trkpt>
<trkpt lat="30.023115" lon="100.828224">
<time>2015-08-06T03:58:17Z</time></trkpt>
<trkpt lat="30.022815" lon="100.827753">
<time>2015-08-06T03:58:18Z</time></trkpt>
<trkpt lat="30.022423" lon="100.827102">
<time>2015-08-06T03:58:19Z</time></trkpt>
<trkpt lat="30.021691" lon="100.82567">
<time>2015-08-06T03:58:20Z</time></trkpt>
<trkpt lat="30.02151" lon="100.825289">
<time>2015-08-06T03:58:21Z</time></trkpt>
<trkpt lat="30.02148" lon="100.825199">
<time>2015-08-06T03:58:22Z</time></trkpt>
<trkpt lat="30.02148" lon="100.825119">
<time>2015-08-06T03:58:23Z</time></trkpt>
<trkpt lat="30.021479" lon="100.825049">
<time>2015-08-06T03:58:24Z</time></trkpt>
<trkpt lat="30.021509" lon="100.824979">
<time>2015-08-06T03:58:25Z</time></trkpt>
<trkpt lat="30.021549" lon="100.824908">
<time>2015-08-06T03:58:26Z</time></trkpt>
<trkpt lat="30.021599" lon="100.824858">
<time>2015-08-06T03:58:27Z</time></trkpt>
<trkpt lat="30.021629" lon="100.824828">
<time>2015-08-06T03:58:28Z</time></trkpt>
<trkpt lat="30.021709" lon="100.824778">
<time>2015-08-06T03:58:29Z</time></trkpt>
<trkpt lat="30.021789" lon="100.824738">
<time>2015-08-06T03:58:30Z</time></trkpt>
<trkpt lat="30.022189" lon="100.824568">
<time>2015-08-06T03:58:31Z</time></trkpt>
<trkpt lat="30.022348" lon="100.824508">
<time>2015-08-06T03:58:32Z</time></trkpt>
<trkpt lat="30.022468" lon="100.824468">
<time>2015-08-06T03:58:33Z</time></trkpt>
<trkpt lat="30.022538" lon="100.824448">
<time>2015-08-06T03:58:34Z</time></trkpt>
<trkpt lat="30.022618" lon="100.824418">
<time>2015-08-06T03:58:35Z</time></trkpt>
<trkpt lat="30.022708" lon="100.824408">
<time>2015-08-06T03:58:36Z</time></trkpt>
<trkpt lat="30.022958" lon="100.824378">
<time>2015-08-06T03:58:37Z</time></trkpt>
<trkpt lat="30.023688" lon="100.824337">
<time>2015-08-06T03:58:38Z</time></trkpt>
<trkpt lat="30.024388" lon="100.824257">
<time>2015-08-06T03:58:39Z</time></trkpt>
<trkpt lat="30.024748" lon="100.824197">
<time>2015-08-06T03:58:40Z</time></trkpt>
<trkpt lat="30.025868" lon="100.823997">
<time>2015-08-06T03:58:41Z</time></trkpt>
<trkpt lat="30.026287" lon="100.823907">
<time>2015-08-06T03:58:42Z</time></trkpt>
<trkpt lat="30.026447" lon="100.823857">
<time>2015-08-06T03:58:43Z</time></trkpt>
<trkpt lat="30.026557" lon="100.823797">
<time>2015-08-06T03:58:44Z</time></trkpt>
<trkpt lat="30.026657" lon="100.823746">
<time>2015-08-06T03:58:45Z</time></trkpt>
<trkpt lat="30.026717" lon="100.823706">
<time>2015-08-06T03:58:46Z</time></trkpt>
<trkpt lat="30.026777" lon="100.823656">
<time>2015-08-06T03:58:47Z</time></trkpt>
<trkpt lat="30.026837" lon="100.823606">
<time>2015-08-06T03:58:48Z</time></trkpt>
<trkpt lat="30.026897" lon="100.823546">
<time>2015-08-06T03:58:49Z</time></trkpt>
<trkpt lat="30.026937" lon="100.823486">
<time>2015-08-06T03:58:50Z</time></trkpt>
<trkpt lat="30.026976" lon="100.823416">
<time>2015-08-06T03:58:51Z</time></trkpt>
<trkpt lat="30.027016" lon="100.823326">
<time>2015-08-06T03:58:52Z</time></trkpt>
<trkpt lat="30.027036" lon="100.823216">
<time>2015-08-06T03:58:53Z</time></trkpt>
<trkpt lat="30.027056" lon="100.823115">
<time>2015-08-06T03:58:54Z</time></trkpt>
<trkpt lat="30.027056" lon="100.823025">
<time>2015-08-06T03:58:55Z</time></trkpt>
<trkpt lat="30.027055" lon="100.822905">
<time>2015-08-06T03:58:56Z</time></trkpt>
<trkpt lat="30.027045" lon="100.822755">
<time>2015-08-06T03:58:57Z</time></trkpt>
<trkpt lat="30.026893" lon="100.821593">
<time>2015-08-06T03:58:58Z</time></trkpt>
<trkpt lat="30.026852" lon="100.821122">
<time>2015-08-06T03:58:59Z</time></trkpt>
<trkpt lat="30.026852" lon="100.821022">
<time>2015-08-06T03:59:00Z</time></trkpt>
<trkpt lat="30.026852" lon="100.820952">
<time>2015-08-06T03:59:01Z</time></trkpt>
<trkpt lat="30.026872" lon="100.820912">
<time>2015-08-06T03:59:02Z</time></trkpt>
<trkpt lat="30.026892" lon="100.820872">
<time>2015-08-06T03:59:03Z</time></trkpt>
<trkpt lat="30.026942" lon="100.820832">
<time>2015-08-06T03:59:04Z</time></trkpt>
<trkpt lat="30.026992" lon="100.820802">
<time>2015-08-06T03:59:05Z</time></trkpt>
<trkpt lat="30.027131" lon="100.820742">
<time>2015-08-06T03:59:06Z</time></trkpt>
<trkpt lat="30.027481" lon="100.820601">
<time>2015-08-06T03:59:07Z</time></trkpt>
<trkpt lat="30.027741" lon="100.820511">
<time>2015-08-06T03:59:08Z</time></trkpt>
<trkpt lat="30.027981" lon="100.820431">
<time>2015-08-06T03:59:09Z</time></trkpt>
<trkpt lat="30.028171" lon="100.820391">
<time>2015-08-06T03:59:10Z</time></trkpt>
<trkpt lat="30.028261" lon="100.820381">
<time>2015-08-06T03:59:11Z</time></trkpt>
<trkpt lat="30.028601" lon="100.820351">
<time>2015-08-06T03:59:12Z</time></trkpt>
<trkpt lat="30.029381" lon="100.820301">
<time>2015-08-06T03:59:13Z</time></trkpt>
<trkpt lat="30.030001" lon="100.820251">
<time>2015-08-06T03:59:14Z</time></trkpt>
<trkpt lat="30.03017" lon="100.820221">
<time>2015-08-06T03:59:15Z</time></trkpt>
<trkpt lat="30.03025" lon="100.820201">
<time>2015-08-06T03:59:16Z</time></trkpt>
<trkpt lat="30.03031" lon="100.820171">
<time>2015-08-06T03:59:17Z</time></trkpt>
<trkpt lat="30.03036" lon="100.820141">
<time>2015-08-06T03:59:18Z</time></trkpt>
<trkpt lat="30.03041" lon="100.820101">
<time>2015-08-06T03:59:19Z</time></trkpt>
<trkpt lat="30.03044" lon="100.82005">
<time>2015-08-06T03:59:20Z</time></trkpt>
<trkpt lat="30.03046" lon="100.82002">
<time>2015-08-06T03:59:21Z</time></trkpt>
<trkpt lat="30.03048" lon="100.81994">
<time>2015-08-06T03:59:22Z</time></trkpt>
<trkpt lat="30.0305" lon="100.81986">
<time>2015-08-06T03:59:23Z</time></trkpt>
<trkpt lat="30.03052" lon="100.8197">
<time>2015-08-06T03:59:24Z</time></trkpt>
<trkpt lat="30.030549" lon="100.819179">
<time>2015-08-06T03:59:25Z</time></trkpt>
<trkpt lat="30.030568" lon="100.818869">
<time>2015-08-06T03:59:26Z</time></trkpt>
<trkpt lat="30.030608" lon="100.818668">
<time>2015-08-06T03:59:27Z</time></trkpt>
<trkpt lat="30.030627" lon="100.818558">
<time>2015-08-06T03:59:28Z</time></trkpt>
<trkpt lat="30.030667" lon="100.818448">
<time>2015-08-06T03:59:29Z</time></trkpt>
<trkpt lat="30.030697" lon="100.818368">
<time>2015-08-06T03:59:30Z</time></trkpt>
<trkpt lat="30.030747" lon="100.818298">
<time>2015-08-06T03:59:31Z</time></trkpt>
<trkpt lat="30.030787" lon="100.818258">
<time>2015-08-06T03:59:32Z</time></trkpt>
<trkpt lat="30.030857" lon="100.818198">
<time>2015-08-06T03:59:33Z</time></trkpt>
<trkpt lat="30.030917" lon="100.818158">
<time>2015-08-06T03:59:34Z</time></trkpt>
<trkpt lat="30.031166" lon="100.817987">
<time>2015-08-06T03:59:35Z</time></trkpt>
<trkpt lat="30.031406" lon="100.817827">
<time>2015-08-06T03:59:36Z</time></trkpt>
<trkpt lat="30.031496" lon="100.817767">
<time>2015-08-06T03:59:37Z</time></trkpt>
<trkpt lat="30.031566" lon="100.817697">
<time>2015-08-06T03:59:38Z</time></trkpt>
<trkpt lat="30.031606" lon="100.817637">
<time>2015-08-06T03:59:39Z</time></trkpt>
<trkpt lat="30.031646" lon="100.817557">
<time>2015-08-06T03:59:40Z</time></trkpt>
<trkpt lat="30.031665" lon="100.817476">
<time>2015-08-06T03:59:41Z</time></trkpt>
<trkpt lat="30.031685" lon="100.817396">
<time>2015-08-06T03:59:42Z</time></trkpt>
<trkpt lat="30.031705" lon="100.817276">
<time>2015-08-06T03:59:43Z</time></trkpt>
<trkpt lat="30.031705" lon="100.817136">
<time>2015-08-06T03:59:44Z</time></trkpt>
<trkpt lat="30.031724" lon="100.816825">
<time>2015-08-06T03:59:45Z</time></trkpt>
<trkpt lat="30.031754" lon="100.816625">
<time>2015-08-06T03:59:46Z</time></trkpt>
<trkpt lat="30.031784" lon="100.816455">
<time>2015-08-06T03:59:47Z</time></trkpt>
<trkpt lat="30.031823" lon="100.816315">
<time>2015-08-06T03:59:48Z</time></trkpt>
<trkpt lat="30.031863" lon="100.816204">
<time>2015-08-06T03:59:49Z</time></trkpt>
<trkpt lat="30.031913" lon="100.816094">
<time>2015-08-06T03:59:50Z</time></trkpt>
<trkpt lat="30.031973" lon="100.815974">
<time>2015-08-06T03:59:51Z</time></trkpt>
<trkpt lat="30.032042" lon="100.815874">
<time>2015-08-06T03:59:52Z</time></trkpt>
<trkpt lat="30.032112" lon="100.815774">
<time>2015-08-06T03:59:53Z</time></trkpt>
<trkpt lat="30.032182" lon="100.815694">
<time>2015-08-06T03:59:54Z</time></trkpt>
<trkpt lat="30.032262" lon="100.815583">
<time>2015-08-06T03:59:55Z</time></trkpt>
<trkpt lat="30.032372" lon="100.815473">
<time>2015-08-06T03:59:56Z</time></trkpt>
<trkpt lat="30.032511" lon="100.815333">
<time>2015-08-06T03:59:57Z</time></trkpt>
<trkpt lat="30.032801" lon="100.815113">
<time>2015-08-06T03:59:58Z</time></trkpt>
<trkpt lat="30.032951" lon="100.814973">
<time>2015-08-06T03:59:59Z</time></trkpt>
<trkpt lat="30.033011" lon="100.814912">
<time>2015-08-06T04:00:00Z</time></trkpt>
<trkpt lat="30.033041" lon="100.814862">
<time>2015-08-06T04:00:01Z</time></trkpt>
<trkpt lat="30.03307" lon="100.814812">
<time>2015-08-06T04:00:02Z</time></trkpt>
<trkpt lat="30.0331" lon="100.814742">
<time>2015-08-06T04:00:03Z</time></trkpt>
<trkpt lat="30.0331" lon="100.814682">
<time>2015-08-06T04:00:04Z</time></trkpt>
<trkpt lat="30.0331" lon="100.814592">
<time>2015-08-06T04:00:05Z</time></trkpt>
<trkpt lat="30.03308" lon="100.814512">
<time>2015-08-06T04:00:06Z</time></trkpt>
<trkpt lat="30.03304" lon="100.814422">
<time>2015-08-06T04:00:07Z</time></trkpt>
<trkpt lat="30.03297" lon="100.814332">
<time>2015-08-06T04:00:08Z</time></trkpt>
<trkpt lat="30.032869" lon="100.814211">
<time>2015-08-06T04:00:09Z</time></trkpt>
<trkpt lat="30.032709" lon="100.814071">
<time>2015-08-06T04:00:10Z</time></trkpt>
<trkpt lat="30.032469" lon="100.813901">
<time>2015-08-06T04:00:11Z</time></trkpt>
<trkpt lat="30.032349" lon="100.813831">
<time>2015-08-06T04:00:12Z</time></trkpt>
<trkpt lat="30.032269" lon="100.813791">
<time>2015-08-06T04:00:13Z</time></trkpt>
<trkpt lat="30.032189" lon="100.813761">
<time>2015-08-06T04:00:14Z</time></trkpt>
<trkpt lat="30.032089" lon="100.813731">
<time>2015-08-06T04:00:15Z</time></trkpt>
<trkpt lat="30.031348" lon="100.81361">
<time>2015-08-06T04:00:16Z</time></trkpt>
<trkpt lat="30.030618" lon="100.81349">
<time>2015-08-06T04:00:17Z</time></trkpt>
<trkpt lat="30.030418" lon="100.81347">
<time>2015-08-06T04:00:18Z</time></trkpt>
<trkpt lat="30.030278" lon="100.81347">
<time>2015-08-06T04:00:19Z</time></trkpt>
<trkpt lat="30.030138" lon="100.81349">
<time>2015-08-06T04:00:20Z</time></trkpt>
<trkpt lat="30.029988" lon="100.81354">
<time>2015-08-06T04:00:21Z</time></trkpt>
<trkpt lat="30.029868" lon="100.813591">
<time>2015-08-06T04:00:22Z</time></trkpt>
<trkpt lat="30.029569" lon="100.813791">
<time>2015-08-06T04:00:23Z</time></trkpt>
<trkpt lat="30.029309" lon="100.813961">
<time>2015-08-06T04:00:24Z</time></trkpt>
<trkpt lat="30.029099" lon="100.814071">
<time>2015-08-06T04:00:25Z</time></trkpt>
<trkpt lat="30.028929" lon="100.814131">
<time>2015-08-06T04:00:26Z</time></trkpt>
<trkpt lat="30.028619" lon="100.814201">
<time>2015-08-06T04:00:27Z</time></trkpt>
<trkpt lat="30.028429" lon="100.814262">
<time>2015-08-06T04:00:28Z</time></trkpt>
<trkpt lat="30.02826" lon="100.814322">
<time>2015-08-06T04:00:29Z</time></trkpt>
<trkpt lat="30.02799" lon="100.814432">
<time>2015-08-06T04:00:30Z</time></trkpt>
<trkpt lat="30.02748" lon="100.814722">
<time>2015-08-06T04:00:31Z</time></trkpt>
<trkpt lat="30.026961" lon="100.814983">
<time>2015-08-06T04:00:32Z</time></trkpt>
<trkpt lat="30.026611" lon="100.815123">
<time>2015-08-06T04:00:33Z</time></trkpt>
<trkpt lat="30.026531" lon="100.815163">
<time>2015-08-06T04:00:34Z</time></trkpt>
<trkpt lat="30.026381" lon="100.815203">
<time>2015-08-06T04:00:35Z</time></trkpt>
<trkpt lat="30.026271" lon="100.815213">
<time>2015-08-06T04:00:36Z</time></trkpt>
<trkpt lat="30.026171" lon="100.815203">
<time>2015-08-06T04:00:37Z</time></trkpt>
<trkpt lat="30.026081" lon="100.815183">
<time>2015-08-06T04:00:38Z</time></trkpt>
<trkpt lat="30.026031" lon="100.815163">
<time>2015-08-06T04:00:39Z</time></trkpt>
<trkpt lat="30.025971" lon="100.815103">
<time>2015-08-06T04:00:40Z</time></trkpt>
<trkpt lat="30.025921" lon="100.815043">
<time>2015-08-06T04:00:41Z</time></trkpt>
<trkpt lat="30.025881" lon="100.814963">
<time>2015-08-06T04:00:42Z</time></trkpt>
<trkpt lat="30.02583" lon="100.814833">
<time>2015-08-06T04:00:43Z</time></trkpt>
<trkpt lat="30.02578" lon="100.814572">
<time>2015-08-06T04:00:44Z</time></trkpt>
<trkpt lat="30.025709" lon="100.814161">
<time>2015-08-06T04:00:45Z</time></trkpt>
<trkpt lat="30.025589" lon="100.813761">
<time>2015-08-06T04:00:46Z</time></trkpt>
<trkpt lat="30.025518" lon="100.813591">
<time>2015-08-06T04:00:47Z</time></trkpt>
<trkpt lat="30.025468" lon="100.8135">
<time>2015-08-06T04:00:48Z</time></trkpt>
<trkpt lat="30.025398" lon="100.8134">
<time>2015-08-06T04:00:49Z</time></trkpt>
<trkpt lat="30.025308" lon="100.81333">
<time>2015-08-06T04:00:50Z</time></trkpt>
<trkpt lat="30.025178" lon="100.81326">
<time>2015-08-06T04:00:51Z</time></trkpt>
<trkpt lat="30.025118" lon="100.81324">
<time>2015-08-06T04:00:52Z</time></trkpt>
<trkpt lat="30.024998" lon="100.81322">
<time>2015-08-06T04:00:53Z</time></trkpt>
<trkpt lat="30.024858" lon="100.81322">
<time>2015-08-06T04:00:54Z</time></trkpt>
<trkpt lat="30.024728" lon="100.81324">
<time>2015-08-06T04:00:55Z</time></trkpt>
<trkpt lat="30.024498" lon="100.81326">
<time>2015-08-06T04:00:56Z</time></trkpt>
<trkpt lat="30.024418" lon="100.81325">
<time>2015-08-06T04:00:57Z</time></trkpt>
<trkpt lat="30.024308" lon="100.81323">
<time>2015-08-06T04:00:58Z</time></trkpt>
<trkpt lat="30.024197" lon="100.81319">
<time>2015-08-06T04:00:59Z</time></trkpt>
<trkpt lat="30.024117" lon="100.81313">
<time>2015-08-06T04:01:00Z</time></trkpt>
<trkpt lat="30.024007" lon="100.81303">
<time>2015-08-06T04:01:01Z</time></trkpt>
<trkpt lat="30.023877" lon="100.81286">
<time>2015-08-06T04:01:02Z</time></trkpt>
<trkpt lat="30.023716" lon="100.812659">
<time>2015-08-06T04:01:03Z</time></trkpt>
<trkpt lat="30.023596" lon="100.812499">
<time>2015-08-06T04:01:04Z</time></trkpt>
<trkpt lat="30.023496" lon="100.812369">
<time>2015-08-06T04:01:05Z</time></trkpt>
<trkpt lat="30.023406" lon="100.812289">
<time>2015-08-06T04:01:06Z</time></trkpt>
<trkpt lat="30.023326" lon="100.812229">
<time>2015-08-06T04:01:07Z</time></trkpt>
<trkpt lat="30.023186" lon="100.812179">
<time>2015-08-06T04:01:08Z</time></trkpt>
<trkpt lat="30.022996" lon="100.812108">
<time>2015-08-06T04:01:09Z</time></trkpt>
<trkpt lat="30.022695" lon="100.812068">
<time>2015-08-06T04:01:10Z</time></trkpt>
<trkpt lat="30.022315" lon="100.812038">
<time>2015-08-06T04:01:11Z</time></trkpt>
<trkpt lat="30.021965" lon="100.812038">
<time>2015-08-06T04:01:12Z</time></trkpt>
<trkpt lat="30.021805" lon="100.812058">
<time>2015-08-06T04:01:13Z</time></trkpt>
<trkpt lat="30.021545" lon="100.812078">
<time>2015-08-06T04:01:14Z</time></trkpt>
<trkpt lat="30.021276" lon="100.812129">
<time>2015-08-06T04:01:15Z</time></trkpt>
<trkpt lat="30.021046" lon="100.812169">
<time>2015-08-06T04:01:16Z</time></trkpt>
<trkpt lat="30.020776" lon="100.812189">
<time>2015-08-06T04:01:17Z</time></trkpt>
<trkpt lat="30.020326" lon="100.812179">
<time>2015-08-06T04:01:18Z</time></trkpt>
<trkpt lat="30.019305" lon="100.812109">
<time>2015-08-06T04:01:19Z</time></trkpt>
<trkpt lat="30.018905" lon="100.812049">
<time>2015-08-06T04:01:20Z</time></trkpt>
<trkpt lat="30.018785" lon="100.812018">
<time>2015-08-06T04:01:21Z</time></trkpt>
<trkpt lat="30.018715" lon="100.811978">
<time>2015-08-06T04:01:22Z</time></trkpt>
<trkpt lat="30.018675" lon="100.811938">
<time>2015-08-06T04:01:23Z</time></trkpt>
<trkpt lat="30.018625" lon="100.811868">
<time>2015-08-06T04:01:24Z</time></trkpt>
<trkpt lat="30.018585" lon="100.811778">
<time>2015-08-06T04:01:25Z</time></trkpt>
<trkpt lat="30.018565" lon="100.811668">
<time>2015-08-06T04:01:26Z</time></trkpt>
<trkpt lat="30.018574" lon="100.811468">
<time>2015-08-06T04:01:27Z</time></trkpt>
<trkpt lat="30.018634" lon="100.811227">
<time>2015-08-06T04:01:28Z</time></trkpt>
<trkpt lat="30.018684" lon="100.811077">
<time>2015-08-06T04:01:29Z</time></trkpt>
<trkpt lat="30.018733" lon="100.810967">
<time>2015-08-06T04:01:30Z</time></trkpt>
<trkpt lat="30.018793" lon="100.810867">
<time>2015-08-06T04:01:31Z</time></trkpt>
<trkpt lat="30.018873" lon="100.810777">
<time>2015-08-06T04:01:32Z</time></trkpt>
<trkpt lat="30.019033" lon="100.810616">
<time>2015-08-06T04:01:33Z</time></trkpt>
<trkpt lat="30.019302" lon="100.810346">
<time>2015-08-06T04:01:34Z</time></trkpt>
<trkpt lat="30.019512" lon="100.810146">
<time>2015-08-06T04:01:35Z</time></trkpt>
<trkpt lat="30.019742" lon="100.809925">
<time>2015-08-06T04:01:36Z</time></trkpt>
<trkpt lat="30.020031" lon="100.809585">
<time>2015-08-06T04:01:37Z</time></trkpt>
<trkpt lat="30.02057" lon="100.809004">
<time>2015-08-06T04:01:38Z</time></trkpt>
<trkpt lat="30.020839" lon="100.808714">
<time>2015-08-06T04:01:39Z</time></trkpt>
<trkpt lat="30.020929" lon="100.808593">
<time>2015-08-06T04:01:40Z</time></trkpt>
<trkpt lat="30.021009" lon="100.808463">
<time>2015-08-06T04:01:41Z</time></trkpt>
<trkpt lat="30.021069" lon="100.808323">
<time>2015-08-06T04:01:42Z</time></trkpt>
<trkpt lat="30.021108" lon="100.808173">
<time>2015-08-06T04:01:43Z</time></trkpt>
<trkpt lat="30.021148" lon="100.808033">
<time>2015-08-06T04:01:44Z</time></trkpt>
<trkpt lat="30.021168" lon="100.807852">
<time>2015-08-06T04:01:45Z</time></trkpt>
<trkpt lat="30.021208" lon="100.807652">
<time>2015-08-06T04:01:46Z</time></trkpt>
<trkpt lat="30.021247" lon="100.807512">
<time>2015-08-06T04:01:47Z</time></trkpt>
<trkpt lat="30.021307" lon="100.807402">
<time>2015-08-06T04:01:48Z</time></trkpt>
<trkpt lat="30.021377" lon="100.807301">
<time>2015-08-06T04:01:49Z</time></trkpt>
<trkpt lat="30.021437" lon="100.807241">
<time>2015-08-06T04:01:50Z</time></trkpt>
<trkpt lat="30.021527" lon="100.807151">
<time>2015-08-06T04:01:51Z</time></trkpt>
<trkpt lat="30.021647" lon="100.807081">
<time>2015-08-06T04:01:52Z</time></trkpt>
<trkpt lat="30.021796" lon="100.806991">
<time>2015-08-06T04:01:53Z</time></trkpt>
<trkpt lat="30.021896" lon="100.806941">
<time>2015-08-06T04:01:54Z</time></trkpt>
<trkpt lat="30.021986" lon="100.806911">
<time>2015-08-06T04:01:55Z</time></trkpt>
<trkpt lat="30.022066" lon="100.806901">
<time>2015-08-06T04:01:56Z</time></trkpt>
<trkpt lat="30.022146" lon="100.806891">
<time>2015-08-06T04:01:57Z</time></trkpt>
<trkpt lat="30.022226" lon="100.806881">
<time>2015-08-06T04:01:58Z</time></trkpt>
<trkpt lat="30.022356" lon="100.806891">
<time>2015-08-06T04:01:59Z</time></trkpt>
<trkpt lat="30.022736" lon="100.806911">
<time>2015-08-06T04:02:00Z</time></trkpt>
<trkpt lat="30.023076" lon="100.806951">
<time>2015-08-06T04:02:01Z</time></trkpt>
<trkpt lat="30.023316" lon="100.806951">
<time>2015-08-06T04:02:02Z</time></trkpt>
<trkpt lat="30.023476" lon="100.806931">
<time>2015-08-06T04:02:03Z</time></trkpt>
<trkpt lat="30.023636" lon="100.806911">
<time>2015-08-06T04:02:04Z</time></trkpt>
<trkpt lat="30.023956" lon="100.806821">
<time>2015-08-06T04:02:05Z</time></trkpt>
<trkpt lat="30.024196" lon="100.806741">
<time>2015-08-06T04:02:06Z</time></trkpt>
<trkpt lat="30.024226" lon="100.806731">
<time>2015-08-06T04:02:07Z</time></trkpt>
<trkpt lat="30.024536" lon="100.8066">
<time>2015-08-06T04:02:08Z</time></trkpt>
<trkpt lat="30.024706" lon="100.80651">
<time>2015-08-06T04:02:09Z</time></trkpt>
<trkpt lat="30.024855" lon="100.80643">
<time>2015-08-06T04:02:10Z</time></trkpt>
<trkpt lat="30.024975" lon="100.80635">
<time>2015-08-06T04:02:11Z</time></trkpt>
<trkpt lat="30.025225" lon="100.80617">
<time>2015-08-06T04:02:12Z</time></trkpt>
<trkpt lat="30.025565" lon="100.805919">
<time>2015-08-06T04:02:13Z</time></trkpt>
<trkpt lat="30.026124" lon="100.805499">
<time>2015-08-06T04:02:14Z</time></trkpt>
<trkpt lat="30.026314" lon="100.805349">
<time>2015-08-06T04:02:15Z</time></trkpt>
<trkpt lat="30.026414" lon="100.805258">
<time>2015-08-06T04:02:16Z</time></trkpt>
<trkpt lat="30.026513" lon="100.805148">
<time>2015-08-06T04:02:17Z</time></trkpt>
<trkpt lat="30.026583" lon="100.805038">
<time>2015-08-06T04:02:18Z</time></trkpt>
<trkpt lat="30.026613" lon="100.804968">
<time>2015-08-06T04:02:19Z</time></trkpt>
<trkpt lat="30.026633" lon="100.804888">
<time>2015-08-06T04:02:20Z</time></trkpt>
<trkpt lat="30.026653" lon="100.804798">
<time>2015-08-06T04:02:21Z</time></trkpt>
<trkpt lat="30.026662" lon="100.804668">
<time>2015-08-06T04:02:22Z</time></trkpt>
<trkpt lat="30.026662" lon="100.804427">
<time>2015-08-06T04:02:23Z</time></trkpt>
<trkpt lat="30.026652" lon="100.804087">
<time>2015-08-06T04:02:24Z</time></trkpt>
<trkpt lat="30.026661" lon="100.803947">
<time>2015-08-06T04:02:25Z</time></trkpt>
<trkpt lat="30.026701" lon="100.803816">
<time>2015-08-06T04:02:26Z</time></trkpt>
<trkpt lat="30.026741" lon="100.803736">
<time>2015-08-06T04:02:27Z</time></trkpt>
<trkpt lat="30.026781" lon="100.803646">
<time>2015-08-06T04:02:28Z</time></trkpt>
<trkpt lat="30.026851" lon="100.803536">
<time>2015-08-06T04:02:29Z</time></trkpt>
<trkpt lat="30.02695" lon="100.803426">
<time>2015-08-06T04:02:30Z</time></trkpt>
<trkpt lat="30.0272" lon="100.803115">
<time>2015-08-06T04:02:31Z</time></trkpt>
<trkpt lat="30.02734" lon="100.802955">
<time>2015-08-06T04:02:32Z</time></trkpt>
<trkpt lat="30.027529" lon="100.802755">
<time>2015-08-06T04:02:33Z</time></trkpt>
<trkpt lat="30.027809" lon="100.802495">
<time>2015-08-06T04:02:34Z</time></trkpt>
<trkpt lat="30.027999" lon="100.802334">
<time>2015-08-06T04:02:35Z</time></trkpt>
<trkpt lat="30.028148" lon="100.802214">
<time>2015-08-06T04:02:36Z</time></trkpt>
<trkpt lat="30.028328" lon="100.802074">
<time>2015-08-06T04:02:37Z</time></trkpt>
<trkpt lat="30.028448" lon="100.801954">
<time>2015-08-06T04:02:38Z</time></trkpt>
<trkpt lat="30.028508" lon="100.801884">
<time>2015-08-06T04:02:39Z</time></trkpt>
<trkpt lat="30.028538" lon="100.801824">
<time>2015-08-06T04:02:40Z</time></trkpt>
<trkpt lat="30.028558" lon="100.801764">
<time>2015-08-06T04:02:41Z</time></trkpt>
<trkpt lat="30.028558" lon="100.801694">
<time>2015-08-06T04:02:42Z</time></trkpt>
<trkpt lat="30.028547" lon="100.801603">
<time>2015-08-06T04:02:43Z</time></trkpt>
<trkpt lat="30.028517" lon="100.801493">
<time>2015-08-06T04:02:44Z</time></trkpt>
<trkpt lat="30.028467" lon="100.801393">
<time>2015-08-06T04:02:45Z</time></trkpt>
<trkpt lat="30.028397" lon="100.801283">
<time>2015-08-06T04:02:46Z</time></trkpt>
<trkpt lat="30.028327" lon="100.801203">
<time>2015-08-06T04:02:47Z</time></trkpt>
<trkpt lat="30.028247" lon="100.801143">
<time>2015-08-06T04:02:48Z</time></trkpt>
<trkpt lat="30.028137" lon="100.801063">
<time>2015-08-06T04:02:49Z</time></trkpt>
<trkpt lat="30.027756" lon="100.800872">
<time>2015-08-06T04:02:50Z</time></trkpt>
<trkpt lat="30.027466" lon="100.800732">
<time>2015-08-06T04:02:51Z</time></trkpt>
<trkpt lat="30.027186" lon="100.800602">
<time>2015-08-06T04:02:52Z</time></trkpt>
<trkpt lat="30.027026" lon="100.800552">
<time>2015-08-06T04:02:53Z</time></trkpt>
<trkpt lat="30.026856" lon="100.800502">
<time>2015-08-06T04:02:54Z</time></trkpt>
<trkpt lat="30.026596" lon="100.800452">
<time>2015-08-06T04:02:55Z</time></trkpt>
<trkpt lat="30.026425" lon="100.800432">
<time>2015-08-06T04:02:56Z</time></trkpt>
<trkpt lat="30.026105" lon="100.800422">
<time>2015-08-06T04:02:57Z</time></trkpt>
<trkpt lat="30.025685" lon="100.800432">
<time>2015-08-06T04:02:58Z</time></trkpt>
<trkpt lat="30.025485" lon="100.800432">
<time>2015-08-06T04:02:59Z</time></trkpt>
<trkpt lat="30.025365" lon="100.800412">
<time>2015-08-06T04:03:00Z</time></trkpt>
<trkpt lat="30.025305" lon="100.800392">
<time>2015-08-06T04:03:01Z</time></trkpt>
<trkpt lat="30.025225" lon="100.800352">
<time>2015-08-06T04:03:02Z</time></trkpt>
<trkpt lat="30.025155" lon="100.800312">
<time>2015-08-06T04:03:03Z</time></trkpt>
<trkpt lat="30.025075" lon="100.800252">
<time>2015-08-06T04:03:04Z</time></trkpt>
<trkpt lat="30.024995" lon="100.800152">
<time>2015-08-06T04:03:05Z</time></trkpt>
<trkpt lat="30.024935" lon="100.800051">
<time>2015-08-06T04:03:06Z</time></trkpt>
<trkpt lat="30.024885" lon="100.799921">
<time>2015-08-06T04:03:07Z</time></trkpt>
<trkpt lat="30.024844" lon="100.799801">
<time>2015-08-06T04:03:08Z</time></trkpt>
<trkpt lat="30.024774" lon="100.799441">
<time>2015-08-06T04:03:09Z</time></trkpt>
<trkpt lat="30.024734" lon="100.799301">
<time>2015-08-06T04:03:10Z</time></trkpt>
<trkpt lat="30.024683" lon="100.79917">
<time>2015-08-06T04:03:11Z</time></trkpt>
<trkpt lat="30.024623" lon="100.79905">
<time>2015-08-06T04:03:12Z</time></trkpt>
<trkpt lat="30.024322" lon="100.79855">
<time>2015-08-06T04:03:13Z</time></trkpt>
<trkpt lat="30.024142" lon="100.798269">
<time>2015-08-06T04:03:14Z</time></trkpt>
<trkpt lat="30.024032" lon="100.798109">
<time>2015-08-06T04:03:15Z</time></trkpt>
<trkpt lat="30.023911" lon="100.797959">
<time>2015-08-06T04:03:16Z</time></trkpt>
<trkpt lat="30.023811" lon="100.797859">
<time>2015-08-06T04:03:17Z</time></trkpt>
<trkpt lat="30.023681" lon="100.797749">
<time>2015-08-06T04:03:18Z</time></trkpt>
<trkpt lat="30.023441" lon="100.797598">
<time>2015-08-06T04:03:19Z</time></trkpt>
<trkpt lat="30.023261" lon="100.797488">
<time>2015-08-06T04:03:20Z</time></trkpt>
<trkpt lat="30.023011" lon="100.797368">
<time>2015-08-06T04:03:21Z</time></trkpt>
<trkpt lat="30.02243" lon="100.797128">
<time>2015-08-06T04:03:22Z</time></trkpt>
<trkpt lat="30.02222" lon="100.797038">
<time>2015-08-06T04:03:23Z</time></trkpt>
<trkpt lat="30.0221" lon="100.796958">
<time>2015-08-06T04:03:24Z</time></trkpt>
<trkpt lat="30.02196" lon="100.796868">
<time>2015-08-06T04:03:25Z</time></trkpt>
<trkpt lat="30.021519" lon="100.796507">
<time>2015-08-06T04:03:26Z</time></trkpt>
<trkpt lat="30.020838" lon="100.795916">
<time>2015-08-06T04:03:27Z</time></trkpt>
<trkpt lat="30.020688" lon="100.795776">
<time>2015-08-06T04:03:28Z</time></trkpt>
<trkpt lat="30.020608" lon="100.795676">
<time>2015-08-06T04:03:29Z</time></trkpt>
<trkpt lat="30.020568" lon="100.795596">
<time>2015-08-06T04:03:30Z</time></trkpt>
<trkpt lat="30.020548" lon="100.795526">
<time>2015-08-06T04:03:31Z</time></trkpt>
<trkpt lat="30.020538" lon="100.795466">
<time>2015-08-06T04:03:32Z</time></trkpt>
<trkpt lat="30.020547" lon="100.795366">
<time>2015-08-06T04:03:33Z</time></trkpt>
<trkpt lat="30.020567" lon="100.795286">
<time>2015-08-06T04:03:34Z</time></trkpt>
<trkpt lat="30.020617" lon="100.795176">
<time>2015-08-06T04:03:35Z</time></trkpt>
<trkpt lat="30.020707" lon="100.795005">
<time>2015-08-06T04:03:36Z</time></trkpt>
<trkpt lat="30.020807" lon="100.794885">
<time>2015-08-06T04:03:37Z</time></trkpt>
<trkpt lat="30.020887" lon="100.794795">
<time>2015-08-06T04:03:38Z</time></trkpt>
<trkpt lat="30.020956" lon="100.794715">
<time>2015-08-06T04:03:39Z</time></trkpt>
<trkpt lat="30.021026" lon="100.794665">
<time>2015-08-06T04:03:40Z</time></trkpt>
<trkpt lat="30.021086" lon="100.794635">
<time>2015-08-06T04:03:41Z</time></trkpt>
<trkpt lat="30.021156" lon="100.794605">
<time>2015-08-06T04:03:42Z</time></trkpt>
<trkpt lat="30.021236" lon="100.794575">
<time>2015-08-06T04:03:43Z</time></trkpt>
<trkpt lat="30.021356" lon="100.794525">
<time>2015-08-06T04:03:44Z</time></trkpt>
<trkpt lat="30.021776" lon="100.794395">
<time>2015-08-06T04:03:45Z</time></trkpt>
<trkpt lat="30.022226" lon="100.794254">
<time>2015-08-06T04:03:46Z</time></trkpt>
<trkpt lat="30.022886" lon="100.794064">
<time>2015-08-06T04:03:47Z</time></trkpt>
<trkpt lat="30.023775" lon="100.793814">
<time>2015-08-06T04:03:48Z</time></trkpt>
<trkpt lat="30.024555" lon="100.793564">
<time>2015-08-06T04:03:49Z</time></trkpt>
<trkpt lat="30.024765" lon="100.793504">
<time>2015-08-06T04:03:50Z</time></trkpt>
<trkpt lat="30.024845" lon="100.793473">
<time>2015-08-06T04:03:51Z</time></trkpt>
<trkpt lat="30.024915" lon="100.793433">
<time>2015-08-06T04:03:52Z</time></trkpt>
<trkpt lat="30.024995" lon="100.793383">
<time>2015-08-06T04:03:53Z</time></trkpt>
<trkpt lat="30.025044" lon="100.793333">
<time>2015-08-06T04:03:54Z</time></trkpt>
<trkpt lat="30.025094" lon="100.793283">
<time>2015-08-06T04:03:55Z</time></trkpt>
<trkpt lat="30.025144" lon="100.793213">
<time>2015-08-06T04:03:56Z</time></trkpt>
<trkpt lat="30.025184" lon="100.793153">
<time>2015-08-06T04:03:57Z</time></trkpt>
<trkpt lat="30.025204" lon="100.793093">
<time>2015-08-06T04:03:58Z</time></trkpt>
<trkpt lat="30.025244" lon="100.792953">
<time>2015-08-06T04:03:59Z</time></trkpt>
<trkpt lat="30.025314" lon="100.792733">
<time>2015-08-06T04:04:00Z</time></trkpt>
<trkpt lat="30.025373" lon="100.792542">
<time>2015-08-06T04:04:01Z</time></trkpt>
<trkpt lat="30.025413" lon="100.792442">
<time>2015-08-06T04:04:02Z</time></trkpt>
<trkpt lat="30.025463" lon="100.792342">
<time>2015-08-06T04:04:03Z</time></trkpt>
<trkpt lat="30.025503" lon="100.792272">
<time>2015-08-06T04:04:04Z</time></trkpt>
<trkpt lat="30.025543" lon="100.792212">
<time>2015-08-06T04:04:05Z</time></trkpt>
<trkpt lat="30.025613" lon="100.792132">
<time>2015-08-06T04:04:06Z</time></trkpt>
<trkpt lat="30.025673" lon="100.792072">
<time>2015-08-06T04:04:07Z</time></trkpt>
<trkpt lat="30.025763" lon="100.792002">
<time>2015-08-06T04:04:08Z</time></trkpt>
<trkpt lat="30.025852" lon="100.791952">
<time>2015-08-06T04:04:09Z</time></trkpt>
<trkpt lat="30.025922" lon="100.791922">
<time>2015-08-06T04:04:10Z</time></trkpt>
<trkpt lat="30.026032" lon="100.791882">
<time>2015-08-06T04:04:11Z</time></trkpt>
<trkpt lat="30.026152" lon="100.791852">
<time>2015-08-06T04:04:12Z</time></trkpt>
<trkpt lat="30.026242" lon="100.791842">
<time>2015-08-06T04:04:13Z</time></trkpt>
<trkpt lat="30.026322" lon="100.791832">
<time>2015-08-06T04:04:14Z</time></trkpt>
<trkpt lat="30.026402" lon="100.791822">
<time>2015-08-06T04:04:15Z</time></trkpt>
<trkpt lat="30.026492" lon="100.791822">
<time>2015-08-06T04:04:16Z</time></trkpt>
<trkpt lat="30.026902" lon="100.791842">
<time>2015-08-06T04:04:17Z</time></trkpt>
<trkpt lat="30.027622" lon="100.791872">
<time>2015-08-06T04:04:18Z</time></trkpt>
<trkpt lat="30.027962" lon="100.791892">
<time>2015-08-06T04:04:19Z</time></trkpt>
<trkpt lat="30.028182" lon="100.791882">
<time>2015-08-06T04:04:20Z</time></trkpt>
<trkpt lat="30.028312" lon="100.791872">
<time>2015-08-06T04:04:21Z</time></trkpt>
<trkpt lat="30.028412" lon="100.791852">
<time>2015-08-06T04:04:22Z</time></trkpt>
<trkpt lat="30.028552" lon="100.791822">
<time>2015-08-06T04:04:23Z</time></trkpt>
<trkpt lat="30.028652" lon="100.791792">
<time>2015-08-06T04:04:24Z</time></trkpt>
<trkpt lat="30.028762" lon="100.791751">
<time>2015-08-06T04:04:25Z</time></trkpt>
<trkpt lat="30.028932" lon="100.791681">
<time>2015-08-06T04:04:26Z</time></trkpt>
<trkpt lat="30.029362" lon="100.791491">
<time>2015-08-06T04:04:27Z</time></trkpt>
<trkpt lat="30.029472" lon="100.791451">
<time>2015-08-06T04:04:28Z</time></trkpt>
<trkpt lat="30.029552" lon="100.791431">
<time>2015-08-06T04:04:29Z</time></trkpt>
<trkpt lat="30.029632" lon="100.791421">
<time>2015-08-06T04:04:30Z</time></trkpt>
<trkpt lat="30.029762" lon="100.791401">
<time>2015-08-06T04:04:31Z</time></trkpt>
<trkpt lat="30.029862" lon="100.791401">
<time>2015-08-06T04:04:32Z</time></trkpt>
<trkpt lat="30.030022" lon="100.791401">
<time>2015-08-06T04:04:33Z</time></trkpt>
<trkpt lat="30.030142" lon="100.791391">
<time>2015-08-06T04:04:34Z</time></trkpt>
<trkpt lat="30.030242" lon="100.791371">
<time>2015-08-06T04:04:35Z</time></trkpt>
<trkpt lat="30.030392" lon="100.791341">
<time>2015-08-06T04:04:36Z</time></trkpt>
<trkpt lat="30.030891" lon="100.791211">
<time>2015-08-06T04:04:37Z</time></trkpt>
<trkpt lat="30.031041" lon="100.791181">
<time>2015-08-06T04:04:38Z</time></trkpt>
<trkpt lat="30.031141" lon="100.791171">
<time>2015-08-06T04:04:39Z</time></trkpt>
<trkpt lat="30.031231" lon="100.791171">
<time>2015-08-06T04:04:40Z</time></trkpt>
<trkpt lat="30.031291" lon="100.791181">
<time>2015-08-06T04:04:41Z</time></trkpt>
<trkpt lat="30.031361" lon="100.791191">
<time>2015-08-06T04:04:42Z</time></trkpt>
<trkpt lat="30.031411" lon="100.791211">
<time>2015-08-06T04:04:43Z</time></trkpt>
<trkpt lat="30.031492" lon="100.791241">
<time>2015-08-06T04:04:44Z</time></trkpt>
<trkpt lat="30.031552" lon="100.791281">
<time>2015-08-06T04:04:45Z</time></trkpt>
<trkpt lat="30.031602" lon="100.791331">
<time>2015-08-06T04:04:46Z</time></trkpt>
<trkpt lat="30.031662" lon="100.791381">
<time>2015-08-06T04:04:47Z</time></trkpt>
<trkpt lat="30.031712" lon="100.791441">
<time>2015-08-06T04:04:48Z</time></trkpt>
<trkpt lat="30.031842" lon="100.791651">
<time>2015-08-06T04:04:49Z</time></trkpt>
<trkpt lat="30.032003" lon="100.791942">
<time>2015-08-06T04:04:50Z</time></trkpt>
<trkpt lat="30.032283" lon="100.792462">
<time>2015-08-06T04:04:51Z</time></trkpt>
<trkpt lat="30.032434" lon="100.792732">
<time>2015-08-06T04:04:52Z</time></trkpt>
<trkpt lat="30.032514" lon="100.792843">
<time>2015-08-06T04:04:53Z</time></trkpt>
<trkpt lat="30.032584" lon="100.792913">
<time>2015-08-06T04:04:54Z</time></trkpt>
<trkpt lat="30.032644" lon="100.792963">
<time>2015-08-06T04:04:55Z</time></trkpt>
<trkpt lat="30.032704" lon="100.793003">
<time>2015-08-06T04:04:56Z</time></trkpt>
<trkpt lat="30.032774" lon="100.793033">
<time>2015-08-06T04:04:57Z</time></trkpt>
<trkpt lat="30.032844" lon="100.793053">
<time>2015-08-06T04:04:58Z</time></trkpt>
<trkpt lat="30.032964" lon="100.793083">
<time>2015-08-06T04:04:59Z</time></trkpt>
<trkpt lat="30.033084" lon="100.793103">
<time>2015-08-06T04:05:00Z</time></trkpt>
<trkpt lat="30.033334" lon="100.793153">
<time>2015-08-06T04:05:01Z</time></trkpt>
<trkpt lat="30.033624" lon="100.793213">
<time>2015-08-06T04:05:02Z</time></trkpt>
<trkpt lat="30.033925" lon="100.793313">
<time>2015-08-06T04:05:03Z</time></trkpt>
<trkpt lat="30.034525" lon="100.793493">
<time>2015-08-06T04:05:04Z</time></trkpt>
<trkpt lat="30.034665" lon="100.793523">
<time>2015-08-06T04:05:05Z</time></trkpt>
<trkpt lat="30.034745" lon="100.793523">
<time>2015-08-06T04:05:06Z</time></trkpt>
<trkpt lat="30.034835" lon="100.793503">
<time>2015-08-06T04:05:07Z</time></trkpt>
<trkpt lat="30.034905" lon="100.793483">
<time>2015-08-06T04:05:08Z</time></trkpt>
<trkpt lat="30.034985" lon="100.793453">
<time>2015-08-06T04:05:09Z</time></trkpt>
<trkpt lat="30.035065" lon="100.793423">
<time>2015-08-06T04:05:10Z</time></trkpt>
<trkpt lat="30.035285" lon="100.793303">
<time>2015-08-06T04:05:11Z</time></trkpt>
<trkpt lat="30.035694" lon="100.793073">
<time>2015-08-06T04:05:12Z</time></trkpt>
<trkpt lat="30.036144" lon="100.792812">
<time>2015-08-06T04:05:13Z</time></trkpt>
<trkpt lat="30.036274" lon="100.792722">
<time>2015-08-06T04:05:14Z</time></trkpt>
<trkpt lat="30.036364" lon="100.792652">
<time>2015-08-06T04:05:15Z</time></trkpt>
<trkpt lat="30.036423" lon="100.792582">
<time>2015-08-06T04:05:16Z</time></trkpt>
<trkpt lat="30.036483" lon="100.792502">
<time>2015-08-06T04:05:17Z</time></trkpt>
<trkpt lat="30.036533" lon="100.792392">
<time>2015-08-06T04:05:18Z</time></trkpt>
<trkpt lat="30.036563" lon="100.792302">
<time>2015-08-06T04:05:19Z</time></trkpt>
<trkpt lat="30.036593" lon="100.792172">
<time>2015-08-06T04:05:20Z</time></trkpt>
<trkpt lat="30.036613" lon="100.792082">
<time>2015-08-06T04:05:21Z</time></trkpt>
<trkpt lat="30.036633" lon="100.791941">
<time>2015-08-06T04:05:22Z</time></trkpt>
<trkpt lat="30.036642" lon="100.791761">
<time>2015-08-06T04:05:23Z</time></trkpt>
<trkpt lat="30.036662" lon="100.791411">
<time>2015-08-06T04:05:24Z</time></trkpt>
<trkpt lat="30.036701" lon="100.791101">
<time>2015-08-06T04:05:25Z</time></trkpt>
<trkpt lat="30.036741" lon="100.79089">
<time>2015-08-06T04:05:26Z</time></trkpt>
<trkpt lat="30.036791" lon="100.79067">
<time>2015-08-06T04:05:27Z</time></trkpt>
<trkpt lat="30.03691" lon="100.79031">
<time>2015-08-06T04:05:28Z</time></trkpt>
<trkpt lat="30.03707" lon="100.789819">
<time>2015-08-06T04:05:29Z</time></trkpt>
<trkpt lat="30.037149" lon="100.789619">
<time>2015-08-06T04:05:30Z</time></trkpt>
<trkpt lat="30.037229" lon="100.789459">
<time>2015-08-06T04:05:31Z</time></trkpt>
<trkpt lat="30.037279" lon="100.789389">
<time>2015-08-06T04:05:32Z</time></trkpt>
<trkpt lat="30.037339" lon="100.789289">
<time>2015-08-06T04:05:33Z</time></trkpt>
<trkpt lat="30.037409" lon="100.789229">
<time>2015-08-06T04:05:34Z</time></trkpt>
<trkpt lat="30.037469" lon="100.789179">
<time>2015-08-06T04:05:35Z</time></trkpt>
<trkpt lat="30.037539" lon="100.789118">
<time>2015-08-06T04:05:36Z</time></trkpt>
<trkpt lat="30.037629" lon="100.789068">
<time>2015-08-06T04:05:37Z</time></trkpt>
<trkpt lat="30.037719" lon="100.789038">
<time>2015-08-06T04:05:38Z</time></trkpt>
<trkpt lat="30.037808" lon="100.789018">
<time>2015-08-06T04:05:39Z</time></trkpt>
<trkpt lat="30.037918" lon="100.788998">
<time>2015-08-06T04:05:40Z</time></trkpt>
<trkpt lat="30.038038" lon="100.788998">
<time>2015-08-06T04:05:41Z</time></trkpt>
<trkpt lat="30.038148" lon="100.789008">
<time>2015-08-06T04:05:42Z</time></trkpt>
<trkpt lat="30.038268" lon="100.789018">
<time>2015-08-06T04:05:43Z</time></trkpt>
<trkpt lat="30.038489" lon="100.789068">
<time>2015-08-06T04:05:44Z</time></trkpt>
<trkpt lat="30.038699" lon="100.789118">
<time>2015-08-06T04:05:45Z</time></trkpt>
<trkpt lat="30.038839" lon="100.789128">
<time>2015-08-06T04:05:46Z</time></trkpt>
<trkpt lat="30.038929" lon="100.789128">
<time>2015-08-06T04:05:47Z</time></trkpt>
<trkpt lat="30.039039" lon="100.789108">
<time>2015-08-06T04:05:48Z</time></trkpt>
<trkpt lat="30.039139" lon="100.789078">
<time>2015-08-06T04:05:49Z</time></trkpt>
<trkpt lat="30.039229" lon="100.789048">
<time>2015-08-06T04:05:50Z</time></trkpt>
<trkpt lat="30.039299" lon="100.789018">
<time>2015-08-06T04:05:51Z</time></trkpt>
<trkpt lat="30.039368" lon="100.788978">
<time>2015-08-06T04:05:52Z</time></trkpt>
<trkpt lat="30.039438" lon="100.788928">
<time>2015-08-06T04:05:53Z</time></trkpt>
<trkpt lat="30.039608" lon="100.788808">
<time>2015-08-06T04:05:54Z</time></trkpt>
<trkpt lat="30.040018" lon="100.788488">
<time>2015-08-06T04:05:55Z</time></trkpt>
<trkpt lat="30.040098" lon="100.788438">
<time>2015-08-06T04:05:56Z</time></trkpt>
<trkpt lat="30.040198" lon="100.788378">
<time>2015-08-06T04:05:57Z</time></trkpt>
<trkpt lat="30.040268" lon="100.788348">
<time>2015-08-06T04:05:58Z</time></trkpt>
<trkpt lat="30.040338" lon="100.788338">
<time>2015-08-06T04:05:59Z</time></trkpt>
<trkpt lat="30.040388" lon="100.788338">
<time>2015-08-06T04:06:00Z</time></trkpt>
<trkpt lat="30.040438" lon="100.788338">
<time>2015-08-06T04:06:01Z</time></trkpt>
<trkpt lat="30.040498" lon="100.788358">
<time>2015-08-06T04:06:02Z</time></trkpt>
<trkpt lat="30.040548" lon="100.788388">
<time>2015-08-06T04:06:03Z</time></trkpt>
<trkpt lat="30.040588" lon="100.788418">
<time>2015-08-06T04:06:04Z</time></trkpt>
<trkpt lat="30.040638" lon="100.788468">
<time>2015-08-06T04:06:05Z</time></trkpt>
<trkpt lat="30.040698" lon="100.788538">
<time>2015-08-06T04:06:06Z</time></trkpt>
<trkpt lat="30.040798" lon="100.788728">
<time>2015-08-06T04:06:07Z</time></trkpt>
<trkpt lat="30.041139" lon="100.789529">
<time>2015-08-06T04:06:08Z</time></trkpt>
<trkpt lat="30.041219" lon="100.789699">
<time>2015-08-06T04:06:09Z</time></trkpt>
<trkpt lat="30.04125" lon="100.789759">
<time>2015-08-06T04:06:10Z</time></trkpt>
<trkpt lat="30.04128" lon="100.789799">
<time>2015-08-06T04:06:11Z</time></trkpt>
<trkpt lat="30.04132" lon="100.789839">
<time>2015-08-06T04:06:12Z</time></trkpt>
<trkpt lat="30.04137" lon="100.789869">
<time>2015-08-06T04:06:13Z</time></trkpt>
<trkpt lat="30.04141" lon="100.789889">
<time>2015-08-06T04:06:14Z</time></trkpt>
<trkpt lat="30.04147" lon="100.789909">
<time>2015-08-06T04:06:15Z</time></trkpt>
<trkpt lat="30.04154" lon="100.789929">
<time>2015-08-06T04:06:16Z</time></trkpt>
<trkpt lat="30.04169" lon="100.789959">
<time>2015-08-06T04:06:17Z</time></trkpt>
<trkpt lat="30.0418" lon="100.789949">
<time>2015-08-06T04:06:18Z</time></trkpt>
<trkpt lat="30.04189" lon="100.789939">
<time>2015-08-06T04:06:19Z</time></trkpt>
<trkpt lat="30.04194" lon="100.789909">
<time>2015-08-06T04:06:20Z</time></trkpt>
<trkpt lat="30.042" lon="100.789879">
<time>2015-08-06T04:06:21Z</time></trkpt>
<trkpt lat="30.04204" lon="100.789839">
<time>2015-08-06T04:06:22Z</time></trkpt>
<trkpt lat="30.04209" lon="100.789779">
<time>2015-08-06T04:06:23Z</time></trkpt>
<trkpt lat="30.042139" lon="100.789689">
<time>2015-08-06T04:06:24Z</time></trkpt>
<trkpt lat="30.042179" lon="100.789589">
<time>2015-08-06T04:06:25Z</time></trkpt>
<trkpt lat="30.042259" lon="100.789369">
<time>2015-08-06T04:06:26Z</time></trkpt>
<trkpt lat="30.042408" lon="100.788988">
<time>2015-08-06T04:06:27Z</time></trkpt>
<trkpt lat="30.042618" lon="100.788307">
<time>2015-08-06T04:06:28Z</time></trkpt>
<trkpt lat="30.042747" lon="100.787907">
<time>2015-08-06T04:06:29Z</time></trkpt>
<trkpt lat="30.042807" lon="100.787757">
<time>2015-08-06T04:06:30Z</time></trkpt>
<trkpt lat="30.042877" lon="100.787617">
<time>2015-08-06T04:06:31Z</time></trkpt>
<trkpt lat="30.042947" lon="100.787507">
<time>2015-08-06T04:06:32Z</time></trkpt>
<trkpt lat="30.042996" lon="100.787437">
<time>2015-08-06T04:06:33Z</time></trkpt>
<trkpt lat="30.043076" lon="100.787357">
<time>2015-08-06T04:06:34Z</time></trkpt>
<trkpt lat="30.043146" lon="100.787286">
<time>2015-08-06T04:06:35Z</time></trkpt>
<trkpt lat="30.043226" lon="100.787216">
<time>2015-08-06T04:06:36Z</time></trkpt>
<trkpt lat="30.043406" lon="100.787096">
<time>2015-08-06T04:06:37Z</time></trkpt>
<trkpt lat="30.043636" lon="100.786936">
<time>2015-08-06T04:06:38Z</time></trkpt>
<trkpt lat="30.043786" lon="100.786826">
<time>2015-08-06T04:06:39Z</time></trkpt>
<trkpt lat="30.043886" lon="100.786726">
<time>2015-08-06T04:06:40Z</time></trkpt>
<trkpt lat="30.043945" lon="100.786656">
<time>2015-08-06T04:06:41Z</time></trkpt>
<trkpt lat="30.043985" lon="100.786606">
<time>2015-08-06T04:06:42Z</time></trkpt>
<trkpt lat="30.044025" lon="100.786526">
<time>2015-08-06T04:06:43Z</time></trkpt>
<trkpt lat="30.044045" lon="100.786476">
<time>2015-08-06T04:06:44Z</time></trkpt>
<trkpt lat="30.044055" lon="100.786396">
<time>2015-08-06T04:06:45Z</time></trkpt>
<trkpt lat="30.044075" lon="100.786286">
<time>2015-08-06T04:06:46Z</time></trkpt>
<trkpt lat="30.044085" lon="100.786065">
<time>2015-08-06T04:06:47Z</time></trkpt>
<trkpt lat="30.044094" lon="100.785605">
<time>2015-08-06T04:06:48Z</time></trkpt>
<trkpt lat="30.044114" lon="100.785435">
<time>2015-08-06T04:06:49Z</time></trkpt>
<trkpt lat="30.044144" lon="100.785305">
<time>2015-08-06T04:06:50Z</time></trkpt>
<trkpt lat="30.044174" lon="100.785235">
<time>2015-08-06T04:06:51Z</time></trkpt>
<trkpt lat="30.044233" lon="100.785134">
<time>2015-08-06T04:06:52Z</time></trkpt>
<trkpt lat="30.044333" lon="100.785014">
<time>2015-08-06T04:06:53Z</time></trkpt>
<trkpt lat="30.044453" lon="100.784894">
<time>2015-08-06T04:06:54Z</time></trkpt>
<trkpt lat="30.044563" lon="100.784804">
<time>2015-08-06T04:06:55Z</time></trkpt>
<trkpt lat="30.044653" lon="100.784744">
<time>2015-08-06T04:06:56Z</time></trkpt>
<trkpt lat="30.044763" lon="100.784684">
<time>2015-08-06T04:06:57Z</time></trkpt>
<trkpt lat="30.044903" lon="100.784634">
<time>2015-08-06T04:06:58Z</time></trkpt>
<trkpt lat="30.044993" lon="100.784604">
<time>2015-08-06T04:06:59Z</time></trkpt>
<trkpt lat="30.045103" lon="100.784584">
<time>2015-08-06T04:07:00Z</time></trkpt>
<trkpt lat="30.045183" lon="100.784574">
<time>2015-08-06T04:07:01Z</time></trkpt>
<trkpt lat="30.045713" lon="100.784504">
<time>2015-08-06T04:07:02Z</time></trkpt>
<trkpt lat="30.046303" lon="100.784434">
<time>2015-08-06T04:07:03Z</time></trkpt>
<trkpt lat="30.046653" lon="100.784404">
<time>2015-08-06T04:07:04Z</time></trkpt>
<trkpt lat="30.046873" lon="100.784374">
<time>2015-08-06T04:07:05Z</time></trkpt>
<trkpt lat="30.046943" lon="100.784354">
<time>2015-08-06T04:07:06Z</time></trkpt>
<trkpt lat="30.046973" lon="100.784344">
<time>2015-08-06T04:07:07Z</time></trkpt>
<trkpt lat="30.047022" lon="100.784304">
<time>2015-08-06T04:07:08Z</time></trkpt>
<trkpt lat="30.047072" lon="100.784254">
<time>2015-08-06T04:07:09Z</time></trkpt>
<trkpt lat="30.047112" lon="100.784194">
<time>2015-08-06T04:07:10Z</time></trkpt>
<trkpt lat="30.047152" lon="100.784113">
<time>2015-08-06T04:07:11Z</time></trkpt>
<trkpt lat="30.047182" lon="100.784033">
<time>2015-08-06T04:07:12Z</time></trkpt>
<trkpt lat="30.047212" lon="100.783933">
<time>2015-08-06T04:07:13Z</time></trkpt>
<trkpt lat="30.047232" lon="100.783803">
<time>2015-08-06T04:07:14Z</time></trkpt>
<trkpt lat="30.047242" lon="100.783593">
<time>2015-08-06T04:07:15Z</time></trkpt>
<trkpt lat="30.047251" lon="100.783283">
<time>2015-08-06T04:07:16Z</time></trkpt>
<trkpt lat="30.047261" lon="100.782953">
<time>2015-08-06T04:07:17Z</time></trkpt>
<trkpt lat="30.047271" lon="100.782672">
<time>2015-08-06T04:07:18Z</time></trkpt>
<trkpt lat="30.04727" lon="100.782262">
<time>2015-08-06T04:07:19Z</time></trkpt>
<trkpt lat="30.04729" lon="100.782102">
<time>2015-08-06T04:07:20Z</time></trkpt>
<trkpt lat="30.04732" lon="100.781982">
<time>2015-08-06T04:07:21Z</time></trkpt>
<trkpt lat="30.04735" lon="100.781912">
<time>2015-08-06T04:07:22Z</time></trkpt>
<trkpt lat="30.04738" lon="100.781832">
<time>2015-08-06T04:07:23Z</time></trkpt>
<trkpt lat="30.047429" lon="100.781772">
<time>2015-08-06T04:07:24Z</time></trkpt>
<trkpt lat="30.047489" lon="100.781692">
<time>2015-08-06T04:07:25Z</time></trkpt>
<trkpt lat="30.047529" lon="100.781641">
<time>2015-08-06T04:07:26Z</time></trkpt>
<trkpt lat="30.047599" lon="100.781591">
<time>2015-08-06T04:07:27Z</time></trkpt>
<trkpt lat="30.047659" lon="100.781541">
<time>2015-08-06T04:07:28Z</time></trkpt>
<trkpt lat="30.047729" lon="100.781511">
<time>2015-08-06T04:07:29Z</time></trkpt>
<trkpt lat="30.047829" lon="100.781481">
<time>2015-08-06T04:07:30Z</time></trkpt>
<trkpt lat="30.047919" lon="100.781461">
<time>2015-08-06T04:07:31Z</time></trkpt>
<trkpt lat="30.047999" lon="100.781451">
<time>2015-08-06T04:07:32Z</time></trkpt>
<trkpt lat="30.048109" lon="100.781441">
<time>2015-08-06T04:07:33Z</time></trkpt>
<trkpt lat="30.048469" lon="100.781451">
<time>2015-08-06T04:07:34Z</time></trkpt>
<trkpt lat="30.048599" lon="100.781451">
<time>2015-08-06T04:07:35Z</time></trkpt>
<trkpt lat="30.048659" lon="100.781441">
<time>2015-08-06T04:07:36Z</time></trkpt>
<trkpt lat="30.048719" lon="100.781421">
<time>2015-08-06T04:07:37Z</time></trkpt>
<trkpt lat="30.048779" lon="100.781391">
<time>2015-08-06T04:07:38Z</time></trkpt>
<trkpt lat="30.048809" lon="100.781351">
<time>2015-08-06T04:07:39Z</time></trkpt>
<trkpt lat="30.048869" lon="100.781251">
<time>2015-08-06T04:07:40Z</time></trkpt>
<trkpt lat="30.048939" lon="100.781121">
<time>2015-08-06T04:07:41Z</time></trkpt>
<trkpt lat="30.048979" lon="100.781011">
<time>2015-08-06T04:07:42Z</time></trkpt>
<trkpt lat="30.049038" lon="100.780901">
<time>2015-08-06T04:07:43Z</time></trkpt>
<trkpt lat="30.049088" lon="100.780811">
<time>2015-08-06T04:07:44Z</time></trkpt>
<trkpt lat="30.049148" lon="100.780741">
<time>2015-08-06T04:07:45Z</time></trkpt>
<trkpt lat="30.049198" lon="100.780691">
<time>2015-08-06T04:07:46Z</time></trkpt>
<trkpt lat="30.049258" lon="100.780641">
<time>2015-08-06T04:07:47Z</time></trkpt>
<trkpt lat="30.049318" lon="100.780601">
<time>2015-08-06T04:07:48Z</time></trkpt>
<trkpt lat="30.049388" lon="100.780551">
<time>2015-08-06T04:07:49Z</time></trkpt>
<trkpt lat="30.049458" lon="100.780521">
<time>2015-08-06T04:07:50Z</time></trkpt>
<trkpt lat="30.049558" lon="100.780481">
<time>2015-08-06T04:07:51Z</time></trkpt>
<trkpt lat="30.050058" lon="100.78034">
<time>2015-08-06T04:07:52Z</time></trkpt>
<trkpt lat="30.050188" lon="100.78032">
<time>2015-08-06T04:07:53Z</time></trkpt>
<trkpt lat="30.050288" lon="100.78031">
<time>2015-08-06T04:07:54Z</time></trkpt>
<trkpt lat="30.050368" lon="100.78031">
<time>2015-08-06T04:07:55Z</time></trkpt>
<trkpt lat="30.050428" lon="100.78031">
<time>2015-08-06T04:07:56Z</time></trkpt>
<trkpt lat="30.050498" lon="100.78032">
<time>2015-08-06T04:07:57Z</time></trkpt>
<trkpt lat="30.050578" lon="100.78033">
<time>2015-08-06T04:07:58Z</time></trkpt>
<trkpt lat="30.050648" lon="100.78035">
<time>2015-08-06T04:07:59Z</time></trkpt>
<trkpt lat="30.050788" lon="100.78038">
<time>2015-08-06T04:08:00Z</time></trkpt>
<trkpt lat="30.051528" lon="100.780561">
<time>2015-08-06T04:08:01Z</time></trkpt>
<trkpt lat="30.051868" lon="100.780641">
<time>2015-08-06T04:08:02Z</time></trkpt>
<trkpt lat="30.051988" lon="100.780661">
<time>2015-08-06T04:08:03Z</time></trkpt>
<trkpt lat="30.052078" lon="100.780671">
<time>2015-08-06T04:08:04Z</time></trkpt>
<trkpt lat="30.052188" lon="100.780661">
<time>2015-08-06T04:08:05Z</time></trkpt>
<trkpt lat="30.052268" lon="100.780641">
<time>2015-08-06T04:08:06Z</time></trkpt>
<trkpt lat="30.052348" lon="100.780621">
<time>2015-08-06T04:08:07Z</time></trkpt>
<trkpt lat="30.052418" lon="100.780581">
<time>2015-08-06T04:08:08Z</time></trkpt>
<trkpt lat="30.052488" lon="100.780541">
<time>2015-08-06T04:08:09Z</time></trkpt>
<trkpt lat="30.052538" lon="100.78049">
<time>2015-08-06T04:08:10Z</time></trkpt>
<trkpt lat="30.052578" lon="100.78044">
<time>2015-08-06T04:08:11Z</time></trkpt>
<trkpt lat="30.052618" lon="100.78038">
<time>2015-08-06T04:08:12Z</time></trkpt>
<trkpt lat="30.052648" lon="100.7803">
<time>2015-08-06T04:08:13Z</time></trkpt>
<trkpt lat="30.052678" lon="100.78023">
<time>2015-08-06T04:08:14Z</time></trkpt>
<trkpt lat="30.052728" lon="100.78008">
<time>2015-08-06T04:08:15Z</time></trkpt>
<trkpt lat="30.052837" lon="100.77975">
<time>2015-08-06T04:08:16Z</time></trkpt>
<trkpt lat="30.052887" lon="100.77959">
<time>2015-08-06T04:08:17Z</time></trkpt>
<trkpt lat="30.052967" lon="100.77942">
<time>2015-08-06T04:08:18Z</time></trkpt>
<trkpt lat="30.053027" lon="100.7793">
<time>2015-08-06T04:08:19Z</time></trkpt>
<trkpt lat="30.053077" lon="100.77922">
<time>2015-08-06T04:08:20Z</time></trkpt>
<trkpt lat="30.053127" lon="100.779129">
<time>2015-08-06T04:08:21Z</time></trkpt>
<trkpt lat="30.053196" lon="100.779029">
<time>2015-08-06T04:08:22Z</time></trkpt>
<trkpt lat="30.053266" lon="100.778959">
<time>2015-08-06T04:08:23Z</time></trkpt>
<trkpt lat="30.053386" lon="100.778839">
<time>2015-08-06T04:08:24Z</time></trkpt>
<trkpt lat="30.053456" lon="100.778769">
<time>2015-08-06T04:08:25Z</time></trkpt>
<trkpt lat="30.053626" lon="100.778649">
<time>2015-08-06T04:08:26Z</time></trkpt>
<trkpt lat="30.054096" lon="100.778359">
<time>2015-08-06T04:08:27Z</time></trkpt>
<trkpt lat="30.054456" lon="100.778179">
<time>2015-08-06T04:08:28Z</time></trkpt>
<trkpt lat="30.054586" lon="100.778129">
<time>2015-08-06T04:08:29Z</time></trkpt>
<trkpt lat="30.054695" lon="100.778099">
<time>2015-08-06T04:08:30Z</time></trkpt>
<trkpt lat="30.054775" lon="100.778089">
<time>2015-08-06T04:08:31Z</time></trkpt>
<trkpt lat="30.054915" lon="100.778089">
<time>2015-08-06T04:08:32Z</time></trkpt>
<trkpt lat="30.055135" lon="100.778079">
<time>2015-08-06T04:08:33Z</time></trkpt>
<trkpt lat="30.055255" lon="100.778069">
<time>2015-08-06T04:08:34Z</time></trkpt>
<trkpt lat="30.055325" lon="100.778059">
<time>2015-08-06T04:08:35Z</time></trkpt>
<trkpt lat="30.055375" lon="100.778039">
<time>2015-08-06T04:08:36Z</time></trkpt>
<trkpt lat="30.055435" lon="100.778009">
<time>2015-08-06T04:08:37Z</time></trkpt>
<trkpt lat="30.055475" lon="100.777989">
<time>2015-08-06T04:08:38Z</time></trkpt>
<trkpt lat="30.055525" lon="100.777949">
<time>2015-08-06T04:08:39Z</time></trkpt>
<trkpt lat="30.055595" lon="100.777889">
<time>2015-08-06T04:08:40Z</time></trkpt>
<trkpt lat="30.055785" lon="100.777668">
<time>2015-08-06T04:08:41Z</time></trkpt>
<trkpt lat="30.055975" lon="100.777428">
<time>2015-08-06T04:08:42Z</time></trkpt>
<trkpt lat="30.056175" lon="100.777198">
<time>2015-08-06T04:08:43Z</time></trkpt>
<trkpt lat="30.056844" lon="100.776588">
<time>2015-08-06T04:08:44Z</time></trkpt>
<trkpt lat="30.057423" lon="100.776077">
<time>2015-08-06T04:08:45Z</time></trkpt>
<trkpt lat="30.057713" lon="100.775837">
<time>2015-08-06T04:08:46Z</time></trkpt>
<trkpt lat="30.057843" lon="100.775757">
<time>2015-08-06T04:08:47Z</time></trkpt>
<trkpt lat="30.057883" lon="100.775727">
<time>2015-08-06T04:08:48Z</time></trkpt>
<trkpt lat="30.057973" lon="100.775677">
<time>2015-08-06T04:08:49Z</time></trkpt>
<trkpt lat="30.058163" lon="100.775587">
<time>2015-08-06T04:08:50Z</time></trkpt>
<trkpt lat="30.058393" lon="100.775477">
<time>2015-08-06T04:08:51Z</time></trkpt>
<trkpt lat="30.058563" lon="100.775387">
<time>2015-08-06T04:08:52Z</time></trkpt>
<trkpt lat="30.058693" lon="100.775287">
<time>2015-08-06T04:08:53Z</time></trkpt>
<trkpt lat="30.058873" lon="100.775147">
<time>2015-08-06T04:08:54Z</time></trkpt>
<trkpt lat="30.059092" lon="100.774957">
<time>2015-08-06T04:08:55Z</time></trkpt>
<trkpt lat="30.059322" lon="100.774767">
<time>2015-08-06T04:08:56Z</time></trkpt>
<trkpt lat="30.059672" lon="100.774497">
<time>2015-08-06T04:08:57Z</time></trkpt>
<trkpt lat="30.060391" lon="100.773926">
<time>2015-08-06T04:08:58Z</time></trkpt>
<trkpt lat="30.061121" lon="100.773326">
<time>2015-08-06T04:08:59Z</time></trkpt>
<trkpt lat="30.061451" lon="100.773066">
<time>2015-08-06T04:09:00Z</time></trkpt>
<trkpt lat="30.061631" lon="100.772926">
<time>2015-08-06T04:09:01Z</time></trkpt>
<trkpt lat="30.06176" lon="100.772806">
<time>2015-08-06T04:09:02Z</time></trkpt>
<trkpt lat="30.06185" lon="100.772726">
<time>2015-08-06T04:09:03Z</time></trkpt>
<trkpt lat="30.06193" lon="100.772616">
<time>2015-08-06T04:09:04Z</time></trkpt>
<trkpt lat="30.06199" lon="100.772545">
<time>2015-08-06T04:09:05Z</time></trkpt>
<trkpt lat="30.06207" lon="100.772445">
<time>2015-08-06T04:09:06Z</time></trkpt>
<trkpt lat="30.06222" lon="100.772265">
<time>2015-08-06T04:09:07Z</time></trkpt>
<trkpt lat="30.06232" lon="100.772155">
<time>2015-08-06T04:09:08Z</time></trkpt>
<trkpt lat="30.06249" lon="100.771975">
<time>2015-08-06T04:09:09Z</time></trkpt>
<trkpt lat="30.06263" lon="100.771835">
<time>2015-08-06T04:09:10Z</time></trkpt>
<trkpt lat="30.06281" lon="100.771695">
<time>2015-08-06T04:09:11Z</time></trkpt>
<trkpt lat="30.062959" lon="100.771585">
<time>2015-08-06T04:09:12Z</time></trkpt>
<trkpt lat="30.063159" lon="100.771455">
<time>2015-08-06T04:09:13Z</time></trkpt>
<trkpt lat="30.063409" lon="100.771295">
<time>2015-08-06T04:09:14Z</time></trkpt>
<trkpt lat="30.063649" lon="100.771145">
<time>2015-08-06T04:09:15Z</time></trkpt>
<trkpt lat="30.063829" lon="100.771045">
<time>2015-08-06T04:09:16Z</time></trkpt>
<trkpt lat="30.063999" lon="100.770935">
<time>2015-08-06T04:09:17Z</time></trkpt>
<trkpt lat="30.064109" lon="100.770855">
<time>2015-08-06T04:09:18Z</time></trkpt>
<trkpt lat="30.064199" lon="100.770785">
<time>2015-08-06T04:09:19Z</time></trkpt>
<trkpt lat="30.064279" lon="100.770705">
<time>2015-08-06T04:09:20Z</time></trkpt>
<trkpt lat="30.064359" lon="100.770625">
<time>2015-08-06T04:09:21Z</time></trkpt>
<trkpt lat="30.064419" lon="100.770545">
<time>2015-08-06T04:09:22Z</time></trkpt>
<trkpt lat="30.064489" lon="100.770455">
<time>2015-08-06T04:09:23Z</time></trkpt>
<trkpt lat="30.064559" lon="100.770365">
<time>2015-08-06T04:09:24Z</time></trkpt>
<trkpt lat="30.064678" lon="100.770184">
<time>2015-08-06T04:09:25Z</time></trkpt>
<trkpt lat="30.065098" lon="100.769574">
<time>2015-08-06T04:09:26Z</time></trkpt>
<trkpt lat="30.065338" lon="100.769254">
<time>2015-08-06T04:09:27Z</time></trkpt>
<trkpt lat="30.065428" lon="100.769124">
<time>2015-08-06T04:09:28Z</time></trkpt>
<trkpt lat="30.065507" lon="100.769024">
<time>2015-08-06T04:09:29Z</time></trkpt>
<trkpt lat="30.065597" lon="100.768924">
<time>2015-08-06T04:09:30Z</time></trkpt>
<trkpt lat="30.065697" lon="100.768834">
<time>2015-08-06T04:09:31Z</time></trkpt>
<trkpt lat="30.065897" lon="100.768674">
<time>2015-08-06T04:09:32Z</time></trkpt>
<trkpt lat="30.066287" lon="100.768344">
<time>2015-08-06T04:09:33Z</time></trkpt>
<trkpt lat="30.066477" lon="100.768194">
<time>2015-08-06T04:09:34Z</time></trkpt>
<trkpt lat="30.066567" lon="100.768124">
<time>2015-08-06T04:09:35Z</time></trkpt>
<trkpt lat="30.066647" lon="100.768084">
<time>2015-08-06T04:09:36Z</time></trkpt>
<trkpt lat="30.066737" lon="100.768044">
<time>2015-08-06T04:09:37Z</time></trkpt>
<trkpt lat="30.066907" lon="100.767984">
<time>2015-08-06T04:09:38Z</time></trkpt>
<trkpt lat="30.066977" lon="100.767944">
<time>2015-08-06T04:09:39Z</time></trkpt>
<trkpt lat="30.067027" lon="100.767884">
<time>2015-08-06T04:09:40Z</time></trkpt>
<trkpt lat="30.067057" lon="100.767834">
<time>2015-08-06T04:09:41Z</time></trkpt>
<trkpt lat="30.067127" lon="100.767714">
<time>2015-08-06T04:09:42Z</time></trkpt>
<trkpt lat="30.067186" lon="100.767564">
<time>2015-08-06T04:09:43Z</time></trkpt>
<trkpt lat="30.067216" lon="100.767504">
<time>2015-08-06T04:09:44Z</time></trkpt>
<trkpt lat="30.067266" lon="100.767444">
<time>2015-08-06T04:09:45Z</time></trkpt>
<trkpt lat="30.067316" lon="100.767384">
<time>2015-08-06T04:09:46Z</time></trkpt>
<trkpt lat="30.067356" lon="100.767344">
<time>2015-08-06T04:09:47Z</time></trkpt>
<trkpt lat="30.067406" lon="100.767304">
<time>2015-08-06T04:09:48Z</time></trkpt>
<trkpt lat="30.067456" lon="100.767274">
<time>2015-08-06T04:09:49Z</time></trkpt>
<trkpt lat="30.067526" lon="100.767244">
<time>2015-08-06T04:09:50Z</time></trkpt>
<trkpt lat="30.067586" lon="100.767224">
<time>2015-08-06T04:09:51Z</time></trkpt>
<trkpt lat="30.067696" lon="100.767204">
<time>2015-08-06T04:09:52Z</time></trkpt>
<trkpt lat="30.067766" lon="100.767184">
<time>2015-08-06T04:09:53Z</time></trkpt>
<trkpt lat="30.067816" lon="100.767163">
<time>2015-08-06T04:09:54Z</time></trkpt>
<trkpt lat="30.067856" lon="100.767133">
<time>2015-08-06T04:09:55Z</time></trkpt>
<trkpt lat="30.067886" lon="100.767093">
<time>2015-08-06T04:09:56Z</time></trkpt>
<trkpt lat="30.067916" lon="100.767053">
<time>2015-08-06T04:09:57Z</time></trkpt>
<trkpt lat="30.067936" lon="100.767013">
<time>2015-08-06T04:09:58Z</time></trkpt>
<trkpt lat="30.067986" lon="100.766903">
<time>2015-08-06T04:09:59Z</time></trkpt>
<trkpt lat="30.068046" lon="100.766763">
<time>2015-08-06T04:10:00Z</time></trkpt>
<trkpt lat="30.068106" lon="100.766663">
<time>2015-08-06T04:10:01Z</time></trkpt>
<trkpt lat="30.068126" lon="100.766613">
<time>2015-08-06T04:10:02Z</time></trkpt>
<trkpt lat="30.068156" lon="100.766573">
<time>2015-08-06T04:10:03Z</time></trkpt>
<trkpt lat="30.068196" lon="100.766513">
<time>2015-08-06T04:10:04Z</time></trkpt>
<trkpt lat="30.068246" lon="100.766463">
<time>2015-08-06T04:10:05Z</time></trkpt>
<trkpt lat="30.068306" lon="100.766403">
<time>2015-08-06T04:10:06Z</time></trkpt>
<trkpt lat="30.068456" lon="100.766273">
<time>2015-08-06T04:10:07Z</time></trkpt>
<trkpt lat="30.068785" lon="100.765973">
<time>2015-08-06T04:10:08Z</time></trkpt>
<trkpt lat="30.069035" lon="100.765743">
<time>2015-08-06T04:10:09Z</time></trkpt>
<trkpt lat="30.069165" lon="100.765603">
<time>2015-08-06T04:10:10Z</time></trkpt>
<trkpt lat="30.069275" lon="100.765463">
<time>2015-08-06T04:10:11Z</time></trkpt>
<trkpt lat="30.069345" lon="100.765323">
<time>2015-08-06T04:10:12Z</time></trkpt>
<trkpt lat="30.069405" lon="100.765213">
<time>2015-08-06T04:10:13Z</time></trkpt>
<trkpt lat="30.069435" lon="100.765143">
<time>2015-08-06T04:10:14Z</time></trkpt>
<trkpt lat="30.069445" lon="100.765073">
<time>2015-08-06T04:10:15Z</time></trkpt>
<trkpt lat="30.069455" lon="100.765013">
<time>2015-08-06T04:10:16Z</time></trkpt>
<trkpt lat="30.069455" lon="100.764953">
<time>2015-08-06T04:10:17Z</time></trkpt>
<trkpt lat="30.069445" lon="100.764903">
<time>2015-08-06T04:10:18Z</time></trkpt>
<trkpt lat="30.069435" lon="100.764853">
<time>2015-08-06T04:10:19Z</time></trkpt>
<trkpt lat="30.069425" lon="100.764813">
<time>2015-08-06T04:10:20Z</time></trkpt>
<trkpt lat="30.069395" lon="100.764773">
<time>2015-08-06T04:10:21Z</time></trkpt>
<trkpt lat="30.069355" lon="100.764713">
<time>2015-08-06T04:10:22Z</time></trkpt>
<trkpt lat="30.069325" lon="100.764683">
<time>2015-08-06T04:10:23Z</time></trkpt>
<trkpt lat="30.069275" lon="100.764663">
<time>2015-08-06T04:10:24Z</time></trkpt>
<trkpt lat="30.069215" lon="100.764643">
<time>2015-08-06T04:10:25Z</time></trkpt>
<trkpt lat="30.069165" lon="100.764633">
<time>2015-08-06T04:10:26Z</time></trkpt>
<trkpt lat="30.069065" lon="100.764633">
<time>2015-08-06T04:10:27Z</time></trkpt>
<trkpt lat="30.068355" lon="100.764683">
<time>2015-08-06T04:10:28Z</time></trkpt>
<trkpt lat="30.067655" lon="100.764733">
<time>2015-08-06T04:10:29Z</time></trkpt>
<trkpt lat="30.067285" lon="100.764763">
<time>2015-08-06T04:10:30Z</time></trkpt>
<trkpt lat="30.067045" lon="100.764773">
<time>2015-08-06T04:10:31Z</time></trkpt>
<trkpt lat="30.066845" lon="100.764803">
<time>2015-08-06T04:10:32Z</time></trkpt>
<trkpt lat="30.066655" lon="100.764843">
<time>2015-08-06T04:10:33Z</time></trkpt>
<trkpt lat="30.066525" lon="100.764883">
<time>2015-08-06T04:10:34Z</time></trkpt>
<trkpt lat="30.066235" lon="100.765013">
<time>2015-08-06T04:10:35Z</time></trkpt>
<trkpt lat="30.065955" lon="100.765123">
<time>2015-08-06T04:10:36Z</time></trkpt>
<trkpt lat="30.065775" lon="100.765203">
<time>2015-08-06T04:10:37Z</time></trkpt>
<trkpt lat="30.065465" lon="100.765293">
<time>2015-08-06T04:10:38Z</time></trkpt>
<trkpt lat="30.065175" lon="100.765383">
<time>2015-08-06T04:10:39Z</time></trkpt>
<trkpt lat="30.064965" lon="100.765453">
<time>2015-08-06T04:10:40Z</time></trkpt>
<trkpt lat="30.064725" lon="100.765573">
<time>2015-08-06T04:10:41Z</time></trkpt>
<trkpt lat="30.064455" lon="100.765703">
<time>2015-08-06T04:10:42Z</time></trkpt>
<trkpt lat="30.064175" lon="100.765823">
<time>2015-08-06T04:10:43Z</time></trkpt>
<trkpt lat="30.063935" lon="100.765923">
<time>2015-08-06T04:10:44Z</time></trkpt>
<trkpt lat="30.063825" lon="100.765953">
<time>2015-08-06T04:10:45Z</time></trkpt>
<trkpt lat="30.063565" lon="100.766003">
<time>2015-08-06T04:10:46Z</time></trkpt>
<trkpt lat="30.063395" lon="100.766023">
<time>2015-08-06T04:10:47Z</time></trkpt>
<trkpt lat="30.063255" lon="100.766033">
<time>2015-08-06T04:10:48Z</time></trkpt>
<trkpt lat="30.062855" lon="100.766053">
<time>2015-08-06T04:10:49Z</time></trkpt>
<trkpt lat="30.062605" lon="100.766073">
<time>2015-08-06T04:10:50Z</time></trkpt>
<trkpt lat="30.062435" lon="100.766103">
<time>2015-08-06T04:10:51Z</time></trkpt>
<trkpt lat="30.062265" lon="100.766153">
<time>2015-08-06T04:10:52Z</time></trkpt>
<trkpt lat="30.061446" lon="100.766404">
<time>2015-08-06T04:10:53Z</time></trkpt>
<trkpt lat="30.061226" lon="100.766474">
<time>2015-08-06T04:10:54Z</time></trkpt>
<trkpt lat="30.061056" lon="100.766504">
<time>2015-08-06T04:10:55Z</time></trkpt>
<trkpt lat="30.060946" lon="100.766504">
<time>2015-08-06T04:10:56Z</time></trkpt>
<trkpt lat="30.060886" lon="100.766494">
<time>2015-08-06T04:10:57Z</time></trkpt>
<trkpt lat="30.060816" lon="100.766474">
<time>2015-08-06T04:10:58Z</time></trkpt>
<trkpt lat="30.060686" lon="100.766424">
<time>2015-08-06T04:10:59Z</time></trkpt>
<trkpt lat="30.060055" lon="100.766094">
<time>2015-08-06T04:11:00Z</time></trkpt>
<trkpt lat="30.059695" lon="100.765903">
<time>2015-08-06T04:11:01Z</time></trkpt>
<trkpt lat="30.059525" lon="100.765833">
<time>2015-08-06T04:11:02Z</time></trkpt>
<trkpt lat="30.059385" lon="100.765783">
<time>2015-08-06T04:11:03Z</time></trkpt>
<trkpt lat="30.059275" lon="100.765763">
<time>2015-08-06T04:11:04Z</time></trkpt>
<trkpt lat="30.059125" lon="100.765743">
<time>2015-08-06T04:11:05Z</time></trkpt>
<trkpt lat="30.058945" lon="100.765743">
<time>2015-08-06T04:11:06Z</time></trkpt>
<trkpt lat="30.058615" lon="100.765763">
<time>2015-08-06T04:11:07Z</time></trkpt>
<trkpt lat="30.058295" lon="100.765783">
<time>2015-08-06T04:11:08Z</time></trkpt>
<trkpt lat="30.058125" lon="100.765763">
<time>2015-08-06T04:11:09Z</time></trkpt>
<trkpt lat="30.058005" lon="100.765743">
<time>2015-08-06T04:11:10Z</time></trkpt>
<trkpt lat="30.057895" lon="100.765693">
<time>2015-08-06T04:11:11Z</time></trkpt>
<trkpt lat="30.057825" lon="100.765663">
<time>2015-08-06T04:11:12Z</time></trkpt>
<trkpt lat="30.057755" lon="100.765613">
<time>2015-08-06T04:11:13Z</time></trkpt>
<trkpt lat="30.057685" lon="100.765543">
<time>2015-08-06T04:11:14Z</time></trkpt>
<trkpt lat="30.057635" lon="100.765463">
<time>2015-08-06T04:11:15Z</time></trkpt>
<trkpt lat="30.057595" lon="100.765373">
<time>2015-08-06T04:11:16Z</time></trkpt>
<trkpt lat="30.057565" lon="100.765293">
<time>2015-08-06T04:11:17Z</time></trkpt>
<trkpt lat="30.057555" lon="100.765203">
<time>2015-08-06T04:11:18Z</time></trkpt>
<trkpt lat="30.057555" lon="100.765113">
<time>2015-08-06T04:11:19Z</time></trkpt>
<trkpt lat="30.057575" lon="100.765033">
<time>2015-08-06T04:11:20Z</time></trkpt>
<trkpt lat="30.057615" lon="100.764953">
<time>2015-08-06T04:11:21Z</time></trkpt>
<trkpt lat="30.057645" lon="100.764903">
<time>2015-08-06T04:11:22Z</time></trkpt>
<trkpt lat="30.057695" lon="100.764833">
<time>2015-08-06T04:11:23Z</time></trkpt>
<trkpt lat="30.057775" lon="100.764743">
<time>2015-08-06T04:11:24Z</time></trkpt>
<trkpt lat="30.057885" lon="100.764643">
<time>2015-08-06T04:11:25Z</time></trkpt>
<trkpt lat="30.057994" lon="100.764563">
<time>2015-08-06T04:11:26Z</time></trkpt>
<trkpt lat="30.058124" lon="100.764493">
<time>2015-08-06T04:11:27Z</time></trkpt>
<trkpt lat="30.058244" lon="100.764453">
<time>2015-08-06T04:11:28Z</time></trkpt>
<trkpt lat="30.058314" lon="100.764423">
<time>2015-08-06T04:11:29Z</time></trkpt>
<trkpt lat="30.058414" lon="100.764393">
<time>2015-08-06T04:11:30Z</time></trkpt>
<trkpt lat="30.058514" lon="100.764373">
<time>2015-08-06T04:11:31Z</time></trkpt>
<trkpt lat="30.058614" lon="100.764353">
<time>2015-08-06T04:11:32Z</time></trkpt>
<trkpt lat="30.058734" lon="100.764353">
<time>2015-08-06T04:11:33Z</time></trkpt>
<trkpt lat="30.058834" lon="100.764363">
<time>2015-08-06T04:11:34Z</time></trkpt>
<trkpt lat="30.058904" lon="100.764383">
<time>2015-08-06T04:11:35Z</time></trkpt>
<trkpt lat="30.058984" lon="100.764403">
<time>2015-08-06T04:11:36Z</time></trkpt>
<trkpt lat="30.059104" lon="100.764453">
<time>2015-08-06T04:11:37Z</time></trkpt>
<trkpt lat="30.059214" lon="100.764523">
<time>2015-08-06T04:11:38Z</time></trkpt>
<trkpt lat="30.059284" lon="100.764573">
<time>2015-08-06T04:11:39Z</time></trkpt>
<trkpt lat="30.059405" lon="100.764653">
<time>2015-08-06T04:11:40Z</time></trkpt>
<trkpt lat="30.059555" lon="100.764743">
<time>2015-08-06T04:11:41Z</time></trkpt>
<trkpt lat="30.059695" lon="100.764793">
<time>2015-08-06T04:11:42Z</time></trkpt>
<trkpt lat="30.059805" lon="100.764813">
<time>2015-08-06T04:11:43Z</time></trkpt>
<trkpt lat="30.059885" lon="100.764813">
<time>2015-08-06T04:11:44Z</time></trkpt>
<trkpt lat="30.059965" lon="100.764803">
<time>2015-08-06T04:11:45Z</time></trkpt>
<trkpt lat="30.060055" lon="100.764773">
<time>2015-08-06T04:11:46Z</time></trkpt>
<trkpt lat="30.060255" lon="100.764713">
<time>2015-08-06T04:11:47Z</time></trkpt>
<trkpt lat="30.060615" lon="100.764573">
<time>2015-08-06T04:11:48Z</time></trkpt>
<trkpt lat="30.061014" lon="100.764443">
<time>2015-08-06T04:11:49Z</time></trkpt>
<trkpt lat="30.061334" lon="100.764313">
<time>2015-08-06T04:11:50Z</time></trkpt>
<trkpt lat="30.061654" lon="100.764173">
<time>2015-08-06T04:11:51Z</time></trkpt>
<trkpt lat="30.061764" lon="100.764113">
<time>2015-08-06T04:11:52Z</time></trkpt>
<trkpt lat="30.061904" lon="100.764023">
<time>2015-08-06T04:11:53Z</time></trkpt>
<trkpt lat="30.061994" lon="100.763963">
<time>2015-08-06T04:11:54Z</time></trkpt>
<trkpt lat="30.062114" lon="100.763853">
<time>2015-08-06T04:11:55Z</time></trkpt>
<trkpt lat="30.062244" lon="100.763733">
<time>2015-08-06T04:11:56Z</time></trkpt>
<trkpt lat="30.062454" lon="100.763513">
<time>2015-08-06T04:11:57Z</time></trkpt>
<trkpt lat="30.062634" lon="100.763323">
<time>2015-08-06T04:11:58Z</time></trkpt>
<trkpt lat="30.062774" lon="100.763193">
<time>2015-08-06T04:11:59Z</time></trkpt>
<trkpt lat="30.062894" lon="100.763103">
<time>2015-08-06T04:12:00Z</time></trkpt>
<trkpt lat="30.063014" lon="100.763033">
<time>2015-08-06T04:12:01Z</time></trkpt>
<trkpt lat="30.063244" lon="100.762913">
<time>2015-08-06T04:12:02Z</time></trkpt>
<trkpt lat="30.063434" lon="100.762813">
<time>2015-08-06T04:12:03Z</time></trkpt>
<trkpt lat="30.063584" lon="100.762713">
<time>2015-08-06T04:12:04Z</time></trkpt>
<trkpt lat="30.063743" lon="100.762593">
<time>2015-08-06T04:12:05Z</time></trkpt>
<trkpt lat="30.063893" lon="100.762463">
<time>2015-08-06T04:12:06Z</time></trkpt>
<trkpt lat="30.064033" lon="100.762313">
<time>2015-08-06T04:12:07Z</time></trkpt>
<trkpt lat="30.064283" lon="100.761993">
<time>2015-08-06T04:12:08Z</time></trkpt>
<trkpt lat="30.064523" lon="100.761693">
<time>2015-08-06T04:12:09Z</time></trkpt>
<trkpt lat="30.064743" lon="100.761413">
<time>2015-08-06T04:12:10Z</time></trkpt>
<trkpt lat="30.064883" lon="100.761263">
<time>2015-08-06T04:12:11Z</time></trkpt>
<trkpt lat="30.064993" lon="100.761153">
<time>2015-08-06T04:12:12Z</time></trkpt>
<trkpt lat="30.065073" lon="100.761093">
<time>2015-08-06T04:12:13Z</time></trkpt>
<trkpt lat="30.065183" lon="100.761023">
<time>2015-08-06T04:12:14Z</time></trkpt>
<trkpt lat="30.065263" lon="100.760983">
<time>2015-08-06T04:12:15Z</time></trkpt>
<trkpt lat="30.065363" lon="100.760943">
<time>2015-08-06T04:12:16Z</time></trkpt>
<trkpt lat="30.065473" lon="100.760903">
<time>2015-08-06T04:12:17Z</time></trkpt>
<trkpt lat="30.065583" lon="100.760883">
<time>2015-08-06T04:12:18Z</time></trkpt>
<trkpt lat="30.065683" lon="100.760863">
<time>2015-08-06T04:12:19Z</time></trkpt>
<trkpt lat="30.065813" lon="100.760843">
<time>2015-08-06T04:12:20Z</time></trkpt>
<trkpt lat="30.066133" lon="100.760803">
<time>2015-08-06T04:12:21Z</time></trkpt>
<trkpt lat="30.066363" lon="100.760773">
<time>2015-08-06T04:12:22Z</time></trkpt>
<trkpt lat="30.066493" lon="100.760743">
<time>2015-08-06T04:12:23Z</time></trkpt>
<trkpt lat="30.066633" lon="100.760693">
<time>2015-08-06T04:12:24Z</time></trkpt>
<trkpt lat="30.066743" lon="100.760623">
<time>2015-08-06T04:12:25Z</time></trkpt>
<trkpt lat="30.066902" lon="100.760523">
<time>2015-08-06T04:12:26Z</time></trkpt>
<trkpt lat="30.067012" lon="100.760433">
<time>2015-08-06T04:12:27Z</time></trkpt>
<trkpt lat="30.067232" lon="100.760283">
<time>2015-08-06T04:12:28Z</time></trkpt>
<trkpt lat="30.067572" lon="100.760023">
<time>2015-08-06T04:12:29Z</time></trkpt>
<trkpt lat="30.067742" lon="100.759913">
<time>2015-08-06T04:12:30Z</time></trkpt>
<trkpt lat="30.067872" lon="100.759833">
<time>2015-08-06T04:12:31Z</time></trkpt>
<trkpt lat="30.067982" lon="100.759783">
<time>2015-08-06T04:12:32Z</time></trkpt>
<trkpt lat="30.068252" lon="100.759653">
<time>2015-08-06T04:12:33Z</time></trkpt>
<trkpt lat="30.068492" lon="100.759543">
<time>2015-08-06T04:12:34Z</time></trkpt>
<trkpt lat="30.068642" lon="100.759463">
<time>2015-08-06T04:12:35Z</time></trkpt>
<trkpt lat="30.068802" lon="100.759343">
<time>2015-08-06T04:12:36Z</time></trkpt>
<trkpt lat="30.068922" lon="100.759243">
<time>2015-08-06T04:12:37Z</time></trkpt>
<trkpt lat="30.069022" lon="100.759143">
<time>2015-08-06T04:12:38Z</time></trkpt>
<trkpt lat="30.069122" lon="100.759003">
<time>2015-08-06T04:12:39Z</time></trkpt>
<trkpt lat="30.069212" lon="100.758853">
<time>2015-08-06T04:12:40Z</time></trkpt>
<trkpt lat="30.069312" lon="100.758623">
<time>2015-08-06T04:12:41Z</time></trkpt>
<trkpt lat="30.069382" lon="100.758443">
<time>2015-08-06T04:12:42Z</time></trkpt>
<trkpt lat="30.069412" lon="100.758323">
<time>2015-08-06T04:12:43Z</time></trkpt>
<trkpt lat="30.069432" lon="100.758223">
<time>2015-08-06T04:12:44Z</time></trkpt>
<trkpt lat="30.069462" lon="100.758053">
<time>2015-08-06T04:12:45Z</time></trkpt>
<trkpt lat="30.069482" lon="100.757923">
<time>2015-08-06T04:12:46Z</time></trkpt>
<trkpt lat="30.069481" lon="100.757773">
<time>2015-08-06T04:12:47Z</time></trkpt>
<trkpt lat="30.069491" lon="100.757483">
<time>2015-08-06T04:12:48Z</time></trkpt>
<trkpt lat="30.069511" lon="100.757343">
<time>2015-08-06T04:12:49Z</time></trkpt>
<trkpt lat="30.069541" lon="100.757223">
<time>2015-08-06T04:12:50Z</time></trkpt>
<trkpt lat="30.069571" lon="100.757143">
<time>2015-08-06T04:12:51Z</time></trkpt>
<trkpt lat="30.069621" lon="100.757043">
<time>2015-08-06T04:12:52Z</time></trkpt>
<trkpt lat="30.069701" lon="100.756903">
<time>2015-08-06T04:12:53Z</time></trkpt>
<trkpt lat="30.069771" lon="100.756803">
<time>2015-08-06T04:12:54Z</time></trkpt>
<trkpt lat="30.069881" lon="100.756673">
<time>2015-08-06T04:12:55Z</time></trkpt>
<trkpt lat="30.069951" lon="100.756593">
<time>2015-08-06T04:12:56Z</time></trkpt>
<trkpt lat="30.070131" lon="100.756403">
<time>2015-08-06T04:12:57Z</time></trkpt>
<trkpt lat="30.070301" lon="100.756193">
<time>2015-08-06T04:12:58Z</time></trkpt>
<trkpt lat="30.070401" lon="100.756053">
<time>2015-08-06T04:12:59Z</time></trkpt>
<trkpt lat="30.070651" lon="100.755653">
<time>2015-08-06T04:13:00Z</time></trkpt>
<trkpt lat="30.071031" lon="100.755064">
<time>2015-08-06T04:13:01Z</time></trkpt>
<trkpt lat="30.071191" lon="100.754804">
<time>2015-08-06T04:13:02Z</time></trkpt>
<trkpt lat="30.071451" lon="100.754224">
<time>2015-08-06T04:13:03Z</time></trkpt>
<trkpt lat="30.0716" lon="100.753854">
<time>2015-08-06T04:13:04Z</time></trkpt>
<trkpt lat="30.07168" lon="100.753644">
<time>2015-08-06T04:13:05Z</time></trkpt>
<trkpt lat="30.07173" lon="100.753464">
<time>2015-08-06T04:13:06Z</time></trkpt>
<trkpt lat="30.07176" lon="100.753314">
<time>2015-08-06T04:13:07Z</time></trkpt>
<trkpt lat="30.07177" lon="100.753134">
<time>2015-08-06T04:13:08Z</time></trkpt>
<trkpt lat="30.07176" lon="100.752994">
<time>2015-08-06T04:13:09Z</time></trkpt>
<trkpt lat="30.07176" lon="100.752844">
<time>2015-08-06T04:13:10Z</time></trkpt>
<trkpt lat="30.07168" lon="100.752454">
<time>2015-08-06T04:13:11Z</time></trkpt>
<trkpt lat="30.07162" lon="100.752195">
<time>2015-08-06T04:13:12Z</time></trkpt>
<trkpt lat="30.07154" lon="100.751925">
<time>2015-08-06T04:13:13Z</time></trkpt>
<trkpt lat="30.07148" lon="100.751745">
<time>2015-08-06T04:13:14Z</time></trkpt>
<trkpt lat="30.07132" lon="100.751285">
<time>2015-08-06T04:13:15Z</time></trkpt>
<trkpt lat="30.07129" lon="100.751145">
<time>2015-08-06T04:13:16Z</time></trkpt>
<trkpt lat="30.07127" lon="100.751005">
<time>2015-08-06T04:13:17Z</time></trkpt>
<trkpt lat="30.07127" lon="100.750875">
<time>2015-08-06T04:13:18Z</time></trkpt>
<trkpt lat="30.07127" lon="100.750745">
<time>2015-08-06T04:13:19Z</time></trkpt>
<trkpt lat="30.07129" lon="100.750635">
<time>2015-08-06T04:13:20Z</time></trkpt>
<trkpt lat="30.07132" lon="100.750525">
<time>2015-08-06T04:13:21Z</time></trkpt>
<trkpt lat="30.07135" lon="100.750425">
<time>2015-08-06T04:13:22Z</time></trkpt>
<trkpt lat="30.07145" lon="100.750185">
<time>2015-08-06T04:13:23Z</time></trkpt>
<trkpt lat="30.07151" lon="100.750045">
<time>2015-08-06T04:13:24Z</time></trkpt>
<trkpt lat="30.07164" lon="100.749716">
<time>2015-08-06T04:13:25Z</time></trkpt>
<trkpt lat="30.07174" lon="100.749496">
<time>2015-08-06T04:13:26Z</time></trkpt>
<trkpt lat="30.07182" lon="100.749306">
<time>2015-08-06T04:13:27Z</time></trkpt>
<trkpt lat="30.07187" lon="100.749206">
<time>2015-08-06T04:13:28Z</time></trkpt>
<trkpt lat="30.07195" lon="100.749066">
<time>2015-08-06T04:13:29Z</time></trkpt>
<trkpt lat="30.07206" lon="100.748886">
<time>2015-08-06T04:13:30Z</time></trkpt>
<trkpt lat="30.0721" lon="100.748796">
<time>2015-08-06T04:13:31Z</time></trkpt>
<trkpt lat="30.07215" lon="100.748716">
<time>2015-08-06T04:13:32Z</time></trkpt>
<trkpt lat="30.07219" lon="100.748626">
<time>2015-08-06T04:13:33Z</time></trkpt>
<trkpt lat="30.07223" lon="100.748546">
<time>2015-08-06T04:13:34Z</time></trkpt>
<trkpt lat="30.07226" lon="100.748456">
<time>2015-08-06T04:13:35Z</time></trkpt>
<trkpt lat="30.07229" lon="100.748316">
<time>2015-08-06T04:13:36Z</time></trkpt>
<trkpt lat="30.07233" lon="100.748096">
<time>2015-08-06T04:13:37Z</time></trkpt>
<trkpt lat="30.07236" lon="100.747837">
<time>2015-08-06T04:13:38Z</time></trkpt>
<trkpt lat="30.07238" lon="100.747727">
<time>2015-08-06T04:13:39Z</time></trkpt>
<trkpt lat="30.07242" lon="100.747577">
<time>2015-08-06T04:13:40Z</time></trkpt>
<trkpt lat="30.07245" lon="100.747467">
<time>2015-08-06T04:13:41Z</time></trkpt>
<trkpt lat="30.07251" lon="100.747307">
<time>2015-08-06T04:13:42Z</time></trkpt>
<trkpt lat="30.07259" lon="100.747147">
<time>2015-08-06T04:13:43Z</time></trkpt>
<trkpt lat="30.07267" lon="100.747007">
<time>2015-08-06T04:13:44Z</time></trkpt>
<trkpt lat="30.07272" lon="100.746917">
<time>2015-08-06T04:13:45Z</time></trkpt>
<trkpt lat="30.07277" lon="100.746837">
<time>2015-08-06T04:13:46Z</time></trkpt>
<trkpt lat="30.07288" lon="100.746657">
<time>2015-08-06T04:13:47Z</time></trkpt>
<trkpt lat="30.07298" lon="100.746487">
<time>2015-08-06T04:13:48Z</time></trkpt>
<trkpt lat="30.07305" lon="100.746358">
<time>2015-08-06T04:13:49Z</time></trkpt>
<trkpt lat="30.07309" lon="100.746268">
<time>2015-08-06T04:13:50Z</time></trkpt>
<trkpt lat="30.07315" lon="100.746138">
<time>2015-08-06T04:13:51Z</time></trkpt>
<trkpt lat="30.07321" lon="100.745988">
<time>2015-08-06T04:13:52Z</time></trkpt>
<trkpt lat="30.07329" lon="100.745808">
<time>2015-08-06T04:13:53Z</time></trkpt>
<trkpt lat="30.07335" lon="100.745688">
<time>2015-08-06T04:13:54Z</time></trkpt>
<trkpt lat="30.07341" lon="100.745598">
<time>2015-08-06T04:13:55Z</time></trkpt>
<trkpt lat="30.07349" lon="100.745488">
<time>2015-08-06T04:13:56Z</time></trkpt>
<trkpt lat="30.07355" lon="100.745428">
<time>2015-08-06T04:13:57Z</time></trkpt>
<trkpt lat="30.07363" lon="100.745368">
<time>2015-08-06T04:13:58Z</time></trkpt>
<trkpt lat="30.07368" lon="100.745338">
<time>2015-08-06T04:13:59Z</time></trkpt>
<trkpt lat="30.07377" lon="100.745268">
<time>2015-08-06T04:14:00Z</time></trkpt>
<trkpt lat="30.07386" lon="100.745238">
<time>2015-08-06T04:14:01Z</time></trkpt>
<trkpt lat="30.07403" lon="100.745168">
<time>2015-08-06T04:14:02Z</time></trkpt>
<trkpt lat="30.07426" lon="100.745088">
<time>2015-08-06T04:14:03Z</time></trkpt>
<trkpt lat="30.07452" lon="100.744998">
<time>2015-08-06T04:14:04Z</time></trkpt>
<trkpt lat="30.07469" lon="100.744928">
<time>2015-08-06T04:14:05Z</time></trkpt>
<trkpt lat="30.07478" lon="100.744878">
<time>2015-08-06T04:14:06Z</time></trkpt>
<trkpt lat="30.07482" lon="100.744848">
<time>2015-08-06T04:14:07Z</time></trkpt>
<trkpt lat="30.07486" lon="100.744818">
<time>2015-08-06T04:14:08Z</time></trkpt>
<trkpt lat="30.07489" lon="100.744789">
<time>2015-08-06T04:14:09Z</time></trkpt>
<trkpt lat="30.07492" lon="100.744749">
<time>2015-08-06T04:14:10Z</time></trkpt>
<trkpt lat="30.07495" lon="100.744709">
<time>2015-08-06T04:14:11Z</time></trkpt>
<trkpt lat="30.07498" lon="100.744669">
<time>2015-08-06T04:14:12Z</time></trkpt>
<trkpt lat="30.075" lon="100.744629">
<time>2015-08-06T04:14:13Z</time></trkpt>
<trkpt lat="30.07502" lon="100.744599">
<time>2015-08-06T04:14:14Z</time></trkpt>
<trkpt lat="30.07503" lon="100.744559">
<time>2015-08-06T04:14:15Z</time></trkpt>
<trkpt lat="30.07504" lon="100.744519">
<time>2015-08-06T04:14:16Z</time></trkpt>
<trkpt lat="30.07505" lon="100.744469">
<time>2015-08-06T04:14:17Z</time></trkpt>
<trkpt lat="30.07505" lon="100.744399">
<time>2015-08-06T04:14:18Z</time></trkpt>
<trkpt lat="30.07505" lon="100.744329">
<time>2015-08-06T04:14:19Z</time></trkpt>
<trkpt lat="30.07504" lon="100.744249">
<time>2015-08-06T04:14:20Z</time></trkpt>
<trkpt lat="30.07502" lon="100.744159">
<time>2015-08-06T04:14:21Z</time></trkpt>
<trkpt lat="30.074991" lon="100.743999">
<time>2015-08-06T04:14:22Z</time></trkpt>
<trkpt lat="30.074941" lon="100.743829">
<time>2015-08-06T04:14:23Z</time></trkpt>
<trkpt lat="30.074871" lon="100.743569">
<time>2015-08-06T04:14:24Z</time></trkpt>
<trkpt lat="30.074811" lon="100.74334">
<time>2015-08-06T04:14:25Z</time></trkpt>
<trkpt lat="30.074771" lon="100.74316">
<time>2015-08-06T04:14:26Z</time></trkpt>
<trkpt lat="30.074741" lon="100.74305">
<time>2015-08-06T04:14:27Z</time></trkpt>
<trkpt lat="30.074731" lon="100.74295">
<time>2015-08-06T04:14:28Z</time></trkpt>
<trkpt lat="30.074721" lon="100.74285">
<time>2015-08-06T04:14:29Z</time></trkpt>
<trkpt lat="30.074721" lon="100.74273">
<time>2015-08-06T04:14:30Z</time></trkpt>
<trkpt lat="30.074721" lon="100.74256">
<time>2015-08-06T04:14:31Z</time></trkpt>
<trkpt lat="30.074731" lon="100.74236">
<time>2015-08-06T04:14:32Z</time></trkpt>
<trkpt lat="30.074741" lon="100.74222">
<time>2015-08-06T04:14:33Z</time></trkpt>
<trkpt lat="30.074771" lon="100.742101">
<time>2015-08-06T04:14:34Z</time></trkpt>
<trkpt lat="30.074791" lon="100.741981">
<time>2015-08-06T04:14:35Z</time></trkpt>
<trkpt lat="30.074821" lon="100.741911">
<time>2015-08-06T04:14:36Z</time></trkpt>
<trkpt lat="30.074841" lon="100.741841">
<time>2015-08-06T04:14:37Z</time></trkpt>
<trkpt lat="30.074991" lon="100.741481">
<time>2015-08-06T04:14:38Z</time></trkpt>
<trkpt lat="30.075021" lon="100.741421">
<time>2015-08-06T04:14:39Z</time></trkpt>
<trkpt lat="30.075051" lon="100.741371">
<time>2015-08-06T04:14:40Z</time></trkpt>
<trkpt lat="30.075081" lon="100.741321">
<time>2015-08-06T04:14:41Z</time></trkpt>
<trkpt lat="30.075111" lon="100.741281">
<time>2015-08-06T04:14:42Z</time></trkpt>
<trkpt lat="30.075141" lon="100.741241">
<time>2015-08-06T04:14:43Z</time></trkpt>
<trkpt lat="30.075181" lon="100.741211">
<time>2015-08-06T04:14:44Z</time></trkpt>
<trkpt lat="30.075231" lon="100.741181">
<time>2015-08-06T04:14:45Z</time></trkpt>
<trkpt lat="30.075271" lon="100.741151">
<time>2015-08-06T04:14:46Z</time></trkpt>
<trkpt lat="30.075311" lon="100.741141">
<time>2015-08-06T04:14:47Z</time></trkpt>
<trkpt lat="30.075361" lon="100.741121">
<time>2015-08-06T04:14:48Z</time></trkpt>
<trkpt lat="30.075391" lon="100.741111">
<time>2015-08-06T04:14:49Z</time></trkpt>
<trkpt lat="30.075441" lon="100.741111">
<time>2015-08-06T04:14:50Z</time></trkpt>
<trkpt lat="30.075501" lon="100.741111">
<time>2015-08-06T04:14:51Z</time></trkpt>
<trkpt lat="30.075581" lon="100.741121">
<time>2015-08-06T04:14:52Z</time></trkpt>
<trkpt lat="30.075741" lon="100.741151">
<time>2015-08-06T04:14:53Z</time></trkpt>
<trkpt lat="30.075971" lon="100.741211">
<time>2015-08-06T04:14:54Z</time></trkpt>
<trkpt lat="30.076141" lon="100.741261">
<time>2015-08-06T04:14:55Z</time></trkpt>
<trkpt lat="30.076231" lon="100.741281">
<time>2015-08-06T04:14:56Z</time></trkpt>
<trkpt lat="30.076291" lon="100.741281">
<time>2015-08-06T04:14:57Z</time></trkpt>
<trkpt lat="30.076361" lon="100.741281">
<time>2015-08-06T04:14:58Z</time></trkpt>
<trkpt lat="30.076461" lon="100.741261">
<time>2015-08-06T04:14:59Z</time></trkpt>
<trkpt lat="30.076541" lon="100.741241">
<time>2015-08-06T04:15:00Z</time></trkpt>
<trkpt lat="30.076641" lon="100.741191">
<time>2015-08-06T04:15:01Z</time></trkpt>
<trkpt lat="30.076751" lon="100.741131">
<time>2015-08-06T04:15:02Z</time></trkpt>
<trkpt lat="30.076841" lon="100.741071">
<time>2015-08-06T04:15:03Z</time></trkpt>
<trkpt lat="30.076961" lon="100.740961">
<time>2015-08-06T04:15:04Z</time></trkpt>
<trkpt lat="30.077031" lon="100.740872">
<time>2015-08-06T04:15:05Z</time></trkpt>
<trkpt lat="30.077171" lon="100.740712">
<time>2015-08-06T04:15:06Z</time></trkpt>
<trkpt lat="30.077482" lon="100.740272">
<time>2015-08-06T04:15:07Z</time></trkpt>
<trkpt lat="30.077732" lon="100.739932">
<time>2015-08-06T04:15:08Z</time></trkpt>
<trkpt lat="30.077792" lon="100.739872">
<time>2015-08-06T04:15:09Z</time></trkpt>
<trkpt lat="30.077872" lon="100.739802">
<time>2015-08-06T04:15:10Z</time></trkpt>
<trkpt lat="30.077942" lon="100.739753">
<time>2015-08-06T04:15:11Z</time></trkpt>
<trkpt lat="30.078032" lon="100.739703">
<time>2015-08-06T04:15:12Z</time></trkpt>
<trkpt lat="30.078142" lon="100.739653">
<time>2015-08-06T04:15:13Z</time></trkpt>
<trkpt lat="30.078282" lon="100.739603">
<time>2015-08-06T04:15:14Z</time></trkpt>
<trkpt lat="30.078442" lon="100.739573">
<time>2015-08-06T04:15:15Z</time></trkpt>
<trkpt lat="30.078602" lon="100.739543">
<time>2015-08-06T04:15:16Z</time></trkpt>
<trkpt lat="30.078712" lon="100.739533">
<time>2015-08-06T04:15:17Z</time></trkpt>
<trkpt lat="30.078822" lon="100.739533">
<time>2015-08-06T04:15:18Z</time></trkpt>
<trkpt lat="30.078922" lon="100.739533">
<time>2015-08-06T04:15:19Z</time></trkpt>
<trkpt lat="30.079012" lon="100.739553">
<time>2015-08-06T04:15:20Z</time></trkpt>
<trkpt lat="30.079152" lon="100.739573">
<time>2015-08-06T04:15:21Z</time></trkpt>
<trkpt lat="30.079282" lon="100.739603">
<time>2015-08-06T04:15:22Z</time></trkpt>
<trkpt lat="30.079372" lon="100.739633">
<time>2015-08-06T04:15:23Z</time></trkpt>
<trkpt lat="30.079472" lon="100.739673">
<time>2015-08-06T04:15:24Z</time></trkpt>
<trkpt lat="30.079562" lon="100.739713">
<time>2015-08-06T04:15:25Z</time></trkpt>
<trkpt lat="30.079702" lon="100.739762">
<time>2015-08-06T04:15:26Z</time></trkpt>
<trkpt lat="30.079872" lon="100.739812">
<time>2015-08-06T04:15:27Z</time></trkpt>
<trkpt lat="30.079962" lon="100.739842">
<time>2015-08-06T04:15:28Z</time></trkpt>
<trkpt lat="30.080052" lon="100.739852">
<time>2015-08-06T04:15:29Z</time></trkpt>
<trkpt lat="30.080122" lon="100.739862">
<time>2015-08-06T04:15:30Z</time></trkpt>
<trkpt lat="30.080192" lon="100.739862">
<time>2015-08-06T04:15:31Z</time></trkpt>
<trkpt lat="30.080242" lon="100.739862">
<time>2015-08-06T04:15:32Z</time></trkpt>
<trkpt lat="30.080352" lon="100.739852">
<time>2015-08-06T04:15:33Z</time></trkpt>
<trkpt lat="30.080582" lon="100.739822">
<time>2015-08-06T04:15:34Z</time></trkpt>
<trkpt lat="30.080862" lon="100.739782">
<time>2015-08-06T04:15:35Z</time></trkpt>
<trkpt lat="30.080972" lon="100.739772">
<time>2015-08-06T04:15:36Z</time></trkpt>
<trkpt lat="30.081432" lon="100.739772">
<time>2015-08-06T04:15:37Z</time></trkpt>
<trkpt lat="30.081692" lon="100.739772">
<time>2015-08-06T04:15:38Z</time></trkpt>
<trkpt lat="30.081882" lon="100.739752">
<time>2015-08-06T04:15:39Z</time></trkpt>
<trkpt lat="30.081992" lon="100.739732">
<time>2015-08-06T04:15:40Z</time></trkpt>
<trkpt lat="30.082072" lon="100.739712">
<time>2015-08-06T04:15:41Z</time></trkpt>
<trkpt lat="30.082172" lon="100.739672">
<time>2015-08-06T04:15:42Z</time></trkpt>
<trkpt lat="30.082272" lon="100.739623">
<time>2015-08-06T04:15:43Z</time></trkpt>
<trkpt lat="30.082392" lon="100.739553">
<time>2015-08-06T04:15:44Z</time></trkpt>
<trkpt lat="30.082642" lon="100.739383">
<time>2015-08-06T04:15:45Z</time></trkpt>
<trkpt lat="30.082892" lon="100.739223">
<time>2015-08-06T04:15:46Z</time></trkpt>
<trkpt lat="30.082972" lon="100.739153">
<time>2015-08-06T04:15:47Z</time></trkpt>
<trkpt lat="30.083022" lon="100.739103">
<time>2015-08-06T04:15:48Z</time></trkpt>
<trkpt lat="30.083062" lon="100.739053">
<time>2015-08-06T04:15:49Z</time></trkpt>
<trkpt lat="30.083092" lon="100.739013">
<time>2015-08-06T04:15:50Z</time></trkpt>
<trkpt lat="30.083122" lon="100.738963">
<time>2015-08-06T04:15:51Z</time></trkpt>
<trkpt lat="30.083142" lon="100.738903">
<time>2015-08-06T04:15:52Z</time></trkpt>
<trkpt lat="30.083162" lon="100.738843">
<time>2015-08-06T04:15:53Z</time></trkpt>
<trkpt lat="30.083172" lon="100.738753">
<time>2015-08-06T04:15:54Z</time></trkpt>
<trkpt lat="30.083172" lon="100.738683">
<time>2015-08-06T04:15:55Z</time></trkpt>
<trkpt lat="30.083162" lon="100.738583">
<time>2015-08-06T04:15:56Z</time></trkpt>
<trkpt lat="30.083142" lon="100.738504">
<time>2015-08-06T04:15:57Z</time></trkpt>
<trkpt lat="30.083112" lon="100.738434">
<time>2015-08-06T04:15:58Z</time></trkpt>
<trkpt lat="30.083062" lon="100.738334">
<time>2015-08-06T04:15:59Z</time></trkpt>
<trkpt lat="30.082982" lon="100.738204">
<time>2015-08-06T04:16:00Z</time></trkpt>
<trkpt lat="30.082892" lon="100.738044">
<time>2015-08-06T04:16:01Z</time></trkpt>
<trkpt lat="30.082772" lon="100.737834">
<time>2015-08-06T04:16:02Z</time></trkpt>
<trkpt lat="30.082713" lon="100.737724">
<time>2015-08-06T04:16:03Z</time></trkpt>
<trkpt lat="30.082673" lon="100.737604">
<time>2015-08-06T04:16:04Z</time></trkpt>
<trkpt lat="30.082643" lon="100.737495">
<time>2015-08-06T04:16:05Z</time></trkpt>
<trkpt lat="30.082613" lon="100.737375">
<time>2015-08-06T04:16:06Z</time></trkpt>
<trkpt lat="30.082593" lon="100.737235">
<time>2015-08-06T04:16:07Z</time></trkpt>
<trkpt lat="30.082583" lon="100.737105">
<time>2015-08-06T04:16:08Z</time></trkpt>
<trkpt lat="30.082573" lon="100.736975">
<time>2015-08-06T04:16:09Z</time></trkpt>
<trkpt lat="30.082583" lon="100.736845">
<time>2015-08-06T04:16:10Z</time></trkpt>
<trkpt lat="30.082593" lon="100.736675">
<time>2015-08-06T04:16:11Z</time></trkpt>
<trkpt lat="30.082633" lon="100.736466">
<time>2015-08-06T04:16:12Z</time></trkpt>
<trkpt lat="30.082663" lon="100.736296">
<time>2015-08-06T04:16:13Z</time></trkpt>
<trkpt lat="30.082733" lon="100.735976">
<time>2015-08-06T04:16:14Z</time></trkpt>
<trkpt lat="30.082884" lon="100.735417">
<time>2015-08-06T04:16:15Z</time></trkpt>
<trkpt lat="30.083084" lon="100.734698">
<time>2015-08-06T04:16:16Z</time></trkpt>
<trkpt lat="30.083174" lon="100.734358">
<time>2015-08-06T04:16:17Z</time></trkpt>
<trkpt lat="30.083274" lon="100.733968">
<time>2015-08-06T04:16:18Z</time></trkpt>
<trkpt lat="30.083375" lon="100.733599">
<time>2015-08-06T04:16:19Z</time></trkpt>
<trkpt lat="30.083455" lon="100.733279">
<time>2015-08-06T04:16:20Z</time></trkpt>
<trkpt lat="30.083685" lon="100.73258">
<time>2015-08-06T04:16:21Z</time></trkpt>
<trkpt lat="30.083946" lon="100.731771">
<time>2015-08-06T04:16:22Z</time></trkpt>
<trkpt lat="30.084136" lon="100.731182">
<time>2015-08-06T04:16:23Z</time></trkpt>
<trkpt lat="30.084357" lon="100.730473">
<time>2015-08-06T04:16:24Z</time></trkpt>
<trkpt lat="30.084547" lon="100.729893">
<time>2015-08-06T04:16:25Z</time></trkpt>
<trkpt lat="30.084737" lon="100.729304">
<time>2015-08-06T04:16:26Z</time></trkpt>
<trkpt lat="30.084888" lon="100.728805">
<time>2015-08-06T04:16:27Z</time></trkpt>
<trkpt lat="30.084968" lon="100.728525">
<time>2015-08-06T04:16:28Z</time></trkpt>
<trkpt lat="30.085028" lon="100.728296">
<time>2015-08-06T04:16:29Z</time></trkpt>
<trkpt lat="30.085058" lon="100.728146">
<time>2015-08-06T04:16:30Z</time></trkpt>
<trkpt lat="30.085068" lon="100.728036">
<time>2015-08-06T04:16:31Z</time></trkpt>
<trkpt lat="30.085069" lon="100.727856">
<time>2015-08-06T04:16:32Z</time></trkpt>
<trkpt lat="30.085049" lon="100.727697">
<time>2015-08-06T04:16:33Z</time></trkpt>
<trkpt lat="30.085019" lon="100.727527">
<time>2015-08-06T04:16:34Z</time></trkpt>
<trkpt lat="30.084989" lon="100.727377">
<time>2015-08-06T04:16:35Z</time></trkpt>
<trkpt lat="30.084949" lon="100.727237">
<time>2015-08-06T04:16:36Z</time></trkpt>
<trkpt lat="30.08478" lon="100.726628">
<time>2015-08-06T04:16:37Z</time></trkpt>
<trkpt lat="30.08467" lon="100.726209">
<time>2015-08-06T04:16:38Z</time></trkpt>
<trkpt lat="30.08464" lon="100.726029">
<time>2015-08-06T04:16:39Z</time></trkpt>
<trkpt lat="30.08462" lon="100.725869">
<time>2015-08-06T04:16:40Z</time></trkpt>
<trkpt lat="30.08461" lon="100.725729">
<time>2015-08-06T04:16:41Z</time></trkpt>
<trkpt lat="30.08462" lon="100.72551">
<time>2015-08-06T04:16:42Z</time></trkpt>
<trkpt lat="30.084641" lon="100.72523">
<time>2015-08-06T04:16:43Z</time></trkpt>
<trkpt lat="30.084671" lon="100.72501">
<time>2015-08-06T04:16:44Z</time></trkpt>
<trkpt lat="30.084721" lon="100.724661">
<time>2015-08-06T04:16:45Z</time></trkpt>
<trkpt lat="30.084761" lon="100.724471">
<time>2015-08-06T04:16:46Z</time></trkpt>
<trkpt lat="30.084812" lon="100.724232">
<time>2015-08-06T04:16:47Z</time></trkpt>
<trkpt lat="30.084872" lon="100.724012">
<time>2015-08-06T04:16:48Z</time></trkpt>
<trkpt lat="30.084912" lon="100.723882">
<time>2015-08-06T04:16:49Z</time></trkpt>
<trkpt lat="30.084972" lon="100.723762">
<time>2015-08-06T04:16:50Z</time></trkpt>
<trkpt lat="30.085022" lon="100.723653">
<time>2015-08-06T04:16:51Z</time></trkpt>
<trkpt lat="30.085092" lon="100.723543">
<time>2015-08-06T04:16:52Z</time></trkpt>
<trkpt lat="30.085192" lon="100.723413">
<time>2015-08-06T04:16:53Z</time></trkpt>
<trkpt lat="30.085302" lon="100.723273">
<time>2015-08-06T04:16:54Z</time></trkpt>
<trkpt lat="30.085483" lon="100.723083">
<time>2015-08-06T04:16:55Z</time></trkpt>
<trkpt lat="30.085863" lon="100.722704">
<time>2015-08-06T04:16:56Z</time></trkpt>
<trkpt lat="30.086153" lon="100.722424">
<time>2015-08-06T04:16:57Z</time></trkpt>
<trkpt lat="30.086404" lon="100.722175">
<time>2015-08-06T04:16:58Z</time></trkpt>
<trkpt lat="30.086744" lon="100.721835">
<time>2015-08-06T04:16:59Z</time></trkpt>
<trkpt lat="30.087004" lon="100.721566">
<time>2015-08-06T04:17:00Z</time></trkpt>
<trkpt lat="30.087324" lon="100.721256">
<time>2015-08-06T04:17:01Z</time></trkpt>
<trkpt lat="30.087575" lon="100.720987">
<time>2015-08-06T04:17:02Z</time></trkpt>
<trkpt lat="30.087655" lon="100.720907">
<time>2015-08-06T04:17:03Z</time></trkpt>
<trkpt lat="30.087835" lon="100.720727">
<time>2015-08-06T04:17:04Z</time></trkpt>
<trkpt lat="30.088235" lon="100.720358">
<time>2015-08-06T04:17:05Z</time></trkpt>
<trkpt lat="30.088375" lon="100.720238">
<time>2015-08-06T04:17:06Z</time></trkpt>
<trkpt lat="30.088496" lon="100.720158">
<time>2015-08-06T04:17:07Z</time></trkpt>
<trkpt lat="30.088646" lon="100.720088">
<time>2015-08-06T04:17:08Z</time></trkpt>
<trkpt lat="30.088716" lon="100.720048">
<time>2015-08-06T04:17:09Z</time></trkpt>
<trkpt lat="30.088786" lon="100.720028">
<time>2015-08-06T04:17:10Z</time></trkpt>
<trkpt lat="30.088836" lon="100.720008">
<time>2015-08-06T04:17:11Z</time></trkpt>
<trkpt lat="30.089156" lon="100.719939">
<time>2015-08-06T04:17:12Z</time></trkpt>
<trkpt lat="30.089516" lon="100.719879">
<time>2015-08-06T04:17:13Z</time></trkpt>
<trkpt lat="30.089966" lon="100.719799">
<time>2015-08-06T04:17:14Z</time></trkpt>
<trkpt lat="30.090256" lon="100.719739">
<time>2015-08-06T04:17:15Z</time></trkpt>
<trkpt lat="30.090416" lon="100.719699">
<time>2015-08-06T04:17:16Z</time></trkpt>
<trkpt lat="30.090546" lon="100.719659">
<time>2015-08-06T04:17:17Z</time></trkpt>
<trkpt lat="30.090666" lon="100.719609">
<time>2015-08-06T04:17:18Z</time></trkpt>
<trkpt lat="30.090726" lon="100.719579">
<time>2015-08-06T04:17:19Z</time></trkpt>
<trkpt lat="30.090786" lon="100.719539">
<time>2015-08-06T04:17:20Z</time></trkpt>
<trkpt lat="30.090886" lon="100.719479">
<time>2015-08-06T04:17:21Z</time></trkpt>
<trkpt lat="30.091036" lon="100.719389">
<time>2015-08-06T04:17:22Z</time></trkpt>
<trkpt lat="30.091217" lon="100.71928">
<time>2015-08-06T04:17:23Z</time></trkpt>
<trkpt lat="30.091417" lon="100.71915">
<time>2015-08-06T04:17:24Z</time></trkpt>
<trkpt lat="30.091527" lon="100.71909">
<time>2015-08-06T04:17:25Z</time></trkpt>
<trkpt lat="30.091657" lon="100.719">
<time>2015-08-06T04:17:26Z</time></trkpt>
<trkpt lat="30.091757" lon="100.71894">
<time>2015-08-06T04:17:27Z</time></trkpt>
<trkpt lat="30.091867" lon="100.71885">
<time>2015-08-06T04:17:28Z</time></trkpt>
<trkpt lat="30.091957" lon="100.71878">
<time>2015-08-06T04:17:29Z</time></trkpt>
<trkpt lat="30.092227" lon="100.718541">
<time>2015-08-06T04:17:30Z</time></trkpt>
<trkpt lat="30.092407" lon="100.718381">
<time>2015-08-06T04:17:31Z</time></trkpt>
<trkpt lat="30.092558" lon="100.718251">
<time>2015-08-06T04:17:32Z</time></trkpt>
<trkpt lat="30.092768" lon="100.718052">
<time>2015-08-06T04:17:33Z</time></trkpt>
<trkpt lat="30.093338" lon="100.717543">
<time>2015-08-06T04:17:34Z</time></trkpt>
<trkpt lat="30.093549" lon="100.717363">
<time>2015-08-06T04:17:35Z</time></trkpt>
<trkpt lat="30.093799" lon="100.717133">
<time>2015-08-06T04:17:36Z</time></trkpt>
<trkpt lat="30.094189" lon="100.716804">
<time>2015-08-06T04:17:37Z</time></trkpt>
<trkpt lat="30.094309" lon="100.716714">
<time>2015-08-06T04:17:38Z</time></trkpt>
<trkpt lat="30.094439" lon="100.716634">
<time>2015-08-06T04:17:39Z</time></trkpt>
<trkpt lat="30.09459" lon="100.716564">
<time>2015-08-06T04:17:40Z</time></trkpt>
<trkpt lat="30.09469" lon="100.716534">
<time>2015-08-06T04:17:41Z</time></trkpt>
<trkpt lat="30.09477" lon="100.716514">
<time>2015-08-06T04:17:42Z</time></trkpt>
<trkpt lat="30.09489" lon="100.716494">
<time>2015-08-06T04:17:43Z</time></trkpt>
<trkpt lat="30.09501" lon="100.716494">
<time>2015-08-06T04:17:44Z</time></trkpt>
<trkpt lat="30.09512" lon="100.716494">
<time>2015-08-06T04:17:45Z</time></trkpt>
<trkpt lat="30.09519" lon="100.716504">
<time>2015-08-06T04:17:46Z</time></trkpt>
<trkpt lat="30.09524" lon="100.716514">
<time>2015-08-06T04:17:47Z</time></trkpt>
<trkpt lat="30.09532" lon="100.716534">
<time>2015-08-06T04:17:48Z</time></trkpt>
<trkpt lat="30.09547" lon="100.716564">
<time>2015-08-06T04:17:49Z</time></trkpt>
<trkpt lat="30.095749" lon="100.716644">
<time>2015-08-06T04:17:50Z</time></trkpt>
<trkpt lat="30.096409" lon="100.716844">
<time>2015-08-06T04:17:51Z</time></trkpt>
<trkpt lat="30.097079" lon="100.717043">
<time>2015-08-06T04:17:52Z</time></trkpt>
<trkpt lat="30.097639" lon="100.717223">
<time>2015-08-06T04:17:53Z</time></trkpt>
<trkpt lat="30.097989" lon="100.717333">
<time>2015-08-06T04:17:54Z</time></trkpt>
<trkpt lat="30.098279" lon="100.717413">
<time>2015-08-06T04:17:55Z</time></trkpt>
<trkpt lat="30.098399" lon="100.717443">
<time>2015-08-06T04:17:56Z</time></trkpt>
<trkpt lat="30.098569" lon="100.717493">
<time>2015-08-06T04:17:57Z</time></trkpt>
<trkpt lat="30.098698" lon="100.717523">
<time>2015-08-06T04:17:58Z</time></trkpt>
<trkpt lat="30.098818" lon="100.717542">
<time>2015-08-06T04:17:59Z</time></trkpt>
<trkpt lat="30.098928" lon="100.717562">
<time>2015-08-06T04:18:00Z</time></trkpt>
<trkpt lat="30.099048" lon="100.717572">
<time>2015-08-06T04:18:01Z</time></trkpt>
<trkpt lat="30.099218" lon="100.717582">
<time>2015-08-06T04:18:02Z</time></trkpt>
<trkpt lat="30.099668" lon="100.717592">
<time>2015-08-06T04:18:03Z</time></trkpt>
<trkpt lat="30.100058" lon="100.717592">
<time>2015-08-06T04:18:04Z</time></trkpt>
<trkpt lat="30.100258" lon="100.717592">
<time>2015-08-06T04:18:05Z</time></trkpt>
<trkpt lat="30.100398" lon="100.717602">
<time>2015-08-06T04:18:06Z</time></trkpt>
<trkpt lat="30.100558" lon="100.717622">
<time>2015-08-06T04:18:07Z</time></trkpt>
<trkpt lat="30.100798" lon="100.717652">
<time>2015-08-06T04:18:08Z</time></trkpt>
<trkpt lat="30.101158" lon="100.717702">
<time>2015-08-06T04:18:09Z</time></trkpt>
<trkpt lat="30.101368" lon="100.717712">
<time>2015-08-06T04:18:10Z</time></trkpt>
<trkpt lat="30.101448" lon="100.717712">
<time>2015-08-06T04:18:11Z</time></trkpt>
<trkpt lat="30.101508" lon="100.717702">
<time>2015-08-06T04:18:12Z</time></trkpt>
<trkpt lat="30.101578" lon="100.717672">
<time>2015-08-06T04:18:13Z</time></trkpt>
<trkpt lat="30.101638" lon="100.717632">
<time>2015-08-06T04:18:14Z</time></trkpt>
<trkpt lat="30.101708" lon="100.717572">
<time>2015-08-06T04:18:15Z</time></trkpt>
<trkpt lat="30.101769" lon="100.717482">
<time>2015-08-06T04:18:16Z</time></trkpt>
<trkpt lat="30.101819" lon="100.717403">
<time>2015-08-06T04:18:17Z</time></trkpt>
<trkpt lat="30.101859" lon="100.717313">
<time>2015-08-06T04:18:18Z</time></trkpt>
<trkpt lat="30.101979" lon="100.717043">
<time>2015-08-06T04:18:19Z</time></trkpt>
<trkpt lat="30.102049" lon="100.716904">
<time>2015-08-06T04:18:20Z</time></trkpt>
<trkpt lat="30.102119" lon="100.716794">
<time>2015-08-06T04:18:21Z</time></trkpt>
<trkpt lat="30.102179" lon="100.716714">
<time>2015-08-06T04:18:22Z</time></trkpt>
<trkpt lat="30.102239" lon="100.716654">
<time>2015-08-06T04:18:23Z</time></trkpt>
<trkpt lat="30.1023" lon="100.716604">
<time>2015-08-06T04:18:24Z</time></trkpt>
<trkpt lat="30.1024" lon="100.716544">
<time>2015-08-06T04:18:25Z</time></trkpt>
<trkpt lat="30.10249" lon="100.716504">
<time>2015-08-06T04:18:26Z</time></trkpt>
<trkpt lat="30.1026" lon="100.716474">
<time>2015-08-06T04:18:27Z</time></trkpt>
<trkpt lat="30.10268" lon="100.716464">
<time>2015-08-06T04:18:28Z</time></trkpt>
<trkpt lat="30.10275" lon="100.716464">
<time>2015-08-06T04:18:29Z</time></trkpt>
<trkpt lat="30.10289" lon="100.716474">
<time>2015-08-06T04:18:30Z</time></trkpt>
<trkpt lat="30.10297" lon="100.716484">
<time>2015-08-06T04:18:31Z</time></trkpt>
<trkpt lat="30.10304" lon="100.716484">
<time>2015-08-06T04:18:32Z</time></trkpt>
<trkpt lat="30.10349" lon="100.716554">
<time>2015-08-06T04:18:33Z</time></trkpt>
<trkpt lat="30.10386" lon="100.716614">
<time>2015-08-06T04:18:34Z</time></trkpt>
<trkpt lat="30.10403" lon="100.716624">
<time>2015-08-06T04:18:35Z</time></trkpt>
<trkpt lat="30.10411" lon="100.716624">
<time>2015-08-06T04:18:36Z</time></trkpt>
<trkpt lat="30.1042" lon="100.716604">
<time>2015-08-06T04:18:37Z</time></trkpt>
<trkpt lat="30.10429" lon="100.716564">
<time>2015-08-06T04:18:38Z</time></trkpt>
<trkpt lat="30.10439" lon="100.716494">
<time>2015-08-06T04:18:39Z</time></trkpt>
<trkpt lat="30.10452" lon="100.716394">
<time>2015-08-06T04:18:40Z</time></trkpt>
<trkpt lat="30.10468" lon="100.716265">
<time>2015-08-06T04:18:41Z</time></trkpt>
<trkpt lat="30.10475" lon="100.716215">
<time>2015-08-06T04:18:42Z</time></trkpt>
<trkpt lat="30.10479" lon="100.716195">
<time>2015-08-06T04:18:43Z</time></trkpt>
<trkpt lat="30.10487" lon="100.716145">
<time>2015-08-06T04:18:44Z</time></trkpt>
<trkpt lat="30.10494" lon="100.716115">
<time>2015-08-06T04:18:45Z</time></trkpt>
<trkpt lat="30.105" lon="100.716095">
<time>2015-08-06T04:18:46Z</time></trkpt>
<trkpt lat="30.10511" lon="100.716065">
<time>2015-08-06T04:18:47Z</time></trkpt>
<trkpt lat="30.10518" lon="100.716045">
<time>2015-08-06T04:18:48Z</time></trkpt>
<trkpt lat="30.10527" lon="100.716035">
<time>2015-08-06T04:18:49Z</time></trkpt>
<trkpt lat="30.10545" lon="100.716005">
<time>2015-08-06T04:18:50Z</time></trkpt>
<trkpt lat="30.10569" lon="100.715975">
<time>2015-08-06T04:18:51Z</time></trkpt>
<trkpt lat="30.10577" lon="100.715955">
<time>2015-08-06T04:18:52Z</time></trkpt>
<trkpt lat="30.10592" lon="100.715915">
<time>2015-08-06T04:18:53Z</time></trkpt>
<trkpt lat="30.10602" lon="100.715885">
<time>2015-08-06T04:18:54Z</time></trkpt>
<trkpt lat="30.10614" lon="100.715835">
<time>2015-08-06T04:18:55Z</time></trkpt>
<trkpt lat="30.10626" lon="100.715795">
<time>2015-08-06T04:18:56Z</time></trkpt>
<trkpt lat="30.106391" lon="100.715765">
<time>2015-08-06T04:18:57Z</time></trkpt>
<trkpt lat="30.106481" lon="100.715746">
<time>2015-08-06T04:18:58Z</time></trkpt>
<trkpt lat="30.106561" lon="100.715746">
<time>2015-08-06T04:18:59Z</time></trkpt>
<trkpt lat="30.106641" lon="100.715756">
<time>2015-08-06T04:19:00Z</time></trkpt>
<trkpt lat="30.106741" lon="100.715775">
<time>2015-08-06T04:19:01Z</time></trkpt>
<trkpt lat="30.106801" lon="100.715795">
<time>2015-08-06T04:19:02Z</time></trkpt>
<trkpt lat="30.10687" lon="100.715825">
<time>2015-08-06T04:19:03Z</time></trkpt>
<trkpt lat="30.10693" lon="100.715865">
<time>2015-08-06T04:19:04Z</time></trkpt>
<trkpt lat="30.10698" lon="100.715895">
<time>2015-08-06T04:19:05Z</time></trkpt>
<trkpt lat="30.10704" lon="100.715945">
<time>2015-08-06T04:19:06Z</time></trkpt>
<trkpt lat="30.10709" lon="100.715995">
<time>2015-08-06T04:19:07Z</time></trkpt>
<trkpt lat="30.10714" lon="100.716045">
<time>2015-08-06T04:19:08Z</time></trkpt>
<trkpt lat="30.10717" lon="100.716085">
<time>2015-08-06T04:19:09Z</time></trkpt>
<trkpt lat="30.10721" lon="100.716135">
<time>2015-08-06T04:19:10Z</time></trkpt>
<trkpt lat="30.1074" lon="100.716424">
<time>2015-08-06T04:19:11Z</time></trkpt>
<trkpt lat="30.10749" lon="100.716554">
<time>2015-08-06T04:19:12Z</time></trkpt>
<trkpt lat="30.10756" lon="100.716624">
<time>2015-08-06T04:19:13Z</time></trkpt>
<trkpt lat="30.10761" lon="100.716654">
<time>2015-08-06T04:19:14Z</time></trkpt>
<trkpt lat="30.107639" lon="100.716674">
<time>2015-08-06T04:19:15Z</time></trkpt>
<trkpt lat="30.107689" lon="100.716694">
<time>2015-08-06T04:19:16Z</time></trkpt>
<trkpt lat="30.107739" lon="100.716704">
<time>2015-08-06T04:19:17Z</time></trkpt>
<trkpt lat="30.107799" lon="100.716704">
<time>2015-08-06T04:19:18Z</time></trkpt>
<trkpt lat="30.107849" lon="100.716694">
<time>2015-08-06T04:19:19Z</time></trkpt>
<trkpt lat="30.107919" lon="100.716674">
<time>2015-08-06T04:19:20Z</time></trkpt>
<trkpt lat="30.10796" lon="100.716644">
<time>2015-08-06T04:19:21Z</time></trkpt>
<trkpt lat="30.10801" lon="100.716604">
<time>2015-08-06T04:19:22Z</time></trkpt>
<trkpt lat="30.10806" lon="100.716534">
<time>2015-08-06T04:19:23Z</time></trkpt>
<trkpt lat="30.1081" lon="100.716454">
<time>2015-08-06T04:19:24Z</time></trkpt>
<trkpt lat="30.10814" lon="100.716354">
<time>2015-08-06T04:19:25Z</time></trkpt>
<trkpt lat="30.10819" lon="100.716195">
<time>2015-08-06T04:19:26Z</time></trkpt>
<trkpt lat="30.10827" lon="100.715885">
<time>2015-08-06T04:19:27Z</time></trkpt>
<trkpt lat="30.108361" lon="100.715526">
<time>2015-08-06T04:19:28Z</time></trkpt>
<trkpt lat="30.108401" lon="100.715376">
<time>2015-08-06T04:19:29Z</time></trkpt>
<trkpt lat="30.108441" lon="100.715266">
<time>2015-08-06T04:19:30Z</time></trkpt>
<trkpt lat="30.108501" lon="100.715117">
<time>2015-08-06T04:19:31Z</time></trkpt>
<trkpt lat="30.108571" lon="100.714997">
<time>2015-08-06T04:19:32Z</time></trkpt>
<trkpt lat="30.108662" lon="100.714877">
<time>2015-08-06T04:19:33Z</time></trkpt>
<trkpt lat="30.108762" lon="100.714787">
<time>2015-08-06T04:19:34Z</time></trkpt>
<trkpt lat="30.108832" lon="100.714727">
<time>2015-08-06T04:19:35Z</time></trkpt>
<trkpt lat="30.108982" lon="100.714598">
<time>2015-08-06T04:19:36Z</time></trkpt>
<trkpt lat="30.109132" lon="100.714498">
<time>2015-08-06T04:19:37Z</time></trkpt>
<trkpt lat="30.109242" lon="100.714428">
<time>2015-08-06T04:19:38Z</time></trkpt>
<trkpt lat="30.109332" lon="100.714388">
<time>2015-08-06T04:19:39Z</time></trkpt>
<trkpt lat="30.109412" lon="100.714358">
<time>2015-08-06T04:19:40Z</time></trkpt>
<trkpt lat="30.109522" lon="100.714318">
<time>2015-08-06T04:19:41Z</time></trkpt>
<trkpt lat="30.109672" lon="100.714278">
<time>2015-08-06T04:19:42Z</time></trkpt>
<trkpt lat="30.109782" lon="100.714258">
<time>2015-08-06T04:19:43Z</time></trkpt>
<trkpt lat="30.109882" lon="100.714248">
<time>2015-08-06T04:19:44Z</time></trkpt>
<trkpt lat="30.109952" lon="100.714238">
<time>2015-08-06T04:19:45Z</time></trkpt>
<trkpt lat="30.110022" lon="100.714238">
<time>2015-08-06T04:19:46Z</time></trkpt>
<trkpt lat="30.110312" lon="100.714238">
<time>2015-08-06T04:19:47Z</time></trkpt>
<trkpt lat="30.110642" lon="100.714248">
<time>2015-08-06T04:19:48Z</time></trkpt>
<trkpt lat="30.110792" lon="100.714238">
<time>2015-08-06T04:19:49Z</time></trkpt>
<trkpt lat="30.110892" lon="100.714228">
<time>2015-08-06T04:19:50Z</time></trkpt>
<trkpt lat="30.110982" lon="100.714198">
<time>2015-08-06T04:19:51Z</time></trkpt>
<trkpt lat="30.111022" lon="100.714188">
<time>2015-08-06T04:19:52Z</time></trkpt>
<trkpt lat="30.111082" lon="100.714158">
<time>2015-08-06T04:19:53Z</time></trkpt>
<trkpt lat="30.111153" lon="100.714138">
<time>2015-08-06T04:19:54Z</time></trkpt>
<trkpt lat="30.111223" lon="100.714089">
<time>2015-08-06T04:19:55Z</time></trkpt>
<trkpt lat="30.111293" lon="100.714049">
<time>2015-08-06T04:19:56Z</time></trkpt>
<trkpt lat="30.111353" lon="100.714009">
<time>2015-08-06T04:19:57Z</time></trkpt>
<trkpt lat="30.111433" lon="100.713939">
<time>2015-08-06T04:19:58Z</time></trkpt>
<trkpt lat="30.111503" lon="100.713879">
<time>2015-08-06T04:19:59Z</time></trkpt>
<trkpt lat="30.111543" lon="100.713829">
<time>2015-08-06T04:20:00Z</time></trkpt>
<trkpt lat="30.111603" lon="100.713749">
<time>2015-08-06T04:20:01Z</time></trkpt>
<trkpt lat="30.111633" lon="100.713699">
<time>2015-08-06T04:20:02Z</time></trkpt>
<trkpt lat="30.111673" lon="100.713599">
<time>2015-08-06T04:20:03Z</time></trkpt>
<trkpt lat="30.111814" lon="100.71321">
<time>2015-08-06T04:20:04Z</time></trkpt>
<trkpt lat="30.111964" lon="100.712791">
<time>2015-08-06T04:20:05Z</time></trkpt>
<trkpt lat="30.112034" lon="100.712601">
<time>2015-08-06T04:20:06Z</time></trkpt>
<trkpt lat="30.112085" lon="100.712492">
<time>2015-08-06T04:20:07Z</time></trkpt>
<trkpt lat="30.112125" lon="100.712432">
<time>2015-08-06T04:20:08Z</time></trkpt>
<trkpt lat="30.112155" lon="100.712382">
<time>2015-08-06T04:20:09Z</time></trkpt>
<trkpt lat="30.112215" lon="100.712312">
<time>2015-08-06T04:20:10Z</time></trkpt>
<trkpt lat="30.112265" lon="100.712252">
<time>2015-08-06T04:20:11Z</time></trkpt>
<trkpt lat="30.112325" lon="100.712192">
<time>2015-08-06T04:20:12Z</time></trkpt>
<trkpt lat="30.112365" lon="100.712162">
<time>2015-08-06T04:20:13Z</time></trkpt>
<trkpt lat="30.112455" lon="100.712092">
<time>2015-08-06T04:20:14Z</time></trkpt>
<trkpt lat="30.112665" lon="100.711943">
<time>2015-08-06T04:20:15Z</time></trkpt>
<trkpt lat="30.112905" lon="100.711773">
<time>2015-08-06T04:20:16Z</time></trkpt>
<trkpt lat="30.113066" lon="100.711663">
<time>2015-08-06T04:20:17Z</time></trkpt>
<trkpt lat="30.113136" lon="100.711613">
<time>2015-08-06T04:20:18Z</time></trkpt>
<trkpt lat="30.113316" lon="100.711474">
<time>2015-08-06T04:20:19Z</time></trkpt>
<trkpt lat="30.113456" lon="100.711384">
<time>2015-08-06T04:20:20Z</time></trkpt>
<trkpt lat="30.113586" lon="100.711294">
<time>2015-08-06T04:20:21Z</time></trkpt>
<trkpt lat="30.113686" lon="100.711264">
<time>2015-08-06T04:20:22Z</time></trkpt>
<trkpt lat="30.113746" lon="100.711234">
<time>2015-08-06T04:20:23Z</time></trkpt>
<trkpt lat="30.113796" lon="100.711224">
<time>2015-08-06T04:20:24Z</time></trkpt>
<trkpt lat="30.113896" lon="100.711204">
<time>2015-08-06T04:20:25Z</time></trkpt>
<trkpt lat="30.114096" lon="100.711154">
<time>2015-08-06T04:20:26Z</time></trkpt>
<trkpt lat="30.114676" lon="100.711044">
<time>2015-08-06T04:20:27Z</time></trkpt>
<trkpt lat="30.114987" lon="100.710975">
<time>2015-08-06T04:20:28Z</time></trkpt>
<trkpt lat="30.115087" lon="100.710955">
<time>2015-08-06T04:20:29Z</time></trkpt>
<trkpt lat="30.115207" lon="100.710905">
<time>2015-08-06T04:20:30Z</time></trkpt>
<trkpt lat="30.115277" lon="100.710875">
<time>2015-08-06T04:20:31Z</time></trkpt>
<trkpt lat="30.115397" lon="100.710805">
<time>2015-08-06T04:20:32Z</time></trkpt>
<trkpt lat="30.115487" lon="100.710745">
<time>2015-08-06T04:20:33Z</time></trkpt>
<trkpt lat="30.115657" lon="100.710605">
<time>2015-08-06T04:20:34Z</time></trkpt>
<trkpt lat="30.115837" lon="100.710436">
<time>2015-08-06T04:20:35Z</time></trkpt>
<trkpt lat="30.115947" lon="100.710346">
<time>2015-08-06T04:20:36Z</time></trkpt>
<trkpt lat="30.115997" lon="100.710316">
<time>2015-08-06T04:20:37Z</time></trkpt>
<trkpt lat="30.116037" lon="100.710296">
<time>2015-08-06T04:20:38Z</time></trkpt>
<trkpt lat="30.116087" lon="100.710296">
<time>2015-08-06T04:20:39Z</time></trkpt>
<trkpt lat="30.116137" lon="100.710286">
<time>2015-08-06T04:20:40Z</time></trkpt>
<trkpt lat="30.116217" lon="100.710296">
<time>2015-08-06T04:20:41Z</time></trkpt>
<trkpt lat="30.116257" lon="100.710306">
<time>2015-08-06T04:20:42Z</time></trkpt>
<trkpt lat="30.116317" lon="100.710326">
<time>2015-08-06T04:20:43Z</time></trkpt>
<trkpt lat="30.116377" lon="100.710356">
<time>2015-08-06T04:20:44Z</time></trkpt>
<trkpt lat="30.116417" lon="100.710376">
<time>2015-08-06T04:20:45Z</time></trkpt>
<trkpt lat="30.116467" lon="100.710416">
<time>2015-08-06T04:20:46Z</time></trkpt>
<trkpt lat="30.116557" lon="100.710475">
<time>2015-08-06T04:20:47Z</time></trkpt>
<trkpt lat="30.116727" lon="100.710615">
<time>2015-08-06T04:20:48Z</time></trkpt>
<trkpt lat="30.116857" lon="100.710735">
<time>2015-08-06T04:20:49Z</time></trkpt>
<trkpt lat="30.116987" lon="100.710845">
<time>2015-08-06T04:20:50Z</time></trkpt>
<trkpt lat="30.117067" lon="100.710915">
<time>2015-08-06T04:20:51Z</time></trkpt>
<trkpt lat="30.117127" lon="100.710955">
<time>2015-08-06T04:20:52Z</time></trkpt>
<trkpt lat="30.117226" lon="100.711014">
<time>2015-08-06T04:20:53Z</time></trkpt>
<trkpt lat="30.117316" lon="100.711054">
<time>2015-08-06T04:20:54Z</time></trkpt>
<trkpt lat="30.117396" lon="100.711084">
<time>2015-08-06T04:20:55Z</time></trkpt>
<trkpt lat="30.117486" lon="100.711104">
<time>2015-08-06T04:20:56Z</time></trkpt>
<trkpt lat="30.117596" lon="100.711144">
<time>2015-08-06T04:20:57Z</time></trkpt>
<trkpt lat="30.118096" lon="100.711234">
<time>2015-08-06T04:20:58Z</time></trkpt>
<trkpt lat="30.118366" lon="100.711294">
<time>2015-08-06T04:20:59Z</time></trkpt>
<trkpt lat="30.118496" lon="100.711314">
<time>2015-08-06T04:21:00Z</time></trkpt>
<trkpt lat="30.118666" lon="100.711334">
<time>2015-08-06T04:21:01Z</time></trkpt>
<trkpt lat="30.118766" lon="100.711334">
<time>2015-08-06T04:21:02Z</time></trkpt>
<trkpt lat="30.118996" lon="100.711344">
<time>2015-08-06T04:21:03Z</time></trkpt>
<trkpt lat="30.119216" lon="100.711334">
<time>2015-08-06T04:21:04Z</time></trkpt>
<trkpt lat="30.119396" lon="100.711324">
<time>2015-08-06T04:21:05Z</time></trkpt>
<trkpt lat="30.119556" lon="100.711324">
<time>2015-08-06T04:21:06Z</time></trkpt>
<trkpt lat="30.119676" lon="100.711334">
<time>2015-08-06T04:21:07Z</time></trkpt>
<trkpt lat="30.119826" lon="100.711354">
<time>2015-08-06T04:21:08Z</time></trkpt>
<trkpt lat="30.119956" lon="100.711374">
<time>2015-08-06T04:21:09Z</time></trkpt>
<trkpt lat="30.120046" lon="100.711374">
<time>2015-08-06T04:21:10Z</time></trkpt>
<trkpt lat="30.120086" lon="100.711374">
<time>2015-08-06T04:21:11Z</time></trkpt>
<trkpt lat="30.120156" lon="100.711374">
<time>2015-08-06T04:21:12Z</time></trkpt>
<trkpt lat="30.120236" lon="100.711364">
<time>2015-08-06T04:21:13Z</time></trkpt>
<trkpt lat="30.120316" lon="100.711334">
<time>2015-08-06T04:21:14Z</time></trkpt>
<trkpt lat="30.120396" lon="100.711304">
<time>2015-08-06T04:21:15Z</time></trkpt>
<trkpt lat="30.120476" lon="100.711264">
<time>2015-08-06T04:21:16Z</time></trkpt>
<trkpt lat="30.120596" lon="100.711194">
<time>2015-08-06T04:21:17Z</time></trkpt>
<trkpt lat="30.120786" lon="100.711064">
<time>2015-08-06T04:21:18Z</time></trkpt>
<trkpt lat="30.120866" lon="100.711014">
<time>2015-08-06T04:21:19Z</time></trkpt>
<trkpt lat="30.120947" lon="100.710974">
<time>2015-08-06T04:21:20Z</time></trkpt>
<trkpt lat="30.121007" lon="100.710944">
<time>2015-08-06T04:21:21Z</time></trkpt>
<trkpt lat="30.121137" lon="100.710904">
<time>2015-08-06T04:21:22Z</time></trkpt>
<trkpt lat="30.121287" lon="100.710875">
<time>2015-08-06T04:21:23Z</time></trkpt>
<trkpt lat="30.121347" lon="100.710855">
<time>2015-08-06T04:21:24Z</time></trkpt>
<trkpt lat="30.121427" lon="100.710835">
<time>2015-08-06T04:21:25Z</time></trkpt>
<trkpt lat="30.121497" lon="100.710795">
<time>2015-08-06T04:21:26Z</time></trkpt>
<trkpt lat="30.121567" lon="100.710755">
<time>2015-08-06T04:21:27Z</time></trkpt>
<trkpt lat="30.121637" lon="100.710695">
<time>2015-08-06T04:21:28Z</time></trkpt>
<trkpt lat="30.121697" lon="100.710625">
<time>2015-08-06T04:21:29Z</time></trkpt>
<trkpt lat="30.121847" lon="100.710425">
<time>2015-08-06T04:21:30Z</time></trkpt>
<trkpt lat="30.121998" lon="100.710246">
<time>2015-08-06T04:21:31Z</time></trkpt>
<trkpt lat="30.122228" lon="100.709976">
<time>2015-08-06T04:21:32Z</time></trkpt>
<trkpt lat="30.122288" lon="100.709906">
<time>2015-08-06T04:21:33Z</time></trkpt>
<trkpt lat="30.122849" lon="100.709318">
<time>2015-08-06T04:21:34Z</time></trkpt>
<trkpt lat="30.123199" lon="100.708958">
<time>2015-08-06T04:21:35Z</time></trkpt>
<trkpt lat="30.12351" lon="100.708639">
<time>2015-08-06T04:21:36Z</time></trkpt>
<trkpt lat="30.12397" lon="100.70815">
<time>2015-08-06T04:21:37Z</time></trkpt>
<trkpt lat="30.124371" lon="100.707721">
<time>2015-08-06T04:21:38Z</time></trkpt>
<trkpt lat="30.124491" lon="100.707611">
<time>2015-08-06T04:21:39Z</time></trkpt>
<trkpt lat="30.124551" lon="100.707561">
<time>2015-08-06T04:21:40Z</time></trkpt>
<trkpt lat="30.124621" lon="100.707501">
<time>2015-08-06T04:21:41Z</time></trkpt>
<trkpt lat="30.124691" lon="100.707462">
<time>2015-08-06T04:21:42Z</time></trkpt>
<trkpt lat="30.124741" lon="100.707442">
<time>2015-08-06T04:21:43Z</time></trkpt>
<trkpt lat="30.124831" lon="100.707412">
<time>2015-08-06T04:21:44Z</time></trkpt>
<trkpt lat="30.124921" lon="100.707402">
<time>2015-08-06T04:21:45Z</time></trkpt>
<trkpt lat="30.124961" lon="100.707402">
<time>2015-08-06T04:21:46Z</time></trkpt>
<trkpt lat="30.125051" lon="100.707422">
<time>2015-08-06T04:21:47Z</time></trkpt>
<trkpt lat="30.125151" lon="100.707471">
<time>2015-08-06T04:21:48Z</time></trkpt>
<trkpt lat="30.125311" lon="100.707571">
<time>2015-08-06T04:21:49Z</time></trkpt>
<trkpt lat="30.125471" lon="100.707671">
<time>2015-08-06T04:21:50Z</time></trkpt>
<trkpt lat="30.125591" lon="100.707731">
<time>2015-08-06T04:21:51Z</time></trkpt>
<trkpt lat="30.125681" lon="100.707771">
<time>2015-08-06T04:21:52Z</time></trkpt>
<trkpt lat="30.125781" lon="100.707801">
<time>2015-08-06T04:21:53Z</time></trkpt>
<trkpt lat="30.125871" lon="100.707811">
<time>2015-08-06T04:21:54Z</time></trkpt>
<trkpt lat="30.126081" lon="100.707831">
<time>2015-08-06T04:21:55Z</time></trkpt>
<trkpt lat="30.126291" lon="100.707831">
<time>2015-08-06T04:21:56Z</time></trkpt>
<trkpt lat="30.126411" lon="100.707821">
<time>2015-08-06T04:21:57Z</time></trkpt>
<trkpt lat="30.126501" lon="100.707801">
<time>2015-08-06T04:21:58Z</time></trkpt>
<trkpt lat="30.126591" lon="100.707771">
<time>2015-08-06T04:21:59Z</time></trkpt>
<trkpt lat="30.126721" lon="100.707711">
<time>2015-08-06T04:22:00Z</time></trkpt>
<trkpt lat="30.126811" lon="100.707661">
<time>2015-08-06T04:22:01Z</time></trkpt>
<trkpt lat="30.126901" lon="100.707611">
<time>2015-08-06T04:22:02Z</time></trkpt>
<trkpt lat="30.127101" lon="100.707481">
<time>2015-08-06T04:22:03Z</time></trkpt>
<trkpt lat="30.127422" lon="100.707232">
<time>2015-08-06T04:22:04Z</time></trkpt>
<trkpt lat="30.127662" lon="100.707072">
<time>2015-08-06T04:22:05Z</time></trkpt>
<trkpt lat="30.127832" lon="100.706943">
<time>2015-08-06T04:22:06Z</time></trkpt>
<trkpt lat="30.128012" lon="100.706843">
<time>2015-08-06T04:22:07Z</time></trkpt>
<trkpt lat="30.128082" lon="100.706803">
<time>2015-08-06T04:22:08Z</time></trkpt>
<trkpt lat="30.128202" lon="100.706753">
<time>2015-08-06T04:22:09Z</time></trkpt>
<trkpt lat="30.128322" lon="100.706733">
<time>2015-08-06T04:22:10Z</time></trkpt>
<trkpt lat="30.128412" lon="100.706723">
<time>2015-08-06T04:22:11Z</time></trkpt>
<trkpt lat="30.128542" lon="100.706723">
<time>2015-08-06T04:22:12Z</time></trkpt>
<trkpt lat="30.128832" lon="100.706733">
<time>2015-08-06T04:22:13Z</time></trkpt>
<trkpt lat="30.129052" lon="100.706743">
<time>2015-08-06T04:22:14Z</time></trkpt>
<trkpt lat="30.129222" lon="100.706753">
<time>2015-08-06T04:22:15Z</time></trkpt>
<trkpt lat="30.129322" lon="100.706773">
<time>2015-08-06T04:22:16Z</time></trkpt>
<trkpt lat="30.129392" lon="100.706783">
<time>2015-08-06T04:22:17Z</time></trkpt>
<trkpt lat="30.129442" lon="100.706803">
<time>2015-08-06T04:22:18Z</time></trkpt>
<trkpt lat="30.129512" lon="100.706833">
<time>2015-08-06T04:22:19Z</time></trkpt>
<trkpt lat="30.129602" lon="100.706883">
<time>2015-08-06T04:22:20Z</time></trkpt>
<trkpt lat="30.129692" lon="100.706942">
<time>2015-08-06T04:22:21Z</time></trkpt>
<trkpt lat="30.129762" lon="100.707002">
<time>2015-08-06T04:22:22Z</time></trkpt>
<trkpt lat="30.129912" lon="100.707142">
<time>2015-08-06T04:22:23Z</time></trkpt>
<trkpt lat="30.130082" lon="100.707292">
<time>2015-08-06T04:22:24Z</time></trkpt>
<trkpt lat="30.130261" lon="100.707421">
<time>2015-08-06T04:22:25Z</time></trkpt>
<trkpt lat="30.130351" lon="100.707481">
<time>2015-08-06T04:22:26Z</time></trkpt>
<trkpt lat="30.130411" lon="100.707511">
<time>2015-08-06T04:22:27Z</time></trkpt>
<trkpt lat="30.130491" lon="100.707541">
<time>2015-08-06T04:22:28Z</time></trkpt>
<trkpt lat="30.130591" lon="100.707561">
<time>2015-08-06T04:22:29Z</time></trkpt>
<trkpt lat="30.130691" lon="100.707561">
<time>2015-08-06T04:22:30Z</time></trkpt>
<trkpt lat="30.130761" lon="100.707561">
<time>2015-08-06T04:22:31Z</time></trkpt>
<trkpt lat="30.130821" lon="100.707541">
<time>2015-08-06T04:22:32Z</time></trkpt>
<trkpt lat="30.130981" lon="100.707451">
<time>2015-08-06T04:22:33Z</time></trkpt>
<trkpt lat="30.131362" lon="100.707182">
<time>2015-08-06T04:22:34Z</time></trkpt>
<trkpt lat="30.131732" lon="100.706903">
<time>2015-08-06T04:22:35Z</time></trkpt>
<trkpt lat="30.131892" lon="100.706793">
<time>2015-08-06T04:22:36Z</time></trkpt>
<trkpt lat="30.132123" lon="100.706613">
<time>2015-08-06T04:22:37Z</time></trkpt>
<trkpt lat="30.132283" lon="100.706503">
<time>2015-08-06T04:22:38Z</time></trkpt>
<trkpt lat="30.132403" lon="100.706404">
<time>2015-08-06T04:22:39Z</time></trkpt>
<trkpt lat="30.132543" lon="100.706244">
<time>2015-08-06T04:22:40Z</time></trkpt>
<trkpt lat="30.132653" lon="100.706104">
<time>2015-08-06T04:22:41Z</time></trkpt>
<trkpt lat="30.132794" lon="100.705915">
<time>2015-08-06T04:22:42Z</time></trkpt>
<trkpt lat="30.132934" lon="100.705775">
<time>2015-08-06T04:22:43Z</time></trkpt>
<trkpt lat="30.133084" lon="100.705655">
<time>2015-08-06T04:22:44Z</time></trkpt>
<trkpt lat="30.133174" lon="100.705595">
<time>2015-08-06T04:22:45Z</time></trkpt>
<trkpt lat="30.133254" lon="100.705545">
<time>2015-08-06T04:22:46Z</time></trkpt>
<trkpt lat="30.133424" lon="100.705466">
<time>2015-08-06T04:22:47Z</time></trkpt>
<trkpt lat="30.133604" lon="100.705386">
<time>2015-08-06T04:22:48Z</time></trkpt>
<trkpt lat="30.133884" lon="100.705296">
<time>2015-08-06T04:22:49Z</time></trkpt>
<trkpt lat="30.134195" lon="100.705206">
<time>2015-08-06T04:22:50Z</time></trkpt>
<trkpt lat="30.134685" lon="100.705076">
<time>2015-08-06T04:22:51Z</time></trkpt>
<trkpt lat="30.135055" lon="100.704997">
<time>2015-08-06T04:22:52Z</time></trkpt>
<trkpt lat="30.135395" lon="100.704907">
<time>2015-08-06T04:22:53Z</time></trkpt>
<trkpt lat="30.135735" lon="100.704837">
<time>2015-08-06T04:22:54Z</time></trkpt>
<trkpt lat="30.135935" lon="100.704817">
<time>2015-08-06T04:22:55Z</time></trkpt>
<trkpt lat="30.136115" lon="100.704797">
<time>2015-08-06T04:22:56Z</time></trkpt>
<trkpt lat="30.136245" lon="100.704797">
<time>2015-08-06T04:22:57Z</time></trkpt>
<trkpt lat="30.136365" lon="100.704807">
<time>2015-08-06T04:22:58Z</time></trkpt>
<trkpt lat="30.136485" lon="100.704817">
<time>2015-08-06T04:22:59Z</time></trkpt>
<trkpt lat="30.136605" lon="100.704837">
<time>2015-08-06T04:23:00Z</time></trkpt>
<trkpt lat="30.136685" lon="100.704867">
<time>2015-08-06T04:23:01Z</time></trkpt>
<trkpt lat="30.136765" lon="100.704897">
<time>2015-08-06T04:23:02Z</time></trkpt>
<trkpt lat="30.136795" lon="100.704917">
<time>2015-08-06T04:23:03Z</time></trkpt>
<trkpt lat="30.136865" lon="100.704957">
<time>2015-08-06T04:23:04Z</time></trkpt>
<trkpt lat="30.136915" lon="100.705006">
<time>2015-08-06T04:23:05Z</time></trkpt>
<trkpt lat="30.136955" lon="100.705036">
<time>2015-08-06T04:23:06Z</time></trkpt>
<trkpt lat="30.136995" lon="100.705096">
<time>2015-08-06T04:23:07Z</time></trkpt>
<trkpt lat="30.137045" lon="100.705166">
<time>2015-08-06T04:23:08Z</time></trkpt>
<trkpt lat="30.137085" lon="100.705236">
<time>2015-08-06T04:23:09Z</time></trkpt>
<trkpt lat="30.137124" lon="100.705346">
<time>2015-08-06T04:23:10Z</time></trkpt>
<trkpt lat="30.137154" lon="100.705455">
<time>2015-08-06T04:23:11Z</time></trkpt>
<trkpt lat="30.137194" lon="100.705645">
<time>2015-08-06T04:23:12Z</time></trkpt>
<trkpt lat="30.137273" lon="100.706084">
<time>2015-08-06T04:23:13Z</time></trkpt>
<trkpt lat="30.137323" lon="100.706373">
<time>2015-08-06T04:23:14Z</time></trkpt>
<trkpt lat="30.137363" lon="100.706523">
<time>2015-08-06T04:23:15Z</time></trkpt>
<trkpt lat="30.137402" lon="100.706613">
<time>2015-08-06T04:23:16Z</time></trkpt>
<trkpt lat="30.137442" lon="100.706693">
<time>2015-08-06T04:23:17Z</time></trkpt>
<trkpt lat="30.137482" lon="100.706743">
<time>2015-08-06T04:23:18Z</time></trkpt>
<trkpt lat="30.137512" lon="100.706773">
<time>2015-08-06T04:23:19Z</time></trkpt>
<trkpt lat="30.137562" lon="100.706813">
<time>2015-08-06T04:23:20Z</time></trkpt>
<trkpt lat="30.137602" lon="100.706832">
<time>2015-08-06T04:23:21Z</time></trkpt>
<trkpt lat="30.137652" lon="100.706852">
<time>2015-08-06T04:23:22Z</time></trkpt>
<trkpt lat="30.137702" lon="100.706872">
<time>2015-08-06T04:23:23Z</time></trkpt>
<trkpt lat="30.137792" lon="100.706882">
<time>2015-08-06T04:23:24Z</time></trkpt>
<trkpt lat="30.137862" lon="100.706882">
<time>2015-08-06T04:23:25Z</time></trkpt>
<trkpt lat="30.137932" lon="100.706872">
<time>2015-08-06T04:23:26Z</time></trkpt>
<trkpt lat="30.137972" lon="100.706862">
<time>2015-08-06T04:23:27Z</time></trkpt>
<trkpt lat="30.138042" lon="100.706842">
<time>2015-08-06T04:23:28Z</time></trkpt>
<trkpt lat="30.138132" lon="100.706803">
<time>2015-08-06T04:23:29Z</time></trkpt>
<trkpt lat="30.138382" lon="100.706683">
<time>2015-08-06T04:23:30Z</time></trkpt>
<trkpt lat="30.138873" lon="100.706443">
<time>2015-08-06T04:23:31Z</time></trkpt>
<trkpt lat="30.138933" lon="100.706423">
<time>2015-08-06T04:23:32Z</time></trkpt>
<trkpt lat="30.139053" lon="100.706403">
<time>2015-08-06T04:23:33Z</time></trkpt>
<trkpt lat="30.139123" lon="100.706393">
<time>2015-08-06T04:23:34Z</time></trkpt>
<trkpt lat="30.139173" lon="100.706403">
<time>2015-08-06T04:23:35Z</time></trkpt>
<trkpt lat="30.139243" lon="100.706403">
<time>2015-08-06T04:23:36Z</time></trkpt>
<trkpt lat="30.139363" lon="100.706433">
<time>2015-08-06T04:23:37Z</time></trkpt>
<trkpt lat="30.139473" lon="100.706473">
<time>2015-08-06T04:23:38Z</time></trkpt>
<trkpt lat="30.139593" lon="100.706513">
<time>2015-08-06T04:23:39Z</time></trkpt>
<trkpt lat="30.139703" lon="100.706563">
<time>2015-08-06T04:23:40Z</time></trkpt>
<trkpt lat="30.139743" lon="100.706593">
<time>2015-08-06T04:23:41Z</time></trkpt>
<trkpt lat="30.139802" lon="100.706643">
<time>2015-08-06T04:23:42Z</time></trkpt>
<trkpt lat="30.139902" lon="100.706733">
<time>2015-08-06T04:23:43Z</time></trkpt>
<trkpt lat="30.140022" lon="100.706892">
<time>2015-08-06T04:23:44Z</time></trkpt>
<trkpt lat="30.140112" lon="100.706992">
<time>2015-08-06T04:23:45Z</time></trkpt>
<trkpt lat="30.140192" lon="100.707062">
<time>2015-08-06T04:23:46Z</time></trkpt>
<trkpt lat="30.140302" lon="100.707122">
<time>2015-08-06T04:23:47Z</time></trkpt>
<trkpt lat="30.140432" lon="100.707172">
<time>2015-08-06T04:23:48Z</time></trkpt>
<trkpt lat="30.140562" lon="100.707202">
<time>2015-08-06T04:23:49Z</time></trkpt>
<trkpt lat="30.140652" lon="100.707212">
<time>2015-08-06T04:23:50Z</time></trkpt>
<trkpt lat="30.140742" lon="100.707212">
<time>2015-08-06T04:23:51Z</time></trkpt>
<trkpt lat="30.140812" lon="100.707192">
<time>2015-08-06T04:23:52Z</time></trkpt>
<trkpt lat="30.140852" lon="100.707182">
<time>2015-08-06T04:23:53Z</time></trkpt>
<trkpt lat="30.140952" lon="100.707142">
<time>2015-08-06T04:23:54Z</time></trkpt>
<trkpt lat="30.141092" lon="100.707072">
<time>2015-08-06T04:23:55Z</time></trkpt>
<trkpt lat="30.141232" lon="100.706992">
<time>2015-08-06T04:23:56Z</time></trkpt>
<trkpt lat="30.141332" lon="100.706932">
<time>2015-08-06T04:23:57Z</time></trkpt>
<trkpt lat="30.141432" lon="100.706862">
<time>2015-08-06T04:23:58Z</time></trkpt>
<trkpt lat="30.141522" lon="100.706792">
<time>2015-08-06T04:23:59Z</time></trkpt>
<trkpt lat="30.141632" lon="100.706693">
<time>2015-08-06T04:24:00Z</time></trkpt>
<trkpt lat="30.141672" lon="100.706653">
<time>2015-08-06T04:24:01Z</time></trkpt>
<trkpt lat="30.141773" lon="100.706533">
<time>2015-08-06T04:24:02Z</time></trkpt>
<trkpt lat="30.141913" lon="100.706313">
<time>2015-08-06T04:24:03Z</time></trkpt>
<trkpt lat="30.142123" lon="100.705944">
<time>2015-08-06T04:24:04Z</time></trkpt>
<trkpt lat="30.142324" lon="100.705615">
<time>2015-08-06T04:24:05Z</time></trkpt>
<trkpt lat="30.142564" lon="100.705286">
<time>2015-08-06T04:24:06Z</time></trkpt>
<trkpt lat="30.142735" lon="100.705066">
<time>2015-08-06T04:24:07Z</time></trkpt>
<trkpt lat="30.143125" lon="100.704647">
<time>2015-08-06T04:24:08Z</time></trkpt>
<trkpt lat="30.143636" lon="100.704078">
<time>2015-08-06T04:24:09Z</time></trkpt>
<trkpt lat="30.143847" lon="100.703839">
<time>2015-08-06T04:24:10Z</time></trkpt>
<trkpt lat="30.143967" lon="100.703699">
<time>2015-08-06T04:24:11Z</time></trkpt>
<trkpt lat="30.144097" lon="100.703539">
<time>2015-08-06T04:24:12Z</time></trkpt>
<trkpt lat="30.144207" lon="100.70339">
<time>2015-08-06T04:24:13Z</time></trkpt>
<trkpt lat="30.144257" lon="100.70329">
<time>2015-08-06T04:24:14Z</time></trkpt>
<trkpt lat="30.144298" lon="100.70319">
<time>2015-08-06T04:24:15Z</time></trkpt>
<trkpt lat="30.144318" lon="100.70312">
<time>2015-08-06T04:24:16Z</time></trkpt>
<trkpt lat="30.144358" lon="100.702951">
<time>2015-08-06T04:24:17Z</time></trkpt>
<trkpt lat="30.144378" lon="100.702831">
<time>2015-08-06T04:24:18Z</time></trkpt>
<trkpt lat="30.144429" lon="100.702512">
<time>2015-08-06T04:24:19Z</time></trkpt>
<trkpt lat="30.14452" lon="100.701823">
<time>2015-08-06T04:24:20Z</time></trkpt>
<trkpt lat="30.144641" lon="100.701025">
<time>2015-08-06T04:24:21Z</time></trkpt>
<trkpt lat="30.144722" lon="100.700466">
<time>2015-08-06T04:24:22Z</time></trkpt>
<trkpt lat="30.144792" lon="100.700017">
<time>2015-08-06T04:24:23Z</time></trkpt>
<trkpt lat="30.144843" lon="100.699628">
<time>2015-08-06T04:24:24Z</time></trkpt>
<trkpt lat="30.144884" lon="100.699309">
<time>2015-08-06T04:24:25Z</time></trkpt>
<trkpt lat="30.144904" lon="100.69903">
<time>2015-08-06T04:24:26Z</time></trkpt>
<trkpt lat="30.144935" lon="100.698571">
<time>2015-08-06T04:24:27Z</time></trkpt>
<trkpt lat="30.144996" lon="100.697843">
<time>2015-08-06T04:24:28Z</time></trkpt>
<trkpt lat="30.145037" lon="100.697084">
<time>2015-08-06T04:24:29Z</time></trkpt>
<trkpt lat="30.145047" lon="100.696975">
<time>2015-08-06T04:24:30Z</time></trkpt>
<trkpt lat="30.145058" lon="100.696655">
<time>2015-08-06T04:24:31Z</time></trkpt>
<trkpt lat="30.145068" lon="100.696556">
<time>2015-08-06T04:24:32Z</time></trkpt>
<trkpt lat="30.145099" lon="100.696236">
<time>2015-08-06T04:24:33Z</time></trkpt>
<trkpt lat="30.145119" lon="100.695987">
<time>2015-08-06T04:24:34Z</time></trkpt>
<trkpt lat="30.14515" lon="100.695538">
<time>2015-08-06T04:24:35Z</time></trkpt>
<trkpt lat="30.14516" lon="100.695349">
<time>2015-08-06T04:24:36Z</time></trkpt>
<trkpt lat="30.145181" lon="100.69493">
<time>2015-08-06T04:24:37Z</time></trkpt>
<trkpt lat="30.145201" lon="100.69473">
<time>2015-08-06T04:24:38Z</time></trkpt>
<trkpt lat="30.145211" lon="100.69461">
<time>2015-08-06T04:24:39Z</time></trkpt>
<trkpt lat="30.145231" lon="100.694521">
<time>2015-08-06T04:24:40Z</time></trkpt>
<trkpt lat="30.145252" lon="100.694441">
<time>2015-08-06T04:24:41Z</time></trkpt>
<trkpt lat="30.145272" lon="100.694401">
<time>2015-08-06T04:24:42Z</time></trkpt>
<trkpt lat="30.145312" lon="100.694311">
<time>2015-08-06T04:24:43Z</time></trkpt>
<trkpt lat="30.145392" lon="100.694211">
<time>2015-08-06T04:24:44Z</time></trkpt>
<trkpt lat="30.145452" lon="100.694171">
<time>2015-08-06T04:24:45Z</time></trkpt>
<trkpt lat="30.145492" lon="100.694141">
<time>2015-08-06T04:24:46Z</time></trkpt>
<trkpt lat="30.145582" lon="100.694092">
<time>2015-08-06T04:24:47Z</time></trkpt>
<trkpt lat="30.145732" lon="100.694032">
<time>2015-08-06T04:24:48Z</time></trkpt>
<trkpt lat="30.146003" lon="100.693922">
<time>2015-08-06T04:24:49Z</time></trkpt>
<trkpt lat="30.146293" lon="100.693802">
<time>2015-08-06T04:24:50Z</time></trkpt>
<trkpt lat="30.146643" lon="100.693653">
<time>2015-08-06T04:24:51Z</time></trkpt>
<trkpt lat="30.146763" lon="100.693583">
<time>2015-08-06T04:24:52Z</time></trkpt>
<trkpt lat="30.146813" lon="100.693533">
<time>2015-08-06T04:24:53Z</time></trkpt>
<trkpt lat="30.146843" lon="100.693463">
<time>2015-08-06T04:24:54Z</time></trkpt>
<trkpt lat="30.146843" lon="100.693413">
<time>2015-08-06T04:24:55Z</time></trkpt>
<trkpt lat="30.146843" lon="100.693353">
<time>2015-08-06T04:24:56Z</time></trkpt>
<trkpt lat="30.146824" lon="100.693274">
<time>2015-08-06T04:24:57Z</time></trkpt>
<trkpt lat="30.146784" lon="100.693204">
<time>2015-08-06T04:24:58Z</time></trkpt>
<trkpt lat="30.146734" lon="100.693134">
<time>2015-08-06T04:24:59Z</time></trkpt>
<trkpt lat="30.146644" lon="100.693044">
<time>2015-08-06T04:25:00Z</time></trkpt>
<trkpt lat="30.146574" lon="100.692984">
<time>2015-08-06T04:25:01Z</time></trkpt>
<trkpt lat="30.146534" lon="100.692934">
<time>2015-08-06T04:25:02Z</time></trkpt>
<trkpt lat="30.146494" lon="100.692875">
<time>2015-08-06T04:25:03Z</time></trkpt>
<trkpt lat="30.146474" lon="100.692805">
<time>2015-08-06T04:25:04Z</time></trkpt>
<trkpt lat="30.146465" lon="100.692745">
<time>2015-08-06T04:25:05Z</time></trkpt>
<trkpt lat="30.146465" lon="100.692665">
<time>2015-08-06T04:25:06Z</time></trkpt>
<trkpt lat="30.146475" lon="100.692525">
<time>2015-08-06T04:25:07Z</time></trkpt>
<trkpt lat="30.146495" lon="100.692306">
<time>2015-08-06T04:25:08Z</time></trkpt>
<trkpt lat="30.146496" lon="100.692116">
<time>2015-08-06T04:25:09Z</time></trkpt>
<trkpt lat="30.146496" lon="100.691897">
<time>2015-08-06T04:25:10Z</time></trkpt>
<trkpt lat="30.146486" lon="100.691797">
<time>2015-08-06T04:25:11Z</time></trkpt>
<trkpt lat="30.146456" lon="100.691668">
<time>2015-08-06T04:25:12Z</time></trkpt>
<trkpt lat="30.146437" lon="100.691578">
<time>2015-08-06T04:25:13Z</time></trkpt>
<trkpt lat="30.146427" lon="100.691508">
<time>2015-08-06T04:25:14Z</time></trkpt>
<trkpt lat="30.146437" lon="100.691448">
<time>2015-08-06T04:25:15Z</time></trkpt>
<trkpt lat="30.146467" lon="100.691378">
<time>2015-08-06T04:25:16Z</time></trkpt>
<trkpt lat="30.146527" lon="100.691308">
<time>2015-08-06T04:25:17Z</time></trkpt>
<trkpt lat="30.146597" lon="100.691229">
<time>2015-08-06T04:25:18Z</time></trkpt>
<trkpt lat="30.146707" lon="100.691119">
<time>2015-08-06T04:25:19Z</time></trkpt>
<trkpt lat="30.146818" lon="100.690989">
<time>2015-08-06T04:25:20Z</time></trkpt>
<trkpt lat="30.146928" lon="100.69083">
<time>2015-08-06T04:25:21Z</time></trkpt>
<trkpt lat="30.147058" lon="100.69061">
<time>2015-08-06T04:25:22Z</time></trkpt>
<trkpt lat="30.147179" lon="100.690391">
<time>2015-08-06T04:25:23Z</time></trkpt>
<trkpt lat="30.147299" lon="100.690171">
<time>2015-08-06T04:25:24Z</time></trkpt>
<trkpt lat="30.147429" lon="100.689932">
<time>2015-08-06T04:25:25Z</time></trkpt>
<trkpt lat="30.14748" lon="100.689842">
<time>2015-08-06T04:25:26Z</time></trkpt>
<trkpt lat="30.14757" lon="100.689683">
<time>2015-08-06T04:25:27Z</time></trkpt>
<trkpt lat="30.14766" lon="100.689553">
<time>2015-08-06T04:25:28Z</time></trkpt>
<trkpt lat="30.14771" lon="100.689493">
<time>2015-08-06T04:25:29Z</time></trkpt>
<trkpt lat="30.14777" lon="100.689433">
<time>2015-08-06T04:25:30Z</time></trkpt>
<trkpt lat="30.14782" lon="100.689403">
<time>2015-08-06T04:25:31Z</time></trkpt>
<trkpt lat="30.14788" lon="100.689363">
<time>2015-08-06T04:25:32Z</time></trkpt>
<trkpt lat="30.147991" lon="100.689323">
<time>2015-08-06T04:25:33Z</time></trkpt>
<trkpt lat="30.148061" lon="100.689284">
<time>2015-08-06T04:25:34Z</time></trkpt>
<trkpt lat="30.148111" lon="100.689244">
<time>2015-08-06T04:25:35Z</time></trkpt>
<trkpt lat="30.148151" lon="100.689194">
<time>2015-08-06T04:25:36Z</time></trkpt>
<trkpt lat="30.148171" lon="100.689124">
<time>2015-08-06T04:25:37Z</time></trkpt>
<trkpt lat="30.148181" lon="100.689064">
<time>2015-08-06T04:25:38Z</time></trkpt>
<trkpt lat="30.148171" lon="100.688974">
<time>2015-08-06T04:25:39Z</time></trkpt>
<trkpt lat="30.148151" lon="100.688845">
<time>2015-08-06T04:25:40Z</time></trkpt>
<trkpt lat="30.148152" lon="100.688765">
<time>2015-08-06T04:25:41Z</time></trkpt>
<trkpt lat="30.148162" lon="100.688675">
<time>2015-08-06T04:25:42Z</time></trkpt>
<trkpt lat="30.148172" lon="100.688585">
<time>2015-08-06T04:25:43Z</time></trkpt>
<trkpt lat="30.148212" lon="100.688466">
<time>2015-08-06T04:25:44Z</time></trkpt>
<trkpt lat="30.148252" lon="100.688356">
<time>2015-08-06T04:25:45Z</time></trkpt>
<trkpt lat="30.148493" lon="100.687837">
<time>2015-08-06T04:25:46Z</time></trkpt>
<trkpt lat="30.148634" lon="100.687548">
<time>2015-08-06T04:25:47Z</time></trkpt>
<trkpt lat="30.148804" lon="100.687249">
<time>2015-08-06T04:25:48Z</time></trkpt>
<trkpt lat="30.148935" lon="100.687049">
<time>2015-08-06T04:25:49Z</time></trkpt>
<trkpt lat="30.149135" lon="100.68671">
<time>2015-08-06T04:25:50Z</time></trkpt>
<trkpt lat="30.149326" lon="100.686361">
<time>2015-08-06T04:25:51Z</time></trkpt>
<trkpt lat="30.149446" lon="100.686142">
<time>2015-08-06T04:25:52Z</time></trkpt>
<trkpt lat="30.149557" lon="100.685952">
<time>2015-08-06T04:25:53Z</time></trkpt>
<trkpt lat="30.149747" lon="100.685703">
<time>2015-08-06T04:25:54Z</time></trkpt>
<trkpt lat="30.150018" lon="100.685383">
<time>2015-08-06T04:25:55Z</time></trkpt>
<trkpt lat="30.150208" lon="100.685164">
<time>2015-08-06T04:25:56Z</time></trkpt>
<trkpt lat="30.150278" lon="100.685084">
<time>2015-08-06T04:25:57Z</time></trkpt>
<trkpt lat="30.150318" lon="100.685024">
<time>2015-08-06T04:25:58Z</time></trkpt>
<trkpt lat="30.150348" lon="100.684925">
<time>2015-08-06T04:25:59Z</time></trkpt>
<trkpt lat="30.150359" lon="100.684835">
<time>2015-08-06T04:26:00Z</time></trkpt>
<trkpt lat="30.150349" lon="100.684775">
<time>2015-08-06T04:26:01Z</time></trkpt>
<trkpt lat="30.150329" lon="100.684665">
<time>2015-08-06T04:26:02Z</time></trkpt>
<trkpt lat="30.150269" lon="100.684556">
<time>2015-08-06T04:26:03Z</time></trkpt>
<trkpt lat="30.150199" lon="100.684466">
<time>2015-08-06T04:26:04Z</time></trkpt>
<trkpt lat="30.15006" lon="100.684286">
<time>2015-08-06T04:26:05Z</time></trkpt>
<trkpt lat="30.15001" lon="100.684207">
<time>2015-08-06T04:26:06Z</time></trkpt>
<trkpt lat="30.14999" lon="100.684147">
<time>2015-08-06T04:26:07Z</time></trkpt>
<trkpt lat="30.14997" lon="100.684097">
<time>2015-08-06T04:26:08Z</time></trkpt>
<trkpt lat="30.14997" lon="100.684017">
<time>2015-08-06T04:26:09Z</time></trkpt>
<trkpt lat="30.14999" lon="100.683947">
<time>2015-08-06T04:26:10Z</time></trkpt>
<trkpt lat="30.15002" lon="100.683847">
<time>2015-08-06T04:26:11Z</time></trkpt>
<trkpt lat="30.150171" lon="100.683558">
<time>2015-08-06T04:26:12Z</time></trkpt>
<trkpt lat="30.150362" lon="100.683179">
<time>2015-08-06T04:26:13Z</time></trkpt>
<trkpt lat="30.150472" lon="100.68296">
<time>2015-08-06T04:26:14Z</time></trkpt>
<trkpt lat="30.150583" lon="100.68271">
<time>2015-08-06T04:26:15Z</time></trkpt>
<trkpt lat="30.150723" lon="100.682381">
<time>2015-08-06T04:26:16Z</time></trkpt>
<trkpt lat="30.150874" lon="100.682042">
<time>2015-08-06T04:26:17Z</time></trkpt>
<trkpt lat="30.150964" lon="100.681823">
<time>2015-08-06T04:26:18Z</time></trkpt>
<trkpt lat="30.151055" lon="100.681653">
<time>2015-08-06T04:26:19Z</time></trkpt>
<trkpt lat="30.151125" lon="100.681543">
<time>2015-08-06T04:26:20Z</time></trkpt>
<trkpt lat="30.151235" lon="100.681384">
<time>2015-08-06T04:26:21Z</time></trkpt>
<trkpt lat="30.151295" lon="100.681304">
<time>2015-08-06T04:26:22Z</time></trkpt>
<trkpt lat="30.151385" lon="100.681174">
<time>2015-08-06T04:26:23Z</time></trkpt>
<trkpt lat="30.151476" lon="100.681025">
<time>2015-08-06T04:26:24Z</time></trkpt>
<trkpt lat="30.151546" lon="100.680895">
<time>2015-08-06T04:26:25Z</time></trkpt>
<trkpt lat="30.151596" lon="100.680795">
<time>2015-08-06T04:26:26Z</time></trkpt>
<trkpt lat="30.151747" lon="100.680486">
<time>2015-08-06T04:26:27Z</time></trkpt>
<trkpt lat="30.152008" lon="100.679888">
<time>2015-08-06T04:26:28Z</time></trkpt>
<trkpt lat="30.152108" lon="100.679638">
<time>2015-08-06T04:26:29Z</time></trkpt>
<trkpt lat="30.152189" lon="100.679509">
<time>2015-08-06T04:26:30Z</time></trkpt>
<trkpt lat="30.152249" lon="100.679419">
<time>2015-08-06T04:26:31Z</time></trkpt>
<trkpt lat="30.152299" lon="100.679359">
<time>2015-08-06T04:26:32Z</time></trkpt>
<trkpt lat="30.152449" lon="100.6792">
<time>2015-08-06T04:26:33Z</time></trkpt>
<trkpt lat="30.152509" lon="100.67913">
<time>2015-08-06T04:26:34Z</time></trkpt>
<trkpt lat="30.152579" lon="100.67905">
<time>2015-08-06T04:26:35Z</time></trkpt>
<trkpt lat="30.1527" lon="100.67892">
<time>2015-08-06T04:26:36Z</time></trkpt>
<trkpt lat="30.15276" lon="100.678841">
<time>2015-08-06T04:26:37Z</time></trkpt>
<trkpt lat="30.15281" lon="100.678751">
<time>2015-08-06T04:26:38Z</time></trkpt>
<trkpt lat="30.15285" lon="100.678671">
<time>2015-08-06T04:26:39Z</time></trkpt>
<trkpt lat="30.15295" lon="100.678491">
<time>2015-08-06T04:26:40Z</time></trkpt>
<trkpt lat="30.153001" lon="100.678422">
<time>2015-08-06T04:26:41Z</time></trkpt>
<trkpt lat="30.153041" lon="100.678372">
<time>2015-08-06T04:26:42Z</time></trkpt>
<trkpt lat="30.153121" lon="100.678302">
<time>2015-08-06T04:26:43Z</time></trkpt>
<trkpt lat="30.153231" lon="100.678202">
<time>2015-08-06T04:26:44Z</time></trkpt>
<trkpt lat="30.153371" lon="100.678093">
<time>2015-08-06T04:26:45Z</time></trkpt>
<trkpt lat="30.153441" lon="100.678023">
<time>2015-08-06T04:26:46Z</time></trkpt>
<trkpt lat="30.153562" lon="100.677893">
<time>2015-08-06T04:26:47Z</time></trkpt>
<trkpt lat="30.153692" lon="100.677743">
<time>2015-08-06T04:26:48Z</time></trkpt>
<trkpt lat="30.153792" lon="100.677614">
<time>2015-08-06T04:26:49Z</time></trkpt>
<trkpt lat="30.153872" lon="100.677504">
<time>2015-08-06T04:26:50Z</time></trkpt>
<trkpt lat="30.153953" lon="100.677354">
<time>2015-08-06T04:26:51Z</time></trkpt>
<trkpt lat="30.154023" lon="100.677235">
<time>2015-08-06T04:26:52Z</time></trkpt>
<trkpt lat="30.154123" lon="100.677065">
<time>2015-08-06T04:26:53Z</time></trkpt>
<trkpt lat="30.154223" lon="100.676926">
<time>2015-08-06T04:26:54Z</time></trkpt>
<trkpt lat="30.154324" lon="100.676816">
<time>2015-08-06T04:26:55Z</time></trkpt>
<trkpt lat="30.154394" lon="100.676746">
<time>2015-08-06T04:26:56Z</time></trkpt>
<trkpt lat="30.154484" lon="100.676676">
<time>2015-08-06T04:26:57Z</time></trkpt>
<trkpt lat="30.154544" lon="100.676636">
<time>2015-08-06T04:26:58Z</time></trkpt>
<trkpt lat="30.154634" lon="100.676596">
<time>2015-08-06T04:26:59Z</time></trkpt>
<trkpt lat="30.154704" lon="100.676567">
<time>2015-08-06T04:27:00Z</time></trkpt>
<trkpt lat="30.154804" lon="100.676547">
<time>2015-08-06T04:27:01Z</time></trkpt>
<trkpt lat="30.154924" lon="100.676537">
<time>2015-08-06T04:27:02Z</time></trkpt>
<trkpt lat="30.155014" lon="100.676537">
<time>2015-08-06T04:27:03Z</time></trkpt>
<trkpt lat="30.155104" lon="100.676547">
<time>2015-08-06T04:27:04Z</time></trkpt>
<trkpt lat="30.155164" lon="100.676567">
<time>2015-08-06T04:27:05Z</time></trkpt>
<trkpt lat="30.155224" lon="100.676586">
<time>2015-08-06T04:27:06Z</time></trkpt>
<trkpt lat="30.155274" lon="100.676616">
<time>2015-08-06T04:27:07Z</time></trkpt>
<trkpt lat="30.155334" lon="100.676656">
<time>2015-08-06T04:27:08Z</time></trkpt>
<trkpt lat="30.155394" lon="100.676716">
<time>2015-08-06T04:27:09Z</time></trkpt>
<trkpt lat="30.155464" lon="100.676806">
<time>2015-08-06T04:27:10Z</time></trkpt>
<trkpt lat="30.155494" lon="100.676866">
<time>2015-08-06T04:27:11Z</time></trkpt>
<trkpt lat="30.155523" lon="100.676926">
<time>2015-08-06T04:27:12Z</time></trkpt>
<trkpt lat="30.155563" lon="100.677035">
<time>2015-08-06T04:27:13Z</time></trkpt>
<trkpt lat="30.155613" lon="100.677165">
<time>2015-08-06T04:27:14Z</time></trkpt>
<trkpt lat="30.155663" lon="100.677265">
<time>2015-08-06T04:27:15Z</time></trkpt>
<trkpt lat="30.155713" lon="100.677334">
<time>2015-08-06T04:27:16Z</time></trkpt>
<trkpt lat="30.155753" lon="100.677394">
<time>2015-08-06T04:27:17Z</time></trkpt>
<trkpt lat="30.155822" lon="100.677484">
<time>2015-08-06T04:27:18Z</time></trkpt>
<trkpt lat="30.155972" lon="100.677664">
<time>2015-08-06T04:27:19Z</time></trkpt>
<trkpt lat="30.156092" lon="100.677793">
<time>2015-08-06T04:27:20Z</time></trkpt>
<trkpt lat="30.156132" lon="100.677833">
<time>2015-08-06T04:27:21Z</time></trkpt>
<trkpt lat="30.156172" lon="100.677853">
<time>2015-08-06T04:27:22Z</time></trkpt>
<trkpt lat="30.156222" lon="100.677873">
<time>2015-08-06T04:27:23Z</time></trkpt>
<trkpt lat="30.156282" lon="100.677873">
<time>2015-08-06T04:27:24Z</time></trkpt>
<trkpt lat="30.156342" lon="100.677843">
<time>2015-08-06T04:27:25Z</time></trkpt>
<trkpt lat="30.156422" lon="100.677803">
<time>2015-08-06T04:27:26Z</time></trkpt>
<trkpt lat="30.156492" lon="100.677753">
<time>2015-08-06T04:27:27Z</time></trkpt>
<trkpt lat="30.156582" lon="100.677693">
<time>2015-08-06T04:27:28Z</time></trkpt>
<trkpt lat="30.156642" lon="100.677654">
<time>2015-08-06T04:27:29Z</time></trkpt>
<trkpt lat="30.156692" lon="100.677634">
<time>2015-08-06T04:27:30Z</time></trkpt>
<trkpt lat="30.156752" lon="100.677634">
<time>2015-08-06T04:27:31Z</time></trkpt>
<trkpt lat="30.156932" lon="100.677614">
<time>2015-08-06T04:27:32Z</time></trkpt>
<trkpt lat="30.157232" lon="100.677594">
<time>2015-08-06T04:27:33Z</time></trkpt>
<trkpt lat="30.157362" lon="100.677584">
<time>2015-08-06T04:27:34Z</time></trkpt>
<trkpt lat="30.157692" lon="100.677514">
<time>2015-08-06T04:27:35Z</time></trkpt>
<trkpt lat="30.157842" lon="100.677474">
<time>2015-08-06T04:27:36Z</time></trkpt>
<trkpt lat="30.157962" lon="100.677454">
<time>2015-08-06T04:27:37Z</time></trkpt>
<trkpt lat="30.158062" lon="100.677444">
<time>2015-08-06T04:27:38Z</time></trkpt>
<trkpt lat="30.158302" lon="100.677444">
<time>2015-08-06T04:27:39Z</time></trkpt>
<trkpt lat="30.158542" lon="100.677444">
<time>2015-08-06T04:27:40Z</time></trkpt>
<trkpt lat="30.158682" lon="100.677464">
<time>2015-08-06T04:27:41Z</time></trkpt>
<trkpt lat="30.158792" lon="100.677474">
<time>2015-08-06T04:27:42Z</time></trkpt>
<trkpt lat="30.158872" lon="100.677494">
<time>2015-08-06T04:27:43Z</time></trkpt>
<trkpt lat="30.158982" lon="100.677534">
<time>2015-08-06T04:27:44Z</time></trkpt>
<trkpt lat="30.159072" lon="100.677564">
<time>2015-08-06T04:27:45Z</time></trkpt>
<trkpt lat="30.159162" lon="100.677624">
<time>2015-08-06T04:27:46Z</time></trkpt>
<trkpt lat="30.159242" lon="100.677683">
<time>2015-08-06T04:27:47Z</time></trkpt>
<trkpt lat="30.159322" lon="100.677763">
<time>2015-08-06T04:27:48Z</time></trkpt>
<trkpt lat="30.159382" lon="100.677823">
<time>2015-08-06T04:27:49Z</time></trkpt>
<trkpt lat="30.159452" lon="100.677903">
<time>2015-08-06T04:27:50Z</time></trkpt>
<trkpt lat="30.159481" lon="100.677943">
<time>2015-08-06T04:27:51Z</time></trkpt>
<trkpt lat="30.159541" lon="100.678013">
<time>2015-08-06T04:27:52Z</time></trkpt>
<trkpt lat="30.159601" lon="100.678102">
<time>2015-08-06T04:27:53Z</time></trkpt>
<trkpt lat="30.159661" lon="100.678222">
<time>2015-08-06T04:27:54Z</time></trkpt>
<trkpt lat="30.159711" lon="100.678332">
<time>2015-08-06T04:27:55Z</time></trkpt>
<trkpt lat="30.1598" lon="100.678591">
<time>2015-08-06T04:27:56Z</time></trkpt>
<trkpt lat="30.15983" lon="100.678651">
<time>2015-08-06T04:27:57Z</time></trkpt>
<trkpt lat="30.15986" lon="100.678711">
<time>2015-08-06T04:27:58Z</time></trkpt>
<trkpt lat="30.15989" lon="100.678761">
<time>2015-08-06T04:27:59Z</time></trkpt>
<trkpt lat="30.15992" lon="100.67878">
<time>2015-08-06T04:28:00Z</time></trkpt>
<trkpt lat="30.15994" lon="100.67881">
<time>2015-08-06T04:28:01Z</time></trkpt>
<trkpt lat="30.15997" lon="100.67882">
<time>2015-08-06T04:28:02Z</time></trkpt>
<trkpt lat="30.16" lon="100.67883">
<time>2015-08-06T04:28:03Z</time></trkpt>
<trkpt lat="30.16003" lon="100.67883">
<time>2015-08-06T04:28:04Z</time></trkpt>
<trkpt lat="30.16005" lon="100.67883">
<time>2015-08-06T04:28:05Z</time></trkpt>
<trkpt lat="30.16008" lon="100.67881">
<time>2015-08-06T04:28:06Z</time></trkpt>
<trkpt lat="30.16013" lon="100.678771">
<time>2015-08-06T04:28:07Z</time></trkpt>
<trkpt lat="30.16019" lon="100.678691">
<time>2015-08-06T04:28:08Z</time></trkpt>
<trkpt lat="30.16024" lon="100.678601">
<time>2015-08-06T04:28:09Z</time></trkpt>
<trkpt lat="30.160381" lon="100.678421">
<time>2015-08-06T04:28:10Z</time></trkpt>
<trkpt lat="30.160461" lon="100.678342">
<time>2015-08-06T04:28:11Z</time></trkpt>
<trkpt lat="30.160521" lon="100.678292">
<time>2015-08-06T04:28:12Z</time></trkpt>
<trkpt lat="30.160571" lon="100.678262">
<time>2015-08-06T04:28:13Z</time></trkpt>
<trkpt lat="30.160631" lon="100.678242">
<time>2015-08-06T04:28:14Z</time></trkpt>
<trkpt lat="30.160681" lon="100.678242">
<time>2015-08-06T04:28:15Z</time></trkpt>
<trkpt lat="30.160781" lon="100.678252">
<time>2015-08-06T04:28:16Z</time></trkpt>
<trkpt lat="30.160841" lon="100.678282">
<time>2015-08-06T04:28:17Z</time></trkpt>
<trkpt lat="30.160911" lon="100.678322">
<time>2015-08-06T04:28:18Z</time></trkpt>
<trkpt lat="30.160981" lon="100.678372">
<time>2015-08-06T04:28:19Z</time></trkpt>
<trkpt lat="30.16105" lon="100.678441">
<time>2015-08-06T04:28:20Z</time></trkpt>
<trkpt lat="30.1611" lon="100.678491">
<time>2015-08-06T04:28:21Z</time></trkpt>
<trkpt lat="30.16118" lon="100.678571">
<time>2015-08-06T04:28:22Z</time></trkpt>
<trkpt lat="30.16126" lon="100.678631">
<time>2015-08-06T04:28:23Z</time></trkpt>
<trkpt lat="30.16133" lon="100.678661">
<time>2015-08-06T04:28:24Z</time></trkpt>
<trkpt lat="30.16139" lon="100.678661">
<time>2015-08-06T04:28:25Z</time></trkpt>
<trkpt lat="30.16145" lon="100.678641">
<time>2015-08-06T04:28:26Z</time></trkpt>
<trkpt lat="30.16149" lon="100.678601">
<time>2015-08-06T04:28:27Z</time></trkpt>
<trkpt lat="30.16154" lon="100.678521">
<time>2015-08-06T04:28:28Z</time></trkpt>
<trkpt lat="30.161611" lon="100.678372">
<time>2015-08-06T04:28:29Z</time></trkpt>
<trkpt lat="30.161681" lon="100.678212">
<time>2015-08-06T04:28:30Z</time></trkpt>
<trkpt lat="30.161751" lon="100.678062">
<time>2015-08-06T04:28:31Z</time></trkpt>
<trkpt lat="30.161821" lon="100.677963">
<time>2015-08-06T04:28:32Z</time></trkpt>
<trkpt lat="30.161871" lon="100.677893">
<time>2015-08-06T04:28:33Z</time></trkpt>
<trkpt lat="30.162062" lon="100.677683">
<time>2015-08-06T04:28:34Z</time></trkpt>
<trkpt lat="30.162252" lon="100.677494">
<time>2015-08-06T04:28:35Z</time></trkpt>
<trkpt lat="30.162392" lon="100.677384">
<time>2015-08-06T04:28:36Z</time></trkpt>
<trkpt lat="30.162553" lon="100.677284">
<time>2015-08-06T04:28:37Z</time></trkpt>
<trkpt lat="30.162723" lon="100.677195">
<time>2015-08-06T04:28:38Z</time></trkpt>
<trkpt lat="30.163033" lon="100.677035">
<time>2015-08-06T04:28:39Z</time></trkpt>
<trkpt lat="30.163203" lon="100.676935">
<time>2015-08-06T04:28:40Z</time></trkpt>
<trkpt lat="30.163393" lon="100.676826">
<time>2015-08-06T04:28:41Z</time></trkpt>
<trkpt lat="30.163584" lon="100.676716">
<time>2015-08-06T04:28:42Z</time></trkpt>
<trkpt lat="30.163764" lon="100.676626">
<time>2015-08-06T04:28:43Z</time></trkpt>
<trkpt lat="30.163884" lon="100.676546">
<time>2015-08-06T04:28:44Z</time></trkpt>
<trkpt lat="30.163904" lon="100.676526">
<time>2015-08-06T04:28:45Z</time></trkpt>
<trkpt lat="30.163924" lon="100.676496">
<time>2015-08-06T04:28:46Z</time></trkpt>
<trkpt lat="30.163944" lon="100.676476">
<time>2015-08-06T04:28:47Z</time></trkpt>
<trkpt lat="30.163954" lon="100.676437">
<time>2015-08-06T04:28:48Z</time></trkpt>
<trkpt lat="30.163954" lon="100.676387">
<time>2015-08-06T04:28:49Z</time></trkpt>
<trkpt lat="30.163944" lon="100.676337">
<time>2015-08-06T04:28:50Z</time></trkpt>
<trkpt lat="30.163934" lon="100.676307">
<time>2015-08-06T04:28:51Z</time></trkpt>
<trkpt lat="30.163925" lon="100.676277">
<time>2015-08-06T04:28:52Z</time></trkpt>
<trkpt lat="30.163905" lon="100.676247">
<time>2015-08-06T04:28:53Z</time></trkpt>
<trkpt lat="30.163865" lon="100.676217">
<time>2015-08-06T04:28:54Z</time></trkpt>
<trkpt lat="30.163845" lon="100.676207">
<time>2015-08-06T04:28:55Z</time></trkpt>
<trkpt lat="30.163785" lon="100.676177">
<time>2015-08-06T04:28:56Z</time></trkpt>
<trkpt lat="30.163715" lon="100.676157">
<time>2015-08-06T04:28:57Z</time></trkpt>
<trkpt lat="30.163245" lon="100.675998">
<time>2015-08-06T04:28:58Z</time></trkpt>
<trkpt lat="30.162755" lon="100.675808">
<time>2015-08-06T04:28:59Z</time></trkpt>
<trkpt lat="30.162656" lon="100.675758">
<time>2015-08-06T04:29:00Z</time></trkpt>
<trkpt lat="30.162586" lon="100.675709">
<time>2015-08-06T04:29:01Z</time></trkpt>
<trkpt lat="30.162526" lon="100.675659">
<time>2015-08-06T04:29:02Z</time></trkpt>
<trkpt lat="30.162476" lon="100.675599">
<time>2015-08-06T04:29:03Z</time></trkpt>
<trkpt lat="30.162416" lon="100.675509">
<time>2015-08-06T04:29:04Z</time></trkpt>
<trkpt lat="30.162296" lon="100.67529">
<time>2015-08-06T04:29:05Z</time></trkpt>
<trkpt lat="30.162187" lon="100.67507">
<time>2015-08-06T04:29:06Z</time></trkpt>
<trkpt lat="30.162037" lon="100.674751">
<time>2015-08-06T04:29:07Z</time></trkpt>
<trkpt lat="30.162008" lon="100.674701">
<time>2015-08-06T04:29:08Z</time></trkpt>
<trkpt lat="30.161988" lon="100.674671">
<time>2015-08-06T04:29:09Z</time></trkpt>
<trkpt lat="30.161968" lon="100.674641">
<time>2015-08-06T04:29:10Z</time></trkpt>
<trkpt lat="30.161938" lon="100.674621">
<time>2015-08-06T04:29:11Z</time></trkpt>
<trkpt lat="30.161908" lon="100.674612">
<time>2015-08-06T04:29:12Z</time></trkpt>
<trkpt lat="30.161888" lon="100.674602">
<time>2015-08-06T04:29:13Z</time></trkpt>
<trkpt lat="30.161858" lon="100.674602">
<time>2015-08-06T04:29:14Z</time></trkpt>
<trkpt lat="30.161838" lon="100.674602">
<time>2015-08-06T04:29:15Z</time></trkpt>
<trkpt lat="30.161808" lon="100.674612">
<time>2015-08-06T04:29:16Z</time></trkpt>
<trkpt lat="30.161778" lon="100.674622">
<time>2015-08-06T04:29:17Z</time></trkpt>
<trkpt lat="30.161728" lon="100.674641">
<time>2015-08-06T04:29:18Z</time></trkpt>
<trkpt lat="30.161608" lon="100.674721">
<time>2015-08-06T04:29:19Z</time></trkpt>
<trkpt lat="30.161447" lon="100.674841">
<time>2015-08-06T04:29:20Z</time></trkpt>
<trkpt lat="30.161347" lon="100.674911">
<time>2015-08-06T04:29:21Z</time></trkpt>
<trkpt lat="30.161247" lon="100.674971">
<time>2015-08-06T04:29:22Z</time></trkpt>
<trkpt lat="30.161127" lon="100.67501">
<time>2015-08-06T04:29:23Z</time></trkpt>
<trkpt lat="30.160427" lon="100.67513">
<time>2015-08-06T04:29:24Z</time></trkpt>
<trkpt lat="30.160147" lon="100.67516">
<time>2015-08-06T04:29:25Z</time></trkpt>
<trkpt lat="30.160077" lon="100.67516">
<time>2015-08-06T04:29:26Z</time></trkpt>
<trkpt lat="30.160007" lon="100.67515">
<time>2015-08-06T04:29:27Z</time></trkpt>
<trkpt lat="30.159907" lon="100.6751">
<time>2015-08-06T04:29:28Z</time></trkpt>
<trkpt lat="30.159827" lon="100.67505">
<time>2015-08-06T04:29:29Z</time></trkpt>
<trkpt lat="30.159697" lon="100.674951">
<time>2015-08-06T04:29:30Z</time></trkpt>
<trkpt lat="30.159238" lon="100.674612">
<time>2015-08-06T04:29:31Z</time></trkpt>
<trkpt lat="30.158938" lon="100.674382">
<time>2015-08-06T04:29:32Z</time></trkpt>
<trkpt lat="30.158808" lon="100.674292">
<time>2015-08-06T04:29:33Z</time></trkpt>
<trkpt lat="30.158729" lon="100.674233">
<time>2015-08-06T04:29:34Z</time></trkpt>
<trkpt lat="30.158639" lon="100.674203">
<time>2015-08-06T04:29:35Z</time></trkpt>
<trkpt lat="30.158519" lon="100.674173">
<time>2015-08-06T04:29:36Z</time></trkpt>
<trkpt lat="30.158389" lon="100.674133">
<time>2015-08-06T04:29:37Z</time></trkpt>
<trkpt lat="30.158319" lon="100.674093">
<time>2015-08-06T04:29:38Z</time></trkpt>
<trkpt lat="30.158279" lon="100.674043">
<time>2015-08-06T04:29:39Z</time></trkpt>
<trkpt lat="30.158239" lon="100.673983">
<time>2015-08-06T04:29:40Z</time></trkpt>
<trkpt lat="30.158209" lon="100.673874">
<time>2015-08-06T04:29:41Z</time></trkpt>
<trkpt lat="30.15809" lon="100.673515">
<time>2015-08-06T04:29:42Z</time></trkpt>
<trkpt lat="30.15798" lon="100.673285">
<time>2015-08-06T04:29:43Z</time></trkpt>
<trkpt lat="30.157931" lon="100.673195">
<time>2015-08-06T04:29:44Z</time></trkpt>
<trkpt lat="30.157871" lon="100.673116">
<time>2015-08-06T04:29:45Z</time></trkpt>
<trkpt lat="30.157791" lon="100.673046">
<time>2015-08-06T04:29:46Z</time></trkpt>
<trkpt lat="30.157671" lon="100.672986">
<time>2015-08-06T04:29:47Z</time></trkpt>
<trkpt lat="30.157601" lon="100.672966">
<time>2015-08-06T04:29:48Z</time></trkpt>
<trkpt lat="30.157501" lon="100.672956">
<time>2015-08-06T04:29:49Z</time></trkpt>
<trkpt lat="30.157351" lon="100.672956">
<time>2015-08-06T04:29:50Z</time></trkpt>
<trkpt lat="30.156871" lon="100.673016">
<time>2015-08-06T04:29:51Z</time></trkpt>
<trkpt lat="30.156741" lon="100.673026">
<time>2015-08-06T04:29:52Z</time></trkpt>
<trkpt lat="30.156671" lon="100.673016">
<time>2015-08-06T04:29:53Z</time></trkpt>
<trkpt lat="30.156611" lon="100.672996">
<time>2015-08-06T04:29:54Z</time></trkpt>
<trkpt lat="30.156561" lon="100.672946">
<time>2015-08-06T04:29:55Z</time></trkpt>
<trkpt lat="30.156471" lon="100.672856">
<time>2015-08-06T04:29:56Z</time></trkpt>
<trkpt lat="30.156401" lon="100.672747">
<time>2015-08-06T04:29:57Z</time></trkpt>
<trkpt lat="30.156302" lon="100.672577">
<time>2015-08-06T04:29:58Z</time></trkpt>
<trkpt lat="30.156232" lon="100.672428">
<time>2015-08-06T04:29:59Z</time></trkpt>
<trkpt lat="30.156142" lon="100.672218">
<time>2015-08-06T04:30:00Z</time></trkpt>
<trkpt lat="30.156023" lon="100.671959">
<time>2015-08-06T04:30:01Z</time></trkpt>
<trkpt lat="30.155903" lon="100.671749">
<time>2015-08-06T04:30:02Z</time></trkpt>
<trkpt lat="30.155784" lon="100.67158">
<time>2015-08-06T04:30:03Z</time></trkpt>
<trkpt lat="30.155664" lon="100.6714">
<time>2015-08-06T04:30:04Z</time></trkpt>
<trkpt lat="30.155484" lon="100.671141">
<time>2015-08-06T04:30:05Z</time></trkpt>
<trkpt lat="30.155345" lon="100.670902">
<time>2015-08-06T04:30:06Z</time></trkpt>
<trkpt lat="30.155235" lon="100.670692">
<time>2015-08-06T04:30:07Z</time></trkpt>
<trkpt lat="30.155136" lon="100.670473">
<time>2015-08-06T04:30:08Z</time></trkpt>
<trkpt lat="30.155086" lon="100.670323">
<time>2015-08-06T04:30:09Z</time></trkpt>
<trkpt lat="30.154907" lon="100.669874">
<time>2015-08-06T04:30:10Z</time></trkpt>
<trkpt lat="30.154837" lon="100.669675">
<time>2015-08-06T04:30:11Z</time></trkpt>
<trkpt lat="30.154817" lon="100.669605">
<time>2015-08-06T04:30:12Z</time></trkpt>
<trkpt lat="30.154748" lon="100.669296">
<time>2015-08-06T04:30:13Z</time></trkpt>
<trkpt lat="30.154688" lon="100.669057">
<time>2015-08-06T04:30:14Z</time></trkpt>
<trkpt lat="30.154639" lon="100.668887">
<time>2015-08-06T04:30:15Z</time></trkpt>
<trkpt lat="30.154579" lon="100.668757">
<time>2015-08-06T04:30:16Z</time></trkpt>
<trkpt lat="30.154509" lon="100.668658">
<time>2015-08-06T04:30:17Z</time></trkpt>
<trkpt lat="30.154409" lon="100.668578">
<time>2015-08-06T04:30:18Z</time></trkpt>
<trkpt lat="30.15425" lon="100.668498">
<time>2015-08-06T04:30:19Z</time></trkpt>
<trkpt lat="30.15409" lon="100.668448">
<time>2015-08-06T04:30:20Z</time></trkpt>
<trkpt lat="30.15385" lon="100.668398">
<time>2015-08-06T04:30:21Z</time></trkpt>
<trkpt lat="30.15371" lon="100.668388">
<time>2015-08-06T04:30:22Z</time></trkpt>
<trkpt lat="30.15358" lon="100.668398">
<time>2015-08-06T04:30:23Z</time></trkpt>
<trkpt lat="30.15343" lon="100.668428">
<time>2015-08-06T04:30:24Z</time></trkpt>
<trkpt lat="30.153079" lon="100.668558">
<time>2015-08-06T04:30:25Z</time></trkpt>
<trkpt lat="30.152839" lon="100.668658">
<time>2015-08-06T04:30:26Z</time></trkpt>
<trkpt lat="30.152649" lon="100.668718">
<time>2015-08-06T04:30:27Z</time></trkpt>
<trkpt lat="30.152519" lon="100.668737">
<time>2015-08-06T04:30:28Z</time></trkpt>
<trkpt lat="30.152409" lon="100.668718">
<time>2015-08-06T04:30:29Z</time></trkpt>
<trkpt lat="30.152329" lon="100.668688">
<time>2015-08-06T04:30:30Z</time></trkpt>
<trkpt lat="30.152219" lon="100.668628">
<time>2015-08-06T04:30:31Z</time></trkpt>
<trkpt lat="30.15213" lon="100.668538">
<time>2015-08-06T04:30:32Z</time></trkpt>
<trkpt lat="30.15201" lon="100.668408">
<time>2015-08-06T04:30:33Z</time></trkpt>
<trkpt lat="30.15179" lon="100.668119">
<time>2015-08-06T04:30:34Z</time></trkpt>
<trkpt lat="30.15172" lon="100.668049">
<time>2015-08-06T04:30:35Z</time></trkpt>
<trkpt lat="30.151651" lon="100.667999">
<time>2015-08-06T04:30:36Z</time></trkpt>
<trkpt lat="30.151521" lon="100.66795">
<time>2015-08-06T04:30:37Z</time></trkpt>
<trkpt lat="30.151311" lon="100.66793">
<time>2015-08-06T04:30:38Z</time></trkpt>
<trkpt lat="30.150941" lon="100.66797">
<time>2015-08-06T04:30:39Z</time></trkpt>
<trkpt lat="30.150421" lon="100.668">
<time>2015-08-06T04:30:40Z</time></trkpt>
<trkpt lat="30.14996" lon="100.668059">
<time>2015-08-06T04:30:41Z</time></trkpt>
<trkpt lat="30.14964" lon="100.668149">
<time>2015-08-06T04:30:42Z</time></trkpt>
<trkpt lat="30.14887" lon="100.668408">
<time>2015-08-06T04:30:43Z</time></trkpt>
<trkpt lat="30.148379" lon="100.668608">
<time>2015-08-06T04:30:44Z</time></trkpt>
<trkpt lat="30.148169" lon="100.668708">
<time>2015-08-06T04:30:45Z</time></trkpt>
<trkpt lat="30.147909" lon="100.668857">
<time>2015-08-06T04:30:46Z</time></trkpt>
<trkpt lat="30.147498" lon="100.669157">
<time>2015-08-06T04:30:47Z</time></trkpt>
<trkpt lat="30.147008" lon="100.669595">
<time>2015-08-06T04:30:48Z</time></trkpt>
<trkpt lat="30.146547" lon="100.670014">
<time>2015-08-06T04:30:49Z</time></trkpt>
<trkpt lat="30.146386" lon="100.670154">
<time>2015-08-06T04:30:50Z</time></trkpt>
<trkpt lat="30.146066" lon="100.670363">
<time>2015-08-06T04:30:51Z</time></trkpt>
<trkpt lat="30.145465" lon="100.670762">
<time>2015-08-06T04:30:52Z</time></trkpt>
<trkpt lat="30.145375" lon="100.670832">
<time>2015-08-06T04:30:53Z</time></trkpt>
<trkpt lat="30.145005" lon="100.671091">
<time>2015-08-06T04:30:54Z</time></trkpt>
<trkpt lat="30.144704" lon="100.671351">
<time>2015-08-06T04:30:55Z</time></trkpt>
<trkpt lat="30.144273" lon="100.671849">
<time>2015-08-06T04:30:56Z</time></trkpt>
<trkpt lat="30.144243" lon="100.671889">
<time>2015-08-06T04:30:57Z</time></trkpt>
<trkpt lat="30.144183" lon="100.671939">
<time>2015-08-06T04:30:58Z</time></trkpt>
<trkpt lat="30.144143" lon="100.671959">
<time>2015-08-06T04:30:59Z</time></trkpt>
<trkpt lat="30.144113" lon="100.671969">
<time>2015-08-06T04:31:00Z</time></trkpt>
<trkpt lat="30.144073" lon="100.671989">
<time>2015-08-06T04:31:01Z</time></trkpt>
<trkpt lat="30.144043" lon="100.671989">
<time>2015-08-06T04:31:02Z</time></trkpt>
<trkpt lat="30.144003" lon="100.671989">
<time>2015-08-06T04:31:03Z</time></trkpt>
<trkpt lat="30.143973" lon="100.671979">
<time>2015-08-06T04:31:04Z</time></trkpt>
<trkpt lat="30.143943" lon="100.671959">
<time>2015-08-06T04:31:05Z</time></trkpt>
<trkpt lat="30.143913" lon="100.671939">
<time>2015-08-06T04:31:06Z</time></trkpt>
<trkpt lat="30.143903" lon="100.671929">
<time>2015-08-06T04:31:07Z</time></trkpt>
<trkpt lat="30.143873" lon="100.671899">
<time>2015-08-06T04:31:08Z</time></trkpt>
<trkpt lat="30.143863" lon="100.671869">
<time>2015-08-06T04:31:09Z</time></trkpt>
<trkpt lat="30.143843" lon="100.671829">
<time>2015-08-06T04:31:10Z</time></trkpt>
<trkpt lat="30.143823" lon="100.67178">
<time>2015-08-06T04:31:11Z</time></trkpt>
<trkpt lat="30.143813" lon="100.67172">
<time>2015-08-06T04:31:12Z</time></trkpt>
<trkpt lat="30.143804" lon="100.67164">
<time>2015-08-06T04:31:13Z</time></trkpt>
<trkpt lat="30.143804" lon="100.67155">
<time>2015-08-06T04:31:14Z</time></trkpt>
<trkpt lat="30.143804" lon="100.67145">
<time>2015-08-06T04:31:15Z</time></trkpt>
<trkpt lat="30.143824" lon="100.671311">
<time>2015-08-06T04:31:16Z</time></trkpt>
<trkpt lat="30.143844" lon="100.671211">
<time>2015-08-06T04:31:17Z</time></trkpt>
<trkpt lat="30.143925" lon="100.670842">
<time>2015-08-06T04:31:18Z</time></trkpt>
<trkpt lat="30.143976" lon="100.670573">
<time>2015-08-06T04:31:19Z</time></trkpt>
<trkpt lat="30.144026" lon="100.670363">
<time>2015-08-06T04:31:20Z</time></trkpt>
<trkpt lat="30.144076" lon="100.670174">
<time>2015-08-06T04:31:21Z</time></trkpt>
<trkpt lat="30.144147" lon="100.669945">
<time>2015-08-06T04:31:22Z</time></trkpt>
<trkpt lat="30.144197" lon="100.669725">
<time>2015-08-06T04:31:23Z</time></trkpt>
<trkpt lat="30.144248" lon="100.669536">
<time>2015-08-06T04:31:24Z</time></trkpt>
<trkpt lat="30.144328" lon="100.669276">
<time>2015-08-06T04:31:25Z</time></trkpt>
<trkpt lat="30.144379" lon="100.669077">
<time>2015-08-06T04:31:26Z</time></trkpt>
<trkpt lat="30.144439" lon="100.668837">
<time>2015-08-06T04:31:27Z</time></trkpt>
<trkpt lat="30.14455" lon="100.668379">
<time>2015-08-06T04:31:28Z</time></trkpt>
<trkpt lat="30.14459" lon="100.668249">
<time>2015-08-06T04:31:29Z</time></trkpt>
<trkpt lat="30.14463" lon="100.668109">
<time>2015-08-06T04:31:30Z</time></trkpt>
<trkpt lat="30.144681" lon="100.66796">
<time>2015-08-06T04:31:31Z</time></trkpt>
<trkpt lat="30.144761" lon="100.66774">
<time>2015-08-06T04:31:32Z</time></trkpt>
<trkpt lat="30.144862" lon="100.667471">
<time>2015-08-06T04:31:33Z</time></trkpt>
<trkpt lat="30.144942" lon="100.667232">
<time>2015-08-06T04:31:34Z</time></trkpt>
<trkpt lat="30.145002" lon="100.667022">
<time>2015-08-06T04:31:35Z</time></trkpt>
<trkpt lat="30.145073" lon="100.666763">
<time>2015-08-06T04:31:36Z</time></trkpt>
<trkpt lat="30.145123" lon="100.666583">
<time>2015-08-06T04:31:37Z</time></trkpt>
<trkpt lat="30.145154" lon="100.666424">
<time>2015-08-06T04:31:38Z</time></trkpt>
<trkpt lat="30.145174" lon="100.666304">
<time>2015-08-06T04:31:39Z</time></trkpt>
<trkpt lat="30.145184" lon="100.666145">
<time>2015-08-06T04:31:40Z</time></trkpt>
<trkpt lat="30.145184" lon="100.665975">
<time>2015-08-06T04:31:41Z</time></trkpt>
<trkpt lat="30.145155" lon="100.665766">
<time>2015-08-06T04:31:42Z</time></trkpt>
<trkpt lat="30.145135" lon="100.665646">
<time>2015-08-06T04:31:43Z</time></trkpt>
<trkpt lat="30.145115" lon="100.665546">
<time>2015-08-06T04:31:44Z</time></trkpt>
<trkpt lat="30.145075" lon="100.665446">
<time>2015-08-06T04:31:45Z</time></trkpt>
<trkpt lat="30.145036" lon="100.665327">
<time>2015-08-06T04:31:46Z</time></trkpt>
<trkpt lat="30.144986" lon="100.665247">
<time>2015-08-06T04:31:47Z</time></trkpt>
<trkpt lat="30.144936" lon="100.665167">
<time>2015-08-06T04:31:48Z</time></trkpt>
<trkpt lat="30.144876" lon="100.665097">
<time>2015-08-06T04:31:49Z</time></trkpt>
<trkpt lat="30.144816" lon="100.665038">
<time>2015-08-06T04:31:50Z</time></trkpt>
<trkpt lat="30.144756" lon="100.664968">
<time>2015-08-06T04:31:51Z</time></trkpt>
<trkpt lat="30.144667" lon="100.664888">
<time>2015-08-06T04:31:52Z</time></trkpt>
<trkpt lat="30.144397" lon="100.664679">
<time>2015-08-06T04:31:53Z</time></trkpt>
<trkpt lat="30.144277" lon="100.664569">
<time>2015-08-06T04:31:54Z</time></trkpt>
<trkpt lat="30.144197" lon="100.664469">
<time>2015-08-06T04:31:55Z</time></trkpt>
<trkpt lat="30.144128" lon="100.664359">
<time>2015-08-06T04:31:56Z</time></trkpt>
<trkpt lat="30.144048" lon="100.66423">
<time>2015-08-06T04:31:57Z</time></trkpt>
<trkpt lat="30.143968" lon="100.66406">
<time>2015-08-06T04:31:58Z</time></trkpt>
<trkpt lat="30.143928" lon="100.66395">
<time>2015-08-06T04:31:59Z</time></trkpt>
<trkpt lat="30.143889" lon="100.663851">
<time>2015-08-06T04:32:00Z</time></trkpt>
<trkpt lat="30.143869" lon="100.663761">
<time>2015-08-06T04:32:01Z</time></trkpt>
<trkpt lat="30.143859" lon="100.663681">
<time>2015-08-06T04:32:02Z</time></trkpt>
<trkpt lat="30.143849" lon="100.663552">
<time>2015-08-06T04:32:03Z</time></trkpt>
<trkpt lat="30.143839" lon="100.663362">
<time>2015-08-06T04:32:04Z</time></trkpt>
<trkpt lat="30.14382" lon="100.663252">
<time>2015-08-06T04:32:05Z</time></trkpt>
<trkpt lat="30.1438" lon="100.663163">
<time>2015-08-06T04:32:06Z</time></trkpt>
<trkpt lat="30.14378" lon="100.663093">
<time>2015-08-06T04:32:07Z</time></trkpt>
<trkpt lat="30.14375" lon="100.663003">
<time>2015-08-06T04:32:08Z</time></trkpt>
<trkpt lat="30.14371" lon="100.662923">
<time>2015-08-06T04:32:09Z</time></trkpt>
<trkpt lat="30.143651" lon="100.662803">
<time>2015-08-06T04:32:10Z</time></trkpt>
<trkpt lat="30.143601" lon="100.662704">
<time>2015-08-06T04:32:11Z</time></trkpt>
<trkpt lat="30.143551" lon="100.662574">
<time>2015-08-06T04:32:12Z</time></trkpt>
<trkpt lat="30.143521" lon="100.662484">
<time>2015-08-06T04:32:13Z</time></trkpt>
<trkpt lat="30.143491" lon="100.662365">
<time>2015-08-06T04:32:14Z</time></trkpt>
<trkpt lat="30.143462" lon="100.662215">
<time>2015-08-06T04:32:15Z</time></trkpt>
<trkpt lat="30.143442" lon="100.662055">
<time>2015-08-06T04:32:16Z</time></trkpt>
<trkpt lat="30.143432" lon="100.661976">
<time>2015-08-06T04:32:17Z</time></trkpt>
<trkpt lat="30.143452" lon="100.661896">
<time>2015-08-06T04:32:18Z</time></trkpt>
<trkpt lat="30.143472" lon="100.661836">
<time>2015-08-06T04:32:19Z</time></trkpt>
<trkpt lat="30.143492" lon="100.661806">
<time>2015-08-06T04:32:20Z</time></trkpt>
<trkpt lat="30.143522" lon="100.661776">
<time>2015-08-06T04:32:21Z</time></trkpt>
<trkpt lat="30.143552" lon="100.661756">
<time>2015-08-06T04:32:22Z</time></trkpt>
<trkpt lat="30.143583" lon="100.661736">
<time>2015-08-06T04:32:23Z</time></trkpt>
<trkpt lat="30.143633" lon="100.661726">
<time>2015-08-06T04:32:24Z</time></trkpt>
<trkpt lat="30.143683" lon="100.661716">
<time>2015-08-06T04:32:25Z</time></trkpt>
<trkpt lat="30.143823" lon="100.661686">
<time>2015-08-06T04:32:26Z</time></trkpt>
<trkpt lat="30.143953" lon="100.661666">
<time>2015-08-06T04:32:27Z</time></trkpt>
<trkpt lat="30.144023" lon="100.661647">
<time>2015-08-06T04:32:28Z</time></trkpt>
<trkpt lat="30.144123" lon="100.661607">
<time>2015-08-06T04:32:29Z</time></trkpt>
<trkpt lat="30.144263" lon="100.661557">
<time>2015-08-06T04:32:30Z</time></trkpt>
<trkpt lat="30.144433" lon="100.661467">
<time>2015-08-06T04:32:31Z</time></trkpt>
<trkpt lat="30.144543" lon="100.661417">
<time>2015-08-06T04:32:32Z</time></trkpt>
<trkpt lat="30.144573" lon="100.661397">
<time>2015-08-06T04:32:33Z</time></trkpt>
<trkpt lat="30.144643" lon="100.661357">
<time>2015-08-06T04:32:34Z</time></trkpt>
<trkpt lat="30.144743" lon="100.661297">
<time>2015-08-06T04:32:35Z</time></trkpt>
<trkpt lat="30.144864" lon="100.661208">
<time>2015-08-06T04:32:36Z</time></trkpt>
<trkpt lat="30.144964" lon="100.661128">
<time>2015-08-06T04:32:37Z</time></trkpt>
<trkpt lat="30.145054" lon="100.661048">
<time>2015-08-06T04:32:38Z</time></trkpt>
<trkpt lat="30.145174" lon="100.660928">
<time>2015-08-06T04:32:39Z</time></trkpt>
<trkpt lat="30.145284" lon="100.660799">
<time>2015-08-06T04:32:40Z</time></trkpt>
<trkpt lat="30.145354" lon="100.660729">
<time>2015-08-06T04:32:41Z</time></trkpt>
<trkpt lat="30.145414" lon="100.660699">
<time>2015-08-06T04:32:42Z</time></trkpt>
<trkpt lat="30.145445" lon="100.660679">
<time>2015-08-06T04:32:43Z</time></trkpt>
<trkpt lat="30.145495" lon="100.660659">
<time>2015-08-06T04:32:44Z</time></trkpt>
<trkpt lat="30.145545" lon="100.660649">
<time>2015-08-06T04:32:45Z</time></trkpt>
<trkpt lat="30.145615" lon="100.660649">
<time>2015-08-06T04:32:46Z</time></trkpt>
<trkpt lat="30.145665" lon="100.660659">
<time>2015-08-06T04:32:47Z</time></trkpt>
<trkpt lat="30.145734" lon="100.660699">
<time>2015-08-06T04:32:48Z</time></trkpt>
<trkpt lat="30.145794" lon="100.660769">
<time>2015-08-06T04:32:49Z</time></trkpt>
<trkpt lat="30.145844" lon="100.660869">
<time>2015-08-06T04:32:50Z</time></trkpt>
<trkpt lat="30.145914" lon="100.661128">
<time>2015-08-06T04:32:51Z</time></trkpt>
<trkpt lat="30.146063" lon="100.661577">
<time>2015-08-06T04:32:52Z</time></trkpt>
<trkpt lat="30.146132" lon="100.661776">
<time>2015-08-06T04:32:53Z</time></trkpt>
<trkpt lat="30.146182" lon="100.661856">
<time>2015-08-06T04:32:54Z</time></trkpt>
<trkpt lat="30.146272" lon="100.661986">
<time>2015-08-06T04:32:55Z</time></trkpt>
<trkpt lat="30.146372" lon="100.662095">
<time>2015-08-06T04:32:56Z</time></trkpt>
<trkpt lat="30.146472" lon="100.662195">
<time>2015-08-06T04:32:57Z</time></trkpt>
<trkpt lat="30.146572" lon="100.662265">
<time>2015-08-06T04:32:58Z</time></trkpt>
<trkpt lat="30.146651" lon="100.662305">
<time>2015-08-06T04:32:59Z</time></trkpt>
<trkpt lat="30.146731" lon="100.662345">
<time>2015-08-06T04:33:00Z</time></trkpt>
<trkpt lat="30.146801" lon="100.662355">
<time>2015-08-06T04:33:01Z</time></trkpt>
<trkpt lat="30.146911" lon="100.662385">
<time>2015-08-06T04:33:02Z</time></trkpt>
<trkpt lat="30.147101" lon="100.662404">
<time>2015-08-06T04:33:03Z</time></trkpt>
<trkpt lat="30.147211" lon="100.662414">
<time>2015-08-06T04:33:04Z</time></trkpt>
<trkpt lat="30.147341" lon="100.662414">
<time>2015-08-06T04:33:05Z</time></trkpt>
<trkpt lat="30.147511" lon="100.662424">
<time>2015-08-06T04:33:06Z</time></trkpt>
<trkpt lat="30.147671" lon="100.662414">
<time>2015-08-06T04:33:07Z</time></trkpt>
<trkpt lat="30.147771" lon="100.662394">
<time>2015-08-06T04:33:08Z</time></trkpt>
<trkpt lat="30.147851" lon="100.662365">
<time>2015-08-06T04:33:09Z</time></trkpt>
<trkpt lat="30.147921" lon="100.662325">
<time>2015-08-06T04:33:10Z</time></trkpt>
<trkpt lat="30.147991" lon="100.662285">
<time>2015-08-06T04:33:11Z</time></trkpt>
<trkpt lat="30.148102" lon="100.662205">
<time>2015-08-06T04:33:12Z</time></trkpt>
<trkpt lat="30.148222" lon="100.662105">
<time>2015-08-06T04:33:13Z</time></trkpt>
<trkpt lat="30.148322" lon="100.662015">
<time>2015-08-06T04:33:14Z</time></trkpt>
<trkpt lat="30.148422" lon="100.661896">
<time>2015-08-06T04:33:15Z</time></trkpt>
<trkpt lat="30.148482" lon="100.661806">
<time>2015-08-06T04:33:16Z</time></trkpt>
<trkpt lat="30.148553" lon="100.661686">
<time>2015-08-06T04:33:17Z</time></trkpt>
<trkpt lat="30.148613" lon="100.661557">
<time>2015-08-06T04:33:18Z</time></trkpt>
<trkpt lat="30.148683" lon="100.661367">
<time>2015-08-06T04:33:19Z</time></trkpt>
<trkpt lat="30.148764" lon="100.661078">
<time>2015-08-06T04:33:20Z</time></trkpt>
<trkpt lat="30.148814" lon="100.660898">
<time>2015-08-06T04:33:21Z</time></trkpt>
<trkpt lat="30.148864" lon="100.660709">
<time>2015-08-06T04:33:22Z</time></trkpt>
<trkpt lat="30.148895" lon="100.660549">
<time>2015-08-06T04:33:23Z</time></trkpt>
<trkpt lat="30.148915" lon="100.66042">
<time>2015-08-06T04:33:24Z</time></trkpt>
<trkpt lat="30.148945" lon="100.66026">
<time>2015-08-06T04:33:25Z</time></trkpt>
<trkpt lat="30.148996" lon="100.660021">
<time>2015-08-06T04:33:26Z</time></trkpt>
<trkpt lat="30.149056" lon="100.659771">
<time>2015-08-06T04:33:27Z</time></trkpt>
<trkpt lat="30.149076" lon="100.659652">
<time>2015-08-06T04:33:28Z</time></trkpt>
<trkpt lat="30.149127" lon="100.659382">
<time>2015-08-06T04:33:29Z</time></trkpt>
<trkpt lat="30.149137" lon="100.659253">
<time>2015-08-06T04:33:30Z</time></trkpt>
<trkpt lat="30.149137" lon="100.659193">
<time>2015-08-06T04:33:31Z</time></trkpt>
<trkpt lat="30.149137" lon="100.659103">
<time>2015-08-06T04:33:32Z</time></trkpt>
<trkpt lat="30.149128" lon="100.658973">
<time>2015-08-06T04:33:33Z</time></trkpt>
<trkpt lat="30.149088" lon="100.658844">
<time>2015-08-06T04:33:34Z</time></trkpt>
<trkpt lat="30.149058" lon="100.658764">
<time>2015-08-06T04:33:35Z</time></trkpt>
<trkpt lat="30.149008" lon="100.658684">
<time>2015-08-06T04:33:36Z</time></trkpt>
<trkpt lat="30.148709" lon="100.658195">
<time>2015-08-06T04:33:37Z</time></trkpt>
<trkpt lat="30.14852" lon="100.657906">
<time>2015-08-06T04:33:38Z</time></trkpt>
<trkpt lat="30.14836" lon="100.657647">
<time>2015-08-06T04:33:39Z</time></trkpt>
<trkpt lat="30.14831" lon="100.657567">
<time>2015-08-06T04:33:40Z</time></trkpt>
<trkpt lat="30.14824" lon="100.657477">
<time>2015-08-06T04:33:41Z</time></trkpt>
<trkpt lat="30.148141" lon="100.657368">
<time>2015-08-06T04:33:42Z</time></trkpt>
<trkpt lat="30.147921" lon="100.657158">
<time>2015-08-06T04:33:43Z</time></trkpt>
<trkpt lat="30.147592" lon="100.656809">
<time>2015-08-06T04:33:44Z</time></trkpt>
<trkpt lat="30.147272" lon="100.65649">
<time>2015-08-06T04:33:45Z</time></trkpt>
<trkpt lat="30.147073" lon="100.65627">
<time>2015-08-06T04:33:46Z</time></trkpt>
<trkpt lat="30.147023" lon="100.656191">
<time>2015-08-06T04:33:47Z</time></trkpt>
<trkpt lat="30.146973" lon="100.656111">
<time>2015-08-06T04:33:48Z</time></trkpt>
<trkpt lat="30.146913" lon="100.656001">
<time>2015-08-06T04:33:49Z</time></trkpt>
<trkpt lat="30.146873" lon="100.655901">
<time>2015-08-06T04:33:50Z</time></trkpt>
<trkpt lat="30.146655" lon="100.655273">
<time>2015-08-06T04:33:51Z</time></trkpt>
<trkpt lat="30.146595" lon="100.655063">
<time>2015-08-06T04:33:52Z</time></trkpt>
<trkpt lat="30.146575" lon="100.654964">
<time>2015-08-06T04:33:53Z</time></trkpt>
<trkpt lat="30.146565" lon="100.654894">
<time>2015-08-06T04:33:54Z</time></trkpt>
<trkpt lat="30.146545" lon="100.654794">
<time>2015-08-06T04:33:55Z</time></trkpt>
<trkpt lat="30.146546" lon="100.654714">
<time>2015-08-06T04:33:56Z</time></trkpt>
<trkpt lat="30.146546" lon="100.654615">
<time>2015-08-06T04:33:57Z</time></trkpt>
<trkpt lat="30.146546" lon="100.654535">
<time>2015-08-06T04:33:58Z</time></trkpt>
<trkpt lat="30.146566" lon="100.654435">
<time>2015-08-06T04:33:59Z</time></trkpt>
<trkpt lat="30.146586" lon="100.654355">
<time>2015-08-06T04:34:00Z</time></trkpt>
<trkpt lat="30.146616" lon="100.654285">
<time>2015-08-06T04:34:01Z</time></trkpt>
<trkpt lat="30.146677" lon="100.654136">
<time>2015-08-06T04:34:02Z</time></trkpt>
<trkpt lat="30.146757" lon="100.653936">
<time>2015-08-06T04:34:03Z</time></trkpt>
<trkpt lat="30.146847" lon="100.653747">
<time>2015-08-06T04:34:04Z</time></trkpt>
<trkpt lat="30.146958" lon="100.653547">
<time>2015-08-06T04:34:05Z</time></trkpt>
<trkpt lat="30.147048" lon="100.653418">
<time>2015-08-06T04:34:06Z</time></trkpt>
<trkpt lat="30.147088" lon="100.653368">
<time>2015-08-06T04:34:07Z</time></trkpt>
<trkpt lat="30.147168" lon="100.653248">
<time>2015-08-06T04:34:08Z</time></trkpt>
<trkpt lat="30.147308" lon="100.653098">
<time>2015-08-06T04:34:09Z</time></trkpt>
<trkpt lat="30.147769" lon="100.65264">
<time>2015-08-06T04:34:10Z</time></trkpt>
<trkpt lat="30.14801" lon="100.65242">
<time>2015-08-06T04:34:11Z</time></trkpt>
<trkpt lat="30.14819" lon="100.652261">
<time>2015-08-06T04:34:12Z</time></trkpt>
<trkpt lat="30.14832" lon="100.652171">
<time>2015-08-06T04:34:13Z</time></trkpt>
<trkpt lat="30.14864" lon="100.651951">
<time>2015-08-06T04:34:14Z</time></trkpt>
<trkpt lat="30.148751" lon="100.651881">
<time>2015-08-06T04:34:15Z</time></trkpt>
<trkpt lat="30.149011" lon="100.651722">
<time>2015-08-06T04:34:16Z</time></trkpt>
<trkpt lat="30.149121" lon="100.651662">
<time>2015-08-06T04:34:17Z</time></trkpt>
<trkpt lat="30.149231" lon="100.651612">
<time>2015-08-06T04:34:18Z</time></trkpt>
<trkpt lat="30.149391" lon="100.651572">
<time>2015-08-06T04:34:19Z</time></trkpt>
<trkpt lat="30.149631" lon="100.651512">
<time>2015-08-06T04:34:20Z</time></trkpt>
<trkpt lat="30.149771" lon="100.651482">
<time>2015-08-06T04:34:21Z</time></trkpt>
<trkpt lat="30.149951" lon="100.651452">
<time>2015-08-06T04:34:22Z</time></trkpt>
<trkpt lat="30.150021" lon="100.651433">
<time>2015-08-06T04:34:23Z</time></trkpt>
<trkpt lat="30.150101" lon="100.651393">
<time>2015-08-06T04:34:24Z</time></trkpt>
<trkpt lat="30.150162" lon="100.651353">
<time>2015-08-06T04:34:25Z</time></trkpt>
<trkpt lat="30.150222" lon="100.651293">
<time>2015-08-06T04:34:26Z</time></trkpt>
<trkpt lat="30.150272" lon="100.651223">
<time>2015-08-06T04:34:27Z</time></trkpt>
<trkpt lat="30.150322" lon="100.651143">
<time>2015-08-06T04:34:28Z</time></trkpt>
<trkpt lat="30.150342" lon="100.651063">
<time>2015-08-06T04:34:29Z</time></trkpt>
<trkpt lat="30.150352" lon="100.650974">
<time>2015-08-06T04:34:30Z</time></trkpt>
<trkpt lat="30.150352" lon="100.650874">
<time>2015-08-06T04:34:31Z</time></trkpt>
<trkpt lat="30.150333" lon="100.650764">
<time>2015-08-06T04:34:32Z</time></trkpt>
<trkpt lat="30.150253" lon="100.650565">
<time>2015-08-06T04:34:33Z</time></trkpt>
<trkpt lat="30.150064" lon="100.650176">
<time>2015-08-06T04:34:34Z</time></trkpt>
<trkpt lat="30.149984" lon="100.650026">
<time>2015-08-06T04:34:35Z</time></trkpt>
<trkpt lat="30.149954" lon="100.649986">
<time>2015-08-06T04:34:36Z</time></trkpt>
<trkpt lat="30.149844" lon="100.649866">
<time>2015-08-06T04:34:37Z</time></trkpt>
<trkpt lat="30.149764" lon="100.649807">
<time>2015-08-06T04:34:38Z</time></trkpt>
<trkpt lat="30.149614" lon="100.649697">
<time>2015-08-06T04:34:39Z</time></trkpt>
<trkpt lat="30.149385" lon="100.649547">
<time>2015-08-06T04:34:40Z</time></trkpt>
<trkpt lat="30.148875" lon="100.649228">
<time>2015-08-06T04:34:41Z</time></trkpt>
<trkpt lat="30.148685" lon="100.649108">
<time>2015-08-06T04:34:42Z</time></trkpt>
<trkpt lat="30.148486" lon="100.648969">
<time>2015-08-06T04:34:43Z</time></trkpt>
<trkpt lat="30.148326" lon="100.648859">
<time>2015-08-06T04:34:44Z</time></trkpt>
<trkpt lat="30.148176" lon="100.648719">
<time>2015-08-06T04:34:45Z</time></trkpt>
<trkpt lat="30.147996" lon="100.64855">
<time>2015-08-06T04:34:46Z</time></trkpt>
<trkpt lat="30.147827" lon="100.64838">
<time>2015-08-06T04:34:47Z</time></trkpt>
<trkpt lat="30.147298" lon="100.647831">
<time>2015-08-06T04:34:48Z</time></trkpt>
<trkpt lat="30.147118" lon="100.647682">
<time>2015-08-06T04:34:49Z</time></trkpt>
<trkpt lat="30.146908" lon="100.647542">
<time>2015-08-06T04:34:50Z</time></trkpt>
<trkpt lat="30.146698" lon="100.647412">
<time>2015-08-06T04:34:51Z</time></trkpt>
<trkpt lat="30.146559" lon="100.647323">
<time>2015-08-06T04:34:52Z</time></trkpt>
<trkpt lat="30.146479" lon="100.647263">
<time>2015-08-06T04:34:53Z</time></trkpt>
<trkpt lat="30.146389" lon="100.647163">
<time>2015-08-06T04:34:54Z</time></trkpt>
<trkpt lat="30.146329" lon="100.647073">
<time>2015-08-06T04:34:55Z</time></trkpt>
<trkpt lat="30.146279" lon="100.646974">
<time>2015-08-06T04:34:56Z</time></trkpt>
<trkpt lat="30.146239" lon="100.646874">
<time>2015-08-06T04:34:57Z</time></trkpt>
<trkpt lat="30.146219" lon="100.646784">
<time>2015-08-06T04:34:58Z</time></trkpt>
<trkpt lat="30.14618" lon="100.646644">
<time>2015-08-06T04:34:59Z</time></trkpt>
<trkpt lat="30.14614" lon="100.646435">
<time>2015-08-06T04:35:00Z</time></trkpt>
<trkpt lat="30.146101" lon="100.646086">
<time>2015-08-06T04:35:01Z</time></trkpt>
<trkpt lat="30.146051" lon="100.645836">
<time>2015-08-06T04:35:02Z</time></trkpt>
<trkpt lat="30.145992" lon="100.645587">
<time>2015-08-06T04:35:03Z</time></trkpt>
<trkpt lat="30.145922" lon="100.645327">
<time>2015-08-06T04:35:04Z</time></trkpt>
<trkpt lat="30.145832" lon="100.645068">
<time>2015-08-06T04:35:05Z</time></trkpt>
<trkpt lat="30.145773" lon="100.644839">
<time>2015-08-06T04:35:06Z</time></trkpt>
<trkpt lat="30.145733" lon="100.644659">
<time>2015-08-06T04:35:07Z</time></trkpt>
<trkpt lat="30.145733" lon="100.644459">
<time>2015-08-06T04:35:08Z</time></trkpt>
<trkpt lat="30.145754" lon="100.64418">
<time>2015-08-06T04:35:09Z</time></trkpt>
<trkpt lat="30.145784" lon="100.643951">
<time>2015-08-06T04:35:10Z</time></trkpt>
<trkpt lat="30.145785" lon="100.643681">
<time>2015-08-06T04:35:11Z</time></trkpt>
<trkpt lat="30.145755" lon="100.643412">
<time>2015-08-06T04:35:12Z</time></trkpt>
<trkpt lat="30.145706" lon="100.643103">
<time>2015-08-06T04:35:13Z</time></trkpt>
<trkpt lat="30.145666" lon="100.642743">
<time>2015-08-06T04:35:14Z</time></trkpt>
<trkpt lat="30.145687" lon="100.642444">
<time>2015-08-06T04:35:15Z</time></trkpt>
<trkpt lat="30.145747" lon="100.642125">
<time>2015-08-06T04:35:16Z</time></trkpt>
<trkpt lat="30.145828" lon="100.641786">
<time>2015-08-06T04:35:17Z</time></trkpt>
<trkpt lat="30.145888" lon="100.641476">
<time>2015-08-06T04:35:18Z</time></trkpt>
<trkpt lat="30.145979" lon="100.641147">
<time>2015-08-06T04:35:19Z</time></trkpt>
<trkpt lat="30.146099" lon="100.640858">
<time>2015-08-06T04:35:20Z</time></trkpt>
<trkpt lat="30.14625" lon="100.640538">
<time>2015-08-06T04:35:21Z</time></trkpt>
<trkpt lat="30.14639" lon="100.640259">
<time>2015-08-06T04:35:22Z</time></trkpt>
<trkpt lat="30.146571" lon="100.6399">
<time>2015-08-06T04:35:23Z</time></trkpt>
<trkpt lat="30.146721" lon="100.639581">
<time>2015-08-06T04:35:24Z</time></trkpt>
<trkpt lat="30.146801" lon="100.639431">
<time>2015-08-06T04:35:25Z</time></trkpt>
<trkpt lat="30.146882" lon="100.639271">
<time>2015-08-06T04:35:26Z</time></trkpt>
<trkpt lat="30.147022" lon="100.639032">
<time>2015-08-06T04:35:27Z</time></trkpt>
<trkpt lat="30.147192" lon="100.638772">
<time>2015-08-06T04:35:28Z</time></trkpt>
<trkpt lat="30.147403" lon="100.638453">
<time>2015-08-06T04:35:29Z</time></trkpt>
<trkpt lat="30.147523" lon="100.638283">
<time>2015-08-06T04:35:30Z</time></trkpt>
<trkpt lat="30.147563" lon="100.638203">
<time>2015-08-06T04:35:31Z</time></trkpt>
<trkpt lat="30.147613" lon="100.638114">
<time>2015-08-06T04:35:32Z</time></trkpt>
<trkpt lat="30.147643" lon="100.638024">
<time>2015-08-06T04:35:33Z</time></trkpt>
<trkpt lat="30.147694" lon="100.637884">
<time>2015-08-06T04:35:34Z</time></trkpt>
<trkpt lat="30.147704" lon="100.637744">
<time>2015-08-06T04:35:35Z</time></trkpt>
<trkpt lat="30.147694" lon="100.637525">
<time>2015-08-06T04:35:36Z</time></trkpt>
<trkpt lat="30.147654" lon="100.637355">
<time>2015-08-06T04:35:37Z</time></trkpt>
<trkpt lat="30.147575" lon="100.637126">
<time>2015-08-06T04:35:38Z</time></trkpt>
<trkpt lat="30.147535" lon="100.636966">
<time>2015-08-06T04:35:39Z</time></trkpt>
<trkpt lat="30.147475" lon="100.636687">
<time>2015-08-06T04:35:40Z</time></trkpt>
<trkpt lat="30.147436" lon="100.636357">
<time>2015-08-06T04:35:41Z</time></trkpt>
<trkpt lat="30.147396" lon="100.636038">
<time>2015-08-06T04:35:42Z</time></trkpt>
<trkpt lat="30.147347" lon="100.635729">
<time>2015-08-06T04:35:43Z</time></trkpt>
<trkpt lat="30.147307" lon="100.635409">
<time>2015-08-06T04:35:44Z</time></trkpt>
<trkpt lat="30.147288" lon="100.63511">
<time>2015-08-06T04:35:45Z</time></trkpt>
<trkpt lat="30.147258" lon="100.634881">
<time>2015-08-06T04:35:46Z</time></trkpt>
<trkpt lat="30.147228" lon="100.634641">
<time>2015-08-06T04:35:47Z</time></trkpt>
<trkpt lat="30.147229" lon="100.634551">
<time>2015-08-06T04:35:48Z</time></trkpt>
<trkpt lat="30.147229" lon="100.634461">
<time>2015-08-06T04:35:49Z</time></trkpt>
<trkpt lat="30.147269" lon="100.634282">
<time>2015-08-06T04:35:50Z</time></trkpt>
<trkpt lat="30.147319" lon="100.634142">
<time>2015-08-06T04:35:51Z</time></trkpt>
<trkpt lat="30.147339" lon="100.634002">
<time>2015-08-06T04:35:52Z</time></trkpt>
<trkpt lat="30.14735" lon="100.633813">
<time>2015-08-06T04:35:53Z</time></trkpt>
<trkpt lat="30.14733" lon="100.633673">
<time>2015-08-06T04:35:54Z</time></trkpt>
<trkpt lat="30.14726" lon="100.633483">
<time>2015-08-06T04:35:55Z</time></trkpt>
<trkpt lat="30.14721" lon="100.633354">
<time>2015-08-06T04:35:56Z</time></trkpt>
<trkpt lat="30.147091" lon="100.633134">
<time>2015-08-06T04:35:57Z</time></trkpt>
<trkpt lat="30.146961" lon="100.632974">
<time>2015-08-06T04:35:58Z</time></trkpt>
<trkpt lat="30.146891" lon="100.632944">
<time>2015-08-06T04:35:59Z</time></trkpt>
<trkpt lat="30.146831" lon="100.632925">
<time>2015-08-06T04:36:00Z</time></trkpt>
<trkpt lat="30.146751" lon="100.632915">
<time>2015-08-06T04:36:01Z</time></trkpt>
<trkpt lat="30.146651" lon="100.632925">
<time>2015-08-06T04:36:02Z</time></trkpt>
<trkpt lat="30.146451" lon="100.632954">
<time>2015-08-06T04:36:03Z</time></trkpt>
<trkpt lat="30.146231" lon="100.633024">
<time>2015-08-06T04:36:04Z</time></trkpt>
<trkpt lat="30.146001" lon="100.633084">
<time>2015-08-06T04:36:05Z</time></trkpt>
<trkpt lat="30.145741" lon="100.633154">
<time>2015-08-06T04:36:06Z</time></trkpt>
<trkpt lat="30.14552" lon="100.633224">
<time>2015-08-06T04:36:07Z</time></trkpt>
<trkpt lat="30.14524" lon="100.633294">
<time>2015-08-06T04:36:08Z</time></trkpt>
<trkpt lat="30.14504" lon="100.633344">
<time>2015-08-06T04:36:09Z</time></trkpt>
<trkpt lat="30.14491" lon="100.633364">
<time>2015-08-06T04:36:10Z</time></trkpt>
<trkpt lat="30.14481" lon="100.633374">
<time>2015-08-06T04:36:11Z</time></trkpt>
<trkpt lat="30.14462" lon="100.633374">
<time>2015-08-06T04:36:12Z</time></trkpt>
<trkpt lat="30.14444" lon="100.633354">
<time>2015-08-06T04:36:13Z</time></trkpt>
<trkpt lat="30.14427" lon="100.633304">
<time>2015-08-06T04:36:14Z</time></trkpt>
<trkpt lat="30.14416" lon="100.633254">
<time>2015-08-06T04:36:15Z</time></trkpt>
<trkpt lat="30.14407" lon="100.633204">
<time>2015-08-06T04:36:16Z</time></trkpt>
<trkpt lat="30.143991" lon="100.633124">
<time>2015-08-06T04:36:17Z</time></trkpt>
<trkpt lat="30.143911" lon="100.633044">
<time>2015-08-06T04:36:18Z</time></trkpt>
<trkpt lat="30.143841" lon="100.632925">
<time>2015-08-06T04:36:19Z</time></trkpt>
<trkpt lat="30.143791" lon="100.632815">
<time>2015-08-06T04:36:20Z</time></trkpt>
<trkpt lat="30.143751" lon="100.632735">
<time>2015-08-06T04:36:21Z</time></trkpt>
<trkpt lat="30.143731" lon="100.632625">
<time>2015-08-06T04:36:22Z</time></trkpt>
<trkpt lat="30.143722" lon="100.632356">
<time>2015-08-06T04:36:23Z</time></trkpt>
<trkpt lat="30.143722" lon="100.632066">
<time>2015-08-06T04:36:24Z</time></trkpt>
<trkpt lat="30.143732" lon="100.631757">
<time>2015-08-06T04:36:25Z</time></trkpt>
<trkpt lat="30.143733" lon="100.631517">
<time>2015-08-06T04:36:26Z</time></trkpt>
<trkpt lat="30.143743" lon="100.631238">
<time>2015-08-06T04:36:27Z</time></trkpt>
<trkpt lat="30.143744" lon="100.630899">
<time>2015-08-06T04:36:28Z</time></trkpt>
<trkpt lat="30.143744" lon="100.630659">
<time>2015-08-06T04:36:29Z</time></trkpt>
<trkpt lat="30.143754" lon="100.63038">
<time>2015-08-06T04:36:30Z</time></trkpt>
<trkpt lat="30.143765" lon="100.63001">
<time>2015-08-06T04:36:31Z</time></trkpt>
<trkpt lat="30.143775" lon="100.629821">
<time>2015-08-06T04:36:32Z</time></trkpt>
<trkpt lat="30.143775" lon="100.629691">
<time>2015-08-06T04:36:33Z</time></trkpt>
<trkpt lat="30.143746" lon="100.629361">
<time>2015-08-06T04:36:34Z</time></trkpt>
<trkpt lat="30.143716" lon="100.629162">
<time>2015-08-06T04:36:35Z</time></trkpt>
<trkpt lat="30.143696" lon="100.629042">
<time>2015-08-06T04:36:36Z</time></trkpt>
<trkpt lat="30.143646" lon="100.628693">
<time>2015-08-06T04:36:37Z</time></trkpt>
<trkpt lat="30.143597" lon="100.628333">
<time>2015-08-06T04:36:38Z</time></trkpt>
<trkpt lat="30.143547" lon="100.628004">
<time>2015-08-06T04:36:39Z</time></trkpt>
<trkpt lat="30.143468" lon="100.627655">
<time>2015-08-06T04:36:40Z</time></trkpt>
<trkpt lat="30.143398" lon="100.627365">
<time>2015-08-06T04:36:41Z</time></trkpt>
<trkpt lat="30.143328" lon="100.627106">
<time>2015-08-06T04:36:42Z</time></trkpt>
<trkpt lat="30.143239" lon="100.626766">
<time>2015-08-06T04:36:43Z</time></trkpt>
<trkpt lat="30.143159" lon="100.626407">
<time>2015-08-06T04:36:44Z</time></trkpt>
<trkpt lat="30.14311" lon="100.626028">
<time>2015-08-06T04:36:45Z</time></trkpt>
<trkpt lat="30.14309" lon="100.625688">
<time>2015-08-06T04:36:46Z</time></trkpt>
<trkpt lat="30.14305" lon="100.625339">
<time>2015-08-06T04:36:47Z</time></trkpt>
<trkpt lat="30.142971" lon="100.625049">
<time>2015-08-06T04:36:48Z</time></trkpt>
<trkpt lat="30.142951" lon="100.624989">
<time>2015-08-06T04:36:49Z</time></trkpt>
<trkpt lat="30.142921" lon="100.624899">
<time>2015-08-06T04:36:50Z</time></trkpt>
<trkpt lat="30.142881" lon="100.62482">
<time>2015-08-06T04:36:51Z</time></trkpt>
<trkpt lat="30.142831" lon="100.62471">
<time>2015-08-06T04:36:52Z</time></trkpt>
<trkpt lat="30.142731" lon="100.62449">
<time>2015-08-06T04:36:53Z</time></trkpt>
<trkpt lat="30.142701" lon="100.62443">
<time>2015-08-06T04:36:54Z</time></trkpt>
<trkpt lat="30.142671" lon="100.62435">
<time>2015-08-06T04:36:55Z</time></trkpt>
<trkpt lat="30.142661" lon="100.62431">
<time>2015-08-06T04:36:56Z</time></trkpt>
<trkpt lat="30.142642" lon="100.624271">
<time>2015-08-06T04:36:57Z</time></trkpt>
<trkpt lat="30.142612" lon="100.624171">
<time>2015-08-06T04:36:58Z</time></trkpt>
<trkpt lat="30.142602" lon="100.624111">
<time>2015-08-06T04:36:59Z</time></trkpt>
<trkpt lat="30.142582" lon="100.624051">
<time>2015-08-06T04:37:00Z</time></trkpt>
<trkpt lat="30.142562" lon="100.623981">
<time>2015-08-06T04:37:01Z</time></trkpt>
<trkpt lat="30.142542" lon="100.623821">
<time>2015-08-06T04:37:02Z</time></trkpt>
<trkpt lat="30.142542" lon="100.623791">
<time>2015-08-06T04:37:03Z</time></trkpt>
<trkpt lat="30.142532" lon="100.623731">
<time>2015-08-06T04:37:04Z</time></trkpt>
<trkpt lat="30.142532" lon="100.623632">
<time>2015-08-06T04:37:05Z</time></trkpt>
<trkpt lat="30.142532" lon="100.623582">
<time>2015-08-06T04:37:06Z</time></trkpt>
<trkpt lat="30.142542" lon="100.623532">
<time>2015-08-06T04:37:07Z</time></trkpt>
<trkpt lat="30.142552" lon="100.623442">
<time>2015-08-06T04:37:08Z</time></trkpt>
<trkpt lat="30.142573" lon="100.623312">
<time>2015-08-06T04:37:09Z</time></trkpt>
<trkpt lat="30.142593" lon="100.623252">
<time>2015-08-06T04:37:10Z</time></trkpt>
<trkpt lat="30.142643" lon="100.623083">
<time>2015-08-06T04:37:11Z</time></trkpt>
<trkpt lat="30.142693" lon="100.622913">
<time>2015-08-06T04:37:12Z</time></trkpt>
<trkpt lat="30.142843" lon="100.622493">
<time>2015-08-06T04:37:13Z</time></trkpt>
<trkpt lat="30.142974" lon="100.622144">
<time>2015-08-06T04:37:14Z</time></trkpt>
<trkpt lat="30.143074" lon="100.621854">
<time>2015-08-06T04:37:15Z</time></trkpt>
<trkpt lat="30.143124" lon="100.621735">
<time>2015-08-06T04:37:16Z</time></trkpt>
<trkpt lat="30.143194" lon="100.621585">
<time>2015-08-06T04:37:17Z</time></trkpt>
<trkpt lat="30.143234" lon="100.621505">
<time>2015-08-06T04:37:18Z</time></trkpt>
<trkpt lat="30.143295" lon="100.621415">
<time>2015-08-06T04:37:19Z</time></trkpt>
<trkpt lat="30.143345" lon="100.621325">
<time>2015-08-06T04:37:20Z</time></trkpt>
<trkpt lat="30.143445" lon="100.621166">
<time>2015-08-06T04:37:21Z</time></trkpt>
<trkpt lat="30.143605" lon="100.620926">
<time>2015-08-06T04:37:22Z</time></trkpt>
<trkpt lat="30.143715" lon="100.620776">
<time>2015-08-06T04:37:23Z</time></trkpt>
<trkpt lat="30.143795" lon="100.620646">
<time>2015-08-06T04:37:24Z</time></trkpt>
<trkpt lat="30.143865" lon="100.620537">
<time>2015-08-06T04:37:25Z</time></trkpt>
<trkpt lat="30.143885" lon="100.620497">
<time>2015-08-06T04:37:26Z</time></trkpt>
<trkpt lat="30.143936" lon="100.620377">
<time>2015-08-06T04:37:27Z</time></trkpt>
<trkpt lat="30.143986" lon="100.620217">
<time>2015-08-06T04:37:28Z</time></trkpt>
<trkpt lat="30.144016" lon="100.620097">
<time>2015-08-06T04:37:29Z</time></trkpt>
<trkpt lat="30.144026" lon="100.620037">
<time>2015-08-06T04:37:30Z</time></trkpt>
<trkpt lat="30.144056" lon="100.619878">
<time>2015-08-06T04:37:31Z</time></trkpt>
<trkpt lat="30.144096" lon="100.619588">
<time>2015-08-06T04:37:32Z</time></trkpt>
<trkpt lat="30.144157" lon="100.619199">
<time>2015-08-06T04:37:33Z</time></trkpt>
<trkpt lat="30.144197" lon="100.618879">
<time>2015-08-06T04:37:34Z</time></trkpt>
<trkpt lat="30.144227" lon="100.618669">
<time>2015-08-06T04:37:35Z</time></trkpt>
<trkpt lat="30.144287" lon="100.61825">
<time>2015-08-06T04:37:36Z</time></trkpt>
<trkpt lat="30.144318" lon="100.61795">
<time>2015-08-06T04:37:37Z</time></trkpt>
<trkpt lat="30.144388" lon="100.617411">
<time>2015-08-06T04:37:38Z</time></trkpt>
<trkpt lat="30.144428" lon="100.617121">
<time>2015-08-06T04:37:39Z</time></trkpt>
<trkpt lat="30.144449" lon="100.617012">
<time>2015-08-06T04:37:40Z</time></trkpt>
<trkpt lat="30.144479" lon="100.616812">
<time>2015-08-06T04:37:41Z</time></trkpt>
<trkpt lat="30.144519" lon="100.616562">
<time>2015-08-06T04:37:42Z</time></trkpt>
<trkpt lat="30.144529" lon="100.616482">
<time>2015-08-06T04:37:43Z</time></trkpt>
<trkpt lat="30.144549" lon="100.616422">
<time>2015-08-06T04:37:44Z</time></trkpt>
<trkpt lat="30.144569" lon="100.616293">
<time>2015-08-06T04:37:45Z</time></trkpt>
<trkpt lat="30.144579" lon="100.616263">
<time>2015-08-06T04:37:46Z</time></trkpt>
<trkpt lat="30.144589" lon="100.616223">
<time>2015-08-06T04:37:47Z</time></trkpt>
<trkpt lat="30.144599" lon="100.616163">
<time>2015-08-06T04:37:48Z</time></trkpt>
<trkpt lat="30.144619" lon="100.616103">
<time>2015-08-06T04:37:49Z</time></trkpt>
<trkpt lat="30.144629" lon="100.616053">
<time>2015-08-06T04:37:50Z</time></trkpt>
<trkpt lat="30.144669" lon="100.615953">
<time>2015-08-06T04:37:51Z</time></trkpt>
<trkpt lat="30.144689" lon="100.615893">
<time>2015-08-06T04:37:52Z</time></trkpt>
<trkpt lat="30.14471" lon="100.615823">
<time>2015-08-06T04:37:53Z</time></trkpt>
<trkpt lat="30.14476" lon="100.615713">
<time>2015-08-06T04:37:54Z</time></trkpt>
<trkpt lat="30.14479" lon="100.615643">
<time>2015-08-06T04:37:55Z</time></trkpt>
<trkpt lat="30.14485" lon="100.615534">
<time>2015-08-06T04:37:56Z</time></trkpt>
<trkpt lat="30.14491" lon="100.615414">
<time>2015-08-06T04:37:57Z</time></trkpt>
<trkpt lat="30.14506" lon="100.615174">
<time>2015-08-06T04:37:58Z</time></trkpt>
<trkpt lat="30.14532" lon="100.614755">
<time>2015-08-06T04:37:59Z</time></trkpt>
<trkpt lat="30.145571" lon="100.614365">
<time>2015-08-06T04:38:00Z</time></trkpt>
<trkpt lat="30.145771" lon="100.614075">
<time>2015-08-06T04:38:01Z</time></trkpt>
<trkpt lat="30.145821" lon="100.613996">
<time>2015-08-06T04:38:02Z</time></trkpt>
<trkpt lat="30.145891" lon="100.613886">
<time>2015-08-06T04:38:03Z</time></trkpt>
<trkpt lat="30.145931" lon="100.613806">
<time>2015-08-06T04:38:04Z</time></trkpt>
<trkpt lat="30.146001" lon="100.613706">
<time>2015-08-06T04:38:05Z</time></trkpt>
<trkpt lat="30.146081" lon="100.613556">
<time>2015-08-06T04:38:06Z</time></trkpt>
<trkpt lat="30.146121" lon="100.613466">
<time>2015-08-06T04:38:07Z</time></trkpt>
<trkpt lat="30.146141" lon="100.613406">
<time>2015-08-06T04:38:08Z</time></trkpt>
<trkpt lat="30.146211" lon="100.613246">
<time>2015-08-06T04:38:09Z</time></trkpt>
<trkpt lat="30.146322" lon="100.612937">
<time>2015-08-06T04:38:10Z</time></trkpt>
<trkpt lat="30.146422" lon="100.612647">
<time>2015-08-06T04:38:11Z</time></trkpt>
<trkpt lat="30.146532" lon="100.612337">
<time>2015-08-06T04:38:12Z</time></trkpt>
<trkpt lat="30.146592" lon="100.612148">
<time>2015-08-06T04:38:13Z</time></trkpt>
<trkpt lat="30.146652" lon="100.611958">
<time>2015-08-06T04:38:14Z</time></trkpt>
<trkpt lat="30.146752" lon="100.611648">
<time>2015-08-06T04:38:15Z</time></trkpt>
<trkpt lat="30.146873" lon="100.611279">
<time>2015-08-06T04:38:16Z</time></trkpt>
<trkpt lat="30.147013" lon="100.610849">
<time>2015-08-06T04:38:17Z</time></trkpt>
<trkpt lat="30.147163" lon="100.61036">
<time>2015-08-06T04:38:18Z</time></trkpt>
<trkpt lat="30.147223" lon="100.61017">
<time>2015-08-06T04:38:19Z</time></trkpt>
<trkpt lat="30.147263" lon="100.61002">
<time>2015-08-06T04:38:20Z</time></trkpt>
<trkpt lat="30.147314" lon="100.60981">
<time>2015-08-06T04:38:21Z</time></trkpt>
<trkpt lat="30.147334" lon="100.60966">
<time>2015-08-06T04:38:22Z</time></trkpt>
<trkpt lat="30.147344" lon="100.60959">
<time>2015-08-06T04:38:23Z</time></trkpt>
<trkpt lat="30.147354" lon="100.609501">
<time>2015-08-06T04:38:24Z</time></trkpt>
<trkpt lat="30.147354" lon="100.609411">
<time>2015-08-06T04:38:25Z</time></trkpt>
<trkpt lat="30.147354" lon="100.609311">
<time>2015-08-06T04:38:26Z</time></trkpt>
<trkpt lat="30.147344" lon="100.609191">
<time>2015-08-06T04:38:27Z</time></trkpt>
<trkpt lat="30.147334" lon="100.609051">
<time>2015-08-06T04:38:28Z</time></trkpt>
<trkpt lat="30.147314" lon="100.608941">
<time>2015-08-06T04:38:29Z</time></trkpt>
<trkpt lat="30.147294" lon="100.608821">
<time>2015-08-06T04:38:30Z</time></trkpt>
<trkpt lat="30.147254" lon="100.608661">
<time>2015-08-06T04:38:31Z</time></trkpt>
<trkpt lat="30.147144" lon="100.608262">
<time>2015-08-06T04:38:32Z</time></trkpt>
<trkpt lat="30.146995" lon="100.607792">
<time>2015-08-06T04:38:33Z</time></trkpt>
<trkpt lat="30.146915" lon="100.607503">
<time>2015-08-06T04:38:34Z</time></trkpt>
<trkpt lat="30.146895" lon="100.607453">
<time>2015-08-06T04:38:35Z</time></trkpt>
<trkpt lat="30.146885" lon="100.607353">
<time>2015-08-06T04:38:36Z</time></trkpt>
<trkpt lat="30.146865" lon="100.607273">
<time>2015-08-06T04:38:37Z</time></trkpt>
<trkpt lat="30.146865" lon="100.607243">
<time>2015-08-06T04:38:38Z</time></trkpt>
<trkpt lat="30.146865" lon="100.607213">
<time>2015-08-06T04:38:39Z</time></trkpt>
<trkpt lat="30.146865" lon="100.607123">
<time>2015-08-06T04:38:40Z</time></trkpt>
<trkpt lat="30.146865" lon="100.607043">
<time>2015-08-06T04:38:41Z</time></trkpt>
<trkpt lat="30.146875" lon="100.606973">
<time>2015-08-06T04:38:42Z</time></trkpt>
<trkpt lat="30.146885" lon="100.606903">
<time>2015-08-06T04:38:43Z</time></trkpt>
<trkpt lat="30.146905" lon="100.606813">
<time>2015-08-06T04:38:44Z</time></trkpt>
<trkpt lat="30.146965" lon="100.606613">
<time>2015-08-06T04:38:45Z</time></trkpt>
<trkpt lat="30.147075" lon="100.606244">
<time>2015-08-06T04:38:46Z</time></trkpt>
<trkpt lat="30.147246" lon="100.605714">
<time>2015-08-06T04:38:47Z</time></trkpt>
<trkpt lat="30.147366" lon="100.605324">
<time>2015-08-06T04:38:48Z</time></trkpt>
<trkpt lat="30.147466" lon="100.604985">
<time>2015-08-06T04:38:49Z</time></trkpt>
<trkpt lat="30.147546" lon="100.604745">
<time>2015-08-06T04:38:50Z</time></trkpt>
<trkpt lat="30.147626" lon="100.604505">
<time>2015-08-06T04:38:51Z</time></trkpt>
<trkpt lat="30.147756" lon="100.604095">
<time>2015-08-06T04:38:52Z</time></trkpt>
<trkpt lat="30.147886" lon="100.603686">
<time>2015-08-06T04:38:53Z</time></trkpt>
<trkpt lat="30.148056" lon="100.603176">
<time>2015-08-06T04:38:54Z</time></trkpt>
<trkpt lat="30.148187" lon="100.602736">
<time>2015-08-06T04:38:55Z</time></trkpt>
<trkpt lat="30.148317" lon="100.602357">
<time>2015-08-06T04:38:56Z</time></trkpt>
<trkpt lat="30.148387" lon="100.602147">
<time>2015-08-06T04:38:57Z</time></trkpt>
<trkpt lat="30.148407" lon="100.602097">
<time>2015-08-06T04:38:58Z</time></trkpt>
<trkpt lat="30.148457" lon="100.601987">
<time>2015-08-06T04:38:59Z</time></trkpt>
<trkpt lat="30.148527" lon="100.601877">
<time>2015-08-06T04:39:00Z</time></trkpt>
<trkpt lat="30.148567" lon="100.601817">
<time>2015-08-06T04:39:01Z</time></trkpt>
<trkpt lat="30.148627" lon="100.601737">
<time>2015-08-06T04:39:02Z</time></trkpt>
<trkpt lat="30.148677" lon="100.601687">
<time>2015-08-06T04:39:03Z</time></trkpt>
<trkpt lat="30.148737" lon="100.601627">
<time>2015-08-06T04:39:04Z</time></trkpt>
<trkpt lat="30.148817" lon="100.601557">
<time>2015-08-06T04:39:05Z</time></trkpt>
<trkpt lat="30.148937" lon="100.601467">
<time>2015-08-06T04:39:06Z</time></trkpt>
<trkpt lat="30.149247" lon="100.601277">
<time>2015-08-06T04:39:07Z</time></trkpt>
<trkpt lat="30.149557" lon="100.601077">
<time>2015-08-06T04:39:08Z</time></trkpt>
<trkpt lat="30.149777" lon="100.600938">
<time>2015-08-06T04:39:09Z</time></trkpt>
<trkpt lat="30.150077" lon="100.600758">
<time>2015-08-06T04:39:10Z</time></trkpt>
<trkpt lat="30.150207" lon="100.600678">
<time>2015-08-06T04:39:11Z</time></trkpt>
<trkpt lat="30.150297" lon="100.600608">
<time>2015-08-06T04:39:12Z</time></trkpt>
<trkpt lat="30.150467" lon="100.600478">
<time>2015-08-06T04:39:13Z</time></trkpt>
<trkpt lat="30.150627" lon="100.600348">
<time>2015-08-06T04:39:14Z</time></trkpt>
<trkpt lat="30.150837" lon="100.600168">
<time>2015-08-06T04:39:15Z</time></trkpt>
<trkpt lat="30.151017" lon="100.600008">
<time>2015-08-06T04:39:16Z</time></trkpt>
<trkpt lat="30.151197" lon="100.599848">
<time>2015-08-06T04:39:17Z</time></trkpt>
<trkpt lat="30.151257" lon="100.599798">
<time>2015-08-06T04:39:18Z</time></trkpt>
<trkpt lat="30.151437" lon="100.599638">
<time>2015-08-06T04:39:19Z</time></trkpt>
<trkpt lat="30.151537" lon="100.599558">
<time>2015-08-06T04:39:20Z</time></trkpt>
<trkpt lat="30.151747" lon="100.599368">
<time>2015-08-06T04:39:21Z</time></trkpt>
<trkpt lat="30.151897" lon="100.599248">
<time>2015-08-06T04:39:22Z</time></trkpt>
<trkpt lat="30.151967" lon="100.599179">
<time>2015-08-06T04:39:23Z</time></trkpt>
<trkpt lat="30.152047" lon="100.599089">
<time>2015-08-06T04:39:24Z</time></trkpt>
<trkpt lat="30.152147" lon="100.598969">
<time>2015-08-06T04:39:25Z</time></trkpt>
<trkpt lat="30.152237" lon="100.598849">
<time>2015-08-06T04:39:26Z</time></trkpt>
<trkpt lat="30.152337" lon="100.598709">
<time>2015-08-06T04:39:27Z</time></trkpt>
<trkpt lat="30.152447" lon="100.598529">
<time>2015-08-06T04:39:28Z</time></trkpt>
<trkpt lat="30.152527" lon="100.598389">
<time>2015-08-06T04:39:29Z</time></trkpt>
<trkpt lat="30.152637" lon="100.598189">
<time>2015-08-06T04:39:30Z</time></trkpt>
<trkpt lat="30.152727" lon="100.597979">
<time>2015-08-06T04:39:31Z</time></trkpt>
<trkpt lat="30.152787" lon="100.597809">
<time>2015-08-06T04:39:32Z</time></trkpt>
<trkpt lat="30.152877" lon="100.597559">
<time>2015-08-06T04:39:33Z</time></trkpt>
<trkpt lat="30.152957" lon="100.597309">
<time>2015-08-06T04:39:34Z</time></trkpt>
<trkpt lat="30.153037" lon="100.597049">
<time>2015-08-06T04:39:35Z</time></trkpt>
<trkpt lat="30.153097" lon="100.59687">
<time>2015-08-06T04:39:36Z</time></trkpt>
<trkpt lat="30.153157" lon="100.5967">
<time>2015-08-06T04:39:37Z</time></trkpt>
<trkpt lat="30.153237" lon="100.59649">
<time>2015-08-06T04:39:38Z</time></trkpt>
<trkpt lat="30.153377" lon="100.59619">
<time>2015-08-06T04:39:39Z</time></trkpt>
<trkpt lat="30.153467" lon="100.596">
<time>2015-08-06T04:39:40Z</time></trkpt>
<trkpt lat="30.153577" lon="100.59581">
<time>2015-08-06T04:39:41Z</time></trkpt>
<trkpt lat="30.153897" lon="100.59524">
<time>2015-08-06T04:39:42Z</time></trkpt>
<trkpt lat="30.154257" lon="100.59463">
<time>2015-08-06T04:39:43Z</time></trkpt>
<trkpt lat="30.154527" lon="100.59417">
<time>2015-08-06T04:39:44Z</time></trkpt>
<trkpt lat="30.154827" lon="100.593651">
<time>2015-08-06T04:39:45Z</time></trkpt>
<trkpt lat="30.155037" lon="100.593281">
<time>2015-08-06T04:39:46Z</time></trkpt>
<trkpt lat="30.155177" lon="100.593041">
<time>2015-08-06T04:39:47Z</time></trkpt>
<trkpt lat="30.155287" lon="100.592831">
<time>2015-08-06T04:39:48Z</time></trkpt>
<trkpt lat="30.155527" lon="100.592431">
<time>2015-08-06T04:39:49Z</time></trkpt>
<trkpt lat="30.155677" lon="100.592151">
<time>2015-08-06T04:39:50Z</time></trkpt>
<trkpt lat="30.155857" lon="100.591841">
<time>2015-08-06T04:39:51Z</time></trkpt>
<trkpt lat="30.155937" lon="100.591691">
<time>2015-08-06T04:39:52Z</time></trkpt>
<trkpt lat="30.156137" lon="100.591341">
<time>2015-08-06T04:39:53Z</time></trkpt>
<trkpt lat="30.156257" lon="100.591141">
<time>2015-08-06T04:39:54Z</time></trkpt>
<trkpt lat="30.156407" lon="100.590901">
<time>2015-08-06T04:39:55Z</time></trkpt>
<trkpt lat="30.156626" lon="100.590511">
<time>2015-08-06T04:39:56Z</time></trkpt>
<trkpt lat="30.156756" lon="100.590281">
<time>2015-08-06T04:39:57Z</time></trkpt>
<trkpt lat="30.156896" lon="100.590041">
<time>2015-08-06T04:39:58Z</time></trkpt>
<trkpt lat="30.156956" lon="100.589941">
<time>2015-08-06T04:39:59Z</time></trkpt>
<trkpt lat="30.157066" lon="100.589771">
<time>2015-08-06T04:40:00Z</time></trkpt>
<trkpt lat="30.157176" lon="100.589581">
<time>2015-08-06T04:40:01Z</time></trkpt>
<trkpt lat="30.157286" lon="100.589391">
<time>2015-08-06T04:40:02Z</time></trkpt>
<trkpt lat="30.157366" lon="100.589281">
<time>2015-08-06T04:40:03Z</time></trkpt>
<trkpt lat="30.157466" lon="100.589151">
<time>2015-08-06T04:40:04Z</time></trkpt>
<trkpt lat="30.157586" lon="100.589001">
<time>2015-08-06T04:40:05Z</time></trkpt>
<trkpt lat="30.157676" lon="100.588901">
<time>2015-08-06T04:40:06Z</time></trkpt>
<trkpt lat="30.157716" lon="100.588851">
<time>2015-08-06T04:40:07Z</time></trkpt>
<trkpt lat="30.157776" lon="100.588781">
<time>2015-08-06T04:40:08Z</time></trkpt>
<trkpt lat="30.157876" lon="100.588681">
<time>2015-08-06T04:40:09Z</time></trkpt>
<trkpt lat="30.157936" lon="100.588621">
<time>2015-08-06T04:40:10Z</time></trkpt>
<trkpt lat="30.158036" lon="100.588531">
<time>2015-08-06T04:40:11Z</time></trkpt>
<trkpt lat="30.158316" lon="100.588311">
<time>2015-08-06T04:40:12Z</time></trkpt>
<trkpt lat="30.158436" lon="100.588201">
<time>2015-08-06T04:40:13Z</time></trkpt>
<trkpt lat="30.158506" lon="100.588131">
<time>2015-08-06T04:40:14Z</time></trkpt>
<trkpt lat="30.158566" lon="100.588081">
<time>2015-08-06T04:40:15Z</time></trkpt>
<trkpt lat="30.158726" lon="100.587931">
<time>2015-08-06T04:40:16Z</time></trkpt>
<trkpt lat="30.158826" lon="100.587821">
<time>2015-08-06T04:40:17Z</time></trkpt>
<trkpt lat="30.158935" lon="100.587711">
<time>2015-08-06T04:40:18Z</time></trkpt>
<trkpt lat="30.159035" lon="100.587591">
<time>2015-08-06T04:40:19Z</time></trkpt>
<trkpt lat="30.159095" lon="100.587511">
<time>2015-08-06T04:40:20Z</time></trkpt>
<trkpt lat="30.159185" lon="100.587391">
<time>2015-08-06T04:40:21Z</time></trkpt>
<trkpt lat="30.159265" lon="100.587271">
<time>2015-08-06T04:40:22Z</time></trkpt>
<trkpt lat="30.159345" lon="100.587141">
<time>2015-08-06T04:40:23Z</time></trkpt>
<trkpt lat="30.159415" lon="100.587011">
<time>2015-08-06T04:40:24Z</time></trkpt>
<trkpt lat="30.159475" lon="100.586901">
<time>2015-08-06T04:40:25Z</time></trkpt>
<trkpt lat="30.159535" lon="100.586791">
<time>2015-08-06T04:40:26Z</time></trkpt>
<trkpt lat="30.159625" lon="100.586581">
<time>2015-08-06T04:40:27Z</time></trkpt>
<trkpt lat="30.159655" lon="100.586511">
<time>2015-08-06T04:40:28Z</time></trkpt>
<trkpt lat="30.159695" lon="100.586431">
<time>2015-08-06T04:40:29Z</time></trkpt>
<trkpt lat="30.159745" lon="100.586291">
<time>2015-08-06T04:40:30Z</time></trkpt>
<trkpt lat="30.159775" lon="100.586221">
<time>2015-08-06T04:40:31Z</time></trkpt>
<trkpt lat="30.159805" lon="100.586121">
<time>2015-08-06T04:40:32Z</time></trkpt>
<trkpt lat="30.159885" lon="100.585911">
<time>2015-08-06T04:40:33Z</time></trkpt>
<trkpt lat="30.159955" lon="100.585671">
<time>2015-08-06T04:40:34Z</time></trkpt>
<trkpt lat="30.159994" lon="100.585531">
<time>2015-08-06T04:40:35Z</time></trkpt>
<trkpt lat="30.160024" lon="100.585391">
<time>2015-08-06T04:40:36Z</time></trkpt>
<trkpt lat="30.160034" lon="100.585271">
<time>2015-08-06T04:40:37Z</time></trkpt>
<trkpt lat="30.160044" lon="100.585251">
<time>2015-08-06T04:40:38Z</time></trkpt>
<trkpt lat="30.160044" lon="100.58515">
<time>2015-08-06T04:40:39Z</time></trkpt>
<trkpt lat="30.160034" lon="100.58506">
<time>2015-08-06T04:40:40Z</time></trkpt>
<trkpt lat="30.160024" lon="100.585">
<time>2015-08-06T04:40:41Z</time></trkpt>
<trkpt lat="30.160014" lon="100.58494">
<time>2015-08-06T04:40:42Z</time></trkpt>
<trkpt lat="30.160004" lon="100.58488">
<time>2015-08-06T04:40:43Z</time></trkpt>
<trkpt lat="30.159984" lon="100.58482">
<time>2015-08-06T04:40:44Z</time></trkpt>
<trkpt lat="30.159954" lon="100.58476">
<time>2015-08-06T04:40:45Z</time></trkpt>
<trkpt lat="30.159924" lon="100.58468">
<time>2015-08-06T04:40:46Z</time></trkpt>
<trkpt lat="30.159814" lon="100.58448">
<time>2015-08-06T04:40:47Z</time></trkpt>
<trkpt lat="30.159734" lon="100.58434">
<time>2015-08-06T04:40:48Z</time></trkpt>
<trkpt lat="30.159644" lon="100.58417">
<time>2015-08-06T04:40:49Z</time></trkpt>
<trkpt lat="30.159554" lon="100.58401">
<time>2015-08-06T04:40:50Z</time></trkpt>
<trkpt lat="30.159474" lon="100.58386">
<time>2015-08-06T04:40:51Z</time></trkpt>
<trkpt lat="30.159424" lon="100.58376">
<time>2015-08-06T04:40:52Z</time></trkpt>
<trkpt lat="30.159373" lon="100.58365">
<time>2015-08-06T04:40:53Z</time></trkpt>
<trkpt lat="30.159333" lon="100.58354">
<time>2015-08-06T04:40:54Z</time></trkpt>
<trkpt lat="30.159313" lon="100.58347">
<time>2015-08-06T04:40:55Z</time></trkpt>
<trkpt lat="30.159283" lon="100.58335">
<time>2015-08-06T04:40:56Z</time></trkpt>
<trkpt lat="30.159253" lon="100.58324">
<time>2015-08-06T04:40:57Z</time></trkpt>
<trkpt lat="30.159233" lon="100.5831">
<time>2015-08-06T04:40:58Z</time></trkpt>
<trkpt lat="30.159223" lon="100.58295">
<time>2015-08-06T04:40:59Z</time></trkpt>
<trkpt lat="30.159203" lon="100.58275">
<time>2015-08-06T04:41:00Z</time></trkpt>
<trkpt lat="30.159183" lon="100.58254">
<time>2015-08-06T04:41:01Z</time></trkpt>
<trkpt lat="30.159173" lon="100.58242">
<time>2015-08-06T04:41:02Z</time></trkpt>
<trkpt lat="30.159143" lon="100.58226">
<time>2015-08-06T04:41:03Z</time></trkpt>
<trkpt lat="30.159123" lon="100.58213">
<time>2015-08-06T04:41:04Z</time></trkpt>
<trkpt lat="30.159103" lon="100.58206">
<time>2015-08-06T04:41:05Z</time></trkpt>
<trkpt lat="30.159082" lon="100.58199">
<time>2015-08-06T04:41:06Z</time></trkpt>
<trkpt lat="30.159032" lon="100.581779">
<time>2015-08-06T04:41:07Z</time></trkpt>
<trkpt lat="30.159002" lon="100.581679">
<time>2015-08-06T04:41:08Z</time></trkpt>
<trkpt lat="30.158942" lon="100.581499">
<time>2015-08-06T04:41:09Z</time></trkpt>
<trkpt lat="30.158902" lon="100.581399">
<time>2015-08-06T04:41:10Z</time></trkpt>
<trkpt lat="30.158872" lon="100.581329">
<time>2015-08-06T04:41:11Z</time></trkpt>
<trkpt lat="30.158822" lon="100.581209">
<time>2015-08-06T04:41:12Z</time></trkpt>
<trkpt lat="30.158762" lon="100.581109">
<time>2015-08-06T04:41:13Z</time></trkpt>
<trkpt lat="30.158712" lon="100.581019">
<time>2015-08-06T04:41:14Z</time></trkpt>
<trkpt lat="30.158602" lon="100.580869">
<time>2015-08-06T04:41:15Z</time></trkpt>
<trkpt lat="30.158512" lon="100.580739">
<time>2015-08-06T04:41:16Z</time></trkpt>
<trkpt lat="30.158442" lon="100.580649">
<time>2015-08-06T04:41:17Z</time></trkpt>
<trkpt lat="30.158392" lon="100.580569">
<time>2015-08-06T04:41:18Z</time></trkpt>
<trkpt lat="30.158291" lon="100.580429">
<time>2015-08-06T04:41:19Z</time></trkpt>
<trkpt lat="30.158191" lon="100.580289">
<time>2015-08-06T04:41:20Z</time></trkpt>
<trkpt lat="30.158121" lon="100.580199">
<time>2015-08-06T04:41:21Z</time></trkpt>
<trkpt lat="30.158041" lon="100.580099">
<time>2015-08-06T04:41:22Z</time></trkpt>
<trkpt lat="30.158001" lon="100.580059">
<time>2015-08-06T04:41:23Z</time></trkpt>
<trkpt lat="30.157961" lon="100.580009">
<time>2015-08-06T04:41:24Z</time></trkpt>
<trkpt lat="30.157901" lon="100.579949">
<time>2015-08-06T04:41:25Z</time></trkpt>
<trkpt lat="30.157781" lon="100.579829">
<time>2015-08-06T04:41:26Z</time></trkpt>
<trkpt lat="30.157591" lon="100.579659">
<time>2015-08-06T04:41:27Z</time></trkpt>
<trkpt lat="30.157441" lon="100.579519">
<time>2015-08-06T04:41:28Z</time></trkpt>
<trkpt lat="30.157411" lon="100.579468">
<time>2015-08-06T04:41:29Z</time></trkpt>
<trkpt lat="30.157381" lon="100.579428">
<time>2015-08-06T04:41:30Z</time></trkpt>
<trkpt lat="30.157361" lon="100.579388">
<time>2015-08-06T04:41:31Z</time></trkpt>
<trkpt lat="30.157341" lon="100.579358">
<time>2015-08-06T04:41:32Z</time></trkpt>
<trkpt lat="30.157331" lon="100.579318">
<time>2015-08-06T04:41:33Z</time></trkpt>
<trkpt lat="30.157321" lon="100.579288">
<time>2015-08-06T04:41:34Z</time></trkpt>
<trkpt lat="30.157311" lon="100.579268">
<time>2015-08-06T04:41:35Z</time></trkpt>
<trkpt lat="30.157311" lon="100.579238">
<time>2015-08-06T04:41:36Z</time></trkpt>
<trkpt lat="30.157311" lon="100.579218">
<time>2015-08-06T04:41:37Z</time></trkpt>
<trkpt lat="30.15731" lon="100.579198">
<time>2015-08-06T04:41:38Z</time></trkpt>
<trkpt lat="30.15732" lon="100.579168">
<time>2015-08-06T04:41:39Z</time></trkpt>
<trkpt lat="30.15732" lon="100.579148">
<time>2015-08-06T04:41:40Z</time></trkpt>
<trkpt lat="30.15733" lon="100.579128">
<time>2015-08-06T04:41:41Z</time></trkpt>
<trkpt lat="30.15734" lon="100.579108">
<time>2015-08-06T04:41:42Z</time></trkpt>
<trkpt lat="30.15735" lon="100.579088">
<time>2015-08-06T04:41:43Z</time></trkpt>
<trkpt lat="30.15737" lon="100.579058">
<time>2015-08-06T04:41:44Z</time></trkpt>
<trkpt lat="30.15737" lon="100.579048">
<time>2015-08-06T04:41:45Z</time></trkpt>
<trkpt lat="30.15739" lon="100.579038">
<time>2015-08-06T04:41:46Z</time></trkpt>
<trkpt lat="30.1574" lon="100.579018">
<time>2015-08-06T04:41:47Z</time></trkpt>
<trkpt lat="30.15743" lon="100.578988">
<time>2015-08-06T04:41:48Z</time></trkpt>
<trkpt lat="30.15747" lon="100.578968">
<time>2015-08-06T04:41:49Z</time></trkpt>
<trkpt lat="30.15751" lon="100.578948">
<time>2015-08-06T04:41:50Z</time></trkpt>
<trkpt lat="30.15758" lon="100.578928">
<time>2015-08-06T04:41:51Z</time></trkpt>
<trkpt lat="30.15764" lon="100.578918">
<time>2015-08-06T04:41:52Z</time></trkpt>
<trkpt lat="30.15773" lon="100.578908">
<time>2015-08-06T04:41:53Z</time></trkpt>
<trkpt lat="30.15781" lon="100.578898">
<time>2015-08-06T04:41:54Z</time></trkpt>
<trkpt lat="30.15802" lon="100.578888">
<time>2015-08-06T04:41:55Z</time></trkpt>
<trkpt lat="30.15819" lon="100.578888">
<time>2015-08-06T04:41:56Z</time></trkpt>
<trkpt lat="30.1583" lon="100.578888">
<time>2015-08-06T04:41:57Z</time></trkpt>
<trkpt lat="30.15844" lon="100.578888">
<time>2015-08-06T04:41:58Z</time></trkpt>
<trkpt lat="30.15859" lon="100.578908">
<time>2015-08-06T04:41:59Z</time></trkpt>
<trkpt lat="30.15872" lon="100.578928">
<time>2015-08-06T04:42:00Z</time></trkpt>
<trkpt lat="30.159" lon="100.578988">
<time>2015-08-06T04:42:01Z</time></trkpt>
<trkpt lat="30.15931" lon="100.579058">
<time>2015-08-06T04:42:02Z</time></trkpt>
<trkpt lat="30.15943" lon="100.579078">
<time>2015-08-06T04:42:03Z</time></trkpt>
<trkpt lat="30.15954" lon="100.579108">
<time>2015-08-06T04:42:04Z</time></trkpt>
<trkpt lat="30.15965" lon="100.579138">
<time>2015-08-06T04:42:05Z</time></trkpt>
<trkpt lat="30.15976" lon="100.579168">
<time>2015-08-06T04:42:06Z</time></trkpt>
<trkpt lat="30.15987" lon="100.579208">
<time>2015-08-06T04:42:07Z</time></trkpt>
<trkpt lat="30.15991" lon="100.579218">
<time>2015-08-06T04:42:08Z</time></trkpt>
<trkpt lat="30.15997" lon="100.579248">
<time>2015-08-06T04:42:09Z</time></trkpt>
<trkpt lat="30.160001" lon="100.579258">
<time>2015-08-06T04:42:10Z</time></trkpt>
<trkpt lat="30.160061" lon="100.579298">
<time>2015-08-06T04:42:11Z</time></trkpt>
<trkpt lat="30.160091" lon="100.579308">
<time>2015-08-06T04:42:12Z</time></trkpt>
<trkpt lat="30.160141" lon="100.579348">
<time>2015-08-06T04:42:13Z</time></trkpt>
<trkpt lat="30.160221" lon="100.579408">
<time>2015-08-06T04:42:14Z</time></trkpt>
<trkpt lat="30.160291" lon="100.579458">
<time>2015-08-06T04:42:15Z</time></trkpt>
<trkpt lat="30.160431" lon="100.579568">
<time>2015-08-06T04:42:16Z</time></trkpt>
<trkpt lat="30.160541" lon="100.579659">
<time>2015-08-06T04:42:17Z</time></trkpt>
<trkpt lat="30.160621" lon="100.579699">
<time>2015-08-06T04:42:18Z</time></trkpt>
<trkpt lat="30.160681" lon="100.579739">
<time>2015-08-06T04:42:19Z</time></trkpt>
<trkpt lat="30.160761" lon="100.579779">
<time>2015-08-06T04:42:20Z</time></trkpt>
<trkpt lat="30.160851" lon="100.579819">
<time>2015-08-06T04:42:21Z</time></trkpt>
<trkpt lat="30.160951" lon="100.579859">
<time>2015-08-06T04:42:22Z</time></trkpt>
<trkpt lat="30.161071" lon="100.579889">
<time>2015-08-06T04:42:23Z</time></trkpt>
<trkpt lat="30.161341" lon="100.579969">
<time>2015-08-06T04:42:24Z</time></trkpt>
<trkpt lat="30.161791" lon="100.580109">
<time>2015-08-06T04:42:25Z</time></trkpt>
<trkpt lat="30.162181" lon="100.580219">
<time>2015-08-06T04:42:26Z</time></trkpt>
<trkpt lat="30.162351" lon="100.580269">
<time>2015-08-06T04:42:27Z</time></trkpt>
<trkpt lat="30.162521" lon="100.580319">
<time>2015-08-06T04:42:28Z</time></trkpt>
<trkpt lat="30.162621" lon="100.580339">
<time>2015-08-06T04:42:29Z</time></trkpt>
<trkpt lat="30.162701" lon="100.580349">
<time>2015-08-06T04:42:30Z</time></trkpt>
<trkpt lat="30.162751" lon="100.580359">
<time>2015-08-06T04:42:31Z</time></trkpt>
<trkpt lat="30.162821" lon="100.580359">
<time>2015-08-06T04:42:32Z</time></trkpt>
<trkpt lat="30.162871" lon="100.580349">
<time>2015-08-06T04:42:33Z</time></trkpt>
<trkpt lat="30.162961" lon="100.580339">
<time>2015-08-06T04:42:34Z</time></trkpt>
<trkpt lat="30.163051" lon="100.580319">
<time>2015-08-06T04:42:35Z</time></trkpt>
<trkpt lat="30.163121" lon="100.580299">
<time>2015-08-06T04:42:36Z</time></trkpt>
<trkpt lat="30.163191" lon="100.580279">
<time>2015-08-06T04:42:37Z</time></trkpt>
<trkpt lat="30.163241" lon="100.580249">
<time>2015-08-06T04:42:38Z</time></trkpt>
<trkpt lat="30.163301" lon="100.580209">
<time>2015-08-06T04:42:39Z</time></trkpt>
<trkpt lat="30.163361" lon="100.580149">
<time>2015-08-06T04:42:40Z</time></trkpt>
<trkpt lat="30.163431" lon="100.580049">
<time>2015-08-06T04:42:41Z</time></trkpt>
<trkpt lat="30.163491" lon="100.579939">
<time>2015-08-06T04:42:42Z</time></trkpt>
<trkpt lat="30.163521" lon="100.579859">
<time>2015-08-06T04:42:43Z</time></trkpt>
<trkpt lat="30.163541" lon="100.579778">
<time>2015-08-06T04:42:44Z</time></trkpt>
<trkpt lat="30.163561" lon="100.579668">
<time>2015-08-06T04:42:45Z</time></trkpt>
<trkpt lat="30.163591" lon="100.579448">
<time>2015-08-06T04:42:46Z</time></trkpt>
<trkpt lat="30.1636" lon="100.579268">
<time>2015-08-06T04:42:47Z</time></trkpt>
<trkpt lat="30.16364" lon="100.578928">
<time>2015-08-06T04:42:48Z</time></trkpt>
<trkpt lat="30.16366" lon="100.578728">
<time>2015-08-06T04:42:49Z</time></trkpt>
<trkpt lat="30.16368" lon="100.578538">
<time>2015-08-06T04:42:50Z</time></trkpt>
<trkpt lat="30.1637" lon="100.578398">
<time>2015-08-06T04:42:51Z</time></trkpt>
<trkpt lat="30.16372" lon="100.578238">
<time>2015-08-06T04:42:52Z</time></trkpt>
<trkpt lat="30.163759" lon="100.577967">
<time>2015-08-06T04:42:53Z</time></trkpt>
<trkpt lat="30.163779" lon="100.577747">
<time>2015-08-06T04:42:54Z</time></trkpt>
<trkpt lat="30.163799" lon="100.577617">
<time>2015-08-06T04:42:55Z</time></trkpt>
<trkpt lat="30.163819" lon="100.577457">
<time>2015-08-06T04:42:56Z</time></trkpt>
<trkpt lat="30.163829" lon="100.577317">
<time>2015-08-06T04:42:57Z</time></trkpt>
<trkpt lat="30.163839" lon="100.577177">
<time>2015-08-06T04:42:58Z</time></trkpt>
<trkpt lat="30.163839" lon="100.576987">
<time>2015-08-06T04:42:59Z</time></trkpt>
<trkpt lat="30.163838" lon="100.576867">
<time>2015-08-06T04:43:00Z</time></trkpt>
<trkpt lat="30.163818" lon="100.576747">
<time>2015-08-06T04:43:01Z</time></trkpt>
<trkpt lat="30.163788" lon="100.576587">
<time>2015-08-06T04:43:02Z</time></trkpt>
<trkpt lat="30.163768" lon="100.576497">
<time>2015-08-06T04:43:03Z</time></trkpt>
<trkpt lat="30.163728" lon="100.576356">
<time>2015-08-06T04:43:04Z</time></trkpt>
<trkpt lat="30.163688" lon="100.576226">
<time>2015-08-06T04:43:05Z</time></trkpt>
<trkpt lat="30.163618" lon="100.576076">
<time>2015-08-06T04:43:06Z</time></trkpt>
<trkpt lat="30.163377" lon="100.575596">
<time>2015-08-06T04:43:07Z</time></trkpt>
<trkpt lat="30.163207" lon="100.575236">
<time>2015-08-06T04:43:08Z</time></trkpt>
<trkpt lat="30.163167" lon="100.575136">
<time>2015-08-06T04:43:09Z</time></trkpt>
<trkpt lat="30.163097" lon="100.575016">
<time>2015-08-06T04:43:10Z</time></trkpt>
<trkpt lat="30.163047" lon="100.574925">
<time>2015-08-06T04:43:11Z</time></trkpt>
<trkpt lat="30.163007" lon="100.574855">
<time>2015-08-06T04:43:12Z</time></trkpt>
<trkpt lat="30.162937" lon="100.574755">
<time>2015-08-06T04:43:13Z</time></trkpt>
<trkpt lat="30.162876" lon="100.574675">
<time>2015-08-06T04:43:14Z</time></trkpt>
<trkpt lat="30.162826" lon="100.574615">
<time>2015-08-06T04:43:15Z</time></trkpt>
<trkpt lat="30.162746" lon="100.574535">
<time>2015-08-06T04:43:16Z</time></trkpt>
<trkpt lat="30.162586" lon="100.574375">
<time>2015-08-06T04:43:17Z</time></trkpt>
<trkpt lat="30.162486" lon="100.574285">
<time>2015-08-06T04:43:18Z</time></trkpt>
<trkpt lat="30.162366" lon="100.574185">
<time>2015-08-06T04:43:19Z</time></trkpt>
<trkpt lat="30.162276" lon="100.574115">
<time>2015-08-06T04:43:20Z</time></trkpt>
<trkpt lat="30.162186" lon="100.574045">
<time>2015-08-06T04:43:21Z</time></trkpt>
<trkpt lat="30.162136" lon="100.574005">
<time>2015-08-06T04:43:22Z</time></trkpt>
<trkpt lat="30.162056" lon="100.573945">
<time>2015-08-06T04:43:23Z</time></trkpt>
<trkpt lat="30.162006" lon="100.573895">
<time>2015-08-06T04:43:24Z</time></trkpt>
<trkpt lat="30.161936" lon="100.573815">
<time>2015-08-06T04:43:25Z</time></trkpt>
<trkpt lat="30.161825" lon="100.573705">
<time>2015-08-06T04:43:26Z</time></trkpt>
<trkpt lat="30.161755" lon="100.573634">
<time>2015-08-06T04:43:27Z</time></trkpt>
<trkpt lat="30.161695" lon="100.573594">
<time>2015-08-06T04:43:28Z</time></trkpt>
<trkpt lat="30.161645" lon="100.573554">
<time>2015-08-06T04:43:29Z</time></trkpt>
<trkpt lat="30.161555" lon="100.573484">
<time>2015-08-06T04:43:30Z</time></trkpt>
<trkpt lat="30.161455" lon="100.573414">
<time>2015-08-06T04:43:31Z</time></trkpt>
<trkpt lat="30.161345" lon="100.573344">
<time>2015-08-06T04:43:32Z</time></trkpt>
<trkpt lat="30.161255" lon="100.573304">
<time>2015-08-06T04:43:33Z</time></trkpt>
<trkpt lat="30.161135" lon="100.573234">
<time>2015-08-06T04:43:34Z</time></trkpt>
<trkpt lat="30.160955" lon="100.573164">
<time>2015-08-06T04:43:35Z</time></trkpt>
<trkpt lat="30.160555" lon="100.573014">
<time>2015-08-06T04:43:36Z</time></trkpt>
<trkpt lat="30.160185" lon="100.572864">
<time>2015-08-06T04:43:37Z</time></trkpt>
<trkpt lat="30.159925" lon="100.572754">
<time>2015-08-06T04:43:38Z</time></trkpt>
<trkpt lat="30.159764" lon="100.572674">
<time>2015-08-06T04:43:39Z</time></trkpt>
<trkpt lat="30.159664" lon="100.572624">
<time>2015-08-06T04:43:40Z</time></trkpt>
<trkpt lat="30.159554" lon="100.572574">
<time>2015-08-06T04:43:41Z</time></trkpt>
<trkpt lat="30.159454" lon="100.572524">
<time>2015-08-06T04:43:42Z</time></trkpt>
<trkpt lat="30.159394" lon="100.572504">
<time>2015-08-06T04:43:43Z</time></trkpt>
<trkpt lat="30.159334" lon="100.572474">
<time>2015-08-06T04:43:44Z</time></trkpt>
<trkpt lat="30.159224" lon="100.572434">
<time>2015-08-06T04:43:45Z</time></trkpt>
<trkpt lat="30.159124" lon="100.572404">
<time>2015-08-06T04:43:46Z</time></trkpt>
<trkpt lat="30.158974" lon="100.572363">
<time>2015-08-06T04:43:47Z</time></trkpt>
<trkpt lat="30.158854" lon="100.572333">
<time>2015-08-06T04:43:48Z</time></trkpt>
<trkpt lat="30.158734" lon="100.572313">
<time>2015-08-06T04:43:49Z</time></trkpt>
<trkpt lat="30.158454" lon="100.572263">
<time>2015-08-06T04:43:50Z</time></trkpt>
<trkpt lat="30.158204" lon="100.572213">
<time>2015-08-06T04:43:51Z</time></trkpt>
<trkpt lat="30.157944" lon="100.572163">
<time>2015-08-06T04:43:52Z</time></trkpt>
<trkpt lat="30.157454" lon="100.572063">
<time>2015-08-06T04:43:53Z</time></trkpt>
<trkpt lat="30.157324" lon="100.572033">
<time>2015-08-06T04:43:54Z</time></trkpt>
<trkpt lat="30.157214" lon="100.571993">
<time>2015-08-06T04:43:55Z</time></trkpt>
<trkpt lat="30.157074" lon="100.571933">
<time>2015-08-06T04:43:56Z</time></trkpt>
<trkpt lat="30.156984" lon="100.571873">
<time>2015-08-06T04:43:57Z</time></trkpt>
<trkpt lat="30.156904" lon="100.571803">
<time>2015-08-06T04:43:58Z</time></trkpt>
<trkpt lat="30.156823" lon="100.571743">
<time>2015-08-06T04:43:59Z</time></trkpt>
<trkpt lat="30.156733" lon="100.571663">
<time>2015-08-06T04:44:00Z</time></trkpt>
<trkpt lat="30.156593" lon="100.571533">
<time>2015-08-06T04:44:01Z</time></trkpt>
<trkpt lat="30.156403" lon="100.571373">
<time>2015-08-06T04:44:02Z</time></trkpt>
<trkpt lat="30.156243" lon="100.571223">
<time>2015-08-06T04:44:03Z</time></trkpt>
<trkpt lat="30.156163" lon="100.571132">
<time>2015-08-06T04:44:04Z</time></trkpt>
<trkpt lat="30.156093" lon="100.571062">
<time>2015-08-06T04:44:05Z</time></trkpt>
<trkpt lat="30.156073" lon="100.571032">
<time>2015-08-06T04:44:06Z</time></trkpt>
<trkpt lat="30.156053" lon="100.571012">
<time>2015-08-06T04:44:07Z</time></trkpt>
<trkpt lat="30.156023" lon="100.570952">
<time>2015-08-06T04:44:08Z</time></trkpt>
<trkpt lat="30.156003" lon="100.570922">
<time>2015-08-06T04:44:09Z</time></trkpt>
<trkpt lat="30.155982" lon="100.570872">
<time>2015-08-06T04:44:10Z</time></trkpt>
<trkpt lat="30.155972" lon="100.570822">
<time>2015-08-06T04:44:11Z</time></trkpt>
<trkpt lat="30.155962" lon="100.570772">
<time>2015-08-06T04:44:12Z</time></trkpt>
<trkpt lat="30.155962" lon="100.570702">
<time>2015-08-06T04:44:13Z</time></trkpt>
<trkpt lat="30.155962" lon="100.570662">
<time>2015-08-06T04:44:14Z</time></trkpt>
<trkpt lat="30.155962" lon="100.570602">
<time>2015-08-06T04:44:15Z</time></trkpt>
<trkpt lat="30.155982" lon="100.570512">
<time>2015-08-06T04:44:16Z</time></trkpt>
<trkpt lat="30.155992" lon="100.570442">
<time>2015-08-06T04:44:17Z</time></trkpt>
<trkpt lat="30.156042" lon="100.570302">
<time>2015-08-06T04:44:18Z</time></trkpt>
<trkpt lat="30.156082" lon="100.570161">
<time>2015-08-06T04:44:19Z</time></trkpt>
<trkpt lat="30.156102" lon="100.570091">
<time>2015-08-06T04:44:20Z</time></trkpt>
<trkpt lat="30.156151" lon="100.569971">
<time>2015-08-06T04:44:21Z</time></trkpt>
<trkpt lat="30.156191" lon="100.569851">
<time>2015-08-06T04:44:22Z</time></trkpt>
<trkpt lat="30.156221" lon="100.569761">
<time>2015-08-06T04:44:23Z</time></trkpt>
<trkpt lat="30.156261" lon="100.569671">
<time>2015-08-06T04:44:24Z</time></trkpt>
<trkpt lat="30.156281" lon="100.569631">
<time>2015-08-06T04:44:25Z</time></trkpt>
<trkpt lat="30.156301" lon="100.569591">
<time>2015-08-06T04:44:26Z</time></trkpt>
<trkpt lat="30.156371" lon="100.569461">
<time>2015-08-06T04:44:27Z</time></trkpt>
<trkpt lat="30.15658" lon="100.5691">
<time>2015-08-06T04:44:28Z</time></trkpt>
<trkpt lat="30.1567" lon="100.56892">
<time>2015-08-06T04:44:29Z</time></trkpt>
<trkpt lat="30.15683" lon="100.5687">
<time>2015-08-06T04:44:30Z</time></trkpt>
<trkpt lat="30.15697" lon="100.56849">
<time>2015-08-06T04:44:31Z</time></trkpt>
<trkpt lat="30.15702" lon="100.56841">
<time>2015-08-06T04:44:32Z</time></trkpt>
<trkpt lat="30.157059" lon="100.56834">
<time>2015-08-06T04:44:33Z</time></trkpt>
<trkpt lat="30.157099" lon="100.568269">
<time>2015-08-06T04:44:34Z</time></trkpt>
<trkpt lat="30.157119" lon="100.568199">
<time>2015-08-06T04:44:35Z</time></trkpt>
<trkpt lat="30.157169" lon="100.568079">
<time>2015-08-06T04:44:36Z</time></trkpt>
<trkpt lat="30.157189" lon="100.567999">
<time>2015-08-06T04:44:37Z</time></trkpt>
<trkpt lat="30.157199" lon="100.567939">
<time>2015-08-06T04:44:38Z</time></trkpt>
<trkpt lat="30.157209" lon="100.567869">
<time>2015-08-06T04:44:39Z</time></trkpt>
<trkpt lat="30.157219" lon="100.567789">
<time>2015-08-06T04:44:40Z</time></trkpt>
<trkpt lat="30.157229" lon="100.567729">
<time>2015-08-06T04:44:41Z</time></trkpt>
<trkpt lat="30.157229" lon="100.567679">
<time>2015-08-06T04:44:42Z</time></trkpt>
<trkpt lat="30.157228" lon="100.567599">
<time>2015-08-06T04:44:43Z</time></trkpt>
<trkpt lat="30.157228" lon="100.567489">
<time>2015-08-06T04:44:44Z</time></trkpt>
<trkpt lat="30.157218" lon="100.567288">
<time>2015-08-06T04:44:45Z</time></trkpt>
<trkpt lat="30.157228" lon="100.567178">
<time>2015-08-06T04:44:46Z</time></trkpt>
<trkpt lat="30.157228" lon="100.567078">
<time>2015-08-06T04:44:47Z</time></trkpt>
<trkpt lat="30.157248" lon="100.567008">
<time>2015-08-06T04:44:48Z</time></trkpt>
<trkpt lat="30.157258" lon="100.566958">
<time>2015-08-06T04:44:49Z</time></trkpt>
<trkpt lat="30.157298" lon="100.566858">
<time>2015-08-06T04:44:50Z</time></trkpt>
<trkpt lat="30.157317" lon="100.566798">
<time>2015-08-06T04:44:51Z</time></trkpt>
<trkpt lat="30.157357" lon="100.566728">
<time>2015-08-06T04:44:52Z</time></trkpt>
<trkpt lat="30.157397" lon="100.566668">
<time>2015-08-06T04:44:53Z</time></trkpt>
<trkpt lat="30.157447" lon="100.566578">
<time>2015-08-06T04:44:54Z</time></trkpt>
<trkpt lat="30.157497" lon="100.566517">
<time>2015-08-06T04:44:55Z</time></trkpt>
<trkpt lat="30.157547" lon="100.566467">
<time>2015-08-06T04:44:56Z</time></trkpt>
<trkpt lat="30.157597" lon="100.566427">
<time>2015-08-06T04:44:57Z</time></trkpt>
<trkpt lat="30.157627" lon="100.566407">
<time>2015-08-06T04:44:58Z</time></trkpt>
<trkpt lat="30.157677" lon="100.566377">
<time>2015-08-06T04:44:59Z</time></trkpt>
<trkpt lat="30.157747" lon="100.566337">
<time>2015-08-06T04:45:00Z</time></trkpt>
<trkpt lat="30.157807" lon="100.566307">
<time>2015-08-06T04:45:01Z</time></trkpt>
<trkpt lat="30.157947" lon="100.566247">
<time>2015-08-06T04:45:02Z</time></trkpt>
<trkpt lat="30.158027" lon="100.566217">
<time>2015-08-06T04:45:03Z</time></trkpt>
<trkpt lat="30.158047" lon="100.566207">
<time>2015-08-06T04:45:04Z</time></trkpt>
<trkpt lat="30.158087" lon="100.566197">
<time>2015-08-06T04:45:05Z</time></trkpt>
<trkpt lat="30.158117" lon="100.566197">
<time>2015-08-06T04:45:06Z</time></trkpt>
<trkpt lat="30.158157" lon="100.566187">
<time>2015-08-06T04:45:07Z</time></trkpt>
<trkpt lat="30.158477" lon="100.566137">
<time>2015-08-06T04:45:08Z</time></trkpt>
<trkpt lat="30.158576" lon="100.566117">
<time>2015-08-06T04:45:09Z</time></trkpt>
<trkpt lat="30.158656" lon="100.566107">
<time>2015-08-06T04:45:10Z</time></trkpt>
<trkpt lat="30.158776" lon="100.566077">
<time>2015-08-06T04:45:11Z</time></trkpt>
<trkpt lat="30.158846" lon="100.566057">
<time>2015-08-06T04:45:12Z</time></trkpt>
<trkpt lat="30.158906" lon="100.566037">
<time>2015-08-06T04:45:13Z</time></trkpt>
<trkpt lat="30.158946" lon="100.566007">
<time>2015-08-06T04:45:14Z</time></trkpt>
<trkpt lat="30.158996" lon="100.565957">
<time>2015-08-06T04:45:15Z</time></trkpt>
<trkpt lat="30.159036" lon="100.565907">
<time>2015-08-06T04:45:16Z</time></trkpt>
<trkpt lat="30.159056" lon="100.565857">
<time>2015-08-06T04:45:17Z</time></trkpt>
<trkpt lat="30.159076" lon="100.565807">
<time>2015-08-06T04:45:18Z</time></trkpt>
<trkpt lat="30.159076" lon="100.565736">
<time>2015-08-06T04:45:19Z</time></trkpt>
<trkpt lat="30.159076" lon="100.565676">
<time>2015-08-06T04:45:20Z</time></trkpt>
<trkpt lat="30.159066" lon="100.565606">
<time>2015-08-06T04:45:21Z</time></trkpt>
<trkpt lat="30.159036" lon="100.565536">
<time>2015-08-06T04:45:22Z</time></trkpt>
<trkpt lat="30.159026" lon="100.565506">
<time>2015-08-06T04:45:23Z</time></trkpt>
<trkpt lat="30.158996" lon="100.565446">
<time>2015-08-06T04:45:24Z</time></trkpt>
<trkpt lat="30.158965" lon="100.565386">
<time>2015-08-06T04:45:25Z</time></trkpt>
<trkpt lat="30.158935" lon="100.565326">
<time>2015-08-06T04:45:26Z</time></trkpt>
<trkpt lat="30.158865" lon="100.565206">
<time>2015-08-06T04:45:27Z</time></trkpt>
<trkpt lat="30.158745" lon="100.564986">
<time>2015-08-06T04:45:28Z</time></trkpt>
<trkpt lat="30.158564" lon="100.564675">
<time>2015-08-06T04:45:29Z</time></trkpt>
<trkpt lat="30.158444" lon="100.564445">
<time>2015-08-06T04:45:30Z</time></trkpt>
<trkpt lat="30.158304" lon="100.564185">
<time>2015-08-06T04:45:31Z</time></trkpt>
<trkpt lat="30.158254" lon="100.564084">
<time>2015-08-06T04:45:32Z</time></trkpt>
<trkpt lat="30.158143" lon="100.563844">
<time>2015-08-06T04:45:33Z</time></trkpt>
<trkpt lat="30.158103" lon="100.563724">
<time>2015-08-06T04:45:34Z</time></trkpt>
<trkpt lat="30.158073" lon="100.563644">
<time>2015-08-06T04:45:35Z</time></trkpt>
<trkpt lat="30.158053" lon="100.563594">
<time>2015-08-06T04:45:36Z</time></trkpt>
<trkpt lat="30.158043" lon="100.563534">
<time>2015-08-06T04:45:37Z</time></trkpt>
<trkpt lat="30.158043" lon="100.563494">
<time>2015-08-06T04:45:38Z</time></trkpt>
<trkpt lat="30.158043" lon="100.563444">
<time>2015-08-06T04:45:39Z</time></trkpt>
<trkpt lat="30.158043" lon="100.563404">
<time>2015-08-06T04:45:40Z</time></trkpt>
<trkpt lat="30.158043" lon="100.563343">
<time>2015-08-06T04:45:41Z</time></trkpt>
<trkpt lat="30.158062" lon="100.563253">
<time>2015-08-06T04:45:42Z</time></trkpt>
<trkpt lat="30.158082" lon="100.563183">
<time>2015-08-06T04:45:43Z</time></trkpt>
<trkpt lat="30.158102" lon="100.563143">
<time>2015-08-06T04:45:44Z</time></trkpt>
<trkpt lat="30.158122" lon="100.563093">
<time>2015-08-06T04:45:45Z</time></trkpt>
<trkpt lat="30.158152" lon="100.563033">
<time>2015-08-06T04:45:46Z</time></trkpt>
<trkpt lat="30.158172" lon="100.562983">
<time>2015-08-06T04:45:47Z</time></trkpt>
<trkpt lat="30.158192" lon="100.562943">
<time>2015-08-06T04:45:48Z</time></trkpt>
<trkpt lat="30.158232" lon="100.562873">
<time>2015-08-06T04:45:49Z</time></trkpt>
<trkpt lat="30.158282" lon="100.562783">
<time>2015-08-06T04:45:50Z</time></trkpt>
<trkpt lat="30.158342" lon="100.562683">
<time>2015-08-06T04:45:51Z</time></trkpt>
<trkpt lat="30.158391" lon="100.562612">
<time>2015-08-06T04:45:52Z</time></trkpt>
<trkpt lat="30.158451" lon="100.562502">
<time>2015-08-06T04:45:53Z</time></trkpt>
<trkpt lat="30.158511" lon="100.562402">
<time>2015-08-06T04:45:54Z</time></trkpt>
<trkpt lat="30.158571" lon="100.562312">
<time>2015-08-06T04:45:55Z</time></trkpt>
<trkpt lat="30.158611" lon="100.562232">
<time>2015-08-06T04:45:56Z</time></trkpt>
<trkpt lat="30.158671" lon="100.562152">
<time>2015-08-06T04:45:57Z</time></trkpt>
<trkpt lat="30.158731" lon="100.562052">
<time>2015-08-06T04:45:58Z</time></trkpt>
<trkpt lat="30.15881" lon="100.561941">
<time>2015-08-06T04:45:59Z</time></trkpt>
<trkpt lat="30.15888" lon="100.561841">
<time>2015-08-06T04:46:00Z</time></trkpt>
<trkpt lat="30.15895" lon="100.561751">
<time>2015-08-06T04:46:01Z</time></trkpt>
<trkpt lat="30.15899" lon="100.561701">
<time>2015-08-06T04:46:02Z</time></trkpt>
<trkpt lat="30.15906" lon="100.561591">
<time>2015-08-06T04:46:03Z</time></trkpt>
<trkpt lat="30.15915" lon="100.561461">
<time>2015-08-06T04:46:04Z</time></trkpt>
<trkpt lat="30.15919" lon="100.561391">
<time>2015-08-06T04:46:05Z</time></trkpt>
<trkpt lat="30.159249" lon="100.561291">
<time>2015-08-06T04:46:06Z</time></trkpt>
<trkpt lat="30.159289" lon="100.56123">
<time>2015-08-06T04:46:07Z</time></trkpt>
<trkpt lat="30.159329" lon="100.56115">
<time>2015-08-06T04:46:08Z</time></trkpt>
<trkpt lat="30.159359" lon="100.5611">
<time>2015-08-06T04:46:09Z</time></trkpt>
<trkpt lat="30.159399" lon="100.56101">
<time>2015-08-06T04:46:10Z</time></trkpt>
<trkpt lat="30.159489" lon="100.56085">
<time>2015-08-06T04:46:11Z</time></trkpt>
<trkpt lat="30.159529" lon="100.56077">
<time>2015-08-06T04:46:12Z</time></trkpt>
<trkpt lat="30.159569" lon="100.56068">
<time>2015-08-06T04:46:13Z</time></trkpt>
<trkpt lat="30.159618" lon="100.56061">
<time>2015-08-06T04:46:14Z</time></trkpt>
<trkpt lat="30.159628" lon="100.5606">
<time>2015-08-06T04:46:15Z</time></trkpt>
<trkpt lat="30.159628" lon="100.56059">
<time>2015-08-06T04:46:16Z</time></trkpt>
<trkpt lat="30.159658" lon="100.560549">
<time>2015-08-06T04:46:17Z</time></trkpt>
<trkpt lat="30.159688" lon="100.560519">
<time>2015-08-06T04:46:18Z</time></trkpt>
<trkpt lat="30.159698" lon="100.560509">
<time>2015-08-06T04:46:19Z</time></trkpt>
<trkpt lat="30.159748" lon="100.560459">
<time>2015-08-06T04:46:20Z</time></trkpt>
<trkpt lat="30.159778" lon="100.560439">
<time>2015-08-06T04:46:21Z</time></trkpt>
<trkpt lat="30.159838" lon="100.560399">
<time>2015-08-06T04:46:22Z</time></trkpt>
<trkpt lat="30.159878" lon="100.560379">
<time>2015-08-06T04:46:23Z</time></trkpt>
<trkpt lat="30.159958" lon="100.560349">
<time>2015-08-06T04:46:24Z</time></trkpt>
<trkpt lat="30.160028" lon="100.560329">
<time>2015-08-06T04:46:25Z</time></trkpt>
<trkpt lat="30.160098" lon="100.560319">
<time>2015-08-06T04:46:26Z</time></trkpt>
<trkpt lat="30.160258" lon="100.560279">
<time>2015-08-06T04:46:27Z</time></trkpt>
<trkpt lat="30.160398" lon="100.560249">
<time>2015-08-06T04:46:28Z</time></trkpt>
<trkpt lat="30.160548" lon="100.560199">
<time>2015-08-06T04:46:29Z</time></trkpt>
<trkpt lat="30.160638" lon="100.560179">
<time>2015-08-06T04:46:30Z</time></trkpt>
<trkpt lat="30.160698" lon="100.560149">
<time>2015-08-06T04:46:31Z</time></trkpt>
<trkpt lat="30.160758" lon="100.560119">
<time>2015-08-06T04:46:32Z</time></trkpt>
<trkpt lat="30.160798" lon="100.560099">
<time>2015-08-06T04:46:33Z</time></trkpt>
<trkpt lat="30.160818" lon="100.560069">
<time>2015-08-06T04:46:34Z</time></trkpt>
<trkpt lat="30.160837" lon="100.560049">
<time>2015-08-06T04:46:35Z</time></trkpt>
<trkpt lat="30.160867" lon="100.560009">
<time>2015-08-06T04:46:36Z</time></trkpt>
<trkpt lat="30.160877" lon="100.559979">
<time>2015-08-06T04:46:37Z</time></trkpt>
<trkpt lat="30.160897" lon="100.559959">
<time>2015-08-06T04:46:38Z</time></trkpt>
<trkpt lat="30.160907" lon="100.559918">
<time>2015-08-06T04:46:39Z</time></trkpt>
<trkpt lat="30.160917" lon="100.559878">
<time>2015-08-06T04:46:40Z</time></trkpt>
<trkpt lat="30.160927" lon="100.559828">
<time>2015-08-06T04:46:41Z</time></trkpt>
<trkpt lat="30.160937" lon="100.559788">
<time>2015-08-06T04:46:42Z</time></trkpt>
<trkpt lat="30.160937" lon="100.559718">
<time>2015-08-06T04:46:43Z</time></trkpt>
<trkpt lat="30.160937" lon="100.559688">
<time>2015-08-06T04:46:44Z</time></trkpt>
<trkpt lat="30.160927" lon="100.559598">
<time>2015-08-06T04:46:45Z</time></trkpt>
<trkpt lat="30.160927" lon="100.559548">
<time>2015-08-06T04:46:46Z</time></trkpt>
<trkpt lat="30.160917" lon="100.559488">
<time>2015-08-06T04:46:47Z</time></trkpt>
<trkpt lat="30.160926" lon="100.559428">
<time>2015-08-06T04:46:48Z</time></trkpt>
<trkpt lat="30.160926" lon="100.559388">
<time>2015-08-06T04:46:49Z</time></trkpt>
<trkpt lat="30.160936" lon="100.559338">
<time>2015-08-06T04:46:50Z</time></trkpt>
<trkpt lat="30.160956" lon="100.559298">
<time>2015-08-06T04:46:51Z</time></trkpt>
<trkpt lat="30.160976" lon="100.559257">
<time>2015-08-06T04:46:52Z</time></trkpt>
<trkpt lat="30.161006" lon="100.559217">
<time>2015-08-06T04:46:53Z</time></trkpt>
<trkpt lat="30.161036" lon="100.559187">
<time>2015-08-06T04:46:54Z</time></trkpt>
<trkpt lat="30.161066" lon="100.559157">
<time>2015-08-06T04:46:55Z</time></trkpt>
<trkpt lat="30.161086" lon="100.559137">
<time>2015-08-06T04:46:56Z</time></trkpt>
<trkpt lat="30.161106" lon="100.559127">
<time>2015-08-06T04:46:57Z</time></trkpt>
<trkpt lat="30.161126" lon="100.559117">
<time>2015-08-06T04:46:58Z</time></trkpt>
<trkpt lat="30.161176" lon="100.559087">
<time>2015-08-06T04:46:59Z</time></trkpt>
<trkpt lat="30.161266" lon="100.559027">
<time>2015-08-06T04:47:00Z</time></trkpt>
<trkpt lat="30.161356" lon="100.558997">
<time>2015-08-06T04:47:01Z</time></trkpt>
<trkpt lat="30.161386" lon="100.558977">
<time>2015-08-06T04:47:02Z</time></trkpt>
<trkpt lat="30.161426" lon="100.558957">
<time>2015-08-06T04:47:03Z</time></trkpt>
<trkpt lat="30.161466" lon="100.558947">
<time>2015-08-06T04:47:04Z</time></trkpt>
<trkpt lat="30.161486" lon="100.558937">
<time>2015-08-06T04:47:05Z</time></trkpt>
<trkpt lat="30.161546" lon="100.558907">
<time>2015-08-06T04:47:06Z</time></trkpt>
<trkpt lat="30.161626" lon="100.558867">
<time>2015-08-06T04:47:07Z</time></trkpt>
<trkpt lat="30.161675" lon="100.558837">
<time>2015-08-06T04:47:08Z</time></trkpt>
<trkpt lat="30.161755" lon="100.558787">
<time>2015-08-06T04:47:09Z</time></trkpt>
<trkpt lat="30.161905" lon="100.558697">
<time>2015-08-06T04:47:10Z</time></trkpt>
<trkpt lat="30.162015" lon="100.558606">
<time>2015-08-06T04:47:11Z</time></trkpt>
<trkpt lat="30.162095" lon="100.558556">
<time>2015-08-06T04:47:12Z</time></trkpt>
<trkpt lat="30.162175" lon="100.558496">
<time>2015-08-06T04:47:13Z</time></trkpt>
<trkpt lat="30.162265" lon="100.558426">
<time>2015-08-06T04:47:14Z</time></trkpt>
<trkpt lat="30.162345" lon="100.558346">
<time>2015-08-06T04:47:15Z</time></trkpt>
<trkpt lat="30.162395" lon="100.558306">
<time>2015-08-06T04:47:16Z</time></trkpt>
<trkpt lat="30.162484" lon="100.558216">
<time>2015-08-06T04:47:17Z</time></trkpt>
<trkpt lat="30.162574" lon="100.558126">
<time>2015-08-06T04:47:18Z</time></trkpt>
<trkpt lat="30.162654" lon="100.558046">
<time>2015-08-06T04:47:19Z</time></trkpt>
<trkpt lat="30.162764" lon="100.557935">
<time>2015-08-06T04:47:20Z</time></trkpt>
<trkpt lat="30.162834" lon="100.557865">
<time>2015-08-06T04:47:21Z</time></trkpt>
<trkpt lat="30.162904" lon="100.557785">
<time>2015-08-06T04:47:22Z</time></trkpt>
<trkpt lat="30.162944" lon="100.557745">
<time>2015-08-06T04:47:23Z</time></trkpt>
<trkpt lat="30.162984" lon="100.557695">
<time>2015-08-06T04:47:24Z</time></trkpt>
<trkpt lat="30.163014" lon="100.557665">
<time>2015-08-06T04:47:25Z</time></trkpt>
<trkpt lat="30.163033" lon="100.557645">
<time>2015-08-06T04:47:26Z</time></trkpt>
<trkpt lat="30.163053" lon="100.557615">
<time>2015-08-06T04:47:27Z</time></trkpt>
<trkpt lat="30.163093" lon="100.557555">
<time>2015-08-06T04:47:28Z</time></trkpt>
<trkpt lat="30.163143" lon="100.557485">
<time>2015-08-06T04:47:29Z</time></trkpt>
<trkpt lat="30.163163" lon="100.557445">
<time>2015-08-06T04:47:30Z</time></trkpt>
<trkpt lat="30.163203" lon="100.557384">
<time>2015-08-06T04:47:31Z</time></trkpt>
<trkpt lat="30.163233" lon="100.557344">
<time>2015-08-06T04:47:32Z</time></trkpt>
<trkpt lat="30.163273" lon="100.557254">
<time>2015-08-06T04:47:33Z</time></trkpt>
<trkpt lat="30.163372" lon="100.557074">
<time>2015-08-06T04:47:34Z</time></trkpt>
<trkpt lat="30.163422" lon="100.556984">
<time>2015-08-06T04:47:35Z</time></trkpt>
<trkpt lat="30.163502" lon="100.556854">
<time>2015-08-06T04:47:36Z</time></trkpt>
<trkpt lat="30.163572" lon="100.556743">
<time>2015-08-06T04:47:37Z</time></trkpt>
<trkpt lat="30.163702" lon="100.556553">
<time>2015-08-06T04:47:38Z</time></trkpt>
<trkpt lat="30.163821" lon="100.556393">
<time>2015-08-06T04:47:39Z</time></trkpt>
<trkpt lat="30.163921" lon="100.556253">
<time>2015-08-06T04:47:40Z</time></trkpt>
<trkpt lat="30.164001" lon="100.556142">
<time>2015-08-06T04:47:41Z</time></trkpt>
<trkpt lat="30.164121" lon="100.555992">
<time>2015-08-06T04:47:42Z</time></trkpt>
<trkpt lat="30.16419" lon="100.555902">
<time>2015-08-06T04:47:43Z</time></trkpt>
<trkpt lat="30.16426" lon="100.555802">
<time>2015-08-06T04:47:44Z</time></trkpt>
<trkpt lat="30.16431" lon="100.555732">
<time>2015-08-06T04:47:45Z</time></trkpt>
<trkpt lat="30.16433" lon="100.555682">
<time>2015-08-06T04:47:46Z</time></trkpt>
<trkpt lat="30.16436" lon="100.555621">
<time>2015-08-06T04:47:47Z</time></trkpt>
<trkpt lat="30.16438" lon="100.555581">
<time>2015-08-06T04:47:48Z</time></trkpt>
<trkpt lat="30.16439" lon="100.555521">
<time>2015-08-06T04:47:49Z</time></trkpt>
<trkpt lat="30.1644" lon="100.555471">
<time>2015-08-06T04:47:50Z</time></trkpt>
<trkpt lat="30.164399" lon="100.555381">
<time>2015-08-06T04:47:51Z</time></trkpt>
<trkpt lat="30.164399" lon="100.555361">
<time>2015-08-06T04:47:52Z</time></trkpt>
<trkpt lat="30.164389" lon="100.555331">
<time>2015-08-06T04:47:53Z</time></trkpt>
<trkpt lat="30.164389" lon="100.555301">
<time>2015-08-06T04:47:54Z</time></trkpt>
<trkpt lat="30.164379" lon="100.555261">
<time>2015-08-06T04:47:55Z</time></trkpt>
<trkpt lat="30.164379" lon="100.555231">
<time>2015-08-06T04:47:56Z</time></trkpt>
<trkpt lat="30.164369" lon="100.555181">
<time>2015-08-06T04:47:57Z</time></trkpt>
<trkpt lat="30.164349" lon="100.555121">
<time>2015-08-06T04:47:58Z</time></trkpt>
<trkpt lat="30.164339" lon="100.55504">
<time>2015-08-06T04:47:59Z</time></trkpt>
<trkpt lat="30.164319" lon="100.55498">
<time>2015-08-06T04:48:00Z</time></trkpt>
<trkpt lat="30.164299" lon="100.55489">
<time>2015-08-06T04:48:01Z</time></trkpt>
<trkpt lat="30.164258" lon="100.55475">
<time>2015-08-06T04:48:02Z</time></trkpt>
<trkpt lat="30.164238" lon="100.55464">
<time>2015-08-06T04:48:03Z</time></trkpt>
<trkpt lat="30.164228" lon="100.55457">
<time>2015-08-06T04:48:04Z</time></trkpt>
<trkpt lat="30.164208" lon="100.554479">
<time>2015-08-06T04:48:05Z</time></trkpt>
<trkpt lat="30.164208" lon="100.554399">
<time>2015-08-06T04:48:06Z</time></trkpt>
<trkpt lat="30.164208" lon="100.554349">
<time>2015-08-06T04:48:07Z</time></trkpt>
<trkpt lat="30.164208" lon="100.554279">
<time>2015-08-06T04:48:08Z</time></trkpt>
<trkpt lat="30.164217" lon="100.554229">
<time>2015-08-06T04:48:09Z</time></trkpt>
<trkpt lat="30.164237" lon="100.554149">
<time>2015-08-06T04:48:10Z</time></trkpt>
<trkpt lat="30.164257" lon="100.554059">
<time>2015-08-06T04:48:11Z</time></trkpt>
<trkpt lat="30.164317" lon="100.553888">
<time>2015-08-06T04:48:12Z</time></trkpt>
<trkpt lat="30.164366" lon="100.553718">
<time>2015-08-06T04:48:13Z</time></trkpt>
<trkpt lat="30.164426" lon="100.553538">
<time>2015-08-06T04:48:14Z</time></trkpt>
<trkpt lat="30.164466" lon="100.553398">
<time>2015-08-06T04:48:15Z</time></trkpt>
<trkpt lat="30.164526" lon="100.553237">
<time>2015-08-06T04:48:16Z</time></trkpt>
<trkpt lat="30.164585" lon="100.553057">
<time>2015-08-06T04:48:17Z</time></trkpt>
<trkpt lat="30.164655" lon="100.552867">
<time>2015-08-06T04:48:18Z</time></trkpt>
<trkpt lat="30.164715" lon="100.552696">
<time>2015-08-06T04:48:19Z</time></trkpt>
<trkpt lat="30.164774" lon="100.552526">
<time>2015-08-06T04:48:20Z</time></trkpt>
<trkpt lat="30.164844" lon="100.552356">
<time>2015-08-06T04:48:21Z</time></trkpt>
<trkpt lat="30.164894" lon="100.552235">
<time>2015-08-06T04:48:22Z</time></trkpt>
<trkpt lat="30.164933" lon="100.552135">
<time>2015-08-06T04:48:23Z</time></trkpt>
<trkpt lat="30.164983" lon="100.552015">
<time>2015-08-06T04:48:24Z</time></trkpt>
<trkpt lat="30.165003" lon="100.551955">
<time>2015-08-06T04:48:25Z</time></trkpt>
<trkpt lat="30.165033" lon="100.551895">
<time>2015-08-06T04:48:26Z</time></trkpt>
<trkpt lat="30.165073" lon="100.551765">
<time>2015-08-06T04:48:27Z</time></trkpt>
<trkpt lat="30.165103" lon="100.551674">
<time>2015-08-06T04:48:28Z</time></trkpt>
<trkpt lat="30.165122" lon="100.551564">
<time>2015-08-06T04:48:29Z</time></trkpt>
<trkpt lat="30.165142" lon="100.551474">
<time>2015-08-06T04:48:30Z</time></trkpt>
<trkpt lat="30.165152" lon="100.551374">
<time>2015-08-06T04:48:31Z</time></trkpt>
<trkpt lat="30.165162" lon="100.551274">
<time>2015-08-06T04:48:32Z</time></trkpt>
<trkpt lat="30.165181" lon="100.551103">
<time>2015-08-06T04:48:33Z</time></trkpt>
<trkpt lat="30.165201" lon="100.550963">
<time>2015-08-06T04:48:34Z</time></trkpt>
<trkpt lat="30.165231" lon="100.550813">
<time>2015-08-06T04:48:35Z</time></trkpt>
<trkpt lat="30.165271" lon="100.550642">
<time>2015-08-06T04:48:36Z</time></trkpt>
<trkpt lat="30.16531" lon="100.550482">
<time>2015-08-06T04:48:37Z</time></trkpt>
<trkpt lat="30.16534" lon="100.550372">
<time>2015-08-06T04:48:38Z</time></trkpt>
<trkpt lat="30.16535" lon="100.550322">
<time>2015-08-06T04:48:39Z</time></trkpt>
<trkpt lat="30.16536" lon="100.550272">
<time>2015-08-06T04:48:40Z</time></trkpt>
<trkpt lat="30.165399" lon="100.550081">
<time>2015-08-06T04:48:41Z</time></trkpt>
<trkpt lat="30.165429" lon="100.549911">
<time>2015-08-06T04:48:42Z</time></trkpt>
<trkpt lat="30.165469" lon="100.549731">
<time>2015-08-06T04:48:43Z</time></trkpt>
<trkpt lat="30.165498" lon="100.5496">
<time>2015-08-06T04:48:44Z</time></trkpt>
<trkpt lat="30.165538" lon="100.54949">
<time>2015-08-06T04:48:45Z</time></trkpt>
<trkpt lat="30.165558" lon="100.54945">
<time>2015-08-06T04:48:46Z</time></trkpt>
<trkpt lat="30.165628" lon="100.5493">
<time>2015-08-06T04:48:47Z</time></trkpt>
<trkpt lat="30.165728" lon="100.549119">
<time>2015-08-06T04:48:48Z</time></trkpt>
<trkpt lat="30.165797" lon="100.548979">
<time>2015-08-06T04:48:49Z</time></trkpt>
<trkpt lat="30.165857" lon="100.548819">
<time>2015-08-06T04:48:50Z</time></trkpt>
<trkpt lat="30.165897" lon="100.548699">
<time>2015-08-06T04:48:51Z</time></trkpt>
<trkpt lat="30.165936" lon="100.548548">
<time>2015-08-06T04:48:52Z</time></trkpt>
<trkpt lat="30.165976" lon="100.548378">
<time>2015-08-06T04:48:53Z</time></trkpt>
<trkpt lat="30.166006" lon="100.548218">
<time>2015-08-06T04:48:54Z</time></trkpt>
<trkpt lat="30.166035" lon="100.548077">
<time>2015-08-06T04:48:55Z</time></trkpt>
<trkpt lat="30.166045" lon="100.548037">
<time>2015-08-06T04:48:56Z</time></trkpt>
<trkpt lat="30.166045" lon="100.547997">
<time>2015-08-06T04:48:57Z</time></trkpt>
<trkpt lat="30.166045" lon="100.547957">
<time>2015-08-06T04:48:58Z</time></trkpt>
<trkpt lat="30.166045" lon="100.547917">
<time>2015-08-06T04:48:59Z</time></trkpt>
<trkpt lat="30.166035" lon="100.547887">
<time>2015-08-06T04:49:00Z</time></trkpt>
<trkpt lat="30.166035" lon="100.547847">
<time>2015-08-06T04:49:01Z</time></trkpt>
<trkpt lat="30.166025" lon="100.547817">
<time>2015-08-06T04:49:02Z</time></trkpt>
<trkpt lat="30.166015" lon="100.547797">
<time>2015-08-06T04:49:03Z</time></trkpt>
<trkpt lat="30.166005" lon="100.547767">
<time>2015-08-06T04:49:04Z</time></trkpt>
<trkpt lat="30.165985" lon="100.547727">
<time>2015-08-06T04:49:05Z</time></trkpt>
<trkpt lat="30.165975" lon="100.547696">
<time>2015-08-06T04:49:06Z</time></trkpt>
<trkpt lat="30.165945" lon="100.547656">
<time>2015-08-06T04:49:07Z</time></trkpt>
<trkpt lat="30.165914" lon="100.547616">
<time>2015-08-06T04:49:08Z</time></trkpt>
<trkpt lat="30.165834" lon="100.547526">
<time>2015-08-06T04:49:09Z</time></trkpt>
<trkpt lat="30.165744" lon="100.547416">
<time>2015-08-06T04:49:10Z</time></trkpt>
<trkpt lat="30.165674" lon="100.547316">
<time>2015-08-06T04:49:11Z</time></trkpt>
<trkpt lat="30.165634" lon="100.547266">
<time>2015-08-06T04:49:12Z</time></trkpt>
<trkpt lat="30.165604" lon="100.547216">
<time>2015-08-06T04:49:13Z</time></trkpt>
<trkpt lat="30.165553" lon="100.547145">
<time>2015-08-06T04:49:14Z</time></trkpt>
<trkpt lat="30.165513" lon="100.547065">
<time>2015-08-06T04:49:15Z</time></trkpt>
<trkpt lat="30.165483" lon="100.547015">
<time>2015-08-06T04:49:16Z</time></trkpt>
<trkpt lat="30.165433" lon="100.546915">
<time>2015-08-06T04:49:17Z</time></trkpt>
<trkpt lat="30.165353" lon="100.546755">
<time>2015-08-06T04:49:18Z</time></trkpt>
<trkpt lat="30.165292" lon="100.546654">
<time>2015-08-06T04:49:19Z</time></trkpt>
<trkpt lat="30.165262" lon="100.546594">
<time>2015-08-06T04:49:20Z</time></trkpt>
<trkpt lat="30.165222" lon="100.546544">
<time>2015-08-06T04:49:21Z</time></trkpt>
<trkpt lat="30.165192" lon="100.546494">
<time>2015-08-06T04:49:22Z</time></trkpt>
<trkpt lat="30.165162" lon="100.546454">
<time>2015-08-06T04:49:23Z</time></trkpt>
<trkpt lat="30.165132" lon="100.546404">
<time>2015-08-06T04:49:24Z</time></trkpt>
<trkpt lat="30.165092" lon="100.546344">
<time>2015-08-06T04:49:25Z</time></trkpt>
<trkpt lat="30.165072" lon="100.546314">
<time>2015-08-06T04:49:26Z</time></trkpt>
<trkpt lat="30.165042" lon="100.546284">
<time>2015-08-06T04:49:27Z</time></trkpt>
<trkpt lat="30.165032" lon="100.546264">
<time>2015-08-06T04:49:28Z</time></trkpt>
<trkpt lat="30.165002" lon="100.546233">
<time>2015-08-06T04:49:29Z</time></trkpt>
<trkpt lat="30.164981" lon="100.546193">
<time>2015-08-06T04:49:30Z</time></trkpt>
<trkpt lat="30.164951" lon="100.546173">
<time>2015-08-06T04:49:31Z</time></trkpt>
<trkpt lat="30.164921" lon="100.546133">
<time>2015-08-06T04:49:32Z</time></trkpt>
<trkpt lat="30.164731" lon="100.545973">
<time>2015-08-06T04:49:33Z</time></trkpt>
<trkpt lat="30.164491" lon="100.545752">
<time>2015-08-06T04:49:34Z</time></trkpt>
<trkpt lat="30.16434" lon="100.545622">
<time>2015-08-06T04:49:35Z</time></trkpt>
<trkpt lat="30.16425" lon="100.545522">
<time>2015-08-06T04:49:36Z</time></trkpt>
<trkpt lat="30.16422" lon="100.545472">
<time>2015-08-06T04:49:37Z</time></trkpt>
<trkpt lat="30.16419" lon="100.545422">
<time>2015-08-06T04:49:38Z</time></trkpt>
<trkpt lat="30.16417" lon="100.545382">
<time>2015-08-06T04:49:39Z</time></trkpt>
<trkpt lat="30.16415" lon="100.545332">
<time>2015-08-06T04:49:40Z</time></trkpt>
<trkpt lat="30.16414" lon="100.545301">
<time>2015-08-06T04:49:41Z</time></trkpt>
<trkpt lat="30.164129" lon="100.545271">
<time>2015-08-06T04:49:42Z</time></trkpt>
<trkpt lat="30.164129" lon="100.545231">
<time>2015-08-06T04:49:43Z</time></trkpt>
<trkpt lat="30.164129" lon="100.545161">
<time>2015-08-06T04:49:44Z</time></trkpt>
<trkpt lat="30.164129" lon="100.545091">
<time>2015-08-06T04:49:45Z</time></trkpt>
<trkpt lat="30.164139" lon="100.545051">
<time>2015-08-06T04:49:46Z</time></trkpt>
<trkpt lat="30.164139" lon="100.545021">
<time>2015-08-06T04:49:47Z</time></trkpt>
<trkpt lat="30.164149" lon="100.544991">
<time>2015-08-06T04:49:48Z</time></trkpt>
<trkpt lat="30.164169" lon="100.544961">
<time>2015-08-06T04:49:49Z</time></trkpt>
<trkpt lat="30.164179" lon="100.544921">
<time>2015-08-06T04:49:50Z</time></trkpt>
<trkpt lat="30.164199" lon="100.544891">
<time>2015-08-06T04:49:51Z</time></trkpt>
<trkpt lat="30.164219" lon="100.544861">
<time>2015-08-06T04:49:52Z</time></trkpt>
<trkpt lat="30.164239" lon="100.54484">
<time>2015-08-06T04:49:53Z</time></trkpt>
<trkpt lat="30.164258" lon="100.54481">
<time>2015-08-06T04:49:54Z</time></trkpt>
<trkpt lat="30.164308" lon="100.54477">
<time>2015-08-06T04:49:55Z</time></trkpt>
<trkpt lat="30.164338" lon="100.54475">
<time>2015-08-06T04:49:56Z</time></trkpt>
<trkpt lat="30.164388" lon="100.54472">
<time>2015-08-06T04:49:57Z</time></trkpt>
<trkpt lat="30.164418" lon="100.54471">
<time>2015-08-06T04:49:58Z</time></trkpt>
<trkpt lat="30.164448" lon="100.54471">
<time>2015-08-06T04:49:59Z</time></trkpt>
<trkpt lat="30.164478" lon="100.5447">
<time>2015-08-06T04:50:00Z</time></trkpt>
<trkpt lat="30.164528" lon="100.5447">
<time>2015-08-06T04:50:01Z</time></trkpt>
<trkpt lat="30.164578" lon="100.54471">
<time>2015-08-06T04:50:02Z</time></trkpt>
<trkpt lat="30.164618" lon="100.54472">
<time>2015-08-06T04:50:03Z</time></trkpt>
<trkpt lat="30.164668" lon="100.54474">
<time>2015-08-06T04:50:04Z</time></trkpt>
<trkpt lat="30.164738" lon="100.54477">
<time>2015-08-06T04:50:05Z</time></trkpt>
<trkpt lat="30.165009" lon="100.544901">
<time>2015-08-06T04:50:06Z</time></trkpt>
<trkpt lat="30.165119" lon="100.544961">
<time>2015-08-06T04:50:07Z</time></trkpt>
<trkpt lat="30.165309" lon="100.545061">
<time>2015-08-06T04:50:08Z</time></trkpt>
<trkpt lat="30.165389" lon="100.545101">
<time>2015-08-06T04:50:09Z</time></trkpt>
<trkpt lat="30.165469" lon="100.545141">
<time>2015-08-06T04:50:10Z</time></trkpt>
<trkpt lat="30.165519" lon="100.545151">
<time>2015-08-06T04:50:11Z</time></trkpt>
<trkpt lat="30.165559" lon="100.545171">
<time>2015-08-06T04:50:12Z</time></trkpt>
<trkpt lat="30.165609" lon="100.545181">
<time>2015-08-06T04:50:13Z</time></trkpt>
<trkpt lat="30.165659" lon="100.545191">
<time>2015-08-06T04:50:14Z</time></trkpt>
<trkpt lat="30.165709" lon="100.545201">
<time>2015-08-06T04:50:15Z</time></trkpt>
<trkpt lat="30.165759" lon="100.545201">
<time>2015-08-06T04:50:16Z</time></trkpt>
<trkpt lat="30.165839" lon="100.545201">
<time>2015-08-06T04:50:17Z</time></trkpt>
<trkpt lat="30.165899" lon="100.545201">
<time>2015-08-06T04:50:18Z</time></trkpt>
<trkpt lat="30.165959" lon="100.545191">
<time>2015-08-06T04:50:19Z</time></trkpt>
<trkpt lat="30.166059" lon="100.545181">
<time>2015-08-06T04:50:20Z</time></trkpt>
<trkpt lat="30.166319" lon="100.545121">
<time>2015-08-06T04:50:21Z</time></trkpt>
<trkpt lat="30.166379" lon="100.545111">
<time>2015-08-06T04:50:22Z</time></trkpt>
<trkpt lat="30.166439" lon="100.545111">
<time>2015-08-06T04:50:23Z</time></trkpt>
<trkpt lat="30.166499" lon="100.545111">
<time>2015-08-06T04:50:24Z</time></trkpt>
<trkpt lat="30.166549" lon="100.545111">
<time>2015-08-06T04:50:25Z</time></trkpt>
<trkpt lat="30.166599" lon="100.545121">
<time>2015-08-06T04:50:26Z</time></trkpt>
<trkpt lat="30.166649" lon="100.545131">
<time>2015-08-06T04:50:27Z</time></trkpt>
<trkpt lat="30.166709" lon="100.545141">
<time>2015-08-06T04:50:28Z</time></trkpt>
<trkpt lat="30.166869" lon="100.545181">
<time>2015-08-06T04:50:29Z</time></trkpt>
<trkpt lat="30.166959" lon="100.545191">
<time>2015-08-06T04:50:30Z</time></trkpt>
<trkpt lat="30.167009" lon="100.545191">
<time>2015-08-06T04:50:31Z</time></trkpt>
<trkpt lat="30.167049" lon="100.545181">
<time>2015-08-06T04:50:32Z</time></trkpt>
<trkpt lat="30.167099" lon="100.545171">
<time>2015-08-06T04:50:33Z</time></trkpt>
<trkpt lat="30.167149" lon="100.545151">
<time>2015-08-06T04:50:34Z</time></trkpt>
<trkpt lat="30.167269" lon="100.545081">
<time>2015-08-06T04:50:35Z</time></trkpt>
<trkpt lat="30.167449" lon="100.544941">
<time>2015-08-06T04:50:36Z</time></trkpt>
<trkpt lat="30.167768" lon="100.54471">
<time>2015-08-06T04:50:37Z</time></trkpt>
<trkpt lat="30.167918" lon="100.54457">
<time>2015-08-06T04:50:38Z</time></trkpt>
<trkpt lat="30.168108" lon="100.544399">
<time>2015-08-06T04:50:39Z</time></trkpt>
<trkpt lat="30.168207" lon="100.544269">
<time>2015-08-06T04:50:40Z</time></trkpt>
<trkpt lat="30.168307" lon="100.544149">
<time>2015-08-06T04:50:41Z</time></trkpt>
<trkpt lat="30.168476" lon="100.543918">
<time>2015-08-06T04:50:42Z</time></trkpt>
<trkpt lat="30.168795" lon="100.543467">
<time>2015-08-06T04:50:43Z</time></trkpt>
<trkpt lat="30.168915" lon="100.543297">
<time>2015-08-06T04:50:44Z</time></trkpt>
<trkpt lat="30.169005" lon="100.543157">
<time>2015-08-06T04:50:45Z</time></trkpt>
<trkpt lat="30.169084" lon="100.542996">
<time>2015-08-06T04:50:46Z</time></trkpt>
<trkpt lat="30.169174" lon="100.542736">
<time>2015-08-06T04:50:47Z</time></trkpt>
<trkpt lat="30.169233" lon="100.542545">
<time>2015-08-06T04:50:48Z</time></trkpt>
<trkpt lat="30.169283" lon="100.542385">
<time>2015-08-06T04:50:49Z</time></trkpt>
<trkpt lat="30.169333" lon="100.542275">
<time>2015-08-06T04:50:50Z</time></trkpt>
<trkpt lat="30.169403" lon="100.542174">
<time>2015-08-06T04:50:51Z</time></trkpt>
<trkpt lat="30.169472" lon="100.542114">
<time>2015-08-06T04:50:52Z</time></trkpt>
<trkpt lat="30.169592" lon="100.542034">
<time>2015-08-06T04:50:53Z</time></trkpt>
<trkpt lat="30.169742" lon="100.541964">
<time>2015-08-06T04:50:54Z</time></trkpt>
<trkpt lat="30.169972" lon="100.541874">
<time>2015-08-06T04:50:55Z</time></trkpt>
<trkpt lat="30.170322" lon="100.541743">
<time>2015-08-06T04:50:56Z</time></trkpt>
<trkpt lat="30.170611" lon="100.541633">
<time>2015-08-06T04:50:57Z</time></trkpt>
<trkpt lat="30.170791" lon="100.541553">
<time>2015-08-06T04:50:58Z</time></trkpt>
<trkpt lat="30.170901" lon="100.541493">
<time>2015-08-06T04:50:59Z</time></trkpt>
<trkpt lat="30.171021" lon="100.541413">
<time>2015-08-06T04:51:00Z</time></trkpt>
<trkpt lat="30.17148" lon="100.541072">
<time>2015-08-06T04:51:01Z</time></trkpt>
<trkpt lat="30.17169" lon="100.540881">
<time>2015-08-06T04:51:02Z</time></trkpt>
<trkpt lat="30.171859" lon="100.540691">
<time>2015-08-06T04:51:03Z</time></trkpt>
<trkpt lat="30.171979" lon="100.540581">
<time>2015-08-06T04:51:04Z</time></trkpt>
<trkpt lat="30.172188" lon="100.54037">
<time>2015-08-06T04:51:05Z</time></trkpt>
<trkpt lat="30.172278" lon="100.54026">
<time>2015-08-06T04:51:06Z</time></trkpt>
<trkpt lat="30.172318" lon="100.54018">
<time>2015-08-06T04:51:07Z</time></trkpt>
<trkpt lat="30.172368" lon="100.5401">
<time>2015-08-06T04:51:08Z</time></trkpt>
<trkpt lat="30.172417" lon="100.539989">
<time>2015-08-06T04:51:09Z</time></trkpt>
<trkpt lat="30.172477" lon="100.539789">
<time>2015-08-06T04:51:10Z</time></trkpt>
<trkpt lat="30.172517" lon="100.539638">
<time>2015-08-06T04:51:11Z</time></trkpt>
<trkpt lat="30.172526" lon="100.539528">
<time>2015-08-06T04:51:12Z</time></trkpt>
<trkpt lat="30.172546" lon="100.539328">
<time>2015-08-06T04:51:13Z</time></trkpt>
<trkpt lat="30.172534" lon="100.538686">
<time>2015-08-06T04:51:14Z</time></trkpt>
<trkpt lat="30.172514" lon="100.538466">
<time>2015-08-06T04:51:15Z</time></trkpt>
<trkpt lat="30.172474" lon="100.538325">
<time>2015-08-06T04:51:16Z</time></trkpt>
<trkpt lat="30.172423" lon="100.538205">
<time>2015-08-06T04:51:17Z</time></trkpt>
<trkpt lat="30.172363" lon="100.538095">
<time>2015-08-06T04:51:18Z</time></trkpt>
<trkpt lat="30.172283" lon="100.538005">
<time>2015-08-06T04:51:19Z</time></trkpt>
<trkpt lat="30.172213" lon="100.537954">
<time>2015-08-06T04:51:20Z</time></trkpt>
<trkpt lat="30.172102" lon="100.537874">
<time>2015-08-06T04:51:21Z</time></trkpt>
<trkpt lat="30.172002" lon="100.537804">
<time>2015-08-06T04:51:22Z</time></trkpt>
<trkpt lat="30.171772" lon="100.537674">
<time>2015-08-06T04:51:23Z</time></trkpt>
<trkpt lat="30.171401" lon="100.537433">
<time>2015-08-06T04:51:24Z</time></trkpt>
<trkpt lat="30.171151" lon="100.537243">
<time>2015-08-06T04:51:25Z</time></trkpt>
<trkpt lat="30.17096" lon="100.537032">
<time>2015-08-06T04:51:26Z</time></trkpt>
<trkpt lat="30.17084" lon="100.536882">
<time>2015-08-06T04:51:27Z</time></trkpt>
<trkpt lat="30.17076" lon="100.536731">
<time>2015-08-06T04:51:28Z</time></trkpt>
<trkpt lat="30.170629" lon="100.536441">
<time>2015-08-06T04:51:29Z</time></trkpt>
<trkpt lat="30.170589" lon="100.53634">
<time>2015-08-06T04:51:30Z</time></trkpt>
<trkpt lat="30.170529" lon="100.53624">
<time>2015-08-06T04:51:31Z</time></trkpt>
<trkpt lat="30.170478" lon="100.53616">
<time>2015-08-06T04:51:32Z</time></trkpt>
<trkpt lat="30.170388" lon="100.53608">
<time>2015-08-06T04:51:33Z</time></trkpt>
<trkpt lat="30.170298" lon="100.53602">
<time>2015-08-06T04:51:34Z</time></trkpt>
<trkpt lat="30.170168" lon="100.53596">
<time>2015-08-06T04:51:35Z</time></trkpt>
<trkpt lat="30.169177" lon="100.535609">
<time>2015-08-06T04:51:36Z</time></trkpt>
<trkpt lat="30.168617" lon="100.535418">
<time>2015-08-06T04:51:37Z</time></trkpt>
<trkpt lat="30.168476" lon="100.535378">
<time>2015-08-06T04:51:38Z</time></trkpt>
<trkpt lat="30.168336" lon="100.535358">
<time>2015-08-06T04:51:39Z</time></trkpt>
<trkpt lat="30.168196" lon="100.535338">
<time>2015-08-06T04:51:40Z</time></trkpt>
<trkpt lat="30.167056" lon="100.535208">
<time>2015-08-06T04:51:41Z</time></trkpt>
<trkpt lat="30.166706" lon="100.535138">
<time>2015-08-06T04:51:42Z</time></trkpt>
<trkpt lat="30.166686" lon="100.535128">
<time>2015-08-06T04:51:43Z</time></trkpt>
<trkpt lat="30.166576" lon="100.535107">
<time>2015-08-06T04:51:44Z</time></trkpt>
<trkpt lat="30.166546" lon="100.535097">
<time>2015-08-06T04:51:45Z</time></trkpt>
<trkpt lat="30.166526" lon="100.535087">
<time>2015-08-06T04:51:46Z</time></trkpt>
<trkpt lat="30.166496" lon="100.535077">
<time>2015-08-06T04:51:47Z</time></trkpt>
<trkpt lat="30.166456" lon="100.535067">
<time>2015-08-06T04:51:48Z</time></trkpt>
<trkpt lat="30.166436" lon="100.535057">
<time>2015-08-06T04:51:49Z</time></trkpt>
<trkpt lat="30.166376" lon="100.535027">
<time>2015-08-06T04:51:50Z</time></trkpt>
<trkpt lat="30.166306" lon="100.534977">
<time>2015-08-06T04:51:51Z</time></trkpt>
<trkpt lat="30.166255" lon="100.534947">
<time>2015-08-06T04:51:52Z</time></trkpt>
<trkpt lat="30.166235" lon="100.534917">
<time>2015-08-06T04:51:53Z</time></trkpt>
<trkpt lat="30.166185" lon="100.534877">
<time>2015-08-06T04:51:54Z</time></trkpt>
<trkpt lat="30.166065" lon="100.534757">
<time>2015-08-06T04:51:55Z</time></trkpt>
<trkpt lat="30.165935" lon="100.534606">
<time>2015-08-06T04:51:56Z</time></trkpt>
<trkpt lat="30.165844" lon="100.534496">
<time>2015-08-06T04:51:57Z</time></trkpt>
<trkpt lat="30.165774" lon="100.534416">
<time>2015-08-06T04:51:58Z</time></trkpt>
<trkpt lat="30.165694" lon="100.534336">
<time>2015-08-06T04:51:59Z</time></trkpt>
<trkpt lat="30.165664" lon="100.534285">
<time>2015-08-06T04:52:00Z</time></trkpt>
<trkpt lat="30.165624" lon="100.534225">
<time>2015-08-06T04:52:01Z</time></trkpt>
<trkpt lat="30.165553" lon="100.534135">
<time>2015-08-06T04:52:02Z</time></trkpt>
<trkpt lat="30.165503" lon="100.534045">
<time>2015-08-06T04:52:03Z</time></trkpt>
<trkpt lat="30.165403" lon="100.533884">
<time>2015-08-06T04:52:04Z</time></trkpt>
<trkpt lat="30.165322" lon="100.533744">
<time>2015-08-06T04:52:05Z</time></trkpt>
<trkpt lat="30.165282" lon="100.533654">
<time>2015-08-06T04:52:06Z</time></trkpt>
<trkpt lat="30.165242" lon="100.533584">
<time>2015-08-06T04:52:07Z</time></trkpt>
<trkpt lat="30.165212" lon="100.533503">
<time>2015-08-06T04:52:08Z</time></trkpt>
<trkpt lat="30.165182" lon="100.533413">
<time>2015-08-06T04:52:09Z</time></trkpt>
<trkpt lat="30.165151" lon="100.533333">
<time>2015-08-06T04:52:10Z</time></trkpt>
<trkpt lat="30.165141" lon="100.533263">
<time>2015-08-06T04:52:11Z</time></trkpt>
<trkpt lat="30.165141" lon="100.533213">
<time>2015-08-06T04:52:12Z</time></trkpt>
<trkpt lat="30.165141" lon="100.533153">
<time>2015-08-06T04:52:13Z</time></trkpt>
<trkpt lat="30.165141" lon="100.533062">
<time>2015-08-06T04:52:14Z</time></trkpt>
<trkpt lat="30.165141" lon="100.533052">
<time>2015-08-06T04:52:15Z</time></trkpt>
<trkpt lat="30.165151" lon="100.533002">
<time>2015-08-06T04:52:16Z</time></trkpt>
<trkpt lat="30.16517" lon="100.532902">
<time>2015-08-06T04:52:17Z</time></trkpt>
<trkpt lat="30.16521" lon="100.532782">
<time>2015-08-06T04:52:18Z</time></trkpt>
<trkpt lat="30.16525" lon="100.532691">
<time>2015-08-06T04:52:19Z</time></trkpt>
<trkpt lat="30.165329" lon="100.532501">
<time>2015-08-06T04:52:20Z</time></trkpt>
<trkpt lat="30.165379" lon="100.53234">
<time>2015-08-06T04:52:21Z</time></trkpt>
<trkpt lat="30.165419" lon="100.53219">
<time>2015-08-06T04:52:22Z</time></trkpt>
<trkpt lat="30.165438" lon="100.53212">
<time>2015-08-06T04:52:23Z</time></trkpt>
<trkpt lat="30.165448" lon="100.53205">
<time>2015-08-06T04:52:24Z</time></trkpt>
<trkpt lat="30.165458" lon="100.531949">
<time>2015-08-06T04:52:25Z</time></trkpt>
<trkpt lat="30.165468" lon="100.531849">
<time>2015-08-06T04:52:26Z</time></trkpt>
<trkpt lat="30.165487" lon="100.531629">
<time>2015-08-06T04:52:27Z</time></trkpt>
<trkpt lat="30.165497" lon="100.531528">
<time>2015-08-06T04:52:28Z</time></trkpt>
<trkpt lat="30.165496" lon="100.531368">
<time>2015-08-06T04:52:29Z</time></trkpt>
<trkpt lat="30.165496" lon="100.531318">
<time>2015-08-06T04:52:30Z</time></trkpt>
<trkpt lat="30.165486" lon="100.531237">
<time>2015-08-06T04:52:31Z</time></trkpt>
<trkpt lat="30.165486" lon="100.531187">
<time>2015-08-06T04:52:32Z</time></trkpt>
<trkpt lat="30.165476" lon="100.531147">
<time>2015-08-06T04:52:33Z</time></trkpt>
<trkpt lat="30.165466" lon="100.531107">
<time>2015-08-06T04:52:34Z</time></trkpt>
<trkpt lat="30.165456" lon="100.531077">
<time>2015-08-06T04:52:35Z</time></trkpt>
<trkpt lat="30.165446" lon="100.531037">
<time>2015-08-06T04:52:36Z</time></trkpt>
<trkpt lat="30.165415" lon="100.530977">
<time>2015-08-06T04:52:37Z</time></trkpt>
<trkpt lat="30.165395" lon="100.530947">
<time>2015-08-06T04:52:38Z</time></trkpt>
<trkpt lat="30.165355" lon="100.530877">
<time>2015-08-06T04:52:39Z</time></trkpt>
<trkpt lat="30.165295" lon="100.530816">
<time>2015-08-06T04:52:40Z</time></trkpt>
<trkpt lat="30.165155" lon="100.530686">
<time>2015-08-06T04:52:41Z</time></trkpt>
<trkpt lat="30.165074" lon="100.530606">
<time>2015-08-06T04:52:42Z</time></trkpt>
<trkpt lat="30.164994" lon="100.530526">
<time>2015-08-06T04:52:43Z</time></trkpt>
<trkpt lat="30.164774" lon="100.530345">
<time>2015-08-06T04:52:44Z</time></trkpt>
<trkpt lat="30.164613" lon="100.530185">
<time>2015-08-06T04:52:45Z</time></trkpt>
<trkpt lat="30.164463" lon="100.530064">
<time>2015-08-06T04:52:46Z</time></trkpt>
<trkpt lat="30.164333" lon="100.529954">
<time>2015-08-06T04:52:47Z</time></trkpt>
<trkpt lat="30.164223" lon="100.529864">
<time>2015-08-06T04:52:48Z</time></trkpt>
<trkpt lat="30.164082" lon="100.529784">
<time>2015-08-06T04:52:49Z</time></trkpt>
<trkpt lat="30.163862" lon="100.529673">
<time>2015-08-06T04:52:50Z</time></trkpt>
<trkpt lat="30.163732" lon="100.529623">
<time>2015-08-06T04:52:51Z</time></trkpt>
<trkpt lat="30.163642" lon="100.529593">
<time>2015-08-06T04:52:52Z</time></trkpt>
<trkpt lat="30.163552" lon="100.529563">
<time>2015-08-06T04:52:53Z</time></trkpt>
<trkpt lat="30.163462" lon="100.529543">
<time>2015-08-06T04:52:54Z</time></trkpt>
<trkpt lat="30.163382" lon="100.529533">
<time>2015-08-06T04:52:55Z</time></trkpt>
<trkpt lat="30.163242" lon="100.529523">
<time>2015-08-06T04:52:56Z</time></trkpt>
<trkpt lat="30.162962" lon="100.529563">
<time>2015-08-06T04:52:57Z</time></trkpt>
<trkpt lat="30.162582" lon="100.529633">
<time>2015-08-06T04:52:58Z</time></trkpt>
<trkpt lat="30.162122" lon="100.529724">
<time>2015-08-06T04:52:59Z</time></trkpt>
<trkpt lat="30.161652" lon="100.529794">
<time>2015-08-06T04:53:00Z</time></trkpt>
<trkpt lat="30.161512" lon="100.529814">
<time>2015-08-06T04:53:01Z</time></trkpt>
<trkpt lat="30.161313" lon="100.529844">
<time>2015-08-06T04:53:02Z</time></trkpt>
<trkpt lat="30.161183" lon="100.529844">
<time>2015-08-06T04:53:03Z</time></trkpt>
<trkpt lat="30.161012" lon="100.529834">
<time>2015-08-06T04:53:04Z</time></trkpt>
<trkpt lat="30.160862" lon="100.529814">
<time>2015-08-06T04:53:05Z</time></trkpt>
<trkpt lat="30.160722" lon="100.529764">
<time>2015-08-06T04:53:06Z</time></trkpt>
<trkpt lat="30.160572" lon="100.529704">
<time>2015-08-06T04:53:07Z</time></trkpt>
<trkpt lat="30.160422" lon="100.529603">
<time>2015-08-06T04:53:08Z</time></trkpt>
<trkpt lat="30.160272" lon="100.529483">
<time>2015-08-06T04:53:09Z</time></trkpt>
<trkpt lat="30.159891" lon="100.529182">
<time>2015-08-06T04:53:10Z</time></trkpt>
<trkpt lat="30.159741" lon="100.529072">
<time>2015-08-06T04:53:11Z</time></trkpt>
<trkpt lat="30.15956" lon="100.528972">
<time>2015-08-06T04:53:12Z</time></trkpt>
<trkpt lat="30.15938" lon="100.528911">
<time>2015-08-06T04:53:13Z</time></trkpt>
<trkpt lat="30.15927" lon="100.528871">
<time>2015-08-06T04:53:14Z</time></trkpt>
<trkpt lat="30.15912" lon="100.528841">
<time>2015-08-06T04:53:15Z</time></trkpt>
<trkpt lat="30.15905" lon="100.528831">
<time>2015-08-06T04:53:16Z</time></trkpt>
<trkpt lat="30.15898" lon="100.528831">
<time>2015-08-06T04:53:17Z</time></trkpt>
<trkpt lat="30.15879" lon="100.528851">
<time>2015-08-06T04:53:18Z</time></trkpt>
<trkpt lat="30.15743" lon="100.529002">
<time>2015-08-06T04:53:19Z</time></trkpt>
<trkpt lat="30.15728" lon="100.529002">
<time>2015-08-06T04:53:20Z</time></trkpt>
<trkpt lat="30.15722" lon="100.529002">
<time>2015-08-06T04:53:21Z</time></trkpt>
<trkpt lat="30.15717" lon="100.528982">
<time>2015-08-06T04:53:22Z</time></trkpt>
<trkpt lat="30.15709" lon="100.528952">
<time>2015-08-06T04:53:23Z</time></trkpt>
<trkpt lat="30.157" lon="100.528901">
<time>2015-08-06T04:53:24Z</time></trkpt>
<trkpt lat="30.156619" lon="100.528591">
<time>2015-08-06T04:53:25Z</time></trkpt>
<trkpt lat="30.156419" lon="100.52842">
<time>2015-08-06T04:53:26Z</time></trkpt>
<trkpt lat="30.156279" lon="100.52833">
<time>2015-08-06T04:53:27Z</time></trkpt>
<trkpt lat="30.156219" lon="100.5283">
<time>2015-08-06T04:53:28Z</time></trkpt>
<trkpt lat="30.155998" lon="100.52821">
<time>2015-08-06T04:53:29Z</time></trkpt>
<trkpt lat="30.155868" lon="100.528149">
<time>2015-08-06T04:53:30Z</time></trkpt>
<trkpt lat="30.155778" lon="100.528109">
<time>2015-08-06T04:53:31Z</time></trkpt>
<trkpt lat="30.155718" lon="100.528079">
<time>2015-08-06T04:53:32Z</time></trkpt>
<trkpt lat="30.155638" lon="100.528029">
<time>2015-08-06T04:53:33Z</time></trkpt>
<trkpt lat="30.155528" lon="100.527959">
<time>2015-08-06T04:53:34Z</time></trkpt>
<trkpt lat="30.155417" lon="100.527879">
<time>2015-08-06T04:53:35Z</time></trkpt>
<trkpt lat="30.155347" lon="100.527819">
<time>2015-08-06T04:53:36Z</time></trkpt>
<trkpt lat="30.155257" lon="100.527738">
<time>2015-08-06T04:53:37Z</time></trkpt>
<trkpt lat="30.155107" lon="100.527598">
<time>2015-08-06T04:53:38Z</time></trkpt>
<trkpt lat="30.155016" lon="100.527508">
<time>2015-08-06T04:53:39Z</time></trkpt>
<trkpt lat="30.154936" lon="100.527437">
<time>2015-08-06T04:53:40Z</time></trkpt>
<trkpt lat="30.154746" lon="100.527297">
<time>2015-08-06T04:53:41Z</time></trkpt>
<trkpt lat="30.154596" lon="100.527207">
<time>2015-08-06T04:53:42Z</time></trkpt>
<trkpt lat="30.154315" lon="100.527036">
<time>2015-08-06T04:53:43Z</time></trkpt>
<trkpt lat="30.154215" lon="100.526986">
<time>2015-08-06T04:53:44Z</time></trkpt>
<trkpt lat="30.153815" lon="100.526826">
<time>2015-08-06T04:53:45Z</time></trkpt>
<trkpt lat="30.153594" lon="100.526766">
<time>2015-08-06T04:53:46Z</time></trkpt>
<trkpt lat="30.152844" lon="100.526555">
<time>2015-08-06T04:53:47Z</time></trkpt>
<trkpt lat="30.152083" lon="100.526324">
<time>2015-08-06T04:53:48Z</time></trkpt>
<trkpt lat="30.151783" lon="100.526234">
<time>2015-08-06T04:53:49Z</time></trkpt>
<trkpt lat="30.151483" lon="100.526164">
<time>2015-08-06T04:53:50Z</time></trkpt>
<trkpt lat="30.151273" lon="100.526144">
<time>2015-08-06T04:53:51Z</time></trkpt>
<trkpt lat="30.150663" lon="100.526104">
<time>2015-08-06T04:53:52Z</time></trkpt>
<trkpt lat="30.150373" lon="100.526084">
<time>2015-08-06T04:53:53Z</time></trkpt>
<trkpt lat="30.150163" lon="100.526054">
<time>2015-08-06T04:53:54Z</time></trkpt>
<trkpt lat="30.149842" lon="100.525984">
<time>2015-08-06T04:53:55Z</time></trkpt>
<trkpt lat="30.149502" lon="100.525903">
<time>2015-08-06T04:53:56Z</time></trkpt>
<trkpt lat="30.149182" lon="100.525783">
<time>2015-08-06T04:53:57Z</time></trkpt>
<trkpt lat="30.148501" lon="100.525532">
<time>2015-08-06T04:53:58Z</time></trkpt>
<trkpt lat="30.148181" lon="100.525422">
<time>2015-08-06T04:53:59Z</time></trkpt>
<trkpt lat="30.147991" lon="100.525372">
<time>2015-08-06T04:54:00Z</time></trkpt>
<trkpt lat="30.14672" lon="100.525091">
<time>2015-08-06T04:54:01Z</time></trkpt>
<trkpt lat="30.144919" lon="100.52471">
<time>2015-08-06T04:54:02Z</time></trkpt>
<trkpt lat="30.143648" lon="100.524429">
<time>2015-08-06T04:54:03Z</time></trkpt>
<trkpt lat="30.143018" lon="100.524309">
<time>2015-08-06T04:54:04Z</time></trkpt>
<trkpt lat="30.142638" lon="100.524219">
<time>2015-08-06T04:54:05Z</time></trkpt>
<trkpt lat="30.142207" lon="100.524119">
<time>2015-08-06T04:54:06Z</time></trkpt>
<trkpt lat="30.141677" lon="100.524008">
<time>2015-08-06T04:54:07Z</time></trkpt>
<trkpt lat="30.141557" lon="100.523988">
<time>2015-08-06T04:54:08Z</time></trkpt>
<trkpt lat="30.141317" lon="100.523948">
<time>2015-08-06T04:54:09Z</time></trkpt>
<trkpt lat="30.140967" lon="100.523948">
<time>2015-08-06T04:54:10Z</time></trkpt>
<trkpt lat="30.140477" lon="100.523978">
<time>2015-08-06T04:54:11Z</time></trkpt>
<trkpt lat="30.140017" lon="100.524048">
<time>2015-08-06T04:54:12Z</time></trkpt>
<trkpt lat="30.137778" lon="100.524389">
<time>2015-08-06T04:54:13Z</time></trkpt>
<trkpt lat="30.136489" lon="100.52459">
<time>2015-08-06T04:54:14Z</time></trkpt>
<trkpt lat="30.135269" lon="100.524761">
<time>2015-08-06T04:54:15Z</time></trkpt>
<trkpt lat="30.134449" lon="100.524841">
<time>2015-08-06T04:54:16Z</time></trkpt>
<trkpt lat="30.133879" lon="100.524851">
<time>2015-08-06T04:54:17Z</time></trkpt>
<trkpt lat="30.133419" lon="100.524841">
<time>2015-08-06T04:54:18Z</time></trkpt>
<trkpt lat="30.132949" lon="100.524801">
<time>2015-08-06T04:54:19Z</time></trkpt>
<trkpt lat="30.132229" lon="100.524781">
<time>2015-08-06T04:54:20Z</time></trkpt>
<trkpt lat="30.131619" lon="100.524731">
<time>2015-08-06T04:54:21Z</time></trkpt>
<trkpt lat="30.131279" lon="100.524701">
<time>2015-08-06T04:54:22Z</time></trkpt>
<trkpt lat="30.131199" lon="100.52469">
<time>2015-08-06T04:54:23Z</time></trkpt>
<trkpt lat="30.131039" lon="100.52466">
<time>2015-08-06T04:54:24Z</time></trkpt>
<trkpt lat="30.130779" lon="100.5246">
<time>2015-08-06T04:54:25Z</time></trkpt>
<trkpt lat="30.130258" lon="100.52447">
<time>2015-08-06T04:54:26Z</time></trkpt>
<trkpt lat="30.129688" lon="100.524309">
<time>2015-08-06T04:54:27Z</time></trkpt>
<trkpt lat="30.128897" lon="100.524089">
<time>2015-08-06T04:54:28Z</time></trkpt>
<trkpt lat="30.128387" lon="100.523979">
<time>2015-08-06T04:54:29Z</time></trkpt>
<trkpt lat="30.127567" lon="100.523858">
<time>2015-08-06T04:54:30Z</time></trkpt>
<trkpt lat="30.126606" lon="100.523668">
<time>2015-08-06T04:54:31Z</time></trkpt>
<trkpt lat="30.125426" lon="100.523467">
<time>2015-08-06T04:54:32Z</time></trkpt>
<trkpt lat="30.125236" lon="100.523447">
<time>2015-08-06T04:54:33Z</time></trkpt>
<trkpt lat="30.125076" lon="100.523437">
<time>2015-08-06T04:54:34Z</time></trkpt>
<trkpt lat="30.124846" lon="100.523437">
<time>2015-08-06T04:54:35Z</time></trkpt>
<trkpt lat="30.124606" lon="100.523457">
<time>2015-08-06T04:54:36Z</time></trkpt>
<trkpt lat="30.123176" lon="100.523588">
<time>2015-08-06T04:54:37Z</time></trkpt>
<trkpt lat="30.121576" lon="100.523718">
<time>2015-08-06T04:54:38Z</time></trkpt>
<trkpt lat="30.121376" lon="100.523728">
<time>2015-08-06T04:54:39Z</time></trkpt>
<trkpt lat="30.121236" lon="100.523718">
<time>2015-08-06T04:54:40Z</time></trkpt>
<trkpt lat="30.121126" lon="100.523698">
<time>2015-08-06T04:54:41Z</time></trkpt>
<trkpt lat="30.120976" lon="100.523658">
<time>2015-08-06T04:54:42Z</time></trkpt>
<trkpt lat="30.120916" lon="100.523638">
<time>2015-08-06T04:54:43Z</time></trkpt>
<trkpt lat="30.120696" lon="100.523527">
<time>2015-08-06T04:54:44Z</time></trkpt>
<trkpt lat="30.119985" lon="100.523166">
<time>2015-08-06T04:54:45Z</time></trkpt>
<trkpt lat="30.119174" lon="100.522755">
<time>2015-08-06T04:54:46Z</time></trkpt>
<trkpt lat="30.119104" lon="100.522715">
<time>2015-08-06T04:54:47Z</time></trkpt>
<trkpt lat="30.119023" lon="100.522665">
<time>2015-08-06T04:54:48Z</time></trkpt>
<trkpt lat="30.118943" lon="100.522615">
<time>2015-08-06T04:54:49Z</time></trkpt>
<trkpt lat="30.118833" lon="100.522505">
<time>2015-08-06T04:54:50Z</time></trkpt>
<trkpt lat="30.118753" lon="100.522404">
<time>2015-08-06T04:54:51Z</time></trkpt>
<trkpt lat="30.118692" lon="100.522324">
<time>2015-08-06T04:54:52Z</time></trkpt>
<trkpt lat="30.118622" lon="100.522234">
<time>2015-08-06T04:54:53Z</time></trkpt>
<trkpt lat="30.118562" lon="100.522164">
<time>2015-08-06T04:54:54Z</time></trkpt>
<trkpt lat="30.118502" lon="100.522103">
<time>2015-08-06T04:54:55Z</time></trkpt>
<trkpt lat="30.118442" lon="100.522063">
<time>2015-08-06T04:54:56Z</time></trkpt>
<trkpt lat="30.118352" lon="100.522013">
<time>2015-08-06T04:54:57Z</time></trkpt>
<trkpt lat="30.118272" lon="100.521973">
<time>2015-08-06T04:54:58Z</time></trkpt>
<trkpt lat="30.117981" lon="100.521863">
<time>2015-08-06T04:54:59Z</time></trkpt>
<trkpt lat="30.117621" lon="100.521762">
<time>2015-08-06T04:55:00Z</time></trkpt>
<trkpt lat="30.117261" lon="100.521692">
<time>2015-08-06T04:55:01Z</time></trkpt>
<trkpt lat="30.117041" lon="100.521642">
<time>2015-08-06T04:55:02Z</time></trkpt>
<trkpt lat="30.116981" lon="100.521622">
<time>2015-08-06T04:55:03Z</time></trkpt>
<trkpt lat="30.11682" lon="100.521562">
<time>2015-08-06T04:55:04Z</time></trkpt>
<trkpt lat="30.11669" lon="100.521492">
<time>2015-08-06T04:55:05Z</time></trkpt>
<trkpt lat="30.11668" lon="100.521492">
<time>2015-08-06T04:55:06Z</time></trkpt>
<trkpt lat="30.11659" lon="100.521432">
<time>2015-08-06T04:55:07Z</time></trkpt>
<trkpt lat="30.11649" lon="100.521361">
<time>2015-08-06T04:55:08Z</time></trkpt>
<trkpt lat="30.11642" lon="100.521301">
<time>2015-08-06T04:55:09Z</time></trkpt>
<trkpt lat="30.116359" lon="100.521241">
<time>2015-08-06T04:55:10Z</time></trkpt>
<trkpt lat="30.116319" lon="100.521181">
<time>2015-08-06T04:55:11Z</time></trkpt>
<trkpt lat="30.116269" lon="100.521101">
<time>2015-08-06T04:55:12Z</time></trkpt>
<trkpt lat="30.116239" lon="100.52104">
<time>2015-08-06T04:55:13Z</time></trkpt>
<trkpt lat="30.116209" lon="100.52097">
<time>2015-08-06T04:55:14Z</time></trkpt>
<trkpt lat="30.116168" lon="100.52086">
<time>2015-08-06T04:55:15Z</time></trkpt>
<trkpt lat="30.116118" lon="100.520679">
<time>2015-08-06T04:55:16Z</time></trkpt>
<trkpt lat="30.116077" lon="100.520529">
<time>2015-08-06T04:55:17Z</time></trkpt>
<trkpt lat="30.115997" lon="100.520258">
<time>2015-08-06T04:55:18Z</time></trkpt>
<trkpt lat="30.115926" lon="100.520017">
<time>2015-08-06T04:55:19Z</time></trkpt>
<trkpt lat="30.115876" lon="100.519837">
<time>2015-08-06T04:55:20Z</time></trkpt>
<trkpt lat="30.115835" lon="100.519686">
<time>2015-08-06T04:55:21Z</time></trkpt>
<trkpt lat="30.115774" lon="100.519466">
<time>2015-08-06T04:55:22Z</time></trkpt>
<trkpt lat="30.115724" lon="100.519305">
<time>2015-08-06T04:55:23Z</time></trkpt>
<trkpt lat="30.115694" lon="100.519175">
<time>2015-08-06T04:55:24Z</time></trkpt>
<trkpt lat="30.115633" lon="100.518974">
<time>2015-08-06T04:55:25Z</time></trkpt>
<trkpt lat="30.115603" lon="100.518854">
<time>2015-08-06T04:55:26Z</time></trkpt>
<trkpt lat="30.115572" lon="100.518744">
<time>2015-08-06T04:55:27Z</time></trkpt>
<trkpt lat="30.115532" lon="100.518653">
<time>2015-08-06T04:55:28Z</time></trkpt>
<trkpt lat="30.115522" lon="100.518623">
<time>2015-08-06T04:55:29Z</time></trkpt>
<trkpt lat="30.115472" lon="100.518513">
<time>2015-08-06T04:55:30Z</time></trkpt>
<trkpt lat="30.115371" lon="100.518302">
<time>2015-08-06T04:55:31Z</time></trkpt>
<trkpt lat="30.115311" lon="100.518182">
<time>2015-08-06T04:55:32Z</time></trkpt>
<trkpt lat="30.11523" lon="100.518022">
<time>2015-08-06T04:55:33Z</time></trkpt>
<trkpt lat="30.11519" lon="100.517921">
<time>2015-08-06T04:55:34Z</time></trkpt>
<trkpt lat="30.11513" lon="100.517811">
<time>2015-08-06T04:55:35Z</time></trkpt>
<trkpt lat="30.115079" lon="100.517701">
<time>2015-08-06T04:55:36Z</time></trkpt>
<trkpt lat="30.115049" lon="100.51765">
<time>2015-08-06T04:55:37Z</time></trkpt>
<trkpt lat="30.115009" lon="100.51757">
<time>2015-08-06T04:55:38Z</time></trkpt>
<trkpt lat="30.114989" lon="100.51751">
<time>2015-08-06T04:55:39Z</time></trkpt>
<trkpt lat="30.114929" lon="100.5174">
<time>2015-08-06T04:55:40Z</time></trkpt>
<trkpt lat="30.114888" lon="100.517309">
<time>2015-08-06T04:55:41Z</time></trkpt>
<trkpt lat="30.114848" lon="100.517229">
<time>2015-08-06T04:55:42Z</time></trkpt>
<trkpt lat="30.114788" lon="100.517099">
<time>2015-08-06T04:55:43Z</time></trkpt>
<trkpt lat="30.114697" lon="100.516908">
<time>2015-08-06T04:55:44Z</time></trkpt>
<trkpt lat="30.114607" lon="100.516728">
<time>2015-08-06T04:55:45Z</time></trkpt>
<trkpt lat="30.114516" lon="100.516547">
<time>2015-08-06T04:55:46Z</time></trkpt>
<trkpt lat="30.114436" lon="100.516367">
<time>2015-08-06T04:55:47Z</time></trkpt>
<trkpt lat="30.114345" lon="100.516186">
<time>2015-08-06T04:55:48Z</time></trkpt>
<trkpt lat="30.114265" lon="100.516016">
<time>2015-08-06T04:55:49Z</time></trkpt>
<trkpt lat="30.114194" lon="100.515875">
<time>2015-08-06T04:55:50Z</time></trkpt>
<trkpt lat="30.114154" lon="100.515795">
<time>2015-08-06T04:55:51Z</time></trkpt>
<trkpt lat="30.114094" lon="100.515654">
<time>2015-08-06T04:55:52Z</time></trkpt>
<trkpt lat="30.113993" lon="100.515474">
<time>2015-08-06T04:55:53Z</time></trkpt>
<trkpt lat="30.113923" lon="100.515333">
<time>2015-08-06T04:55:54Z</time></trkpt>
<trkpt lat="30.113862" lon="100.515213">
<time>2015-08-06T04:55:55Z</time></trkpt>
<trkpt lat="30.113802" lon="100.515093">
<time>2015-08-06T04:55:56Z</time></trkpt>
<trkpt lat="30.113782" lon="100.515043">
<time>2015-08-06T04:55:57Z</time></trkpt>
<trkpt lat="30.113711" lon="100.514892">
<time>2015-08-06T04:55:58Z</time></trkpt>
<trkpt lat="30.113671" lon="100.514822">
<time>2015-08-06T04:55:59Z</time></trkpt>
<trkpt lat="30.113621" lon="100.514712">
<time>2015-08-06T04:56:00Z</time></trkpt>
<trkpt lat="30.113561" lon="100.514581">
<time>2015-08-06T04:56:01Z</time></trkpt>
<trkpt lat="30.11353" lon="100.514531">
<time>2015-08-06T04:56:02Z</time></trkpt>
<trkpt lat="30.11348" lon="100.514421">
<time>2015-08-06T04:56:03Z</time></trkpt>
<trkpt lat="30.11343" lon="100.51433">
<time>2015-08-06T04:56:04Z</time></trkpt>
<trkpt lat="30.113369" lon="100.5142">
<time>2015-08-06T04:56:05Z</time></trkpt>
<trkpt lat="30.113289" lon="100.51403">
<time>2015-08-06T04:56:06Z</time></trkpt>
<trkpt lat="30.113208" lon="100.513869">
<time>2015-08-06T04:56:07Z</time></trkpt>
<trkpt lat="30.113148" lon="100.513749">
<time>2015-08-06T04:56:08Z</time></trkpt>
<trkpt lat="30.113098" lon="100.513638">
<time>2015-08-06T04:56:09Z</time></trkpt>
<trkpt lat="30.113047" lon="100.513538">
<time>2015-08-06T04:56:10Z</time></trkpt>
<trkpt lat="30.112987" lon="100.513428">
<time>2015-08-06T04:56:11Z</time></trkpt>
<trkpt lat="30.112937" lon="100.513347">
<time>2015-08-06T04:56:12Z</time></trkpt>
<trkpt lat="30.112897" lon="100.513287">
<time>2015-08-06T04:56:13Z</time></trkpt>
<trkpt lat="30.112826" lon="100.513187">
<time>2015-08-06T04:56:14Z</time></trkpt>
<trkpt lat="30.112796" lon="100.513147">
<time>2015-08-06T04:56:15Z</time></trkpt>
<trkpt lat="30.112756" lon="100.513107">
<time>2015-08-06T04:56:16Z</time></trkpt>
<trkpt lat="30.112726" lon="100.513077">
<time>2015-08-06T04:56:17Z</time></trkpt>
<trkpt lat="30.112636" lon="100.512986">
<time>2015-08-06T04:56:18Z</time></trkpt>
<trkpt lat="30.112505" lon="100.512856">
<time>2015-08-06T04:56:19Z</time></trkpt>
<trkpt lat="30.112305" lon="100.512665">
<time>2015-08-06T04:56:20Z</time></trkpt>
<trkpt lat="30.112175" lon="100.512535">
<time>2015-08-06T04:56:21Z</time></trkpt>
<trkpt lat="30.112064" lon="100.512405">
<time>2015-08-06T04:56:22Z</time></trkpt>
<trkpt lat="30.111974" lon="100.512294">
<time>2015-08-06T04:56:23Z</time></trkpt>
<trkpt lat="30.111863" lon="100.512164">
<time>2015-08-06T04:56:24Z</time></trkpt>
<trkpt lat="30.111763" lon="100.512044">
<time>2015-08-06T04:56:25Z</time></trkpt>
<trkpt lat="30.111663" lon="100.511923">
<time>2015-08-06T04:56:26Z</time></trkpt>
<trkpt lat="30.111512" lon="100.511763">
<time>2015-08-06T04:56:27Z</time></trkpt>
<trkpt lat="30.111412" lon="100.511642">
<time>2015-08-06T04:56:28Z</time></trkpt>
<trkpt lat="30.111271" lon="100.511472">
<time>2015-08-06T04:56:29Z</time></trkpt>
<trkpt lat="30.111161" lon="100.511351">
<time>2015-08-06T04:56:30Z</time></trkpt>
<trkpt lat="30.111051" lon="100.511231">
<time>2015-08-06T04:56:31Z</time></trkpt>
<trkpt lat="30.11097" lon="100.511131">
<time>2015-08-06T04:56:32Z</time></trkpt>
<trkpt lat="30.11087" lon="100.51102">
<time>2015-08-06T04:56:33Z</time></trkpt>
<trkpt lat="30.11082" lon="100.51096">
<time>2015-08-06T04:56:34Z</time></trkpt>
<trkpt lat="30.11081" lon="100.51094">
<time>2015-08-06T04:56:35Z</time></trkpt>
<trkpt lat="30.11077" lon="100.51089">
<time>2015-08-06T04:56:36Z</time></trkpt>
<trkpt lat="30.11073" lon="100.51085">
<time>2015-08-06T04:56:37Z</time></trkpt>
<trkpt lat="30.110699" lon="100.51081">
<time>2015-08-06T04:56:38Z</time></trkpt>
<trkpt lat="30.110629" lon="100.51074">
<time>2015-08-06T04:56:39Z</time></trkpt>
<trkpt lat="30.110599" lon="100.510709">
<time>2015-08-06T04:56:40Z</time></trkpt>
<trkpt lat="30.110579" lon="100.510679">
<time>2015-08-06T04:56:41Z</time></trkpt>
<trkpt lat="30.110539" lon="100.510649">
<time>2015-08-06T04:56:42Z</time></trkpt>
<trkpt lat="30.110449" lon="100.510539">
<time>2015-08-06T04:56:43Z</time></trkpt>
<trkpt lat="30.110338" lon="100.510409">
<time>2015-08-06T04:56:44Z</time></trkpt>
<trkpt lat="30.110278" lon="100.510358">
<time>2015-08-06T04:56:45Z</time></trkpt>
<trkpt lat="30.110128" lon="100.510158">
<time>2015-08-06T04:56:46Z</time></trkpt>
<trkpt lat="30.110047" lon="100.510047">
<time>2015-08-06T04:56:47Z</time></trkpt>
<trkpt lat="30.109967" lon="100.509927">
<time>2015-08-06T04:56:48Z</time></trkpt>
<trkpt lat="30.109886" lon="100.509777">
<time>2015-08-06T04:56:49Z</time></trkpt>
<trkpt lat="30.109866" lon="100.509736">
<time>2015-08-06T04:56:50Z</time></trkpt>
<trkpt lat="30.109836" lon="100.509646">
<time>2015-08-06T04:56:51Z</time></trkpt>
<trkpt lat="30.109816" lon="100.509606">
<time>2015-08-06T04:56:52Z</time></trkpt>
<trkpt lat="30.109765" lon="100.509446">
<time>2015-08-06T04:56:53Z</time></trkpt>
<trkpt lat="30.109725" lon="100.509315">
<time>2015-08-06T04:56:54Z</time></trkpt>
<trkpt lat="30.109695" lon="100.509205">
<time>2015-08-06T04:56:55Z</time></trkpt>
<trkpt lat="30.109675" lon="100.509135">
<time>2015-08-06T04:56:56Z</time></trkpt>
<trkpt lat="30.109644" lon="100.509024">
<time>2015-08-06T04:56:57Z</time></trkpt>
<trkpt lat="30.109624" lon="100.508944">
<time>2015-08-06T04:56:58Z</time></trkpt>
<trkpt lat="30.109624" lon="100.508914">
<time>2015-08-06T04:56:59Z</time></trkpt>
<trkpt lat="30.109604" lon="100.508864">
<time>2015-08-06T04:57:00Z</time></trkpt>
<trkpt lat="30.109563" lon="100.508683">
<time>2015-08-06T04:57:01Z</time></trkpt>
<trkpt lat="30.109533" lon="100.508523">
<time>2015-08-06T04:57:02Z</time></trkpt>
<trkpt lat="30.109502" lon="100.508372">
<time>2015-08-06T04:57:03Z</time></trkpt>
<trkpt lat="30.109492" lon="100.508332">
<time>2015-08-06T04:57:04Z</time></trkpt>
<trkpt lat="30.109462" lon="100.508212">
<time>2015-08-06T04:57:05Z</time></trkpt>
<trkpt lat="30.109442" lon="100.508111">
<time>2015-08-06T04:57:06Z</time></trkpt>
<trkpt lat="30.109431" lon="100.508011">
<time>2015-08-06T04:57:07Z</time></trkpt>
<trkpt lat="30.109421" lon="100.507941">
<time>2015-08-06T04:57:08Z</time></trkpt>
<trkpt lat="30.109421" lon="100.507881">
<time>2015-08-06T04:57:09Z</time></trkpt>
<trkpt lat="30.109421" lon="100.507861">
<time>2015-08-06T04:57:10Z</time></trkpt>
<trkpt lat="30.109421" lon="100.50781">
<time>2015-08-06T04:57:11Z</time></trkpt>
<trkpt lat="30.10941" lon="100.50773">
<time>2015-08-06T04:57:12Z</time></trkpt>
<trkpt lat="30.10941" lon="100.50772">
<time>2015-08-06T04:57:13Z</time></trkpt>
<trkpt lat="30.10942" lon="100.50764">
<time>2015-08-06T04:57:14Z</time></trkpt>
<trkpt lat="30.10942" lon="100.50761">
<time>2015-08-06T04:57:15Z</time></trkpt>
<trkpt lat="30.10942" lon="100.50757">
<time>2015-08-06T04:57:16Z</time></trkpt>
<trkpt lat="30.10943" lon="100.50751">
<time>2015-08-06T04:57:17Z</time></trkpt>
<trkpt lat="30.10943" lon="100.507459">
<time>2015-08-06T04:57:18Z</time></trkpt>
<trkpt lat="30.109449" lon="100.507329">
<time>2015-08-06T04:57:19Z</time></trkpt>
<trkpt lat="30.109469" lon="100.507199">
<time>2015-08-06T04:57:20Z</time></trkpt>
<trkpt lat="30.109488" lon="100.507018">
<time>2015-08-06T04:57:21Z</time></trkpt>
<trkpt lat="30.109518" lon="100.506827">
<time>2015-08-06T04:57:22Z</time></trkpt>
<trkpt lat="30.109547" lon="100.506667">
<time>2015-08-06T04:57:23Z</time></trkpt>
<trkpt lat="30.109567" lon="100.506506">
<time>2015-08-06T04:57:24Z</time></trkpt>
<trkpt lat="30.109577" lon="100.506436">
<time>2015-08-06T04:57:25Z</time></trkpt>
<trkpt lat="30.109586" lon="100.506346">
<time>2015-08-06T04:57:26Z</time></trkpt>
<trkpt lat="30.109616" lon="100.506155">
<time>2015-08-06T04:57:27Z</time></trkpt>
<trkpt lat="30.109635" lon="100.505995">
<time>2015-08-06T04:57:28Z</time></trkpt>
<trkpt lat="30.109645" lon="100.505854">
<time>2015-08-06T04:57:29Z</time></trkpt>
<trkpt lat="30.109674" lon="100.505634">
<time>2015-08-06T04:57:30Z</time></trkpt>
<trkpt lat="30.109704" lon="100.505453">
<time>2015-08-06T04:57:31Z</time></trkpt>
<trkpt lat="30.109733" lon="100.505252">
<time>2015-08-06T04:57:32Z</time></trkpt>
<trkpt lat="30.109753" lon="100.505082">
<time>2015-08-06T04:57:33Z</time></trkpt>
<trkpt lat="30.109782" lon="100.504921">
<time>2015-08-06T04:57:34Z</time></trkpt>
<trkpt lat="30.109802" lon="100.504751">
<time>2015-08-06T04:57:35Z</time></trkpt>
<trkpt lat="30.109821" lon="100.50461">
<time>2015-08-06T04:57:36Z</time></trkpt>
<trkpt lat="30.109841" lon="100.50444">
<time>2015-08-06T04:57:37Z</time></trkpt>
<trkpt lat="30.10986" lon="100.504299">
<time>2015-08-06T04:57:38Z</time></trkpt>
<trkpt lat="30.10988" lon="100.504159">
<time>2015-08-06T04:57:39Z</time></trkpt>
<trkpt lat="30.10989" lon="100.504079">
<time>2015-08-06T04:57:40Z</time></trkpt>
<trkpt lat="30.109909" lon="100.503918">
<time>2015-08-06T04:57:41Z</time></trkpt>
<trkpt lat="30.109938" lon="100.503728">
<time>2015-08-06T04:57:42Z</time></trkpt>
<trkpt lat="30.109968" lon="100.503537">
<time>2015-08-06T04:57:43Z</time></trkpt>
<trkpt lat="30.109997" lon="100.503356">
<time>2015-08-06T04:57:44Z</time></trkpt>
<trkpt lat="30.110017" lon="100.503236">
<time>2015-08-06T04:57:45Z</time></trkpt>
<trkpt lat="30.110056" lon="100.503005">
<time>2015-08-06T04:57:46Z</time></trkpt>
<trkpt lat="30.110115" lon="100.502724">
<time>2015-08-06T04:57:47Z</time></trkpt>
<trkpt lat="30.110214" lon="100.502273">
<time>2015-08-06T04:57:48Z</time></trkpt>
<trkpt lat="30.110253" lon="100.502062">
<time>2015-08-06T04:57:49Z</time></trkpt>
<trkpt lat="30.110313" lon="100.501791">
<time>2015-08-06T04:57:50Z</time></trkpt>
<trkpt lat="30.110322" lon="100.501731">
<time>2015-08-06T04:57:51Z</time></trkpt>
<trkpt lat="30.110342" lon="100.501641">
<time>2015-08-06T04:57:52Z</time></trkpt>
<trkpt lat="30.110362" lon="100.501551">
<time>2015-08-06T04:57:53Z</time></trkpt>
<trkpt lat="30.110411" lon="100.50136">
<time>2015-08-06T04:57:54Z</time></trkpt>
<trkpt lat="30.110431" lon="100.50128">
<time>2015-08-06T04:57:55Z</time></trkpt>
<trkpt lat="30.110451" lon="100.5012">
<time>2015-08-06T04:57:56Z</time></trkpt>
<trkpt lat="30.11049" lon="100.501049">
<time>2015-08-06T04:57:57Z</time></trkpt>
<trkpt lat="30.11054" lon="100.500919">
<time>2015-08-06T04:57:58Z</time></trkpt>
<trkpt lat="30.11057" lon="100.500838">
<time>2015-08-06T04:57:59Z</time></trkpt>
<trkpt lat="30.1106" lon="100.500738">
<time>2015-08-06T04:58:00Z</time></trkpt>
<trkpt lat="30.110629" lon="100.500658">
<time>2015-08-06T04:58:01Z</time></trkpt>
<trkpt lat="30.110679" lon="100.500517">
<time>2015-08-06T04:58:02Z</time></trkpt>
<trkpt lat="30.110758" lon="100.500327">
<time>2015-08-06T04:58:03Z</time></trkpt>
<trkpt lat="30.110857" lon="100.500056">
<time>2015-08-06T04:58:04Z</time></trkpt>
<trkpt lat="30.110907" lon="100.499926">
<time>2015-08-06T04:58:05Z</time></trkpt>
<trkpt lat="30.110947" lon="100.499815">
<time>2015-08-06T04:58:06Z</time></trkpt>
<trkpt lat="30.110976" lon="100.499725">
<time>2015-08-06T04:58:07Z</time></trkpt>
<trkpt lat="30.110996" lon="100.499625">
<time>2015-08-06T04:58:08Z</time></trkpt>
<trkpt lat="30.111026" lon="100.499514">
<time>2015-08-06T04:58:09Z</time></trkpt>
<trkpt lat="30.111045" lon="100.499374">
<time>2015-08-06T04:58:10Z</time></trkpt>
<trkpt lat="30.111055" lon="100.499223">
<time>2015-08-06T04:58:11Z</time></trkpt>
<trkpt lat="30.111074" lon="100.498983">
<time>2015-08-06T04:58:12Z</time></trkpt>
<trkpt lat="30.111084" lon="100.498762">
<time>2015-08-06T04:58:13Z</time></trkpt>
<trkpt lat="30.111103" lon="100.498501">
<time>2015-08-06T04:58:14Z</time></trkpt>
<trkpt lat="30.111122" lon="100.49819">
<time>2015-08-06T04:58:15Z</time></trkpt>
<trkpt lat="30.111121" lon="100.497979">
<time>2015-08-06T04:58:16Z</time></trkpt>
<trkpt lat="30.111121" lon="100.497789">
<time>2015-08-06T04:58:17Z</time></trkpt>
<trkpt lat="30.11112" lon="100.497658">
<time>2015-08-06T04:58:18Z</time></trkpt>
<trkpt lat="30.1111" lon="100.497468">
<time>2015-08-06T04:58:19Z</time></trkpt>
<trkpt lat="30.111079" lon="100.497337">
<time>2015-08-06T04:58:20Z</time></trkpt>
<trkpt lat="30.111059" lon="100.497217">
<time>2015-08-06T04:58:21Z</time></trkpt>
<trkpt lat="30.111049" lon="100.497147">
<time>2015-08-06T04:58:22Z</time></trkpt>
<trkpt lat="30.110998" lon="100.496926">
<time>2015-08-06T04:58:23Z</time></trkpt>
<trkpt lat="30.110917" lon="100.496585">
<time>2015-08-06T04:58:24Z</time></trkpt>
<trkpt lat="30.110836" lon="100.496274">
<time>2015-08-06T04:58:25Z</time></trkpt>
<trkpt lat="30.110745" lon="100.495893">
<time>2015-08-06T04:58:26Z</time></trkpt>
<trkpt lat="30.110624" lon="100.495471">
<time>2015-08-06T04:58:27Z</time></trkpt>
<trkpt lat="30.110533" lon="100.495191">
<time>2015-08-06T04:58:28Z</time></trkpt>
<trkpt lat="30.110442" lon="100.49493">
<time>2015-08-06T04:58:29Z</time></trkpt>
<trkpt lat="30.110331" lon="100.494619">
<time>2015-08-06T04:58:30Z</time></trkpt>
<trkpt lat="30.11021" lon="100.494278">
<time>2015-08-06T04:58:31Z</time></trkpt>
<trkpt lat="30.110109" lon="100.493967">
<time>2015-08-06T04:58:32Z</time></trkpt>
<trkpt lat="30.110008" lon="100.493676">
<time>2015-08-06T04:58:33Z</time></trkpt>
<trkpt lat="30.109948" lon="100.493545">
<time>2015-08-06T04:58:34Z</time></trkpt>
<trkpt lat="30.109877" lon="100.493375">
<time>2015-08-06T04:58:35Z</time></trkpt>
<trkpt lat="30.109797" lon="100.493214">
<time>2015-08-06T04:58:36Z</time></trkpt>
<trkpt lat="30.109706" lon="100.493034">
<time>2015-08-06T04:58:37Z</time></trkpt>
<trkpt lat="30.109596" lon="100.492803">
<time>2015-08-06T04:58:38Z</time></trkpt>
<trkpt lat="30.109425" lon="100.492492">
<time>2015-08-06T04:58:39Z</time></trkpt>
<trkpt lat="30.109294" lon="100.492281">
<time>2015-08-06T04:58:40Z</time></trkpt>
<trkpt lat="30.109154" lon="100.492071">
<time>2015-08-06T04:58:41Z</time></trkpt>
<trkpt lat="30.108993" lon="100.49184">
<time>2015-08-06T04:58:42Z</time></trkpt>
<trkpt lat="30.108912" lon="100.49172">
<time>2015-08-06T04:58:43Z</time></trkpt>
<trkpt lat="30.108862" lon="100.491659">
<time>2015-08-06T04:58:44Z</time></trkpt>
<trkpt lat="30.108822" lon="100.491579">
<time>2015-08-06T04:58:45Z</time></trkpt>
<trkpt lat="30.108762" lon="100.491479">
<time>2015-08-06T04:58:46Z</time></trkpt>
<trkpt lat="30.108732" lon="100.491429">
<time>2015-08-06T04:58:47Z</time></trkpt>
<trkpt lat="30.108701" lon="100.491358">
<time>2015-08-06T04:58:48Z</time></trkpt>
<trkpt lat="30.108631" lon="100.491198">
<time>2015-08-06T04:58:49Z</time></trkpt>
<trkpt lat="30.10856" lon="100.491027">
<time>2015-08-06T04:58:50Z</time></trkpt>
<trkpt lat="30.10852" lon="100.490937">
<time>2015-08-06T04:58:51Z</time></trkpt>
<trkpt lat="30.1085" lon="100.490887">
<time>2015-08-06T04:58:52Z</time></trkpt>
<trkpt lat="30.10848" lon="100.490857">
<time>2015-08-06T04:58:53Z</time></trkpt>
<trkpt lat="30.10845" lon="100.490817">
<time>2015-08-06T04:58:54Z</time></trkpt>
<trkpt lat="30.10843" lon="100.490787">
<time>2015-08-06T04:58:55Z</time></trkpt>
<trkpt lat="30.1084" lon="100.490757">
<time>2015-08-06T04:58:56Z</time></trkpt>
<trkpt lat="30.10838" lon="100.490737">
<time>2015-08-06T04:58:57Z</time></trkpt>
<trkpt lat="30.10836" lon="100.490716">
<time>2015-08-06T04:58:58Z</time></trkpt>
<trkpt lat="30.108329" lon="100.490696">
<time>2015-08-06T04:58:59Z</time></trkpt>
<trkpt lat="30.108299" lon="100.490676">
<time>2015-08-06T04:59:00Z</time></trkpt>
<trkpt lat="30.108269" lon="100.490656">
<time>2015-08-06T04:59:01Z</time></trkpt>
<trkpt lat="30.108209" lon="100.490626">
<time>2015-08-06T04:59:02Z</time></trkpt>
<trkpt lat="30.108099" lon="100.490586">
<time>2015-08-06T04:59:03Z</time></trkpt>
<trkpt lat="30.107879" lon="100.490506">
<time>2015-08-06T04:59:04Z</time></trkpt>
<trkpt lat="30.107659" lon="100.490456">
<time>2015-08-06T04:59:05Z</time></trkpt>
<trkpt lat="30.107499" lon="100.490416">
<time>2015-08-06T04:59:06Z</time></trkpt>
<trkpt lat="30.107399" lon="100.490406">
<time>2015-08-06T04:59:07Z</time></trkpt>
<trkpt lat="30.107289" lon="100.490406">
<time>2015-08-06T04:59:08Z</time></trkpt>
<trkpt lat="30.106979" lon="100.490395">
<time>2015-08-06T04:59:09Z</time></trkpt>
<trkpt lat="30.106809" lon="100.490385">
<time>2015-08-06T04:59:10Z</time></trkpt>
<trkpt lat="30.106578" lon="100.490375">
<time>2015-08-06T04:59:11Z</time></trkpt>
<trkpt lat="30.106348" lon="100.490355">
<time>2015-08-06T04:59:12Z</time></trkpt>
<trkpt lat="30.106108" lon="100.490355">
<time>2015-08-06T04:59:13Z</time></trkpt>
<trkpt lat="30.105848" lon="100.490355">
<time>2015-08-06T04:59:14Z</time></trkpt>
<trkpt lat="30.105758" lon="100.490345">
<time>2015-08-06T04:59:15Z</time></trkpt>
<trkpt lat="30.105708" lon="100.490345">
<time>2015-08-06T04:59:16Z</time></trkpt>
<trkpt lat="30.105608" lon="100.490315">
<time>2015-08-06T04:59:17Z</time></trkpt>
<trkpt lat="30.105488" lon="100.490285">
<time>2015-08-06T04:59:18Z</time></trkpt>
<trkpt lat="30.105388" lon="100.490245">
<time>2015-08-06T04:59:19Z</time></trkpt>
<trkpt lat="30.105288" lon="100.490215">
<time>2015-08-06T04:59:20Z</time></trkpt>
<trkpt lat="30.105088" lon="100.490125">
<time>2015-08-06T04:59:21Z</time></trkpt>
<trkpt lat="30.104928" lon="100.490054">
<time>2015-08-06T04:59:22Z</time></trkpt>
<trkpt lat="30.104777" lon="100.489984">
<time>2015-08-06T04:59:23Z</time></trkpt>
<trkpt lat="30.104727" lon="100.489974">
<time>2015-08-06T04:59:24Z</time></trkpt>
<trkpt lat="30.104557" lon="100.489914">
<time>2015-08-06T04:59:25Z</time></trkpt>
<trkpt lat="30.104317" lon="100.489844">
<time>2015-08-06T04:59:26Z</time></trkpt>
<trkpt lat="30.104127" lon="100.489774">
<time>2015-08-06T04:59:27Z</time></trkpt>
<trkpt lat="30.104007" lon="100.489713">
<time>2015-08-06T04:59:28Z</time></trkpt>
<trkpt lat="30.103836" lon="100.489643">
<time>2015-08-06T04:59:29Z</time></trkpt>
<trkpt lat="30.103726" lon="100.489593">
<time>2015-08-06T04:59:30Z</time></trkpt>
<trkpt lat="30.103666" lon="100.489563">
<time>2015-08-06T04:59:31Z</time></trkpt>
<trkpt lat="30.103486" lon="100.489483">
<time>2015-08-06T04:59:32Z</time></trkpt>
<trkpt lat="30.103426" lon="100.489463">
<time>2015-08-06T04:59:33Z</time></trkpt>
<trkpt lat="30.103346" lon="100.489433">
<time>2015-08-06T04:59:34Z</time></trkpt>
<trkpt lat="30.103246" lon="100.489392">
<time>2015-08-06T04:59:35Z</time></trkpt>
<trkpt lat="30.103145" lon="100.489362">
<time>2015-08-06T04:59:36Z</time></trkpt>
<trkpt lat="30.103035" lon="100.489322">
<time>2015-08-06T04:59:37Z</time></trkpt>
<trkpt lat="30.102875" lon="100.489282">
<time>2015-08-06T04:59:38Z</time></trkpt>
<trkpt lat="30.102625" lon="100.489232">
<time>2015-08-06T04:59:39Z</time></trkpt>
<trkpt lat="30.102325" lon="100.489162">
<time>2015-08-06T04:59:40Z</time></trkpt>
<trkpt lat="30.102075" lon="100.489102">
<time>2015-08-06T04:59:41Z</time></trkpt>
<trkpt lat="30.101895" lon="100.489071">
<time>2015-08-06T04:59:42Z</time></trkpt>
<trkpt lat="30.101674" lon="100.489031">
<time>2015-08-06T04:59:43Z</time></trkpt>
<trkpt lat="30.101474" lon="100.488991">
<time>2015-08-06T04:59:44Z</time></trkpt>
<trkpt lat="30.101374" lon="100.488981">
<time>2015-08-06T04:59:45Z</time></trkpt>
<trkpt lat="30.101324" lon="100.488981">
<time>2015-08-06T04:59:46Z</time></trkpt>
<trkpt lat="30.101264" lon="100.488981">
<time>2015-08-06T04:59:47Z</time></trkpt>
<trkpt lat="30.101164" lon="100.488981">
<time>2015-08-06T04:59:48Z</time></trkpt>
<trkpt lat="30.101004" lon="100.488991">
<time>2015-08-06T04:59:49Z</time></trkpt>
<trkpt lat="30.100854" lon="100.489011">
<time>2015-08-06T04:59:50Z</time></trkpt>
<trkpt lat="30.100675" lon="100.489051">
<time>2015-08-06T04:59:51Z</time></trkpt>
<trkpt lat="30.100575" lon="100.489082">
<time>2015-08-06T04:59:52Z</time></trkpt>
<trkpt lat="30.100475" lon="100.489112">
<time>2015-08-06T04:59:53Z</time></trkpt>
<trkpt lat="30.100325" lon="100.489172">
<time>2015-08-06T04:59:54Z</time></trkpt>
<trkpt lat="30.100145" lon="100.489252">
<time>2015-08-06T04:59:55Z</time></trkpt>
<trkpt lat="30.099906" lon="100.489382">
<time>2015-08-06T04:59:56Z</time></trkpt>
<trkpt lat="30.099786" lon="100.489463">
<time>2015-08-06T04:59:57Z</time></trkpt>
<trkpt lat="30.099636" lon="100.489593">
<time>2015-08-06T04:59:58Z</time></trkpt>
<trkpt lat="30.099477" lon="100.489744">
<time>2015-08-06T04:59:59Z</time></trkpt>
<trkpt lat="30.099297" lon="100.489924">
<time>2015-08-06T05:00:00Z</time></trkpt>
<trkpt lat="30.099158" lon="100.490065">
<time>2015-08-06T05:00:01Z</time></trkpt>
<trkpt lat="30.099048" lon="100.490155">
<time>2015-08-06T05:00:02Z</time></trkpt>
<trkpt lat="30.098978" lon="100.490185">
<time>2015-08-06T05:00:03Z</time></trkpt>
<trkpt lat="30.098938" lon="100.490195">
<time>2015-08-06T05:00:04Z</time></trkpt>
<trkpt lat="30.098888" lon="100.490205">
<time>2015-08-06T05:00:05Z</time></trkpt>
<trkpt lat="30.098868" lon="100.490205">
<time>2015-08-06T05:00:06Z</time></trkpt>
<trkpt lat="30.098838" lon="100.490205">
<time>2015-08-06T05:00:07Z</time></trkpt>
<trkpt lat="30.098778" lon="100.490185">
<time>2015-08-06T05:00:08Z</time></trkpt>
<trkpt lat="30.098758" lon="100.490185">
<time>2015-08-06T05:00:09Z</time></trkpt>
<trkpt lat="30.098678" lon="100.490145">
<time>2015-08-06T05:00:10Z</time></trkpt>
<trkpt lat="30.098618" lon="100.490105">
<time>2015-08-06T05:00:11Z</time></trkpt>
<trkpt lat="30.098568" lon="100.490085">
<time>2015-08-06T05:00:12Z</time></trkpt>
<trkpt lat="30.098507" lon="100.490045">
<time>2015-08-06T05:00:13Z</time></trkpt>
<trkpt lat="30.098477" lon="100.490025">
<time>2015-08-06T05:00:14Z</time></trkpt>
<trkpt lat="30.098457" lon="100.490015">
<time>2015-08-06T05:00:15Z</time></trkpt>
<trkpt lat="30.098407" lon="100.489984">
<time>2015-08-06T05:00:16Z</time></trkpt>
<trkpt lat="30.098377" lon="100.489954">
<time>2015-08-06T05:00:17Z</time></trkpt>
<trkpt lat="30.098357" lon="100.489934">
<time>2015-08-06T05:00:18Z</time></trkpt>
<trkpt lat="30.098337" lon="100.489904">
<time>2015-08-06T05:00:19Z</time></trkpt>
<trkpt lat="30.098317" lon="100.489884">
<time>2015-08-06T05:00:20Z</time></trkpt>
<trkpt lat="30.098297" lon="100.489854">
<time>2015-08-06T05:00:21Z</time></trkpt>
<trkpt lat="30.098277" lon="100.489824">
<time>2015-08-06T05:00:22Z</time></trkpt>
<trkpt lat="30.098267" lon="100.489794">
<time>2015-08-06T05:00:23Z</time></trkpt>
<trkpt lat="30.098236" lon="100.489714">
<time>2015-08-06T05:00:24Z</time></trkpt>
<trkpt lat="30.098206" lon="100.489603">
<time>2015-08-06T05:00:25Z</time></trkpt>
<trkpt lat="30.098186" lon="100.489423">
<time>2015-08-06T05:00:26Z</time></trkpt>
<trkpt lat="30.098145" lon="100.489192">
<time>2015-08-06T05:00:27Z</time></trkpt>
<trkpt lat="30.098135" lon="100.489082">
<time>2015-08-06T05:00:28Z</time></trkpt>
<trkpt lat="30.098114" lon="100.489011">
<time>2015-08-06T05:00:29Z</time></trkpt>
<trkpt lat="30.098104" lon="100.488941">
<time>2015-08-06T05:00:30Z</time></trkpt>
<trkpt lat="30.098094" lon="100.488901">
<time>2015-08-06T05:00:31Z</time></trkpt>
<trkpt lat="30.098064" lon="100.488821">
<time>2015-08-06T05:00:32Z</time></trkpt>
<trkpt lat="30.098044" lon="100.488781">
<time>2015-08-06T05:00:33Z</time></trkpt>
<trkpt lat="30.098024" lon="100.488751">
<time>2015-08-06T05:00:34Z</time></trkpt>
<trkpt lat="30.098004" lon="100.48872">
<time>2015-08-06T05:00:35Z</time></trkpt>
<trkpt lat="30.097963" lon="100.48866">
<time>2015-08-06T05:00:36Z</time></trkpt>
<trkpt lat="30.097913" lon="100.48862">
<time>2015-08-06T05:00:37Z</time></trkpt>
<trkpt lat="30.097853" lon="100.48856">
<time>2015-08-06T05:00:38Z</time></trkpt>
<trkpt lat="30.097743" lon="100.48847">
<time>2015-08-06T05:00:39Z</time></trkpt>
<trkpt lat="30.097683" lon="100.48843">
<time>2015-08-06T05:00:40Z</time></trkpt>
<trkpt lat="30.097643" lon="100.488399">
<time>2015-08-06T05:00:41Z</time></trkpt>
<trkpt lat="30.097572" lon="100.488359">
<time>2015-08-06T05:00:42Z</time></trkpt>
<trkpt lat="30.097502" lon="100.488319">
<time>2015-08-06T05:00:43Z</time></trkpt>
<trkpt lat="30.097372" lon="100.488259">
<time>2015-08-06T05:00:44Z</time></trkpt>
<trkpt lat="30.097312" lon="100.488229">
<time>2015-08-06T05:00:45Z</time></trkpt>
<trkpt lat="30.097272" lon="100.488209">
<time>2015-08-06T05:00:46Z</time></trkpt>
<trkpt lat="30.097212" lon="100.488179">
<time>2015-08-06T05:00:47Z</time></trkpt>
<trkpt lat="30.097172" lon="100.488159">
<time>2015-08-06T05:00:48Z</time></trkpt>
<trkpt lat="30.097152" lon="100.488149">
<time>2015-08-06T05:00:49Z</time></trkpt>
<trkpt lat="30.097112" lon="100.488119">
<time>2015-08-06T05:00:50Z</time></trkpt>
<trkpt lat="30.097072" lon="100.488099">
<time>2015-08-06T05:00:51Z</time></trkpt>
<trkpt lat="30.097052" lon="100.488078">
<time>2015-08-06T05:00:52Z</time></trkpt>
<trkpt lat="30.097022" lon="100.488058">
<time>2015-08-06T05:00:53Z</time></trkpt>
<trkpt lat="30.096961" lon="100.488008">
<time>2015-08-06T05:00:54Z</time></trkpt>
<trkpt lat="30.096941" lon="100.487988">
<time>2015-08-06T05:00:55Z</time></trkpt>
<trkpt lat="30.096881" lon="100.487918">
<time>2015-08-06T05:00:56Z</time></trkpt>
<trkpt lat="30.096851" lon="100.487878">
<time>2015-08-06T05:00:57Z</time></trkpt>
<trkpt lat="30.096821" lon="100.487828">
<time>2015-08-06T05:00:58Z</time></trkpt>
<trkpt lat="30.096791" lon="100.487788">
<time>2015-08-06T05:00:59Z</time></trkpt>
<trkpt lat="30.096741" lon="100.487697">
<time>2015-08-06T05:01:00Z</time></trkpt>
<trkpt lat="30.09667" lon="100.487577">
<time>2015-08-06T05:01:01Z</time></trkpt>
<trkpt lat="30.09662" lon="100.487467">
<time>2015-08-06T05:01:02Z</time></trkpt>
<trkpt lat="30.09658" lon="100.487406">
<time>2015-08-06T05:01:03Z</time></trkpt>
<trkpt lat="30.09656" lon="100.487366">
<time>2015-08-06T05:01:04Z</time></trkpt>
<trkpt lat="30.096539" lon="100.487346">
<time>2015-08-06T05:01:05Z</time></trkpt>
<trkpt lat="30.096519" lon="100.487316">
<time>2015-08-06T05:01:06Z</time></trkpt>
<trkpt lat="30.096489" lon="100.487286">
<time>2015-08-06T05:01:07Z</time></trkpt>
<trkpt lat="30.096469" lon="100.487266">
<time>2015-08-06T05:01:08Z</time></trkpt>
<trkpt lat="30.096449" lon="100.487246">
<time>2015-08-06T05:01:09Z</time></trkpt>
<trkpt lat="30.096409" lon="100.487206">
<time>2015-08-06T05:01:10Z</time></trkpt>
<trkpt lat="30.096369" lon="100.487186">
<time>2015-08-06T05:01:11Z</time></trkpt>
<trkpt lat="30.096319" lon="100.487156">
<time>2015-08-06T05:01:12Z</time></trkpt>
<trkpt lat="30.096259" lon="100.487136">
<time>2015-08-06T05:01:13Z</time></trkpt>
<trkpt lat="30.096149" lon="100.487095">
<time>2015-08-06T05:01:14Z</time></trkpt>
<trkpt lat="30.095969" lon="100.487035">
<time>2015-08-06T05:01:15Z</time></trkpt>
<trkpt lat="30.095748" lon="100.486975">
<time>2015-08-06T05:01:16Z</time></trkpt>
<trkpt lat="30.095558" lon="100.486925">
<time>2015-08-06T05:01:17Z</time></trkpt>
<trkpt lat="30.095458" lon="100.486905">
<time>2015-08-06T05:01:18Z</time></trkpt>
<trkpt lat="30.095388" lon="100.486905">
<time>2015-08-06T05:01:19Z</time></trkpt>
<trkpt lat="30.095328" lon="100.486905">
<time>2015-08-06T05:01:20Z</time></trkpt>
<trkpt lat="30.095188" lon="100.486915">
<time>2015-08-06T05:01:21Z</time></trkpt>
<trkpt lat="30.095118" lon="100.486925">
<time>2015-08-06T05:01:22Z</time></trkpt>
<trkpt lat="30.094998" lon="100.486955">
<time>2015-08-06T05:01:23Z</time></trkpt>
<trkpt lat="30.094918" lon="100.486985">
<time>2015-08-06T05:01:24Z</time></trkpt>
<trkpt lat="30.094809" lon="100.487035">
<time>2015-08-06T05:01:25Z</time></trkpt>
<trkpt lat="30.094579" lon="100.487166">
<time>2015-08-06T05:01:26Z</time></trkpt>
<trkpt lat="30.094319" lon="100.487316">
<time>2015-08-06T05:01:27Z</time></trkpt>
<trkpt lat="30.09413" lon="100.487417">
<time>2015-08-06T05:01:28Z</time></trkpt>
<trkpt lat="30.09409" lon="100.487427">
<time>2015-08-06T05:01:29Z</time></trkpt>
<trkpt lat="30.09406" lon="100.487437">
<time>2015-08-06T05:01:30Z</time></trkpt>
<trkpt lat="30.09402" lon="100.487447">
<time>2015-08-06T05:01:31Z</time></trkpt>
<trkpt lat="30.09398" lon="100.487457">
<time>2015-08-06T05:01:32Z</time></trkpt>
<trkpt lat="30.09392" lon="100.487457">
<time>2015-08-06T05:01:33Z</time></trkpt>
<trkpt lat="30.09389" lon="100.487457">
<time>2015-08-06T05:01:34Z</time></trkpt>
<trkpt lat="30.09385" lon="100.487447">
<time>2015-08-06T05:01:35Z</time></trkpt>
<trkpt lat="30.09382" lon="100.487437">
<time>2015-08-06T05:01:36Z</time></trkpt>
<trkpt lat="30.09378" lon="100.487417">
<time>2015-08-06T05:01:37Z</time></trkpt>
<trkpt lat="30.09375" lon="100.487396">
<time>2015-08-06T05:01:38Z</time></trkpt>
<trkpt lat="30.09371" lon="100.487376">
<time>2015-08-06T05:01:39Z</time></trkpt>
<trkpt lat="30.093689" lon="100.487356">
<time>2015-08-06T05:01:40Z</time></trkpt>
<trkpt lat="30.093659" lon="100.487336">
<time>2015-08-06T05:01:41Z</time></trkpt>
<trkpt lat="30.093609" lon="100.487286">
<time>2015-08-06T05:01:42Z</time></trkpt>
<trkpt lat="30.093579" lon="100.487256">
<time>2015-08-06T05:01:43Z</time></trkpt>
<trkpt lat="30.093529" lon="100.487236">
<time>2015-08-06T05:01:44Z</time></trkpt>
<trkpt lat="30.093489" lon="100.487216">
<time>2015-08-06T05:01:45Z</time></trkpt>
<trkpt lat="30.093439" lon="100.487206">
<time>2015-08-06T05:01:46Z</time></trkpt>
<trkpt lat="30.093389" lon="100.487196">
<time>2015-08-06T05:01:47Z</time></trkpt>
<trkpt lat="30.093349" lon="100.487196">
<time>2015-08-06T05:01:48Z</time></trkpt>
<trkpt lat="30.093309" lon="100.487196">
<time>2015-08-06T05:01:49Z</time></trkpt>
<trkpt lat="30.093269" lon="100.487196">
<time>2015-08-06T05:01:50Z</time></trkpt>
<trkpt lat="30.093179" lon="100.487216">
<time>2015-08-06T05:01:51Z</time></trkpt>
<trkpt lat="30.093099" lon="100.487226">
<time>2015-08-06T05:01:52Z</time></trkpt>
<trkpt lat="30.092899" lon="100.487276">
<time>2015-08-06T05:01:53Z</time></trkpt>
<trkpt lat="30.092719" lon="100.487326">
<time>2015-08-06T05:01:54Z</time></trkpt>
<trkpt lat="30.092629" lon="100.487336">
<time>2015-08-06T05:01:55Z</time></trkpt>
<trkpt lat="30.092569" lon="100.487346">
<time>2015-08-06T05:01:56Z</time></trkpt>
<trkpt lat="30.092459" lon="100.487356">
<time>2015-08-06T05:01:57Z</time></trkpt>
<trkpt lat="30.092409" lon="100.487356">
<time>2015-08-06T05:01:58Z</time></trkpt>
<trkpt lat="30.092349" lon="100.487346">
<time>2015-08-06T05:01:59Z</time></trkpt>
<trkpt lat="30.092309" lon="100.487346">
<time>2015-08-06T05:02:00Z</time></trkpt>
<trkpt lat="30.092269" lon="100.487336">
<time>2015-08-06T05:02:01Z</time></trkpt>
<trkpt lat="30.092209" lon="100.487316">
<time>2015-08-06T05:02:02Z</time></trkpt>
<trkpt lat="30.092159" lon="100.487296">
<time>2015-08-06T05:02:03Z</time></trkpt>
<trkpt lat="30.092089" lon="100.487256">
<time>2015-08-06T05:02:04Z</time></trkpt>
<trkpt lat="30.092059" lon="100.487226">
<time>2015-08-06T05:02:05Z</time></trkpt>
<trkpt lat="30.092009" lon="100.487186">
<time>2015-08-06T05:02:06Z</time></trkpt>
<trkpt lat="30.091979" lon="100.487156">
<time>2015-08-06T05:02:07Z</time></trkpt>
<trkpt lat="30.091949" lon="100.487116">
<time>2015-08-06T05:02:08Z</time></trkpt>
<trkpt lat="30.091919" lon="100.487076">
<time>2015-08-06T05:02:09Z</time></trkpt>
<trkpt lat="30.091899" lon="100.487045">
<time>2015-08-06T05:02:10Z</time></trkpt>
<trkpt lat="30.091848" lon="100.486955">
<time>2015-08-06T05:02:11Z</time></trkpt>
<trkpt lat="30.091768" lon="100.486785">
<time>2015-08-06T05:02:12Z</time></trkpt>
<trkpt lat="30.091687" lon="100.486654">
<time>2015-08-06T05:02:13Z</time></trkpt>
<trkpt lat="30.091607" lon="100.486514">
<time>2015-08-06T05:02:14Z</time></trkpt>
<trkpt lat="30.091527" lon="100.486383">
<time>2015-08-06T05:02:15Z</time></trkpt>
<trkpt lat="30.091436" lon="100.486253">
<time>2015-08-06T05:02:16Z</time></trkpt>
<trkpt lat="30.091356" lon="100.486143">
<time>2015-08-06T05:02:17Z</time></trkpt>
<trkpt lat="30.091195" lon="100.485922">
<time>2015-08-06T05:02:18Z</time></trkpt>
<trkpt lat="30.090974" lon="100.485641">
<time>2015-08-06T05:02:19Z</time></trkpt>
<trkpt lat="30.090814" lon="100.485461">
<time>2015-08-06T05:02:20Z</time></trkpt>
<trkpt lat="30.090633" lon="100.48526">
<time>2015-08-06T05:02:21Z</time></trkpt>
<trkpt lat="30.090533" lon="100.48516">
<time>2015-08-06T05:02:22Z</time></trkpt>
<trkpt lat="30.090483" lon="100.485099">
<time>2015-08-06T05:02:23Z</time></trkpt>
<trkpt lat="30.090413" lon="100.485039">
<time>2015-08-06T05:02:24Z</time></trkpt>
<trkpt lat="30.090172" lon="100.484849">
<time>2015-08-06T05:02:25Z</time></trkpt>
<trkpt lat="30.089992" lon="100.484708">
<time>2015-08-06T05:02:26Z</time></trkpt>
<trkpt lat="30.089761" lon="100.484538">
<time>2015-08-06T05:02:27Z</time></trkpt>
<trkpt lat="30.089541" lon="100.484377">
<time>2015-08-06T05:02:28Z</time></trkpt>
<trkpt lat="30.08933" lon="100.484227">
<time>2015-08-06T05:02:29Z</time></trkpt>
<trkpt lat="30.0891" lon="100.484066">
<time>2015-08-06T05:02:30Z</time></trkpt>
<trkpt lat="30.088849" lon="100.483876">
<time>2015-08-06T05:02:31Z</time></trkpt>
<trkpt lat="30.088619" lon="100.483705">
<time>2015-08-06T05:02:32Z</time></trkpt>
<trkpt lat="30.088388" lon="100.483535">
<time>2015-08-06T05:02:33Z</time></trkpt>
<trkpt lat="30.088268" lon="100.483454">
<time>2015-08-06T05:02:34Z</time></trkpt>
<trkpt lat="30.088208" lon="100.483414">
<time>2015-08-06T05:02:35Z</time></trkpt>
<trkpt lat="30.088058" lon="100.483294">
<time>2015-08-06T05:02:36Z</time></trkpt>
<trkpt lat="30.087927" lon="100.483204">
<time>2015-08-06T05:02:37Z</time></trkpt>
<trkpt lat="30.087777" lon="100.483093">
<time>2015-08-06T05:02:38Z</time></trkpt>
<trkpt lat="30.087697" lon="100.483023">
<time>2015-08-06T05:02:39Z</time></trkpt>
<trkpt lat="30.087667" lon="100.483003">
<time>2015-08-06T05:02:40Z</time></trkpt>
<trkpt lat="30.087607" lon="100.482953">
<time>2015-08-06T05:02:41Z</time></trkpt>
<trkpt lat="30.087516" lon="100.482873">
<time>2015-08-06T05:02:42Z</time></trkpt>
<trkpt lat="30.087486" lon="100.482853">
<time>2015-08-06T05:02:43Z</time></trkpt>
<trkpt lat="30.087386" lon="100.482752">
<time>2015-08-06T05:02:44Z</time></trkpt>
<trkpt lat="30.087306" lon="100.482672">
<time>2015-08-06T05:02:45Z</time></trkpt>
<trkpt lat="30.087246" lon="100.482602">
<time>2015-08-06T05:02:46Z</time></trkpt>
<trkpt lat="30.087125" lon="100.482471">
<time>2015-08-06T05:02:47Z</time></trkpt>
<trkpt lat="30.086975" lon="100.482301">
<time>2015-08-06T05:02:48Z</time></trkpt>
<trkpt lat="30.086814" lon="100.48211">
<time>2015-08-06T05:02:49Z</time></trkpt>
<trkpt lat="30.086644" lon="100.48191">
<time>2015-08-06T05:02:50Z</time></trkpt>
<trkpt lat="30.086463" lon="100.481699">
<time>2015-08-06T05:02:51Z</time></trkpt>
<trkpt lat="30.086232" lon="100.481438">
<time>2015-08-06T05:02:52Z</time></trkpt>
<trkpt lat="30.086162" lon="100.481358">
<time>2015-08-06T05:02:53Z</time></trkpt>
<trkpt lat="30.086112" lon="100.481318">
<time>2015-08-06T05:02:54Z</time></trkpt>
<trkpt lat="30.086052" lon="100.481268">
<time>2015-08-06T05:02:55Z</time></trkpt>
<trkpt lat="30.086012" lon="100.481238">
<time>2015-08-06T05:02:56Z</time></trkpt>
<trkpt lat="30.085942" lon="100.481198">
<time>2015-08-06T05:02:57Z</time></trkpt>
<trkpt lat="30.085901" lon="100.481177">
<time>2015-08-06T05:02:58Z</time></trkpt>
<trkpt lat="30.085851" lon="100.481157">
<time>2015-08-06T05:02:59Z</time></trkpt>
<trkpt lat="30.085801" lon="100.481147">
<time>2015-08-06T05:03:00Z</time></trkpt>
<trkpt lat="30.085731" lon="100.481127">
<time>2015-08-06T05:03:01Z</time></trkpt>
<trkpt lat="30.085681" lon="100.481117">
<time>2015-08-06T05:03:02Z</time></trkpt>
<trkpt lat="30.085631" lon="100.481107">
<time>2015-08-06T05:03:03Z</time></trkpt>
<trkpt lat="30.085561" lon="100.481107">
<time>2015-08-06T05:03:04Z</time></trkpt>
<trkpt lat="30.085471" lon="100.481107">
<time>2015-08-06T05:03:05Z</time></trkpt>
<trkpt lat="30.085371" lon="100.481107">
<time>2015-08-06T05:03:06Z</time></trkpt>
<trkpt lat="30.085201" lon="100.481117">
<time>2015-08-06T05:03:07Z</time></trkpt>
<trkpt lat="30.084941" lon="100.481147">
<time>2015-08-06T05:03:08Z</time></trkpt>
<trkpt lat="30.084701" lon="100.481178">
<time>2015-08-06T05:03:09Z</time></trkpt>
<trkpt lat="30.084551" lon="100.481198">
<time>2015-08-06T05:03:10Z</time></trkpt>
<trkpt lat="30.084322" lon="100.481218">
<time>2015-08-06T05:03:11Z</time></trkpt>
<trkpt lat="30.083932" lon="100.481268">
<time>2015-08-06T05:03:12Z</time></trkpt>
<trkpt lat="30.083612" lon="100.481318">
<time>2015-08-06T05:03:13Z</time></trkpt>
<trkpt lat="30.083382" lon="100.481358">
<time>2015-08-06T05:03:14Z</time></trkpt>
<trkpt lat="30.082872" lon="100.481458">
<time>2015-08-06T05:03:15Z</time></trkpt>
<trkpt lat="30.082163" lon="100.481589">
<time>2015-08-06T05:03:16Z</time></trkpt>
<trkpt lat="30.081823" lon="100.481659">
<time>2015-08-06T05:03:17Z</time></trkpt>
<trkpt lat="30.081583" lon="100.481689">
<time>2015-08-06T05:03:18Z</time></trkpt>
<trkpt lat="30.081383" lon="100.481709">
<time>2015-08-06T05:03:19Z</time></trkpt>
<trkpt lat="30.081163" lon="100.481699">
<time>2015-08-06T05:03:20Z</time></trkpt>
<trkpt lat="30.080843" lon="100.481649">
<time>2015-08-06T05:03:21Z</time></trkpt>
<trkpt lat="30.080242" lon="100.481549">
<time>2015-08-06T05:03:22Z</time></trkpt>
<trkpt lat="30.079702" lon="100.481438">
<time>2015-08-06T05:03:23Z</time></trkpt>
<trkpt lat="30.079532" lon="100.481398">
<time>2015-08-06T05:03:24Z</time></trkpt>
<trkpt lat="30.079402" lon="100.481358">
<time>2015-08-06T05:03:25Z</time></trkpt>
<trkpt lat="30.079252" lon="100.481308">
<time>2015-08-06T05:03:26Z</time></trkpt>
<trkpt lat="30.079102" lon="100.481238">
<time>2015-08-06T05:03:27Z</time></trkpt>
<trkpt lat="30.078661" lon="100.480987">
<time>2015-08-06T05:03:28Z</time></trkpt>
<trkpt lat="30.07831" lon="100.480797">
<time>2015-08-06T05:03:29Z</time></trkpt>
<trkpt lat="30.07786" lon="100.480556">
<time>2015-08-06T05:03:30Z</time></trkpt>
<trkpt lat="30.077519" lon="100.480365">
<time>2015-08-06T05:03:31Z</time></trkpt>
<trkpt lat="30.077339" lon="100.480225">
<time>2015-08-06T05:03:32Z</time></trkpt>
<trkpt lat="30.077269" lon="100.480175">
<time>2015-08-06T05:03:33Z</time></trkpt>
<trkpt lat="30.077198" lon="100.480104">
<time>2015-08-06T05:03:34Z</time></trkpt>
<trkpt lat="30.077088" lon="100.479974">
<time>2015-08-06T05:03:35Z</time></trkpt>
<trkpt lat="30.076957" lon="100.479804">
<time>2015-08-06T05:03:36Z</time></trkpt>
<trkpt lat="30.076847" lon="100.479653">
<time>2015-08-06T05:03:37Z</time></trkpt>
<trkpt lat="30.076696" lon="100.479432">
<time>2015-08-06T05:03:38Z</time></trkpt>
<trkpt lat="30.076485" lon="100.479111">
<time>2015-08-06T05:03:39Z</time></trkpt>
<trkpt lat="30.076305" lon="100.478861">
<time>2015-08-06T05:03:40Z</time></trkpt>
<trkpt lat="30.076234" lon="100.47876">
<time>2015-08-06T05:03:41Z</time></trkpt>
<trkpt lat="30.076154" lon="100.47867">
<time>2015-08-06T05:03:42Z</time></trkpt>
<trkpt lat="30.076074" lon="100.47858">
<time>2015-08-06T05:03:43Z</time></trkpt>
<trkpt lat="30.075994" lon="100.47852">
<time>2015-08-06T05:03:44Z</time></trkpt>
<trkpt lat="30.075914" lon="100.47846">
<time>2015-08-06T05:03:45Z</time></trkpt>
<trkpt lat="30.075823" lon="100.478409">
<time>2015-08-06T05:03:46Z</time></trkpt>
<trkpt lat="30.075693" lon="100.478349">
<time>2015-08-06T05:03:47Z</time></trkpt>
<trkpt lat="30.075613" lon="100.478329">
<time>2015-08-06T05:03:48Z</time></trkpt>
<trkpt lat="30.075493" lon="100.478299">
<time>2015-08-06T05:03:49Z</time></trkpt>
<trkpt lat="30.075373" lon="100.478279">
<time>2015-08-06T05:03:50Z</time></trkpt>
<trkpt lat="30.075103" lon="100.478249">
<time>2015-08-06T05:03:51Z</time></trkpt>
<trkpt lat="30.074973" lon="100.478229">
<time>2015-08-06T05:03:52Z</time></trkpt>
<trkpt lat="30.074853" lon="100.478199">
<time>2015-08-06T05:03:53Z</time></trkpt>
<trkpt lat="30.074743" lon="100.478159">
<time>2015-08-06T05:03:54Z</time></trkpt>
<trkpt lat="30.074543" lon="100.478078">
<time>2015-08-06T05:03:55Z</time></trkpt>
<trkpt lat="30.074362" lon="100.477988">
<time>2015-08-06T05:03:56Z</time></trkpt>
<trkpt lat="30.074202" lon="100.477888">
<time>2015-08-06T05:03:57Z</time></trkpt>
<trkpt lat="30.074122" lon="100.477838">
<time>2015-08-06T05:03:58Z</time></trkpt>
<trkpt lat="30.074072" lon="100.477798">
<time>2015-08-06T05:03:59Z</time></trkpt>
<trkpt lat="30.073992" lon="100.477737">
<time>2015-08-06T05:04:00Z</time></trkpt>
<trkpt lat="30.073871" lon="100.477617">
<time>2015-08-06T05:04:01Z</time></trkpt>
<trkpt lat="30.073641" lon="100.477406">
<time>2015-08-06T05:04:02Z</time></trkpt>
<trkpt lat="30.07334" lon="100.477106">
<time>2015-08-06T05:04:03Z</time></trkpt>
<trkpt lat="30.073169" lon="100.476935">
<time>2015-08-06T05:04:04Z</time></trkpt>
<trkpt lat="30.073079" lon="100.476835">
<time>2015-08-06T05:04:05Z</time></trkpt>
<trkpt lat="30.072969" lon="100.476684">
<time>2015-08-06T05:04:06Z</time></trkpt>
<trkpt lat="30.072898" lon="100.476564">
<time>2015-08-06T05:04:07Z</time></trkpt>
<trkpt lat="30.072808" lon="100.476403">
<time>2015-08-06T05:04:08Z</time></trkpt>
<trkpt lat="30.072586" lon="100.475932">
<time>2015-08-06T05:04:09Z</time></trkpt>
<trkpt lat="30.072325" lon="100.475411">
<time>2015-08-06T05:04:10Z</time></trkpt>
<trkpt lat="30.072174" lon="100.47509">
<time>2015-08-06T05:04:11Z</time></trkpt>
<trkpt lat="30.072094" lon="100.474909">
<time>2015-08-06T05:04:12Z</time></trkpt>
<trkpt lat="30.072023" lon="100.474799">
<time>2015-08-06T05:04:13Z</time></trkpt>
<trkpt lat="30.071973" lon="100.474709">
<time>2015-08-06T05:04:14Z</time></trkpt>
<trkpt lat="30.071923" lon="100.474648">
<time>2015-08-06T05:04:15Z</time></trkpt>
<trkpt lat="30.071873" lon="100.474578">
<time>2015-08-06T05:04:16Z</time></trkpt>
<trkpt lat="30.071813" lon="100.474528">
<time>2015-08-06T05:04:17Z</time></trkpt>
<trkpt lat="30.071732" lon="100.474468">
<time>2015-08-06T05:04:18Z</time></trkpt>
<trkpt lat="30.071632" lon="100.474398">
<time>2015-08-06T05:04:19Z</time></trkpt>
<trkpt lat="30.071392" lon="100.474267">
<time>2015-08-06T05:04:20Z</time></trkpt>
<trkpt lat="30.071021" lon="100.474067">
<time>2015-08-06T05:04:21Z</time></trkpt>
<trkpt lat="30.070641" lon="100.473866">
<time>2015-08-06T05:04:22Z</time></trkpt>
<trkpt lat="30.070531" lon="100.473816">
<time>2015-08-06T05:04:23Z</time></trkpt>
<trkpt lat="30.070441" lon="100.473786">
<time>2015-08-06T05:04:24Z</time></trkpt>
<trkpt lat="30.07035" lon="100.473756">
<time>2015-08-06T05:04:25Z</time></trkpt>
<trkpt lat="30.07027" lon="100.473736">
<time>2015-08-06T05:04:26Z</time></trkpt>
<trkpt lat="30.07018" lon="100.473736">
<time>2015-08-06T05:04:27Z</time></trkpt>
<trkpt lat="30.07009" lon="100.473736">
<time>2015-08-06T05:04:28Z</time></trkpt>
<trkpt lat="30.06998" lon="100.473746">
<time>2015-08-06T05:04:29Z</time></trkpt>
<trkpt lat="30.069791" lon="100.473786">
<time>2015-08-06T05:04:30Z</time></trkpt>
<trkpt lat="30.069631" lon="100.473846">
<time>2015-08-06T05:04:31Z</time></trkpt>
<trkpt lat="30.069521" lon="100.473876">
<time>2015-08-06T05:04:32Z</time></trkpt>
<trkpt lat="30.069411" lon="100.473886">
<time>2015-08-06T05:04:33Z</time></trkpt>
<trkpt lat="30.069301" lon="100.473876">
<time>2015-08-06T05:04:34Z</time></trkpt>
<trkpt lat="30.069221" lon="100.473846">
<time>2015-08-06T05:04:35Z</time></trkpt>
<trkpt lat="30.069161" lon="100.473816">
<time>2015-08-06T05:04:36Z</time></trkpt>
<trkpt lat="30.0691" lon="100.473776">
<time>2015-08-06T05:04:37Z</time></trkpt>
<trkpt lat="30.06904" lon="100.473726">
<time>2015-08-06T05:04:38Z</time></trkpt>
<trkpt lat="30.06898" lon="100.473666">
<time>2015-08-06T05:04:39Z</time></trkpt>
<trkpt lat="30.06893" lon="100.473595">
<time>2015-08-06T05:04:40Z</time></trkpt>
<trkpt lat="30.06889" lon="100.473525">
<time>2015-08-06T05:04:41Z</time></trkpt>
<trkpt lat="30.06886" lon="100.473455">
<time>2015-08-06T05:04:42Z</time></trkpt>
<trkpt lat="30.068839" lon="100.473385">
<time>2015-08-06T05:04:43Z</time></trkpt>
<trkpt lat="30.068829" lon="100.473325">
<time>2015-08-06T05:04:44Z</time></trkpt>
<trkpt lat="30.068819" lon="100.473254">
<time>2015-08-06T05:04:45Z</time></trkpt>
<trkpt lat="30.068809" lon="100.473164">
<time>2015-08-06T05:04:46Z</time></trkpt>
<trkpt lat="30.068818" lon="100.473034">
<time>2015-08-06T05:04:47Z</time></trkpt>
<trkpt lat="30.068838" lon="100.472743">
<time>2015-08-06T05:04:48Z</time></trkpt>
<trkpt lat="30.068876" lon="100.472181">
<time>2015-08-06T05:04:49Z</time></trkpt>
<trkpt lat="30.068885" lon="100.47187">
<time>2015-08-06T05:04:50Z</time></trkpt>
<trkpt lat="30.068894" lon="100.471549">
<time>2015-08-06T05:04:51Z</time></trkpt>
<trkpt lat="30.068894" lon="100.471379">
<time>2015-08-06T05:04:52Z</time></trkpt>
<trkpt lat="30.068894" lon="100.471269">
<time>2015-08-06T05:04:53Z</time></trkpt>
<trkpt lat="30.068903" lon="100.471118">
<time>2015-08-06T05:04:54Z</time></trkpt>
<trkpt lat="30.068913" lon="100.471028">
<time>2015-08-06T05:04:55Z</time></trkpt>
<trkpt lat="30.068933" lon="100.470898">
<time>2015-08-06T05:04:56Z</time></trkpt>
<trkpt lat="30.068982" lon="100.470657">
<time>2015-08-06T05:04:57Z</time></trkpt>
<trkpt lat="30.069022" lon="100.470496">
<time>2015-08-06T05:04:58Z</time></trkpt>
<trkpt lat="30.069061" lon="100.470326">
<time>2015-08-06T05:04:59Z</time></trkpt>
<trkpt lat="30.06914" lon="100.470055">
<time>2015-08-06T05:05:00Z</time></trkpt>
<trkpt lat="30.069229" lon="100.469664">
<time>2015-08-06T05:05:01Z</time></trkpt>
<trkpt lat="30.069259" lon="100.469564">
<time>2015-08-06T05:05:02Z</time></trkpt>
<trkpt lat="30.069289" lon="100.469413">
<time>2015-08-06T05:05:03Z</time></trkpt>
<trkpt lat="30.069288" lon="100.469293">
<time>2015-08-06T05:05:04Z</time></trkpt>
<trkpt lat="30.069288" lon="100.469233">
<time>2015-08-06T05:05:05Z</time></trkpt>
<trkpt lat="30.069278" lon="100.469163">
<time>2015-08-06T05:05:06Z</time></trkpt>
<trkpt lat="30.069268" lon="100.469062">
<time>2015-08-06T05:05:07Z</time></trkpt>
<trkpt lat="30.069248" lon="100.469002">
<time>2015-08-06T05:05:08Z</time></trkpt>
<trkpt lat="30.069227" lon="100.468912">
<time>2015-08-06T05:05:09Z</time></trkpt>
<trkpt lat="30.069207" lon="100.468832">
<time>2015-08-06T05:05:10Z</time></trkpt>
<trkpt lat="30.069177" lon="100.468762">
<time>2015-08-06T05:05:11Z</time></trkpt>
<trkpt lat="30.069137" lon="100.468691">
<time>2015-08-06T05:05:12Z</time></trkpt>
<trkpt lat="30.069097" lon="100.468621">
<time>2015-08-06T05:05:13Z</time></trkpt>
<trkpt lat="30.069066" lon="100.468571">
<time>2015-08-06T05:05:14Z</time></trkpt>
<trkpt lat="30.069006" lon="100.468511">
<time>2015-08-06T05:05:15Z</time></trkpt>
<trkpt lat="30.068876" lon="100.468381">
<time>2015-08-06T05:05:16Z</time></trkpt>
<trkpt lat="30.068686" lon="100.46823">
<time>2015-08-06T05:05:17Z</time></trkpt>
<trkpt lat="30.068375" lon="100.467999">
<time>2015-08-06T05:05:18Z</time></trkpt>
<trkpt lat="30.068064" lon="100.467799">
<time>2015-08-06T05:05:19Z</time></trkpt>
<trkpt lat="30.067884" lon="100.467689">
<time>2015-08-06T05:05:20Z</time></trkpt>
<trkpt lat="30.067784" lon="100.467618">
<time>2015-08-06T05:05:21Z</time></trkpt>
<trkpt lat="30.067744" lon="100.467568">
<time>2015-08-06T05:05:22Z</time></trkpt>
<trkpt lat="30.067704" lon="100.467528">
<time>2015-08-06T05:05:23Z</time></trkpt>
<trkpt lat="30.067674" lon="100.467478">
<time>2015-08-06T05:05:24Z</time></trkpt>
<trkpt lat="30.067653" lon="100.467438">
<time>2015-08-06T05:05:25Z</time></trkpt>
<trkpt lat="30.067633" lon="100.467388">
<time>2015-08-06T05:05:26Z</time></trkpt>
<trkpt lat="30.067633" lon="100.467338">
<time>2015-08-06T05:05:27Z</time></trkpt>
<trkpt lat="30.067633" lon="100.467298">
<time>2015-08-06T05:05:28Z</time></trkpt>
<trkpt lat="30.067633" lon="100.467267">
<time>2015-08-06T05:05:29Z</time></trkpt>
<trkpt lat="30.067643" lon="100.467237">
<time>2015-08-06T05:05:30Z</time></trkpt>
<trkpt lat="30.067643" lon="100.467207">
<time>2015-08-06T05:05:31Z</time></trkpt>
<trkpt lat="30.067663" lon="100.467167">
<time>2015-08-06T05:05:32Z</time></trkpt>
<trkpt lat="30.067693" lon="100.467117">
<time>2015-08-06T05:05:33Z</time></trkpt>
<trkpt lat="30.067713" lon="100.467097">
<time>2015-08-06T05:05:34Z</time></trkpt>
<trkpt lat="30.067733" lon="100.467067">
<time>2015-08-06T05:05:35Z</time></trkpt>
<trkpt lat="30.067772" lon="100.467047">
<time>2015-08-06T05:05:36Z</time></trkpt>
<trkpt lat="30.067812" lon="100.467027">
<time>2015-08-06T05:05:37Z</time></trkpt>
<trkpt lat="30.067842" lon="100.467007">
<time>2015-08-06T05:05:38Z</time></trkpt>
<trkpt lat="30.067882" lon="100.466997">
<time>2015-08-06T05:05:39Z</time></trkpt>
<trkpt lat="30.067942" lon="100.466987">
<time>2015-08-06T05:05:40Z</time></trkpt>
<trkpt lat="30.068082" lon="100.466957">
<time>2015-08-06T05:05:41Z</time></trkpt>
<trkpt lat="30.068182" lon="100.466947">
<time>2015-08-06T05:05:42Z</time></trkpt>
<trkpt lat="30.068252" lon="100.466927">
<time>2015-08-06T05:05:43Z</time></trkpt>
<trkpt lat="30.068292" lon="100.466906">
<time>2015-08-06T05:05:44Z</time></trkpt>
<trkpt lat="30.068332" lon="100.466876">
<time>2015-08-06T05:05:45Z</time></trkpt>
<trkpt lat="30.068362" lon="100.466856">
<time>2015-08-06T05:05:46Z</time></trkpt>
<trkpt lat="30.068402" lon="100.466826">
<time>2015-08-06T05:05:47Z</time></trkpt>
<trkpt lat="30.068432" lon="100.466796">
<time>2015-08-06T05:05:48Z</time></trkpt>
<trkpt lat="30.068452" lon="100.466766">
<time>2015-08-06T05:05:49Z</time></trkpt>
<trkpt lat="30.068492" lon="100.466716">
<time>2015-08-06T05:05:50Z</time></trkpt>
<trkpt lat="30.068561" lon="100.466606">
<time>2015-08-06T05:05:51Z</time></trkpt>
<trkpt lat="30.068691" lon="100.466365">
<time>2015-08-06T05:05:52Z</time></trkpt>
<trkpt lat="30.06881" lon="100.466164">
<time>2015-08-06T05:05:53Z</time></trkpt>
<trkpt lat="30.069109" lon="100.465703">
<time>2015-08-06T05:05:54Z</time></trkpt>
<trkpt lat="30.069318" lon="100.465402">
<time>2015-08-06T05:05:55Z</time></trkpt>
<trkpt lat="30.069428" lon="100.465232">
<time>2015-08-06T05:05:56Z</time></trkpt>
<trkpt lat="30.069507" lon="100.465092">
<time>2015-08-06T05:05:57Z</time></trkpt>
<trkpt lat="30.069587" lon="100.464941">
<time>2015-08-06T05:05:58Z</time></trkpt>
<trkpt lat="30.069667" lon="100.464751">
<time>2015-08-06T05:05:59Z</time></trkpt>
<trkpt lat="30.069726" lon="100.46457">
<time>2015-08-06T05:06:00Z</time></trkpt>
<trkpt lat="30.069825" lon="100.464189">
<time>2015-08-06T05:06:01Z</time></trkpt>
<trkpt lat="30.069954" lon="100.463608">
<time>2015-08-06T05:06:02Z</time></trkpt>
<trkpt lat="30.070053" lon="100.463227">
<time>2015-08-06T05:06:03Z</time></trkpt>
<trkpt lat="30.070162" lon="100.462836">
<time>2015-08-06T05:06:04Z</time></trkpt>
<trkpt lat="30.07035" lon="100.462094">
<time>2015-08-06T05:06:05Z</time></trkpt>
<trkpt lat="30.070439" lon="100.461723">
<time>2015-08-06T05:06:06Z</time></trkpt>
<trkpt lat="30.070568" lon="100.461211">
<time>2015-08-06T05:06:07Z</time></trkpt>
<trkpt lat="30.070647" lon="100.460921">
<time>2015-08-06T05:06:08Z</time></trkpt>
<trkpt lat="30.070786" lon="100.460349">
<time>2015-08-06T05:06:09Z</time></trkpt>
<trkpt lat="30.070855" lon="100.460048">
<time>2015-08-06T05:06:10Z</time></trkpt>
<trkpt lat="30.071004" lon="100.459437">
<time>2015-08-06T05:06:11Z</time></trkpt>
<trkpt lat="30.071113" lon="100.459046">
<time>2015-08-06T05:06:12Z</time></trkpt>
<trkpt lat="30.071192" lon="100.458795">
<time>2015-08-06T05:06:13Z</time></trkpt>
<trkpt lat="30.071262" lon="100.458615">
<time>2015-08-06T05:06:14Z</time></trkpt>
<trkpt lat="30.07148" lon="100.458093">
<time>2015-08-06T05:06:15Z</time></trkpt>
<trkpt lat="30.071749" lon="100.457542">
<time>2015-08-06T05:06:16Z</time></trkpt>
<trkpt lat="30.072058" lon="100.45692">
<time>2015-08-06T05:06:17Z</time></trkpt>
<trkpt lat="30.072426" lon="100.456169">
<time>2015-08-06T05:06:18Z</time></trkpt>
<trkpt lat="30.072625" lon="100.455718">
<time>2015-08-06T05:06:19Z</time></trkpt>
<trkpt lat="30.072864" lon="100.455226">
<time>2015-08-06T05:06:20Z</time></trkpt>
<trkpt lat="30.073192" lon="100.454545">
<time>2015-08-06T05:06:21Z</time></trkpt>
<trkpt lat="30.073332" lon="100.454264">
<time>2015-08-06T05:06:22Z</time></trkpt>
<trkpt lat="30.073431" lon="100.454054">
<time>2015-08-06T05:06:23Z</time></trkpt>
<trkpt lat="30.07358" lon="100.453773">
<time>2015-08-06T05:06:24Z</time></trkpt>
<trkpt lat="30.07366" lon="100.453593">
<time>2015-08-06T05:06:25Z</time></trkpt>
<trkpt lat="30.07372" lon="100.453472">
<time>2015-08-06T05:06:26Z</time></trkpt>
<trkpt lat="30.073809" lon="100.453302">
<time>2015-08-06T05:06:27Z</time></trkpt>
<trkpt lat="30.073899" lon="100.453152">
<time>2015-08-06T05:06:28Z</time></trkpt>
<trkpt lat="30.073989" lon="100.452981">
<time>2015-08-06T05:06:29Z</time></trkpt>
<trkpt lat="30.074108" lon="100.452801">
<time>2015-08-06T05:06:30Z</time></trkpt>
<trkpt lat="30.074238" lon="100.45262">
<time>2015-08-06T05:06:31Z</time></trkpt>
<trkpt lat="30.074397" lon="100.4524">
<time>2015-08-06T05:06:32Z</time></trkpt>
<trkpt lat="30.074587" lon="100.452159">
<time>2015-08-06T05:06:33Z</time></trkpt>
<trkpt lat="30.074786" lon="100.451909">
<time>2015-08-06T05:06:34Z</time></trkpt>
<trkpt lat="30.075195" lon="100.451418">
<time>2015-08-06T05:06:35Z</time></trkpt>
<trkpt lat="30.075505" lon="100.451037">
<time>2015-08-06T05:06:36Z</time></trkpt>
<trkpt lat="30.075614" lon="100.450876">
<time>2015-08-06T05:06:37Z</time></trkpt>
<trkpt lat="30.075664" lon="100.450796">
<time>2015-08-06T05:06:38Z</time></trkpt>
<trkpt lat="30.075724" lon="100.450686">
<time>2015-08-06T05:06:39Z</time></trkpt>
<trkpt lat="30.075794" lon="100.450556">
<time>2015-08-06T05:06:40Z</time></trkpt>
<trkpt lat="30.075863" lon="100.450395">
<time>2015-08-06T05:06:41Z</time></trkpt>
<trkpt lat="30.075913" lon="100.450255">
<time>2015-08-06T05:06:42Z</time></trkpt>
<trkpt lat="30.075983" lon="100.450065">
<time>2015-08-06T05:06:43Z</time></trkpt>
<trkpt lat="30.076102" lon="100.449734">
<time>2015-08-06T05:06:44Z</time></trkpt>
<trkpt lat="30.076191" lon="100.449433">
<time>2015-08-06T05:06:45Z</time></trkpt>
<trkpt lat="30.076281" lon="100.449193">
<time>2015-08-06T05:06:46Z</time></trkpt>
<trkpt lat="30.07634" lon="100.449012">
<time>2015-08-06T05:06:47Z</time></trkpt>
<trkpt lat="30.07645" lon="100.448742">
<time>2015-08-06T05:06:48Z</time></trkpt>
<trkpt lat="30.076529" lon="100.448551">
<time>2015-08-06T05:06:49Z</time></trkpt>
<trkpt lat="30.076609" lon="100.448401">
<time>2015-08-06T05:06:50Z</time></trkpt>
<trkpt lat="30.076729" lon="100.44816">
<time>2015-08-06T05:06:51Z</time></trkpt>
<trkpt lat="30.076838" lon="100.44797">
<time>2015-08-06T05:06:52Z</time></trkpt>
<trkpt lat="30.076968" lon="100.4477">
<time>2015-08-06T05:06:53Z</time></trkpt>
<trkpt lat="30.077057" lon="100.447529">
<time>2015-08-06T05:06:54Z</time></trkpt>
<trkpt lat="30.077127" lon="100.447369">
<time>2015-08-06T05:06:55Z</time></trkpt>
<trkpt lat="30.077167" lon="100.447269">
<time>2015-08-06T05:06:56Z</time></trkpt>
<trkpt lat="30.077197" lon="100.447198">
<time>2015-08-06T05:06:57Z</time></trkpt>
<trkpt lat="30.077306" lon="100.446888">
<time>2015-08-06T05:06:58Z</time></trkpt>
<trkpt lat="30.077415" lon="100.446577">
<time>2015-08-06T05:06:59Z</time></trkpt>
<trkpt lat="30.077555" lon="100.446186">
<time>2015-08-06T05:07:00Z</time></trkpt>
<trkpt lat="30.077624" lon="100.446006">
<time>2015-08-06T05:07:01Z</time></trkpt>
<trkpt lat="30.077734" lon="100.445756">
<time>2015-08-06T05:07:02Z</time></trkpt>
<trkpt lat="30.078013" lon="100.445204">
<time>2015-08-06T05:07:03Z</time></trkpt>
<trkpt lat="30.078342" lon="100.444573">
<time>2015-08-06T05:07:04Z</time></trkpt>
<trkpt lat="30.078621" lon="100.444012">
<time>2015-08-06T05:07:05Z</time></trkpt>
<trkpt lat="30.07873" lon="100.443802">
<time>2015-08-06T05:07:06Z</time></trkpt>
<trkpt lat="30.07881" lon="100.443641">
<time>2015-08-06T05:07:07Z</time></trkpt>
<trkpt lat="30.07886" lon="100.443511">
<time>2015-08-06T05:07:08Z</time></trkpt>
<trkpt lat="30.078909" lon="100.443381">
<time>2015-08-06T05:07:09Z</time></trkpt>
<trkpt lat="30.078939" lon="100.443311">
<time>2015-08-06T05:07:10Z</time></trkpt>
<trkpt lat="30.078969" lon="100.443201">
<time>2015-08-06T05:07:11Z</time></trkpt>
<trkpt lat="30.079019" lon="100.44304">
<time>2015-08-06T05:07:12Z</time></trkpt>
<trkpt lat="30.079108" lon="100.44271">
<time>2015-08-06T05:07:13Z</time></trkpt>
<trkpt lat="30.079207" lon="100.442309">
<time>2015-08-06T05:07:14Z</time></trkpt>
<trkpt lat="30.079337" lon="100.441848">
<time>2015-08-06T05:07:15Z</time></trkpt>
<trkpt lat="30.079406" lon="100.441547">
<time>2015-08-06T05:07:16Z</time></trkpt>
<trkpt lat="30.079516" lon="100.441207">
<time>2015-08-06T05:07:17Z</time></trkpt>
<trkpt lat="30.079595" lon="100.440996">
<time>2015-08-06T05:07:18Z</time></trkpt>
<trkpt lat="30.079655" lon="100.440846">
<time>2015-08-06T05:07:19Z</time></trkpt>
<trkpt lat="30.079764" lon="100.440586">
<time>2015-08-06T05:07:20Z</time></trkpt>
<trkpt lat="30.079894" lon="100.440315">
<time>2015-08-06T05:07:21Z</time></trkpt>
<trkpt lat="30.079954" lon="100.440185">
<time>2015-08-06T05:07:22Z</time></trkpt>
<trkpt lat="30.080153" lon="100.439834">
<time>2015-08-06T05:07:23Z</time></trkpt>
<trkpt lat="30.080382" lon="100.439394">
<time>2015-08-06T05:07:24Z</time></trkpt>
<trkpt lat="30.080422" lon="100.439303">
<time>2015-08-06T05:07:25Z</time></trkpt>
<trkpt lat="30.080482" lon="100.439163">
<time>2015-08-06T05:07:26Z</time></trkpt>
<trkpt lat="30.080592" lon="100.438913">
<time>2015-08-06T05:07:27Z</time></trkpt>
<trkpt lat="30.080751" lon="100.438492">
<time>2015-08-06T05:07:28Z</time></trkpt>
<trkpt lat="30.080831" lon="100.438302">
<time>2015-08-06T05:07:29Z</time></trkpt>
<trkpt lat="30.08092" lon="100.438081">
<time>2015-08-06T05:07:30Z</time></trkpt>
<trkpt lat="30.08103" lon="100.437801">
<time>2015-08-06T05:07:31Z</time></trkpt>
<trkpt lat="30.08108" lon="100.437681">
<time>2015-08-06T05:07:32Z</time></trkpt>
<trkpt lat="30.081159" lon="100.43751">
<time>2015-08-06T05:07:33Z</time></trkpt>
<trkpt lat="30.081239" lon="100.43738">
<time>2015-08-06T05:07:34Z</time></trkpt>
<trkpt lat="30.081309" lon="100.43726">
<time>2015-08-06T05:07:35Z</time></trkpt>
<trkpt lat="30.081419" lon="100.4371">
<time>2015-08-06T05:07:36Z</time></trkpt>
<trkpt lat="30.081648" lon="100.436709">
<time>2015-08-06T05:07:37Z</time></trkpt>
<trkpt lat="30.081788" lon="100.436489">
<time>2015-08-06T05:07:38Z</time></trkpt>
<trkpt lat="30.081957" lon="100.436218">
<time>2015-08-06T05:07:39Z</time></trkpt>
<trkpt lat="30.082127" lon="100.435918">
<time>2015-08-06T05:07:40Z</time></trkpt>
<trkpt lat="30.082227" lon="100.435758">
<time>2015-08-06T05:07:41Z</time></trkpt>
<trkpt lat="30.082326" lon="100.435597">
<time>2015-08-06T05:07:42Z</time></trkpt>
<trkpt lat="30.082556" lon="100.435177">
<time>2015-08-06T05:07:43Z</time></trkpt>
<trkpt lat="30.082645" lon="100.434986">
<time>2015-08-06T05:07:44Z</time></trkpt>
<trkpt lat="30.082725" lon="100.434826">
<time>2015-08-06T05:07:45Z</time></trkpt>
<trkpt lat="30.082775" lon="100.434706">
<time>2015-08-06T05:07:46Z</time></trkpt>
<trkpt lat="30.082914" lon="100.434345">
<time>2015-08-06T05:07:47Z</time></trkpt>
<trkpt lat="30.083154" lon="100.433724">
<time>2015-08-06T05:07:48Z</time></trkpt>
<trkpt lat="30.083313" lon="100.433314">
<time>2015-08-06T05:07:49Z</time></trkpt>
<trkpt lat="30.083373" lon="100.433164">
<time>2015-08-06T05:07:50Z</time></trkpt>
<trkpt lat="30.083881" lon="100.431862">
<time>2015-08-06T05:07:51Z</time></trkpt>
<trkpt lat="30.08403" lon="100.431501">
<time>2015-08-06T05:07:52Z</time></trkpt>
<trkpt lat="30.084828" lon="100.429459">
<time>2015-08-06T05:07:53Z</time></trkpt>
<trkpt lat="30.085934" lon="100.426625">
<time>2015-08-06T05:07:54Z</time></trkpt>
<trkpt lat="30.086463" lon="100.425274">
<time>2015-08-06T05:07:55Z</time></trkpt>
<trkpt lat="30.086682" lon="100.424743">
<time>2015-08-06T05:07:56Z</time></trkpt>
<trkpt lat="30.087081" lon="100.423712">
<time>2015-08-06T05:07:57Z</time></trkpt>
<trkpt lat="30.08746" lon="100.422741">
<time>2015-08-06T05:07:58Z</time></trkpt>
<trkpt lat="30.08759" lon="100.422401">
<time>2015-08-06T05:07:59Z</time></trkpt>
<trkpt lat="30.08763" lon="100.422261">
<time>2015-08-06T05:08:00Z</time></trkpt>
<trkpt lat="30.08768" lon="100.422101">
<time>2015-08-06T05:08:01Z</time></trkpt>
<trkpt lat="30.087729" lon="100.42186">
<time>2015-08-06T05:08:02Z</time></trkpt>
<trkpt lat="30.087749" lon="100.42173">
<time>2015-08-06T05:08:03Z</time></trkpt>
<trkpt lat="30.087759" lon="100.42168">
<time>2015-08-06T05:08:04Z</time></trkpt>
<trkpt lat="30.087759" lon="100.42165">
<time>2015-08-06T05:08:05Z</time></trkpt>
<trkpt lat="30.087779" lon="100.42143">
<time>2015-08-06T05:08:06Z</time></trkpt>
<trkpt lat="30.087779" lon="100.42131">
<time>2015-08-06T05:08:07Z</time></trkpt>
<trkpt lat="30.087769" lon="100.42123">
<time>2015-08-06T05:08:08Z</time></trkpt>
<trkpt lat="30.087759" lon="100.42115">
<time>2015-08-06T05:08:09Z</time></trkpt>
<trkpt lat="30.087729" lon="100.42102">
<time>2015-08-06T05:08:10Z</time></trkpt>
<trkpt lat="30.087688" lon="100.420889">
<time>2015-08-06T05:08:11Z</time></trkpt>
<trkpt lat="30.087668" lon="100.420809">
<time>2015-08-06T05:08:12Z</time></trkpt>
<trkpt lat="30.087648" lon="100.420769">
<time>2015-08-06T05:08:13Z</time></trkpt>
<trkpt lat="30.087618" lon="100.420669">
<time>2015-08-06T05:08:14Z</time></trkpt>
<trkpt lat="30.087588" lon="100.420589">
<time>2015-08-06T05:08:15Z</time></trkpt>
<trkpt lat="30.087548" lon="100.420529">
<time>2015-08-06T05:08:16Z</time></trkpt>
<trkpt lat="30.087518" lon="100.420469">
<time>2015-08-06T05:08:17Z</time></trkpt>
<trkpt lat="30.087488" lon="100.420419">
<time>2015-08-06T05:08:18Z</time></trkpt>
<trkpt lat="30.087428" lon="100.420349">
<time>2015-08-06T05:08:19Z</time></trkpt>
<trkpt lat="30.087388" lon="100.420309">
<time>2015-08-06T05:08:20Z</time></trkpt>
<trkpt lat="30.087328" lon="100.420249">
<time>2015-08-06T05:08:21Z</time></trkpt>
<trkpt lat="30.087198" lon="100.420149">
<time>2015-08-06T05:08:22Z</time></trkpt>
<trkpt lat="30.087118" lon="100.420099">
<time>2015-08-06T05:08:23Z</time></trkpt>
<trkpt lat="30.087028" lon="100.420049">
<time>2015-08-06T05:08:24Z</time></trkpt>
<trkpt lat="30.086938" lon="100.420009">
<time>2015-08-06T05:08:25Z</time></trkpt>
<trkpt lat="30.086838" lon="100.419979">
<time>2015-08-06T05:08:26Z</time></trkpt>
<trkpt lat="30.086678" lon="100.419919">
<time>2015-08-06T05:08:27Z</time></trkpt>
<trkpt lat="30.086578" lon="100.419879">
<time>2015-08-06T05:08:28Z</time></trkpt>
<trkpt lat="30.086498" lon="100.419839">
<time>2015-08-06T05:08:29Z</time></trkpt>
<trkpt lat="30.086408" lon="100.419789">
<time>2015-08-06T05:08:30Z</time></trkpt>
<trkpt lat="30.086317" lon="100.419739">
<time>2015-08-06T05:08:31Z</time></trkpt>
<trkpt lat="30.086177" lon="100.419649">
<time>2015-08-06T05:08:32Z</time></trkpt>
<trkpt lat="30.086047" lon="100.419558">
<time>2015-08-06T05:08:33Z</time></trkpt>
<trkpt lat="30.085967" lon="100.419498">
<time>2015-08-06T05:08:34Z</time></trkpt>
<trkpt lat="30.085747" lon="100.419348">
<time>2015-08-06T05:08:35Z</time></trkpt>
<trkpt lat="30.085647" lon="100.419268">
<time>2015-08-06T05:08:36Z</time></trkpt>
<trkpt lat="30.085537" lon="100.419198">
<time>2015-08-06T05:08:37Z</time></trkpt>
<trkpt lat="30.085427" lon="100.419118">
<time>2015-08-06T05:08:38Z</time></trkpt>
<trkpt lat="30.085377" lon="100.419088">
<time>2015-08-06T05:08:39Z</time></trkpt>
<trkpt lat="30.085327" lon="100.419058">
<time>2015-08-06T05:08:40Z</time></trkpt>
<trkpt lat="30.085237" lon="100.419008">
<time>2015-08-06T05:08:41Z</time></trkpt>
<trkpt lat="30.085077" lon="100.418948">
<time>2015-08-06T05:08:42Z</time></trkpt>
<trkpt lat="30.084727" lon="100.418818">
<time>2015-08-06T05:08:43Z</time></trkpt>
<trkpt lat="30.084057" lon="100.418608">
<time>2015-08-06T05:08:44Z</time></trkpt>
<trkpt lat="30.083376" lon="100.418388">
<time>2015-08-06T05:08:45Z</time></trkpt>
<trkpt lat="30.082666" lon="100.418158">
<time>2015-08-06T05:08:46Z</time></trkpt>
<trkpt lat="30.082476" lon="100.418087">
<time>2015-08-06T05:08:47Z</time></trkpt>
<trkpt lat="30.080986" lon="100.417587">
<time>2015-08-06T05:08:48Z</time></trkpt>
<trkpt lat="30.079565" lon="100.417067">
<time>2015-08-06T05:08:49Z</time></trkpt>
<trkpt lat="30.078825" lon="100.416747">
<time>2015-08-06T05:08:50Z</time></trkpt>
<trkpt lat="30.078595" lon="100.416637">
<time>2015-08-06T05:08:51Z</time></trkpt>
<trkpt lat="30.078465" lon="100.416547">
<time>2015-08-06T05:08:52Z</time></trkpt>
<trkpt lat="30.078365" lon="100.416467">
<time>2015-08-06T05:08:53Z</time></trkpt>
<trkpt lat="30.077794" lon="100.415846">
<time>2015-08-06T05:08:54Z</time></trkpt>
<trkpt lat="30.076814" lon="100.414836">
<time>2015-08-06T05:08:55Z</time></trkpt>
<trkpt lat="30.076193" lon="100.414205">
<time>2015-08-06T05:08:56Z</time></trkpt>
<trkpt lat="30.075673" lon="100.413665">
<time>2015-08-06T05:08:57Z</time></trkpt>
<trkpt lat="30.075303" lon="100.413325">
<time>2015-08-06T05:08:58Z</time></trkpt>
<trkpt lat="30.074412" lon="100.412585">
<time>2015-08-06T05:08:59Z</time></trkpt>
<trkpt lat="30.074172" lon="100.412335">
<time>2015-08-06T05:09:00Z</time></trkpt>
<trkpt lat="30.073972" lon="100.412084">
<time>2015-08-06T05:09:01Z</time></trkpt>
<trkpt lat="30.073802" lon="100.411824">
<time>2015-08-06T05:09:02Z</time></trkpt>
<trkpt lat="30.073622" lon="100.411474">
<time>2015-08-06T05:09:03Z</time></trkpt>
<trkpt lat="30.073542" lon="100.411304">
<time>2015-08-06T05:09:04Z</time></trkpt>
<trkpt lat="30.073462" lon="100.411194">
<time>2015-08-06T05:09:05Z</time></trkpt>
<trkpt lat="30.073372" lon="100.411084">
<time>2015-08-06T05:09:06Z</time></trkpt>
<trkpt lat="30.073282" lon="100.410974">
<time>2015-08-06T05:09:07Z</time></trkpt>
<trkpt lat="30.072771" lon="100.410514">
<time>2015-08-06T05:09:08Z</time></trkpt>
<trkpt lat="30.072381" lon="100.410154">
<time>2015-08-06T05:09:09Z</time></trkpt>
<trkpt lat="30.072101" lon="100.409864">
<time>2015-08-06T05:09:10Z</time></trkpt>
<trkpt lat="30.071931" lon="100.409654">
<time>2015-08-06T05:09:11Z</time></trkpt>
<trkpt lat="30.071711" lon="100.409334">
<time>2015-08-06T05:09:12Z</time></trkpt>
<trkpt lat="30.071541" lon="100.409024">
<time>2015-08-06T05:09:13Z</time></trkpt>
<trkpt lat="30.071451" lon="100.408824">
<time>2015-08-06T05:09:14Z</time></trkpt>
<trkpt lat="30.071341" lon="100.408603">
<time>2015-08-06T05:09:15Z</time></trkpt>
<trkpt lat="30.071251" lon="100.408453">
<time>2015-08-06T05:09:16Z</time></trkpt>
<trkpt lat="30.071161" lon="100.408293">
<time>2015-08-06T05:09:17Z</time></trkpt>
<trkpt lat="30.071041" lon="100.408133">
<time>2015-08-06T05:09:18Z</time></trkpt>
<trkpt lat="30.07071" lon="100.407743">
<time>2015-08-06T05:09:19Z</time></trkpt>
<trkpt lat="30.07051" lon="100.407523">
<time>2015-08-06T05:09:20Z</time></trkpt>
<trkpt lat="30.07032" lon="100.407353">
<time>2015-08-06T05:09:21Z</time></trkpt>
<trkpt lat="30.07019" lon="100.407253">
<time>2015-08-06T05:09:22Z</time></trkpt>
<trkpt lat="30.07007" lon="100.407193">
<time>2015-08-06T05:09:23Z</time></trkpt>
<trkpt lat="30.06997" lon="100.407163">
<time>2015-08-06T05:09:24Z</time></trkpt>
<trkpt lat="30.06982" lon="100.407133">
<time>2015-08-06T05:09:25Z</time></trkpt>
<trkpt lat="30.06937" lon="100.407073">
<time>2015-08-06T05:09:26Z</time></trkpt>
<trkpt lat="30.06918" lon="100.407043">
<time>2015-08-06T05:09:27Z</time></trkpt>
<trkpt lat="30.06907" lon="100.407003">
<time>2015-08-06T05:09:28Z</time></trkpt>
<trkpt lat="30.06851" lon="100.406713">
<time>2015-08-06T05:09:29Z</time></trkpt>
<trkpt lat="30.06822" lon="100.406533">
<time>2015-08-06T05:09:30Z</time></trkpt>
<trkpt lat="30.06811" lon="100.406453">
<time>2015-08-06T05:09:31Z</time></trkpt>
<trkpt lat="30.06801" lon="100.406363">
<time>2015-08-06T05:09:32Z</time></trkpt>
<trkpt lat="30.06793" lon="100.406273">
<time>2015-08-06T05:09:33Z</time></trkpt>
<trkpt lat="30.06777" lon="100.406063">
<time>2015-08-06T05:09:34Z</time></trkpt>
<trkpt lat="30.06751" lon="100.405673">
<time>2015-08-06T05:09:35Z</time></trkpt>
<trkpt lat="30.06711" lon="100.405113">
<time>2015-08-06T05:09:36Z</time></trkpt>
<trkpt lat="30.0667" lon="100.404563">
<time>2015-08-06T05:09:37Z</time></trkpt>
<trkpt lat="30.06625" lon="100.404033">
<time>2015-08-06T05:09:38Z</time></trkpt>
<trkpt lat="30.06575" lon="100.403433">
<time>2015-08-06T05:09:39Z</time></trkpt>
<trkpt lat="30.065159" lon="100.402633">
<time>2015-08-06T05:09:40Z</time></trkpt>
<trkpt lat="30.063919" lon="100.400934">
<time>2015-08-06T05:09:41Z</time></trkpt>
<trkpt lat="30.063669" lon="100.400584">
<time>2015-08-06T05:09:42Z</time></trkpt>
<trkpt lat="30.063449" lon="100.400194">
<time>2015-08-06T05:09:43Z</time></trkpt>
<trkpt lat="30.063319" lon="100.399964">
<time>2015-08-06T05:09:44Z</time></trkpt>
<trkpt lat="30.063119" lon="100.399674">
<time>2015-08-06T05:09:45Z</time></trkpt>
<trkpt lat="30.062969" lon="100.399484">
<time>2015-08-06T05:09:46Z</time></trkpt>
<trkpt lat="30.062779" lon="100.399274">
<time>2015-08-06T05:09:47Z</time></trkpt>
<trkpt lat="30.062659" lon="100.399144">
<time>2015-08-06T05:09:48Z</time></trkpt>
<trkpt lat="30.062509" lon="100.399034">
<time>2015-08-06T05:09:49Z</time></trkpt>
<trkpt lat="30.062279" lon="100.398884">
<time>2015-08-06T05:09:50Z</time></trkpt>
<trkpt lat="30.061869" lon="100.398634">
<time>2015-08-06T05:09:51Z</time></trkpt>
<trkpt lat="30.061649" lon="100.398474">
<time>2015-08-06T05:09:52Z</time></trkpt>
<trkpt lat="30.06126" lon="100.398134">
<time>2015-08-06T05:09:53Z</time></trkpt>
<trkpt lat="30.06105" lon="100.397954">
<time>2015-08-06T05:09:54Z</time></trkpt>
<trkpt lat="30.06091" lon="100.397854">
<time>2015-08-06T05:09:55Z</time></trkpt>
<trkpt lat="30.06082" lon="100.397784">
<time>2015-08-06T05:09:56Z</time></trkpt>
<trkpt lat="30.06065" lon="100.397694">
<time>2015-08-06T05:09:57Z</time></trkpt>
<trkpt lat="30.06045" lon="100.397594">
<time>2015-08-06T05:09:58Z</time></trkpt>
<trkpt lat="30.06019" lon="100.397465">
<time>2015-08-06T05:09:59Z</time></trkpt>
<trkpt lat="30.06003" lon="100.397355">
<time>2015-08-06T05:10:00Z</time></trkpt>
<trkpt lat="30.0596" lon="100.397025">
<time>2015-08-06T05:10:01Z</time></trkpt>
<trkpt lat="30.05918" lon="100.396635">
<time>2015-08-06T05:10:02Z</time></trkpt>
<trkpt lat="30.05902" lon="100.396465">
<time>2015-08-06T05:10:03Z</time></trkpt>
<trkpt lat="30.05883" lon="100.396235">
<time>2015-08-06T05:10:04Z</time></trkpt>
<trkpt lat="30.0587" lon="100.396085">
<time>2015-08-06T05:10:05Z</time></trkpt>
<trkpt lat="30.0586" lon="100.396005">
<time>2015-08-06T05:10:06Z</time></trkpt>
<trkpt lat="30.05852" lon="100.395945">
<time>2015-08-06T05:10:07Z</time></trkpt>
<trkpt lat="30.05842" lon="100.395875">
<time>2015-08-06T05:10:08Z</time></trkpt>
<trkpt lat="30.05817" lon="100.395725">
<time>2015-08-06T05:10:09Z</time></trkpt>
<trkpt lat="30.05741" lon="100.395355">
<time>2015-08-06T05:10:10Z</time></trkpt>
<trkpt lat="30.05684" lon="100.395016">
<time>2015-08-06T05:10:11Z</time></trkpt>
<trkpt lat="30.05664" lon="100.394876">
<time>2015-08-06T05:10:12Z</time></trkpt>
<trkpt lat="30.05652" lon="100.394786">
<time>2015-08-06T05:10:13Z</time></trkpt>
<trkpt lat="30.05618" lon="100.394466">
<time>2015-08-06T05:10:14Z</time></trkpt>
<trkpt lat="30.055031" lon="100.393376">
<time>2015-08-06T05:10:15Z</time></trkpt>
<trkpt lat="30.053911" lon="100.392297">
<time>2015-08-06T05:10:16Z</time></trkpt>
<trkpt lat="30.052761" lon="100.391188">
<time>2015-08-06T05:10:17Z</time></trkpt>
<trkpt lat="30.051932" lon="100.390388">
<time>2015-08-06T05:10:18Z</time></trkpt>
<trkpt lat="30.051492" lon="100.389959">
<time>2015-08-06T05:10:19Z</time></trkpt>
<trkpt lat="30.050722" lon="100.389039">
<time>2015-08-06T05:10:20Z</time></trkpt>
<trkpt lat="30.050053" lon="100.38821">
<time>2015-08-06T05:10:21Z</time></trkpt>
<trkpt lat="30.049893" lon="100.388">
<time>2015-08-06T05:10:22Z</time></trkpt>
<trkpt lat="30.049743" lon="100.38783">
<time>2015-08-06T05:10:23Z</time></trkpt>
<trkpt lat="30.049613" lon="100.3877">
<time>2015-08-06T05:10:24Z</time></trkpt>
<trkpt lat="30.049473" lon="100.387571">
<time>2015-08-06T05:10:25Z</time></trkpt>
<trkpt lat="30.049113" lon="100.387271">
<time>2015-08-06T05:10:26Z</time></trkpt>
<trkpt lat="30.048763" lon="100.386991">
<time>2015-08-06T05:10:27Z</time></trkpt>
<trkpt lat="30.048633" lon="100.386861">
<time>2015-08-06T05:10:28Z</time></trkpt>
<trkpt lat="30.048494" lon="100.386721">
<time>2015-08-06T05:10:29Z</time></trkpt>
<trkpt lat="30.048244" lon="100.386382">
<time>2015-08-06T05:10:30Z</time></trkpt>
<trkpt lat="30.048144" lon="100.386242">
<time>2015-08-06T05:10:31Z</time></trkpt>
<trkpt lat="30.048044" lon="100.386072">
<time>2015-08-06T05:10:32Z</time></trkpt>
<trkpt lat="30.047964" lon="100.385882">
<time>2015-08-06T05:10:33Z</time></trkpt>
<trkpt lat="30.047864" lon="100.385602">
<time>2015-08-06T05:10:34Z</time></trkpt>
<trkpt lat="30.047625" lon="100.384863">
<time>2015-08-06T05:10:35Z</time></trkpt>
<trkpt lat="30.047325" lon="100.384014">
<time>2015-08-06T05:10:36Z</time></trkpt>
<trkpt lat="30.047235" lon="100.383794">
<time>2015-08-06T05:10:37Z</time></trkpt>
<trkpt lat="30.047186" lon="100.383664">
<time>2015-08-06T05:10:38Z</time></trkpt>
<trkpt lat="30.047136" lon="100.383564">
<time>2015-08-06T05:10:39Z</time></trkpt>
<trkpt lat="30.047086" lon="100.383454">
<time>2015-08-06T05:10:40Z</time></trkpt>
<trkpt lat="30.046976" lon="100.383304">
<time>2015-08-06T05:10:41Z</time></trkpt>
<trkpt lat="30.046756" lon="100.383045">
<time>2015-08-06T05:10:42Z</time></trkpt>
<trkpt lat="30.046586" lon="100.382875">
<time>2015-08-06T05:10:43Z</time></trkpt>
<trkpt lat="30.046476" lon="100.382795">
<time>2015-08-06T05:10:44Z</time></trkpt>
<trkpt lat="30.046366" lon="100.382725">
<time>2015-08-06T05:10:45Z</time></trkpt>
<trkpt lat="30.046216" lon="100.382635">
<time>2015-08-06T05:10:46Z</time></trkpt>
<trkpt lat="30.045976" lon="100.382535">
<time>2015-08-06T05:10:47Z</time></trkpt>
<trkpt lat="30.045546" lon="100.382395">
<time>2015-08-06T05:10:48Z</time></trkpt>
<trkpt lat="30.045207" lon="100.382276">
<time>2015-08-06T05:10:49Z</time></trkpt>
<trkpt lat="30.044957" lon="100.382236">
<time>2015-08-06T05:10:50Z</time></trkpt>
<trkpt lat="30.044627" lon="100.382206">
<time>2015-08-06T05:10:51Z</time></trkpt>
<trkpt lat="30.044107" lon="100.382216">
<time>2015-08-06T05:10:52Z</time></trkpt>
<trkpt lat="30.043376" lon="100.382326">
<time>2015-08-06T05:10:53Z</time></trkpt>
<trkpt lat="30.043236" lon="100.382336">
<time>2015-08-06T05:10:54Z</time></trkpt>
<trkpt lat="30.043146" lon="100.382346">
<time>2015-08-06T05:10:55Z</time></trkpt>
<trkpt lat="30.043026" lon="100.382365">
<time>2015-08-06T05:10:56Z</time></trkpt>
<trkpt lat="30.042956" lon="100.382385">
<time>2015-08-06T05:10:57Z</time></trkpt>
<trkpt lat="30.042876" lon="100.382425">
<time>2015-08-06T05:10:58Z</time></trkpt>
<trkpt lat="30.042686" lon="100.382535">
<time>2015-08-06T05:10:59Z</time></trkpt>
<trkpt lat="30.042486" lon="100.382655">
<time>2015-08-06T05:11:00Z</time></trkpt>
<trkpt lat="30.042406" lon="100.382695">
<time>2015-08-06T05:11:01Z</time></trkpt>
<trkpt lat="30.042326" lon="100.382725">
<time>2015-08-06T05:11:02Z</time></trkpt>
<trkpt lat="30.042266" lon="100.382725">
<time>2015-08-06T05:11:03Z</time></trkpt>
<trkpt lat="30.042216" lon="100.382715">
<time>2015-08-06T05:11:04Z</time></trkpt>
<trkpt lat="30.042166" lon="100.382705">
<time>2015-08-06T05:11:05Z</time></trkpt>
<trkpt lat="30.042116" lon="100.382675">
<time>2015-08-06T05:11:06Z</time></trkpt>
<trkpt lat="30.042026" lon="100.382615">
<time>2015-08-06T05:11:07Z</time></trkpt>
<trkpt lat="30.041676" lon="100.382316">
<time>2015-08-06T05:11:08Z</time></trkpt>
<trkpt lat="30.041067" lon="100.381816">
<time>2015-08-06T05:11:09Z</time></trkpt>
<trkpt lat="30.040627" lon="100.381457">
<time>2015-08-06T05:11:10Z</time></trkpt>
<trkpt lat="30.040337" lon="100.381197">
<time>2015-08-06T05:11:11Z</time></trkpt>
<trkpt lat="30.040107" lon="100.380997">
<time>2015-08-06T05:11:12Z</time></trkpt>
<trkpt lat="30.040088" lon="100.380977">
<time>2015-08-06T05:11:13Z</time></trkpt>
<trkpt lat="30.039898" lon="100.380777">
<time>2015-08-06T05:11:14Z</time></trkpt>
<trkpt lat="30.039358" lon="100.380128">
<time>2015-08-06T05:11:15Z</time></trkpt>
<trkpt lat="30.03776" lon="100.37818">
<time>2015-08-06T05:11:16Z</time></trkpt>
<trkpt lat="30.036172" lon="100.376263">
<time>2015-08-06T05:11:17Z</time></trkpt>
<trkpt lat="30.036002" lon="100.376033">
<time>2015-08-06T05:11:18Z</time></trkpt>
<trkpt lat="30.035263" lon="100.375044">
<time>2015-08-06T05:11:19Z</time></trkpt>
<trkpt lat="30.035083" lon="100.374785">
<time>2015-08-06T05:11:20Z</time></trkpt>
<trkpt lat="30.034165" lon="100.373507">
<time>2015-08-06T05:11:21Z</time></trkpt>
<trkpt lat="30.033116" lon="100.372069">
<time>2015-08-06T05:11:22Z</time></trkpt>
<trkpt lat="30.032167" lon="100.37092">
<time>2015-08-06T05:11:23Z</time></trkpt>
<trkpt lat="30.031429" lon="100.370012">
<time>2015-08-06T05:11:24Z</time></trkpt>
<trkpt lat="30.031119" lon="100.369642">
<time>2015-08-06T05:11:25Z</time></trkpt>
<trkpt lat="30.030979" lon="100.369433">
<time>2015-08-06T05:11:26Z</time></trkpt>
<trkpt lat="30.03085" lon="100.369213">
<time>2015-08-06T05:11:27Z</time></trkpt>
<trkpt lat="30.03071" lon="100.368923">
<time>2015-08-06T05:11:28Z</time></trkpt>
<trkpt lat="30.030022" lon="100.367386">
<time>2015-08-06T05:11:29Z</time></trkpt>
<trkpt lat="30.029852" lon="100.366986">
<time>2015-08-06T05:11:30Z</time></trkpt>
<trkpt lat="30.029793" lon="100.366787">
<time>2015-08-06T05:11:31Z</time></trkpt>
<trkpt lat="30.029753" lon="100.366577">
<time>2015-08-06T05:11:32Z</time></trkpt>
<trkpt lat="30.029743" lon="100.366367">
<time>2015-08-06T05:11:33Z</time></trkpt>
<trkpt lat="30.029753" lon="100.366158">
<time>2015-08-06T05:11:34Z</time></trkpt>
<trkpt lat="30.029875" lon="100.36486">
<time>2015-08-06T05:11:35Z</time></trkpt>
<trkpt lat="30.030058" lon="100.362794">
<time>2015-08-06T05:11:36Z</time></trkpt>
<trkpt lat="30.03017" lon="100.361496">
<time>2015-08-06T05:11:37Z</time></trkpt>
<trkpt lat="30.030231" lon="100.360807">
<time>2015-08-06T05:11:38Z</time></trkpt>
<trkpt lat="30.030343" lon="100.359539">
<time>2015-08-06T05:11:39Z</time></trkpt>
<trkpt lat="30.030383" lon="100.35904">
<time>2015-08-06T05:11:40Z</time></trkpt>
<trkpt lat="30.030414" lon="100.358611">
<time>2015-08-06T05:11:41Z</time></trkpt>
<trkpt lat="30.030415" lon="100.358332">
<time>2015-08-06T05:11:42Z</time></trkpt>
<trkpt lat="30.030396" lon="100.357513">
<time>2015-08-06T05:11:43Z</time></trkpt>
<trkpt lat="30.030299" lon="100.355567">
<time>2015-08-06T05:11:44Z</time></trkpt>
<trkpt lat="30.030251" lon="100.354439">
<time>2015-08-06T05:11:45Z</time></trkpt>
<trkpt lat="30.030222" lon="100.35377">
<time>2015-08-06T05:11:46Z</time></trkpt>
<trkpt lat="30.030212" lon="100.353421">
<time>2015-08-06T05:11:47Z</time></trkpt>
<trkpt lat="30.030203" lon="100.353202">
<time>2015-08-06T05:11:48Z</time></trkpt>
<trkpt lat="30.030223" lon="100.352982">
<time>2015-08-06T05:11:49Z</time></trkpt>
<trkpt lat="30.030274" lon="100.352663">
<time>2015-08-06T05:11:50Z</time></trkpt>
<trkpt lat="30.030354" lon="100.352313">
<time>2015-08-06T05:11:51Z</time></trkpt>
<trkpt lat="30.030525" lon="100.351675">
<time>2015-08-06T05:11:52Z</time></trkpt>
<trkpt lat="30.030626" lon="100.351305">
<time>2015-08-06T05:11:53Z</time></trkpt>
<trkpt lat="30.031028" lon="100.350098">
<time>2015-08-06T05:11:54Z</time></trkpt>
<trkpt lat="30.031169" lon="100.349609">
<time>2015-08-06T05:11:55Z</time></trkpt>
<trkpt lat="30.03129" lon="100.34915">
<time>2015-08-06T05:11:56Z</time></trkpt>
<trkpt lat="30.031511" lon="100.348342">
<time>2015-08-06T05:11:57Z</time></trkpt>
<trkpt lat="30.031652" lon="100.347793">
<time>2015-08-06T05:11:58Z</time></trkpt>
<trkpt lat="30.031732" lon="100.347473">
<time>2015-08-06T05:11:59Z</time></trkpt>
<trkpt lat="30.031773" lon="100.347234">
<time>2015-08-06T05:12:00Z</time></trkpt>
<trkpt lat="30.031813" lon="100.346945">
<time>2015-08-06T05:12:01Z</time></trkpt>
<trkpt lat="30.031864" lon="100.346476">
<time>2015-08-06T05:12:02Z</time></trkpt>
<trkpt lat="30.031915" lon="100.346156">
<time>2015-08-06T05:12:03Z</time></trkpt>
<trkpt lat="30.031965" lon="100.345957">
<time>2015-08-06T05:12:04Z</time></trkpt>
<trkpt lat="30.032066" lon="100.345687">
<time>2015-08-06T05:12:05Z</time></trkpt>
<trkpt lat="30.032296" lon="100.345248">
<time>2015-08-06T05:12:06Z</time></trkpt>
<trkpt lat="30.032487" lon="100.344869">
<time>2015-08-06T05:12:07Z</time></trkpt>
<trkpt lat="30.032628" lon="100.34453">
<time>2015-08-06T05:12:08Z</time></trkpt>
<trkpt lat="30.032809" lon="100.344001">
<time>2015-08-06T05:12:09Z</time></trkpt>
<trkpt lat="30.032969" lon="100.343542">
<time>2015-08-06T05:12:10Z</time></trkpt>
<trkpt lat="30.03314" lon="100.343133">
<time>2015-08-06T05:12:11Z</time></trkpt>
<trkpt lat="30.033431" lon="100.342494">
<time>2015-08-06T05:12:12Z</time></trkpt>
<trkpt lat="30.033552" lon="100.342185">
<time>2015-08-06T05:12:13Z</time></trkpt>
<trkpt lat="30.033592" lon="100.342045">
<time>2015-08-06T05:12:14Z</time></trkpt>
<trkpt lat="30.033622" lon="100.341895">
<time>2015-08-06T05:12:15Z</time></trkpt>
<trkpt lat="30.033633" lon="100.341766">
<time>2015-08-06T05:12:16Z</time></trkpt>
<trkpt lat="30.033633" lon="100.341536">
<time>2015-08-06T05:12:17Z</time></trkpt>
<trkpt lat="30.033604" lon="100.340938">
<time>2015-08-06T05:12:18Z</time></trkpt>
<trkpt lat="30.033605" lon="100.340538">
<time>2015-08-06T05:12:19Z</time></trkpt>
<trkpt lat="30.033605" lon="100.340329">
<time>2015-08-06T05:12:20Z</time></trkpt>
<trkpt lat="30.033646" lon="100.340109">
<time>2015-08-06T05:12:21Z</time></trkpt>
<trkpt lat="30.033706" lon="100.33986">
<time>2015-08-06T05:12:22Z</time></trkpt>
<trkpt lat="30.033857" lon="100.339411">
<time>2015-08-06T05:12:23Z</time></trkpt>
<trkpt lat="30.033907" lon="100.339191">
<time>2015-08-06T05:12:24Z</time></trkpt>
<trkpt lat="30.033938" lon="100.338982">
<time>2015-08-06T05:12:25Z</time></trkpt>
<trkpt lat="30.033938" lon="100.338802">
<time>2015-08-06T05:12:26Z</time></trkpt>
<trkpt lat="30.033919" lon="100.338603">
<time>2015-08-06T05:12:27Z</time></trkpt>
<trkpt lat="30.033869" lon="100.338403">
<time>2015-08-06T05:12:28Z</time></trkpt>
<trkpt lat="30.033759" lon="100.338114">
<time>2015-08-06T05:12:29Z</time></trkpt>
<trkpt lat="30.03358" lon="100.337745">
<time>2015-08-06T05:12:30Z</time></trkpt>
<trkpt lat="30.032783" lon="100.336308">
<time>2015-08-06T05:12:31Z</time></trkpt>
<trkpt lat="30.031975" lon="100.334881">
<time>2015-08-06T05:12:32Z</time></trkpt>
<trkpt lat="30.031258" lon="100.333574">
<time>2015-08-06T05:12:33Z</time></trkpt>
<trkpt lat="30.030441" lon="100.332148">
<time>2015-08-06T05:12:34Z</time></trkpt>
<trkpt lat="30.029753" lon="100.33098">
<time>2015-08-06T05:12:35Z</time></trkpt>
<trkpt lat="30.029574" lon="100.330621">
<time>2015-08-06T05:12:36Z</time></trkpt>
<trkpt lat="30.029444" lon="100.330312">
<time>2015-08-06T05:12:37Z</time></trkpt>
<trkpt lat="30.029285" lon="100.329823">
<time>2015-08-06T05:12:38Z</time></trkpt>
<trkpt lat="30.029136" lon="100.329384">
<time>2015-08-06T05:12:39Z</time></trkpt>
<trkpt lat="30.029027" lon="100.329065">
<time>2015-08-06T05:12:40Z</time></trkpt>
<trkpt lat="30.028957" lon="100.328855">
<time>2015-08-06T05:12:41Z</time></trkpt>
<trkpt lat="30.028907" lon="100.328616">
<time>2015-08-06T05:12:42Z</time></trkpt>
<trkpt lat="30.028858" lon="100.328276">
<time>2015-08-06T05:12:43Z</time></trkpt>
<trkpt lat="30.028829" lon="100.327728">
<time>2015-08-06T05:12:44Z</time></trkpt>
<trkpt lat="30.02879" lon="100.327179">
<time>2015-08-06T05:12:45Z</time></trkpt>
<trkpt lat="30.028751" lon="100.3268">
<time>2015-08-06T05:12:46Z</time></trkpt>
<trkpt lat="30.028701" lon="100.32652">
<time>2015-08-06T05:12:47Z</time></trkpt>
<trkpt lat="30.028632" lon="100.326281">
<time>2015-08-06T05:12:48Z</time></trkpt>
<trkpt lat="30.028562" lon="100.326072">
<time>2015-08-06T05:12:49Z</time></trkpt>
<trkpt lat="30.028493" lon="100.325942">
<time>2015-08-06T05:12:50Z</time></trkpt>
<trkpt lat="30.028433" lon="100.325872">
<time>2015-08-06T05:12:51Z</time></trkpt>
<trkpt lat="30.028373" lon="100.325812">
<time>2015-08-06T05:12:52Z</time></trkpt>
<trkpt lat="30.028303" lon="100.325762">
<time>2015-08-06T05:12:53Z</time></trkpt>
<trkpt lat="30.028053" lon="100.325633">
<time>2015-08-06T05:12:54Z</time></trkpt>
<trkpt lat="30.027833" lon="100.325543">
<time>2015-08-06T05:12:55Z</time></trkpt>
<trkpt lat="30.027673" lon="100.325483">
<time>2015-08-06T05:12:56Z</time></trkpt>
<trkpt lat="30.027563" lon="100.325453">
<time>2015-08-06T05:12:57Z</time></trkpt>
<trkpt lat="30.027443" lon="100.325443">
<time>2015-08-06T05:12:58Z</time></trkpt>
<trkpt lat="30.027293" lon="100.325433">
<time>2015-08-06T05:12:59Z</time></trkpt>
<trkpt lat="30.026713" lon="100.325443">
<time>2015-08-06T05:13:00Z</time></trkpt>
<trkpt lat="30.026533" lon="100.325443">
<time>2015-08-06T05:13:01Z</time></trkpt>
<trkpt lat="30.026364" lon="100.325423">
<time>2015-08-06T05:13:02Z</time></trkpt>
<trkpt lat="30.026194" lon="100.325393">
<time>2015-08-06T05:13:03Z</time></trkpt>
<trkpt lat="30.025954" lon="100.325333">
<time>2015-08-06T05:13:04Z</time></trkpt>
<trkpt lat="30.025464" lon="100.325184">
<time>2015-08-06T05:13:05Z</time></trkpt>
<trkpt lat="30.024634" lon="100.324904">
<time>2015-08-06T05:13:06Z</time></trkpt>
<trkpt lat="30.024245" lon="100.324775">
<time>2015-08-06T05:13:07Z</time></trkpt>
<trkpt lat="30.024025" lon="100.324705">
<time>2015-08-06T05:13:08Z</time></trkpt>
<trkpt lat="30.023845" lon="100.324665">
<time>2015-08-06T05:13:09Z</time></trkpt>
<trkpt lat="30.023555" lon="100.324615">
<time>2015-08-06T05:13:10Z</time></trkpt>
<trkpt lat="30.023085" lon="100.324545">
<time>2015-08-06T05:13:11Z</time></trkpt>
<trkpt lat="30.022815" lon="100.324495">
<time>2015-08-06T05:13:12Z</time></trkpt>
<trkpt lat="30.022705" lon="100.324475">
<time>2015-08-06T05:13:13Z</time></trkpt>
<trkpt lat="30.022565" lon="100.324465">
<time>2015-08-06T05:13:14Z</time></trkpt>
<trkpt lat="30.022415" lon="100.324465">
<time>2015-08-06T05:13:15Z</time></trkpt>
<trkpt lat="30.021995" lon="100.324475">
<time>2015-08-06T05:13:16Z</time></trkpt>
<trkpt lat="30.021805" lon="100.324475">
<time>2015-08-06T05:13:17Z</time></trkpt>
<trkpt lat="30.021645" lon="100.324455">
<time>2015-08-06T05:13:18Z</time></trkpt>
<trkpt lat="30.021475" lon="100.324435">
<time>2015-08-06T05:13:19Z</time></trkpt>
<trkpt lat="30.021315" lon="100.324396">
<time>2015-08-06T05:13:20Z</time></trkpt>
<trkpt lat="30.021166" lon="100.324356">
<time>2015-08-06T05:13:21Z</time></trkpt>
<trkpt lat="30.021026" lon="100.324316">
<time>2015-08-06T05:13:22Z</time></trkpt>
<trkpt lat="30.020906" lon="100.324266">
<time>2015-08-06T05:13:23Z</time></trkpt>
<trkpt lat="30.020746" lon="100.324196">
<time>2015-08-06T05:13:24Z</time></trkpt>
<trkpt lat="30.020616" lon="100.324146">
<time>2015-08-06T05:13:25Z</time></trkpt>
<trkpt lat="30.020526" lon="100.324126">
<time>2015-08-06T05:13:26Z</time></trkpt>
<trkpt lat="30.020466" lon="100.324116">
<time>2015-08-06T05:13:27Z</time></trkpt>
<trkpt lat="30.020416" lon="100.324116">
<time>2015-08-06T05:13:28Z</time></trkpt>
<trkpt lat="30.020366" lon="100.324126">
<time>2015-08-06T05:13:29Z</time></trkpt>
<trkpt lat="30.020306" lon="100.324146">
<time>2015-08-06T05:13:30Z</time></trkpt>
<trkpt lat="30.020236" lon="100.324186">
<time>2015-08-06T05:13:31Z</time></trkpt>
<trkpt lat="30.020116" lon="100.324266">
<time>2015-08-06T05:13:32Z</time></trkpt>
<trkpt lat="30.020036" lon="100.324346">
<time>2015-08-06T05:13:33Z</time></trkpt>
<trkpt lat="30.019955" lon="100.324416">
<time>2015-08-06T05:13:34Z</time></trkpt>
<trkpt lat="30.019805" lon="100.324575">
<time>2015-08-06T05:13:35Z</time></trkpt>
<trkpt lat="30.019685" lon="100.324695">
<time>2015-08-06T05:13:36Z</time></trkpt>
<trkpt lat="30.019565" lon="100.324805">
<time>2015-08-06T05:13:37Z</time></trkpt>
<trkpt lat="30.019444" lon="100.324884">
<time>2015-08-06T05:13:38Z</time></trkpt>
<trkpt lat="30.019314" lon="100.324964">
<time>2015-08-06T05:13:39Z</time></trkpt>
<trkpt lat="30.019234" lon="100.325004">
<time>2015-08-06T05:13:40Z</time></trkpt>
<trkpt lat="30.019184" lon="100.325024">
<time>2015-08-06T05:13:41Z</time></trkpt>
<trkpt lat="30.019094" lon="100.325054">
<time>2015-08-06T05:13:42Z</time></trkpt>
<trkpt lat="30.019024" lon="100.325074">
<time>2015-08-06T05:13:43Z</time></trkpt>
<trkpt lat="30.018674" lon="100.325144">
<time>2015-08-06T05:13:44Z</time></trkpt>
<trkpt lat="30.018504" lon="100.325184">
<time>2015-08-06T05:13:45Z</time></trkpt>
<trkpt lat="30.018394" lon="100.325214">
<time>2015-08-06T05:13:46Z</time></trkpt>
<trkpt lat="30.018294" lon="100.325244">
<time>2015-08-06T05:13:47Z</time></trkpt>
<trkpt lat="30.018214" lon="100.325264">
<time>2015-08-06T05:13:48Z</time></trkpt>
<trkpt lat="30.018164" lon="100.325294">
<time>2015-08-06T05:13:49Z</time></trkpt>
<trkpt lat="30.018094" lon="100.325324">
<time>2015-08-06T05:13:50Z</time></trkpt>
<trkpt lat="30.017964" lon="100.325383">
<time>2015-08-06T05:13:51Z</time></trkpt>
<trkpt lat="30.017823" lon="100.325433">
<time>2015-08-06T05:13:52Z</time></trkpt>
<trkpt lat="30.017543" lon="100.325513">
<time>2015-08-06T05:13:53Z</time></trkpt>
<trkpt lat="30.017383" lon="100.325563">
<time>2015-08-06T05:13:54Z</time></trkpt>
<trkpt lat="30.017213" lon="100.325633">
<time>2015-08-06T05:13:55Z</time></trkpt>
<trkpt lat="30.017063" lon="100.325683">
<time>2015-08-06T05:13:56Z</time></trkpt>
<trkpt lat="30.016833" lon="100.325753">
<time>2015-08-06T05:13:57Z</time></trkpt>
<trkpt lat="30.016703" lon="100.325783">
<time>2015-08-06T05:13:58Z</time></trkpt>
<trkpt lat="30.016653" lon="100.325783">
<time>2015-08-06T05:13:59Z</time></trkpt>
<trkpt lat="30.016603" lon="100.325783">
<time>2015-08-06T05:14:00Z</time></trkpt>
<trkpt lat="30.016573" lon="100.325773">
<time>2015-08-06T05:14:01Z</time></trkpt>
<trkpt lat="30.016533" lon="100.325753">
<time>2015-08-06T05:14:02Z</time></trkpt>
<trkpt lat="30.016503" lon="100.325723">
<time>2015-08-06T05:14:03Z</time></trkpt>
<trkpt lat="30.016473" lon="100.325703">
<time>2015-08-06T05:14:04Z</time></trkpt>
<trkpt lat="30.016463" lon="100.325663">
<time>2015-08-06T05:14:05Z</time></trkpt>
<trkpt lat="30.016453" lon="100.325623">
<time>2015-08-06T05:14:06Z</time></trkpt>
<trkpt lat="30.016443" lon="100.325573">
<time>2015-08-06T05:14:07Z</time></trkpt>
<trkpt lat="30.016453" lon="100.325533">
<time>2015-08-06T05:14:08Z</time></trkpt>
<trkpt lat="30.016463" lon="100.325453">
<time>2015-08-06T05:14:09Z</time></trkpt>
<trkpt lat="30.016504" lon="100.325344">
<time>2015-08-06T05:14:10Z</time></trkpt>
<trkpt lat="30.016574" lon="100.325194">
<time>2015-08-06T05:14:11Z</time></trkpt>
<trkpt lat="30.016694" lon="100.324964">
<time>2015-08-06T05:14:12Z</time></trkpt>
<trkpt lat="30.016785" lon="100.324815">
<time>2015-08-06T05:14:13Z</time></trkpt>
<trkpt lat="30.016905" lon="100.324665">
<time>2015-08-06T05:14:14Z</time></trkpt>
<trkpt lat="30.017045" lon="100.324545">
<time>2015-08-06T05:14:15Z</time></trkpt>
<trkpt lat="30.017185" lon="100.324426">
<time>2015-08-06T05:14:16Z</time></trkpt>
<trkpt lat="30.017326" lon="100.324316">
<time>2015-08-06T05:14:17Z</time></trkpt>
<trkpt lat="30.017486" lon="100.324226">
<time>2015-08-06T05:14:18Z</time></trkpt>
<trkpt lat="30.017766" lon="100.324056">
<time>2015-08-06T05:14:19Z</time></trkpt>
<trkpt lat="30.017946" lon="100.323957">
<time>2015-08-06T05:14:20Z</time></trkpt>
<trkpt lat="30.018146" lon="100.323827">
<time>2015-08-06T05:14:21Z</time></trkpt>
<trkpt lat="30.018317" lon="100.323707">
<time>2015-08-06T05:14:22Z</time></trkpt>
<trkpt lat="30.018397" lon="100.323627">
<time>2015-08-06T05:14:23Z</time></trkpt>
<trkpt lat="30.018487" lon="100.323518">
<time>2015-08-06T05:14:24Z</time></trkpt>
<trkpt lat="30.018547" lon="100.323398">
<time>2015-08-06T05:14:25Z</time></trkpt>
<trkpt lat="30.018588" lon="100.323298">
<time>2015-08-06T05:14:26Z</time></trkpt>
<trkpt lat="30.018608" lon="100.323178">
<time>2015-08-06T05:14:27Z</time></trkpt>
<trkpt lat="30.018618" lon="100.323049">
<time>2015-08-06T05:14:28Z</time></trkpt>
<trkpt lat="30.018608" lon="100.322939">
<time>2015-08-06T05:14:29Z</time></trkpt>
<trkpt lat="30.018578" lon="100.322839">
<time>2015-08-06T05:14:30Z</time></trkpt>
<trkpt lat="30.018529" lon="100.322729">
<time>2015-08-06T05:14:31Z</time></trkpt>
<trkpt lat="30.018429" lon="100.32257">
<time>2015-08-06T05:14:32Z</time></trkpt>
<trkpt lat="30.018239" lon="100.32232">
<time>2015-08-06T05:14:33Z</time></trkpt>
<trkpt lat="30.01808" lon="100.322141">
<time>2015-08-06T05:14:34Z</time></trkpt>
<trkpt lat="30.01796" lon="100.322021">
<time>2015-08-06T05:14:35Z</time></trkpt>
<trkpt lat="30.01785" lon="100.321931">
<time>2015-08-06T05:14:36Z</time></trkpt>
<trkpt lat="30.01773" lon="100.321861">
<time>2015-08-06T05:14:37Z</time></trkpt>
<trkpt lat="30.01762" lon="100.321792">
<time>2015-08-06T05:14:38Z</time></trkpt>
<trkpt lat="30.017301" lon="100.321642">
<time>2015-08-06T05:14:39Z</time></trkpt>
<trkpt lat="30.016861" lon="100.321393">
<time>2015-08-06T05:14:40Z</time></trkpt>
<trkpt lat="30.016701" lon="100.321303">
<time>2015-08-06T05:14:41Z</time></trkpt>
<trkpt lat="30.016601" lon="100.321233">
<time>2015-08-06T05:14:42Z</time></trkpt>
<trkpt lat="30.016432" lon="100.321113">
<time>2015-08-06T05:14:43Z</time></trkpt>
<trkpt lat="30.016312" lon="100.321013">
<time>2015-08-06T05:14:44Z</time></trkpt>
<trkpt lat="30.016162" lon="100.320904">
<time>2015-08-06T05:14:45Z</time></trkpt>
<trkpt lat="30.016062" lon="100.320824">
<time>2015-08-06T05:14:46Z</time></trkpt>
<trkpt lat="30.015942" lon="100.320754">
<time>2015-08-06T05:14:47Z</time></trkpt>
<trkpt lat="30.015812" lon="100.320674">
<time>2015-08-06T05:14:48Z</time></trkpt>
<trkpt lat="30.015593" lon="100.320525">
<time>2015-08-06T05:14:49Z</time></trkpt>
<trkpt lat="30.015433" lon="100.320405">
<time>2015-08-06T05:14:50Z</time></trkpt>
<trkpt lat="30.015343" lon="100.320355">
<time>2015-08-06T05:14:51Z</time></trkpt>
<trkpt lat="30.015263" lon="100.320315">
<time>2015-08-06T05:14:52Z</time></trkpt>
<trkpt lat="30.015183" lon="100.320295">
<time>2015-08-06T05:14:53Z</time></trkpt>
<trkpt lat="30.015093" lon="100.320275">
<time>2015-08-06T05:14:54Z</time></trkpt>
<trkpt lat="30.014983" lon="100.320255">
<time>2015-08-06T05:14:55Z</time></trkpt>
<trkpt lat="30.014743" lon="100.320245">
<time>2015-08-06T05:14:56Z</time></trkpt>
<trkpt lat="30.014593" lon="100.320245">
<time>2015-08-06T05:14:57Z</time></trkpt>
<trkpt lat="30.014473" lon="100.320225">
<time>2015-08-06T05:14:58Z</time></trkpt>
<trkpt lat="30.014373" lon="100.320205">
<time>2015-08-06T05:14:59Z</time></trkpt>
<trkpt lat="30.014293" lon="100.320175">
<time>2015-08-06T05:15:00Z</time></trkpt>
<trkpt lat="30.014243" lon="100.320135">
<time>2015-08-06T05:15:01Z</time></trkpt>
<trkpt lat="30.014184" lon="100.320086">
<time>2015-08-06T05:15:02Z</time></trkpt>
<trkpt lat="30.014144" lon="100.320036">
<time>2015-08-06T05:15:03Z</time></trkpt>
<trkpt lat="30.014114" lon="100.319976">
<time>2015-08-06T05:15:04Z</time></trkpt>
<trkpt lat="30.014104" lon="100.319906">
<time>2015-08-06T05:15:05Z</time></trkpt>
<trkpt lat="30.014104" lon="100.319856">
<time>2015-08-06T05:15:06Z</time></trkpt>
<trkpt lat="30.014114" lon="100.319786">
<time>2015-08-06T05:15:07Z</time></trkpt>
<trkpt lat="30.014144" lon="100.319716">
<time>2015-08-06T05:15:08Z</time></trkpt>
<trkpt lat="30.014194" lon="100.319637">
<time>2015-08-06T05:15:09Z</time></trkpt>
<trkpt lat="30.014275" lon="100.319517">
<time>2015-08-06T05:15:10Z</time></trkpt>
<trkpt lat="30.014345" lon="100.319377">
<time>2015-08-06T05:15:11Z</time></trkpt>
<trkpt lat="30.014385" lon="100.319248">
<time>2015-08-06T05:15:12Z</time></trkpt>
<trkpt lat="30.014435" lon="100.319098">
<time>2015-08-06T05:15:13Z</time></trkpt>
<trkpt lat="30.014456" lon="100.318978">
<time>2015-08-06T05:15:14Z</time></trkpt>
<trkpt lat="30.014466" lon="100.318868">
<time>2015-08-06T05:15:15Z</time></trkpt>
<trkpt lat="30.014456" lon="100.318779">
<time>2015-08-06T05:15:16Z</time></trkpt>
<trkpt lat="30.014446" lon="100.318709">
<time>2015-08-06T05:15:17Z</time></trkpt>
<trkpt lat="30.014406" lon="100.318619">
<time>2015-08-06T05:15:18Z</time></trkpt>
<trkpt lat="30.014357" lon="100.318539">
<time>2015-08-06T05:15:19Z</time></trkpt>
<trkpt lat="30.014307" lon="100.318469">
<time>2015-08-06T05:15:20Z</time></trkpt>
<trkpt lat="30.014227" lon="100.318389">
<time>2015-08-06T05:15:21Z</time></trkpt>
<trkpt lat="30.014107" lon="100.31828">
<time>2015-08-06T05:15:22Z</time></trkpt>
<trkpt lat="30.013887" lon="100.3181">
<time>2015-08-06T05:15:23Z</time></trkpt>
<trkpt lat="30.013308" lon="100.317631">
<time>2015-08-06T05:15:24Z</time></trkpt>
<trkpt lat="30.013149" lon="100.317482">
<time>2015-08-06T05:15:25Z</time></trkpt>
<trkpt lat="30.013049" lon="100.317382">
<time>2015-08-06T05:15:26Z</time></trkpt>
<trkpt lat="30.012969" lon="100.317282">
<time>2015-08-06T05:15:27Z</time></trkpt>
<trkpt lat="30.012869" lon="100.317142">
<time>2015-08-06T05:15:28Z</time></trkpt>
<trkpt lat="30.012779" lon="100.317033">
<time>2015-08-06T05:15:29Z</time></trkpt>
<trkpt lat="30.012719" lon="100.316973">
<time>2015-08-06T05:15:30Z</time></trkpt>
<trkpt lat="30.01263" lon="100.316913">
<time>2015-08-06T05:15:31Z</time></trkpt>
<trkpt lat="30.01254" lon="100.316873">
<time>2015-08-06T05:15:32Z</time></trkpt>
<trkpt lat="30.01245" lon="100.316843">
<time>2015-08-06T05:15:33Z</time></trkpt>
<trkpt lat="30.01233" lon="100.316813">
<time>2015-08-06T05:15:34Z</time></trkpt>
<trkpt lat="30.01215" lon="100.316783">
<time>2015-08-06T05:15:35Z</time></trkpt>
<trkpt lat="30.01175" lon="100.316743">
<time>2015-08-06T05:15:36Z</time></trkpt>
<trkpt lat="30.01149" lon="100.316693">
<time>2015-08-06T05:15:37Z</time></trkpt>
<trkpt lat="30.01138" lon="100.316673">
<time>2015-08-06T05:15:38Z</time></trkpt>
<trkpt lat="30.01131" lon="100.316643">
<time>2015-08-06T05:15:39Z</time></trkpt>
<trkpt lat="30.01122" lon="100.316604">
<time>2015-08-06T05:15:40Z</time></trkpt>
<trkpt lat="30.01117" lon="100.316554">
<time>2015-08-06T05:15:41Z</time></trkpt>
<trkpt lat="30.01112" lon="100.316494">
<time>2015-08-06T05:15:42Z</time></trkpt>
<trkpt lat="30.011081" lon="100.316404">
<time>2015-08-06T05:15:43Z</time></trkpt>
<trkpt lat="30.011051" lon="100.316314">
<time>2015-08-06T05:15:44Z</time></trkpt>
<trkpt lat="30.011041" lon="100.316234">
<time>2015-08-06T05:15:45Z</time></trkpt>
<trkpt lat="30.011051" lon="100.316145">
<time>2015-08-06T05:15:46Z</time></trkpt>
<trkpt lat="30.011061" lon="100.316065">
<time>2015-08-06T05:15:47Z</time></trkpt>
<trkpt lat="30.011091" lon="100.315975">
<time>2015-08-06T05:15:48Z</time></trkpt>
<trkpt lat="30.011142" lon="100.315865">
<time>2015-08-06T05:15:49Z</time></trkpt>
<trkpt lat="30.011232" lon="100.315666">
<time>2015-08-06T05:15:50Z</time></trkpt>
<trkpt lat="30.011282" lon="100.315526">
<time>2015-08-06T05:15:51Z</time></trkpt>
<trkpt lat="30.011322" lon="100.315396">
<time>2015-08-06T05:15:52Z</time></trkpt>
<trkpt lat="30.011343" lon="100.315277">
<time>2015-08-06T05:15:53Z</time></trkpt>
<trkpt lat="30.011353" lon="100.315157">
<time>2015-08-06T05:15:54Z</time></trkpt>
<trkpt lat="30.011353" lon="100.315037">
<time>2015-08-06T05:15:55Z</time></trkpt>
<trkpt lat="30.011333" lon="100.314907">
<time>2015-08-06T05:15:56Z</time></trkpt>
<trkpt lat="30.011304" lon="100.314748">
<time>2015-08-06T05:15:57Z</time></trkpt>
<trkpt lat="30.011254" lon="100.314558">
<time>2015-08-06T05:15:58Z</time></trkpt>
<trkpt lat="30.011164" lon="100.314269">
<time>2015-08-06T05:15:59Z</time></trkpt>
<trkpt lat="30.011125" lon="100.314139">
<time>2015-08-06T05:16:00Z</time></trkpt>
<trkpt lat="30.011095" lon="100.314019">
<time>2015-08-06T05:16:01Z</time></trkpt>
<trkpt lat="30.011065" lon="100.31384">
<time>2015-08-06T05:16:02Z</time></trkpt>
<trkpt lat="30.010937" lon="100.313051">
<time>2015-08-06T05:16:03Z</time></trkpt>
<trkpt lat="30.010847" lon="100.312652">
<time>2015-08-06T05:16:04Z</time></trkpt>
<trkpt lat="30.010808" lon="100.312503">
<time>2015-08-06T05:16:05Z</time></trkpt>
<trkpt lat="30.010758" lon="100.312383">
<time>2015-08-06T05:16:06Z</time></trkpt>
<trkpt lat="30.010688" lon="100.312243">
<time>2015-08-06T05:16:07Z</time></trkpt>
<trkpt lat="30.010569" lon="100.312064">
<time>2015-08-06T05:16:08Z</time></trkpt>
<trkpt lat="30.010459" lon="100.311894">
<time>2015-08-06T05:16:09Z</time></trkpt>
<trkpt lat="30.010209" lon="100.311585">
<time>2015-08-06T05:16:10Z</time></trkpt>
<trkpt lat="30.01008" lon="100.311415">
<time>2015-08-06T05:16:11Z</time></trkpt>
<trkpt lat="30.01" lon="100.311335">
<time>2015-08-06T05:16:12Z</time></trkpt>
<trkpt lat="30.00992" lon="100.311265">
<time>2015-08-06T05:16:13Z</time></trkpt>
<trkpt lat="30.00984" lon="100.311196">
<time>2015-08-06T05:16:14Z</time></trkpt>
<trkpt lat="30.00974" lon="100.311136">
<time>2015-08-06T05:16:15Z</time></trkpt>
<trkpt lat="30.009401" lon="100.310936">
<time>2015-08-06T05:16:16Z</time></trkpt>
<trkpt lat="30.009111" lon="100.310776">
<time>2015-08-06T05:16:17Z</time></trkpt>
<trkpt lat="30.008941" lon="100.310687">
<time>2015-08-06T05:16:18Z</time></trkpt>
<trkpt lat="30.008771" lon="100.310597">
<time>2015-08-06T05:16:19Z</time></trkpt>
<trkpt lat="30.008591" lon="100.310517">
<time>2015-08-06T05:16:20Z</time></trkpt>
<trkpt lat="30.008391" lon="100.310447">
<time>2015-08-06T05:16:21Z</time></trkpt>
<trkpt lat="30.008252" lon="100.310387">
<time>2015-08-06T05:16:22Z</time></trkpt>
<trkpt lat="30.008152" lon="100.310337">
<time>2015-08-06T05:16:23Z</time></trkpt>
<trkpt lat="30.008062" lon="100.310298">
<time>2015-08-06T05:16:24Z</time></trkpt>
<trkpt lat="30.007992" lon="100.310288">
<time>2015-08-06T05:16:25Z</time></trkpt>
<trkpt lat="30.007922" lon="100.310278">
<time>2015-08-06T05:16:26Z</time></trkpt>
<trkpt lat="30.007852" lon="100.310278">
<time>2015-08-06T05:16:27Z</time></trkpt>
<trkpt lat="30.007772" lon="100.310288">
<time>2015-08-06T05:16:28Z</time></trkpt>
<trkpt lat="30.007692" lon="100.310308">
<time>2015-08-06T05:16:29Z</time></trkpt>
<trkpt lat="30.007602" lon="100.310337">
<time>2015-08-06T05:16:30Z</time></trkpt>
<trkpt lat="30.007422" lon="100.310407">
<time>2015-08-06T05:16:31Z</time></trkpt>
<trkpt lat="30.007291" lon="100.310457">
<time>2015-08-06T05:16:32Z</time></trkpt>
<trkpt lat="30.007161" lon="100.310527">
<time>2015-08-06T05:16:33Z</time></trkpt>
<trkpt lat="30.006871" lon="100.310697">
<time>2015-08-06T05:16:34Z</time></trkpt>
<trkpt lat="30.006691" lon="100.310806">
<time>2015-08-06T05:16:35Z</time></trkpt>
<trkpt lat="30.006571" lon="100.310876">
<time>2015-08-06T05:16:36Z</time></trkpt>
<trkpt lat="30.006481" lon="100.310916">
<time>2015-08-06T05:16:37Z</time></trkpt>
<trkpt lat="30.006391" lon="100.310936">
<time>2015-08-06T05:16:38Z</time></trkpt>
<trkpt lat="30.006321" lon="100.310936">
<time>2015-08-06T05:16:39Z</time></trkpt>
<trkpt lat="30.006231" lon="100.310926">
<time>2015-08-06T05:16:40Z</time></trkpt>
<trkpt lat="30.006151" lon="100.310886">
<time>2015-08-06T05:16:41Z</time></trkpt>
<trkpt lat="30.006081" lon="100.310836">
<time>2015-08-06T05:16:42Z</time></trkpt>
<trkpt lat="30.006011" lon="100.310757">
<time>2015-08-06T05:16:43Z</time></trkpt>
<trkpt lat="30.005951" lon="100.310667">
<time>2015-08-06T05:16:44Z</time></trkpt>
<trkpt lat="30.005861" lon="100.310507">
<time>2015-08-06T05:16:45Z</time></trkpt>
<trkpt lat="30.005772" lon="100.310308">
<time>2015-08-06T05:16:46Z</time></trkpt>
<trkpt lat="30.005622" lon="100.309988">
<time>2015-08-06T05:16:47Z</time></trkpt>
<trkpt lat="30.005553" lon="100.309809">
<time>2015-08-06T05:16:48Z</time></trkpt>
<trkpt lat="30.005513" lon="100.309719">
<time>2015-08-06T05:16:49Z</time></trkpt>
<trkpt lat="30.005473" lon="100.309649">
<time>2015-08-06T05:16:50Z</time></trkpt>
<trkpt lat="30.005423" lon="100.309599">
<time>2015-08-06T05:16:51Z</time></trkpt>
<trkpt lat="30.005373" lon="100.309559">
<time>2015-08-06T05:16:52Z</time></trkpt>
<trkpt lat="30.005323" lon="100.309529">
<time>2015-08-06T05:16:53Z</time></trkpt>
<trkpt lat="30.005273" lon="100.309499">
<time>2015-08-06T05:16:54Z</time></trkpt>
<trkpt lat="30.005213" lon="100.309479">
<time>2015-08-06T05:16:55Z</time></trkpt>
<trkpt lat="30.005143" lon="100.309469">
<time>2015-08-06T05:16:56Z</time></trkpt>
<trkpt lat="30.005083" lon="100.309459">
<time>2015-08-06T05:16:57Z</time></trkpt>
<trkpt lat="30.005013" lon="100.309459">
<time>2015-08-06T05:16:58Z</time></trkpt>
<trkpt lat="30.004933" lon="100.309469">
<time>2015-08-06T05:16:59Z</time></trkpt>
<trkpt lat="30.004873" lon="100.309489">
<time>2015-08-06T05:17:00Z</time></trkpt>
<trkpt lat="30.004793" lon="100.309529">
<time>2015-08-06T05:17:01Z</time></trkpt>
<trkpt lat="30.004713" lon="100.309589">
<time>2015-08-06T05:17:02Z</time></trkpt>
<trkpt lat="30.004613" lon="100.309669">
<time>2015-08-06T05:17:03Z</time></trkpt>
<trkpt lat="30.004533" lon="100.309759">
<time>2015-08-06T05:17:04Z</time></trkpt>
<trkpt lat="30.004392" lon="100.309928">
<time>2015-08-06T05:17:05Z</time></trkpt>
<trkpt lat="30.004262" lon="100.310108">
<time>2015-08-06T05:17:06Z</time></trkpt>
<trkpt lat="30.004182" lon="100.310208">
<time>2015-08-06T05:17:07Z</time></trkpt>
<trkpt lat="30.004122" lon="100.310268">
<time>2015-08-06T05:17:08Z</time></trkpt>
<trkpt lat="30.004062" lon="100.310318">
<time>2015-08-06T05:17:09Z</time></trkpt>
<trkpt lat="30.004012" lon="100.310348">
<time>2015-08-06T05:17:10Z</time></trkpt>
<trkpt lat="30.003972" lon="100.310358">
<time>2015-08-06T05:17:11Z</time></trkpt>
<trkpt lat="30.003912" lon="100.310367">
<time>2015-08-06T05:17:12Z</time></trkpt>
<trkpt lat="30.003842" lon="100.310367">
<time>2015-08-06T05:17:13Z</time></trkpt>
<trkpt lat="30.003762" lon="100.310348">
<time>2015-08-06T05:17:14Z</time></trkpt>
<trkpt lat="30.003582" lon="100.310288">
<time>2015-08-06T05:17:15Z</time></trkpt>
<trkpt lat="30.003512" lon="100.310268">
<time>2015-08-06T05:17:16Z</time></trkpt>
<trkpt lat="30.003462" lon="100.310258">
<time>2015-08-06T05:17:17Z</time></trkpt>
<trkpt lat="30.003402" lon="100.310258">
<time>2015-08-06T05:17:18Z</time></trkpt>
<trkpt lat="30.003352" lon="100.310258">
<time>2015-08-06T05:17:19Z</time></trkpt>
<trkpt lat="30.003302" lon="100.310268">
<time>2015-08-06T05:17:20Z</time></trkpt>
<trkpt lat="30.003242" lon="100.310298">
<time>2015-08-06T05:17:21Z</time></trkpt>
<trkpt lat="30.003172" lon="100.310338">
<time>2015-08-06T05:17:22Z</time></trkpt>
<trkpt lat="30.003122" lon="100.310397">
<time>2015-08-06T05:17:23Z</time></trkpt>
<trkpt lat="30.003041" lon="100.310487">
<time>2015-08-06T05:17:24Z</time></trkpt>
<trkpt lat="30.002961" lon="100.310587">
<time>2015-08-06T05:17:25Z</time></trkpt>
<trkpt lat="30.002891" lon="100.310667">
<time>2015-08-06T05:17:26Z</time></trkpt>
<trkpt lat="30.002841" lon="100.310717">
<time>2015-08-06T05:17:27Z</time></trkpt>
<trkpt lat="30.002791" lon="100.310747">
<time>2015-08-06T05:17:28Z</time></trkpt>
<trkpt lat="30.002741" lon="100.310767">
<time>2015-08-06T05:17:29Z</time></trkpt>
<trkpt lat="30.002701" lon="100.310767">
<time>2015-08-06T05:17:30Z</time></trkpt>
<trkpt lat="30.002651" lon="100.310767">
<time>2015-08-06T05:17:31Z</time></trkpt>
<trkpt lat="30.002601" lon="100.310747">
<time>2015-08-06T05:17:32Z</time></trkpt>
<trkpt lat="30.002561" lon="100.310717">
<time>2015-08-06T05:17:33Z</time></trkpt>
<trkpt lat="30.002531" lon="100.310667">
<time>2015-08-06T05:17:34Z</time></trkpt>
<trkpt lat="30.002501" lon="100.310607">
<time>2015-08-06T05:17:35Z</time></trkpt>
<trkpt lat="30.002471" lon="100.310527">
<time>2015-08-06T05:17:36Z</time></trkpt>
<trkpt lat="30.002431" lon="100.310427">
<time>2015-08-06T05:17:37Z</time></trkpt>
<trkpt lat="30.002392" lon="100.310348">
<time>2015-08-06T05:17:38Z</time></trkpt>
<trkpt lat="30.002332" lon="100.310248">
<time>2015-08-06T05:17:39Z</time></trkpt>
<trkpt lat="30.002232" lon="100.310088">
<time>2015-08-06T05:17:40Z</time></trkpt>
<trkpt lat="30.002122" lon="100.309919">
<time>2015-08-06T05:17:41Z</time></trkpt>
<trkpt lat="30.002063" lon="100.309819">
<time>2015-08-06T05:17:42Z</time></trkpt>
<trkpt lat="30.002023" lon="100.309729">
<time>2015-08-06T05:17:43Z</time></trkpt>
<trkpt lat="30.002003" lon="100.309659">
<time>2015-08-06T05:17:44Z</time></trkpt>
<trkpt lat="30.001993" lon="100.309569">
<time>2015-08-06T05:17:45Z</time></trkpt>
<trkpt lat="30.001983" lon="100.309469">
<time>2015-08-06T05:17:46Z</time></trkpt>
<trkpt lat="30.001993" lon="100.30933">
<time>2015-08-06T05:17:47Z</time></trkpt>
<trkpt lat="30.002004" lon="100.30919">
<time>2015-08-06T05:17:48Z</time></trkpt>
<trkpt lat="30.002044" lon="100.308811">
<time>2015-08-06T05:17:49Z</time></trkpt>
<trkpt lat="30.002065" lon="100.308601">
<time>2015-08-06T05:17:50Z</time></trkpt>
<trkpt lat="30.002086" lon="100.308162">
<time>2015-08-06T05:17:51Z</time></trkpt>
<trkpt lat="30.002086" lon="100.308043">
<time>2015-08-06T05:17:52Z</time></trkpt>
<trkpt lat="30.002086" lon="100.307963">
<time>2015-08-06T05:17:53Z</time></trkpt>
<trkpt lat="30.002066" lon="100.307893">
<time>2015-08-06T05:17:54Z</time></trkpt>
<trkpt lat="30.002056" lon="100.307823">
<time>2015-08-06T05:17:55Z</time></trkpt>
<trkpt lat="30.002026" lon="100.307743">
<time>2015-08-06T05:17:56Z</time></trkpt>
<trkpt lat="30.001986" lon="100.307663">
<time>2015-08-06T05:17:57Z</time></trkpt>
<trkpt lat="30.001947" lon="100.307583">
<time>2015-08-06T05:17:58Z</time></trkpt>
<trkpt lat="30.001827" lon="100.307404">
<time>2015-08-06T05:17:59Z</time></trkpt>
<trkpt lat="30.001677" lon="100.307214">
<time>2015-08-06T05:18:00Z</time></trkpt>
<trkpt lat="30.001607" lon="100.307114">
<time>2015-08-06T05:18:01Z</time></trkpt>
<trkpt lat="30.001518" lon="100.307025">
<time>2015-08-06T05:18:02Z</time></trkpt>
<trkpt lat="30.001418" lon="100.306925">
<time>2015-08-06T05:18:03Z</time></trkpt>
<trkpt lat="30.001138" lon="100.306695">
<time>2015-08-06T05:18:04Z</time></trkpt>
<trkpt lat="30.000898" lon="100.306506">
<time>2015-08-06T05:18:05Z</time></trkpt>
<trkpt lat="30.000789" lon="100.306416">
<time>2015-08-06T05:18:06Z</time></trkpt>
<trkpt lat="30.000709" lon="100.306366">
<time>2015-08-06T05:18:07Z</time></trkpt>
<trkpt lat="30.000659" lon="100.306336">
<time>2015-08-06T05:18:08Z</time></trkpt>
<trkpt lat="30.000609" lon="100.306316">
<time>2015-08-06T05:18:09Z</time></trkpt>
<trkpt lat="30.000559" lon="100.306296">
<time>2015-08-06T05:18:10Z</time></trkpt>
<trkpt lat="30.000509" lon="100.306286">
<time>2015-08-06T05:18:11Z</time></trkpt>
<trkpt lat="30.000449" lon="100.306276">
<time>2015-08-06T05:18:12Z</time></trkpt>
<trkpt lat="30.000379" lon="100.306266">
<time>2015-08-06T05:18:13Z</time></trkpt>
<trkpt lat="30.000299" lon="100.306256">
<time>2015-08-06T05:18:14Z</time></trkpt>
<trkpt lat="30.000129" lon="100.306246">
<time>2015-08-06T05:18:15Z</time></trkpt>
<trkpt lat="30.000039" lon="100.306226">
<time>2015-08-06T05:18:16Z</time></trkpt>
<trkpt lat="29.999979" lon="100.306216">
<time>2015-08-06T05:18:17Z</time></trkpt>
<trkpt lat="29.999899" lon="100.306196">
<time>2015-08-06T05:18:18Z</time></trkpt>
<trkpt lat="29.999829" lon="100.306167">
<time>2015-08-06T05:18:19Z</time></trkpt>
<trkpt lat="29.999759" lon="100.306137">
<time>2015-08-06T05:18:20Z</time></trkpt>
<trkpt lat="29.999669" lon="100.306077">
<time>2015-08-06T05:18:21Z</time></trkpt>
<trkpt lat="29.99941" lon="100.305877">
<time>2015-08-06T05:18:22Z</time></trkpt>
<trkpt lat="29.99919" lon="100.305698">
<time>2015-08-06T05:18:23Z</time></trkpt>
<trkpt lat="29.99902" lon="100.305558">
<time>2015-08-06T05:18:24Z</time></trkpt>
<trkpt lat="29.99893" lon="100.305488">
<time>2015-08-06T05:18:25Z</time></trkpt>
<trkpt lat="29.99886" lon="100.305448">
<time>2015-08-06T05:18:26Z</time></trkpt>
<trkpt lat="29.99879" lon="100.305418">
<time>2015-08-06T05:18:27Z</time></trkpt>
<trkpt lat="29.99872" lon="100.305398">
<time>2015-08-06T05:18:28Z</time></trkpt>
<trkpt lat="29.99866" lon="100.305388">
<time>2015-08-06T05:18:29Z</time></trkpt>
<trkpt lat="29.9986" lon="100.305398">
<time>2015-08-06T05:18:30Z</time></trkpt>
<trkpt lat="29.9985" lon="100.305408">
<time>2015-08-06T05:18:31Z</time></trkpt>
<trkpt lat="29.99842" lon="100.305418">
<time>2015-08-06T05:18:32Z</time></trkpt>
<trkpt lat="29.99834" lon="100.305438">
<time>2015-08-06T05:18:33Z</time></trkpt>
<trkpt lat="29.99829" lon="100.305448">
<time>2015-08-06T05:18:34Z</time></trkpt>
<trkpt lat="29.99823" lon="100.305478">
<time>2015-08-06T05:18:35Z</time></trkpt>
<trkpt lat="29.99817" lon="100.305518">
<time>2015-08-06T05:18:36Z</time></trkpt>
<trkpt lat="29.99811" lon="100.305568">
<time>2015-08-06T05:18:37Z</time></trkpt>
<trkpt lat="29.99807" lon="100.305618">
<time>2015-08-06T05:18:38Z</time></trkpt>
<trkpt lat="29.99801" lon="100.305688">
<time>2015-08-06T05:18:39Z</time></trkpt>
<trkpt lat="29.99797" lon="100.305757">
<time>2015-08-06T05:18:40Z</time></trkpt>
<trkpt lat="29.99792" lon="100.305817">
<time>2015-08-06T05:18:41Z</time></trkpt>
<trkpt lat="29.99788" lon="100.305847">
<time>2015-08-06T05:18:42Z</time></trkpt>
<trkpt lat="29.99784" lon="100.305867">
<time>2015-08-06T05:18:43Z</time></trkpt>
<trkpt lat="29.99779" lon="100.305887">
<time>2015-08-06T05:18:44Z</time></trkpt>
<trkpt lat="29.99775" lon="100.305887">
<time>2015-08-06T05:18:45Z</time></trkpt>
<trkpt lat="29.99769" lon="100.305867">
<time>2015-08-06T05:18:46Z</time></trkpt>
<trkpt lat="29.99764" lon="100.305837">
<time>2015-08-06T05:18:47Z</time></trkpt>
<trkpt lat="29.99756" lon="100.305767">
<time>2015-08-06T05:18:48Z</time></trkpt>
<trkpt lat="29.99749" lon="100.305658">
<time>2015-08-06T05:18:49Z</time></trkpt>
<trkpt lat="29.9974" lon="100.305478">
<time>2015-08-06T05:18:50Z</time></trkpt>
<trkpt lat="29.997231" lon="100.305129">
<time>2015-08-06T05:18:51Z</time></trkpt>
<trkpt lat="29.997181" lon="100.305029">
<time>2015-08-06T05:18:52Z</time></trkpt>
<trkpt lat="29.997131" lon="100.304939">
<time>2015-08-06T05:18:53Z</time></trkpt>
<trkpt lat="29.997101" lon="100.304879">
<time>2015-08-06T05:18:54Z</time></trkpt>
<trkpt lat="29.997051" lon="100.304839">
<time>2015-08-06T05:18:55Z</time></trkpt>
<trkpt lat="29.997001" lon="100.304789">
<time>2015-08-06T05:18:56Z</time></trkpt>
<trkpt lat="29.996942" lon="100.30475">
<time>2015-08-06T05:18:57Z</time></trkpt>
<trkpt lat="29.996842" lon="100.3047">
<time>2015-08-06T05:18:58Z</time></trkpt>
<trkpt lat="29.996672" lon="100.30461">
<time>2015-08-06T05:18:59Z</time></trkpt>
<trkpt lat="29.996562" lon="100.30456">
<time>2015-08-06T05:19:00Z</time></trkpt>
<trkpt lat="29.996462" lon="100.30452">
<time>2015-08-06T05:19:01Z</time></trkpt>
<trkpt lat="29.996362" lon="100.3045">
<time>2015-08-06T05:19:02Z</time></trkpt>
<trkpt lat="29.996292" lon="100.30448">
<time>2015-08-06T05:19:03Z</time></trkpt>
<trkpt lat="29.996222" lon="100.30448">
<time>2015-08-06T05:19:04Z</time></trkpt>
<trkpt lat="29.996132" lon="100.30447">
<time>2015-08-06T05:19:05Z</time></trkpt>
<trkpt lat="29.996022" lon="100.30448">
<time>2015-08-06T05:19:06Z</time></trkpt>
<trkpt lat="29.995872" lon="100.30449">
<time>2015-08-06T05:19:07Z</time></trkpt>
<trkpt lat="29.995692" lon="100.30451">
<time>2015-08-06T05:19:08Z</time></trkpt>
<trkpt lat="29.995572" lon="100.30452">
<time>2015-08-06T05:19:09Z</time></trkpt>
<trkpt lat="29.995462" lon="100.30453">
<time>2015-08-06T05:19:10Z</time></trkpt>
<trkpt lat="29.995362" lon="100.30456">
<time>2015-08-06T05:19:11Z</time></trkpt>
<trkpt lat="29.995242" lon="100.30459">
<time>2015-08-06T05:19:12Z</time></trkpt>
<trkpt lat="29.995172" lon="100.30461">
<time>2015-08-06T05:19:13Z</time></trkpt>
<trkpt lat="29.995112" lon="100.30463">
<time>2015-08-06T05:19:14Z</time></trkpt>
<trkpt lat="29.995072" lon="100.30464">
<time>2015-08-06T05:19:15Z</time></trkpt>
<trkpt lat="29.995032" lon="100.30466">
<time>2015-08-06T05:19:16Z</time></trkpt>
<trkpt lat="29.994982" lon="100.30466">
<time>2015-08-06T05:19:17Z</time></trkpt>
<trkpt lat="29.994942" lon="100.30465">
<time>2015-08-06T05:19:18Z</time></trkpt>
<trkpt lat="29.994912" lon="100.30464">
<time>2015-08-06T05:19:19Z</time></trkpt>
<trkpt lat="29.994892" lon="100.30461">
<time>2015-08-06T05:19:20Z</time></trkpt>
<trkpt lat="29.994882" lon="100.30458">
<time>2015-08-06T05:19:21Z</time></trkpt>
<trkpt lat="29.994882" lon="100.30454">
<time>2015-08-06T05:19:22Z</time></trkpt>
<trkpt lat="29.994892" lon="100.3045">
<time>2015-08-06T05:19:23Z</time></trkpt>
<trkpt lat="29.994902" lon="100.30448">
<time>2015-08-06T05:19:24Z</time></trkpt>
<trkpt lat="29.994932" lon="100.30445">
<time>2015-08-06T05:19:25Z</time></trkpt>
<trkpt lat="29.994972" lon="100.30442">
<time>2015-08-06T05:19:26Z</time></trkpt>
<trkpt lat="29.995032" lon="100.3044">
<time>2015-08-06T05:19:27Z</time></trkpt>
<trkpt lat="29.995102" lon="100.30438">
<time>2015-08-06T05:19:28Z</time></trkpt>
<trkpt lat="29.995232" lon="100.30435">
<time>2015-08-06T05:19:29Z</time></trkpt>
<trkpt lat="29.995422" lon="100.304281">
<time>2015-08-06T05:19:30Z</time></trkpt>
<trkpt lat="29.995552" lon="100.304221">
<time>2015-08-06T05:19:31Z</time></trkpt>
<trkpt lat="29.995683" lon="100.304161">
<time>2015-08-06T05:19:32Z</time></trkpt>
<trkpt lat="29.995813" lon="100.304091">
<time>2015-08-06T05:19:33Z</time></trkpt>
<trkpt lat="29.996043" lon="100.303941">
<time>2015-08-06T05:19:34Z</time></trkpt>
<trkpt lat="29.996303" lon="100.303811">
<time>2015-08-06T05:19:35Z</time></trkpt>
<trkpt lat="29.996513" lon="100.303692">
<time>2015-08-06T05:19:36Z</time></trkpt>
<trkpt lat="29.996673" lon="100.303612">
<time>2015-08-06T05:19:37Z</time></trkpt>
<trkpt lat="29.996784" lon="100.303562">
<time>2015-08-06T05:19:38Z</time></trkpt>
<trkpt lat="29.996904" lon="100.303512">
<time>2015-08-06T05:19:39Z</time></trkpt>
<trkpt lat="29.997004" lon="100.303492">
<time>2015-08-06T05:19:40Z</time></trkpt>
<trkpt lat="29.997104" lon="100.303482">
<time>2015-08-06T05:19:41Z</time></trkpt>
<trkpt lat="29.997194" lon="100.303482">
<time>2015-08-06T05:19:42Z</time></trkpt>
<trkpt lat="29.997294" lon="100.303482">
<time>2015-08-06T05:19:43Z</time></trkpt>
<trkpt lat="29.997394" lon="100.303502">
<time>2015-08-06T05:19:44Z</time></trkpt>
<trkpt lat="29.997494" lon="100.303522">
<time>2015-08-06T05:19:45Z</time></trkpt>
<trkpt lat="29.997564" lon="100.303542">
<time>2015-08-06T05:19:46Z</time></trkpt>
<trkpt lat="29.997624" lon="100.303572">
<time>2015-08-06T05:19:47Z</time></trkpt>
<trkpt lat="29.997663" lon="100.303602">
<time>2015-08-06T05:19:48Z</time></trkpt>
<trkpt lat="29.997703" lon="100.303642">
<time>2015-08-06T05:19:49Z</time></trkpt>
<trkpt lat="29.997753" lon="100.303692">
<time>2015-08-06T05:19:50Z</time></trkpt>
<trkpt lat="29.997793" lon="100.303742">
<time>2015-08-06T05:19:51Z</time></trkpt>
<trkpt lat="29.997843" lon="100.303831">
<time>2015-08-06T05:19:52Z</time></trkpt>
<trkpt lat="29.997883" lon="100.303921">
<time>2015-08-06T05:19:53Z</time></trkpt>
<trkpt lat="29.997923" lon="100.304011">
<time>2015-08-06T05:19:54Z</time></trkpt>
<trkpt lat="29.997963" lon="100.304091">
<time>2015-08-06T05:19:55Z</time></trkpt>
<trkpt lat="29.998013" lon="100.304181">
<time>2015-08-06T05:19:56Z</time></trkpt>
<trkpt lat="29.998052" lon="100.304231">
<time>2015-08-06T05:19:57Z</time></trkpt>
<trkpt lat="29.998082" lon="100.304261">
<time>2015-08-06T05:19:58Z</time></trkpt>
<trkpt lat="29.998122" lon="100.30428">
<time>2015-08-06T05:19:59Z</time></trkpt>
<trkpt lat="29.998162" lon="100.30429">
<time>2015-08-06T05:20:00Z</time></trkpt>
<trkpt lat="29.998212" lon="100.30429">
<time>2015-08-06T05:20:01Z</time></trkpt>
<trkpt lat="29.998262" lon="100.30428">
<time>2015-08-06T05:20:02Z</time></trkpt>
<trkpt lat="29.998312" lon="100.304261">
<time>2015-08-06T05:20:03Z</time></trkpt>
<trkpt lat="29.998362" lon="100.304221">
<time>2015-08-06T05:20:04Z</time></trkpt>
<trkpt lat="29.998433" lon="100.304151">
<time>2015-08-06T05:20:05Z</time></trkpt>
<trkpt lat="29.998523" lon="100.304041">
<time>2015-08-06T05:20:06Z</time></trkpt>
<trkpt lat="29.998633" lon="100.303891">
<time>2015-08-06T05:20:07Z</time></trkpt>
<trkpt lat="29.998733" lon="100.303752">
<time>2015-08-06T05:20:08Z</time></trkpt>
<trkpt lat="29.998783" lon="100.303662">
<time>2015-08-06T05:20:09Z</time></trkpt>
<trkpt lat="29.998814" lon="100.303592">
<time>2015-08-06T05:20:10Z</time></trkpt>
<trkpt lat="29.998834" lon="100.303522">
<time>2015-08-06T05:20:11Z</time></trkpt>
<trkpt lat="29.998854" lon="100.303442">
<time>2015-08-06T05:20:12Z</time></trkpt>
<trkpt lat="29.998854" lon="100.303362">
<time>2015-08-06T05:20:13Z</time></trkpt>
<trkpt lat="29.998854" lon="100.303292">
<time>2015-08-06T05:20:14Z</time></trkpt>
<trkpt lat="29.998854" lon="100.303203">
<time>2015-08-06T05:20:15Z</time></trkpt>
<trkpt lat="29.998844" lon="100.303083">
<time>2015-08-06T05:20:16Z</time></trkpt>
<trkpt lat="29.998835" lon="100.302953">
<time>2015-08-06T05:20:17Z</time></trkpt>
<trkpt lat="29.998845" lon="100.302843">
<time>2015-08-06T05:20:18Z</time></trkpt>
<trkpt lat="29.998855" lon="100.302744">
<time>2015-08-06T05:20:19Z</time></trkpt>
<trkpt lat="29.998885" lon="100.302614">
<time>2015-08-06T05:20:20Z</time></trkpt>
<trkpt lat="29.998926" lon="100.302424">
<time>2015-08-06T05:20:21Z</time></trkpt>
<trkpt lat="29.998986" lon="100.302215">
<time>2015-08-06T05:20:22Z</time></trkpt>
<trkpt lat="29.999026" lon="100.302105">
<time>2015-08-06T05:20:23Z</time></trkpt>
<trkpt lat="29.999056" lon="100.302035">
<time>2015-08-06T05:20:24Z</time></trkpt>
<trkpt lat="29.999086" lon="100.301985">
<time>2015-08-06T05:20:25Z</time></trkpt>
<trkpt lat="29.999136" lon="100.301925">
<time>2015-08-06T05:20:26Z</time></trkpt>
<trkpt lat="29.999186" lon="100.301875">
<time>2015-08-06T05:20:27Z</time></trkpt>
<trkpt lat="29.999226" lon="100.301855">
<time>2015-08-06T05:20:28Z</time></trkpt>
<trkpt lat="29.999296" lon="100.301835">
<time>2015-08-06T05:20:29Z</time></trkpt>
<trkpt lat="29.999357" lon="100.301825">
<time>2015-08-06T05:20:30Z</time></trkpt>
<trkpt lat="29.999437" lon="100.301825">
<time>2015-08-06T05:20:31Z</time></trkpt>
<trkpt lat="29.999536" lon="100.301835">
<time>2015-08-06T05:20:32Z</time></trkpt>
<trkpt lat="29.999656" lon="100.301855">
<time>2015-08-06T05:20:33Z</time></trkpt>
<trkpt lat="29.999746" lon="100.301885">
<time>2015-08-06T05:20:34Z</time></trkpt>
<trkpt lat="29.999846" lon="100.301915">
<time>2015-08-06T05:20:35Z</time></trkpt>
<trkpt lat="29.999996" lon="100.301975">
<time>2015-08-06T05:20:36Z</time></trkpt>
<trkpt lat="30.000036" lon="100.301995">
<time>2015-08-06T05:20:37Z</time></trkpt>
<trkpt lat="30.000096" lon="100.302025">
<time>2015-08-06T05:20:38Z</time></trkpt>
<trkpt lat="30.000156" lon="100.302075">
<time>2015-08-06T05:20:39Z</time></trkpt>
<trkpt lat="30.000206" lon="100.302135">
<time>2015-08-06T05:20:40Z</time></trkpt>
<trkpt lat="30.000266" lon="100.302205">
<time>2015-08-06T05:20:41Z</time></trkpt>
<trkpt lat="30.000316" lon="100.302274">
<time>2015-08-06T05:20:42Z</time></trkpt>
<trkpt lat="30.000386" lon="100.302384">
<time>2015-08-06T05:20:43Z</time></trkpt>
<trkpt lat="30.000435" lon="100.302454">
<time>2015-08-06T05:20:44Z</time></trkpt>
<trkpt lat="30.000475" lon="100.302504">
<time>2015-08-06T05:20:45Z</time></trkpt>
<trkpt lat="30.000515" lon="100.302534">
<time>2015-08-06T05:20:46Z</time></trkpt>
<trkpt lat="30.000555" lon="100.302564">
<time>2015-08-06T05:20:47Z</time></trkpt>
<trkpt lat="30.000585" lon="100.302574">
<time>2015-08-06T05:20:48Z</time></trkpt>
<trkpt lat="30.000625" lon="100.302594">
<time>2015-08-06T05:20:49Z</time></trkpt>
<trkpt lat="30.000665" lon="100.302594">
<time>2015-08-06T05:20:50Z</time></trkpt>
<trkpt lat="30.000715" lon="100.302594">
<time>2015-08-06T05:20:51Z</time></trkpt>
<trkpt lat="30.000765" lon="100.302584">
<time>2015-08-06T05:20:52Z</time></trkpt>
<trkpt lat="30.000855" lon="100.302554">
<time>2015-08-06T05:20:53Z</time></trkpt>
<trkpt lat="30.000965" lon="100.302514">
<time>2015-08-06T05:20:54Z</time></trkpt>
<trkpt lat="30.001085" lon="100.302484">
<time>2015-08-06T05:20:55Z</time></trkpt>
<trkpt lat="30.001195" lon="100.302464">
<time>2015-08-06T05:20:56Z</time></trkpt>
<trkpt lat="30.001325" lon="100.302444">
<time>2015-08-06T05:20:57Z</time></trkpt>
<trkpt lat="30.001486" lon="100.302434">
<time>2015-08-06T05:20:58Z</time></trkpt>
<trkpt lat="30.001585" lon="100.302444">
<time>2015-08-06T05:20:59Z</time></trkpt>
<trkpt lat="30.001685" lon="100.302464">
<time>2015-08-06T05:21:00Z</time></trkpt>
<trkpt lat="30.001785" lon="100.302494">
<time>2015-08-06T05:21:01Z</time></trkpt>
<trkpt lat="30.001895" lon="100.302544">
<time>2015-08-06T05:21:02Z</time></trkpt>
<trkpt lat="30.002005" lon="100.302604">
<time>2015-08-06T05:21:03Z</time></trkpt>
<trkpt lat="30.002125" lon="100.302674">
<time>2015-08-06T05:21:04Z</time></trkpt>
<trkpt lat="30.002345" lon="100.302823">
<time>2015-08-06T05:21:05Z</time></trkpt>
<trkpt lat="30.002565" lon="100.302973">
<time>2015-08-06T05:21:06Z</time></trkpt>
<trkpt lat="30.002764" lon="100.303093">
<time>2015-08-06T05:21:07Z</time></trkpt>
<trkpt lat="30.002914" lon="100.303163">
<time>2015-08-06T05:21:08Z</time></trkpt>
<trkpt lat="30.003064" lon="100.303223">
<time>2015-08-06T05:21:09Z</time></trkpt>
<trkpt lat="30.003194" lon="100.303262">
<time>2015-08-06T05:21:10Z</time></trkpt>
<trkpt lat="30.003294" lon="100.303292">
<time>2015-08-06T05:21:11Z</time></trkpt>
<trkpt lat="30.003354" lon="100.303282">
<time>2015-08-06T05:21:12Z</time></trkpt>
<trkpt lat="30.003404" lon="100.303272">
<time>2015-08-06T05:21:13Z</time></trkpt>
<trkpt lat="30.003454" lon="100.303252">
<time>2015-08-06T05:21:14Z</time></trkpt>
<trkpt lat="30.003494" lon="100.303222">
<time>2015-08-06T05:21:15Z</time></trkpt>
<trkpt lat="30.003514" lon="100.303183">
<time>2015-08-06T05:21:16Z</time></trkpt>
<trkpt lat="30.003534" lon="100.303143">
<time>2015-08-06T05:21:17Z</time></trkpt>
<trkpt lat="30.003544" lon="100.303073">
<time>2015-08-06T05:21:18Z</time></trkpt>
<trkpt lat="30.003545" lon="100.303023">
<time>2015-08-06T05:21:19Z</time></trkpt>
<trkpt lat="30.003535" lon="100.302953">
<time>2015-08-06T05:21:20Z</time></trkpt>
<trkpt lat="30.003515" lon="100.302863">
<time>2015-08-06T05:21:21Z</time></trkpt>
<trkpt lat="30.003465" lon="100.302763">
<time>2015-08-06T05:21:22Z</time></trkpt>
<trkpt lat="30.003385" lon="100.302624">
<time>2015-08-06T05:21:23Z</time></trkpt>
<trkpt lat="30.003256" lon="100.302384">
<time>2015-08-06T05:21:24Z</time></trkpt>
<trkpt lat="30.002996" lon="100.301965">
<time>2015-08-06T05:21:25Z</time></trkpt>
<trkpt lat="30.002917" lon="100.301825">
<time>2015-08-06T05:21:26Z</time></trkpt>
<trkpt lat="30.002857" lon="100.301706">
<time>2015-08-06T05:21:27Z</time></trkpt>
<trkpt lat="30.002817" lon="100.301596">
<time>2015-08-06T05:21:28Z</time></trkpt>
<trkpt lat="30.002737" lon="100.301366">
<time>2015-08-06T05:21:29Z</time></trkpt>
<trkpt lat="30.002668" lon="100.301197">
<time>2015-08-06T05:21:30Z</time></trkpt>
<trkpt lat="30.002598" lon="100.301067">
<time>2015-08-06T05:21:31Z</time></trkpt>
<trkpt lat="30.002558" lon="100.300997">
<time>2015-08-06T05:21:32Z</time></trkpt>
<trkpt lat="30.002498" lon="100.300927">
<time>2015-08-06T05:21:33Z</time></trkpt>
<trkpt lat="30.002418" lon="100.300857">
<time>2015-08-06T05:21:34Z</time></trkpt>
<trkpt lat="30.002208" lon="100.300698">
<time>2015-08-06T05:21:35Z</time></trkpt>
<trkpt lat="30.001969" lon="100.300518">
<time>2015-08-06T05:21:36Z</time></trkpt>
<trkpt lat="30.001869" lon="100.300428">
<time>2015-08-06T05:21:37Z</time></trkpt>
<trkpt lat="30.001809" lon="100.300358">
<time>2015-08-06T05:21:38Z</time></trkpt>
<trkpt lat="30.001749" lon="100.300288">
<time>2015-08-06T05:21:39Z</time></trkpt>
<trkpt lat="30.001699" lon="100.300209">
<time>2015-08-06T05:21:40Z</time></trkpt>
<trkpt lat="30.001629" lon="100.300099">
<time>2015-08-06T05:21:41Z</time></trkpt>
<trkpt lat="30.00159" lon="100.300029">
<time>2015-08-06T05:21:42Z</time></trkpt>
<trkpt lat="30.00153" lon="100.299949">
<time>2015-08-06T05:21:43Z</time></trkpt>
<trkpt lat="30.00146" lon="100.299859">
<time>2015-08-06T05:21:44Z</time></trkpt>
<trkpt lat="30.00137" lon="100.299769">
<time>2015-08-06T05:21:45Z</time></trkpt>
<trkpt lat="30.00127" lon="100.29966">
<time>2015-08-06T05:21:46Z</time></trkpt>
<trkpt lat="30.00117" lon="100.29955">
<time>2015-08-06T05:21:47Z</time></trkpt>
<trkpt lat="30.00113" lon="100.2995">
<time>2015-08-06T05:21:48Z</time></trkpt>
<trkpt lat="30.00109" lon="100.29944">
<time>2015-08-06T05:21:49Z</time></trkpt>
<trkpt lat="30.001041" lon="100.29935">
<time>2015-08-06T05:21:50Z</time></trkpt>
<trkpt lat="30.000971" lon="100.29923">
<time>2015-08-06T05:21:51Z</time></trkpt>
<trkpt lat="30.000931" lon="100.299151">
<time>2015-08-06T05:21:52Z</time></trkpt>
<trkpt lat="30.000881" lon="100.299081">
<time>2015-08-06T05:21:53Z</time></trkpt>
<trkpt lat="30.000841" lon="100.299021">
<time>2015-08-06T05:21:54Z</time></trkpt>
<trkpt lat="30.000771" lon="100.298941">
<time>2015-08-06T05:21:55Z</time></trkpt>
<trkpt lat="30.000681" lon="100.298841">
<time>2015-08-06T05:21:56Z</time></trkpt>
<trkpt lat="30.000612" lon="100.298771">
<time>2015-08-06T05:21:57Z</time></trkpt>
<trkpt lat="30.000482" lon="100.298652">
<time>2015-08-06T05:21:58Z</time></trkpt>
<trkpt lat="30.000402" lon="100.298562">
<time>2015-08-06T05:21:59Z</time></trkpt>
<trkpt lat="30.000322" lon="100.298472">
<time>2015-08-06T05:22:00Z</time></trkpt>
<trkpt lat="30.000262" lon="100.298402">
<time>2015-08-06T05:22:01Z</time></trkpt>
<trkpt lat="30.000222" lon="100.298322">
<time>2015-08-06T05:22:02Z</time></trkpt>
<trkpt lat="30.000182" lon="100.298252">
<time>2015-08-06T05:22:03Z</time></trkpt>
<trkpt lat="30.000133" lon="100.298153">
<time>2015-08-06T05:22:04Z</time></trkpt>
<trkpt lat="30.000103" lon="100.298103">
<time>2015-08-06T05:22:05Z</time></trkpt>
<trkpt lat="30.000073" lon="100.298063">
<time>2015-08-06T05:22:06Z</time></trkpt>
<trkpt lat="30.000053" lon="100.298043">
<time>2015-08-06T05:22:07Z</time></trkpt>
<trkpt lat="30.000043" lon="100.298023">
<time>2015-08-06T05:22:08Z</time></trkpt>
<trkpt lat="30.000013" lon="100.298003">
<time>2015-08-06T05:22:09Z</time></trkpt>
<trkpt lat="29.999973" lon="100.297983">
<time>2015-08-06T05:22:10Z</time></trkpt>
<trkpt lat="29.999933" lon="100.297963">
<time>2015-08-06T05:22:11Z</time></trkpt>
<trkpt lat="29.999893" lon="100.297953">
<time>2015-08-06T05:22:12Z</time></trkpt>
<trkpt lat="29.999843" lon="100.297933">
<time>2015-08-06T05:22:13Z</time></trkpt>
<trkpt lat="29.999733" lon="100.297913">
<time>2015-08-06T05:22:14Z</time></trkpt>
<trkpt lat="29.999603" lon="100.297893">
<time>2015-08-06T05:22:15Z</time></trkpt>
<trkpt lat="29.999533" lon="100.297873">
<time>2015-08-06T05:22:16Z</time></trkpt>
<trkpt lat="29.999443" lon="100.297843">
<time>2015-08-06T05:22:17Z</time></trkpt>
<trkpt lat="29.999323" lon="100.297803">
<time>2015-08-06T05:22:18Z</time></trkpt>
<trkpt lat="29.999153" lon="100.297723">
<time>2015-08-06T05:22:19Z</time></trkpt>
<trkpt lat="29.998983" lon="100.297654">
<time>2015-08-06T05:22:20Z</time></trkpt>
<trkpt lat="29.998843" lon="100.297604">
<time>2015-08-06T05:22:21Z</time></trkpt>
<trkpt lat="29.998723" lon="100.297574">
<time>2015-08-06T05:22:22Z</time></trkpt>
<trkpt lat="29.998613" lon="100.297554">
<time>2015-08-06T05:22:23Z</time></trkpt>
<trkpt lat="29.998494" lon="100.297544">
<time>2015-08-06T05:22:24Z</time></trkpt>
<trkpt lat="29.998334" lon="100.297504">
<time>2015-08-06T05:22:25Z</time></trkpt>
<trkpt lat="29.998244" lon="100.297474">
<time>2015-08-06T05:22:26Z</time></trkpt>
<trkpt lat="29.998144" lon="100.297424">
<time>2015-08-06T05:22:27Z</time></trkpt>
<trkpt lat="29.998084" lon="100.297384">
<time>2015-08-06T05:22:28Z</time></trkpt>
<trkpt lat="29.997994" lon="100.297314">
<time>2015-08-06T05:22:29Z</time></trkpt>
<trkpt lat="29.997904" lon="100.297224">
<time>2015-08-06T05:22:30Z</time></trkpt>
<trkpt lat="29.997794" lon="100.297085">
<time>2015-08-06T05:22:31Z</time></trkpt>
<trkpt lat="29.997694" lon="100.296965">
<time>2015-08-06T05:22:32Z</time></trkpt>
<trkpt lat="29.997615" lon="100.296885">
<time>2015-08-06T05:22:33Z</time></trkpt>
<trkpt lat="29.997555" lon="100.296845">
<time>2015-08-06T05:22:34Z</time></trkpt>
<trkpt lat="29.997465" lon="100.296805">
<time>2015-08-06T05:22:35Z</time></trkpt>
<trkpt lat="29.997385" lon="100.296795">
<time>2015-08-06T05:22:36Z</time></trkpt>
<trkpt lat="29.997215" lon="100.296755">
<time>2015-08-06T05:22:37Z</time></trkpt>
<trkpt lat="29.997055" lon="100.296705">
<time>2015-08-06T05:22:38Z</time></trkpt>
<trkpt lat="29.996875" lon="100.296616">
<time>2015-08-06T05:22:39Z</time></trkpt>
<trkpt lat="29.996745" lon="100.296536">
<time>2015-08-06T05:22:40Z</time></trkpt>
<trkpt lat="29.996615" lon="100.296436">
<time>2015-08-06T05:22:41Z</time></trkpt>
<trkpt lat="29.996475" lon="100.296296">
<time>2015-08-06T05:22:42Z</time></trkpt>
<trkpt lat="29.996296" lon="100.296117">
<time>2015-08-06T05:22:43Z</time></trkpt>
<trkpt lat="29.996046" lon="100.295887">
<time>2015-08-06T05:22:44Z</time></trkpt>
<trkpt lat="29.995607" lon="100.295478">
<time>2015-08-06T05:22:45Z</time></trkpt>
<trkpt lat="29.995217" lon="100.295059">
<time>2015-08-06T05:22:46Z</time></trkpt>
<trkpt lat="29.994888" lon="100.294639">
<time>2015-08-06T05:22:47Z</time></trkpt>
<trkpt lat="29.994459" lon="100.29402">
<time>2015-08-06T05:22:48Z</time></trkpt>
<trkpt lat="29.994249" lon="100.293661">
<time>2015-08-06T05:22:49Z</time></trkpt>
<trkpt lat="29.99418" lon="100.293531">
<time>2015-08-06T05:22:50Z</time></trkpt>
<trkpt lat="29.99409" lon="100.293362">
<time>2015-08-06T05:22:51Z</time></trkpt>
<trkpt lat="29.99405" lon="100.293242">
<time>2015-08-06T05:22:52Z</time></trkpt>
<trkpt lat="29.99401" lon="100.293122">
<time>2015-08-06T05:22:53Z</time></trkpt>
<trkpt lat="29.99399" lon="100.293002">
<time>2015-08-06T05:22:54Z</time></trkpt>
<trkpt lat="29.993981" lon="100.292892">
<time>2015-08-06T05:22:55Z</time></trkpt>
<trkpt lat="29.993991" lon="100.292743">
<time>2015-08-06T05:22:56Z</time></trkpt>
<trkpt lat="29.994001" lon="100.292613">
<time>2015-08-06T05:22:57Z</time></trkpt>
<trkpt lat="29.994031" lon="100.292463">
<time>2015-08-06T05:22:58Z</time></trkpt>
<trkpt lat="29.994102" lon="100.292184">
<time>2015-08-06T05:22:59Z</time></trkpt>
<trkpt lat="29.994192" lon="100.291784">
<time>2015-08-06T05:23:00Z</time></trkpt>
<trkpt lat="29.994243" lon="100.291565">
<time>2015-08-06T05:23:01Z</time></trkpt>
<trkpt lat="29.994273" lon="100.291345">
<time>2015-08-06T05:23:02Z</time></trkpt>
<trkpt lat="29.994303" lon="100.291145">
<time>2015-08-06T05:23:03Z</time></trkpt>
<trkpt lat="29.994333" lon="100.291026">
<time>2015-08-06T05:23:04Z</time></trkpt>
<trkpt lat="29.994374" lon="100.290906">
<time>2015-08-06T05:23:05Z</time></trkpt>
<trkpt lat="29.994414" lon="100.290816">
<time>2015-08-06T05:23:06Z</time></trkpt>
<trkpt lat="29.994474" lon="100.290736">
<time>2015-08-06T05:23:07Z</time></trkpt>
<trkpt lat="29.994544" lon="100.290646">
<time>2015-08-06T05:23:08Z</time></trkpt>
<trkpt lat="29.994604" lon="100.290576">
<time>2015-08-06T05:23:09Z</time></trkpt>
<trkpt lat="29.994644" lon="100.290507">
<time>2015-08-06T05:23:10Z</time></trkpt>
<trkpt lat="29.994664" lon="100.290447">
<time>2015-08-06T05:23:11Z</time></trkpt>
<trkpt lat="29.994674" lon="100.290387">
<time>2015-08-06T05:23:12Z</time></trkpt>
<trkpt lat="29.994674" lon="100.290327">
<time>2015-08-06T05:23:13Z</time></trkpt>
<trkpt lat="29.994654" lon="100.290267">
<time>2015-08-06T05:23:14Z</time></trkpt>
<trkpt lat="29.994615" lon="100.290217">
<time>2015-08-06T05:23:15Z</time></trkpt>
<trkpt lat="29.994575" lon="100.290187">
<time>2015-08-06T05:23:16Z</time></trkpt>
<trkpt lat="29.994525" lon="100.290167">
<time>2015-08-06T05:23:17Z</time></trkpt>
<trkpt lat="29.994465" lon="100.290167">
<time>2015-08-06T05:23:18Z</time></trkpt>
<trkpt lat="29.994335" lon="100.290177">
<time>2015-08-06T05:23:19Z</time></trkpt>
<trkpt lat="29.994185" lon="100.290197">
<time>2015-08-06T05:23:20Z</time></trkpt>
<trkpt lat="29.993964" lon="100.290237">
<time>2015-08-06T05:23:21Z</time></trkpt>
<trkpt lat="29.993754" lon="100.290257">
<time>2015-08-06T05:23:22Z</time></trkpt>
<trkpt lat="29.993594" lon="100.290257">
<time>2015-08-06T05:23:23Z</time></trkpt>
<trkpt lat="29.993455" lon="100.290217">
<time>2015-08-06T05:23:24Z</time></trkpt>
<trkpt lat="29.993295" lon="100.290127">
<time>2015-08-06T05:23:25Z</time></trkpt>
<trkpt lat="29.993125" lon="100.289997">
<time>2015-08-06T05:23:26Z</time></trkpt>
<trkpt lat="29.992845" lon="100.289778">
<time>2015-08-06T05:23:27Z</time></trkpt>
<trkpt lat="29.992605" lon="100.289548">
<time>2015-08-06T05:23:28Z</time></trkpt>
<trkpt lat="29.992446" lon="100.289339">
<time>2015-08-06T05:23:29Z</time></trkpt>
<trkpt lat="29.992266" lon="100.289039">
<time>2015-08-06T05:23:30Z</time></trkpt>
<trkpt lat="29.992157" lon="100.28878">
<time>2015-08-06T05:23:31Z</time></trkpt>
<trkpt lat="29.992027" lon="100.28832">
<time>2015-08-06T05:23:32Z</time></trkpt>
<trkpt lat="29.991838" lon="100.287671">
<time>2015-08-06T05:23:33Z</time></trkpt>
<trkpt lat="29.991739" lon="100.287232">
<time>2015-08-06T05:23:34Z</time></trkpt>
<trkpt lat="29.991699" lon="100.286823">
<time>2015-08-06T05:23:35Z</time></trkpt>
<trkpt lat="29.99167" lon="100.286303">
<time>2015-08-06T05:23:36Z</time></trkpt>
<trkpt lat="29.99167" lon="100.285974">
<time>2015-08-06T05:23:37Z</time></trkpt>
<trkpt lat="29.991701" lon="100.285724">
<time>2015-08-06T05:23:38Z</time></trkpt>
<trkpt lat="29.991751" lon="100.285525">
<time>2015-08-06T05:23:39Z</time></trkpt>
<trkpt lat="29.991831" lon="100.285215">
<time>2015-08-06T05:23:40Z</time></trkpt>
<trkpt lat="29.991871" lon="100.285065">
<time>2015-08-06T05:23:41Z</time></trkpt>
<trkpt lat="29.991902" lon="100.284886">
<time>2015-08-06T05:23:42Z</time></trkpt>
<trkpt lat="29.991912" lon="100.284666">
<time>2015-08-06T05:23:43Z</time></trkpt>
<trkpt lat="29.991892" lon="100.284446">
<time>2015-08-06T05:23:44Z</time></trkpt>
<trkpt lat="29.991843" lon="100.284127">
<time>2015-08-06T05:23:45Z</time></trkpt>
<trkpt lat="29.991773" lon="100.283717">
<time>2015-08-06T05:23:46Z</time></trkpt>
<trkpt lat="29.991664" lon="100.282998">
<time>2015-08-06T05:23:47Z</time></trkpt>
<trkpt lat="29.991585" lon="100.28227">
<time>2015-08-06T05:23:48Z</time></trkpt>
<trkpt lat="29.991586" lon="100.28162">
<time>2015-08-06T05:23:49Z</time></trkpt>
<trkpt lat="29.991557" lon="100.280502">
<time>2015-08-06T05:23:50Z</time></trkpt>
<trkpt lat="29.991469" lon="100.278944">
<time>2015-08-06T05:23:51Z</time></trkpt>
<trkpt lat="29.991469" lon="100.278615">
<time>2015-08-06T05:23:52Z</time></trkpt>
<trkpt lat="29.991499" lon="100.278315">
<time>2015-08-06T05:23:53Z</time></trkpt>
<trkpt lat="29.99156" lon="100.278015">
<time>2015-08-06T05:23:54Z</time></trkpt>
<trkpt lat="29.99168" lon="100.277706">
<time>2015-08-06T05:23:55Z</time></trkpt>
<trkpt lat="29.99185" lon="100.277366">
<time>2015-08-06T05:23:56Z</time></trkpt>
<trkpt lat="29.992051" lon="100.277056">
<time>2015-08-06T05:23:57Z</time></trkpt>
<trkpt lat="29.992221" lon="100.276757">
<time>2015-08-06T05:23:58Z</time></trkpt>
<trkpt lat="29.992331" lon="100.276557">
<time>2015-08-06T05:23:59Z</time></trkpt>
<trkpt lat="29.992391" lon="100.276387">
<time>2015-08-06T05:24:00Z</time></trkpt>
<trkpt lat="29.992432" lon="100.276188">
<time>2015-08-06T05:24:01Z</time></trkpt>
<trkpt lat="29.992462" lon="100.276098">
<time>2015-08-06T05:24:02Z</time></trkpt>
<trkpt lat="29.992512" lon="100.275888">
<time>2015-08-06T05:24:03Z</time></trkpt>
<trkpt lat="29.992512" lon="100.275888">
<time>2015-08-06T05:24:04Z</time></trkpt>
<trkpt lat="29.992312" lon="100.276058">
<time>2015-08-06T05:24:05Z</time></trkpt>
<trkpt lat="29.992302" lon="100.276078">
<time>2015-08-06T05:24:06Z</time></trkpt>
<trkpt lat="29.992202" lon="100.276168">
<time>2015-08-06T05:24:07Z</time></trkpt>
<trkpt lat="29.992061" lon="100.276347">
<time>2015-08-06T05:24:08Z</time></trkpt>
<trkpt lat="29.991891" lon="100.276577">
<time>2015-08-06T05:24:09Z</time></trkpt>
<trkpt lat="29.991531" lon="100.277056">
<time>2015-08-06T05:24:10Z</time></trkpt>
<trkpt lat="29.991471" lon="100.277136">
<time>2015-08-06T05:24:11Z</time></trkpt>
<trkpt lat="29.9911" lon="100.277616">
<time>2015-08-06T05:24:12Z</time></trkpt>
<trkpt lat="29.99077" lon="100.278095">
<time>2015-08-06T05:24:13Z</time></trkpt>
<trkpt lat="29.990609" lon="100.278365">
<time>2015-08-06T05:24:14Z</time></trkpt>
<trkpt lat="29.990439" lon="100.278784">
<time>2015-08-06T05:24:15Z</time></trkpt>
<trkpt lat="29.990188" lon="100.279573">
<time>2015-08-06T05:24:16Z</time></trkpt>
<trkpt lat="29.989857" lon="100.280702">
<time>2015-08-06T05:24:17Z</time></trkpt>
<trkpt lat="29.989686" lon="100.281171">
<time>2015-08-06T05:24:18Z</time></trkpt>
<trkpt lat="29.989546" lon="100.281441">
<time>2015-08-06T05:24:19Z</time></trkpt>
<trkpt lat="29.989386" lon="100.28168">
<time>2015-08-06T05:24:20Z</time></trkpt>
<trkpt lat="29.989125" lon="100.28192">
<time>2015-08-06T05:24:21Z</time></trkpt>
<trkpt lat="29.987784" lon="100.282939">
<time>2015-08-06T05:24:22Z</time></trkpt>
<trkpt lat="29.987073" lon="100.283488">
<time>2015-08-06T05:24:23Z</time></trkpt>
<trkpt lat="29.985952" lon="100.284357">
<time>2015-08-06T05:24:24Z</time></trkpt>
<trkpt lat="29.984531" lon="100.285445">
<time>2015-08-06T05:24:25Z</time></trkpt>
<trkpt lat="29.984221" lon="100.285675">
<time>2015-08-06T05:24:26Z</time></trkpt>
<trkpt lat="29.984051" lon="100.285775">
<time>2015-08-06T05:24:27Z</time></trkpt>
<trkpt lat="29.98387" lon="100.285884">
<time>2015-08-06T05:24:28Z</time></trkpt>
<trkpt lat="29.98344" lon="100.286104">
<time>2015-08-06T05:24:29Z</time></trkpt>
<trkpt lat="29.981869" lon="100.286933">
<time>2015-08-06T05:24:30Z</time></trkpt>
<trkpt lat="29.979908" lon="100.287971">
<time>2015-08-06T05:24:31Z</time></trkpt>
<trkpt lat="29.979417" lon="100.288221">
<time>2015-08-06T05:24:32Z</time></trkpt>
<trkpt lat="29.979097" lon="100.288361">
<time>2015-08-06T05:24:33Z</time></trkpt>
<trkpt lat="29.978767" lon="100.28847">
<time>2015-08-06T05:24:34Z</time></trkpt>
<trkpt lat="29.978547" lon="100.28855">
<time>2015-08-06T05:24:35Z</time></trkpt>
<trkpt lat="29.977676" lon="100.28881">
<time>2015-08-06T05:24:36Z</time></trkpt>
<trkpt lat="29.974705" lon="100.289738">
<time>2015-08-06T05:24:37Z</time></trkpt>
<trkpt lat="29.972324" lon="100.290467">
<time>2015-08-06T05:24:38Z</time></trkpt>
<trkpt lat="29.970653" lon="100.290976">
<time>2015-08-06T05:24:39Z</time></trkpt>
<trkpt lat="29.967792" lon="100.291885">
<time>2015-08-06T05:24:40Z</time></trkpt>
<trkpt lat="29.965511" lon="100.292594">
<time>2015-08-06T05:24:41Z</time></trkpt>
<trkpt lat="29.96434" lon="100.293013">
<time>2015-08-06T05:24:42Z</time></trkpt>
<trkpt lat="29.962109" lon="100.293852">
<time>2015-08-06T05:24:43Z</time></trkpt>
<trkpt lat="29.960508" lon="100.294451">
<time>2015-08-06T05:24:44Z</time></trkpt>
<trkpt lat="29.959918" lon="100.29468">
<time>2015-08-06T05:24:45Z</time></trkpt>
<trkpt lat="29.959198" lon="100.29488">
<time>2015-08-06T05:24:46Z</time></trkpt>
<trkpt lat="29.958257" lon="100.295089">
<time>2015-08-06T05:24:47Z</time></trkpt>
<trkpt lat="29.955867" lon="100.295589">
<time>2015-08-06T05:24:48Z</time></trkpt>
<trkpt lat="29.954276" lon="100.296048">
<time>2015-08-06T05:24:49Z</time></trkpt>
<trkpt lat="29.951735" lon="100.296826">
<time>2015-08-06T05:24:50Z</time></trkpt>
<trkpt lat="29.949353" lon="100.297585">
<time>2015-08-06T05:24:51Z</time></trkpt>
<trkpt lat="29.947102" lon="100.298264">
<time>2015-08-06T05:24:52Z</time></trkpt>
<trkpt lat="29.944341" lon="100.299112">
<time>2015-08-06T05:24:53Z</time></trkpt>
<trkpt lat="29.941159" lon="100.3001">
<time>2015-08-06T05:24:54Z</time></trkpt>
<trkpt lat="29.936097" lon="100.301658">
<time>2015-08-06T05:24:55Z</time></trkpt>
<trkpt lat="29.935427" lon="100.301807">
<time>2015-08-06T05:24:56Z</time></trkpt>
<trkpt lat="29.934456" lon="100.301947">
<time>2015-08-06T05:24:57Z</time></trkpt>
<trkpt lat="29.932976" lon="100.302147">
<time>2015-08-06T05:24:58Z</time></trkpt>
<trkpt lat="29.930716" lon="100.302446">
<time>2015-08-06T05:24:59Z</time></trkpt>
<trkpt lat="29.929175" lon="100.302656">
<time>2015-08-06T05:25:00Z</time></trkpt>
<trkpt lat="29.928825" lon="100.302696">
<time>2015-08-06T05:25:01Z</time></trkpt>
<trkpt lat="29.928565" lon="100.302746">
<time>2015-08-06T05:25:02Z</time></trkpt>
<trkpt lat="29.928365" lon="100.302825">
<time>2015-08-06T05:25:03Z</time></trkpt>
<trkpt lat="29.927975" lon="100.303075">
<time>2015-08-06T05:25:04Z</time></trkpt>
<trkpt lat="29.927154" lon="100.303694">
<time>2015-08-06T05:25:05Z</time></trkpt>
<trkpt lat="29.926122" lon="100.304502">
<time>2015-08-06T05:25:06Z</time></trkpt>
<trkpt lat="29.925622" lon="100.304881">
<time>2015-08-06T05:25:07Z</time></trkpt>
<trkpt lat="29.925381" lon="100.305011">
<time>2015-08-06T05:25:08Z</time></trkpt>
<trkpt lat="29.925081" lon="100.305111">
<time>2015-08-06T05:25:09Z</time></trkpt>
<trkpt lat="29.924231" lon="100.30534">
<time>2015-08-06T05:25:10Z</time></trkpt>
<trkpt lat="29.92288" lon="100.30567">
<time>2015-08-06T05:25:11Z</time></trkpt>
<trkpt lat="29.92186" lon="100.305939">
<time>2015-08-06T05:25:12Z</time></trkpt>
<trkpt lat="29.92153" lon="100.306069">
<time>2015-08-06T05:25:13Z</time></trkpt>
<trkpt lat="29.921199" lon="100.306229">
<time>2015-08-06T05:25:14Z</time></trkpt>
<trkpt lat="29.920849" lon="100.306458">
<time>2015-08-06T05:25:15Z</time></trkpt>
<trkpt lat="29.919858" lon="100.307167">
<time>2015-08-06T05:25:16Z</time></trkpt>
<trkpt lat="29.918816" lon="100.307865">
<time>2015-08-06T05:25:17Z</time></trkpt>
<trkpt lat="29.916704" lon="100.309083">
<time>2015-08-06T05:25:18Z</time></trkpt>
<trkpt lat="29.916064" lon="100.309432">
<time>2015-08-06T05:25:19Z</time></trkpt>
<trkpt lat="29.915233" lon="100.309801">
<time>2015-08-06T05:25:20Z</time></trkpt>
<trkpt lat="29.914372" lon="100.31017">
<time>2015-08-06T05:25:21Z</time></trkpt>
<trkpt lat="29.913802" lon="100.31043">
<time>2015-08-06T05:25:22Z</time></trkpt>
<trkpt lat="29.913351" lon="100.310719">
<time>2015-08-06T05:25:23Z</time></trkpt>
<trkpt lat="29.91237" lon="100.311378">
<time>2015-08-06T05:25:24Z</time></trkpt>
<trkpt lat="29.91204" lon="100.311657">
<time>2015-08-06T05:25:25Z</time></trkpt>
<trkpt lat="29.911759" lon="100.311927">
<time>2015-08-06T05:25:26Z</time></trkpt>
<trkpt lat="29.910597" lon="100.313224">
<time>2015-08-06T05:25:27Z</time></trkpt>
<trkpt lat="29.910226" lon="100.313583">
<time>2015-08-06T05:25:28Z</time></trkpt>
<trkpt lat="29.910006" lon="100.313763">
<time>2015-08-06T05:25:29Z</time></trkpt>
<trkpt lat="29.909605" lon="100.313982">
<time>2015-08-06T05:25:30Z</time></trkpt>
<trkpt lat="29.907093" lon="100.315329">
<time>2015-08-06T05:25:31Z</time></trkpt>
<trkpt lat="29.905411" lon="100.316297">
<time>2015-08-06T05:25:32Z</time></trkpt>
<trkpt lat="29.904901" lon="100.316517">
<time>2015-08-06T05:25:33Z</time></trkpt>
<trkpt lat="29.90373" lon="100.316926">
<time>2015-08-06T05:25:34Z</time></trkpt>
<trkpt lat="29.901008" lon="100.317814">
<time>2015-08-06T05:25:35Z</time></trkpt>
<trkpt lat="29.897337" lon="100.318882">
<time>2015-08-06T05:25:36Z</time></trkpt>
<trkpt lat="29.897126" lon="100.318942">
<time>2015-08-06T05:25:37Z</time></trkpt>
<trkpt lat="29.896936" lon="100.319011">
<time>2015-08-06T05:25:38Z</time></trkpt>
<trkpt lat="29.896716" lon="100.319151">
<time>2015-08-06T05:25:39Z</time></trkpt>
<trkpt lat="29.896446" lon="100.319351">
<time>2015-08-06T05:25:40Z</time></trkpt>
<trkpt lat="29.896235" lon="100.3195">
<time>2015-08-06T05:25:41Z</time></trkpt>
<trkpt lat="29.896005" lon="100.3197">
<time>2015-08-06T05:25:42Z</time></trkpt>
<trkpt lat="29.895805" lon="100.319909">
<time>2015-08-06T05:25:43Z</time></trkpt>
<trkpt lat="29.895674" lon="100.320169">
<time>2015-08-06T05:25:44Z</time></trkpt>
<trkpt lat="29.895634" lon="100.320299">
<time>2015-08-06T05:25:45Z</time></trkpt>
<trkpt lat="29.895573" lon="100.320538">
<time>2015-08-06T05:25:46Z</time></trkpt>
<trkpt lat="29.895432" lon="100.321386">
<time>2015-08-06T05:25:47Z</time></trkpt>
<trkpt lat="29.895261" lon="100.321655">
<time>2015-08-06T05:25:48Z</time></trkpt>
<trkpt lat="29.895121" lon="100.321785">
<time>2015-08-06T05:25:49Z</time></trkpt>
<trkpt lat="29.894921" lon="100.321885">
<time>2015-08-06T05:25:50Z</time></trkpt>
<trkpt lat="29.8938" lon="100.322164">
<time>2015-08-06T05:25:51Z</time></trkpt>
<trkpt lat="29.89327" lon="100.322344">
<time>2015-08-06T05:25:52Z</time></trkpt>
<trkpt lat="29.89292" lon="100.322494">
<time>2015-08-06T05:25:53Z</time></trkpt>
<trkpt lat="29.891969" lon="100.323022">
<time>2015-08-06T05:25:54Z</time></trkpt>
<trkpt lat="29.890227" lon="100.32396">
<time>2015-08-06T05:25:55Z</time></trkpt>
<trkpt lat="29.889717" lon="100.32428">
<time>2015-08-06T05:25:56Z</time></trkpt>
<trkpt lat="29.889166" lon="100.324679">
<time>2015-08-06T05:25:57Z</time></trkpt>
<trkpt lat="29.888084" lon="100.325457">
<time>2015-08-06T05:25:58Z</time></trkpt>
<trkpt lat="29.887804" lon="100.325647">
<time>2015-08-06T05:25:59Z</time></trkpt>
<trkpt lat="29.887514" lon="100.325876">
<time>2015-08-06T05:26:00Z</time></trkpt>
<trkpt lat="29.886201" lon="100.327253">
<time>2015-08-06T05:26:01Z</time></trkpt>
<trkpt lat="29.88542" lon="100.327971">
<time>2015-08-06T05:26:02Z</time></trkpt>
<trkpt lat="29.884318" lon="100.328879">
<time>2015-08-06T05:26:03Z</time></trkpt>
<trkpt lat="29.883486" lon="100.329717">
<time>2015-08-06T05:26:04Z</time></trkpt>
<trkpt lat="29.882685" lon="100.330516">
<time>2015-08-06T05:26:05Z</time></trkpt>
<trkpt lat="29.882224" lon="100.330965">
<time>2015-08-06T05:26:06Z</time></trkpt>
<trkpt lat="29.881703" lon="100.331483">
<time>2015-08-06T05:26:07Z</time></trkpt>
<trkpt lat="29.881342" lon="100.331833">
<time>2015-08-06T05:26:08Z</time></trkpt>
<trkpt lat="29.880912" lon="100.332212">
<time>2015-08-06T05:26:09Z</time></trkpt>
<trkpt lat="29.880591" lon="100.332481">
<time>2015-08-06T05:26:10Z</time></trkpt>
<trkpt lat="29.880501" lon="100.332551">
<time>2015-08-06T05:26:11Z</time></trkpt>
<trkpt lat="29.880471" lon="100.332561">
<time>2015-08-06T05:26:12Z</time></trkpt>
<trkpt lat="29.880451" lon="100.332571">
<time>2015-08-06T05:26:13Z</time></trkpt>
<trkpt lat="29.880431" lon="100.332581">
<time>2015-08-06T05:26:14Z</time></trkpt>
<trkpt lat="29.880401" lon="100.332591">
<time>2015-08-06T05:26:15Z</time></trkpt>
<trkpt lat="29.880381" lon="100.332601">
<time>2015-08-06T05:26:16Z</time></trkpt>
<trkpt lat="29.880351" lon="100.332601">
<time>2015-08-06T05:26:17Z</time></trkpt>
<trkpt lat="29.880311" lon="100.332591">
<time>2015-08-06T05:26:18Z</time></trkpt>
<trkpt lat="29.880281" lon="100.332581">
<time>2015-08-06T05:26:19Z</time></trkpt>
<trkpt lat="29.880251" lon="100.332561">
<time>2015-08-06T05:26:20Z</time></trkpt>
<trkpt lat="29.880221" lon="100.332541">
<time>2015-08-06T05:26:21Z</time></trkpt>
<trkpt lat="29.880201" lon="100.332501">
<time>2015-08-06T05:26:22Z</time></trkpt>
<trkpt lat="29.880191" lon="100.332471">
<time>2015-08-06T05:26:23Z</time></trkpt>
<trkpt lat="29.880181" lon="100.332441">
<time>2015-08-06T05:26:24Z</time></trkpt>
<trkpt lat="29.880171" lon="100.332401">
<time>2015-08-06T05:26:25Z</time></trkpt>
<trkpt lat="29.880171" lon="100.332371">
<time>2015-08-06T05:26:26Z</time></trkpt>
<trkpt lat="29.880171" lon="100.332331">
<time>2015-08-06T05:26:27Z</time></trkpt>
<trkpt lat="29.880182" lon="100.332292">
<time>2015-08-06T05:26:28Z</time></trkpt>
<trkpt lat="29.880222" lon="100.332202">
<time>2015-08-06T05:26:29Z</time></trkpt>
<trkpt lat="29.880292" lon="100.332082">
<time>2015-08-06T05:26:30Z</time></trkpt>
<trkpt lat="29.880513" lon="100.331733">
<time>2015-08-06T05:26:31Z</time></trkpt>
<trkpt lat="29.880603" lon="100.331573">
<time>2015-08-06T05:26:32Z</time></trkpt>
<trkpt lat="29.880703" lon="100.331284">
<time>2015-08-06T05:26:33Z</time></trkpt>
<trkpt lat="29.880784" lon="100.330955">
<time>2015-08-06T05:26:34Z</time></trkpt>
<trkpt lat="29.880825" lon="100.330705">
<time>2015-08-06T05:26:35Z</time></trkpt>
<trkpt lat="29.880845" lon="100.330496">
<time>2015-08-06T05:26:36Z</time></trkpt>
<trkpt lat="29.880826" lon="100.330117">
<time>2015-08-06T05:26:37Z</time></trkpt>
<trkpt lat="29.880757" lon="100.329488">
<time>2015-08-06T05:26:38Z</time></trkpt>
<trkpt lat="29.880728" lon="100.329119">
<time>2015-08-06T05:26:39Z</time></trkpt>
<trkpt lat="29.880718" lon="100.328859">
<time>2015-08-06T05:26:40Z</time></trkpt>
<trkpt lat="29.880728" lon="100.32865">
<time>2015-08-06T05:26:41Z</time></trkpt>
<trkpt lat="29.880769" lon="100.3285">
<time>2015-08-06T05:26:42Z</time></trkpt>
<trkpt lat="29.880859" lon="100.328201">
<time>2015-08-06T05:26:43Z</time></trkpt>
<trkpt lat="29.88093" lon="100.328011">
<time>2015-08-06T05:26:44Z</time></trkpt>
<trkpt lat="29.88099" lon="100.327752">
<time>2015-08-06T05:26:45Z</time></trkpt>
<trkpt lat="29.881031" lon="100.327353">
<time>2015-08-06T05:26:46Z</time></trkpt>
<trkpt lat="29.881031" lon="100.327133">
<time>2015-08-06T05:26:47Z</time></trkpt>
<trkpt lat="29.881022" lon="100.327044">
<time>2015-08-06T05:26:48Z</time></trkpt>
<trkpt lat="29.881022" lon="100.327004">
<time>2015-08-06T05:26:49Z</time></trkpt>
<trkpt lat="29.881012" lon="100.326954">
<time>2015-08-06T05:26:50Z</time></trkpt>
<trkpt lat="29.880992" lon="100.326924">
<time>2015-08-06T05:26:51Z</time></trkpt>
<trkpt lat="29.880982" lon="100.326884">
<time>2015-08-06T05:26:52Z</time></trkpt>
<trkpt lat="29.880962" lon="100.326864">
<time>2015-08-06T05:26:53Z</time></trkpt>
<trkpt lat="29.880942" lon="100.326844">
<time>2015-08-06T05:26:54Z</time></trkpt>
<trkpt lat="29.880922" lon="100.326834">
<time>2015-08-06T05:26:55Z</time></trkpt>
<trkpt lat="29.880902" lon="100.326824">
<time>2015-08-06T05:26:56Z</time></trkpt>
<trkpt lat="29.880882" lon="100.326814">
<time>2015-08-06T05:26:57Z</time></trkpt>
<trkpt lat="29.880862" lon="100.326814">
<time>2015-08-06T05:26:58Z</time></trkpt>
<trkpt lat="29.880842" lon="100.326814">
<time>2015-08-06T05:26:59Z</time></trkpt>
<trkpt lat="29.880812" lon="100.326824">
<time>2015-08-06T05:27:00Z</time></trkpt>
<trkpt lat="29.880792" lon="100.326844">
<time>2015-08-06T05:27:01Z</time></trkpt>
<trkpt lat="29.880782" lon="100.326854">
<time>2015-08-06T05:27:02Z</time></trkpt>
<trkpt lat="29.880762" lon="100.326874">
<time>2015-08-06T05:27:03Z</time></trkpt>
<trkpt lat="29.880752" lon="100.326904">
<time>2015-08-06T05:27:04Z</time></trkpt>
<trkpt lat="29.880742" lon="100.326934">
<time>2015-08-06T05:27:05Z</time></trkpt>
<trkpt lat="29.880722" lon="100.326984">
<time>2015-08-06T05:27:06Z</time></trkpt>
<trkpt lat="29.880702" lon="100.327024">
<time>2015-08-06T05:27:07Z</time></trkpt>
<trkpt lat="29.880692" lon="100.327064">
<time>2015-08-06T05:27:08Z</time></trkpt>
<trkpt lat="29.880681" lon="100.327133">
<time>2015-08-06T05:27:09Z</time></trkpt>
<trkpt lat="29.880651" lon="100.327343">
<time>2015-08-06T05:27:10Z</time></trkpt>
<trkpt lat="29.880621" lon="100.327423">
<time>2015-08-06T05:27:11Z</time></trkpt>
<trkpt lat="29.880601" lon="100.327473">
<time>2015-08-06T05:27:12Z</time></trkpt>
<trkpt lat="29.880571" lon="100.327532">
<time>2015-08-06T05:27:13Z</time></trkpt>
<trkpt lat="29.880541" lon="100.327572">
<time>2015-08-06T05:27:14Z</time></trkpt>
<trkpt lat="29.880511" lon="100.327592">
<time>2015-08-06T05:27:15Z</time></trkpt>
<trkpt lat="29.88044" lon="100.327642">
<time>2015-08-06T05:27:16Z</time></trkpt>
<trkpt lat="29.88036" lon="100.327672">
<time>2015-08-06T05:27:17Z</time></trkpt>
<trkpt lat="29.88015" lon="100.327752">
<time>2015-08-06T05:27:18Z</time></trkpt>
<trkpt lat="29.88" lon="100.327812">
<time>2015-08-06T05:27:19Z</time></trkpt>
<trkpt lat="29.87991" lon="100.327862">
<time>2015-08-06T05:27:20Z</time></trkpt>
<trkpt lat="29.87981" lon="100.327942">
<time>2015-08-06T05:27:21Z</time></trkpt>
<trkpt lat="29.87976" lon="100.328001">
<time>2015-08-06T05:27:22Z</time></trkpt>
<trkpt lat="29.87971" lon="100.328091">
<time>2015-08-06T05:27:23Z</time></trkpt>
<trkpt lat="29.879669" lon="100.328171">
<time>2015-08-06T05:27:24Z</time></trkpt>
<trkpt lat="29.879649" lon="100.328241">
<time>2015-08-06T05:27:25Z</time></trkpt>
<trkpt lat="29.879649" lon="100.328311">
<time>2015-08-06T05:27:26Z</time></trkpt>
<trkpt lat="29.879649" lon="100.328381">
<time>2015-08-06T05:27:27Z</time></trkpt>
<trkpt lat="29.879649" lon="100.32846">
<time>2015-08-06T05:27:28Z</time></trkpt>
<trkpt lat="29.879679" lon="100.32857">
<time>2015-08-06T05:27:29Z</time></trkpt>
<trkpt lat="29.879698" lon="100.32868">
<time>2015-08-06T05:27:30Z</time></trkpt>
<trkpt lat="29.879738" lon="100.32882">
<time>2015-08-06T05:27:31Z</time></trkpt>
<trkpt lat="29.879758" lon="100.328949">
<time>2015-08-06T05:27:32Z</time></trkpt>
<trkpt lat="29.879778" lon="100.329119">
<time>2015-08-06T05:27:33Z</time></trkpt>
<trkpt lat="29.879767" lon="100.329259">
<time>2015-08-06T05:27:34Z</time></trkpt>
<trkpt lat="29.879747" lon="100.329378">
<time>2015-08-06T05:27:35Z</time></trkpt>
<trkpt lat="29.879727" lon="100.329478">
<time>2015-08-06T05:27:36Z</time></trkpt>
<trkpt lat="29.879707" lon="100.329558">
<time>2015-08-06T05:27:37Z</time></trkpt>
<trkpt lat="29.879626" lon="100.329777">
<time>2015-08-06T05:27:38Z</time></trkpt>
<trkpt lat="29.879295" lon="100.330685">
<time>2015-08-06T05:27:39Z</time></trkpt>
<trkpt lat="29.879244" lon="100.330775">
<time>2015-08-06T05:27:40Z</time></trkpt>
<trkpt lat="29.879214" lon="100.330835">
<time>2015-08-06T05:27:41Z</time></trkpt>
<trkpt lat="29.879154" lon="100.330915">
<time>2015-08-06T05:27:42Z</time></trkpt>
<trkpt lat="29.879084" lon="100.330995">
<time>2015-08-06T05:27:43Z</time></trkpt>
<trkpt lat="29.878974" lon="100.331074">
<time>2015-08-06T05:27:44Z</time></trkpt>
<trkpt lat="29.878754" lon="100.331204">
<time>2015-08-06T05:27:45Z</time></trkpt>
<trkpt lat="29.878413" lon="100.331394">
<time>2015-08-06T05:27:46Z</time></trkpt>
<trkpt lat="29.878283" lon="100.331474">
<time>2015-08-06T05:27:47Z</time></trkpt>
<trkpt lat="29.878153" lon="100.331583">
<time>2015-08-06T05:27:48Z</time></trkpt>
<trkpt lat="29.878013" lon="100.331743">
<time>2015-08-06T05:27:49Z</time></trkpt>
<trkpt lat="29.877812" lon="100.331982">
<time>2015-08-06T05:27:50Z</time></trkpt>
<trkpt lat="29.877552" lon="100.332252">
<time>2015-08-06T05:27:51Z</time></trkpt>
<trkpt lat="29.877271" lon="100.332481">
<time>2015-08-06T05:27:52Z</time></trkpt>
<trkpt lat="29.877151" lon="100.332571">
<time>2015-08-06T05:27:53Z</time></trkpt>
<trkpt lat="29.877021" lon="100.332641">
<time>2015-08-06T05:27:54Z</time></trkpt>
<trkpt lat="29.876861" lon="100.332731">
<time>2015-08-06T05:27:55Z</time></trkpt>
<trkpt lat="29.87647" lon="100.33292">
<time>2015-08-06T05:27:56Z</time></trkpt>
<trkpt lat="29.87592" lon="100.33319">
<time>2015-08-06T05:27:57Z</time></trkpt>
<trkpt lat="29.87568" lon="100.333289">
<time>2015-08-06T05:27:58Z</time></trkpt>
<trkpt lat="29.87563" lon="100.333309">
<time>2015-08-06T05:27:59Z</time></trkpt>
<trkpt lat="29.87556" lon="100.333329">
<time>2015-08-06T05:28:00Z</time></trkpt>
<trkpt lat="29.87549" lon="100.333329">
<time>2015-08-06T05:28:01Z</time></trkpt>
<trkpt lat="29.87543" lon="100.333319">
<time>2015-08-06T05:28:02Z</time></trkpt>
<trkpt lat="29.87536" lon="100.333309">
<time>2015-08-06T05:28:03Z</time></trkpt>
<trkpt lat="29.87525" lon="100.333269">
<time>2015-08-06T05:28:04Z</time></trkpt>
<trkpt lat="29.87477" lon="100.33311">
<time>2015-08-06T05:28:05Z</time></trkpt>
<trkpt lat="29.87461" lon="100.33305">
<time>2015-08-06T05:28:06Z</time></trkpt>
<trkpt lat="29.87451" lon="100.33299">
<time>2015-08-06T05:28:07Z</time></trkpt>
<trkpt lat="29.874441" lon="100.33293">
<time>2015-08-06T05:28:08Z</time></trkpt>
<trkpt lat="29.874171" lon="100.332701">
<time>2015-08-06T05:28:09Z</time></trkpt>
<trkpt lat="29.874061" lon="100.332601">
<time>2015-08-06T05:28:10Z</time></trkpt>
<trkpt lat="29.873981" lon="100.332541">
<time>2015-08-06T05:28:11Z</time></trkpt>
<trkpt lat="29.873941" lon="100.332511">
<time>2015-08-06T05:28:12Z</time></trkpt>
<trkpt lat="29.873901" lon="100.332501">
<time>2015-08-06T05:28:13Z</time></trkpt>
<trkpt lat="29.873841" lon="100.332491">
<time>2015-08-06T05:28:14Z</time></trkpt>
<trkpt lat="29.873781" lon="100.332491">
<time>2015-08-06T05:28:15Z</time></trkpt>
<trkpt lat="29.873701" lon="100.332501">
<time>2015-08-06T05:28:16Z</time></trkpt>
<trkpt lat="29.873631" lon="100.332521">
<time>2015-08-06T05:28:17Z</time></trkpt>
<trkpt lat="29.873561" lon="100.332571">
<time>2015-08-06T05:28:18Z</time></trkpt>
<trkpt lat="29.873501" lon="100.332621">
<time>2015-08-06T05:28:19Z</time></trkpt>
<trkpt lat="29.873461" lon="100.332681">
<time>2015-08-06T05:28:20Z</time></trkpt>
<trkpt lat="29.873421" lon="100.332761">
<time>2015-08-06T05:28:21Z</time></trkpt>
<trkpt lat="29.873381" lon="100.33288">
<time>2015-08-06T05:28:22Z</time></trkpt>
<trkpt lat="29.87336" lon="100.33302">
<time>2015-08-06T05:28:23Z</time></trkpt>
<trkpt lat="29.87333" lon="100.33321">
<time>2015-08-06T05:28:24Z</time></trkpt>
<trkpt lat="29.87332" lon="100.333329">
<time>2015-08-06T05:28:25Z</time></trkpt>
<trkpt lat="29.873178" lon="100.334227">
<time>2015-08-06T05:28:26Z</time></trkpt>
<trkpt lat="29.873138" lon="100.334457">
<time>2015-08-06T05:28:27Z</time></trkpt>
<trkpt lat="29.873108" lon="100.334557">
<time>2015-08-06T05:28:28Z</time></trkpt>
<trkpt lat="29.873067" lon="100.334656">
<time>2015-08-06T05:28:29Z</time></trkpt>
<trkpt lat="29.873007" lon="100.334776">
<time>2015-08-06T05:28:30Z</time></trkpt>
<trkpt lat="29.872817" lon="100.335026">
<time>2015-08-06T05:28:31Z</time></trkpt>
<trkpt lat="29.872636" lon="100.335265">
<time>2015-08-06T05:28:32Z</time></trkpt>
<trkpt lat="29.872506" lon="100.335475">
<time>2015-08-06T05:28:33Z</time></trkpt>
<trkpt lat="29.872345" lon="100.335884">
<time>2015-08-06T05:28:34Z</time></trkpt>
<trkpt lat="29.872104" lon="100.336472">
<time>2015-08-06T05:28:35Z</time></trkpt>
<trkpt lat="29.872014" lon="100.336672">
<time>2015-08-06T05:28:36Z</time></trkpt>
<trkpt lat="29.871873" lon="100.336901">
<time>2015-08-06T05:28:37Z</time></trkpt>
<trkpt lat="29.871603" lon="100.337241">
<time>2015-08-06T05:28:38Z</time></trkpt>
<trkpt lat="29.871322" lon="100.33756">
<time>2015-08-06T05:28:39Z</time></trkpt>
<trkpt lat="29.871232" lon="100.33768">
<time>2015-08-06T05:28:40Z</time></trkpt>
<trkpt lat="29.871091" lon="100.337819">
<time>2015-08-06T05:28:41Z</time></trkpt>
<trkpt lat="29.870851" lon="100.338029">
<time>2015-08-06T05:28:42Z</time></trkpt>
<trkpt lat="29.86999" lon="100.338677">
<time>2015-08-06T05:28:43Z</time></trkpt>
<trkpt lat="29.868778" lon="100.339595">
<time>2015-08-06T05:28:44Z</time></trkpt>
<trkpt lat="29.865664" lon="100.34195">
<time>2015-08-06T05:28:45Z</time></trkpt>
<trkpt lat="29.865274" lon="100.34224">
<time>2015-08-06T05:28:46Z</time></trkpt>
<trkpt lat="29.865013" lon="100.342439">
<time>2015-08-06T05:28:47Z</time></trkpt>
<trkpt lat="29.864673" lon="100.342639">
<time>2015-08-06T05:28:48Z</time></trkpt>
<trkpt lat="29.863842" lon="100.343078">
<time>2015-08-06T05:28:49Z</time></trkpt>
<trkpt lat="29.863472" lon="100.343287">
<time>2015-08-06T05:28:50Z</time></trkpt>
<trkpt lat="29.863302" lon="100.343417">
<time>2015-08-06T05:28:51Z</time></trkpt>
<trkpt lat="29.863111" lon="100.343607">
<time>2015-08-06T05:28:52Z</time></trkpt>
<trkpt lat="29.862791" lon="100.343936">
<time>2015-08-06T05:28:53Z</time></trkpt>
<trkpt lat="29.86239" lon="100.344315">
<time>2015-08-06T05:28:54Z</time></trkpt>
<trkpt lat="29.8622" lon="100.344465">
<time>2015-08-06T05:28:55Z</time></trkpt>
<trkpt lat="29.86207" lon="100.344525">
<time>2015-08-06T05:28:56Z</time></trkpt>
<trkpt lat="29.861889" lon="100.344595">
<time>2015-08-06T05:28:57Z</time></trkpt>
<trkpt lat="29.861169" lon="100.344744">
<time>2015-08-06T05:28:58Z</time></trkpt>
<trkpt lat="29.860759" lon="100.344834">
<time>2015-08-06T05:28:59Z</time></trkpt>
<trkpt lat="29.860619" lon="100.344874">
<time>2015-08-06T05:29:00Z</time></trkpt>
<trkpt lat="29.860489" lon="100.344924">
<time>2015-08-06T05:29:01Z</time></trkpt>
<trkpt lat="29.860049" lon="100.345153">
<time>2015-08-06T05:29:02Z</time></trkpt>
<trkpt lat="29.859468" lon="100.345433">
<time>2015-08-06T05:29:03Z</time></trkpt>
<trkpt lat="29.859138" lon="100.345573">
<time>2015-08-06T05:29:04Z</time></trkpt>
<trkpt lat="29.858518" lon="100.345782">
<time>2015-08-06T05:29:05Z</time></trkpt>
<trkpt lat="29.857787" lon="100.346002">
<time>2015-08-06T05:29:06Z</time></trkpt>
<trkpt lat="29.857497" lon="100.346101">
<time>2015-08-06T05:29:07Z</time></trkpt>
<trkpt lat="29.856196" lon="100.34658">
<time>2015-08-06T05:29:08Z</time></trkpt>
<trkpt lat="29.855276" lon="100.34693">
<time>2015-08-06T05:29:09Z</time></trkpt>
<trkpt lat="29.855186" lon="100.34697">
<time>2015-08-06T05:29:10Z</time></trkpt>
<trkpt lat="29.854745" lon="100.347109">
<time>2015-08-06T05:29:11Z</time></trkpt>
<trkpt lat="29.853595" lon="100.347499">
<time>2015-08-06T05:29:12Z</time></trkpt>
<trkpt lat="29.852624" lon="100.347818">
<time>2015-08-06T05:29:13Z</time></trkpt>
<trkpt lat="29.852134" lon="100.347998">
<time>2015-08-06T05:29:14Z</time></trkpt>
<trkpt lat="29.851754" lon="100.348147">
<time>2015-08-06T05:29:15Z</time></trkpt>
<trkpt lat="29.851504" lon="100.348247">
<time>2015-08-06T05:29:16Z</time></trkpt>
<trkpt lat="29.850943" lon="100.348537">
<time>2015-08-06T05:29:17Z</time></trkpt>
<trkpt lat="29.850513" lon="100.348746">
<time>2015-08-06T05:29:18Z</time></trkpt>
<trkpt lat="29.850323" lon="100.348826">
<time>2015-08-06T05:29:19Z</time></trkpt>
<trkpt lat="29.850173" lon="100.348866">
<time>2015-08-06T05:29:20Z</time></trkpt>
<trkpt lat="29.849932" lon="100.348916">
<time>2015-08-06T05:29:21Z</time></trkpt>
<trkpt lat="29.849642" lon="100.348966">
<time>2015-08-06T05:29:22Z</time></trkpt>
<trkpt lat="29.849362" lon="100.348996">
<time>2015-08-06T05:29:23Z</time></trkpt>
<trkpt lat="29.847292" lon="100.349046">
<time>2015-08-06T05:29:24Z</time></trkpt>
<trkpt lat="29.846922" lon="100.349075">
<time>2015-08-06T05:29:25Z</time></trkpt>
<trkpt lat="29.846392" lon="100.349145">
<time>2015-08-06T05:29:26Z</time></trkpt>
<trkpt lat="29.846082" lon="100.349145">
<time>2015-08-06T05:29:27Z</time></trkpt>
<trkpt lat="29.845392" lon="100.349125">
<time>2015-08-06T05:29:28Z</time></trkpt>
<trkpt lat="29.845082" lon="100.349155">
<time>2015-08-06T05:29:29Z</time></trkpt>
<trkpt lat="29.844862" lon="100.349185">
<time>2015-08-06T05:29:30Z</time></trkpt>
<trkpt lat="29.842882" lon="100.349465">
<time>2015-08-06T05:29:31Z</time></trkpt>
<trkpt lat="29.842572" lon="100.349495">
<time>2015-08-06T05:29:32Z</time></trkpt>
<trkpt lat="29.842352" lon="100.349515">
<time>2015-08-06T05:29:33Z</time></trkpt>
<trkpt lat="29.842162" lon="100.349515">
<time>2015-08-06T05:29:34Z</time></trkpt>
<trkpt lat="29.841992" lon="100.349515">
<time>2015-08-06T05:29:35Z</time></trkpt>
<trkpt lat="29.841382" lon="100.349475">
<time>2015-08-06T05:29:36Z</time></trkpt>
<trkpt lat="29.841282" lon="100.349465">
<time>2015-08-06T05:29:37Z</time></trkpt>
<trkpt lat="29.841182" lon="100.349445">
<time>2015-08-06T05:29:38Z</time></trkpt>
<trkpt lat="29.840992" lon="100.349385">
<time>2015-08-06T05:29:39Z</time></trkpt>
<trkpt lat="29.840772" lon="100.349285">
<time>2015-08-06T05:29:40Z</time></trkpt>
<trkpt lat="29.840423" lon="100.349096">
<time>2015-08-06T05:29:41Z</time></trkpt>
<trkpt lat="29.840033" lon="100.348936">
<time>2015-08-06T05:29:42Z</time></trkpt>
<trkpt lat="29.839713" lon="100.348836">
<time>2015-08-06T05:29:43Z</time></trkpt>
<trkpt lat="29.839044" lon="100.348627">
<time>2015-08-06T05:29:44Z</time></trkpt>
<trkpt lat="29.838534" lon="100.348517">
<time>2015-08-06T05:29:45Z</time></trkpt>
<trkpt lat="29.838354" lon="100.348467">
<time>2015-08-06T05:29:46Z</time></trkpt>
<trkpt lat="29.838234" lon="100.348427">
<time>2015-08-06T05:29:47Z</time></trkpt>
<trkpt lat="29.838164" lon="100.348387">
<time>2015-08-06T05:29:48Z</time></trkpt>
<trkpt lat="29.838044" lon="100.348287">
<time>2015-08-06T05:29:49Z</time></trkpt>
<trkpt lat="29.837745" lon="100.348048">
<time>2015-08-06T05:29:50Z</time></trkpt>
<trkpt lat="29.837605" lon="100.347958">
<time>2015-08-06T05:29:51Z</time></trkpt>
<trkpt lat="29.837435" lon="100.347898">
<time>2015-08-06T05:29:52Z</time></trkpt>
<trkpt lat="29.837195" lon="100.347828">
<time>2015-08-06T05:29:53Z</time></trkpt>
<trkpt lat="29.836915" lon="100.347749">
<time>2015-08-06T05:29:54Z</time></trkpt>
<trkpt lat="29.836755" lon="100.347719">
<time>2015-08-06T05:29:55Z</time></trkpt>
<trkpt lat="29.836475" lon="100.347689">
<time>2015-08-06T05:29:56Z</time></trkpt>
<trkpt lat="29.836246" lon="100.347639">
<time>2015-08-06T05:29:57Z</time></trkpt>
<trkpt lat="29.835976" lon="100.347569">
<time>2015-08-06T05:29:58Z</time></trkpt>
<trkpt lat="29.835366" lon="100.347389">
<time>2015-08-06T05:29:59Z</time></trkpt>
<trkpt lat="29.835076" lon="100.34729">
<time>2015-08-06T05:30:00Z</time></trkpt>
<trkpt lat="29.834906" lon="100.34721">
<time>2015-08-06T05:30:01Z</time></trkpt>
<trkpt lat="29.834697" lon="100.34709">
<time>2015-08-06T05:30:02Z</time></trkpt>
<trkpt lat="29.834507" lon="100.34697">
<time>2015-08-06T05:30:03Z</time></trkpt>
<trkpt lat="29.834317" lon="100.346821">
<time>2015-08-06T05:30:04Z</time></trkpt>
<trkpt lat="29.834167" lon="100.346731">
<time>2015-08-06T05:30:05Z</time></trkpt>
<trkpt lat="29.834037" lon="100.346671">
<time>2015-08-06T05:30:06Z</time></trkpt>
<trkpt lat="29.833907" lon="100.346621">
<time>2015-08-06T05:30:07Z</time></trkpt>
<trkpt lat="29.833808" lon="100.346601">
<time>2015-08-06T05:30:08Z</time></trkpt>
<trkpt lat="29.833738" lon="100.346591">
<time>2015-08-06T05:30:09Z</time></trkpt>
<trkpt lat="29.833378" lon="100.346561">
<time>2015-08-06T05:30:10Z</time></trkpt>
<trkpt lat="29.832558" lon="100.346471">
<time>2015-08-06T05:30:11Z</time></trkpt>
<trkpt lat="29.832278" lon="100.346461">
<time>2015-08-06T05:30:12Z</time></trkpt>
<trkpt lat="29.831458" lon="100.346451">
<time>2015-08-06T05:30:13Z</time></trkpt>
<trkpt lat="29.831238" lon="100.346471">
<time>2015-08-06T05:30:14Z</time></trkpt>
<trkpt lat="29.831108" lon="100.346501">
<time>2015-08-06T05:30:15Z</time></trkpt>
<trkpt lat="29.830958" lon="100.346541">
<time>2015-08-06T05:30:16Z</time></trkpt>
<trkpt lat="29.830758" lon="100.346621">
<time>2015-08-06T05:30:17Z</time></trkpt>
<trkpt lat="29.830477" lon="100.346751">
<time>2015-08-06T05:30:18Z</time></trkpt>
<trkpt lat="29.830327" lon="100.346801">
<time>2015-08-06T05:30:19Z</time></trkpt>
<trkpt lat="29.830137" lon="100.346851">
<time>2015-08-06T05:30:20Z</time></trkpt>
<trkpt lat="29.829997" lon="100.346881">
<time>2015-08-06T05:30:21Z</time></trkpt>
<trkpt lat="29.829687" lon="100.346901">
<time>2015-08-06T05:30:22Z</time></trkpt>
<trkpt lat="29.829167" lon="100.346891">
<time>2015-08-06T05:30:23Z</time></trkpt>
<trkpt lat="29.828247" lon="100.346861">
<time>2015-08-06T05:30:24Z</time></trkpt>
<trkpt lat="29.827757" lon="100.346911">
<time>2015-08-06T05:30:25Z</time></trkpt>
<trkpt lat="29.827197" lon="100.346971">
<time>2015-08-06T05:30:26Z</time></trkpt>
<trkpt lat="29.826607" lon="100.347">
<time>2015-08-06T05:30:27Z</time></trkpt>
<trkpt lat="29.826487" lon="100.347">
<time>2015-08-06T05:30:28Z</time></trkpt>
<trkpt lat="29.826357" lon="100.346981">
<time>2015-08-06T05:30:29Z</time></trkpt>
<trkpt lat="29.826207" lon="100.346941">
<time>2015-08-06T05:30:30Z</time></trkpt>
<trkpt lat="29.826018" lon="100.346871">
<time>2015-08-06T05:30:31Z</time></trkpt>
<trkpt lat="29.825838" lon="100.346801">
<time>2015-08-06T05:30:32Z</time></trkpt>
<trkpt lat="29.825578" lon="100.346691">
<time>2015-08-06T05:30:33Z</time></trkpt>
<trkpt lat="29.825418" lon="100.346631">
<time>2015-08-06T05:30:34Z</time></trkpt>
<trkpt lat="29.825298" lon="100.346581">
<time>2015-08-06T05:30:35Z</time></trkpt>
<trkpt lat="29.825058" lon="100.346561">
<time>2015-08-06T05:30:36Z</time></trkpt>
<trkpt lat="29.824508" lon="100.346561">
<time>2015-08-06T05:30:37Z</time></trkpt>
<trkpt lat="29.824248" lon="100.346542">
<time>2015-08-06T05:30:38Z</time></trkpt>
<trkpt lat="29.823309" lon="100.346442">
<time>2015-08-06T05:30:39Z</time></trkpt>
<trkpt lat="29.822709" lon="100.346362">
<time>2015-08-06T05:30:40Z</time></trkpt>
<trkpt lat="29.822469" lon="100.346312">
<time>2015-08-06T05:30:41Z</time></trkpt>
<trkpt lat="29.822069" lon="100.346222">
<time>2015-08-06T05:30:42Z</time></trkpt>
<trkpt lat="29.821839" lon="100.346162">
<time>2015-08-06T05:30:43Z</time></trkpt>
<trkpt lat="29.821499" lon="100.346103">
<time>2015-08-06T05:30:44Z</time></trkpt>
<trkpt lat="29.821219" lon="100.346083">
<time>2015-08-06T05:30:45Z</time></trkpt>
<trkpt lat="29.820989" lon="100.346093">
<time>2015-08-06T05:30:46Z</time></trkpt>
<trkpt lat="29.820839" lon="100.346103">
<time>2015-08-06T05:30:47Z</time></trkpt>
<trkpt lat="29.820649" lon="100.346192">
<time>2015-08-06T05:30:48Z</time></trkpt>
<trkpt lat="29.820539" lon="100.346272">
<time>2015-08-06T05:30:49Z</time></trkpt>
<trkpt lat="29.819387" lon="100.34737">
<time>2015-08-06T05:30:50Z</time></trkpt>
<trkpt lat="29.819227" lon="100.34749">
<time>2015-08-06T05:30:51Z</time></trkpt>
<trkpt lat="29.819157" lon="100.34753">
<time>2015-08-06T05:30:52Z</time></trkpt>
<trkpt lat="29.819067" lon="100.347579">
<time>2015-08-06T05:30:53Z</time></trkpt>
<trkpt lat="29.818957" lon="100.347619">
<time>2015-08-06T05:30:54Z</time></trkpt>
<trkpt lat="29.818857" lon="100.347629">
<time>2015-08-06T05:30:55Z</time></trkpt>
<trkpt lat="29.818677" lon="100.347629">
<time>2015-08-06T05:30:56Z</time></trkpt>
<trkpt lat="29.818607" lon="100.347619">
<time>2015-08-06T05:30:57Z</time></trkpt>
<trkpt lat="29.818457" lon="100.347609">
<time>2015-08-06T05:30:58Z</time></trkpt>
<trkpt lat="29.818397" lon="100.347619">
<time>2015-08-06T05:30:59Z</time></trkpt>
<trkpt lat="29.818307" lon="100.347659">
<time>2015-08-06T05:31:00Z</time></trkpt>
<trkpt lat="29.818187" lon="100.347739">
<time>2015-08-06T05:31:01Z</time></trkpt>
<trkpt lat="29.818047" lon="100.347849">
<time>2015-08-06T05:31:02Z</time></trkpt>
<trkpt lat="29.817826" lon="100.348058">
<time>2015-08-06T05:31:03Z</time></trkpt>
<trkpt lat="29.817706" lon="100.348158">
<time>2015-08-06T05:31:04Z</time></trkpt>
<trkpt lat="29.817536" lon="100.348258">
<time>2015-08-06T05:31:05Z</time></trkpt>
<trkpt lat="29.817156" lon="100.348458">
<time>2015-08-06T05:31:06Z</time></trkpt>
<trkpt lat="29.816415" lon="100.348797">
<time>2015-08-06T05:31:07Z</time></trkpt>
<trkpt lat="29.816055" lon="100.348997">
<time>2015-08-06T05:31:08Z</time></trkpt>
<trkpt lat="29.815844" lon="100.349136">
<time>2015-08-06T05:31:09Z</time></trkpt>
<trkpt lat="29.815544" lon="100.349326">
<time>2015-08-06T05:31:10Z</time></trkpt>
<trkpt lat="29.815344" lon="100.349486">
<time>2015-08-06T05:31:11Z</time></trkpt>
<trkpt lat="29.815184" lon="100.349645">
<time>2015-08-06T05:31:12Z</time></trkpt>
<trkpt lat="29.814793" lon="100.350064">
<time>2015-08-06T05:31:13Z</time></trkpt>
<trkpt lat="29.814633" lon="100.350214">
<time>2015-08-06T05:31:14Z</time></trkpt>
<trkpt lat="29.814533" lon="100.350274">
<time>2015-08-06T05:31:15Z</time></trkpt>
<trkpt lat="29.814433" lon="100.350334">
<time>2015-08-06T05:31:16Z</time></trkpt>
<trkpt lat="29.814312" lon="100.350394">
<time>2015-08-06T05:31:17Z</time></trkpt>
<trkpt lat="29.814182" lon="100.350424">
<time>2015-08-06T05:31:18Z</time></trkpt>
<trkpt lat="29.813852" lon="100.350474">
<time>2015-08-06T05:31:19Z</time></trkpt>
<trkpt lat="29.813222" lon="100.350563">
<time>2015-08-06T05:31:20Z</time></trkpt>
<trkpt lat="29.812802" lon="100.350583">
<time>2015-08-06T05:31:21Z</time></trkpt>
<trkpt lat="29.812252" lon="100.350593">
<time>2015-08-06T05:31:22Z</time></trkpt>
<trkpt lat="29.811982" lon="100.350623">
<time>2015-08-06T05:31:23Z</time></trkpt>
<trkpt lat="29.811852" lon="100.350653">
<time>2015-08-06T05:31:24Z</time></trkpt>
<trkpt lat="29.811652" lon="100.350693">
<time>2015-08-06T05:31:25Z</time></trkpt>
<trkpt lat="29.811082" lon="100.350873">
<time>2015-08-06T05:31:26Z</time></trkpt>
<trkpt lat="29.810562" lon="100.351023">
<time>2015-08-06T05:31:27Z</time></trkpt>
<trkpt lat="29.810382" lon="100.351062">
<time>2015-08-06T05:31:28Z</time></trkpt>
<trkpt lat="29.810272" lon="100.351072">
<time>2015-08-06T05:31:29Z</time></trkpt>
<trkpt lat="29.810092" lon="100.351092">
<time>2015-08-06T05:31:30Z</time></trkpt>
<trkpt lat="29.809862" lon="100.351072">
<time>2015-08-06T05:31:31Z</time></trkpt>
<trkpt lat="29.809622" lon="100.351102">
<time>2015-08-06T05:31:32Z</time></trkpt>
<trkpt lat="29.809522" lon="100.351132">
<time>2015-08-06T05:31:33Z</time></trkpt>
<trkpt lat="29.809381" lon="100.351202">
<time>2015-08-06T05:31:34Z</time></trkpt>
<trkpt lat="29.808831" lon="100.351522">
<time>2015-08-06T05:31:35Z</time></trkpt>
<trkpt lat="29.808621" lon="100.351621">
<time>2015-08-06T05:31:36Z</time></trkpt>
<trkpt lat="29.808471" lon="100.351691">
<time>2015-08-06T05:31:37Z</time></trkpt>
<trkpt lat="29.808281" lon="100.351811">
<time>2015-08-06T05:31:38Z</time></trkpt>
<trkpt lat="29.80809" lon="100.351991">
<time>2015-08-06T05:31:39Z</time></trkpt>
<trkpt lat="29.807569" lon="100.3525">
<time>2015-08-06T05:31:40Z</time></trkpt>
<trkpt lat="29.807449" lon="100.352659">
<time>2015-08-06T05:31:41Z</time></trkpt>
<trkpt lat="29.807299" lon="100.352869">
<time>2015-08-06T05:31:42Z</time></trkpt>
<trkpt lat="29.807149" lon="100.353059">
<time>2015-08-06T05:31:43Z</time></trkpt>
<trkpt lat="29.807038" lon="100.353168">
<time>2015-08-06T05:31:44Z</time></trkpt>
<trkpt lat="29.806918" lon="100.353278">
<time>2015-08-06T05:31:45Z</time></trkpt>
<trkpt lat="29.806778" lon="100.353368">
<time>2015-08-06T05:31:46Z</time></trkpt>
<trkpt lat="29.805897" lon="100.353817">
<time>2015-08-06T05:31:47Z</time></trkpt>
<trkpt lat="29.805707" lon="100.353927">
<time>2015-08-06T05:31:48Z</time></trkpt>
<trkpt lat="29.805497" lon="100.354017">
<time>2015-08-06T05:31:49Z</time></trkpt>
<trkpt lat="29.805337" lon="100.354067">
<time>2015-08-06T05:31:50Z</time></trkpt>
<trkpt lat="29.805187" lon="100.354106">
<time>2015-08-06T05:31:51Z</time></trkpt>
<trkpt lat="29.804787" lon="100.354136">
<time>2015-08-06T05:31:52Z</time></trkpt>
<trkpt lat="29.804617" lon="100.354166">
<time>2015-08-06T05:31:53Z</time></trkpt>
<trkpt lat="29.804177" lon="100.354266">
<time>2015-08-06T05:31:54Z</time></trkpt>
<trkpt lat="29.803647" lon="100.354386">
<time>2015-08-06T05:31:55Z</time></trkpt>
<trkpt lat="29.802146" lon="100.354775">
<time>2015-08-06T05:31:56Z</time></trkpt>
<trkpt lat="29.801206" lon="100.355135">
<time>2015-08-06T05:31:57Z</time></trkpt>
<trkpt lat="29.800856" lon="100.355244">
<time>2015-08-06T05:31:58Z</time></trkpt>
<trkpt lat="29.800616" lon="100.355284">
<time>2015-08-06T05:31:59Z</time></trkpt>
<trkpt lat="29.800436" lon="100.355324">
<time>2015-08-06T05:32:00Z</time></trkpt>
<trkpt lat="29.800165" lon="100.355404">
<time>2015-08-06T05:32:01Z</time></trkpt>
<trkpt lat="29.800055" lon="100.355464">
<time>2015-08-06T05:32:02Z</time></trkpt>
<trkpt lat="29.799825" lon="100.355594">
<time>2015-08-06T05:32:03Z</time></trkpt>
<trkpt lat="29.799285" lon="100.355963">
<time>2015-08-06T05:32:04Z</time></trkpt>
<trkpt lat="29.799114" lon="100.356073">
<time>2015-08-06T05:32:05Z</time></trkpt>
<trkpt lat="29.798994" lon="100.356133">
<time>2015-08-06T05:32:06Z</time></trkpt>
<trkpt lat="29.798884" lon="100.356173">
<time>2015-08-06T05:32:07Z</time></trkpt>
<trkpt lat="29.798764" lon="100.356193">
<time>2015-08-06T05:32:08Z</time></trkpt>
<trkpt lat="29.798594" lon="100.356173">
<time>2015-08-06T05:32:09Z</time></trkpt>
<trkpt lat="29.798424" lon="100.356133">
<time>2015-08-06T05:32:10Z</time></trkpt>
<trkpt lat="29.798255" lon="100.356083">
<time>2015-08-06T05:32:11Z</time></trkpt>
<trkpt lat="29.798145" lon="100.356073">
<time>2015-08-06T05:32:12Z</time></trkpt>
<trkpt lat="29.798045" lon="100.356063">
<time>2015-08-06T05:32:13Z</time></trkpt>
<trkpt lat="29.797865" lon="100.356083">
<time>2015-08-06T05:32:14Z</time></trkpt>
<trkpt lat="29.797574" lon="100.356183">
<time>2015-08-06T05:32:15Z</time></trkpt>
<trkpt lat="29.797344" lon="100.356292">
<time>2015-08-06T05:32:16Z</time></trkpt>
<trkpt lat="29.796864" lon="100.356662">
<time>2015-08-06T05:32:17Z</time></trkpt>
<trkpt lat="29.796694" lon="100.356792">
<time>2015-08-06T05:32:18Z</time></trkpt>
<trkpt lat="29.796563" lon="100.356871">
<time>2015-08-06T05:32:19Z</time></trkpt>
<trkpt lat="29.796473" lon="100.356911">
<time>2015-08-06T05:32:20Z</time></trkpt>
<trkpt lat="29.796363" lon="100.356941">
<time>2015-08-06T05:32:21Z</time></trkpt>
<trkpt lat="29.796253" lon="100.356941">
<time>2015-08-06T05:32:22Z</time></trkpt>
<trkpt lat="29.795923" lon="100.356901">
<time>2015-08-06T05:32:23Z</time></trkpt>
<trkpt lat="29.795803" lon="100.356911">
<time>2015-08-06T05:32:24Z</time></trkpt>
<trkpt lat="29.795703" lon="100.356931">
<time>2015-08-06T05:32:25Z</time></trkpt>
<trkpt lat="29.795603" lon="100.356971">
<time>2015-08-06T05:32:26Z</time></trkpt>
<trkpt lat="29.795553" lon="100.356991">
<time>2015-08-06T05:32:27Z</time></trkpt>
<trkpt lat="29.795513" lon="100.357021">
<time>2015-08-06T05:32:28Z</time></trkpt>
<trkpt lat="29.795453" lon="100.357061">
<time>2015-08-06T05:32:29Z</time></trkpt>
<trkpt lat="29.795373" lon="100.357121">
<time>2015-08-06T05:32:30Z</time></trkpt>
<trkpt lat="29.795263" lon="100.357251">
<time>2015-08-06T05:32:31Z</time></trkpt>
<trkpt lat="29.795183" lon="100.35738">
<time>2015-08-06T05:32:32Z</time></trkpt>
<trkpt lat="29.795083" lon="100.35757">
<time>2015-08-06T05:32:33Z</time></trkpt>
<trkpt lat="29.794992" lon="100.35781">
<time>2015-08-06T05:32:34Z</time></trkpt>
<trkpt lat="29.794902" lon="100.358009">
<time>2015-08-06T05:32:35Z</time></trkpt>
<trkpt lat="29.794822" lon="100.358159">
<time>2015-08-06T05:32:36Z</time></trkpt>
<trkpt lat="29.794621" lon="100.358349">
<time>2015-08-06T05:32:37Z</time></trkpt>
<trkpt lat="29.794481" lon="100.358438">
<time>2015-08-06T05:32:38Z</time></trkpt>
<trkpt lat="29.794351" lon="100.358508">
<time>2015-08-06T05:32:39Z</time></trkpt>
<trkpt lat="29.794251" lon="100.358538">
<time>2015-08-06T05:32:40Z</time></trkpt>
<trkpt lat="29.794091" lon="100.358558">
<time>2015-08-06T05:32:41Z</time></trkpt>
<trkpt lat="29.793991" lon="100.358538">
<time>2015-08-06T05:32:42Z</time></trkpt>
<trkpt lat="29.793851" lon="100.358508">
<time>2015-08-06T05:32:43Z</time></trkpt>
<trkpt lat="29.793541" lon="100.358339">
<time>2015-08-06T05:32:44Z</time></trkpt>
<trkpt lat="29.793382" lon="100.358259">
<time>2015-08-06T05:32:45Z</time></trkpt>
<trkpt lat="29.793242" lon="100.358189">
<time>2015-08-06T05:32:46Z</time></trkpt>
<trkpt lat="29.793102" lon="100.358149">
<time>2015-08-06T05:32:47Z</time></trkpt>
<trkpt lat="29.792972" lon="100.358129">
<time>2015-08-06T05:32:48Z</time></trkpt>
<trkpt lat="29.792852" lon="100.358139">
<time>2015-08-06T05:32:49Z</time></trkpt>
<trkpt lat="29.792422" lon="100.358209">
<time>2015-08-06T05:32:50Z</time></trkpt>
<trkpt lat="29.791682" lon="100.358369">
<time>2015-08-06T05:32:51Z</time></trkpt>
<trkpt lat="29.791022" lon="100.358488">
<time>2015-08-06T05:32:52Z</time></trkpt>
<trkpt lat="29.790371" lon="100.358628">
<time>2015-08-06T05:32:53Z</time></trkpt>
<trkpt lat="29.790181" lon="100.358638">
<time>2015-08-06T05:32:54Z</time></trkpt>
<trkpt lat="29.789781" lon="100.358678">
<time>2015-08-06T05:32:55Z</time></trkpt>
<trkpt lat="29.789591" lon="100.358658">
<time>2015-08-06T05:32:56Z</time></trkpt>
<trkpt lat="29.789271" lon="100.358668">
<time>2015-08-06T05:32:57Z</time></trkpt>
<trkpt lat="29.789141" lon="100.358688">
<time>2015-08-06T05:32:58Z</time></trkpt>
<trkpt lat="29.788981" lon="100.358748">
<time>2015-08-06T05:32:59Z</time></trkpt>
<trkpt lat="29.788891" lon="100.358798">
<time>2015-08-06T05:33:00Z</time></trkpt>
<trkpt lat="29.788801" lon="100.358878">
<time>2015-08-06T05:33:01Z</time></trkpt>
<trkpt lat="29.788581" lon="100.359127">
<time>2015-08-06T05:33:02Z</time></trkpt>
<trkpt lat="29.788421" lon="100.359277">
<time>2015-08-06T05:33:03Z</time></trkpt>
<trkpt lat="29.78822" lon="100.359427">
<time>2015-08-06T05:33:04Z</time></trkpt>
<trkpt lat="29.78808" lon="100.359507">
<time>2015-08-06T05:33:05Z</time></trkpt>
<trkpt lat="29.78719" lon="100.359856">
<time>2015-08-06T05:33:06Z</time></trkpt>
<trkpt lat="29.785759" lon="100.360295">
<time>2015-08-06T05:33:07Z</time></trkpt>
<trkpt lat="29.785489" lon="100.360425">
<time>2015-08-06T05:33:08Z</time></trkpt>
<trkpt lat="29.785179" lon="100.360615">
<time>2015-08-06T05:33:09Z</time></trkpt>
<trkpt lat="29.784438" lon="100.361104">
<time>2015-08-06T05:33:10Z</time></trkpt>
<trkpt lat="29.784158" lon="100.361304">
<time>2015-08-06T05:33:11Z</time></trkpt>
<trkpt lat="29.783878" lon="100.361543">
<time>2015-08-06T05:33:12Z</time></trkpt>
<trkpt lat="29.783537" lon="100.361922">
<time>2015-08-06T05:33:13Z</time></trkpt>
<trkpt lat="29.783187" lon="100.362292">
<time>2015-08-06T05:33:14Z</time></trkpt>
<trkpt lat="29.783027" lon="100.362432">
<time>2015-08-06T05:33:15Z</time></trkpt>
<trkpt lat="29.782896" lon="100.362511">
<time>2015-08-06T05:33:16Z</time></trkpt>
<trkpt lat="29.782656" lon="100.362631">
<time>2015-08-06T05:33:17Z</time></trkpt>
<trkpt lat="29.782466" lon="100.362731">
<time>2015-08-06T05:33:18Z</time></trkpt>
<trkpt lat="29.782396" lon="100.362781">
<time>2015-08-06T05:33:19Z</time></trkpt>
<trkpt lat="29.782316" lon="100.362881">
<time>2015-08-06T05:33:20Z</time></trkpt>
<trkpt lat="29.782246" lon="100.362991">
<time>2015-08-06T05:33:21Z</time></trkpt>
<trkpt lat="29.782195" lon="100.36324">
<time>2015-08-06T05:33:22Z</time></trkpt>
<trkpt lat="29.782145" lon="100.36353">
<time>2015-08-06T05:33:23Z</time></trkpt>
<trkpt lat="29.782095" lon="100.363689">
<time>2015-08-06T05:33:24Z</time></trkpt>
<trkpt lat="29.782005" lon="100.363839">
<time>2015-08-06T05:33:25Z</time></trkpt>
<trkpt lat="29.781885" lon="100.363969">
<time>2015-08-06T05:33:26Z</time></trkpt>
<trkpt lat="29.781414" lon="100.364328">
<time>2015-08-06T05:33:27Z</time></trkpt>
<trkpt lat="29.781204" lon="100.364558">
<time>2015-08-06T05:33:28Z</time></trkpt>
<trkpt lat="29.780973" lon="100.364837">
<time>2015-08-06T05:33:29Z</time></trkpt>
<trkpt lat="29.780723" lon="100.365187">
<time>2015-08-06T05:33:30Z</time></trkpt>
<trkpt lat="29.780583" lon="100.365357">
<time>2015-08-06T05:33:31Z</time></trkpt>
<trkpt lat="29.780493" lon="100.365446">
<time>2015-08-06T05:33:32Z</time></trkpt>
<trkpt lat="29.780322" lon="100.365586">
<time>2015-08-06T05:33:33Z</time></trkpt>
<trkpt lat="29.780012" lon="100.365786">
<time>2015-08-06T05:33:34Z</time></trkpt>
<trkpt lat="29.779081" lon="100.366505">
<time>2015-08-06T05:33:35Z</time></trkpt>
<trkpt lat="29.77757" lon="100.367693">
<time>2015-08-06T05:33:36Z</time></trkpt>
<trkpt lat="29.77726" lon="100.367913">
<time>2015-08-06T05:33:37Z</time></trkpt>
<trkpt lat="29.77698" lon="100.368092">
<time>2015-08-06T05:33:38Z</time></trkpt>
<trkpt lat="29.776509" lon="100.368342">
<time>2015-08-06T05:33:39Z</time></trkpt>
<trkpt lat="29.775839" lon="100.368691">
<time>2015-08-06T05:33:40Z</time></trkpt>
<trkpt lat="29.775459" lon="100.368871">
<time>2015-08-06T05:33:41Z</time></trkpt>
<trkpt lat="29.775219" lon="100.368951">
<time>2015-08-06T05:33:42Z</time></trkpt>
<trkpt lat="29.774789" lon="100.369091">
<time>2015-08-06T05:33:43Z</time></trkpt>
<trkpt lat="29.773378" lon="100.36946">
<time>2015-08-06T05:33:44Z</time></trkpt>
<trkpt lat="29.771898" lon="100.36986">
<time>2015-08-06T05:33:45Z</time></trkpt>
<trkpt lat="29.770308" lon="100.370289">
<time>2015-08-06T05:33:46Z</time></trkpt>
<trkpt lat="29.769458" lon="100.370509">
<time>2015-08-06T05:33:47Z</time></trkpt>
<trkpt lat="29.769057" lon="100.370629">
<time>2015-08-06T05:33:48Z</time></trkpt>
<trkpt lat="29.768667" lon="100.370798">
<time>2015-08-06T05:33:49Z</time></trkpt>
<trkpt lat="29.768337" lon="100.370958">
<time>2015-08-06T05:33:50Z</time></trkpt>
<trkpt lat="29.767907" lon="100.371178">
<time>2015-08-06T05:33:51Z</time></trkpt>
<trkpt lat="29.767277" lon="100.371467">
<time>2015-08-06T05:33:52Z</time></trkpt>
<trkpt lat="29.767167" lon="100.371527">
<time>2015-08-06T05:33:53Z</time></trkpt>
<trkpt lat="29.767057" lon="100.371567">
<time>2015-08-06T05:33:54Z</time></trkpt>
<trkpt lat="29.766917" lon="100.371617">
<time>2015-08-06T05:33:55Z</time></trkpt>
<trkpt lat="29.766807" lon="100.371657">
<time>2015-08-06T05:33:56Z</time></trkpt>
<trkpt lat="29.766686" lon="100.371687">
<time>2015-08-06T05:33:57Z</time></trkpt>
<trkpt lat="29.766607" lon="100.371687">
<time>2015-08-06T05:33:58Z</time></trkpt>
<trkpt lat="29.766437" lon="100.371667">
<time>2015-08-06T05:33:59Z</time></trkpt>
<trkpt lat="29.766307" lon="100.371647">
<time>2015-08-06T05:34:00Z</time></trkpt>
<trkpt lat="29.766107" lon="100.371607">
<time>2015-08-06T05:34:01Z</time></trkpt>
<trkpt lat="29.765827" lon="100.371547">
<time>2015-08-06T05:34:02Z</time></trkpt>
<trkpt lat="29.765657" lon="100.371537">
<time>2015-08-06T05:34:03Z</time></trkpt>
<trkpt lat="29.765567" lon="100.371537">
<time>2015-08-06T05:34:04Z</time></trkpt>
<trkpt lat="29.765487" lon="100.371557">
<time>2015-08-06T05:34:05Z</time></trkpt>
<trkpt lat="29.765347" lon="100.371637">
<time>2015-08-06T05:34:06Z</time></trkpt>
<trkpt lat="29.764306" lon="100.372316">
<time>2015-08-06T05:34:07Z</time></trkpt>
<trkpt lat="29.764126" lon="100.372466">
<time>2015-08-06T05:34:08Z</time></trkpt>
<trkpt lat="29.763986" lon="100.372586">
<time>2015-08-06T05:34:09Z</time></trkpt>
<trkpt lat="29.763866" lon="100.372736">
<time>2015-08-06T05:34:10Z</time></trkpt>
<trkpt lat="29.763715" lon="100.372915">
<time>2015-08-06T05:34:11Z</time></trkpt>
<trkpt lat="29.763545" lon="100.373105">
<time>2015-08-06T05:34:12Z</time></trkpt>
<trkpt lat="29.763415" lon="100.373215">
<time>2015-08-06T05:34:13Z</time></trkpt>
<trkpt lat="29.763225" lon="100.373365">
<time>2015-08-06T05:34:14Z</time></trkpt>
<trkpt lat="29.762745" lon="100.373674">
<time>2015-08-06T05:34:15Z</time></trkpt>
<trkpt lat="29.761504" lon="100.374503">
<time>2015-08-06T05:34:16Z</time></trkpt>
<trkpt lat="29.761314" lon="100.374623">
<time>2015-08-06T05:34:17Z</time></trkpt>
<trkpt lat="29.761014" lon="100.374803">
<time>2015-08-06T05:34:18Z</time></trkpt>
<trkpt lat="29.760904" lon="100.374843">
<time>2015-08-06T05:34:19Z</time></trkpt>
<trkpt lat="29.760764" lon="100.374893">
<time>2015-08-06T05:34:20Z</time></trkpt>
<trkpt lat="29.760504" lon="100.374953">
<time>2015-08-06T05:34:21Z</time></trkpt>
<trkpt lat="29.760364" lon="100.374993">
<time>2015-08-06T05:34:22Z</time></trkpt>
<trkpt lat="29.760294" lon="100.375003">
<time>2015-08-06T05:34:23Z</time></trkpt>
<trkpt lat="29.760264" lon="100.375023">
<time>2015-08-06T05:34:24Z</time></trkpt>
<trkpt lat="29.760214" lon="100.375043">
<time>2015-08-06T05:34:25Z</time></trkpt>
<trkpt lat="29.760134" lon="100.375093">
<time>2015-08-06T05:34:26Z</time></trkpt>
<trkpt lat="29.760044" lon="100.375162">
<time>2015-08-06T05:34:27Z</time></trkpt>
<trkpt lat="29.759943" lon="100.375262">
<time>2015-08-06T05:34:28Z</time></trkpt>
<trkpt lat="29.759553" lon="100.375632">
<time>2015-08-06T05:34:29Z</time></trkpt>
<trkpt lat="29.759263" lon="100.375951">
<time>2015-08-06T05:34:30Z</time></trkpt>
<trkpt lat="29.759033" lon="100.376181">
<time>2015-08-06T05:34:31Z</time></trkpt>
<trkpt lat="29.758853" lon="100.376351">
<time>2015-08-06T05:34:32Z</time></trkpt>
<trkpt lat="29.758652" lon="100.376541">
<time>2015-08-06T05:34:33Z</time></trkpt>
<trkpt lat="29.758312" lon="100.37688">
<time>2015-08-06T05:34:34Z</time></trkpt>
<trkpt lat="29.758042" lon="100.37715">
<time>2015-08-06T05:34:35Z</time></trkpt>
<trkpt lat="29.757792" lon="100.37743">
<time>2015-08-06T05:34:36Z</time></trkpt>
<trkpt lat="29.757631" lon="100.377619">
<time>2015-08-06T05:34:37Z</time></trkpt>
<trkpt lat="29.757461" lon="100.377889">
<time>2015-08-06T05:34:38Z</time></trkpt>
<trkpt lat="29.757221" lon="100.378349">
<time>2015-08-06T05:34:39Z</time></trkpt>
<trkpt lat="29.75686" lon="100.379058">
<time>2015-08-06T05:34:40Z</time></trkpt>
<trkpt lat="29.75659" lon="100.379627">
<time>2015-08-06T05:34:41Z</time></trkpt>
<trkpt lat="29.75654" lon="100.379707">
<time>2015-08-06T05:34:42Z</time></trkpt>
<trkpt lat="29.7565" lon="100.379757">
<time>2015-08-06T05:34:43Z</time></trkpt>
<trkpt lat="29.75646" lon="100.379797">
<time>2015-08-06T05:34:44Z</time></trkpt>
<trkpt lat="29.75641" lon="100.379827">
<time>2015-08-06T05:34:45Z</time></trkpt>
<trkpt lat="29.75638" lon="100.379847">
<time>2015-08-06T05:34:46Z</time></trkpt>
<trkpt lat="29.75634" lon="100.379857">
<time>2015-08-06T05:34:47Z</time></trkpt>
<trkpt lat="29.75632" lon="100.379867">
<time>2015-08-06T05:34:48Z</time></trkpt>
<trkpt lat="29.75627" lon="100.379877">
<time>2015-08-06T05:34:49Z</time></trkpt>
<trkpt lat="29.7562" lon="100.379877">
<time>2015-08-06T05:34:50Z</time></trkpt>
<trkpt lat="29.75605" lon="100.379867">
<time>2015-08-06T05:34:51Z</time></trkpt>
<trkpt lat="29.75593" lon="100.379857">
<time>2015-08-06T05:34:52Z</time></trkpt>
<trkpt lat="29.75562" lon="100.379787">
<time>2015-08-06T05:34:53Z</time></trkpt>
<trkpt lat="29.75533" lon="100.379707">
<time>2015-08-06T05:34:54Z</time></trkpt>
<trkpt lat="29.75469" lon="100.379487">
<time>2015-08-06T05:34:55Z</time></trkpt>
<trkpt lat="29.75447" lon="100.379407">
<time>2015-08-06T05:34:56Z</time></trkpt>
<trkpt lat="29.75437" lon="100.379377">
<time>2015-08-06T05:34:57Z</time></trkpt>
<trkpt lat="29.75425" lon="100.379318">
<time>2015-08-06T05:34:58Z</time></trkpt>
<trkpt lat="29.75418" lon="100.379288">
<time>2015-08-06T05:34:59Z</time></trkpt>
<trkpt lat="29.7541" lon="100.379238">
<time>2015-08-06T05:35:00Z</time></trkpt>
<trkpt lat="29.75404" lon="100.379188">
<time>2015-08-06T05:35:01Z</time></trkpt>
<trkpt lat="29.753971" lon="100.379118">
<time>2015-08-06T05:35:02Z</time></trkpt>
<trkpt lat="29.753871" lon="100.379018">
<time>2015-08-06T05:35:03Z</time></trkpt>
<trkpt lat="29.753621" lon="100.378688">
<time>2015-08-06T05:35:04Z</time></trkpt>
<trkpt lat="29.753551" lon="100.378598">
<time>2015-08-06T05:35:05Z</time></trkpt>
<trkpt lat="29.753471" lon="100.378508">
<time>2015-08-06T05:35:06Z</time></trkpt>
<trkpt lat="29.753411" lon="100.378459">
<time>2015-08-06T05:35:07Z</time></trkpt>
<trkpt lat="29.753371" lon="100.378439">
<time>2015-08-06T05:35:08Z</time></trkpt>
<trkpt lat="29.753321" lon="100.378419">
<time>2015-08-06T05:35:09Z</time></trkpt>
<trkpt lat="29.753281" lon="100.378409">
<time>2015-08-06T05:35:10Z</time></trkpt>
<trkpt lat="29.753231" lon="100.378399">
<time>2015-08-06T05:35:11Z</time></trkpt>
<trkpt lat="29.753191" lon="100.378409">
<time>2015-08-06T05:35:12Z</time></trkpt>
<trkpt lat="29.753141" lon="100.378429">
<time>2015-08-06T05:35:13Z</time></trkpt>
<trkpt lat="29.753101" lon="100.378449">
<time>2015-08-06T05:35:14Z</time></trkpt>
<trkpt lat="29.753071" lon="100.378479">
<time>2015-08-06T05:35:15Z</time></trkpt>
<trkpt lat="29.753041" lon="100.378528">
<time>2015-08-06T05:35:16Z</time></trkpt>
<trkpt lat="29.753011" lon="100.378578">
<time>2015-08-06T05:35:17Z</time></trkpt>
<trkpt lat="29.753001" lon="100.378638">
<time>2015-08-06T05:35:18Z</time></trkpt>
<trkpt lat="29.752991" lon="100.378748">
<time>2015-08-06T05:35:19Z</time></trkpt>
<trkpt lat="29.752981" lon="100.379138">
<time>2015-08-06T05:35:20Z</time></trkpt>
<trkpt lat="29.75298" lon="100.379927">
<time>2015-08-06T05:35:21Z</time></trkpt>
<trkpt lat="29.75299" lon="100.380486">
<time>2015-08-06T05:35:22Z</time></trkpt>
<trkpt lat="29.752989" lon="100.380616">
<time>2015-08-06T05:35:23Z</time></trkpt>
<trkpt lat="29.752979" lon="100.380726">
<time>2015-08-06T05:35:24Z</time></trkpt>
<trkpt lat="29.752979" lon="100.380846">
<time>2015-08-06T05:35:25Z</time></trkpt>
<trkpt lat="29.752969" lon="100.380946">
<time>2015-08-06T05:35:26Z</time></trkpt>
<trkpt lat="29.752959" lon="100.381036">
<time>2015-08-06T05:35:27Z</time></trkpt>
<trkpt lat="29.752939" lon="100.381126">
<time>2015-08-06T05:35:28Z</time></trkpt>
<trkpt lat="29.752909" lon="100.381215">
<time>2015-08-06T05:35:29Z</time></trkpt>
<trkpt lat="29.752869" lon="100.381305">
<time>2015-08-06T05:35:30Z</time></trkpt>
<trkpt lat="29.752749" lon="100.381595">
<time>2015-08-06T05:35:31Z</time></trkpt>
<trkpt lat="29.752468" lon="100.382274">
<time>2015-08-06T05:35:32Z</time></trkpt>
<trkpt lat="29.752128" lon="100.383084">
<time>2015-08-06T05:35:33Z</time></trkpt>
<trkpt lat="29.751887" lon="100.383573">
<time>2015-08-06T05:35:34Z</time></trkpt>
<trkpt lat="29.751727" lon="100.383903">
<time>2015-08-06T05:35:35Z</time></trkpt>
<trkpt lat="29.751447" lon="100.384502">
<time>2015-08-06T05:35:36Z</time></trkpt>
<trkpt lat="29.751316" lon="100.384772">
<time>2015-08-06T05:35:37Z</time></trkpt>
<trkpt lat="29.750936" lon="100.385551">
<time>2015-08-06T05:35:38Z</time></trkpt>
<trkpt lat="29.750746" lon="100.385921">
<time>2015-08-06T05:35:39Z</time></trkpt>
<trkpt lat="29.750666" lon="100.386101">
<time>2015-08-06T05:35:40Z</time></trkpt>
<trkpt lat="29.750616" lon="100.386241">
<time>2015-08-06T05:35:41Z</time></trkpt>
<trkpt lat="29.750586" lon="100.386321">
<time>2015-08-06T05:35:42Z</time></trkpt>
<trkpt lat="29.750566" lon="100.386391">
<time>2015-08-06T05:35:43Z</time></trkpt>
<trkpt lat="29.750546" lon="100.38648">
<time>2015-08-06T05:35:44Z</time></trkpt>
<trkpt lat="29.750535" lon="100.38655">
<time>2015-08-06T05:35:45Z</time></trkpt>
<trkpt lat="29.750525" lon="100.38665">
<time>2015-08-06T05:35:46Z</time></trkpt>
<trkpt lat="29.750515" lon="100.38674">
<time>2015-08-06T05:35:47Z</time></trkpt>
<trkpt lat="29.750505" lon="100.38681">
<time>2015-08-06T05:35:48Z</time></trkpt>
<trkpt lat="29.750495" lon="100.38687">
<time>2015-08-06T05:35:49Z</time></trkpt>
<trkpt lat="29.750485" lon="100.38693">
<time>2015-08-06T05:35:50Z</time></trkpt>
<trkpt lat="29.750465" lon="100.38699">
<time>2015-08-06T05:35:51Z</time></trkpt>
<trkpt lat="29.750435" lon="100.38705">
<time>2015-08-06T05:35:52Z</time></trkpt>
<trkpt lat="29.750405" lon="100.3871">
<time>2015-08-06T05:35:53Z</time></trkpt>
<trkpt lat="29.750395" lon="100.38712">
<time>2015-08-06T05:35:54Z</time></trkpt>
<trkpt lat="29.750385" lon="100.38714">
<time>2015-08-06T05:35:55Z</time></trkpt>
<trkpt lat="29.750365" lon="100.38715">
<time>2015-08-06T05:35:56Z</time></trkpt>
<trkpt lat="29.750355" lon="100.38716">
<time>2015-08-06T05:35:57Z</time></trkpt>
<trkpt lat="29.750335" lon="100.38717">
<time>2015-08-06T05:35:58Z</time></trkpt>
<trkpt lat="29.750305" lon="100.38718">
<time>2015-08-06T05:35:59Z</time></trkpt>
<trkpt lat="29.750285" lon="100.38717">
<time>2015-08-06T05:36:00Z</time></trkpt>
<trkpt lat="29.750265" lon="100.38717">
<time>2015-08-06T05:36:01Z</time></trkpt>
<trkpt lat="29.750245" lon="100.38716">
<time>2015-08-06T05:36:02Z</time></trkpt>
<trkpt lat="29.750215" lon="100.38715">
<time>2015-08-06T05:36:03Z</time></trkpt>
<trkpt lat="29.750195" lon="100.38713">
<time>2015-08-06T05:36:04Z</time></trkpt>
<trkpt lat="29.750185" lon="100.38711">
<time>2015-08-06T05:36:05Z</time></trkpt>
<trkpt lat="29.750165" lon="100.3871">
<time>2015-08-06T05:36:06Z</time></trkpt>
<trkpt lat="29.750155" lon="100.38707">
<time>2015-08-06T05:36:07Z</time></trkpt>
<trkpt lat="29.750145" lon="100.38705">
<time>2015-08-06T05:36:08Z</time></trkpt>
<trkpt lat="29.750135" lon="100.38701">
<time>2015-08-06T05:36:09Z</time></trkpt>
<trkpt lat="29.750115" lon="100.38696">
<time>2015-08-06T05:36:10Z</time></trkpt>
<trkpt lat="29.750105" lon="100.38688">
<time>2015-08-06T05:36:11Z</time></trkpt>
<trkpt lat="29.750085" lon="100.38682">
<time>2015-08-06T05:36:12Z</time></trkpt>
<trkpt lat="29.750075" lon="100.38677">
<time>2015-08-06T05:36:13Z</time></trkpt>
<trkpt lat="29.750065" lon="100.38673">
<time>2015-08-06T05:36:14Z</time></trkpt>
<trkpt lat="29.750045" lon="100.38668">
<time>2015-08-06T05:36:15Z</time></trkpt>
<trkpt lat="29.750035" lon="100.38665">
<time>2015-08-06T05:36:16Z</time></trkpt>
<trkpt lat="29.749986" lon="100.38659">
<time>2015-08-06T05:36:17Z</time></trkpt>
<trkpt lat="29.749936" lon="100.38652">
<time>2015-08-06T05:36:18Z</time></trkpt>
<trkpt lat="29.749876" lon="100.38647">
<time>2015-08-06T05:36:19Z</time></trkpt>
<trkpt lat="29.749826" lon="100.38643">
<time>2015-08-06T05:36:20Z</time></trkpt>
<trkpt lat="29.749706" lon="100.386361">
<time>2015-08-06T05:36:21Z</time></trkpt>
<trkpt lat="29.749596" lon="100.386291">
<time>2015-08-06T05:36:22Z</time></trkpt>
<trkpt lat="29.749546" lon="100.386251">
<time>2015-08-06T05:36:23Z</time></trkpt>
<trkpt lat="29.749476" lon="100.386201">
<time>2015-08-06T05:36:24Z</time></trkpt>
<trkpt lat="29.749426" lon="100.386171">
<time>2015-08-06T05:36:25Z</time></trkpt>
<trkpt lat="29.749386" lon="100.386121">
<time>2015-08-06T05:36:26Z</time></trkpt>
<trkpt lat="29.749336" lon="100.386021">
<time>2015-08-06T05:36:27Z</time></trkpt>
<trkpt lat="29.749316" lon="100.385971">
<time>2015-08-06T05:36:28Z</time></trkpt>
<trkpt lat="29.749296" lon="100.385881">
<time>2015-08-06T05:36:29Z</time></trkpt>
<trkpt lat="29.749286" lon="100.385741">
<time>2015-08-06T05:36:30Z</time></trkpt>
<trkpt lat="29.749276" lon="100.385521">
<time>2015-08-06T05:36:31Z</time></trkpt>
<trkpt lat="29.749266" lon="100.385421">
<time>2015-08-06T05:36:32Z</time></trkpt>
<trkpt lat="29.749256" lon="100.385321">
<time>2015-08-06T05:36:33Z</time></trkpt>
<trkpt lat="29.749246" lon="100.385252">
<time>2015-08-06T05:36:34Z</time></trkpt>
<trkpt lat="29.749226" lon="100.385192">
<time>2015-08-06T05:36:35Z</time></trkpt>
<trkpt lat="29.749197" lon="100.385152">
<time>2015-08-06T05:36:36Z</time></trkpt>
<trkpt lat="29.749187" lon="100.385132">
<time>2015-08-06T05:36:37Z</time></trkpt>
<trkpt lat="29.749167" lon="100.385112">
<time>2015-08-06T05:36:38Z</time></trkpt>
<trkpt lat="29.749137" lon="100.385092">
<time>2015-08-06T05:36:39Z</time></trkpt>
<trkpt lat="29.749117" lon="100.385082">
<time>2015-08-06T05:36:40Z</time></trkpt>
<trkpt lat="29.749097" lon="100.385082">
<time>2015-08-06T05:36:41Z</time></trkpt>
<trkpt lat="29.749077" lon="100.385082">
<time>2015-08-06T05:36:42Z</time></trkpt>
<trkpt lat="29.749047" lon="100.385082">
<time>2015-08-06T05:36:43Z</time></trkpt>
<trkpt lat="29.749007" lon="100.385092">
<time>2015-08-06T05:36:44Z</time></trkpt>
<trkpt lat="29.748997" lon="100.385102">
<time>2015-08-06T05:36:45Z</time></trkpt>
<trkpt lat="29.748967" lon="100.385122">
<time>2015-08-06T05:36:46Z</time></trkpt>
<trkpt lat="29.748937" lon="100.385162">
<time>2015-08-06T05:36:47Z</time></trkpt>
<trkpt lat="29.748927" lon="100.385202">
<time>2015-08-06T05:36:48Z</time></trkpt>
<trkpt lat="29.748906" lon="100.385282">
<time>2015-08-06T05:36:49Z</time></trkpt>
<trkpt lat="29.748896" lon="100.385391">
<time>2015-08-06T05:36:50Z</time></trkpt>
<trkpt lat="29.748886" lon="100.385691">
<time>2015-08-06T05:36:51Z</time></trkpt>
<trkpt lat="29.748876" lon="100.385881">
<time>2015-08-06T05:36:52Z</time></trkpt>
<trkpt lat="29.748856" lon="100.385991">
<time>2015-08-06T05:36:53Z</time></trkpt>
<trkpt lat="29.748826" lon="100.386081">
<time>2015-08-06T05:36:54Z</time></trkpt>
<trkpt lat="29.748766" lon="100.386211">
<time>2015-08-06T05:36:55Z</time></trkpt>
<trkpt lat="29.748696" lon="100.386331">
<time>2015-08-06T05:36:56Z</time></trkpt>
<trkpt lat="29.748576" lon="100.386461">
<time>2015-08-06T05:36:57Z</time></trkpt>
<trkpt lat="29.748486" lon="100.38656">
<time>2015-08-06T05:36:58Z</time></trkpt>
<trkpt lat="29.748396" lon="100.38663">
<time>2015-08-06T05:36:59Z</time></trkpt>
<trkpt lat="29.748306" lon="100.38669">
<time>2015-08-06T05:37:00Z</time></trkpt>
<trkpt lat="29.748226" lon="100.38671">
<time>2015-08-06T05:37:01Z</time></trkpt>
<trkpt lat="29.748116" lon="100.38674">
<time>2015-08-06T05:37:02Z</time></trkpt>
<trkpt lat="29.748026" lon="100.38674">
<time>2015-08-06T05:37:03Z</time></trkpt>
<trkpt lat="29.747076" lon="100.38673">
<time>2015-08-06T05:37:04Z</time></trkpt>
<trkpt lat="29.746766" lon="100.38671">
<time>2015-08-06T05:37:05Z</time></trkpt>
<trkpt lat="29.746726" lon="100.38671">
<time>2015-08-06T05:37:06Z</time></trkpt>
<trkpt lat="29.746706" lon="100.38671">
<time>2015-08-06T05:37:07Z</time></trkpt>
<trkpt lat="29.746686" lon="100.38671">
<time>2015-08-06T05:37:08Z</time></trkpt>
<trkpt lat="29.746666" lon="100.38672">
<time>2015-08-06T05:37:09Z</time></trkpt>
<trkpt lat="29.746636" lon="100.38673">
<time>2015-08-06T05:37:10Z</time></trkpt>
<trkpt lat="29.746606" lon="100.38675">
<time>2015-08-06T05:37:11Z</time></trkpt>
<trkpt lat="29.746566" lon="100.38679">
<time>2015-08-06T05:37:12Z</time></trkpt>
<trkpt lat="29.746476" lon="100.3869">
<time>2015-08-06T05:37:13Z</time></trkpt>
<trkpt lat="29.746346" lon="100.38707">
<time>2015-08-06T05:37:14Z</time></trkpt>
<trkpt lat="29.746296" lon="100.38711">
<time>2015-08-06T05:37:15Z</time></trkpt>
<trkpt lat="29.746256" lon="100.38714">
<time>2015-08-06T05:37:16Z</time></trkpt>
<trkpt lat="29.746206" lon="100.38717">
<time>2015-08-06T05:37:17Z</time></trkpt>
<trkpt lat="29.746176" lon="100.38718">
<time>2015-08-06T05:37:18Z</time></trkpt>
<trkpt lat="29.746126" lon="100.38719">
<time>2015-08-06T05:37:19Z</time></trkpt>
<trkpt lat="29.746066" lon="100.3872">
<time>2015-08-06T05:37:20Z</time></trkpt>
<trkpt lat="29.745986" lon="100.38719">
<time>2015-08-06T05:37:21Z</time></trkpt>
<trkpt lat="29.745916" lon="100.38718">
<time>2015-08-06T05:37:22Z</time></trkpt>
<trkpt lat="29.745836" lon="100.38714">
<time>2015-08-06T05:37:23Z</time></trkpt>
<trkpt lat="29.745516" lon="100.38697">
<time>2015-08-06T05:37:24Z</time></trkpt>
<trkpt lat="29.745216" lon="100.38682">
<time>2015-08-06T05:37:25Z</time></trkpt>
<trkpt lat="29.745166" lon="100.3868">
<time>2015-08-06T05:37:26Z</time></trkpt>
<trkpt lat="29.745106" lon="100.38679">
<time>2015-08-06T05:37:27Z</time></trkpt>
<trkpt lat="29.745046" lon="100.38678">
<time>2015-08-06T05:37:28Z</time></trkpt>
<trkpt lat="29.744976" lon="100.38678">
<time>2015-08-06T05:37:29Z</time></trkpt>
<trkpt lat="29.744936" lon="100.38678">
<time>2015-08-06T05:37:30Z</time></trkpt>
<trkpt lat="29.744866" lon="100.3868">
<time>2015-08-06T05:37:31Z</time></trkpt>
<trkpt lat="29.744816" lon="100.38683">
<time>2015-08-06T05:37:32Z</time></trkpt>
<trkpt lat="29.744766" lon="100.38687">
<time>2015-08-06T05:37:33Z</time></trkpt>
<trkpt lat="29.744696" lon="100.38694">
<time>2015-08-06T05:37:34Z</time></trkpt>
<trkpt lat="29.744666" lon="100.387">
<time>2015-08-06T05:37:35Z</time></trkpt>
<trkpt lat="29.744606" lon="100.38708">
<time>2015-08-06T05:37:36Z</time></trkpt>
<trkpt lat="29.744496" lon="100.38728">
<time>2015-08-06T05:37:37Z</time></trkpt>
<trkpt lat="29.744426" lon="100.38735">
<time>2015-08-06T05:37:38Z</time></trkpt>
<trkpt lat="29.744386" lon="100.3874">
<time>2015-08-06T05:37:39Z</time></trkpt>
<trkpt lat="29.744336" lon="100.38744">
<time>2015-08-06T05:37:40Z</time></trkpt>
<trkpt lat="29.744286" lon="100.38746">
<time>2015-08-06T05:37:41Z</time></trkpt>
<trkpt lat="29.744236" lon="100.38748">
<time>2015-08-06T05:37:42Z</time></trkpt>
<trkpt lat="29.744166" lon="100.38748">
<time>2015-08-06T05:37:43Z</time></trkpt>
<trkpt lat="29.743896" lon="100.38745">
<time>2015-08-06T05:37:44Z</time></trkpt>
<trkpt lat="29.743766" lon="100.38743">
<time>2015-08-06T05:37:45Z</time></trkpt>
<trkpt lat="29.743696" lon="100.38743">
<time>2015-08-06T05:37:46Z</time></trkpt>
<trkpt lat="29.743636" lon="100.38744">
<time>2015-08-06T05:37:47Z</time></trkpt>
<trkpt lat="29.743586" lon="100.38745">
<time>2015-08-06T05:37:48Z</time></trkpt>
<trkpt lat="29.743526" lon="100.38748">
<time>2015-08-06T05:37:49Z</time></trkpt>
<trkpt lat="29.743446" lon="100.38754">
<time>2015-08-06T05:37:50Z</time></trkpt>
<trkpt lat="29.743366" lon="100.38761">
<time>2015-08-06T05:37:51Z</time></trkpt>
<trkpt lat="29.743236" lon="100.38776">
<time>2015-08-06T05:37:52Z</time></trkpt>
<trkpt lat="29.743186" lon="100.38781">
<time>2015-08-06T05:37:53Z</time></trkpt>
<trkpt lat="29.743136" lon="100.38785">
<time>2015-08-06T05:37:54Z</time></trkpt>
<trkpt lat="29.743076" lon="100.38789">
<time>2015-08-06T05:37:55Z</time></trkpt>
<trkpt lat="29.742976" lon="100.387929">
<time>2015-08-06T05:37:56Z</time></trkpt>
<trkpt lat="29.742766" lon="100.387999">
<time>2015-08-06T05:37:57Z</time></trkpt>
<trkpt lat="29.742436" lon="100.388129">
<time>2015-08-06T05:37:58Z</time></trkpt>
<trkpt lat="29.742346" lon="100.388169">
<time>2015-08-06T05:37:59Z</time></trkpt>
<trkpt lat="29.742286" lon="100.388209">
<time>2015-08-06T05:38:00Z</time></trkpt>
<trkpt lat="29.742256" lon="100.388239">
<time>2015-08-06T05:38:01Z</time></trkpt>
<trkpt lat="29.742226" lon="100.388279">
<time>2015-08-06T05:38:02Z</time></trkpt>
<trkpt lat="29.742196" lon="100.388389">
<time>2015-08-06T05:38:03Z</time></trkpt>
<trkpt lat="29.742116" lon="100.388539">
<time>2015-08-06T05:38:04Z</time></trkpt>
<trkpt lat="29.742086" lon="100.388609">
<time>2015-08-06T05:38:05Z</time></trkpt>
<trkpt lat="29.742055" lon="100.388729">
<time>2015-08-06T05:38:06Z</time></trkpt>
<trkpt lat="29.741995" lon="100.389099">
<time>2015-08-06T05:38:07Z</time></trkpt>
<trkpt lat="29.741895" lon="100.389768">
<time>2015-08-06T05:38:08Z</time></trkpt>
<trkpt lat="29.741875" lon="100.390028">
<time>2015-08-06T05:38:09Z</time></trkpt>
<trkpt lat="29.741885" lon="100.390138">
<time>2015-08-06T05:38:10Z</time></trkpt>
<trkpt lat="29.741905" lon="100.390268">
<time>2015-08-06T05:38:11Z</time></trkpt>
<trkpt lat="29.741995" lon="100.390478">
<time>2015-08-06T05:38:12Z</time></trkpt>
<trkpt lat="29.742075" lon="100.390668">
<time>2015-08-06T05:38:13Z</time></trkpt>
<trkpt lat="29.742084" lon="100.390708">
<time>2015-08-06T05:38:14Z</time></trkpt>
<trkpt lat="29.742094" lon="100.390757">
<time>2015-08-06T05:38:15Z</time></trkpt>
<trkpt lat="29.742084" lon="100.390807">
<time>2015-08-06T05:38:16Z</time></trkpt>
<trkpt lat="29.742074" lon="100.390837">
<time>2015-08-06T05:38:17Z</time></trkpt>
<trkpt lat="29.742054" lon="100.390867">
<time>2015-08-06T05:38:18Z</time></trkpt>
<trkpt lat="29.742034" lon="100.390887">
<time>2015-08-06T05:38:19Z</time></trkpt>
<trkpt lat="29.742004" lon="100.390907">
<time>2015-08-06T05:38:20Z</time></trkpt>
<trkpt lat="29.741974" lon="100.390917">
<time>2015-08-06T05:38:21Z</time></trkpt>
<trkpt lat="29.741924" lon="100.390917">
<time>2015-08-06T05:38:22Z</time></trkpt>
<trkpt lat="29.741874" lon="100.390907">
<time>2015-08-06T05:38:23Z</time></trkpt>
<trkpt lat="29.741814" lon="100.390897">
<time>2015-08-06T05:38:24Z</time></trkpt>
<trkpt lat="29.741704" lon="100.390867">
<time>2015-08-06T05:38:25Z</time></trkpt>
<trkpt lat="29.741325" lon="100.390708">
<time>2015-08-06T05:38:26Z</time></trkpt>
<trkpt lat="29.741145" lon="100.390598">
<time>2015-08-06T05:38:27Z</time></trkpt>
<trkpt lat="29.741095" lon="100.390568">
<time>2015-08-06T05:38:28Z</time></trkpt>
<trkpt lat="29.741065" lon="100.390538">
<time>2015-08-06T05:38:29Z</time></trkpt>
<trkpt lat="29.741035" lon="100.390498">
<time>2015-08-06T05:38:30Z</time></trkpt>
<trkpt lat="29.741005" lon="100.390458">
<time>2015-08-06T05:38:31Z</time></trkpt>
<trkpt lat="29.740985" lon="100.390398">
<time>2015-08-06T05:38:32Z</time></trkpt>
<trkpt lat="29.740955" lon="100.390338">
<time>2015-08-06T05:38:33Z</time></trkpt>
<trkpt lat="29.740945" lon="100.390268">
<time>2015-08-06T05:38:34Z</time></trkpt>
<trkpt lat="29.740935" lon="100.390198">
<time>2015-08-06T05:38:35Z</time></trkpt>
<trkpt lat="29.740935" lon="100.390108">
<time>2015-08-06T05:38:36Z</time></trkpt>
<trkpt lat="29.740955" lon="100.389968">
<time>2015-08-06T05:38:37Z</time></trkpt>
<trkpt lat="29.741015" lon="100.389788">
<time>2015-08-06T05:38:38Z</time></trkpt>
<trkpt lat="29.741095" lon="100.389498">
<time>2015-08-06T05:38:39Z</time></trkpt>
<trkpt lat="29.741125" lon="100.389318">
<time>2015-08-06T05:38:40Z</time></trkpt>
<trkpt lat="29.741135" lon="100.389259">
<time>2015-08-06T05:38:41Z</time></trkpt>
<trkpt lat="29.741135" lon="100.389199">
<time>2015-08-06T05:38:42Z</time></trkpt>
<trkpt lat="29.741115" lon="100.389139">
<time>2015-08-06T05:38:43Z</time></trkpt>
<trkpt lat="29.741095" lon="100.389089">
<time>2015-08-06T05:38:44Z</time></trkpt>
<trkpt lat="29.741055" lon="100.389029">
<time>2015-08-06T05:38:45Z</time></trkpt>
<trkpt lat="29.741025" lon="100.389009">
<time>2015-08-06T05:38:46Z</time></trkpt>
<trkpt lat="29.741005" lon="100.388989">
<time>2015-08-06T05:38:47Z</time></trkpt>
<trkpt lat="29.740945" lon="100.388959">
<time>2015-08-06T05:38:48Z</time></trkpt>
<trkpt lat="29.740886" lon="100.388939">
<time>2015-08-06T05:38:49Z</time></trkpt>
<trkpt lat="29.740766" lon="100.388929">
<time>2015-08-06T05:38:50Z</time></trkpt>
<trkpt lat="29.740726" lon="100.388929">
<time>2015-08-06T05:38:51Z</time></trkpt>
<trkpt lat="29.740676" lon="100.388939">
<time>2015-08-06T05:38:52Z</time></trkpt>
<trkpt lat="29.740626" lon="100.388969">
<time>2015-08-06T05:38:53Z</time></trkpt>
<trkpt lat="29.740576" lon="100.389009">
<time>2015-08-06T05:38:54Z</time></trkpt>
<trkpt lat="29.740535" lon="100.389089">
<time>2015-08-06T05:38:55Z</time></trkpt>
<trkpt lat="29.740505" lon="100.389189">
<time>2015-08-06T05:38:56Z</time></trkpt>
<trkpt lat="29.740495" lon="100.389279">
<time>2015-08-06T05:38:57Z</time></trkpt>
<trkpt lat="29.740485" lon="100.389488">
<time>2015-08-06T05:38:58Z</time></trkpt>
<trkpt lat="29.740475" lon="100.389598">
<time>2015-08-06T05:38:59Z</time></trkpt>
<trkpt lat="29.740455" lon="100.389718">
<time>2015-08-06T05:39:00Z</time></trkpt>
<trkpt lat="29.740405" lon="100.389868">
<time>2015-08-06T05:39:01Z</time></trkpt>
<trkpt lat="29.740315" lon="100.390078">
<time>2015-08-06T05:39:02Z</time></trkpt>
<trkpt lat="29.740125" lon="100.390408">
<time>2015-08-06T05:39:03Z</time></trkpt>
<trkpt lat="29.739975" lon="100.390628">
<time>2015-08-06T05:39:04Z</time></trkpt>
<trkpt lat="29.739865" lon="100.390778">
<time>2015-08-06T05:39:05Z</time></trkpt>
<trkpt lat="29.739115" lon="100.391537">
<time>2015-08-06T05:39:06Z</time></trkpt>
<trkpt lat="29.738885" lon="100.391787">
<time>2015-08-06T05:39:07Z</time></trkpt>
<trkpt lat="29.738614" lon="100.392137">
<time>2015-08-06T05:39:08Z</time></trkpt>
<trkpt lat="29.738354" lon="100.392546">
<time>2015-08-06T05:39:09Z</time></trkpt>
<trkpt lat="29.737774" lon="100.393456">
<time>2015-08-06T05:39:10Z</time></trkpt>
<trkpt lat="29.737424" lon="100.394056">
<time>2015-08-06T05:39:11Z</time></trkpt>
<trkpt lat="29.737054" lon="100.394695">
<time>2015-08-06T05:39:12Z</time></trkpt>
<trkpt lat="29.736884" lon="100.394965">
<time>2015-08-06T05:39:13Z</time></trkpt>
<trkpt lat="29.736764" lon="100.395135">
<time>2015-08-06T05:39:14Z</time></trkpt>
<trkpt lat="29.736614" lon="100.395325">
<time>2015-08-06T05:39:15Z</time></trkpt>
<trkpt lat="29.736024" lon="100.396045">
<time>2015-08-06T05:39:16Z</time></trkpt>
<trkpt lat="29.735624" lon="100.396605">
<time>2015-08-06T05:39:17Z</time></trkpt>
<trkpt lat="29.735404" lon="100.396925">
<time>2015-08-06T05:39:18Z</time></trkpt>
<trkpt lat="29.735264" lon="100.397104">
<time>2015-08-06T05:39:19Z</time></trkpt>
<trkpt lat="29.735174" lon="100.397204">
<time>2015-08-06T05:39:20Z</time></trkpt>
<trkpt lat="29.735074" lon="100.397294">
<time>2015-08-06T05:39:21Z</time></trkpt>
<trkpt lat="29.735014" lon="100.397344">
<time>2015-08-06T05:39:22Z</time></trkpt>
<trkpt lat="29.734824" lon="100.397454">
<time>2015-08-06T05:39:23Z</time></trkpt>
<trkpt lat="29.734584" lon="100.397604">
<time>2015-08-06T05:39:24Z</time></trkpt>
<trkpt lat="29.734494" lon="100.397684">
<time>2015-08-06T05:39:25Z</time></trkpt>
<trkpt lat="29.734404" lon="100.397774">
<time>2015-08-06T05:39:26Z</time></trkpt>
<trkpt lat="29.734284" lon="100.397914">
<time>2015-08-06T05:39:27Z</time></trkpt>
<trkpt lat="29.734014" lon="100.398254">
<time>2015-08-06T05:39:28Z</time></trkpt>
<trkpt lat="29.733914" lon="100.398374">
<time>2015-08-06T05:39:29Z</time></trkpt>
<trkpt lat="29.733784" lon="100.398574">
<time>2015-08-06T05:39:30Z</time></trkpt>
<trkpt lat="29.733434" lon="100.399204">
<time>2015-08-06T05:39:31Z</time></trkpt>
<trkpt lat="29.733264" lon="100.399524">
<time>2015-08-06T05:39:32Z</time></trkpt>
<trkpt lat="29.733064" lon="100.399914">
<time>2015-08-06T05:39:33Z</time></trkpt>
<trkpt lat="29.732994" lon="100.400004">
<time>2015-08-06T05:39:34Z</time></trkpt>
<trkpt lat="29.732924" lon="100.400104">
<time>2015-08-06T05:39:35Z</time></trkpt>
<trkpt lat="29.732854" lon="100.400174">
<time>2015-08-06T05:39:36Z</time></trkpt>
<trkpt lat="29.732774" lon="100.400234">
<time>2015-08-06T05:39:37Z</time></trkpt>
<trkpt lat="29.732674" lon="100.400294">
<time>2015-08-06T05:39:38Z</time></trkpt>
<trkpt lat="29.732424" lon="100.400384">
<time>2015-08-06T05:39:39Z</time></trkpt>
<trkpt lat="29.731584" lon="100.400564">
<time>2015-08-06T05:39:40Z</time></trkpt>
<trkpt lat="29.731264" lon="100.400634">
<time>2015-08-06T05:39:41Z</time></trkpt>
<trkpt lat="29.731184" lon="100.400664">
<time>2015-08-06T05:39:42Z</time></trkpt>
<trkpt lat="29.731054" lon="100.400704">
<time>2015-08-06T05:39:43Z</time></trkpt>
<trkpt lat="29.730934" lon="100.400774">
<time>2015-08-06T05:39:44Z</time></trkpt>
<trkpt lat="29.730884" lon="100.400814">
<time>2015-08-06T05:39:45Z</time></trkpt>
<trkpt lat="29.730754" lon="100.400904">
<time>2015-08-06T05:39:46Z</time></trkpt>
<trkpt lat="29.730624" lon="100.401014">
<time>2015-08-06T05:39:47Z</time></trkpt>
<trkpt lat="29.730364" lon="100.401264">
<time>2015-08-06T05:39:48Z</time></trkpt>
<trkpt lat="29.729484" lon="100.402113">
<time>2015-08-06T05:39:49Z</time></trkpt>
<trkpt lat="29.729244" lon="100.402333">
<time>2015-08-06T05:39:50Z</time></trkpt>
<trkpt lat="29.728864" lon="100.402663">
<time>2015-08-06T05:39:51Z</time></trkpt>
<trkpt lat="29.728474" lon="100.402983">
<time>2015-08-06T05:39:52Z</time></trkpt>
<trkpt lat="29.728314" lon="100.403123">
<time>2015-08-06T05:39:53Z</time></trkpt>
<trkpt lat="29.728224" lon="100.403223">
<time>2015-08-06T05:39:54Z</time></trkpt>
<trkpt lat="29.728125" lon="100.403353">
<time>2015-08-06T05:39:55Z</time></trkpt>
<trkpt lat="29.728035" lon="100.403503">
<time>2015-08-06T05:39:56Z</time></trkpt>
<trkpt lat="29.727715" lon="100.404143">
<time>2015-08-06T05:39:57Z</time></trkpt>
<trkpt lat="29.727615" lon="100.404343">
<time>2015-08-06T05:39:58Z</time></trkpt>
<trkpt lat="29.727535" lon="100.404483">
<time>2015-08-06T05:39:59Z</time></trkpt>
<trkpt lat="29.727485" lon="100.404543">
<time>2015-08-06T05:40:00Z</time></trkpt>
<trkpt lat="29.727405" lon="100.404633">
<time>2015-08-06T05:40:01Z</time></trkpt>
<trkpt lat="29.727315" lon="100.404723">
<time>2015-08-06T05:40:02Z</time></trkpt>
<trkpt lat="29.727125" lon="100.404853">
<time>2015-08-06T05:40:03Z</time></trkpt>
<trkpt lat="29.726565" lon="100.405173">
<time>2015-08-06T05:40:04Z</time></trkpt>
<trkpt lat="29.726295" lon="100.405323">
<time>2015-08-06T05:40:05Z</time></trkpt>
<trkpt lat="29.726175" lon="100.405413">
<time>2015-08-06T05:40:06Z</time></trkpt>
<trkpt lat="29.726095" lon="100.405473">
<time>2015-08-06T05:40:07Z</time></trkpt>
<trkpt lat="29.726025" lon="100.405534">
<time>2015-08-06T05:40:08Z</time></trkpt>
<trkpt lat="29.725885" lon="100.405704">
<time>2015-08-06T05:40:09Z</time></trkpt>
<trkpt lat="29.725535" lon="100.406164">
<time>2015-08-06T05:40:10Z</time></trkpt>
<trkpt lat="29.725116" lon="100.406724">
<time>2015-08-06T05:40:11Z</time></trkpt>
<trkpt lat="29.725036" lon="100.406804">
<time>2015-08-06T05:40:12Z</time></trkpt>
<trkpt lat="29.724966" lon="100.406864">
<time>2015-08-06T05:40:13Z</time></trkpt>
<trkpt lat="29.724826" lon="100.406914">
<time>2015-08-06T05:40:14Z</time></trkpt>
<trkpt lat="29.724736" lon="100.406944">
<time>2015-08-06T05:40:15Z</time></trkpt>
<trkpt lat="29.724596" lon="100.406944">
<time>2015-08-06T05:40:16Z</time></trkpt>
<trkpt lat="29.724476" lon="100.406934">
<time>2015-08-06T05:40:17Z</time></trkpt>
<trkpt lat="29.724366" lon="100.406904">
<time>2015-08-06T05:40:18Z</time></trkpt>
<trkpt lat="29.724246" lon="100.406864">
<time>2015-08-06T05:40:19Z</time></trkpt>
<trkpt lat="29.724126" lon="100.406794">
<time>2015-08-06T05:40:20Z</time></trkpt>
<trkpt lat="29.723896" lon="100.406614">
<time>2015-08-06T05:40:21Z</time></trkpt>
<trkpt lat="29.723466" lon="100.406274">
<time>2015-08-06T05:40:22Z</time></trkpt>
<trkpt lat="29.723036" lon="100.405884">
<time>2015-08-06T05:40:23Z</time></trkpt>
<trkpt lat="29.722676" lon="100.405524">
<time>2015-08-06T05:40:24Z</time></trkpt>
<trkpt lat="29.722026" lon="100.404864">
<time>2015-08-06T05:40:25Z</time></trkpt>
<trkpt lat="29.721506" lon="100.404334">
<time>2015-08-06T05:40:26Z</time></trkpt>
<trkpt lat="29.721416" lon="100.404234">
<time>2015-08-06T05:40:27Z</time></trkpt>
<trkpt lat="29.721286" lon="100.404064">
<time>2015-08-06T05:40:28Z</time></trkpt>
<trkpt lat="29.721016" lon="100.403654">
<time>2015-08-06T05:40:29Z</time></trkpt>
<trkpt lat="29.720866" lon="100.403454">
<time>2015-08-06T05:40:30Z</time></trkpt>
<trkpt lat="29.720796" lon="100.403384">
<time>2015-08-06T05:40:31Z</time></trkpt>
<trkpt lat="29.720726" lon="100.403304">
<time>2015-08-06T05:40:32Z</time></trkpt>
<trkpt lat="29.720616" lon="100.403214">
<time>2015-08-06T05:40:33Z</time></trkpt>
<trkpt lat="29.720516" lon="100.403154">
<time>2015-08-06T05:40:34Z</time></trkpt>
<trkpt lat="29.720396" lon="100.403094">
<time>2015-08-06T05:40:35Z</time></trkpt>
<trkpt lat="29.720066" lon="100.402934">
<time>2015-08-06T05:40:36Z</time></trkpt>
<trkpt lat="29.719896" lon="100.402864">
<time>2015-08-06T05:40:37Z</time></trkpt>
<trkpt lat="29.719616" lon="100.402684">
<time>2015-08-06T05:40:38Z</time></trkpt>
<trkpt lat="29.719396" lon="100.402514">
<time>2015-08-06T05:40:39Z</time></trkpt>
<trkpt lat="29.719136" lon="100.402314">
<time>2015-08-06T05:40:40Z</time></trkpt>
<trkpt lat="29.718936" lon="100.402094">
<time>2015-08-06T05:40:41Z</time></trkpt>
<trkpt lat="29.718826" lon="100.401964">
<time>2015-08-06T05:40:42Z</time></trkpt>
<trkpt lat="29.718706" lon="100.401784">
<time>2015-08-06T05:40:43Z</time></trkpt>
<trkpt lat="29.718496" lon="100.401444">
<time>2015-08-06T05:40:44Z</time></trkpt>
<trkpt lat="29.718416" lon="100.401344">
<time>2015-08-06T05:40:45Z</time></trkpt>
<trkpt lat="29.718336" lon="100.401264">
<time>2015-08-06T05:40:46Z</time></trkpt>
<trkpt lat="29.718216" lon="100.401154">
<time>2015-08-06T05:40:47Z</time></trkpt>
<trkpt lat="29.718086" lon="100.401054">
<time>2015-08-06T05:40:48Z</time></trkpt>
<trkpt lat="29.717986" lon="100.401004">
<time>2015-08-06T05:40:49Z</time></trkpt>
<trkpt lat="29.717556" lon="100.400814">
<time>2015-08-06T05:40:50Z</time></trkpt>
<trkpt lat="29.716716" lon="100.400454">
<time>2015-08-06T05:40:51Z</time></trkpt>
<trkpt lat="29.715866" lon="100.400094">
<time>2015-08-06T05:40:52Z</time></trkpt>
<trkpt lat="29.715197" lon="100.399794">
<time>2015-08-06T05:40:53Z</time></trkpt>
<trkpt lat="29.714987" lon="100.399684">
<time>2015-08-06T05:40:54Z</time></trkpt>
<trkpt lat="29.714857" lon="100.399594">
<time>2015-08-06T05:40:55Z</time></trkpt>
<trkpt lat="29.714277" lon="100.399104">
<time>2015-08-06T05:40:56Z</time></trkpt>
<trkpt lat="29.713827" lon="100.398715">
<time>2015-08-06T05:40:57Z</time></trkpt>
<trkpt lat="29.713157" lon="100.398135">
<time>2015-08-06T05:40:58Z</time></trkpt>
<trkpt lat="29.712247" lon="100.397345">
<time>2015-08-06T05:40:59Z</time></trkpt>
<trkpt lat="29.711118" lon="100.396375">
<time>2015-08-06T05:41:00Z</time></trkpt>
<trkpt lat="29.710248" lon="100.395626">
<time>2015-08-06T05:41:01Z</time></trkpt>
<trkpt lat="29.709538" lon="100.395006">
<time>2015-08-06T05:41:02Z</time></trkpt>
<trkpt lat="29.708819" lon="100.394396">
<time>2015-08-06T05:41:03Z</time></trkpt>
<trkpt lat="29.707929" lon="100.393617">
<time>2015-08-06T05:41:04Z</time></trkpt>
<trkpt lat="29.70601" lon="100.391928">
<time>2015-08-06T05:41:05Z</time></trkpt>
<trkpt lat="29.704331" lon="100.390619">
<time>2015-08-06T05:41:06Z</time></trkpt>
<trkpt lat="29.702812" lon="100.38945">
<time>2015-08-06T05:41:07Z</time></trkpt>
<trkpt lat="29.701622" lon="100.38851">
<time>2015-08-06T05:41:08Z</time></trkpt>
<trkpt lat="29.700733" lon="100.387801">
<time>2015-08-06T05:41:09Z</time></trkpt>
<trkpt lat="29.700623" lon="100.387761">
<time>2015-08-06T05:41:10Z</time></trkpt>
<trkpt lat="29.700553" lon="100.387741">
<time>2015-08-06T05:41:11Z</time></trkpt>
<trkpt lat="29.700503" lon="100.387741">
<time>2015-08-06T05:41:12Z</time></trkpt>
<trkpt lat="29.700383" lon="100.387751">
<time>2015-08-06T05:41:13Z</time></trkpt>
<trkpt lat="29.700133" lon="100.387811">
<time>2015-08-06T05:41:14Z</time></trkpt>
<trkpt lat="29.698983" lon="100.388141">
<time>2015-08-06T05:41:15Z</time></trkpt>
<trkpt lat="29.698103" lon="100.38838">
<time>2015-08-06T05:41:16Z</time></trkpt>
<trkpt lat="29.697963" lon="100.38844">
<time>2015-08-06T05:41:17Z</time></trkpt>
<trkpt lat="29.697873" lon="100.38847">
<time>2015-08-06T05:41:18Z</time></trkpt>
<trkpt lat="29.697723" lon="100.38856">
<time>2015-08-06T05:41:19Z</time></trkpt>
<trkpt lat="29.697653" lon="100.38861">
<time>2015-08-06T05:41:20Z</time></trkpt>
<trkpt lat="29.697583" lon="100.38867">
<time>2015-08-06T05:41:21Z</time></trkpt>
<trkpt lat="29.697483" lon="100.38877">
<time>2015-08-06T05:41:22Z</time></trkpt>
<trkpt lat="29.697403" lon="100.38887">
<time>2015-08-06T05:41:23Z</time></trkpt>
<trkpt lat="29.697343" lon="100.38896">
<time>2015-08-06T05:41:24Z</time></trkpt>
<trkpt lat="29.697073" lon="100.38942">
<time>2015-08-06T05:41:25Z</time></trkpt>
<trkpt lat="29.696963" lon="100.38962">
<time>2015-08-06T05:41:26Z</time></trkpt>
<trkpt lat="29.696682" lon="100.390109">
<time>2015-08-06T05:41:27Z</time></trkpt>
<trkpt lat="29.696592" lon="100.390259">
<time>2015-08-06T05:41:28Z</time></trkpt>
<trkpt lat="29.696512" lon="100.390369">
<time>2015-08-06T05:41:29Z</time></trkpt>
<trkpt lat="29.696402" lon="100.390499">
<time>2015-08-06T05:41:30Z</time></trkpt>
<trkpt lat="29.696332" lon="100.390569">
<time>2015-08-06T05:41:31Z</time></trkpt>
<trkpt lat="29.696212" lon="100.390669">
<time>2015-08-06T05:41:32Z</time></trkpt>
<trkpt lat="29.695962" lon="100.390859">
<time>2015-08-06T05:41:33Z</time></trkpt>
<trkpt lat="29.695392" lon="100.391299">
<time>2015-08-06T05:41:34Z</time></trkpt>
<trkpt lat="29.695132" lon="100.391478">
<time>2015-08-06T05:41:35Z</time></trkpt>
<trkpt lat="29.695052" lon="100.391498">
<time>2015-08-06T05:41:36Z</time></trkpt>
<trkpt lat="29.695002" lon="100.391518">
<time>2015-08-06T05:41:37Z</time></trkpt>
<trkpt lat="29.694902" lon="100.391528">
<time>2015-08-06T05:41:38Z</time></trkpt>
<trkpt lat="29.694822" lon="100.391528">
<time>2015-08-06T05:41:39Z</time></trkpt>
<trkpt lat="29.694732" lon="100.391498">
<time>2015-08-06T05:41:40Z</time></trkpt>
<trkpt lat="29.694662" lon="100.391458">
<time>2015-08-06T05:41:41Z</time></trkpt>
<trkpt lat="29.694592" lon="100.391408">
<time>2015-08-06T05:41:42Z</time></trkpt>
<trkpt lat="29.694502" lon="100.391319">
<time>2015-08-06T05:41:43Z</time></trkpt>
<trkpt lat="29.694332" lon="100.391109">
<time>2015-08-06T05:41:44Z</time></trkpt>
<trkpt lat="29.693923" lon="100.390569">
<time>2015-08-06T05:41:45Z</time></trkpt>
<trkpt lat="29.692994" lon="100.38935">
<time>2015-08-06T05:41:46Z</time></trkpt>
<trkpt lat="29.692954" lon="100.38929">
<time>2015-08-06T05:41:47Z</time></trkpt>
<trkpt lat="29.692324" lon="100.388461">
<time>2015-08-06T05:41:48Z</time></trkpt>
<trkpt lat="29.691535" lon="100.387421">
<time>2015-08-06T05:41:49Z</time></trkpt>
<trkpt lat="29.690806" lon="100.386442">
<time>2015-08-06T05:41:50Z</time></trkpt>
<trkpt lat="29.689966" lon="100.385333">
<time>2015-08-06T05:41:51Z</time></trkpt>
<trkpt lat="29.689137" lon="100.384234">
<time>2015-08-06T05:41:52Z</time></trkpt>
<trkpt lat="29.688148" lon="100.382916">
<time>2015-08-06T05:41:53Z</time></trkpt>
<trkpt lat="29.68716" lon="100.381607">
<time>2015-08-06T05:41:54Z</time></trkpt>
<trkpt lat="29.68675" lon="100.381048">
<time>2015-08-06T05:41:55Z</time></trkpt>
<trkpt lat="29.685422" lon="100.37928">
<time>2015-08-06T05:41:56Z</time></trkpt>
<trkpt lat="29.684703" lon="100.378321">
<time>2015-08-06T05:41:57Z</time></trkpt>
<trkpt lat="29.684463" lon="100.378031">
<time>2015-08-06T05:41:58Z</time></trkpt>
<trkpt lat="29.684254" lon="100.377831">
<time>2015-08-06T05:41:59Z</time></trkpt>
<trkpt lat="29.684114" lon="100.377712">
<time>2015-08-06T05:42:00Z</time></trkpt>
<trkpt lat="29.683724" lon="100.377422">
<time>2015-08-06T05:42:01Z</time></trkpt>
<trkpt lat="29.682715" lon="100.376743">
<time>2015-08-06T05:42:02Z</time></trkpt>
<trkpt lat="29.681376" lon="100.375824">
<time>2015-08-06T05:42:03Z</time></trkpt>
<trkpt lat="29.680247" lon="100.375045">
<time>2015-08-06T05:42:04Z</time></trkpt>
<trkpt lat="29.679628" lon="100.374616">
<time>2015-08-06T05:42:05Z</time></trkpt>
<trkpt lat="29.678838" lon="100.374086">
<time>2015-08-06T05:42:06Z</time></trkpt>
<trkpt lat="29.678649" lon="100.373957">
<time>2015-08-06T05:42:07Z</time></trkpt>
<trkpt lat="29.678459" lon="100.373827">
<time>2015-08-06T05:42:08Z</time></trkpt>
<trkpt lat="29.67769" lon="100.373297">
<time>2015-08-06T05:42:09Z</time></trkpt>
<trkpt lat="29.676161" lon="100.372259">
<time>2015-08-06T05:42:10Z</time></trkpt>
<trkpt lat="29.674163" lon="100.370881">
<time>2015-08-06T05:42:11Z</time></trkpt>
<trkpt lat="29.673324" lon="100.370292">
<time>2015-08-06T05:42:12Z</time></trkpt>
<trkpt lat="29.670257" lon="100.368215">
<time>2015-08-06T05:42:13Z</time></trkpt>
<trkpt lat="29.668119" lon="100.366768">
<time>2015-08-06T05:42:14Z</time></trkpt>
<trkpt lat="29.666711" lon="100.365789">
<time>2015-08-06T05:42:15Z</time></trkpt>
<trkpt lat="29.65875" lon="100.360389">
<time>2015-08-06T05:42:16Z</time></trkpt>
<trkpt lat="29.655354" lon="100.358502">
<time>2015-08-06T05:42:17Z</time></trkpt>
<trkpt lat="29.655054" lon="100.358383">
<time>2015-08-06T05:42:18Z</time></trkpt>
<trkpt lat="29.654755" lon="100.358283">
<time>2015-08-06T05:42:19Z</time></trkpt>
<trkpt lat="29.654375" lon="100.358203">
<time>2015-08-06T05:42:20Z</time></trkpt>
<trkpt lat="29.653815" lon="100.358083">
<time>2015-08-06T05:42:21Z</time></trkpt>
<trkpt lat="29.653625" lon="100.358013">
<time>2015-08-06T05:42:22Z</time></trkpt>
<trkpt lat="29.653465" lon="100.357914">
<time>2015-08-06T05:42:23Z</time></trkpt>
<trkpt lat="29.652886" lon="100.357355">
<time>2015-08-06T05:42:24Z</time></trkpt>
<trkpt lat="29.652357" lon="100.356866">
<time>2015-08-06T05:42:25Z</time></trkpt>
<trkpt lat="29.651698" lon="100.356476">
<time>2015-08-06T05:42:26Z</time></trkpt>
<trkpt lat="29.650989" lon="100.355987">
<time>2015-08-06T05:42:27Z</time></trkpt>
<trkpt lat="29.650011" lon="100.355159">
<time>2015-08-06T05:42:28Z</time></trkpt>
<trkpt lat="29.649202" lon="100.35448">
<time>2015-08-06T05:42:29Z</time></trkpt>
<trkpt lat="29.648912" lon="100.354291">
<time>2015-08-06T05:42:30Z</time></trkpt>
<trkpt lat="29.648633" lon="100.354061">
<time>2015-08-06T05:42:31Z</time></trkpt>
<trkpt lat="29.648453" lon="100.353762">
<time>2015-08-06T05:42:32Z</time></trkpt>
<trkpt lat="29.648274" lon="100.353562">
<time>2015-08-06T05:42:33Z</time></trkpt>
<trkpt lat="29.648174" lon="100.353512">
<time>2015-08-06T05:42:34Z</time></trkpt>
<trkpt lat="29.648014" lon="100.353482">
<time>2015-08-06T05:42:35Z</time></trkpt>
<trkpt lat="29.647334" lon="100.353602">
<time>2015-08-06T05:42:36Z</time></trkpt>
<trkpt lat="29.647174" lon="100.353602">
<time>2015-08-06T05:42:37Z</time></trkpt>
<trkpt lat="29.646984" lon="100.353572">
<time>2015-08-06T05:42:38Z</time></trkpt>
<trkpt lat="29.646804" lon="100.353452">
<time>2015-08-06T05:42:39Z</time></trkpt>
<trkpt lat="29.646345" lon="100.353073">
<time>2015-08-06T05:42:40Z</time></trkpt>
<trkpt lat="29.646225" lon="100.353023">
<time>2015-08-06T05:42:41Z</time></trkpt>
<trkpt lat="29.646095" lon="100.352993">
<time>2015-08-06T05:42:42Z</time></trkpt>
<trkpt lat="29.645965" lon="100.353003">
<time>2015-08-06T05:42:43Z</time></trkpt>
<trkpt lat="29.645865" lon="100.353033">
<time>2015-08-06T05:42:44Z</time></trkpt>
<trkpt lat="29.645705" lon="100.353083">
<time>2015-08-06T05:42:45Z</time></trkpt>
<trkpt lat="29.645425" lon="100.353153">
<time>2015-08-06T05:42:46Z</time></trkpt>
<trkpt lat="29.645215" lon="100.353163">
<time>2015-08-06T05:42:47Z</time></trkpt>
<trkpt lat="29.644495" lon="100.353053">
<time>2015-08-06T05:42:48Z</time></trkpt>
<trkpt lat="29.644256" lon="100.352944">
<time>2015-08-06T05:42:49Z</time></trkpt>
<trkpt lat="29.643407" lon="100.352015">
<time>2015-08-06T05:42:50Z</time></trkpt>
<trkpt lat="29.643258" lon="100.351866">
<time>2015-08-06T05:42:51Z</time></trkpt>
<trkpt lat="29.643118" lon="100.351766">
<time>2015-08-06T05:42:52Z</time></trkpt>
<trkpt lat="29.643008" lon="100.351706">
<time>2015-08-06T05:42:53Z</time></trkpt>
<trkpt lat="29.642618" lon="100.351556">
<time>2015-08-06T05:42:54Z</time></trkpt>
<trkpt lat="29.642289" lon="100.351357">
<time>2015-08-06T05:42:55Z</time></trkpt>
<trkpt lat="29.642059" lon="100.351197">
<time>2015-08-06T05:42:56Z</time></trkpt>
<trkpt lat="29.64176" lon="100.350798">
<time>2015-08-06T05:42:57Z</time></trkpt>
<trkpt lat="29.64145" lon="100.350578">
<time>2015-08-06T05:42:58Z</time></trkpt>
<trkpt lat="29.640931" lon="100.350229">
<time>2015-08-06T05:42:59Z</time></trkpt>
<trkpt lat="29.639473" lon="100.349141">
<time>2015-08-06T05:43:00Z</time></trkpt>
<trkpt lat="29.639134" lon="100.348852">
<time>2015-08-06T05:43:01Z</time></trkpt>
<trkpt lat="29.638934" lon="100.348533">
<time>2015-08-06T05:43:02Z</time></trkpt>
<trkpt lat="29.638785" lon="100.348253">
<time>2015-08-06T05:43:03Z</time></trkpt>
<trkpt lat="29.638685" lon="100.348104">
<time>2015-08-06T05:43:04Z</time></trkpt>
<trkpt lat="29.638576" lon="100.347964">
<time>2015-08-06T05:43:05Z</time></trkpt>
<trkpt lat="29.638486" lon="100.347894">
<time>2015-08-06T05:43:06Z</time></trkpt>
<trkpt lat="29.638366" lon="100.347834">
<time>2015-08-06T05:43:07Z</time></trkpt>
<trkpt lat="29.638256" lon="100.347794">
<time>2015-08-06T05:43:08Z</time></trkpt>
<trkpt lat="29.638136" lon="100.347774">
<time>2015-08-06T05:43:09Z</time></trkpt>
<trkpt lat="29.637996" lon="100.347764">
<time>2015-08-06T05:43:10Z</time></trkpt>
<trkpt lat="29.637906" lon="100.347774">
<time>2015-08-06T05:43:11Z</time></trkpt>
<trkpt lat="29.637806" lon="100.347794">
<time>2015-08-06T05:43:12Z</time></trkpt>
<trkpt lat="29.637706" lon="100.347824">
<time>2015-08-06T05:43:13Z</time></trkpt>
<trkpt lat="29.637416" lon="100.347954">
<time>2015-08-06T05:43:14Z</time></trkpt>
<trkpt lat="29.637336" lon="100.347984">
<time>2015-08-06T05:43:15Z</time></trkpt>
<trkpt lat="29.637236" lon="100.347984">
<time>2015-08-06T05:43:16Z</time></trkpt>
<trkpt lat="29.637166" lon="100.347984">
<time>2015-08-06T05:43:17Z</time></trkpt>
<trkpt lat="29.637106" lon="100.347974">
<time>2015-08-06T05:43:18Z</time></trkpt>
<trkpt lat="29.637046" lon="100.347944">
<time>2015-08-06T05:43:19Z</time></trkpt>
<trkpt lat="29.636956" lon="100.347864">
<time>2015-08-06T05:43:20Z</time></trkpt>
<trkpt lat="29.636667" lon="100.347465">
<time>2015-08-06T05:43:21Z</time></trkpt>
<trkpt lat="29.636497" lon="100.347325">
<time>2015-08-06T05:43:22Z</time></trkpt>
<trkpt lat="29.636297" lon="100.347246">
<time>2015-08-06T05:43:23Z</time></trkpt>
<trkpt lat="29.636048" lon="100.347166">
<time>2015-08-06T05:43:24Z</time></trkpt>
<trkpt lat="29.635788" lon="100.347086">
<time>2015-08-06T05:43:25Z</time></trkpt>
<trkpt lat="29.635099" lon="100.346747">
<time>2015-08-06T05:43:26Z</time></trkpt>
<trkpt lat="29.634779" lon="100.346577">
<time>2015-08-06T05:43:27Z</time></trkpt>
<trkpt lat="29.634609" lon="100.346437">
<time>2015-08-06T05:43:28Z</time></trkpt>
<trkpt lat="29.63448" lon="100.346288">
<time>2015-08-06T05:43:29Z</time></trkpt>
<trkpt lat="29.63432" lon="100.346128">
<time>2015-08-06T05:43:30Z</time></trkpt>
<trkpt lat="29.6342" lon="100.346038">
<time>2015-08-06T05:43:31Z</time></trkpt>
<trkpt lat="29.63408" lon="100.345998">
<time>2015-08-06T05:43:32Z</time></trkpt>
<trkpt lat="29.63396" lon="100.345988">
<time>2015-08-06T05:43:33Z</time></trkpt>
<trkpt lat="29.63367" lon="100.345998">
<time>2015-08-06T05:43:34Z</time></trkpt>
<trkpt lat="29.63321" lon="100.346028">
<time>2015-08-06T05:43:35Z</time></trkpt>
<trkpt lat="29.63265" lon="100.346048">
<time>2015-08-06T05:43:36Z</time></trkpt>
<trkpt lat="29.63259" lon="100.346048">
<time>2015-08-06T05:43:37Z</time></trkpt>
<trkpt lat="29.632531" lon="100.346038">
<time>2015-08-06T05:43:38Z</time></trkpt>
<trkpt lat="29.632471" lon="100.345998">
<time>2015-08-06T05:43:39Z</time></trkpt>
<trkpt lat="29.632411" lon="100.345948">
<time>2015-08-06T05:43:40Z</time></trkpt>
<trkpt lat="29.632371" lon="100.345899">
<time>2015-08-06T05:43:41Z</time></trkpt>
<trkpt lat="29.632341" lon="100.345829">
<time>2015-08-06T05:43:42Z</time></trkpt>
<trkpt lat="29.632331" lon="100.345739">
<time>2015-08-06T05:43:43Z</time></trkpt>
<trkpt lat="29.632341" lon="100.345669">
<time>2015-08-06T05:43:44Z</time></trkpt>
<trkpt lat="29.632361" lon="100.345589">
<time>2015-08-06T05:43:45Z</time></trkpt>
<trkpt lat="29.632381" lon="100.345549">
<time>2015-08-06T05:43:46Z</time></trkpt>
<trkpt lat="29.632422" lon="100.345499">
<time>2015-08-06T05:43:47Z</time></trkpt>
<trkpt lat="29.632472" lon="100.345459">
<time>2015-08-06T05:43:48Z</time></trkpt>
<trkpt lat="29.632552" lon="100.34542">
<time>2015-08-06T05:43:49Z</time></trkpt>
<trkpt lat="29.632632" lon="100.34539">
<time>2015-08-06T05:43:50Z</time></trkpt>
<trkpt lat="29.633082" lon="100.34526">
<time>2015-08-06T05:43:51Z</time></trkpt>
<trkpt lat="29.633262" lon="100.34523">
<time>2015-08-06T05:43:52Z</time></trkpt>
<trkpt lat="29.633422" lon="100.34522">
<time>2015-08-06T05:43:53Z</time></trkpt>
<trkpt lat="29.633552" lon="100.34521">
<time>2015-08-06T05:43:54Z</time></trkpt>
<trkpt lat="29.633762" lon="100.34514">
<time>2015-08-06T05:43:55Z</time></trkpt>
<trkpt lat="29.633982" lon="100.34505">
<time>2015-08-06T05:43:56Z</time></trkpt>
<trkpt lat="29.634132" lon="100.345">
<time>2015-08-06T05:43:57Z</time></trkpt>
<trkpt lat="29.634312" lon="100.34496">
<time>2015-08-06T05:43:58Z</time></trkpt>
<trkpt lat="29.634572" lon="100.344921">
<time>2015-08-06T05:43:59Z</time></trkpt>
<trkpt lat="29.634722" lon="100.344901">
<time>2015-08-06T05:44:00Z</time></trkpt>
<trkpt lat="29.634822" lon="100.344911">
<time>2015-08-06T05:44:01Z</time></trkpt>
<trkpt lat="29.634882" lon="100.344921">
<time>2015-08-06T05:44:02Z</time></trkpt>
<trkpt lat="29.634942" lon="100.344941">
<time>2015-08-06T05:44:03Z</time></trkpt>
<trkpt lat="29.635012" lon="100.34497">
<time>2015-08-06T05:44:04Z</time></trkpt>
<trkpt lat="29.635062" lon="100.34501">
<time>2015-08-06T05:44:05Z</time></trkpt>
<trkpt lat="29.635122" lon="100.34506">
<time>2015-08-06T05:44:06Z</time></trkpt>
<trkpt lat="29.635211" lon="100.34514">
<time>2015-08-06T05:44:07Z</time></trkpt>
<trkpt lat="29.635271" lon="100.34517">
<time>2015-08-06T05:44:08Z</time></trkpt>
<trkpt lat="29.635291" lon="100.34518">
<time>2015-08-06T05:44:09Z</time></trkpt>
<trkpt lat="29.635321" lon="100.34519">
<time>2015-08-06T05:44:10Z</time></trkpt>
<trkpt lat="29.635341" lon="100.34519">
<time>2015-08-06T05:44:11Z</time></trkpt>
<trkpt lat="29.635361" lon="100.34519">
<time>2015-08-06T05:44:12Z</time></trkpt>
<trkpt lat="29.635391" lon="100.34518">
<time>2015-08-06T05:44:13Z</time></trkpt>
<trkpt lat="29.635411" lon="100.34517">
<time>2015-08-06T05:44:14Z</time></trkpt>
<trkpt lat="29.635421" lon="100.34516">
<time>2015-08-06T05:44:15Z</time></trkpt>
<trkpt lat="29.635431" lon="100.34515">
<time>2015-08-06T05:44:16Z</time></trkpt>
<trkpt lat="29.635441" lon="100.34513">
<time>2015-08-06T05:44:17Z</time></trkpt>
<trkpt lat="29.635451" lon="100.34511">
<time>2015-08-06T05:44:18Z</time></trkpt>
<trkpt lat="29.635451" lon="100.34509">
<time>2015-08-06T05:44:19Z</time></trkpt>
<trkpt lat="29.635451" lon="100.34507">
<time>2015-08-06T05:44:20Z</time></trkpt>
<trkpt lat="29.635442" lon="100.34504">
<time>2015-08-06T05:44:21Z</time></trkpt>
<trkpt lat="29.635432" lon="100.34502">
<time>2015-08-06T05:44:22Z</time></trkpt>
<trkpt lat="29.635412" lon="100.34499">
<time>2015-08-06T05:44:23Z</time></trkpt>
<trkpt lat="29.635332" lon="100.344911">
<time>2015-08-06T05:44:24Z</time></trkpt>
<trkpt lat="29.635232" lon="100.344841">
<time>2015-08-06T05:44:25Z</time></trkpt>
<trkpt lat="29.635122" lon="100.344771">
<time>2015-08-06T05:44:26Z</time></trkpt>
<trkpt lat="29.635002" lon="100.344731">
<time>2015-08-06T05:44:27Z</time></trkpt>
<trkpt lat="29.634882" lon="100.344721">
<time>2015-08-06T05:44:28Z</time></trkpt>
<trkpt lat="29.634682" lon="100.344721">
<time>2015-08-06T05:44:29Z</time></trkpt>
<trkpt lat="29.634472" lon="100.344741">
<time>2015-08-06T05:44:30Z</time></trkpt>
<trkpt lat="29.634162" lon="100.344761">
<time>2015-08-06T05:44:31Z</time></trkpt>
<trkpt lat="29.633652" lon="100.344841">
<time>2015-08-06T05:44:32Z</time></trkpt>
<trkpt lat="29.633452" lon="100.344871">
<time>2015-08-06T05:44:33Z</time></trkpt>
<trkpt lat="29.633212" lon="100.344891">
<time>2015-08-06T05:44:34Z</time></trkpt>
<trkpt lat="29.632962" lon="100.344891">
<time>2015-08-06T05:44:35Z</time></trkpt>
<trkpt lat="29.632733" lon="100.344881">
<time>2015-08-06T05:44:36Z</time></trkpt>
<trkpt lat="29.632403" lon="100.344921">
<time>2015-08-06T05:44:37Z</time></trkpt>
<trkpt lat="29.632153" lon="100.344951">
<time>2015-08-06T05:44:38Z</time></trkpt>
<trkpt lat="29.631903" lon="100.344951">
<time>2015-08-06T05:44:39Z</time></trkpt>
<trkpt lat="29.631683" lon="100.344921">
<time>2015-08-06T05:44:40Z</time></trkpt>
<trkpt lat="29.631523" lon="100.344881">
<time>2015-08-06T05:44:41Z</time></trkpt>
<trkpt lat="29.631423" lon="100.344831">
<time>2015-08-06T05:44:42Z</time></trkpt>
<trkpt lat="29.631203" lon="100.344701">
<time>2015-08-06T05:44:43Z</time></trkpt>
<trkpt lat="29.630894" lon="100.344502">
<time>2015-08-06T05:44:44Z</time></trkpt>
<trkpt lat="29.630674" lon="100.344342">
<time>2015-08-06T05:44:45Z</time></trkpt>
<trkpt lat="29.630474" lon="100.344222">
<time>2015-08-06T05:44:46Z</time></trkpt>
<trkpt lat="29.630075" lon="100.344073">
<time>2015-08-06T05:44:47Z</time></trkpt>
<trkpt lat="29.629745" lon="100.343953">
<time>2015-08-06T05:44:48Z</time></trkpt>
<trkpt lat="29.629405" lon="100.343813">
<time>2015-08-06T05:44:49Z</time></trkpt>
<trkpt lat="29.629146" lon="100.343733">
<time>2015-08-06T05:44:50Z</time></trkpt>
<trkpt lat="29.628906" lon="100.343693">
<time>2015-08-06T05:44:51Z</time></trkpt>
<trkpt lat="29.628696" lon="100.343604">
<time>2015-08-06T05:44:52Z</time></trkpt>
<trkpt lat="29.628416" lon="100.343434">
<time>2015-08-06T05:44:53Z</time></trkpt>
<trkpt lat="29.628107" lon="100.343254">
<time>2015-08-06T05:44:54Z</time></trkpt>
<trkpt lat="29.627897" lon="100.343115">
<time>2015-08-06T05:44:55Z</time></trkpt>
<trkpt lat="29.627707" lon="100.342965">
<time>2015-08-06T05:44:56Z</time></trkpt>
<trkpt lat="29.627348" lon="100.342596">
<time>2015-08-06T05:44:57Z</time></trkpt>
<trkpt lat="29.627139" lon="100.342366">
<time>2015-08-06T05:44:58Z</time></trkpt>
<trkpt lat="29.62667" lon="100.341897">
<time>2015-08-06T05:44:59Z</time></trkpt>
<trkpt lat="29.62642" lon="100.341738">
<time>2015-08-06T05:45:00Z</time></trkpt>
<trkpt lat="29.62608" lon="100.341568">
<time>2015-08-06T05:45:01Z</time></trkpt>
<trkpt lat="29.625951" lon="100.341478">
<time>2015-08-06T05:45:02Z</time></trkpt>
<trkpt lat="29.625661" lon="100.341189">
<time>2015-08-06T05:45:03Z</time></trkpt>
<trkpt lat="29.625421" lon="100.341019">
<time>2015-08-06T05:45:04Z</time></trkpt>
<trkpt lat="29.624972" lon="100.34072">
<time>2015-08-06T05:45:05Z</time></trkpt>
<trkpt lat="29.624513" lon="100.340461">
<time>2015-08-06T05:45:06Z</time></trkpt>
<trkpt lat="29.624213" lon="100.340291">
<time>2015-08-06T05:45:07Z</time></trkpt>
<trkpt lat="29.623774" lon="100.340052">
<time>2015-08-06T05:45:08Z</time></trkpt>
<trkpt lat="29.623504" lon="100.339932">
<time>2015-08-06T05:45:09Z</time></trkpt>
<trkpt lat="29.623124" lon="100.339782">
<time>2015-08-06T05:45:10Z</time></trkpt>
<trkpt lat="29.621955" lon="100.339423">
<time>2015-08-06T05:45:11Z</time></trkpt>
<trkpt lat="29.621905" lon="100.339403">
<time>2015-08-06T05:45:12Z</time></trkpt>
<trkpt lat="29.621846" lon="100.339373">
<time>2015-08-06T05:45:13Z</time></trkpt>
<trkpt lat="29.621816" lon="100.339363">
<time>2015-08-06T05:45:14Z</time></trkpt>
<trkpt lat="29.621796" lon="100.339343">
<time>2015-08-06T05:45:15Z</time></trkpt>
<trkpt lat="29.621776" lon="100.339323">
<time>2015-08-06T05:45:16Z</time></trkpt>
<trkpt lat="29.621756" lon="100.339293">
<time>2015-08-06T05:45:17Z</time></trkpt>
<trkpt lat="29.621746" lon="100.339273">
<time>2015-08-06T05:45:18Z</time></trkpt>
<trkpt lat="29.621736" lon="100.339243">
<time>2015-08-06T05:45:19Z</time></trkpt>
<trkpt lat="29.621746" lon="100.339213">
<time>2015-08-06T05:45:20Z</time></trkpt>
<trkpt lat="29.621746" lon="100.339184">
<time>2015-08-06T05:45:21Z</time></trkpt>
<trkpt lat="29.621756" lon="100.339164">
<time>2015-08-06T05:45:22Z</time></trkpt>
<trkpt lat="29.621776" lon="100.339154">
<time>2015-08-06T05:45:23Z</time></trkpt>
<trkpt lat="29.621796" lon="100.339134">
<time>2015-08-06T05:45:24Z</time></trkpt>
<trkpt lat="29.621816" lon="100.339124">
<time>2015-08-06T05:45:25Z</time></trkpt>
<trkpt lat="29.621836" lon="100.339114">
<time>2015-08-06T05:45:26Z</time></trkpt>
<trkpt lat="29.621876" lon="100.339114">
<time>2015-08-06T05:45:27Z</time></trkpt>
<trkpt lat="29.621906" lon="100.339124">
<time>2015-08-06T05:45:28Z</time></trkpt>
<trkpt lat="29.621946" lon="100.339134">
<time>2015-08-06T05:45:29Z</time></trkpt>
<trkpt lat="29.622386" lon="100.339283">
<time>2015-08-06T05:45:30Z</time></trkpt>
<trkpt lat="29.622695" lon="100.339373">
<time>2015-08-06T05:45:31Z</time></trkpt>
<trkpt lat="29.622935" lon="100.339433">
<time>2015-08-06T05:45:32Z</time></trkpt>
<trkpt lat="29.623045" lon="100.339453">
<time>2015-08-06T05:45:33Z</time></trkpt>
<trkpt lat="29.623185" lon="100.339443">
<time>2015-08-06T05:45:34Z</time></trkpt>
<trkpt lat="29.623355" lon="100.339433">
<time>2015-08-06T05:45:35Z</time></trkpt>
<trkpt lat="29.623495" lon="100.339433">
<time>2015-08-06T05:45:36Z</time></trkpt>
<trkpt lat="29.623575" lon="100.339443">
<time>2015-08-06T05:45:37Z</time></trkpt>
<trkpt lat="29.623675" lon="100.339463">
<time>2015-08-06T05:45:38Z</time></trkpt>
<trkpt lat="29.623825" lon="100.339503">
<time>2015-08-06T05:45:39Z</time></trkpt>
<trkpt lat="29.623855" lon="100.339503">
<time>2015-08-06T05:45:40Z</time></trkpt>
<trkpt lat="29.623895" lon="100.339503">
<time>2015-08-06T05:45:41Z</time></trkpt>
<trkpt lat="29.623905" lon="100.339503">
<time>2015-08-06T05:45:42Z</time></trkpt>
<trkpt lat="29.623935" lon="100.339503">
<time>2015-08-06T05:45:43Z</time></trkpt>
<trkpt lat="29.623945" lon="100.339493">
<time>2015-08-06T05:45:44Z</time></trkpt>
<trkpt lat="29.623955" lon="100.339483">
<time>2015-08-06T05:45:45Z</time></trkpt>
<trkpt lat="29.623975" lon="100.339473">
<time>2015-08-06T05:45:46Z</time></trkpt>
<trkpt lat="29.623985" lon="100.339463">
<time>2015-08-06T05:45:47Z</time></trkpt>
<trkpt lat="29.623995" lon="100.339443">
<time>2015-08-06T05:45:48Z</time></trkpt>
<trkpt lat="29.624005" lon="100.339423">
<time>2015-08-06T05:45:49Z</time></trkpt>
<trkpt lat="29.624005" lon="100.339393">
<time>2015-08-06T05:45:50Z</time></trkpt>
<trkpt lat="29.624005" lon="100.339363">
<time>2015-08-06T05:45:51Z</time></trkpt>
<trkpt lat="29.623995" lon="100.339343">
<time>2015-08-06T05:45:52Z</time></trkpt>
<trkpt lat="29.623985" lon="100.339333">
<time>2015-08-06T05:45:53Z</time></trkpt>
<trkpt lat="29.623975" lon="100.339313">
<time>2015-08-06T05:45:54Z</time></trkpt>
<trkpt lat="29.623955" lon="100.339303">
<time>2015-08-06T05:45:55Z</time></trkpt>
<trkpt lat="29.623935" lon="100.339293">
<time>2015-08-06T05:45:56Z</time></trkpt>
<trkpt lat="29.623915" lon="100.339283">
<time>2015-08-06T05:45:57Z</time></trkpt>
<trkpt lat="29.623885" lon="100.339273">
<time>2015-08-06T05:45:58Z</time></trkpt>
<trkpt lat="29.623705" lon="100.339243">
<time>2015-08-06T05:45:59Z</time></trkpt>
<trkpt lat="29.623235" lon="100.339193">
<time>2015-08-06T05:46:00Z</time></trkpt>
<trkpt lat="29.623066" lon="100.339174">
<time>2015-08-06T05:46:01Z</time></trkpt>
<trkpt lat="29.622926" lon="100.339114">
<time>2015-08-06T05:46:02Z</time></trkpt>
<trkpt lat="29.622776" lon="100.339044">
<time>2015-08-06T05:46:03Z</time></trkpt>
<trkpt lat="29.622296" lon="100.338784">
<time>2015-08-06T05:46:04Z</time></trkpt>
<trkpt lat="29.622017" lon="100.338635">
<time>2015-08-06T05:46:05Z</time></trkpt>
<trkpt lat="29.621697" lon="100.338485">
<time>2015-08-06T05:46:06Z</time></trkpt>
<trkpt lat="29.620958" lon="100.338136">
<time>2015-08-06T05:46:07Z</time></trkpt>
<trkpt lat="29.620249" lon="100.337677">
<time>2015-08-06T05:46:08Z</time></trkpt>
<trkpt lat="29.620029" lon="100.337557">
<time>2015-08-06T05:46:09Z</time></trkpt>
<trkpt lat="29.61986" lon="100.337487">
<time>2015-08-06T05:46:10Z</time></trkpt>
<trkpt lat="29.61965" lon="100.337388">
<time>2015-08-06T05:46:11Z</time></trkpt>
<trkpt lat="29.61953" lon="100.337298">
<time>2015-08-06T05:46:12Z</time></trkpt>
<trkpt lat="29.61945" lon="100.337228">
<time>2015-08-06T05:46:13Z</time></trkpt>
<trkpt lat="29.61937" lon="100.337128">
<time>2015-08-06T05:46:14Z</time></trkpt>
<trkpt lat="29.619261" lon="100.336959">
<time>2015-08-06T05:46:15Z</time></trkpt>
<trkpt lat="29.619181" lon="100.336809">
<time>2015-08-06T05:46:16Z</time></trkpt>
<trkpt lat="29.619081" lon="100.336629">
<time>2015-08-06T05:46:17Z</time></trkpt>
<trkpt lat="29.618843" lon="100.335891">
<time>2015-08-06T05:46:18Z</time></trkpt>
<trkpt lat="29.618753" lon="100.335602">
<time>2015-08-06T05:46:19Z</time></trkpt>
<trkpt lat="29.618674" lon="100.335412">
<time>2015-08-06T05:46:20Z</time></trkpt>
<trkpt lat="29.618594" lon="100.335223">
<time>2015-08-06T05:46:21Z</time></trkpt>
<trkpt lat="29.618545" lon="100.335023">
<time>2015-08-06T05:46:22Z</time></trkpt>
<trkpt lat="29.618495" lon="100.334823">
<time>2015-08-06T05:46:23Z</time></trkpt>
<trkpt lat="29.618455" lon="100.334654">
<time>2015-08-06T05:46:24Z</time></trkpt>
<trkpt lat="29.618396" lon="100.334494">
<time>2015-08-06T05:46:25Z</time></trkpt>
<trkpt lat="29.618326" lon="100.334394">
<time>2015-08-06T05:46:26Z</time></trkpt>
<trkpt lat="29.618246" lon="100.334295">
<time>2015-08-06T05:46:27Z</time></trkpt>
<trkpt lat="29.618126" lon="100.334185">
<time>2015-08-06T05:46:28Z</time></trkpt>
<trkpt lat="29.617977" lon="100.334045">
<time>2015-08-06T05:46:29Z</time></trkpt>
<trkpt lat="29.617827" lon="100.333935">
<time>2015-08-06T05:46:30Z</time></trkpt>
<trkpt lat="29.617617" lon="100.333796">
<time>2015-08-06T05:46:31Z</time></trkpt>
<trkpt lat="29.617357" lon="100.333696">
<time>2015-08-06T05:46:32Z</time></trkpt>
<trkpt lat="29.617028" lon="100.333596">
<time>2015-08-06T05:46:33Z</time></trkpt>
<trkpt lat="29.616788" lon="100.333487">
<time>2015-08-06T05:46:34Z</time></trkpt>
<trkpt lat="29.615839" lon="100.332948">
<time>2015-08-06T05:46:35Z</time></trkpt>
<trkpt lat="29.614801" lon="100.332409">
<time>2015-08-06T05:46:36Z</time></trkpt>
<trkpt lat="29.614481" lon="100.332259">
<time>2015-08-06T05:46:37Z</time></trkpt>
<trkpt lat="29.614151" lon="100.33208">
<time>2015-08-06T05:46:38Z</time></trkpt>
<trkpt lat="29.613952" lon="100.33196">
<time>2015-08-06T05:46:39Z</time></trkpt>
<trkpt lat="29.613692" lon="100.331741">
<time>2015-08-06T05:46:40Z</time></trkpt>
<trkpt lat="29.613413" lon="100.331471">
<time>2015-08-06T05:46:41Z</time></trkpt>
<trkpt lat="29.612485" lon="100.330533">
<time>2015-08-06T05:46:42Z</time></trkpt>
<trkpt lat="29.612106" lon="100.330164">
<time>2015-08-06T05:46:43Z</time></trkpt>
<trkpt lat="29.611916" lon="100.330035">
<time>2015-08-06T05:46:44Z</time></trkpt>
<trkpt lat="29.611666" lon="100.329905">
<time>2015-08-06T05:46:45Z</time></trkpt>
<trkpt lat="29.610797" lon="100.329536">
<time>2015-08-06T05:46:46Z</time></trkpt>
<trkpt lat="29.610128" lon="100.329226">
<time>2015-08-06T05:46:47Z</time></trkpt>
<trkpt lat="29.610008" lon="100.329157">
<time>2015-08-06T05:46:48Z</time></trkpt>
<trkpt lat="29.609838" lon="100.329047">
<time>2015-08-06T05:46:49Z</time></trkpt>
<trkpt lat="29.609739" lon="100.328967">
<time>2015-08-06T05:46:50Z</time></trkpt>
<trkpt lat="29.609609" lon="100.328857">
<time>2015-08-06T05:46:51Z</time></trkpt>
<trkpt lat="29.609459" lon="100.328688">
<time>2015-08-06T05:46:52Z</time></trkpt>
<trkpt lat="29.60932" lon="100.328488">
<time>2015-08-06T05:46:53Z</time></trkpt>
<trkpt lat="29.60919" lon="100.328279">
<time>2015-08-06T05:46:54Z</time></trkpt>
<trkpt lat="29.608961" lon="100.327929">
<time>2015-08-06T05:46:55Z</time></trkpt>
<trkpt lat="29.608821" lon="100.32773">
<time>2015-08-06T05:46:56Z</time></trkpt>
<trkpt lat="29.608722" lon="100.3276">
<time>2015-08-06T05:46:57Z</time></trkpt>
<trkpt lat="29.608632" lon="100.32751">
<time>2015-08-06T05:46:58Z</time></trkpt>
<trkpt lat="29.608472" lon="100.327391">
<time>2015-08-06T05:46:59Z</time></trkpt>
<trkpt lat="29.608262" lon="100.327281">
<time>2015-08-06T05:47:00Z</time></trkpt>
<trkpt lat="29.607993" lon="100.327151">
<time>2015-08-06T05:47:01Z</time></trkpt>
<trkpt lat="29.607843" lon="100.327071">
<time>2015-08-06T05:47:02Z</time></trkpt>
<trkpt lat="29.607613" lon="100.326912">
<time>2015-08-06T05:47:03Z</time></trkpt>
<trkpt lat="29.606705" lon="100.326283">
<time>2015-08-06T05:47:04Z</time></trkpt>
<trkpt lat="29.606575" lon="100.326213">
<time>2015-08-06T05:47:05Z</time></trkpt>
<trkpt lat="29.606365" lon="100.326154">
<time>2015-08-06T05:47:06Z</time></trkpt>
<trkpt lat="29.604916" lon="100.325755">
<time>2015-08-06T05:47:07Z</time></trkpt>
<trkpt lat="29.603148" lon="100.325306">
<time>2015-08-06T05:47:08Z</time></trkpt>
<trkpt lat="29.601419" lon="100.324877">
<time>2015-08-06T05:47:09Z</time></trkpt>
<trkpt lat="29.601139" lon="100.324787">
<time>2015-08-06T05:47:10Z</time></trkpt>
<trkpt lat="29.60088" lon="100.324677">
<time>2015-08-06T05:47:11Z</time></trkpt>
<trkpt lat="29.60068" lon="100.324567">
<time>2015-08-06T05:47:12Z</time></trkpt>
<trkpt lat="29.60046" lon="100.324438">
<time>2015-08-06T05:47:13Z</time></trkpt>
<trkpt lat="29.600191" lon="100.324278">
<time>2015-08-06T05:47:14Z</time></trkpt>
<trkpt lat="29.599142" lon="100.323669">
<time>2015-08-06T05:47:15Z</time></trkpt>
<trkpt lat="29.597734" lon="100.322971">
<time>2015-08-06T05:47:16Z</time></trkpt>
<trkpt lat="29.597045" lon="100.322592">
<time>2015-08-06T05:47:17Z</time></trkpt>
<trkpt lat="29.596525" lon="100.322283">
<time>2015-08-06T05:47:18Z</time></trkpt>
<trkpt lat="29.595966" lon="100.321963">
<time>2015-08-06T05:47:19Z</time></trkpt>
<trkpt lat="29.595507" lon="100.321804">
<time>2015-08-06T05:47:20Z</time></trkpt>
<trkpt lat="29.595197" lon="100.321724">
<time>2015-08-06T05:47:21Z</time></trkpt>
<trkpt lat="29.594987" lon="100.321674">
<time>2015-08-06T05:47:22Z</time></trkpt>
<trkpt lat="29.594777" lon="100.321664">
<time>2015-08-06T05:47:23Z</time></trkpt>
<trkpt lat="29.594617" lon="100.321674">
<time>2015-08-06T05:47:24Z</time></trkpt>
<trkpt lat="29.594407" lon="100.321714">
<time>2015-08-06T05:47:25Z</time></trkpt>
<trkpt lat="29.594147" lon="100.321764">
<time>2015-08-06T05:47:26Z</time></trkpt>
<trkpt lat="29.593917" lon="100.321804">
<time>2015-08-06T05:47:27Z</time></trkpt>
<trkpt lat="29.593697" lon="100.321804">
<time>2015-08-06T05:47:28Z</time></trkpt>
<trkpt lat="29.593427" lon="100.321774">
<time>2015-08-06T05:47:29Z</time></trkpt>
<trkpt lat="29.593158" lon="100.321734">
<time>2015-08-06T05:47:30Z</time></trkpt>
<trkpt lat="29.592198" lon="100.321564">
<time>2015-08-06T05:47:31Z</time></trkpt>
<trkpt lat="29.591748" lon="100.321475">
<time>2015-08-06T05:47:32Z</time></trkpt>
<trkpt lat="29.591609" lon="100.321445">
<time>2015-08-06T05:47:33Z</time></trkpt>
<trkpt lat="29.591399" lon="100.321355">
<time>2015-08-06T05:47:34Z</time></trkpt>
<trkpt lat="29.591239" lon="100.321255">
<time>2015-08-06T05:47:35Z</time></trkpt>
<trkpt lat="29.591039" lon="100.321105">
<time>2015-08-06T05:47:36Z</time></trkpt>
<trkpt lat="29.59082" lon="100.320926">
<time>2015-08-06T05:47:37Z</time></trkpt>
<trkpt lat="29.59066" lon="100.320826">
<time>2015-08-06T05:47:38Z</time></trkpt>
<trkpt lat="29.59058" lon="100.320786">
<time>2015-08-06T05:47:39Z</time></trkpt>
<trkpt lat="29.59053" lon="100.320756">
<time>2015-08-06T05:47:40Z</time></trkpt>
<trkpt lat="29.59043" lon="100.320726">
<time>2015-08-06T05:47:41Z</time></trkpt>
<trkpt lat="29.59032" lon="100.320706">
<time>2015-08-06T05:47:42Z</time></trkpt>
<trkpt lat="29.59025" lon="100.320686">
<time>2015-08-06T05:47:43Z</time></trkpt>
<trkpt lat="29.59017" lon="100.320686">
<time>2015-08-06T05:47:44Z</time></trkpt>
<trkpt lat="29.589941" lon="100.320677">
<time>2015-08-06T05:47:45Z</time></trkpt>
<trkpt lat="29.589241" lon="100.320667">
<time>2015-08-06T05:47:46Z</time></trkpt>
<trkpt lat="29.588481" lon="100.320587">
<time>2015-08-06T05:47:47Z</time></trkpt>
<trkpt lat="29.587971" lon="100.320547">
<time>2015-08-06T05:47:48Z</time></trkpt>
<trkpt lat="29.587462" lon="100.320577">
<time>2015-08-06T05:47:49Z</time></trkpt>
<trkpt lat="29.586372" lon="100.320617">
<time>2015-08-06T05:47:50Z</time></trkpt>
<trkpt lat="29.586002" lon="100.320627">
<time>2015-08-06T05:47:51Z</time></trkpt>
<trkpt lat="29.585552" lon="100.320627">
<time>2015-08-06T05:47:52Z</time></trkpt>
<trkpt lat="29.584193" lon="100.320537">
<time>2015-08-06T05:47:53Z</time></trkpt>
<trkpt lat="29.583453" lon="100.320477">
<time>2015-08-06T05:47:54Z</time></trkpt>
<trkpt lat="29.583373" lon="100.320477">
<time>2015-08-06T05:47:55Z</time></trkpt>
<trkpt lat="29.582553" lon="100.320417">
<time>2015-08-06T05:47:56Z</time></trkpt>
<trkpt lat="29.582364" lon="100.320387">
<time>2015-08-06T05:47:57Z</time></trkpt>
<trkpt lat="29.582204" lon="100.320357">
<time>2015-08-06T05:47:58Z</time></trkpt>
<trkpt lat="29.581964" lon="100.320308">
<time>2015-08-06T05:47:59Z</time></trkpt>
<trkpt lat="29.580765" lon="100.319998">
<time>2015-08-06T05:48:00Z</time></trkpt>
<trkpt lat="29.580615" lon="100.319958">
<time>2015-08-06T05:48:01Z</time></trkpt>
<trkpt lat="29.580485" lon="100.319909">
<time>2015-08-06T05:48:02Z</time></trkpt>
<trkpt lat="29.580375" lon="100.319869">
<time>2015-08-06T05:48:03Z</time></trkpt>
<trkpt lat="29.580225" lon="100.319789">
<time>2015-08-06T05:48:04Z</time></trkpt>
<trkpt lat="29.580036" lon="100.319669">
<time>2015-08-06T05:48:05Z</time></trkpt>
<trkpt lat="29.579736" lon="100.31944">
<time>2015-08-06T05:48:06Z</time></trkpt>
<trkpt lat="29.579477" lon="100.31925">
<time>2015-08-06T05:48:07Z</time></trkpt>
<trkpt lat="29.579227" lon="100.31908">
<time>2015-08-06T05:48:08Z</time></trkpt>
<trkpt lat="29.578908" lon="100.318881">
<time>2015-08-06T05:48:09Z</time></trkpt>
<trkpt lat="29.578708" lon="100.318791">
<time>2015-08-06T05:48:10Z</time></trkpt>
<trkpt lat="29.578508" lon="100.318691">
<time>2015-08-06T05:48:11Z</time></trkpt>
<trkpt lat="29.578348" lon="100.318621">
<time>2015-08-06T05:48:12Z</time></trkpt>
<trkpt lat="29.578228" lon="100.318582">
<time>2015-08-06T05:48:13Z</time></trkpt>
<trkpt lat="29.578048" lon="100.318542">
<time>2015-08-06T05:48:14Z</time></trkpt>
<trkpt lat="29.577819" lon="100.318532">
<time>2015-08-06T05:48:15Z</time></trkpt>
<trkpt lat="29.577519" lon="100.318522">
<time>2015-08-06T05:48:16Z</time></trkpt>
<trkpt lat="29.577389" lon="100.318512">
<time>2015-08-06T05:48:17Z</time></trkpt>
<trkpt lat="29.577249" lon="100.318492">
<time>2015-08-06T05:48:18Z</time></trkpt>
<trkpt lat="29.577079" lon="100.318452">
<time>2015-08-06T05:48:19Z</time></trkpt>
<trkpt lat="29.576929" lon="100.318392">
<time>2015-08-06T05:48:20Z</time></trkpt>
<trkpt lat="29.57575" lon="100.317883">
<time>2015-08-06T05:48:21Z</time></trkpt>
<trkpt lat="29.575601" lon="100.317803">
<time>2015-08-06T05:48:22Z</time></trkpt>
<trkpt lat="29.575441" lon="100.317724">
<time>2015-08-06T05:48:23Z</time></trkpt>
<trkpt lat="29.575291" lon="100.317624">
<time>2015-08-06T05:48:24Z</time></trkpt>
<trkpt lat="29.575052" lon="100.317434">
<time>2015-08-06T05:48:25Z</time></trkpt>
<trkpt lat="29.574543" lon="100.316995">
<time>2015-08-06T05:48:26Z</time></trkpt>
<trkpt lat="29.574363" lon="100.316856">
<time>2015-08-06T05:48:27Z</time></trkpt>
<trkpt lat="29.574203" lon="100.316766">
<time>2015-08-06T05:48:28Z</time></trkpt>
<trkpt lat="29.573963" lon="100.316676">
<time>2015-08-06T05:48:29Z</time></trkpt>
<trkpt lat="29.573444" lon="100.316536">
<time>2015-08-06T05:48:30Z</time></trkpt>
<trkpt lat="29.573264" lon="100.316476">
<time>2015-08-06T05:48:31Z</time></trkpt>
<trkpt lat="29.573114" lon="100.316417">
<time>2015-08-06T05:48:32Z</time></trkpt>
<trkpt lat="29.572555" lon="100.316127">
<time>2015-08-06T05:48:33Z</time></trkpt>
<trkpt lat="29.572235" lon="100.315928">
<time>2015-08-06T05:48:34Z</time></trkpt>
<trkpt lat="29.572016" lon="100.315788">
<time>2015-08-06T05:48:35Z</time></trkpt>
<trkpt lat="29.571666" lon="100.315489">
<time>2015-08-06T05:48:36Z</time></trkpt>
<trkpt lat="29.571427" lon="100.315289">
<time>2015-08-06T05:48:37Z</time></trkpt>
<trkpt lat="29.571337" lon="100.315219">
<time>2015-08-06T05:48:38Z</time></trkpt>
<trkpt lat="29.571187" lon="100.315149">
<time>2015-08-06T05:48:39Z</time></trkpt>
<trkpt lat="29.571017" lon="100.31507">
<time>2015-08-06T05:48:40Z</time></trkpt>
<trkpt lat="29.570768" lon="100.31497">
<time>2015-08-06T05:48:41Z</time></trkpt>
<trkpt lat="29.570618" lon="100.31488">
<time>2015-08-06T05:48:42Z</time></trkpt>
<trkpt lat="29.570478" lon="100.31478">
<time>2015-08-06T05:48:43Z</time></trkpt>
<trkpt lat="29.570358" lon="100.314651">
<time>2015-08-06T05:48:44Z</time></trkpt>
<trkpt lat="29.570079" lon="100.314391">
<time>2015-08-06T05:48:45Z</time></trkpt>
<trkpt lat="29.56966" lon="100.313942">
<time>2015-08-06T05:48:46Z</time></trkpt>
<trkpt lat="29.5695" lon="100.313812">
<time>2015-08-06T05:48:47Z</time></trkpt>
<trkpt lat="29.56936" lon="100.313733">
<time>2015-08-06T05:48:48Z</time></trkpt>
<trkpt lat="29.569141" lon="100.313603">
<time>2015-08-06T05:48:49Z</time></trkpt>
<trkpt lat="29.568901" lon="100.313473">
<time>2015-08-06T05:48:50Z</time></trkpt>
<trkpt lat="29.568611" lon="100.313274">
<time>2015-08-06T05:48:51Z</time></trkpt>
<trkpt lat="29.568012" lon="100.312835">
<time>2015-08-06T05:48:52Z</time></trkpt>
<trkpt lat="29.567593" lon="100.312445">
<time>2015-08-06T05:48:53Z</time></trkpt>
<trkpt lat="29.567404" lon="100.312236">
<time>2015-08-06T05:48:54Z</time></trkpt>
<trkpt lat="29.567274" lon="100.312066">
<time>2015-08-06T05:48:55Z</time></trkpt>
<trkpt lat="29.567155" lon="100.311877">
<time>2015-08-06T05:48:56Z</time></trkpt>
<trkpt lat="29.567095" lon="100.311727">
<time>2015-08-06T05:48:57Z</time></trkpt>
<trkpt lat="29.567005" lon="100.311527">
<time>2015-08-06T05:48:58Z</time></trkpt>
<trkpt lat="29.566896" lon="100.311358">
<time>2015-08-06T05:48:59Z</time></trkpt>
<trkpt lat="29.566806" lon="100.311248">
<time>2015-08-06T05:49:00Z</time></trkpt>
<trkpt lat="29.566457" lon="100.310909">
<time>2015-08-06T05:49:01Z</time></trkpt>
<trkpt lat="29.566187" lon="100.310689">
<time>2015-08-06T05:49:02Z</time></trkpt>
<trkpt lat="29.565977" lon="100.31054">
<time>2015-08-06T05:49:03Z</time></trkpt>
<trkpt lat="29.565748" lon="100.31042">
<time>2015-08-06T05:49:04Z</time></trkpt>
<trkpt lat="29.565448" lon="100.31027">
<time>2015-08-06T05:49:05Z</time></trkpt>
<trkpt lat="29.565268" lon="100.31017">
<time>2015-08-06T05:49:06Z</time></trkpt>
<trkpt lat="29.565128" lon="100.310091">
<time>2015-08-06T05:49:07Z</time></trkpt>
<trkpt lat="29.564989" lon="100.309981">
<time>2015-08-06T05:49:08Z</time></trkpt>
<trkpt lat="29.564769" lon="100.309801">
<time>2015-08-06T05:49:09Z</time></trkpt>
<trkpt lat="29.564669" lon="100.309711">
<time>2015-08-06T05:49:10Z</time></trkpt>
<trkpt lat="29.56457" lon="100.309632">
<time>2015-08-06T05:49:11Z</time></trkpt>
<trkpt lat="29.56446" lon="100.309572">
<time>2015-08-06T05:49:12Z</time></trkpt>
<trkpt lat="29.56434" lon="100.309522">
<time>2015-08-06T05:49:13Z</time></trkpt>
<trkpt lat="29.56415" lon="100.309472">
<time>2015-08-06T05:49:14Z</time></trkpt>
<trkpt lat="29.56376" lon="100.309362">
<time>2015-08-06T05:49:15Z</time></trkpt>
<trkpt lat="29.56365" lon="100.309332">
<time>2015-08-06T05:49:16Z</time></trkpt>
<trkpt lat="29.563521" lon="100.309272">
<time>2015-08-06T05:49:17Z</time></trkpt>
<trkpt lat="29.563431" lon="100.309203">
<time>2015-08-06T05:49:18Z</time></trkpt>
<trkpt lat="29.563321" lon="100.309083">
<time>2015-08-06T05:49:19Z</time></trkpt>
<trkpt lat="29.563131" lon="100.308823">
<time>2015-08-06T05:49:20Z</time></trkpt>
<trkpt lat="29.562942" lon="100.308584">
<time>2015-08-06T05:49:21Z</time></trkpt>
<trkpt lat="29.562822" lon="100.308474">
<time>2015-08-06T05:49:22Z</time></trkpt>
<trkpt lat="29.562692" lon="100.308344">
<time>2015-08-06T05:49:23Z</time></trkpt>
<trkpt lat="29.562313" lon="100.308015">
<time>2015-08-06T05:49:24Z</time></trkpt>
<trkpt lat="29.562164" lon="100.307865">
<time>2015-08-06T05:49:25Z</time></trkpt>
<trkpt lat="29.562024" lon="100.307696">
<time>2015-08-06T05:49:26Z</time></trkpt>
<trkpt lat="29.561924" lon="100.307556">
<time>2015-08-06T05:49:27Z</time></trkpt>
<trkpt lat="29.561017" lon="100.306179">
<time>2015-08-06T05:49:28Z</time></trkpt>
<trkpt lat="29.560768" lon="100.30581">
<time>2015-08-06T05:49:29Z</time></trkpt>
<trkpt lat="29.560578" lon="100.305431">
<time>2015-08-06T05:49:30Z</time></trkpt>
<trkpt lat="29.560349" lon="100.304972">
<time>2015-08-06T05:49:31Z</time></trkpt>
<trkpt lat="29.56013" lon="100.304493">
<time>2015-08-06T05:49:32Z</time></trkpt>
<trkpt lat="29.560011" lon="100.304283">
<time>2015-08-06T05:49:33Z</time></trkpt>
<trkpt lat="29.559931" lon="100.304143">
<time>2015-08-06T05:49:34Z</time></trkpt>
<trkpt lat="29.559831" lon="100.303974">
<time>2015-08-06T05:49:35Z</time></trkpt>
<trkpt lat="29.559482" lon="100.303524">
<time>2015-08-06T05:49:36Z</time></trkpt>
<trkpt lat="29.559023" lon="100.302976">
<time>2015-08-06T05:49:37Z</time></trkpt>
<trkpt lat="29.558225" lon="100.302067">
<time>2015-08-06T05:49:38Z</time></trkpt>
<trkpt lat="29.557956" lon="100.301778">
<time>2015-08-06T05:49:39Z</time></trkpt>
<trkpt lat="29.557806" lon="100.301578">
<time>2015-08-06T05:49:40Z</time></trkpt>
<trkpt lat="29.557616" lon="100.301309">
<time>2015-08-06T05:49:41Z</time></trkpt>
<trkpt lat="29.557377" lon="100.30097">
<time>2015-08-06T05:49:42Z</time></trkpt>
<trkpt lat="29.557038" lon="100.300461">
<time>2015-08-06T05:49:43Z</time></trkpt>
<trkpt lat="29.556669" lon="100.299942">
<time>2015-08-06T05:49:44Z</time></trkpt>
<trkpt lat="29.55649" lon="100.299692">
<time>2015-08-06T05:49:45Z</time></trkpt>
<trkpt lat="29.55638" lon="100.299562">
<time>2015-08-06T05:49:46Z</time></trkpt>
<trkpt lat="29.55625" lon="100.299433">
<time>2015-08-06T05:49:47Z</time></trkpt>
<trkpt lat="29.55607" lon="100.299283">
<time>2015-08-06T05:49:48Z</time></trkpt>
<trkpt lat="29.555621" lon="100.298924">
<time>2015-08-06T05:49:49Z</time></trkpt>
<trkpt lat="29.555421" lon="100.298754">
<time>2015-08-06T05:49:50Z</time></trkpt>
<trkpt lat="29.555282" lon="100.298624">
<time>2015-08-06T05:49:51Z</time></trkpt>
<trkpt lat="29.555122" lon="100.298455">
<time>2015-08-06T05:49:52Z</time></trkpt>
<trkpt lat="29.554873" lon="100.298135">
<time>2015-08-06T05:49:53Z</time></trkpt>
<trkpt lat="29.554703" lon="100.297916">
<time>2015-08-06T05:49:54Z</time></trkpt>
<trkpt lat="29.553675" lon="100.296638">
<time>2015-08-06T05:49:55Z</time></trkpt>
<trkpt lat="29.552997" lon="100.29575">
<time>2015-08-06T05:49:56Z</time></trkpt>
<trkpt lat="29.552857" lon="100.29556">
<time>2015-08-06T05:49:57Z</time></trkpt>
<trkpt lat="29.552778" lon="100.29542">
<time>2015-08-06T05:49:58Z</time></trkpt>
<trkpt lat="29.552688" lon="100.295271">
<time>2015-08-06T05:49:59Z</time></trkpt>
<trkpt lat="29.552509" lon="100.294851">
<time>2015-08-06T05:50:00Z</time></trkpt>
<trkpt lat="29.55217" lon="100.294093">
<time>2015-08-06T05:50:01Z</time></trkpt>
<trkpt lat="29.55204" lon="100.293813">
<time>2015-08-06T05:50:02Z</time></trkpt>
<trkpt lat="29.551931" lon="100.293574">
<time>2015-08-06T05:50:03Z</time></trkpt>
<trkpt lat="29.551632" lon="100.293075">
<time>2015-08-06T05:50:04Z</time></trkpt>
<trkpt lat="29.551033" lon="100.292106">
<time>2015-08-06T05:50:05Z</time></trkpt>
<trkpt lat="29.550754" lon="100.291717">
<time>2015-08-06T05:50:06Z</time></trkpt>
<trkpt lat="29.550664" lon="100.291597">
<time>2015-08-06T05:50:07Z</time></trkpt>
<trkpt lat="29.550534" lon="100.291477">
<time>2015-08-06T05:50:08Z</time></trkpt>
<trkpt lat="29.550265" lon="100.291258">
<time>2015-08-06T05:50:09Z</time></trkpt>
<trkpt lat="29.549995" lon="100.291048">
<time>2015-08-06T05:50:10Z</time></trkpt>
<trkpt lat="29.549626" lon="100.290779">
<time>2015-08-06T05:50:11Z</time></trkpt>
<trkpt lat="29.549466" lon="100.290649">
<time>2015-08-06T05:50:12Z</time></trkpt>
<trkpt lat="29.549326" lon="100.290509">
<time>2015-08-06T05:50:13Z</time></trkpt>
<trkpt lat="29.549137" lon="100.290289">
<time>2015-08-06T05:50:14Z</time></trkpt>
<trkpt lat="29.548897" lon="100.28995">
<time>2015-08-06T05:50:15Z</time></trkpt>
<trkpt lat="29.548648" lon="100.289571">
<time>2015-08-06T05:50:16Z</time></trkpt>
<trkpt lat="29.548458" lon="100.289351">
<time>2015-08-06T05:50:17Z</time></trkpt>
<trkpt lat="29.548228" lon="100.289161">
<time>2015-08-06T05:50:18Z</time></trkpt>
<trkpt lat="29.547769" lon="100.288782">
<time>2015-08-06T05:50:19Z</time></trkpt>
<trkpt lat="29.54755" lon="100.288542">
<time>2015-08-06T05:50:20Z</time></trkpt>
<trkpt lat="29.546033" lon="100.286805">
<time>2015-08-06T05:50:21Z</time></trkpt>
<trkpt lat="29.545054" lon="100.285707">
<time>2015-08-06T05:50:22Z</time></trkpt>
<trkpt lat="29.543627" lon="100.28403">
<time>2015-08-06T05:50:23Z</time></trkpt>
<trkpt lat="29.543497" lon="100.28386">
<time>2015-08-06T05:50:24Z</time></trkpt>
<trkpt lat="29.543407" lon="100.28368">
<time>2015-08-06T05:50:25Z</time></trkpt>
<trkpt lat="29.543288" lon="100.28339">
<time>2015-08-06T05:50:26Z</time></trkpt>
<trkpt lat="29.543099" lon="100.282861">
<time>2015-08-06T05:50:27Z</time></trkpt>
<trkpt lat="29.542919" lon="100.282412">
<time>2015-08-06T05:50:28Z</time></trkpt>
<trkpt lat="29.54276" lon="100.282142">
<time>2015-08-06T05:50:29Z</time></trkpt>
<trkpt lat="29.542261" lon="100.281313">
<time>2015-08-06T05:50:30Z</time></trkpt>
<trkpt lat="29.542061" lon="100.280964">
<time>2015-08-06T05:50:31Z</time></trkpt>
<trkpt lat="29.541732" lon="100.280315">
<time>2015-08-06T05:50:32Z</time></trkpt>
<trkpt lat="29.541602" lon="100.280115">
<time>2015-08-06T05:50:33Z</time></trkpt>
<trkpt lat="29.541533" lon="100.280015">
<time>2015-08-06T05:50:34Z</time></trkpt>
<trkpt lat="29.541413" lon="100.279875">
<time>2015-08-06T05:50:35Z</time></trkpt>
<trkpt lat="29.541253" lon="100.279696">
<time>2015-08-06T05:50:36Z</time></trkpt>
<trkpt lat="29.540983" lon="100.279386">
<time>2015-08-06T05:50:37Z</time></trkpt>
<trkpt lat="29.540894" lon="100.279256">
<time>2015-08-06T05:50:38Z</time></trkpt>
<trkpt lat="29.540844" lon="100.279126">
<time>2015-08-06T05:50:39Z</time></trkpt>
<trkpt lat="29.540814" lon="100.278987">
<time>2015-08-06T05:50:40Z</time></trkpt>
<trkpt lat="29.540784" lon="100.278827">
<time>2015-08-06T05:50:41Z</time></trkpt>
<trkpt lat="29.540725" lon="100.278407">
<time>2015-08-06T05:50:42Z</time></trkpt>
<trkpt lat="29.540705" lon="100.277948">
<time>2015-08-06T05:50:43Z</time></trkpt>
<trkpt lat="29.540715" lon="100.277658">
<time>2015-08-06T05:50:44Z</time></trkpt>
<trkpt lat="29.540776" lon="100.276749">
<time>2015-08-06T05:50:45Z</time></trkpt>
<trkpt lat="29.540928" lon="100.275411">
<time>2015-08-06T05:50:46Z</time></trkpt>
<trkpt lat="29.540968" lon="100.275041">
<time>2015-08-06T05:50:47Z</time></trkpt>
<trkpt lat="29.541008" lon="100.274802">
<time>2015-08-06T05:50:48Z</time></trkpt>
<trkpt lat="29.541078" lon="100.274542">
<time>2015-08-06T05:50:49Z</time></trkpt>
<trkpt lat="29.541369" lon="100.273483">
<time>2015-08-06T05:50:50Z</time></trkpt>
<trkpt lat="29.541459" lon="100.273203">
<time>2015-08-06T05:50:51Z</time></trkpt>
<trkpt lat="29.54157" lon="100.272944">
<time>2015-08-06T05:50:52Z</time></trkpt>
<trkpt lat="29.54181" lon="100.272494">
<time>2015-08-06T05:50:53Z</time></trkpt>
<trkpt lat="29.542" lon="100.272095">
<time>2015-08-06T05:50:54Z</time></trkpt>
<trkpt lat="29.542241" lon="100.271545">
<time>2015-08-06T05:50:55Z</time></trkpt>
<trkpt lat="29.542351" lon="100.271335">
<time>2015-08-06T05:50:56Z</time></trkpt>
<trkpt lat="29.542831" lon="100.270676">
<time>2015-08-06T05:50:57Z</time></trkpt>
<trkpt lat="29.543241" lon="100.270107">
<time>2015-08-06T05:50:58Z</time></trkpt>
<trkpt lat="29.543372" lon="100.269927">
<time>2015-08-06T05:50:59Z</time></trkpt>
<trkpt lat="29.543452" lon="100.269807">
<time>2015-08-06T05:51:00Z</time></trkpt>
<trkpt lat="29.543472" lon="100.269757">
<time>2015-08-06T05:51:01Z</time></trkpt>
<trkpt lat="29.543482" lon="100.269717">
<time>2015-08-06T05:51:02Z</time></trkpt>
<trkpt lat="29.543502" lon="100.269667">
<time>2015-08-06T05:51:03Z</time></trkpt>
<trkpt lat="29.543512" lon="100.269627">
<time>2015-08-06T05:51:04Z</time></trkpt>
<trkpt lat="29.543512" lon="100.269577">
<time>2015-08-06T05:51:05Z</time></trkpt>
<trkpt lat="29.543512" lon="100.269527">
<time>2015-08-06T05:51:06Z</time></trkpt>
<trkpt lat="29.543502" lon="100.269477">
<time>2015-08-06T05:51:07Z</time></trkpt>
<trkpt lat="29.543482" lon="100.269427">
<time>2015-08-06T05:51:08Z</time></trkpt>
<trkpt lat="29.543462" lon="100.269377">
<time>2015-08-06T05:51:09Z</time></trkpt>
<trkpt lat="29.543402" lon="100.269237">
<time>2015-08-06T05:51:10Z</time></trkpt>
<trkpt lat="29.543202" lon="100.268858">
<time>2015-08-06T05:51:11Z</time></trkpt>
<trkpt lat="29.543162" lon="100.268808">
<time>2015-08-06T05:51:12Z</time></trkpt>
<trkpt lat="29.543113" lon="100.268768">
<time>2015-08-06T05:51:13Z</time></trkpt>
<trkpt lat="29.543063" lon="100.268718">
<time>2015-08-06T05:51:14Z</time></trkpt>
<trkpt lat="29.543013" lon="100.268698">
<time>2015-08-06T05:51:15Z</time></trkpt>
<trkpt lat="29.542953" lon="100.268698">
<time>2015-08-06T05:51:16Z</time></trkpt>
<trkpt lat="29.542883" lon="100.268688">
<time>2015-08-06T05:51:17Z</time></trkpt>
<trkpt lat="29.542823" lon="100.268698">
<time>2015-08-06T05:51:18Z</time></trkpt>
<trkpt lat="29.542763" lon="100.268718">
<time>2015-08-06T05:51:19Z</time></trkpt>
<trkpt lat="29.542573" lon="100.268788">
<time>2015-08-06T05:51:20Z</time></trkpt>
<trkpt lat="29.541993" lon="100.269058">
<time>2015-08-06T05:51:21Z</time></trkpt>
<trkpt lat="29.541633" lon="100.269317">
<time>2015-08-06T05:51:22Z</time></trkpt>
<trkpt lat="29.541413" lon="100.269517">
<time>2015-08-06T05:51:23Z</time></trkpt>
<trkpt lat="29.540302" lon="100.270676">
<time>2015-08-06T05:51:24Z</time></trkpt>
<trkpt lat="29.539822" lon="100.271276">
<time>2015-08-06T05:51:25Z</time></trkpt>
<trkpt lat="29.539542" lon="100.271675">
<time>2015-08-06T05:51:26Z</time></trkpt>
<trkpt lat="29.539201" lon="100.272265">
<time>2015-08-06T05:51:27Z</time></trkpt>
<trkpt lat="29.539041" lon="100.272574">
<time>2015-08-06T05:51:28Z</time></trkpt>
<trkpt lat="29.53882" lon="100.273234">
<time>2015-08-06T05:51:29Z</time></trkpt>
<trkpt lat="29.538159" lon="100.275241">
<time>2015-08-06T05:51:30Z</time></trkpt>
<trkpt lat="29.538049" lon="100.275571">
<time>2015-08-06T05:51:31Z</time></trkpt>
<trkpt lat="29.537978" lon="100.275721">
<time>2015-08-06T05:51:32Z</time></trkpt>
<trkpt lat="29.537858" lon="100.275901">
<time>2015-08-06T05:51:33Z</time></trkpt>
<trkpt lat="29.537688" lon="100.27611">
<time>2015-08-06T05:51:34Z</time></trkpt>
<trkpt lat="29.537478" lon="100.27632">
<time>2015-08-06T05:51:35Z</time></trkpt>
<trkpt lat="29.537278" lon="100.27648">
<time>2015-08-06T05:51:36Z</time></trkpt>
<trkpt lat="29.536788" lon="100.27677">
<time>2015-08-06T05:51:37Z</time></trkpt>
<trkpt lat="29.536038" lon="100.277189">
<time>2015-08-06T05:51:38Z</time></trkpt>
<trkpt lat="29.535218" lon="100.277629">
<time>2015-08-06T05:51:39Z</time></trkpt>
<trkpt lat="29.534988" lon="100.277718">
<time>2015-08-06T05:51:40Z</time></trkpt>
<trkpt lat="29.534848" lon="100.277768">
<time>2015-08-06T05:51:41Z</time></trkpt>
<trkpt lat="29.534688" lon="100.277788">
<time>2015-08-06T05:51:42Z</time></trkpt>
<trkpt lat="29.534248" lon="100.277758">
<time>2015-08-06T05:51:43Z</time></trkpt>
<trkpt lat="29.534068" lon="100.277728">
<time>2015-08-06T05:51:44Z</time></trkpt>
<trkpt lat="29.533988" lon="100.277698">
<time>2015-08-06T05:51:45Z</time></trkpt>
<trkpt lat="29.533938" lon="100.277668">
<time>2015-08-06T05:51:46Z</time></trkpt>
<trkpt lat="29.533888" lon="100.277629">
<time>2015-08-06T05:51:47Z</time></trkpt>
<trkpt lat="29.533858" lon="100.277589">
<time>2015-08-06T05:51:48Z</time></trkpt>
<trkpt lat="29.533828" lon="100.277529">
<time>2015-08-06T05:51:49Z</time></trkpt>
<trkpt lat="29.533808" lon="100.277459">
<time>2015-08-06T05:51:50Z</time></trkpt>
<trkpt lat="29.533798" lon="100.277379">
<time>2015-08-06T05:51:51Z</time></trkpt>
<trkpt lat="29.533808" lon="100.277309">
<time>2015-08-06T05:51:52Z</time></trkpt>
<trkpt lat="29.533838" lon="100.277239">
<time>2015-08-06T05:51:53Z</time></trkpt>
<trkpt lat="29.533889" lon="100.277159">
<time>2015-08-06T05:51:54Z</time></trkpt>
<trkpt lat="29.533959" lon="100.277109">
<time>2015-08-06T05:51:55Z</time></trkpt>
<trkpt lat="29.534019" lon="100.277069">
<time>2015-08-06T05:51:56Z</time></trkpt>
<trkpt lat="29.534189" lon="100.276989">
<time>2015-08-06T05:51:57Z</time></trkpt>
<trkpt lat="29.534329" lon="100.276929">
<time>2015-08-06T05:51:58Z</time></trkpt>
<trkpt lat="29.534429" lon="100.276879">
<time>2015-08-06T05:51:59Z</time></trkpt>
<trkpt lat="29.534559" lon="100.27679">
<time>2015-08-06T05:52:00Z</time></trkpt>
<trkpt lat="29.534839" lon="100.27655">
<time>2015-08-06T05:52:01Z</time></trkpt>
<trkpt lat="29.535189" lon="100.27622">
<time>2015-08-06T05:52:02Z</time></trkpt>
<trkpt lat="29.535399" lon="100.27605">
<time>2015-08-06T05:52:03Z</time></trkpt>
<trkpt lat="29.535619" lon="100.275961">
<time>2015-08-06T05:52:04Z</time></trkpt>
<trkpt lat="29.535859" lon="100.275901">
<time>2015-08-06T05:52:05Z</time></trkpt>
<trkpt lat="29.536029" lon="100.275851">
<time>2015-08-06T05:52:06Z</time></trkpt>
<trkpt lat="29.536059" lon="100.275841">
<time>2015-08-06T05:52:07Z</time></trkpt>
<trkpt lat="29.536109" lon="100.275811">
<time>2015-08-06T05:52:08Z</time></trkpt>
<trkpt lat="29.536139" lon="100.275781">
<time>2015-08-06T05:52:09Z</time></trkpt>
<trkpt lat="29.536159" lon="100.275751">
<time>2015-08-06T05:52:10Z</time></trkpt>
<trkpt lat="29.536179" lon="100.275711">
<time>2015-08-06T05:52:11Z</time></trkpt>
<trkpt lat="29.536179" lon="100.275671">
<time>2015-08-06T05:52:12Z</time></trkpt>
<trkpt lat="29.536169" lon="100.275631">
<time>2015-08-06T05:52:13Z</time></trkpt>
<trkpt lat="29.536159" lon="100.275611">
<time>2015-08-06T05:52:14Z</time></trkpt>
<trkpt lat="29.536139" lon="100.275581">
<time>2015-08-06T05:52:15Z</time></trkpt>
<trkpt lat="29.536109" lon="100.275561">
<time>2015-08-06T05:52:16Z</time></trkpt>
<trkpt lat="29.536079" lon="100.275541">
<time>2015-08-06T05:52:17Z</time></trkpt>
<trkpt lat="29.536039" lon="100.275541">
<time>2015-08-06T05:52:18Z</time></trkpt>
<trkpt lat="29.535999" lon="100.275531">
<time>2015-08-06T05:52:19Z</time></trkpt>
<trkpt lat="29.535959" lon="100.275541">
<time>2015-08-06T05:52:20Z</time></trkpt>
<trkpt lat="29.535899" lon="100.275551">
<time>2015-08-06T05:52:21Z</time></trkpt>
<trkpt lat="29.535829" lon="100.275561">
<time>2015-08-06T05:52:22Z</time></trkpt>
<trkpt lat="29.535389" lon="100.275681">
<time>2015-08-06T05:52:23Z</time></trkpt>
<trkpt lat="29.535189" lon="100.275721">
<time>2015-08-06T05:52:24Z</time></trkpt>
<trkpt lat="29.535039" lon="100.275761">
<time>2015-08-06T05:52:25Z</time></trkpt>
<trkpt lat="29.53471" lon="100.275801">
<time>2015-08-06T05:52:26Z</time></trkpt>
<trkpt lat="29.53402" lon="100.275791">
<time>2015-08-06T05:52:27Z</time></trkpt>
<trkpt lat="29.53367" lon="100.275761">
<time>2015-08-06T05:52:28Z</time></trkpt>
<trkpt lat="29.53301" lon="100.275651">
<time>2015-08-06T05:52:29Z</time></trkpt>
<trkpt lat="29.53293" lon="100.275641">
<time>2015-08-06T05:52:30Z</time></trkpt>
<trkpt lat="29.53288" lon="100.275641">
<time>2015-08-06T05:52:31Z</time></trkpt>
<trkpt lat="29.53282" lon="100.275641">
<time>2015-08-06T05:52:32Z</time></trkpt>
<trkpt lat="29.53277" lon="100.275651">
<time>2015-08-06T05:52:33Z</time></trkpt>
<trkpt lat="29.5327" lon="100.275681">
<time>2015-08-06T05:52:34Z</time></trkpt>
<trkpt lat="29.53265" lon="100.275711">
<time>2015-08-06T05:52:35Z</time></trkpt>
<trkpt lat="29.53261" lon="100.275751">
<time>2015-08-06T05:52:36Z</time></trkpt>
<trkpt lat="29.53255" lon="100.275811">
<time>2015-08-06T05:52:37Z</time></trkpt>
<trkpt lat="29.53248" lon="100.275911">
<time>2015-08-06T05:52:38Z</time></trkpt>
<trkpt lat="29.53226" lon="100.27632">
<time>2015-08-06T05:52:39Z</time></trkpt>
<trkpt lat="29.53223" lon="100.27636">
<time>2015-08-06T05:52:40Z</time></trkpt>
<trkpt lat="29.53219" lon="100.27641">
<time>2015-08-06T05:52:41Z</time></trkpt>
<trkpt lat="29.53214" lon="100.27646">
<time>2015-08-06T05:52:42Z</time></trkpt>
<trkpt lat="29.53209" lon="100.27651">
<time>2015-08-06T05:52:43Z</time></trkpt>
<trkpt lat="29.53199" lon="100.27657">
<time>2015-08-06T05:52:44Z</time></trkpt>
<trkpt lat="29.53163" lon="100.27677">
<time>2015-08-06T05:52:45Z</time></trkpt>
<trkpt lat="29.53156" lon="100.2768">
<time>2015-08-06T05:52:46Z</time></trkpt>
<trkpt lat="29.5315" lon="100.27682">
<time>2015-08-06T05:52:47Z</time></trkpt>
<trkpt lat="29.53146" lon="100.27684">
<time>2015-08-06T05:52:48Z</time></trkpt>
<trkpt lat="29.53139" lon="100.27685">
<time>2015-08-06T05:52:49Z</time></trkpt>
<trkpt lat="29.53125" lon="100.27686">
<time>2015-08-06T05:52:50Z</time></trkpt>
<trkpt lat="29.53087" lon="100.27688">
<time>2015-08-06T05:52:51Z</time></trkpt>
<trkpt lat="29.53027" lon="100.27691">
<time>2015-08-06T05:52:52Z</time></trkpt>
<trkpt lat="29.53019" lon="100.27691">
<time>2015-08-06T05:52:53Z</time></trkpt>
<trkpt lat="29.53012" lon="100.27691">
<time>2015-08-06T05:52:54Z</time></trkpt>
<trkpt lat="29.53005" lon="100.27691">
<time>2015-08-06T05:52:55Z</time></trkpt>
<trkpt lat="29.529551" lon="100.27685">
<time>2015-08-06T05:52:56Z</time></trkpt>
<trkpt lat="29.529031" lon="100.27677">
<time>2015-08-06T05:52:57Z</time></trkpt>
<trkpt lat="29.528941" lon="100.27675">
<time>2015-08-06T05:52:58Z</time></trkpt>
<trkpt lat="29.528781" lon="100.27671">
<time>2015-08-06T05:52:59Z</time></trkpt>
<trkpt lat="29.528501" lon="100.27662">
<time>2015-08-06T05:53:00Z</time></trkpt>
<trkpt lat="29.528181" lon="100.27649">
<time>2015-08-06T05:53:01Z</time></trkpt>
<trkpt lat="29.527592" lon="100.27625">
<time>2015-08-06T05:53:02Z</time></trkpt>
<trkpt lat="29.527482" lon="100.2762">
<time>2015-08-06T05:53:03Z</time></trkpt>
<trkpt lat="29.527402" lon="100.276151">
<time>2015-08-06T05:53:04Z</time></trkpt>
<trkpt lat="29.527302" lon="100.276071">
<time>2015-08-06T05:53:05Z</time></trkpt>
<trkpt lat="29.527172" lon="100.275971">
<time>2015-08-06T05:53:06Z</time></trkpt>
<trkpt lat="29.527033" lon="100.275851">
<time>2015-08-06T05:53:07Z</time></trkpt>
<trkpt lat="29.526843" lon="100.275661">
<time>2015-08-06T05:53:08Z</time></trkpt>
<trkpt lat="29.526713" lon="100.275501">
<time>2015-08-06T05:53:09Z</time></trkpt>
<trkpt lat="29.526653" lon="100.275361">
<time>2015-08-06T05:53:10Z</time></trkpt>
<trkpt lat="29.526583" lon="100.275132">
<time>2015-08-06T05:53:11Z</time></trkpt>
<trkpt lat="29.526584" lon="100.274952">
<time>2015-08-06T05:53:12Z</time></trkpt>
<trkpt lat="29.526584" lon="100.274802">
<time>2015-08-06T05:53:13Z</time></trkpt>
<trkpt lat="29.526594" lon="100.274662">
<time>2015-08-06T05:53:14Z</time></trkpt>
<trkpt lat="29.526624" lon="100.274522">
<time>2015-08-06T05:53:15Z</time></trkpt>
<trkpt lat="29.526664" lon="100.274393">
<time>2015-08-06T05:53:16Z</time></trkpt>
<trkpt lat="29.526754" lon="100.274213">
<time>2015-08-06T05:53:17Z</time></trkpt>
<trkpt lat="29.526854" lon="100.274083">
<time>2015-08-06T05:53:18Z</time></trkpt>
<trkpt lat="29.526944" lon="100.273993">
<time>2015-08-06T05:53:19Z</time></trkpt>
<trkpt lat="29.527044" lon="100.273923">
<time>2015-08-06T05:53:20Z</time></trkpt>
<trkpt lat="29.527164" lon="100.273863">
<time>2015-08-06T05:53:21Z</time></trkpt>
<trkpt lat="29.527314" lon="100.273813">
<time>2015-08-06T05:53:22Z</time></trkpt>
<trkpt lat="29.527884" lon="100.273703">
<time>2015-08-06T05:53:23Z</time></trkpt>
<trkpt lat="29.528154" lon="100.273643">
<time>2015-08-06T05:53:24Z</time></trkpt>
<trkpt lat="29.528404" lon="100.273573">
<time>2015-08-06T05:53:25Z</time></trkpt>
<trkpt lat="29.528844" lon="100.273424">
<time>2015-08-06T05:53:26Z</time></trkpt>
<trkpt lat="29.529134" lon="100.273334">
<time>2015-08-06T05:53:27Z</time></trkpt>
<trkpt lat="29.529264" lon="100.273304">
<time>2015-08-06T05:53:28Z</time></trkpt>
<trkpt lat="29.529364" lon="100.273294">
<time>2015-08-06T05:53:29Z</time></trkpt>
<trkpt lat="29.529564" lon="100.273274">
<time>2015-08-06T05:53:30Z</time></trkpt>
<trkpt lat="29.529984" lon="100.273254">
<time>2015-08-06T05:53:31Z</time></trkpt>
<trkpt lat="29.530374" lon="100.273254">
<time>2015-08-06T05:53:32Z</time></trkpt>
<trkpt lat="29.530574" lon="100.273234">
<time>2015-08-06T05:53:33Z</time></trkpt>
<trkpt lat="29.530654" lon="100.273234">
<time>2015-08-06T05:53:34Z</time></trkpt>
<trkpt lat="29.530924" lon="100.273194">
<time>2015-08-06T05:53:35Z</time></trkpt>
<trkpt lat="29.532103" lon="100.272974">
<time>2015-08-06T05:53:36Z</time></trkpt>
<trkpt lat="29.532573" lon="100.272874">
<time>2015-08-06T05:53:37Z</time></trkpt>
<trkpt lat="29.532893" lon="100.272824">
<time>2015-08-06T05:53:38Z</time></trkpt>
<trkpt lat="29.532953" lon="100.272804">
<time>2015-08-06T05:53:39Z</time></trkpt>
<trkpt lat="29.532993" lon="100.272784">
<time>2015-08-06T05:53:40Z</time></trkpt>
<trkpt lat="29.533033" lon="100.272764">
<time>2015-08-06T05:53:41Z</time></trkpt>
<trkpt lat="29.533053" lon="100.272744">
<time>2015-08-06T05:53:42Z</time></trkpt>
<trkpt lat="29.533083" lon="100.272704">
<time>2015-08-06T05:53:43Z</time></trkpt>
<trkpt lat="29.533103" lon="100.272664">
<time>2015-08-06T05:53:44Z</time></trkpt>
<trkpt lat="29.533113" lon="100.272614">
<time>2015-08-06T05:53:45Z</time></trkpt>
<trkpt lat="29.533113" lon="100.272564">
<time>2015-08-06T05:53:46Z</time></trkpt>
<trkpt lat="29.533103" lon="100.272524">
<time>2015-08-06T05:53:47Z</time></trkpt>
<trkpt lat="29.533083" lon="100.272494">
<time>2015-08-06T05:53:48Z</time></trkpt>
<trkpt lat="29.533063" lon="100.272465">
<time>2015-08-06T05:53:49Z</time></trkpt>
<trkpt lat="29.533033" lon="100.272445">
<time>2015-08-06T05:53:50Z</time></trkpt>
<trkpt lat="29.533003" lon="100.272425">
<time>2015-08-06T05:53:51Z</time></trkpt>
<trkpt lat="29.532953" lon="100.272415">
<time>2015-08-06T05:53:52Z</time></trkpt>
<trkpt lat="29.532903" lon="100.272405">
<time>2015-08-06T05:53:53Z</time></trkpt>
<trkpt lat="29.532803" lon="100.272405">
<time>2015-08-06T05:53:54Z</time></trkpt>
<trkpt lat="29.532744" lon="100.272405">
<time>2015-08-06T05:53:55Z</time></trkpt>
<trkpt lat="29.532254" lon="100.272475">
<time>2015-08-06T05:53:56Z</time></trkpt>
<trkpt lat="29.531864" lon="100.272524">
<time>2015-08-06T05:53:57Z</time></trkpt>
<trkpt lat="29.531714" lon="100.272534">
<time>2015-08-06T05:53:58Z</time></trkpt>
<trkpt lat="29.531554" lon="100.272514">
<time>2015-08-06T05:53:59Z</time></trkpt>
<trkpt lat="29.531324" lon="100.272495">
<time>2015-08-06T05:54:00Z</time></trkpt>
<trkpt lat="29.530275" lon="100.272265">
<time>2015-08-06T05:54:01Z</time></trkpt>
<trkpt lat="29.529675" lon="100.272175">
<time>2015-08-06T05:54:02Z</time></trkpt>
<trkpt lat="29.529475" lon="100.272165">
<time>2015-08-06T05:54:03Z</time></trkpt>
<trkpt lat="29.529265" lon="100.272155">
<time>2015-08-06T05:54:04Z</time></trkpt>
<trkpt lat="29.528665" lon="100.272145">
<time>2015-08-06T05:54:05Z</time></trkpt>
<trkpt lat="29.527226" lon="100.272115">
<time>2015-08-06T05:54:06Z</time></trkpt>
<trkpt lat="29.525047" lon="100.271995">
<time>2015-08-06T05:54:07Z</time></trkpt>
<trkpt lat="29.524307" lon="100.271945">
<time>2015-08-06T05:54:08Z</time></trkpt>
<trkpt lat="29.524107" lon="100.271945">
<time>2015-08-06T05:54:09Z</time></trkpt>
<trkpt lat="29.523857" lon="100.271965">
<time>2015-08-06T05:54:10Z</time></trkpt>
<trkpt lat="29.522998" lon="100.272005">
<time>2015-08-06T05:54:11Z</time></trkpt>
<trkpt lat="29.522718" lon="100.271965">
<time>2015-08-06T05:54:12Z</time></trkpt>
<trkpt lat="29.522228" lon="100.271895">
<time>2015-08-06T05:54:13Z</time></trkpt>
<trkpt lat="29.521428" lon="100.271786">
<time>2015-08-06T05:54:14Z</time></trkpt>
<trkpt lat="29.521239" lon="100.271796">
<time>2015-08-06T05:54:15Z</time></trkpt>
<trkpt lat="29.521039" lon="100.271835">
<time>2015-08-06T05:54:16Z</time></trkpt>
<trkpt lat="29.520259" lon="100.272045">
<time>2015-08-06T05:54:17Z</time></trkpt>
<trkpt lat="29.519279" lon="100.272355">
<time>2015-08-06T05:54:18Z</time></trkpt>
<trkpt lat="29.518769" lon="100.272565">
<time>2015-08-06T05:54:19Z</time></trkpt>
<trkpt lat="29.518149" lon="100.272805">
<time>2015-08-06T05:54:20Z</time></trkpt>
<trkpt lat="29.517839" lon="100.272904">
<time>2015-08-06T05:54:21Z</time></trkpt>
<trkpt lat="29.517569" lon="100.272974">
<time>2015-08-06T05:54:22Z</time></trkpt>
<trkpt lat="29.517469" lon="100.272994">
<time>2015-08-06T05:54:23Z</time></trkpt>
<trkpt lat="29.517369" lon="100.273014">
<time>2015-08-06T05:54:24Z</time></trkpt>
<trkpt lat="29.517279" lon="100.273024">
<time>2015-08-06T05:54:25Z</time></trkpt>
<trkpt lat="29.517239" lon="100.273014">
<time>2015-08-06T05:54:26Z</time></trkpt>
<trkpt lat="29.517189" lon="100.273004">
<time>2015-08-06T05:54:27Z</time></trkpt>
<trkpt lat="29.517129" lon="100.272984">
<time>2015-08-06T05:54:28Z</time></trkpt>
<trkpt lat="29.517089" lon="100.272954">
<time>2015-08-06T05:54:29Z</time></trkpt>
<trkpt lat="29.517039" lon="100.272914">
<time>2015-08-06T05:54:30Z</time></trkpt>
<trkpt lat="29.516999" lon="100.272865">
<time>2015-08-06T05:54:31Z</time></trkpt>
<trkpt lat="29.516969" lon="100.272795">
<time>2015-08-06T05:54:32Z</time></trkpt>
<trkpt lat="29.516949" lon="100.272725">
<time>2015-08-06T05:54:33Z</time></trkpt>
<trkpt lat="29.51693" lon="100.272665">
<time>2015-08-06T05:54:34Z</time></trkpt>
<trkpt lat="29.51692" lon="100.272585">
<time>2015-08-06T05:54:35Z</time></trkpt>
<trkpt lat="29.51692" lon="100.272505">
<time>2015-08-06T05:54:36Z</time></trkpt>
<trkpt lat="29.51693" lon="100.272425">
<time>2015-08-06T05:54:37Z</time></trkpt>
<trkpt lat="29.51706" lon="100.271846">
<time>2015-08-06T05:54:38Z</time></trkpt>
<trkpt lat="29.51714" lon="100.271486">
<time>2015-08-06T05:54:39Z</time></trkpt>
<trkpt lat="29.517151" lon="100.271386">
<time>2015-08-06T05:54:40Z</time></trkpt>
<trkpt lat="29.517161" lon="100.271296">
<time>2015-08-06T05:54:41Z</time></trkpt>
<trkpt lat="29.517151" lon="100.271206">
<time>2015-08-06T05:54:42Z</time></trkpt>
<trkpt lat="29.517131" lon="100.271116">
<time>2015-08-06T05:54:43Z</time></trkpt>
<trkpt lat="29.517071" lon="100.270986">
<time>2015-08-06T05:54:44Z</time></trkpt>
<trkpt lat="29.516991" lon="100.270877">
<time>2015-08-06T05:54:45Z</time></trkpt>
<trkpt lat="29.516861" lon="100.270747">
<time>2015-08-06T05:54:46Z</time></trkpt>
<trkpt lat="29.516791" lon="100.270677">
<time>2015-08-06T05:54:47Z</time></trkpt>
<trkpt lat="29.516721" lon="100.270617">
<time>2015-08-06T05:54:48Z</time></trkpt>
<trkpt lat="29.516651" lon="100.270537">
<time>2015-08-06T05:54:49Z</time></trkpt>
<trkpt lat="29.516582" lon="100.270427">
<time>2015-08-06T05:54:50Z</time></trkpt>
<trkpt lat="29.516542" lon="100.270347">
<time>2015-08-06T05:54:51Z</time></trkpt>
<trkpt lat="29.516492" lon="100.270217">
<time>2015-08-06T05:54:52Z</time></trkpt>
<trkpt lat="29.516442" lon="100.270057">
<time>2015-08-06T05:54:53Z</time></trkpt>
<trkpt lat="29.516392" lon="100.269928">
<time>2015-08-06T05:54:54Z</time></trkpt>
<trkpt lat="29.516342" lon="100.269818">
<time>2015-08-06T05:54:55Z</time></trkpt>
<trkpt lat="29.516282" lon="100.269708">
<time>2015-08-06T05:54:56Z</time></trkpt>
<trkpt lat="29.516202" lon="100.269588">
<time>2015-08-06T05:54:57Z</time></trkpt>
<trkpt lat="29.516113" lon="100.269488">
<time>2015-08-06T05:54:58Z</time></trkpt>
<trkpt lat="29.515823" lon="100.269158">
<time>2015-08-06T05:54:59Z</time></trkpt>
<trkpt lat="29.515503" lon="100.268789">
<time>2015-08-06T05:55:00Z</time></trkpt>
<trkpt lat="29.515294" lon="100.268489">
<time>2015-08-06T05:55:01Z</time></trkpt>
<trkpt lat="29.514375" lon="100.26716">
<time>2015-08-06T05:55:02Z</time></trkpt>
<trkpt lat="29.514075" lon="100.2668">
<time>2015-08-06T05:55:03Z</time></trkpt>
<trkpt lat="29.513916" lon="100.266591">
<time>2015-08-06T05:55:04Z</time></trkpt>
<trkpt lat="29.513806" lon="100.266441">
<time>2015-08-06T05:55:05Z</time></trkpt>
<trkpt lat="29.513736" lon="100.266341">
<time>2015-08-06T05:55:06Z</time></trkpt>
<trkpt lat="29.513686" lon="100.266251">
<time>2015-08-06T05:55:07Z</time></trkpt>
<trkpt lat="29.513666" lon="100.266191">
<time>2015-08-06T05:55:08Z</time></trkpt>
<trkpt lat="29.513656" lon="100.266141">
<time>2015-08-06T05:55:09Z</time></trkpt>
<trkpt lat="29.513656" lon="100.266081">
<time>2015-08-06T05:55:10Z</time></trkpt>
<trkpt lat="29.513656" lon="100.266031">
<time>2015-08-06T05:55:11Z</time></trkpt>
<trkpt lat="29.513676" lon="100.265971">
<time>2015-08-06T05:55:12Z</time></trkpt>
<trkpt lat="29.513686" lon="100.265941">
<time>2015-08-06T05:55:13Z</time></trkpt>
<trkpt lat="29.513716" lon="100.265841">
<time>2015-08-06T05:55:14Z</time></trkpt>
<trkpt lat="29.513716" lon="100.265821">
<time>2015-08-06T05:55:15Z</time></trkpt>
<trkpt lat="29.513716" lon="100.265791">
<time>2015-08-06T05:55:16Z</time></trkpt>
<trkpt lat="29.513716" lon="100.265771">
<time>2015-08-06T05:55:17Z</time></trkpt>
<trkpt lat="29.513706" lon="100.265751">
<time>2015-08-06T05:55:18Z</time></trkpt>
<trkpt lat="29.513696" lon="100.265731">
<time>2015-08-06T05:55:19Z</time></trkpt>
<trkpt lat="29.513686" lon="100.265721">
<time>2015-08-06T05:55:20Z</time></trkpt>
<trkpt lat="29.513666" lon="100.265711">
<time>2015-08-06T05:55:21Z</time></trkpt>
<trkpt lat="29.513646" lon="100.265701">
<time>2015-08-06T05:55:22Z</time></trkpt>
<trkpt lat="29.513626" lon="100.265701">
<time>2015-08-06T05:55:23Z</time></trkpt>
<trkpt lat="29.513606" lon="100.265701">
<time>2015-08-06T05:55:24Z</time></trkpt>
<trkpt lat="29.513586" lon="100.265711">
<time>2015-08-06T05:55:25Z</time></trkpt>
<trkpt lat="29.513556" lon="100.265721">
<time>2015-08-06T05:55:26Z</time></trkpt>
<trkpt lat="29.513546" lon="100.265731">
<time>2015-08-06T05:55:27Z</time></trkpt>
<trkpt lat="29.513536" lon="100.265751">
<time>2015-08-06T05:55:28Z</time></trkpt>
<trkpt lat="29.513516" lon="100.265791">
<time>2015-08-06T05:55:29Z</time></trkpt>
<trkpt lat="29.513496" lon="100.265841">
<time>2015-08-06T05:55:30Z</time></trkpt>
<trkpt lat="29.513486" lon="100.265891">
<time>2015-08-06T05:55:31Z</time></trkpt>
<trkpt lat="29.513486" lon="100.265951">
<time>2015-08-06T05:55:32Z</time></trkpt>
<trkpt lat="29.513496" lon="100.266011">
<time>2015-08-06T05:55:33Z</time></trkpt>
<trkpt lat="29.513526" lon="100.266201">
<time>2015-08-06T05:55:34Z</time></trkpt>
<trkpt lat="29.513556" lon="100.266311">
<time>2015-08-06T05:55:35Z</time></trkpt>
<trkpt lat="29.513616" lon="100.266561">
<time>2015-08-06T05:55:36Z</time></trkpt>
<trkpt lat="29.513685" lon="100.26679">
<time>2015-08-06T05:55:37Z</time></trkpt>
<trkpt lat="29.513735" lon="100.2669">
<time>2015-08-06T05:55:38Z</time></trkpt>
<trkpt lat="29.513825" lon="100.26708">
<time>2015-08-06T05:55:39Z</time></trkpt>
<trkpt lat="29.513925" lon="100.26726">
<time>2015-08-06T05:55:40Z</time></trkpt>
<trkpt lat="29.513955" lon="100.26732">
<time>2015-08-06T05:55:41Z</time></trkpt>
<trkpt lat="29.513985" lon="100.26738">
<time>2015-08-06T05:55:42Z</time></trkpt>
<trkpt lat="29.513995" lon="100.26743">
<time>2015-08-06T05:55:43Z</time></trkpt>
<trkpt lat="29.514005" lon="100.26748">
<time>2015-08-06T05:55:44Z</time></trkpt>
<trkpt lat="29.514005" lon="100.26752">
<time>2015-08-06T05:55:45Z</time></trkpt>
<trkpt lat="29.513995" lon="100.26757">
<time>2015-08-06T05:55:46Z</time></trkpt>
<trkpt lat="29.513975" lon="100.2676">
<time>2015-08-06T05:55:47Z</time></trkpt>
<trkpt lat="29.513965" lon="100.26762">
<time>2015-08-06T05:55:48Z</time></trkpt>
<trkpt lat="29.513925" lon="100.26765">
<time>2015-08-06T05:55:49Z</time></trkpt>
<trkpt lat="29.513905" lon="100.26766">
<time>2015-08-06T05:55:50Z</time></trkpt>
<trkpt lat="29.513875" lon="100.26766">
<time>2015-08-06T05:55:51Z</time></trkpt>
<trkpt lat="29.513845" lon="100.26767">
<time>2015-08-06T05:55:52Z</time></trkpt>
<trkpt lat="29.513795" lon="100.26766">
<time>2015-08-06T05:55:53Z</time></trkpt>
<trkpt lat="29.513755" lon="100.26764">
<time>2015-08-06T05:55:54Z</time></trkpt>
<trkpt lat="29.513695" lon="100.26761">
<time>2015-08-06T05:55:55Z</time></trkpt>
<trkpt lat="29.513195" lon="100.26725">
<time>2015-08-06T05:55:56Z</time></trkpt>
<trkpt lat="29.513046" lon="100.26708">
<time>2015-08-06T05:55:57Z</time></trkpt>
<trkpt lat="29.512227" lon="100.265971">
<time>2015-08-06T05:55:58Z</time></trkpt>
<trkpt lat="29.512107" lon="100.265821">
<time>2015-08-06T05:55:59Z</time></trkpt>
<trkpt lat="29.512017" lon="100.265721">
<time>2015-08-06T05:56:00Z</time></trkpt>
<trkpt lat="29.511897" lon="100.265611">
<time>2015-08-06T05:56:01Z</time></trkpt>
<trkpt lat="29.511807" lon="100.265541">
<time>2015-08-06T05:56:02Z</time></trkpt>
<trkpt lat="29.511497" lon="100.265372">
<time>2015-08-06T05:56:03Z</time></trkpt>
<trkpt lat="29.509269" lon="100.264392">
<time>2015-08-06T05:56:04Z</time></trkpt>
<trkpt lat="29.509019" lon="100.264232">
<time>2015-08-06T05:56:05Z</time></trkpt>
<trkpt lat="29.508879" lon="100.264123">
<time>2015-08-06T05:56:06Z</time></trkpt>
<trkpt lat="29.508699" lon="100.263963">
<time>2015-08-06T05:56:07Z</time></trkpt>
<trkpt lat="29.508559" lon="100.263823">
<time>2015-08-06T05:56:08Z</time></trkpt>
<trkpt lat="29.50841" lon="100.263683">
<time>2015-08-06T05:56:09Z</time></trkpt>
<trkpt lat="29.50834" lon="100.263613">
<time>2015-08-06T05:56:10Z</time></trkpt>
<trkpt lat="29.50826" lon="100.263573">
<time>2015-08-06T05:56:11Z</time></trkpt>
<trkpt lat="29.50819" lon="100.263533">
<time>2015-08-06T05:56:12Z</time></trkpt>
<trkpt lat="29.50812" lon="100.263523">
<time>2015-08-06T05:56:13Z</time></trkpt>
<trkpt lat="29.50805" lon="100.263523">
<time>2015-08-06T05:56:14Z</time></trkpt>
<trkpt lat="29.50798" lon="100.263533">
<time>2015-08-06T05:56:15Z</time></trkpt>
<trkpt lat="29.50789" lon="100.263563">
<time>2015-08-06T05:56:16Z</time></trkpt>
<trkpt lat="29.50772" lon="100.263643">
<time>2015-08-06T05:56:17Z</time></trkpt>
<trkpt lat="29.50734" lon="100.263823">
<time>2015-08-06T05:56:18Z</time></trkpt>
<trkpt lat="29.50714" lon="100.263893">
<time>2015-08-06T05:56:19Z</time></trkpt>
<trkpt lat="29.50701" lon="100.263933">
<time>2015-08-06T05:56:20Z</time></trkpt>
<trkpt lat="29.50687" lon="100.263963">
<time>2015-08-06T05:56:21Z</time></trkpt>
<trkpt lat="29.50662" lon="100.263973">
<time>2015-08-06T05:56:22Z</time></trkpt>
<trkpt lat="29.50611" lon="100.263993">
<time>2015-08-06T05:56:23Z</time></trkpt>
<trkpt lat="29.50606" lon="100.263993">
<time>2015-08-06T05:56:24Z</time></trkpt>
<trkpt lat="29.506" lon="100.263983">
<time>2015-08-06T05:56:25Z</time></trkpt>
<trkpt lat="29.50595" lon="100.263983">
<time>2015-08-06T05:56:26Z</time></trkpt>
<trkpt lat="29.5059" lon="100.263973">
<time>2015-08-06T05:56:27Z</time></trkpt>
<trkpt lat="29.505861" lon="100.263953">
<time>2015-08-06T05:56:28Z</time></trkpt>
<trkpt lat="29.505821" lon="100.263933">
<time>2015-08-06T05:56:29Z</time></trkpt>
<trkpt lat="29.505781" lon="100.263903">
<time>2015-08-06T05:56:30Z</time></trkpt>
<trkpt lat="29.505741" lon="100.263853">
<time>2015-08-06T05:56:31Z</time></trkpt>
<trkpt lat="29.505721" lon="100.263793">
<time>2015-08-06T05:56:32Z</time></trkpt>
<trkpt lat="29.505711" lon="100.263733">
<time>2015-08-06T05:56:33Z</time></trkpt>
<trkpt lat="29.505711" lon="100.263673">
<time>2015-08-06T05:56:34Z</time></trkpt>
<trkpt lat="29.505731" lon="100.263603">
<time>2015-08-06T05:56:35Z</time></trkpt>
<trkpt lat="29.505741" lon="100.263553">
<time>2015-08-06T05:56:36Z</time></trkpt>
<trkpt lat="29.505781" lon="100.263483">
<time>2015-08-06T05:56:37Z</time></trkpt>
<trkpt lat="29.505961" lon="100.263203">
<time>2015-08-06T05:56:38Z</time></trkpt>
<trkpt lat="29.506801" lon="100.261964">
<time>2015-08-06T05:56:39Z</time></trkpt>
<trkpt lat="29.506951" lon="100.261654">
<time>2015-08-06T05:56:40Z</time></trkpt>
<trkpt lat="29.507061" lon="100.261384">
<time>2015-08-06T05:56:41Z</time></trkpt>
<trkpt lat="29.507152" lon="100.261015">
<time>2015-08-06T05:56:42Z</time></trkpt>
<trkpt lat="29.507192" lon="100.260575">
<time>2015-08-06T05:56:43Z</time></trkpt>
<trkpt lat="29.507262" lon="100.258856">
<time>2015-08-06T05:56:44Z</time></trkpt>
<trkpt lat="29.507243" lon="100.258406">
<time>2015-08-06T05:56:45Z</time></trkpt>
<trkpt lat="29.507233" lon="100.258006">
<time>2015-08-06T05:56:46Z</time></trkpt>
<trkpt lat="29.507233" lon="100.257926">
<time>2015-08-06T05:56:47Z</time></trkpt>
<trkpt lat="29.507223" lon="100.257876">
<time>2015-08-06T05:56:48Z</time></trkpt>
<trkpt lat="29.507213" lon="100.257836">
<time>2015-08-06T05:56:49Z</time></trkpt>
<trkpt lat="29.507203" lon="100.257796">
<time>2015-08-06T05:56:50Z</time></trkpt>
<trkpt lat="29.507183" lon="100.257766">
<time>2015-08-06T05:56:51Z</time></trkpt>
<trkpt lat="29.507153" lon="100.257736">
<time>2015-08-06T05:56:52Z</time></trkpt>
<trkpt lat="29.507123" lon="100.257726">
<time>2015-08-06T05:56:53Z</time></trkpt>
<trkpt lat="29.507093" lon="100.257716">
<time>2015-08-06T05:56:54Z</time></trkpt>
<trkpt lat="29.507053" lon="100.257716">
<time>2015-08-06T05:56:55Z</time></trkpt>
<trkpt lat="29.507023" lon="100.257716">
<time>2015-08-06T05:56:56Z</time></trkpt>
<trkpt lat="29.507003" lon="100.257726">
<time>2015-08-06T05:56:57Z</time></trkpt>
<trkpt lat="29.506973" lon="100.257756">
<time>2015-08-06T05:56:58Z</time></trkpt>
<trkpt lat="29.506953" lon="100.257776">
<time>2015-08-06T05:56:59Z</time></trkpt>
<trkpt lat="29.506933" lon="100.257806">
<time>2015-08-06T05:57:00Z</time></trkpt>
<trkpt lat="29.506913" lon="100.257866">
<time>2015-08-06T05:57:01Z</time></trkpt>
<trkpt lat="29.506883" lon="100.258016">
<time>2015-08-06T05:57:02Z</time></trkpt>
<trkpt lat="29.506853" lon="100.258186">
<time>2015-08-06T05:57:03Z</time></trkpt>
<trkpt lat="29.506773" lon="100.258506">
<time>2015-08-06T05:57:04Z</time></trkpt>
<trkpt lat="29.506703" lon="100.258706">
<time>2015-08-06T05:57:05Z</time></trkpt>
<trkpt lat="29.506643" lon="100.258856">
<time>2015-08-06T05:57:06Z</time></trkpt>
<trkpt lat="29.506563" lon="100.259056">
<time>2015-08-06T05:57:07Z</time></trkpt>
<trkpt lat="29.506533" lon="100.259106">
<time>2015-08-06T05:57:08Z</time></trkpt>
<trkpt lat="29.506493" lon="100.259156">
<time>2015-08-06T05:57:09Z</time></trkpt>
<trkpt lat="29.506463" lon="100.259196">
<time>2015-08-06T05:57:10Z</time></trkpt>
<trkpt lat="29.506443" lon="100.259226">
<time>2015-08-06T05:57:11Z</time></trkpt>
<trkpt lat="29.506413" lon="100.259246">
<time>2015-08-06T05:57:12Z</time></trkpt>
<trkpt lat="29.506373" lon="100.259266">
<time>2015-08-06T05:57:13Z</time></trkpt>
<trkpt lat="29.506343" lon="100.259266">
<time>2015-08-06T05:57:14Z</time></trkpt>
<trkpt lat="29.506303" lon="100.259266">
<time>2015-08-06T05:57:15Z</time></trkpt>
<trkpt lat="29.506273" lon="100.259256">
<time>2015-08-06T05:57:16Z</time></trkpt>
<trkpt lat="29.506253" lon="100.259236">
<time>2015-08-06T05:57:17Z</time></trkpt>
<trkpt lat="29.506223" lon="100.259216">
<time>2015-08-06T05:57:18Z</time></trkpt>
<trkpt lat="29.506213" lon="100.259186">
<time>2015-08-06T05:57:19Z</time></trkpt>
<trkpt lat="29.506193" lon="100.259156">
<time>2015-08-06T05:57:20Z</time></trkpt>
<trkpt lat="29.506183" lon="100.259106">
<time>2015-08-06T05:57:21Z</time></trkpt>
<trkpt lat="29.506173" lon="100.259066">
<time>2015-08-06T05:57:22Z</time></trkpt>
<trkpt lat="29.506173" lon="100.258996">
<time>2015-08-06T05:57:23Z</time></trkpt>
<trkpt lat="29.506173" lon="100.258866">
<time>2015-08-06T05:57:24Z</time></trkpt>
<trkpt lat="29.506193" lon="100.258556">
<time>2015-08-06T05:57:25Z</time></trkpt>
<trkpt lat="29.506273" lon="100.257976">
<time>2015-08-06T05:57:26Z</time></trkpt>
<trkpt lat="29.506463" lon="100.256947">
<time>2015-08-06T05:57:27Z</time></trkpt>
<trkpt lat="29.506584" lon="100.256567">
<time>2015-08-06T05:57:28Z</time></trkpt>
<trkpt lat="29.506824" lon="100.255977">
<time>2015-08-06T05:57:29Z</time></trkpt>
<trkpt lat="29.507474" lon="100.254517">
<time>2015-08-06T05:57:30Z</time></trkpt>
<trkpt lat="29.507674" lon="100.254087">
<time>2015-08-06T05:57:31Z</time></trkpt>
<trkpt lat="29.507784" lon="100.253918">
<time>2015-08-06T05:57:32Z</time></trkpt>
<trkpt lat="29.507904" lon="100.253778">
<time>2015-08-06T05:57:33Z</time></trkpt>
<trkpt lat="29.508104" lon="100.253568">
<time>2015-08-06T05:57:34Z</time></trkpt>
<trkpt lat="29.508613" lon="100.253088">
<time>2015-08-06T05:57:35Z</time></trkpt>
<trkpt lat="29.509033" lon="100.252608">
<time>2015-08-06T05:57:36Z</time></trkpt>
<trkpt lat="29.510063" lon="100.251348">
<time>2015-08-06T05:57:37Z</time></trkpt>
<trkpt lat="29.510203" lon="100.251178">
<time>2015-08-06T05:57:38Z</time></trkpt>
<trkpt lat="29.510323" lon="100.250968">
<time>2015-08-06T05:57:39Z</time></trkpt>
<trkpt lat="29.510443" lon="100.250758">
<time>2015-08-06T05:57:40Z</time></trkpt>
<trkpt lat="29.510533" lon="100.250538">
<time>2015-08-06T05:57:41Z</time></trkpt>
<trkpt lat="29.510643" lon="100.250378">
<time>2015-08-06T05:57:42Z</time></trkpt>
<trkpt lat="29.510933" lon="100.250048">
<time>2015-08-06T05:57:43Z</time></trkpt>
<trkpt lat="29.511163" lon="100.249808">
<time>2015-08-06T05:57:44Z</time></trkpt>
<trkpt lat="29.511393" lon="100.249588">
<time>2015-08-06T05:57:45Z</time></trkpt>
<trkpt lat="29.511693" lon="100.249278">
<time>2015-08-06T05:57:46Z</time></trkpt>
<trkpt lat="29.511883" lon="100.249078">
<time>2015-08-06T05:57:47Z</time></trkpt>
<trkpt lat="29.511963" lon="100.248968">
<time>2015-08-06T05:57:48Z</time></trkpt>
<trkpt lat="29.512042" lon="100.248818">
<time>2015-08-06T05:57:49Z</time></trkpt>
<trkpt lat="29.512152" lon="100.248518">
<time>2015-08-06T05:57:50Z</time></trkpt>
<trkpt lat="29.512202" lon="100.248328">
<time>2015-08-06T05:57:51Z</time></trkpt>
<trkpt lat="29.512272" lon="100.248158">
<time>2015-08-06T05:57:52Z</time></trkpt>
<trkpt lat="29.512462" lon="100.247858">
<time>2015-08-06T05:57:53Z</time></trkpt>
<trkpt lat="29.512742" lon="100.247458">
<time>2015-08-06T05:57:54Z</time></trkpt>
<trkpt lat="29.512902" lon="100.247248">
<time>2015-08-06T05:57:55Z</time></trkpt>
<trkpt lat="29.513352" lon="100.246788">
<time>2015-08-06T05:57:56Z</time></trkpt>
<trkpt lat="29.513492" lon="100.246618">
<time>2015-08-06T05:57:57Z</time></trkpt>
<trkpt lat="29.513522" lon="100.246578">
<time>2015-08-06T05:57:58Z</time></trkpt>
<trkpt lat="29.513542" lon="100.246528">
<time>2015-08-06T05:57:59Z</time></trkpt>
<trkpt lat="29.513552" lon="100.246488">
<time>2015-08-06T05:58:00Z</time></trkpt>
<trkpt lat="29.513552" lon="100.246458">
<time>2015-08-06T05:58:01Z</time></trkpt>
<trkpt lat="29.513552" lon="100.246428">
<time>2015-08-06T05:58:02Z</time></trkpt>
<trkpt lat="29.513542" lon="100.246398">
<time>2015-08-06T05:58:03Z</time></trkpt>
<trkpt lat="29.513522" lon="100.246368">
<time>2015-08-06T05:58:04Z</time></trkpt>
<trkpt lat="29.513502" lon="100.246348">
<time>2015-08-06T05:58:05Z</time></trkpt>
<trkpt lat="29.513472" lon="100.246328">
<time>2015-08-06T05:58:06Z</time></trkpt>
<trkpt lat="29.513442" lon="100.246318">
<time>2015-08-06T05:58:07Z</time></trkpt>
<trkpt lat="29.513412" lon="100.246308">
<time>2015-08-06T05:58:08Z</time></trkpt>
<trkpt lat="29.513382" lon="100.246308">
<time>2015-08-06T05:58:09Z</time></trkpt>
<trkpt lat="29.513332" lon="100.246308">
<time>2015-08-06T05:58:10Z</time></trkpt>
<trkpt lat="29.513252" lon="100.246318">
<time>2015-08-06T05:58:11Z</time></trkpt>
<trkpt lat="29.513032" lon="100.246358">
<time>2015-08-06T05:58:12Z</time></trkpt>
<trkpt lat="29.512322" lon="100.246508">
<time>2015-08-06T05:58:13Z</time></trkpt>
<trkpt lat="29.511992" lon="100.246618">
<time>2015-08-06T05:58:14Z</time></trkpt>
<trkpt lat="29.511832" lon="100.246678">
<time>2015-08-06T05:58:15Z</time></trkpt>
<trkpt lat="29.511663" lon="100.246758">
<time>2015-08-06T05:58:16Z</time></trkpt>
<trkpt lat="29.511533" lon="100.246838">
<time>2015-08-06T05:58:17Z</time></trkpt>
<trkpt lat="29.511433" lon="100.246918">
<time>2015-08-06T05:58:18Z</time></trkpt>
<trkpt lat="29.511143" lon="100.247138">
<time>2015-08-06T05:58:19Z</time></trkpt>
<trkpt lat="29.511023" lon="100.247218">
<time>2015-08-06T05:58:20Z</time></trkpt>
<trkpt lat="29.510913" lon="100.247258">
<time>2015-08-06T05:58:21Z</time></trkpt>
<trkpt lat="29.510793" lon="100.247298">
<time>2015-08-06T05:58:22Z</time></trkpt>
<trkpt lat="29.510633" lon="100.247328">
<time>2015-08-06T05:58:23Z</time></trkpt>
<trkpt lat="29.510303" lon="100.247378">
<time>2015-08-06T05:58:24Z</time></trkpt>
<trkpt lat="29.510213" lon="100.247388">
<time>2015-08-06T05:58:25Z</time></trkpt>
<trkpt lat="29.510133" lon="100.247398">
<time>2015-08-06T05:58:26Z</time></trkpt>
<trkpt lat="29.510053" lon="100.247388">
<time>2015-08-06T05:58:27Z</time></trkpt>
<trkpt lat="29.509983" lon="100.247378">
<time>2015-08-06T05:58:28Z</time></trkpt>
<trkpt lat="29.509903" lon="100.247358">
<time>2015-08-06T05:58:29Z</time></trkpt>
<trkpt lat="29.509823" lon="100.247328">
<time>2015-08-06T05:58:30Z</time></trkpt>
<trkpt lat="29.509753" lon="100.247288">
<time>2015-08-06T05:58:31Z</time></trkpt>
<trkpt lat="29.509683" lon="100.247238">
<time>2015-08-06T05:58:32Z</time></trkpt>
<trkpt lat="29.509573" lon="100.247128">
<time>2015-08-06T05:58:33Z</time></trkpt>
<trkpt lat="29.508974" lon="100.246438">
<time>2015-08-06T05:58:34Z</time></trkpt>
<trkpt lat="29.507744" lon="100.245058">
<time>2015-08-06T05:58:35Z</time></trkpt>
<trkpt lat="29.506724" lon="100.243918">
<time>2015-08-06T05:58:36Z</time></trkpt>
<trkpt lat="29.506474" lon="100.243638">
<time>2015-08-06T05:58:37Z</time></trkpt>
<trkpt lat="29.506044" lon="100.243098">
<time>2015-08-06T05:58:38Z</time></trkpt>
<trkpt lat="29.505944" lon="100.242988">
<time>2015-08-06T05:58:39Z</time></trkpt>
<trkpt lat="29.505864" lon="100.242908">
<time>2015-08-06T05:58:40Z</time></trkpt>
<trkpt lat="29.505784" lon="100.242858">
<time>2015-08-06T05:58:41Z</time></trkpt>
<trkpt lat="29.505705" lon="100.242818">
<time>2015-08-06T05:58:42Z</time></trkpt>
<trkpt lat="29.505595" lon="100.242768">
<time>2015-08-06T05:58:43Z</time></trkpt>
<trkpt lat="29.505455" lon="100.242738">
<time>2015-08-06T05:58:44Z</time></trkpt>
<trkpt lat="29.504095" lon="100.242698">
<time>2015-08-06T05:58:45Z</time></trkpt>
<trkpt lat="29.502706" lon="100.242658">
<time>2015-08-06T05:58:46Z</time></trkpt>
<trkpt lat="29.501036" lon="100.242598">
<time>2015-08-06T05:58:47Z</time></trkpt>
<trkpt lat="29.500037" lon="100.242568">
<time>2015-08-06T05:58:48Z</time></trkpt>
<trkpt lat="29.499987" lon="100.242558">
<time>2015-08-06T05:58:49Z</time></trkpt>
<trkpt lat="29.499757" lon="100.242558">
<time>2015-08-06T05:58:50Z</time></trkpt>
<trkpt lat="29.499687" lon="100.242558">
<time>2015-08-06T05:58:51Z</time></trkpt>
<trkpt lat="29.499647" lon="100.242558">
<time>2015-08-06T05:58:52Z</time></trkpt>
<trkpt lat="29.499607" lon="100.242558">
<time>2015-08-06T05:58:53Z</time></trkpt>
<trkpt lat="29.499577" lon="100.242558">
<time>2015-08-06T05:58:54Z</time></trkpt>
<trkpt lat="29.499537" lon="100.242568">
<time>2015-08-06T05:58:55Z</time></trkpt>
<trkpt lat="29.499487" lon="100.242578">
<time>2015-08-06T05:58:56Z</time></trkpt>
<trkpt lat="29.499407" lon="100.242608">
<time>2015-08-06T05:58:57Z</time></trkpt>
<trkpt lat="29.499227" lon="100.242678">
<time>2015-08-06T05:58:58Z</time></trkpt>
<trkpt lat="29.498817" lon="100.242888">
<time>2015-08-06T05:58:59Z</time></trkpt>
<trkpt lat="29.497778" lon="100.243648">
<time>2015-08-06T05:59:00Z</time></trkpt>
<trkpt lat="29.497078" lon="100.244128">
<time>2015-08-06T05:59:01Z</time></trkpt>
<trkpt lat="29.496869" lon="100.244268">
<time>2015-08-06T05:59:02Z</time></trkpt>
<trkpt lat="29.496799" lon="100.244308">
<time>2015-08-06T05:59:03Z</time></trkpt>
<trkpt lat="29.496729" lon="100.244348">
<time>2015-08-06T05:59:04Z</time></trkpt>
<trkpt lat="29.496649" lon="100.244388">
<time>2015-08-06T05:59:05Z</time></trkpt>
<trkpt lat="29.496589" lon="100.244408">
<time>2015-08-06T05:59:06Z</time></trkpt>
<trkpt lat="29.496499" lon="100.244438">
<time>2015-08-06T05:59:07Z</time></trkpt>
<trkpt lat="29.496399" lon="100.244458">
<time>2015-08-06T05:59:08Z</time></trkpt>
<trkpt lat="29.496159" lon="100.244488">
<time>2015-08-06T05:59:09Z</time></trkpt>
<trkpt lat="29.496079" lon="100.244498">
<time>2015-08-06T05:59:10Z</time></trkpt>
<trkpt lat="29.495959" lon="100.244528">
<time>2015-08-06T05:59:11Z</time></trkpt>
<trkpt lat="29.495859" lon="100.244558">
<time>2015-08-06T05:59:12Z</time></trkpt>
<trkpt lat="29.495599" lon="100.244638">
<time>2015-08-06T05:59:13Z</time></trkpt>
<trkpt lat="29.495029" lon="100.244808">
<time>2015-08-06T05:59:14Z</time></trkpt>
<trkpt lat="29.494939" lon="100.244838">
<time>2015-08-06T05:59:15Z</time></trkpt>
<trkpt lat="29.49483" lon="100.244868">
<time>2015-08-06T05:59:16Z</time></trkpt>
<trkpt lat="29.49474" lon="100.244878">
<time>2015-08-06T05:59:17Z</time></trkpt>
<trkpt lat="29.49467" lon="100.244888">
<time>2015-08-06T05:59:18Z</time></trkpt>
<trkpt lat="29.49459" lon="100.244898">
<time>2015-08-06T05:59:19Z</time></trkpt>
<trkpt lat="29.49399" lon="100.244899">
<time>2015-08-06T05:59:20Z</time></trkpt>
<trkpt lat="29.49383" lon="100.244909">
<time>2015-08-06T05:59:21Z</time></trkpt>
<trkpt lat="29.49371" lon="100.244929">
<time>2015-08-06T05:59:22Z</time></trkpt>
<trkpt lat="29.49347" lon="100.244959">
<time>2015-08-06T05:59:23Z</time></trkpt>
<trkpt lat="29.49296" lon="100.245049">
<time>2015-08-06T05:59:24Z</time></trkpt>
<trkpt lat="29.492601" lon="100.245109">
<time>2015-08-06T05:59:25Z</time></trkpt>
<trkpt lat="29.492561" lon="100.245119">
<time>2015-08-06T05:59:26Z</time></trkpt>
<trkpt lat="29.492511" lon="100.245119">
<time>2015-08-06T05:59:27Z</time></trkpt>
<trkpt lat="29.492471" lon="100.245119">
<time>2015-08-06T05:59:28Z</time></trkpt>
<trkpt lat="29.492431" lon="100.245119">
<time>2015-08-06T05:59:29Z</time></trkpt>
<trkpt lat="29.492381" lon="100.245109">
<time>2015-08-06T05:59:30Z</time></trkpt>
<trkpt lat="29.492341" lon="100.245089">
<time>2015-08-06T05:59:31Z</time></trkpt>
<trkpt lat="29.492301" lon="100.245059">
<time>2015-08-06T05:59:32Z</time></trkpt>
<trkpt lat="29.492271" lon="100.245009">
<time>2015-08-06T05:59:33Z</time></trkpt>
<trkpt lat="29.492241" lon="100.244949">
<time>2015-08-06T05:59:34Z</time></trkpt>
<trkpt lat="29.492221" lon="100.244889">
<time>2015-08-06T05:59:35Z</time></trkpt>
<trkpt lat="29.492211" lon="100.244789">
<time>2015-08-06T05:59:36Z</time></trkpt>
<trkpt lat="29.492231" lon="100.244459">
<time>2015-08-06T05:59:37Z</time></trkpt>
<trkpt lat="29.492231" lon="100.244378">
<time>2015-08-06T05:59:38Z</time></trkpt>
<trkpt lat="29.492221" lon="100.244298">
<time>2015-08-06T05:59:39Z</time></trkpt>
<trkpt lat="29.492211" lon="100.244238">
<time>2015-08-06T05:59:40Z</time></trkpt>
<trkpt lat="29.492191" lon="100.244158">
<time>2015-08-06T05:59:41Z</time></trkpt>
<trkpt lat="29.492171" lon="100.244078">
<time>2015-08-06T05:59:42Z</time></trkpt>
<trkpt lat="29.492141" lon="100.244018">
<time>2015-08-06T05:59:43Z</time></trkpt>
<trkpt lat="29.492121" lon="100.243958">
<time>2015-08-06T05:59:44Z</time></trkpt>
<trkpt lat="29.492071" lon="100.243868">
<time>2015-08-06T05:59:45Z</time></trkpt>
<trkpt lat="29.492031" lon="100.243778">
<time>2015-08-06T05:59:46Z</time></trkpt>
<trkpt lat="29.491981" lon="100.243688">
<time>2015-08-06T05:59:47Z</time></trkpt>
<trkpt lat="29.491851" lon="100.243478">
<time>2015-08-06T05:59:48Z</time></trkpt>
<trkpt lat="29.491751" lon="100.243298">
<time>2015-08-06T05:59:49Z</time></trkpt>
<trkpt lat="29.491701" lon="100.243208">
<time>2015-08-06T05:59:50Z</time></trkpt>
<trkpt lat="29.491661" lon="100.243128">
<time>2015-08-06T05:59:51Z</time></trkpt>
<trkpt lat="29.491631" lon="100.243038">
<time>2015-08-06T05:59:52Z</time></trkpt>
<trkpt lat="29.491601" lon="100.242898">
<time>2015-08-06T05:59:53Z</time></trkpt>
<trkpt lat="29.491591" lon="100.242788">
<time>2015-08-06T05:59:54Z</time></trkpt>
<trkpt lat="29.491581" lon="100.242668">
<time>2015-08-06T05:59:55Z</time></trkpt>
<trkpt lat="29.491561" lon="100.242578">
<time>2015-08-06T05:59:56Z</time></trkpt>
<trkpt lat="29.491541" lon="100.242488">
<time>2015-08-06T05:59:57Z</time></trkpt>
<trkpt lat="29.49151" lon="100.242378">
<time>2015-08-06T05:59:58Z</time></trkpt>
<trkpt lat="29.49148" lon="100.242298">
<time>2015-08-06T05:59:59Z</time></trkpt>
<trkpt lat="29.49144" lon="100.242228">
<time>2015-08-06T06:00:00Z</time></trkpt>
<trkpt lat="29.49137" lon="100.242138">
<time>2015-08-06T06:00:01Z</time></trkpt>
<trkpt lat="29.491121" lon="100.241838">
<time>2015-08-06T06:00:02Z</time></trkpt>
<trkpt lat="29.491001" lon="100.241708">
<time>2015-08-06T06:00:03Z</time></trkpt>
<trkpt lat="29.490931" lon="100.241628">
<time>2015-08-06T06:00:04Z</time></trkpt>
<trkpt lat="29.490881" lon="100.241598">
<time>2015-08-06T06:00:05Z</time></trkpt>
<trkpt lat="29.490821" lon="100.241568">
<time>2015-08-06T06:00:06Z</time></trkpt>
<trkpt lat="29.490761" lon="100.241548">
<time>2015-08-06T06:00:07Z</time></trkpt>
<trkpt lat="29.490681" lon="100.241538">
<time>2015-08-06T06:00:08Z</time></trkpt>
<trkpt lat="29.490471" lon="100.241508">
<time>2015-08-06T06:00:09Z</time></trkpt>
<trkpt lat="29.490371" lon="100.241488">
<time>2015-08-06T06:00:10Z</time></trkpt>
<trkpt lat="29.490281" lon="100.241458">
<time>2015-08-06T06:00:11Z</time></trkpt>
<trkpt lat="29.490101" lon="100.241388">
<time>2015-08-06T06:00:12Z</time></trkpt>
<trkpt lat="29.489561" lon="100.241078">
<time>2015-08-06T06:00:13Z</time></trkpt>
<trkpt lat="29.489451" lon="100.241018">
<time>2015-08-06T06:00:14Z</time></trkpt>
<trkpt lat="29.489381" lon="100.240988">
<time>2015-08-06T06:00:15Z</time></trkpt>
<trkpt lat="29.489311" lon="100.240958">
<time>2015-08-06T06:00:16Z</time></trkpt>
<trkpt lat="29.489231" lon="100.240938">
<time>2015-08-06T06:00:17Z</time></trkpt>
<trkpt lat="29.489171" lon="100.240928">
<time>2015-08-06T06:00:18Z</time></trkpt>
<trkpt lat="29.489081" lon="100.240908">
<time>2015-08-06T06:00:19Z</time></trkpt>
<trkpt lat="29.488971" lon="100.240908">
<time>2015-08-06T06:00:20Z</time></trkpt>
<trkpt lat="29.488212" lon="100.240888">
<time>2015-08-06T06:00:21Z</time></trkpt>
<trkpt lat="29.488022" lon="100.240878">
<time>2015-08-06T06:00:22Z</time></trkpt>
<trkpt lat="29.487612" lon="100.240828">
<time>2015-08-06T06:00:23Z</time></trkpt>
<trkpt lat="29.486832" lon="100.240698">
<time>2015-08-06T06:00:24Z</time></trkpt>
<trkpt lat="29.486702" lon="100.240668">
<time>2015-08-06T06:00:25Z</time></trkpt>
<trkpt lat="29.486592" lon="100.240608">
<time>2015-08-06T06:00:26Z</time></trkpt>
<trkpt lat="29.486512" lon="100.240558">
<time>2015-08-06T06:00:27Z</time></trkpt>
<trkpt lat="29.486412" lon="100.240478">
<time>2015-08-06T06:00:28Z</time></trkpt>
<trkpt lat="29.486352" lon="100.240408">
<time>2015-08-06T06:00:29Z</time></trkpt>
<trkpt lat="29.486272" lon="100.240308">
<time>2015-08-06T06:00:30Z</time></trkpt>
<trkpt lat="29.486222" lon="100.240198">
<time>2015-08-06T06:00:31Z</time></trkpt>
<trkpt lat="29.486182" lon="100.240078">
<time>2015-08-06T06:00:32Z</time></trkpt>
<trkpt lat="29.486172" lon="100.239958">
<time>2015-08-06T06:00:33Z</time></trkpt>
<trkpt lat="29.486152" lon="100.239807">
<time>2015-08-06T06:00:34Z</time></trkpt>
<trkpt lat="29.486142" lon="100.239547">
<time>2015-08-06T06:00:35Z</time></trkpt>
<trkpt lat="29.486132" lon="100.239317">
<time>2015-08-06T06:00:36Z</time></trkpt>
<trkpt lat="29.486122" lon="100.239067">
<time>2015-08-06T06:00:37Z</time></trkpt>
<trkpt lat="29.486102" lon="100.238917">
<time>2015-08-06T06:00:38Z</time></trkpt>
<trkpt lat="29.486082" lon="100.238767">
<time>2015-08-06T06:00:39Z</time></trkpt>
<trkpt lat="29.486002" lon="100.238287">
<time>2015-08-06T06:00:40Z</time></trkpt>
<trkpt lat="29.485941" lon="100.237707">
<time>2015-08-06T06:00:41Z</time></trkpt>
<trkpt lat="29.485901" lon="100.236696">
<time>2015-08-06T06:00:42Z</time></trkpt>
<trkpt lat="29.486029" lon="100.232394">
<time>2015-08-06T06:00:43Z</time></trkpt>
<trkpt lat="29.486078" lon="100.231993">
<time>2015-08-06T06:00:44Z</time></trkpt>
<trkpt lat="29.486138" lon="100.231723">
<time>2015-08-06T06:00:45Z</time></trkpt>
<trkpt lat="29.486218" lon="100.231493">
<time>2015-08-06T06:00:46Z</time></trkpt>
<trkpt lat="29.486328" lon="100.231213">
<time>2015-08-06T06:00:47Z</time></trkpt>
<trkpt lat="29.486807" lon="100.230142">
<time>2015-08-06T06:00:48Z</time></trkpt>
<trkpt lat="29.487126" lon="100.229351">
<time>2015-08-06T06:00:49Z</time></trkpt>
<trkpt lat="29.487246" lon="100.228991">
<time>2015-08-06T06:00:50Z</time></trkpt>
<trkpt lat="29.487286" lon="100.228801">
<time>2015-08-06T06:00:51Z</time></trkpt>
<trkpt lat="29.487316" lon="100.228621">
<time>2015-08-06T06:00:52Z</time></trkpt>
<trkpt lat="29.487345" lon="100.228401">
<time>2015-08-06T06:00:53Z</time></trkpt>
<trkpt lat="29.487405" lon="100.22735">
<time>2015-08-06T06:00:54Z</time></trkpt>
<trkpt lat="29.487394" lon="100.22709">
<time>2015-08-06T06:00:55Z</time></trkpt>
<trkpt lat="29.487384" lon="100.226929">
<time>2015-08-06T06:00:56Z</time></trkpt>
<trkpt lat="29.487374" lon="100.226869">
<time>2015-08-06T06:00:57Z</time></trkpt>
<trkpt lat="29.487364" lon="100.226829">
<time>2015-08-06T06:00:58Z</time></trkpt>
<trkpt lat="29.487344" lon="100.226789">
<time>2015-08-06T06:00:59Z</time></trkpt>
<trkpt lat="29.487324" lon="100.226759">
<time>2015-08-06T06:01:00Z</time></trkpt>
<trkpt lat="29.487304" lon="100.226729">
<time>2015-08-06T06:01:01Z</time></trkpt>
<trkpt lat="29.487274" lon="100.226699">
<time>2015-08-06T06:01:02Z</time></trkpt>
<trkpt lat="29.487254" lon="100.226689">
<time>2015-08-06T06:01:03Z</time></trkpt>
<trkpt lat="29.487224" lon="100.226679">
<time>2015-08-06T06:01:04Z</time></trkpt>
<trkpt lat="29.487204" lon="100.226679">
<time>2015-08-06T06:01:05Z</time></trkpt>
<trkpt lat="29.487174" lon="100.226679">
<time>2015-08-06T06:01:06Z</time></trkpt>
<trkpt lat="29.487144" lon="100.226689">
<time>2015-08-06T06:01:07Z</time></trkpt>
<trkpt lat="29.487114" lon="100.226709">
<time>2015-08-06T06:01:08Z</time></trkpt>
<trkpt lat="29.487094" lon="100.226729">
<time>2015-08-06T06:01:09Z</time></trkpt>
<trkpt lat="29.487064" lon="100.226759">
<time>2015-08-06T06:01:10Z</time></trkpt>
<trkpt lat="29.486945" lon="100.226989">
<time>2015-08-06T06:01:11Z</time></trkpt>
<trkpt lat="29.486855" lon="100.22712">
<time>2015-08-06T06:01:12Z</time></trkpt>
<trkpt lat="29.486785" lon="100.22719">
<time>2015-08-06T06:01:13Z</time></trkpt>
<trkpt lat="29.486725" lon="100.22723">
<time>2015-08-06T06:01:14Z</time></trkpt>
<trkpt lat="29.486665" lon="100.22727">
<time>2015-08-06T06:01:15Z</time></trkpt>
<trkpt lat="29.486535" lon="100.22734">
<time>2015-08-06T06:01:16Z</time></trkpt>
<trkpt lat="29.486235" lon="100.22752">
<time>2015-08-06T06:01:17Z</time></trkpt>
<trkpt lat="29.484687" lon="100.228341">
<time>2015-08-06T06:01:18Z</time></trkpt>
<trkpt lat="29.484467" lon="100.228441">
<time>2015-08-06T06:01:19Z</time></trkpt>
<trkpt lat="29.484167" lon="100.228511">
<time>2015-08-06T06:01:20Z</time></trkpt>
<trkpt lat="29.483877" lon="100.228551">
<time>2015-08-06T06:01:21Z</time></trkpt>
<trkpt lat="29.483587" lon="100.228551">
<time>2015-08-06T06:01:22Z</time></trkpt>
<trkpt lat="29.483307" lon="100.228531">
<time>2015-08-06T06:01:23Z</time></trkpt>
<trkpt lat="29.482947" lon="100.228451">
<time>2015-08-06T06:01:24Z</time></trkpt>
<trkpt lat="29.482508" lon="100.228321">
<time>2015-08-06T06:01:25Z</time></trkpt>
<trkpt lat="29.482358" lon="100.228271">
<time>2015-08-06T06:01:26Z</time></trkpt>
<trkpt lat="29.482218" lon="100.228191">
<time>2015-08-06T06:01:27Z</time></trkpt>
<trkpt lat="29.482118" lon="100.228081">
<time>2015-08-06T06:01:28Z</time></trkpt>
<trkpt lat="29.482048" lon="100.22798">
<time>2015-08-06T06:01:29Z</time></trkpt>
<trkpt lat="29.481947" lon="100.22779">
<time>2015-08-06T06:01:30Z</time></trkpt>
<trkpt lat="29.481877" lon="100.22759">
<time>2015-08-06T06:01:31Z</time></trkpt>
<trkpt lat="29.481817" lon="100.22736">
<time>2015-08-06T06:01:32Z</time></trkpt>
<trkpt lat="29.481787" lon="100.22711">
<time>2015-08-06T06:01:33Z</time></trkpt>
<trkpt lat="29.481777" lon="100.226869">
<time>2015-08-06T06:01:34Z</time></trkpt>
<trkpt lat="29.481767" lon="100.226579">
<time>2015-08-06T06:01:35Z</time></trkpt>
<trkpt lat="29.481766" lon="100.226319">
<time>2015-08-06T06:01:36Z</time></trkpt>
<trkpt lat="29.481915" lon="100.224587">
<time>2015-08-06T06:01:37Z</time></trkpt>
<trkpt lat="29.482073" lon="100.222495">
<time>2015-08-06T06:01:38Z</time></trkpt>
<trkpt lat="29.482083" lon="100.222385">
<time>2015-08-06T06:01:39Z</time></trkpt>
<trkpt lat="29.482083" lon="100.222275">
<time>2015-08-06T06:01:40Z</time></trkpt>
<trkpt lat="29.482073" lon="100.222185">
<time>2015-08-06T06:01:41Z</time></trkpt>
<trkpt lat="29.482053" lon="100.222105">
<time>2015-08-06T06:01:42Z</time></trkpt>
<trkpt lat="29.482012" lon="100.222005">
<time>2015-08-06T06:01:43Z</time></trkpt>
<trkpt lat="29.481972" lon="100.221945">
<time>2015-08-06T06:01:44Z</time></trkpt>
<trkpt lat="29.481932" lon="100.221884">
<time>2015-08-06T06:01:45Z</time></trkpt>
<trkpt lat="29.481872" lon="100.221814">
<time>2015-08-06T06:01:46Z</time></trkpt>
<trkpt lat="29.481842" lon="100.221774">
<time>2015-08-06T06:01:47Z</time></trkpt>
<trkpt lat="29.481782" lon="100.221734">
<time>2015-08-06T06:01:48Z</time></trkpt>
<trkpt lat="29.481742" lon="100.221704">
<time>2015-08-06T06:01:49Z</time></trkpt>
<trkpt lat="29.481692" lon="100.221694">
<time>2015-08-06T06:01:50Z</time></trkpt>
<trkpt lat="29.481652" lon="100.221684">
<time>2015-08-06T06:01:51Z</time></trkpt>
<trkpt lat="29.481612" lon="100.221684">
<time>2015-08-06T06:01:52Z</time></trkpt>
<trkpt lat="29.481572" lon="100.221694">
<time>2015-08-06T06:01:53Z</time></trkpt>
<trkpt lat="29.481532" lon="100.221704">
<time>2015-08-06T06:01:54Z</time></trkpt>
<trkpt lat="29.481482" lon="100.221724">
<time>2015-08-06T06:01:55Z</time></trkpt>
<trkpt lat="29.481373" lon="100.221804">
<time>2015-08-06T06:01:56Z</time></trkpt>
<trkpt lat="29.480144" lon="100.222605">
<time>2015-08-06T06:01:57Z</time></trkpt>
<trkpt lat="29.479934" lon="100.222755">
<time>2015-08-06T06:01:58Z</time></trkpt>
<trkpt lat="29.479355" lon="100.223256">
<time>2015-08-06T06:01:59Z</time></trkpt>
<trkpt lat="29.479195" lon="100.223386">
<time>2015-08-06T06:02:00Z</time></trkpt>
<trkpt lat="29.478985" lon="100.223536">
<time>2015-08-06T06:02:01Z</time></trkpt>
<trkpt lat="29.478805" lon="100.223626">
<time>2015-08-06T06:02:02Z</time></trkpt>
<trkpt lat="29.478715" lon="100.223676">
<time>2015-08-06T06:02:03Z</time></trkpt>
<trkpt lat="29.478616" lon="100.223717">
<time>2015-08-06T06:02:04Z</time></trkpt>
<trkpt lat="29.478546" lon="100.223747">
<time>2015-08-06T06:02:05Z</time></trkpt>
<trkpt lat="29.478456" lon="100.223767">
<time>2015-08-06T06:02:06Z</time></trkpt>
<trkpt lat="29.478416" lon="100.223777">
<time>2015-08-06T06:02:07Z</time></trkpt>
<trkpt lat="29.478366" lon="100.223787">
<time>2015-08-06T06:02:08Z</time></trkpt>
<trkpt lat="29.478336" lon="100.223797">
<time>2015-08-06T06:02:09Z</time></trkpt>
<trkpt lat="29.478296" lon="100.223797">
<time>2015-08-06T06:02:10Z</time></trkpt>
<trkpt lat="29.478246" lon="100.223797">
<time>2015-08-06T06:02:11Z</time></trkpt>
<trkpt lat="29.478206" lon="100.223787">
<time>2015-08-06T06:02:12Z</time></trkpt>
<trkpt lat="29.478176" lon="100.223777">
<time>2015-08-06T06:02:13Z</time></trkpt>
<trkpt lat="29.478146" lon="100.223767">
<time>2015-08-06T06:02:14Z</time></trkpt>
<trkpt lat="29.478096" lon="100.223737">
<time>2015-08-06T06:02:15Z</time></trkpt>
<trkpt lat="29.478066" lon="100.223717">
<time>2015-08-06T06:02:16Z</time></trkpt>
<trkpt lat="29.478036" lon="100.223676">
<time>2015-08-06T06:02:17Z</time></trkpt>
<trkpt lat="29.477315" lon="100.222816">
<time>2015-08-06T06:02:18Z</time></trkpt>
<trkpt lat="29.475974" lon="100.221214">
<time>2015-08-06T06:02:19Z</time></trkpt>
<trkpt lat="29.475644" lon="100.220793">
<time>2015-08-06T06:02:20Z</time></trkpt>
<trkpt lat="29.475524" lon="100.220673">
<time>2015-08-06T06:02:21Z</time></trkpt>
<trkpt lat="29.475414" lon="100.220563">
<time>2015-08-06T06:02:22Z</time></trkpt>
<trkpt lat="29.475314" lon="100.220473">
<time>2015-08-06T06:02:23Z</time></trkpt>
<trkpt lat="29.475184" lon="100.220373">
<time>2015-08-06T06:02:24Z</time></trkpt>
<trkpt lat="29.475034" lon="100.220293">
<time>2015-08-06T06:02:25Z</time></trkpt>
<trkpt lat="29.474894" lon="100.220233">
<time>2015-08-06T06:02:26Z</time></trkpt>
<trkpt lat="29.474444" lon="100.220083">
<time>2015-08-06T06:02:27Z</time></trkpt>
<trkpt lat="29.474324" lon="100.220033">
<time>2015-08-06T06:02:28Z</time></trkpt>
<trkpt lat="29.474244" lon="100.219983">
<time>2015-08-06T06:02:29Z</time></trkpt>
<trkpt lat="29.474194" lon="100.219933">
<time>2015-08-06T06:02:30Z</time></trkpt>
<trkpt lat="29.474144" lon="100.219882">
<time>2015-08-06T06:02:31Z</time></trkpt>
<trkpt lat="29.474094" lon="100.219812">
<time>2015-08-06T06:02:32Z</time></trkpt>
<trkpt lat="29.473984" lon="100.219672">
<time>2015-08-06T06:02:33Z</time></trkpt>
<trkpt lat="29.473884" lon="100.219522">
<time>2015-08-06T06:02:34Z</time></trkpt>
<trkpt lat="29.473824" lon="100.219382">
<time>2015-08-06T06:02:35Z</time></trkpt>
<trkpt lat="29.473733" lon="100.219192">
<time>2015-08-06T06:02:36Z</time></trkpt>
<trkpt lat="29.473633" lon="100.218941">
<time>2015-08-06T06:02:37Z</time></trkpt>
<trkpt lat="29.473543" lon="100.218711">
<time>2015-08-06T06:02:38Z</time></trkpt>
<trkpt lat="29.473513" lon="100.218601">
<time>2015-08-06T06:02:39Z</time></trkpt>
<trkpt lat="29.473483" lon="100.218521">
<time>2015-08-06T06:02:40Z</time></trkpt>
<trkpt lat="29.473463" lon="100.218411">
<time>2015-08-06T06:02:41Z</time></trkpt>
<trkpt lat="29.473422" lon="100.21821">
<time>2015-08-06T06:02:42Z</time></trkpt>
<trkpt lat="29.473402" lon="100.21803">
<time>2015-08-06T06:02:43Z</time></trkpt>
<trkpt lat="29.473382" lon="100.21773">
<time>2015-08-06T06:02:44Z</time></trkpt>
<trkpt lat="29.473301" lon="100.216618">
<time>2015-08-06T06:02:45Z</time></trkpt>
<trkpt lat="29.473006" lon="100.212523">
<time>2015-08-06T06:02:46Z</time></trkpt>
<trkpt lat="29.472935" lon="100.211481">
<time>2015-08-06T06:02:47Z</time></trkpt>
<trkpt lat="29.472884" lon="100.210921">
<time>2015-08-06T06:02:48Z</time></trkpt>
<trkpt lat="29.472864" lon="100.21078">
<time>2015-08-06T06:02:49Z</time></trkpt>
<trkpt lat="29.472844" lon="100.2107">
<time>2015-08-06T06:02:50Z</time></trkpt>
<trkpt lat="29.472814" lon="100.21062">
<time>2015-08-06T06:02:51Z</time></trkpt>
<trkpt lat="29.472784" lon="100.21056">
<time>2015-08-06T06:02:52Z</time></trkpt>
<trkpt lat="29.472744" lon="100.2105">
<time>2015-08-06T06:02:53Z</time></trkpt>
<trkpt lat="29.472694" lon="100.21044">
<time>2015-08-06T06:02:54Z</time></trkpt>
<trkpt lat="29.472663" lon="100.2104">
<time>2015-08-06T06:02:55Z</time></trkpt>
<trkpt lat="29.472623" lon="100.21036">
<time>2015-08-06T06:02:56Z</time></trkpt>
<trkpt lat="29.472563" lon="100.21032">
<time>2015-08-06T06:02:57Z</time></trkpt>
<trkpt lat="29.472483" lon="100.21028">
<time>2015-08-06T06:02:58Z</time></trkpt>
<trkpt lat="29.472423" lon="100.21026">
<time>2015-08-06T06:02:59Z</time></trkpt>
<trkpt lat="29.472313" lon="100.21023">
<time>2015-08-06T06:03:00Z</time></trkpt>
<trkpt lat="29.471674" lon="100.21015">
<time>2015-08-06T06:03:01Z</time></trkpt>
<trkpt lat="29.471474" lon="100.210139">
<time>2015-08-06T06:03:02Z</time></trkpt>
<trkpt lat="29.471284" lon="100.210119">
<time>2015-08-06T06:03:03Z</time></trkpt>
<trkpt lat="29.471194" lon="100.210089">
<time>2015-08-06T06:03:04Z</time></trkpt>
<trkpt lat="29.471154" lon="100.210079">
<time>2015-08-06T06:03:05Z</time></trkpt>
<trkpt lat="29.471114" lon="100.210069">
<time>2015-08-06T06:03:06Z</time></trkpt>
<trkpt lat="29.471084" lon="100.210049">
<time>2015-08-06T06:03:07Z</time></trkpt>
<trkpt lat="29.471044" lon="100.210019">
<time>2015-08-06T06:03:08Z</time></trkpt>
<trkpt lat="29.471014" lon="100.209989">
<time>2015-08-06T06:03:09Z</time></trkpt>
<trkpt lat="29.470974" lon="100.209949">
<time>2015-08-06T06:03:10Z</time></trkpt>
<trkpt lat="29.470934" lon="100.209899">
<time>2015-08-06T06:03:11Z</time></trkpt>
<trkpt lat="29.470894" lon="100.209819">
<time>2015-08-06T06:03:12Z</time></trkpt>
<trkpt lat="29.470793" lon="100.209579">
<time>2015-08-06T06:03:13Z</time></trkpt>
<trkpt lat="29.470733" lon="100.209468">
<time>2015-08-06T06:03:14Z</time></trkpt>
<trkpt lat="29.470693" lon="100.209398">
<time>2015-08-06T06:03:15Z</time></trkpt>
<trkpt lat="29.470653" lon="100.209348">
<time>2015-08-06T06:03:16Z</time></trkpt>
<trkpt lat="29.470613" lon="100.209308">
<time>2015-08-06T06:03:17Z</time></trkpt>
<trkpt lat="29.470563" lon="100.209248">
<time>2015-08-06T06:03:18Z</time></trkpt>
<trkpt lat="29.470493" lon="100.209188">
<time>2015-08-06T06:03:19Z</time></trkpt>
<trkpt lat="29.470423" lon="100.209118">
<time>2015-08-06T06:03:20Z</time></trkpt>
<trkpt lat="29.470283" lon="100.208998">
<time>2015-08-06T06:03:21Z</time></trkpt>
<trkpt lat="29.470133" lon="100.208878">
<time>2015-08-06T06:03:22Z</time></trkpt>
<trkpt lat="29.470063" lon="100.208828">
<time>2015-08-06T06:03:23Z</time></trkpt>
<trkpt lat="29.469943" lon="100.208757">
<time>2015-08-06T06:03:24Z</time></trkpt>
<trkpt lat="29.469843" lon="100.208707">
<time>2015-08-06T06:03:25Z</time></trkpt>
<trkpt lat="29.469713" lon="100.208657">
<time>2015-08-06T06:03:26Z</time></trkpt>
<trkpt lat="29.469513" lon="100.208597">
<time>2015-08-06T06:03:27Z</time></trkpt>
<trkpt lat="29.469113" lon="100.208507">
<time>2015-08-06T06:03:28Z</time></trkpt>
<trkpt lat="29.468993" lon="100.208477">
<time>2015-08-06T06:03:29Z</time></trkpt>
<trkpt lat="29.468923" lon="100.208447">
<time>2015-08-06T06:03:30Z</time></trkpt>
<trkpt lat="29.468863" lon="100.208417">
<time>2015-08-06T06:03:31Z</time></trkpt>
<trkpt lat="29.468813" lon="100.208377">
<time>2015-08-06T06:03:32Z</time></trkpt>
<trkpt lat="29.468763" lon="100.208327">
<time>2015-08-06T06:03:33Z</time></trkpt>
<trkpt lat="29.468712" lon="100.208267">
<time>2015-08-06T06:03:34Z</time></trkpt>
<trkpt lat="29.468672" lon="100.208207">
<time>2015-08-06T06:03:35Z</time></trkpt>
<trkpt lat="29.468652" lon="100.208157">
<time>2015-08-06T06:03:36Z</time></trkpt>
<trkpt lat="29.468602" lon="100.208046">
<time>2015-08-06T06:03:37Z</time></trkpt>
<trkpt lat="29.468402" lon="100.207596">
<time>2015-08-06T06:03:38Z</time></trkpt>
<trkpt lat="29.468342" lon="100.207496">
<time>2015-08-06T06:03:39Z</time></trkpt>
<trkpt lat="29.468291" lon="100.207415">
<time>2015-08-06T06:03:40Z</time></trkpt>
<trkpt lat="29.468221" lon="100.207325">
<time>2015-08-06T06:03:41Z</time></trkpt>
<trkpt lat="29.468151" lon="100.207255">
<time>2015-08-06T06:03:42Z</time></trkpt>
<trkpt lat="29.468061" lon="100.207155">
<time>2015-08-06T06:03:43Z</time></trkpt>
<trkpt lat="29.468001" lon="100.207095">
<time>2015-08-06T06:03:44Z</time></trkpt>
<trkpt lat="29.467961" lon="100.207065">
<time>2015-08-06T06:03:45Z</time></trkpt>
<trkpt lat="29.467921" lon="100.207035">
<time>2015-08-06T06:03:46Z</time></trkpt>
<trkpt lat="29.467871" lon="100.207015">
<time>2015-08-06T06:03:47Z</time></trkpt>
<trkpt lat="29.467831" lon="100.207005">
<time>2015-08-06T06:03:48Z</time></trkpt>
<trkpt lat="29.467791" lon="100.206995">
<time>2015-08-06T06:03:49Z</time></trkpt>
<trkpt lat="29.467751" lon="100.206995">
<time>2015-08-06T06:03:50Z</time></trkpt>
<trkpt lat="29.467711" lon="100.207005">
<time>2015-08-06T06:03:51Z</time></trkpt>
<trkpt lat="29.467671" lon="100.207015">
<time>2015-08-06T06:03:52Z</time></trkpt>
<trkpt lat="29.467611" lon="100.207035">
<time>2015-08-06T06:03:53Z</time></trkpt>
<trkpt lat="29.467421" lon="100.207115">
<time>2015-08-06T06:03:54Z</time></trkpt>
<trkpt lat="29.467372" lon="100.207125">
<time>2015-08-06T06:03:55Z</time></trkpt>
<trkpt lat="29.467322" lon="100.207145">
<time>2015-08-06T06:03:56Z</time></trkpt>
<trkpt lat="29.467272" lon="100.207155">
<time>2015-08-06T06:03:57Z</time></trkpt>
<trkpt lat="29.467222" lon="100.207155">
<time>2015-08-06T06:03:58Z</time></trkpt>
<trkpt lat="29.467172" lon="100.207165">
<time>2015-08-06T06:03:59Z</time></trkpt>
<trkpt lat="29.467142" lon="100.207165">
<time>2015-08-06T06:04:00Z</time></trkpt>
<trkpt lat="29.467102" lon="100.207155">
<time>2015-08-06T06:04:01Z</time></trkpt>
<trkpt lat="29.467062" lon="100.207145">
<time>2015-08-06T06:04:02Z</time></trkpt>
<trkpt lat="29.467022" lon="100.207135">
<time>2015-08-06T06:04:03Z</time></trkpt>
<trkpt lat="29.466982" lon="100.207125">
<time>2015-08-06T06:04:04Z</time></trkpt>
<trkpt lat="29.466942" lon="100.207105">
<time>2015-08-06T06:04:05Z</time></trkpt>
<trkpt lat="29.466912" lon="100.207085">
<time>2015-08-06T06:04:06Z</time></trkpt>
<trkpt lat="29.466852" lon="100.207035">
<time>2015-08-06T06:04:07Z</time></trkpt>
<trkpt lat="29.466792" lon="100.206975">
<time>2015-08-06T06:04:08Z</time></trkpt>
<trkpt lat="29.466672" lon="100.206875">
<time>2015-08-06T06:04:09Z</time></trkpt>
<trkpt lat="29.466631" lon="100.206834">
<time>2015-08-06T06:04:10Z</time></trkpt>
<trkpt lat="29.466601" lon="100.206804">
<time>2015-08-06T06:04:11Z</time></trkpt>
<trkpt lat="29.466541" lon="100.206774">
<time>2015-08-06T06:04:12Z</time></trkpt>
<trkpt lat="29.466501" lon="100.206754">
<time>2015-08-06T06:04:13Z</time></trkpt>
<trkpt lat="29.466461" lon="100.206744">
<time>2015-08-06T06:04:14Z</time></trkpt>
<trkpt lat="29.466411" lon="100.206734">
<time>2015-08-06T06:04:15Z</time></trkpt>
<trkpt lat="29.466371" lon="100.206734">
<time>2015-08-06T06:04:16Z</time></trkpt>
<trkpt lat="29.466321" lon="100.206734">
<time>2015-08-06T06:04:17Z</time></trkpt>
<trkpt lat="29.466282" lon="100.206754">
<time>2015-08-06T06:04:18Z</time></trkpt>
<trkpt lat="29.466252" lon="100.206774">
<time>2015-08-06T06:04:19Z</time></trkpt>
<trkpt lat="29.466202" lon="100.206814">
<time>2015-08-06T06:04:20Z</time></trkpt>
<trkpt lat="29.466142" lon="100.206865">
<time>2015-08-06T06:04:21Z</time></trkpt>
<trkpt lat="29.466092" lon="100.206925">
<time>2015-08-06T06:04:22Z</time></trkpt>
<trkpt lat="29.466032" lon="100.206995">
<time>2015-08-06T06:04:23Z</time></trkpt>
<trkpt lat="29.465832" lon="100.207295">
<time>2015-08-06T06:04:24Z</time></trkpt>
<trkpt lat="29.465773" lon="100.207355">
<time>2015-08-06T06:04:25Z</time></trkpt>
<trkpt lat="29.465703" lon="100.207435">
<time>2015-08-06T06:04:26Z</time></trkpt>
<trkpt lat="29.465633" lon="100.207506">
<time>2015-08-06T06:04:27Z</time></trkpt>
<trkpt lat="29.465543" lon="100.207596">
<time>2015-08-06T06:04:28Z</time></trkpt>
<trkpt lat="29.465483" lon="100.207626">
<time>2015-08-06T06:04:29Z</time></trkpt>
<trkpt lat="29.465423" lon="100.207666">
<time>2015-08-06T06:04:30Z</time></trkpt>
<trkpt lat="29.465323" lon="100.207716">
<time>2015-08-06T06:04:31Z</time></trkpt>
<trkpt lat="29.465223" lon="100.207746">
<time>2015-08-06T06:04:32Z</time></trkpt>
<trkpt lat="29.465093" lon="100.207766">
<time>2015-08-06T06:04:33Z</time></trkpt>
<trkpt lat="29.464904" lon="100.207786">
<time>2015-08-06T06:04:34Z</time></trkpt>
<trkpt lat="29.464834" lon="100.207786">
<time>2015-08-06T06:04:35Z</time></trkpt>
<trkpt lat="29.464764" lon="100.207776">
<time>2015-08-06T06:04:36Z</time></trkpt>
<trkpt lat="29.464694" lon="100.207746">
<time>2015-08-06T06:04:37Z</time></trkpt>
<trkpt lat="29.464624" lon="100.207706">
<time>2015-08-06T06:04:38Z</time></trkpt>
<trkpt lat="29.464574" lon="100.207656">
<time>2015-08-06T06:04:39Z</time></trkpt>
<trkpt lat="29.464534" lon="100.207596">
<time>2015-08-06T06:04:40Z</time></trkpt>
<trkpt lat="29.464493" lon="100.207526">
<time>2015-08-06T06:04:41Z</time></trkpt>
<trkpt lat="29.464463" lon="100.207446">
<time>2015-08-06T06:04:42Z</time></trkpt>
<trkpt lat="29.464443" lon="100.207355">
<time>2015-08-06T06:04:43Z</time></trkpt>
<trkpt lat="29.464423" lon="100.207215">
<time>2015-08-06T06:04:44Z</time></trkpt>
<trkpt lat="29.464413" lon="100.207065">
<time>2015-08-06T06:04:45Z</time></trkpt>
<trkpt lat="29.464391" lon="100.205733">
<time>2015-08-06T06:04:46Z</time></trkpt>
<trkpt lat="29.464379" lon="100.204641">
<time>2015-08-06T06:04:47Z</time></trkpt>
<trkpt lat="29.464369" lon="100.204471">
<time>2015-08-06T06:04:48Z</time></trkpt>
<trkpt lat="29.464359" lon="100.20434">
<time>2015-08-06T06:04:49Z</time></trkpt>
<trkpt lat="29.464339" lon="100.20422">
<time>2015-08-06T06:04:50Z</time></trkpt>
<trkpt lat="29.464319" lon="100.20411">
<time>2015-08-06T06:04:51Z</time></trkpt>
<trkpt lat="29.464279" lon="100.20401">
<time>2015-08-06T06:04:52Z</time></trkpt>
<trkpt lat="29.464208" lon="100.20382">
<time>2015-08-06T06:04:53Z</time></trkpt>
<trkpt lat="29.464148" lon="100.203719">
<time>2015-08-06T06:04:54Z</time></trkpt>
<trkpt lat="29.464108" lon="100.203649">
<time>2015-08-06T06:04:55Z</time></trkpt>
<trkpt lat="29.464048" lon="100.203579">
<time>2015-08-06T06:04:56Z</time></trkpt>
<trkpt lat="29.464008" lon="100.203539">
<time>2015-08-06T06:04:57Z</time></trkpt>
<trkpt lat="29.463928" lon="100.203479">
<time>2015-08-06T06:04:58Z</time></trkpt>
<trkpt lat="29.463848" lon="100.203429">
<time>2015-08-06T06:04:59Z</time></trkpt>
<trkpt lat="29.463608" lon="100.203329">
<time>2015-08-06T06:05:00Z</time></trkpt>
<trkpt lat="29.463508" lon="100.203269">
<time>2015-08-06T06:05:01Z</time></trkpt>
<trkpt lat="29.463458" lon="100.203229">
<time>2015-08-06T06:05:02Z</time></trkpt>
<trkpt lat="29.463398" lon="100.203169">
<time>2015-08-06T06:05:03Z</time></trkpt>
<trkpt lat="29.463348" lon="100.203108">
<time>2015-08-06T06:05:04Z</time></trkpt>
<trkpt lat="29.463288" lon="100.203028">
<time>2015-08-06T06:05:05Z</time></trkpt>
<trkpt lat="29.463217" lon="100.202898">
<time>2015-08-06T06:05:06Z</time></trkpt>
<trkpt lat="29.462947" lon="100.202287">
<time>2015-08-06T06:05:07Z</time></trkpt>
<trkpt lat="29.462475" lon="100.201245">
<time>2015-08-06T06:05:08Z</time></trkpt>
<trkpt lat="29.462204" lon="100.200644">
<time>2015-08-06T06:05:09Z</time></trkpt>
<trkpt lat="29.462054" lon="100.200314">
<time>2015-08-06T06:05:10Z</time></trkpt>
<trkpt lat="29.462014" lon="100.200183">
<time>2015-08-06T06:05:11Z</time></trkpt>
<trkpt lat="29.461984" lon="100.200083">
<time>2015-08-06T06:05:12Z</time></trkpt>
<trkpt lat="29.461963" lon="100.199963">
<time>2015-08-06T06:05:13Z</time></trkpt>
<trkpt lat="29.461943" lon="100.199843">
<time>2015-08-06T06:05:14Z</time></trkpt>
<trkpt lat="29.461933" lon="100.199713">
<time>2015-08-06T06:05:15Z</time></trkpt>
<trkpt lat="29.461943" lon="100.199552">
<time>2015-08-06T06:05:16Z</time></trkpt>
<trkpt lat="29.461953" lon="100.199372">
<time>2015-08-06T06:05:17Z</time></trkpt>
<trkpt lat="29.462011" lon="100.19856">
<time>2015-08-06T06:05:18Z</time></trkpt>
<trkpt lat="29.462031" lon="100.19822">
<time>2015-08-06T06:05:19Z</time></trkpt>
<trkpt lat="29.462031" lon="100.19812">
<time>2015-08-06T06:05:20Z</time></trkpt>
<trkpt lat="29.46202" lon="100.198009">
<time>2015-08-06T06:05:21Z</time></trkpt>
<trkpt lat="29.46201" lon="100.197939">
<time>2015-08-06T06:05:22Z</time></trkpt>
<trkpt lat="29.46199" lon="100.197869">
<time>2015-08-06T06:05:23Z</time></trkpt>
<trkpt lat="29.46196" lon="100.197819">
<time>2015-08-06T06:05:24Z</time></trkpt>
<trkpt lat="29.46193" lon="100.197759">
<time>2015-08-06T06:05:25Z</time></trkpt>
<trkpt lat="29.46188" lon="100.197699">
<time>2015-08-06T06:05:26Z</time></trkpt>
<trkpt lat="29.46182" lon="100.197649">
<time>2015-08-06T06:05:27Z</time></trkpt>
<trkpt lat="29.46165" lon="100.197498">
<time>2015-08-06T06:05:28Z</time></trkpt>
<trkpt lat="29.46145" lon="100.197328">
<time>2015-08-06T06:05:29Z</time></trkpt>
<trkpt lat="29.461349" lon="100.197228">
<time>2015-08-06T06:05:30Z</time></trkpt>
<trkpt lat="29.461259" lon="100.197128">
<time>2015-08-06T06:05:31Z</time></trkpt>
<trkpt lat="29.461009" lon="100.196817">
<time>2015-08-06T06:05:32Z</time></trkpt>
<trkpt lat="29.460899" lon="100.196657">
<time>2015-08-06T06:05:33Z</time></trkpt>
<trkpt lat="29.460829" lon="100.196517">
<time>2015-08-06T06:05:34Z</time></trkpt>
<trkpt lat="29.460778" lon="100.196396">
<time>2015-08-06T06:05:35Z</time></trkpt>
<trkpt lat="29.460728" lon="100.196246">
<time>2015-08-06T06:05:36Z</time></trkpt>
<trkpt lat="29.460396" lon="100.195144">
<time>2015-08-06T06:05:37Z</time></trkpt>
<trkpt lat="29.460226" lon="100.194613">
<time>2015-08-06T06:05:38Z</time></trkpt>
<trkpt lat="29.460165" lon="100.194453">
<time>2015-08-06T06:05:39Z</time></trkpt>
<trkpt lat="29.460095" lon="100.194333">
<time>2015-08-06T06:05:40Z</time></trkpt>
<trkpt lat="29.460035" lon="100.194232">
<time>2015-08-06T06:05:41Z</time></trkpt>
<trkpt lat="29.459965" lon="100.194152">
<time>2015-08-06T06:05:42Z</time></trkpt>
<trkpt lat="29.459875" lon="100.194062">
<time>2015-08-06T06:05:43Z</time></trkpt>
<trkpt lat="29.459705" lon="100.193922">
<time>2015-08-06T06:05:44Z</time></trkpt>
<trkpt lat="29.458974" lon="100.193381">
<time>2015-08-06T06:05:45Z</time></trkpt>
<trkpt lat="29.457163" lon="100.192078">
<time>2015-08-06T06:05:46Z</time></trkpt>
<trkpt lat="29.457093" lon="100.192028">
<time>2015-08-06T06:05:47Z</time></trkpt>
<trkpt lat="29.457023" lon="100.191988">
<time>2015-08-06T06:05:48Z</time></trkpt>
<trkpt lat="29.456963" lon="100.191958">
<time>2015-08-06T06:05:49Z</time></trkpt>
<trkpt lat="29.456913" lon="100.191948">
<time>2015-08-06T06:05:50Z</time></trkpt>
<trkpt lat="29.456863" lon="100.191938">
<time>2015-08-06T06:05:51Z</time></trkpt>
<trkpt lat="29.456823" lon="100.191928">
<time>2015-08-06T06:05:52Z</time></trkpt>
<trkpt lat="29.456783" lon="100.191928">
<time>2015-08-06T06:05:53Z</time></trkpt>
<trkpt lat="29.456723" lon="100.191938">
<time>2015-08-06T06:05:54Z</time></trkpt>
<trkpt lat="29.456633" lon="100.191968">
<time>2015-08-06T06:05:55Z</time></trkpt>
<trkpt lat="29.456513" lon="100.191998">
<time>2015-08-06T06:05:56Z</time></trkpt>
<trkpt lat="29.456463" lon="100.192018">
<time>2015-08-06T06:05:57Z</time></trkpt>
<trkpt lat="29.456403" lon="100.192018">
<time>2015-08-06T06:05:58Z</time></trkpt>
<trkpt lat="29.456333" lon="100.192028">
<time>2015-08-06T06:05:59Z</time></trkpt>
<trkpt lat="29.456283" lon="100.192028">
<time>2015-08-06T06:06:00Z</time></trkpt>
<trkpt lat="29.456233" lon="100.192018">
<time>2015-08-06T06:06:01Z</time></trkpt>
<trkpt lat="29.456183" lon="100.192018">
<time>2015-08-06T06:06:02Z</time></trkpt>
<trkpt lat="29.456133" lon="100.191998">
<time>2015-08-06T06:06:03Z</time></trkpt>
<trkpt lat="29.456083" lon="100.191978">
<time>2015-08-06T06:06:04Z</time></trkpt>
<trkpt lat="29.455963" lon="100.191918">
<time>2015-08-06T06:06:05Z</time></trkpt>
<trkpt lat="29.455303" lon="100.191517">
<time>2015-08-06T06:06:06Z</time></trkpt>
<trkpt lat="29.455183" lon="100.191457">
<time>2015-08-06T06:06:07Z</time></trkpt>
<trkpt lat="29.455063" lon="100.191407">
<time>2015-08-06T06:06:08Z</time></trkpt>
<trkpt lat="29.454953" lon="100.191377">
<time>2015-08-06T06:06:09Z</time></trkpt>
<trkpt lat="29.454823" lon="100.191337">
<time>2015-08-06T06:06:10Z</time></trkpt>
<trkpt lat="29.454523" lon="100.191277">
<time>2015-08-06T06:06:11Z</time></trkpt>
<trkpt lat="29.454463" lon="100.191267">
<time>2015-08-06T06:06:12Z</time></trkpt>
<trkpt lat="29.454413" lon="100.191247">
<time>2015-08-06T06:06:13Z</time></trkpt>
<trkpt lat="29.454353" lon="100.191227">
<time>2015-08-06T06:06:14Z</time></trkpt>
<trkpt lat="29.454283" lon="100.191207">
<time>2015-08-06T06:06:15Z</time></trkpt>
<trkpt lat="29.454093" lon="100.191106">
<time>2015-08-06T06:06:16Z</time></trkpt>
<trkpt lat="29.453943" lon="100.191016">
<time>2015-08-06T06:06:17Z</time></trkpt>
<trkpt lat="29.453662" lon="100.190816">
<time>2015-08-06T06:06:18Z</time></trkpt>
<trkpt lat="29.453422" lon="100.190595">
<time>2015-08-06T06:06:19Z</time></trkpt>
<trkpt lat="29.453102" lon="100.190245">
<time>2015-08-06T06:06:20Z</time></trkpt>
<trkpt lat="29.452591" lon="100.189704">
<time>2015-08-06T06:06:21Z</time></trkpt>
<trkpt lat="29.452471" lon="100.189573">
<time>2015-08-06T06:06:22Z</time></trkpt>
<trkpt lat="29.452381" lon="100.189483">
<time>2015-08-06T06:06:23Z</time></trkpt>
<trkpt lat="29.452291" lon="100.189403">
<time>2015-08-06T06:06:24Z</time></trkpt>
<trkpt lat="29.452221" lon="100.189363">
<time>2015-08-06T06:06:25Z</time></trkpt>
<trkpt lat="29.452121" lon="100.189323">
<time>2015-08-06T06:06:26Z</time></trkpt>
<trkpt lat="29.452001" lon="100.189313">
<time>2015-08-06T06:06:27Z</time></trkpt>
<trkpt lat="29.451881" lon="100.189293">
<time>2015-08-06T06:06:28Z</time></trkpt>
<trkpt lat="29.451761" lon="100.189293">
<time>2015-08-06T06:06:29Z</time></trkpt>
<trkpt lat="29.451521" lon="100.189293">
<time>2015-08-06T06:06:30Z</time></trkpt>
<trkpt lat="29.451281" lon="100.189293">
<time>2015-08-06T06:06:31Z</time></trkpt>
<trkpt lat="29.451051" lon="100.189303">
<time>2015-08-06T06:06:32Z</time></trkpt>
<trkpt lat="29.450621" lon="100.189423">
<time>2015-08-06T06:06:33Z</time></trkpt>
<trkpt lat="29.450511" lon="100.189433">
<time>2015-08-06T06:06:34Z</time></trkpt>
<trkpt lat="29.450442" lon="100.189433">
<time>2015-08-06T06:06:35Z</time></trkpt>
<trkpt lat="29.450382" lon="100.189423">
<time>2015-08-06T06:06:36Z</time></trkpt>
<trkpt lat="29.450312" lon="100.189413">
<time>2015-08-06T06:06:37Z</time></trkpt>
<trkpt lat="29.450162" lon="100.189363">
<time>2015-08-06T06:06:38Z</time></trkpt>
<trkpt lat="29.450021" lon="100.189303">
<time>2015-08-06T06:06:39Z</time></trkpt>
<trkpt lat="29.449981" lon="100.189283">
<time>2015-08-06T06:06:40Z</time></trkpt>
<trkpt lat="29.449921" lon="100.189273">
<time>2015-08-06T06:06:41Z</time></trkpt>
<trkpt lat="29.449872" lon="100.189263">
<time>2015-08-06T06:06:42Z</time></trkpt>
<trkpt lat="29.449822" lon="100.189253">
<time>2015-08-06T06:06:43Z</time></trkpt>
<trkpt lat="29.449772" lon="100.189253">
<time>2015-08-06T06:06:44Z</time></trkpt>
<trkpt lat="29.449712" lon="100.189263">
<time>2015-08-06T06:06:45Z</time></trkpt>
<trkpt lat="29.449662" lon="100.189273">
<time>2015-08-06T06:06:46Z</time></trkpt>
<trkpt lat="29.449592" lon="100.189283">
<time>2015-08-06T06:06:47Z</time></trkpt>
<trkpt lat="29.449202" lon="100.189433">
<time>2015-08-06T06:06:48Z</time></trkpt>
<trkpt lat="29.449112" lon="100.189473">
<time>2015-08-06T06:06:49Z</time></trkpt>
<trkpt lat="29.449022" lon="100.189493">
<time>2015-08-06T06:06:50Z</time></trkpt>
<trkpt lat="29.448932" lon="100.189513">
<time>2015-08-06T06:06:51Z</time></trkpt>
<trkpt lat="29.448872" lon="100.189523">
<time>2015-08-06T06:06:52Z</time></trkpt>
<trkpt lat="29.448793" lon="100.189533">
<time>2015-08-06T06:06:53Z</time></trkpt>
<trkpt lat="29.448703" lon="100.189523">
<time>2015-08-06T06:06:54Z</time></trkpt>
<trkpt lat="29.448473" lon="100.189493">
<time>2015-08-06T06:06:55Z</time></trkpt>
<trkpt lat="29.448183" lon="100.189453">
<time>2015-08-06T06:06:56Z</time></trkpt>
<trkpt lat="29.448083" lon="100.189423">
<time>2015-08-06T06:06:57Z</time></trkpt>
<trkpt lat="29.447893" lon="100.189373">
<time>2015-08-06T06:06:58Z</time></trkpt>
<trkpt lat="29.447413" lon="100.189203">
<time>2015-08-06T06:06:59Z</time></trkpt>
<trkpt lat="29.447233" lon="100.189133">
<time>2015-08-06T06:07:00Z</time></trkpt>
<trkpt lat="29.446902" lon="100.188962">
<time>2015-08-06T06:07:01Z</time></trkpt>
<trkpt lat="29.446502" lon="100.188762">
<time>2015-08-06T06:07:02Z</time></trkpt>
<trkpt lat="29.446072" lon="100.188542">
<time>2015-08-06T06:07:03Z</time></trkpt>
<trkpt lat="29.445952" lon="100.188481">
<time>2015-08-06T06:07:04Z</time></trkpt>
<trkpt lat="29.445852" lon="100.188431">
<time>2015-08-06T06:07:05Z</time></trkpt>
<trkpt lat="29.445632" lon="100.188311">
<time>2015-08-06T06:07:06Z</time></trkpt>
<trkpt lat="29.445492" lon="100.188241">
<time>2015-08-06T06:07:07Z</time></trkpt>
<trkpt lat="29.445292" lon="100.188141">
<time>2015-08-06T06:07:08Z</time></trkpt>
<trkpt lat="29.445102" lon="100.188061">
<time>2015-08-06T06:07:09Z</time></trkpt>
<trkpt lat="29.444962" lon="100.188">
<time>2015-08-06T06:07:10Z</time></trkpt>
<trkpt lat="29.444842" lon="100.18796">
<time>2015-08-06T06:07:11Z</time></trkpt>
<trkpt lat="29.444462" lon="100.18784">
<time>2015-08-06T06:07:12Z</time></trkpt>
<trkpt lat="29.443982" lon="100.1877">
<time>2015-08-06T06:07:13Z</time></trkpt>
<trkpt lat="29.443592" lon="100.18758">
<time>2015-08-06T06:07:14Z</time></trkpt>
<trkpt lat="29.443222" lon="100.187469">
<time>2015-08-06T06:07:15Z</time></trkpt>
<trkpt lat="29.442752" lon="100.187329">
<time>2015-08-06T06:07:16Z</time></trkpt>
<trkpt lat="29.442582" lon="100.187269">
<time>2015-08-06T06:07:17Z</time></trkpt>
<trkpt lat="29.442392" lon="100.187199">
<time>2015-08-06T06:07:18Z</time></trkpt>
<trkpt lat="29.441941" lon="100.186968">
<time>2015-08-06T06:07:19Z</time></trkpt>
<trkpt lat="29.441871" lon="100.186938">
<time>2015-08-06T06:07:20Z</time></trkpt>
<trkpt lat="29.441791" lon="100.186908">
<time>2015-08-06T06:07:21Z</time></trkpt>
<trkpt lat="29.441731" lon="100.186878">
<time>2015-08-06T06:07:22Z</time></trkpt>
<trkpt lat="29.441661" lon="100.186858">
<time>2015-08-06T06:07:23Z</time></trkpt>
<trkpt lat="29.441561" lon="100.186838">
<time>2015-08-06T06:07:24Z</time></trkpt>
<trkpt lat="29.441391" lon="100.186808">
<time>2015-08-06T06:07:25Z</time></trkpt>
<trkpt lat="29.441201" lon="100.186788">
<time>2015-08-06T06:07:26Z</time></trkpt>
<trkpt lat="29.440772" lon="100.186738">
<time>2015-08-06T06:07:27Z</time></trkpt>
<trkpt lat="29.440302" lon="100.186688">
<time>2015-08-06T06:07:28Z</time></trkpt>
<trkpt lat="29.440112" lon="100.186648">
<time>2015-08-06T06:07:29Z</time></trkpt>
<trkpt lat="29.440052" lon="100.186628">
<time>2015-08-06T06:07:30Z</time></trkpt>
<trkpt lat="29.440012" lon="100.186618">
<time>2015-08-06T06:07:31Z</time></trkpt>
<trkpt lat="29.439962" lon="100.186598">
<time>2015-08-06T06:07:32Z</time></trkpt>
<trkpt lat="29.439912" lon="100.186568">
<time>2015-08-06T06:07:33Z</time></trkpt>
<trkpt lat="29.439852" lon="100.186538">
<time>2015-08-06T06:07:34Z</time></trkpt>
<trkpt lat="29.439782" lon="100.186488">
<time>2015-08-06T06:07:35Z</time></trkpt>
<trkpt lat="29.439712" lon="100.186427">
<time>2015-08-06T06:07:36Z</time></trkpt>
<trkpt lat="29.439621" lon="100.186327">
<time>2015-08-06T06:07:37Z</time></trkpt>
<trkpt lat="29.439421" lon="100.186107">
<time>2015-08-06T06:07:38Z</time></trkpt>
<trkpt lat="29.439161" lon="100.185796">
<time>2015-08-06T06:07:39Z</time></trkpt>
<trkpt lat="29.439061" lon="100.185696">
<time>2015-08-06T06:07:40Z</time></trkpt>
<trkpt lat="29.43899" lon="100.185636">
<time>2015-08-06T06:07:41Z</time></trkpt>
<trkpt lat="29.43893" lon="100.185596">
<time>2015-08-06T06:07:42Z</time></trkpt>
<trkpt lat="29.43888" lon="100.185576">
<time>2015-08-06T06:07:43Z</time></trkpt>
<trkpt lat="29.43883" lon="100.185556">
<time>2015-08-06T06:07:44Z</time></trkpt>
<trkpt lat="29.43878" lon="100.185546">
<time>2015-08-06T06:07:45Z</time></trkpt>
<trkpt lat="29.43869" lon="100.185526">
<time>2015-08-06T06:07:46Z</time></trkpt>
<trkpt lat="29.43861" lon="100.185526">
<time>2015-08-06T06:07:47Z</time></trkpt>
<trkpt lat="29.438421" lon="100.185526">
<time>2015-08-06T06:07:48Z</time></trkpt>
<trkpt lat="29.437831" lon="100.185526">
<time>2015-08-06T06:07:49Z</time></trkpt>
<trkpt lat="29.437291" lon="100.185526">
<time>2015-08-06T06:07:50Z</time></trkpt>
<trkpt lat="29.437211" lon="100.185526">
<time>2015-08-06T06:07:51Z</time></trkpt>
<trkpt lat="29.437161" lon="100.185526">
<time>2015-08-06T06:07:52Z</time></trkpt>
<trkpt lat="29.437111" lon="100.185526">
<time>2015-08-06T06:07:53Z</time></trkpt>
<trkpt lat="29.437061" lon="100.185516">
<time>2015-08-06T06:07:54Z</time></trkpt>
<trkpt lat="29.437011" lon="100.185516">
<time>2015-08-06T06:07:55Z</time></trkpt>
<trkpt lat="29.436961" lon="100.185506">
<time>2015-08-06T06:07:56Z</time></trkpt>
<trkpt lat="29.436901" lon="100.185496">
<time>2015-08-06T06:07:57Z</time></trkpt>
<trkpt lat="29.436821" lon="100.185475">
<time>2015-08-06T06:07:58Z</time></trkpt>
<trkpt lat="29.436761" lon="100.185455">
<time>2015-08-06T06:07:59Z</time></trkpt>
<trkpt lat="29.436661" lon="100.185425">
<time>2015-08-06T06:08:00Z</time></trkpt>
<trkpt lat="29.436581" lon="100.185385">
<time>2015-08-06T06:08:01Z</time></trkpt>
<trkpt lat="29.436281" lon="100.185255">
<time>2015-08-06T06:08:02Z</time></trkpt>
<trkpt lat="29.436221" lon="100.185235">
<time>2015-08-06T06:08:03Z</time></trkpt>
<trkpt lat="29.436121" lon="100.185195">
<time>2015-08-06T06:08:04Z</time></trkpt>
<trkpt lat="29.436041" lon="100.185175">
<time>2015-08-06T06:08:05Z</time></trkpt>
<trkpt lat="29.435821" lon="100.185125">
<time>2015-08-06T06:08:06Z</time></trkpt>
<trkpt lat="29.435591" lon="100.185075">
<time>2015-08-06T06:08:07Z</time></trkpt>
<trkpt lat="29.435211" lon="100.185015">
<time>2015-08-06T06:08:08Z</time></trkpt>
<trkpt lat="29.434581" lon="100.184904">
<time>2015-08-06T06:08:09Z</time></trkpt>
<trkpt lat="29.434311" lon="100.184854">
<time>2015-08-06T06:08:10Z</time></trkpt>
<trkpt lat="29.433981" lon="100.184804">
<time>2015-08-06T06:08:11Z</time></trkpt>
<trkpt lat="29.433662" lon="100.184784">
<time>2015-08-06T06:08:12Z</time></trkpt>
<trkpt lat="29.433362" lon="100.184774">
<time>2015-08-06T06:08:13Z</time></trkpt>
<trkpt lat="29.433062" lon="100.184774">
<time>2015-08-06T06:08:14Z</time></trkpt>
<trkpt lat="29.432652" lon="100.184754">
<time>2015-08-06T06:08:15Z</time></trkpt>
<trkpt lat="29.432332" lon="100.184744">
<time>2015-08-06T06:08:16Z</time></trkpt>
<trkpt lat="29.432212" lon="100.184734">
<time>2015-08-06T06:08:17Z</time></trkpt>
<trkpt lat="29.432122" lon="100.184714">
<time>2015-08-06T06:08:18Z</time></trkpt>
<trkpt lat="29.432032" lon="100.184694">
<time>2015-08-06T06:08:19Z</time></trkpt>
<trkpt lat="29.431942" lon="100.184674">
<time>2015-08-06T06:08:20Z</time></trkpt>
<trkpt lat="29.431852" lon="100.184634">
<time>2015-08-06T06:08:21Z</time></trkpt>
<trkpt lat="29.431722" lon="100.184564">
<time>2015-08-06T06:08:22Z</time></trkpt>
<trkpt lat="29.431592" lon="100.184474">
<time>2015-08-06T06:08:23Z</time></trkpt>
<trkpt lat="29.431222" lon="100.184213">
<time>2015-08-06T06:08:24Z</time></trkpt>
<trkpt lat="29.431042" lon="100.184073">
<time>2015-08-06T06:08:25Z</time></trkpt>
<trkpt lat="29.430902" lon="100.183973">
<time>2015-08-06T06:08:26Z</time></trkpt>
<trkpt lat="29.430661" lon="100.183822">
<time>2015-08-06T06:08:27Z</time></trkpt>
<trkpt lat="29.430391" lon="100.183662">
<time>2015-08-06T06:08:28Z</time></trkpt>
<trkpt lat="29.430191" lon="100.183542">
<time>2015-08-06T06:08:29Z</time></trkpt>
<trkpt lat="29.429941" lon="100.183431">
<time>2015-08-06T06:08:30Z</time></trkpt>
<trkpt lat="29.429651" lon="100.183321">
<time>2015-08-06T06:08:31Z</time></trkpt>
<trkpt lat="29.429461" lon="100.183251">
<time>2015-08-06T06:08:32Z</time></trkpt>
<trkpt lat="29.429381" lon="100.183221">
<time>2015-08-06T06:08:33Z</time></trkpt>
<trkpt lat="29.429211" lon="100.183141">
<time>2015-08-06T06:08:34Z</time></trkpt>
<trkpt lat="29.428941" lon="100.182991">
<time>2015-08-06T06:08:35Z</time></trkpt>
<trkpt lat="29.428611" lon="100.1828">
<time>2015-08-06T06:08:36Z</time></trkpt>
<trkpt lat="29.42829" lon="100.18261">
<time>2015-08-06T06:08:37Z</time></trkpt>
<trkpt lat="29.42796" lon="100.182439">
<time>2015-08-06T06:08:38Z</time></trkpt>
<trkpt lat="29.42782" lon="100.182359">
<time>2015-08-06T06:08:39Z</time></trkpt>
<trkpt lat="29.42772" lon="100.182309">
<time>2015-08-06T06:08:40Z</time></trkpt>
<trkpt lat="29.42764" lon="100.182279">
<time>2015-08-06T06:08:41Z</time></trkpt>
<trkpt lat="29.42756" lon="100.182239">
<time>2015-08-06T06:08:42Z</time></trkpt>
<trkpt lat="29.42722" lon="100.182129">
<time>2015-08-06T06:08:43Z</time></trkpt>
<trkpt lat="29.42686" lon="100.182009">
<time>2015-08-06T06:08:44Z</time></trkpt>
<trkpt lat="29.42652" lon="100.181898">
<time>2015-08-06T06:08:45Z</time></trkpt>
<trkpt lat="29.42612" lon="100.181758">
<time>2015-08-06T06:08:46Z</time></trkpt>
<trkpt lat="29.42568" lon="100.181608">
<time>2015-08-06T06:08:47Z</time></trkpt>
<trkpt lat="29.42553" lon="100.181578">
<time>2015-08-06T06:08:48Z</time></trkpt>
<trkpt lat="29.42549" lon="100.181568">
<time>2015-08-06T06:08:49Z</time></trkpt>
<trkpt lat="29.42542" lon="100.181548">
<time>2015-08-06T06:08:50Z</time></trkpt>
<trkpt lat="29.42536" lon="100.181548">
<time>2015-08-06T06:08:51Z</time></trkpt>
<trkpt lat="29.42531" lon="100.181538">
<time>2015-08-06T06:08:52Z</time></trkpt>
<trkpt lat="29.42525" lon="100.181538">
<time>2015-08-06T06:08:53Z</time></trkpt>
<trkpt lat="29.42519" lon="100.181548">
<time>2015-08-06T06:08:54Z</time></trkpt>
<trkpt lat="29.42514" lon="100.181548">
<time>2015-08-06T06:08:55Z</time></trkpt>
<trkpt lat="29.42508" lon="100.181558">
<time>2015-08-06T06:08:56Z</time></trkpt>
<trkpt lat="29.42504" lon="100.181568">
<time>2015-08-06T06:08:57Z</time></trkpt>
<trkpt lat="29.425" lon="100.181578">
<time>2015-08-06T06:08:58Z</time></trkpt>
<trkpt lat="29.42492" lon="100.181608">
<time>2015-08-06T06:08:59Z</time></trkpt>
<trkpt lat="29.42484" lon="100.181638">
<time>2015-08-06T06:09:00Z</time></trkpt>
<trkpt lat="29.424741" lon="100.181688">
<time>2015-08-06T06:09:01Z</time></trkpt>
<trkpt lat="29.424521" lon="100.181818">
<time>2015-08-06T06:09:02Z</time></trkpt>
<trkpt lat="29.424062" lon="100.182109">
<time>2015-08-06T06:09:03Z</time></trkpt>
<trkpt lat="29.423972" lon="100.182149">
<time>2015-08-06T06:09:04Z</time></trkpt>
<trkpt lat="29.423912" lon="100.182189">
<time>2015-08-06T06:09:05Z</time></trkpt>
<trkpt lat="29.423862" lon="100.182209">
<time>2015-08-06T06:09:06Z</time></trkpt>
<trkpt lat="29.423812" lon="100.182229">
<time>2015-08-06T06:09:07Z</time></trkpt>
<trkpt lat="29.423742" lon="100.182249">
<time>2015-08-06T06:09:08Z</time></trkpt>
<trkpt lat="29.423702" lon="100.182259">
<time>2015-08-06T06:09:09Z</time></trkpt>
<trkpt lat="29.423642" lon="100.182269">
<time>2015-08-06T06:09:10Z</time></trkpt>
<trkpt lat="29.423582" lon="100.182279">
<time>2015-08-06T06:09:11Z</time></trkpt>
<trkpt lat="29.423432" lon="100.182279">
<time>2015-08-06T06:09:12Z</time></trkpt>
<trkpt lat="29.422643" lon="100.182279">
<time>2015-08-06T06:09:13Z</time></trkpt>
<trkpt lat="29.422443" lon="100.182269">
<time>2015-08-06T06:09:14Z</time></trkpt>
<trkpt lat="29.422343" lon="100.182249">
<time>2015-08-06T06:09:15Z</time></trkpt>
<trkpt lat="29.422203" lon="100.182219">
<time>2015-08-06T06:09:16Z</time></trkpt>
<trkpt lat="29.421983" lon="100.182159">
<time>2015-08-06T06:09:17Z</time></trkpt>
<trkpt lat="29.421173" lon="100.181878">
<time>2015-08-06T06:09:18Z</time></trkpt>
<trkpt lat="29.420723" lon="100.181718">
<time>2015-08-06T06:09:19Z</time></trkpt>
<trkpt lat="29.420043" lon="100.181438">
<time>2015-08-06T06:09:20Z</time></trkpt>
<trkpt lat="29.419832" lon="100.181327">
<time>2015-08-06T06:09:21Z</time></trkpt>
<trkpt lat="29.419702" lon="100.181247">
<time>2015-08-06T06:09:22Z</time></trkpt>
<trkpt lat="29.419592" lon="100.181167">
<time>2015-08-06T06:09:23Z</time></trkpt>
<trkpt lat="29.419482" lon="100.181067">
<time>2015-08-06T06:09:24Z</time></trkpt>
<trkpt lat="29.419412" lon="100.180997">
<time>2015-08-06T06:09:25Z</time></trkpt>
<trkpt lat="29.419242" lon="100.180846">
<time>2015-08-06T06:09:26Z</time></trkpt>
<trkpt lat="29.419122" lon="100.180736">
<time>2015-08-06T06:09:27Z</time></trkpt>
<trkpt lat="29.418982" lon="100.180626">
<time>2015-08-06T06:09:28Z</time></trkpt>
<trkpt lat="29.418801" lon="100.180496">
<time>2015-08-06T06:09:29Z</time></trkpt>
<trkpt lat="29.417901" lon="100.179884">
<time>2015-08-06T06:09:30Z</time></trkpt>
<trkpt lat="29.4174" lon="100.179534">
<time>2015-08-06T06:09:31Z</time></trkpt>
<trkpt lat="29.41724" lon="100.179423">
<time>2015-08-06T06:09:32Z</time></trkpt>
<trkpt lat="29.41708" lon="100.179283">
<time>2015-08-06T06:09:33Z</time></trkpt>
<trkpt lat="29.41701" lon="100.179223">
<time>2015-08-06T06:09:34Z</time></trkpt>
<trkpt lat="29.4168" lon="100.179032">
<time>2015-08-06T06:09:35Z</time></trkpt>
<trkpt lat="29.41671" lon="100.178952">
<time>2015-08-06T06:09:36Z</time></trkpt>
<trkpt lat="29.41652" lon="100.178822">
<time>2015-08-06T06:09:37Z</time></trkpt>
<trkpt lat="29.416349" lon="100.178732">
<time>2015-08-06T06:09:38Z</time></trkpt>
<trkpt lat="29.416179" lon="100.178652">
<time>2015-08-06T06:09:39Z</time></trkpt>
<trkpt lat="29.415919" lon="100.178521">
<time>2015-08-06T06:09:40Z</time></trkpt>
<trkpt lat="29.415539" lon="100.178261">
<time>2015-08-06T06:09:41Z</time></trkpt>
<trkpt lat="29.415259" lon="100.17804">
<time>2015-08-06T06:09:42Z</time></trkpt>
<trkpt lat="29.415089" lon="100.1779">
<time>2015-08-06T06:09:43Z</time></trkpt>
<trkpt lat="29.414278" lon="100.177219">
<time>2015-08-06T06:09:44Z</time></trkpt>
<trkpt lat="29.414128" lon="100.177088">
<time>2015-08-06T06:09:45Z</time></trkpt>
<trkpt lat="29.414018" lon="100.177038">
<time>2015-08-06T06:09:46Z</time></trkpt>
<trkpt lat="29.413868" lon="100.176988">
<time>2015-08-06T06:09:47Z</time></trkpt>
<trkpt lat="29.413648" lon="100.176948">
<time>2015-08-06T06:09:48Z</time></trkpt>
<trkpt lat="29.413508" lon="100.176908">
<time>2015-08-06T06:09:49Z</time></trkpt>
<trkpt lat="29.413368" lon="100.176848">
<time>2015-08-06T06:09:50Z</time></trkpt>
<trkpt lat="29.413267" lon="100.176758">
<time>2015-08-06T06:09:51Z</time></trkpt>
<trkpt lat="29.413147" lon="100.176607">
<time>2015-08-06T06:09:52Z</time></trkpt>
<trkpt lat="29.413017" lon="100.176467">
<time>2015-08-06T06:09:53Z</time></trkpt>
<trkpt lat="29.412907" lon="100.176347">
<time>2015-08-06T06:09:54Z</time></trkpt>
<trkpt lat="29.412717" lon="100.176237">
<time>2015-08-06T06:09:55Z</time></trkpt>
<trkpt lat="29.412467" lon="100.176106">
<time>2015-08-06T06:09:56Z</time></trkpt>
<trkpt lat="29.411376" lon="100.175645">
<time>2015-08-06T06:09:57Z</time></trkpt>
<trkpt lat="29.410116" lon="100.175104">
<time>2015-08-06T06:09:58Z</time></trkpt>
<trkpt lat="29.409506" lon="100.174834">
<time>2015-08-06T06:09:59Z</time></trkpt>
<trkpt lat="29.409076" lon="100.174643">
<time>2015-08-06T06:10:00Z</time></trkpt>
<trkpt lat="29.408685" lon="100.174373">
<time>2015-08-06T06:10:01Z</time></trkpt>
<trkpt lat="29.408115" lon="100.173922">
<time>2015-08-06T06:10:02Z</time></trkpt>
<trkpt lat="29.407374" lon="100.17327">
<time>2015-08-06T06:10:03Z</time></trkpt>
<trkpt lat="29.407084" lon="100.17299">
<time>2015-08-06T06:10:04Z</time></trkpt>
<trkpt lat="29.406543" lon="100.172358">
<time>2015-08-06T06:10:05Z</time></trkpt>
<trkpt lat="29.406222" lon="100.171978">
<time>2015-08-06T06:10:06Z</time></trkpt>
<trkpt lat="29.406052" lon="100.171797">
<time>2015-08-06T06:10:07Z</time></trkpt>
<trkpt lat="29.405892" lon="100.171647">
<time>2015-08-06T06:10:08Z</time></trkpt>
<trkpt lat="29.405672" lon="100.171507">
<time>2015-08-06T06:10:09Z</time></trkpt>
<trkpt lat="29.405361" lon="100.171256">
<time>2015-08-06T06:10:10Z</time></trkpt>
<trkpt lat="29.405081" lon="100.170995">
<time>2015-08-06T06:10:11Z</time></trkpt>
<trkpt lat="29.40464" lon="100.170524">
<time>2015-08-06T06:10:12Z</time></trkpt>
<trkpt lat="29.403919" lon="100.169713">
<time>2015-08-06T06:10:13Z</time></trkpt>
<trkpt lat="29.403629" lon="100.169392">
<time>2015-08-06T06:10:14Z</time></trkpt>
<trkpt lat="29.403388" lon="100.169121">
<time>2015-08-06T06:10:15Z</time></trkpt>
<trkpt lat="29.403238" lon="100.168981">
<time>2015-08-06T06:10:16Z</time></trkpt>
<trkpt lat="29.402948" lon="100.168731">
<time>2015-08-06T06:10:17Z</time></trkpt>
<trkpt lat="29.402608" lon="100.16845">
<time>2015-08-06T06:10:18Z</time></trkpt>
<trkpt lat="29.402077" lon="100.167999">
<time>2015-08-06T06:10:19Z</time></trkpt>
<trkpt lat="29.401786" lon="100.167648">
<time>2015-08-06T06:10:20Z</time></trkpt>
<trkpt lat="29.401275" lon="100.166907">
<time>2015-08-06T06:10:21Z</time></trkpt>
<trkpt lat="29.400714" lon="100.165844">
<time>2015-08-06T06:10:22Z</time></trkpt>
<trkpt lat="29.400423" lon="100.165253">
<time>2015-08-06T06:10:23Z</time></trkpt>
<trkpt lat="29.400312" lon="100.164983">
<time>2015-08-06T06:10:24Z</time></trkpt>
<trkpt lat="29.400242" lon="100.164712">
<time>2015-08-06T06:10:25Z</time></trkpt>
<trkpt lat="29.400121" lon="100.16402">
<time>2015-08-06T06:10:26Z</time></trkpt>
<trkpt lat="29.40004" lon="100.16365">
<time>2015-08-06T06:10:27Z</time></trkpt>
<trkpt lat="29.399949" lon="100.163379">
<time>2015-08-06T06:10:28Z</time></trkpt>
<trkpt lat="29.399799" lon="100.163139">
<time>2015-08-06T06:10:29Z</time></trkpt>
<trkpt lat="29.399569" lon="100.162798">
<time>2015-08-06T06:10:30Z</time></trkpt>
<trkpt lat="29.399388" lon="100.162557">
<time>2015-08-06T06:10:31Z</time></trkpt>
<trkpt lat="29.399188" lon="100.162347">
<time>2015-08-06T06:10:32Z</time></trkpt>
<trkpt lat="29.398277" lon="100.161555">
<time>2015-08-06T06:10:33Z</time></trkpt>
<trkpt lat="29.397796" lon="100.160994">
<time>2015-08-06T06:10:34Z</time></trkpt>
<trkpt lat="29.397315" lon="100.160343">
<time>2015-08-06T06:10:35Z</time></trkpt>
<trkpt lat="29.396964" lon="100.159771">
<time>2015-08-06T06:10:36Z</time></trkpt>
<trkpt lat="29.396794" lon="100.159421">
<time>2015-08-06T06:10:37Z</time></trkpt>
<trkpt lat="29.396171" lon="100.157817">
<time>2015-08-06T06:10:38Z</time></trkpt>
<trkpt lat="29.395599" lon="100.156384">
<time>2015-08-06T06:10:39Z</time></trkpt>
<trkpt lat="29.395408" lon="100.156024">
<time>2015-08-06T06:10:40Z</time></trkpt>
<trkpt lat="29.395218" lon="100.155723">
<time>2015-08-06T06:10:41Z</time></trkpt>
<trkpt lat="29.395058" lon="100.155523">
<time>2015-08-06T06:10:42Z</time></trkpt>
<trkpt lat="29.394828" lon="100.155332">
<time>2015-08-06T06:10:43Z</time></trkpt>
<trkpt lat="29.394467" lon="100.155042">
<time>2015-08-06T06:10:44Z</time></trkpt>
<trkpt lat="29.394297" lon="100.154891">
<time>2015-08-06T06:10:45Z</time></trkpt>
<trkpt lat="29.394197" lon="100.154731">
<time>2015-08-06T06:10:46Z</time></trkpt>
<trkpt lat="29.394066" lon="100.15448">
<time>2015-08-06T06:10:47Z</time></trkpt>
<trkpt lat="29.393796" lon="100.153919">
<time>2015-08-06T06:10:48Z</time></trkpt>
<trkpt lat="29.393625" lon="100.153559">
<time>2015-08-06T06:10:49Z</time></trkpt>
<trkpt lat="29.393505" lon="100.153368">
<time>2015-08-06T06:10:50Z</time></trkpt>
<trkpt lat="29.393355" lon="100.153208">
<time>2015-08-06T06:10:51Z</time></trkpt>
<trkpt lat="29.393144" lon="100.153037">
<time>2015-08-06T06:10:52Z</time></trkpt>
<trkpt lat="29.392264" lon="100.152346">
<time>2015-08-06T06:10:53Z</time></trkpt>
<trkpt lat="29.391813" lon="100.151995">
<time>2015-08-06T06:10:54Z</time></trkpt>
<trkpt lat="29.391513" lon="100.151755">
<time>2015-08-06T06:10:55Z</time></trkpt>
<trkpt lat="29.391243" lon="100.151504">
<time>2015-08-06T06:10:56Z</time></trkpt>
<trkpt lat="29.390952" lon="100.151204">
<time>2015-08-06T06:10:57Z</time></trkpt>
<trkpt lat="29.390532" lon="100.150753">
<time>2015-08-06T06:10:58Z</time></trkpt>
<trkpt lat="29.390131" lon="100.150352">
<time>2015-08-06T06:10:59Z</time></trkpt>
<trkpt lat="29.389851" lon="100.150072">
<time>2015-08-06T06:11:00Z</time></trkpt>
<trkpt lat="29.389721" lon="100.149961">
<time>2015-08-06T06:11:01Z</time></trkpt>
<trkpt lat="29.389511" lon="100.149821">
<time>2015-08-06T06:11:02Z</time></trkpt>
<trkpt lat="29.388941" lon="100.149561">
<time>2015-08-06T06:11:03Z</time></trkpt>
<trkpt lat="29.38726" lon="100.148849">
<time>2015-08-06T06:11:04Z</time></trkpt>
<trkpt lat="29.38565" lon="100.148158">
<time>2015-08-06T06:11:05Z</time></trkpt>
<trkpt lat="29.38377" lon="100.147376">
<time>2015-08-06T06:11:06Z</time></trkpt>
<trkpt lat="29.38257" lon="100.146865">
<time>2015-08-06T06:11:07Z</time></trkpt>
<trkpt lat="29.38225" lon="100.146745">
<time>2015-08-06T06:11:08Z</time></trkpt>
<trkpt lat="29.3819" lon="100.146605">
<time>2015-08-06T06:11:09Z</time></trkpt>
<trkpt lat="29.38141" lon="100.146505">
<time>2015-08-06T06:11:10Z</time></trkpt>
<trkpt lat="29.38084" lon="100.146385">
<time>2015-08-06T06:11:11Z</time></trkpt>
<trkpt lat="29.38058" lon="100.146325">
<time>2015-08-06T06:11:12Z</time></trkpt>
<trkpt lat="29.38035" lon="100.146234">
<time>2015-08-06T06:11:13Z</time></trkpt>
<trkpt lat="29.38012" lon="100.146114">
<time>2015-08-06T06:11:14Z</time></trkpt>
<trkpt lat="29.37996" lon="100.146074">
<time>2015-08-06T06:11:15Z</time></trkpt>
<trkpt lat="29.37983" lon="100.146064">
<time>2015-08-06T06:11:16Z</time></trkpt>
<trkpt lat="29.37966" lon="100.146064">
<time>2015-08-06T06:11:17Z</time></trkpt>
<trkpt lat="29.37932" lon="100.146034">
<time>2015-08-06T06:11:18Z</time></trkpt>
<trkpt lat="29.37908" lon="100.145984">
<time>2015-08-06T06:11:19Z</time></trkpt>
<trkpt lat="29.37878" lon="100.145894">
<time>2015-08-06T06:11:20Z</time></trkpt>
<trkpt lat="29.37837" lon="100.145743">
<time>2015-08-06T06:11:21Z</time></trkpt>
<trkpt lat="29.37802" lon="100.145593">
<time>2015-08-06T06:11:22Z</time></trkpt>
<trkpt lat="29.37774" lon="100.145483">
<time>2015-08-06T06:11:23Z</time></trkpt>
<trkpt lat="29.37754" lon="100.145423">
<time>2015-08-06T06:11:24Z</time></trkpt>
<trkpt lat="29.37692" lon="100.145233">
<time>2015-08-06T06:11:25Z</time></trkpt>
<trkpt lat="29.37672" lon="100.145122">
<time>2015-08-06T06:11:26Z</time></trkpt>
<trkpt lat="29.37631" lon="100.144802">
<time>2015-08-06T06:11:27Z</time></trkpt>
<trkpt lat="29.37591" lon="100.144481">
<time>2015-08-06T06:11:28Z</time></trkpt>
<trkpt lat="29.374999" lon="100.143549">
<time>2015-08-06T06:11:29Z</time></trkpt>
<trkpt lat="29.374458" lon="100.142998">
<time>2015-08-06T06:11:30Z</time></trkpt>
<trkpt lat="29.374148" lon="100.142678">
<time>2015-08-06T06:11:31Z</time></trkpt>
<trkpt lat="29.373927" lon="100.142417">
<time>2015-08-06T06:11:32Z</time></trkpt>
<trkpt lat="29.373767" lon="100.142177">
<time>2015-08-06T06:11:33Z</time></trkpt>
<trkpt lat="29.373527" lon="100.141706">
<time>2015-08-06T06:11:34Z</time></trkpt>
<trkpt lat="29.373396" lon="100.141476">
<time>2015-08-06T06:11:35Z</time></trkpt>
<trkpt lat="29.373356" lon="100.141416">
<time>2015-08-06T06:11:36Z</time></trkpt>
<trkpt lat="29.373296" lon="100.141335">
<time>2015-08-06T06:11:37Z</time></trkpt>
<trkpt lat="29.373186" lon="100.141235">
<time>2015-08-06T06:11:38Z</time></trkpt>
<trkpt lat="29.373096" lon="100.141185">
<time>2015-08-06T06:11:39Z</time></trkpt>
<trkpt lat="29.373006" lon="100.141135">
<time>2015-08-06T06:11:40Z</time></trkpt>
<trkpt lat="29.372756" lon="100.141045">
<time>2015-08-06T06:11:41Z</time></trkpt>
<trkpt lat="29.372176" lon="100.140845">
<time>2015-08-06T06:11:42Z</time></trkpt>
<trkpt lat="29.371736" lon="100.140694">
<time>2015-08-06T06:11:43Z</time></trkpt>
<trkpt lat="29.371496" lon="100.140604">
<time>2015-08-06T06:11:44Z</time></trkpt>
<trkpt lat="29.371356" lon="100.140514">
<time>2015-08-06T06:11:45Z</time></trkpt>
<trkpt lat="29.371286" lon="100.140464">
<time>2015-08-06T06:11:46Z</time></trkpt>
<trkpt lat="29.371206" lon="100.140394">
<time>2015-08-06T06:11:47Z</time></trkpt>
<trkpt lat="29.371096" lon="100.140243">
<time>2015-08-06T06:11:48Z</time></trkpt>
<trkpt lat="29.370655" lon="100.139522">
<time>2015-08-06T06:11:49Z</time></trkpt>
<trkpt lat="29.370104" lon="100.138631">
<time>2015-08-06T06:11:50Z</time></trkpt>
<trkpt lat="29.369944" lon="100.13837">
<time>2015-08-06T06:11:51Z</time></trkpt>
<trkpt lat="29.369753" lon="100.13813">
<time>2015-08-06T06:11:52Z</time></trkpt>
<trkpt lat="29.368722" lon="100.137058">
<time>2015-08-06T06:11:53Z</time></trkpt>
<trkpt lat="29.367001" lon="100.135265">
<time>2015-08-06T06:11:54Z</time></trkpt>
<trkpt lat="29.3658" lon="100.134033">
<time>2015-08-06T06:11:55Z</time></trkpt>
<trkpt lat="29.364229" lon="100.132411">
<time>2015-08-06T06:11:56Z</time></trkpt>
<trkpt lat="29.363778" lon="100.13196">
<time>2015-08-06T06:11:57Z</time></trkpt>
<trkpt lat="29.363428" lon="100.131609">
<time>2015-08-06T06:11:58Z</time></trkpt>
<trkpt lat="29.363178" lon="100.131429">
<time>2015-08-06T06:11:59Z</time></trkpt>
<trkpt lat="29.361457" lon="100.130277">
<time>2015-08-06T06:12:00Z</time></trkpt>
<trkpt lat="29.360337" lon="100.129526">
<time>2015-08-06T06:12:01Z</time></trkpt>
<trkpt lat="29.359477" lon="100.128956">
<time>2015-08-06T06:12:02Z</time></trkpt>
<trkpt lat="29.359267" lon="100.128785">
<time>2015-08-06T06:12:03Z</time></trkpt>
<trkpt lat="29.359087" lon="100.128595">
<time>2015-08-06T06:12:04Z</time></trkpt>
<trkpt lat="29.358206" lon="100.127484">
<time>2015-08-06T06:12:05Z</time></trkpt>
<trkpt lat="29.357695" lon="100.126853">
<time>2015-08-06T06:12:06Z</time></trkpt>
<trkpt lat="29.357585" lon="100.126662">
<time>2015-08-06T06:12:07Z</time></trkpt>
<trkpt lat="29.357525" lon="100.126512">
<time>2015-08-06T06:12:08Z</time></trkpt>
<trkpt lat="29.357485" lon="100.126352">
<time>2015-08-06T06:12:09Z</time></trkpt>
<trkpt lat="29.357425" lon="100.125891">
<time>2015-08-06T06:12:10Z</time></trkpt>
<trkpt lat="29.357304" lon="100.12504">
<time>2015-08-06T06:12:11Z</time></trkpt>
<trkpt lat="29.357273" lon="100.12483">
<time>2015-08-06T06:12:12Z</time></trkpt>
<trkpt lat="29.357233" lon="100.12471">
<time>2015-08-06T06:12:13Z</time></trkpt>
<trkpt lat="29.357173" lon="100.12456">
<time>2015-08-06T06:12:14Z</time></trkpt>
<trkpt lat="29.356763" lon="100.123779">
<time>2015-08-06T06:12:15Z</time></trkpt>
<trkpt lat="29.355992" lon="100.122327">
<time>2015-08-06T06:12:16Z</time></trkpt>
<trkpt lat="29.355641" lon="100.121706">
<time>2015-08-06T06:12:17Z</time></trkpt>
<trkpt lat="29.355511" lon="100.121546">
<time>2015-08-06T06:12:18Z</time></trkpt>
<trkpt lat="29.355321" lon="100.121386">
<time>2015-08-06T06:12:19Z</time></trkpt>
<trkpt lat="29.354891" lon="100.121035">
<time>2015-08-06T06:12:20Z</time></trkpt>
<trkpt lat="29.354171" lon="100.120485">
<time>2015-08-06T06:12:21Z</time></trkpt>
<trkpt lat="29.353651" lon="100.120094">
<time>2015-08-06T06:12:22Z</time></trkpt>
<trkpt lat="29.353441" lon="100.119924">
<time>2015-08-06T06:12:23Z</time></trkpt>
<trkpt lat="29.353101" lon="100.119614">
<time>2015-08-06T06:12:24Z</time></trkpt>
<trkpt lat="29.352861" lon="100.119324">
<time>2015-08-06T06:12:25Z</time></trkpt>
<trkpt lat="29.35244" lon="100.118843">
<time>2015-08-06T06:12:26Z</time></trkpt>
<trkpt lat="29.35175" lon="100.118022">
<time>2015-08-06T06:12:27Z</time></trkpt>
<trkpt lat="29.35167" lon="100.117902">
<time>2015-08-06T06:12:28Z</time></trkpt>
<trkpt lat="29.35149" lon="100.117572">
<time>2015-08-06T06:12:29Z</time></trkpt>
<trkpt lat="29.350789" lon="100.11609">
<time>2015-08-06T06:12:30Z</time></trkpt>
<trkpt lat="29.350709" lon="100.11596">
<time>2015-08-06T06:12:31Z</time></trkpt>
<trkpt lat="29.350549" lon="100.11574">
<time>2015-08-06T06:12:32Z</time></trkpt>
<trkpt lat="29.349829" lon="100.114839">
<time>2015-08-06T06:12:33Z</time></trkpt>
<trkpt lat="29.348638" lon="100.113448">
<time>2015-08-06T06:12:34Z</time></trkpt>
<trkpt lat="29.347398" lon="100.111947">
<time>2015-08-06T06:12:35Z</time></trkpt>
<trkpt lat="29.347348" lon="100.111847">
<time>2015-08-06T06:12:36Z</time></trkpt>
<trkpt lat="29.347278" lon="100.111707">
<time>2015-08-06T06:12:37Z</time></trkpt>
<trkpt lat="29.347228" lon="100.111487">
<time>2015-08-06T06:12:38Z</time></trkpt>
<trkpt lat="29.347148" lon="100.111166">
<time>2015-08-06T06:12:39Z</time></trkpt>
<trkpt lat="29.347098" lon="100.111006">
<time>2015-08-06T06:12:40Z</time></trkpt>
<trkpt lat="29.347028" lon="100.110876">
<time>2015-08-06T06:12:41Z</time></trkpt>
<trkpt lat="29.346978" lon="100.110796">
<time>2015-08-06T06:12:42Z</time></trkpt>
<trkpt lat="29.346908" lon="100.110716">
<time>2015-08-06T06:12:43Z</time></trkpt>
<trkpt lat="29.346708" lon="100.110546">
<time>2015-08-06T06:12:44Z</time></trkpt>
<trkpt lat="29.346488" lon="100.110396">
<time>2015-08-06T06:12:45Z</time></trkpt>
<trkpt lat="29.346228" lon="100.110266">
<time>2015-08-06T06:12:46Z</time></trkpt>
<trkpt lat="29.346038" lon="100.110166">
<time>2015-08-06T06:12:47Z</time></trkpt>
<trkpt lat="29.345878" lon="100.110056">
<time>2015-08-06T06:12:48Z</time></trkpt>
<trkpt lat="29.345748" lon="100.109946">
<time>2015-08-06T06:12:49Z</time></trkpt>
<trkpt lat="29.345498" lon="100.109685">
<time>2015-08-06T06:12:50Z</time></trkpt>
<trkpt lat="29.345018" lon="100.109105">
<time>2015-08-06T06:12:51Z</time></trkpt>
<trkpt lat="29.344818" lon="100.108885">
<time>2015-08-06T06:12:52Z</time></trkpt>
<trkpt lat="29.344668" lon="100.108665">
<time>2015-08-06T06:12:53Z</time></trkpt>
<trkpt lat="29.344618" lon="100.108565">
<time>2015-08-06T06:12:54Z</time></trkpt>
<trkpt lat="29.344558" lon="100.108455">
<time>2015-08-06T06:12:55Z</time></trkpt>
<trkpt lat="29.344528" lon="100.108375">
<time>2015-08-06T06:12:56Z</time></trkpt>
<trkpt lat="29.344508" lon="100.108265">
<time>2015-08-06T06:12:57Z</time></trkpt>
<trkpt lat="29.344478" lon="100.108094">
<time>2015-08-06T06:12:58Z</time></trkpt>
<trkpt lat="29.344458" lon="100.107944">
<time>2015-08-06T06:12:59Z</time></trkpt>
<trkpt lat="29.344448" lon="100.107744">
<time>2015-08-06T06:13:00Z</time></trkpt>
<trkpt lat="29.344428" lon="100.107474">
<time>2015-08-06T06:13:01Z</time></trkpt>
<trkpt lat="29.344387" lon="100.107304">
<time>2015-08-06T06:13:02Z</time></trkpt>
<trkpt lat="29.344327" lon="100.107104">
<time>2015-08-06T06:13:03Z</time></trkpt>
<trkpt lat="29.344157" lon="100.106844">
<time>2015-08-06T06:13:04Z</time></trkpt>
<trkpt lat="29.343957" lon="100.106624">
<time>2015-08-06T06:13:05Z</time></trkpt>
<trkpt lat="29.343738" lon="100.106424">
<time>2015-08-06T06:13:06Z</time></trkpt>
<trkpt lat="29.343618" lon="100.106283">
<time>2015-08-06T06:13:07Z</time></trkpt>
<trkpt lat="29.343448" lon="100.106033">
<time>2015-08-06T06:13:08Z</time></trkpt>
<trkpt lat="29.342827" lon="100.104923">
<time>2015-08-06T06:13:09Z</time></trkpt>
<trkpt lat="29.342688" lon="100.104723">
<time>2015-08-06T06:13:10Z</time></trkpt>
<trkpt lat="29.342538" lon="100.104533">
<time>2015-08-06T06:13:11Z</time></trkpt>
<trkpt lat="29.342378" lon="100.104393">
<time>2015-08-06T06:13:12Z</time></trkpt>
<trkpt lat="29.342168" lon="100.104243">
<time>2015-08-06T06:13:13Z</time></trkpt>
<trkpt lat="29.341728" lon="100.103942">
<time>2015-08-06T06:13:14Z</time></trkpt>
<trkpt lat="29.341268" lon="100.103672">
<time>2015-08-06T06:13:15Z</time></trkpt>
<trkpt lat="29.340328" lon="100.103072">
<time>2015-08-06T06:13:16Z</time></trkpt>
<trkpt lat="29.339759" lon="100.102712">
<time>2015-08-06T06:13:17Z</time></trkpt>
<trkpt lat="29.339519" lon="100.102552">
<time>2015-08-06T06:13:18Z</time></trkpt>
<trkpt lat="29.339249" lon="100.102362">
<time>2015-08-06T06:13:19Z</time></trkpt>
<trkpt lat="29.339139" lon="100.102252">
<time>2015-08-06T06:13:20Z</time></trkpt>
<trkpt lat="29.338959" lon="100.102072">
<time>2015-08-06T06:13:21Z</time></trkpt>
<trkpt lat="29.338439" lon="100.101452">
<time>2015-08-06T06:13:22Z</time></trkpt>
<trkpt lat="29.338129" lon="100.101092">
<time>2015-08-06T06:13:23Z</time></trkpt>
<trkpt lat="29.338029" lon="100.100982">
<time>2015-08-06T06:13:24Z</time></trkpt>
<trkpt lat="29.337879" lon="100.100862">
<time>2015-08-06T06:13:25Z</time></trkpt>
<trkpt lat="29.33757" lon="100.100662">
<time>2015-08-06T06:13:26Z</time></trkpt>
<trkpt lat="29.3373" lon="100.100532">
<time>2015-08-06T06:13:27Z</time></trkpt>
<trkpt lat="29.33644" lon="100.100101">
<time>2015-08-06T06:13:28Z</time></trkpt>
<trkpt lat="29.33632" lon="100.100051">
<time>2015-08-06T06:13:29Z</time></trkpt>
<trkpt lat="29.33609" lon="100.099961">
<time>2015-08-06T06:13:30Z</time></trkpt>
<trkpt lat="29.335851" lon="100.099871">
<time>2015-08-06T06:13:31Z</time></trkpt>
<trkpt lat="29.335561" lon="100.099761">
<time>2015-08-06T06:13:32Z</time></trkpt>
<trkpt lat="29.335171" lon="100.099551">
<time>2015-08-06T06:13:33Z</time></trkpt>
<trkpt lat="29.333902" lon="100.098821">
<time>2015-08-06T06:13:34Z</time></trkpt>
<trkpt lat="29.333372" lon="100.098531">
<time>2015-08-06T06:13:35Z</time></trkpt>
<trkpt lat="29.332053" lon="100.097771">
<time>2015-08-06T06:13:36Z</time></trkpt>
<trkpt lat="29.331753" lon="100.097591">
<time>2015-08-06T06:13:37Z</time></trkpt>
<trkpt lat="29.331413" lon="100.097331">
<time>2015-08-06T06:13:38Z</time></trkpt>
<trkpt lat="29.330674" lon="100.096721">
<time>2015-08-06T06:13:39Z</time></trkpt>
<trkpt lat="29.330394" lon="100.096471">
<time>2015-08-06T06:13:40Z</time></trkpt>
<trkpt lat="29.330314" lon="100.096401">
<time>2015-08-06T06:13:41Z</time></trkpt>
<trkpt lat="29.330224" lon="100.096291">
<time>2015-08-06T06:13:42Z</time></trkpt>
<trkpt lat="29.330164" lon="100.096221">
<time>2015-08-06T06:13:43Z</time></trkpt>
<trkpt lat="29.330084" lon="100.096091">
<time>2015-08-06T06:13:44Z</time></trkpt>
<trkpt lat="29.330014" lon="100.095951">
<time>2015-08-06T06:13:45Z</time></trkpt>
<trkpt lat="29.329914" lon="100.095721">
<time>2015-08-06T06:13:46Z</time></trkpt>
<trkpt lat="29.329794" lon="100.095401">
<time>2015-08-06T06:13:47Z</time></trkpt>
<trkpt lat="29.329584" lon="100.094921">
<time>2015-08-06T06:13:48Z</time></trkpt>
<trkpt lat="29.329494" lon="100.094721">
<time>2015-08-06T06:13:49Z</time></trkpt>
<trkpt lat="29.329385" lon="100.094561">
<time>2015-08-06T06:13:50Z</time></trkpt>
<trkpt lat="29.329165" lon="100.094301">
<time>2015-08-06T06:13:51Z</time></trkpt>
<trkpt lat="29.328705" lon="100.093801">
<time>2015-08-06T06:13:52Z</time></trkpt>
<trkpt lat="29.328425" lon="100.093521">
<time>2015-08-06T06:13:53Z</time></trkpt>
<trkpt lat="29.328315" lon="100.093431">
<time>2015-08-06T06:13:54Z</time></trkpt>
<trkpt lat="29.328225" lon="100.093361">
<time>2015-08-06T06:13:55Z</time></trkpt>
<trkpt lat="29.328115" lon="100.093301">
<time>2015-08-06T06:13:56Z</time></trkpt>
<trkpt lat="29.327836" lon="100.093161">
<time>2015-08-06T06:13:57Z</time></trkpt>
<trkpt lat="29.327696" lon="100.093091">
<time>2015-08-06T06:13:58Z</time></trkpt>
<trkpt lat="29.326716" lon="100.092512">
<time>2015-08-06T06:13:59Z</time></trkpt>
<trkpt lat="29.326577" lon="100.092422">
<time>2015-08-06T06:14:00Z</time></trkpt>
<trkpt lat="29.326397" lon="100.092312">
<time>2015-08-06T06:14:01Z</time></trkpt>
<trkpt lat="29.326297" lon="100.092232">
<time>2015-08-06T06:14:02Z</time></trkpt>
<trkpt lat="29.326207" lon="100.092142">
<time>2015-08-06T06:14:03Z</time></trkpt>
<trkpt lat="29.326077" lon="100.092012">
<time>2015-08-06T06:14:04Z</time></trkpt>
<trkpt lat="29.325697" lon="100.091582">
<time>2015-08-06T06:14:05Z</time></trkpt>
<trkpt lat="29.325627" lon="100.091502">
<time>2015-08-06T06:14:06Z</time></trkpt>
<trkpt lat="29.325547" lon="100.091382">
<time>2015-08-06T06:14:07Z</time></trkpt>
<trkpt lat="29.325458" lon="100.091212">
<time>2015-08-06T06:14:08Z</time></trkpt>
<trkpt lat="29.325398" lon="100.091082">
<time>2015-08-06T06:14:09Z</time></trkpt>
<trkpt lat="29.325338" lon="100.090932">
<time>2015-08-06T06:14:10Z</time></trkpt>
<trkpt lat="29.325258" lon="100.090682">
<time>2015-08-06T06:14:11Z</time></trkpt>
<trkpt lat="29.325138" lon="100.090282">
<time>2015-08-06T06:14:12Z</time></trkpt>
<trkpt lat="29.325068" lon="100.089992">
<time>2015-08-06T06:14:13Z</time></trkpt>
<trkpt lat="29.325048" lon="100.089902">
<time>2015-08-06T06:14:14Z</time></trkpt>
<trkpt lat="29.325058" lon="100.089802">
<time>2015-08-06T06:14:15Z</time></trkpt>
<trkpt lat="29.325058" lon="100.089732">
<time>2015-08-06T06:14:16Z</time></trkpt>
<trkpt lat="29.325068" lon="100.089652">
<time>2015-08-06T06:14:17Z</time></trkpt>
<trkpt lat="29.325068" lon="100.089582">
<time>2015-08-06T06:14:18Z</time></trkpt>
<trkpt lat="29.325068" lon="100.089522">
<time>2015-08-06T06:14:19Z</time></trkpt>
<trkpt lat="29.325068" lon="100.089442">
<time>2015-08-06T06:14:20Z</time></trkpt>
<trkpt lat="29.325058" lon="100.089362">
<time>2015-08-06T06:14:21Z</time></trkpt>
<trkpt lat="29.325038" lon="100.089292">
<time>2015-08-06T06:14:22Z</time></trkpt>
<trkpt lat="29.325018" lon="100.089242">
<time>2015-08-06T06:14:23Z</time></trkpt>
<trkpt lat="29.324988" lon="100.089172">
<time>2015-08-06T06:14:24Z</time></trkpt>
<trkpt lat="29.324929" lon="100.089052">
<time>2015-08-06T06:14:25Z</time></trkpt>
<trkpt lat="29.324699" lon="100.088753">
<time>2015-08-06T06:14:26Z</time></trkpt>
<trkpt lat="29.324309" lon="100.088283">
<time>2015-08-06T06:14:27Z</time></trkpt>
<trkpt lat="29.324159" lon="100.088123">
<time>2015-08-06T06:14:28Z</time></trkpt>
<trkpt lat="29.324" lon="100.087993">
<time>2015-08-06T06:14:29Z</time></trkpt>
<trkpt lat="29.3237" lon="100.087793">
<time>2015-08-06T06:14:30Z</time></trkpt>
<trkpt lat="29.32299" lon="100.087323">
<time>2015-08-06T06:14:31Z</time></trkpt>
<trkpt lat="29.322871" lon="100.087233">
<time>2015-08-06T06:14:32Z</time></trkpt>
<trkpt lat="29.322781" lon="100.087143">
<time>2015-08-06T06:14:33Z</time></trkpt>
<trkpt lat="29.322671" lon="100.087013">
<time>2015-08-06T06:14:34Z</time></trkpt>
<trkpt lat="29.322501" lon="100.086813">
<time>2015-08-06T06:14:35Z</time></trkpt>
<trkpt lat="29.322261" lon="100.086494">
<time>2015-08-06T06:14:36Z</time></trkpt>
<trkpt lat="29.322032" lon="100.086224">
<time>2015-08-06T06:14:37Z</time></trkpt>
<trkpt lat="29.321572" lon="100.085694">
<time>2015-08-06T06:14:38Z</time></trkpt>
<trkpt lat="29.321452" lon="100.085524">
<time>2015-08-06T06:14:39Z</time></trkpt>
<trkpt lat="29.321233" lon="100.085164">
<time>2015-08-06T06:14:40Z</time></trkpt>
<trkpt lat="29.321083" lon="100.084934">
<time>2015-08-06T06:14:41Z</time></trkpt>
<trkpt lat="29.320923" lon="100.084735">
<time>2015-08-06T06:14:42Z</time></trkpt>
<trkpt lat="29.320813" lon="100.084615">
<time>2015-08-06T06:14:43Z</time></trkpt>
<trkpt lat="29.320643" lon="100.084475">
<time>2015-08-06T06:14:44Z</time></trkpt>
<trkpt lat="29.319734" lon="100.083785">
<time>2015-08-06T06:14:45Z</time></trkpt>
<trkpt lat="29.318705" lon="100.083006">
<time>2015-08-06T06:14:46Z</time></trkpt>
<trkpt lat="29.317597" lon="100.082166">
<time>2015-08-06T06:14:47Z</time></trkpt>
<trkpt lat="29.317377" lon="100.081976">
<time>2015-08-06T06:14:48Z</time></trkpt>
<trkpt lat="29.317297" lon="100.081896">
<time>2015-08-06T06:14:49Z</time></trkpt>
<trkpt lat="29.317267" lon="100.081867">
<time>2015-08-06T06:14:50Z</time></trkpt>
<trkpt lat="29.317237" lon="100.081807">
<time>2015-08-06T06:14:51Z</time></trkpt>
<trkpt lat="29.317207" lon="100.081757">
<time>2015-08-06T06:14:52Z</time></trkpt>
<trkpt lat="29.317177" lon="100.081687">
<time>2015-08-06T06:14:53Z</time></trkpt>
<trkpt lat="29.317147" lon="100.081597">
<time>2015-08-06T06:14:54Z</time></trkpt>
<trkpt lat="29.317087" lon="100.081387">
<time>2015-08-06T06:14:55Z</time></trkpt>
<trkpt lat="29.317028" lon="100.081177">
<time>2015-08-06T06:14:56Z</time></trkpt>
<trkpt lat="29.316988" lon="100.081007">
<time>2015-08-06T06:14:57Z</time></trkpt>
<trkpt lat="29.316958" lon="100.080937">
<time>2015-08-06T06:14:58Z</time></trkpt>
<trkpt lat="29.316928" lon="100.080857">
<time>2015-08-06T06:14:59Z</time></trkpt>
<trkpt lat="29.316888" lon="100.080787">
<time>2015-08-06T06:15:00Z</time></trkpt>
<trkpt lat="29.316838" lon="100.080737">
<time>2015-08-06T06:15:01Z</time></trkpt>
<trkpt lat="29.316788" lon="100.080687">
<time>2015-08-06T06:15:02Z</time></trkpt>
<trkpt lat="29.316698" lon="100.080617">
<time>2015-08-06T06:15:03Z</time></trkpt>
<trkpt lat="29.316628" lon="100.080577">
<time>2015-08-06T06:15:04Z</time></trkpt>
<trkpt lat="29.316528" lon="100.080528">
<time>2015-08-06T06:15:05Z</time></trkpt>
<trkpt lat="29.316079" lon="100.080358">
<time>2015-08-06T06:15:06Z</time></trkpt>
<trkpt lat="29.315439" lon="100.080138">
<time>2015-08-06T06:15:07Z</time></trkpt>
<trkpt lat="29.31505" lon="100.079988">
<time>2015-08-06T06:15:08Z</time></trkpt>
<trkpt lat="29.31493" lon="100.079918">
<time>2015-08-06T06:15:09Z</time></trkpt>
<trkpt lat="29.31477" lon="100.079818">
<time>2015-08-06T06:15:10Z</time></trkpt>
<trkpt lat="29.3146" lon="100.079688">
<time>2015-08-06T06:15:11Z</time></trkpt>
<trkpt lat="29.314441" lon="100.079558">
<time>2015-08-06T06:15:12Z</time></trkpt>
<trkpt lat="29.314281" lon="100.079438">
<time>2015-08-06T06:15:13Z</time></trkpt>
<trkpt lat="29.314031" lon="100.079269">
<time>2015-08-06T06:15:14Z</time></trkpt>
<trkpt lat="29.313552" lon="100.078989">
<time>2015-08-06T06:15:15Z</time></trkpt>
<trkpt lat="29.313372" lon="100.078889">
<time>2015-08-06T06:15:16Z</time></trkpt>
<trkpt lat="29.312832" lon="100.078579">
<time>2015-08-06T06:15:17Z</time></trkpt>
<trkpt lat="29.312573" lon="100.078429">
<time>2015-08-06T06:15:18Z</time></trkpt>
<trkpt lat="29.312273" lon="100.07824">
<time>2015-08-06T06:15:19Z</time></trkpt>
<trkpt lat="29.312083" lon="100.07815">
<time>2015-08-06T06:15:20Z</time></trkpt>
<trkpt lat="29.311654" lon="100.07797">
<time>2015-08-06T06:15:21Z</time></trkpt>
<trkpt lat="29.311354" lon="100.07785">
<time>2015-08-06T06:15:22Z</time></trkpt>
<trkpt lat="29.310774" lon="100.07763">
<time>2015-08-06T06:15:23Z</time></trkpt>
<trkpt lat="29.310655" lon="100.07757">
<time>2015-08-06T06:15:24Z</time></trkpt>
<trkpt lat="29.310535" lon="100.07748">
<time>2015-08-06T06:15:25Z</time></trkpt>
<trkpt lat="29.310375" lon="100.07738">
<time>2015-08-06T06:15:26Z</time></trkpt>
<trkpt lat="29.310275" lon="100.07733">
<time>2015-08-06T06:15:27Z</time></trkpt>
<trkpt lat="29.310175" lon="100.077301">
<time>2015-08-06T06:15:28Z</time></trkpt>
<trkpt lat="29.310015" lon="100.077271">
<time>2015-08-06T06:15:29Z</time></trkpt>
<trkpt lat="29.309306" lon="100.077231">
<time>2015-08-06T06:15:30Z</time></trkpt>
<trkpt lat="29.309116" lon="100.077211">
<time>2015-08-06T06:15:31Z</time></trkpt>
<trkpt lat="29.308946" lon="100.077211">
<time>2015-08-06T06:15:32Z</time></trkpt>
<trkpt lat="29.308846" lon="100.077221">
<time>2015-08-06T06:15:33Z</time></trkpt>
<trkpt lat="29.308696" lon="100.077241">
<time>2015-08-06T06:15:34Z</time></trkpt>
<trkpt lat="29.307857" lon="100.077371">
<time>2015-08-06T06:15:35Z</time></trkpt>
<trkpt lat="29.307177" lon="100.07746">
<time>2015-08-06T06:15:36Z</time></trkpt>
<trkpt lat="29.307027" lon="100.07748">
<time>2015-08-06T06:15:37Z</time></trkpt>
<trkpt lat="29.306937" lon="100.07747">
<time>2015-08-06T06:15:38Z</time></trkpt>
<trkpt lat="29.306847" lon="100.07746">
<time>2015-08-06T06:15:39Z</time></trkpt>
<trkpt lat="29.306757" lon="100.07744">
<time>2015-08-06T06:15:40Z</time></trkpt>
<trkpt lat="29.306078" lon="100.077241">
<time>2015-08-06T06:15:41Z</time></trkpt>
<trkpt lat="29.305338" lon="100.077011">
<time>2015-08-06T06:15:42Z</time></trkpt>
<trkpt lat="29.304829" lon="100.076871">
<time>2015-08-06T06:15:43Z</time></trkpt>
<trkpt lat="29.304759" lon="100.076851">
<time>2015-08-06T06:15:44Z</time></trkpt>
<trkpt lat="29.304689" lon="100.076851">
<time>2015-08-06T06:15:45Z</time></trkpt>
<trkpt lat="29.304649" lon="100.076841">
<time>2015-08-06T06:15:46Z</time></trkpt>
<trkpt lat="29.304569" lon="100.076851">
<time>2015-08-06T06:15:47Z</time></trkpt>
<trkpt lat="29.304449" lon="100.076891">
<time>2015-08-06T06:15:48Z</time></trkpt>
<trkpt lat="29.304249" lon="100.077001">
<time>2015-08-06T06:15:49Z</time></trkpt>
<trkpt lat="29.303699" lon="100.077341">
<time>2015-08-06T06:15:50Z</time></trkpt>
<trkpt lat="29.303339" lon="100.07759">
<time>2015-08-06T06:15:51Z</time></trkpt>
<trkpt lat="29.303179" lon="100.07772">
<time>2015-08-06T06:15:52Z</time></trkpt>
<trkpt lat="29.303049" lon="100.07784">
<time>2015-08-06T06:15:53Z</time></trkpt>
<trkpt lat="29.302759" lon="100.07813">
<time>2015-08-06T06:15:54Z</time></trkpt>
<trkpt lat="29.302369" lon="100.07862">
<time>2015-08-06T06:15:55Z</time></trkpt>
<trkpt lat="29.301849" lon="100.079299">
<time>2015-08-06T06:15:56Z</time></trkpt>
<trkpt lat="29.301779" lon="100.079409">
<time>2015-08-06T06:15:57Z</time></trkpt>
<trkpt lat="29.301669" lon="100.079519">
<time>2015-08-06T06:15:58Z</time></trkpt>
<trkpt lat="29.301579" lon="100.079589">
<time>2015-08-06T06:15:59Z</time></trkpt>
<trkpt lat="29.301459" lon="100.079689">
<time>2015-08-06T06:16:00Z</time></trkpt>
<trkpt lat="29.301159" lon="100.079878">
<time>2015-08-06T06:16:01Z</time></trkpt>
<trkpt lat="29.300929" lon="100.080058">
<time>2015-08-06T06:16:02Z</time></trkpt>
<trkpt lat="29.300589" lon="100.080378">
<time>2015-08-06T06:16:03Z</time></trkpt>
<trkpt lat="29.300119" lon="100.080808">
<time>2015-08-06T06:16:04Z</time></trkpt>
<trkpt lat="29.300019" lon="100.080898">
<time>2015-08-06T06:16:05Z</time></trkpt>
<trkpt lat="29.299949" lon="100.080948">
<time>2015-08-06T06:16:06Z</time></trkpt>
<trkpt lat="29.299899" lon="100.080978">
<time>2015-08-06T06:16:07Z</time></trkpt>
<trkpt lat="29.299839" lon="100.081008">
<time>2015-08-06T06:16:08Z</time></trkpt>
<trkpt lat="29.299779" lon="100.081038">
<time>2015-08-06T06:16:09Z</time></trkpt>
<trkpt lat="29.299729" lon="100.081048">
<time>2015-08-06T06:16:10Z</time></trkpt>
<trkpt lat="29.299659" lon="100.081048">
<time>2015-08-06T06:16:11Z</time></trkpt>
<trkpt lat="29.299589" lon="100.081038">
<time>2015-08-06T06:16:12Z</time></trkpt>
<trkpt lat="29.299539" lon="100.081028">
<time>2015-08-06T06:16:13Z</time></trkpt>
<trkpt lat="29.299499" lon="100.081008">
<time>2015-08-06T06:16:14Z</time></trkpt>
<trkpt lat="29.299399" lon="100.080948">
<time>2015-08-06T06:16:15Z</time></trkpt>
<trkpt lat="29.299269" lon="100.080868">
<time>2015-08-06T06:16:16Z</time></trkpt>
<trkpt lat="29.299159" lon="100.080778">
<time>2015-08-06T06:16:17Z</time></trkpt>
<trkpt lat="29.29896" lon="100.080658">
<time>2015-08-06T06:16:18Z</time></trkpt>
<trkpt lat="29.29876" lon="100.080588">
<time>2015-08-06T06:16:19Z</time></trkpt>
<trkpt lat="29.29845" lon="100.080498">
<time>2015-08-06T06:16:20Z</time></trkpt>
<trkpt lat="29.29826" lon="100.080478">
<time>2015-08-06T06:16:21Z</time></trkpt>
<trkpt lat="29.297581" lon="100.080448">
<time>2015-08-06T06:16:22Z</time></trkpt>
<trkpt lat="29.296631" lon="100.080428">
<time>2015-08-06T06:16:23Z</time></trkpt>
<trkpt lat="29.296162" lon="100.080418">
<time>2015-08-06T06:16:24Z</time></trkpt>
<trkpt lat="29.296052" lon="100.080408">
<time>2015-08-06T06:16:25Z</time></trkpt>
<trkpt lat="29.295982" lon="100.080398">
<time>2015-08-06T06:16:26Z</time></trkpt>
<trkpt lat="29.295882" lon="100.080378">
<time>2015-08-06T06:16:27Z</time></trkpt>
<trkpt lat="29.295722" lon="100.080318">
<time>2015-08-06T06:16:28Z</time></trkpt>
<trkpt lat="29.295302" lon="100.080128">
<time>2015-08-06T06:16:29Z</time></trkpt>
<trkpt lat="29.295023" lon="100.080019">
<time>2015-08-06T06:16:30Z</time></trkpt>
<trkpt lat="29.294883" lon="100.079969">
<time>2015-08-06T06:16:31Z</time></trkpt>
<trkpt lat="29.294823" lon="100.079959">
<time>2015-08-06T06:16:32Z</time></trkpt>
<trkpt lat="29.294793" lon="100.079949">
<time>2015-08-06T06:16:33Z</time></trkpt>
<trkpt lat="29.294753" lon="100.079949">
<time>2015-08-06T06:16:34Z</time></trkpt>
<trkpt lat="29.294703" lon="100.079969">
<time>2015-08-06T06:16:35Z</time></trkpt>
<trkpt lat="29.294673" lon="100.079979">
<time>2015-08-06T06:16:36Z</time></trkpt>
<trkpt lat="29.294643" lon="100.080009">
<time>2015-08-06T06:16:37Z</time></trkpt>
<trkpt lat="29.294623" lon="100.080039">
<time>2015-08-06T06:16:38Z</time></trkpt>
<trkpt lat="29.294603" lon="100.080069">
<time>2015-08-06T06:16:39Z</time></trkpt>
<trkpt lat="29.294603" lon="100.080109">
<time>2015-08-06T06:16:40Z</time></trkpt>
<trkpt lat="29.294603" lon="100.080158">
<time>2015-08-06T06:16:41Z</time></trkpt>
<trkpt lat="29.294613" lon="100.080198">
<time>2015-08-06T06:16:42Z</time></trkpt>
<trkpt lat="29.294623" lon="100.080228">
<time>2015-08-06T06:16:43Z</time></trkpt>
<trkpt lat="29.294643" lon="100.080248">
<time>2015-08-06T06:16:44Z</time></trkpt>
<trkpt lat="29.294673" lon="100.080268">
<time>2015-08-06T06:16:45Z</time></trkpt>
<trkpt lat="29.294713" lon="100.080288">
<time>2015-08-06T06:16:46Z</time></trkpt>
<trkpt lat="29.294753" lon="100.080298">
<time>2015-08-06T06:16:47Z</time></trkpt>
<trkpt lat="29.294823" lon="100.080308">
<time>2015-08-06T06:16:48Z</time></trkpt>
<trkpt lat="29.294903" lon="100.080318">
<time>2015-08-06T06:16:49Z</time></trkpt>
<trkpt lat="29.294993" lon="100.080338">
<time>2015-08-06T06:16:50Z</time></trkpt>
<trkpt lat="29.295082" lon="100.080358">
<time>2015-08-06T06:16:51Z</time></trkpt>
<trkpt lat="29.295152" lon="100.080388">
<time>2015-08-06T06:16:52Z</time></trkpt>
<trkpt lat="29.295212" lon="100.080418">
<time>2015-08-06T06:16:53Z</time></trkpt>
<trkpt lat="29.295272" lon="100.080458">
<time>2015-08-06T06:16:54Z</time></trkpt>
<trkpt lat="29.295322" lon="100.080508">
<time>2015-08-06T06:16:55Z</time></trkpt>
<trkpt lat="29.295802" lon="100.080988">
<time>2015-08-06T06:16:56Z</time></trkpt>
<trkpt lat="29.295931" lon="100.081098">
<time>2015-08-06T06:16:57Z</time></trkpt>
<trkpt lat="29.296021" lon="100.081148">
<time>2015-08-06T06:16:58Z</time></trkpt>
<trkpt lat="29.296161" lon="100.081228">
<time>2015-08-06T06:16:59Z</time></trkpt>
<trkpt lat="29.296601" lon="100.081417">
<time>2015-08-06T06:17:00Z</time></trkpt>
<trkpt lat="29.296711" lon="100.081477">
<time>2015-08-06T06:17:01Z</time></trkpt>
<trkpt lat="29.296781" lon="100.081527">
<time>2015-08-06T06:17:02Z</time></trkpt>
<trkpt lat="29.29683" lon="100.081587">
<time>2015-08-06T06:17:03Z</time></trkpt>
<trkpt lat="29.29686" lon="100.081627">
<time>2015-08-06T06:17:04Z</time></trkpt>
<trkpt lat="29.29688" lon="100.081667">
<time>2015-08-06T06:17:05Z</time></trkpt>
<trkpt lat="29.29689" lon="100.081717">
<time>2015-08-06T06:17:06Z</time></trkpt>
<trkpt lat="29.29689" lon="100.081767">
<time>2015-08-06T06:17:07Z</time></trkpt>
<trkpt lat="29.29688" lon="100.081807">
<time>2015-08-06T06:17:08Z</time></trkpt>
<trkpt lat="29.29687" lon="100.081837">
<time>2015-08-06T06:17:09Z</time></trkpt>
<trkpt lat="29.29686" lon="100.081867">
<time>2015-08-06T06:17:10Z</time></trkpt>
<trkpt lat="29.29684" lon="100.081897">
<time>2015-08-06T06:17:11Z</time></trkpt>
<trkpt lat="29.29681" lon="100.081917">
<time>2015-08-06T06:17:12Z</time></trkpt>
<trkpt lat="29.29678" lon="100.081927">
<time>2015-08-06T06:17:13Z</time></trkpt>
<trkpt lat="29.29674" lon="100.081927">
<time>2015-08-06T06:17:14Z</time></trkpt>
<trkpt lat="29.29668" lon="100.081917">
<time>2015-08-06T06:17:15Z</time></trkpt>
<trkpt lat="29.29661" lon="100.081877">
<time>2015-08-06T06:17:16Z</time></trkpt>
<trkpt lat="29.296421" lon="100.081737">
<time>2015-08-06T06:17:17Z</time></trkpt>
<trkpt lat="29.296371" lon="100.081697">
<time>2015-08-06T06:17:18Z</time></trkpt>
<trkpt lat="29.296291" lon="100.081647">
<time>2015-08-06T06:17:19Z</time></trkpt>
<trkpt lat="29.296231" lon="100.081617">
<time>2015-08-06T06:17:20Z</time></trkpt>
<trkpt lat="29.296181" lon="100.081587">
<time>2015-08-06T06:17:21Z</time></trkpt>
<trkpt lat="29.296141" lon="100.081577">
<time>2015-08-06T06:17:22Z</time></trkpt>
<trkpt lat="29.296041" lon="100.081547">
<time>2015-08-06T06:17:23Z</time></trkpt>
<trkpt lat="29.295971" lon="100.081547">
<time>2015-08-06T06:17:24Z</time></trkpt>
<trkpt lat="29.295771" lon="100.081537">
<time>2015-08-06T06:17:25Z</time></trkpt>
<trkpt lat="29.295431" lon="100.081557">
<time>2015-08-06T06:17:26Z</time></trkpt>
<trkpt lat="29.295232" lon="100.081547">
<time>2015-08-06T06:17:27Z</time></trkpt>
<trkpt lat="29.295132" lon="100.081537">
<time>2015-08-06T06:17:28Z</time></trkpt>
<trkpt lat="29.295012" lon="100.081517">
<time>2015-08-06T06:17:29Z</time></trkpt>
<trkpt lat="29.294832" lon="100.081467">
<time>2015-08-06T06:17:30Z</time></trkpt>
<trkpt lat="29.294462" lon="100.081348">
<time>2015-08-06T06:17:31Z</time></trkpt>
<trkpt lat="29.294332" lon="100.081308">
<time>2015-08-06T06:17:32Z</time></trkpt>
<trkpt lat="29.294222" lon="100.081278">
<time>2015-08-06T06:17:33Z</time></trkpt>
<trkpt lat="29.294132" lon="100.081258">
<time>2015-08-06T06:17:34Z</time></trkpt>
<trkpt lat="29.294003" lon="100.081248">
<time>2015-08-06T06:17:35Z</time></trkpt>
<trkpt lat="29.293773" lon="100.081238">
<time>2015-08-06T06:17:36Z</time></trkpt>
<trkpt lat="29.293663" lon="100.081218">
<time>2015-08-06T06:17:37Z</time></trkpt>
<trkpt lat="29.293533" lon="100.081208">
<time>2015-08-06T06:17:38Z</time></trkpt>
<trkpt lat="29.293143" lon="100.081128">
<time>2015-08-06T06:17:39Z</time></trkpt>
<trkpt lat="29.292424" lon="100.080988">
<time>2015-08-06T06:17:40Z</time></trkpt>
<trkpt lat="29.292054" lon="100.080898">
<time>2015-08-06T06:17:41Z</time></trkpt>
<trkpt lat="29.291714" lon="100.080798">
<time>2015-08-06T06:17:42Z</time></trkpt>
<trkpt lat="29.291335" lon="100.080658">
<time>2015-08-06T06:17:43Z</time></trkpt>
<trkpt lat="29.290695" lon="100.080408">
<time>2015-08-06T06:17:44Z</time></trkpt>
<trkpt lat="29.290196" lon="100.080179">
<time>2015-08-06T06:17:45Z</time></trkpt>
<trkpt lat="29.289517" lon="100.079839">
<time>2015-08-06T06:17:46Z</time></trkpt>
<trkpt lat="29.289347" lon="100.079729">
<time>2015-08-06T06:17:47Z</time></trkpt>
<trkpt lat="29.289187" lon="100.079609">
<time>2015-08-06T06:17:48Z</time></trkpt>
<trkpt lat="29.288967" lon="100.079429">
<time>2015-08-06T06:17:49Z</time></trkpt>
<trkpt lat="29.288847" lon="100.079299">
<time>2015-08-06T06:17:50Z</time></trkpt>
<trkpt lat="29.288787" lon="100.079229">
<time>2015-08-06T06:17:51Z</time></trkpt>
<trkpt lat="29.288708" lon="100.07911">
<time>2015-08-06T06:17:52Z</time></trkpt>
<trkpt lat="29.288608" lon="100.079">
<time>2015-08-06T06:17:53Z</time></trkpt>
<trkpt lat="29.288558" lon="100.07894">
<time>2015-08-06T06:17:54Z</time></trkpt>
<trkpt lat="29.288478" lon="100.07886">
<time>2015-08-06T06:17:55Z</time></trkpt>
<trkpt lat="29.288398" lon="100.07882">
<time>2015-08-06T06:17:56Z</time></trkpt>
<trkpt lat="29.288318" lon="100.07878">
<time>2015-08-06T06:17:57Z</time></trkpt>
<trkpt lat="29.288238" lon="100.07876">
<time>2015-08-06T06:17:58Z</time></trkpt>
<trkpt lat="29.288158" lon="100.07875">
<time>2015-08-06T06:17:59Z</time></trkpt>
<trkpt lat="29.288108" lon="100.07875">
<time>2015-08-06T06:18:00Z</time></trkpt>
<trkpt lat="29.288028" lon="100.07876">
<time>2015-08-06T06:18:01Z</time></trkpt>
<trkpt lat="29.287299" lon="100.07886">
<time>2015-08-06T06:18:02Z</time></trkpt>
<trkpt lat="29.286909" lon="100.07887">
<time>2015-08-06T06:18:03Z</time></trkpt>
<trkpt lat="29.286499" lon="100.07887">
<time>2015-08-06T06:18:04Z</time></trkpt>
<trkpt lat="29.286329" lon="100.07889">
<time>2015-08-06T06:18:05Z</time></trkpt>
<trkpt lat="29.286159" lon="100.07893">
<time>2015-08-06T06:18:06Z</time></trkpt>
<trkpt lat="29.28601" lon="100.07899">
<time>2015-08-06T06:18:07Z</time></trkpt>
<trkpt lat="29.28589" lon="100.07907">
<time>2015-08-06T06:18:08Z</time></trkpt>
<trkpt lat="29.2857" lon="100.079249">
<time>2015-08-06T06:18:09Z</time></trkpt>
<trkpt lat="29.285309" lon="100.079909">
<time>2015-08-06T06:18:10Z</time></trkpt>
<trkpt lat="29.284959" lon="100.080518">
<time>2015-08-06T06:18:11Z</time></trkpt>
<trkpt lat="29.284819" lon="100.080748">
<time>2015-08-06T06:18:12Z</time></trkpt>
<trkpt lat="29.284709" lon="100.080888">
<time>2015-08-06T06:18:13Z</time></trkpt>
<trkpt lat="29.284599" lon="100.080988">
<time>2015-08-06T06:18:14Z</time></trkpt>
<trkpt lat="29.284309" lon="100.081218">
<time>2015-08-06T06:18:15Z</time></trkpt>
<trkpt lat="29.284099" lon="100.081388">
<time>2015-08-06T06:18:16Z</time></trkpt>
<trkpt lat="29.282799" lon="100.082357">
<time>2015-08-06T06:18:17Z</time></trkpt>
<trkpt lat="29.282519" lon="100.082517">
<time>2015-08-06T06:18:18Z</time></trkpt>
<trkpt lat="29.282339" lon="100.082597">
<time>2015-08-06T06:18:19Z</time></trkpt>
<trkpt lat="29.282179" lon="100.082657">
<time>2015-08-06T06:18:20Z</time></trkpt>
<trkpt lat="29.282" lon="100.082697">
<time>2015-08-06T06:18:21Z</time></trkpt>
<trkpt lat="29.28189" lon="100.082717">
<time>2015-08-06T06:18:22Z</time></trkpt>
<trkpt lat="29.28176" lon="100.082717">
<time>2015-08-06T06:18:23Z</time></trkpt>
<trkpt lat="29.28156" lon="100.082707">
<time>2015-08-06T06:18:24Z</time></trkpt>
<trkpt lat="29.2814" lon="100.082697">
<time>2015-08-06T06:18:25Z</time></trkpt>
<trkpt lat="29.28125" lon="100.082667">
<time>2015-08-06T06:18:26Z</time></trkpt>
<trkpt lat="29.28107" lon="100.082627">
<time>2015-08-06T06:18:27Z</time></trkpt>
<trkpt lat="29.28094" lon="100.082587">
<time>2015-08-06T06:18:28Z</time></trkpt>
<trkpt lat="29.28084" lon="100.082557">
<time>2015-08-06T06:18:29Z</time></trkpt>
<trkpt lat="29.280711" lon="100.082547">
<time>2015-08-06T06:18:30Z</time></trkpt>
<trkpt lat="29.280541" lon="100.082547">
<time>2015-08-06T06:18:31Z</time></trkpt>
<trkpt lat="29.280391" lon="100.082567">
<time>2015-08-06T06:18:32Z</time></trkpt>
<trkpt lat="29.280211" lon="100.082637">
<time>2015-08-06T06:18:33Z</time></trkpt>
<trkpt lat="29.279811" lon="100.082867">
<time>2015-08-06T06:18:34Z</time></trkpt>
<trkpt lat="29.279611" lon="100.082937">
<time>2015-08-06T06:18:35Z</time></trkpt>
<trkpt lat="29.279221" lon="100.083047">
<time>2015-08-06T06:18:36Z</time></trkpt>
<trkpt lat="29.278801" lon="100.083077">
<time>2015-08-06T06:18:37Z</time></trkpt>
<trkpt lat="29.277982" lon="100.083117">
<time>2015-08-06T06:18:38Z</time></trkpt>
<trkpt lat="29.277193" lon="100.083147">
<time>2015-08-06T06:18:39Z</time></trkpt>
<trkpt lat="29.276973" lon="100.083127">
<time>2015-08-06T06:18:40Z</time></trkpt>
<trkpt lat="29.276413" lon="100.083017">
<time>2015-08-06T06:18:41Z</time></trkpt>
<trkpt lat="29.276013" lon="100.082937">
<time>2015-08-06T06:18:42Z</time></trkpt>
<trkpt lat="29.275864" lon="100.082917">
<time>2015-08-06T06:18:43Z</time></trkpt>
<trkpt lat="29.275674" lon="100.082917">
<time>2015-08-06T06:18:44Z</time></trkpt>
<trkpt lat="29.275474" lon="100.082947">
<time>2015-08-06T06:18:45Z</time></trkpt>
<trkpt lat="29.274614" lon="100.083147">
<time>2015-08-06T06:18:46Z</time></trkpt>
<trkpt lat="29.273705" lon="100.083357">
<time>2015-08-06T06:18:47Z</time></trkpt>
<trkpt lat="29.273395" lon="100.083417">
<time>2015-08-06T06:18:48Z</time></trkpt>
<trkpt lat="29.273225" lon="100.083437">
<time>2015-08-06T06:18:49Z</time></trkpt>
<trkpt lat="29.273065" lon="100.083427">
<time>2015-08-06T06:18:50Z</time></trkpt>
<trkpt lat="29.272376" lon="100.083407">
<time>2015-08-06T06:18:51Z</time></trkpt>
<trkpt lat="29.272126" lon="100.083417">
<time>2015-08-06T06:18:52Z</time></trkpt>
<trkpt lat="29.271656" lon="100.083467">
<time>2015-08-06T06:18:53Z</time></trkpt>
<trkpt lat="29.271486" lon="100.083457">
<time>2015-08-06T06:18:54Z</time></trkpt>
<trkpt lat="29.271076" lon="100.083407">
<time>2015-08-06T06:18:55Z</time></trkpt>
<trkpt lat="29.269798" lon="100.083177">
<time>2015-08-06T06:18:56Z</time></trkpt>
<trkpt lat="29.269518" lon="100.083147">
<time>2015-08-06T06:18:57Z</time></trkpt>
<trkpt lat="29.269358" lon="100.083167">
<time>2015-08-06T06:18:58Z</time></trkpt>
<trkpt lat="29.268958" lon="100.083197">
<time>2015-08-06T06:18:59Z</time></trkpt>
<trkpt lat="29.268169" lon="100.083287">
<time>2015-08-06T06:19:00Z</time></trkpt>
<trkpt lat="29.267899" lon="100.083347">
<time>2015-08-06T06:19:01Z</time></trkpt>
<trkpt lat="29.267809" lon="100.083367">
<time>2015-08-06T06:19:02Z</time></trkpt>
<trkpt lat="29.267669" lon="100.083457">
<time>2015-08-06T06:19:03Z</time></trkpt>
<trkpt lat="29.267399" lon="100.083697">
<time>2015-08-06T06:19:04Z</time></trkpt>
<trkpt lat="29.266139" lon="100.085266">
<time>2015-08-06T06:19:05Z</time></trkpt>
<trkpt lat="29.265899" lon="100.085576">
<time>2015-08-06T06:19:06Z</time></trkpt>
<trkpt lat="29.265779" lon="100.085656">
<time>2015-08-06T06:19:07Z</time></trkpt>
<trkpt lat="29.265699" lon="100.085696">
<time>2015-08-06T06:19:08Z</time></trkpt>
<trkpt lat="29.265589" lon="100.085706">
<time>2015-08-06T06:19:09Z</time></trkpt>
<trkpt lat="29.265429" lon="100.085706">
<time>2015-08-06T06:19:10Z</time></trkpt>
<trkpt lat="29.26426" lon="100.085516">
<time>2015-08-06T06:19:11Z</time></trkpt>
<trkpt lat="29.263291" lon="100.085306">
<time>2015-08-06T06:19:12Z</time></trkpt>
<trkpt lat="29.262691" lon="100.085146">
<time>2015-08-06T06:19:13Z</time></trkpt>
<trkpt lat="29.262172" lon="100.085036">
<time>2015-08-06T06:19:14Z</time></trkpt>
<trkpt lat="29.261942" lon="100.085006">
<time>2015-08-06T06:19:15Z</time></trkpt>
<trkpt lat="29.261662" lon="100.084946">
<time>2015-08-06T06:19:16Z</time></trkpt>
<trkpt lat="29.261332" lon="100.084836">
<time>2015-08-06T06:19:17Z</time></trkpt>
<trkpt lat="29.260833" lon="100.084626">
<time>2015-08-06T06:19:18Z</time></trkpt>
<trkpt lat="29.259794" lon="100.084197">
<time>2015-08-06T06:19:19Z</time></trkpt>
<trkpt lat="29.259594" lon="100.084087">
<time>2015-08-06T06:19:20Z</time></trkpt>
<trkpt lat="29.259464" lon="100.083977">
<time>2015-08-06T06:19:21Z</time></trkpt>
<trkpt lat="29.259224" lon="100.083757">
<time>2015-08-06T06:19:22Z</time></trkpt>
<trkpt lat="29.258955" lon="100.083487">
<time>2015-08-06T06:19:23Z</time></trkpt>
<trkpt lat="29.258795" lon="100.083317">
<time>2015-08-06T06:19:24Z</time></trkpt>
<trkpt lat="29.258645" lon="100.083197">
<time>2015-08-06T06:19:25Z</time></trkpt>
<trkpt lat="29.258505" lon="100.083097">
<time>2015-08-06T06:19:26Z</time></trkpt>
<trkpt lat="29.258086" lon="100.082878">
<time>2015-08-06T06:19:27Z</time></trkpt>
<trkpt lat="29.257376" lon="100.082528">
<time>2015-08-06T06:19:28Z</time></trkpt>
<trkpt lat="29.256477" lon="100.082078">
<time>2015-08-06T06:19:29Z</time></trkpt>
<trkpt lat="29.256238" lon="100.081968">
<time>2015-08-06T06:19:30Z</time></trkpt>
<trkpt lat="29.256048" lon="100.081848">
<time>2015-08-06T06:19:31Z</time></trkpt>
<trkpt lat="29.255858" lon="100.081698">
<time>2015-08-06T06:19:32Z</time></trkpt>
<trkpt lat="29.255578" lon="100.081519">
<time>2015-08-06T06:19:33Z</time></trkpt>
<trkpt lat="29.255379" lon="100.081409">
<time>2015-08-06T06:19:34Z</time></trkpt>
<trkpt lat="29.255159" lon="100.081339">
<time>2015-08-06T06:19:35Z</time></trkpt>
<trkpt lat="29.254479" lon="100.081169">
<time>2015-08-06T06:19:36Z</time></trkpt>
<trkpt lat="29.25404" lon="100.081009">
<time>2015-08-06T06:19:37Z</time></trkpt>
<trkpt lat="29.25387" lon="100.080919">
<time>2015-08-06T06:19:38Z</time></trkpt>
<trkpt lat="29.25367" lon="100.080769">
<time>2015-08-06T06:19:39Z</time></trkpt>
<trkpt lat="29.253351" lon="100.080509">
<time>2015-08-06T06:19:40Z</time></trkpt>
<trkpt lat="29.252781" lon="100.0801">
<time>2015-08-06T06:19:41Z</time></trkpt>
<trkpt lat="29.252512" lon="100.07989">
<time>2015-08-06T06:19:42Z</time></trkpt>
<trkpt lat="29.252292" lon="100.07976">
<time>2015-08-06T06:19:43Z</time></trkpt>
<trkpt lat="29.252132" lon="100.0797">
<time>2015-08-06T06:19:44Z</time></trkpt>
<trkpt lat="29.251982" lon="100.07968">
<time>2015-08-06T06:19:45Z</time></trkpt>
<trkpt lat="29.251642" lon="100.07969">
<time>2015-08-06T06:19:46Z</time></trkpt>
<trkpt lat="29.251103" lon="100.07978">
<time>2015-08-06T06:19:47Z</time></trkpt>
<trkpt lat="29.250683" lon="100.07982">
<time>2015-08-06T06:19:48Z</time></trkpt>
<trkpt lat="29.250463" lon="100.07979">
<time>2015-08-06T06:19:49Z</time></trkpt>
<trkpt lat="29.250233" lon="100.07974">
<time>2015-08-06T06:19:50Z</time></trkpt>
<trkpt lat="29.250034" lon="100.07973">
<time>2015-08-06T06:19:51Z</time></trkpt>
<trkpt lat="29.249934" lon="100.07973">
<time>2015-08-06T06:19:52Z</time></trkpt>
<trkpt lat="29.249844" lon="100.07974">
<time>2015-08-06T06:19:53Z</time></trkpt>
<trkpt lat="29.249584" lon="100.07979">
<time>2015-08-06T06:19:54Z</time></trkpt>
<trkpt lat="29.249374" lon="100.07984">
<time>2015-08-06T06:19:55Z</time></trkpt>
<trkpt lat="29.249244" lon="100.07988">
<time>2015-08-06T06:19:56Z</time></trkpt>
<trkpt lat="29.249134" lon="100.07993">
<time>2015-08-06T06:19:57Z</time></trkpt>
<trkpt lat="29.249074" lon="100.07997">
<time>2015-08-06T06:19:58Z</time></trkpt>
<trkpt lat="29.249004" lon="100.08001">
<time>2015-08-06T06:19:59Z</time></trkpt>
<trkpt lat="29.248954" lon="100.08006">
<time>2015-08-06T06:20:00Z</time></trkpt>
<trkpt lat="29.248864" lon="100.08016">
<time>2015-08-06T06:20:01Z</time></trkpt>
<trkpt lat="29.248704" lon="100.08037">
<time>2015-08-06T06:20:02Z</time></trkpt>
<trkpt lat="29.248574" lon="100.080559">
<time>2015-08-06T06:20:03Z</time></trkpt>
<trkpt lat="29.248494" lon="100.080679">
<time>2015-08-06T06:20:04Z</time></trkpt>
<trkpt lat="29.248384" lon="100.080819">
<time>2015-08-06T06:20:05Z</time></trkpt>
<trkpt lat="29.248314" lon="100.080889">
<time>2015-08-06T06:20:06Z</time></trkpt>
<trkpt lat="29.248224" lon="100.080979">
<time>2015-08-06T06:20:07Z</time></trkpt>
<trkpt lat="29.248144" lon="100.081049">
<time>2015-08-06T06:20:08Z</time></trkpt>
<trkpt lat="29.248024" lon="100.081149">
<time>2015-08-06T06:20:09Z</time></trkpt>
<trkpt lat="29.247394" lon="100.081599">
<time>2015-08-06T06:20:10Z</time></trkpt>
<trkpt lat="29.246574" lon="100.082158">
<time>2015-08-06T06:20:11Z</time></trkpt>
<trkpt lat="29.246144" lon="100.082418">
<time>2015-08-06T06:20:12Z</time></trkpt>
<trkpt lat="29.245525" lon="100.082808">
<time>2015-08-06T06:20:13Z</time></trkpt>
<trkpt lat="29.244925" lon="100.083188">
<time>2015-08-06T06:20:14Z</time></trkpt>
<trkpt lat="29.244735" lon="100.083308">
<time>2015-08-06T06:20:15Z</time></trkpt>
<trkpt lat="29.244465" lon="100.083488">
<time>2015-08-06T06:20:16Z</time></trkpt>
<trkpt lat="29.243815" lon="100.083937">
<time>2015-08-06T06:20:17Z</time></trkpt>
<trkpt lat="29.243535" lon="100.084127">
<time>2015-08-06T06:20:18Z</time></trkpt>
<trkpt lat="29.243435" lon="100.084207">
<time>2015-08-06T06:20:19Z</time></trkpt>
<trkpt lat="29.243265" lon="100.084357">
<time>2015-08-06T06:20:20Z</time></trkpt>
<trkpt lat="29.243145" lon="100.084507">
<time>2015-08-06T06:20:21Z</time></trkpt>
<trkpt lat="29.243065" lon="100.084617">
<time>2015-08-06T06:20:22Z</time></trkpt>
<trkpt lat="29.242855" lon="100.084917">
<time>2015-08-06T06:20:23Z</time></trkpt>
<trkpt lat="29.242785" lon="100.085007">
<time>2015-08-06T06:20:24Z</time></trkpt>
<trkpt lat="29.242715" lon="100.085097">
<time>2015-08-06T06:20:25Z</time></trkpt>
<trkpt lat="29.242615" lon="100.085197">
<time>2015-08-06T06:20:26Z</time></trkpt>
<trkpt lat="29.242535" lon="100.085267">
<time>2015-08-06T06:20:27Z</time></trkpt>
<trkpt lat="29.242235" lon="100.085506">
<time>2015-08-06T06:20:28Z</time></trkpt>
<trkpt lat="29.242075" lon="100.085616">
<time>2015-08-06T06:20:29Z</time></trkpt>
<trkpt lat="29.242015" lon="100.085656">
<time>2015-08-06T06:20:30Z</time></trkpt>
<trkpt lat="29.241905" lon="100.085726">
<time>2015-08-06T06:20:31Z</time></trkpt>
<trkpt lat="29.241765" lon="100.085796">
<time>2015-08-06T06:20:32Z</time></trkpt>
<trkpt lat="29.241526" lon="100.085906">
<time>2015-08-06T06:20:33Z</time></trkpt>
<trkpt lat="29.241136" lon="100.086066">
<time>2015-08-06T06:20:34Z</time></trkpt>
<trkpt lat="29.241036" lon="100.086106">
<time>2015-08-06T06:20:35Z</time></trkpt>
<trkpt lat="29.240916" lon="100.086156">
<time>2015-08-06T06:20:36Z</time></trkpt>
<trkpt lat="29.240436" lon="100.086406">
<time>2015-08-06T06:20:37Z</time></trkpt>
<trkpt lat="29.239916" lon="100.086686">
<time>2015-08-06T06:20:38Z</time></trkpt>
<trkpt lat="29.238677" lon="100.087356">
<time>2015-08-06T06:20:39Z</time></trkpt>
<trkpt lat="29.238457" lon="100.087456">
<time>2015-08-06T06:20:40Z</time></trkpt>
<trkpt lat="29.238347" lon="100.087516">
<time>2015-08-06T06:20:41Z</time></trkpt>
<trkpt lat="29.238237" lon="100.087566">
<time>2015-08-06T06:20:42Z</time></trkpt>
<trkpt lat="29.238067" lon="100.087626">
<time>2015-08-06T06:20:43Z</time></trkpt>
<trkpt lat="29.237947" lon="100.087646">
<time>2015-08-06T06:20:44Z</time></trkpt>
<trkpt lat="29.237628" lon="100.087696">
<time>2015-08-06T06:20:45Z</time></trkpt>
<trkpt lat="29.237248" lon="100.087726">
<time>2015-08-06T06:20:46Z</time></trkpt>
<trkpt lat="29.236938" lon="100.087766">
<time>2015-08-06T06:20:47Z</time></trkpt>
<trkpt lat="29.236029" lon="100.087856">
<time>2015-08-06T06:20:48Z</time></trkpt>
<trkpt lat="29.235209" lon="100.087946">
<time>2015-08-06T06:20:49Z</time></trkpt>
<trkpt lat="29.23437" lon="100.088026">
<time>2015-08-06T06:20:50Z</time></trkpt>
<trkpt lat="29.23419" lon="100.088036">
<time>2015-08-06T06:20:51Z</time></trkpt>
<trkpt lat="29.23407" lon="100.088046">
<time>2015-08-06T06:20:52Z</time></trkpt>
<trkpt lat="29.23395" lon="100.088046">
<time>2015-08-06T06:20:53Z</time></trkpt>
<trkpt lat="29.2338" lon="100.088026">
<time>2015-08-06T06:20:54Z</time></trkpt>
<trkpt lat="29.23353" lon="100.088006">
<time>2015-08-06T06:20:55Z</time></trkpt>
<trkpt lat="29.23344" lon="100.087996">
<time>2015-08-06T06:20:56Z</time></trkpt>
<trkpt lat="29.233291" lon="100.088006">
<time>2015-08-06T06:20:57Z</time></trkpt>
<trkpt lat="29.233201" lon="100.088006">
<time>2015-08-06T06:20:58Z</time></trkpt>
<trkpt lat="29.232791" lon="100.088076">
<time>2015-08-06T06:20:59Z</time></trkpt>
<trkpt lat="29.232541" lon="100.088126">
<time>2015-08-06T06:21:00Z</time></trkpt>
<trkpt lat="29.232481" lon="100.088116">
<time>2015-08-06T06:21:01Z</time></trkpt>
<trkpt lat="29.232031" lon="100.088116">
<time>2015-08-06T06:21:02Z</time></trkpt>
<trkpt lat="29.231851" lon="100.088126">
<time>2015-08-06T06:21:03Z</time></trkpt>
<trkpt lat="29.231782" lon="100.088126">
<time>2015-08-06T06:21:04Z</time></trkpt>
<trkpt lat="29.231682" lon="100.088146">
<time>2015-08-06T06:21:05Z</time></trkpt>
<trkpt lat="29.231552" lon="100.088186">
<time>2015-08-06T06:21:06Z</time></trkpt>
<trkpt lat="29.231202" lon="100.088295">
<time>2015-08-06T06:21:07Z</time></trkpt>
<trkpt lat="29.230402" lon="100.088595">
<time>2015-08-06T06:21:08Z</time></trkpt>
<trkpt lat="29.229443" lon="100.088945">
<time>2015-08-06T06:21:09Z</time></trkpt>
<trkpt lat="29.229003" lon="100.089145">
<time>2015-08-06T06:21:10Z</time></trkpt>
<trkpt lat="29.228394" lon="100.089375">
<time>2015-08-06T06:21:11Z</time></trkpt>
<trkpt lat="29.227504" lon="100.089625">
<time>2015-08-06T06:21:12Z</time></trkpt>
<trkpt lat="29.226824" lon="100.089825">
<time>2015-08-06T06:21:13Z</time></trkpt>
<trkpt lat="29.226645" lon="100.089885">
<time>2015-08-06T06:21:14Z</time></trkpt>
<trkpt lat="29.226555" lon="100.089925">
<time>2015-08-06T06:21:15Z</time></trkpt>
<trkpt lat="29.226415" lon="100.089995">
<time>2015-08-06T06:21:16Z</time></trkpt>
<trkpt lat="29.226315" lon="100.090055">
<time>2015-08-06T06:21:17Z</time></trkpt>
<trkpt lat="29.226195" lon="100.090145">
<time>2015-08-06T06:21:18Z</time></trkpt>
<trkpt lat="29.225145" lon="100.091065">
<time>2015-08-06T06:21:19Z</time></trkpt>
<trkpt lat="29.224556" lon="100.091585">
<time>2015-08-06T06:21:20Z</time></trkpt>
<trkpt lat="29.223846" lon="100.092245">
<time>2015-08-06T06:21:21Z</time></trkpt>
<trkpt lat="29.222907" lon="100.093124">
<time>2015-08-06T06:21:22Z</time></trkpt>
<trkpt lat="29.222427" lon="100.093574">
<time>2015-08-06T06:21:23Z</time></trkpt>
<trkpt lat="29.221757" lon="100.094164">
<time>2015-08-06T06:21:24Z</time></trkpt>
<trkpt lat="29.220888" lon="100.094924">
<time>2015-08-06T06:21:25Z</time></trkpt>
<trkpt lat="29.220548" lon="100.095234">
<time>2015-08-06T06:21:26Z</time></trkpt>
<trkpt lat="29.220428" lon="100.095354">
<time>2015-08-06T06:21:27Z</time></trkpt>
<trkpt lat="29.220298" lon="100.095494">
<time>2015-08-06T06:21:28Z</time></trkpt>
<trkpt lat="29.220128" lon="100.095694">
<time>2015-08-06T06:21:29Z</time></trkpt>
<trkpt lat="29.219619" lon="100.096364">
<time>2015-08-06T06:21:30Z</time></trkpt>
<trkpt lat="29.219289" lon="100.096804">
<time>2015-08-06T06:21:31Z</time></trkpt>
<trkpt lat="29.219069" lon="100.097074">
<time>2015-08-06T06:21:32Z</time></trkpt>
<trkpt lat="29.218489" lon="100.097715">
<time>2015-08-06T06:21:33Z</time></trkpt>
<trkpt lat="29.21779" lon="100.098405">
<time>2015-08-06T06:21:34Z</time></trkpt>
<trkpt lat="29.21727" lon="100.098875">
<time>2015-08-06T06:21:35Z</time></trkpt>
<trkpt lat="29.216621" lon="100.099465">
<time>2015-08-06T06:21:36Z</time></trkpt>
<trkpt lat="29.215951" lon="100.100075">
<time>2015-08-06T06:21:37Z</time></trkpt>
<trkpt lat="29.215892" lon="100.100125">
<time>2015-08-06T06:21:38Z</time></trkpt>
<trkpt lat="29.215232" lon="100.100715">
<time>2015-08-06T06:21:39Z</time></trkpt>
<trkpt lat="29.214673" lon="100.101235">
<time>2015-08-06T06:21:40Z</time></trkpt>
<trkpt lat="29.214013" lon="100.101825">
<time>2015-08-06T06:21:41Z</time></trkpt>
<trkpt lat="29.213514" lon="100.102256">
<time>2015-08-06T06:21:42Z</time></trkpt>
<trkpt lat="29.213364" lon="100.102366">
<time>2015-08-06T06:21:43Z</time></trkpt>
<trkpt lat="29.213184" lon="100.102476">
<time>2015-08-06T06:21:44Z</time></trkpt>
<trkpt lat="29.212944" lon="100.102576">
<time>2015-08-06T06:21:45Z</time></trkpt>
<trkpt lat="29.212125" lon="100.102886">
<time>2015-08-06T06:21:46Z</time></trkpt>
<trkpt lat="29.211325" lon="100.103186">
<time>2015-08-06T06:21:47Z</time></trkpt>
<trkpt lat="29.210826" lon="100.103346">
<time>2015-08-06T06:21:48Z</time></trkpt>
<trkpt lat="29.210656" lon="100.103386">
<time>2015-08-06T06:21:49Z</time></trkpt>
<trkpt lat="29.210086" lon="100.103526">
<time>2015-08-06T06:21:50Z</time></trkpt>
<trkpt lat="29.209507" lon="100.103666">
<time>2015-08-06T06:21:51Z</time></trkpt>
<trkpt lat="29.208827" lon="100.103846">
<time>2015-08-06T06:21:52Z</time></trkpt>
<trkpt lat="29.207938" lon="100.104066">
<time>2015-08-06T06:21:53Z</time></trkpt>
<trkpt lat="29.206419" lon="100.104467">
<time>2015-08-06T06:21:54Z</time></trkpt>
<trkpt lat="29.20544" lon="100.104717">
<time>2015-08-06T06:21:55Z</time></trkpt>
<trkpt lat="29.204391" lon="100.104987">
<time>2015-08-06T06:21:56Z</time></trkpt>
<trkpt lat="29.203332" lon="100.105267">
<time>2015-08-06T06:21:57Z</time></trkpt>
<trkpt lat="29.202093" lon="100.105587">
<time>2015-08-06T06:21:58Z</time></trkpt>
<trkpt lat="29.200924" lon="100.105887">
<time>2015-08-06T06:21:59Z</time></trkpt>
<trkpt lat="29.199685" lon="100.106198">
<time>2015-08-06T06:22:00Z</time></trkpt>
<trkpt lat="29.198456" lon="100.106528">
<time>2015-08-06T06:22:01Z</time></trkpt>
<trkpt lat="29.196478" lon="100.107028">
<time>2015-08-06T06:22:02Z</time></trkpt>
<trkpt lat="29.195159" lon="100.107358">
<time>2015-08-06T06:22:03Z</time></trkpt>
<trkpt lat="29.194819" lon="100.107448">
<time>2015-08-06T06:22:04Z</time></trkpt>
<trkpt lat="29.194709" lon="100.107478">
<time>2015-08-06T06:22:05Z</time></trkpt>
<trkpt lat="29.194709" lon="100.107478">
<time>2015-08-06T06:22:06Z</time></trkpt>
<trkpt lat="29.191872" lon="100.108859">
<time>2015-08-06T06:22:07Z</time></trkpt>
<trkpt lat="29.191323" lon="100.10914">
<time>2015-08-06T06:22:08Z</time></trkpt>
<trkpt lat="29.190204" lon="100.10968">
<time>2015-08-06T06:22:09Z</time></trkpt>
<trkpt lat="29.189554" lon="100.11">
<time>2015-08-06T06:22:10Z</time></trkpt>
<trkpt lat="29.188825" lon="100.11037">
<time>2015-08-06T06:22:11Z</time></trkpt>
<trkpt lat="29.187636" lon="100.110971">
<time>2015-08-06T06:22:12Z</time></trkpt>
<trkpt lat="29.186268" lon="100.111641">
<time>2015-08-06T06:22:13Z</time></trkpt>
<trkpt lat="29.185478" lon="100.111982">
<time>2015-08-06T06:22:14Z</time></trkpt>
<trkpt lat="29.184809" lon="100.112262">
<time>2015-08-06T06:22:15Z</time></trkpt>
<trkpt lat="29.18439" lon="100.112432">
<time>2015-08-06T06:22:16Z</time></trkpt>
<trkpt lat="29.18351" lon="100.112782">
<time>2015-08-06T06:22:17Z</time></trkpt>
<trkpt lat="29.182382" lon="100.113233">
<time>2015-08-06T06:22:18Z</time></trkpt>
<trkpt lat="29.181622" lon="100.113553">
<time>2015-08-06T06:22:19Z</time></trkpt>
<trkpt lat="29.180583" lon="100.113973">
<time>2015-08-06T06:22:20Z</time></trkpt>
<trkpt lat="29.179844" lon="100.114264">
<time>2015-08-06T06:22:21Z</time></trkpt>
<trkpt lat="29.179115" lon="100.114574">
<time>2015-08-06T06:22:22Z</time></trkpt>
<trkpt lat="29.178815" lon="100.114744">
<time>2015-08-06T06:22:23Z</time></trkpt>
<trkpt lat="29.178735" lon="100.114804">
<time>2015-08-06T06:22:24Z</time></trkpt>
<trkpt lat="29.178566" lon="100.114944">
<time>2015-08-06T06:22:25Z</time></trkpt>
<trkpt lat="29.178476" lon="100.115034">
<time>2015-08-06T06:22:26Z</time></trkpt>
<trkpt lat="29.178126" lon="100.115485">
<time>2015-08-06T06:22:27Z</time></trkpt>
<trkpt lat="29.177418" lon="100.116446">
<time>2015-08-06T06:22:28Z</time></trkpt>
<trkpt lat="29.177068" lon="100.116946">
<time>2015-08-06T06:22:29Z</time></trkpt>
<trkpt lat="29.176989" lon="100.117086">
<time>2015-08-06T06:22:30Z</time></trkpt>
<trkpt lat="29.176869" lon="100.117317">
<time>2015-08-06T06:22:31Z</time></trkpt>
<trkpt lat="29.176699" lon="100.117607">
<time>2015-08-06T06:22:32Z</time></trkpt>
<trkpt lat="29.176639" lon="100.117707">
<time>2015-08-06T06:22:33Z</time></trkpt>
<trkpt lat="29.17654" lon="100.117827">
<time>2015-08-06T06:22:34Z</time></trkpt>
<trkpt lat="29.17642" lon="100.117947">
<time>2015-08-06T06:22:35Z</time></trkpt>
<trkpt lat="29.17616" lon="100.118137">
<time>2015-08-06T06:22:36Z</time></trkpt>
<trkpt lat="29.175281" lon="100.118788">
<time>2015-08-06T06:22:37Z</time></trkpt>
<trkpt lat="29.174373" lon="100.119469">
<time>2015-08-06T06:22:38Z</time></trkpt>
<trkpt lat="29.173584" lon="100.12006">
<time>2015-08-06T06:22:39Z</time></trkpt>
<trkpt lat="29.172635" lon="100.12078">
<time>2015-08-06T06:22:40Z</time></trkpt>
<trkpt lat="29.171796" lon="100.121411">
<time>2015-08-06T06:22:41Z</time></trkpt>
<trkpt lat="29.170828" lon="100.122132">
<time>2015-08-06T06:22:42Z</time></trkpt>
<trkpt lat="29.169989" lon="100.122763">
<time>2015-08-06T06:22:43Z</time></trkpt>
<trkpt lat="29.169021" lon="100.123484">
<time>2015-08-06T06:22:44Z</time></trkpt>
<trkpt lat="29.168062" lon="100.124205">
<time>2015-08-06T06:22:45Z</time></trkpt>
<trkpt lat="29.167213" lon="100.124836">
<time>2015-08-06T06:22:46Z</time></trkpt>
<trkpt lat="29.166954" lon="100.125046">
<time>2015-08-06T06:22:47Z</time></trkpt>
<trkpt lat="29.166704" lon="100.125236">
<time>2015-08-06T06:22:48Z</time></trkpt>
<trkpt lat="29.166465" lon="100.125416">
<time>2015-08-06T06:22:49Z</time></trkpt>
<trkpt lat="29.166265" lon="100.125607">
<time>2015-08-06T06:22:50Z</time></trkpt>
<trkpt lat="29.165926" lon="100.125987">
<time>2015-08-06T06:22:51Z</time></trkpt>
<trkpt lat="29.165447" lon="100.126658">
<time>2015-08-06T06:22:52Z</time></trkpt>
<trkpt lat="29.164689" lon="100.12776">
<time>2015-08-06T06:22:53Z</time></trkpt>
<trkpt lat="29.163941" lon="100.128851">
<time>2015-08-06T06:22:54Z</time></trkpt>
<trkpt lat="29.163083" lon="100.130103">
<time>2015-08-06T06:22:55Z</time></trkpt>
<trkpt lat="29.162285" lon="100.131275">
<time>2015-08-06T06:22:56Z</time></trkpt>
<trkpt lat="29.161537" lon="100.132336">
<time>2015-08-06T06:22:57Z</time></trkpt>
<trkpt lat="29.160609" lon="100.133668">
<time>2015-08-06T06:22:58Z</time></trkpt>
<trkpt lat="29.159712" lon="100.134971">
<time>2015-08-06T06:22:59Z</time></trkpt>
<trkpt lat="29.158356" lon="100.136954">
<time>2015-08-06T06:23:00Z</time></trkpt>
<trkpt lat="29.15687" lon="100.139108">
<time>2015-08-06T06:23:01Z</time></trkpt>
<trkpt lat="29.156441" lon="100.139669">
<time>2015-08-06T06:23:02Z</time></trkpt>
<trkpt lat="29.154765" lon="100.141652">
<time>2015-08-06T06:23:03Z</time></trkpt>
<trkpt lat="29.153219" lon="100.143456">
<time>2015-08-06T06:23:04Z</time></trkpt>
<trkpt lat="29.151454" lon="100.145479">
<time>2015-08-06T06:23:05Z</time></trkpt>
<trkpt lat="29.1492" lon="100.148105">
<time>2015-08-06T06:23:06Z</time></trkpt>
<trkpt lat="29.148741" lon="100.148646">
<time>2015-08-06T06:23:07Z</time></trkpt>
<trkpt lat="29.148343" lon="100.149097">
<time>2015-08-06T06:23:08Z</time></trkpt>
<trkpt lat="29.148153" lon="100.149277">
<time>2015-08-06T06:23:09Z</time></trkpt>
<trkpt lat="29.147943" lon="100.149457">
<time>2015-08-06T06:23:10Z</time></trkpt>
<trkpt lat="29.147674" lon="100.149658">
<time>2015-08-06T06:23:11Z</time></trkpt>
<trkpt lat="29.147395" lon="100.149858">
<time>2015-08-06T06:23:12Z</time></trkpt>
<trkpt lat="29.146985" lon="100.150129">
<time>2015-08-06T06:23:13Z</time></trkpt>
<trkpt lat="29.146486" lon="100.150429">
<time>2015-08-06T06:23:14Z</time></trkpt>
<trkpt lat="29.145997" lon="100.15073">
<time>2015-08-06T06:23:15Z</time></trkpt>
<trkpt lat="29.145708" lon="100.15094">
<time>2015-08-06T06:23:16Z</time></trkpt>
<trkpt lat="29.145558" lon="100.151091">
<time>2015-08-06T06:23:17Z</time></trkpt>
<trkpt lat="29.145438" lon="100.151231">
<time>2015-08-06T06:23:18Z</time></trkpt>
<trkpt lat="29.145169" lon="100.151592">
<time>2015-08-06T06:23:19Z</time></trkpt>
<trkpt lat="29.144781" lon="100.152153">
<time>2015-08-06T06:23:20Z</time></trkpt>
<trkpt lat="29.144093" lon="100.153105">
<time>2015-08-06T06:23:21Z</time></trkpt>
<trkpt lat="29.144003" lon="100.153205">
<time>2015-08-06T06:23:22Z</time></trkpt>
<trkpt lat="29.143843" lon="100.153385">
<time>2015-08-06T06:23:23Z</time></trkpt>
<trkpt lat="29.143724" lon="100.153496">
<time>2015-08-06T06:23:24Z</time></trkpt>
<trkpt lat="29.143514" lon="100.153656">
<time>2015-08-06T06:23:25Z</time></trkpt>
<trkpt lat="29.142656" lon="100.154217">
<time>2015-08-06T06:23:26Z</time></trkpt>
<trkpt lat="29.142326" lon="100.154448">
<time>2015-08-06T06:23:27Z</time></trkpt>
<trkpt lat="29.142137" lon="100.154598">
<time>2015-08-06T06:23:28Z</time></trkpt>
<trkpt lat="29.141977" lon="100.154748">
<time>2015-08-06T06:23:29Z</time></trkpt>
<trkpt lat="29.141588" lon="100.155159">
<time>2015-08-06T06:23:30Z</time></trkpt>
<trkpt lat="29.14105" lon="100.15574">
<time>2015-08-06T06:23:31Z</time></trkpt>
<trkpt lat="29.140701" lon="100.156121">
<time>2015-08-06T06:23:32Z</time></trkpt>
<trkpt lat="29.140541" lon="100.156321">
<time>2015-08-06T06:23:33Z</time></trkpt>
<trkpt lat="29.140442" lon="100.156492">
<time>2015-08-06T06:23:34Z</time></trkpt>
<trkpt lat="29.140382" lon="100.156662">
<time>2015-08-06T06:23:35Z</time></trkpt>
<trkpt lat="29.140352" lon="100.156802">
<time>2015-08-06T06:23:36Z</time></trkpt>
<trkpt lat="29.140342" lon="100.156943">
<time>2015-08-06T06:23:37Z</time></trkpt>
<trkpt lat="29.140323" lon="100.157233">
<time>2015-08-06T06:23:38Z</time></trkpt>
<trkpt lat="29.140293" lon="100.157434">
<time>2015-08-06T06:23:39Z</time></trkpt>
<trkpt lat="29.140264" lon="100.157564">
<time>2015-08-06T06:23:40Z</time></trkpt>
<trkpt lat="29.140125" lon="100.157965">
<time>2015-08-06T06:23:41Z</time></trkpt>
<trkpt lat="29.139955" lon="100.158306">
<time>2015-08-06T06:23:42Z</time></trkpt>
<trkpt lat="29.139905" lon="100.158376">
<time>2015-08-06T06:23:43Z</time></trkpt>
<trkpt lat="29.139866" lon="100.158426">
<time>2015-08-06T06:23:44Z</time></trkpt>
<trkpt lat="29.139786" lon="100.158496">
<time>2015-08-06T06:23:45Z</time></trkpt>
<trkpt lat="29.139666" lon="100.158586">
<time>2015-08-06T06:23:46Z</time></trkpt>
<trkpt lat="29.139367" lon="100.158767">
<time>2015-08-06T06:23:47Z</time></trkpt>
<trkpt lat="29.139057" lon="100.159007">
<time>2015-08-06T06:23:48Z</time></trkpt>
<trkpt lat="29.139017" lon="100.159047">
<time>2015-08-06T06:23:49Z</time></trkpt>
<trkpt lat="29.138858" lon="100.159208">
<time>2015-08-06T06:23:50Z</time></trkpt>
<trkpt lat="29.138718" lon="100.159398">
<time>2015-08-06T06:23:51Z</time></trkpt>
<trkpt lat="29.13831" lon="100.16014">
<time>2015-08-06T06:23:52Z</time></trkpt>
<trkpt lat="29.137911" lon="100.160801">
<time>2015-08-06T06:23:53Z</time></trkpt>
<trkpt lat="29.137533" lon="100.161412">
<time>2015-08-06T06:23:54Z</time></trkpt>
<trkpt lat="29.137403" lon="100.161583">
<time>2015-08-06T06:23:55Z</time></trkpt>
<trkpt lat="29.137134" lon="100.161903">
<time>2015-08-06T06:23:56Z</time></trkpt>
<trkpt lat="29.136994" lon="100.162084">
<time>2015-08-06T06:23:57Z</time></trkpt>
<trkpt lat="29.136865" lon="100.162304">
<time>2015-08-06T06:23:58Z</time></trkpt>
<trkpt lat="29.136795" lon="100.162485">
<time>2015-08-06T06:23:59Z</time></trkpt>
<trkpt lat="29.136756" lon="100.162615">
<time>2015-08-06T06:24:00Z</time></trkpt>
<trkpt lat="29.136716" lon="100.162835">
<time>2015-08-06T06:24:01Z</time></trkpt>
<trkpt lat="29.136677" lon="100.163246">
<time>2015-08-06T06:24:02Z</time></trkpt>
<trkpt lat="29.136657" lon="100.163366">
<time>2015-08-06T06:24:03Z</time></trkpt>
<trkpt lat="29.136637" lon="100.163467">
<time>2015-08-06T06:24:04Z</time></trkpt>
<trkpt lat="29.136608" lon="100.163557">
<time>2015-08-06T06:24:05Z</time></trkpt>
<trkpt lat="29.136548" lon="100.163727">
<time>2015-08-06T06:24:06Z</time></trkpt>
<trkpt lat="29.136478" lon="100.163888">
<time>2015-08-06T06:24:07Z</time></trkpt>
<trkpt lat="29.136399" lon="100.164088">
<time>2015-08-06T06:24:08Z</time></trkpt>
<trkpt lat="29.136329" lon="100.164248">
<time>2015-08-06T06:24:09Z</time></trkpt>
<trkpt lat="29.13615" lon="100.164549">
<time>2015-08-06T06:24:10Z</time></trkpt>
<trkpt lat="29.135891" lon="100.16492">
<time>2015-08-06T06:24:11Z</time></trkpt>
<trkpt lat="29.135632" lon="100.165311">
<time>2015-08-06T06:24:12Z</time></trkpt>
<trkpt lat="29.135492" lon="100.165591">
<time>2015-08-06T06:24:13Z</time></trkpt>
<trkpt lat="29.135373" lon="100.165932">
<time>2015-08-06T06:24:14Z</time></trkpt>
<trkpt lat="29.135254" lon="100.166373">
<time>2015-08-06T06:24:15Z</time></trkpt>
<trkpt lat="29.135195" lon="100.166714">
<time>2015-08-06T06:24:16Z</time></trkpt>
<trkpt lat="29.135126" lon="100.167205">
<time>2015-08-06T06:24:17Z</time></trkpt>
<trkpt lat="29.135066" lon="100.167475">
<time>2015-08-06T06:24:18Z</time></trkpt>
<trkpt lat="29.134967" lon="100.167766">
<time>2015-08-06T06:24:19Z</time></trkpt>
<trkpt lat="29.134629" lon="100.168678">
<time>2015-08-06T06:24:20Z</time></trkpt>
<trkpt lat="29.134549" lon="100.168919">
<time>2015-08-06T06:24:21Z</time></trkpt>
<trkpt lat="29.134539" lon="100.168949">
<time>2015-08-06T06:24:22Z</time></trkpt>
<trkpt lat="29.134529" lon="100.168979">
<time>2015-08-06T06:24:23Z</time></trkpt>
<trkpt lat="29.13451" lon="100.169079">
<time>2015-08-06T06:24:24Z</time></trkpt>
<trkpt lat="29.13449" lon="100.169129">
<time>2015-08-06T06:24:25Z</time></trkpt>
<trkpt lat="29.13447" lon="100.169279">
<time>2015-08-06T06:24:26Z</time></trkpt>
<trkpt lat="29.13446" lon="100.16939">
<time>2015-08-06T06:24:27Z</time></trkpt>
<trkpt lat="29.13446" lon="100.16944">
<time>2015-08-06T06:24:28Z</time></trkpt>
<trkpt lat="29.134441" lon="100.16976">
<time>2015-08-06T06:24:29Z</time></trkpt>
<trkpt lat="29.134432" lon="100.170121">
<time>2015-08-06T06:24:30Z</time></trkpt>
<trkpt lat="29.134422" lon="100.170332">
<time>2015-08-06T06:24:31Z</time></trkpt>
<trkpt lat="29.134413" lon="100.170743">
<time>2015-08-06T06:24:32Z</time></trkpt>
<trkpt lat="29.134394" lon="100.171564">
<time>2015-08-06T06:24:33Z</time></trkpt>
<trkpt lat="29.134365" lon="100.171965">
<time>2015-08-06T06:24:34Z</time></trkpt>
<trkpt lat="29.134345" lon="100.172085">
<time>2015-08-06T06:24:35Z</time></trkpt>
<trkpt lat="29.134306" lon="100.172216">
<time>2015-08-06T06:24:36Z</time></trkpt>
<trkpt lat="29.134186" lon="100.172556">
<time>2015-08-06T06:24:37Z</time></trkpt>
<trkpt lat="29.133997" lon="100.173007">
<time>2015-08-06T06:24:38Z</time></trkpt>
<trkpt lat="29.133928" lon="100.173148">
<time>2015-08-06T06:24:39Z</time></trkpt>
<trkpt lat="29.133599" lon="100.173709">
<time>2015-08-06T06:24:40Z</time></trkpt>
<trkpt lat="29.132742" lon="100.175122">
<time>2015-08-06T06:24:41Z</time></trkpt>
<trkpt lat="29.132503" lon="100.175513">
<time>2015-08-06T06:24:42Z</time></trkpt>
<trkpt lat="29.132284" lon="100.175894">
<time>2015-08-06T06:24:43Z</time></trkpt>
<trkpt lat="29.131996" lon="100.176555">
<time>2015-08-06T06:24:44Z</time></trkpt>
<trkpt lat="29.131558" lon="100.177718">
<time>2015-08-06T06:24:45Z</time></trkpt>
<trkpt lat="29.130673" lon="100.179822">
<time>2015-08-06T06:24:46Z</time></trkpt>
<trkpt lat="29.129657" lon="100.181927">
<time>2015-08-06T06:24:47Z</time></trkpt>
<trkpt lat="29.129299" lon="100.182548">
<time>2015-08-06T06:24:48Z</time></trkpt>
<trkpt lat="29.12878" lon="100.183239">
<time>2015-08-06T06:24:49Z</time></trkpt>
<trkpt lat="29.128172" lon="100.184001">
<time>2015-08-06T06:24:50Z</time></trkpt>
<trkpt lat="29.127574" lon="100.184723">
<time>2015-08-06T06:24:51Z</time></trkpt>
<trkpt lat="29.127035" lon="100.185234">
<time>2015-08-06T06:24:52Z</time></trkpt>
<trkpt lat="29.126437" lon="100.185775">
<time>2015-08-06T06:24:53Z</time></trkpt>
<trkpt lat="29.126347" lon="100.185875">
<time>2015-08-06T06:24:54Z</time></trkpt>
<trkpt lat="29.126148" lon="100.186146">
<time>2015-08-06T06:24:55Z</time></trkpt>
<trkpt lat="29.125988" lon="100.186426">
<time>2015-08-06T06:24:56Z</time></trkpt>
<trkpt lat="29.12547" lon="100.187368">
<time>2015-08-06T06:24:57Z</time></trkpt>
<trkpt lat="29.125003" lon="100.18845">
<time>2015-08-06T06:24:58Z</time></trkpt>
<trkpt lat="29.124844" lon="100.188921">
<time>2015-08-06T06:24:59Z</time></trkpt>
<trkpt lat="29.124664" lon="100.189342">
<time>2015-08-06T06:25:00Z</time></trkpt>
<trkpt lat="29.124356" lon="100.189843">
<time>2015-08-06T06:25:01Z</time></trkpt>
<trkpt lat="29.124186" lon="100.190154">
<time>2015-08-06T06:25:02Z</time></trkpt>
<trkpt lat="29.124007" lon="100.190555">
<time>2015-08-06T06:25:03Z</time></trkpt>
<trkpt lat="29.123778" lon="100.190935">
<time>2015-08-06T06:25:04Z</time></trkpt>
<trkpt lat="29.123728" lon="100.191015">
<time>2015-08-06T06:25:05Z</time></trkpt>
<trkpt lat="29.123549" lon="100.191226">
<time>2015-08-06T06:25:06Z</time></trkpt>
<trkpt lat="29.122651" lon="100.192208">
<time>2015-08-06T06:25:07Z</time></trkpt>
<trkpt lat="29.122571" lon="100.192308">
<time>2015-08-06T06:25:08Z</time></trkpt>
<trkpt lat="29.122491" lon="100.192418">
<time>2015-08-06T06:25:09Z</time></trkpt>
<trkpt lat="29.122412" lon="100.192569">
<time>2015-08-06T06:25:10Z</time></trkpt>
<trkpt lat="29.122332" lon="100.192769">
<time>2015-08-06T06:25:11Z</time></trkpt>
<trkpt lat="29.122282" lon="100.192899">
<time>2015-08-06T06:25:12Z</time></trkpt>
<trkpt lat="29.122213" lon="100.19319">
<time>2015-08-06T06:25:13Z</time></trkpt>
<trkpt lat="29.122054" lon="100.193911">
<time>2015-08-06T06:25:14Z</time></trkpt>
<trkpt lat="29.121995" lon="100.194081">
<time>2015-08-06T06:25:15Z</time></trkpt>
<trkpt lat="29.121915" lon="100.194252">
<time>2015-08-06T06:25:16Z</time></trkpt>
<trkpt lat="29.121805" lon="100.194402">
<time>2015-08-06T06:25:17Z</time></trkpt>
<trkpt lat="29.121666" lon="100.194562">
<time>2015-08-06T06:25:18Z</time></trkpt>
<trkpt lat="29.121287" lon="100.194983">
<time>2015-08-06T06:25:19Z</time></trkpt>
<trkpt lat="29.121167" lon="100.195133">
<time>2015-08-06T06:25:20Z</time></trkpt>
<trkpt lat="29.120998" lon="100.195404">
<time>2015-08-06T06:25:21Z</time></trkpt>
<trkpt lat="29.12048" lon="100.196406">
<time>2015-08-06T06:25:22Z</time></trkpt>
<trkpt lat="29.119514" lon="100.198289">
<time>2015-08-06T06:25:23Z</time></trkpt>
<trkpt lat="29.119364" lon="100.19856">
<time>2015-08-06T06:25:24Z</time></trkpt>
<trkpt lat="29.119244" lon="100.19872">
<time>2015-08-06T06:25:25Z</time></trkpt>
<trkpt lat="29.119025" lon="100.199001">
<time>2015-08-06T06:25:26Z</time></trkpt>
<trkpt lat="29.118935" lon="100.199111">
<time>2015-08-06T06:25:27Z</time></trkpt>
<trkpt lat="29.118835" lon="100.199211">
<time>2015-08-06T06:25:28Z</time></trkpt>
<trkpt lat="29.118696" lon="100.199331">
<time>2015-08-06T06:25:29Z</time></trkpt>
<trkpt lat="29.118606" lon="100.199381">
<time>2015-08-06T06:25:30Z</time></trkpt>
<trkpt lat="29.118276" lon="100.199562">
<time>2015-08-06T06:25:31Z</time></trkpt>
<trkpt lat="29.118037" lon="100.199692">
<time>2015-08-06T06:25:32Z</time></trkpt>
<trkpt lat="29.117657" lon="100.199892">
<time>2015-08-06T06:25:33Z</time></trkpt>
<trkpt lat="29.117538" lon="100.199962">
<time>2015-08-06T06:25:34Z</time></trkpt>
<trkpt lat="29.117348" lon="100.200103">
<time>2015-08-06T06:25:35Z</time></trkpt>
<trkpt lat="29.117188" lon="100.200243">
<time>2015-08-06T06:25:36Z</time></trkpt>
<trkpt lat="29.117099" lon="100.200333">
<time>2015-08-06T06:25:37Z</time></trkpt>
<trkpt lat="29.116939" lon="100.200533">
<time>2015-08-06T06:25:38Z</time></trkpt>
<trkpt lat="29.116869" lon="100.200644">
<time>2015-08-06T06:25:39Z</time></trkpt>
<trkpt lat="29.11678" lon="100.200804">
<time>2015-08-06T06:25:40Z</time></trkpt>
<trkpt lat="29.11675" lon="100.200894">
<time>2015-08-06T06:25:41Z</time></trkpt>
<trkpt lat="29.11666" lon="100.201125">
<time>2015-08-06T06:25:42Z</time></trkpt>
<trkpt lat="29.116422" lon="100.201916">
<time>2015-08-06T06:25:43Z</time></trkpt>
<trkpt lat="29.116223" lon="100.202557">
<time>2015-08-06T06:25:44Z</time></trkpt>
<trkpt lat="29.116193" lon="100.202727">
<time>2015-08-06T06:25:45Z</time></trkpt>
<trkpt lat="29.116173" lon="100.202828">
<time>2015-08-06T06:25:46Z</time></trkpt>
<trkpt lat="29.116144" lon="100.203078">
<time>2015-08-06T06:25:47Z</time></trkpt>
<trkpt lat="29.116144" lon="100.203459">
<time>2015-08-06T06:25:48Z</time></trkpt>
<trkpt lat="29.116145" lon="100.203739">
<time>2015-08-06T06:25:49Z</time></trkpt>
<trkpt lat="29.116145" lon="100.20423">
<time>2015-08-06T06:25:50Z</time></trkpt>
<trkpt lat="29.116135" lon="100.20438">
<time>2015-08-06T06:25:51Z</time></trkpt>
<trkpt lat="29.116106" lon="100.2046">
<time>2015-08-06T06:25:52Z</time></trkpt>
<trkpt lat="29.116076" lon="100.204821">
<time>2015-08-06T06:25:53Z</time></trkpt>
<trkpt lat="29.116047" lon="100.205091">
<time>2015-08-06T06:25:54Z</time></trkpt>
<trkpt lat="29.116037" lon="100.205442">
<time>2015-08-06T06:25:55Z</time></trkpt>
<trkpt lat="29.116048" lon="100.206063">
<time>2015-08-06T06:25:56Z</time></trkpt>
<trkpt lat="29.116048" lon="100.206444">
<time>2015-08-06T06:25:57Z</time></trkpt>
<trkpt lat="29.116039" lon="100.206894">
<time>2015-08-06T06:25:58Z</time></trkpt>
<trkpt lat="29.116039" lon="100.207044">
<time>2015-08-06T06:25:59Z</time></trkpt>
<trkpt lat="29.11603" lon="100.207255">
<time>2015-08-06T06:26:00Z</time></trkpt>
<trkpt lat="29.11602" lon="100.207345">
<time>2015-08-06T06:26:01Z</time></trkpt>
<trkpt lat="29.116" lon="100.207515">
<time>2015-08-06T06:26:02Z</time></trkpt>
<trkpt lat="29.11599" lon="100.207575">
<time>2015-08-06T06:26:03Z</time></trkpt>
<trkpt lat="29.11596" lon="100.207746">
<time>2015-08-06T06:26:04Z</time></trkpt>
<trkpt lat="29.115901" lon="100.207996">
<time>2015-08-06T06:26:05Z</time></trkpt>
<trkpt lat="29.115881" lon="100.208066">
<time>2015-08-06T06:26:06Z</time></trkpt>
<trkpt lat="29.115871" lon="100.208156">
<time>2015-08-06T06:26:07Z</time></trkpt>
<trkpt lat="29.115861" lon="100.208246">
<time>2015-08-06T06:26:08Z</time></trkpt>
<trkpt lat="29.115861" lon="100.208377">
<time>2015-08-06T06:26:09Z</time></trkpt>
<trkpt lat="29.115871" lon="100.208477">
<time>2015-08-06T06:26:10Z</time></trkpt>
<trkpt lat="29.115882" lon="100.208577">
<time>2015-08-06T06:26:11Z</time></trkpt>
<trkpt lat="29.115912" lon="100.208717">
<time>2015-08-06T06:26:12Z</time></trkpt>
<trkpt lat="29.115952" lon="100.209028">
<time>2015-08-06T06:26:13Z</time></trkpt>
<trkpt lat="29.115962" lon="100.209238">
<time>2015-08-06T06:26:14Z</time></trkpt>
<trkpt lat="29.115924" lon="100.21066">
<time>2015-08-06T06:26:15Z</time></trkpt>
<trkpt lat="29.115896" lon="100.212002">
<time>2015-08-06T06:26:16Z</time></trkpt>
<trkpt lat="29.115857" lon="100.212923">
<time>2015-08-06T06:26:17Z</time></trkpt>
<trkpt lat="29.1157" lon="100.215487">
<time>2015-08-06T06:26:18Z</time></trkpt>
<trkpt lat="29.115664" lon="100.21838">
<time>2015-08-06T06:26:19Z</time></trkpt>
<trkpt lat="29.115644" lon="100.218521">
<time>2015-08-06T06:26:20Z</time></trkpt>
<trkpt lat="29.115614" lon="100.218651">
<time>2015-08-06T06:26:21Z</time></trkpt>
<trkpt lat="29.115574" lon="100.218801">
<time>2015-08-06T06:26:22Z</time></trkpt>
<trkpt lat="29.115524" lon="100.218931">
<time>2015-08-06T06:26:23Z</time></trkpt>
<trkpt lat="29.115385" lon="100.219201">
<time>2015-08-06T06:26:24Z</time></trkpt>
<trkpt lat="29.113659" lon="100.222165">
<time>2015-08-06T06:26:25Z</time></trkpt>
<trkpt lat="29.112222" lon="100.224527">
<time>2015-08-06T06:26:26Z</time></trkpt>
<trkpt lat="29.110077" lon="100.228001">
<time>2015-08-06T06:26:27Z</time></trkpt>
<trkpt lat="29.109558" lon="100.228861">
<time>2015-08-06T06:26:28Z</time></trkpt>
<trkpt lat="29.109348" lon="100.229162">
<time>2015-08-06T06:26:29Z</time></trkpt>
<trkpt lat="29.107941" lon="100.230883">
<time>2015-08-06T06:26:30Z</time></trkpt>
<trkpt lat="29.106103" lon="100.233095">
<time>2015-08-06T06:26:31Z</time></trkpt>
<trkpt lat="29.105175" lon="100.234235">
<time>2015-08-06T06:26:32Z</time></trkpt>
<trkpt lat="29.104945" lon="100.234605">
<time>2015-08-06T06:26:33Z</time></trkpt>
<trkpt lat="29.104745" lon="100.234956">
<time>2015-08-06T06:26:34Z</time></trkpt>
<trkpt lat="29.103677" lon="100.236817">
<time>2015-08-06T06:26:35Z</time></trkpt>
<trkpt lat="29.102329" lon="100.239218">
<time>2015-08-06T06:26:36Z</time></trkpt>
<trkpt lat="29.099862" lon="100.243579">
<time>2015-08-06T06:26:37Z</time></trkpt>
<trkpt lat="29.097744" lon="100.24757">
<time>2015-08-06T06:26:38Z</time></trkpt>
<trkpt lat="29.097275" lon="100.24847">
<time>2015-08-06T06:26:39Z</time></trkpt>
<trkpt lat="29.096865" lon="100.24925">
<time>2015-08-06T06:26:40Z</time></trkpt>
<trkpt lat="29.096365" lon="100.250039">
<time>2015-08-06T06:26:41Z</time></trkpt>
<trkpt lat="29.095966" lon="100.250669">
<time>2015-08-06T06:26:42Z</time></trkpt>
<trkpt lat="29.095356" lon="100.251619">
<time>2015-08-06T06:26:43Z</time></trkpt>
<trkpt lat="29.094956" lon="100.252239">
<time>2015-08-06T06:26:44Z</time></trkpt>
<trkpt lat="29.094627" lon="100.252769">
<time>2015-08-06T06:26:45Z</time></trkpt>
<trkpt lat="29.094257" lon="100.253349">
<time>2015-08-06T06:26:46Z</time></trkpt>
<trkpt lat="29.093797" lon="100.254069">
<time>2015-08-06T06:26:47Z</time></trkpt>
<trkpt lat="29.093347" lon="100.254779">
<time>2015-08-06T06:26:48Z</time></trkpt>
<trkpt lat="29.092837" lon="100.255578">
<time>2015-08-06T06:26:49Z</time></trkpt>
<trkpt lat="29.092437" lon="100.256208">
<time>2015-08-06T06:26:50Z</time></trkpt>
<trkpt lat="29.091558" lon="100.257568">
<time>2015-08-06T06:26:51Z</time></trkpt>
<trkpt lat="29.091318" lon="100.257927">
<time>2015-08-06T06:26:52Z</time></trkpt>
<trkpt lat="29.090988" lon="100.258347">
<time>2015-08-06T06:26:53Z</time></trkpt>
<trkpt lat="29.090498" lon="100.258927">
<time>2015-08-06T06:26:54Z</time></trkpt>
<trkpt lat="29.090098" lon="100.259397">
<time>2015-08-06T06:26:55Z</time></trkpt>
<trkpt lat="29.089748" lon="100.259827">
<time>2015-08-06T06:26:56Z</time></trkpt>
<trkpt lat="29.089308" lon="100.260346">
<time>2015-08-06T06:26:57Z</time></trkpt>
<trkpt lat="29.088898" lon="100.260836">
<time>2015-08-06T06:26:58Z</time></trkpt>
<trkpt lat="29.088649" lon="100.261146">
<time>2015-08-06T06:26:59Z</time></trkpt>
<trkpt lat="29.088499" lon="100.261366">
<time>2015-08-06T06:27:00Z</time></trkpt>
<trkpt lat="29.088349" lon="100.261656">
<time>2015-08-06T06:27:01Z</time></trkpt>
<trkpt lat="29.088228" lon="100.261955">
<time>2015-08-06T06:27:02Z</time></trkpt>
<trkpt lat="29.088018" lon="100.262575">
<time>2015-08-06T06:27:03Z</time></trkpt>
<trkpt lat="29.087598" lon="100.263754">
<time>2015-08-06T06:27:04Z</time></trkpt>
<trkpt lat="29.087248" lon="100.264774">
<time>2015-08-06T06:27:05Z</time></trkpt>
<trkpt lat="29.087068" lon="100.265183">
<time>2015-08-06T06:27:06Z</time></trkpt>
<trkpt lat="29.086877" lon="100.265543">
<time>2015-08-06T06:27:07Z</time></trkpt>
<trkpt lat="29.086457" lon="100.266292">
<time>2015-08-06T06:27:08Z</time></trkpt>
<trkpt lat="29.085227" lon="100.268481">
<time>2015-08-06T06:27:09Z</time></trkpt>
<trkpt lat="29.084056" lon="100.270579">
<time>2015-08-06T06:27:10Z</time></trkpt>
<trkpt lat="29.083366" lon="100.271788">
<time>2015-08-06T06:27:11Z</time></trkpt>
<trkpt lat="29.082665" lon="100.273046">
<time>2015-08-06T06:27:12Z</time></trkpt>
<trkpt lat="29.081584" lon="100.274974">
<time>2015-08-06T06:27:13Z</time></trkpt>
<trkpt lat="29.080613" lon="100.276702">
<time>2015-08-06T06:27:14Z</time></trkpt>
<trkpt lat="29.080303" lon="100.277182">
<time>2015-08-06T06:27:15Z</time></trkpt>
<trkpt lat="29.080033" lon="100.277561">
<time>2015-08-06T06:27:16Z</time></trkpt>
<trkpt lat="29.079722" lon="100.278001">
<time>2015-08-06T06:27:17Z</time></trkpt>
<trkpt lat="29.079342" lon="100.27853">
<time>2015-08-06T06:27:18Z</time></trkpt>
<trkpt lat="29.078091" lon="100.280288">
<time>2015-08-06T06:27:19Z</time></trkpt>
<trkpt lat="29.077561" lon="100.281037">
<time>2015-08-06T06:27:20Z</time></trkpt>
<trkpt lat="29.077271" lon="100.281446">
<time>2015-08-06T06:27:21Z</time></trkpt>
<trkpt lat="29.07687" lon="100.282075">
<time>2015-08-06T06:27:22Z</time></trkpt>
<trkpt lat="29.07647" lon="100.282694">
<time>2015-08-06T06:27:23Z</time></trkpt>
<trkpt lat="29.075709" lon="100.283913">
<time>2015-08-06T06:27:24Z</time></trkpt>
<trkpt lat="29.074788" lon="100.28538">
<time>2015-08-06T06:27:25Z</time></trkpt>
<trkpt lat="29.074047" lon="100.286539">
<time>2015-08-06T06:27:26Z</time></trkpt>
<trkpt lat="29.073856" lon="100.286868">
<time>2015-08-06T06:27:27Z</time></trkpt>
<trkpt lat="29.073446" lon="100.287507">
<time>2015-08-06T06:27:28Z</time></trkpt>
<trkpt lat="29.073286" lon="100.287767">
<time>2015-08-06T06:27:29Z</time></trkpt>
<trkpt lat="29.073025" lon="100.288166">
<time>2015-08-06T06:27:30Z</time></trkpt>
<trkpt lat="29.072915" lon="100.288286">
<time>2015-08-06T06:27:31Z</time></trkpt>
<trkpt lat="29.072755" lon="100.288466">
<time>2015-08-06T06:27:32Z</time></trkpt>
<trkpt lat="29.072385" lon="100.288815">
<time>2015-08-06T06:27:33Z</time></trkpt>
<trkpt lat="29.071905" lon="100.289244">
<time>2015-08-06T06:27:34Z</time></trkpt>
<trkpt lat="29.071405" lon="100.289724">
<time>2015-08-06T06:27:35Z</time></trkpt>
<trkpt lat="29.070554" lon="100.290502">
<time>2015-08-06T06:27:36Z</time></trkpt>
<trkpt lat="29.069994" lon="100.291002">
<time>2015-08-06T06:27:37Z</time></trkpt>
<trkpt lat="29.069163" lon="100.29178">
<time>2015-08-06T06:27:38Z</time></trkpt>
<trkpt lat="29.068563" lon="100.292329">
<time>2015-08-06T06:27:39Z</time></trkpt>
<trkpt lat="29.068253" lon="100.292619">
<time>2015-08-06T06:27:40Z</time></trkpt>
<trkpt lat="29.068143" lon="100.292749">
<time>2015-08-06T06:27:41Z</time></trkpt>
<trkpt lat="29.067993" lon="100.292948">
<time>2015-08-06T06:27:42Z</time></trkpt>
<trkpt lat="29.067842" lon="100.293188">
<time>2015-08-06T06:27:43Z</time></trkpt>
<trkpt lat="29.067722" lon="100.293447">
<time>2015-08-06T06:27:44Z</time></trkpt>
<trkpt lat="29.067572" lon="100.293797">
<time>2015-08-06T06:27:45Z</time></trkpt>
<trkpt lat="29.067471" lon="100.294086">
<time>2015-08-06T06:27:46Z</time></trkpt>
<trkpt lat="29.067431" lon="100.294306">
<time>2015-08-06T06:27:47Z</time></trkpt>
<trkpt lat="29.067391" lon="100.294575">
<time>2015-08-06T06:27:48Z</time></trkpt>
<trkpt lat="29.067371" lon="100.294625">
<time>2015-08-06T06:27:49Z</time></trkpt>
<trkpt lat="29.06736" lon="100.294675">
<time>2015-08-06T06:27:50Z</time></trkpt>
<trkpt lat="29.06735" lon="100.294715">
<time>2015-08-06T06:27:51Z</time></trkpt>
<trkpt lat="29.06733" lon="100.294745">
<time>2015-08-06T06:27:52Z</time></trkpt>
<trkpt lat="29.06731" lon="100.294775">
<time>2015-08-06T06:27:53Z</time></trkpt>
<trkpt lat="29.06728" lon="100.294815">
<time>2015-08-06T06:27:54Z</time></trkpt>
<trkpt lat="29.06725" lon="100.294865">
<time>2015-08-06T06:27:55Z</time></trkpt>
<trkpt lat="29.06722" lon="100.294905">
<time>2015-08-06T06:27:56Z</time></trkpt>
<trkpt lat="29.06718" lon="100.294945">
<time>2015-08-06T06:27:57Z</time></trkpt>
<trkpt lat="29.06715" lon="100.294975">
<time>2015-08-06T06:27:58Z</time></trkpt>
<trkpt lat="29.06687" lon="100.295214">
<time>2015-08-06T06:27:59Z</time></trkpt>
<trkpt lat="29.06657" lon="100.295454">
<time>2015-08-06T06:28:00Z</time></trkpt>
<trkpt lat="29.06631" lon="100.295673">
<time>2015-08-06T06:28:01Z</time></trkpt>
<trkpt lat="29.06617" lon="100.295813">
<time>2015-08-06T06:28:02Z</time></trkpt>
<trkpt lat="29.06606" lon="100.295943">
<time>2015-08-06T06:28:03Z</time></trkpt>
<trkpt lat="29.065949" lon="100.296123">
<time>2015-08-06T06:28:04Z</time></trkpt>
<trkpt lat="29.065809" lon="100.296342">
<time>2015-08-06T06:28:05Z</time></trkpt>
<trkpt lat="29.065639" lon="100.296572">
<time>2015-08-06T06:28:06Z</time></trkpt>
<trkpt lat="29.065439" lon="100.296821">
<time>2015-08-06T06:28:07Z</time></trkpt>
<trkpt lat="29.065389" lon="100.296881">
<time>2015-08-06T06:28:08Z</time></trkpt>
<trkpt lat="29.065309" lon="100.296951">
<time>2015-08-06T06:28:09Z</time></trkpt>
<trkpt lat="29.065229" lon="100.297011">
<time>2015-08-06T06:28:10Z</time></trkpt>
<trkpt lat="29.065159" lon="100.297061">
<time>2015-08-06T06:28:11Z</time></trkpt>
<trkpt lat="29.065028" lon="100.297151">
<time>2015-08-06T06:28:12Z</time></trkpt>
<trkpt lat="29.064468" lon="100.29748">
<time>2015-08-06T06:28:13Z</time></trkpt>
<trkpt lat="29.063778" lon="100.297829">
<time>2015-08-06T06:28:14Z</time></trkpt>
<trkpt lat="29.063258" lon="100.298119">
<time>2015-08-06T06:28:15Z</time></trkpt>
<trkpt lat="29.063078" lon="100.298189">
<time>2015-08-06T06:28:16Z</time></trkpt>
<trkpt lat="29.062978" lon="100.298229">
<time>2015-08-06T06:28:17Z</time></trkpt>
<trkpt lat="29.062868" lon="100.298249">
<time>2015-08-06T06:28:18Z</time></trkpt>
<trkpt lat="29.062739" lon="100.298259">
<time>2015-08-06T06:28:19Z</time></trkpt>
<trkpt lat="29.062529" lon="100.298249">
<time>2015-08-06T06:28:20Z</time></trkpt>
<trkpt lat="29.062289" lon="100.298219">
<time>2015-08-06T06:28:21Z</time></trkpt>
<trkpt lat="29.061789" lon="100.298169">
<time>2015-08-06T06:28:22Z</time></trkpt>
<trkpt lat="29.0608" lon="100.298069">
<time>2015-08-06T06:28:23Z</time></trkpt>
<trkpt lat="29.059771" lon="100.297949">
<time>2015-08-06T06:28:24Z</time></trkpt>
<trkpt lat="29.058822" lon="100.29785">
<time>2015-08-06T06:28:25Z</time></trkpt>
<trkpt lat="29.057663" lon="100.29772">
<time>2015-08-06T06:28:26Z</time></trkpt>
<trkpt lat="29.056644" lon="100.29761">
<time>2015-08-06T06:28:27Z</time></trkpt>
<trkpt lat="29.055715" lon="100.29751">
<time>2015-08-06T06:28:28Z</time></trkpt>
<trkpt lat="29.054656" lon="100.297381">
<time>2015-08-06T06:28:29Z</time></trkpt>
<trkpt lat="29.054317" lon="100.297341">
<time>2015-08-06T06:28:30Z</time></trkpt>
<trkpt lat="29.054087" lon="100.297321">
<time>2015-08-06T06:28:31Z</time></trkpt>
<trkpt lat="29.053897" lon="100.297311">
<time>2015-08-06T06:28:32Z</time></trkpt>
<trkpt lat="29.053687" lon="100.297311">
<time>2015-08-06T06:28:33Z</time></trkpt>
<trkpt lat="29.053367" lon="100.297351">
<time>2015-08-06T06:28:34Z</time></trkpt>
<trkpt lat="29.052948" lon="100.297421">
<time>2015-08-06T06:28:35Z</time></trkpt>
<trkpt lat="29.051948" lon="100.29757">
<time>2015-08-06T06:28:36Z</time></trkpt>
<trkpt lat="29.051309" lon="100.29768">
<time>2015-08-06T06:28:37Z</time></trkpt>
<trkpt lat="29.051019" lon="100.29773">
<time>2015-08-06T06:28:38Z</time></trkpt>
<trkpt lat="29.050799" lon="100.29777">
<time>2015-08-06T06:28:39Z</time></trkpt>
<trkpt lat="29.050719" lon="100.29776">
<time>2015-08-06T06:28:40Z</time></trkpt>
<trkpt lat="29.050629" lon="100.29776">
<time>2015-08-06T06:28:41Z</time></trkpt>
<trkpt lat="29.050519" lon="100.29772">
<time>2015-08-06T06:28:42Z</time></trkpt>
<trkpt lat="29.050429" lon="100.29768">
<time>2015-08-06T06:28:43Z</time></trkpt>
<trkpt lat="29.050369" lon="100.29763">
<time>2015-08-06T06:28:44Z</time></trkpt>
<trkpt lat="29.050309" lon="100.29757">
<time>2015-08-06T06:28:45Z</time></trkpt>
<trkpt lat="29.05027" lon="100.29752">
<time>2015-08-06T06:28:46Z</time></trkpt>
<trkpt lat="29.05024" lon="100.297461">
<time>2015-08-06T06:28:47Z</time></trkpt>
<trkpt lat="29.05019" lon="100.297381">
<time>2015-08-06T06:28:48Z</time></trkpt>
<trkpt lat="29.05016" lon="100.297311">
<time>2015-08-06T06:28:49Z</time></trkpt>
<trkpt lat="29.05008" lon="100.297091">
<time>2015-08-06T06:28:50Z</time></trkpt>
<trkpt lat="29.049742" lon="100.296123">
<time>2015-08-06T06:28:51Z</time></trkpt>
<trkpt lat="29.049593" lon="100.295684">
<time>2015-08-06T06:28:52Z</time></trkpt>
<trkpt lat="29.049573" lon="100.295634">
<time>2015-08-06T06:28:53Z</time></trkpt>
<trkpt lat="29.049523" lon="100.295524">
<time>2015-08-06T06:28:54Z</time></trkpt>
<trkpt lat="29.049474" lon="100.295424">
<time>2015-08-06T06:28:55Z</time></trkpt>
<trkpt lat="29.049434" lon="100.295364">
<time>2015-08-06T06:28:56Z</time></trkpt>
<trkpt lat="29.049394" lon="100.295305">
<time>2015-08-06T06:28:57Z</time></trkpt>
<trkpt lat="29.049344" lon="100.295245">
<time>2015-08-06T06:28:58Z</time></trkpt>
<trkpt lat="29.049284" lon="100.295185">
<time>2015-08-06T06:28:59Z</time></trkpt>
<trkpt lat="29.049204" lon="100.295155">
<time>2015-08-06T06:29:00Z</time></trkpt>
<trkpt lat="29.049144" lon="100.295125">
<time>2015-08-06T06:29:01Z</time></trkpt>
<trkpt lat="29.049084" lon="100.295115">
<time>2015-08-06T06:29:02Z</time></trkpt>
<trkpt lat="29.049054" lon="100.295115">
<time>2015-08-06T06:29:03Z</time></trkpt>
<trkpt lat="29.049014" lon="100.295115">
<time>2015-08-06T06:29:04Z</time></trkpt>
<trkpt lat="29.048914" lon="100.295115">
<time>2015-08-06T06:29:05Z</time></trkpt>
<trkpt lat="29.047905" lon="100.295275">
<time>2015-08-06T06:29:06Z</time></trkpt>
<trkpt lat="29.047705" lon="100.295315">
<time>2015-08-06T06:29:07Z</time></trkpt>
<trkpt lat="29.047675" lon="100.295315">
<time>2015-08-06T06:29:08Z</time></trkpt>
<trkpt lat="29.047675" lon="100.295315">
<time>2015-08-06T06:29:09Z</time></trkpt>
<trkpt lat="29.047615" lon="100.295355">
<time>2015-08-06T06:29:10Z</time></trkpt>
<trkpt lat="29.046816" lon="100.295494">
<time>2015-08-06T06:29:11Z</time></trkpt>
<trkpt lat="29.045136" lon="100.295774">
<time>2015-08-06T06:29:12Z</time></trkpt>
<trkpt lat="29.044047" lon="100.295993">
<time>2015-08-06T06:29:13Z</time></trkpt>
<trkpt lat="29.043008" lon="100.296143">
<time>2015-08-06T06:29:14Z</time></trkpt>
<trkpt lat="29.042678" lon="100.296193">
<time>2015-08-06T06:29:15Z</time></trkpt>
<trkpt lat="29.042308" lon="100.296253">
<time>2015-08-06T06:29:16Z</time></trkpt>
<trkpt lat="29.041268" lon="100.296423">
<time>2015-08-06T06:29:17Z</time></trkpt>
<trkpt lat="29.041229" lon="100.296423">
<time>2015-08-06T06:29:18Z</time></trkpt>
<trkpt lat="29.040789" lon="100.296513">
<time>2015-08-06T06:29:19Z</time></trkpt>
<trkpt lat="29.040569" lon="100.296572">
<time>2015-08-06T06:29:20Z</time></trkpt>
<trkpt lat="29.039799" lon="100.296742">
<time>2015-08-06T06:29:21Z</time></trkpt>
<trkpt lat="29.039799" lon="100.296742">
<time>2015-08-06T06:29:22Z</time></trkpt>
<trkpt lat="29.039829" lon="100.296882">
<time>2015-08-06T06:29:23Z</time></trkpt>
<trkpt lat="29.039898" lon="100.297201">
<time>2015-08-06T06:29:24Z</time></trkpt>
<trkpt lat="29.039898" lon="100.297201">
<time>2015-08-06T06:29:25Z</time></trkpt>
<trkpt lat="29.039829" lon="100.296882">
<time>2015-08-06T06:29:26Z</time></trkpt>
<trkpt lat="29.039799" lon="100.296742">
<time>2015-08-06T06:29:27Z</time></trkpt>
<trkpt lat="29.039799" lon="100.296742">
<time>2015-08-06T06:29:28Z</time></trkpt>
<trkpt lat="29.040569" lon="100.296572">
<time>2015-08-06T06:29:29Z</time></trkpt>
<trkpt lat="29.040789" lon="100.296513">
<time>2015-08-06T06:29:30Z</time></trkpt>
<trkpt lat="29.041229" lon="100.296423">
<time>2015-08-06T06:29:31Z</time></trkpt>
<trkpt lat="29.041268" lon="100.296423">
<time>2015-08-06T06:29:32Z</time></trkpt>
<trkpt lat="29.042308" lon="100.296253">
<time>2015-08-06T06:29:33Z</time></trkpt>
<trkpt lat="29.042678" lon="100.296193">
<time>2015-08-06T06:29:34Z</time></trkpt>
<trkpt lat="29.043008" lon="100.296143">
<time>2015-08-06T06:29:35Z</time></trkpt>
<trkpt lat="29.044047" lon="100.295993">
<time>2015-08-06T06:29:36Z</time></trkpt>
<trkpt lat="29.045136" lon="100.295774">
<time>2015-08-06T06:29:37Z</time></trkpt>
<trkpt lat="29.046816" lon="100.295494">
<time>2015-08-06T06:29:38Z</time></trkpt>
<trkpt lat="29.047615" lon="100.295355">
<time>2015-08-06T06:29:39Z</time></trkpt>
<trkpt lat="29.047675" lon="100.295315">
<time>2015-08-06T06:29:40Z</time></trkpt>
<trkpt lat="29.047705" lon="100.295315">
<time>2015-08-06T06:29:41Z</time></trkpt>
<trkpt lat="29.047905" lon="100.295275">
<time>2015-08-06T06:29:42Z</time></trkpt>
<trkpt lat="29.048914" lon="100.295115">
<time>2015-08-06T06:29:43Z</time></trkpt>
<trkpt lat="29.049014" lon="100.295115">
<time>2015-08-06T06:29:44Z</time></trkpt>
<trkpt lat="29.049054" lon="100.295115">
<time>2015-08-06T06:29:45Z</time></trkpt>
<trkpt lat="29.049084" lon="100.295115">
<time>2015-08-06T06:29:46Z</time></trkpt>
<trkpt lat="29.049144" lon="100.295125">
<time>2015-08-06T06:29:47Z</time></trkpt>
<trkpt lat="29.049204" lon="100.295155">
<time>2015-08-06T06:29:48Z</time></trkpt>
<trkpt lat="29.049284" lon="100.295185">
<time>2015-08-06T06:29:49Z</time></trkpt>
<trkpt lat="29.049344" lon="100.295245">
<time>2015-08-06T06:29:50Z</time></trkpt>
<trkpt lat="29.049394" lon="100.295305">
<time>2015-08-06T06:29:51Z</time></trkpt>
<trkpt lat="29.049434" lon="100.295364">
<time>2015-08-06T06:29:52Z</time></trkpt>
<trkpt lat="29.049474" lon="100.295424">
<time>2015-08-06T06:29:53Z</time></trkpt>
<trkpt lat="29.049523" lon="100.295524">
<time>2015-08-06T06:29:54Z</time></trkpt>
<trkpt lat="29.049573" lon="100.295634">
<time>2015-08-06T06:29:55Z</time></trkpt>
<trkpt lat="29.049593" lon="100.295684">
<time>2015-08-06T06:29:56Z</time></trkpt>
<trkpt lat="29.049742" lon="100.296123">
<time>2015-08-06T06:29:57Z</time></trkpt>
<trkpt lat="29.05008" lon="100.297091">
<time>2015-08-06T06:29:58Z</time></trkpt>
<trkpt lat="29.05016" lon="100.297311">
<time>2015-08-06T06:29:59Z</time></trkpt>
<trkpt lat="29.05019" lon="100.297381">
<time>2015-08-06T06:30:00Z</time></trkpt>
<trkpt lat="29.05024" lon="100.297461">
<time>2015-08-06T06:30:01Z</time></trkpt>
<trkpt lat="29.05027" lon="100.29752">
<time>2015-08-06T06:30:02Z</time></trkpt>
<trkpt lat="29.050309" lon="100.29757">
<time>2015-08-06T06:30:03Z</time></trkpt>
<trkpt lat="29.050369" lon="100.29763">
<time>2015-08-06T06:30:04Z</time></trkpt>
<trkpt lat="29.050429" lon="100.29768">
<time>2015-08-06T06:30:05Z</time></trkpt>
<trkpt lat="29.050519" lon="100.29772">
<time>2015-08-06T06:30:06Z</time></trkpt>
<trkpt lat="29.050629" lon="100.29776">
<time>2015-08-06T06:30:07Z</time></trkpt>
<trkpt lat="29.050719" lon="100.29776">
<time>2015-08-06T06:30:08Z</time></trkpt>
<trkpt lat="29.050799" lon="100.29777">
<time>2015-08-06T06:30:09Z</time></trkpt>
<trkpt lat="29.051019" lon="100.29773">
<time>2015-08-06T06:30:10Z</time></trkpt>
<trkpt lat="29.051309" lon="100.29768">
<time>2015-08-06T06:30:11Z</time></trkpt>
<trkpt lat="29.051948" lon="100.29757">
<time>2015-08-06T06:30:12Z</time></trkpt>
<trkpt lat="29.052948" lon="100.297421">
<time>2015-08-06T06:30:13Z</time></trkpt>
<trkpt lat="29.053367" lon="100.297351">
<time>2015-08-06T06:30:14Z</time></trkpt>
<trkpt lat="29.053687" lon="100.297311">
<time>2015-08-06T06:30:15Z</time></trkpt>
<trkpt lat="29.053897" lon="100.297311">
<time>2015-08-06T06:30:16Z</time></trkpt>
<trkpt lat="29.054087" lon="100.297321">
<time>2015-08-06T06:30:17Z</time></trkpt>
<trkpt lat="29.054317" lon="100.297341">
<time>2015-08-06T06:30:18Z</time></trkpt>
<trkpt lat="29.054656" lon="100.297381">
<time>2015-08-06T06:30:19Z</time></trkpt>
<trkpt lat="29.055715" lon="100.29751">
<time>2015-08-06T06:30:20Z</time></trkpt>
<trkpt lat="29.056644" lon="100.29761">
<time>2015-08-06T06:30:21Z</time></trkpt>
<trkpt lat="29.057663" lon="100.29772">
<time>2015-08-06T06:30:22Z</time></trkpt>
<trkpt lat="29.058822" lon="100.29785">
<time>2015-08-06T06:30:23Z</time></trkpt>
<trkpt lat="29.059771" lon="100.297949">
<time>2015-08-06T06:30:24Z</time></trkpt>
<trkpt lat="29.0608" lon="100.298069">
<time>2015-08-06T06:30:25Z</time></trkpt>
<trkpt lat="29.061789" lon="100.298169">
<time>2015-08-06T06:30:26Z</time></trkpt>
<trkpt lat="29.062289" lon="100.298219">
<time>2015-08-06T06:30:27Z</time></trkpt>
<trkpt lat="29.062529" lon="100.298249">
<time>2015-08-06T06:30:28Z</time></trkpt>
<trkpt lat="29.062739" lon="100.298259">
<time>2015-08-06T06:30:29Z</time></trkpt>
<trkpt lat="29.062868" lon="100.298249">
<time>2015-08-06T06:30:30Z</time></trkpt>
<trkpt lat="29.062978" lon="100.298229">
<time>2015-08-06T06:30:31Z</time></trkpt>
<trkpt lat="29.063078" lon="100.298189">
<time>2015-08-06T06:30:32Z</time></trkpt>
<trkpt lat="29.063258" lon="100.298119">
<time>2015-08-06T06:30:33Z</time></trkpt>
<trkpt lat="29.063778" lon="100.297829">
<time>2015-08-06T06:30:34Z</time></trkpt>
<trkpt lat="29.064468" lon="100.29748">
<time>2015-08-06T06:30:35Z</time></trkpt>
<trkpt lat="29.065028" lon="100.297151">
<time>2015-08-06T06:30:36Z</time></trkpt>
<trkpt lat="29.065159" lon="100.297061">
<time>2015-08-06T06:30:37Z</time></trkpt>
<trkpt lat="29.065229" lon="100.297011">
<time>2015-08-06T06:30:38Z</time></trkpt>
<trkpt lat="29.065309" lon="100.296951">
<time>2015-08-06T06:30:39Z</time></trkpt>
<trkpt lat="29.065389" lon="100.296881">
<time>2015-08-06T06:30:40Z</time></trkpt>
<trkpt lat="29.065439" lon="100.296821">
<time>2015-08-06T06:30:41Z</time></trkpt>
<trkpt lat="29.065639" lon="100.296572">
<time>2015-08-06T06:30:42Z</time></trkpt>
<trkpt lat="29.065809" lon="100.296342">
<time>2015-08-06T06:30:43Z</time></trkpt>
<trkpt lat="29.065949" lon="100.296123">
<time>2015-08-06T06:30:44Z</time></trkpt>
<trkpt lat="29.06606" lon="100.295943">
<time>2015-08-06T06:30:45Z</time></trkpt>
<trkpt lat="29.06617" lon="100.295813">
<time>2015-08-06T06:30:46Z</time></trkpt>
<trkpt lat="29.06631" lon="100.295673">
<time>2015-08-06T06:30:47Z</time></trkpt>
<trkpt lat="29.06657" lon="100.295454">
<time>2015-08-06T06:30:48Z</time></trkpt>
<trkpt lat="29.06687" lon="100.295214">
<time>2015-08-06T06:30:49Z</time></trkpt>
<trkpt lat="29.06715" lon="100.294975">
<time>2015-08-06T06:30:50Z</time></trkpt>
<trkpt lat="29.06718" lon="100.294945">
<time>2015-08-06T06:30:51Z</time></trkpt>
<trkpt lat="29.06722" lon="100.294905">
<time>2015-08-06T06:30:52Z</time></trkpt>
<trkpt lat="29.06725" lon="100.294865">
<time>2015-08-06T06:30:53Z</time></trkpt>
<trkpt lat="29.06728" lon="100.294815">
<time>2015-08-06T06:30:54Z</time></trkpt>
<trkpt lat="29.06731" lon="100.294775">
<time>2015-08-06T06:30:55Z</time></trkpt>
<trkpt lat="29.06733" lon="100.294745">
<time>2015-08-06T06:30:56Z</time></trkpt>
<trkpt lat="29.06735" lon="100.294715">
<time>2015-08-06T06:30:57Z</time></trkpt>
<trkpt lat="29.06736" lon="100.294675">
<time>2015-08-06T06:30:58Z</time></trkpt>
<trkpt lat="29.067371" lon="100.294625">
<time>2015-08-06T06:30:59Z</time></trkpt>
<trkpt lat="29.067391" lon="100.294575">
<time>2015-08-06T06:31:00Z</time></trkpt>
<trkpt lat="29.067431" lon="100.294306">
<time>2015-08-06T06:31:01Z</time></trkpt>
<trkpt lat="29.067471" lon="100.294086">
<time>2015-08-06T06:31:02Z</time></trkpt>
<trkpt lat="29.067572" lon="100.293797">
<time>2015-08-06T06:31:03Z</time></trkpt>
<trkpt lat="29.067722" lon="100.293447">
<time>2015-08-06T06:31:04Z</time></trkpt>
<trkpt lat="29.067842" lon="100.293188">
<time>2015-08-06T06:31:05Z</time></trkpt>
<trkpt lat="29.067993" lon="100.292948">
<time>2015-08-06T06:31:06Z</time></trkpt>
<trkpt lat="29.068143" lon="100.292749">
<time>2015-08-06T06:31:07Z</time></trkpt>
<trkpt lat="29.068253" lon="100.292619">
<time>2015-08-06T06:31:08Z</time></trkpt>
<trkpt lat="29.068563" lon="100.292329">
<time>2015-08-06T06:31:09Z</time></trkpt>
<trkpt lat="29.069163" lon="100.29178">
<time>2015-08-06T06:31:10Z</time></trkpt>
<trkpt lat="29.069994" lon="100.291002">
<time>2015-08-06T06:31:11Z</time></trkpt>
<trkpt lat="29.070554" lon="100.290502">
<time>2015-08-06T06:31:12Z</time></trkpt>
<trkpt lat="29.071405" lon="100.289724">
<time>2015-08-06T06:31:13Z</time></trkpt>
<trkpt lat="29.071905" lon="100.289244">
<time>2015-08-06T06:31:14Z</time></trkpt>
<trkpt lat="29.072385" lon="100.288815">
<time>2015-08-06T06:31:15Z</time></trkpt>
<trkpt lat="29.072755" lon="100.288466">
<time>2015-08-06T06:31:16Z</time></trkpt>
<trkpt lat="29.072915" lon="100.288286">
<time>2015-08-06T06:31:17Z</time></trkpt>
<trkpt lat="29.073025" lon="100.288166">
<time>2015-08-06T06:31:18Z</time></trkpt>
<trkpt lat="29.073286" lon="100.287767">
<time>2015-08-06T06:31:19Z</time></trkpt>
<trkpt lat="29.073446" lon="100.287507">
<time>2015-08-06T06:31:20Z</time></trkpt>
<trkpt lat="29.073856" lon="100.286868">
<time>2015-08-06T06:31:21Z</time></trkpt>
<trkpt lat="29.074047" lon="100.286539">
<time>2015-08-06T06:31:22Z</time></trkpt>
<trkpt lat="29.074788" lon="100.28538">
<time>2015-08-06T06:31:23Z</time></trkpt>
<trkpt lat="29.075709" lon="100.283913">
<time>2015-08-06T06:31:24Z</time></trkpt>
<trkpt lat="29.07647" lon="100.282694">
<time>2015-08-06T06:31:25Z</time></trkpt>
<trkpt lat="29.07687" lon="100.282075">
<time>2015-08-06T06:31:26Z</time></trkpt>
<trkpt lat="29.077271" lon="100.281446">
<time>2015-08-06T06:31:27Z</time></trkpt>
<trkpt lat="29.077561" lon="100.281037">
<time>2015-08-06T06:31:28Z</time></trkpt>
<trkpt lat="29.078091" lon="100.280288">
<time>2015-08-06T06:31:29Z</time></trkpt>
<trkpt lat="29.079342" lon="100.27853">
<time>2015-08-06T06:31:30Z</time></trkpt>
<trkpt lat="29.079722" lon="100.278001">
<time>2015-08-06T06:31:31Z</time></trkpt>
<trkpt lat="29.080033" lon="100.277561">
<time>2015-08-06T06:31:32Z</time></trkpt>
<trkpt lat="29.080303" lon="100.277182">
<time>2015-08-06T06:31:33Z</time></trkpt>
<trkpt lat="29.080613" lon="100.276702">
<time>2015-08-06T06:31:34Z</time></trkpt>
<trkpt lat="29.081584" lon="100.274974">
<time>2015-08-06T06:31:35Z</time></trkpt>
<trkpt lat="29.082665" lon="100.273046">
<time>2015-08-06T06:31:36Z</time></trkpt>
<trkpt lat="29.083366" lon="100.271788">
<time>2015-08-06T06:31:37Z</time></trkpt>
<trkpt lat="29.084056" lon="100.270579">
<time>2015-08-06T06:31:38Z</time></trkpt>
<trkpt lat="29.085227" lon="100.268481">
<time>2015-08-06T06:31:39Z</time></trkpt>
<trkpt lat="29.086457" lon="100.266292">
<time>2015-08-06T06:31:40Z</time></trkpt>
<trkpt lat="29.086877" lon="100.265543">
<time>2015-08-06T06:31:41Z</time></trkpt>
<trkpt lat="29.087068" lon="100.265183">
<time>2015-08-06T06:31:42Z</time></trkpt>
<trkpt lat="29.087248" lon="100.264774">
<time>2015-08-06T06:31:43Z</time></trkpt>
<trkpt lat="29.087598" lon="100.263754">
<time>2015-08-06T06:31:44Z</time></trkpt>
<trkpt lat="29.088018" lon="100.262575">
<time>2015-08-06T06:31:45Z</time></trkpt>
<trkpt lat="29.088228" lon="100.261955">
<time>2015-08-06T06:31:46Z</time></trkpt>
<trkpt lat="29.088349" lon="100.261656">
<time>2015-08-06T06:31:47Z</time></trkpt>
<trkpt lat="29.088499" lon="100.261366">
<time>2015-08-06T06:31:48Z</time></trkpt>
<trkpt lat="29.088649" lon="100.261146">
<time>2015-08-06T06:31:49Z</time></trkpt>
<trkpt lat="29.088898" lon="100.260836">
<time>2015-08-06T06:31:50Z</time></trkpt>
<trkpt lat="29.089308" lon="100.260346">
<time>2015-08-06T06:31:51Z</time></trkpt>
<trkpt lat="29.089748" lon="100.259827">
<time>2015-08-06T06:31:52Z</time></trkpt>
<trkpt lat="29.090098" lon="100.259397">
<time>2015-08-06T06:31:53Z</time></trkpt>
<trkpt lat="29.090498" lon="100.258927">
<time>2015-08-06T06:31:54Z</time></trkpt>
<trkpt lat="29.090988" lon="100.258347">
<time>2015-08-06T06:31:55Z</time></trkpt>
<trkpt lat="29.091318" lon="100.257927">
<time>2015-08-06T06:31:56Z</time></trkpt>
<trkpt lat="29.091558" lon="100.257568">
<time>2015-08-06T06:31:57Z</time></trkpt>
<trkpt lat="29.092437" lon="100.256208">
<time>2015-08-06T06:31:58Z</time></trkpt>
<trkpt lat="29.092837" lon="100.255578">
<time>2015-08-06T06:31:59Z</time></trkpt>
<trkpt lat="29.093347" lon="100.254779">
<time>2015-08-06T06:32:00Z</time></trkpt>
<trkpt lat="29.093797" lon="100.254069">
<time>2015-08-06T06:32:01Z</time></trkpt>
<trkpt lat="29.094257" lon="100.253349">
<time>2015-08-06T06:32:02Z</time></trkpt>
<trkpt lat="29.094627" lon="100.252769">
<time>2015-08-06T06:32:03Z</time></trkpt>
<trkpt lat="29.094956" lon="100.252239">
<time>2015-08-06T06:32:04Z</time></trkpt>
<trkpt lat="29.095356" lon="100.251619">
<time>2015-08-06T06:32:05Z</time></trkpt>
<trkpt lat="29.095966" lon="100.250669">
<time>2015-08-06T06:32:06Z</time></trkpt>
<trkpt lat="29.096365" lon="100.250039">
<time>2015-08-06T06:32:07Z</time></trkpt>
<trkpt lat="29.096865" lon="100.24925">
<time>2015-08-06T06:32:08Z</time></trkpt>
<trkpt lat="29.097275" lon="100.24847">
<time>2015-08-06T06:32:09Z</time></trkpt>
<trkpt lat="29.097744" lon="100.24757">
<time>2015-08-06T06:32:10Z</time></trkpt>
<trkpt lat="29.099862" lon="100.243579">
<time>2015-08-06T06:32:11Z</time></trkpt>
<trkpt lat="29.102329" lon="100.239218">
<time>2015-08-06T06:32:12Z</time></trkpt>
<trkpt lat="29.103677" lon="100.236817">
<time>2015-08-06T06:32:13Z</time></trkpt>
<trkpt lat="29.104745" lon="100.234956">
<time>2015-08-06T06:32:14Z</time></trkpt>
<trkpt lat="29.104945" lon="100.234605">
<time>2015-08-06T06:32:15Z</time></trkpt>
<trkpt lat="29.105175" lon="100.234235">
<time>2015-08-06T06:32:16Z</time></trkpt>
<trkpt lat="29.106103" lon="100.233095">
<time>2015-08-06T06:32:17Z</time></trkpt>
<trkpt lat="29.107941" lon="100.230883">
<time>2015-08-06T06:32:18Z</time></trkpt>
<trkpt lat="29.109348" lon="100.229162">
<time>2015-08-06T06:32:19Z</time></trkpt>
<trkpt lat="29.109558" lon="100.228861">
<time>2015-08-06T06:32:20Z</time></trkpt>
<trkpt lat="29.110077" lon="100.228001">
<time>2015-08-06T06:32:21Z</time></trkpt>
<trkpt lat="29.112222" lon="100.224527">
<time>2015-08-06T06:32:22Z</time></trkpt>
<trkpt lat="29.113659" lon="100.222165">
<time>2015-08-06T06:32:23Z</time></trkpt>
<trkpt lat="29.115385" lon="100.219201">
<time>2015-08-06T06:32:24Z</time></trkpt>
<trkpt lat="29.115524" lon="100.218931">
<time>2015-08-06T06:32:25Z</time></trkpt>
<trkpt lat="29.115574" lon="100.218801">
<time>2015-08-06T06:32:26Z</time></trkpt>
<trkpt lat="29.115614" lon="100.218651">
<time>2015-08-06T06:32:27Z</time></trkpt>
<trkpt lat="29.115644" lon="100.218521">
<time>2015-08-06T06:32:28Z</time></trkpt>
<trkpt lat="29.115664" lon="100.21838">
<time>2015-08-06T06:32:29Z</time></trkpt>
<trkpt lat="29.1157" lon="100.215487">
<time>2015-08-06T06:32:30Z</time></trkpt>
<trkpt lat="29.115857" lon="100.212923">
<time>2015-08-06T06:32:31Z</time></trkpt>
<trkpt lat="29.115896" lon="100.212002">
<time>2015-08-06T06:32:32Z</time></trkpt>
<trkpt lat="29.115924" lon="100.21066">
<time>2015-08-06T06:32:33Z</time></trkpt>
<trkpt lat="29.115962" lon="100.209238">
<time>2015-08-06T06:32:34Z</time></trkpt>
<trkpt lat="29.115952" lon="100.209028">
<time>2015-08-06T06:32:35Z</time></trkpt>
<trkpt lat="29.115912" lon="100.208717">
<time>2015-08-06T06:32:36Z</time></trkpt>
<trkpt lat="29.115882" lon="100.208577">
<time>2015-08-06T06:32:37Z</time></trkpt>
<trkpt lat="29.115871" lon="100.208477">
<time>2015-08-06T06:32:38Z</time></trkpt>
<trkpt lat="29.115861" lon="100.208377">
<time>2015-08-06T06:32:39Z</time></trkpt>
<trkpt lat="29.115861" lon="100.208246">
<time>2015-08-06T06:32:40Z</time></trkpt>
<trkpt lat="29.115871" lon="100.208156">
<time>2015-08-06T06:32:41Z</time></trkpt>
<trkpt lat="29.115881" lon="100.208066">
<time>2015-08-06T06:32:42Z</time></trkpt>
<trkpt lat="29.115901" lon="100.207996">
<time>2015-08-06T06:32:43Z</time></trkpt>
<trkpt lat="29.11596" lon="100.207746">
<time>2015-08-06T06:32:44Z</time></trkpt>
<trkpt lat="29.11599" lon="100.207575">
<time>2015-08-06T06:32:45Z</time></trkpt>
<trkpt lat="29.116" lon="100.207515">
<time>2015-08-06T06:32:46Z</time></trkpt>
<trkpt lat="29.11602" lon="100.207345">
<time>2015-08-06T06:32:47Z</time></trkpt>
<trkpt lat="29.11603" lon="100.207255">
<time>2015-08-06T06:32:48Z</time></trkpt>
<trkpt lat="29.116039" lon="100.207044">
<time>2015-08-06T06:32:49Z</time></trkpt>
<trkpt lat="29.116039" lon="100.206894">
<time>2015-08-06T06:32:50Z</time></trkpt>
<trkpt lat="29.116048" lon="100.206444">
<time>2015-08-06T06:32:51Z</time></trkpt>
<trkpt lat="29.116048" lon="100.206063">
<time>2015-08-06T06:32:52Z</time></trkpt>
<trkpt lat="29.116037" lon="100.205442">
<time>2015-08-06T06:32:53Z</time></trkpt>
<trkpt lat="29.116047" lon="100.205091">
<time>2015-08-06T06:32:54Z</time></trkpt>
<trkpt lat="29.116076" lon="100.204821">
<time>2015-08-06T06:32:55Z</time></trkpt>
<trkpt lat="29.116106" lon="100.2046">
<time>2015-08-06T06:32:56Z</time></trkpt>
<trkpt lat="29.116135" lon="100.20438">
<time>2015-08-06T06:32:57Z</time></trkpt>
<trkpt lat="29.116145" lon="100.20423">
<time>2015-08-06T06:32:58Z</time></trkpt>
<trkpt lat="29.116145" lon="100.203739">
<time>2015-08-06T06:32:59Z</time></trkpt>
<trkpt lat="29.116144" lon="100.203459">
<time>2015-08-06T06:33:00Z</time></trkpt>
<trkpt lat="29.116144" lon="100.203078">
<time>2015-08-06T06:33:01Z</time></trkpt>
<trkpt lat="29.116173" lon="100.202828">
<time>2015-08-06T06:33:02Z</time></trkpt>
<trkpt lat="29.116193" lon="100.202727">
<time>2015-08-06T06:33:03Z</time></trkpt>
<trkpt lat="29.116223" lon="100.202557">
<time>2015-08-06T06:33:04Z</time></trkpt>
<trkpt lat="29.116422" lon="100.201916">
<time>2015-08-06T06:33:05Z</time></trkpt>
<trkpt lat="29.11666" lon="100.201125">
<time>2015-08-06T06:33:06Z</time></trkpt>
<trkpt lat="29.11675" lon="100.200894">
<time>2015-08-06T06:33:07Z</time></trkpt>
<trkpt lat="29.11678" lon="100.200804">
<time>2015-08-06T06:33:08Z</time></trkpt>
<trkpt lat="29.116869" lon="100.200644">
<time>2015-08-06T06:33:09Z</time></trkpt>
<trkpt lat="29.116939" lon="100.200533">
<time>2015-08-06T06:33:10Z</time></trkpt>
<trkpt lat="29.117099" lon="100.200333">
<time>2015-08-06T06:33:11Z</time></trkpt>
<trkpt lat="29.117188" lon="100.200243">
<time>2015-08-06T06:33:12Z</time></trkpt>
<trkpt lat="29.117348" lon="100.200103">
<time>2015-08-06T06:33:13Z</time></trkpt>
<trkpt lat="29.117538" lon="100.199962">
<time>2015-08-06T06:33:14Z</time></trkpt>
<trkpt lat="29.117657" lon="100.199892">
<time>2015-08-06T06:33:15Z</time></trkpt>
<trkpt lat="29.118037" lon="100.199692">
<time>2015-08-06T06:33:16Z</time></trkpt>
<trkpt lat="29.118276" lon="100.199562">
<time>2015-08-06T06:33:17Z</time></trkpt>
<trkpt lat="29.118606" lon="100.199381">
<time>2015-08-06T06:33:18Z</time></trkpt>
<trkpt lat="29.118696" lon="100.199331">
<time>2015-08-06T06:33:19Z</time></trkpt>
<trkpt lat="29.118835" lon="100.199211">
<time>2015-08-06T06:33:20Z</time></trkpt>
<trkpt lat="29.118935" lon="100.199111">
<time>2015-08-06T06:33:21Z</time></trkpt>
<trkpt lat="29.119025" lon="100.199001">
<time>2015-08-06T06:33:22Z</time></trkpt>
<trkpt lat="29.119244" lon="100.19872">
<time>2015-08-06T06:33:23Z</time></trkpt>
<trkpt lat="29.119364" lon="100.19856">
<time>2015-08-06T06:33:24Z</time></trkpt>
<trkpt lat="29.119514" lon="100.198289">
<time>2015-08-06T06:33:25Z</time></trkpt>
<trkpt lat="29.12048" lon="100.196406">
<time>2015-08-06T06:33:26Z</time></trkpt>
<trkpt lat="29.120998" lon="100.195404">
<time>2015-08-06T06:33:27Z</time></trkpt>
<trkpt lat="29.121167" lon="100.195133">
<time>2015-08-06T06:33:28Z</time></trkpt>
<trkpt lat="29.121287" lon="100.194983">
<time>2015-08-06T06:33:29Z</time></trkpt>
<trkpt lat="29.121666" lon="100.194562">
<time>2015-08-06T06:33:30Z</time></trkpt>
<trkpt lat="29.121805" lon="100.194402">
<time>2015-08-06T06:33:31Z</time></trkpt>
<trkpt lat="29.121915" lon="100.194252">
<time>2015-08-06T06:33:32Z</time></trkpt>
<trkpt lat="29.121995" lon="100.194081">
<time>2015-08-06T06:33:33Z</time></trkpt>
<trkpt lat="29.122054" lon="100.193911">
<time>2015-08-06T06:33:34Z</time></trkpt>
<trkpt lat="29.122213" lon="100.19319">
<time>2015-08-06T06:33:35Z</time></trkpt>
<trkpt lat="29.122282" lon="100.192899">
<time>2015-08-06T06:33:36Z</time></trkpt>
<trkpt lat="29.122332" lon="100.192769">
<time>2015-08-06T06:33:37Z</time></trkpt>
<trkpt lat="29.122412" lon="100.192569">
<time>2015-08-06T06:33:38Z</time></trkpt>
<trkpt lat="29.122491" lon="100.192418">
<time>2015-08-06T06:33:39Z</time></trkpt>
<trkpt lat="29.122571" lon="100.192308">
<time>2015-08-06T06:33:40Z</time></trkpt>
<trkpt lat="29.122651" lon="100.192208">
<time>2015-08-06T06:33:41Z</time></trkpt>
<trkpt lat="29.123549" lon="100.191226">
<time>2015-08-06T06:33:42Z</time></trkpt>
<trkpt lat="29.123728" lon="100.191015">
<time>2015-08-06T06:33:43Z</time></trkpt>
<trkpt lat="29.123778" lon="100.190935">
<time>2015-08-06T06:33:44Z</time></trkpt>
<trkpt lat="29.124007" lon="100.190555">
<time>2015-08-06T06:33:45Z</time></trkpt>
<trkpt lat="29.124186" lon="100.190154">
<time>2015-08-06T06:33:46Z</time></trkpt>
<trkpt lat="29.124356" lon="100.189843">
<time>2015-08-06T06:33:47Z</time></trkpt>
<trkpt lat="29.124664" lon="100.189342">
<time>2015-08-06T06:33:48Z</time></trkpt>
<trkpt lat="29.124844" lon="100.188921">
<time>2015-08-06T06:33:49Z</time></trkpt>
<trkpt lat="29.125003" lon="100.18845">
<time>2015-08-06T06:33:50Z</time></trkpt>
<trkpt lat="29.12547" lon="100.187368">
<time>2015-08-06T06:33:51Z</time></trkpt>
<trkpt lat="29.125988" lon="100.186426">
<time>2015-08-06T06:33:52Z</time></trkpt>
<trkpt lat="29.126148" lon="100.186146">
<time>2015-08-06T06:33:53Z</time></trkpt>
<trkpt lat="29.126347" lon="100.185875">
<time>2015-08-06T06:33:54Z</time></trkpt>
<trkpt lat="29.126437" lon="100.185775">
<time>2015-08-06T06:33:55Z</time></trkpt>
<trkpt lat="29.127035" lon="100.185234">
<time>2015-08-06T06:33:56Z</time></trkpt>
<trkpt lat="29.127574" lon="100.184723">
<time>2015-08-06T06:33:57Z</time></trkpt>
<trkpt lat="29.128172" lon="100.184001">
<time>2015-08-06T06:33:58Z</time></trkpt>
<trkpt lat="29.12878" lon="100.183239">
<time>2015-08-06T06:33:59Z</time></trkpt>
<trkpt lat="29.129299" lon="100.182548">
<time>2015-08-06T06:34:00Z</time></trkpt>
<trkpt lat="29.129657" lon="100.181927">
<time>2015-08-06T06:34:01Z</time></trkpt>
<trkpt lat="29.130673" lon="100.179822">
<time>2015-08-06T06:34:02Z</time></trkpt>
<trkpt lat="29.131558" lon="100.177718">
<time>2015-08-06T06:34:03Z</time></trkpt>
<trkpt lat="29.131996" lon="100.176555">
<time>2015-08-06T06:34:04Z</time></trkpt>
<trkpt lat="29.132284" lon="100.175894">
<time>2015-08-06T06:34:05Z</time></trkpt>
<trkpt lat="29.132503" lon="100.175513">
<time>2015-08-06T06:34:06Z</time></trkpt>
<trkpt lat="29.132742" lon="100.175122">
<time>2015-08-06T06:34:07Z</time></trkpt>
<trkpt lat="29.133599" lon="100.173709">
<time>2015-08-06T06:34:08Z</time></trkpt>
<trkpt lat="29.133928" lon="100.173148">
<time>2015-08-06T06:34:09Z</time></trkpt>
<trkpt lat="29.133997" lon="100.173007">
<time>2015-08-06T06:34:10Z</time></trkpt>
<trkpt lat="29.134186" lon="100.172556">
<time>2015-08-06T06:34:11Z</time></trkpt>
<trkpt lat="29.134306" lon="100.172216">
<time>2015-08-06T06:34:12Z</time></trkpt>
<trkpt lat="29.134345" lon="100.172085">
<time>2015-08-06T06:34:13Z</time></trkpt>
<trkpt lat="29.134365" lon="100.171965">
<time>2015-08-06T06:34:14Z</time></trkpt>
<trkpt lat="29.134394" lon="100.171564">
<time>2015-08-06T06:34:15Z</time></trkpt>
<trkpt lat="29.134413" lon="100.170743">
<time>2015-08-06T06:34:16Z</time></trkpt>
<trkpt lat="29.134422" lon="100.170332">
<time>2015-08-06T06:34:17Z</time></trkpt>
<trkpt lat="29.134432" lon="100.170121">
<time>2015-08-06T06:34:18Z</time></trkpt>
<trkpt lat="29.134441" lon="100.16976">
<time>2015-08-06T06:34:19Z</time></trkpt>
<trkpt lat="29.13446" lon="100.16944">
<time>2015-08-06T06:34:20Z</time></trkpt>
<trkpt lat="29.13446" lon="100.16939">
<time>2015-08-06T06:34:21Z</time></trkpt>
<trkpt lat="29.13447" lon="100.169279">
<time>2015-08-06T06:34:22Z</time></trkpt>
<trkpt lat="29.13449" lon="100.169129">
<time>2015-08-06T06:34:23Z</time></trkpt>
<trkpt lat="29.13451" lon="100.169079">
<time>2015-08-06T06:34:24Z</time></trkpt>
<trkpt lat="29.134529" lon="100.168979">
<time>2015-08-06T06:34:25Z</time></trkpt>
<trkpt lat="29.134539" lon="100.168949">
<time>2015-08-06T06:34:26Z</time></trkpt>
<trkpt lat="29.134549" lon="100.168919">
<time>2015-08-06T06:34:27Z</time></trkpt>
<trkpt lat="29.134629" lon="100.168678">
<time>2015-08-06T06:34:28Z</time></trkpt>
<trkpt lat="29.134967" lon="100.167766">
<time>2015-08-06T06:34:29Z</time></trkpt>
<trkpt lat="29.135066" lon="100.167475">
<time>2015-08-06T06:34:30Z</time></trkpt>
<trkpt lat="29.135126" lon="100.167205">
<time>2015-08-06T06:34:31Z</time></trkpt>
<trkpt lat="29.135195" lon="100.166714">
<time>2015-08-06T06:34:32Z</time></trkpt>
<trkpt lat="29.135254" lon="100.166373">
<time>2015-08-06T06:34:33Z</time></trkpt>
<trkpt lat="29.135373" lon="100.165932">
<time>2015-08-06T06:34:34Z</time></trkpt>
<trkpt lat="29.135492" lon="100.165591">
<time>2015-08-06T06:34:35Z</time></trkpt>
<trkpt lat="29.135632" lon="100.165311">
<time>2015-08-06T06:34:36Z</time></trkpt>
<trkpt lat="29.135891" lon="100.16492">
<time>2015-08-06T06:34:37Z</time></trkpt>
<trkpt lat="29.13615" lon="100.164549">
<time>2015-08-06T06:34:38Z</time></trkpt>
<trkpt lat="29.136329" lon="100.164248">
<time>2015-08-06T06:34:39Z</time></trkpt>
<trkpt lat="29.136399" lon="100.164088">
<time>2015-08-06T06:34:40Z</time></trkpt>
<trkpt lat="29.136478" lon="100.163888">
<time>2015-08-06T06:34:41Z</time></trkpt>
<trkpt lat="29.136548" lon="100.163727">
<time>2015-08-06T06:34:42Z</time></trkpt>
<trkpt lat="29.136608" lon="100.163557">
<time>2015-08-06T06:34:43Z</time></trkpt>
<trkpt lat="29.136637" lon="100.163467">
<time>2015-08-06T06:34:44Z</time></trkpt>
<trkpt lat="29.136657" lon="100.163366">
<time>2015-08-06T06:34:45Z</time></trkpt>
<trkpt lat="29.136677" lon="100.163246">
<time>2015-08-06T06:34:46Z</time></trkpt>
<trkpt lat="29.136716" lon="100.162835">
<time>2015-08-06T06:34:47Z</time></trkpt>
<trkpt lat="29.136756" lon="100.162615">
<time>2015-08-06T06:34:48Z</time></trkpt>
<trkpt lat="29.136795" lon="100.162485">
<time>2015-08-06T06:34:49Z</time></trkpt>
<trkpt lat="29.136865" lon="100.162304">
<time>2015-08-06T06:34:50Z</time></trkpt>
<trkpt lat="29.136994" lon="100.162084">
<time>2015-08-06T06:34:51Z</time></trkpt>
<trkpt lat="29.137134" lon="100.161903">
<time>2015-08-06T06:34:52Z</time></trkpt>
<trkpt lat="29.137403" lon="100.161583">
<time>2015-08-06T06:34:53Z</time></trkpt>
<trkpt lat="29.137533" lon="100.161412">
<time>2015-08-06T06:34:54Z</time></trkpt>
<trkpt lat="29.137911" lon="100.160801">
<time>2015-08-06T06:34:55Z</time></trkpt>
<trkpt lat="29.13831" lon="100.16014">
<time>2015-08-06T06:34:56Z</time></trkpt>
<trkpt lat="29.138718" lon="100.159398">
<time>2015-08-06T06:34:57Z</time></trkpt>
<trkpt lat="29.138858" lon="100.159208">
<time>2015-08-06T06:34:58Z</time></trkpt>
<trkpt lat="29.139017" lon="100.159047">
<time>2015-08-06T06:34:59Z</time></trkpt>
<trkpt lat="29.139057" lon="100.159007">
<time>2015-08-06T06:35:00Z</time></trkpt>
<trkpt lat="29.139367" lon="100.158767">
<time>2015-08-06T06:35:01Z</time></trkpt>
<trkpt lat="29.139666" lon="100.158586">
<time>2015-08-06T06:35:02Z</time></trkpt>
<trkpt lat="29.139786" lon="100.158496">
<time>2015-08-06T06:35:03Z</time></trkpt>
<trkpt lat="29.139866" lon="100.158426">
<time>2015-08-06T06:35:04Z</time></trkpt>
<trkpt lat="29.139905" lon="100.158376">
<time>2015-08-06T06:35:05Z</time></trkpt>
<trkpt lat="29.139955" lon="100.158306">
<time>2015-08-06T06:35:06Z</time></trkpt>
<trkpt lat="29.140125" lon="100.157965">
<time>2015-08-06T06:35:07Z</time></trkpt>
<trkpt lat="29.140264" lon="100.157564">
<time>2015-08-06T06:35:08Z</time></trkpt>
<trkpt lat="29.140293" lon="100.157434">
<time>2015-08-06T06:35:09Z</time></trkpt>
<trkpt lat="29.140323" lon="100.157233">
<time>2015-08-06T06:35:10Z</time></trkpt>
<trkpt lat="29.140342" lon="100.156943">
<time>2015-08-06T06:35:11Z</time></trkpt>
<trkpt lat="29.140352" lon="100.156802">
<time>2015-08-06T06:35:12Z</time></trkpt>
<trkpt lat="29.140382" lon="100.156662">
<time>2015-08-06T06:35:13Z</time></trkpt>
<trkpt lat="29.140442" lon="100.156492">
<time>2015-08-06T06:35:14Z</time></trkpt>
<trkpt lat="29.140541" lon="100.156321">
<time>2015-08-06T06:35:15Z</time></trkpt>
<trkpt lat="29.140701" lon="100.156121">
<time>2015-08-06T06:35:16Z</time></trkpt>
<trkpt lat="29.14105" lon="100.15574">
<time>2015-08-06T06:35:17Z</time></trkpt>
<trkpt lat="29.141588" lon="100.155159">
<time>2015-08-06T06:35:18Z</time></trkpt>
<trkpt lat="29.141977" lon="100.154748">
<time>2015-08-06T06:35:19Z</time></trkpt>
<trkpt lat="29.142137" lon="100.154598">
<time>2015-08-06T06:35:20Z</time></trkpt>
<trkpt lat="29.142326" lon="100.154448">
<time>2015-08-06T06:35:21Z</time></trkpt>
<trkpt lat="29.142656" lon="100.154217">
<time>2015-08-06T06:35:22Z</time></trkpt>
<trkpt lat="29.143514" lon="100.153656">
<time>2015-08-06T06:35:23Z</time></trkpt>
<trkpt lat="29.143724" lon="100.153496">
<time>2015-08-06T06:35:24Z</time></trkpt>
<trkpt lat="29.143843" lon="100.153385">
<time>2015-08-06T06:35:25Z</time></trkpt>
<trkpt lat="29.144003" lon="100.153205">
<time>2015-08-06T06:35:26Z</time></trkpt>
<trkpt lat="29.144093" lon="100.153105">
<time>2015-08-06T06:35:27Z</time></trkpt>
<trkpt lat="29.144781" lon="100.152153">
<time>2015-08-06T06:35:28Z</time></trkpt>
<trkpt lat="29.145169" lon="100.151592">
<time>2015-08-06T06:35:29Z</time></trkpt>
<trkpt lat="29.145438" lon="100.151231">
<time>2015-08-06T06:35:30Z</time></trkpt>
<trkpt lat="29.145558" lon="100.151091">
<time>2015-08-06T06:35:31Z</time></trkpt>
<trkpt lat="29.145708" lon="100.15094">
<time>2015-08-06T06:35:32Z</time></trkpt>
<trkpt lat="29.145997" lon="100.15073">
<time>2015-08-06T06:35:33Z</time></trkpt>
<trkpt lat="29.146486" lon="100.150429">
<time>2015-08-06T06:35:34Z</time></trkpt>
<trkpt lat="29.146985" lon="100.150129">
<time>2015-08-06T06:35:35Z</time></trkpt>
<trkpt lat="29.147395" lon="100.149858">
<time>2015-08-06T06:35:36Z</time></trkpt>
<trkpt lat="29.147674" lon="100.149658">
<time>2015-08-06T06:35:37Z</time></trkpt>
<trkpt lat="29.147943" lon="100.149457">
<time>2015-08-06T06:35:38Z</time></trkpt>
<trkpt lat="29.148153" lon="100.149277">
<time>2015-08-06T06:35:39Z</time></trkpt>
<trkpt lat="29.148343" lon="100.149097">
<time>2015-08-06T06:35:40Z</time></trkpt>
<trkpt lat="29.148741" lon="100.148646">
<time>2015-08-06T06:35:41Z</time></trkpt>
<trkpt lat="29.1492" lon="100.148105">
<time>2015-08-06T06:35:42Z</time></trkpt>
<trkpt lat="29.151454" lon="100.145479">
<time>2015-08-06T06:35:43Z</time></trkpt>
<trkpt lat="29.153219" lon="100.143456">
<time>2015-08-06T06:35:44Z</time></trkpt>
<trkpt lat="29.154765" lon="100.141652">
<time>2015-08-06T06:35:45Z</time></trkpt>
<trkpt lat="29.156441" lon="100.139669">
<time>2015-08-06T06:35:46Z</time></trkpt>
<trkpt lat="29.15687" lon="100.139108">
<time>2015-08-06T06:35:47Z</time></trkpt>
<trkpt lat="29.158356" lon="100.136954">
<time>2015-08-06T06:35:48Z</time></trkpt>
<trkpt lat="29.159712" lon="100.134971">
<time>2015-08-06T06:35:49Z</time></trkpt>
<trkpt lat="29.160609" lon="100.133668">
<time>2015-08-06T06:35:50Z</time></trkpt>
<trkpt lat="29.161537" lon="100.132336">
<time>2015-08-06T06:35:51Z</time></trkpt>
<trkpt lat="29.162285" lon="100.131275">
<time>2015-08-06T06:35:52Z</time></trkpt>
<trkpt lat="29.163083" lon="100.130103">
<time>2015-08-06T06:35:53Z</time></trkpt>
<trkpt lat="29.163941" lon="100.128851">
<time>2015-08-06T06:35:54Z</time></trkpt>
<trkpt lat="29.164689" lon="100.12776">
<time>2015-08-06T06:35:55Z</time></trkpt>
<trkpt lat="29.165447" lon="100.126658">
<time>2015-08-06T06:35:56Z</time></trkpt>
<trkpt lat="29.165926" lon="100.125987">
<time>2015-08-06T06:35:57Z</time></trkpt>
<trkpt lat="29.166265" lon="100.125607">
<time>2015-08-06T06:35:58Z</time></trkpt>
<trkpt lat="29.166465" lon="100.125416">
<time>2015-08-06T06:35:59Z</time></trkpt>
<trkpt lat="29.166704" lon="100.125236">
<time>2015-08-06T06:36:00Z</time></trkpt>
<trkpt lat="29.166954" lon="100.125046">
<time>2015-08-06T06:36:01Z</time></trkpt>
<trkpt lat="29.167213" lon="100.124836">
<time>2015-08-06T06:36:02Z</time></trkpt>
<trkpt lat="29.168062" lon="100.124205">
<time>2015-08-06T06:36:03Z</time></trkpt>
<trkpt lat="29.169021" lon="100.123484">
<time>2015-08-06T06:36:04Z</time></trkpt>
<trkpt lat="29.169989" lon="100.122763">
<time>2015-08-06T06:36:05Z</time></trkpt>
<trkpt lat="29.170828" lon="100.122132">
<time>2015-08-06T06:36:06Z</time></trkpt>
<trkpt lat="29.171796" lon="100.121411">
<time>2015-08-06T06:36:07Z</time></trkpt>
<trkpt lat="29.172635" lon="100.12078">
<time>2015-08-06T06:36:08Z</time></trkpt>
<trkpt lat="29.173584" lon="100.12006">
<time>2015-08-06T06:36:09Z</time></trkpt>
<trkpt lat="29.174373" lon="100.119469">
<time>2015-08-06T06:36:10Z</time></trkpt>
<trkpt lat="29.175281" lon="100.118788">
<time>2015-08-06T06:36:11Z</time></trkpt>
<trkpt lat="29.17616" lon="100.118137">
<time>2015-08-06T06:36:12Z</time></trkpt>
<trkpt lat="29.17642" lon="100.117947">
<time>2015-08-06T06:36:13Z</time></trkpt>
<trkpt lat="29.17654" lon="100.117827">
<time>2015-08-06T06:36:14Z</time></trkpt>
<trkpt lat="29.176639" lon="100.117707">
<time>2015-08-06T06:36:15Z</time></trkpt>
<trkpt lat="29.176699" lon="100.117607">
<time>2015-08-06T06:36:16Z</time></trkpt>
<trkpt lat="29.176869" lon="100.117317">
<time>2015-08-06T06:36:17Z</time></trkpt>
<trkpt lat="29.176989" lon="100.117086">
<time>2015-08-06T06:36:18Z</time></trkpt>
<trkpt lat="29.177068" lon="100.116946">
<time>2015-08-06T06:36:19Z</time></trkpt>
<trkpt lat="29.177418" lon="100.116446">
<time>2015-08-06T06:36:20Z</time></trkpt>
<trkpt lat="29.178126" lon="100.115485">
<time>2015-08-06T06:36:21Z</time></trkpt>
<trkpt lat="29.178476" lon="100.115034">
<time>2015-08-06T06:36:22Z</time></trkpt>
<trkpt lat="29.178566" lon="100.114944">
<time>2015-08-06T06:36:23Z</time></trkpt>
<trkpt lat="29.178735" lon="100.114804">
<time>2015-08-06T06:36:24Z</time></trkpt>
<trkpt lat="29.178815" lon="100.114744">
<time>2015-08-06T06:36:25Z</time></trkpt>
<trkpt lat="29.179115" lon="100.114574">
<time>2015-08-06T06:36:26Z</time></trkpt>
<trkpt lat="29.179844" lon="100.114264">
<time>2015-08-06T06:36:27Z</time></trkpt>
<trkpt lat="29.180583" lon="100.113973">
<time>2015-08-06T06:36:28Z</time></trkpt>
<trkpt lat="29.181622" lon="100.113553">
<time>2015-08-06T06:36:29Z</time></trkpt>
<trkpt lat="29.182382" lon="100.113233">
<time>2015-08-06T06:36:30Z</time></trkpt>
<trkpt lat="29.18351" lon="100.112782">
<time>2015-08-06T06:36:31Z</time></trkpt>
<trkpt lat="29.18439" lon="100.112432">
<time>2015-08-06T06:36:32Z</time></trkpt>
<trkpt lat="29.184809" lon="100.112262">
<time>2015-08-06T06:36:33Z</time></trkpt>
<trkpt lat="29.185478" lon="100.111982">
<time>2015-08-06T06:36:34Z</time></trkpt>
<trkpt lat="29.186268" lon="100.111641">
<time>2015-08-06T06:36:35Z</time></trkpt>
<trkpt lat="29.187636" lon="100.110971">
<time>2015-08-06T06:36:36Z</time></trkpt>
<trkpt lat="29.188825" lon="100.11037">
<time>2015-08-06T06:36:37Z</time></trkpt>
<trkpt lat="29.189554" lon="100.11">
<time>2015-08-06T06:36:38Z</time></trkpt>
<trkpt lat="29.190204" lon="100.10968">
<time>2015-08-06T06:36:39Z</time></trkpt>
<trkpt lat="29.191323" lon="100.10914">
<time>2015-08-06T06:36:40Z</time></trkpt>
<trkpt lat="29.191872" lon="100.108859">
<time>2015-08-06T06:36:41Z</time></trkpt>
<trkpt lat="29.194709" lon="100.107478">
<time>2015-08-06T06:36:42Z</time></trkpt>
<trkpt lat="29.194709" lon="100.107478">
<time>2015-08-06T06:36:43Z</time></trkpt>
<trkpt lat="29.193749" lon="100.106408">
<time>2015-08-06T06:36:44Z</time></trkpt>
<trkpt lat="29.19257" lon="100.105217">
<time>2015-08-06T06:36:45Z</time></trkpt>
<trkpt lat="29.19207" lon="100.104707">
<time>2015-08-06T06:36:46Z</time></trkpt>
<trkpt lat="29.19182" lon="100.104447">
<time>2015-08-06T06:36:47Z</time></trkpt>
<trkpt lat="29.19156" lon="100.104167">
<time>2015-08-06T06:36:48Z</time></trkpt>
<trkpt lat="29.19106" lon="100.103667">
<time>2015-08-06T06:36:49Z</time></trkpt>
<trkpt lat="29.190651" lon="100.103227">
<time>2015-08-06T06:36:50Z</time></trkpt>
<trkpt lat="29.190421" lon="100.103017">
<time>2015-08-06T06:36:51Z</time></trkpt>
<trkpt lat="29.190261" lon="100.102876">
<time>2015-08-06T06:36:52Z</time></trkpt>
<trkpt lat="29.190001" lon="100.102666">
<time>2015-08-06T06:36:53Z</time></trkpt>
<trkpt lat="29.189301" lon="100.102106">
<time>2015-08-06T06:36:54Z</time></trkpt>
<trkpt lat="29.188492" lon="100.101466">
<time>2015-08-06T06:36:55Z</time></trkpt>
<trkpt lat="29.187902" lon="100.101006">
<time>2015-08-06T06:36:56Z</time></trkpt>
<trkpt lat="29.186853" lon="100.100186">
<time>2015-08-06T06:36:57Z</time></trkpt>
<trkpt lat="29.186253" lon="100.099706">
<time>2015-08-06T06:36:58Z</time></trkpt>
<trkpt lat="29.185654" lon="100.099226">
<time>2015-08-06T06:36:59Z</time></trkpt>
<trkpt lat="29.184784" lon="100.098546">
<time>2015-08-06T06:37:00Z</time></trkpt>
<trkpt lat="29.184674" lon="100.098476">
<time>2015-08-06T06:37:01Z</time></trkpt>
<trkpt lat="29.184574" lon="100.098416">
<time>2015-08-06T06:37:02Z</time></trkpt>
<trkpt lat="29.184484" lon="100.098386">
<time>2015-08-06T06:37:03Z</time></trkpt>
<trkpt lat="29.184365" lon="100.098356">
<time>2015-08-06T06:37:04Z</time></trkpt>
<trkpt lat="29.184225" lon="100.098346">
<time>2015-08-06T06:37:05Z</time></trkpt>
<trkpt lat="29.184005" lon="100.098366">
<time>2015-08-06T06:37:06Z</time></trkpt>
<trkpt lat="29.183635" lon="100.098446">
<time>2015-08-06T06:37:07Z</time></trkpt>
<trkpt lat="29.182126" lon="100.098766">
<time>2015-08-06T06:37:08Z</time></trkpt>
<trkpt lat="29.180777" lon="100.099046">
<time>2015-08-06T06:37:09Z</time></trkpt>
<trkpt lat="29.180537" lon="100.099116">
<time>2015-08-06T06:37:10Z</time></trkpt>
<trkpt lat="29.180428" lon="100.099156">
<time>2015-08-06T06:37:11Z</time></trkpt>
<trkpt lat="29.180138" lon="100.099286">
<time>2015-08-06T06:37:12Z</time></trkpt>
<trkpt lat="29.178929" lon="100.099806">
<time>2015-08-06T06:37:13Z</time></trkpt>
<trkpt lat="29.178289" lon="100.100076">
<time>2015-08-06T06:37:14Z</time></trkpt>
<trkpt lat="29.178239" lon="100.100096">
<time>2015-08-06T06:37:15Z</time></trkpt>
<trkpt lat="29.178159" lon="100.100106">
<time>2015-08-06T06:37:16Z</time></trkpt>
<trkpt lat="29.178089" lon="100.100106">
<time>2015-08-06T06:37:17Z</time></trkpt>
<trkpt lat="29.178019" lon="100.100106">
<time>2015-08-06T06:37:18Z</time></trkpt>
<trkpt lat="29.177929" lon="100.100086">
<time>2015-08-06T06:37:19Z</time></trkpt>
<trkpt lat="29.17785" lon="100.100056">
<time>2015-08-06T06:37:20Z</time></trkpt>
<trkpt lat="29.17767" lon="100.099956">
<time>2015-08-06T06:37:21Z</time></trkpt>
<trkpt lat="29.17713" lon="100.099546">
<time>2015-08-06T06:37:22Z</time></trkpt>
<trkpt lat="29.17692" lon="100.099356">
<time>2015-08-06T06:37:23Z</time></trkpt>
<trkpt lat="29.17682" lon="100.099256">
<time>2015-08-06T06:37:24Z</time></trkpt>
<trkpt lat="29.17671" lon="100.099116">
<time>2015-08-06T06:37:25Z</time></trkpt>
<trkpt lat="29.17661" lon="100.098966">
<time>2015-08-06T06:37:26Z</time></trkpt>
<trkpt lat="29.176311" lon="100.098366">
<time>2015-08-06T06:37:27Z</time></trkpt>
<trkpt lat="29.176071" lon="100.097876">
<time>2015-08-06T06:37:28Z</time></trkpt>
<trkpt lat="29.175951" lon="100.097676">
<time>2015-08-06T06:37:29Z</time></trkpt>
<trkpt lat="29.175881" lon="100.097606">
<time>2015-08-06T06:37:30Z</time></trkpt>
<trkpt lat="29.175811" lon="100.097546">
<time>2015-08-06T06:37:31Z</time></trkpt>
<trkpt lat="29.175711" lon="100.097486">
<time>2015-08-06T06:37:32Z</time></trkpt>
<trkpt lat="29.175541" lon="100.097396">
<time>2015-08-06T06:37:33Z</time></trkpt>
<trkpt lat="29.174991" lon="100.097146">
<time>2015-08-06T06:37:34Z</time></trkpt>
<trkpt lat="29.174532" lon="100.096946">
<time>2015-08-06T06:37:35Z</time></trkpt>
<trkpt lat="29.174352" lon="100.096886">
<time>2015-08-06T06:37:36Z</time></trkpt>
<trkpt lat="29.173822" lon="100.096746">
<time>2015-08-06T06:37:37Z</time></trkpt>
<trkpt lat="29.173223" lon="100.096576">
<time>2015-08-06T06:37:38Z</time></trkpt>
<trkpt lat="29.173023" lon="100.096516">
<time>2015-08-06T06:37:39Z</time></trkpt>
<trkpt lat="29.172923" lon="100.096476">
<time>2015-08-06T06:37:40Z</time></trkpt>
<trkpt lat="29.172683" lon="100.096356">
<time>2015-08-06T06:37:41Z</time></trkpt>
<trkpt lat="29.172613" lon="100.096326">
<time>2015-08-06T06:37:42Z</time></trkpt>
<trkpt lat="29.171884" lon="100.095796">
<time>2015-08-06T06:37:43Z</time></trkpt>
<trkpt lat="29.170755" lon="100.094976">
<time>2015-08-06T06:37:44Z</time></trkpt>
<trkpt lat="29.170395" lon="100.094736">
<time>2015-08-06T06:37:45Z</time></trkpt>
<trkpt lat="29.170305" lon="100.094676">
<time>2015-08-06T06:37:46Z</time></trkpt>
<trkpt lat="29.170195" lon="100.094626">
<time>2015-08-06T06:37:47Z</time></trkpt>
<trkpt lat="29.169955" lon="100.094536">
<time>2015-08-06T06:37:48Z</time></trkpt>
<trkpt lat="29.169865" lon="100.094486">
<time>2015-08-06T06:37:49Z</time></trkpt>
<trkpt lat="29.169656" lon="100.094416">
<time>2015-08-06T06:37:50Z</time></trkpt>
<trkpt lat="29.169596" lon="100.094376">
<time>2015-08-06T06:37:51Z</time></trkpt>
<trkpt lat="29.169526" lon="100.094336">
<time>2015-08-06T06:37:52Z</time></trkpt>
<trkpt lat="29.169456" lon="100.094286">
<time>2015-08-06T06:37:53Z</time></trkpt>
<trkpt lat="29.169336" lon="100.094186">
<time>2015-08-06T06:37:54Z</time></trkpt>
<trkpt lat="29.169216" lon="100.094056">
<time>2015-08-06T06:37:55Z</time></trkpt>
<trkpt lat="29.168996" lon="100.093766">
<time>2015-08-06T06:37:56Z</time></trkpt>
<trkpt lat="29.168746" lon="100.093466">
<time>2015-08-06T06:37:57Z</time></trkpt>
<trkpt lat="29.168487" lon="100.093206">
<time>2015-08-06T06:37:58Z</time></trkpt>
<trkpt lat="29.167677" lon="100.092346">
<time>2015-08-06T06:37:59Z</time></trkpt>
<trkpt lat="29.167408" lon="100.092076">
<time>2015-08-06T06:38:00Z</time></trkpt>
<trkpt lat="29.167268" lon="100.091956">
<time>2015-08-06T06:38:01Z</time></trkpt>
<trkpt lat="29.167158" lon="100.091896">
<time>2015-08-06T06:38:02Z</time></trkpt>
<trkpt lat="29.166988" lon="100.091796">
<time>2015-08-06T06:38:03Z</time></trkpt>
<trkpt lat="29.166798" lon="100.091706">
<time>2015-08-06T06:38:04Z</time></trkpt>
<trkpt lat="29.166708" lon="100.091666">
<time>2015-08-06T06:38:05Z</time></trkpt>
<trkpt lat="29.166478" lon="100.091556">
<time>2015-08-06T06:38:06Z</time></trkpt>
<trkpt lat="29.166319" lon="100.091476">
<time>2015-08-06T06:38:07Z</time></trkpt>
<trkpt lat="29.166219" lon="100.091416">
<time>2015-08-06T06:38:08Z</time></trkpt>
<trkpt lat="29.166049" lon="100.091296">
<time>2015-08-06T06:38:09Z</time></trkpt>
<trkpt lat="29.165749" lon="100.091057">
<time>2015-08-06T06:38:10Z</time></trkpt>
<trkpt lat="29.165549" lon="100.090917">
<time>2015-08-06T06:38:11Z</time></trkpt>
<trkpt lat="29.16534" lon="100.090787">
<time>2015-08-06T06:38:12Z</time></trkpt>
<trkpt lat="29.16507" lon="100.090657">
<time>2015-08-06T06:38:13Z</time></trkpt>
<trkpt lat="29.16491" lon="100.090577">
<time>2015-08-06T06:38:14Z</time></trkpt>
<trkpt lat="29.16468" lon="100.090457">
<time>2015-08-06T06:38:15Z</time></trkpt>
<trkpt lat="29.1645" lon="100.090357">
<time>2015-08-06T06:38:16Z</time></trkpt>
<trkpt lat="29.164171" lon="100.090157">
<time>2015-08-06T06:38:17Z</time></trkpt>
<trkpt lat="29.164001" lon="100.090057">
<time>2015-08-06T06:38:18Z</time></trkpt>
<trkpt lat="29.163841" lon="100.089977">
<time>2015-08-06T06:38:19Z</time></trkpt>
<trkpt lat="29.163511" lon="100.089827">
<time>2015-08-06T06:38:20Z</time></trkpt>
<trkpt lat="29.163311" lon="100.089757">
<time>2015-08-06T06:38:21Z</time></trkpt>
<trkpt lat="29.163172" lon="100.089717">
<time>2015-08-06T06:38:22Z</time></trkpt>
<trkpt lat="29.162462" lon="100.089577">
<time>2015-08-06T06:38:23Z</time></trkpt>
<trkpt lat="29.162012" lon="100.089477">
<time>2015-08-06T06:38:24Z</time></trkpt>
<trkpt lat="29.161743" lon="100.089407">
<time>2015-08-06T06:38:25Z</time></trkpt>
<trkpt lat="29.161403" lon="100.089317">
<time>2015-08-06T06:38:26Z</time></trkpt>
<trkpt lat="29.161153" lon="100.089247">
<time>2015-08-06T06:38:27Z</time></trkpt>
<trkpt lat="29.160604" lon="100.089097">
<time>2015-08-06T06:38:28Z</time></trkpt>
<trkpt lat="29.160294" lon="100.088997">
<time>2015-08-06T06:38:29Z</time></trkpt>
<trkpt lat="29.159824" lon="100.088807">
<time>2015-08-06T06:38:30Z</time></trkpt>
<trkpt lat="29.159684" lon="100.088777">
<time>2015-08-06T06:38:31Z</time></trkpt>
<trkpt lat="29.159555" lon="100.088757">
<time>2015-08-06T06:38:32Z</time></trkpt>
<trkpt lat="29.159445" lon="100.088757">
<time>2015-08-06T06:38:33Z</time></trkpt>
<trkpt lat="29.159205" lon="100.088777">
<time>2015-08-06T06:38:34Z</time></trkpt>
<trkpt lat="29.158795" lon="100.088797">
<time>2015-08-06T06:38:35Z</time></trkpt>
<trkpt lat="29.158695" lon="100.088787">
<time>2015-08-06T06:38:36Z</time></trkpt>
<trkpt lat="29.158505" lon="100.088767">
<time>2015-08-06T06:38:37Z</time></trkpt>
<trkpt lat="29.158246" lon="100.088697">
<time>2015-08-06T06:38:38Z</time></trkpt>
<trkpt lat="29.158006" lon="100.088637">
<time>2015-08-06T06:38:39Z</time></trkpt>
<trkpt lat="29.157846" lon="100.088608">
<time>2015-08-06T06:38:40Z</time></trkpt>
<trkpt lat="29.157686" lon="100.088588">
<time>2015-08-06T06:38:41Z</time></trkpt>
<trkpt lat="29.157226" lon="100.088558">
<time>2015-08-06T06:38:42Z</time></trkpt>
<trkpt lat="29.157117" lon="100.088528">
<time>2015-08-06T06:38:43Z</time></trkpt>
<trkpt lat="29.157067" lon="100.088488">
<time>2015-08-06T06:38:44Z</time></trkpt>
<trkpt lat="29.157037" lon="100.088458">
<time>2015-08-06T06:38:45Z</time></trkpt>
<trkpt lat="29.157007" lon="100.088408">
<time>2015-08-06T06:38:46Z</time></trkpt>
<trkpt lat="29.157007" lon="100.088348">
<time>2015-08-06T06:38:47Z</time></trkpt>
<trkpt lat="29.157017" lon="100.088268">
<time>2015-08-06T06:38:48Z</time></trkpt>
<trkpt lat="29.157047" lon="100.088198">
<time>2015-08-06T06:38:49Z</time></trkpt>
<trkpt lat="29.157087" lon="100.088158">
<time>2015-08-06T06:38:50Z</time></trkpt>
<trkpt lat="29.157217" lon="100.088058">
<time>2015-08-06T06:38:51Z</time></trkpt>
<trkpt lat="29.157377" lon="100.087978">
<time>2015-08-06T06:38:52Z</time></trkpt>
<trkpt lat="29.157436" lon="100.087928">
<time>2015-08-06T06:38:53Z</time></trkpt>
<trkpt lat="29.157486" lon="100.087878">
<time>2015-08-06T06:38:54Z</time></trkpt>
<trkpt lat="29.157516" lon="100.087828">
<time>2015-08-06T06:38:55Z</time></trkpt>
<trkpt lat="29.157516" lon="100.087788">
<time>2015-08-06T06:38:56Z</time></trkpt>
<trkpt lat="29.157517" lon="100.087728">
<time>2015-08-06T06:38:57Z</time></trkpt>
<trkpt lat="29.157497" lon="100.087668">
<time>2015-08-06T06:38:58Z</time></trkpt>
<trkpt lat="29.157467" lon="100.087628">
<time>2015-08-06T06:38:59Z</time></trkpt>
<trkpt lat="29.157397" lon="100.087598">
<time>2015-08-06T06:39:00Z</time></trkpt>
<trkpt lat="29.157327" lon="100.087598">
<time>2015-08-06T06:39:01Z</time></trkpt>
<trkpt lat="29.157277" lon="100.087608">
<time>2015-08-06T06:39:02Z</time></trkpt>
<trkpt lat="29.157177" lon="100.087658">
<time>2015-08-06T06:39:03Z</time></trkpt>
<trkpt lat="29.156857" lon="100.087868">
<time>2015-08-06T06:39:04Z</time></trkpt>
<trkpt lat="29.156547" lon="100.088068">
<time>2015-08-06T06:39:05Z</time></trkpt>
<trkpt lat="29.156377" lon="100.088178">
<time>2015-08-06T06:39:06Z</time></trkpt>
<trkpt lat="29.156257" lon="100.088228">
<time>2015-08-06T06:39:07Z</time></trkpt>
<trkpt lat="29.156107" lon="100.088268">
<time>2015-08-06T06:39:08Z</time></trkpt>
<trkpt lat="29.155937" lon="100.088288">
<time>2015-08-06T06:39:09Z</time></trkpt>
<trkpt lat="29.155758" lon="100.088278">
<time>2015-08-06T06:39:10Z</time></trkpt>
<trkpt lat="29.155518" lon="100.088298">
<time>2015-08-06T06:39:11Z</time></trkpt>
<trkpt lat="29.155368" lon="100.088268">
<time>2015-08-06T06:39:12Z</time></trkpt>
<trkpt lat="29.155278" lon="100.088248">
<time>2015-08-06T06:39:13Z</time></trkpt>
<trkpt lat="29.155038" lon="100.088158">
<time>2015-08-06T06:39:14Z</time></trkpt>
<trkpt lat="29.154878" lon="100.088098">
<time>2015-08-06T06:39:15Z</time></trkpt>
<trkpt lat="29.154719" lon="100.088058">
<time>2015-08-06T06:39:16Z</time></trkpt>
<trkpt lat="29.154589" lon="100.088038">
<time>2015-08-06T06:39:17Z</time></trkpt>
<trkpt lat="29.154359" lon="100.088038">
<time>2015-08-06T06:39:18Z</time></trkpt>
<trkpt lat="29.154149" lon="100.088048">
<time>2015-08-06T06:39:19Z</time></trkpt>
<trkpt lat="29.154069" lon="100.088038">
<time>2015-08-06T06:39:20Z</time></trkpt>
<trkpt lat="29.154039" lon="100.088028">
<time>2015-08-06T06:39:21Z</time></trkpt>
<trkpt lat="29.153989" lon="100.087988">
<time>2015-08-06T06:39:22Z</time></trkpt>
<trkpt lat="29.153969" lon="100.087928">
<time>2015-08-06T06:39:23Z</time></trkpt>
<trkpt lat="29.153969" lon="100.087858">
<time>2015-08-06T06:39:24Z</time></trkpt>
<trkpt lat="29.153999" lon="100.087808">
<time>2015-08-06T06:39:25Z</time></trkpt>
<trkpt lat="29.154049" lon="100.087778">
<time>2015-08-06T06:39:26Z</time></trkpt>
<trkpt lat="29.154159" lon="100.087748">
<time>2015-08-06T06:39:27Z</time></trkpt>
<trkpt lat="29.154429" lon="100.087708">
<time>2015-08-06T06:39:28Z</time></trkpt>
<trkpt lat="29.154539" lon="100.087678">
<time>2015-08-06T06:39:29Z</time></trkpt>
<trkpt lat="29.154579" lon="100.087658">
<time>2015-08-06T06:39:30Z</time></trkpt>
<trkpt lat="29.154629" lon="100.087628">
<time>2015-08-06T06:39:31Z</time></trkpt>
<trkpt lat="29.154659" lon="100.087568">
<time>2015-08-06T06:39:32Z</time></trkpt>
<trkpt lat="29.154669" lon="100.087528">
<time>2015-08-06T06:39:33Z</time></trkpt>
<trkpt lat="29.154659" lon="100.087488">
<time>2015-08-06T06:39:34Z</time></trkpt>
<trkpt lat="29.154639" lon="100.087448">
<time>2015-08-06T06:39:35Z</time></trkpt>
<trkpt lat="29.154589" lon="100.087408">
<time>2015-08-06T06:39:36Z</time></trkpt>
<trkpt lat="29.154529" lon="100.087378">
<time>2015-08-06T06:39:37Z</time></trkpt>
<trkpt lat="29.154459" lon="100.087378">
<time>2015-08-06T06:39:38Z</time></trkpt>
<trkpt lat="29.154279" lon="100.087388">
<time>2015-08-06T06:39:39Z</time></trkpt>
<trkpt lat="29.154149" lon="100.087388">
<time>2015-08-06T06:39:40Z</time></trkpt>
<trkpt lat="29.154059" lon="100.087378">
<time>2015-08-06T06:39:41Z</time></trkpt>
<trkpt lat="29.153929" lon="100.087348">
<time>2015-08-06T06:39:42Z</time></trkpt>
<trkpt lat="29.15357" lon="100.087208">
<time>2015-08-06T06:39:43Z</time></trkpt>
<trkpt lat="29.15352" lon="100.087198">
<time>2015-08-06T06:39:44Z</time></trkpt>
<trkpt lat="29.15345" lon="100.087188">
<time>2015-08-06T06:39:45Z</time></trkpt>
<trkpt lat="29.15337" lon="100.087188">
<time>2015-08-06T06:39:46Z</time></trkpt>
<trkpt lat="29.1533" lon="100.087198">
<time>2015-08-06T06:39:47Z</time></trkpt>
<trkpt lat="29.15325" lon="100.087218">
<time>2015-08-06T06:39:48Z</time></trkpt>
<trkpt lat="29.15319" lon="100.087258">
<time>2015-08-06T06:39:49Z</time></trkpt>
<trkpt lat="29.1531" lon="100.087318">
<time>2015-08-06T06:39:50Z</time></trkpt>
<trkpt lat="29.15298" lon="100.087408">
<time>2015-08-06T06:39:51Z</time></trkpt>
<trkpt lat="29.15282" lon="100.087518">
<time>2015-08-06T06:39:52Z</time></trkpt>
<trkpt lat="29.15263" lon="100.087628">
<time>2015-08-06T06:39:53Z</time></trkpt>
<trkpt lat="29.15247" lon="100.087708">
<time>2015-08-06T06:39:54Z</time></trkpt>
<trkpt lat="29.152191" lon="100.087818">
<time>2015-08-06T06:39:55Z</time></trkpt>
<trkpt lat="29.151771" lon="100.087958">
<time>2015-08-06T06:39:56Z</time></trkpt>
<trkpt lat="29.151641" lon="100.087988">
<time>2015-08-06T06:39:57Z</time></trkpt>
<trkpt lat="29.151571" lon="100.088008">
<time>2015-08-06T06:39:58Z</time></trkpt>
<trkpt lat="29.151511" lon="100.088008">
<time>2015-08-06T06:39:59Z</time></trkpt>
<trkpt lat="29.151431" lon="100.087988">
<time>2015-08-06T06:40:00Z</time></trkpt>
<trkpt lat="29.151391" lon="100.087968">
<time>2015-08-06T06:40:01Z</time></trkpt>
<trkpt lat="29.151361" lon="100.087938">
<time>2015-08-06T06:40:02Z</time></trkpt>
<trkpt lat="29.151341" lon="100.087908">
<time>2015-08-06T06:40:03Z</time></trkpt>
<trkpt lat="29.151321" lon="100.087858">
<time>2015-08-06T06:40:04Z</time></trkpt>
<trkpt lat="29.151321" lon="100.087798">
<time>2015-08-06T06:40:05Z</time></trkpt>
<trkpt lat="29.151351" lon="100.087728">
<time>2015-08-06T06:40:06Z</time></trkpt>
<trkpt lat="29.151391" lon="100.087668">
<time>2015-08-06T06:40:07Z</time></trkpt>
<trkpt lat="29.151481" lon="100.087578">
<time>2015-08-06T06:40:08Z</time></trkpt>
<trkpt lat="29.151611" lon="100.087478">
<time>2015-08-06T06:40:09Z</time></trkpt>
<trkpt lat="29.151711" lon="100.087388">
<time>2015-08-06T06:40:10Z</time></trkpt>
<trkpt lat="29.151801" lon="100.087268">
<time>2015-08-06T06:40:11Z</time></trkpt>
<trkpt lat="29.151901" lon="100.087098">
<time>2015-08-06T06:40:12Z</time></trkpt>
<trkpt lat="29.152051" lon="100.086818">
<time>2015-08-06T06:40:13Z</time></trkpt>
<trkpt lat="29.152101" lon="100.086698">
<time>2015-08-06T06:40:14Z</time></trkpt>
<trkpt lat="29.152121" lon="100.086599">
<time>2015-08-06T06:40:15Z</time></trkpt>
<trkpt lat="29.152111" lon="100.086519">
<time>2015-08-06T06:40:16Z</time></trkpt>
<trkpt lat="29.152071" lon="100.086449">
<time>2015-08-06T06:40:17Z</time></trkpt>
<trkpt lat="29.152021" lon="100.086419">
<time>2015-08-06T06:40:18Z</time></trkpt>
<trkpt lat="29.151941" lon="100.086409">
<time>2015-08-06T06:40:19Z</time></trkpt>
<trkpt lat="29.151871" lon="100.086429">
<time>2015-08-06T06:40:20Z</time></trkpt>
<trkpt lat="29.151661" lon="100.086559">
<time>2015-08-06T06:40:21Z</time></trkpt>
<trkpt lat="29.151522" lon="100.086629">
<time>2015-08-06T06:40:22Z</time></trkpt>
<trkpt lat="29.151452" lon="100.086649">
<time>2015-08-06T06:40:23Z</time></trkpt>
<trkpt lat="29.151362" lon="100.086679">
<time>2015-08-06T06:40:24Z</time></trkpt>
<trkpt lat="29.151222" lon="100.086708">
<time>2015-08-06T06:40:25Z</time></trkpt>
<trkpt lat="29.150822" lon="100.086728">
<time>2015-08-06T06:40:26Z</time></trkpt>
<trkpt lat="29.150312" lon="100.086739">
<time>2015-08-06T06:40:27Z</time></trkpt>
<trkpt lat="29.150213" lon="100.086749">
<time>2015-08-06T06:40:28Z</time></trkpt>
<trkpt lat="29.150063" lon="100.086778">
<time>2015-08-06T06:40:29Z</time></trkpt>
<trkpt lat="29.149913" lon="100.086808">
<time>2015-08-06T06:40:30Z</time></trkpt>
<trkpt lat="29.149853" lon="100.086838">
<time>2015-08-06T06:40:31Z</time></trkpt>
<trkpt lat="29.149773" lon="100.086878">
<time>2015-08-06T06:40:32Z</time></trkpt>
<trkpt lat="29.149663" lon="100.086938">
<time>2015-08-06T06:40:33Z</time></trkpt>
<trkpt lat="29.149573" lon="100.086998">
<time>2015-08-06T06:40:34Z</time></trkpt>
<trkpt lat="29.149383" lon="100.087138">
<time>2015-08-06T06:40:35Z</time></trkpt>
<trkpt lat="29.149143" lon="100.087328">
<time>2015-08-06T06:40:36Z</time></trkpt>
<trkpt lat="29.148743" lon="100.087628">
<time>2015-08-06T06:40:37Z</time></trkpt>
<trkpt lat="29.148633" lon="100.087718">
<time>2015-08-06T06:40:38Z</time></trkpt>
<trkpt lat="29.148553" lon="100.087798">
<time>2015-08-06T06:40:39Z</time></trkpt>
<trkpt lat="29.148493" lon="100.087878">
<time>2015-08-06T06:40:40Z</time></trkpt>
<trkpt lat="29.148453" lon="100.087968">
<time>2015-08-06T06:40:41Z</time></trkpt>
<trkpt lat="29.148423" lon="100.088068">
<time>2015-08-06T06:40:42Z</time></trkpt>
<trkpt lat="29.148413" lon="100.088178">
<time>2015-08-06T06:40:43Z</time></trkpt>
<trkpt lat="29.148403" lon="100.088348">
<time>2015-08-06T06:40:44Z</time></trkpt>
<trkpt lat="29.148443" lon="100.088678">
<time>2015-08-06T06:40:45Z</time></trkpt>
<trkpt lat="29.148453" lon="100.088758">
<time>2015-08-06T06:40:46Z</time></trkpt>
<trkpt lat="29.148483" lon="100.088848">
<time>2015-08-06T06:40:47Z</time></trkpt>
<trkpt lat="29.148533" lon="100.088928">
<time>2015-08-06T06:40:48Z</time></trkpt>
<trkpt lat="29.148613" lon="100.088998">
<time>2015-08-06T06:40:49Z</time></trkpt>
<trkpt lat="29.148943" lon="100.089198">
<time>2015-08-06T06:40:50Z</time></trkpt>
<trkpt lat="29.149192" lon="100.089358">
<time>2015-08-06T06:40:51Z</time></trkpt>
<trkpt lat="29.149392" lon="100.089527">
<time>2015-08-06T06:40:52Z</time></trkpt>
<trkpt lat="29.149452" lon="100.089607">
<time>2015-08-06T06:40:53Z</time></trkpt>
<trkpt lat="29.149462" lon="100.089657">
<time>2015-08-06T06:40:54Z</time></trkpt>
<trkpt lat="29.149472" lon="100.089697">
<time>2015-08-06T06:40:55Z</time></trkpt>
<trkpt lat="29.149452" lon="100.089757">
<time>2015-08-06T06:40:56Z</time></trkpt>
<trkpt lat="29.149422" lon="100.089787">
<time>2015-08-06T06:40:57Z</time></trkpt>
<trkpt lat="29.149382" lon="100.089817">
<time>2015-08-06T06:40:58Z</time></trkpt>
<trkpt lat="29.149332" lon="100.089827">
<time>2015-08-06T06:40:59Z</time></trkpt>
<trkpt lat="29.149272" lon="100.089817">
<time>2015-08-06T06:41:00Z</time></trkpt>
<trkpt lat="29.149152" lon="100.089787">
<time>2015-08-06T06:41:01Z</time></trkpt>
<trkpt lat="29.148982" lon="100.089717">
<time>2015-08-06T06:41:02Z</time></trkpt>
<trkpt lat="29.148723" lon="100.089567">
<time>2015-08-06T06:41:03Z</time></trkpt>
<trkpt lat="29.148433" lon="100.089378">
<time>2015-08-06T06:41:04Z</time></trkpt>
<trkpt lat="29.148273" lon="100.089248">
<time>2015-08-06T06:41:05Z</time></trkpt>
<trkpt lat="29.148013" lon="100.088988">
<time>2015-08-06T06:41:06Z</time></trkpt>
<trkpt lat="29.147404" lon="100.088448">
<time>2015-08-06T06:41:07Z</time></trkpt>
<trkpt lat="29.147134" lon="100.088248">
<time>2015-08-06T06:41:08Z</time></trkpt>
<trkpt lat="29.146775" lon="100.087988">
<time>2015-08-06T06:41:09Z</time></trkpt>
<trkpt lat="29.146655" lon="100.087908">
<time>2015-08-06T06:41:10Z</time></trkpt>
<trkpt lat="29.146355" lon="100.087708">
<time>2015-08-06T06:41:11Z</time></trkpt>
<trkpt lat="29.146285" lon="100.087648">
<time>2015-08-06T06:41:12Z</time></trkpt>
<trkpt lat="29.146225" lon="100.087598">
<time>2015-08-06T06:41:13Z</time></trkpt>
<trkpt lat="29.146095" lon="100.087468">
<time>2015-08-06T06:41:14Z</time></trkpt>
<trkpt lat="29.145876" lon="100.087228">
<time>2015-08-06T06:41:15Z</time></trkpt>
<trkpt lat="29.145766" lon="100.087108">
<time>2015-08-06T06:41:16Z</time></trkpt>
<trkpt lat="29.145626" lon="100.086929">
<time>2015-08-06T06:41:17Z</time></trkpt>
<trkpt lat="29.145586" lon="100.086869">
<time>2015-08-06T06:41:18Z</time></trkpt>
<trkpt lat="29.145536" lon="100.086759">
<time>2015-08-06T06:41:19Z</time></trkpt>
<trkpt lat="29.145506" lon="100.086669">
<time>2015-08-06T06:41:20Z</time></trkpt>
<trkpt lat="29.145486" lon="100.086579">
<time>2015-08-06T06:41:21Z</time></trkpt>
<trkpt lat="29.145486" lon="100.086499">
<time>2015-08-06T06:41:22Z</time></trkpt>
<trkpt lat="29.145506" lon="100.086409">
<time>2015-08-06T06:41:23Z</time></trkpt>
<trkpt lat="29.145526" lon="100.086349">
<time>2015-08-06T06:41:24Z</time></trkpt>
<trkpt lat="29.145576" lon="100.086289">
<time>2015-08-06T06:41:25Z</time></trkpt>
<trkpt lat="29.145626" lon="100.086239">
<time>2015-08-06T06:41:26Z</time></trkpt>
<trkpt lat="29.145696" lon="100.086209">
<time>2015-08-06T06:41:27Z</time></trkpt>
<trkpt lat="29.145766" lon="100.086199">
<time>2015-08-06T06:41:28Z</time></trkpt>
<trkpt lat="29.145846" lon="100.086209">
<time>2015-08-06T06:41:29Z</time></trkpt>
<trkpt lat="29.146006" lon="100.086249">
<time>2015-08-06T06:41:30Z</time></trkpt>
<trkpt lat="29.146206" lon="100.086289">
<time>2015-08-06T06:41:31Z</time></trkpt>
<trkpt lat="29.146476" lon="100.086309">
<time>2015-08-06T06:41:32Z</time></trkpt>
<trkpt lat="29.146675" lon="100.086289">
<time>2015-08-06T06:41:33Z</time></trkpt>
<trkpt lat="29.146885" lon="100.086269">
<time>2015-08-06T06:41:34Z</time></trkpt>
<trkpt lat="29.147415" lon="100.086179">
<time>2015-08-06T06:41:35Z</time></trkpt>
<trkpt lat="29.147475" lon="100.086169">
<time>2015-08-06T06:41:36Z</time></trkpt>
<trkpt lat="29.147655" lon="100.086129">
<time>2015-08-06T06:41:37Z</time></trkpt>
<trkpt lat="29.147775" lon="100.086099">
<time>2015-08-06T06:41:38Z</time></trkpt>
<trkpt lat="29.147925" lon="100.086039">
<time>2015-08-06T06:41:39Z</time></trkpt>
<trkpt lat="29.148015" lon="100.085989">
<time>2015-08-06T06:41:40Z</time></trkpt>
<trkpt lat="29.148164" lon="100.085909">
<time>2015-08-06T06:41:41Z</time></trkpt>
<trkpt lat="29.148254" lon="100.085849">
<time>2015-08-06T06:41:42Z</time></trkpt>
<trkpt lat="29.148414" lon="100.085699">
<time>2015-08-06T06:41:43Z</time></trkpt>
<trkpt lat="29.148504" lon="100.085599">
<time>2015-08-06T06:41:44Z</time></trkpt>
<trkpt lat="29.148604" lon="100.085439">
<time>2015-08-06T06:41:45Z</time></trkpt>
<trkpt lat="29.148644" lon="100.085329">
<time>2015-08-06T06:41:46Z</time></trkpt>
<trkpt lat="29.148664" lon="100.085209">
<time>2015-08-06T06:41:47Z</time></trkpt>
<trkpt lat="29.148664" lon="100.085089">
<time>2015-08-06T06:41:48Z</time></trkpt>
<trkpt lat="29.148615" lon="100.08485">
<time>2015-08-06T06:41:49Z</time></trkpt>
<trkpt lat="29.148505" lon="100.08454">
<time>2015-08-06T06:41:50Z</time></trkpt>
<trkpt lat="29.148335" lon="100.0841">
<time>2015-08-06T06:41:51Z</time></trkpt>
<trkpt lat="29.148285" lon="100.08395">
<time>2015-08-06T06:41:52Z</time></trkpt>
<trkpt lat="29.148206" lon="100.08367">
<time>2015-08-06T06:41:53Z</time></trkpt>
<trkpt lat="29.148056" lon="100.082991">
<time>2015-08-06T06:41:54Z</time></trkpt>
<trkpt lat="29.147976" lon="100.082701">
<time>2015-08-06T06:41:55Z</time></trkpt>
<trkpt lat="29.147847" lon="100.082191">
<time>2015-08-06T06:41:56Z</time></trkpt>
<trkpt lat="29.147797" lon="100.081961">
<time>2015-08-06T06:41:57Z</time></trkpt>
<trkpt lat="29.147717" lon="100.081512">
<time>2015-08-06T06:41:58Z</time></trkpt>
<trkpt lat="29.147688" lon="100.081222">
<time>2015-08-06T06:41:59Z</time></trkpt>
<trkpt lat="29.147668" lon="100.081152">
<time>2015-08-06T06:42:00Z</time></trkpt>
<trkpt lat="29.147658" lon="100.081102">
<time>2015-08-06T06:42:01Z</time></trkpt>
<trkpt lat="29.147628" lon="100.081062">
<time>2015-08-06T06:42:02Z</time></trkpt>
<trkpt lat="29.147608" lon="100.081042">
<time>2015-08-06T06:42:03Z</time></trkpt>
<trkpt lat="29.147568" lon="100.081032">
<time>2015-08-06T06:42:04Z</time></trkpt>
<trkpt lat="29.147518" lon="100.081022">
<time>2015-08-06T06:42:05Z</time></trkpt>
<trkpt lat="29.147498" lon="100.081042">
<time>2015-08-06T06:42:06Z</time></trkpt>
<trkpt lat="29.147468" lon="100.081072">
<time>2015-08-06T06:42:07Z</time></trkpt>
<trkpt lat="29.147448" lon="100.081102">
<time>2015-08-06T06:42:08Z</time></trkpt>
<trkpt lat="29.147438" lon="100.081122">
<time>2015-08-06T06:42:09Z</time></trkpt>
<trkpt lat="29.147438" lon="100.081152">
<time>2015-08-06T06:42:10Z</time></trkpt>
<trkpt lat="29.147428" lon="100.081192">
<time>2015-08-06T06:42:11Z</time></trkpt>
<trkpt lat="29.147448" lon="100.081292">
<time>2015-08-06T06:42:12Z</time></trkpt>
<trkpt lat="29.147488" lon="100.081482">
<time>2015-08-06T06:42:13Z</time></trkpt>
<trkpt lat="29.147547" lon="100.081722">
<time>2015-08-06T06:42:14Z</time></trkpt>
<trkpt lat="29.147577" lon="100.081881">
<time>2015-08-06T06:42:15Z</time></trkpt>
<trkpt lat="29.147597" lon="100.082221">
<time>2015-08-06T06:42:16Z</time></trkpt>
<trkpt lat="29.147617" lon="100.082631">
<time>2015-08-06T06:42:17Z</time></trkpt>
<trkpt lat="29.147646" lon="100.083111">
<time>2015-08-06T06:42:18Z</time></trkpt>
<trkpt lat="29.147636" lon="100.08356">
<time>2015-08-06T06:42:19Z</time></trkpt>
<trkpt lat="29.147626" lon="100.08376">
<time>2015-08-06T06:42:20Z</time></trkpt>
<trkpt lat="29.147606" lon="100.08393">
<time>2015-08-06T06:42:21Z</time></trkpt>
<trkpt lat="29.147556" lon="100.08414">
<time>2015-08-06T06:42:22Z</time></trkpt>
<trkpt lat="29.147476" lon="100.08436">
<time>2015-08-06T06:42:23Z</time></trkpt>
<trkpt lat="29.147416" lon="100.08448">
<time>2015-08-06T06:42:24Z</time></trkpt>
<trkpt lat="29.147346" lon="100.08458">
<time>2015-08-06T06:42:25Z</time></trkpt>
<trkpt lat="29.147246" lon="100.0847">
<time>2015-08-06T06:42:26Z</time></trkpt>
<trkpt lat="29.147146" lon="100.08477">
<time>2015-08-06T06:42:27Z</time></trkpt>
<trkpt lat="29.147056" lon="100.08481">
<time>2015-08-06T06:42:28Z</time></trkpt>
<trkpt lat="29.146926" lon="100.08484">
<time>2015-08-06T06:42:29Z</time></trkpt>
<trkpt lat="29.146816" lon="100.08486">
<time>2015-08-06T06:42:30Z</time></trkpt>
<trkpt lat="29.146636" lon="100.08485">
<time>2015-08-06T06:42:31Z</time></trkpt>
<trkpt lat="29.146456" lon="100.0848">
<time>2015-08-06T06:42:32Z</time></trkpt>
<trkpt lat="29.146267" lon="100.08474">
<time>2015-08-06T06:42:33Z</time></trkpt>
<trkpt lat="29.145547" lon="100.08449">
<time>2015-08-06T06:42:34Z</time></trkpt>
<trkpt lat="29.145347" lon="100.08441">
<time>2015-08-06T06:42:35Z</time></trkpt>
<trkpt lat="29.145178" lon="100.08433">
<time>2015-08-06T06:42:36Z</time></trkpt>
<trkpt lat="29.144948" lon="100.08422">
<time>2015-08-06T06:42:37Z</time></trkpt>
<trkpt lat="29.144738" lon="100.08411">
<time>2015-08-06T06:42:38Z</time></trkpt>
<trkpt lat="29.144618" lon="100.08405">
<time>2015-08-06T06:42:39Z</time></trkpt>
<trkpt lat="29.144318" lon="100.0839">
<time>2015-08-06T06:42:40Z</time></trkpt>
<trkpt lat="29.144059" lon="100.08376">
<time>2015-08-06T06:42:41Z</time></trkpt>
<trkpt lat="29.143879" lon="100.08366">
<time>2015-08-06T06:42:42Z</time></trkpt>
<trkpt lat="29.143569" lon="100.08351">
<time>2015-08-06T06:42:43Z</time></trkpt>
<trkpt lat="29.14328" lon="100.083381">
<time>2015-08-06T06:42:44Z</time></trkpt>
<trkpt lat="29.14311" lon="100.083311">
<time>2015-08-06T06:42:45Z</time></trkpt>
<trkpt lat="29.14285" lon="100.083211">
<time>2015-08-06T06:42:46Z</time></trkpt>
<trkpt lat="29.14263" lon="100.083121">
<time>2015-08-06T06:42:47Z</time></trkpt>
<trkpt lat="29.14242" lon="100.083051">
<time>2015-08-06T06:42:48Z</time></trkpt>
<trkpt lat="29.142311" lon="100.083011">
<time>2015-08-06T06:42:49Z</time></trkpt>
<trkpt lat="29.142201" lon="100.082981">
<time>2015-08-06T06:42:50Z</time></trkpt>
<trkpt lat="29.142021" lon="100.082931">
<time>2015-08-06T06:42:51Z</time></trkpt>
<trkpt lat="29.141811" lon="100.082891">
<time>2015-08-06T06:42:52Z</time></trkpt>
<trkpt lat="29.141431" lon="100.082831">
<time>2015-08-06T06:42:53Z</time></trkpt>
<trkpt lat="29.140922" lon="100.082741">
<time>2015-08-06T06:42:54Z</time></trkpt>
<trkpt lat="29.140812" lon="100.082721">
<time>2015-08-06T06:42:55Z</time></trkpt>
<trkpt lat="29.140672" lon="100.082721">
<time>2015-08-06T06:42:56Z</time></trkpt>
<trkpt lat="29.140602" lon="100.082741">
<time>2015-08-06T06:42:57Z</time></trkpt>
<trkpt lat="29.140502" lon="100.082771">
<time>2015-08-06T06:42:58Z</time></trkpt>
<trkpt lat="29.140452" lon="100.082801">
<time>2015-08-06T06:42:59Z</time></trkpt>
<trkpt lat="29.140362" lon="100.082861">
<time>2015-08-06T06:43:00Z</time></trkpt>
<trkpt lat="29.140222" lon="100.082981">
<time>2015-08-06T06:43:01Z</time></trkpt>
<trkpt lat="29.140102" lon="100.083101">
<time>2015-08-06T06:43:02Z</time></trkpt>
<trkpt lat="29.139892" lon="100.083331">
<time>2015-08-06T06:43:03Z</time></trkpt>
<trkpt lat="29.139672" lon="100.083561">
<time>2015-08-06T06:43:04Z</time></trkpt>
<trkpt lat="29.139592" lon="100.08364">
<time>2015-08-06T06:43:05Z</time></trkpt>
<trkpt lat="29.139542" lon="100.08367">
<time>2015-08-06T06:43:06Z</time></trkpt>
<trkpt lat="29.139502" lon="100.08369">
<time>2015-08-06T06:43:07Z</time></trkpt>
<trkpt lat="29.139452" lon="100.0837">
<time>2015-08-06T06:43:08Z</time></trkpt>
<trkpt lat="29.139422" lon="100.08369">
<time>2015-08-06T06:43:09Z</time></trkpt>
<trkpt lat="29.139382" lon="100.08368">
<time>2015-08-06T06:43:10Z</time></trkpt>
<trkpt lat="29.139342" lon="100.08365">
<time>2015-08-06T06:43:11Z</time></trkpt>
<trkpt lat="29.139313" lon="100.083601">
<time>2015-08-06T06:43:12Z</time></trkpt>
<trkpt lat="29.139303" lon="100.083551">
<time>2015-08-06T06:43:13Z</time></trkpt>
<trkpt lat="29.139313" lon="100.083441">
<time>2015-08-06T06:43:14Z</time></trkpt>
<trkpt lat="29.139333" lon="100.083361">
<time>2015-08-06T06:43:15Z</time></trkpt>
<trkpt lat="29.139453" lon="100.083031">
<time>2015-08-06T06:43:16Z</time></trkpt>
<trkpt lat="29.139693" lon="100.082371">
<time>2015-08-06T06:43:17Z</time></trkpt>
<trkpt lat="29.139763" lon="100.082231">
<time>2015-08-06T06:43:18Z</time></trkpt>
<trkpt lat="29.139793" lon="100.082191">
<time>2015-08-06T06:43:19Z</time></trkpt>
<trkpt lat="29.139833" lon="100.082151">
<time>2015-08-06T06:43:20Z</time></trkpt>
<trkpt lat="29.139883" lon="100.082111">
<time>2015-08-06T06:43:21Z</time></trkpt>
<trkpt lat="29.139933" lon="100.082092">
<time>2015-08-06T06:43:22Z</time></trkpt>
<trkpt lat="29.139993" lon="100.082082">
<time>2015-08-06T06:43:23Z</time></trkpt>
<trkpt lat="29.140053" lon="100.082072">
<time>2015-08-06T06:43:24Z</time></trkpt>
<trkpt lat="29.140423" lon="100.082101">
<time>2015-08-06T06:43:25Z</time></trkpt>
<trkpt lat="29.140822" lon="100.082111">
<time>2015-08-06T06:43:26Z</time></trkpt>
<trkpt lat="29.141232" lon="100.082101">
<time>2015-08-06T06:43:27Z</time></trkpt>
<trkpt lat="29.141752" lon="100.082091">
<time>2015-08-06T06:43:28Z</time></trkpt>
<trkpt lat="29.142391" lon="100.082091">
<time>2015-08-06T06:43:29Z</time></trkpt>
<trkpt lat="29.142711" lon="100.082111">
<time>2015-08-06T06:43:30Z</time></trkpt>
<trkpt lat="29.14316" lon="100.082161">
<time>2015-08-06T06:43:31Z</time></trkpt>
<trkpt lat="29.14368" lon="100.082221">
<time>2015-08-06T06:43:32Z</time></trkpt>
<trkpt lat="29.14404" lon="100.082301">
<time>2015-08-06T06:43:33Z</time></trkpt>
<trkpt lat="29.144509" lon="100.082421">
<time>2015-08-06T06:43:34Z</time></trkpt>
<trkpt lat="29.144869" lon="100.082491">
<time>2015-08-06T06:43:35Z</time></trkpt>
<trkpt lat="29.144999" lon="100.082501">
<time>2015-08-06T06:43:36Z</time></trkpt>
<trkpt lat="29.145069" lon="100.082501">
<time>2015-08-06T06:43:37Z</time></trkpt>
<trkpt lat="29.145109" lon="100.082481">
<time>2015-08-06T06:43:38Z</time></trkpt>
<trkpt lat="29.145219" lon="100.082431">
<time>2015-08-06T06:43:39Z</time></trkpt>
<trkpt lat="29.145299" lon="100.082361">
<time>2015-08-06T06:43:40Z</time></trkpt>
<trkpt lat="29.145349" lon="100.082301">
<time>2015-08-06T06:43:41Z</time></trkpt>
<trkpt lat="29.145399" lon="100.082221">
<time>2015-08-06T06:43:42Z</time></trkpt>
<trkpt lat="29.145439" lon="100.082131">
<time>2015-08-06T06:43:43Z</time></trkpt>
<trkpt lat="29.145459" lon="100.082021">
<time>2015-08-06T06:43:44Z</time></trkpt>
<trkpt lat="29.145459" lon="100.081911">
<time>2015-08-06T06:43:45Z</time></trkpt>
<trkpt lat="29.145449" lon="100.081822">
<time>2015-08-06T06:43:46Z</time></trkpt>
<trkpt lat="29.145429" lon="100.081712">
<time>2015-08-06T06:43:47Z</time></trkpt>
<trkpt lat="29.145379" lon="100.081562">
<time>2015-08-06T06:43:48Z</time></trkpt>
<trkpt lat="29.145319" lon="100.081422">
<time>2015-08-06T06:43:49Z</time></trkpt>
<trkpt lat="29.145249" lon="100.081252">
<time>2015-08-06T06:43:50Z</time></trkpt>
<trkpt lat="29.14511" lon="100.080942">
<time>2015-08-06T06:43:51Z</time></trkpt>
<trkpt lat="29.14507" lon="100.080842">
<time>2015-08-06T06:43:52Z</time></trkpt>
<trkpt lat="29.14503" lon="100.080792">
<time>2015-08-06T06:43:53Z</time></trkpt>
<trkpt lat="29.14495" lon="100.080682">
<time>2015-08-06T06:43:54Z</time></trkpt>
<trkpt lat="29.14479" lon="100.080503">
<time>2015-08-06T06:43:55Z</time></trkpt>
<trkpt lat="29.14472" lon="100.080423">
<time>2015-08-06T06:43:56Z</time></trkpt>
<trkpt lat="29.144551" lon="100.080243">
<time>2015-08-06T06:43:57Z</time></trkpt>
<trkpt lat="29.144431" lon="100.080113">
<time>2015-08-06T06:43:58Z</time></trkpt>
<trkpt lat="29.144381" lon="100.080063">
<time>2015-08-06T06:43:59Z</time></trkpt>
<trkpt lat="29.144261" lon="100.079983">
<time>2015-08-06T06:44:00Z</time></trkpt>
<trkpt lat="29.144161" lon="100.079933">
<time>2015-08-06T06:44:01Z</time></trkpt>
<trkpt lat="29.144031" lon="100.079893">
<time>2015-08-06T06:44:02Z</time></trkpt>
<trkpt lat="29.143762" lon="100.079833">
<time>2015-08-06T06:44:03Z</time></trkpt>
<trkpt lat="29.143682" lon="100.079803">
<time>2015-08-06T06:44:04Z</time></trkpt>
<trkpt lat="29.143622" lon="100.079773">
<time>2015-08-06T06:44:05Z</time></trkpt>
<trkpt lat="29.143572" lon="100.079743">
<time>2015-08-06T06:44:06Z</time></trkpt>
<trkpt lat="29.143512" lon="100.079683">
<time>2015-08-06T06:44:07Z</time></trkpt>
<trkpt lat="29.143472" lon="100.079623">
<time>2015-08-06T06:44:08Z</time></trkpt>
<trkpt lat="29.143432" lon="100.079563">
<time>2015-08-06T06:44:09Z</time></trkpt>
<trkpt lat="29.143392" lon="100.079473">
<time>2015-08-06T06:44:10Z</time></trkpt>
<trkpt lat="29.143332" lon="100.079284">
<time>2015-08-06T06:44:11Z</time></trkpt>
<trkpt lat="29.143203" lon="100.078754">
<time>2015-08-06T06:44:12Z</time></trkpt>
<trkpt lat="29.143133" lon="100.078474">
<time>2015-08-06T06:44:13Z</time></trkpt>
<trkpt lat="29.143093" lon="100.078364">
<time>2015-08-06T06:44:14Z</time></trkpt>
<trkpt lat="29.143063" lon="100.078284">
<time>2015-08-06T06:44:15Z</time></trkpt>
<trkpt lat="29.142984" lon="100.078155">
<time>2015-08-06T06:44:16Z</time></trkpt>
<trkpt lat="29.142904" lon="100.078045">
<time>2015-08-06T06:44:17Z</time></trkpt>
<trkpt lat="29.142794" lon="100.077845">
<time>2015-08-06T06:44:18Z</time></trkpt>
<trkpt lat="29.142734" lon="100.077725">
<time>2015-08-06T06:44:19Z</time></trkpt>
<trkpt lat="29.142624" lon="100.077465">
<time>2015-08-06T06:44:20Z</time></trkpt>
<trkpt lat="29.142545" lon="100.077235">
<time>2015-08-06T06:44:21Z</time></trkpt>
<trkpt lat="29.142495" lon="100.077066">
<time>2015-08-06T06:44:22Z</time></trkpt>
<trkpt lat="29.142455" lon="100.076896">
<time>2015-08-06T06:44:23Z</time></trkpt>
<trkpt lat="29.142415" lon="100.076706">
<time>2015-08-06T06:44:24Z</time></trkpt>
<trkpt lat="29.142346" lon="100.076226">
<time>2015-08-06T06:44:25Z</time></trkpt>
<trkpt lat="29.142336" lon="100.075997">
<time>2015-08-06T06:44:26Z</time></trkpt>
<trkpt lat="29.142336" lon="100.075857">
<time>2015-08-06T06:44:27Z</time></trkpt>
<trkpt lat="29.142346" lon="100.075697">
<time>2015-08-06T06:44:28Z</time></trkpt>
<trkpt lat="29.142376" lon="100.075497">
<time>2015-08-06T06:44:29Z</time></trkpt>
<trkpt lat="29.142487" lon="100.075098">
<time>2015-08-06T06:44:30Z</time></trkpt>
<trkpt lat="29.142527" lon="100.074938">
<time>2015-08-06T06:44:31Z</time></trkpt>
<trkpt lat="29.142557" lon="100.074758">
<time>2015-08-06T06:44:32Z</time></trkpt>
<trkpt lat="29.142557" lon="100.074628">
<time>2015-08-06T06:44:33Z</time></trkpt>
<trkpt lat="29.142537" lon="100.074408">
<time>2015-08-06T06:44:34Z</time></trkpt>
<trkpt lat="29.142508" lon="100.074129">
<time>2015-08-06T06:44:35Z</time></trkpt>
<trkpt lat="29.142508" lon="100.073919">
<time>2015-08-06T06:44:36Z</time></trkpt>
<trkpt lat="29.142508" lon="100.073859">
<time>2015-08-06T06:44:37Z</time></trkpt>
<trkpt lat="29.142518" lon="100.073769">
<time>2015-08-06T06:44:38Z</time></trkpt>
<trkpt lat="29.142528" lon="100.073669">
<time>2015-08-06T06:44:39Z</time></trkpt>
<trkpt lat="29.142568" lon="100.073539">
<time>2015-08-06T06:44:40Z</time></trkpt>
<trkpt lat="29.142608" lon="100.073439">
<time>2015-08-06T06:44:41Z</time></trkpt>
<trkpt lat="29.142658" lon="100.07333">
<time>2015-08-06T06:44:42Z</time></trkpt>
<trkpt lat="29.142869" lon="100.07297">
<time>2015-08-06T06:44:43Z</time></trkpt>
<trkpt lat="29.143199" lon="100.072451">
<time>2015-08-06T06:44:44Z</time></trkpt>
<trkpt lat="29.143359" lon="100.072191">
<time>2015-08-06T06:44:45Z</time></trkpt>
<trkpt lat="29.143399" lon="100.072151">
<time>2015-08-06T06:44:46Z</time></trkpt>
<trkpt lat="29.143459" lon="100.072091">
<time>2015-08-06T06:44:47Z</time></trkpt>
<trkpt lat="29.143489" lon="100.072061">
<time>2015-08-06T06:44:48Z</time></trkpt>
<trkpt lat="29.143579" lon="100.072011">
<time>2015-08-06T06:44:49Z</time></trkpt>
<trkpt lat="29.143699" lon="100.071981">
<time>2015-08-06T06:44:50Z</time></trkpt>
<trkpt lat="29.143809" lon="100.071961">
<time>2015-08-06T06:44:51Z</time></trkpt>
<trkpt lat="29.144139" lon="100.071951">
<time>2015-08-06T06:44:52Z</time></trkpt>
<trkpt lat="29.144339" lon="100.071951">
<time>2015-08-06T06:44:53Z</time></trkpt>
<trkpt lat="29.144429" lon="100.071951">
<time>2015-08-06T06:44:54Z</time></trkpt>
<trkpt lat="29.144568" lon="100.071931">
<time>2015-08-06T06:44:55Z</time></trkpt>
<trkpt lat="29.144638" lon="100.071911">
<time>2015-08-06T06:44:56Z</time></trkpt>
<trkpt lat="29.144718" lon="100.071871">
<time>2015-08-06T06:44:57Z</time></trkpt>
<trkpt lat="29.144818" lon="100.071811">
<time>2015-08-06T06:44:58Z</time></trkpt>
<trkpt lat="29.144878" lon="100.071771">
<time>2015-08-06T06:44:59Z</time></trkpt>
<trkpt lat="29.144978" lon="100.071681">
<time>2015-08-06T06:45:00Z</time></trkpt>
<trkpt lat="29.145158" lon="100.071522">
<time>2015-08-06T06:45:01Z</time></trkpt>
<trkpt lat="29.145258" lon="100.071462">
<time>2015-08-06T06:45:02Z</time></trkpt>
<trkpt lat="29.145368" lon="100.071402">
<time>2015-08-06T06:45:03Z</time></trkpt>
<trkpt lat="29.145568" lon="100.071312">
<time>2015-08-06T06:45:04Z</time></trkpt>
<trkpt lat="29.145798" lon="100.071222">
<time>2015-08-06T06:45:05Z</time></trkpt>
<trkpt lat="29.145848" lon="100.071202">
<time>2015-08-06T06:45:06Z</time></trkpt>
<trkpt lat="29.145898" lon="100.071162">
<time>2015-08-06T06:45:07Z</time></trkpt>
<trkpt lat="29.145928" lon="100.071132">
<time>2015-08-06T06:45:08Z</time></trkpt>
<trkpt lat="29.145948" lon="100.071092">
<time>2015-08-06T06:45:09Z</time></trkpt>
<trkpt lat="29.145958" lon="100.071042">
<time>2015-08-06T06:45:10Z</time></trkpt>
<trkpt lat="29.145958" lon="100.071012">
<time>2015-08-06T06:45:11Z</time></trkpt>
<trkpt lat="29.145948" lon="100.070972">
<time>2015-08-06T06:45:12Z</time></trkpt>
<trkpt lat="29.145929" lon="100.070922">
<time>2015-08-06T06:45:13Z</time></trkpt>
<trkpt lat="29.145899" lon="100.070892">
<time>2015-08-06T06:45:14Z</time></trkpt>
<trkpt lat="29.145869" lon="100.070872">
<time>2015-08-06T06:45:15Z</time></trkpt>
<trkpt lat="29.145829" lon="100.070842">
<time>2015-08-06T06:45:16Z</time></trkpt>
<trkpt lat="29.145749" lon="100.070803">
<time>2015-08-06T06:45:17Z</time></trkpt>
<trkpt lat="29.145519" lon="100.070723">
<time>2015-08-06T06:45:18Z</time></trkpt>
<trkpt lat="29.145419" lon="100.070693">
<time>2015-08-06T06:45:19Z</time></trkpt>
<trkpt lat="29.145289" lon="100.070663">
<time>2015-08-06T06:45:20Z</time></trkpt>
<trkpt lat="29.145219" lon="100.070663">
<time>2015-08-06T06:45:21Z</time></trkpt>
<trkpt lat="29.14509" lon="100.070673">
<time>2015-08-06T06:45:22Z</time></trkpt>
<trkpt lat="29.14499" lon="100.070683">
<time>2015-08-06T06:45:23Z</time></trkpt>
<trkpt lat="29.14484" lon="100.070723">
<time>2015-08-06T06:45:24Z</time></trkpt>
<trkpt lat="29.14473" lon="100.070743">
<time>2015-08-06T06:45:25Z</time></trkpt>
<trkpt lat="29.14468" lon="100.070743">
<time>2015-08-06T06:45:26Z</time></trkpt>
<trkpt lat="29.14454" lon="100.070753">
<time>2015-08-06T06:45:27Z</time></trkpt>
<trkpt lat="29.14446" lon="100.070743">
<time>2015-08-06T06:45:28Z</time></trkpt>
<trkpt lat="29.14437" lon="100.070713">
<time>2015-08-06T06:45:29Z</time></trkpt>
<trkpt lat="29.14433" lon="100.070693">
<time>2015-08-06T06:45:30Z</time></trkpt>
<trkpt lat="29.14427" lon="100.070663">
<time>2015-08-06T06:45:31Z</time></trkpt>
<trkpt lat="29.14424" lon="100.070623">
<time>2015-08-06T06:45:32Z</time></trkpt>
<trkpt lat="29.1442" lon="100.070573">
<time>2015-08-06T06:45:33Z</time></trkpt>
<trkpt lat="29.14418" lon="100.070533">
<time>2015-08-06T06:45:34Z</time></trkpt>
<trkpt lat="29.14418" lon="100.070493">
<time>2015-08-06T06:45:35Z</time></trkpt>
<trkpt lat="29.14418" lon="100.070443">
<time>2015-08-06T06:45:36Z</time></trkpt>
<trkpt lat="29.144191" lon="100.070403">
<time>2015-08-06T06:45:37Z</time></trkpt>
<trkpt lat="29.144221" lon="100.070323">
<time>2015-08-06T06:45:38Z</time></trkpt>
<trkpt lat="29.144261" lon="100.070263">
<time>2015-08-06T06:45:39Z</time></trkpt>
<trkpt lat="29.144341" lon="100.070183">
<time>2015-08-06T06:45:40Z</time></trkpt>
<trkpt lat="29.144521" lon="100.070024">
<time>2015-08-06T06:45:41Z</time></trkpt>
<trkpt lat="29.144671" lon="100.069914">
<time>2015-08-06T06:45:42Z</time></trkpt>
<trkpt lat="29.144761" lon="100.069864">
<time>2015-08-06T06:45:43Z</time></trkpt>
<trkpt lat="29.144861" lon="100.069804">
<time>2015-08-06T06:45:44Z</time></trkpt>
<trkpt lat="29.144931" lon="100.069774">
<time>2015-08-06T06:45:45Z</time></trkpt>
<trkpt lat="29.145031" lon="100.069744">
<time>2015-08-06T06:45:46Z</time></trkpt>
<trkpt lat="29.145091" lon="100.069734">
<time>2015-08-06T06:45:47Z</time></trkpt>
<trkpt lat="29.14535" lon="100.069704">
<time>2015-08-06T06:45:48Z</time></trkpt>
<trkpt lat="29.14539" lon="100.069684">
<time>2015-08-06T06:45:49Z</time></trkpt>
<trkpt lat="29.14543" lon="100.069674">
<time>2015-08-06T06:45:50Z</time></trkpt>
<trkpt lat="29.14546" lon="100.069644">
<time>2015-08-06T06:45:51Z</time></trkpt>
<trkpt lat="29.14547" lon="100.069614">
<time>2015-08-06T06:45:52Z</time></trkpt>
<trkpt lat="29.14549" lon="100.069584">
<time>2015-08-06T06:45:53Z</time></trkpt>
<trkpt lat="29.145491" lon="100.069554">
<time>2015-08-06T06:45:54Z</time></trkpt>
<trkpt lat="29.145491" lon="100.069514">
<time>2015-08-06T06:45:55Z</time></trkpt>
<trkpt lat="29.145481" lon="100.069474">
<time>2015-08-06T06:45:56Z</time></trkpt>
<trkpt lat="29.145461" lon="100.069444">
<time>2015-08-06T06:45:57Z</time></trkpt>
<trkpt lat="29.145431" lon="100.069424">
<time>2015-08-06T06:45:58Z</time></trkpt>
<trkpt lat="29.145401" lon="100.069394">
<time>2015-08-06T06:45:59Z</time></trkpt>
<trkpt lat="29.145331" lon="100.069384">
<time>2015-08-06T06:46:00Z</time></trkpt>
<trkpt lat="29.145281" lon="100.069384">
<time>2015-08-06T06:46:01Z</time></trkpt>
<trkpt lat="29.145101" lon="100.069434">
<time>2015-08-06T06:46:02Z</time></trkpt>
<trkpt lat="29.144901" lon="100.069504">
<time>2015-08-06T06:46:03Z</time></trkpt>
<trkpt lat="29.144761" lon="100.069544">
<time>2015-08-06T06:46:04Z</time></trkpt>
<trkpt lat="29.144701" lon="100.069554">
<time>2015-08-06T06:46:05Z</time></trkpt>
<trkpt lat="29.144581" lon="100.069584">
<time>2015-08-06T06:46:06Z</time></trkpt>
<trkpt lat="29.144421" lon="100.069604">
<time>2015-08-06T06:46:07Z</time></trkpt>
<trkpt lat="29.144291" lon="100.069624">
<time>2015-08-06T06:46:08Z</time></trkpt>
<trkpt lat="29.143902" lon="100.069674">
<time>2015-08-06T06:46:09Z</time></trkpt>
<trkpt lat="29.143602" lon="100.069734">
<time>2015-08-06T06:46:10Z</time></trkpt>
<trkpt lat="29.143432" lon="100.069774">
<time>2015-08-06T06:46:11Z</time></trkpt>
<trkpt lat="29.143342" lon="100.069794">
<time>2015-08-06T06:46:12Z</time></trkpt>
<trkpt lat="29.143312" lon="100.069794">
<time>2015-08-06T06:46:13Z</time></trkpt>
<trkpt lat="29.143282" lon="100.069784">
<time>2015-08-06T06:46:14Z</time></trkpt>
<trkpt lat="29.143262" lon="100.069764">
<time>2015-08-06T06:46:15Z</time></trkpt>
<trkpt lat="29.143242" lon="100.069754">
<time>2015-08-06T06:46:16Z</time></trkpt>
<trkpt lat="29.143222" lon="100.069724">
<time>2015-08-06T06:46:17Z</time></trkpt>
<trkpt lat="29.143212" lon="100.069684">
<time>2015-08-06T06:46:18Z</time></trkpt>
<trkpt lat="29.143212" lon="100.069654">
<time>2015-08-06T06:46:19Z</time></trkpt>
<trkpt lat="29.143222" lon="100.069634">
<time>2015-08-06T06:46:20Z</time></trkpt>
<trkpt lat="29.143232" lon="100.069604">
<time>2015-08-06T06:46:21Z</time></trkpt>
<trkpt lat="29.143252" lon="100.069574">
<time>2015-08-06T06:46:22Z</time></trkpt>
<trkpt lat="29.143282" lon="100.069544">
<time>2015-08-06T06:46:23Z</time></trkpt>
<trkpt lat="29.143352" lon="100.069514">
<time>2015-08-06T06:46:24Z</time></trkpt>
<trkpt lat="29.143442" lon="100.069484">
<time>2015-08-06T06:46:25Z</time></trkpt>
<trkpt lat="29.143622" lon="100.069414">
<time>2015-08-06T06:46:26Z</time></trkpt>
<trkpt lat="29.143692" lon="100.069384">
<time>2015-08-06T06:46:27Z</time></trkpt>
<trkpt lat="29.144022" lon="100.069185">
<time>2015-08-06T06:46:28Z</time></trkpt>
<trkpt lat="29.144432" lon="100.068905">
<time>2015-08-06T06:46:29Z</time></trkpt>
<trkpt lat="29.144822" lon="100.068645">
<time>2015-08-06T06:46:30Z</time></trkpt>
<trkpt lat="29.144912" lon="100.068556">
<time>2015-08-06T06:46:31Z</time></trkpt>
<trkpt lat="29.145022" lon="100.068446">
<time>2015-08-06T06:46:32Z</time></trkpt>
<trkpt lat="29.145092" lon="100.068346">
<time>2015-08-06T06:46:33Z</time></trkpt>
<trkpt lat="29.145152" lon="100.068236">
<time>2015-08-06T06:46:34Z</time></trkpt>
<trkpt lat="29.145193" lon="100.068146">
<time>2015-08-06T06:46:35Z</time></trkpt>
<trkpt lat="29.145223" lon="100.068006">
<time>2015-08-06T06:46:36Z</time></trkpt>
<trkpt lat="29.145223" lon="100.067827">
<time>2015-08-06T06:46:37Z</time></trkpt>
<trkpt lat="29.145213" lon="100.067657">
<time>2015-08-06T06:46:38Z</time></trkpt>
<trkpt lat="29.145164" lon="100.067347">
<time>2015-08-06T06:46:39Z</time></trkpt>
<trkpt lat="29.145104" lon="100.067028">
<time>2015-08-06T06:46:40Z</time></trkpt>
<trkpt lat="29.145044" lon="100.066808">
<time>2015-08-06T06:46:41Z</time></trkpt>
<trkpt lat="29.144885" lon="100.066269">
<time>2015-08-06T06:46:42Z</time></trkpt>
<trkpt lat="29.144657" lon="100.06546">
<time>2015-08-06T06:46:43Z</time></trkpt>
<trkpt lat="29.144517" lon="100.064971">
<time>2015-08-06T06:46:44Z</time></trkpt>
<trkpt lat="29.144478" lon="100.064841">
<time>2015-08-06T06:46:45Z</time></trkpt>
<trkpt lat="29.144388" lon="100.064651">
<time>2015-08-06T06:46:46Z</time></trkpt>
<trkpt lat="29.144298" lon="100.064512">
<time>2015-08-06T06:46:47Z</time></trkpt>
<trkpt lat="29.144238" lon="100.064432">
<time>2015-08-06T06:46:48Z</time></trkpt>
<trkpt lat="29.144168" lon="100.064362">
<time>2015-08-06T06:46:49Z</time></trkpt>
<trkpt lat="29.144109" lon="100.064312">
<time>2015-08-06T06:46:50Z</time></trkpt>
<trkpt lat="29.144009" lon="100.064242">
<time>2015-08-06T06:46:51Z</time></trkpt>
<trkpt lat="29.143929" lon="100.064202">
<time>2015-08-06T06:46:52Z</time></trkpt>
<trkpt lat="29.143849" lon="100.064182">
<time>2015-08-06T06:46:53Z</time></trkpt>
<trkpt lat="29.143459" lon="100.064082">
<time>2015-08-06T06:46:54Z</time></trkpt>
<trkpt lat="29.1431" lon="100.064022">
<time>2015-08-06T06:46:55Z</time></trkpt>
<trkpt lat="29.14269" lon="100.063952">
<time>2015-08-06T06:46:56Z</time></trkpt>
<trkpt lat="29.142271" lon="100.063853">
<time>2015-08-06T06:46:57Z</time></trkpt>
<trkpt lat="29.141731" lon="100.063743">
<time>2015-08-06T06:46:58Z</time></trkpt>
<trkpt lat="29.141232" lon="100.063633">
<time>2015-08-06T06:46:59Z</time></trkpt>
<trkpt lat="29.140642" lon="100.063513">
<time>2015-08-06T06:47:00Z</time></trkpt>
<trkpt lat="29.140183" lon="100.063413">
<time>2015-08-06T06:47:01Z</time></trkpt>
<trkpt lat="29.140113" lon="100.063393">
<time>2015-08-06T06:47:02Z</time></trkpt>
<trkpt lat="29.140013" lon="100.063364">
<time>2015-08-06T06:47:03Z</time></trkpt>
<trkpt lat="29.139963" lon="100.063344">
<time>2015-08-06T06:47:04Z</time></trkpt>
<trkpt lat="29.139913" lon="100.063304">
<time>2015-08-06T06:47:05Z</time></trkpt>
<trkpt lat="29.139833" lon="100.063264">
<time>2015-08-06T06:47:06Z</time></trkpt>
<trkpt lat="29.139754" lon="100.063184">
<time>2015-08-06T06:47:07Z</time></trkpt>
<trkpt lat="29.139694" lon="100.063114">
<time>2015-08-06T06:47:08Z</time></trkpt>
<trkpt lat="29.139614" lon="100.063024">
<time>2015-08-06T06:47:09Z</time></trkpt>
<trkpt lat="29.139504" lon="100.062864">
<time>2015-08-06T06:47:10Z</time></trkpt>
<trkpt lat="29.139285" lon="100.062545">
<time>2015-08-06T06:47:11Z</time></trkpt>
<trkpt lat="29.139026" lon="100.062106">
<time>2015-08-06T06:47:12Z</time></trkpt>
<trkpt lat="29.138906" lon="100.061876">
<time>2015-08-06T06:47:13Z</time></trkpt>
<trkpt lat="29.138817" lon="100.061676">
<time>2015-08-06T06:47:14Z</time></trkpt>
<trkpt lat="29.138757" lon="100.061577">
<time>2015-08-06T06:47:15Z</time></trkpt>
<trkpt lat="29.138657" lon="100.061437">
<time>2015-08-06T06:47:16Z</time></trkpt>
<trkpt lat="29.138587" lon="100.061357">
<time>2015-08-06T06:47:17Z</time></trkpt>
<trkpt lat="29.138258" lon="100.061008">
<time>2015-08-06T06:47:18Z</time></trkpt>
<trkpt lat="29.138079" lon="100.060768">
<time>2015-08-06T06:47:19Z</time></trkpt>
<trkpt lat="29.138009" lon="100.060648">
<time>2015-08-06T06:47:20Z</time></trkpt>
<trkpt lat="29.137949" lon="100.060538">
<time>2015-08-06T06:47:21Z</time></trkpt>
<trkpt lat="29.137889" lon="100.060359">
<time>2015-08-06T06:47:22Z</time></trkpt>
<trkpt lat="29.13778" lon="100.05981">
<time>2015-08-06T06:47:23Z</time></trkpt>
<trkpt lat="29.137731" lon="100.05944">
<time>2015-08-06T06:47:24Z</time></trkpt>
<trkpt lat="29.137721" lon="100.059351">
<time>2015-08-06T06:47:25Z</time></trkpt>
<trkpt lat="29.137721" lon="100.059181">
<time>2015-08-06T06:47:26Z</time></trkpt>
<trkpt lat="29.137732" lon="100.059081">
<time>2015-08-06T06:47:27Z</time></trkpt>
<trkpt lat="29.137752" lon="100.058971">
<time>2015-08-06T06:47:28Z</time></trkpt>
<trkpt lat="29.137843" lon="100.058462">
<time>2015-08-06T06:47:29Z</time></trkpt>
<trkpt lat="29.137933" lon="100.058013">
<time>2015-08-06T06:47:30Z</time></trkpt>
<trkpt lat="29.137974" lon="100.057843">
<time>2015-08-06T06:47:31Z</time></trkpt>
<trkpt lat="29.138024" lon="100.057664">
<time>2015-08-06T06:47:32Z</time></trkpt>
<trkpt lat="29.138094" lon="100.057434">
<time>2015-08-06T06:47:33Z</time></trkpt>
<trkpt lat="29.138144" lon="100.057314">
<time>2015-08-06T06:47:34Z</time></trkpt>
<trkpt lat="29.138235" lon="100.057125">
<time>2015-08-06T06:47:35Z</time></trkpt>
<trkpt lat="29.138475" lon="100.056706">
<time>2015-08-06T06:47:36Z</time></trkpt>
<trkpt lat="29.138806" lon="100.056127">
<time>2015-08-06T06:47:37Z</time></trkpt>
<trkpt lat="29.139087" lon="100.055618">
<time>2015-08-06T06:47:38Z</time></trkpt>
<trkpt lat="29.139297" lon="100.055208">
<time>2015-08-06T06:47:39Z</time></trkpt>
<trkpt lat="29.139408" lon="100.054979">
<time>2015-08-06T06:47:40Z</time></trkpt>
<trkpt lat="29.139508" lon="100.054729">
<time>2015-08-06T06:47:41Z</time></trkpt>
<trkpt lat="29.139648" lon="100.05441">
<time>2015-08-06T06:47:42Z</time></trkpt>
<trkpt lat="29.13996" lon="100.053692">
<time>2015-08-06T06:47:43Z</time></trkpt>
<trkpt lat="29.140301" lon="100.052843">
<time>2015-08-06T06:47:44Z</time></trkpt>
<trkpt lat="29.140471" lon="100.052444">
<time>2015-08-06T06:47:45Z</time></trkpt>
<trkpt lat="29.140522" lon="100.052304">
<time>2015-08-06T06:47:46Z</time></trkpt>
<trkpt lat="29.140532" lon="100.052235">
<time>2015-08-06T06:47:47Z</time></trkpt>
<trkpt lat="29.140542" lon="100.052175">
<time>2015-08-06T06:47:48Z</time></trkpt>
<trkpt lat="29.140552" lon="100.052085">
<time>2015-08-06T06:47:49Z</time></trkpt>
<trkpt lat="29.140542" lon="100.052035">
<time>2015-08-06T06:47:50Z</time></trkpt>
<trkpt lat="29.140532" lon="100.051925">
<time>2015-08-06T06:47:51Z</time></trkpt>
<trkpt lat="29.140513" lon="100.051885">
<time>2015-08-06T06:47:52Z</time></trkpt>
<trkpt lat="29.140493" lon="100.051836">
<time>2015-08-06T06:47:53Z</time></trkpt>
<trkpt lat="29.140473" lon="100.051766">
<time>2015-08-06T06:47:54Z</time></trkpt>
<trkpt lat="29.140443" lon="100.051716">
<time>2015-08-06T06:47:55Z</time></trkpt>
<trkpt lat="29.140403" lon="100.051646">
<time>2015-08-06T06:47:56Z</time></trkpt>
<trkpt lat="29.140284" lon="100.051466">
<time>2015-08-06T06:47:57Z</time></trkpt>
<trkpt lat="29.140174" lon="100.051317">
<time>2015-08-06T06:47:58Z</time></trkpt>
<trkpt lat="29.140094" lon="100.051217">
<time>2015-08-06T06:47:59Z</time></trkpt>
<trkpt lat="29.139984" lon="100.051107">
<time>2015-08-06T06:48:00Z</time></trkpt>
<trkpt lat="29.139945" lon="100.051077">
<time>2015-08-06T06:48:01Z</time></trkpt>
<trkpt lat="29.139885" lon="100.051027">
<time>2015-08-06T06:48:02Z</time></trkpt>
<trkpt lat="29.139805" lon="100.050987">
<time>2015-08-06T06:48:03Z</time></trkpt>
<trkpt lat="29.139745" lon="100.050967">
<time>2015-08-06T06:48:04Z</time></trkpt>
<trkpt lat="29.139595" lon="100.050928">
<time>2015-08-06T06:48:05Z</time></trkpt>
<trkpt lat="29.139435" lon="100.050898">
<time>2015-08-06T06:48:06Z</time></trkpt>
<trkpt lat="29.139166" lon="100.050848">
<time>2015-08-06T06:48:07Z</time></trkpt>
<trkpt lat="29.138856" lon="100.050798">
<time>2015-08-06T06:48:08Z</time></trkpt>
<trkpt lat="29.138706" lon="100.050768">
<time>2015-08-06T06:48:09Z</time></trkpt>
<trkpt lat="29.138167" lon="100.050658">
<time>2015-08-06T06:48:10Z</time></trkpt>
<trkpt lat="29.137917" lon="100.050598">
<time>2015-08-06T06:48:11Z</time></trkpt>
<trkpt lat="29.137797" lon="100.050578">
<time>2015-08-06T06:48:12Z</time></trkpt>
<trkpt lat="29.137667" lon="100.050548">
<time>2015-08-06T06:48:13Z</time></trkpt>
<trkpt lat="29.137617" lon="100.050538">
<time>2015-08-06T06:48:14Z</time></trkpt>
<trkpt lat="29.137558" lon="100.050518">
<time>2015-08-06T06:48:15Z</time></trkpt>
<trkpt lat="29.137518" lon="100.050499">
<time>2015-08-06T06:48:16Z</time></trkpt>
<trkpt lat="29.137468" lon="100.050459">
<time>2015-08-06T06:48:17Z</time></trkpt>
<trkpt lat="29.137438" lon="100.050439">
<time>2015-08-06T06:48:18Z</time></trkpt>
<trkpt lat="29.137408" lon="100.050409">
<time>2015-08-06T06:48:19Z</time></trkpt>
<trkpt lat="29.137368" lon="100.050349">
<time>2015-08-06T06:48:20Z</time></trkpt>
<trkpt lat="29.137358" lon="100.050309">
<time>2015-08-06T06:48:21Z</time></trkpt>
<trkpt lat="29.137348" lon="100.050249">
<time>2015-08-06T06:48:22Z</time></trkpt>
<trkpt lat="29.137358" lon="100.050169">
<time>2015-08-06T06:48:23Z</time></trkpt>
<trkpt lat="29.137369" lon="100.050089">
<time>2015-08-06T06:48:24Z</time></trkpt>
<trkpt lat="29.137419" lon="100.04996">
<time>2015-08-06T06:48:25Z</time></trkpt>
<trkpt lat="29.137509" lon="100.04978">
<time>2015-08-06T06:48:26Z</time></trkpt>
<trkpt lat="29.13778" lon="100.049371">
<time>2015-08-06T06:48:27Z</time></trkpt>
<trkpt lat="29.13794" lon="100.049172">
<time>2015-08-06T06:48:28Z</time></trkpt>
<trkpt lat="29.13796" lon="100.049132">
<time>2015-08-06T06:48:29Z</time></trkpt>
<trkpt lat="29.13799" lon="100.049082">
<time>2015-08-06T06:48:30Z</time></trkpt>
<trkpt lat="29.13801" lon="100.049042">
<time>2015-08-06T06:48:31Z</time></trkpt>
<trkpt lat="29.13802" lon="100.048982">
<time>2015-08-06T06:48:32Z</time></trkpt>
<trkpt lat="29.13802" lon="100.048922">
<time>2015-08-06T06:48:33Z</time></trkpt>
<trkpt lat="29.138011" lon="100.048862">
<time>2015-08-06T06:48:34Z</time></trkpt>
<trkpt lat="29.137991" lon="100.048822">
<time>2015-08-06T06:48:35Z</time></trkpt>
<trkpt lat="29.137961" lon="100.048802">
<time>2015-08-06T06:48:36Z</time></trkpt>
<trkpt lat="29.137931" lon="100.048782">
<time>2015-08-06T06:48:37Z</time></trkpt>
<trkpt lat="29.137881" lon="100.048772">
<time>2015-08-06T06:48:38Z</time></trkpt>
<trkpt lat="29.137861" lon="100.048772">
<time>2015-08-06T06:48:39Z</time></trkpt>
<trkpt lat="29.137801" lon="100.048792">
<time>2015-08-06T06:48:40Z</time></trkpt>
<trkpt lat="29.137721" lon="100.048822">
<time>2015-08-06T06:48:41Z</time></trkpt>
<trkpt lat="29.137541" lon="100.048922">
<time>2015-08-06T06:48:42Z</time></trkpt>
<trkpt lat="29.137451" lon="100.048972">
<time>2015-08-06T06:48:43Z</time></trkpt>
<trkpt lat="29.136891" lon="100.049271">
<time>2015-08-06T06:48:44Z</time></trkpt>
<trkpt lat="29.13651" lon="100.049491">
<time>2015-08-06T06:48:45Z</time></trkpt>
<trkpt lat="29.13619" lon="100.04964">
<time>2015-08-06T06:48:46Z</time></trkpt>
<trkpt lat="29.13607" lon="100.04969">
<time>2015-08-06T06:48:47Z</time></trkpt>
<trkpt lat="29.13568" lon="100.04984">
<time>2015-08-06T06:48:48Z</time></trkpt>
<trkpt lat="29.1353" lon="100.04999">
<time>2015-08-06T06:48:49Z</time></trkpt>
<trkpt lat="29.13491" lon="100.050139">
<time>2015-08-06T06:48:50Z</time></trkpt>
<trkpt lat="29.13448" lon="100.050299">
<time>2015-08-06T06:48:51Z</time></trkpt>
<trkpt lat="29.1342" lon="100.050379">
<time>2015-08-06T06:48:52Z</time></trkpt>
<trkpt lat="29.133751" lon="100.050489">
<time>2015-08-06T06:48:53Z</time></trkpt>
<trkpt lat="29.133541" lon="100.050549">
<time>2015-08-06T06:48:54Z</time></trkpt>
<trkpt lat="29.133411" lon="100.050598">
<time>2015-08-06T06:48:55Z</time></trkpt>
<trkpt lat="29.133311" lon="100.050648">
<time>2015-08-06T06:48:56Z</time></trkpt>
<trkpt lat="29.13272" lon="100.050938">
<time>2015-08-06T06:48:57Z</time></trkpt>
<trkpt lat="29.13254" lon="100.051028">
<time>2015-08-06T06:48:58Z</time></trkpt>
<trkpt lat="29.13228" lon="100.051167">
<time>2015-08-06T06:48:59Z</time></trkpt>
<trkpt lat="29.13207" lon="100.051297">
<time>2015-08-06T06:49:00Z</time></trkpt>
<trkpt lat="29.13176" lon="100.051477">
<time>2015-08-06T06:49:01Z</time></trkpt>
<trkpt lat="29.13161" lon="100.051566">
<time>2015-08-06T06:49:02Z</time></trkpt>
<trkpt lat="29.13157" lon="100.051586">
<time>2015-08-06T06:49:03Z</time></trkpt>
<trkpt lat="29.13153" lon="100.051596">
<time>2015-08-06T06:49:04Z</time></trkpt>
<trkpt lat="29.13149" lon="100.051606">
<time>2015-08-06T06:49:05Z</time></trkpt>
<trkpt lat="29.13145" lon="100.051606">
<time>2015-08-06T06:49:06Z</time></trkpt>
<trkpt lat="29.13142" lon="100.051596">
<time>2015-08-06T06:49:07Z</time></trkpt>
<trkpt lat="29.13138" lon="100.051576">
<time>2015-08-06T06:49:08Z</time></trkpt>
<trkpt lat="29.13136" lon="100.051536">
<time>2015-08-06T06:49:09Z</time></trkpt>
<trkpt lat="29.13135" lon="100.051497">
<time>2015-08-06T06:49:10Z</time></trkpt>
<trkpt lat="29.13135" lon="100.051457">
<time>2015-08-06T06:49:11Z</time></trkpt>
<trkpt lat="29.131371" lon="100.051397">
<time>2015-08-06T06:49:12Z</time></trkpt>
<trkpt lat="29.131411" lon="100.051337">
<time>2015-08-06T06:49:13Z</time></trkpt>
<trkpt lat="29.131481" lon="100.051277">
<time>2015-08-06T06:49:14Z</time></trkpt>
<trkpt lat="29.131751" lon="100.051117">
<time>2015-08-06T06:49:15Z</time></trkpt>
<trkpt lat="29.131941" lon="100.050958">
<time>2015-08-06T06:49:16Z</time></trkpt>
<trkpt lat="29.132031" lon="100.050868">
<time>2015-08-06T06:49:17Z</time></trkpt>
<trkpt lat="29.132261" lon="100.050658">
<time>2015-08-06T06:49:18Z</time></trkpt>
<trkpt lat="29.132361" lon="100.050569">
<time>2015-08-06T06:49:19Z</time></trkpt>
<trkpt lat="29.132682" lon="100.050369">
<time>2015-08-06T06:49:20Z</time></trkpt>
<trkpt lat="29.133112" lon="100.05012">
<time>2015-08-06T06:49:21Z</time></trkpt>
<trkpt lat="29.133432" lon="100.04993">
<time>2015-08-06T06:49:22Z</time></trkpt>
<trkpt lat="29.133682" lon="100.04975">
<time>2015-08-06T06:49:23Z</time></trkpt>
<trkpt lat="29.133782" lon="100.04967">
<time>2015-08-06T06:49:24Z</time></trkpt>
<trkpt lat="29.134092" lon="100.049411">
<time>2015-08-06T06:49:25Z</time></trkpt>
<trkpt lat="29.134233" lon="100.049311">
<time>2015-08-06T06:49:26Z</time></trkpt>
<trkpt lat="29.134283" lon="100.049281">
<time>2015-08-06T06:49:27Z</time></trkpt>
<trkpt lat="29.134383" lon="100.049231">
<time>2015-08-06T06:49:28Z</time></trkpt>
<trkpt lat="29.134603" lon="100.049112">
<time>2015-08-06T06:49:29Z</time></trkpt>
<trkpt lat="29.134803" lon="100.048982">
<time>2015-08-06T06:49:30Z</time></trkpt>
<trkpt lat="29.134853" lon="100.048942">
<time>2015-08-06T06:49:31Z</time></trkpt>
<trkpt lat="29.135153" lon="100.048683">
<time>2015-08-06T06:49:32Z</time></trkpt>
<trkpt lat="29.135293" lon="100.048553">
<time>2015-08-06T06:49:33Z</time></trkpt>
<trkpt lat="29.135574" lon="100.048314">
<time>2015-08-06T06:49:34Z</time></trkpt>
<trkpt lat="29.135834" lon="100.048084">
<time>2015-08-06T06:49:35Z</time></trkpt>
<trkpt lat="29.135894" lon="100.048024">
<time>2015-08-06T06:49:36Z</time></trkpt>
<trkpt lat="29.136084" lon="100.047805">
<time>2015-08-06T06:49:37Z</time></trkpt>
<trkpt lat="29.136134" lon="100.047725">
<time>2015-08-06T06:49:38Z</time></trkpt>
<trkpt lat="29.136315" lon="100.047475">
<time>2015-08-06T06:49:39Z</time></trkpt>
<trkpt lat="29.136455" lon="100.047206">
<time>2015-08-06T06:49:40Z</time></trkpt>
<trkpt lat="29.136616" lon="100.046857">
<time>2015-08-06T06:49:41Z</time></trkpt>
<trkpt lat="29.136987" lon="100.046039">
<time>2015-08-06T06:49:42Z</time></trkpt>
<trkpt lat="29.137158" lon="100.04564">
<time>2015-08-06T06:49:43Z</time></trkpt>
<trkpt lat="29.137178" lon="100.04556">
<time>2015-08-06T06:49:44Z</time></trkpt>
<trkpt lat="29.137279" lon="100.045241">
<time>2015-08-06T06:49:45Z</time></trkpt>
<trkpt lat="29.137349" lon="100.045071">
<time>2015-08-06T06:49:46Z</time></trkpt>
<trkpt lat="29.13761" lon="100.044373">
<time>2015-08-06T06:49:47Z</time></trkpt>
<trkpt lat="29.137691" lon="100.044143">
<time>2015-08-06T06:49:48Z</time></trkpt>
<trkpt lat="29.137721" lon="100.044074">
<time>2015-08-06T06:49:49Z</time></trkpt>
<trkpt lat="29.137791" lon="100.043974">
<time>2015-08-06T06:49:50Z</time></trkpt>
<trkpt lat="29.137841" lon="100.043904">
<time>2015-08-06T06:49:51Z</time></trkpt>
<trkpt lat="29.137942" lon="100.043784">
<time>2015-08-06T06:49:52Z</time></trkpt>
<trkpt lat="29.138012" lon="100.043705">
<time>2015-08-06T06:49:53Z</time></trkpt>
<trkpt lat="29.138112" lon="100.043605">
<time>2015-08-06T06:49:54Z</time></trkpt>
<trkpt lat="29.138212" lon="100.043525">
<time>2015-08-06T06:49:55Z</time></trkpt>
<trkpt lat="29.138322" lon="100.043445">
<time>2015-08-06T06:49:56Z</time></trkpt>
<trkpt lat="29.138542" lon="100.043286">
<time>2015-08-06T06:49:57Z</time></trkpt>
<trkpt lat="29.138632" lon="100.043216">
<time>2015-08-06T06:49:58Z</time></trkpt>
<trkpt lat="29.138712" lon="100.043146">
<time>2015-08-06T06:49:59Z</time></trkpt>
<trkpt lat="29.138933" lon="100.042936">
<time>2015-08-06T06:50:00Z</time></trkpt>
<trkpt lat="29.139033" lon="100.042827">
<time>2015-08-06T06:50:01Z</time></trkpt>
<trkpt lat="29.139293" lon="100.042547">
<time>2015-08-06T06:50:02Z</time></trkpt>
<trkpt lat="29.139774" lon="100.042019">
<time>2015-08-06T06:50:03Z</time></trkpt>
<trkpt lat="29.139834" lon="100.041929">
<time>2015-08-06T06:50:04Z</time></trkpt>
<trkpt lat="29.140255" lon="100.04137">
<time>2015-08-06T06:50:05Z</time></trkpt>
<trkpt lat="29.140526" lon="100.040981">
<time>2015-08-06T06:50:06Z</time></trkpt>
<trkpt lat="29.140686" lon="100.040772">
<time>2015-08-06T06:50:07Z</time></trkpt>
<trkpt lat="29.140907" lon="100.040523">
<time>2015-08-06T06:50:08Z</time></trkpt>
<trkpt lat="29.141428" lon="100.039984">
<time>2015-08-06T06:50:09Z</time></trkpt>
<trkpt lat="29.141648" lon="100.039745">
<time>2015-08-06T06:50:10Z</time></trkpt>
<trkpt lat="29.141698" lon="100.039685">
<time>2015-08-06T06:50:11Z</time></trkpt>
<trkpt lat="29.141838" lon="100.039495">
<time>2015-08-06T06:50:12Z</time></trkpt>
<trkpt lat="29.142159" lon="100.039007">
<time>2015-08-06T06:50:13Z</time></trkpt>
<trkpt lat="29.14253" lon="100.038448">
<time>2015-08-06T06:50:14Z</time></trkpt>
<trkpt lat="29.142861" lon="100.037979">
<time>2015-08-06T06:50:15Z</time></trkpt>
<trkpt lat="29.142931" lon="100.03791">
<time>2015-08-06T06:50:16Z</time></trkpt>
<trkpt lat="29.143052" lon="100.03778">
<time>2015-08-06T06:50:17Z</time></trkpt>
<trkpt lat="29.143122" lon="100.03772">
<time>2015-08-06T06:50:18Z</time></trkpt>
<trkpt lat="29.143232" lon="100.03761">
<time>2015-08-06T06:50:19Z</time></trkpt>
<trkpt lat="29.143302" lon="100.037541">
<time>2015-08-06T06:50:20Z</time></trkpt>
<trkpt lat="29.143382" lon="100.037421">
<time>2015-08-06T06:50:21Z</time></trkpt>
<trkpt lat="29.143402" lon="100.037361">
<time>2015-08-06T06:50:22Z</time></trkpt>
<trkpt lat="29.143443" lon="100.037281">
<time>2015-08-06T06:50:23Z</time></trkpt>
<trkpt lat="29.143473" lon="100.037191">
<time>2015-08-06T06:50:24Z</time></trkpt>
<trkpt lat="29.143554" lon="100.036813">
<time>2015-08-06T06:50:25Z</time></trkpt>
<trkpt lat="29.143604" lon="100.036583">
<time>2015-08-06T06:50:26Z</time></trkpt>
<trkpt lat="29.143654" lon="100.036454">
<time>2015-08-06T06:50:27Z</time></trkpt>
<trkpt lat="29.143715" lon="100.036324">
<time>2015-08-06T06:50:28Z</time></trkpt>
<trkpt lat="29.143765" lon="100.036214">
<time>2015-08-06T06:50:29Z</time></trkpt>
<trkpt lat="29.143986" lon="100.035855">
<time>2015-08-06T06:50:30Z</time></trkpt>
<trkpt lat="29.144166" lon="100.035626">
<time>2015-08-06T06:50:31Z</time></trkpt>
<trkpt lat="29.144637" lon="100.035027">
<time>2015-08-06T06:50:32Z</time></trkpt>
<trkpt lat="29.144868" lon="100.034718">
<time>2015-08-06T06:50:33Z</time></trkpt>
<trkpt lat="29.145018" lon="100.034509">
<time>2015-08-06T06:50:34Z</time></trkpt>
<trkpt lat="29.145219" lon="100.03422">
<time>2015-08-06T06:50:35Z</time></trkpt>
<trkpt lat="29.145249" lon="100.03416">
<time>2015-08-06T06:50:36Z</time></trkpt>
<trkpt lat="29.145269" lon="100.03411">
<time>2015-08-06T06:50:37Z</time></trkpt>
<trkpt lat="29.145269" lon="100.03407">
<time>2015-08-06T06:50:38Z</time></trkpt>
<trkpt lat="29.145269" lon="100.03402">
<time>2015-08-06T06:50:39Z</time></trkpt>
<trkpt lat="29.145269" lon="100.03398">
<time>2015-08-06T06:50:40Z</time></trkpt>
<trkpt lat="29.14525" lon="100.03394">
<time>2015-08-06T06:50:41Z</time></trkpt>
<trkpt lat="29.14521" lon="100.033901">
<time>2015-08-06T06:50:42Z</time></trkpt>
<trkpt lat="29.14517" lon="100.033881">
<time>2015-08-06T06:50:43Z</time></trkpt>
<trkpt lat="29.14512" lon="100.033881">
<time>2015-08-06T06:50:44Z</time></trkpt>
<trkpt lat="29.14507" lon="100.033891">
<time>2015-08-06T06:50:45Z</time></trkpt>
<trkpt lat="29.14502" lon="100.033911">
<time>2015-08-06T06:50:46Z</time></trkpt>
<trkpt lat="29.14496" lon="100.03396">
<time>2015-08-06T06:50:47Z</time></trkpt>
<trkpt lat="29.14489" lon="100.03402">
<time>2015-08-06T06:50:48Z</time></trkpt>
<trkpt lat="29.144709" lon="100.03421">
<time>2015-08-06T06:50:49Z</time></trkpt>
<trkpt lat="29.144348" lon="100.034629">
<time>2015-08-06T06:50:50Z</time></trkpt>
<trkpt lat="29.144028" lon="100.035037">
<time>2015-08-06T06:50:51Z</time></trkpt>
<trkpt lat="29.143877" lon="100.035197">
<time>2015-08-06T06:50:52Z</time></trkpt>
<trkpt lat="29.143767" lon="100.035287">
<time>2015-08-06T06:50:53Z</time></trkpt>
<trkpt lat="29.143647" lon="100.035367">
<time>2015-08-06T06:50:54Z</time></trkpt>
<trkpt lat="29.143397" lon="100.035556">
<time>2015-08-06T06:50:55Z</time></trkpt>
<trkpt lat="29.143247" lon="100.035686">
<time>2015-08-06T06:50:56Z</time></trkpt>
<trkpt lat="29.143167" lon="100.035765">
<time>2015-08-06T06:50:57Z</time></trkpt>
<trkpt lat="29.143096" lon="100.035845">
<time>2015-08-06T06:50:58Z</time></trkpt>
<trkpt lat="29.143016" lon="100.035945">
<time>2015-08-06T06:50:59Z</time></trkpt>
<trkpt lat="29.142946" lon="100.036055">
<time>2015-08-06T06:51:00Z</time></trkpt>
<trkpt lat="29.142745" lon="100.036444">
<time>2015-08-06T06:51:01Z</time></trkpt>
<trkpt lat="29.142575" lon="100.036683">
<time>2015-08-06T06:51:02Z</time></trkpt>
<trkpt lat="29.142394" lon="100.036922">
<time>2015-08-06T06:51:03Z</time></trkpt>
<trkpt lat="29.142144" lon="100.037221">
<time>2015-08-06T06:51:04Z</time></trkpt>
<trkpt lat="29.141913" lon="100.037521">
<time>2015-08-06T06:51:05Z</time></trkpt>
<trkpt lat="29.141352" lon="100.038249">
<time>2015-08-06T06:51:06Z</time></trkpt>
<trkpt lat="29.141121" lon="100.038528">
<time>2015-08-06T06:51:07Z</time></trkpt>
<trkpt lat="29.140951" lon="100.038697">
<time>2015-08-06T06:51:08Z</time></trkpt>
<trkpt lat="29.140831" lon="100.038787">
<time>2015-08-06T06:51:09Z</time></trkpt>
<trkpt lat="29.140711" lon="100.038867">
<time>2015-08-06T06:51:10Z</time></trkpt>
<trkpt lat="29.140291" lon="100.039126">
<time>2015-08-06T06:51:11Z</time></trkpt>
<trkpt lat="29.14013" lon="100.039236">
<time>2015-08-06T06:51:12Z</time></trkpt>
<trkpt lat="29.13997" lon="100.039356">
<time>2015-08-06T06:51:13Z</time></trkpt>
<trkpt lat="29.13968" lon="100.039605">
<time>2015-08-06T06:51:14Z</time></trkpt>
<trkpt lat="29.139449" lon="100.039834">
<time>2015-08-06T06:51:15Z</time></trkpt>
<trkpt lat="29.139289" lon="100.040064">
<time>2015-08-06T06:51:16Z</time></trkpt>
<trkpt lat="29.139179" lon="100.040243">
<time>2015-08-06T06:51:17Z</time></trkpt>
<trkpt lat="29.139139" lon="100.040293">
<time>2015-08-06T06:51:18Z</time></trkpt>
<trkpt lat="29.139099" lon="100.040323">
<time>2015-08-06T06:51:19Z</time></trkpt>
<trkpt lat="29.139059" lon="100.040343">
<time>2015-08-06T06:51:20Z</time></trkpt>
<trkpt lat="29.139019" lon="100.040353">
<time>2015-08-06T06:51:21Z</time></trkpt>
<trkpt lat="29.138979" lon="100.040343">
<time>2015-08-06T06:51:22Z</time></trkpt>
<trkpt lat="29.138949" lon="100.040323">
<time>2015-08-06T06:51:23Z</time></trkpt>
<trkpt lat="29.138919" lon="100.040293">
<time>2015-08-06T06:51:24Z</time></trkpt>
<trkpt lat="29.138899" lon="100.040253">
<time>2015-08-06T06:51:25Z</time></trkpt>
<trkpt lat="29.138889" lon="100.040204">
<time>2015-08-06T06:51:26Z</time></trkpt>
<trkpt lat="29.138899" lon="100.040164">
<time>2015-08-06T06:51:27Z</time></trkpt>
<trkpt lat="29.138919" lon="100.040104">
<time>2015-08-06T06:51:28Z</time></trkpt>
<trkpt lat="29.138959" lon="100.040024">
<time>2015-08-06T06:51:29Z</time></trkpt>
<trkpt lat="29.1391" lon="100.039864">
<time>2015-08-06T06:51:30Z</time></trkpt>
<trkpt lat="29.13949" lon="100.039406">
<time>2015-08-06T06:51:31Z</time></trkpt>
<trkpt lat="29.139661" lon="100.039226">
<time>2015-08-06T06:51:32Z</time></trkpt>
<trkpt lat="29.139971" lon="100.038927">
<time>2015-08-06T06:51:33Z</time></trkpt>
<trkpt lat="29.140192" lon="100.038737">
<time>2015-08-06T06:51:34Z</time></trkpt>
<trkpt lat="29.140342" lon="100.038608">
<time>2015-08-06T06:51:35Z</time></trkpt>
<trkpt lat="29.140592" lon="100.038358">
<time>2015-08-06T06:51:36Z</time></trkpt>
<trkpt lat="29.140662" lon="100.038289">
<time>2015-08-06T06:51:37Z</time></trkpt>
<trkpt lat="29.140742" lon="100.038189">
<time>2015-08-06T06:51:38Z</time></trkpt>
<trkpt lat="29.140963" lon="100.03788">
<time>2015-08-06T06:51:39Z</time></trkpt>
<trkpt lat="29.141013" lon="100.03779">
<time>2015-08-06T06:51:40Z</time></trkpt>
<trkpt lat="29.141114" lon="100.03759">
<time>2015-08-06T06:51:41Z</time></trkpt>
<trkpt lat="29.141204" lon="100.037381">
<time>2015-08-06T06:51:42Z</time></trkpt>
<trkpt lat="29.141284" lon="100.037172">
<time>2015-08-06T06:51:43Z</time></trkpt>
<trkpt lat="29.141435" lon="100.036723">
<time>2015-08-06T06:51:44Z</time></trkpt>
<trkpt lat="29.141577" lon="100.036194">
<time>2015-08-06T06:51:45Z</time></trkpt>
<trkpt lat="29.141627" lon="100.036055">
<time>2015-08-06T06:51:46Z</time></trkpt>
<trkpt lat="29.141738" lon="100.035775">
<time>2015-08-06T06:51:47Z</time></trkpt>
<trkpt lat="29.141818" lon="100.035556">
<time>2015-08-06T06:51:48Z</time></trkpt>
<trkpt lat="29.141879" lon="100.035357">
<time>2015-08-06T06:51:49Z</time></trkpt>
<trkpt lat="29.141899" lon="100.035227">
<time>2015-08-06T06:51:50Z</time></trkpt>
<trkpt lat="29.14191" lon="100.034858">
<time>2015-08-06T06:51:51Z</time></trkpt>
<trkpt lat="29.141911" lon="100.034519">
<time>2015-08-06T06:51:52Z</time></trkpt>
<trkpt lat="29.141931" lon="100.03422">
<time>2015-08-06T06:51:53Z</time></trkpt>
<trkpt lat="29.141962" lon="100.03404">
<time>2015-08-06T06:51:54Z</time></trkpt>
<trkpt lat="29.142043" lon="100.033681">
<time>2015-08-06T06:51:55Z</time></trkpt>
<trkpt lat="29.142073" lon="100.033522">
<time>2015-08-06T06:51:56Z</time></trkpt>
<trkpt lat="29.142073" lon="100.033382">
<time>2015-08-06T06:51:57Z</time></trkpt>
<trkpt lat="29.142044" lon="100.033243">
<time>2015-08-06T06:51:58Z</time></trkpt>
<trkpt lat="29.141905" lon="100.032953">
<time>2015-08-06T06:51:59Z</time></trkpt>
<trkpt lat="29.141527" lon="100.032295">
<time>2015-08-06T06:52:00Z</time></trkpt>
<trkpt lat="29.141129" lon="100.031627">
<time>2015-08-06T06:52:01Z</time></trkpt>
<trkpt lat="29.14086" lon="100.031199">
<time>2015-08-06T06:52:02Z</time></trkpt>
<trkpt lat="29.14081" lon="100.031129">
<time>2015-08-06T06:52:03Z</time></trkpt>
<trkpt lat="29.140661" lon="100.030959">
<time>2015-08-06T06:52:04Z</time></trkpt>
<trkpt lat="29.140232" lon="100.03054">
<time>2015-08-06T06:52:05Z</time></trkpt>
<trkpt lat="29.139644" lon="100.030072">
<time>2015-08-06T06:52:06Z</time></trkpt>
<trkpt lat="29.138876" lon="100.029454">
<time>2015-08-06T06:52:07Z</time></trkpt>
<trkpt lat="29.138418" lon="100.029025">
<time>2015-08-06T06:52:08Z</time></trkpt>
<trkpt lat="29.138009" lon="100.028606">
<time>2015-08-06T06:52:09Z</time></trkpt>
<trkpt lat="29.13783" lon="100.028427">
<time>2015-08-06T06:52:10Z</time></trkpt>
<trkpt lat="29.13776" lon="100.028337">
<time>2015-08-06T06:52:11Z</time></trkpt>
<trkpt lat="29.13765" lon="100.028198">
<time>2015-08-06T06:52:12Z</time></trkpt>
<trkpt lat="29.137392" lon="100.027829">
<time>2015-08-06T06:52:13Z</time></trkpt>
<trkpt lat="29.137262" lon="100.027649">
<time>2015-08-06T06:52:14Z</time></trkpt>
<trkpt lat="29.137023" lon="100.02737">
<time>2015-08-06T06:52:15Z</time></trkpt>
<trkpt lat="29.136884" lon="100.02722">
<time>2015-08-06T06:52:16Z</time></trkpt>
<trkpt lat="29.136624" lon="100.026981">
<time>2015-08-06T06:52:17Z</time></trkpt>
<trkpt lat="29.136455" lon="100.026842">
<time>2015-08-06T06:52:18Z</time></trkpt>
<trkpt lat="29.136395" lon="100.026802">
<time>2015-08-06T06:52:19Z</time></trkpt>
<trkpt lat="29.136285" lon="100.026722">
<time>2015-08-06T06:52:20Z</time></trkpt>
<trkpt lat="29.136156" lon="100.026662">
<time>2015-08-06T06:52:21Z</time></trkpt>
<trkpt lat="29.135816" lon="100.026493">
<time>2015-08-06T06:52:22Z</time></trkpt>
<trkpt lat="29.135647" lon="100.026403">
<time>2015-08-06T06:52:23Z</time></trkpt>
<trkpt lat="29.135368" lon="100.026214">
<time>2015-08-06T06:52:24Z</time></trkpt>
<trkpt lat="29.135028" lon="100.025964">
<time>2015-08-06T06:52:25Z</time></trkpt>
<trkpt lat="29.13463" lon="100.025655">
<time>2015-08-06T06:52:26Z</time></trkpt>
<trkpt lat="29.13446" lon="100.025516">
<time>2015-08-06T06:52:27Z</time></trkpt>
<trkpt lat="29.134321" lon="100.025416">
<time>2015-08-06T06:52:28Z</time></trkpt>
<trkpt lat="29.134161" lon="100.025296">
<time>2015-08-06T06:52:29Z</time></trkpt>
<trkpt lat="29.134071" lon="100.025237">
<time>2015-08-06T06:52:30Z</time></trkpt>
<trkpt lat="29.133922" lon="100.025157">
<time>2015-08-06T06:52:31Z</time></trkpt>
<trkpt lat="29.133832" lon="100.025107">
<time>2015-08-06T06:52:32Z</time></trkpt>
<trkpt lat="29.133742" lon="100.025067">
<time>2015-08-06T06:52:33Z</time></trkpt>
<trkpt lat="29.133542" lon="100.024997">
<time>2015-08-06T06:52:34Z</time></trkpt>
<trkpt lat="29.133413" lon="100.024958">
<time>2015-08-06T06:52:35Z</time></trkpt>
<trkpt lat="29.133203" lon="100.024878">
<time>2015-08-06T06:52:36Z</time></trkpt>
<trkpt lat="29.133083" lon="100.024828">
<time>2015-08-06T06:52:37Z</time></trkpt>
<trkpt lat="29.132884" lon="100.024718">
<time>2015-08-06T06:52:38Z</time></trkpt>
<trkpt lat="29.132774" lon="100.024658">
<time>2015-08-06T06:52:39Z</time></trkpt>
<trkpt lat="29.132485" lon="100.024469">
<time>2015-08-06T06:52:40Z</time></trkpt>
<trkpt lat="29.132006" lon="100.02414">
<time>2015-08-06T06:52:41Z</time></trkpt>
<trkpt lat="29.131487" lon="100.023791">
<time>2015-08-06T06:52:42Z</time></trkpt>
<trkpt lat="29.130769" lon="100.023303">
<time>2015-08-06T06:52:43Z</time></trkpt>
<trkpt lat="29.130301" lon="100.022944">
<time>2015-08-06T06:52:44Z</time></trkpt>
<trkpt lat="29.130011" lon="100.022695">
<time>2015-08-06T06:52:45Z</time></trkpt>
<trkpt lat="29.129762" lon="100.022495">
<time>2015-08-06T06:52:46Z</time></trkpt>
<trkpt lat="29.129653" lon="100.022416">
<time>2015-08-06T06:52:47Z</time></trkpt>
<trkpt lat="29.129583" lon="100.022386">
<time>2015-08-06T06:52:48Z</time></trkpt>
<trkpt lat="29.129533" lon="100.022356">
<time>2015-08-06T06:52:49Z</time></trkpt>
<trkpt lat="29.129413" lon="100.022306">
<time>2015-08-06T06:52:50Z</time></trkpt>
<trkpt lat="29.129213" lon="100.022226">
<time>2015-08-06T06:52:51Z</time></trkpt>
<trkpt lat="29.129134" lon="100.022196">
<time>2015-08-06T06:52:52Z</time></trkpt>
<trkpt lat="29.129084" lon="100.022166">
<time>2015-08-06T06:52:53Z</time></trkpt>
<trkpt lat="29.129044" lon="100.022136">
<time>2015-08-06T06:52:54Z</time></trkpt>
<trkpt lat="29.128834" lon="100.021977">
<time>2015-08-06T06:52:55Z</time></trkpt>
<trkpt lat="29.128745" lon="100.021897">
<time>2015-08-06T06:52:56Z</time></trkpt>
<trkpt lat="29.128545" lon="100.021728">
<time>2015-08-06T06:52:57Z</time></trkpt>
<trkpt lat="29.128466" lon="100.021678">
<time>2015-08-06T06:52:58Z</time></trkpt>
<trkpt lat="29.128386" lon="100.021628">
<time>2015-08-06T06:52:59Z</time></trkpt>
<trkpt lat="29.128316" lon="100.021588">
<time>2015-08-06T06:53:00Z</time></trkpt>
<trkpt lat="29.128196" lon="100.021528">
<time>2015-08-06T06:53:01Z</time></trkpt>
<trkpt lat="29.128086" lon="100.021479">
<time>2015-08-06T06:53:02Z</time></trkpt>
<trkpt lat="29.127887" lon="100.021379">
<time>2015-08-06T06:53:03Z</time></trkpt>
<trkpt lat="29.127727" lon="100.021269">
<time>2015-08-06T06:53:04Z</time></trkpt>
<trkpt lat="29.127677" lon="100.021229">
<time>2015-08-06T06:53:05Z</time></trkpt>
<trkpt lat="29.127638" lon="100.02117">
<time>2015-08-06T06:53:06Z</time></trkpt>
<trkpt lat="29.127528" lon="100.02101">
<time>2015-08-06T06:53:07Z</time></trkpt>
<trkpt lat="29.127498" lon="100.02096">
<time>2015-08-06T06:53:08Z</time></trkpt>
<trkpt lat="29.127409" lon="100.020771">
<time>2015-08-06T06:53:09Z</time></trkpt>
<trkpt lat="29.127369" lon="100.020611">
<time>2015-08-06T06:53:10Z</time></trkpt>
<trkpt lat="29.12736" lon="100.020432">
<time>2015-08-06T06:53:11Z</time></trkpt>
<trkpt lat="29.12735" lon="100.020282">
<time>2015-08-06T06:53:12Z</time></trkpt>
<trkpt lat="29.12733" lon="100.020233">
<time>2015-08-06T06:53:13Z</time></trkpt>
<trkpt lat="29.127311" lon="100.020203">
<time>2015-08-06T06:53:14Z</time></trkpt>
<trkpt lat="29.127281" lon="100.020173">
<time>2015-08-06T06:53:15Z</time></trkpt>
<trkpt lat="29.127241" lon="100.020173">
<time>2015-08-06T06:53:16Z</time></trkpt>
<trkpt lat="29.127201" lon="100.020183">
<time>2015-08-06T06:53:17Z</time></trkpt>
<trkpt lat="29.127171" lon="100.020203">
<time>2015-08-06T06:53:18Z</time></trkpt>
<trkpt lat="29.127151" lon="100.020243">
<time>2015-08-06T06:53:19Z</time></trkpt>
<trkpt lat="29.12714" lon="100.020282">
<time>2015-08-06T06:53:20Z</time></trkpt>
<trkpt lat="29.12713" lon="100.020332">
<time>2015-08-06T06:53:21Z</time></trkpt>
<trkpt lat="29.12714" lon="100.020422">
<time>2015-08-06T06:53:22Z</time></trkpt>
<trkpt lat="29.12716" lon="100.020562">
<time>2015-08-06T06:53:23Z</time></trkpt>
<trkpt lat="29.127229" lon="100.02089">
<time>2015-08-06T06:53:24Z</time></trkpt>
<trkpt lat="29.127278" lon="100.02104">
<time>2015-08-06T06:53:25Z</time></trkpt>
<trkpt lat="29.127348" lon="100.021209">
<time>2015-08-06T06:53:26Z</time></trkpt>
<trkpt lat="29.127497" lon="100.021429">
<time>2015-08-06T06:53:27Z</time></trkpt>
<trkpt lat="29.127597" lon="100.021558">
<time>2015-08-06T06:53:28Z</time></trkpt>
<trkpt lat="29.127716" lon="100.021678">
<time>2015-08-06T06:53:29Z</time></trkpt>
<trkpt lat="29.127906" lon="100.021827">
<time>2015-08-06T06:53:30Z</time></trkpt>
<trkpt lat="29.128145" lon="100.021977">
<time>2015-08-06T06:53:31Z</time></trkpt>
<trkpt lat="29.128364" lon="100.022117">
<time>2015-08-06T06:53:32Z</time></trkpt>
<trkpt lat="29.128484" lon="100.022206">
<time>2015-08-06T06:53:33Z</time></trkpt>
<trkpt lat="29.128723" lon="100.022445">
<time>2015-08-06T06:53:34Z</time></trkpt>
<trkpt lat="29.128962" lon="100.022655">
<time>2015-08-06T06:53:35Z</time></trkpt>
<trkpt lat="29.129082" lon="100.022745">
<time>2015-08-06T06:53:36Z</time></trkpt>
<trkpt lat="29.129351" lon="100.022944">
<time>2015-08-06T06:53:37Z</time></trkpt>
<trkpt lat="29.129521" lon="100.023093">
<time>2015-08-06T06:53:38Z</time></trkpt>
<trkpt lat="29.129869" lon="100.023482">
<time>2015-08-06T06:53:39Z</time></trkpt>
<trkpt lat="29.130258" lon="100.023851">
<time>2015-08-06T06:53:40Z</time></trkpt>
<trkpt lat="29.130437" lon="100.02403">
<time>2015-08-06T06:53:41Z</time></trkpt>
<trkpt lat="29.130587" lon="100.02421">
<time>2015-08-06T06:53:42Z</time></trkpt>
<trkpt lat="29.130796" lon="100.024459">
<time>2015-08-06T06:53:43Z</time></trkpt>
<trkpt lat="29.130906" lon="100.024559">
<time>2015-08-06T06:53:44Z</time></trkpt>
<trkpt lat="29.131025" lon="100.024668">
<time>2015-08-06T06:53:45Z</time></trkpt>
<trkpt lat="29.131354" lon="100.024948">
<time>2015-08-06T06:53:46Z</time></trkpt>
<trkpt lat="29.131833" lon="100.025346">
<time>2015-08-06T06:53:47Z</time></trkpt>
<trkpt lat="29.132411" lon="100.025855">
<time>2015-08-06T06:53:48Z</time></trkpt>
<trkpt lat="29.1328" lon="100.026184">
<time>2015-08-06T06:53:49Z</time></trkpt>
<trkpt lat="29.133129" lon="100.026463">
<time>2015-08-06T06:53:50Z</time></trkpt>
<trkpt lat="29.133278" lon="100.026612">
<time>2015-08-06T06:53:51Z</time></trkpt>
<trkpt lat="29.133408" lon="100.026762">
<time>2015-08-06T06:53:52Z</time></trkpt>
<trkpt lat="29.133836" lon="100.0273">
<time>2015-08-06T06:53:53Z</time></trkpt>
<trkpt lat="29.134135" lon="100.027669">
<time>2015-08-06T06:53:54Z</time></trkpt>
<trkpt lat="29.134314" lon="100.027869">
<time>2015-08-06T06:53:55Z</time></trkpt>
<trkpt lat="29.134433" lon="100.027978">
<time>2015-08-06T06:53:56Z</time></trkpt>
<trkpt lat="29.134643" lon="100.028138">
<time>2015-08-06T06:53:57Z</time></trkpt>
<trkpt lat="29.134753" lon="100.028237">
<time>2015-08-06T06:53:58Z</time></trkpt>
<trkpt lat="29.134792" lon="100.028297">
<time>2015-08-06T06:53:59Z</time></trkpt>
<trkpt lat="29.134812" lon="100.028347">
<time>2015-08-06T06:54:00Z</time></trkpt>
<trkpt lat="29.134812" lon="100.028427">
<time>2015-08-06T06:54:01Z</time></trkpt>
<trkpt lat="29.134792" lon="100.028497">
<time>2015-08-06T06:54:02Z</time></trkpt>
<trkpt lat="29.134762" lon="100.028547">
<time>2015-08-06T06:54:03Z</time></trkpt>
<trkpt lat="29.134712" lon="100.028616">
<time>2015-08-06T06:54:04Z</time></trkpt>
<trkpt lat="29.134631" lon="100.028716">
<time>2015-08-06T06:54:05Z</time></trkpt>
<trkpt lat="29.134491" lon="100.028836">
<time>2015-08-06T06:54:06Z</time></trkpt>
<trkpt lat="29.134411" lon="100.028896">
<time>2015-08-06T06:54:07Z</time></trkpt>
<trkpt lat="29.134331" lon="100.028935">
<time>2015-08-06T06:54:08Z</time></trkpt>
<trkpt lat="29.134211" lon="100.028975">
<time>2015-08-06T06:54:09Z</time></trkpt>
<trkpt lat="29.134131" lon="100.028995">
<time>2015-08-06T06:54:10Z</time></trkpt>
<trkpt lat="29.134051" lon="100.029005">
<time>2015-08-06T06:54:11Z</time></trkpt>
<trkpt lat="29.133951" lon="100.029005">
<time>2015-08-06T06:54:12Z</time></trkpt>
<trkpt lat="29.133811" lon="100.029005">
<time>2015-08-06T06:54:13Z</time></trkpt>
<trkpt lat="29.133671" lon="100.028975">
<time>2015-08-06T06:54:14Z</time></trkpt>
<trkpt lat="29.133522" lon="100.028945">
<time>2015-08-06T06:54:15Z</time></trkpt>
<trkpt lat="29.133182" lon="100.028856">
<time>2015-08-06T06:54:16Z</time></trkpt>
<trkpt lat="29.132863" lon="100.028776">
<time>2015-08-06T06:54:17Z</time></trkpt>
<trkpt lat="29.132643" lon="100.028736">
<time>2015-08-06T06:54:18Z</time></trkpt>
<trkpt lat="29.132473" lon="100.028716">
<time>2015-08-06T06:54:19Z</time></trkpt>
<trkpt lat="29.132203" lon="100.028696">
<time>2015-08-06T06:54:20Z</time></trkpt>
<trkpt lat="29.131774" lon="100.028666">
<time>2015-08-06T06:54:21Z</time></trkpt>
<trkpt lat="29.131524" lon="100.028626">
<time>2015-08-06T06:54:22Z</time></trkpt>
<trkpt lat="29.131434" lon="100.028606">
<time>2015-08-06T06:54:23Z</time></trkpt>
<trkpt lat="29.131124" lon="100.028547">
<time>2015-08-06T06:54:24Z</time></trkpt>
<trkpt lat="29.130905" lon="100.028517">
<time>2015-08-06T06:54:25Z</time></trkpt>
<trkpt lat="29.130765" lon="100.028497">
<time>2015-08-06T06:54:26Z</time></trkpt>
<trkpt lat="29.130405" lon="100.028457">
<time>2015-08-06T06:54:27Z</time></trkpt>
<trkpt lat="29.130136" lon="100.028397">
<time>2015-08-06T06:54:28Z</time></trkpt>
<trkpt lat="29.129986" lon="100.028367">
<time>2015-08-06T06:54:29Z</time></trkpt>
<trkpt lat="29.129716" lon="100.028287">
<time>2015-08-06T06:54:30Z</time></trkpt>
<trkpt lat="29.129237" lon="100.028108">
<time>2015-08-06T06:54:31Z</time></trkpt>
<trkpt lat="29.128988" lon="100.028038">
<time>2015-08-06T06:54:32Z</time></trkpt>
<trkpt lat="29.128948" lon="100.028028">
<time>2015-08-06T06:54:33Z</time></trkpt>
<trkpt lat="29.128558" lon="100.027949">
<time>2015-08-06T06:54:34Z</time></trkpt>
<trkpt lat="29.127989" lon="100.027829">
<time>2015-08-06T06:54:35Z</time></trkpt>
<trkpt lat="29.127509" lon="100.027759">
<time>2015-08-06T06:54:36Z</time></trkpt>
<trkpt lat="29.12708" lon="100.027709">
<time>2015-08-06T06:54:37Z</time></trkpt>
<trkpt lat="29.12688" lon="100.027659">
<time>2015-08-06T06:54:38Z</time></trkpt>
<trkpt lat="29.1267" lon="100.0276">
<time>2015-08-06T06:54:39Z</time></trkpt>
<trkpt lat="29.126311" lon="100.02748">
<time>2015-08-06T06:54:40Z</time></trkpt>
<trkpt lat="29.126081" lon="100.02741">
<time>2015-08-06T06:54:41Z</time></trkpt>
<trkpt lat="29.125662" lon="100.027301">
<time>2015-08-06T06:54:42Z</time></trkpt>
<trkpt lat="29.125542" lon="100.027271">
<time>2015-08-06T06:54:43Z</time></trkpt>
<trkpt lat="29.125203" lon="100.027181">
<time>2015-08-06T06:54:44Z</time></trkpt>
<trkpt lat="29.124963" lon="100.027111">
<time>2015-08-06T06:54:45Z</time></trkpt>
<trkpt lat="29.124843" lon="100.027091">
<time>2015-08-06T06:54:46Z</time></trkpt>
<trkpt lat="29.124743" lon="100.027081">
<time>2015-08-06T06:54:47Z</time></trkpt>
<trkpt lat="29.124494" lon="100.027071">
<time>2015-08-06T06:54:48Z</time></trkpt>
<trkpt lat="29.124364" lon="100.027051">
<time>2015-08-06T06:54:49Z</time></trkpt>
<trkpt lat="29.124234" lon="100.027031">
<time>2015-08-06T06:54:50Z</time></trkpt>
<trkpt lat="29.124094" lon="100.026982">
<time>2015-08-06T06:54:51Z</time></trkpt>
<trkpt lat="29.123934" lon="100.026922">
<time>2015-08-06T06:54:52Z</time></trkpt>
<trkpt lat="29.123575" lon="100.026792">
<time>2015-08-06T06:54:53Z</time></trkpt>
<trkpt lat="29.123016" lon="100.026563">
<time>2015-08-06T06:54:54Z</time></trkpt>
<trkpt lat="29.122687" lon="100.026463">
<time>2015-08-06T06:54:55Z</time></trkpt>
<trkpt lat="29.122567" lon="100.026433">
<time>2015-08-06T06:54:56Z</time></trkpt>
<trkpt lat="29.122417" lon="100.026413">
<time>2015-08-06T06:54:57Z</time></trkpt>
<trkpt lat="29.122297" lon="100.026403">
<time>2015-08-06T06:54:58Z</time></trkpt>
<trkpt lat="29.122157" lon="100.026423">
<time>2015-08-06T06:54:59Z</time></trkpt>
<trkpt lat="29.122037" lon="100.026433">
<time>2015-08-06T06:55:00Z</time></trkpt>
<trkpt lat="29.121807" lon="100.026483">
<time>2015-08-06T06:55:01Z</time></trkpt>
<trkpt lat="29.121567" lon="100.026543">
<time>2015-08-06T06:55:02Z</time></trkpt>
<trkpt lat="29.121467" lon="100.026583">
<time>2015-08-06T06:55:03Z</time></trkpt>
<trkpt lat="29.121377" lon="100.026633">
<time>2015-08-06T06:55:04Z</time></trkpt>
<trkpt lat="29.121067" lon="100.026842">
<time>2015-08-06T06:55:05Z</time></trkpt>
<trkpt lat="29.120726" lon="100.027141">
<time>2015-08-06T06:55:06Z</time></trkpt>
<trkpt lat="29.120196" lon="100.02755">
<time>2015-08-06T06:55:07Z</time></trkpt>
<trkpt lat="29.119825" lon="100.027849">
<time>2015-08-06T06:55:08Z</time></trkpt>
<trkpt lat="29.119635" lon="100.028038">
<time>2015-08-06T06:55:09Z</time></trkpt>
<trkpt lat="29.119214" lon="100.028487">
<time>2015-08-06T06:55:10Z</time></trkpt>
<trkpt lat="29.119023" lon="100.028707">
<time>2015-08-06T06:55:11Z</time></trkpt>
<trkpt lat="29.118853" lon="100.028896">
<time>2015-08-06T06:55:12Z</time></trkpt>
<trkpt lat="29.118583" lon="100.029185">
<time>2015-08-06T06:55:13Z</time></trkpt>
<trkpt lat="29.118212" lon="100.029554">
<time>2015-08-06T06:55:14Z</time></trkpt>
<trkpt lat="29.117751" lon="100.030072">
<time>2015-08-06T06:55:15Z</time></trkpt>
<trkpt lat="29.11739" lon="100.030501">
<time>2015-08-06T06:55:16Z</time></trkpt>
<trkpt lat="29.117199" lon="100.0308">
<time>2015-08-06T06:55:17Z</time></trkpt>
<trkpt lat="29.117049" lon="100.03108">
<time>2015-08-06T06:55:18Z</time></trkpt>
<trkpt lat="29.116868" lon="100.031458">
<time>2015-08-06T06:55:19Z</time></trkpt>
<trkpt lat="29.116827" lon="100.031608">
<time>2015-08-06T06:55:20Z</time></trkpt>
<trkpt lat="29.116787" lon="100.031768">
<time>2015-08-06T06:55:21Z</time></trkpt>
<trkpt lat="29.116787" lon="100.031857">
<time>2015-08-06T06:55:22Z</time></trkpt>
<trkpt lat="29.116816" lon="100.032007">
<time>2015-08-06T06:55:23Z</time></trkpt>
<trkpt lat="29.116846" lon="100.032126">
<time>2015-08-06T06:55:24Z</time></trkpt>
<trkpt lat="29.116896" lon="100.032336">
<time>2015-08-06T06:55:25Z</time></trkpt>
<trkpt lat="29.116905" lon="100.032406">
<time>2015-08-06T06:55:26Z</time></trkpt>
<trkpt lat="29.116905" lon="100.032466">
<time>2015-08-06T06:55:27Z</time></trkpt>
<trkpt lat="29.116905" lon="100.032535">
<time>2015-08-06T06:55:28Z</time></trkpt>
<trkpt lat="29.116885" lon="100.032605">
<time>2015-08-06T06:55:29Z</time></trkpt>
<trkpt lat="29.116855" lon="100.032655">
<time>2015-08-06T06:55:30Z</time></trkpt>
<trkpt lat="29.116815" lon="100.032705">
<time>2015-08-06T06:55:31Z</time></trkpt>
<trkpt lat="29.116745" lon="100.032755">
<time>2015-08-06T06:55:32Z</time></trkpt>
<trkpt lat="29.116675" lon="100.032785">
<time>2015-08-06T06:55:33Z</time></trkpt>
<trkpt lat="29.116585" lon="100.032805">
<time>2015-08-06T06:55:34Z</time></trkpt>
<trkpt lat="29.116485" lon="100.032815">
<time>2015-08-06T06:55:35Z</time></trkpt>
<trkpt lat="29.116255" lon="100.032824">
<time>2015-08-06T06:55:36Z</time></trkpt>
<trkpt lat="29.115925" lon="100.032805">
<time>2015-08-06T06:55:37Z</time></trkpt>
<trkpt lat="29.115695" lon="100.032795">
<time>2015-08-06T06:55:38Z</time></trkpt>
<trkpt lat="29.115565" lon="100.032815">
<time>2015-08-06T06:55:39Z</time></trkpt>
<trkpt lat="29.115485" lon="100.032825">
<time>2015-08-06T06:55:40Z</time></trkpt>
<trkpt lat="29.115395" lon="100.032854">
<time>2015-08-06T06:55:41Z</time></trkpt>
<trkpt lat="29.115235" lon="100.032894">
<time>2015-08-06T06:55:42Z</time></trkpt>
<trkpt lat="29.115105" lon="100.032944">
<time>2015-08-06T06:55:43Z</time></trkpt>
<trkpt lat="29.114825" lon="100.033024">
<time>2015-08-06T06:55:44Z</time></trkpt>
<trkpt lat="29.114725" lon="100.033054">
<time>2015-08-06T06:55:45Z</time></trkpt>
<trkpt lat="29.114495" lon="100.033134">
<time>2015-08-06T06:55:46Z</time></trkpt>
<trkpt lat="29.114225" lon="100.033213">
<time>2015-08-06T06:55:47Z</time></trkpt>
<trkpt lat="29.113965" lon="100.033293">
<time>2015-08-06T06:55:48Z</time></trkpt>
<trkpt lat="29.113575" lon="100.033403">
<time>2015-08-06T06:55:49Z</time></trkpt>
<trkpt lat="29.113295" lon="100.033463">
<time>2015-08-06T06:55:50Z</time></trkpt>
<trkpt lat="29.113235" lon="100.033473">
<time>2015-08-06T06:55:51Z</time></trkpt>
<trkpt lat="29.113156" lon="100.033473">
<time>2015-08-06T06:55:52Z</time></trkpt>
<trkpt lat="29.113096" lon="100.033473">
<time>2015-08-06T06:55:53Z</time></trkpt>
<trkpt lat="29.113026" lon="100.033453">
<time>2015-08-06T06:55:54Z</time></trkpt>
<trkpt lat="29.112976" lon="100.033433">
<time>2015-08-06T06:55:55Z</time></trkpt>
<trkpt lat="29.112916" lon="100.033383">
<time>2015-08-06T06:55:56Z</time></trkpt>
<trkpt lat="29.112856" lon="100.033313">
<time>2015-08-06T06:55:57Z</time></trkpt>
<trkpt lat="29.112737" lon="100.033114">
<time>2015-08-06T06:55:58Z</time></trkpt>
<trkpt lat="29.112697" lon="100.033034">
<time>2015-08-06T06:55:59Z</time></trkpt>
<trkpt lat="29.112657" lon="100.032924">
<time>2015-08-06T06:56:00Z</time></trkpt>
<trkpt lat="29.112637" lon="100.032874">
<time>2015-08-06T06:56:01Z</time></trkpt>
<trkpt lat="29.112638" lon="100.032845">
<time>2015-08-06T06:56:02Z</time></trkpt>
<trkpt lat="29.112628" lon="100.032815">
<time>2015-08-06T06:56:03Z</time></trkpt>
<trkpt lat="29.112628" lon="100.032785">
<time>2015-08-06T06:56:04Z</time></trkpt>
<trkpt lat="29.112638" lon="100.032755">
<time>2015-08-06T06:56:05Z</time></trkpt>
<trkpt lat="29.112638" lon="100.032735">
<time>2015-08-06T06:56:06Z</time></trkpt>
<trkpt lat="29.112648" lon="100.032715">
<time>2015-08-06T06:56:07Z</time></trkpt>
<trkpt lat="29.112658" lon="100.032695">
<time>2015-08-06T06:56:08Z</time></trkpt>
<trkpt lat="29.112678" lon="100.032675">
<time>2015-08-06T06:56:09Z</time></trkpt>
<trkpt lat="29.112698" lon="100.032665">
<time>2015-08-06T06:56:10Z</time></trkpt>
<trkpt lat="29.112718" lon="100.032645">
<time>2015-08-06T06:56:11Z</time></trkpt>
<trkpt lat="29.112738" lon="100.032635">
<time>2015-08-06T06:56:12Z</time></trkpt>
<trkpt lat="29.112888" lon="100.032565">
<time>2015-08-06T06:56:13Z</time></trkpt>
<trkpt lat="29.113168" lon="100.032466">
<time>2015-08-06T06:56:14Z</time></trkpt>
<trkpt lat="29.113548" lon="100.032336">
<time>2015-08-06T06:56:15Z</time></trkpt>
<trkpt lat="29.113888" lon="100.032196">
<time>2015-08-06T06:56:16Z</time></trkpt>
<trkpt lat="29.114058" lon="100.032117">
<time>2015-08-06T06:56:17Z</time></trkpt>
<trkpt lat="29.114178" lon="100.032037">
<time>2015-08-06T06:56:18Z</time></trkpt>
<trkpt lat="29.114249" lon="100.031967">
<time>2015-08-06T06:56:19Z</time></trkpt>
<trkpt lat="29.114409" lon="100.031807">
<time>2015-08-06T06:56:20Z</time></trkpt>
<trkpt lat="29.114469" lon="100.031728">
<time>2015-08-06T06:56:21Z</time></trkpt>
<trkpt lat="29.114519" lon="100.031658">
<time>2015-08-06T06:56:22Z</time></trkpt>
<trkpt lat="29.11462" lon="100.031488">
<time>2015-08-06T06:56:23Z</time></trkpt>
<trkpt lat="29.11486" lon="100.0311">
<time>2015-08-06T06:56:24Z</time></trkpt>
<trkpt lat="29.1149" lon="100.03104">
<time>2015-08-06T06:56:25Z</time></trkpt>
<trkpt lat="29.115021" lon="100.03087">
<time>2015-08-06T06:56:26Z</time></trkpt>
<trkpt lat="29.115462" lon="100.030362">
<time>2015-08-06T06:56:27Z</time></trkpt>
<trkpt lat="29.115732" lon="100.030053">
<time>2015-08-06T06:56:28Z</time></trkpt>
<trkpt lat="29.115883" lon="100.029893">
<time>2015-08-06T06:56:29Z</time></trkpt>
<trkpt lat="29.115963" lon="100.029833">
<time>2015-08-06T06:56:30Z</time></trkpt>
<trkpt lat="29.116013" lon="100.029783">
<time>2015-08-06T06:56:31Z</time></trkpt>
<trkpt lat="29.116163" lon="100.029684">
<time>2015-08-06T06:56:32Z</time></trkpt>
<trkpt lat="29.116403" lon="100.029544">
<time>2015-08-06T06:56:33Z</time></trkpt>
<trkpt lat="29.116613" lon="100.029414">
<time>2015-08-06T06:56:34Z</time></trkpt>
<trkpt lat="29.116704" lon="100.029335">
<time>2015-08-06T06:56:35Z</time></trkpt>
<trkpt lat="29.116824" lon="100.029205">
<time>2015-08-06T06:56:36Z</time></trkpt>
<trkpt lat="29.116894" lon="100.029105">
<time>2015-08-06T06:56:37Z</time></trkpt>
<trkpt lat="29.116974" lon="100.028976">
<time>2015-08-06T06:56:38Z</time></trkpt>
<trkpt lat="29.117165" lon="100.028667">
<time>2015-08-06T06:56:39Z</time></trkpt>
<trkpt lat="29.117446" lon="100.028198">
<time>2015-08-06T06:56:40Z</time></trkpt>
<trkpt lat="29.117697" lon="100.027819">
<time>2015-08-06T06:56:41Z</time></trkpt>
<trkpt lat="29.117928" lon="100.02751">
<time>2015-08-06T06:56:42Z</time></trkpt>
<trkpt lat="29.118118" lon="100.027281">
<time>2015-08-06T06:56:43Z</time></trkpt>
<trkpt lat="29.118218" lon="100.027151">
<time>2015-08-06T06:56:44Z</time></trkpt>
<trkpt lat="29.118479" lon="100.026862">
<time>2015-08-06T06:56:45Z</time></trkpt>
<trkpt lat="29.118559" lon="100.026782">
<time>2015-08-06T06:56:46Z</time></trkpt>
<trkpt lat="29.11889" lon="100.026384">
<time>2015-08-06T06:56:47Z</time></trkpt>
<trkpt lat="29.119401" lon="100.025795">
<time>2015-08-06T06:56:48Z</time></trkpt>
<trkpt lat="29.119812" lon="100.025327">
<time>2015-08-06T06:56:49Z</time></trkpt>
<trkpt lat="29.120183" lon="100.024888">
<time>2015-08-06T06:56:50Z</time></trkpt>
<trkpt lat="29.120263" lon="100.024768">
<time>2015-08-06T06:56:51Z</time></trkpt>
<trkpt lat="29.120364" lon="100.024629">
<time>2015-08-06T06:56:52Z</time></trkpt>
<trkpt lat="29.120564" lon="100.0243">
<time>2015-08-06T06:56:53Z</time></trkpt>
<trkpt lat="29.120795" lon="100.023951">
<time>2015-08-06T06:56:54Z</time></trkpt>
<trkpt lat="29.121106" lon="100.023472">
<time>2015-08-06T06:56:55Z</time></trkpt>
<trkpt lat="29.121297" lon="100.023183">
<time>2015-08-06T06:56:56Z</time></trkpt>
<trkpt lat="29.121377" lon="100.023014">
<time>2015-08-06T06:56:57Z</time></trkpt>
<trkpt lat="29.121377" lon="100.022944">
<time>2015-08-06T06:56:58Z</time></trkpt>
<trkpt lat="29.121378" lon="100.022914">
<time>2015-08-06T06:56:59Z</time></trkpt>
<trkpt lat="29.121358" lon="100.022864">
<time>2015-08-06T06:57:00Z</time></trkpt>
<trkpt lat="29.121338" lon="100.022844">
<time>2015-08-06T06:57:01Z</time></trkpt>
<trkpt lat="29.121318" lon="100.022825">
<time>2015-08-06T06:57:02Z</time></trkpt>
<trkpt lat="29.121288" lon="100.022815">
<time>2015-08-06T06:57:03Z</time></trkpt>
<trkpt lat="29.121248" lon="100.022815">
<time>2015-08-06T06:57:04Z</time></trkpt>
<trkpt lat="29.121208" lon="100.022825">
<time>2015-08-06T06:57:05Z</time></trkpt>
<trkpt lat="29.121158" lon="100.022864">
<time>2015-08-06T06:57:06Z</time></trkpt>
<trkpt lat="29.121098" lon="100.022944">
<time>2015-08-06T06:57:07Z</time></trkpt>
<trkpt lat="29.120977" lon="100.023153">
<time>2015-08-06T06:57:08Z</time></trkpt>
<trkpt lat="29.120937" lon="100.023223">
<time>2015-08-06T06:57:09Z</time></trkpt>
<trkpt lat="29.120887" lon="100.023283">
<time>2015-08-06T06:57:10Z</time></trkpt>
<trkpt lat="29.120847" lon="100.023313">
<time>2015-08-06T06:57:11Z</time></trkpt>
<trkpt lat="29.120817" lon="100.023323">
<time>2015-08-06T06:57:12Z</time></trkpt>
<trkpt lat="29.120777" lon="100.023333">
<time>2015-08-06T06:57:13Z</time></trkpt>
<trkpt lat="29.120717" lon="100.023313">
<time>2015-08-06T06:57:14Z</time></trkpt>
<trkpt lat="29.120667" lon="100.023273">
<time>2015-08-06T06:57:15Z</time></trkpt>
<trkpt lat="29.120637" lon="100.023223">
<time>2015-08-06T06:57:16Z</time></trkpt>
<trkpt lat="29.120617" lon="100.023163">
<time>2015-08-06T06:57:17Z</time></trkpt>
<trkpt lat="29.120598" lon="100.023044">
<time>2015-08-06T06:57:18Z</time></trkpt>
<trkpt lat="29.120559" lon="100.022725">
<time>2015-08-06T06:57:19Z</time></trkpt>
<trkpt lat="29.120559" lon="100.022525">
<time>2015-08-06T06:57:20Z</time></trkpt>
<trkpt lat="29.1206" lon="100.022366">
<time>2015-08-06T06:57:21Z</time></trkpt>
<trkpt lat="29.12065" lon="100.022226">
<time>2015-08-06T06:57:22Z</time></trkpt>
<trkpt lat="29.120771" lon="100.021927">
<time>2015-08-06T06:57:23Z</time></trkpt>
<trkpt lat="29.120811" lon="100.021828">
<time>2015-08-06T06:57:24Z</time></trkpt>
<trkpt lat="29.120831" lon="100.021668">
<time>2015-08-06T06:57:25Z</time></trkpt>
<trkpt lat="29.120842" lon="100.021429">
<time>2015-08-06T06:57:26Z</time></trkpt>
<trkpt lat="29.120863" lon="100.02114">
<time>2015-08-06T06:57:27Z</time></trkpt>
<trkpt lat="29.120873" lon="100.02106">
<time>2015-08-06T06:57:28Z</time></trkpt>
<trkpt lat="29.120903" lon="100.02096">
<time>2015-08-06T06:57:29Z</time></trkpt>
<trkpt lat="29.120964" lon="100.020841">
<time>2015-08-06T06:57:30Z</time></trkpt>
<trkpt lat="29.121104" lon="100.020651">
<time>2015-08-06T06:57:31Z</time></trkpt>
<trkpt lat="29.121465" lon="100.020143">
<time>2015-08-06T06:57:32Z</time></trkpt>
<trkpt lat="29.121586" lon="100.019954">
<time>2015-08-06T06:57:33Z</time></trkpt>
<trkpt lat="29.121676" lon="100.019764">
<time>2015-08-06T06:57:34Z</time></trkpt>
<trkpt lat="29.121797" lon="100.019475">
<time>2015-08-06T06:57:35Z</time></trkpt>
<trkpt lat="29.121988" lon="100.018957">
<time>2015-08-06T06:57:36Z</time></trkpt>
<trkpt lat="29.122039" lon="100.018767">
<time>2015-08-06T06:57:37Z</time></trkpt>
<trkpt lat="29.122059" lon="100.018668">
<time>2015-08-06T06:57:38Z</time></trkpt>
<trkpt lat="29.12206" lon="100.018478">
<time>2015-08-06T06:57:39Z</time></trkpt>
<trkpt lat="29.12203" lon="100.018329">
<time>2015-08-06T06:57:40Z</time></trkpt>
<trkpt lat="29.121991" lon="100.018169">
<time>2015-08-06T06:57:41Z</time></trkpt>
<trkpt lat="29.121842" lon="100.017741">
<time>2015-08-06T06:57:42Z</time></trkpt>
<trkpt lat="29.121802" lon="100.017601">
<time>2015-08-06T06:57:43Z</time></trkpt>
<trkpt lat="29.121773" lon="100.017432">
<time>2015-08-06T06:57:44Z</time></trkpt>
<trkpt lat="29.121773" lon="100.017372">
<time>2015-08-06T06:57:45Z</time></trkpt>
<trkpt lat="29.121773" lon="100.017302">
<time>2015-08-06T06:57:46Z</time></trkpt>
<trkpt lat="29.121784" lon="100.017212">
<time>2015-08-06T06:57:47Z</time></trkpt>
<trkpt lat="29.121804" lon="100.017123">
<time>2015-08-06T06:57:48Z</time></trkpt>
<trkpt lat="29.121834" lon="100.017003">
<time>2015-08-06T06:57:49Z</time></trkpt>
<trkpt lat="29.121885" lon="100.016824">
<time>2015-08-06T06:57:50Z</time></trkpt>
<trkpt lat="29.121945" lon="100.016604">
<time>2015-08-06T06:57:51Z</time></trkpt>
<trkpt lat="29.122076" lon="100.016186">
<time>2015-08-06T06:57:52Z</time></trkpt>
<trkpt lat="29.122167" lon="100.015867">
<time>2015-08-06T06:57:53Z</time></trkpt>
<trkpt lat="29.122187" lon="100.015767">
<time>2015-08-06T06:57:54Z</time></trkpt>
<trkpt lat="29.122208" lon="100.015598">
<time>2015-08-06T06:57:55Z</time></trkpt>
<trkpt lat="29.122228" lon="100.015488">
<time>2015-08-06T06:57:56Z</time></trkpt>
<trkpt lat="29.122239" lon="100.015279">
<time>2015-08-06T06:57:57Z</time></trkpt>
<trkpt lat="29.12226" lon="100.01489">
<time>2015-08-06T06:57:58Z</time></trkpt>
<trkpt lat="29.122271" lon="100.014661">
<time>2015-08-06T06:57:59Z</time></trkpt>
<trkpt lat="29.122271" lon="100.014611">
<time>2015-08-06T06:58:00Z</time></trkpt>
<trkpt lat="29.122261" lon="100.014561">
<time>2015-08-06T06:58:01Z</time></trkpt>
<trkpt lat="29.122251" lon="100.014511">
<time>2015-08-06T06:58:02Z</time></trkpt>
<trkpt lat="29.122241" lon="100.014461">
<time>2015-08-06T06:58:03Z</time></trkpt>
<trkpt lat="29.122231" lon="100.014412">
<time>2015-08-06T06:58:04Z</time></trkpt>
<trkpt lat="29.122202" lon="100.014352">
<time>2015-08-06T06:58:05Z</time></trkpt>
<trkpt lat="29.122182" lon="100.014322">
<time>2015-08-06T06:58:06Z</time></trkpt>
<trkpt lat="29.122162" lon="100.014302">
<time>2015-08-06T06:58:07Z</time></trkpt>
<trkpt lat="29.122152" lon="100.014272">
<time>2015-08-06T06:58:08Z</time></trkpt>
<trkpt lat="29.122132" lon="100.014252">
<time>2015-08-06T06:58:09Z</time></trkpt>
<trkpt lat="29.122102" lon="100.014232">
<time>2015-08-06T06:58:10Z</time></trkpt>
<trkpt lat="29.122072" lon="100.014202">
<time>2015-08-06T06:58:11Z</time></trkpt>
<trkpt lat="29.122032" lon="100.014172">
<time>2015-08-06T06:58:12Z</time></trkpt>
<trkpt lat="29.121942" lon="100.014123">
<time>2015-08-06T06:58:13Z</time></trkpt>
<trkpt lat="29.121853" lon="100.014073">
<time>2015-08-06T06:58:14Z</time></trkpt>
<trkpt lat="29.121753" lon="100.014013">
<time>2015-08-06T06:58:15Z</time></trkpt>
<trkpt lat="29.121703" lon="100.013983">
<time>2015-08-06T06:58:16Z</time></trkpt>
<trkpt lat="29.121673" lon="100.013953">
<time>2015-08-06T06:58:17Z</time></trkpt>
<trkpt lat="29.121643" lon="100.013923">
<time>2015-08-06T06:58:18Z</time></trkpt>
<trkpt lat="29.121623" lon="100.013903">
<time>2015-08-06T06:58:19Z</time></trkpt>
<trkpt lat="29.121593" lon="100.013863">
<time>2015-08-06T06:58:20Z</time></trkpt>
<trkpt lat="29.121574" lon="100.013834">
<time>2015-08-06T06:58:21Z</time></trkpt>
<trkpt lat="29.121564" lon="100.013804">
<time>2015-08-06T06:58:22Z</time></trkpt>
<trkpt lat="29.121544" lon="100.013774">
<time>2015-08-06T06:58:23Z</time></trkpt>
<trkpt lat="29.121534" lon="100.013744">
<time>2015-08-06T06:58:24Z</time></trkpt>
<trkpt lat="29.121534" lon="100.013704">
<time>2015-08-06T06:58:25Z</time></trkpt>
<trkpt lat="29.121524" lon="100.013644">
<time>2015-08-06T06:58:26Z</time></trkpt>
<trkpt lat="29.121524" lon="100.013584">
<time>2015-08-06T06:58:27Z</time></trkpt>
<trkpt lat="29.121525" lon="100.013505">
<time>2015-08-06T06:58:28Z</time></trkpt>
<trkpt lat="29.121535" lon="100.013465">
<time>2015-08-06T06:58:29Z</time></trkpt>
<trkpt lat="29.121576" lon="100.013106">
<time>2015-08-06T06:58:30Z</time></trkpt>
<trkpt lat="29.121616" lon="100.012837">
<time>2015-08-06T06:58:31Z</time></trkpt>
<trkpt lat="29.121708" lon="100.012249">
<time>2015-08-06T06:58:32Z</time></trkpt>
<trkpt lat="29.121769" lon="100.01197">
<time>2015-08-06T06:58:33Z</time></trkpt>
<trkpt lat="29.121799" lon="100.01186">
<time>2015-08-06T06:58:34Z</time></trkpt>
<trkpt lat="29.12187" lon="100.011641">
<time>2015-08-06T06:58:35Z</time></trkpt>
<trkpt lat="29.122001" lon="100.011252">
<time>2015-08-06T06:58:36Z</time></trkpt>
<trkpt lat="29.122031" lon="100.011142">
<time>2015-08-06T06:58:37Z</time></trkpt>
<trkpt lat="29.122031" lon="100.011073">
<time>2015-08-06T06:58:38Z</time></trkpt>
<trkpt lat="29.122032" lon="100.011003">
<time>2015-08-06T06:58:39Z</time></trkpt>
<trkpt lat="29.122012" lon="100.010883">
<time>2015-08-06T06:58:40Z</time></trkpt>
<trkpt lat="29.121972" lon="100.010794">
<time>2015-08-06T06:58:41Z</time></trkpt>
<trkpt lat="29.121823" lon="100.010475">
<time>2015-08-06T06:58:42Z</time></trkpt>
<trkpt lat="29.121744" lon="100.010295">
<time>2015-08-06T06:58:43Z</time></trkpt>
<trkpt lat="29.121685" lon="100.010126">
<time>2015-08-06T06:58:44Z</time></trkpt>
<trkpt lat="29.121615" lon="100.009937">
<time>2015-08-06T06:58:45Z</time></trkpt>
<trkpt lat="29.121526" lon="100.009538">
<time>2015-08-06T06:58:46Z</time></trkpt>
<trkpt lat="29.121428" lon="100.00898">
<time>2015-08-06T06:58:47Z</time></trkpt>
<trkpt lat="29.121389" lon="100.008691">
<time>2015-08-06T06:58:48Z</time></trkpt>
<trkpt lat="29.121379" lon="100.008551">
<time>2015-08-06T06:58:49Z</time></trkpt>
<trkpt lat="29.12138" lon="100.008252">
<time>2015-08-06T06:58:50Z</time></trkpt>
<trkpt lat="29.121402" lon="100.007764">
<time>2015-08-06T06:58:51Z</time></trkpt>
<trkpt lat="29.121413" lon="100.007465">
<time>2015-08-06T06:58:52Z</time></trkpt>
<trkpt lat="29.121433" lon="100.007305">
<time>2015-08-06T06:58:53Z</time></trkpt>
<trkpt lat="29.121535" lon="100.006837">
<time>2015-08-06T06:58:54Z</time></trkpt>
<trkpt lat="29.121686" lon="100.006279">
<time>2015-08-06T06:58:55Z</time></trkpt>
<trkpt lat="29.121858" lon="100.005571">
<time>2015-08-06T06:58:56Z</time></trkpt>
<trkpt lat="29.121959" lon="100.005093">
<time>2015-08-06T06:58:57Z</time></trkpt>
<trkpt lat="29.122061" lon="100.004525">
<time>2015-08-06T06:58:58Z</time></trkpt>
<trkpt lat="29.122163" lon="100.003967">
<time>2015-08-06T06:58:59Z</time></trkpt>
<trkpt lat="29.122264" lon="100.003399">
<time>2015-08-06T06:59:00Z</time></trkpt>
<trkpt lat="29.122366" lon="100.002831">
<time>2015-08-06T06:59:01Z</time></trkpt>
<trkpt lat="29.122407" lon="100.002542">
<time>2015-08-06T06:59:02Z</time></trkpt>
<trkpt lat="29.122417" lon="100.002392">
<time>2015-08-06T06:59:03Z</time></trkpt>
<trkpt lat="29.122429" lon="100.001993">
<time>2015-08-06T06:59:04Z</time></trkpt>
<trkpt lat="29.12242" lon="100.001455">
<time>2015-08-06T06:59:05Z</time></trkpt>
<trkpt lat="29.122412" lon="100.000778">
<time>2015-08-06T06:59:06Z</time></trkpt>
<trkpt lat="29.122433" lon="100.000528">
<time>2015-08-06T06:59:07Z</time></trkpt>
<trkpt lat="29.122453" lon="100.000419">
<time>2015-08-06T06:59:08Z</time></trkpt>
<trkpt lat="29.122504" lon="100.00014">
<time>2015-08-06T06:59:09Z</time></trkpt>
<trkpt lat="29.122524" lon="100.00004">
<time>2015-08-06T06:59:10Z</time></trkpt>
<trkpt lat="29.122595" lon="99.999671">
<time>2015-08-06T06:59:11Z</time></trkpt>
<trkpt lat="29.122676" lon="99.999313">
<time>2015-08-06T06:59:12Z</time></trkpt>
<trkpt lat="29.122697" lon="99.999173">
<time>2015-08-06T06:59:13Z</time></trkpt>
<trkpt lat="29.122717" lon="99.999034">
<time>2015-08-06T06:59:14Z</time></trkpt>
<trkpt lat="29.122718" lon="99.998894">
<time>2015-08-06T06:59:15Z</time></trkpt>
<trkpt lat="29.122698" lon="99.998764">
<time>2015-08-06T06:59:16Z</time></trkpt>
<trkpt lat="29.122659" lon="99.998595">
<time>2015-08-06T06:59:17Z</time></trkpt>
<trkpt lat="29.12253" lon="99.998186">
<time>2015-08-06T06:59:18Z</time></trkpt>
<trkpt lat="29.1225" lon="99.998107">
<time>2015-08-06T06:59:19Z</time></trkpt>
<trkpt lat="29.122481" lon="99.997947">
<time>2015-08-06T06:59:20Z</time></trkpt>
<trkpt lat="29.122471" lon="99.997768">
<time>2015-08-06T06:59:21Z</time></trkpt>
<trkpt lat="29.122512" lon="99.997489">
<time>2015-08-06T06:59:22Z</time></trkpt>
<trkpt lat="29.122543" lon="99.997289">
<time>2015-08-06T06:59:23Z</time></trkpt>
<trkpt lat="29.122553" lon="99.99718">
<time>2015-08-06T06:59:24Z</time></trkpt>
<trkpt lat="29.122533" lon="99.99706">
<time>2015-08-06T06:59:25Z</time></trkpt>
<trkpt lat="29.122484" lon="99.996791">
<time>2015-08-06T06:59:26Z</time></trkpt>
<trkpt lat="29.122465" lon="99.996632">
<time>2015-08-06T06:59:27Z</time></trkpt>
<trkpt lat="29.122455" lon="99.996462">
<time>2015-08-06T06:59:28Z</time></trkpt>
<trkpt lat="29.122446" lon="99.996283">
<time>2015-08-06T06:59:29Z</time></trkpt>
<trkpt lat="29.122478" lon="99.995735">
<time>2015-08-06T06:59:30Z</time></trkpt>
<trkpt lat="29.122508" lon="99.995516">
<time>2015-08-06T06:59:31Z</time></trkpt>
<trkpt lat="29.122569" lon="99.995097">
<time>2015-08-06T06:59:32Z</time></trkpt>
<trkpt lat="29.122671" lon="99.994539">
<time>2015-08-06T06:59:33Z</time></trkpt>
<trkpt lat="29.122813" lon="99.993771">
<time>2015-08-06T06:59:34Z</time></trkpt>
<trkpt lat="29.122854" lon="99.993512">
<time>2015-08-06T06:59:35Z</time></trkpt>
<trkpt lat="29.122905" lon="99.993223">
<time>2015-08-06T06:59:36Z</time></trkpt>
<trkpt lat="29.122926" lon="99.992954">
<time>2015-08-06T06:59:37Z</time></trkpt>
<trkpt lat="29.122958" lon="99.992336">
<time>2015-08-06T06:59:38Z</time></trkpt>
<trkpt lat="29.122988" lon="99.992027">
<time>2015-08-06T06:59:39Z</time></trkpt>
<trkpt lat="29.123049" lon="99.991728">
<time>2015-08-06T06:59:40Z</time></trkpt>
<trkpt lat="29.123252" lon="99.990802">
<time>2015-08-06T06:59:41Z</time></trkpt>
<trkpt lat="29.123343" lon="99.990333">
<time>2015-08-06T06:59:42Z</time></trkpt>
<trkpt lat="29.123384" lon="99.990174">
<time>2015-08-06T06:59:43Z</time></trkpt>
<trkpt lat="29.123424" lon="99.990034">
<time>2015-08-06T06:59:44Z</time></trkpt>
<trkpt lat="29.123495" lon="99.989845">
<time>2015-08-06T06:59:45Z</time></trkpt>
<trkpt lat="29.123555" lon="99.989695">
<time>2015-08-06T06:59:46Z</time></trkpt>
<trkpt lat="29.123726" lon="99.989297">
<time>2015-08-06T06:59:47Z</time></trkpt>
<trkpt lat="29.123927" lon="99.988848">
<time>2015-08-06T06:59:48Z</time></trkpt>
<trkpt lat="29.124058" lon="99.988559">
<time>2015-08-06T06:59:49Z</time></trkpt>
<trkpt lat="29.124209" lon="99.98819">
<time>2015-08-06T06:59:50Z</time></trkpt>
<trkpt lat="29.12427" lon="99.988021">
<time>2015-08-06T06:59:51Z</time></trkpt>
<trkpt lat="29.12434" lon="99.987782">
<time>2015-08-06T06:59:52Z</time></trkpt>
<trkpt lat="29.124381" lon="99.987622">
<time>2015-08-06T06:59:53Z</time></trkpt>
<trkpt lat="29.124462" lon="99.987293">
<time>2015-08-06T06:59:54Z</time></trkpt>
<trkpt lat="29.124512" lon="99.987104">
<time>2015-08-06T06:59:55Z</time></trkpt>
<trkpt lat="29.124543" lon="99.986905">
<time>2015-08-06T06:59:56Z</time></trkpt>
<trkpt lat="29.124563" lon="99.986785">
<time>2015-08-06T06:59:57Z</time></trkpt>
<trkpt lat="29.124583" lon="99.986656">
<time>2015-08-06T06:59:58Z</time></trkpt>
<trkpt lat="29.124604" lon="99.986566">
<time>2015-08-06T06:59:59Z</time></trkpt>
<trkpt lat="29.124644" lon="99.986486">
<time>2015-08-06T07:00:00Z</time></trkpt>
<trkpt lat="29.124704" lon="99.986347">
<time>2015-08-06T07:00:01Z</time></trkpt>
<trkpt lat="29.124775" lon="99.986187">
<time>2015-08-06T07:00:02Z</time></trkpt>
<trkpt lat="29.124895" lon="99.985938">
<time>2015-08-06T07:00:03Z</time></trkpt>
<trkpt lat="29.124966" lon="99.985758">
<time>2015-08-06T07:00:04Z</time></trkpt>
<trkpt lat="29.125016" lon="99.985619">
<time>2015-08-06T07:00:05Z</time></trkpt>
<trkpt lat="29.125067" lon="99.985459">
<time>2015-08-06T07:00:06Z</time></trkpt>
<trkpt lat="29.125157" lon="99.985141">
<time>2015-08-06T07:00:07Z</time></trkpt>
<trkpt lat="29.125279" lon="99.984632">
<time>2015-08-06T07:00:08Z</time></trkpt>
<trkpt lat="29.12532" lon="99.984363">
<time>2015-08-06T07:00:09Z</time></trkpt>
<trkpt lat="29.12535" lon="99.984184">
<time>2015-08-06T07:00:10Z</time></trkpt>
<trkpt lat="29.125391" lon="99.983775">
<time>2015-08-06T07:00:11Z</time></trkpt>
<trkpt lat="29.125433" lon="99.983267">
<time>2015-08-06T07:00:12Z</time></trkpt>
<trkpt lat="29.125454" lon="99.982908">
<time>2015-08-06T07:00:13Z</time></trkpt>
<trkpt lat="29.125474" lon="99.982748">
<time>2015-08-06T07:00:14Z</time></trkpt>
<trkpt lat="29.125495" lon="99.982599">
<time>2015-08-06T07:00:15Z</time></trkpt>
<trkpt lat="29.125515" lon="99.982499">
<time>2015-08-06T07:00:16Z</time></trkpt>
<trkpt lat="29.125535" lon="99.98239">
<time>2015-08-06T07:00:17Z</time></trkpt>
<trkpt lat="29.125626" lon="99.982061">
<time>2015-08-06T07:00:18Z</time></trkpt>
<trkpt lat="29.125717" lon="99.981702">
<time>2015-08-06T07:00:19Z</time></trkpt>
<trkpt lat="29.125758" lon="99.981522">
<time>2015-08-06T07:00:20Z</time></trkpt>
<trkpt lat="29.125859" lon="99.980994">
<time>2015-08-06T07:00:21Z</time></trkpt>
<trkpt lat="29.12595" lon="99.980546">
<time>2015-08-06T07:00:22Z</time></trkpt>
<trkpt lat="29.126072" lon="99.979978">
<time>2015-08-06T07:00:23Z</time></trkpt>
<trkpt lat="29.126123" lon="99.979639">
<time>2015-08-06T07:00:24Z</time></trkpt>
<trkpt lat="29.126143" lon="99.979539">
<time>2015-08-06T07:00:25Z</time></trkpt>
<trkpt lat="29.126143" lon="99.979399">
<time>2015-08-06T07:00:26Z</time></trkpt>
<trkpt lat="29.126154" lon="99.97923">
<time>2015-08-06T07:00:27Z</time></trkpt>
<trkpt lat="29.126145" lon="99.978831">
<time>2015-08-06T07:00:28Z</time></trkpt>
<trkpt lat="29.126166" lon="99.978472">
<time>2015-08-06T07:00:29Z</time></trkpt>
<trkpt lat="29.126176" lon="99.978383">
<time>2015-08-06T07:00:30Z</time></trkpt>
<trkpt lat="29.126257" lon="99.978004">
<time>2015-08-06T07:00:31Z</time></trkpt>
<trkpt lat="29.126298" lon="99.977884">
<time>2015-08-06T07:00:32Z</time></trkpt>
<trkpt lat="29.126439" lon="99.977426">
<time>2015-08-06T07:00:33Z</time></trkpt>
<trkpt lat="29.12656" lon="99.977167">
<time>2015-08-06T07:00:34Z</time></trkpt>
<trkpt lat="29.12659" lon="99.977107">
<time>2015-08-06T07:00:35Z</time></trkpt>
<trkpt lat="29.12669" lon="99.976977">
<time>2015-08-06T07:00:36Z</time></trkpt>
<trkpt lat="29.127051" lon="99.976489">
<time>2015-08-06T07:00:37Z</time></trkpt>
<trkpt lat="29.127793" lon="99.975532">
<time>2015-08-06T07:00:38Z</time></trkpt>
<trkpt lat="29.127883" lon="99.975442">
<time>2015-08-06T07:00:39Z</time></trkpt>
<trkpt lat="29.127944" lon="99.975382">
<time>2015-08-06T07:00:40Z</time></trkpt>
<trkpt lat="29.127994" lon="99.975352">
<time>2015-08-06T07:00:41Z</time></trkpt>
<trkpt lat="29.128044" lon="99.975322">
<time>2015-08-06T07:00:42Z</time></trkpt>
<trkpt lat="29.128094" lon="99.975302">
<time>2015-08-06T07:00:43Z</time></trkpt>
<trkpt lat="29.128134" lon="99.975302">
<time>2015-08-06T07:00:44Z</time></trkpt>
<trkpt lat="29.128264" lon="99.975302">
<time>2015-08-06T07:00:45Z</time></trkpt>
<trkpt lat="29.128383" lon="99.975302">
<time>2015-08-06T07:00:46Z</time></trkpt>
<trkpt lat="29.128423" lon="99.975292">
<time>2015-08-06T07:00:47Z</time></trkpt>
<trkpt lat="29.128483" lon="99.975263">
<time>2015-08-06T07:00:48Z</time></trkpt>
<trkpt lat="29.128564" lon="99.975203">
<time>2015-08-06T07:00:49Z</time></trkpt>
<trkpt lat="29.128644" lon="99.975113">
<time>2015-08-06T07:00:50Z</time></trkpt>
<trkpt lat="29.128895" lon="99.974764">
<time>2015-08-06T07:00:51Z</time></trkpt>
<trkpt lat="29.129015" lon="99.974595">
<time>2015-08-06T07:00:52Z</time></trkpt>
<trkpt lat="29.129196" lon="99.974326">
<time>2015-08-06T07:00:53Z</time></trkpt>
<trkpt lat="29.129436" lon="99.973997">
<time>2015-08-06T07:00:54Z</time></trkpt>
<trkpt lat="29.129537" lon="99.973877">
<time>2015-08-06T07:00:55Z</time></trkpt>
<trkpt lat="29.129807" lon="99.973588">
<time>2015-08-06T07:00:56Z</time></trkpt>
<trkpt lat="29.130308" lon="99.973149">
<time>2015-08-06T07:00:57Z</time></trkpt>
<trkpt lat="29.130478" lon="99.973">
<time>2015-08-06T07:00:58Z</time></trkpt>
<trkpt lat="29.130639" lon="99.97281">
<time>2015-08-06T07:00:59Z</time></trkpt>
<trkpt lat="29.130699" lon="99.97273">
<time>2015-08-06T07:01:00Z</time></trkpt>
<trkpt lat="29.130829" lon="99.972551">
<time>2015-08-06T07:01:01Z</time></trkpt>
<trkpt lat="29.13097" lon="99.972302">
<time>2015-08-06T07:01:02Z</time></trkpt>
<trkpt lat="29.131241" lon="99.971793">
<time>2015-08-06T07:01:03Z</time></trkpt>
<trkpt lat="29.131301" lon="99.971714">
<time>2015-08-06T07:01:04Z</time></trkpt>
<trkpt lat="29.131401" lon="99.971594">
<time>2015-08-06T07:01:05Z</time></trkpt>
<trkpt lat="29.131502" lon="99.971484">
<time>2015-08-06T07:01:06Z</time></trkpt>
<trkpt lat="29.131602" lon="99.971395">
<time>2015-08-06T07:01:07Z</time></trkpt>
<trkpt lat="29.131912" lon="99.971115">
<time>2015-08-06T07:01:08Z</time></trkpt>
<trkpt lat="29.132253" lon="99.970816">
<time>2015-08-06T07:01:09Z</time></trkpt>
<trkpt lat="29.132393" lon="99.970737">
<time>2015-08-06T07:01:10Z</time></trkpt>
<trkpt lat="29.132463" lon="99.970697">
<time>2015-08-06T07:01:11Z</time></trkpt>
<trkpt lat="29.132603" lon="99.970657">
<time>2015-08-06T07:01:12Z</time></trkpt>
<trkpt lat="29.132713" lon="99.970657">
<time>2015-08-06T07:01:13Z</time></trkpt>
<trkpt lat="29.132853" lon="99.970667">
<time>2015-08-06T07:01:14Z</time></trkpt>
<trkpt lat="29.133172" lon="99.970717">
<time>2015-08-06T07:01:15Z</time></trkpt>
<trkpt lat="29.133342" lon="99.970776">
<time>2015-08-06T07:01:16Z</time></trkpt>
<trkpt lat="29.133512" lon="99.970856">
<time>2015-08-06T07:01:17Z</time></trkpt>
<trkpt lat="29.133691" lon="99.970936">
<time>2015-08-06T07:01:18Z</time></trkpt>
<trkpt lat="29.133871" lon="99.971006">
<time>2015-08-06T07:01:19Z</time></trkpt>
<trkpt lat="29.134151" lon="99.971085">
<time>2015-08-06T07:01:20Z</time></trkpt>
<trkpt lat="29.13457" lon="99.971175">
<time>2015-08-06T07:01:21Z</time></trkpt>
<trkpt lat="29.13489" lon="99.971245">
<time>2015-08-06T07:01:22Z</time></trkpt>
<trkpt lat="29.135" lon="99.971245">
<time>2015-08-06T07:01:23Z</time></trkpt>
<trkpt lat="29.13512" lon="99.971235">
<time>2015-08-06T07:01:24Z</time></trkpt>
<trkpt lat="29.13518" lon="99.971215">
<time>2015-08-06T07:01:25Z</time></trkpt>
<trkpt lat="29.13526" lon="99.971185">
<time>2015-08-06T07:01:26Z</time></trkpt>
<trkpt lat="29.13534" lon="99.971125">
<time>2015-08-06T07:01:27Z</time></trkpt>
<trkpt lat="29.13549" lon="99.970986">
<time>2015-08-06T07:01:28Z</time></trkpt>
<trkpt lat="29.1356" lon="99.970896">
<time>2015-08-06T07:01:29Z</time></trkpt>
<trkpt lat="29.13577" lon="99.970816">
<time>2015-08-06T07:01:30Z</time></trkpt>
<trkpt lat="29.13589" lon="99.970776">
<time>2015-08-06T07:01:31Z</time></trkpt>
<trkpt lat="29.13604" lon="99.970736">
<time>2015-08-06T07:01:32Z</time></trkpt>
<trkpt lat="29.13622" lon="99.970667">
<time>2015-08-06T07:01:33Z</time></trkpt>
<trkpt lat="29.13628" lon="99.970627">
<time>2015-08-06T07:01:34Z</time></trkpt>
<trkpt lat="29.13634" lon="99.970587">
<time>2015-08-06T07:01:35Z</time></trkpt>
<trkpt lat="29.13642" lon="99.970517">
<time>2015-08-06T07:01:36Z</time></trkpt>
<trkpt lat="29.136581" lon="99.970328">
<time>2015-08-06T07:01:37Z</time></trkpt>
<trkpt lat="29.136631" lon="99.970288">
<time>2015-08-06T07:01:38Z</time></trkpt>
<trkpt lat="29.136731" lon="99.970228">
<time>2015-08-06T07:01:39Z</time></trkpt>
<trkpt lat="29.136891" lon="99.970158">
<time>2015-08-06T07:01:40Z</time></trkpt>
<trkpt lat="29.136971" lon="99.970108">
<time>2015-08-06T07:01:41Z</time></trkpt>
<trkpt lat="29.137031" lon="99.970068">
<time>2015-08-06T07:01:42Z</time></trkpt>
<trkpt lat="29.137071" lon="99.970029">
<time>2015-08-06T07:01:43Z</time></trkpt>
<trkpt lat="29.137091" lon="99.969989">
<time>2015-08-06T07:01:44Z</time></trkpt>
<trkpt lat="29.137132" lon="99.969939">
<time>2015-08-06T07:01:45Z</time></trkpt>
<trkpt lat="29.137182" lon="99.969839">
<time>2015-08-06T07:01:46Z</time></trkpt>
<trkpt lat="29.137262" lon="99.96967">
<time>2015-08-06T07:01:47Z</time></trkpt>
<trkpt lat="29.137342" lon="99.96953">
<time>2015-08-06T07:01:48Z</time></trkpt>
<trkpt lat="29.137403" lon="99.96943">
<time>2015-08-06T07:01:49Z</time></trkpt>
<trkpt lat="29.137453" lon="99.969371">
<time>2015-08-06T07:01:50Z</time></trkpt>
<trkpt lat="29.137493" lon="99.969341">
<time>2015-08-06T07:01:51Z</time></trkpt>
<trkpt lat="29.137533" lon="99.969301">
<time>2015-08-06T07:01:52Z</time></trkpt>
<trkpt lat="29.137583" lon="99.969261">
<time>2015-08-06T07:01:53Z</time></trkpt>
<trkpt lat="29.137653" lon="99.969221">
<time>2015-08-06T07:01:54Z</time></trkpt>
<trkpt lat="29.137723" lon="99.969191">
<time>2015-08-06T07:01:55Z</time></trkpt>
<trkpt lat="29.137893" lon="99.969141">
<time>2015-08-06T07:01:56Z</time></trkpt>
<trkpt lat="29.137953" lon="99.969111">
<time>2015-08-06T07:01:57Z</time></trkpt>
<trkpt lat="29.138023" lon="99.969052">
<time>2015-08-06T07:01:58Z</time></trkpt>
<trkpt lat="29.138073" lon="99.969012">
<time>2015-08-06T07:01:59Z</time></trkpt>
<trkpt lat="29.138133" lon="99.968942">
<time>2015-08-06T07:02:00Z</time></trkpt>
<trkpt lat="29.138354" lon="99.968663">
<time>2015-08-06T07:02:01Z</time></trkpt>
<trkpt lat="29.138444" lon="99.968553">
<time>2015-08-06T07:02:02Z</time></trkpt>
<trkpt lat="29.138534" lon="99.968453">
<time>2015-08-06T07:02:03Z</time></trkpt>
<trkpt lat="29.138585" lon="99.968393">
<time>2015-08-06T07:02:04Z</time></trkpt>
<trkpt lat="29.138675" lon="99.968334">
<time>2015-08-06T07:02:05Z</time></trkpt>
<trkpt lat="29.138815" lon="99.968244">
<time>2015-08-06T07:02:06Z</time></trkpt>
<trkpt lat="29.138865" lon="99.968204">
<time>2015-08-06T07:02:07Z</time></trkpt>
<trkpt lat="29.138905" lon="99.968164">
<time>2015-08-06T07:02:08Z</time></trkpt>
<trkpt lat="29.138955" lon="99.968094">
<time>2015-08-06T07:02:09Z</time></trkpt>
<trkpt lat="29.139106" lon="99.967875">
<time>2015-08-06T07:02:10Z</time></trkpt>
<trkpt lat="29.139336" lon="99.967506">
<time>2015-08-06T07:02:11Z</time></trkpt>
<trkpt lat="29.139577" lon="99.967137">
<time>2015-08-06T07:02:12Z</time></trkpt>
<trkpt lat="29.139707" lon="99.966958">
<time>2015-08-06T07:02:13Z</time></trkpt>
<trkpt lat="29.139828" lon="99.966798">
<time>2015-08-06T07:02:14Z</time></trkpt>
<trkpt lat="29.139928" lon="99.966639">
<time>2015-08-06T07:02:15Z</time></trkpt>
<trkpt lat="29.139998" lon="99.966509">
<time>2015-08-06T07:02:16Z</time></trkpt>
<trkpt lat="29.140039" lon="99.966419">
<time>2015-08-06T07:02:17Z</time></trkpt>
<trkpt lat="29.140089" lon="99.96626">
<time>2015-08-06T07:02:18Z</time></trkpt>
<trkpt lat="29.14016" lon="99.965981">
<time>2015-08-06T07:02:19Z</time></trkpt>
<trkpt lat="29.1402" lon="99.965811">
<time>2015-08-06T07:02:20Z</time></trkpt>
<trkpt lat="29.140291" lon="99.965612">
<time>2015-08-06T07:02:21Z</time></trkpt>
<trkpt lat="29.140401" lon="99.965422">
<time>2015-08-06T07:02:22Z</time></trkpt>
<trkpt lat="29.140722" lon="99.964914">
<time>2015-08-06T07:02:23Z</time></trkpt>
<trkpt lat="29.140993" lon="99.964425">
<time>2015-08-06T07:02:24Z</time></trkpt>
<trkpt lat="29.141144" lon="99.964066">
<time>2015-08-06T07:02:25Z</time></trkpt>
<trkpt lat="29.141184" lon="99.963986">
<time>2015-08-06T07:02:26Z</time></trkpt>
<trkpt lat="29.141214" lon="99.963926">
<time>2015-08-06T07:02:27Z</time></trkpt>
<trkpt lat="29.141264" lon="99.963857">
<time>2015-08-06T07:02:28Z</time></trkpt>
<trkpt lat="29.141304" lon="99.963817">
<time>2015-08-06T07:02:29Z</time></trkpt>
<trkpt lat="29.141354" lon="99.963767">
<time>2015-08-06T07:02:30Z</time></trkpt>
<trkpt lat="29.141455" lon="99.963697">
<time>2015-08-06T07:02:31Z</time></trkpt>
<trkpt lat="29.141515" lon="99.963657">
<time>2015-08-06T07:02:32Z</time></trkpt>
<trkpt lat="29.141555" lon="99.963617">
<time>2015-08-06T07:02:33Z</time></trkpt>
<trkpt lat="29.141575" lon="99.963567">
<time>2015-08-06T07:02:34Z</time></trkpt>
<trkpt lat="29.141595" lon="99.963498">
<time>2015-08-06T07:02:35Z</time></trkpt>
<trkpt lat="29.141615" lon="99.963428">
<time>2015-08-06T07:02:36Z</time></trkpt>
<trkpt lat="29.141625" lon="99.963328">
<time>2015-08-06T07:02:37Z</time></trkpt>
<trkpt lat="29.141666" lon="99.963218">
<time>2015-08-06T07:02:38Z</time></trkpt>
<trkpt lat="29.141696" lon="99.963099">
<time>2015-08-06T07:02:39Z</time></trkpt>
<trkpt lat="29.141756" lon="99.962989">
<time>2015-08-06T07:02:40Z</time></trkpt>
<trkpt lat="29.141967" lon="99.96254">
<time>2015-08-06T07:02:41Z</time></trkpt>
<trkpt lat="29.142098" lon="99.962301">
<time>2015-08-06T07:02:42Z</time></trkpt>
<trkpt lat="29.142298" lon="99.962012">
<time>2015-08-06T07:02:43Z</time></trkpt>
<trkpt lat="29.142368" lon="99.961882">
<time>2015-08-06T07:02:44Z</time></trkpt>
<trkpt lat="29.142409" lon="99.961792">
<time>2015-08-06T07:02:45Z</time></trkpt>
<trkpt lat="29.142469" lon="99.961643">
<time>2015-08-06T07:02:46Z</time></trkpt>
<trkpt lat="29.142569" lon="99.961463">
<time>2015-08-06T07:02:47Z</time></trkpt>
<trkpt lat="29.14264" lon="99.961344">
<time>2015-08-06T07:02:48Z</time></trkpt>
<trkpt lat="29.14271" lon="99.961234">
<time>2015-08-06T07:02:49Z</time></trkpt>
<trkpt lat="29.14272" lon="99.961184">
<time>2015-08-06T07:02:50Z</time></trkpt>
<trkpt lat="29.14271" lon="99.961134">
<time>2015-08-06T07:02:51Z</time></trkpt>
<trkpt lat="29.1427" lon="99.961104">
<time>2015-08-06T07:02:52Z</time></trkpt>
<trkpt lat="29.14267" lon="99.961065">
<time>2015-08-06T07:02:53Z</time></trkpt>
<trkpt lat="29.14264" lon="99.961035">
<time>2015-08-06T07:02:54Z</time></trkpt>
<trkpt lat="29.1426" lon="99.961025">
<time>2015-08-06T07:02:55Z</time></trkpt>
<trkpt lat="29.14256" lon="99.961025">
<time>2015-08-06T07:02:56Z</time></trkpt>
<trkpt lat="29.14254" lon="99.961025">
<time>2015-08-06T07:02:57Z</time></trkpt>
<trkpt lat="29.14248" lon="99.961055">
<time>2015-08-06T07:02:58Z</time></trkpt>
<trkpt lat="29.14246" lon="99.961084">
<time>2015-08-06T07:02:59Z</time></trkpt>
<trkpt lat="29.14243" lon="99.961144">
<time>2015-08-06T07:03:00Z</time></trkpt>
<trkpt lat="29.142259" lon="99.961683">
<time>2015-08-06T07:03:01Z</time></trkpt>
<trkpt lat="29.142179" lon="99.961892">
<time>2015-08-06T07:03:02Z</time></trkpt>
<trkpt lat="29.142128" lon="99.961982">
<time>2015-08-06T07:03:03Z</time></trkpt>
<trkpt lat="29.141948" lon="99.962211">
<time>2015-08-06T07:03:04Z</time></trkpt>
<trkpt lat="29.141657" lon="99.96256">
<time>2015-08-06T07:03:05Z</time></trkpt>
<trkpt lat="29.141467" lon="99.9628">
<time>2015-08-06T07:03:06Z</time></trkpt>
<trkpt lat="29.141417" lon="99.962879">
<time>2015-08-06T07:03:07Z</time></trkpt>
<trkpt lat="29.141336" lon="99.963029">
<time>2015-08-06T07:03:08Z</time></trkpt>
<trkpt lat="29.141276" lon="99.963169">
<time>2015-08-06T07:03:09Z</time></trkpt>
<trkpt lat="29.141246" lon="99.963228">
<time>2015-08-06T07:03:10Z</time></trkpt>
<trkpt lat="29.141176" lon="99.963308">
<time>2015-08-06T07:03:11Z</time></trkpt>
<trkpt lat="29.141076" lon="99.963388">
<time>2015-08-06T07:03:12Z</time></trkpt>
<trkpt lat="29.140986" lon="99.963468">
<time>2015-08-06T07:03:13Z</time></trkpt>
<trkpt lat="29.140945" lon="99.963498">
<time>2015-08-06T07:03:14Z</time></trkpt>
<trkpt lat="29.140865" lon="99.963587">
<time>2015-08-06T07:03:15Z</time></trkpt>
<trkpt lat="29.140635" lon="99.963966">
<time>2015-08-06T07:03:16Z</time></trkpt>
<trkpt lat="29.140434" lon="99.964295">
<time>2015-08-06T07:03:17Z</time></trkpt>
<trkpt lat="29.140394" lon="99.964365">
<time>2015-08-06T07:03:18Z</time></trkpt>
<trkpt lat="29.140283" lon="99.964475">
<time>2015-08-06T07:03:19Z</time></trkpt>
<trkpt lat="29.140193" lon="99.964565">
<time>2015-08-06T07:03:20Z</time></trkpt>
<trkpt lat="29.140003" lon="99.964734">
<time>2015-08-06T07:03:21Z</time></trkpt>
<trkpt lat="29.139903" lon="99.964814">
<time>2015-08-06T07:03:22Z</time></trkpt>
<trkpt lat="29.139853" lon="99.964824">
<time>2015-08-06T07:03:23Z</time></trkpt>
<trkpt lat="29.139803" lon="99.964834">
<time>2015-08-06T07:03:24Z</time></trkpt>
<trkpt lat="29.139763" lon="99.964814">
<time>2015-08-06T07:03:25Z</time></trkpt>
<trkpt lat="29.139723" lon="99.964784">
<time>2015-08-06T07:03:26Z</time></trkpt>
<trkpt lat="29.139683" lon="99.964734">
<time>2015-08-06T07:03:27Z</time></trkpt>
<trkpt lat="29.139643" lon="99.964664">
<time>2015-08-06T07:03:28Z</time></trkpt>
<trkpt lat="29.139634" lon="99.964605">
<time>2015-08-06T07:03:29Z</time></trkpt>
<trkpt lat="29.139644" lon="99.964525">
<time>2015-08-06T07:03:30Z</time></trkpt>
<trkpt lat="29.139674" lon="99.964465">
<time>2015-08-06T07:03:31Z</time></trkpt>
<trkpt lat="29.139744" lon="99.964405">
<time>2015-08-06T07:03:32Z</time></trkpt>
<trkpt lat="29.139814" lon="99.964375">
<time>2015-08-06T07:03:33Z</time></trkpt>
<trkpt lat="29.140014" lon="99.964345">
<time>2015-08-06T07:03:34Z</time></trkpt>
<trkpt lat="29.140134" lon="99.964325">
<time>2015-08-06T07:03:35Z</time></trkpt>
<trkpt lat="29.140204" lon="99.964276">
<time>2015-08-06T07:03:36Z</time></trkpt>
<trkpt lat="29.140274" lon="99.964186">
<time>2015-08-06T07:03:37Z</time></trkpt>
<trkpt lat="29.140334" lon="99.964066">
<time>2015-08-06T07:03:38Z</time></trkpt>
<trkpt lat="29.140395" lon="99.963936">
<time>2015-08-06T07:03:39Z</time></trkpt>
<trkpt lat="29.140415" lon="99.963817">
<time>2015-08-06T07:03:40Z</time></trkpt>
<trkpt lat="29.140405" lon="99.963687">
<time>2015-08-06T07:03:41Z</time></trkpt>
<trkpt lat="29.140386" lon="99.963607">
<time>2015-08-06T07:03:42Z</time></trkpt>
<trkpt lat="29.140346" lon="99.963548">
<time>2015-08-06T07:03:43Z</time></trkpt>
<trkpt lat="29.140256" lon="99.963448">
<time>2015-08-06T07:03:44Z</time></trkpt>
<trkpt lat="29.140107" lon="99.963328">
<time>2015-08-06T07:03:45Z</time></trkpt>
<trkpt lat="29.139977" lon="99.963209">
<time>2015-08-06T07:03:46Z</time></trkpt>
<trkpt lat="29.139947" lon="99.963169">
<time>2015-08-06T07:03:47Z</time></trkpt>
<trkpt lat="29.139927" lon="99.963129">
<time>2015-08-06T07:03:48Z</time></trkpt>
<trkpt lat="29.139907" lon="99.963079">
<time>2015-08-06T07:03:49Z</time></trkpt>
<trkpt lat="29.139897" lon="99.963029">
<time>2015-08-06T07:03:50Z</time></trkpt>
<trkpt lat="29.139898" lon="99.962929">
<time>2015-08-06T07:03:51Z</time></trkpt>
<trkpt lat="29.139948" lon="99.96261">
<time>2015-08-06T07:03:52Z</time></trkpt>
<trkpt lat="29.14004" lon="99.962092">
<time>2015-08-06T07:03:53Z</time></trkpt>
<trkpt lat="29.14008" lon="99.961822">
<time>2015-08-06T07:03:54Z</time></trkpt>
<trkpt lat="29.140131" lon="99.961633">
<time>2015-08-06T07:03:55Z</time></trkpt>
<trkpt lat="29.140191" lon="99.961424">
<time>2015-08-06T07:03:56Z</time></trkpt>
<trkpt lat="29.140342" lon="99.961055">
<time>2015-08-06T07:03:57Z</time></trkpt>
<trkpt lat="29.140433" lon="99.960795">
<time>2015-08-06T07:03:58Z</time></trkpt>
<trkpt lat="29.140463" lon="99.960656">
<time>2015-08-06T07:03:59Z</time></trkpt>
<trkpt lat="29.140493" lon="99.960536">
<time>2015-08-06T07:04:00Z</time></trkpt>
<trkpt lat="29.140504" lon="99.960406">
<time>2015-08-06T07:04:01Z</time></trkpt>
<trkpt lat="29.140504" lon="99.960307">
<time>2015-08-06T07:04:02Z</time></trkpt>
<trkpt lat="29.140484" lon="99.960197">
<time>2015-08-06T07:04:03Z</time></trkpt>
<trkpt lat="29.140425" lon="99.959968">
<time>2015-08-06T07:04:04Z</time></trkpt>
<trkpt lat="29.140355" lon="99.959688">
<time>2015-08-06T07:04:05Z</time></trkpt>
<trkpt lat="29.140316" lon="99.959429">
<time>2015-08-06T07:04:06Z</time></trkpt>
<trkpt lat="29.140267" lon="99.95916">
<time>2015-08-06T07:04:07Z</time></trkpt>
<trkpt lat="29.140148" lon="99.958761">
<time>2015-08-06T07:04:08Z</time></trkpt>
<trkpt lat="29.140128" lon="99.958701">
<time>2015-08-06T07:04:09Z</time></trkpt>
<trkpt lat="29.140118" lon="99.958571">
<time>2015-08-06T07:04:10Z</time></trkpt>
<trkpt lat="29.140109" lon="99.958462">
<time>2015-08-06T07:04:11Z</time></trkpt>
<trkpt lat="29.140129" lon="99.958312">
<time>2015-08-06T07:04:12Z</time></trkpt>
<trkpt lat="29.140179" lon="99.958103">
<time>2015-08-06T07:04:13Z</time></trkpt>
<trkpt lat="29.14023" lon="99.957833">
<time>2015-08-06T07:04:14Z</time></trkpt>
<trkpt lat="29.140281" lon="99.957484">
<time>2015-08-06T07:04:15Z</time></trkpt>
<trkpt lat="29.140311" lon="99.957255">
<time>2015-08-06T07:04:16Z</time></trkpt>
<trkpt lat="29.140312" lon="99.957125">
<time>2015-08-06T07:04:17Z</time></trkpt>
<trkpt lat="29.140312" lon="99.956906">
<time>2015-08-06T07:04:18Z</time></trkpt>
<trkpt lat="29.140342" lon="99.956766">
<time>2015-08-06T07:04:19Z</time></trkpt>
<trkpt lat="29.140383" lon="99.956666">
<time>2015-08-06T07:04:20Z</time></trkpt>
<trkpt lat="29.140433" lon="99.956597">
<time>2015-08-06T07:04:21Z</time></trkpt>
<trkpt lat="29.140533" lon="99.956467">
<time>2015-08-06T07:04:22Z</time></trkpt>
<trkpt lat="29.140593" lon="99.956377">
<time>2015-08-06T07:04:23Z</time></trkpt>
<trkpt lat="29.140613" lon="99.956347">
<time>2015-08-06T07:04:24Z</time></trkpt>
<trkpt lat="29.140623" lon="99.956297">
<time>2015-08-06T07:04:25Z</time></trkpt>
<trkpt lat="29.140623" lon="99.956257">
<time>2015-08-06T07:04:26Z</time></trkpt>
<trkpt lat="29.140603" lon="99.956208">
<time>2015-08-06T07:04:27Z</time></trkpt>
<trkpt lat="29.140574" lon="99.956158">
<time>2015-08-06T07:04:28Z</time></trkpt>
<trkpt lat="29.140534" lon="99.956108">
<time>2015-08-06T07:04:29Z</time></trkpt>
<trkpt lat="29.140504" lon="99.956038">
<time>2015-08-06T07:04:30Z</time></trkpt>
<trkpt lat="29.140474" lon="99.955958">
<time>2015-08-06T07:04:31Z</time></trkpt>
<trkpt lat="29.140454" lon="99.955878">
<time>2015-08-06T07:04:32Z</time></trkpt>
<trkpt lat="29.140454" lon="99.955819">
<time>2015-08-06T07:04:33Z</time></trkpt>
<trkpt lat="29.140465" lon="99.955769">
<time>2015-08-06T07:04:34Z</time></trkpt>
<trkpt lat="29.140475" lon="99.955739">
<time>2015-08-06T07:04:35Z</time></trkpt>
<trkpt lat="29.140505" lon="99.955699">
<time>2015-08-06T07:04:36Z</time></trkpt>
<trkpt lat="29.140525" lon="99.955669">
<time>2015-08-06T07:04:37Z</time></trkpt>
<trkpt lat="29.140555" lon="99.955649">
<time>2015-08-06T07:04:38Z</time></trkpt>
<trkpt lat="29.140615" lon="99.955629">
<time>2015-08-06T07:04:39Z</time></trkpt>
<trkpt lat="29.140715" lon="99.955619">
<time>2015-08-06T07:04:40Z</time></trkpt>
<trkpt lat="29.140865" lon="99.955609">
<time>2015-08-06T07:04:41Z</time></trkpt>
<trkpt lat="29.140925" lon="99.955599">
<time>2015-08-06T07:04:42Z</time></trkpt>
<trkpt lat="29.140995" lon="99.955559">
<time>2015-08-06T07:04:43Z</time></trkpt>
<trkpt lat="29.141045" lon="99.955509">
<time>2015-08-06T07:04:44Z</time></trkpt>
<trkpt lat="29.141085" lon="99.95546">
<time>2015-08-06T07:04:45Z</time></trkpt>
<trkpt lat="29.141115" lon="99.9554">
<time>2015-08-06T07:04:46Z</time></trkpt>
<trkpt lat="29.141155" lon="99.95531">
<time>2015-08-06T07:04:47Z</time></trkpt>
<trkpt lat="29.141215" lon="99.95514">
<time>2015-08-06T07:04:48Z</time></trkpt>
<trkpt lat="29.141256" lon="99.955051">
<time>2015-08-06T07:04:49Z</time></trkpt>
<trkpt lat="29.141286" lon="99.954981">
<time>2015-08-06T07:04:50Z</time></trkpt>
<trkpt lat="29.141346" lon="99.954901">
<time>2015-08-06T07:04:51Z</time></trkpt>
<trkpt lat="29.141386" lon="99.954841">
<time>2015-08-06T07:04:52Z</time></trkpt>
<trkpt lat="29.141426" lon="99.954731">
<time>2015-08-06T07:04:53Z</time></trkpt>
<trkpt lat="29.141466" lon="99.954652">
<time>2015-08-06T07:04:54Z</time></trkpt>
<trkpt lat="29.141517" lon="99.954562">
<time>2015-08-06T07:04:55Z</time></trkpt>
<trkpt lat="29.141547" lon="99.954522">
<time>2015-08-06T07:04:56Z</time></trkpt>
<trkpt lat="29.141597" lon="99.954482">
<time>2015-08-06T07:04:57Z</time></trkpt>
<trkpt lat="29.141657" lon="99.954452">
<time>2015-08-06T07:04:58Z</time></trkpt>
<trkpt lat="29.141737" lon="99.954442">
<time>2015-08-06T07:04:59Z</time></trkpt>
<trkpt lat="29.141807" lon="99.954412">
<time>2015-08-06T07:05:00Z</time></trkpt>
<trkpt lat="29.141827" lon="99.954392">
<time>2015-08-06T07:05:01Z</time></trkpt>
<trkpt lat="29.141877" lon="99.954322">
<time>2015-08-06T07:05:02Z</time></trkpt>
<trkpt lat="29.141917" lon="99.954213">
<time>2015-08-06T07:05:03Z</time></trkpt>
<trkpt lat="29.141927" lon="99.954133">
<time>2015-08-06T07:05:04Z</time></trkpt>
<trkpt lat="29.141977" lon="99.953993">
<time>2015-08-06T07:05:05Z</time></trkpt>
<trkpt lat="29.142018" lon="99.953903">
<time>2015-08-06T07:05:06Z</time></trkpt>
<trkpt lat="29.142098" lon="99.953814">
<time>2015-08-06T07:05:07Z</time></trkpt>
<trkpt lat="29.142148" lon="99.953774">
<time>2015-08-06T07:05:08Z</time></trkpt>
<trkpt lat="29.142228" lon="99.953744">
<time>2015-08-06T07:05:09Z</time></trkpt>
<trkpt lat="29.142338" lon="99.953714">
<time>2015-08-06T07:05:10Z</time></trkpt>
<trkpt lat="29.142448" lon="99.953694">
<time>2015-08-06T07:05:11Z</time></trkpt>
<trkpt lat="29.142678" lon="99.953684">
<time>2015-08-06T07:05:12Z</time></trkpt>
<trkpt lat="29.142878" lon="99.953664">
<time>2015-08-06T07:05:13Z</time></trkpt>
<trkpt lat="29.142927" lon="99.953654">
<time>2015-08-06T07:05:14Z</time></trkpt>
<trkpt lat="29.142998" lon="99.953624">
<time>2015-08-06T07:05:15Z</time></trkpt>
<trkpt lat="29.143048" lon="99.953574">
<time>2015-08-06T07:05:16Z</time></trkpt>
<trkpt lat="29.143108" lon="99.953475">
<time>2015-08-06T07:05:17Z</time></trkpt>
<trkpt lat="29.143379" lon="99.953036">
<time>2015-08-06T07:05:18Z</time></trkpt>
<trkpt lat="29.143439" lon="99.952966">
<time>2015-08-06T07:05:19Z</time></trkpt>
<trkpt lat="29.143489" lon="99.952916">
<time>2015-08-06T07:05:20Z</time></trkpt>
<trkpt lat="29.143569" lon="99.952866">
<time>2015-08-06T07:05:21Z</time></trkpt>
<trkpt lat="29.143869" lon="99.952736">
<time>2015-08-06T07:05:22Z</time></trkpt>
<trkpt lat="29.143949" lon="99.952696">
<time>2015-08-06T07:05:23Z</time></trkpt>
<trkpt lat="29.143979" lon="99.952657">
<time>2015-08-06T07:05:24Z</time></trkpt>
<trkpt lat="29.144019" lon="99.952607">
<time>2015-08-06T07:05:25Z</time></trkpt>
<trkpt lat="29.144039" lon="99.952557">
<time>2015-08-06T07:05:26Z</time></trkpt>
<trkpt lat="29.144049" lon="99.952517">
<time>2015-08-06T07:05:27Z</time></trkpt>
<trkpt lat="29.14407" lon="99.952327">
<time>2015-08-06T07:05:28Z</time></trkpt>
<trkpt lat="29.14405" lon="99.952058">
<time>2015-08-06T07:05:29Z</time></trkpt>
<trkpt lat="29.144031" lon="99.951819">
<time>2015-08-06T07:05:30Z</time></trkpt>
<trkpt lat="29.144031" lon="99.951609">
<time>2015-08-06T07:05:31Z</time></trkpt>
<trkpt lat="29.144071" lon="99.951519">
<time>2015-08-06T07:05:32Z</time></trkpt>
<trkpt lat="29.144132" lon="99.95139">
<time>2015-08-06T07:05:33Z</time></trkpt>
<trkpt lat="29.144192" lon="99.95131">
<time>2015-08-06T07:05:34Z</time></trkpt>
<trkpt lat="29.144352" lon="99.95116">
<time>2015-08-06T07:05:35Z</time></trkpt>
<trkpt lat="29.144442" lon="99.9511">
<time>2015-08-06T07:05:36Z</time></trkpt>
<trkpt lat="29.144502" lon="99.95107">
<time>2015-08-06T07:05:37Z</time></trkpt>
<trkpt lat="29.144552" lon="99.95106">
<time>2015-08-06T07:05:38Z</time></trkpt>
<trkpt lat="29.144732" lon="99.95107">
<time>2015-08-06T07:05:39Z</time></trkpt>
<trkpt lat="29.144872" lon="99.9511">
<time>2015-08-06T07:05:40Z</time></trkpt>
<trkpt lat="29.145031" lon="99.9511">
<time>2015-08-06T07:05:41Z</time></trkpt>
<trkpt lat="29.145091" lon="99.95108">
<time>2015-08-06T07:05:42Z</time></trkpt>
<trkpt lat="29.145102" lon="99.95106">
<time>2015-08-06T07:05:43Z</time></trkpt>
<trkpt lat="29.145122" lon="99.95102">
<time>2015-08-06T07:05:44Z</time></trkpt>
<trkpt lat="29.145132" lon="99.950961">
<time>2015-08-06T07:05:45Z</time></trkpt>
<trkpt lat="29.145132" lon="99.950871">
<time>2015-08-06T07:05:46Z</time></trkpt>
<trkpt lat="29.145142" lon="99.950711">
<time>2015-08-06T07:05:47Z</time></trkpt>
<trkpt lat="29.145152" lon="99.950631">
<time>2015-08-06T07:05:48Z</time></trkpt>
<trkpt lat="29.145193" lon="99.950552">
<time>2015-08-06T07:05:49Z</time></trkpt>
<trkpt lat="29.145253" lon="99.950502">
<time>2015-08-06T07:05:50Z</time></trkpt>
<trkpt lat="29.145383" lon="99.950482">
<time>2015-08-06T07:05:51Z</time></trkpt>
<trkpt lat="29.145512" lon="99.950482">
<time>2015-08-06T07:05:52Z</time></trkpt>
<trkpt lat="29.145732" lon="99.950542">
<time>2015-08-06T07:05:53Z</time></trkpt>
<trkpt lat="29.145812" lon="99.950542">
<time>2015-08-06T07:05:54Z</time></trkpt>
<trkpt lat="29.145952" lon="99.950492">
<time>2015-08-06T07:05:55Z</time></trkpt>
<trkpt lat="29.146122" lon="99.950392">
<time>2015-08-06T07:05:56Z</time></trkpt>
<trkpt lat="29.146322" lon="99.950292">
<time>2015-08-06T07:05:57Z</time></trkpt>
<trkpt lat="29.146392" lon="99.950212">
<time>2015-08-06T07:05:58Z</time></trkpt>
<trkpt lat="29.146432" lon="99.950143">
<time>2015-08-06T07:05:59Z</time></trkpt>
<trkpt lat="29.146483" lon="99.950053">
<time>2015-08-06T07:06:00Z</time></trkpt>
<trkpt lat="29.146523" lon="99.949933">
<time>2015-08-06T07:06:01Z</time></trkpt>
<trkpt lat="29.146563" lon="99.949823">
<time>2015-08-06T07:06:02Z</time></trkpt>
<trkpt lat="29.146623" lon="99.949753">
<time>2015-08-06T07:06:03Z</time></trkpt>
<trkpt lat="29.146703" lon="99.949714">
<time>2015-08-06T07:06:04Z</time></trkpt>
<trkpt lat="29.146793" lon="99.949704">
<time>2015-08-06T07:06:05Z</time></trkpt>
<trkpt lat="29.146963" lon="99.949704">
<time>2015-08-06T07:06:06Z</time></trkpt>
<trkpt lat="29.147013" lon="99.949714">
<time>2015-08-06T07:06:07Z</time></trkpt>
<trkpt lat="29.147093" lon="99.949733">
<time>2015-08-06T07:06:08Z</time></trkpt>
<trkpt lat="29.147183" lon="99.949793">
<time>2015-08-06T07:06:09Z</time></trkpt>
<trkpt lat="29.147252" lon="99.949863">
<time>2015-08-06T07:06:10Z</time></trkpt>
<trkpt lat="29.147362" lon="99.949993">
<time>2015-08-06T07:06:11Z</time></trkpt>
<trkpt lat="29.147432" lon="99.950063">
<time>2015-08-06T07:06:12Z</time></trkpt>
<trkpt lat="29.147532" lon="99.950103">
<time>2015-08-06T07:06:13Z</time></trkpt>
<trkpt lat="29.147602" lon="99.950113">
<time>2015-08-06T07:06:14Z</time></trkpt>
<trkpt lat="29.147652" lon="99.950103">
<time>2015-08-06T07:06:15Z</time></trkpt>
<trkpt lat="29.147702" lon="99.950083">
<time>2015-08-06T07:06:16Z</time></trkpt>
<trkpt lat="29.147732" lon="99.950033">
<time>2015-08-06T07:06:17Z</time></trkpt>
<trkpt lat="29.147742" lon="99.949963">
<time>2015-08-06T07:06:18Z</time></trkpt>
<trkpt lat="29.147752" lon="99.949873">
<time>2015-08-06T07:06:19Z</time></trkpt>
<trkpt lat="29.147752" lon="99.949763">
<time>2015-08-06T07:06:20Z</time></trkpt>
<trkpt lat="29.147733" lon="99.949404">
<time>2015-08-06T07:06:21Z</time></trkpt>
<trkpt lat="29.147744" lon="99.948945">
<time>2015-08-06T07:06:22Z</time></trkpt>
<trkpt lat="29.147754" lon="99.948865">
<time>2015-08-06T07:06:23Z</time></trkpt>
<trkpt lat="29.147774" lon="99.948756">
<time>2015-08-06T07:06:24Z</time></trkpt>
<trkpt lat="29.147785" lon="99.948646">
<time>2015-08-06T07:06:25Z</time></trkpt>
<trkpt lat="29.147795" lon="99.948576">
<time>2015-08-06T07:06:26Z</time></trkpt>
<trkpt lat="29.147795" lon="99.948526">
<time>2015-08-06T07:06:27Z</time></trkpt>
<trkpt lat="29.147775" lon="99.948466">
<time>2015-08-06T07:06:28Z</time></trkpt>
<trkpt lat="29.147745" lon="99.948407">
<time>2015-08-06T07:06:29Z</time></trkpt>
<trkpt lat="29.147695" lon="99.948287">
<time>2015-08-06T07:06:30Z</time></trkpt>
<trkpt lat="29.147656" lon="99.948207">
<time>2015-08-06T07:06:31Z</time></trkpt>
<trkpt lat="29.147636" lon="99.948127">
<time>2015-08-06T07:06:32Z</time></trkpt>
<trkpt lat="29.147626" lon="99.948057">
<time>2015-08-06T07:06:33Z</time></trkpt>
<trkpt lat="29.147636" lon="99.947978">
<time>2015-08-06T07:06:34Z</time></trkpt>
<trkpt lat="29.147656" lon="99.947898">
<time>2015-08-06T07:06:35Z</time></trkpt>
<trkpt lat="29.147666" lon="99.947828">
<time>2015-08-06T07:06:36Z</time></trkpt>
<trkpt lat="29.147716" lon="99.947768">
<time>2015-08-06T07:06:37Z</time></trkpt>
<trkpt lat="29.147776" lon="99.947708">
<time>2015-08-06T07:06:38Z</time></trkpt>
<trkpt lat="29.147826" lon="99.947668">
<time>2015-08-06T07:06:39Z</time></trkpt>
<trkpt lat="29.147936" lon="99.947628">
<time>2015-08-06T07:06:40Z</time></trkpt>
<trkpt lat="29.148016" lon="99.947618">
<time>2015-08-06T07:06:41Z</time></trkpt>
<trkpt lat="29.148166" lon="99.947608">
<time>2015-08-06T07:06:42Z</time></trkpt>
<trkpt lat="29.148236" lon="99.947618">
<time>2015-08-06T07:06:43Z</time></trkpt>
<trkpt lat="29.148286" lon="99.947608">
<time>2015-08-06T07:06:44Z</time></trkpt>
<trkpt lat="29.148356" lon="99.947588">
<time>2015-08-06T07:06:45Z</time></trkpt>
<trkpt lat="29.148416" lon="99.947548">
<time>2015-08-06T07:06:46Z</time></trkpt>
<trkpt lat="29.148466" lon="99.947489">
<time>2015-08-06T07:06:47Z</time></trkpt>
<trkpt lat="29.148497" lon="99.947409">
<time>2015-08-06T07:06:48Z</time></trkpt>
<trkpt lat="29.148577" lon="99.947209">
<time>2015-08-06T07:06:49Z</time></trkpt>
<trkpt lat="29.148637" lon="99.947119">
<time>2015-08-06T07:06:50Z</time></trkpt>
<trkpt lat="29.148707" lon="99.94705">
<time>2015-08-06T07:06:51Z</time></trkpt>
<trkpt lat="29.148867" lon="99.94692">
<time>2015-08-06T07:06:52Z</time></trkpt>
<trkpt lat="29.148957" lon="99.94682">
<time>2015-08-06T07:06:53Z</time></trkpt>
<trkpt lat="29.149017" lon="99.94672">
<time>2015-08-06T07:06:54Z</time></trkpt>
<trkpt lat="29.149078" lon="99.946591">
<time>2015-08-06T07:06:55Z</time></trkpt>
<trkpt lat="29.149138" lon="99.946381">
<time>2015-08-06T07:06:56Z</time></trkpt>
<trkpt lat="29.149158" lon="99.946311">
<time>2015-08-06T07:06:57Z</time></trkpt>
<trkpt lat="29.149148" lon="99.946251">
<time>2015-08-06T07:06:58Z</time></trkpt>
<trkpt lat="29.149138" lon="99.946182">
<time>2015-08-06T07:06:59Z</time></trkpt>
<trkpt lat="29.149099" lon="99.946062">
<time>2015-08-06T07:07:00Z</time></trkpt>
<trkpt lat="29.149019" lon="99.945902">
<time>2015-08-06T07:07:01Z</time></trkpt>
<trkpt lat="29.148939" lon="99.945762">
<time>2015-08-06T07:07:02Z</time></trkpt>
<trkpt lat="29.1489" lon="99.945693">
<time>2015-08-06T07:07:03Z</time></trkpt>
<trkpt lat="29.14889" lon="99.945633">
<time>2015-08-06T07:07:04Z</time></trkpt>
<trkpt lat="29.14888" lon="99.945573">
<time>2015-08-06T07:07:05Z</time></trkpt>
<trkpt lat="29.14889" lon="99.945473">
<time>2015-08-06T07:07:06Z</time></trkpt>
<trkpt lat="29.1489" lon="99.945413">
<time>2015-08-06T07:07:07Z</time></trkpt>
<trkpt lat="29.14893" lon="99.945353">
<time>2015-08-06T07:07:08Z</time></trkpt>
<trkpt lat="29.14897" lon="99.945313">
<time>2015-08-06T07:07:09Z</time></trkpt>
<trkpt lat="29.14903" lon="99.945273">
<time>2015-08-06T07:07:10Z</time></trkpt>
<trkpt lat="29.14928" lon="99.945114">
<time>2015-08-06T07:07:11Z</time></trkpt>
<trkpt lat="29.149431" lon="99.945004">
<time>2015-08-06T07:07:12Z</time></trkpt>
<trkpt lat="29.149651" lon="99.944844">
<time>2015-08-06T07:07:13Z</time></trkpt>
<trkpt lat="29.149741" lon="99.944745">
<time>2015-08-06T07:07:14Z</time></trkpt>
<trkpt lat="29.149781" lon="99.944665">
<time>2015-08-06T07:07:15Z</time></trkpt>
<trkpt lat="29.149811" lon="99.944595">
<time>2015-08-06T07:07:16Z</time></trkpt>
<trkpt lat="29.149811" lon="99.944555">
<time>2015-08-06T07:07:17Z</time></trkpt>
<trkpt lat="29.149791" lon="99.944445">
<time>2015-08-06T07:07:18Z</time></trkpt>
<trkpt lat="29.149732" lon="99.944286">
<time>2015-08-06T07:07:19Z</time></trkpt>
<trkpt lat="29.149702" lon="99.944186">
<time>2015-08-06T07:07:20Z</time></trkpt>
<trkpt lat="29.149692" lon="99.944106">
<time>2015-08-06T07:07:21Z</time></trkpt>
<trkpt lat="29.149672" lon="99.943876">
<time>2015-08-06T07:07:22Z</time></trkpt>
<trkpt lat="29.149633" lon="99.943587">
<time>2015-08-06T07:07:23Z</time></trkpt>
<trkpt lat="29.149584" lon="99.943368">
<time>2015-08-06T07:07:24Z</time></trkpt>
<trkpt lat="29.149455" lon="99.942799">
<time>2015-08-06T07:07:25Z</time></trkpt>
<trkpt lat="29.149455" lon="99.942689">
<time>2015-08-06T07:07:26Z</time></trkpt>
<trkpt lat="29.149465" lon="99.942569">
<time>2015-08-06T07:07:27Z</time></trkpt>
<trkpt lat="29.149485" lon="99.942489">
<time>2015-08-06T07:07:28Z</time></trkpt>
<trkpt lat="29.149555" lon="99.94237">
<time>2015-08-06T07:07:29Z</time></trkpt>
<trkpt lat="29.149616" lon="99.94223">
<time>2015-08-06T07:07:30Z</time></trkpt>
<trkpt lat="29.149636" lon="99.94216">
<time>2015-08-06T07:07:31Z</time></trkpt>
<trkpt lat="29.149636" lon="99.94209">
<time>2015-08-06T07:07:32Z</time></trkpt>
<trkpt lat="29.149626" lon="99.94195">
<time>2015-08-06T07:07:33Z</time></trkpt>
<trkpt lat="29.149606" lon="99.941771">
<time>2015-08-06T07:07:34Z</time></trkpt>
<trkpt lat="29.149597" lon="99.941671">
<time>2015-08-06T07:07:35Z</time></trkpt>
<trkpt lat="29.149597" lon="99.941561">
<time>2015-08-06T07:07:36Z</time></trkpt>
<trkpt lat="29.149617" lon="99.941431">
<time>2015-08-06T07:07:37Z</time></trkpt>
<trkpt lat="29.149687" lon="99.941152">
<time>2015-08-06T07:07:38Z</time></trkpt>
<trkpt lat="29.149698" lon="99.941042">
<time>2015-08-06T07:07:39Z</time></trkpt>
<trkpt lat="29.149699" lon="99.940513">
<time>2015-08-06T07:07:40Z</time></trkpt>
<trkpt lat="29.149729" lon="99.940254">
<time>2015-08-06T07:07:41Z</time></trkpt>
<trkpt lat="29.149769" lon="99.940104">
<time>2015-08-06T07:07:42Z</time></trkpt>
<trkpt lat="29.149809" lon="99.940014">
<time>2015-08-06T07:07:43Z</time></trkpt>
<trkpt lat="29.149869" lon="99.939944">
<time>2015-08-06T07:07:44Z</time></trkpt>
<trkpt lat="29.149939" lon="99.939885">
<time>2015-08-06T07:07:45Z</time></trkpt>
<trkpt lat="29.15022" lon="99.939735">
<time>2015-08-06T07:07:46Z</time></trkpt>
<trkpt lat="29.15052" lon="99.939605">
<time>2015-08-06T07:07:47Z</time></trkpt>
<trkpt lat="29.150699" lon="99.939575">
<time>2015-08-06T07:07:48Z</time></trkpt>
<trkpt lat="29.150919" lon="99.939575">
<time>2015-08-06T07:07:49Z</time></trkpt>
<trkpt lat="29.151109" lon="99.939575">
<time>2015-08-06T07:07:50Z</time></trkpt>
<trkpt lat="29.151159" lon="99.939565">
<time>2015-08-06T07:07:51Z</time></trkpt>
<trkpt lat="29.151209" lon="99.939545">
<time>2015-08-06T07:07:52Z</time></trkpt>
<trkpt lat="29.151239" lon="99.939505">
<time>2015-08-06T07:07:53Z</time></trkpt>
<trkpt lat="29.151259" lon="99.939465">
<time>2015-08-06T07:07:54Z</time></trkpt>
<trkpt lat="29.151279" lon="99.939415">
<time>2015-08-06T07:07:55Z</time></trkpt>
<trkpt lat="29.151299" lon="99.939306">
<time>2015-08-06T07:07:56Z</time></trkpt>
<trkpt lat="29.15132" lon="99.938996">
<time>2015-08-06T07:07:57Z</time></trkpt>
<trkpt lat="29.15134" lon="99.938846">
<time>2015-08-06T07:07:58Z</time></trkpt>
<trkpt lat="29.151401" lon="99.938597">
<time>2015-08-06T07:07:59Z</time></trkpt>
<trkpt lat="29.151461" lon="99.938417">
<time>2015-08-06T07:08:00Z</time></trkpt>
<trkpt lat="29.151531" lon="99.938268">
<time>2015-08-06T07:08:01Z</time></trkpt>
<trkpt lat="29.151671" lon="99.938038">
<time>2015-08-06T07:08:02Z</time></trkpt>
<trkpt lat="29.151731" lon="99.937968">
<time>2015-08-06T07:08:03Z</time></trkpt>
<trkpt lat="29.151831" lon="99.937878">
<time>2015-08-06T07:08:04Z</time></trkpt>
<trkpt lat="29.151911" lon="99.937828">
<time>2015-08-06T07:08:05Z</time></trkpt>
<trkpt lat="29.152071" lon="99.937738">
<time>2015-08-06T07:08:06Z</time></trkpt>
<trkpt lat="29.152161" lon="99.937659">
<time>2015-08-06T07:08:07Z</time></trkpt>
<trkpt lat="29.152202" lon="99.937599">
<time>2015-08-06T07:08:08Z</time></trkpt>
<trkpt lat="29.152242" lon="99.937529">
<time>2015-08-06T07:08:09Z</time></trkpt>
<trkpt lat="29.152262" lon="99.937449">
<time>2015-08-06T07:08:10Z</time></trkpt>
<trkpt lat="29.152282" lon="99.93709">
<time>2015-08-06T07:08:11Z</time></trkpt>
<trkpt lat="29.152303" lon="99.93672">
<time>2015-08-06T07:08:12Z</time></trkpt>
<trkpt lat="29.152333" lon="99.936531">
<time>2015-08-06T07:08:13Z</time></trkpt>
<trkpt lat="29.152374" lon="99.936271">
<time>2015-08-06T07:08:14Z</time></trkpt>
<trkpt lat="29.152374" lon="99.936161">
<time>2015-08-06T07:08:15Z</time></trkpt>
<trkpt lat="29.152374" lon="99.935962">
<time>2015-08-06T07:08:16Z</time></trkpt>
<trkpt lat="29.152374" lon="99.935712">
<time>2015-08-06T07:08:17Z</time></trkpt>
<trkpt lat="29.152395" lon="99.935552">
<time>2015-08-06T07:08:18Z</time></trkpt>
<trkpt lat="29.152445" lon="99.935373">
<time>2015-08-06T07:08:19Z</time></trkpt>
<trkpt lat="29.152495" lon="99.935253">
<time>2015-08-06T07:08:20Z</time></trkpt>
<trkpt lat="29.152525" lon="99.935183">
<time>2015-08-06T07:08:21Z</time></trkpt>
<trkpt lat="29.152585" lon="99.935113">
<time>2015-08-06T07:08:22Z</time></trkpt>
<trkpt lat="29.152685" lon="99.935023">
<time>2015-08-06T07:08:23Z</time></trkpt>
<trkpt lat="29.152815" lon="99.934943">
<time>2015-08-06T07:08:24Z</time></trkpt>
<trkpt lat="29.153065" lon="99.934804">
<time>2015-08-06T07:08:25Z</time></trkpt>
<trkpt lat="29.153385" lon="99.934704">
<time>2015-08-06T07:08:26Z</time></trkpt>
<trkpt lat="29.153875" lon="99.934584">
<time>2015-08-06T07:08:27Z</time></trkpt>
<trkpt lat="29.154045" lon="99.934544">
<time>2015-08-06T07:08:28Z</time></trkpt>
<trkpt lat="29.154095" lon="99.934504">
<time>2015-08-06T07:08:29Z</time></trkpt>
<trkpt lat="29.154125" lon="99.934474">
<time>2015-08-06T07:08:30Z</time></trkpt>
<trkpt lat="29.154155" lon="99.934434">
<time>2015-08-06T07:08:31Z</time></trkpt>
<trkpt lat="29.154175" lon="99.934374">
<time>2015-08-06T07:08:32Z</time></trkpt>
<trkpt lat="29.154175" lon="99.934334">
<time>2015-08-06T07:08:33Z</time></trkpt>
<trkpt lat="29.154175" lon="99.934225">
<time>2015-08-06T07:08:34Z</time></trkpt>
<trkpt lat="29.154146" lon="99.933995">
<time>2015-08-06T07:08:35Z</time></trkpt>
<trkpt lat="29.154116" lon="99.933925">
<time>2015-08-06T07:08:36Z</time></trkpt>
<trkpt lat="29.154066" lon="99.933835">
<time>2015-08-06T07:08:37Z</time></trkpt>
<trkpt lat="29.154016" lon="99.933805">
<time>2015-08-06T07:08:38Z</time></trkpt>
<trkpt lat="29.153956" lon="99.933765">
<time>2015-08-06T07:08:39Z</time></trkpt>
<trkpt lat="29.153886" lon="99.933745">
<time>2015-08-06T07:08:40Z</time></trkpt>
<trkpt lat="29.153826" lon="99.933735">
<time>2015-08-06T07:08:41Z</time></trkpt>
<trkpt lat="29.153736" lon="99.933735">
<time>2015-08-06T07:08:42Z</time></trkpt>
<trkpt lat="29.153526" lon="99.933765">
<time>2015-08-06T07:08:43Z</time></trkpt>
<trkpt lat="29.152967" lon="99.933835">
<time>2015-08-06T07:08:44Z</time></trkpt>
<trkpt lat="29.151957" lon="99.933985">
<time>2015-08-06T07:08:45Z</time></trkpt>
<trkpt lat="29.151877" lon="99.934015">
<time>2015-08-06T07:08:46Z</time></trkpt>
<trkpt lat="29.151637" lon="99.934105">
<time>2015-08-06T07:08:47Z</time></trkpt>
<trkpt lat="29.151397" lon="99.934235">
<time>2015-08-06T07:08:48Z</time></trkpt>
<trkpt lat="29.150898" lon="99.934414">
<time>2015-08-06T07:08:49Z</time></trkpt>
<trkpt lat="29.150578" lon="99.934484">
<time>2015-08-06T07:08:50Z</time></trkpt>
<trkpt lat="29.150478" lon="99.934504">
<time>2015-08-06T07:08:51Z</time></trkpt>
<trkpt lat="29.150398" lon="99.934504">
<time>2015-08-06T07:08:52Z</time></trkpt>
<trkpt lat="29.150268" lon="99.934474">
<time>2015-08-06T07:08:53Z</time></trkpt>
<trkpt lat="29.150128" lon="99.934414">
<time>2015-08-06T07:08:54Z</time></trkpt>
<trkpt lat="29.150028" lon="99.934364">
<time>2015-08-06T07:08:55Z</time></trkpt>
<trkpt lat="29.149659" lon="99.934135">
<time>2015-08-06T07:08:56Z</time></trkpt>
<trkpt lat="29.149459" lon="99.934015">
<time>2015-08-06T07:08:57Z</time></trkpt>
<trkpt lat="29.14928" lon="99.933885">
<time>2015-08-06T07:08:58Z</time></trkpt>
<trkpt lat="29.14896" lon="99.933626">
<time>2015-08-06T07:08:59Z</time></trkpt>
<trkpt lat="29.148691" lon="99.933406">
<time>2015-08-06T07:09:00Z</time></trkpt>
<trkpt lat="29.148451" lon="99.933166">
<time>2015-08-06T07:09:01Z</time></trkpt>
<trkpt lat="29.148371" lon="99.933077">
<time>2015-08-06T07:09:02Z</time></trkpt>
<trkpt lat="29.148302" lon="99.933017">
<time>2015-08-06T07:09:03Z</time></trkpt>
<trkpt lat="29.148252" lon="99.932987">
<time>2015-08-06T07:09:04Z</time></trkpt>
<trkpt lat="29.148212" lon="99.932977">
<time>2015-08-06T07:09:05Z</time></trkpt>
<trkpt lat="29.148082" lon="99.932957">
<time>2015-08-06T07:09:06Z</time></trkpt>
<trkpt lat="29.147932" lon="99.932947">
<time>2015-08-06T07:09:07Z</time></trkpt>
<trkpt lat="29.147822" lon="99.932967">
<time>2015-08-06T07:09:08Z</time></trkpt>
<trkpt lat="29.147712" lon="99.933027">
<time>2015-08-06T07:09:09Z</time></trkpt>
<trkpt lat="29.147642" lon="99.933077">
<time>2015-08-06T07:09:10Z</time></trkpt>
<trkpt lat="29.147552" lon="99.933176">
<time>2015-08-06T07:09:11Z</time></trkpt>
<trkpt lat="29.147462" lon="99.933276">
<time>2015-08-06T07:09:12Z</time></trkpt>
<trkpt lat="29.147352" lon="99.933366">
<time>2015-08-06T07:09:13Z</time></trkpt>
<trkpt lat="29.147282" lon="99.933416">
<time>2015-08-06T07:09:14Z</time></trkpt>
<trkpt lat="29.147172" lon="99.933446">
<time>2015-08-06T07:09:15Z</time></trkpt>
<trkpt lat="29.146992" lon="99.933446">
<time>2015-08-06T07:09:16Z</time></trkpt>
<trkpt lat="29.146802" lon="99.933436">
<time>2015-08-06T07:09:17Z</time></trkpt>
<trkpt lat="29.146732" lon="99.933446">
<time>2015-08-06T07:09:18Z</time></trkpt>
<trkpt lat="29.146392" lon="99.933496">
<time>2015-08-06T07:09:19Z</time></trkpt>
<trkpt lat="29.146252" lon="99.933496">
<time>2015-08-06T07:09:20Z</time></trkpt>
<trkpt lat="29.146203" lon="99.933476">
<time>2015-08-06T07:09:21Z</time></trkpt>
<trkpt lat="29.146143" lon="99.933446">
<time>2015-08-06T07:09:22Z</time></trkpt>
<trkpt lat="29.146103" lon="99.933406">
<time>2015-08-06T07:09:23Z</time></trkpt>
<trkpt lat="29.146073" lon="99.933336">
<time>2015-08-06T07:09:24Z</time></trkpt>
<trkpt lat="29.146043" lon="99.933236">
<time>2015-08-06T07:09:25Z</time></trkpt>
<trkpt lat="29.146003" lon="99.933097">
<time>2015-08-06T07:09:26Z</time></trkpt>
<trkpt lat="29.145973" lon="99.933007">
<time>2015-08-06T07:09:27Z</time></trkpt>
<trkpt lat="29.145924" lon="99.932917">
<time>2015-08-06T07:09:28Z</time></trkpt>
<trkpt lat="29.145864" lon="99.932837">
<time>2015-08-06T07:09:29Z</time></trkpt>
<trkpt lat="29.145674" lon="99.932587">
<time>2015-08-06T07:09:30Z</time></trkpt>
<trkpt lat="29.145485" lon="99.932378">
<time>2015-08-06T07:09:31Z</time></trkpt>
<trkpt lat="29.145445" lon="99.932338">
<time>2015-08-06T07:09:32Z</time></trkpt>
<trkpt lat="29.145395" lon="99.932308">
<time>2015-08-06T07:09:33Z</time></trkpt>
<trkpt lat="29.145345" lon="99.932288">
<time>2015-08-06T07:09:34Z</time></trkpt>
<trkpt lat="29.145285" lon="99.932268">
<time>2015-08-06T07:09:35Z</time></trkpt>
<trkpt lat="29.145185" lon="99.932258">
<time>2015-08-06T07:09:36Z</time></trkpt>
<trkpt lat="29.144935" lon="99.932268">
<time>2015-08-06T07:09:37Z</time></trkpt>
<trkpt lat="29.144835" lon="99.932258">
<time>2015-08-06T07:09:38Z</time></trkpt>
<trkpt lat="29.144725" lon="99.932248">
<time>2015-08-06T07:09:39Z</time></trkpt>
<trkpt lat="29.144665" lon="99.932218">
<time>2015-08-06T07:09:40Z</time></trkpt>
<trkpt lat="29.144556" lon="99.932148">
<time>2015-08-06T07:09:41Z</time></trkpt>
<trkpt lat="29.144286" lon="99.931919">
<time>2015-08-06T07:09:42Z</time></trkpt>
<trkpt lat="29.144146" lon="99.931799">
<time>2015-08-06T07:09:43Z</time></trkpt>
<trkpt lat="29.143997" lon="99.931679">
<time>2015-08-06T07:09:44Z</time></trkpt>
<trkpt lat="29.143927" lon="99.931619">
<time>2015-08-06T07:09:45Z</time></trkpt>
<trkpt lat="29.143877" lon="99.931569">
<time>2015-08-06T07:09:46Z</time></trkpt>
<trkpt lat="29.143817" lon="99.931469">
<time>2015-08-06T07:09:47Z</time></trkpt>
<trkpt lat="29.143787" lon="99.931359">
<time>2015-08-06T07:09:48Z</time></trkpt>
<trkpt lat="29.143738" lon="99.93112">
<time>2015-08-06T07:09:49Z</time></trkpt>
<trkpt lat="29.143708" lon="99.93092">
<time>2015-08-06T07:09:50Z</time></trkpt>
<trkpt lat="29.143699" lon="99.930501">
<time>2015-08-06T07:09:51Z</time></trkpt>
<trkpt lat="29.143709" lon="99.930301">
<time>2015-08-06T07:09:52Z</time></trkpt>
<trkpt lat="29.143689" lon="99.930161">
<time>2015-08-06T07:09:53Z</time></trkpt>
<trkpt lat="29.143669" lon="99.930071">
<time>2015-08-06T07:09:54Z</time></trkpt>
<trkpt lat="29.143629" lon="99.930001">
<time>2015-08-06T07:09:55Z</time></trkpt>
<trkpt lat="29.143579" lon="99.929922">
<time>2015-08-06T07:09:56Z</time></trkpt>
<trkpt lat="29.14353" lon="99.929882">
<time>2015-08-06T07:09:57Z</time></trkpt>
<trkpt lat="29.14347" lon="99.929842">
<time>2015-08-06T07:09:58Z</time></trkpt>
<trkpt lat="29.14341" lon="99.929822">
<time>2015-08-06T07:09:59Z</time></trkpt>
<trkpt lat="29.1433" lon="99.929842">
<time>2015-08-06T07:10:00Z</time></trkpt>
<trkpt lat="29.14324" lon="99.929862">
<time>2015-08-06T07:10:01Z</time></trkpt>
<trkpt lat="29.14312" lon="99.929932">
<time>2015-08-06T07:10:02Z</time></trkpt>
<trkpt lat="29.14292" lon="99.930041">
<time>2015-08-06T07:10:03Z</time></trkpt>
<trkpt lat="29.14285" lon="99.930081">
<time>2015-08-06T07:10:04Z</time></trkpt>
<trkpt lat="29.14279" lon="99.930101">
<time>2015-08-06T07:10:05Z</time></trkpt>
<trkpt lat="29.14275" lon="99.930111">
<time>2015-08-06T07:10:06Z</time></trkpt>
<trkpt lat="29.14271" lon="99.930101">
<time>2015-08-06T07:10:07Z</time></trkpt>
<trkpt lat="29.14267" lon="99.930081">
<time>2015-08-06T07:10:08Z</time></trkpt>
<trkpt lat="29.14263" lon="99.930041">
<time>2015-08-06T07:10:09Z</time></trkpt>
<trkpt lat="29.14262" lon="99.929981">
<time>2015-08-06T07:10:10Z</time></trkpt>
<trkpt lat="29.14263" lon="99.929922">
<time>2015-08-06T07:10:11Z</time></trkpt>
<trkpt lat="29.14266" lon="99.929882">
<time>2015-08-06T07:10:12Z</time></trkpt>
<trkpt lat="29.1427" lon="99.929852">
<time>2015-08-06T07:10:13Z</time></trkpt>
<trkpt lat="29.14278" lon="99.929832">
<time>2015-08-06T07:10:14Z</time></trkpt>
<trkpt lat="29.14293" lon="99.929802">
<time>2015-08-06T07:10:15Z</time></trkpt>
<trkpt lat="29.14299" lon="99.929772">
<time>2015-08-06T07:10:16Z</time></trkpt>
<trkpt lat="29.14309" lon="99.929712">
<time>2015-08-06T07:10:17Z</time></trkpt>
<trkpt lat="29.14323" lon="99.929582">
<time>2015-08-06T07:10:18Z</time></trkpt>
<trkpt lat="29.14335" lon="99.929492">
<time>2015-08-06T07:10:19Z</time></trkpt>
<trkpt lat="29.14342" lon="99.929462">
<time>2015-08-06T07:10:20Z</time></trkpt>
<trkpt lat="29.14348" lon="99.929462">
<time>2015-08-06T07:10:21Z</time></trkpt>
<trkpt lat="29.14353" lon="99.929482">
<time>2015-08-06T07:10:22Z</time></trkpt>
<trkpt lat="29.14364" lon="99.929562">
<time>2015-08-06T07:10:23Z</time></trkpt>
<trkpt lat="29.143849" lon="99.929782">
<time>2015-08-06T07:10:24Z</time></trkpt>
<trkpt lat="29.143939" lon="99.929882">
<time>2015-08-06T07:10:25Z</time></trkpt>
<trkpt lat="29.143999" lon="99.929971">
<time>2015-08-06T07:10:26Z</time></trkpt>
<trkpt lat="29.144069" lon="99.930121">
<time>2015-08-06T07:10:27Z</time></trkpt>
<trkpt lat="29.144119" lon="99.930251">
<time>2015-08-06T07:10:28Z</time></trkpt>
<trkpt lat="29.144158" lon="99.930341">
<time>2015-08-06T07:10:29Z</time></trkpt>
<trkpt lat="29.144218" lon="99.930421">
<time>2015-08-06T07:10:30Z</time></trkpt>
<trkpt lat="29.144308" lon="99.930501">
<time>2015-08-06T07:10:31Z</time></trkpt>
<trkpt lat="29.144418" lon="99.930571">
<time>2015-08-06T07:10:32Z</time></trkpt>
<trkpt lat="29.144847" lon="99.93075">
<time>2015-08-06T07:10:33Z</time></trkpt>
<trkpt lat="29.145596" lon="99.931">
<time>2015-08-06T07:10:34Z</time></trkpt>
<trkpt lat="29.145696" lon="99.93105">
<time>2015-08-06T07:10:35Z</time></trkpt>
<trkpt lat="29.145756" lon="99.9311">
<time>2015-08-06T07:10:36Z</time></trkpt>
<trkpt lat="29.145836" lon="99.93118">
<time>2015-08-06T07:10:37Z</time></trkpt>
<trkpt lat="29.145976" lon="99.931329">
<time>2015-08-06T07:10:38Z</time></trkpt>
<trkpt lat="29.146115" lon="99.931489">
<time>2015-08-06T07:10:39Z</time></trkpt>
<trkpt lat="29.146215" lon="99.931569">
<time>2015-08-06T07:10:40Z</time></trkpt>
<trkpt lat="29.146315" lon="99.931619">
<time>2015-08-06T07:10:41Z</time></trkpt>
<trkpt lat="29.146455" lon="99.931659">
<time>2015-08-06T07:10:42Z</time></trkpt>
<trkpt lat="29.146595" lon="99.931679">
<time>2015-08-06T07:10:43Z</time></trkpt>
<trkpt lat="29.146675" lon="99.931669">
<time>2015-08-06T07:10:44Z</time></trkpt>
<trkpt lat="29.146745" lon="99.931639">
<time>2015-08-06T07:10:45Z</time></trkpt>
<trkpt lat="29.146805" lon="99.931609">
<time>2015-08-06T07:10:46Z</time></trkpt>
<trkpt lat="29.146875" lon="99.931539">
<time>2015-08-06T07:10:47Z</time></trkpt>
<trkpt lat="29.146925" lon="99.931489">
<time>2015-08-06T07:10:48Z</time></trkpt>
<trkpt lat="29.146975" lon="99.931369">
<time>2015-08-06T07:10:49Z</time></trkpt>
<trkpt lat="29.147025" lon="99.931259">
<time>2015-08-06T07:10:50Z</time></trkpt>
<trkpt lat="29.147085" lon="99.9311">
<time>2015-08-06T07:10:51Z</time></trkpt>
<trkpt lat="29.147145" lon="99.93097">
<time>2015-08-06T07:10:52Z</time></trkpt>
<trkpt lat="29.147225" lon="99.93086">
<time>2015-08-06T07:10:53Z</time></trkpt>
<trkpt lat="29.147376" lon="99.93069">
<time>2015-08-06T07:10:54Z</time></trkpt>
<trkpt lat="29.147546" lon="99.930521">
<time>2015-08-06T07:10:55Z</time></trkpt>
<trkpt lat="29.147686" lon="99.930391">
<time>2015-08-06T07:10:56Z</time></trkpt>
<trkpt lat="29.147796" lon="99.930331">
<time>2015-08-06T07:10:57Z</time></trkpt>
<trkpt lat="29.147856" lon="99.930321">
<time>2015-08-06T07:10:58Z</time></trkpt>
<trkpt lat="29.147926" lon="99.930301">
<time>2015-08-06T07:10:59Z</time></trkpt>
<trkpt lat="29.148026" lon="99.930311">
<time>2015-08-06T07:11:00Z</time></trkpt>
<trkpt lat="29.148135" lon="99.930361">
<time>2015-08-06T07:11:01Z</time></trkpt>
<trkpt lat="29.148255" lon="99.930421">
<time>2015-08-06T07:11:02Z</time></trkpt>
<trkpt lat="29.148465" lon="99.93055">
<time>2015-08-06T07:11:03Z</time></trkpt>
<trkpt lat="29.148585" lon="99.93059">
<time>2015-08-06T07:11:04Z</time></trkpt>
<trkpt lat="29.148665" lon="99.9306">
<time>2015-08-06T07:11:05Z</time></trkpt>
<trkpt lat="29.148884" lon="99.9306">
<time>2015-08-06T07:11:06Z</time></trkpt>
<trkpt lat="29.148914" lon="99.93061">
<time>2015-08-06T07:11:07Z</time></trkpt>
<trkpt lat="29.148994" lon="99.93064">
<time>2015-08-06T07:11:08Z</time></trkpt>
<trkpt lat="29.149324" lon="99.93081">
<time>2015-08-06T07:11:09Z</time></trkpt>
<trkpt lat="29.149434" lon="99.93086">
<time>2015-08-06T07:11:10Z</time></trkpt>
<trkpt lat="29.149554" lon="99.9309">
<time>2015-08-06T07:11:11Z</time></trkpt>
<trkpt lat="29.149663" lon="99.93092">
<time>2015-08-06T07:11:12Z</time></trkpt>
<trkpt lat="29.149743" lon="99.93093">
<time>2015-08-06T07:11:13Z</time></trkpt>
<trkpt lat="29.149813" lon="99.93092">
<time>2015-08-06T07:11:14Z</time></trkpt>
<trkpt lat="29.149903" lon="99.93091">
<time>2015-08-06T07:11:15Z</time></trkpt>
<trkpt lat="29.150143" lon="99.93083">
<time>2015-08-06T07:11:16Z</time></trkpt>
<trkpt lat="29.150773" lon="99.93057">
<time>2015-08-06T07:11:17Z</time></trkpt>
<trkpt lat="29.150883" lon="99.93054">
<time>2015-08-06T07:11:18Z</time></trkpt>
<trkpt lat="29.151033" lon="99.93052">
<time>2015-08-06T07:11:19Z</time></trkpt>
<trkpt lat="29.151153" lon="99.93051">
<time>2015-08-06T07:11:20Z</time></trkpt>
<trkpt lat="29.151263" lon="99.93053">
<time>2015-08-06T07:11:21Z</time></trkpt>
<trkpt lat="29.151333" lon="99.93055">
<time>2015-08-06T07:11:22Z</time></trkpt>
<trkpt lat="29.151423" lon="99.93059">
<time>2015-08-06T07:11:23Z</time></trkpt>
<trkpt lat="29.151512" lon="99.93063">
<time>2015-08-06T07:11:24Z</time></trkpt>
<trkpt lat="29.151582" lon="99.93068">
<time>2015-08-06T07:11:25Z</time></trkpt>
<trkpt lat="29.151652" lon="99.93074">
<time>2015-08-06T07:11:26Z</time></trkpt>
<trkpt lat="29.151702" lon="99.9308">
<time>2015-08-06T07:11:27Z</time></trkpt>
<trkpt lat="29.151772" lon="99.93091">
<time>2015-08-06T07:11:28Z</time></trkpt>
<trkpt lat="29.151802" lon="99.93099">
<time>2015-08-06T07:11:29Z</time></trkpt>
<trkpt lat="29.151851" lon="99.931189">
<time>2015-08-06T07:11:30Z</time></trkpt>
<trkpt lat="29.151891" lon="99.931299">
<time>2015-08-06T07:11:31Z</time></trkpt>
<trkpt lat="29.151931" lon="99.931359">
<time>2015-08-06T07:11:32Z</time></trkpt>
<trkpt lat="29.152001" lon="99.931419">
<time>2015-08-06T07:11:33Z</time></trkpt>
<trkpt lat="29.152081" lon="99.931449">
<time>2015-08-06T07:11:34Z</time></trkpt>
<trkpt lat="29.152151" lon="99.931459">
<time>2015-08-06T07:11:35Z</time></trkpt>
<trkpt lat="29.152211" lon="99.931449">
<time>2015-08-06T07:11:36Z</time></trkpt>
<trkpt lat="29.152291" lon="99.931429">
<time>2015-08-06T07:11:37Z</time></trkpt>
<trkpt lat="29.152391" lon="99.931389">
<time>2015-08-06T07:11:38Z</time></trkpt>
<trkpt lat="29.152471" lon="99.931349">
<time>2015-08-06T07:11:39Z</time></trkpt>
<trkpt lat="29.152591" lon="99.931289">
<time>2015-08-06T07:11:40Z</time></trkpt>
<trkpt lat="29.152781" lon="99.931159">
<time>2015-08-06T07:11:41Z</time></trkpt>
<trkpt lat="29.152981" lon="99.93107">
<time>2015-08-06T07:11:42Z</time></trkpt>
<trkpt lat="29.153101" lon="99.93103">
<time>2015-08-06T07:11:43Z</time></trkpt>
<trkpt lat="29.153271" lon="99.93098">
<time>2015-08-06T07:11:44Z</time></trkpt>
<trkpt lat="29.153431" lon="99.9309">
<time>2015-08-06T07:11:45Z</time></trkpt>
<trkpt lat="29.153551" lon="99.93082">
<time>2015-08-06T07:11:46Z</time></trkpt>
<trkpt lat="29.153811" lon="99.93058">
<time>2015-08-06T07:11:47Z</time></trkpt>
<trkpt lat="29.153941" lon="99.930431">
<time>2015-08-06T07:11:48Z</time></trkpt>
<trkpt lat="29.154031" lon="99.930341">
<time>2015-08-06T07:11:49Z</time></trkpt>
<trkpt lat="29.154301" lon="99.930171">
<time>2015-08-06T07:11:50Z</time></trkpt>
<trkpt lat="29.154591" lon="99.929931">
<time>2015-08-06T07:11:51Z</time></trkpt>
<trkpt lat="29.154761" lon="99.929801">
<time>2015-08-06T07:11:52Z</time></trkpt>
<trkpt lat="29.155001" lon="99.929672">
<time>2015-08-06T07:11:53Z</time></trkpt>
<trkpt lat="29.155091" lon="99.929622">
<time>2015-08-06T07:11:54Z</time></trkpt>
<trkpt lat="29.155171" lon="99.929552">
<time>2015-08-06T07:11:55Z</time></trkpt>
<trkpt lat="29.155251" lon="99.929462">
<time>2015-08-06T07:11:56Z</time></trkpt>
<trkpt lat="29.155361" lon="99.929332">
<time>2015-08-06T07:11:57Z</time></trkpt>
<trkpt lat="29.155471" lon="99.929222">
<time>2015-08-06T07:11:58Z</time></trkpt>
<trkpt lat="29.155591" lon="99.929112">
<time>2015-08-06T07:11:59Z</time></trkpt>
<trkpt lat="29.155671" lon="99.929032">
<time>2015-08-06T07:12:00Z</time></trkpt>
<trkpt lat="29.155711" lon="99.928973">
<time>2015-08-06T07:12:01Z</time></trkpt>
<trkpt lat="29.155731" lon="99.928913">
<time>2015-08-06T07:12:02Z</time></trkpt>
<trkpt lat="29.155731" lon="99.928883">
<time>2015-08-06T07:12:03Z</time></trkpt>
<trkpt lat="29.155722" lon="99.928843">
<time>2015-08-06T07:12:04Z</time></trkpt>
<trkpt lat="29.155692" lon="99.928813">
<time>2015-08-06T07:12:05Z</time></trkpt>
<trkpt lat="29.155672" lon="99.928793">
<time>2015-08-06T07:12:06Z</time></trkpt>
<trkpt lat="29.155622" lon="99.928783">
<time>2015-08-06T07:12:07Z</time></trkpt>
<trkpt lat="29.155582" lon="99.928793">
<time>2015-08-06T07:12:08Z</time></trkpt>
<trkpt lat="29.155512" lon="99.928823">
<time>2015-08-06T07:12:09Z</time></trkpt>
<trkpt lat="29.155422" lon="99.928923">
<time>2015-08-06T07:12:10Z</time></trkpt>
<trkpt lat="29.155232" lon="99.929142">
<time>2015-08-06T07:12:11Z</time></trkpt>
<trkpt lat="29.155161" lon="99.929212">
<time>2015-08-06T07:12:12Z</time></trkpt>
<trkpt lat="29.155091" lon="99.929272">
<time>2015-08-06T07:12:13Z</time></trkpt>
<trkpt lat="29.154991" lon="99.929322">
<time>2015-08-06T07:12:14Z</time></trkpt>
<trkpt lat="29.154672" lon="99.929432">
<time>2015-08-06T07:12:15Z</time></trkpt>
<trkpt lat="29.154582" lon="99.929482">
<time>2015-08-06T07:12:16Z</time></trkpt>
<trkpt lat="29.154442" lon="99.929582">
<time>2015-08-06T07:12:17Z</time></trkpt>
<trkpt lat="29.154332" lon="99.929682">
<time>2015-08-06T07:12:18Z</time></trkpt>
<trkpt lat="29.154161" lon="99.929801">
<time>2015-08-06T07:12:19Z</time></trkpt>
<trkpt lat="29.154031" lon="99.929871">
<time>2015-08-06T07:12:20Z</time></trkpt>
<trkpt lat="29.153852" lon="99.929941">
<time>2015-08-06T07:12:21Z</time></trkpt>
<trkpt lat="29.153582" lon="99.930061">
<time>2015-08-06T07:12:22Z</time></trkpt>
<trkpt lat="29.153382" lon="99.930171">
<time>2015-08-06T07:12:23Z</time></trkpt>
<trkpt lat="29.153272" lon="99.930231">
<time>2015-08-06T07:12:24Z</time></trkpt>
<trkpt lat="29.153192" lon="99.930271">
<time>2015-08-06T07:12:25Z</time></trkpt>
<trkpt lat="29.153102" lon="99.930291">
<time>2015-08-06T07:12:26Z</time></trkpt>
<trkpt lat="29.152872" lon="99.930291">
<time>2015-08-06T07:12:27Z</time></trkpt>
<trkpt lat="29.152722" lon="99.930271">
<time>2015-08-06T07:12:28Z</time></trkpt>
<trkpt lat="29.152562" lon="99.930241">
<time>2015-08-06T07:12:29Z</time></trkpt>
<trkpt lat="29.152502" lon="99.930211">
<time>2015-08-06T07:12:30Z</time></trkpt>
<trkpt lat="29.152462" lon="99.930191">
<time>2015-08-06T07:12:31Z</time></trkpt>
<trkpt lat="29.152432" lon="99.930161">
<time>2015-08-06T07:12:32Z</time></trkpt>
<trkpt lat="29.152392" lon="99.930121">
<time>2015-08-06T07:12:33Z</time></trkpt>
<trkpt lat="29.152383" lon="99.930061">
<time>2015-08-06T07:12:34Z</time></trkpt>
<trkpt lat="29.152363" lon="99.930001">
<time>2015-08-06T07:12:35Z</time></trkpt>
<trkpt lat="29.152363" lon="99.929831">
<time>2015-08-06T07:12:36Z</time></trkpt>
<trkpt lat="29.152393" lon="99.929582">
<time>2015-08-06T07:12:37Z</time></trkpt>
<trkpt lat="29.152393" lon="99.929462">
<time>2015-08-06T07:12:38Z</time></trkpt>
<trkpt lat="29.152383" lon="99.929392">
<time>2015-08-06T07:12:39Z</time></trkpt>
<trkpt lat="29.152354" lon="99.929292">
<time>2015-08-06T07:12:40Z</time></trkpt>
<trkpt lat="29.152314" lon="99.929212">
<time>2015-08-06T07:12:41Z</time></trkpt>
<trkpt lat="29.152234" lon="99.929112">
<time>2015-08-06T07:12:42Z</time></trkpt>
<trkpt lat="29.152194" lon="99.929073">
<time>2015-08-06T07:12:43Z</time></trkpt>
<trkpt lat="29.152124" lon="99.929033">
<time>2015-08-06T07:12:44Z</time></trkpt>
<trkpt lat="29.152044" lon="99.929003">
<time>2015-08-06T07:12:45Z</time></trkpt>
<trkpt lat="29.151944" lon="99.928993">
<time>2015-08-06T07:12:46Z</time></trkpt>
<trkpt lat="29.151854" lon="99.929003">
<time>2015-08-06T07:12:47Z</time></trkpt>
<trkpt lat="29.151614" lon="99.929073">
<time>2015-08-06T07:12:48Z</time></trkpt>
<trkpt lat="29.151254" lon="99.929222">
<time>2015-08-06T07:12:49Z</time></trkpt>
<trkpt lat="29.151144" lon="99.929252">
<time>2015-08-06T07:12:50Z</time></trkpt>
<trkpt lat="29.150965" lon="99.929282">
<time>2015-08-06T07:12:51Z</time></trkpt>
<trkpt lat="29.150395" lon="99.929312">
<time>2015-08-06T07:12:52Z</time></trkpt>
<trkpt lat="29.150165" lon="99.929302">
<time>2015-08-06T07:12:53Z</time></trkpt>
<trkpt lat="29.150085" lon="99.929292">
<time>2015-08-06T07:12:54Z</time></trkpt>
<trkpt lat="29.150005" lon="99.929262">
<time>2015-08-06T07:12:55Z</time></trkpt>
<trkpt lat="29.149945" lon="99.929242">
<time>2015-08-06T07:12:56Z</time></trkpt>
<trkpt lat="29.149896" lon="99.929202">
<time>2015-08-06T07:12:57Z</time></trkpt>
<trkpt lat="29.149846" lon="99.929152">
<time>2015-08-06T07:12:58Z</time></trkpt>
<trkpt lat="29.149367" lon="99.928433">
<time>2015-08-06T07:12:59Z</time></trkpt>
<trkpt lat="29.149217" lon="99.928124">
<time>2015-08-06T07:13:00Z</time></trkpt>
<trkpt lat="29.149178" lon="99.928014">
<time>2015-08-06T07:13:01Z</time></trkpt>
<trkpt lat="29.149098" lon="99.927685">
<time>2015-08-06T07:13:02Z</time></trkpt>
<trkpt lat="29.149078" lon="99.927515">
<time>2015-08-06T07:13:03Z</time></trkpt>
<trkpt lat="29.149058" lon="99.927335">
<time>2015-08-06T07:13:04Z</time></trkpt>
<trkpt lat="29.149009" lon="99.927125">
<time>2015-08-06T07:13:05Z</time></trkpt>
<trkpt lat="29.148969" lon="99.927005">
<time>2015-08-06T07:13:06Z</time></trkpt>
<trkpt lat="29.148879" lon="99.926826">
<time>2015-08-06T07:13:07Z</time></trkpt>
<trkpt lat="29.14876" lon="99.926626">
<time>2015-08-06T07:13:08Z</time></trkpt>
<trkpt lat="29.1487" lon="99.926546">
<time>2015-08-06T07:13:09Z</time></trkpt>
<trkpt lat="29.14864" lon="99.926476">
<time>2015-08-06T07:13:10Z</time></trkpt>
<trkpt lat="29.14856" lon="99.926426">
<time>2015-08-06T07:13:11Z</time></trkpt>
<trkpt lat="29.14849" lon="99.926406">
<time>2015-08-06T07:13:12Z</time></trkpt>
<trkpt lat="29.14842" lon="99.926396">
<time>2015-08-06T07:13:13Z</time></trkpt>
<trkpt lat="29.14831" lon="99.926396">
<time>2015-08-06T07:13:14Z</time></trkpt>
<trkpt lat="29.14814" lon="99.926436">
<time>2015-08-06T07:13:15Z</time></trkpt>
<trkpt lat="29.14808" lon="99.926436">
<time>2015-08-06T07:13:16Z</time></trkpt>
<trkpt lat="29.14802" lon="99.926426">
<time>2015-08-06T07:13:17Z</time></trkpt>
<trkpt lat="29.14796" lon="99.926396">
<time>2015-08-06T07:13:18Z</time></trkpt>
<trkpt lat="29.14791" lon="99.926356">
<time>2015-08-06T07:13:19Z</time></trkpt>
<trkpt lat="29.147861" lon="99.926296">
<time>2015-08-06T07:13:20Z</time></trkpt>
<trkpt lat="29.147831" lon="99.926236">
<time>2015-08-06T07:13:21Z</time></trkpt>
<trkpt lat="29.147821" lon="99.926177">
<time>2015-08-06T07:13:22Z</time></trkpt>
<trkpt lat="29.147811" lon="99.926117">
<time>2015-08-06T07:13:23Z</time></trkpt>
<trkpt lat="29.147831" lon="99.926007">
<time>2015-08-06T07:13:24Z</time></trkpt>
<trkpt lat="29.147891" lon="99.925737">
<time>2015-08-06T07:13:25Z</time></trkpt>
<trkpt lat="29.147921" lon="99.925517">
<time>2015-08-06T07:13:26Z</time></trkpt>
<trkpt lat="29.147912" lon="99.925427">
<time>2015-08-06T07:13:27Z</time></trkpt>
<trkpt lat="29.147892" lon="99.925308">
<time>2015-08-06T07:13:28Z</time></trkpt>
<trkpt lat="29.147862" lon="99.925178">
<time>2015-08-06T07:13:29Z</time></trkpt>
<trkpt lat="29.147822" lon="99.925058">
<time>2015-08-06T07:13:30Z</time></trkpt>
<trkpt lat="29.147742" lon="99.924938">
<time>2015-08-06T07:13:31Z</time></trkpt>
<trkpt lat="29.147692" lon="99.924868">
<time>2015-08-06T07:13:32Z</time></trkpt>
<trkpt lat="29.147632" lon="99.924828">
<time>2015-08-06T07:13:33Z</time></trkpt>
<trkpt lat="29.147562" lon="99.924778">
<time>2015-08-06T07:13:34Z</time></trkpt>
<trkpt lat="29.147433" lon="99.924728">
<time>2015-08-06T07:13:35Z</time></trkpt>
<trkpt lat="29.147343" lon="99.924708">
<time>2015-08-06T07:13:36Z</time></trkpt>
<trkpt lat="29.147183" lon="99.924678">
<time>2015-08-06T07:13:37Z</time></trkpt>
<trkpt lat="29.146943" lon="99.924658">
<time>2015-08-06T07:13:38Z</time></trkpt>
<trkpt lat="29.146733" lon="99.924668">
<time>2015-08-06T07:13:39Z</time></trkpt>
<trkpt lat="29.146633" lon="99.924678">
<time>2015-08-06T07:13:40Z</time></trkpt>
<trkpt lat="29.146483" lon="99.924718">
<time>2015-08-06T07:13:41Z</time></trkpt>
<trkpt lat="29.146323" lon="99.924778">
<time>2015-08-06T07:13:42Z</time></trkpt>
<trkpt lat="29.146173" lon="99.924868">
<time>2015-08-06T07:13:43Z</time></trkpt>
<trkpt lat="29.146063" lon="99.924968">
<time>2015-08-06T07:13:44Z</time></trkpt>
<trkpt lat="29.145953" lon="99.925088">
<time>2015-08-06T07:13:45Z</time></trkpt>
<trkpt lat="29.145733" lon="99.925298">
<time>2015-08-06T07:13:46Z</time></trkpt>
<trkpt lat="29.145543" lon="99.925437">
<time>2015-08-06T07:13:47Z</time></trkpt>
<trkpt lat="29.145403" lon="99.925517">
<time>2015-08-06T07:13:48Z</time></trkpt>
<trkpt lat="29.145313" lon="99.925527">
<time>2015-08-06T07:13:49Z</time></trkpt>
<trkpt lat="29.145213" lon="99.925527">
<time>2015-08-06T07:13:50Z</time></trkpt>
<trkpt lat="29.145014" lon="99.925527">
<time>2015-08-06T07:13:51Z</time></trkpt>
<trkpt lat="29.144944" lon="99.925527">
<time>2015-08-06T07:13:52Z</time></trkpt>
<trkpt lat="29.144774" lon="99.925557">
<time>2015-08-06T07:13:53Z</time></trkpt>
<trkpt lat="29.144694" lon="99.925567">
<time>2015-08-06T07:13:54Z</time></trkpt>
<trkpt lat="29.144554" lon="99.925527">
<time>2015-08-06T07:13:55Z</time></trkpt>
<trkpt lat="29.144474" lon="99.925497">
<time>2015-08-06T07:13:56Z</time></trkpt>
<trkpt lat="29.144404" lon="99.925467">
<time>2015-08-06T07:13:57Z</time></trkpt>
<trkpt lat="29.144344" lon="99.925467">
<time>2015-08-06T07:13:58Z</time></trkpt>
<trkpt lat="29.144254" lon="99.925487">
<time>2015-08-06T07:13:59Z</time></trkpt>
<trkpt lat="29.144034" lon="99.925567">
<time>2015-08-06T07:14:00Z</time></trkpt>
<trkpt lat="29.143874" lon="99.925607">
<time>2015-08-06T07:14:01Z</time></trkpt>
<trkpt lat="29.143814" lon="99.925617">
<time>2015-08-06T07:14:02Z</time></trkpt>
<trkpt lat="29.143685" lon="99.925607">
<time>2015-08-06T07:14:03Z</time></trkpt>
<trkpt lat="29.143635" lon="99.925597">
<time>2015-08-06T07:14:04Z</time></trkpt>
<trkpt lat="29.143505" lon="99.925537">
<time>2015-08-06T07:14:05Z</time></trkpt>
<trkpt lat="29.143145" lon="99.925358">
<time>2015-08-06T07:14:06Z</time></trkpt>
<trkpt lat="29.143015" lon="99.925288">
<time>2015-08-06T07:14:07Z</time></trkpt>
<trkpt lat="29.142985" lon="99.925258">
<time>2015-08-06T07:14:08Z</time></trkpt>
<trkpt lat="29.142946" lon="99.925218">
<time>2015-08-06T07:14:09Z</time></trkpt>
<trkpt lat="29.142896" lon="99.925148">
<time>2015-08-06T07:14:10Z</time></trkpt>
<trkpt lat="29.142866" lon="99.925068">
<time>2015-08-06T07:14:11Z</time></trkpt>
<trkpt lat="29.142836" lon="99.924958">
<time>2015-08-06T07:14:12Z</time></trkpt>
<trkpt lat="29.142796" lon="99.924778">
<time>2015-08-06T07:14:13Z</time></trkpt>
<trkpt lat="29.142756" lon="99.924718">
<time>2015-08-06T07:14:14Z</time></trkpt>
<trkpt lat="29.142716" lon="99.924659">
<time>2015-08-06T07:14:15Z</time></trkpt>
<trkpt lat="29.142666" lon="99.924609">
<time>2015-08-06T07:14:16Z</time></trkpt>
<trkpt lat="29.142547" lon="99.924529">
<time>2015-08-06T07:14:17Z</time></trkpt>
<trkpt lat="29.142157" lon="99.924229">
<time>2015-08-06T07:14:18Z</time></trkpt>
<trkpt lat="29.141938" lon="99.924039">
<time>2015-08-06T07:14:19Z</time></trkpt>
<trkpt lat="29.141878" lon="99.923969">
<time>2015-08-06T07:14:20Z</time></trkpt>
<trkpt lat="29.141838" lon="99.923909">
<time>2015-08-06T07:14:21Z</time></trkpt>
<trkpt lat="29.141798" lon="99.923839">
<time>2015-08-06T07:14:22Z</time></trkpt>
<trkpt lat="29.141778" lon="99.92368">
<time>2015-08-06T07:14:23Z</time></trkpt>
<trkpt lat="29.141768" lon="99.92358">
<time>2015-08-06T07:14:24Z</time></trkpt>
<trkpt lat="29.141768" lon="99.92349">
<time>2015-08-06T07:14:25Z</time></trkpt>
<trkpt lat="29.141758" lon="99.92342">
<time>2015-08-06T07:14:26Z</time></trkpt>
<trkpt lat="29.141728" lon="99.92335">
<time>2015-08-06T07:14:27Z</time></trkpt>
<trkpt lat="29.141689" lon="99.92327">
<time>2015-08-06T07:14:28Z</time></trkpt>
<trkpt lat="29.141539" lon="99.92305">
<time>2015-08-06T07:14:29Z</time></trkpt>
<trkpt lat="29.141459" lon="99.922941">
<time>2015-08-06T07:14:30Z</time></trkpt>
<trkpt lat="29.141359" lon="99.922771">
<time>2015-08-06T07:14:31Z</time></trkpt>
<trkpt lat="29.14113" lon="99.922311">
<time>2015-08-06T07:14:32Z</time></trkpt>
<trkpt lat="29.14108" lon="99.922211">
<time>2015-08-06T07:14:33Z</time></trkpt>
<trkpt lat="29.14105" lon="99.922111">
<time>2015-08-06T07:14:34Z</time></trkpt>
<trkpt lat="29.14103" lon="99.922002">
<time>2015-08-06T07:14:35Z</time></trkpt>
<trkpt lat="29.14102" lon="99.921882">
<time>2015-08-06T07:14:36Z</time></trkpt>
<trkpt lat="29.141011" lon="99.921632">
<time>2015-08-06T07:14:37Z</time></trkpt>
<trkpt lat="29.141031" lon="99.921282">
<time>2015-08-06T07:14:38Z</time></trkpt>
<trkpt lat="29.141051" lon="99.921152">
<time>2015-08-06T07:14:39Z</time></trkpt>
<trkpt lat="29.141041" lon="99.921063">
<time>2015-08-06T07:14:40Z</time></trkpt>
<trkpt lat="29.141021" lon="99.920903">
<time>2015-08-06T07:14:41Z</time></trkpt>
<trkpt lat="29.140942" lon="99.920633">
<time>2015-08-06T07:14:42Z</time></trkpt>
<trkpt lat="29.140723" lon="99.919854">
<time>2015-08-06T07:14:43Z</time></trkpt>
<trkpt lat="29.140663" lon="99.919654">
<time>2015-08-06T07:14:44Z</time></trkpt>
<trkpt lat="29.140593" lon="99.919464">
<time>2015-08-06T07:14:45Z</time></trkpt>
<trkpt lat="29.140553" lon="99.919384">
<time>2015-08-06T07:14:46Z</time></trkpt>
<trkpt lat="29.140503" lon="99.919314">
<time>2015-08-06T07:14:47Z</time></trkpt>
<trkpt lat="29.140473" lon="99.919254">
<time>2015-08-06T07:14:48Z</time></trkpt>
<trkpt lat="29.140413" lon="99.919154">
<time>2015-08-06T07:14:49Z</time></trkpt>
<trkpt lat="29.140383" lon="99.919084">
<time>2015-08-06T07:14:50Z</time></trkpt>
<trkpt lat="29.140373" lon="99.919034">
<time>2015-08-06T07:14:51Z</time></trkpt>
<trkpt lat="29.140364" lon="99.918965">
<time>2015-08-06T07:14:52Z</time></trkpt>
<trkpt lat="29.140354" lon="99.918825">
<time>2015-08-06T07:14:53Z</time></trkpt>
<trkpt lat="29.140434" lon="99.917856">
<time>2015-08-06T07:14:54Z</time></trkpt>
<trkpt lat="29.140455" lon="99.917266">
<time>2015-08-06T07:14:55Z</time></trkpt>
<trkpt lat="29.140455" lon="99.916976">
<time>2015-08-06T07:14:56Z</time></trkpt>
<trkpt lat="29.140445" lon="99.916597">
<time>2015-08-06T07:14:57Z</time></trkpt>
<trkpt lat="29.140396" lon="99.916147">
<time>2015-08-06T07:14:58Z</time></trkpt>
<trkpt lat="29.140356" lon="99.915577">
<time>2015-08-06T07:14:59Z</time></trkpt>
<trkpt lat="29.140316" lon="99.915308">
<time>2015-08-06T07:15:00Z</time></trkpt>
<trkpt lat="29.140267" lon="99.914858">
<time>2015-08-06T07:15:01Z</time></trkpt>
<trkpt lat="29.140257" lon="99.914678">
<time>2015-08-06T07:15:02Z</time></trkpt>
<trkpt lat="29.140247" lon="99.914378">
<time>2015-08-06T07:15:03Z</time></trkpt>
<trkpt lat="29.140257" lon="99.914218">
<time>2015-08-06T07:15:04Z</time></trkpt>
<trkpt lat="29.140287" lon="99.913938">
<time>2015-08-06T07:15:05Z</time></trkpt>
<trkpt lat="29.140317" lon="99.913779">
<time>2015-08-06T07:15:06Z</time></trkpt>
<trkpt lat="29.140518" lon="99.912709">
<time>2015-08-06T07:15:07Z</time></trkpt>
<trkpt lat="29.140568" lon="99.912489">
<time>2015-08-06T07:15:08Z</time></trkpt>
<trkpt lat="29.140628" lon="99.912249">
<time>2015-08-06T07:15:09Z</time></trkpt>
<trkpt lat="29.140728" lon="99.91197">
<time>2015-08-06T07:15:10Z</time></trkpt>
<trkpt lat="29.140968" lon="99.91137">
<time>2015-08-06T07:15:11Z</time></trkpt>
<trkpt lat="29.141078" lon="99.91118">
<time>2015-08-06T07:15:12Z</time></trkpt>
<trkpt lat="29.141138" lon="99.9111">
<time>2015-08-06T07:15:13Z</time></trkpt>
<trkpt lat="29.141248" lon="99.911">
<time>2015-08-06T07:15:14Z</time></trkpt>
<trkpt lat="29.141628" lon="99.91072">
<time>2015-08-06T07:15:15Z</time></trkpt>
<trkpt lat="29.141928" lon="99.9105">
<time>2015-08-06T07:15:16Z</time></trkpt>
<trkpt lat="29.141998" lon="99.91042">
<time>2015-08-06T07:15:17Z</time></trkpt>
<trkpt lat="29.142038" lon="99.91037">
<time>2015-08-06T07:15:18Z</time></trkpt>
<trkpt lat="29.142078" lon="99.91029">
<time>2015-08-06T07:15:19Z</time></trkpt>
<trkpt lat="29.142108" lon="99.91021">
<time>2015-08-06T07:15:20Z</time></trkpt>
<trkpt lat="29.142108" lon="99.910131">
<time>2015-08-06T07:15:21Z</time></trkpt>
<trkpt lat="29.142088" lon="99.910061">
<time>2015-08-06T07:15:22Z</time></trkpt>
<trkpt lat="29.142048" lon="99.910001">
<time>2015-08-06T07:15:23Z</time></trkpt>
<trkpt lat="29.141968" lon="99.909921">
<time>2015-08-06T07:15:24Z</time></trkpt>
<trkpt lat="29.141858" lon="99.909841">
<time>2015-08-06T07:15:25Z</time></trkpt>
<trkpt lat="29.141738" lon="99.909761">
<time>2015-08-06T07:15:26Z</time></trkpt>
<trkpt lat="29.141658" lon="99.909711">
<time>2015-08-06T07:15:27Z</time></trkpt>
<trkpt lat="29.141568" lon="99.909681">
<time>2015-08-06T07:15:28Z</time></trkpt>
<trkpt lat="29.141478" lon="99.909661">
<time>2015-08-06T07:15:29Z</time></trkpt>
<trkpt lat="29.141378" lon="99.909641">
<time>2015-08-06T07:15:30Z</time></trkpt>
<trkpt lat="29.141219" lon="99.909631">
<time>2015-08-06T07:15:31Z</time></trkpt>
<trkpt lat="29.141069" lon="99.909621">
<time>2015-08-06T07:15:32Z</time></trkpt>
<trkpt lat="29.140949" lon="99.909631">
<time>2015-08-06T07:15:33Z</time></trkpt>
<trkpt lat="29.140749" lon="99.909651">
<time>2015-08-06T07:15:34Z</time></trkpt>
<trkpt lat="29.140419" lon="99.909741">
<time>2015-08-06T07:15:35Z</time></trkpt>
<trkpt lat="29.140199" lon="99.909791">
<time>2015-08-06T07:15:36Z</time></trkpt>
<trkpt lat="29.140089" lon="99.909811">
<time>2015-08-06T07:15:37Z</time></trkpt>
<trkpt lat="29.13977" lon="99.909841">
<time>2015-08-06T07:15:38Z</time></trkpt>
<trkpt lat="29.1393" lon="99.909871">
<time>2015-08-06T07:15:39Z</time></trkpt>
<trkpt lat="29.1389" lon="99.909911">
<time>2015-08-06T07:15:40Z</time></trkpt>
<trkpt lat="29.138401" lon="99.909971">
<time>2015-08-06T07:15:41Z</time></trkpt>
<trkpt lat="29.138331" lon="99.909971">
<time>2015-08-06T07:15:42Z</time></trkpt>
<trkpt lat="29.138271" lon="99.909951">
<time>2015-08-06T07:15:43Z</time></trkpt>
<trkpt lat="29.138211" lon="99.909931">
<time>2015-08-06T07:15:44Z</time></trkpt>
<trkpt lat="29.138151" lon="99.909881">
<time>2015-08-06T07:15:45Z</time></trkpt>
<trkpt lat="29.138081" lon="99.909811">
<time>2015-08-06T07:15:46Z</time></trkpt>
<trkpt lat="29.137961" lon="99.909641">
<time>2015-08-06T07:15:47Z</time></trkpt>
<trkpt lat="29.137871" lon="99.909541">
<time>2015-08-06T07:15:48Z</time></trkpt>
<trkpt lat="29.137791" lon="99.909481">
<time>2015-08-06T07:15:49Z</time></trkpt>
<trkpt lat="29.137751" lon="99.909451">
<time>2015-08-06T07:15:50Z</time></trkpt>
<trkpt lat="29.137691" lon="99.909411">
<time>2015-08-06T07:15:51Z</time></trkpt>
<trkpt lat="29.137621" lon="99.909371">
<time>2015-08-06T07:15:52Z</time></trkpt>
<trkpt lat="29.137482" lon="99.909321">
<time>2015-08-06T07:15:53Z</time></trkpt>
<trkpt lat="29.137332" lon="99.909301">
<time>2015-08-06T07:15:54Z</time></trkpt>
<trkpt lat="29.137112" lon="99.909291">
<time>2015-08-06T07:15:55Z</time></trkpt>
<trkpt lat="29.136922" lon="99.909281">
<time>2015-08-06T07:15:56Z</time></trkpt>
<trkpt lat="29.136842" lon="99.909271">
<time>2015-08-06T07:15:57Z</time></trkpt>
<trkpt lat="29.136732" lon="99.909251">
<time>2015-08-06T07:15:58Z</time></trkpt>
<trkpt lat="29.136572" lon="99.909201">
<time>2015-08-06T07:15:59Z</time></trkpt>
<trkpt lat="29.136263" lon="99.909081">
<time>2015-08-06T07:16:00Z</time></trkpt>
<trkpt lat="29.136133" lon="99.909031">
<time>2015-08-06T07:16:01Z</time></trkpt>
<trkpt lat="29.135913" lon="99.908991">
<time>2015-08-06T07:16:02Z</time></trkpt>
<trkpt lat="29.135733" lon="99.908981">
<time>2015-08-06T07:16:03Z</time></trkpt>
<trkpt lat="29.135563" lon="99.908981">
<time>2015-08-06T07:16:04Z</time></trkpt>
<trkpt lat="29.135223" lon="99.909011">
<time>2015-08-06T07:16:05Z</time></trkpt>
<trkpt lat="29.134884" lon="99.909061">
<time>2015-08-06T07:16:06Z</time></trkpt>
<trkpt lat="29.134694" lon="99.909101">
<time>2015-08-06T07:16:07Z</time></trkpt>
<trkpt lat="29.134534" lon="99.909131">
<time>2015-08-06T07:16:08Z</time></trkpt>
<trkpt lat="29.134324" lon="99.909211">
<time>2015-08-06T07:16:09Z</time></trkpt>
<trkpt lat="29.134184" lon="99.909271">
<time>2015-08-06T07:16:10Z</time></trkpt>
<trkpt lat="29.133954" lon="99.909421">
<time>2015-08-06T07:16:11Z</time></trkpt>
<trkpt lat="29.133744" lon="99.909611">
<time>2015-08-06T07:16:12Z</time></trkpt>
<trkpt lat="29.133654" lon="99.909701">
<time>2015-08-06T07:16:13Z</time></trkpt>
<trkpt lat="29.133534" lon="99.909811">
<time>2015-08-06T07:16:14Z</time></trkpt>
<trkpt lat="29.133454" lon="99.909871">
<time>2015-08-06T07:16:15Z</time></trkpt>
<trkpt lat="29.133374" lon="99.909911">
<time>2015-08-06T07:16:16Z</time></trkpt>
<trkpt lat="29.133075" lon="99.909991">
<time>2015-08-06T07:16:17Z</time></trkpt>
<trkpt lat="29.132895" lon="99.910041">
<time>2015-08-06T07:16:18Z</time></trkpt>
<trkpt lat="29.132705" lon="99.910131">
<time>2015-08-06T07:16:19Z</time></trkpt>
<trkpt lat="29.132495" lon="99.910271">
<time>2015-08-06T07:16:20Z</time></trkpt>
<trkpt lat="29.132135" lon="99.910531">
<time>2015-08-06T07:16:21Z</time></trkpt>
<trkpt lat="29.131975" lon="99.910651">
<time>2015-08-06T07:16:22Z</time></trkpt>
<trkpt lat="29.131825" lon="99.91072">
<time>2015-08-06T07:16:23Z</time></trkpt>
<trkpt lat="29.131715" lon="99.91077">
<time>2015-08-06T07:16:24Z</time></trkpt>
<trkpt lat="29.130836" lon="99.91109">
<time>2015-08-06T07:16:25Z</time></trkpt>
<trkpt lat="29.130696" lon="99.91112">
<time>2015-08-06T07:16:26Z</time></trkpt>
<trkpt lat="29.130496" lon="99.91114">
<time>2015-08-06T07:16:27Z</time></trkpt>
<trkpt lat="29.130336" lon="99.91113">
<time>2015-08-06T07:16:28Z</time></trkpt>
<trkpt lat="29.130076" lon="99.91109">
<time>2015-08-06T07:16:29Z</time></trkpt>
<trkpt lat="29.129877" lon="99.91104">
<time>2015-08-06T07:16:30Z</time></trkpt>
<trkpt lat="29.129757" lon="99.91101">
<time>2015-08-06T07:16:31Z</time></trkpt>
<trkpt lat="29.129677" lon="99.91099">
<time>2015-08-06T07:16:32Z</time></trkpt>
<trkpt lat="29.129577" lon="99.91098">
<time>2015-08-06T07:16:33Z</time></trkpt>
<trkpt lat="29.129467" lon="99.91098">
<time>2015-08-06T07:16:34Z</time></trkpt>
<trkpt lat="29.129407" lon="99.911">
<time>2015-08-06T07:16:35Z</time></trkpt>
<trkpt lat="29.129337" lon="99.91104">
<time>2015-08-06T07:16:36Z</time></trkpt>
<trkpt lat="29.129287" lon="99.91107">
<time>2015-08-06T07:16:37Z</time></trkpt>
<trkpt lat="29.129257" lon="99.91113">
<time>2015-08-06T07:16:38Z</time></trkpt>
<trkpt lat="29.129247" lon="99.9112">
<time>2015-08-06T07:16:39Z</time></trkpt>
<trkpt lat="29.129247" lon="99.91129">
<time>2015-08-06T07:16:40Z</time></trkpt>
<trkpt lat="29.129307" lon="99.91149">
<time>2015-08-06T07:16:41Z</time></trkpt>
<trkpt lat="29.129357" lon="99.91168">
<time>2015-08-06T07:16:42Z</time></trkpt>
<trkpt lat="29.129387" lon="99.91186">
<time>2015-08-06T07:16:43Z</time></trkpt>
<trkpt lat="29.129397" lon="99.91205">
<time>2015-08-06T07:16:44Z</time></trkpt>
<trkpt lat="29.129366" lon="99.91256">
<time>2015-08-06T07:16:45Z</time></trkpt>
<trkpt lat="29.129336" lon="99.912889">
<time>2015-08-06T07:16:46Z</time></trkpt>
<trkpt lat="29.129286" lon="99.913179">
<time>2015-08-06T07:16:47Z</time></trkpt>
<trkpt lat="29.129246" lon="99.913349">
<time>2015-08-06T07:16:48Z</time></trkpt>
<trkpt lat="29.129206" lon="99.913449">
<time>2015-08-06T07:16:49Z</time></trkpt>
<trkpt lat="29.129156" lon="99.913529">
<time>2015-08-06T07:16:50Z</time></trkpt>
<trkpt lat="29.129096" lon="99.913599">
<time>2015-08-06T07:16:51Z</time></trkpt>
<trkpt lat="29.129036" lon="99.913639">
<time>2015-08-06T07:16:52Z</time></trkpt>
<trkpt lat="29.128976" lon="99.913659">
<time>2015-08-06T07:16:53Z</time></trkpt>
<trkpt lat="29.128916" lon="99.913639">
<time>2015-08-06T07:16:54Z</time></trkpt>
<trkpt lat="29.128866" lon="99.913609">
<time>2015-08-06T07:16:55Z</time></trkpt>
<trkpt lat="29.128826" lon="99.913559">
<time>2015-08-06T07:16:56Z</time></trkpt>
<trkpt lat="29.128786" lon="99.913489">
<time>2015-08-06T07:16:57Z</time></trkpt>
<trkpt lat="29.128696" lon="99.913209">
<time>2015-08-06T07:16:58Z</time></trkpt>
<trkpt lat="29.128577" lon="99.912909">
<time>2015-08-06T07:16:59Z</time></trkpt>
<trkpt lat="29.128517" lon="99.912779">
<time>2015-08-06T07:17:00Z</time></trkpt>
<trkpt lat="29.128457" lon="99.91268">
<time>2015-08-06T07:17:01Z</time></trkpt>
<trkpt lat="29.128387" lon="99.91259">
<time>2015-08-06T07:17:02Z</time></trkpt>
<trkpt lat="29.128157" lon="99.91235">
<time>2015-08-06T07:17:03Z</time></trkpt>
<trkpt lat="29.128038" lon="99.91223">
<time>2015-08-06T07:17:04Z</time></trkpt>
<trkpt lat="29.127968" lon="99.91214">
<time>2015-08-06T07:17:05Z</time></trkpt>
<trkpt lat="29.127878" lon="99.91202">
<time>2015-08-06T07:17:06Z</time></trkpt>
<trkpt lat="29.127568" lon="99.91149">
<time>2015-08-06T07:17:07Z</time></trkpt>
<trkpt lat="29.127448" lon="99.9113">
<time>2015-08-06T07:17:08Z</time></trkpt>
<trkpt lat="29.127329" lon="99.91112">
<time>2015-08-06T07:17:09Z</time></trkpt>
<trkpt lat="29.127189" lon="99.91094">
<time>2015-08-06T07:17:10Z</time></trkpt>
<trkpt lat="29.126999" lon="99.910691">
<time>2015-08-06T07:17:11Z</time></trkpt>
<trkpt lat="29.126909" lon="99.910551">
<time>2015-08-06T07:17:12Z</time></trkpt>
<trkpt lat="29.126779" lon="99.910301">
<time>2015-08-06T07:17:13Z</time></trkpt>
<trkpt lat="29.12667" lon="99.910031">
<time>2015-08-06T07:17:14Z</time></trkpt>
<trkpt lat="29.12649" lon="99.909661">
<time>2015-08-06T07:17:15Z</time></trkpt>
<trkpt lat="29.12638" lon="99.909421">
<time>2015-08-06T07:17:16Z</time></trkpt>
<trkpt lat="29.12628" lon="99.909111">
<time>2015-08-06T07:17:17Z</time></trkpt>
<trkpt lat="29.12622" lon="99.908971">
<time>2015-08-06T07:17:18Z</time></trkpt>
<trkpt lat="29.12619" lon="99.908911">
<time>2015-08-06T07:17:19Z</time></trkpt>
<trkpt lat="29.12616" lon="99.908871">
<time>2015-08-06T07:17:20Z</time></trkpt>
<trkpt lat="29.1261" lon="99.908831">
<time>2015-08-06T07:17:21Z</time></trkpt>
<trkpt lat="29.126051" lon="99.908801">
<time>2015-08-06T07:17:22Z</time></trkpt>
<trkpt lat="29.125981" lon="99.908781">
<time>2015-08-06T07:17:23Z</time></trkpt>
<trkpt lat="29.125871" lon="99.908781">
<time>2015-08-06T07:17:24Z</time></trkpt>
<trkpt lat="29.125651" lon="99.908821">
<time>2015-08-06T07:17:25Z</time></trkpt>
<trkpt lat="29.125541" lon="99.908841">
<time>2015-08-06T07:17:26Z</time></trkpt>
<trkpt lat="29.125421" lon="99.908831">
<time>2015-08-06T07:17:27Z</time></trkpt>
<trkpt lat="29.125291" lon="99.908811">
<time>2015-08-06T07:17:28Z</time></trkpt>
<trkpt lat="29.125021" lon="99.908762">
<time>2015-08-06T07:17:29Z</time></trkpt>
<trkpt lat="29.124732" lon="99.908702">
<time>2015-08-06T07:17:30Z</time></trkpt>
<trkpt lat="29.124612" lon="99.908662">
<time>2015-08-06T07:17:31Z</time></trkpt>
<trkpt lat="29.124482" lon="99.908622">
<time>2015-08-06T07:17:32Z</time></trkpt>
<trkpt lat="29.124352" lon="99.908602">
<time>2015-08-06T07:17:33Z</time></trkpt>
<trkpt lat="29.124242" lon="99.908602">
<time>2015-08-06T07:17:34Z</time></trkpt>
<trkpt lat="29.124052" lon="99.908622">
<time>2015-08-06T07:17:35Z</time></trkpt>
<trkpt lat="29.123662" lon="99.908692">
<time>2015-08-06T07:17:36Z</time></trkpt>
<trkpt lat="29.123123" lon="99.908812">
<time>2015-08-06T07:17:37Z</time></trkpt>
<trkpt lat="29.122813" lon="99.908902">
<time>2015-08-06T07:17:38Z</time></trkpt>
<trkpt lat="29.122663" lon="99.908971">
<time>2015-08-06T07:17:39Z</time></trkpt>
<trkpt lat="29.122563" lon="99.909021">
<time>2015-08-06T07:17:40Z</time></trkpt>
<trkpt lat="29.122523" lon="99.909041">
<time>2015-08-06T07:17:41Z</time></trkpt>
<trkpt lat="29.122463" lon="99.909061">
<time>2015-08-06T07:17:42Z</time></trkpt>
<trkpt lat="29.122433" lon="99.909061">
<time>2015-08-06T07:17:43Z</time></trkpt>
<trkpt lat="29.122393" lon="99.909061">
<time>2015-08-06T07:17:44Z</time></trkpt>
<trkpt lat="29.122363" lon="99.909061">
<time>2015-08-06T07:17:45Z</time></trkpt>
<trkpt lat="29.122333" lon="99.909051">
<time>2015-08-06T07:17:46Z</time></trkpt>
<trkpt lat="29.122313" lon="99.909021">
<time>2015-08-06T07:17:47Z</time></trkpt>
<trkpt lat="29.122303" lon="99.908991">
<time>2015-08-06T07:17:48Z</time></trkpt>
<trkpt lat="29.122283" lon="99.908961">
<time>2015-08-06T07:17:49Z</time></trkpt>
<trkpt lat="29.122283" lon="99.908922">
<time>2015-08-06T07:17:50Z</time></trkpt>
<trkpt lat="29.122293" lon="99.908892">
<time>2015-08-06T07:17:51Z</time></trkpt>
<trkpt lat="29.122313" lon="99.908862">
<time>2015-08-06T07:17:52Z</time></trkpt>
<trkpt lat="29.122333" lon="99.908832">
<time>2015-08-06T07:17:53Z</time></trkpt>
<trkpt lat="29.122363" lon="99.908802">
<time>2015-08-06T07:17:54Z</time></trkpt>
<trkpt lat="29.122393" lon="99.908782">
<time>2015-08-06T07:17:55Z</time></trkpt>
<trkpt lat="29.122433" lon="99.908762">
<time>2015-08-06T07:17:56Z</time></trkpt>
<trkpt lat="29.122773" lon="99.908592">
<time>2015-08-06T07:17:57Z</time></trkpt>
<trkpt lat="29.123013" lon="99.908492">
<time>2015-08-06T07:17:58Z</time></trkpt>
<trkpt lat="29.123093" lon="99.908452">
<time>2015-08-06T07:17:59Z</time></trkpt>
<trkpt lat="29.123233" lon="99.908402">
<time>2015-08-06T07:18:00Z</time></trkpt>
<trkpt lat="29.123283" lon="99.908372">
<time>2015-08-06T07:18:01Z</time></trkpt>
<trkpt lat="29.123303" lon="99.908352">
<time>2015-08-06T07:18:02Z</time></trkpt>
<trkpt lat="29.123323" lon="99.908322">
<time>2015-08-06T07:18:03Z</time></trkpt>
<trkpt lat="29.123333" lon="99.908282">
<time>2015-08-06T07:18:04Z</time></trkpt>
<trkpt lat="29.123333" lon="99.908242">
<time>2015-08-06T07:18:05Z</time></trkpt>
<trkpt lat="29.123323" lon="99.908202">
<time>2015-08-06T07:18:06Z</time></trkpt>
<trkpt lat="29.123303" lon="99.908182">
<time>2015-08-06T07:18:07Z</time></trkpt>
<trkpt lat="29.123273" lon="99.908152">
<time>2015-08-06T07:18:08Z</time></trkpt>
<trkpt lat="29.123243" lon="99.908142">
<time>2015-08-06T07:18:09Z</time></trkpt>
<trkpt lat="29.123193" lon="99.908132">
<time>2015-08-06T07:18:10Z</time></trkpt>
<trkpt lat="29.123153" lon="99.908122">
<time>2015-08-06T07:18:11Z</time></trkpt>
<trkpt lat="29.123093" lon="99.908122">
<time>2015-08-06T07:18:12Z</time></trkpt>
<trkpt lat="29.123033" lon="99.908132">
<time>2015-08-06T07:18:13Z</time></trkpt>
<trkpt lat="29.122613" lon="99.908222">
<time>2015-08-06T07:18:14Z</time></trkpt>
<trkpt lat="29.122464" lon="99.908262">
<time>2015-08-06T07:18:15Z</time></trkpt>
<trkpt lat="29.122394" lon="99.908292">
<time>2015-08-06T07:18:16Z</time></trkpt>
<trkpt lat="29.122314" lon="99.908362">
<time>2015-08-06T07:18:17Z</time></trkpt>
<trkpt lat="29.122194" lon="99.908482">
<time>2015-08-06T07:18:18Z</time></trkpt>
<trkpt lat="29.122074" lon="99.908632">
<time>2015-08-06T07:18:19Z</time></trkpt>
<trkpt lat="29.121994" lon="99.908732">
<time>2015-08-06T07:18:20Z</time></trkpt>
<trkpt lat="29.121934" lon="99.908782">
<time>2015-08-06T07:18:21Z</time></trkpt>
<trkpt lat="29.121864" lon="99.908832">
<time>2015-08-06T07:18:22Z</time></trkpt>
<trkpt lat="29.121804" lon="99.908862">
<time>2015-08-06T07:18:23Z</time></trkpt>
<trkpt lat="29.121574" lon="99.908952">
<time>2015-08-06T07:18:24Z</time></trkpt>
<trkpt lat="29.121504" lon="99.908992">
<time>2015-08-06T07:18:25Z</time></trkpt>
<trkpt lat="29.121354" lon="99.909111">
<time>2015-08-06T07:18:26Z</time></trkpt>
<trkpt lat="29.121244" lon="99.909211">
<time>2015-08-06T07:18:27Z</time></trkpt>
<trkpt lat="29.121164" lon="99.909261">
<time>2015-08-06T07:18:28Z</time></trkpt>
<trkpt lat="29.121084" lon="99.909291">
<time>2015-08-06T07:18:29Z</time></trkpt>
<trkpt lat="29.121004" lon="99.909311">
<time>2015-08-06T07:18:30Z</time></trkpt>
<trkpt lat="29.120914" lon="99.909321">
<time>2015-08-06T07:18:31Z</time></trkpt>
<trkpt lat="29.120724" lon="99.909301">
<time>2015-08-06T07:18:32Z</time></trkpt>
<trkpt lat="29.120325" lon="99.909251">
<time>2015-08-06T07:18:33Z</time></trkpt>
<trkpt lat="29.120145" lon="99.909241">
<time>2015-08-06T07:18:34Z</time></trkpt>
<trkpt lat="29.120085" lon="99.909241">
<time>2015-08-06T07:18:35Z</time></trkpt>
<trkpt lat="29.120015" lon="99.909251">
<time>2015-08-06T07:18:36Z</time></trkpt>
<trkpt lat="29.119965" lon="99.909271">
<time>2015-08-06T07:18:37Z</time></trkpt>
<trkpt lat="29.119745" lon="99.909411">
<time>2015-08-06T07:18:38Z</time></trkpt>
<trkpt lat="29.119655" lon="99.909471">
<time>2015-08-06T07:18:39Z</time></trkpt>
<trkpt lat="29.119375" lon="99.909631">
<time>2015-08-06T07:18:40Z</time></trkpt>
<trkpt lat="29.119305" lon="99.909681">
<time>2015-08-06T07:18:41Z</time></trkpt>
<trkpt lat="29.119225" lon="99.909701">
<time>2015-08-06T07:18:42Z</time></trkpt>
<trkpt lat="29.119176" lon="99.909711">
<time>2015-08-06T07:18:43Z</time></trkpt>
<trkpt lat="29.119126" lon="99.909691">
<time>2015-08-06T07:18:44Z</time></trkpt>
<trkpt lat="29.119086" lon="99.909661">
<time>2015-08-06T07:18:45Z</time></trkpt>
<trkpt lat="29.119066" lon="99.909621">
<time>2015-08-06T07:18:46Z</time></trkpt>
<trkpt lat="29.119056" lon="99.909551">
<time>2015-08-06T07:18:47Z</time></trkpt>
<trkpt lat="29.119056" lon="99.909471">
<time>2015-08-06T07:18:48Z</time></trkpt>
<trkpt lat="29.119076" lon="99.909311">
<time>2015-08-06T07:18:49Z</time></trkpt>
<trkpt lat="29.119146" lon="99.908832">
<time>2015-08-06T07:18:50Z</time></trkpt>
<trkpt lat="29.119166" lon="99.908642">
<time>2015-08-06T07:18:51Z</time></trkpt>
<trkpt lat="29.119156" lon="99.908552">
<time>2015-08-06T07:18:52Z</time></trkpt>
<trkpt lat="29.119146" lon="99.908542">
<time>2015-08-06T07:18:53Z</time></trkpt>
<trkpt lat="29.119126" lon="99.908462">
<time>2015-08-06T07:18:54Z</time></trkpt>
<trkpt lat="29.119096" lon="99.908362">
<time>2015-08-06T07:18:55Z</time></trkpt>
<trkpt lat="29.119036" lon="99.908272">
<time>2015-08-06T07:18:56Z</time></trkpt>
<trkpt lat="29.118966" lon="99.908222">
<time>2015-08-06T07:18:57Z</time></trkpt>
<trkpt lat="29.118896" lon="99.908172">
<time>2015-08-06T07:18:58Z</time></trkpt>
<trkpt lat="29.118836" lon="99.908142">
<time>2015-08-06T07:18:59Z</time></trkpt>
<trkpt lat="29.118756" lon="99.908122">
<time>2015-08-06T07:19:00Z</time></trkpt>
<trkpt lat="29.118686" lon="99.908122">
<time>2015-08-06T07:19:01Z</time></trkpt>
<trkpt lat="29.118607" lon="99.908122">
<time>2015-08-06T07:19:02Z</time></trkpt>
<trkpt lat="29.118417" lon="99.908152">
<time>2015-08-06T07:19:03Z</time></trkpt>
<trkpt lat="29.118287" lon="99.908202">
<time>2015-08-06T07:19:04Z</time></trkpt>
<trkpt lat="29.118057" lon="99.908352">
<time>2015-08-06T07:19:05Z</time></trkpt>
<trkpt lat="29.117547" lon="99.908762">
<time>2015-08-06T07:19:06Z</time></trkpt>
<trkpt lat="29.117367" lon="99.908922">
<time>2015-08-06T07:19:07Z</time></trkpt>
<trkpt lat="29.117287" lon="99.908972">
<time>2015-08-06T07:19:08Z</time></trkpt>
<trkpt lat="29.117217" lon="99.909022">
<time>2015-08-06T07:19:09Z</time></trkpt>
<trkpt lat="29.117117" lon="99.909062">
<time>2015-08-06T07:19:10Z</time></trkpt>
<trkpt lat="29.116888" lon="99.909162">
<time>2015-08-06T07:19:11Z</time></trkpt>
<trkpt lat="29.116218" lon="99.909371">
<time>2015-08-06T07:19:12Z</time></trkpt>
<trkpt lat="29.115109" lon="99.909641">
<time>2015-08-06T07:19:13Z</time></trkpt>
<trkpt lat="29.114759" lon="99.909691">
<time>2015-08-06T07:19:14Z</time></trkpt>
<trkpt lat="29.114639" lon="99.909731">
<time>2015-08-06T07:19:15Z</time></trkpt>
<trkpt lat="29.114529" lon="99.909771">
<time>2015-08-06T07:19:16Z</time></trkpt>
<trkpt lat="29.114389" lon="99.909831">
<time>2015-08-06T07:19:17Z</time></trkpt>
<trkpt lat="29.114229" lon="99.909891">
<time>2015-08-06T07:19:18Z</time></trkpt>
<trkpt lat="29.114109" lon="99.909901">
<time>2015-08-06T07:19:19Z</time></trkpt>
<trkpt lat="29.11395" lon="99.909901">
<time>2015-08-06T07:19:20Z</time></trkpt>
<trkpt lat="29.11373" lon="99.909891">
<time>2015-08-06T07:19:21Z</time></trkpt>
<trkpt lat="29.11353" lon="99.909851">
<time>2015-08-06T07:19:22Z</time></trkpt>
<trkpt lat="29.11324" lon="99.909771">
<time>2015-08-06T07:19:23Z</time></trkpt>
<trkpt lat="29.112461" lon="99.909512">
<time>2015-08-06T07:19:24Z</time></trkpt>
<trkpt lat="29.112031" lon="99.909212">
<time>2015-08-06T07:19:25Z</time></trkpt>
<trkpt lat="29.111172" lon="99.908502">
<time>2015-08-06T07:19:26Z</time></trkpt>
<trkpt lat="29.110763" lon="99.908142">
<time>2015-08-06T07:19:27Z</time></trkpt>
<trkpt lat="29.110413" lon="99.907852">
<time>2015-08-06T07:19:28Z</time></trkpt>
<trkpt lat="29.110213" lon="99.907722">
<time>2015-08-06T07:19:29Z</time></trkpt>
<trkpt lat="29.110133" lon="99.907682">
<time>2015-08-06T07:19:30Z</time></trkpt>
<trkpt lat="29.110003" lon="99.907642">
<time>2015-08-06T07:19:31Z</time></trkpt>
<trkpt lat="29.109754" lon="99.907592">
<time>2015-08-06T07:19:32Z</time></trkpt>
<trkpt lat="29.108984" lon="99.907462">
<time>2015-08-06T07:19:33Z</time></trkpt>
<trkpt lat="29.108615" lon="99.907402">
<time>2015-08-06T07:19:34Z</time></trkpt>
<trkpt lat="29.108215" lon="99.907262">
<time>2015-08-06T07:19:35Z</time></trkpt>
<trkpt lat="29.107436" lon="99.906963">
<time>2015-08-06T07:19:36Z</time></trkpt>
<trkpt lat="29.107106" lon="99.906863">
<time>2015-08-06T07:19:37Z</time></trkpt>
<trkpt lat="29.106596" lon="99.906703">
<time>2015-08-06T07:19:38Z</time></trkpt>
<trkpt lat="29.106127" lon="99.906583">
<time>2015-08-06T07:19:39Z</time></trkpt>
<trkpt lat="29.105847" lon="99.906493">
<time>2015-08-06T07:19:40Z</time></trkpt>
<trkpt lat="29.105617" lon="99.906443">
<time>2015-08-06T07:19:41Z</time></trkpt>
<trkpt lat="29.105008" lon="99.906373">
<time>2015-08-06T07:19:42Z</time></trkpt>
<trkpt lat="29.104568" lon="99.906303">
<time>2015-08-06T07:19:43Z</time></trkpt>
<trkpt lat="29.104408" lon="99.906253">
<time>2015-08-06T07:19:44Z</time></trkpt>
<trkpt lat="29.104288" lon="99.906193">
<time>2015-08-06T07:19:45Z</time></trkpt>
<trkpt lat="29.103899" lon="99.905953">
<time>2015-08-06T07:19:46Z</time></trkpt>
<trkpt lat="29.103199" lon="99.905443">
<time>2015-08-06T07:19:47Z</time></trkpt>
<trkpt lat="29.1028" lon="99.905143">
<time>2015-08-06T07:19:48Z</time></trkpt>
<trkpt lat="29.10254" lon="99.904983">
<time>2015-08-06T07:19:49Z</time></trkpt>
<trkpt lat="29.10229" lon="99.904843">
<time>2015-08-06T07:19:50Z</time></trkpt>
<trkpt lat="29.10207" lon="99.904723">
<time>2015-08-06T07:19:51Z</time></trkpt>
<trkpt lat="29.101221" lon="99.904353">
<time>2015-08-06T07:19:52Z</time></trkpt>
<trkpt lat="29.101011" lon="99.904223">
<time>2015-08-06T07:19:53Z</time></trkpt>
<trkpt lat="29.100821" lon="99.904073">
<time>2015-08-06T07:19:54Z</time></trkpt>
<trkpt lat="29.100702" lon="99.903943">
<time>2015-08-06T07:19:55Z</time></trkpt>
<trkpt lat="29.100582" lon="99.903783">
<time>2015-08-06T07:19:56Z</time></trkpt>
<trkpt lat="29.100452" lon="99.903593">
<time>2015-08-06T07:19:57Z</time></trkpt>
<trkpt lat="29.100322" lon="99.903403">
<time>2015-08-06T07:19:58Z</time></trkpt>
<trkpt lat="29.100162" lon="99.903213">
<time>2015-08-06T07:19:59Z</time></trkpt>
<trkpt lat="29.099992" lon="99.903044">
<time>2015-08-06T07:20:00Z</time></trkpt>
<trkpt lat="29.099263" lon="99.902534">
<time>2015-08-06T07:20:01Z</time></trkpt>
<trkpt lat="29.098284" lon="99.901884">
<time>2015-08-06T07:20:02Z</time></trkpt>
<trkpt lat="29.097714" lon="99.901454">
<time>2015-08-06T07:20:03Z</time></trkpt>
<trkpt lat="29.097534" lon="99.901344">
<time>2015-08-06T07:20:04Z</time></trkpt>
<trkpt lat="29.097354" lon="99.901264">
<time>2015-08-06T07:20:05Z</time></trkpt>
<trkpt lat="29.097135" lon="99.901184">
<time>2015-08-06T07:20:06Z</time></trkpt>
<trkpt lat="29.096885" lon="99.901034">
<time>2015-08-06T07:20:07Z</time></trkpt>
<trkpt lat="29.095945" lon="99.900284">
<time>2015-08-06T07:20:08Z</time></trkpt>
<trkpt lat="29.095326" lon="99.899674">
<time>2015-08-06T07:20:09Z</time></trkpt>
<trkpt lat="29.095156" lon="99.899524">
<time>2015-08-06T07:20:10Z</time></trkpt>
<trkpt lat="29.094996" lon="99.899414">
<time>2015-08-06T07:20:11Z</time></trkpt>
<trkpt lat="29.094836" lon="99.899304">
<time>2015-08-06T07:20:12Z</time></trkpt>
<trkpt lat="29.094616" lon="99.899194">
<time>2015-08-06T07:20:13Z</time></trkpt>
<trkpt lat="29.093158" lon="99.898514">
<time>2015-08-06T07:20:14Z</time></trkpt>
<trkpt lat="29.092628" lon="99.898254">
<time>2015-08-06T07:20:15Z</time></trkpt>
<trkpt lat="29.092308" lon="99.898074">
<time>2015-08-06T07:20:16Z</time></trkpt>
<trkpt lat="29.092088" lon="99.897944">
<time>2015-08-06T07:20:17Z</time></trkpt>
<trkpt lat="29.091379" lon="99.897484">
<time>2015-08-06T07:20:18Z</time></trkpt>
<trkpt lat="29.091179" lon="99.897363">
<time>2015-08-06T07:20:19Z</time></trkpt>
<trkpt lat="29.091049" lon="99.897293">
<time>2015-08-06T07:20:20Z</time></trkpt>
<trkpt lat="29.090919" lon="99.897243">
<time>2015-08-06T07:20:21Z</time></trkpt>
<trkpt lat="29.090709" lon="99.897173">
<time>2015-08-06T07:20:22Z</time></trkpt>
<trkpt lat="29.090519" lon="99.897103">
<time>2015-08-06T07:20:23Z</time></trkpt>
<trkpt lat="29.09026" lon="99.897033">
<time>2015-08-06T07:20:24Z</time></trkpt>
<trkpt lat="29.0901" lon="99.897013">
<time>2015-08-06T07:20:25Z</time></trkpt>
<trkpt lat="29.08995" lon="99.897003">
<time>2015-08-06T07:20:26Z</time></trkpt>
<trkpt lat="29.08983" lon="99.897003">
<time>2015-08-06T07:20:27Z</time></trkpt>
<trkpt lat="29.08967" lon="99.897023">
<time>2015-08-06T07:20:28Z</time></trkpt>
<trkpt lat="29.08938" lon="99.897053">
<time>2015-08-06T07:20:29Z</time></trkpt>
<trkpt lat="29.088551" lon="99.897114">
<time>2015-08-06T07:20:30Z</time></trkpt>
<trkpt lat="29.088021" lon="99.897104">
<time>2015-08-06T07:20:31Z</time></trkpt>
<trkpt lat="29.087832" lon="99.897094">
<time>2015-08-06T07:20:32Z</time></trkpt>
<trkpt lat="29.087432" lon="99.896994">
<time>2015-08-06T07:20:33Z</time></trkpt>
<trkpt lat="29.086872" lon="99.896873">
<time>2015-08-06T07:20:34Z</time></trkpt>
<trkpt lat="29.086333" lon="99.896773">
<time>2015-08-06T07:20:35Z</time></trkpt>
<trkpt lat="29.085853" lon="99.896693">
<time>2015-08-06T07:20:36Z</time></trkpt>
<trkpt lat="29.085713" lon="99.896643">
<time>2015-08-06T07:20:37Z</time></trkpt>
<trkpt lat="29.085563" lon="99.896553">
<time>2015-08-06T07:20:38Z</time></trkpt>
<trkpt lat="29.085323" lon="99.896433">
<time>2015-08-06T07:20:39Z</time></trkpt>
<trkpt lat="29.085164" lon="99.896353">
<time>2015-08-06T07:20:40Z</time></trkpt>
<trkpt lat="29.085054" lon="99.896313">
<time>2015-08-06T07:20:41Z</time></trkpt>
<trkpt lat="29.084964" lon="99.896273">
<time>2015-08-06T07:20:42Z</time></trkpt>
<trkpt lat="29.084904" lon="99.896223">
<time>2015-08-06T07:20:43Z</time></trkpt>
<trkpt lat="29.084864" lon="99.896173">
<time>2015-08-06T07:20:44Z</time></trkpt>
<trkpt lat="29.084824" lon="99.896083">
<time>2015-08-06T07:20:45Z</time></trkpt>
<trkpt lat="29.084754" lon="99.895923">
<time>2015-08-06T07:20:46Z</time></trkpt>
<trkpt lat="29.084644" lon="99.895693">
<time>2015-08-06T07:20:47Z</time></trkpt>
<trkpt lat="29.084394" lon="99.895303">
<time>2015-08-06T07:20:48Z</time></trkpt>
<trkpt lat="29.084154" lon="99.894893">
<time>2015-08-06T07:20:49Z</time></trkpt>
<trkpt lat="29.084034" lon="99.894663">
<time>2015-08-06T07:20:50Z</time></trkpt>
<trkpt lat="29.083954" lon="99.894523">
<time>2015-08-06T07:20:51Z</time></trkpt>
<trkpt lat="29.083864" lon="99.894413">
<time>2015-08-06T07:20:52Z</time></trkpt>
<trkpt lat="29.083794" lon="99.894353">
<time>2015-08-06T07:20:53Z</time></trkpt>
<trkpt lat="29.083704" lon="99.894303">
<time>2015-08-06T07:20:54Z</time></trkpt>
<trkpt lat="29.083584" lon="99.894243">
<time>2015-08-06T07:20:55Z</time></trkpt>
<trkpt lat="29.083464" lon="99.894203">
<time>2015-08-06T07:20:56Z</time></trkpt>
<trkpt lat="29.083374" lon="99.894183">
<time>2015-08-06T07:20:57Z</time></trkpt>
<trkpt lat="29.083185" lon="99.894143">
<time>2015-08-06T07:20:58Z</time></trkpt>
<trkpt lat="29.082825" lon="99.894033">
<time>2015-08-06T07:20:59Z</time></trkpt>
<trkpt lat="29.082535" lon="99.893933">
<time>2015-08-06T07:21:00Z</time></trkpt>
<trkpt lat="29.082335" lon="99.893853">
<time>2015-08-06T07:21:01Z</time></trkpt>
<trkpt lat="29.082035" lon="99.893763">
<time>2015-08-06T07:21:02Z</time></trkpt>
<trkpt lat="29.081825" lon="99.893703">
<time>2015-08-06T07:21:03Z</time></trkpt>
<trkpt lat="29.081516" lon="99.893623">
<time>2015-08-06T07:21:04Z</time></trkpt>
<trkpt lat="29.081106" lon="99.893523">
<time>2015-08-06T07:21:05Z</time></trkpt>
<trkpt lat="29.080866" lon="99.893493">
<time>2015-08-06T07:21:06Z</time></trkpt>
<trkpt lat="29.080656" lon="99.893483">
<time>2015-08-06T07:21:07Z</time></trkpt>
<trkpt lat="29.080377" lon="99.893483">
<time>2015-08-06T07:21:08Z</time></trkpt>
<trkpt lat="29.079727" lon="99.893463">
<time>2015-08-06T07:21:09Z</time></trkpt>
<trkpt lat="29.079547" lon="99.893453">
<time>2015-08-06T07:21:10Z</time></trkpt>
<trkpt lat="29.079287" lon="99.893423">
<time>2015-08-06T07:21:11Z</time></trkpt>
<trkpt lat="29.079128" lon="99.893383">
<time>2015-08-06T07:21:12Z</time></trkpt>
<trkpt lat="29.078968" lon="99.893303">
<time>2015-08-06T07:21:13Z</time></trkpt>
<trkpt lat="29.078738" lon="99.893213">
<time>2015-08-06T07:21:14Z</time></trkpt>
<trkpt lat="29.078288" lon="99.893053">
<time>2015-08-06T07:21:15Z</time></trkpt>
<trkpt lat="29.077848" lon="99.892893">
<time>2015-08-06T07:21:16Z</time></trkpt>
<trkpt lat="29.077738" lon="99.892863">
<time>2015-08-06T07:21:17Z</time></trkpt>
<trkpt lat="29.077569" lon="99.892833">
<time>2015-08-06T07:21:18Z</time></trkpt>
<trkpt lat="29.077429" lon="99.892823">
<time>2015-08-06T07:21:19Z</time></trkpt>
<trkpt lat="29.077249" lon="99.892833">
<time>2015-08-06T07:21:20Z</time></trkpt>
<trkpt lat="29.077119" lon="99.892863">
<time>2015-08-06T07:21:21Z</time></trkpt>
<trkpt lat="29.076859" lon="99.892943">
<time>2015-08-06T07:21:22Z</time></trkpt>
<trkpt lat="29.07637" lon="99.893103">
<time>2015-08-06T07:21:23Z</time></trkpt>
<trkpt lat="29.07615" lon="99.893173">
<time>2015-08-06T07:21:24Z</time></trkpt>
<trkpt lat="29.07564" lon="99.893343">
<time>2015-08-06T07:21:25Z</time></trkpt>
<trkpt lat="29.075331" lon="99.893423">
<time>2015-08-06T07:21:26Z</time></trkpt>
<trkpt lat="29.075101" lon="99.893473">
<time>2015-08-06T07:21:27Z</time></trkpt>
<trkpt lat="29.074871" lon="99.893513">
<time>2015-08-06T07:21:28Z</time></trkpt>
<trkpt lat="29.074481" lon="99.893583">
<time>2015-08-06T07:21:29Z</time></trkpt>
<trkpt lat="29.074311" lon="99.893613">
<time>2015-08-06T07:21:30Z</time></trkpt>
<trkpt lat="29.074142" lon="99.893663">
<time>2015-08-06T07:21:31Z</time></trkpt>
<trkpt lat="29.073822" lon="99.893753">
<time>2015-08-06T07:21:32Z</time></trkpt>
<trkpt lat="29.073762" lon="99.893773">
<time>2015-08-06T07:21:33Z</time></trkpt>
<trkpt lat="29.073432" lon="99.893873">
<time>2015-08-06T07:21:34Z</time></trkpt>
<trkpt lat="29.073262" lon="99.893923">
<time>2015-08-06T07:21:35Z</time></trkpt>
<trkpt lat="29.073102" lon="99.893943">
<time>2015-08-06T07:21:36Z</time></trkpt>
<trkpt lat="29.072813" lon="99.893953">
<time>2015-08-06T07:21:37Z</time></trkpt>
<trkpt lat="29.072763" lon="99.893943">
<time>2015-08-06T07:21:38Z</time></trkpt>
<trkpt lat="29.072673" lon="99.893943">
<time>2015-08-06T07:21:39Z</time></trkpt>
<trkpt lat="29.072453" lon="99.893933">
<time>2015-08-06T07:21:40Z</time></trkpt>
<trkpt lat="29.071873" lon="99.893923">
<time>2015-08-06T07:21:41Z</time></trkpt>
<trkpt lat="29.071594" lon="99.893933">
<time>2015-08-06T07:21:42Z</time></trkpt>
<trkpt lat="29.071284" lon="99.893903">
<time>2015-08-06T07:21:43Z</time></trkpt>
<trkpt lat="29.071134" lon="99.893873">
<time>2015-08-06T07:21:44Z</time></trkpt>
<trkpt lat="29.070674" lon="99.893753">
<time>2015-08-06T07:21:45Z</time></trkpt>
<trkpt lat="29.070414" lon="99.893663">
<time>2015-08-06T07:21:46Z</time></trkpt>
<trkpt lat="29.069905" lon="99.893423">
<time>2015-08-06T07:21:47Z</time></trkpt>
<trkpt lat="29.069505" lon="99.893233">
<time>2015-08-06T07:21:48Z</time></trkpt>
<trkpt lat="29.069095" lon="99.893003">
<time>2015-08-06T07:21:49Z</time></trkpt>
<trkpt lat="29.068915" lon="99.892923">
<time>2015-08-06T07:21:50Z</time></trkpt>
<trkpt lat="29.068426" lon="99.892683">
<time>2015-08-06T07:21:51Z</time></trkpt>
<trkpt lat="29.068236" lon="99.892623">
<time>2015-08-06T07:21:52Z</time></trkpt>
<trkpt lat="29.068096" lon="99.892573">
<time>2015-08-06T07:21:53Z</time></trkpt>
<trkpt lat="29.067956" lon="99.892533">
<time>2015-08-06T07:21:54Z</time></trkpt>
<trkpt lat="29.067806" lon="99.892513">
<time>2015-08-06T07:21:55Z</time></trkpt>
<trkpt lat="29.067676" lon="99.892513">
<time>2015-08-06T07:21:56Z</time></trkpt>
<trkpt lat="29.067516" lon="99.892543">
<time>2015-08-06T07:21:57Z</time></trkpt>
<trkpt lat="29.067397" lon="99.892583">
<time>2015-08-06T07:21:58Z</time></trkpt>
<trkpt lat="29.067267" lon="99.892663">
<time>2015-08-06T07:21:59Z</time></trkpt>
<trkpt lat="29.067137" lon="99.892783">
<time>2015-08-06T07:22:00Z</time></trkpt>
<trkpt lat="29.067027" lon="99.892903">
<time>2015-08-06T07:22:01Z</time></trkpt>
<trkpt lat="29.066957" lon="99.893023">
<time>2015-08-06T07:22:02Z</time></trkpt>
<trkpt lat="29.066877" lon="99.893173">
<time>2015-08-06T07:22:03Z</time></trkpt>
<trkpt lat="29.066797" lon="99.893393">
<time>2015-08-06T07:22:04Z</time></trkpt>
<trkpt lat="29.066588" lon="99.893993">
<time>2015-08-06T07:22:05Z</time></trkpt>
<trkpt lat="29.066258" lon="99.894823">
<time>2015-08-06T07:22:06Z</time></trkpt>
<trkpt lat="29.066118" lon="99.895164">
<time>2015-08-06T07:22:07Z</time></trkpt>
<trkpt lat="29.066058" lon="99.895254">
<time>2015-08-06T07:22:08Z</time></trkpt>
<trkpt lat="29.065968" lon="99.895384">
<time>2015-08-06T07:22:09Z</time></trkpt>
<trkpt lat="29.065749" lon="99.895614">
<time>2015-08-06T07:22:10Z</time></trkpt>
<trkpt lat="29.065349" lon="99.895984">
<time>2015-08-06T07:22:11Z</time></trkpt>
<trkpt lat="29.065099" lon="99.896204">
<time>2015-08-06T07:22:12Z</time></trkpt>
<trkpt lat="29.064979" lon="99.896274">
<time>2015-08-06T07:22:13Z</time></trkpt>
<trkpt lat="29.06484" lon="99.896324">
<time>2015-08-06T07:22:14Z</time></trkpt>
<trkpt lat="29.0647" lon="99.896354">
<time>2015-08-06T07:22:15Z</time></trkpt>
<trkpt lat="29.0645" lon="99.896364">
<time>2015-08-06T07:22:16Z</time></trkpt>
<trkpt lat="29.06434" lon="99.896384">
<time>2015-08-06T07:22:17Z</time></trkpt>
<trkpt lat="29.06411" lon="99.896424">
<time>2015-08-06T07:22:18Z</time></trkpt>
<trkpt lat="29.06396" lon="99.896464">
<time>2015-08-06T07:22:19Z</time></trkpt>
<trkpt lat="29.06384" lon="99.896524">
<time>2015-08-06T07:22:20Z</time></trkpt>
<trkpt lat="29.063711" lon="99.896614">
<time>2015-08-06T07:22:21Z</time></trkpt>
<trkpt lat="29.063441" lon="99.896784">
<time>2015-08-06T07:22:22Z</time></trkpt>
<trkpt lat="29.063261" lon="99.896904">
<time>2015-08-06T07:22:23Z</time></trkpt>
<trkpt lat="29.063081" lon="99.897004">
<time>2015-08-06T07:22:24Z</time></trkpt>
<trkpt lat="29.062901" lon="99.897084">
<time>2015-08-06T07:22:25Z</time></trkpt>
<trkpt lat="29.062592" lon="99.897204">
<time>2015-08-06T07:22:26Z</time></trkpt>
<trkpt lat="29.062262" lon="99.897324">
<time>2015-08-06T07:22:27Z</time></trkpt>
<trkpt lat="29.061932" lon="99.897424">
<time>2015-08-06T07:22:28Z</time></trkpt>
<trkpt lat="29.061403" lon="99.897584">
<time>2015-08-06T07:22:29Z</time></trkpt>
<trkpt lat="29.061173" lon="99.897614">
<time>2015-08-06T07:22:30Z</time></trkpt>
<trkpt lat="29.060683" lon="99.897664">
<time>2015-08-06T07:22:31Z</time></trkpt>
<trkpt lat="29.060503" lon="99.897684">
<time>2015-08-06T07:22:32Z</time></trkpt>
<trkpt lat="29.060293" lon="99.897744">
<time>2015-08-06T07:22:33Z</time></trkpt>
<trkpt lat="29.059894" lon="99.897854">
<time>2015-08-06T07:22:34Z</time></trkpt>
<trkpt lat="29.059684" lon="99.897874">
<time>2015-08-06T07:22:35Z</time></trkpt>
<trkpt lat="29.059424" lon="99.897874">
<time>2015-08-06T07:22:36Z</time></trkpt>
<trkpt lat="29.059194" lon="99.897854">
<time>2015-08-06T07:22:37Z</time></trkpt>
<trkpt lat="29.059004" lon="99.897814">
<time>2015-08-06T07:22:38Z</time></trkpt>
<trkpt lat="29.058755" lon="99.897734">
<time>2015-08-06T07:22:39Z</time></trkpt>
<trkpt lat="29.058435" lon="99.897594">
<time>2015-08-06T07:22:40Z</time></trkpt>
<trkpt lat="29.057965" lon="99.897394">
<time>2015-08-06T07:22:41Z</time></trkpt>
<trkpt lat="29.057745" lon="99.897334">
<time>2015-08-06T07:22:42Z</time></trkpt>
<trkpt lat="29.057635" lon="99.897294">
<time>2015-08-06T07:22:43Z</time></trkpt>
<trkpt lat="29.057166" lon="99.897244">
<time>2015-08-06T07:22:44Z</time></trkpt>
<trkpt lat="29.056686" lon="99.897224">
<time>2015-08-06T07:22:45Z</time></trkpt>
<trkpt lat="29.056506" lon="99.897224">
<time>2015-08-06T07:22:46Z</time></trkpt>
<trkpt lat="29.056087" lon="99.897194">
<time>2015-08-06T07:22:47Z</time></trkpt>
<trkpt lat="29.055857" lon="99.897204">
<time>2015-08-06T07:22:48Z</time></trkpt>
<trkpt lat="29.055577" lon="99.897214">
<time>2015-08-06T07:22:49Z</time></trkpt>
<trkpt lat="29.055227" lon="99.897244">
<time>2015-08-06T07:22:50Z</time></trkpt>
<trkpt lat="29.055067" lon="99.897254">
<time>2015-08-06T07:22:51Z</time></trkpt>
<trkpt lat="29.054918" lon="99.897284">
<time>2015-08-06T07:22:52Z</time></trkpt>
<trkpt lat="29.054768" lon="99.897314">
<time>2015-08-06T07:22:53Z</time></trkpt>
<trkpt lat="29.054568" lon="99.897374">
<time>2015-08-06T07:22:54Z</time></trkpt>
<trkpt lat="29.054178" lon="99.897494">
<time>2015-08-06T07:22:55Z</time></trkpt>
<trkpt lat="29.053978" lon="99.897554">
<time>2015-08-06T07:22:56Z</time></trkpt>
<trkpt lat="29.053858" lon="99.897564">
<time>2015-08-06T07:22:57Z</time></trkpt>
<trkpt lat="29.053679" lon="99.897544">
<time>2015-08-06T07:22:58Z</time></trkpt>
<trkpt lat="29.053049" lon="99.897424">
<time>2015-08-06T07:22:59Z</time></trkpt>
<trkpt lat="29.0524" lon="99.897294">
<time>2015-08-06T07:23:00Z</time></trkpt>
<trkpt lat="29.05178" lon="99.897164">
<time>2015-08-06T07:23:01Z</time></trkpt>
<trkpt lat="29.05157" lon="99.897104">
<time>2015-08-06T07:23:02Z</time></trkpt>
<trkpt lat="29.05138" lon="99.897054">
<time>2015-08-06T07:23:03Z</time></trkpt>
<trkpt lat="29.051171" lon="99.896984">
<time>2015-08-06T07:23:04Z</time></trkpt>
<trkpt lat="29.050791" lon="99.896834">
<time>2015-08-06T07:23:05Z</time></trkpt>
<trkpt lat="29.050561" lon="99.896694">
<time>2015-08-06T07:23:06Z</time></trkpt>
<trkpt lat="29.050221" lon="99.896464">
<time>2015-08-06T07:23:07Z</time></trkpt>
<trkpt lat="29.049941" lon="99.896224">
<time>2015-08-06T07:23:08Z</time></trkpt>
<trkpt lat="29.049642" lon="99.895894">
<time>2015-08-06T07:23:09Z</time></trkpt>
<trkpt lat="29.049582" lon="99.895774">
<time>2015-08-06T07:23:10Z</time></trkpt>
<trkpt lat="29.049522" lon="99.895654">
<time>2015-08-06T07:23:11Z</time></trkpt>
<trkpt lat="29.049462" lon="99.895454">
<time>2015-08-06T07:23:12Z</time></trkpt>
<trkpt lat="29.049392" lon="99.895224">
<time>2015-08-06T07:23:13Z</time></trkpt>
<trkpt lat="29.049332" lon="99.895064">
<time>2015-08-06T07:23:14Z</time></trkpt>
<trkpt lat="29.049252" lon="99.894954">
<time>2015-08-06T07:23:15Z</time></trkpt>
<trkpt lat="29.049162" lon="99.894894">
<time>2015-08-06T07:23:16Z</time></trkpt>
<trkpt lat="29.049052" lon="99.894844">
<time>2015-08-06T07:23:17Z</time></trkpt>
<trkpt lat="29.048952" lon="99.894814">
<time>2015-08-06T07:23:18Z</time></trkpt>
<trkpt lat="29.048762" lon="99.894754">
<time>2015-08-06T07:23:19Z</time></trkpt>
<trkpt lat="29.048612" lon="99.894704">
<time>2015-08-06T07:23:20Z</time></trkpt>
<trkpt lat="29.048532" lon="99.894694">
<time>2015-08-06T07:23:21Z</time></trkpt>
<trkpt lat="29.048432" lon="99.894674">
<time>2015-08-06T07:23:22Z</time></trkpt>
<trkpt lat="29.048302" lon="99.894634">
<time>2015-08-06T07:23:23Z</time></trkpt>
<trkpt lat="29.048162" lon="99.894574">
<time>2015-08-06T07:23:24Z</time></trkpt>
<trkpt lat="29.048042" lon="99.894524">
<time>2015-08-06T07:23:25Z</time></trkpt>
<trkpt lat="29.047883" lon="99.894394">
<time>2015-08-06T07:23:26Z</time></trkpt>
<trkpt lat="29.047553" lon="99.894014">
<time>2015-08-06T07:23:27Z</time></trkpt>
<trkpt lat="29.047193" lon="99.893514">
<time>2015-08-06T07:23:28Z</time></trkpt>
<trkpt lat="29.046763" lon="99.893043">
<time>2015-08-06T07:23:29Z</time></trkpt>
<trkpt lat="29.046413" lon="99.892663">
<time>2015-08-06T07:23:30Z</time></trkpt>
<trkpt lat="29.046313" lon="99.892523">
<time>2015-08-06T07:23:31Z</time></trkpt>
<trkpt lat="29.046233" lon="99.892383">
<time>2015-08-06T07:23:32Z</time></trkpt>
<trkpt lat="29.046163" lon="99.892203">
<time>2015-08-06T07:23:33Z</time></trkpt>
<trkpt lat="29.046063" lon="99.891853">
<time>2015-08-06T07:23:34Z</time></trkpt>
<trkpt lat="29.046003" lon="99.891623">
<time>2015-08-06T07:23:35Z</time></trkpt>
<trkpt lat="29.045973" lon="99.891403">
<time>2015-08-06T07:23:36Z</time></trkpt>
<trkpt lat="29.045973" lon="99.891213">
<time>2015-08-06T07:23:37Z</time></trkpt>
<trkpt lat="29.045993" lon="99.891043">
<time>2015-08-06T07:23:38Z</time></trkpt>
<trkpt lat="29.046023" lon="99.890862">
<time>2015-08-06T07:23:39Z</time></trkpt>
<trkpt lat="29.046083" lon="99.890632">
<time>2015-08-06T07:23:40Z</time></trkpt>
<trkpt lat="29.046163" lon="99.890422">
<time>2015-08-06T07:23:41Z</time></trkpt>
<trkpt lat="29.046232" lon="99.890272">
<time>2015-08-06T07:23:42Z</time></trkpt>
<trkpt lat="29.046352" lon="99.890072">
<time>2015-08-06T07:23:43Z</time></trkpt>
<trkpt lat="29.046562" lon="99.889812">
<time>2015-08-06T07:23:44Z</time></trkpt>
<trkpt lat="29.046742" lon="99.889542">
<time>2015-08-06T07:23:45Z</time></trkpt>
<trkpt lat="29.046822" lon="99.889372">
<time>2015-08-06T07:23:46Z</time></trkpt>
<trkpt lat="29.046951" lon="99.889091">
<time>2015-08-06T07:23:47Z</time></trkpt>
<trkpt lat="29.047051" lon="99.888811">
<time>2015-08-06T07:23:48Z</time></trkpt>
<trkpt lat="29.047101" lon="99.888611">
<time>2015-08-06T07:23:49Z</time></trkpt>
<trkpt lat="29.047131" lon="99.888461">
<time>2015-08-06T07:23:50Z</time></trkpt>
<trkpt lat="29.047151" lon="99.888241">
<time>2015-08-06T07:23:51Z</time></trkpt>
<trkpt lat="29.047151" lon="99.888061">
<time>2015-08-06T07:23:52Z</time></trkpt>
<trkpt lat="29.047131" lon="99.887901">
<time>2015-08-06T07:23:53Z</time></trkpt>
<trkpt lat="29.04707" lon="99.887681">
<time>2015-08-06T07:23:54Z</time></trkpt>
<trkpt lat="29.04701" lon="99.88751">
<time>2015-08-06T07:23:55Z</time></trkpt>
<trkpt lat="29.04688" lon="99.8872">
<time>2015-08-06T07:23:56Z</time></trkpt>
<trkpt lat="29.04679" lon="99.887">
<time>2015-08-06T07:23:57Z</time></trkpt>
<trkpt lat="29.04669" lon="99.88679">
<time>2015-08-06T07:23:58Z</time></trkpt>
<trkpt lat="29.04655" lon="99.88657">
<time>2015-08-06T07:23:59Z</time></trkpt>
<trkpt lat="29.04628" lon="99.8862">
<time>2015-08-06T07:24:00Z</time></trkpt>
<trkpt lat="29.04536" lon="99.884979">
<time>2015-08-06T07:24:01Z</time></trkpt>
<trkpt lat="29.04521" lon="99.884789">
<time>2015-08-06T07:24:02Z</time></trkpt>
<trkpt lat="29.04508" lon="99.884659">
<time>2015-08-06T07:24:03Z</time></trkpt>
<trkpt lat="29.0449" lon="99.884468">
<time>2015-08-06T07:24:04Z</time></trkpt>
<trkpt lat="29.04474" lon="99.884278">
<time>2015-08-06T07:24:05Z</time></trkpt>
<trkpt lat="29.04466" lon="99.884178">
<time>2015-08-06T07:24:06Z</time></trkpt>
<trkpt lat="29.04451" lon="99.883978">
<time>2015-08-06T07:24:07Z</time></trkpt>
<trkpt lat="29.04434" lon="99.883798">
<time>2015-08-06T07:24:08Z</time></trkpt>
<trkpt lat="29.04421" lon="99.883688">
<time>2015-08-06T07:24:09Z</time></trkpt>
<trkpt lat="29.04402" lon="99.883568">
<time>2015-08-06T07:24:10Z</time></trkpt>
<trkpt lat="29.04378" lon="99.883398">
<time>2015-08-06T07:24:11Z</time></trkpt>
<trkpt lat="29.0435" lon="99.883157">
<time>2015-08-06T07:24:12Z</time></trkpt>
<trkpt lat="29.0432" lon="99.882877">
<time>2015-08-06T07:24:13Z</time></trkpt>
<trkpt lat="29.04283" lon="99.882517">
<time>2015-08-06T07:24:14Z</time></trkpt>
<trkpt lat="29.04243" lon="99.882127">
<time>2015-08-06T07:24:15Z</time></trkpt>
<trkpt lat="29.04194" lon="99.881666">
<time>2015-08-06T07:24:16Z</time></trkpt>
<trkpt lat="29.041441" lon="99.881216">
<time>2015-08-06T07:24:17Z</time></trkpt>
<trkpt lat="29.041241" lon="99.881016">
<time>2015-08-06T07:24:18Z</time></trkpt>
<trkpt lat="29.041121" lon="99.880895">
<time>2015-08-06T07:24:19Z</time></trkpt>
<trkpt lat="29.04107" lon="99.880815">
<time>2015-08-06T07:24:20Z</time></trkpt>
<trkpt lat="29.04098" lon="99.880635">
<time>2015-08-06T07:24:21Z</time></trkpt>
<trkpt lat="29.04093" lon="99.880535">
<time>2015-08-06T07:24:22Z</time></trkpt>
<trkpt lat="29.04058" lon="99.879364">
<time>2015-08-06T07:24:23Z</time></trkpt>
<trkpt lat="29.040409" lon="99.878653">
<time>2015-08-06T07:24:24Z</time></trkpt>
<trkpt lat="29.040349" lon="99.878443">
<time>2015-08-06T07:24:25Z</time></trkpt>
<trkpt lat="29.040289" lon="99.878303">
<time>2015-08-06T07:24:26Z</time></trkpt>
<trkpt lat="29.040239" lon="99.878183">
<time>2015-08-06T07:24:27Z</time></trkpt>
<trkpt lat="29.040129" lon="99.878043">
<time>2015-08-06T07:24:28Z</time></trkpt>
<trkpt lat="29.039989" lon="99.877923">
<time>2015-08-06T07:24:29Z</time></trkpt>
<trkpt lat="29.039799" lon="99.877792">
<time>2015-08-06T07:24:30Z</time></trkpt>
<trkpt lat="29.039609" lon="99.877682">
<time>2015-08-06T07:24:31Z</time></trkpt>
<trkpt lat="29.039449" lon="99.877602">
<time>2015-08-06T07:24:32Z</time></trkpt>
<trkpt lat="29.039219" lon="99.877502">
<time>2015-08-06T07:24:33Z</time></trkpt>
<trkpt lat="29.038939" lon="99.877412">
<time>2015-08-06T07:24:34Z</time></trkpt>
<trkpt lat="29.038829" lon="99.877382">
<time>2015-08-06T07:24:35Z</time></trkpt>
<trkpt lat="29.038709" lon="99.877362">
<time>2015-08-06T07:24:36Z</time></trkpt>
<trkpt lat="29.038569" lon="99.877362">
<time>2015-08-06T07:24:37Z</time></trkpt>
<trkpt lat="29.03845" lon="99.877382">
<time>2015-08-06T07:24:38Z</time></trkpt>
<trkpt lat="29.03829" lon="99.877412">
<time>2015-08-06T07:24:39Z</time></trkpt>
<trkpt lat="29.03782" lon="99.877602">
<time>2015-08-06T07:24:40Z</time></trkpt>
<trkpt lat="29.037301" lon="99.877802">
<time>2015-08-06T07:24:41Z</time></trkpt>
<trkpt lat="29.036372" lon="99.878163">
<time>2015-08-06T07:24:42Z</time></trkpt>
<trkpt lat="29.035753" lon="99.878383">
<time>2015-08-06T07:24:43Z</time></trkpt>
<trkpt lat="29.035393" lon="99.878513">
<time>2015-08-06T07:24:44Z</time></trkpt>
<trkpt lat="29.035173" lon="99.878583">
<time>2015-08-06T07:24:45Z</time></trkpt>
<trkpt lat="29.034963" lon="99.878643">
<time>2015-08-06T07:24:46Z</time></trkpt>
<trkpt lat="29.034744" lon="99.878693">
<time>2015-08-06T07:24:47Z</time></trkpt>
<trkpt lat="29.034084" lon="99.878814">
<time>2015-08-06T07:24:48Z</time></trkpt>
<trkpt lat="29.033595" lon="99.878894">
<time>2015-08-06T07:24:49Z</time></trkpt>
<trkpt lat="29.033095" lon="99.878994">
<time>2015-08-06T07:24:50Z</time></trkpt>
<trkpt lat="29.032656" lon="99.879074">
<time>2015-08-06T07:24:51Z</time></trkpt>
<trkpt lat="29.032416" lon="99.879114">
<time>2015-08-06T07:24:52Z</time></trkpt>
<trkpt lat="29.032056" lon="99.879164">
<time>2015-08-06T07:24:53Z</time></trkpt>
<trkpt lat="29.031786" lon="99.879154">
<time>2015-08-06T07:24:54Z</time></trkpt>
<trkpt lat="29.031437" lon="99.879134">
<time>2015-08-06T07:24:55Z</time></trkpt>
<trkpt lat="29.031137" lon="99.879104">
<time>2015-08-06T07:24:56Z</time></trkpt>
<trkpt lat="29.030877" lon="99.879074">
<time>2015-08-06T07:24:57Z</time></trkpt>
<trkpt lat="29.030667" lon="99.879044">
<time>2015-08-06T07:24:58Z</time></trkpt>
<trkpt lat="29.030407" lon="99.878994">
<time>2015-08-06T07:24:59Z</time></trkpt>
<trkpt lat="29.030287" lon="99.878964">
<time>2015-08-06T07:25:00Z</time></trkpt>
<trkpt lat="29.030098" lon="99.878894">
<time>2015-08-06T07:25:01Z</time></trkpt>
<trkpt lat="29.030028" lon="99.878864">
<time>2015-08-06T07:25:02Z</time></trkpt>
<trkpt lat="29.029738" lon="99.878764">
<time>2015-08-06T07:25:03Z</time></trkpt>
<trkpt lat="29.029538" lon="99.878714">
<time>2015-08-06T07:25:04Z</time></trkpt>
<trkpt lat="29.029308" lon="99.878664">
<time>2015-08-06T07:25:05Z</time></trkpt>
<trkpt lat="29.028998" lon="99.878624">
<time>2015-08-06T07:25:06Z</time></trkpt>
<trkpt lat="29.028489" lon="99.878573">
<time>2015-08-06T07:25:07Z</time></trkpt>
<trkpt lat="29.027939" lon="99.878543">
<time>2015-08-06T07:25:08Z</time></trkpt>
<trkpt lat="29.027439" lon="99.878503">
<time>2015-08-06T07:25:09Z</time></trkpt>
<trkpt lat="29.02721" lon="99.878483">
<time>2015-08-06T07:25:10Z</time></trkpt>
<trkpt lat="29.02683" lon="99.878443">
<time>2015-08-06T07:25:11Z</time></trkpt>
<trkpt lat="29.02649" lon="99.878393">
<time>2015-08-06T07:25:12Z</time></trkpt>
<trkpt lat="29.0262" lon="99.878333">
<time>2015-08-06T07:25:13Z</time></trkpt>
<trkpt lat="29.02591" lon="99.878303">
<time>2015-08-06T07:25:14Z</time></trkpt>
<trkpt lat="29.02588" lon="99.878293">
<time>2015-08-06T07:25:15Z</time></trkpt>
<trkpt lat="29.025481" lon="99.878233">
<time>2015-08-06T07:25:16Z</time></trkpt>
<trkpt lat="29.025261" lon="99.878183">
<time>2015-08-06T07:25:17Z</time></trkpt>
<trkpt lat="29.024981" lon="99.878113">
<time>2015-08-06T07:25:18Z</time></trkpt>
<trkpt lat="29.024761" lon="99.878043">
<time>2015-08-06T07:25:19Z</time></trkpt>
<trkpt lat="29.024651" lon="99.878023">
<time>2015-08-06T07:25:20Z</time></trkpt>
<trkpt lat="29.024511" lon="99.878003">
<time>2015-08-06T07:25:21Z</time></trkpt>
<trkpt lat="29.024401" lon="99.878003">
<time>2015-08-06T07:25:22Z</time></trkpt>
<trkpt lat="29.024291" lon="99.878013">
<time>2015-08-06T07:25:23Z</time></trkpt>
<trkpt lat="29.024192" lon="99.878043">
<time>2015-08-06T07:25:24Z</time></trkpt>
<trkpt lat="29.024012" lon="99.878123">
<time>2015-08-06T07:25:25Z</time></trkpt>
<trkpt lat="29.023722" lon="99.878253">
<time>2015-08-06T07:25:26Z</time></trkpt>
<trkpt lat="29.023353" lon="99.878433">
<time>2015-08-06T07:25:27Z</time></trkpt>
<trkpt lat="29.023093" lon="99.878554">
<time>2015-08-06T07:25:28Z</time></trkpt>
<trkpt lat="29.022843" lon="99.878644">
<time>2015-08-06T07:25:29Z</time></trkpt>
<trkpt lat="29.022573" lon="99.878694">
<time>2015-08-06T07:25:30Z</time></trkpt>
<trkpt lat="29.022344" lon="99.878724">
<time>2015-08-06T07:25:31Z</time></trkpt>
<trkpt lat="29.022234" lon="99.878724">
<time>2015-08-06T07:25:32Z</time></trkpt>
<trkpt lat="29.022114" lon="99.878704">
<time>2015-08-06T07:25:33Z</time></trkpt>
<trkpt lat="29.021954" lon="99.878654">
<time>2015-08-06T07:25:34Z</time></trkpt>
<trkpt lat="29.021834" lon="99.878584">
<time>2015-08-06T07:25:35Z</time></trkpt>
<trkpt lat="29.021714" lon="99.878504">
<time>2015-08-06T07:25:36Z</time></trkpt>
<trkpt lat="29.021654" lon="99.878434">
<time>2015-08-06T07:25:37Z</time></trkpt>
<trkpt lat="29.021554" lon="99.878273">
<time>2015-08-06T07:25:38Z</time></trkpt>
<trkpt lat="29.021484" lon="99.878123">
<time>2015-08-06T07:25:39Z</time></trkpt>
<trkpt lat="29.021444" lon="99.878003">
<time>2015-08-06T07:25:40Z</time></trkpt>
<trkpt lat="29.021404" lon="99.877863">
<time>2015-08-06T07:25:41Z</time></trkpt>
<trkpt lat="29.021373" lon="99.877743">
<time>2015-08-06T07:25:42Z</time></trkpt>
<trkpt lat="29.021373" lon="99.877613">
<time>2015-08-06T07:25:43Z</time></trkpt>
<trkpt lat="29.021383" lon="99.877463">
<time>2015-08-06T07:25:44Z</time></trkpt>
<trkpt lat="29.021423" lon="99.877312">
<time>2015-08-06T07:25:45Z</time></trkpt>
<trkpt lat="29.021483" lon="99.877172">
<time>2015-08-06T07:25:46Z</time></trkpt>
<trkpt lat="29.021533" lon="99.877062">
<time>2015-08-06T07:25:47Z</time></trkpt>
<trkpt lat="29.021602" lon="99.876892">
<time>2015-08-06T07:25:48Z</time></trkpt>
<trkpt lat="29.021642" lon="99.876742">
<time>2015-08-06T07:25:49Z</time></trkpt>
<trkpt lat="29.021702" lon="99.876542">
<time>2015-08-06T07:25:50Z</time></trkpt>
<trkpt lat="29.021732" lon="99.876421">
<time>2015-08-06T07:25:51Z</time></trkpt>
<trkpt lat="29.021792" lon="99.876251">
<time>2015-08-06T07:25:52Z</time></trkpt>
<trkpt lat="29.021981" lon="99.875841">
<time>2015-08-06T07:25:53Z</time></trkpt>
<trkpt lat="29.022041" lon="99.875691">
<time>2015-08-06T07:25:54Z</time></trkpt>
<trkpt lat="29.022151" lon="99.87548">
<time>2015-08-06T07:25:55Z</time></trkpt>
<trkpt lat="29.022201" lon="99.87539">
<time>2015-08-06T07:25:56Z</time></trkpt>
<trkpt lat="29.02228" lon="99.87528">
<time>2015-08-06T07:25:57Z</time></trkpt>
<trkpt lat="29.02241" lon="99.87513">
<time>2015-08-06T07:25:58Z</time></trkpt>
<trkpt lat="29.02248" lon="99.87505">
<time>2015-08-06T07:25:59Z</time></trkpt>
<trkpt lat="29.022759" lon="99.874759">
<time>2015-08-06T07:26:00Z</time></trkpt>
<trkpt lat="29.022919" lon="99.874589">
<time>2015-08-06T07:26:01Z</time></trkpt>
<trkpt lat="29.023248" lon="99.874149">
<time>2015-08-06T07:26:02Z</time></trkpt>
<trkpt lat="29.023727" lon="99.873508">
<time>2015-08-06T07:26:03Z</time></trkpt>
<trkpt lat="29.023987" lon="99.873137">
<time>2015-08-06T07:26:04Z</time></trkpt>
<trkpt lat="29.024086" lon="99.872927">
<time>2015-08-06T07:26:05Z</time></trkpt>
<trkpt lat="29.024186" lon="99.872727">
<time>2015-08-06T07:26:06Z</time></trkpt>
<trkpt lat="29.024246" lon="99.872507">
<time>2015-08-06T07:26:07Z</time></trkpt>
<trkpt lat="29.024286" lon="99.872286">
<time>2015-08-06T07:26:08Z</time></trkpt>
<trkpt lat="29.024305" lon="99.872016">
<time>2015-08-06T07:26:09Z</time></trkpt>
<trkpt lat="29.024305" lon="99.871746">
<time>2015-08-06T07:26:10Z</time></trkpt>
<trkpt lat="29.024285" lon="99.871325">
<time>2015-08-06T07:26:11Z</time></trkpt>
<trkpt lat="29.024224" lon="99.871005">
<time>2015-08-06T07:26:12Z</time></trkpt>
<trkpt lat="29.024104" lon="99.870564">
<time>2015-08-06T07:26:13Z</time></trkpt>
<trkpt lat="29.023873" lon="99.869933">
<time>2015-08-06T07:26:14Z</time></trkpt>
<trkpt lat="29.023713" lon="99.869453">
<time>2015-08-06T07:26:15Z</time></trkpt>
<trkpt lat="29.023442" lon="99.868712">
<time>2015-08-06T07:26:16Z</time></trkpt>
<trkpt lat="29.023332" lon="99.868461">
<time>2015-08-06T07:26:17Z</time></trkpt>
<trkpt lat="29.023182" lon="99.868091">
<time>2015-08-06T07:26:18Z</time></trkpt>
<trkpt lat="29.023121" lon="99.867901">
<time>2015-08-06T07:26:19Z</time></trkpt>
<trkpt lat="29.023041" lon="99.8674">
<time>2015-08-06T07:26:20Z</time></trkpt>
<trkpt lat="29.022991" lon="99.86719">
<time>2015-08-06T07:26:21Z</time></trkpt>
<trkpt lat="29.02289" lon="99.866869">
<time>2015-08-06T07:26:22Z</time></trkpt>
<trkpt lat="29.02268" lon="99.866378">
<time>2015-08-06T07:26:23Z</time></trkpt>
<trkpt lat="29.022239" lon="99.865447">
<time>2015-08-06T07:26:24Z</time></trkpt>
<trkpt lat="29.022088" lon="99.865066">
<time>2015-08-06T07:26:25Z</time></trkpt>
<trkpt lat="29.022058" lon="99.864936">
<time>2015-08-06T07:26:26Z</time></trkpt>
<trkpt lat="29.022038" lon="99.864736">
<time>2015-08-06T07:26:27Z</time></trkpt>
<trkpt lat="29.022048" lon="99.864415">
<time>2015-08-06T07:26:28Z</time></trkpt>
<trkpt lat="29.022027" lon="99.864225">
<time>2015-08-06T07:26:29Z</time></trkpt>
<trkpt lat="29.021947" lon="99.863885">
<time>2015-08-06T07:26:30Z</time></trkpt>
<trkpt lat="29.021767" lon="99.863484">
<time>2015-08-06T07:26:31Z</time></trkpt>
<trkpt lat="29.021616" lon="99.863174">
<time>2015-08-06T07:26:32Z</time></trkpt>
<trkpt lat="29.021526" lon="99.862993">
<time>2015-08-06T07:26:33Z</time></trkpt>
<trkpt lat="29.021396" lon="99.862793">
<time>2015-08-06T07:26:34Z</time></trkpt>
<trkpt lat="29.021256" lon="99.862613">
<time>2015-08-06T07:26:35Z</time></trkpt>
<trkpt lat="29.021146" lon="99.862492">
<time>2015-08-06T07:26:36Z</time></trkpt>
<trkpt lat="29.020996" lon="99.862362">
<time>2015-08-06T07:26:37Z</time></trkpt>
<trkpt lat="29.020445" lon="99.861902">
<time>2015-08-06T07:26:38Z</time></trkpt>
<trkpt lat="29.019845" lon="99.861401">
<time>2015-08-06T07:26:39Z</time></trkpt>
<trkpt lat="29.019625" lon="99.86122">
<time>2015-08-06T07:26:40Z</time></trkpt>
<trkpt lat="29.019455" lon="99.8611">
<time>2015-08-06T07:26:41Z</time></trkpt>
<trkpt lat="29.019245" lon="99.86096">
<time>2015-08-06T07:26:42Z</time></trkpt>
<trkpt lat="29.019095" lon="99.8609">
<time>2015-08-06T07:26:43Z</time></trkpt>
<trkpt lat="29.018985" lon="99.86087">
<time>2015-08-06T07:26:44Z</time></trkpt>
<trkpt lat="29.018385" lon="99.86074">
<time>2015-08-06T07:26:45Z</time></trkpt>
<trkpt lat="29.017276" lon="99.860509">
<time>2015-08-06T07:26:46Z</time></trkpt>
<trkpt lat="29.016596" lon="99.860349">
<time>2015-08-06T07:26:47Z</time></trkpt>
<trkpt lat="29.015407" lon="99.860099">
<time>2015-08-06T07:26:48Z</time></trkpt>
<trkpt lat="29.014767" lon="99.859949">
<time>2015-08-06T07:26:49Z</time></trkpt>
<trkpt lat="29.014627" lon="99.859918">
<time>2015-08-06T07:26:50Z</time></trkpt>
<trkpt lat="29.014477" lon="99.859888">
<time>2015-08-06T07:26:51Z</time></trkpt>
<trkpt lat="29.014267" lon="99.859818">
<time>2015-08-06T07:26:52Z</time></trkpt>
<trkpt lat="29.014087" lon="99.859748">
<time>2015-08-06T07:26:53Z</time></trkpt>
<trkpt lat="29.013957" lon="99.859668">
<time>2015-08-06T07:26:54Z</time></trkpt>
<trkpt lat="29.013807" lon="99.859558">
<time>2015-08-06T07:26:55Z</time></trkpt>
<trkpt lat="29.013457" lon="99.859217">
<time>2015-08-06T07:26:56Z</time></trkpt>
<trkpt lat="29.013177" lon="99.858897">
<time>2015-08-06T07:26:57Z</time></trkpt>
<trkpt lat="29.012937" lon="99.858556">
<time>2015-08-06T07:26:58Z</time></trkpt>
<trkpt lat="29.012506" lon="99.857925">
<time>2015-08-06T07:26:59Z</time></trkpt>
<trkpt lat="29.012206" lon="99.857494">
<time>2015-08-06T07:27:00Z</time></trkpt>
<trkpt lat="29.012055" lon="99.857304">
<time>2015-08-06T07:27:01Z</time></trkpt>
<trkpt lat="29.011835" lon="99.857084">
<time>2015-08-06T07:27:02Z</time></trkpt>
<trkpt lat="29.011205" lon="99.856393">
<time>2015-08-06T07:27:03Z</time></trkpt>
<trkpt lat="29.010974" lon="99.856092">
<time>2015-08-06T07:27:04Z</time></trkpt>
<trkpt lat="29.010774" lon="99.855822">
<time>2015-08-06T07:27:05Z</time></trkpt>
<trkpt lat="29.010694" lon="99.855681">
<time>2015-08-06T07:27:06Z</time></trkpt>
<trkpt lat="29.010624" lon="99.855541">
<time>2015-08-06T07:27:07Z</time></trkpt>
<trkpt lat="29.010563" lon="99.855341">
<time>2015-08-06T07:27:08Z</time></trkpt>
<trkpt lat="29.010483" lon="99.85492">
<time>2015-08-06T07:27:09Z</time></trkpt>
<trkpt lat="29.010451" lon="99.853848">
<time>2015-08-06T07:27:10Z</time></trkpt>
<trkpt lat="29.01049" lon="99.853217">
<time>2015-08-06T07:27:11Z</time></trkpt>
<trkpt lat="29.01047" lon="99.852926">
<time>2015-08-06T07:27:12Z</time></trkpt>
<trkpt lat="29.010429" lon="99.852666">
<time>2015-08-06T07:27:13Z</time></trkpt>
<trkpt lat="29.010359" lon="99.852225">
<time>2015-08-06T07:27:14Z</time></trkpt>
<trkpt lat="29.010308" lon="99.851945">
<time>2015-08-06T07:27:15Z</time></trkpt>
<trkpt lat="29.010268" lon="99.851724">
<time>2015-08-06T07:27:16Z</time></trkpt>
<trkpt lat="29.010157" lon="99.851444">
<time>2015-08-06T07:27:17Z</time></trkpt>
<trkpt lat="29.010067" lon="99.851303">
<time>2015-08-06T07:27:18Z</time></trkpt>
<trkpt lat="29.009907" lon="99.851073">
<time>2015-08-06T07:27:19Z</time></trkpt>
<trkpt lat="29.009466" lon="99.850482">
<time>2015-08-06T07:27:20Z</time></trkpt>
<trkpt lat="29.009386" lon="99.850322">
<time>2015-08-06T07:27:21Z</time></trkpt>
<trkpt lat="29.009075" lon="99.84969">
<time>2015-08-06T07:27:22Z</time></trkpt>
<trkpt lat="29.008935" lon="99.8494">
<time>2015-08-06T07:27:23Z</time></trkpt>
<trkpt lat="29.008785" lon="99.849169">
<time>2015-08-06T07:27:24Z</time></trkpt>
<trkpt lat="29.008655" lon="99.849019">
<time>2015-08-06T07:27:25Z</time></trkpt>
<trkpt lat="29.008274" lon="99.848648">
<time>2015-08-06T07:27:26Z</time></trkpt>
<trkpt lat="29.008004" lon="99.848378">
<time>2015-08-06T07:27:27Z</time></trkpt>
<trkpt lat="29.007784" lon="99.848178">
<time>2015-08-06T07:27:28Z</time></trkpt>
<trkpt lat="29.007404" lon="99.847897">
<time>2015-08-06T07:27:29Z</time></trkpt>
<trkpt lat="29.007214" lon="99.847757">
<time>2015-08-06T07:27:30Z</time></trkpt>
<trkpt lat="29.007024" lon="99.847667">
<time>2015-08-06T07:27:31Z</time></trkpt>
<trkpt lat="29.006784" lon="99.847566">
<time>2015-08-06T07:27:32Z</time></trkpt>
<trkpt lat="29.006384" lon="99.847446">
<time>2015-08-06T07:27:33Z</time></trkpt>
<trkpt lat="29.005884" lon="99.847276">
<time>2015-08-06T07:27:34Z</time></trkpt>
<trkpt lat="29.005724" lon="99.847186">
<time>2015-08-06T07:27:35Z</time></trkpt>
<trkpt lat="29.005484" lon="99.847065">
<time>2015-08-06T07:27:36Z</time></trkpt>
<trkpt lat="29.005224" lon="99.847005">
<time>2015-08-06T07:27:37Z</time></trkpt>
<trkpt lat="29.005064" lon="99.846995">
<time>2015-08-06T07:27:38Z</time></trkpt>
<trkpt lat="29.004834" lon="99.846995">
<time>2015-08-06T07:27:39Z</time></trkpt>
<trkpt lat="29.004055" lon="99.847116">
<time>2015-08-06T07:27:40Z</time></trkpt>
<trkpt lat="29.002826" lon="99.847346">
<time>2015-08-06T07:27:41Z</time></trkpt>
<trkpt lat="29.002507" lon="99.847366">
<time>2015-08-06T07:27:42Z</time></trkpt>
<trkpt lat="29.002257" lon="99.847326">
<time>2015-08-06T07:27:43Z</time></trkpt>
<trkpt lat="29.001887" lon="99.847236">
<time>2015-08-06T07:27:44Z</time></trkpt>
<trkpt lat="29.001447" lon="99.847166">
<time>2015-08-06T07:27:45Z</time></trkpt>
<trkpt lat="29.001157" lon="99.847116">
<time>2015-08-06T07:27:46Z</time></trkpt>
<trkpt lat="29.000907" lon="99.847035">
<time>2015-08-06T07:27:47Z</time></trkpt>
<trkpt lat="29.000597" lon="99.846835">
<time>2015-08-06T07:27:48Z</time></trkpt>
<trkpt lat="29.000047" lon="99.846494">
<time>2015-08-06T07:27:49Z</time></trkpt>
<trkpt lat="28.999427" lon="99.846124">
<time>2015-08-06T07:27:50Z</time></trkpt>
<trkpt lat="28.998857" lon="99.845773">
<time>2015-08-06T07:27:51Z</time></trkpt>
<trkpt lat="28.998657" lon="99.845663">
<time>2015-08-06T07:27:52Z</time></trkpt>
<trkpt lat="28.998437" lon="99.845563">
<time>2015-08-06T07:27:53Z</time></trkpt>
<trkpt lat="28.997997" lon="99.845402">
<time>2015-08-06T07:27:54Z</time></trkpt>
<trkpt lat="28.997757" lon="99.845292">
<time>2015-08-06T07:27:55Z</time></trkpt>
<trkpt lat="28.997367" lon="99.845092">
<time>2015-08-06T07:27:56Z</time></trkpt>
<trkpt lat="28.997197" lon="99.845002">
<time>2015-08-06T07:27:57Z</time></trkpt>
<trkpt lat="28.996777" lon="99.844811">
<time>2015-08-06T07:27:58Z</time></trkpt>
<trkpt lat="28.996097" lon="99.844521">
<time>2015-08-06T07:27:59Z</time></trkpt>
<trkpt lat="28.995887" lon="99.84443">
<time>2015-08-06T07:28:00Z</time></trkpt>
<trkpt lat="28.995727" lon="99.84437">
<time>2015-08-06T07:28:01Z</time></trkpt>
<trkpt lat="28.995457" lon="99.84429">
<time>2015-08-06T07:28:02Z</time></trkpt>
<trkpt lat="28.995037" lon="99.84418">
<time>2015-08-06T07:28:03Z</time></trkpt>
<trkpt lat="28.994827" lon="99.8441">
<time>2015-08-06T07:28:04Z</time></trkpt>
<trkpt lat="28.994677" lon="99.84402">
<time>2015-08-06T07:28:05Z</time></trkpt>
<trkpt lat="28.994547" lon="99.84394">
<time>2015-08-06T07:28:06Z</time></trkpt>
<trkpt lat="28.994407" lon="99.843839">
<time>2015-08-06T07:28:07Z</time></trkpt>
<trkpt lat="28.994287" lon="99.843749">
<time>2015-08-06T07:28:08Z</time></trkpt>
<trkpt lat="28.994037" lon="99.843519">
<time>2015-08-06T07:28:09Z</time></trkpt>
<trkpt lat="28.993446" lon="99.842897">
<time>2015-08-06T07:28:10Z</time></trkpt>
<trkpt lat="28.993286" lon="99.842757">
<time>2015-08-06T07:28:11Z</time></trkpt>
<trkpt lat="28.993106" lon="99.842607">
<time>2015-08-06T07:28:12Z</time></trkpt>
<trkpt lat="28.992886" lon="99.842437">
<time>2015-08-06T07:28:13Z</time></trkpt>
<trkpt lat="28.992806" lon="99.842386">
<time>2015-08-06T07:28:14Z</time></trkpt>
<trkpt lat="28.992716" lon="99.842346">
<time>2015-08-06T07:28:15Z</time></trkpt>
<trkpt lat="28.992636" lon="99.842336">
<time>2015-08-06T07:28:16Z</time></trkpt>
<trkpt lat="28.992596" lon="99.842326">
<time>2015-08-06T07:28:17Z</time></trkpt>
<trkpt lat="28.992496" lon="99.842326">
<time>2015-08-06T07:28:18Z</time></trkpt>
<trkpt lat="28.992326" lon="99.842356">
<time>2015-08-06T07:28:19Z</time></trkpt>
<trkpt lat="28.991926" lon="99.842457">
<time>2015-08-06T07:28:20Z</time></trkpt>
<trkpt lat="28.991447" lon="99.842587">
<time>2015-08-06T07:28:21Z</time></trkpt>
<trkpt lat="28.991217" lon="99.842637">
<time>2015-08-06T07:28:22Z</time></trkpt>
<trkpt lat="28.991008" lon="99.842677">
<time>2015-08-06T07:28:23Z</time></trkpt>
<trkpt lat="28.990768" lon="99.842707">
<time>2015-08-06T07:28:24Z</time></trkpt>
<trkpt lat="28.990588" lon="99.842727">
<time>2015-08-06T07:28:25Z</time></trkpt>
<trkpt lat="28.990368" lon="99.842737">
<time>2015-08-06T07:28:26Z</time></trkpt>
<trkpt lat="28.990088" lon="99.842737">
<time>2015-08-06T07:28:27Z</time></trkpt>
<trkpt lat="28.989988" lon="99.842727">
<time>2015-08-06T07:28:28Z</time></trkpt>
<trkpt lat="28.989779" lon="99.842707">
<time>2015-08-06T07:28:29Z</time></trkpt>
<trkpt lat="28.989519" lon="99.842667">
<time>2015-08-06T07:28:30Z</time></trkpt>
<trkpt lat="28.989179" lon="99.842597">
<time>2015-08-06T07:28:31Z</time></trkpt>
<trkpt lat="28.988699" lon="99.842507">
<time>2015-08-06T07:28:32Z</time></trkpt>
<trkpt lat="28.988619" lon="99.842477">
<time>2015-08-06T07:28:33Z</time></trkpt>
<trkpt lat="28.988449" lon="99.842407">
<time>2015-08-06T07:28:34Z</time></trkpt>
<trkpt lat="28.988329" lon="99.842336">
<time>2015-08-06T07:28:35Z</time></trkpt>
<trkpt lat="28.988249" lon="99.842286">
<time>2015-08-06T07:28:36Z</time></trkpt>
<trkpt lat="28.988219" lon="99.842246">
<time>2015-08-06T07:28:37Z</time></trkpt>
<trkpt lat="28.988159" lon="99.842186">
<time>2015-08-06T07:28:38Z</time></trkpt>
<trkpt lat="28.987878" lon="99.841555">
<time>2015-08-06T07:28:39Z</time></trkpt>
<trkpt lat="28.987808" lon="99.841415">
<time>2015-08-06T07:28:40Z</time></trkpt>
<trkpt lat="28.987768" lon="99.841355">
<time>2015-08-06T07:28:41Z</time></trkpt>
<trkpt lat="28.987708" lon="99.841314">
<time>2015-08-06T07:28:42Z</time></trkpt>
<trkpt lat="28.987658" lon="99.841294">
<time>2015-08-06T07:28:43Z</time></trkpt>
<trkpt lat="28.987598" lon="99.841274">
<time>2015-08-06T07:28:44Z</time></trkpt>
<trkpt lat="28.987548" lon="99.841284">
<time>2015-08-06T07:28:45Z</time></trkpt>
<trkpt lat="28.987498" lon="99.841284">
<time>2015-08-06T07:28:46Z</time></trkpt>
<trkpt lat="28.987388" lon="99.841334">
<time>2015-08-06T07:28:47Z</time></trkpt>
<trkpt lat="28.986959" lon="99.841595">
<time>2015-08-06T07:28:48Z</time></trkpt>
<trkpt lat="28.986869" lon="99.841635">
<time>2015-08-06T07:28:49Z</time></trkpt>
<trkpt lat="28.986769" lon="99.841665">
<time>2015-08-06T07:28:50Z</time></trkpt>
<trkpt lat="28.986669" lon="99.841685">
<time>2015-08-06T07:28:51Z</time></trkpt>
<trkpt lat="28.98629" lon="99.841755">
<time>2015-08-06T07:28:52Z</time></trkpt>
<trkpt lat="28.98576" lon="99.841906">
<time>2015-08-06T07:28:53Z</time></trkpt>
<trkpt lat="28.985201" lon="99.842036">
<time>2015-08-06T07:28:54Z</time></trkpt>
<trkpt lat="28.984872" lon="99.842156">
<time>2015-08-06T07:28:55Z</time></trkpt>
<trkpt lat="28.984602" lon="99.842256">
<time>2015-08-06T07:28:56Z</time></trkpt>
<trkpt lat="28.984352" lon="99.842427">
<time>2015-08-06T07:28:57Z</time></trkpt>
<trkpt lat="28.984213" lon="99.842547">
<time>2015-08-06T07:28:58Z</time></trkpt>
<trkpt lat="28.983983" lon="99.842828">
<time>2015-08-06T07:28:59Z</time></trkpt>
<trkpt lat="28.983824" lon="99.843088">
<time>2015-08-06T07:29:00Z</time></trkpt>
<trkpt lat="28.983714" lon="99.843279">
<time>2015-08-06T07:29:01Z</time></trkpt>
<trkpt lat="28.983555" lon="99.843669">
<time>2015-08-06T07:29:02Z</time></trkpt>
<trkpt lat="28.983307" lon="99.844321">
<time>2015-08-06T07:29:03Z</time></trkpt>
<trkpt lat="28.983247" lon="99.844431">
<time>2015-08-06T07:29:04Z</time></trkpt>
<trkpt lat="28.983187" lon="99.844521">
<time>2015-08-06T07:29:05Z</time></trkpt>
<trkpt lat="28.983067" lon="99.844621">
<time>2015-08-06T07:29:06Z</time></trkpt>
<trkpt lat="28.982788" lon="99.844882">
<time>2015-08-06T07:29:07Z</time></trkpt>
<trkpt lat="28.982539" lon="99.845172">
<time>2015-08-06T07:29:08Z</time></trkpt>
<trkpt lat="28.98214" lon="99.845563">
<time>2015-08-06T07:29:09Z</time></trkpt>
<trkpt lat="28.98191" lon="99.845804">
<time>2015-08-06T07:29:10Z</time></trkpt>
<trkpt lat="28.981681" lon="99.845994">
<time>2015-08-06T07:29:11Z</time></trkpt>
<trkpt lat="28.981641" lon="99.846034">
<time>2015-08-06T07:29:12Z</time></trkpt>
<trkpt lat="28.981401" lon="99.846164">
<time>2015-08-06T07:29:13Z</time></trkpt>
<trkpt lat="28.981222" lon="99.846234">
<time>2015-08-06T07:29:14Z</time></trkpt>
<trkpt lat="28.980812" lon="99.846375">
<time>2015-08-06T07:29:15Z</time></trkpt>
<trkpt lat="28.980592" lon="99.846415">
<time>2015-08-06T07:29:16Z</time></trkpt>
<trkpt lat="28.980493" lon="99.846425">
<time>2015-08-06T07:29:17Z</time></trkpt>
<trkpt lat="28.980413" lon="99.846415">
<time>2015-08-06T07:29:18Z</time></trkpt>
<trkpt lat="28.980323" lon="99.846405">
<time>2015-08-06T07:29:19Z</time></trkpt>
<trkpt lat="28.980143" lon="99.846355">
<time>2015-08-06T07:29:20Z</time></trkpt>
<trkpt lat="28.980013" lon="99.846305">
<time>2015-08-06T07:29:21Z</time></trkpt>
<trkpt lat="28.979883" lon="99.846234">
<time>2015-08-06T07:29:22Z</time></trkpt>
<trkpt lat="28.979773" lon="99.846144">
<time>2015-08-06T07:29:23Z</time></trkpt>
<trkpt lat="28.979642" lon="99.846024">
<time>2015-08-06T07:29:24Z</time></trkpt>
<trkpt lat="28.979542" lon="99.845904">
<time>2015-08-06T07:29:25Z</time></trkpt>
<trkpt lat="28.978981" lon="99.845062">
<time>2015-08-06T07:29:26Z</time></trkpt>
<trkpt lat="28.97845" lon="99.8442">
<time>2015-08-06T07:29:27Z</time></trkpt>
<trkpt lat="28.9782" lon="99.84385">
<time>2015-08-06T07:29:28Z</time></trkpt>
<trkpt lat="28.97802" lon="99.843629">
<time>2015-08-06T07:29:29Z</time></trkpt>
<trkpt lat="28.977729" lon="99.843359">
<time>2015-08-06T07:29:30Z</time></trkpt>
<trkpt lat="28.977259" lon="99.842998">
<time>2015-08-06T07:29:31Z</time></trkpt>
<trkpt lat="28.977019" lon="99.842838">
<time>2015-08-06T07:29:32Z</time></trkpt>
<trkpt lat="28.976859" lon="99.842758">
<time>2015-08-06T07:29:33Z</time></trkpt>
<trkpt lat="28.976679" lon="99.842667">
<time>2015-08-06T07:29:34Z</time></trkpt>
<trkpt lat="28.976179" lon="99.842497">
<time>2015-08-06T07:29:35Z</time></trkpt>
<trkpt lat="28.975849" lon="99.842397">
<time>2015-08-06T07:29:36Z</time></trkpt>
<trkpt lat="28.975609" lon="99.842347">
<time>2015-08-06T07:29:37Z</time></trkpt>
<trkpt lat="28.975379" lon="99.842317">
<time>2015-08-06T07:29:38Z</time></trkpt>
<trkpt lat="28.975219" lon="99.842307">
<time>2015-08-06T07:29:39Z</time></trkpt>
<trkpt lat="28.9749" lon="99.842307">
<time>2015-08-06T07:29:40Z</time></trkpt>
<trkpt lat="28.97447" lon="99.842337">
<time>2015-08-06T07:29:41Z</time></trkpt>
<trkpt lat="28.974031" lon="99.842397">
<time>2015-08-06T07:29:42Z</time></trkpt>
<trkpt lat="28.973841" lon="99.842447">
<time>2015-08-06T07:29:43Z</time></trkpt>
<trkpt lat="28.973521" lon="99.842537">
<time>2015-08-06T07:29:44Z</time></trkpt>
<trkpt lat="28.973371" lon="99.842597">
<time>2015-08-06T07:29:45Z</time></trkpt>
<trkpt lat="28.973022" lon="99.842748">
<time>2015-08-06T07:29:46Z</time></trkpt>
<trkpt lat="28.972962" lon="99.842758">
<time>2015-08-06T07:29:47Z</time></trkpt>
<trkpt lat="28.972852" lon="99.842788">
<time>2015-08-06T07:29:48Z</time></trkpt>
<trkpt lat="28.972752" lon="99.842798">
<time>2015-08-06T07:29:49Z</time></trkpt>
<trkpt lat="28.972612" lon="99.842818">
<time>2015-08-06T07:29:50Z</time></trkpt>
<trkpt lat="28.972043" lon="99.842848">
<time>2015-08-06T07:29:51Z</time></trkpt>
<trkpt lat="28.971963" lon="99.842838">
<time>2015-08-06T07:29:52Z</time></trkpt>
<trkpt lat="28.971883" lon="99.842828">
<time>2015-08-06T07:29:53Z</time></trkpt>
<trkpt lat="28.971783" lon="99.842808">
<time>2015-08-06T07:29:54Z</time></trkpt>
<trkpt lat="28.971703" lon="99.842768">
<time>2015-08-06T07:29:55Z</time></trkpt>
<trkpt lat="28.971623" lon="99.842738">
<time>2015-08-06T07:29:56Z</time></trkpt>
<trkpt lat="28.971563" lon="99.842698">
<time>2015-08-06T07:29:57Z</time></trkpt>
<trkpt lat="28.971483" lon="99.842648">
<time>2015-08-06T07:29:58Z</time></trkpt>
<trkpt lat="28.971343" lon="99.842537">
<time>2015-08-06T07:29:59Z</time></trkpt>
<trkpt lat="28.971163" lon="99.842387">
<time>2015-08-06T07:30:00Z</time></trkpt>
<trkpt lat="28.970822" lon="99.842046">
<time>2015-08-06T07:30:01Z</time></trkpt>
<trkpt lat="28.970352" lon="99.841615">
<time>2015-08-06T07:30:02Z</time></trkpt>
<trkpt lat="28.970252" lon="99.841515">
<time>2015-08-06T07:30:03Z</time></trkpt>
<trkpt lat="28.970152" lon="99.841395">
<time>2015-08-06T07:30:04Z</time></trkpt>
<trkpt lat="28.970112" lon="99.841335">
<time>2015-08-06T07:30:05Z</time></trkpt>
<trkpt lat="28.970062" lon="99.841255">
<time>2015-08-06T07:30:06Z</time></trkpt>
<trkpt lat="28.970001" lon="99.841125">
<time>2015-08-06T07:30:07Z</time></trkpt>
<trkpt lat="28.969951" lon="99.841004">
<time>2015-08-06T07:30:08Z</time></trkpt>
<trkpt lat="28.969871" lon="99.840744">
<time>2015-08-06T07:30:09Z</time></trkpt>
<trkpt lat="28.96963" lon="99.839962">
<time>2015-08-06T07:30:10Z</time></trkpt>
<trkpt lat="28.969248" lon="99.83873">
<time>2015-08-06T07:30:11Z</time></trkpt>
<trkpt lat="28.969207" lon="99.838579">
<time>2015-08-06T07:30:12Z</time></trkpt>
<trkpt lat="28.969137" lon="99.838239">
<time>2015-08-06T07:30:13Z</time></trkpt>
<trkpt lat="28.969106" lon="99.838018">
<time>2015-08-06T07:30:14Z</time></trkpt>
<trkpt lat="28.968995" lon="99.837417">
<time>2015-08-06T07:30:15Z</time></trkpt>
<trkpt lat="28.968915" lon="99.836996">
<time>2015-08-06T07:30:16Z</time></trkpt>
<trkpt lat="28.968864" lon="99.836705">
<time>2015-08-06T07:30:17Z</time></trkpt>
<trkpt lat="28.968794" lon="99.836325">
<time>2015-08-06T07:30:18Z</time></trkpt>
<trkpt lat="28.968713" lon="99.835874">
<time>2015-08-06T07:30:19Z</time></trkpt>
<trkpt lat="28.968642" lon="99.835413">
<time>2015-08-06T07:30:20Z</time></trkpt>
<trkpt lat="28.968531" lon="99.834591">
<time>2015-08-06T07:30:21Z</time></trkpt>
<trkpt lat="28.96849" lon="99.83425">
<time>2015-08-06T07:30:22Z</time></trkpt>
<trkpt lat="28.96845" lon="99.83402">
<time>2015-08-06T07:30:23Z</time></trkpt>
<trkpt lat="28.968399" lon="99.833759">
<time>2015-08-06T07:30:24Z</time></trkpt>
<trkpt lat="28.968349" lon="99.833559">
<time>2015-08-06T07:30:25Z</time></trkpt>
<trkpt lat="28.968299" lon="99.833409">
<time>2015-08-06T07:30:26Z</time></trkpt>
<trkpt lat="28.968208" lon="99.833168">
<time>2015-08-06T07:30:27Z</time></trkpt>
<trkpt lat="28.968178" lon="99.833088">
<time>2015-08-06T07:30:28Z</time></trkpt>
<trkpt lat="28.967977" lon="99.832707">
<time>2015-08-06T07:30:29Z</time></trkpt>
<trkpt lat="28.967596" lon="99.831996">
<time>2015-08-06T07:30:30Z</time></trkpt>
<trkpt lat="28.967406" lon="99.831625">
<time>2015-08-06T07:30:31Z</time></trkpt>
<trkpt lat="28.967235" lon="99.831294">
<time>2015-08-06T07:30:32Z</time></trkpt>
<trkpt lat="28.967125" lon="99.831074">
<time>2015-08-06T07:30:33Z</time></trkpt>
<trkpt lat="28.967075" lon="99.830954">
<time>2015-08-06T07:30:34Z</time></trkpt>
<trkpt lat="28.967025" lon="99.830823">
<time>2015-08-06T07:30:35Z</time></trkpt>
<trkpt lat="28.966995" lon="99.830743">
<time>2015-08-06T07:30:36Z</time></trkpt>
<trkpt lat="28.966964" lon="99.830643">
<time>2015-08-06T07:30:37Z</time></trkpt>
<trkpt lat="28.966914" lon="99.830402">
<time>2015-08-06T07:30:38Z</time></trkpt>
<trkpt lat="28.966884" lon="99.830172">
<time>2015-08-06T07:30:39Z</time></trkpt>
<trkpt lat="28.966853" lon="99.829921">
<time>2015-08-06T07:30:40Z</time></trkpt>
<trkpt lat="28.966832" lon="99.829551">
<time>2015-08-06T07:30:41Z</time></trkpt>
<trkpt lat="28.966822" lon="99.82927">
<time>2015-08-06T07:30:42Z</time></trkpt>
<trkpt lat="28.966822" lon="99.82905">
<time>2015-08-06T07:30:43Z</time></trkpt>
<trkpt lat="28.966811" lon="99.828589">
<time>2015-08-06T07:30:44Z</time></trkpt>
<trkpt lat="28.96682" lon="99.828358">
<time>2015-08-06T07:30:45Z</time></trkpt>
<trkpt lat="28.96683" lon="99.828198">
<time>2015-08-06T07:30:46Z</time></trkpt>
<trkpt lat="28.966879" lon="99.827927">
<time>2015-08-06T07:30:47Z</time></trkpt>
<trkpt lat="28.966919" lon="99.827727">
<time>2015-08-06T07:30:48Z</time></trkpt>
<trkpt lat="28.966969" lon="99.827546">
<time>2015-08-06T07:30:49Z</time></trkpt>
<trkpt lat="28.967078" lon="99.827216">
<time>2015-08-06T07:30:50Z</time></trkpt>
<trkpt lat="28.967147" lon="99.827045">
<time>2015-08-06T07:30:51Z</time></trkpt>
<trkpt lat="28.967207" lon="99.826905">
<time>2015-08-06T07:30:52Z</time></trkpt>
<trkpt lat="28.967277" lon="99.826785">
<time>2015-08-06T07:30:53Z</time></trkpt>
<trkpt lat="28.967456" lon="99.826544">
<time>2015-08-06T07:30:54Z</time></trkpt>
<trkpt lat="28.967586" lon="99.826404">
<time>2015-08-06T07:30:55Z</time></trkpt>
<trkpt lat="28.967865" lon="99.826093">
<time>2015-08-06T07:30:56Z</time></trkpt>
<trkpt lat="28.968005" lon="99.825933">
<time>2015-08-06T07:30:57Z</time></trkpt>
<trkpt lat="28.968094" lon="99.825823">
<time>2015-08-06T07:30:58Z</time></trkpt>
<trkpt lat="28.968154" lon="99.825722">
<time>2015-08-06T07:30:59Z</time></trkpt>
<trkpt lat="28.968224" lon="99.825582">
<time>2015-08-06T07:31:00Z</time></trkpt>
<trkpt lat="28.968284" lon="99.825432">
<time>2015-08-06T07:31:01Z</time></trkpt>
<trkpt lat="28.968353" lon="99.825191">
<time>2015-08-06T07:31:02Z</time></trkpt>
<trkpt lat="28.968522" lon="99.82454">
<time>2015-08-06T07:31:03Z</time></trkpt>
<trkpt lat="28.968641" lon="99.824089">
<time>2015-08-06T07:31:04Z</time></trkpt>
<trkpt lat="28.96871" lon="99.823879">
<time>2015-08-06T07:31:05Z</time></trkpt>
<trkpt lat="28.9688" lon="99.823648">
<time>2015-08-06T07:31:06Z</time></trkpt>
<trkpt lat="28.968969" lon="99.823317">
<time>2015-08-06T07:31:07Z</time></trkpt>
<trkpt lat="28.969029" lon="99.823217">
<time>2015-08-06T07:31:08Z</time></trkpt>
<trkpt lat="28.969128" lon="99.823077">
<time>2015-08-06T07:31:09Z</time></trkpt>
<trkpt lat="28.969348" lon="99.822806">
<time>2015-08-06T07:31:10Z</time></trkpt>
<trkpt lat="28.969607" lon="99.822526">
<time>2015-08-06T07:31:11Z</time></trkpt>
<trkpt lat="28.969996" lon="99.822075">
<time>2015-08-06T07:31:12Z</time></trkpt>
<trkpt lat="28.970215" lon="99.821824">
<time>2015-08-06T07:31:13Z</time></trkpt>
<trkpt lat="28.970544" lon="99.821453">
<time>2015-08-06T07:31:14Z</time></trkpt>
<trkpt lat="28.970624" lon="99.821343">
<time>2015-08-06T07:31:15Z</time></trkpt>
<trkpt lat="28.970744" lon="99.821173">
<time>2015-08-06T07:31:16Z</time></trkpt>
<trkpt lat="28.970923" lon="99.820862">
<time>2015-08-06T07:31:17Z</time></trkpt>
<trkpt lat="28.971022" lon="99.820642">
<time>2015-08-06T07:31:18Z</time></trkpt>
<trkpt lat="28.971092" lon="99.820491">
<time>2015-08-06T07:31:19Z</time></trkpt>
<trkpt lat="28.971142" lon="99.820311">
<time>2015-08-06T07:31:20Z</time></trkpt>
<trkpt lat="28.97133" lon="99.819529">
<time>2015-08-06T07:31:21Z</time></trkpt>
<trkpt lat="28.971598" lon="99.818457">
<time>2015-08-06T07:31:22Z</time></trkpt>
<trkpt lat="28.971618" lon="99.818377">
<time>2015-08-06T07:31:23Z</time></trkpt>
<trkpt lat="28.971628" lon="99.818307">
<time>2015-08-06T07:31:24Z</time></trkpt>
<trkpt lat="28.971647" lon="99.818217">
<time>2015-08-06T07:31:25Z</time></trkpt>
<trkpt lat="28.971657" lon="99.818096">
<time>2015-08-06T07:31:26Z</time></trkpt>
<trkpt lat="28.971657" lon="99.817916">
<time>2015-08-06T07:31:27Z</time></trkpt>
<trkpt lat="28.971585" lon="99.817024">
<time>2015-08-06T07:31:28Z</time></trkpt>
<trkpt lat="28.971575" lon="99.816754">
<time>2015-08-06T07:31:29Z</time></trkpt>
<trkpt lat="28.971584" lon="99.816563">
<time>2015-08-06T07:31:30Z</time></trkpt>
<trkpt lat="28.971633" lon="99.815952">
<time>2015-08-06T07:31:31Z</time></trkpt>
<trkpt lat="28.971673" lon="99.815621">
<time>2015-08-06T07:31:32Z</time></trkpt>
<trkpt lat="28.971692" lon="99.815361">
<time>2015-08-06T07:31:33Z</time></trkpt>
<trkpt lat="28.9717" lon="99.814479">
<time>2015-08-06T07:31:34Z</time></trkpt>
<trkpt lat="28.971689" lon="99.813888">
<time>2015-08-06T07:31:35Z</time></trkpt>
<trkpt lat="28.971679" lon="99.813788">
<time>2015-08-06T07:31:36Z</time></trkpt>
<trkpt lat="28.971669" lon="99.813697">
<time>2015-08-06T07:31:37Z</time></trkpt>
<trkpt lat="28.971629" lon="99.813587">
<time>2015-08-06T07:31:38Z</time></trkpt>
<trkpt lat="28.971589" lon="99.813477">
<time>2015-08-06T07:31:39Z</time></trkpt>
<trkpt lat="28.971539" lon="99.813397">
<time>2015-08-06T07:31:40Z</time></trkpt>
<trkpt lat="28.971478" lon="99.813297">
<time>2015-08-06T07:31:41Z</time></trkpt>
<trkpt lat="28.971388" lon="99.813176">
<time>2015-08-06T07:31:42Z</time></trkpt>
<trkpt lat="28.971038" lon="99.812826">
<time>2015-08-06T07:31:43Z</time></trkpt>
<trkpt lat="28.970748" lon="99.812535">
<time>2015-08-06T07:31:44Z</time></trkpt>
<trkpt lat="28.970598" lon="99.812395">
<time>2015-08-06T07:31:45Z</time></trkpt>
<trkpt lat="28.970487" lon="99.812325">
<time>2015-08-06T07:31:46Z</time></trkpt>
<trkpt lat="28.969877" lon="99.811944">
<time>2015-08-06T07:31:47Z</time></trkpt>
<trkpt lat="28.969167" lon="99.811493">
<time>2015-08-06T07:31:48Z</time></trkpt>
<trkpt lat="28.968807" lon="99.811273">
<time>2015-08-06T07:31:49Z</time></trkpt>
<trkpt lat="28.968677" lon="99.811183">
<time>2015-08-06T07:31:50Z</time></trkpt>
<trkpt lat="28.968517" lon="99.811072">
<time>2015-08-06T07:31:51Z</time></trkpt>
<trkpt lat="28.968337" lon="99.810942">
<time>2015-08-06T07:31:52Z</time></trkpt>
<trkpt lat="28.967796" lon="99.810541">
<time>2015-08-06T07:31:53Z</time></trkpt>
<trkpt lat="28.967566" lon="99.810351">
<time>2015-08-06T07:31:54Z</time></trkpt>
<trkpt lat="28.967446" lon="99.810271">
<time>2015-08-06T07:31:55Z</time></trkpt>
<trkpt lat="28.967396" lon="99.810251">
<time>2015-08-06T07:31:56Z</time></trkpt>
<trkpt lat="28.967326" lon="99.810221">
<time>2015-08-06T07:31:57Z</time></trkpt>
<trkpt lat="28.967246" lon="99.810201">
<time>2015-08-06T07:31:58Z</time></trkpt>
<trkpt lat="28.967176" lon="99.810201">
<time>2015-08-06T07:31:59Z</time></trkpt>
<trkpt lat="28.967106" lon="99.810191">
<time>2015-08-06T07:32:00Z</time></trkpt>
<trkpt lat="28.966986" lon="99.810211">
<time>2015-08-06T07:32:01Z</time></trkpt>
<trkpt lat="28.966837" lon="99.810251">
<time>2015-08-06T07:32:02Z</time></trkpt>
<trkpt lat="28.966068" lon="99.810521">
<time>2015-08-06T07:32:03Z</time></trkpt>
<trkpt lat="28.965788" lon="99.810611">
<time>2015-08-06T07:32:04Z</time></trkpt>
<trkpt lat="28.965688" lon="99.810642">
<time>2015-08-06T07:32:05Z</time></trkpt>
<trkpt lat="28.965608" lon="99.810662">
<time>2015-08-06T07:32:06Z</time></trkpt>
<trkpt lat="28.965528" lon="99.810682">
<time>2015-08-06T07:32:07Z</time></trkpt>
<trkpt lat="28.965449" lon="99.810692">
<time>2015-08-06T07:32:08Z</time></trkpt>
<trkpt lat="28.965339" lon="99.810702">
<time>2015-08-06T07:32:09Z</time></trkpt>
<trkpt lat="28.965099" lon="99.810712">
<time>2015-08-06T07:32:10Z</time></trkpt>
<trkpt lat="28.964949" lon="99.810712">
<time>2015-08-06T07:32:11Z</time></trkpt>
<trkpt lat="28.964839" lon="99.810702">
<time>2015-08-06T07:32:12Z</time></trkpt>
<trkpt lat="28.964299" lon="99.810652">
<time>2015-08-06T07:32:13Z</time></trkpt>
<trkpt lat="28.9637" lon="99.810592">
<time>2015-08-06T07:32:14Z</time></trkpt>
<trkpt lat="28.96355" lon="99.810571">
<time>2015-08-06T07:32:15Z</time></trkpt>
<trkpt lat="28.96341" lon="99.810531">
<time>2015-08-06T07:32:16Z</time></trkpt>
<trkpt lat="28.9632" lon="99.810461">
<time>2015-08-06T07:32:17Z</time></trkpt>
<trkpt lat="28.96297" lon="99.810371">
<time>2015-08-06T07:32:18Z</time></trkpt>
<trkpt lat="28.96262" lon="99.810221">
<time>2015-08-06T07:32:19Z</time></trkpt>
<trkpt lat="28.96216" lon="99.81001">
<time>2015-08-06T07:32:20Z</time></trkpt>
<trkpt lat="28.96134" lon="99.80964">
<time>2015-08-06T07:32:21Z</time></trkpt>
<trkpt lat="28.96079" lon="99.809409">
<time>2015-08-06T07:32:22Z</time></trkpt>
<trkpt lat="28.96044" lon="99.809259">
<time>2015-08-06T07:32:23Z</time></trkpt>
<trkpt lat="28.96015" lon="99.809139">
<time>2015-08-06T07:32:24Z</time></trkpt>
<trkpt lat="28.9598" lon="99.809009">
<time>2015-08-06T07:32:25Z</time></trkpt>
<trkpt lat="28.95937" lon="99.808838">
<time>2015-08-06T07:32:26Z</time></trkpt>
<trkpt lat="28.95915" lon="99.808758">
<time>2015-08-06T07:32:27Z</time></trkpt>
<trkpt lat="28.95891" lon="99.808648">
<time>2015-08-06T07:32:28Z</time></trkpt>
<trkpt lat="28.95855" lon="99.808467">
<time>2015-08-06T07:32:29Z</time></trkpt>
<trkpt lat="28.95787" lon="99.808107">
<time>2015-08-06T07:32:30Z</time></trkpt>
<trkpt lat="28.95695" lon="99.807616">
<time>2015-08-06T07:32:31Z</time></trkpt>
<trkpt lat="28.95608" lon="99.807165">
<time>2015-08-06T07:32:32Z</time></trkpt>
<trkpt lat="28.9558" lon="99.806995">
<time>2015-08-06T07:32:33Z</time></trkpt>
<trkpt lat="28.95565" lon="99.806905">
<time>2015-08-06T07:32:34Z</time></trkpt>
<trkpt lat="28.955349" lon="99.806664">
<time>2015-08-06T07:32:35Z</time></trkpt>
<trkpt lat="28.954619" lon="99.806113">
<time>2015-08-06T07:32:36Z</time></trkpt>
<trkpt lat="28.953568" lon="99.805302">
<time>2015-08-06T07:32:37Z</time></trkpt>
<trkpt lat="28.953328" lon="99.805121">
<time>2015-08-06T07:32:38Z</time></trkpt>
<trkpt lat="28.953248" lon="99.805071">
<time>2015-08-06T07:32:39Z</time></trkpt>
<trkpt lat="28.953168" lon="99.805031">
<time>2015-08-06T07:32:40Z</time></trkpt>
<trkpt lat="28.953098" lon="99.805011">
<time>2015-08-06T07:32:41Z</time></trkpt>
<trkpt lat="28.953008" lon="99.804991">
<time>2015-08-06T07:32:42Z</time></trkpt>
<trkpt lat="28.952629" lon="99.804941">
<time>2015-08-06T07:32:43Z</time></trkpt>
<trkpt lat="28.952539" lon="99.804931">
<time>2015-08-06T07:32:44Z</time></trkpt>
<trkpt lat="28.952489" lon="99.804911">
<time>2015-08-06T07:32:45Z</time></trkpt>
<trkpt lat="28.952419" lon="99.804881">
<time>2015-08-06T07:32:46Z</time></trkpt>
<trkpt lat="28.952259" lon="99.804801">
<time>2015-08-06T07:32:47Z</time></trkpt>
<trkpt lat="28.952149" lon="99.804751">
<time>2015-08-06T07:32:48Z</time></trkpt>
<trkpt lat="28.952089" lon="99.804731">
<time>2015-08-06T07:32:49Z</time></trkpt>
<trkpt lat="28.951919" lon="99.8047">
<time>2015-08-06T07:32:50Z</time></trkpt>
<trkpt lat="28.951489" lon="99.80464">
<time>2015-08-06T07:32:51Z</time></trkpt>
<trkpt lat="28.951389" lon="99.80463">
<time>2015-08-06T07:32:52Z</time></trkpt>
<trkpt lat="28.951269" lon="99.80463">
<time>2015-08-06T07:32:53Z</time></trkpt>
<trkpt lat="28.951149" lon="99.80464">
<time>2015-08-06T07:32:54Z</time></trkpt>
<trkpt lat="28.950969" lon="99.80469">
<time>2015-08-06T07:32:55Z</time></trkpt>
<trkpt lat="28.95063" lon="99.804801">
<time>2015-08-06T07:32:56Z</time></trkpt>
<trkpt lat="28.95054" lon="99.804841">
<time>2015-08-06T07:32:57Z</time></trkpt>
<trkpt lat="28.95046" lon="99.804891">
<time>2015-08-06T07:32:58Z</time></trkpt>
<trkpt lat="28.95039" lon="99.804961">
<time>2015-08-06T07:32:59Z</time></trkpt>
<trkpt lat="28.950071" lon="99.805322">
<time>2015-08-06T07:33:00Z</time></trkpt>
<trkpt lat="28.950021" lon="99.805372">
<time>2015-08-06T07:33:01Z</time></trkpt>
<trkpt lat="28.949962" lon="99.805412">
<time>2015-08-06T07:33:02Z</time></trkpt>
<trkpt lat="28.949862" lon="99.805482">
<time>2015-08-06T07:33:03Z</time></trkpt>
<trkpt lat="28.949722" lon="99.805582">
<time>2015-08-06T07:33:04Z</time></trkpt>
<trkpt lat="28.949472" lon="99.805753">
<time>2015-08-06T07:33:05Z</time></trkpt>
<trkpt lat="28.949393" lon="99.805813">
<time>2015-08-06T07:33:06Z</time></trkpt>
<trkpt lat="28.949273" lon="99.805923">
<time>2015-08-06T07:33:07Z</time></trkpt>
<trkpt lat="28.949123" lon="99.806083">
<time>2015-08-06T07:33:08Z</time></trkpt>
<trkpt lat="28.949034" lon="99.806153">
<time>2015-08-06T07:33:09Z</time></trkpt>
<trkpt lat="28.948984" lon="99.806203">
<time>2015-08-06T07:33:10Z</time></trkpt>
<trkpt lat="28.948924" lon="99.806233">
<time>2015-08-06T07:33:11Z</time></trkpt>
<trkpt lat="28.948884" lon="99.806253">
<time>2015-08-06T07:33:12Z</time></trkpt>
<trkpt lat="28.948774" lon="99.806294">
<time>2015-08-06T07:33:13Z</time></trkpt>
<trkpt lat="28.948684" lon="99.806324">
<time>2015-08-06T07:33:14Z</time></trkpt>
<trkpt lat="28.948634" lon="99.806344">
<time>2015-08-06T07:33:15Z</time></trkpt>
<trkpt lat="28.948444" lon="99.806424">
<time>2015-08-06T07:33:16Z</time></trkpt>
<trkpt lat="28.947915" lon="99.806724">
<time>2015-08-06T07:33:17Z</time></trkpt>
<trkpt lat="28.947237" lon="99.807115">
<time>2015-08-06T07:33:18Z</time></trkpt>
<trkpt lat="28.947037" lon="99.807215">
<time>2015-08-06T07:33:19Z</time></trkpt>
<trkpt lat="28.946927" lon="99.807265">
<time>2015-08-06T07:33:20Z</time></trkpt>
<trkpt lat="28.946807" lon="99.807326">
<time>2015-08-06T07:33:21Z</time></trkpt>
<trkpt lat="28.946657" lon="99.807366">
<time>2015-08-06T07:33:22Z</time></trkpt>
<trkpt lat="28.946538" lon="99.807396">
<time>2015-08-06T07:33:23Z</time></trkpt>
<trkpt lat="28.946318" lon="99.807426">
<time>2015-08-06T07:33:24Z</time></trkpt>
<trkpt lat="28.945748" lon="99.807506">
<time>2015-08-06T07:33:25Z</time></trkpt>
<trkpt lat="28.945129" lon="99.807586">
<time>2015-08-06T07:33:26Z</time></trkpt>
<trkpt lat="28.9444" lon="99.807676">
<time>2015-08-06T07:33:27Z</time></trkpt>
<trkpt lat="28.94388" lon="99.807746">
<time>2015-08-06T07:33:28Z</time></trkpt>
<trkpt lat="28.943151" lon="99.807837">
<time>2015-08-06T07:33:29Z</time></trkpt>
<trkpt lat="28.942961" lon="99.807887">
<time>2015-08-06T07:33:30Z</time></trkpt>
<trkpt lat="28.942901" lon="99.807907">
<time>2015-08-06T07:33:31Z</time></trkpt>
<trkpt lat="28.942792" lon="99.807957">
<time>2015-08-06T07:33:32Z</time></trkpt>
<trkpt lat="28.942652" lon="99.808047">
<time>2015-08-06T07:33:33Z</time></trkpt>
<trkpt lat="28.942223" lon="99.808378">
<time>2015-08-06T07:33:34Z</time></trkpt>
<trkpt lat="28.942103" lon="99.808448">
<time>2015-08-06T07:33:35Z</time></trkpt>
<trkpt lat="28.942063" lon="99.808478">
<time>2015-08-06T07:33:36Z</time></trkpt>
<trkpt lat="28.941963" lon="99.808528">
<time>2015-08-06T07:33:37Z</time></trkpt>
<trkpt lat="28.941893" lon="99.808558">
<time>2015-08-06T07:33:38Z</time></trkpt>
<trkpt lat="28.941773" lon="99.808598">
<time>2015-08-06T07:33:39Z</time></trkpt>
<trkpt lat="28.941664" lon="99.808628">
<time>2015-08-06T07:33:40Z</time></trkpt>
<trkpt lat="28.941514" lon="99.808658">
<time>2015-08-06T07:33:41Z</time></trkpt>
<trkpt lat="28.941414" lon="99.808668">
<time>2015-08-06T07:33:42Z</time></trkpt>
<trkpt lat="28.941284" lon="99.808668">
<time>2015-08-06T07:33:43Z</time></trkpt>
<trkpt lat="28.940644" lon="99.808548">
<time>2015-08-06T07:33:44Z</time></trkpt>
<trkpt lat="28.940354" lon="99.808508">
<time>2015-08-06T07:33:45Z</time></trkpt>
<trkpt lat="28.940164" lon="99.808478">
<time>2015-08-06T07:33:46Z</time></trkpt>
<trkpt lat="28.939975" lon="99.808428">
<time>2015-08-06T07:33:47Z</time></trkpt>
<trkpt lat="28.939485" lon="99.808238">
<time>2015-08-06T07:33:48Z</time></trkpt>
<trkpt lat="28.938785" lon="99.807957">
<time>2015-08-06T07:33:49Z</time></trkpt>
<trkpt lat="28.938455" lon="99.807837">
<time>2015-08-06T07:33:50Z</time></trkpt>
<trkpt lat="28.938275" lon="99.807787">
<time>2015-08-06T07:33:51Z</time></trkpt>
<trkpt lat="28.937965" lon="99.807707">
<time>2015-08-06T07:33:52Z</time></trkpt>
<trkpt lat="28.937555" lon="99.807636">
<time>2015-08-06T07:33:53Z</time></trkpt>
<trkpt lat="28.937435" lon="99.807626">
<time>2015-08-06T07:33:54Z</time></trkpt>
<trkpt lat="28.937255" lon="99.807626">
<time>2015-08-06T07:33:55Z</time></trkpt>
<trkpt lat="28.937055" lon="99.807636">
<time>2015-08-06T07:33:56Z</time></trkpt>
<trkpt lat="28.936426" lon="99.807747">
<time>2015-08-06T07:33:57Z</time></trkpt>
<trkpt lat="28.935697" lon="99.807857">
<time>2015-08-06T07:33:58Z</time></trkpt>
<trkpt lat="28.935607" lon="99.807867">
<time>2015-08-06T07:33:59Z</time></trkpt>
<trkpt lat="28.935527" lon="99.807877">
<time>2015-08-06T07:34:00Z</time></trkpt>
<trkpt lat="28.935497" lon="99.807867">
<time>2015-08-06T07:34:01Z</time></trkpt>
<trkpt lat="28.935447" lon="99.807857">
<time>2015-08-06T07:34:02Z</time></trkpt>
<trkpt lat="28.935417" lon="99.807847">
<time>2015-08-06T07:34:03Z</time></trkpt>
<trkpt lat="28.935387" lon="99.807807">
<time>2015-08-06T07:34:04Z</time></trkpt>
<trkpt lat="28.935357" lon="99.807757">
<time>2015-08-06T07:34:05Z</time></trkpt>
<trkpt lat="28.935337" lon="99.807707">
<time>2015-08-06T07:34:06Z</time></trkpt>
<trkpt lat="28.935196" lon="99.807186">
<time>2015-08-06T07:34:07Z</time></trkpt>
<trkpt lat="28.935176" lon="99.807115">
<time>2015-08-06T07:34:08Z</time></trkpt>
<trkpt lat="28.935146" lon="99.807085">
<time>2015-08-06T07:34:09Z</time></trkpt>
<trkpt lat="28.935106" lon="99.807055">
<time>2015-08-06T07:34:10Z</time></trkpt>
<trkpt lat="28.935076" lon="99.807035">
<time>2015-08-06T07:34:11Z</time></trkpt>
<trkpt lat="28.935036" lon="99.807015">
<time>2015-08-06T07:34:12Z</time></trkpt>
<trkpt lat="28.934986" lon="99.807005">
<time>2015-08-06T07:34:13Z</time></trkpt>
<trkpt lat="28.934926" lon="99.807005">
<time>2015-08-06T07:34:14Z</time></trkpt>
<trkpt lat="28.934736" lon="99.807015">
<time>2015-08-06T07:34:15Z</time></trkpt>
<trkpt lat="28.934137" lon="99.807035">
<time>2015-08-06T07:34:16Z</time></trkpt>
<trkpt lat="28.933867" lon="99.806995">
<time>2015-08-06T07:34:17Z</time></trkpt>
<trkpt lat="28.932327" lon="99.806454">
<time>2015-08-06T07:34:18Z</time></trkpt>
<trkpt lat="28.931937" lon="99.806354">
<time>2015-08-06T07:34:19Z</time></trkpt>
<trkpt lat="28.931627" lon="99.806304">
<time>2015-08-06T07:34:20Z</time></trkpt>
<trkpt lat="28.930978" lon="99.806254">
<time>2015-08-06T07:34:21Z</time></trkpt>
<trkpt lat="28.930658" lon="99.806214">
<time>2015-08-06T07:34:22Z</time></trkpt>
<trkpt lat="28.930308" lon="99.806104">
<time>2015-08-06T07:34:23Z</time></trkpt>
<trkpt lat="28.930008" lon="99.806074">
<time>2015-08-06T07:34:24Z</time></trkpt>
<trkpt lat="28.928719" lon="99.806174">
<time>2015-08-06T07:34:25Z</time></trkpt>
<trkpt lat="28.92805" lon="99.806164">
<time>2015-08-06T07:34:26Z</time></trkpt>
<trkpt lat="28.92777" lon="99.806174">
<time>2015-08-06T07:34:27Z</time></trkpt>
<trkpt lat="28.92748" lon="99.806204">
<time>2015-08-06T07:34:28Z</time></trkpt>
<trkpt lat="28.92737" lon="99.806194">
<time>2015-08-06T07:34:29Z</time></trkpt>
<trkpt lat="28.927221" lon="99.806164">
<time>2015-08-06T07:34:30Z</time></trkpt>
<trkpt lat="28.927021" lon="99.806124">
<time>2015-08-06T07:34:31Z</time></trkpt>
<trkpt lat="28.926881" lon="99.806104">
<time>2015-08-06T07:34:32Z</time></trkpt>
<trkpt lat="28.926691" lon="99.806134">
<time>2015-08-06T07:34:33Z</time></trkpt>
<trkpt lat="28.926441" lon="99.806204">
<time>2015-08-06T07:34:34Z</time></trkpt>
<trkpt lat="28.926301" lon="99.806234">
<time>2015-08-06T07:34:35Z</time></trkpt>
<trkpt lat="28.926181" lon="99.806234">
<time>2015-08-06T07:34:36Z</time></trkpt>
<trkpt lat="28.926092" lon="99.806234">
<time>2015-08-06T07:34:37Z</time></trkpt>
<trkpt lat="28.925992" lon="99.806204">
<time>2015-08-06T07:34:38Z</time></trkpt>
<trkpt lat="28.925472" lon="99.805954">
<time>2015-08-06T07:34:39Z</time></trkpt>
<trkpt lat="28.925202" lon="99.805833">
<time>2015-08-06T07:34:40Z</time></trkpt>
<trkpt lat="28.925042" lon="99.805763">
<time>2015-08-06T07:34:41Z</time></trkpt>
<trkpt lat="28.924972" lon="99.805733">
<time>2015-08-06T07:34:42Z</time></trkpt>
<trkpt lat="28.924872" lon="99.805693">
<time>2015-08-06T07:34:43Z</time></trkpt>
<trkpt lat="28.924842" lon="99.805673">
<time>2015-08-06T07:34:44Z</time></trkpt>
<trkpt lat="28.924802" lon="99.805643">
<time>2015-08-06T07:34:45Z</time></trkpt>
<trkpt lat="28.924782" lon="99.805623">
<time>2015-08-06T07:34:46Z</time></trkpt>
<trkpt lat="28.924762" lon="99.805603">
<time>2015-08-06T07:34:47Z</time></trkpt>
<trkpt lat="28.924731" lon="99.805573">
<time>2015-08-06T07:34:48Z</time></trkpt>
<trkpt lat="28.924711" lon="99.805533">
<time>2015-08-06T07:34:49Z</time></trkpt>
<trkpt lat="28.924711" lon="99.805523">
<time>2015-08-06T07:34:50Z</time></trkpt>
<trkpt lat="28.924711" lon="99.805523">
<time>2015-08-06T07:34:51Z</time></trkpt>
<trkpt lat="28.924691" lon="99.805533">
<time>2015-08-06T07:34:52Z</time></trkpt>
<trkpt lat="28.924681" lon="99.805533">
<time>2015-08-06T07:34:53Z</time></trkpt>
<trkpt lat="28.924661" lon="99.805543">
<time>2015-08-06T07:34:54Z</time></trkpt>
<trkpt lat="28.924641" lon="99.805543">
<time>2015-08-06T07:34:55Z</time></trkpt>
<trkpt lat="28.924631" lon="99.805533">
<time>2015-08-06T07:34:56Z</time></trkpt>
<trkpt lat="28.924611" lon="99.805523">
<time>2015-08-06T07:34:57Z</time></trkpt>
<trkpt lat="28.924601" lon="99.805513">
<time>2015-08-06T07:34:58Z</time></trkpt>
<trkpt lat="28.924591" lon="99.805503">
<time>2015-08-06T07:34:59Z</time></trkpt>
<trkpt lat="28.924581" lon="99.805493">
<time>2015-08-06T07:35:00Z</time></trkpt>
<trkpt lat="28.924571" lon="99.805483">
<time>2015-08-06T07:35:01Z</time></trkpt>
<trkpt lat="28.924571" lon="99.805463">
<time>2015-08-06T07:35:02Z</time></trkpt>
<trkpt lat="28.924102" lon="99.805823">
<time>2015-08-06T07:35:03Z</time></trkpt>
<trkpt lat="28.923793" lon="99.806094">
<time>2015-08-06T07:35:04Z</time></trkpt>
<trkpt lat="28.923693" lon="99.806164">
<time>2015-08-06T07:35:05Z</time></trkpt>
<trkpt lat="28.923593" lon="99.806234">
<time>2015-08-06T07:35:06Z</time></trkpt>
<trkpt lat="28.923504" lon="99.806274">
<time>2015-08-06T07:35:07Z</time></trkpt>
<trkpt lat="28.923404" lon="99.806314">
<time>2015-08-06T07:35:08Z</time></trkpt>
<trkpt lat="28.923004" lon="99.806455">
<time>2015-08-06T07:35:09Z</time></trkpt>
<trkpt lat="28.922086" lon="99.806735">
<time>2015-08-06T07:35:10Z</time></trkpt>
<trkpt lat="28.921586" lon="99.806915">
<time>2015-08-06T07:35:11Z</time></trkpt>
<trkpt lat="28.921217" lon="99.807076">
<time>2015-08-06T07:35:12Z</time></trkpt>
<trkpt lat="28.920718" lon="99.807326">
<time>2015-08-06T07:35:13Z</time></trkpt>
<trkpt lat="28.920218" lon="99.807557">
<time>2015-08-06T07:35:14Z</time></trkpt>
<trkpt lat="28.919709" lon="99.807797">
<time>2015-08-06T07:35:15Z</time></trkpt>
<trkpt lat="28.91953" lon="99.807887">
<time>2015-08-06T07:35:16Z</time></trkpt>
<trkpt lat="28.91949" lon="99.807907">
<time>2015-08-06T07:35:17Z</time></trkpt>
<trkpt lat="28.91946" lon="99.807937">
<time>2015-08-06T07:35:18Z</time></trkpt>
<trkpt lat="28.91943" lon="99.807958">
<time>2015-08-06T07:35:19Z</time></trkpt>
<trkpt lat="28.91939" lon="99.808018">
<time>2015-08-06T07:35:20Z</time></trkpt>
<trkpt lat="28.91934" lon="99.808108">
<time>2015-08-06T07:35:21Z</time></trkpt>
<trkpt lat="28.91928" lon="99.808218">
<time>2015-08-06T07:35:22Z</time></trkpt>
<trkpt lat="28.91923" lon="99.808298">
<time>2015-08-06T07:35:23Z</time></trkpt>
<trkpt lat="28.919191" lon="99.808358">
<time>2015-08-06T07:35:24Z</time></trkpt>
<trkpt lat="28.919141" lon="99.808428">
<time>2015-08-06T07:35:25Z</time></trkpt>
<trkpt lat="28.919011" lon="99.808569">
<time>2015-08-06T07:35:26Z</time></trkpt>
<trkpt lat="28.918772" lon="99.808799">
<time>2015-08-06T07:35:27Z</time></trkpt>
<trkpt lat="28.918542" lon="99.80899">
<time>2015-08-06T07:35:28Z</time></trkpt>
<trkpt lat="28.918333" lon="99.80913">
<time>2015-08-06T07:35:29Z</time></trkpt>
<trkpt lat="28.918253" lon="99.80917">
<time>2015-08-06T07:35:30Z</time></trkpt>
<trkpt lat="28.918153" lon="99.80924">
<time>2015-08-06T07:35:31Z</time></trkpt>
<trkpt lat="28.917913" lon="99.80933">
<time>2015-08-06T07:35:32Z</time></trkpt>
<trkpt lat="28.917524" lon="99.809471">
<time>2015-08-06T07:35:33Z</time></trkpt>
<trkpt lat="28.917314" lon="99.809571">
<time>2015-08-06T07:35:34Z</time></trkpt>
<trkpt lat="28.916865" lon="99.809801">
<time>2015-08-06T07:35:35Z</time></trkpt>
<trkpt lat="28.916715" lon="99.809891">
<time>2015-08-06T07:35:36Z</time></trkpt>
<trkpt lat="28.916006" lon="99.810292">
<time>2015-08-06T07:35:37Z</time></trkpt>
<trkpt lat="28.915937" lon="99.810342">
<time>2015-08-06T07:35:38Z</time></trkpt>
<trkpt lat="28.915847" lon="99.810402">
<time>2015-08-06T07:35:39Z</time></trkpt>
<trkpt lat="28.915807" lon="99.810432">
<time>2015-08-06T07:35:40Z</time></trkpt>
<trkpt lat="28.915777" lon="99.810473">
<time>2015-08-06T07:35:41Z</time></trkpt>
<trkpt lat="28.915747" lon="99.810503">
<time>2015-08-06T07:35:42Z</time></trkpt>
<trkpt lat="28.915727" lon="99.810533">
<time>2015-08-06T07:35:43Z</time></trkpt>
<trkpt lat="28.915707" lon="99.810563">
<time>2015-08-06T07:35:44Z</time></trkpt>
<trkpt lat="28.915697" lon="99.810613">
<time>2015-08-06T07:35:45Z</time></trkpt>
<trkpt lat="28.915677" lon="99.810663">
<time>2015-08-06T07:35:46Z</time></trkpt>
<trkpt lat="28.915667" lon="99.810723">
<time>2015-08-06T07:35:47Z</time></trkpt>
<trkpt lat="28.915668" lon="99.810783">
<time>2015-08-06T07:35:48Z</time></trkpt>
<trkpt lat="28.915678" lon="99.811104">
<time>2015-08-06T07:35:49Z</time></trkpt>
<trkpt lat="28.915678" lon="99.811174">
<time>2015-08-06T07:35:50Z</time></trkpt>
<trkpt lat="28.915678" lon="99.811234">
<time>2015-08-06T07:35:51Z</time></trkpt>
<trkpt lat="28.915678" lon="99.811284">
<time>2015-08-06T07:35:52Z</time></trkpt>
<trkpt lat="28.915669" lon="99.811324">
<time>2015-08-06T07:35:53Z</time></trkpt>
<trkpt lat="28.915659" lon="99.811374">
<time>2015-08-06T07:35:54Z</time></trkpt>
<trkpt lat="28.915649" lon="99.811424">
<time>2015-08-06T07:35:55Z</time></trkpt>
<trkpt lat="28.915639" lon="99.811485">
<time>2015-08-06T07:35:56Z</time></trkpt>
<trkpt lat="28.915609" lon="99.811535">
<time>2015-08-06T07:35:57Z</time></trkpt>
<trkpt lat="28.915589" lon="99.811575">
<time>2015-08-06T07:35:58Z</time></trkpt>
<trkpt lat="28.915549" lon="99.811635">
<time>2015-08-06T07:35:59Z</time></trkpt>
<trkpt lat="28.915529" lon="99.811685">
<time>2015-08-06T07:36:00Z</time></trkpt>
<trkpt lat="28.915509" lon="99.811745">
<time>2015-08-06T07:36:01Z</time></trkpt>
<trkpt lat="28.91549" lon="99.811805">
<time>2015-08-06T07:36:02Z</time></trkpt>
<trkpt lat="28.91545" lon="99.811986">
<time>2015-08-06T07:36:03Z</time></trkpt>
<trkpt lat="28.91543" lon="99.812066">
<time>2015-08-06T07:36:04Z</time></trkpt>
<trkpt lat="28.91541" lon="99.812126">
<time>2015-08-06T07:36:05Z</time></trkpt>
<trkpt lat="28.91538" lon="99.812166">
<time>2015-08-06T07:36:06Z</time></trkpt>
<trkpt lat="28.91536" lon="99.812206">
<time>2015-08-06T07:36:07Z</time></trkpt>
<trkpt lat="28.91534" lon="99.812226">
<time>2015-08-06T07:36:08Z</time></trkpt>
<trkpt lat="28.915311" lon="99.812246">
<time>2015-08-06T07:36:09Z</time></trkpt>
<trkpt lat="28.915281" lon="99.812266">
<time>2015-08-06T07:36:10Z</time></trkpt>
<trkpt lat="28.915241" lon="99.812286">
<time>2015-08-06T07:36:11Z</time></trkpt>
<trkpt lat="28.915151" lon="99.812306">
<time>2015-08-06T07:36:12Z</time></trkpt>
<trkpt lat="28.915071" lon="99.812326">
<time>2015-08-06T07:36:13Z</time></trkpt>
<trkpt lat="28.914921" lon="99.812346">
<time>2015-08-06T07:36:14Z</time></trkpt>
<trkpt lat="28.914641" lon="99.812396">
<time>2015-08-06T07:36:15Z</time></trkpt>
<trkpt lat="28.914531" lon="99.812406">
<time>2015-08-06T07:36:16Z</time></trkpt>
<trkpt lat="28.914421" lon="99.812416">
<time>2015-08-06T07:36:17Z</time></trkpt>
<trkpt lat="28.914282" lon="99.812416">
<time>2015-08-06T07:36:18Z</time></trkpt>
<trkpt lat="28.914112" lon="99.812406">
<time>2015-08-06T07:36:19Z</time></trkpt>
<trkpt lat="28.914022" lon="99.812416">
<time>2015-08-06T07:36:20Z</time></trkpt>
<trkpt lat="28.913942" lon="99.812426">
<time>2015-08-06T07:36:21Z</time></trkpt>
<trkpt lat="28.913882" lon="99.812446">
<time>2015-08-06T07:36:22Z</time></trkpt>
<trkpt lat="28.913782" lon="99.812517">
<time>2015-08-06T07:36:23Z</time></trkpt>
<trkpt lat="28.913453" lon="99.812767">
<time>2015-08-06T07:36:24Z</time></trkpt>
<trkpt lat="28.913353" lon="99.812837">
<time>2015-08-06T07:36:25Z</time></trkpt>
<trkpt lat="28.913253" lon="99.812897">
<time>2015-08-06T07:36:26Z</time></trkpt>
<trkpt lat="28.913153" lon="99.812978">
<time>2015-08-06T07:36:27Z</time></trkpt>
<trkpt lat="28.913064" lon="99.813048">
<time>2015-08-06T07:36:28Z</time></trkpt>
<trkpt lat="28.913004" lon="99.813098">
<time>2015-08-06T07:36:29Z</time></trkpt>
<trkpt lat="28.912924" lon="99.813198">
<time>2015-08-06T07:36:30Z</time></trkpt>
<trkpt lat="28.912834" lon="99.813328">
<time>2015-08-06T07:36:31Z</time></trkpt>
<trkpt lat="28.912466" lon="99.814">
<time>2015-08-06T07:36:32Z</time></trkpt>
<trkpt lat="28.912316" lon="99.81422">
<time>2015-08-06T07:36:33Z</time></trkpt>
<trkpt lat="28.912207" lon="99.81439">
<time>2015-08-06T07:36:34Z</time></trkpt>
<trkpt lat="28.912097" lon="99.814551">
<time>2015-08-06T07:36:35Z</time></trkpt>
<trkpt lat="28.911978" lon="99.814691">
<time>2015-08-06T07:36:36Z</time></trkpt>
<trkpt lat="28.911868" lon="99.814801">
<time>2015-08-06T07:36:37Z</time></trkpt>
<trkpt lat="28.911758" lon="99.814881">
<time>2015-08-06T07:36:38Z</time></trkpt>
<trkpt lat="28.911588" lon="99.815012">
<time>2015-08-06T07:36:39Z</time></trkpt>
<trkpt lat="28.911389" lon="99.815122">
<time>2015-08-06T07:36:40Z</time></trkpt>
<trkpt lat="28.911269" lon="99.815192">
<time>2015-08-06T07:36:41Z</time></trkpt>
<trkpt lat="28.911209" lon="99.815232">
<time>2015-08-06T07:36:42Z</time></trkpt>
<trkpt lat="28.911129" lon="99.815282">
<time>2015-08-06T07:36:43Z</time></trkpt>
<trkpt lat="28.91099" lon="99.815433">
<time>2015-08-06T07:36:44Z</time></trkpt>
<trkpt lat="28.9109" lon="99.815543">
<time>2015-08-06T07:36:45Z</time></trkpt>
<trkpt lat="28.91082" lon="99.815643">
<time>2015-08-06T07:36:46Z</time></trkpt>
<trkpt lat="28.91072" lon="99.815723">
<time>2015-08-06T07:36:47Z</time></trkpt>
<trkpt lat="28.910471" lon="99.815904">
<time>2015-08-06T07:36:48Z</time></trkpt>
<trkpt lat="28.910062" lon="99.816224">
<time>2015-08-06T07:36:49Z</time></trkpt>
<trkpt lat="28.909713" lon="99.816535">
<time>2015-08-06T07:36:50Z</time></trkpt>
<trkpt lat="28.909333" lon="99.816825">
<time>2015-08-06T07:36:51Z</time></trkpt>
<trkpt lat="28.909084" lon="99.816996">
<time>2015-08-06T07:36:52Z</time></trkpt>
<trkpt lat="28.908894" lon="99.817146">
<time>2015-08-06T07:36:53Z</time></trkpt>
<trkpt lat="28.908715" lon="99.817337">
<time>2015-08-06T07:36:54Z</time></trkpt>
<trkpt lat="28.908426" lon="99.817667">
<time>2015-08-06T07:36:55Z</time></trkpt>
<trkpt lat="28.907977" lon="99.818188">
<time>2015-08-06T07:36:56Z</time></trkpt>
<trkpt lat="28.907718" lon="99.818549">
<time>2015-08-06T07:36:57Z</time></trkpt>
<trkpt lat="28.907499" lon="99.81889">
<time>2015-08-06T07:36:58Z</time></trkpt>
<trkpt lat="28.907359" lon="99.81911">
<time>2015-08-06T07:36:59Z</time></trkpt>
<trkpt lat="28.90723" lon="99.819351">
<time>2015-08-06T07:37:00Z</time></trkpt>
<trkpt lat="28.90712" lon="99.819561">
<time>2015-08-06T07:37:01Z</time></trkpt>
<trkpt lat="28.906951" lon="99.819812">
<time>2015-08-06T07:37:02Z</time></trkpt>
<trkpt lat="28.906791" lon="99.820042">
<time>2015-08-06T07:37:03Z</time></trkpt>
<trkpt lat="28.906293" lon="99.820673">
<time>2015-08-06T07:37:04Z</time></trkpt>
<trkpt lat="28.905904" lon="99.821165">
<time>2015-08-06T07:37:05Z</time></trkpt>
<trkpt lat="28.905675" lon="99.821465">
<time>2015-08-06T07:37:06Z</time></trkpt>
<trkpt lat="28.905475" lon="99.821666">
<time>2015-08-06T07:37:07Z</time></trkpt>
<trkpt lat="28.905186" lon="99.821946">
<time>2015-08-06T07:37:08Z</time></trkpt>
<trkpt lat="28.904937" lon="99.822197">
<time>2015-08-06T07:37:09Z</time></trkpt>
<trkpt lat="28.904718" lon="99.822557">
<time>2015-08-06T07:37:10Z</time></trkpt>
<trkpt lat="28.904529" lon="99.822948">
<time>2015-08-06T07:37:11Z</time></trkpt>
<trkpt lat="28.904349" lon="99.823329">
<time>2015-08-06T07:37:12Z</time></trkpt>
<trkpt lat="28.90424" lon="99.82366">
<time>2015-08-06T07:37:13Z</time></trkpt>
<trkpt lat="28.904151" lon="99.82399">
<time>2015-08-06T07:37:14Z</time></trkpt>
<trkpt lat="28.904052" lon="99.824361">
<time>2015-08-06T07:37:15Z</time></trkpt>
<trkpt lat="28.903863" lon="99.824993">
<time>2015-08-06T07:37:16Z</time></trkpt>
<trkpt lat="28.903783" lon="99.825243">
<time>2015-08-06T07:37:17Z</time></trkpt>
<trkpt lat="28.903674" lon="99.825504">
<time>2015-08-06T07:37:18Z</time></trkpt>
<trkpt lat="28.903535" lon="99.825714">
<time>2015-08-06T07:37:19Z</time></trkpt>
<trkpt lat="28.903375" lon="99.825905">
<time>2015-08-06T07:37:20Z</time></trkpt>
<trkpt lat="28.903295" lon="99.825975">
<time>2015-08-06T07:37:21Z</time></trkpt>
<trkpt lat="28.903205" lon="99.826055">
<time>2015-08-06T07:37:22Z</time></trkpt>
<trkpt lat="28.903116" lon="99.826105">
<time>2015-08-06T07:37:23Z</time></trkpt>
<trkpt lat="28.902986" lon="99.826155">
<time>2015-08-06T07:37:24Z</time></trkpt>
<trkpt lat="28.902876" lon="99.826195">
<time>2015-08-06T07:37:25Z</time></trkpt>
<trkpt lat="28.902746" lon="99.826215">
<time>2015-08-06T07:37:26Z</time></trkpt>
<trkpt lat="28.902656" lon="99.826225">
<time>2015-08-06T07:37:27Z</time></trkpt>
<trkpt lat="28.902556" lon="99.826215">
<time>2015-08-06T07:37:28Z</time></trkpt>
<trkpt lat="28.902456" lon="99.826185">
<time>2015-08-06T07:37:29Z</time></trkpt>
<trkpt lat="28.902366" lon="99.826125">
<time>2015-08-06T07:37:30Z</time></trkpt>
<trkpt lat="28.902236" lon="99.826035">
<time>2015-08-06T07:37:31Z</time></trkpt>
<trkpt lat="28.902016" lon="99.825925">
<time>2015-08-06T07:37:32Z</time></trkpt>
<trkpt lat="28.901706" lon="99.825804">
<time>2015-08-06T07:37:33Z</time></trkpt>
<trkpt lat="28.901596" lon="99.825764">
<time>2015-08-06T07:37:34Z</time></trkpt>
<trkpt lat="28.901436" lon="99.825724">
<time>2015-08-06T07:37:35Z</time></trkpt>
<trkpt lat="28.901266" lon="99.825714">
<time>2015-08-06T07:37:36Z</time></trkpt>
<trkpt lat="28.901076" lon="99.825714">
<time>2015-08-06T07:37:37Z</time></trkpt>
<trkpt lat="28.900807" lon="99.825714">
<time>2015-08-06T07:37:38Z</time></trkpt>
<trkpt lat="28.900677" lon="99.825734">
<time>2015-08-06T07:37:39Z</time></trkpt>
<trkpt lat="28.900387" lon="99.825834">
<time>2015-08-06T07:37:40Z</time></trkpt>
<trkpt lat="28.900257" lon="99.825854">
<time>2015-08-06T07:37:41Z</time></trkpt>
<trkpt lat="28.900068" lon="99.825875">
<time>2015-08-06T07:37:42Z</time></trkpt>
<trkpt lat="28.899908" lon="99.825895">
<time>2015-08-06T07:37:43Z</time></trkpt>
<trkpt lat="28.899418" lon="99.826035">
<time>2015-08-06T07:37:44Z</time></trkpt>
<trkpt lat="28.899179" lon="99.826105">
<time>2015-08-06T07:37:45Z</time></trkpt>
<trkpt lat="28.898819" lon="99.826185">
<time>2015-08-06T07:37:46Z</time></trkpt>
<trkpt lat="28.898599" lon="99.826225">
<time>2015-08-06T07:37:47Z</time></trkpt>
<trkpt lat="28.898479" lon="99.826255">
<time>2015-08-06T07:37:48Z</time></trkpt>
<trkpt lat="28.89833" lon="99.826265">
<time>2015-08-06T07:37:49Z</time></trkpt>
<trkpt lat="28.89791" lon="99.826295">
<time>2015-08-06T07:37:50Z</time></trkpt>
<trkpt lat="28.8975" lon="99.826316">
<time>2015-08-06T07:37:51Z</time></trkpt>
<trkpt lat="28.89739" lon="99.826306">
<time>2015-08-06T07:37:52Z</time></trkpt>
<trkpt lat="28.89727" lon="99.826285">
<time>2015-08-06T07:37:53Z</time></trkpt>
<trkpt lat="28.89711" lon="99.826245">
<time>2015-08-06T07:37:54Z</time></trkpt>
<trkpt lat="28.89696" lon="99.826175">
<time>2015-08-06T07:37:55Z</time></trkpt>
<trkpt lat="28.89682" lon="99.826125">
<time>2015-08-06T07:37:56Z</time></trkpt>
<trkpt lat="28.8967" lon="99.826045">
<time>2015-08-06T07:37:57Z</time></trkpt>
<trkpt lat="28.8966" lon="99.825935">
<time>2015-08-06T07:37:58Z</time></trkpt>
<trkpt lat="28.89649" lon="99.825814">
<time>2015-08-06T07:37:59Z</time></trkpt>
<trkpt lat="28.89634" lon="99.825624">
<time>2015-08-06T07:38:00Z</time></trkpt>
<trkpt lat="28.896049" lon="99.825193">
<time>2015-08-06T07:38:01Z</time></trkpt>
<trkpt lat="28.895749" lon="99.824712">
<time>2015-08-06T07:38:02Z</time></trkpt>
<trkpt lat="28.895548" lon="99.824382">
<time>2015-08-06T07:38:03Z</time></trkpt>
<trkpt lat="28.895337" lon="99.823941">
<time>2015-08-06T07:38:04Z</time></trkpt>
<trkpt lat="28.895277" lon="99.82381">
<time>2015-08-06T07:38:05Z</time></trkpt>
<trkpt lat="28.895197" lon="99.82365">
<time>2015-08-06T07:38:06Z</time></trkpt>
<trkpt lat="28.895107" lon="99.82349">
<time>2015-08-06T07:38:07Z</time></trkpt>
<trkpt lat="28.894977" lon="99.823279">
<time>2015-08-06T07:38:08Z</time></trkpt>
<trkpt lat="28.894866" lon="99.823129">
<time>2015-08-06T07:38:09Z</time></trkpt>
<trkpt lat="28.894776" lon="99.822999">
<time>2015-08-06T07:38:10Z</time></trkpt>
<trkpt lat="28.894596" lon="99.822748">
<time>2015-08-06T07:38:11Z</time></trkpt>
<trkpt lat="28.894476" lon="99.822588">
<time>2015-08-06T07:38:12Z</time></trkpt>
<trkpt lat="28.894395" lon="99.822498">
<time>2015-08-06T07:38:13Z</time></trkpt>
<trkpt lat="28.894265" lon="99.822367">
<time>2015-08-06T07:38:14Z</time></trkpt>
<trkpt lat="28.894135" lon="99.822237">
<time>2015-08-06T07:38:15Z</time></trkpt>
<trkpt lat="28.894035" lon="99.822147">
<time>2015-08-06T07:38:16Z</time></trkpt>
<trkpt lat="28.893905" lon="99.822057">
<time>2015-08-06T07:38:17Z</time></trkpt>
<trkpt lat="28.893775" lon="99.821987">
<time>2015-08-06T07:38:18Z</time></trkpt>
<trkpt lat="28.893635" lon="99.821916">
<time>2015-08-06T07:38:19Z</time></trkpt>
<trkpt lat="28.893325" lon="99.821806">
<time>2015-08-06T07:38:20Z</time></trkpt>
<trkpt lat="28.893085" lon="99.821716">
<time>2015-08-06T07:38:21Z</time></trkpt>
<trkpt lat="28.892915" lon="99.821676">
<time>2015-08-06T07:38:22Z</time></trkpt>
<trkpt lat="28.892655" lon="99.821636">
<time>2015-08-06T07:38:23Z</time></trkpt>
<trkpt lat="28.892465" lon="99.821626">
<time>2015-08-06T07:38:24Z</time></trkpt>
<trkpt lat="28.892266" lon="99.821646">
<time>2015-08-06T07:38:25Z</time></trkpt>
<trkpt lat="28.892036" lon="99.821696">
<time>2015-08-06T07:38:26Z</time></trkpt>
<trkpt lat="28.891836" lon="99.821756">
<time>2015-08-06T07:38:27Z</time></trkpt>
<trkpt lat="28.891576" lon="99.821846">
<time>2015-08-06T07:38:28Z</time></trkpt>
<trkpt lat="28.891357" lon="99.821936">
<time>2015-08-06T07:38:29Z</time></trkpt>
<trkpt lat="28.891067" lon="99.822137">
<time>2015-08-06T07:38:30Z</time></trkpt>
<trkpt lat="28.890628" lon="99.822448">
<time>2015-08-06T07:38:31Z</time></trkpt>
<trkpt lat="28.890509" lon="99.822578">
<time>2015-08-06T07:38:32Z</time></trkpt>
<trkpt lat="28.890409" lon="99.822698">
<time>2015-08-06T07:38:33Z</time></trkpt>
<trkpt lat="28.890329" lon="99.822868">
<time>2015-08-06T07:38:34Z</time></trkpt>
<trkpt lat="28.8902" lon="99.823269">
<time>2015-08-06T07:38:35Z</time></trkpt>
<trkpt lat="28.889872" lon="99.824181">
<time>2015-08-06T07:38:36Z</time></trkpt>
<trkpt lat="28.889773" lon="99.824492">
<time>2015-08-06T07:38:37Z</time></trkpt>
<trkpt lat="28.889713" lon="99.824742">
<time>2015-08-06T07:38:38Z</time></trkpt>
<trkpt lat="28.889683" lon="99.824853">
<time>2015-08-06T07:38:39Z</time></trkpt>
<trkpt lat="28.889674" lon="99.824923">
<time>2015-08-06T07:38:40Z</time></trkpt>
<trkpt lat="28.889634" lon="99.825233">
<time>2015-08-06T07:38:41Z</time></trkpt>
<trkpt lat="28.889615" lon="99.825364">
<time>2015-08-06T07:38:42Z</time></trkpt>
<trkpt lat="28.889595" lon="99.825464">
<time>2015-08-06T07:38:43Z</time></trkpt>
<trkpt lat="28.889545" lon="99.825674">
<time>2015-08-06T07:38:44Z</time></trkpt>
<trkpt lat="28.889505" lon="99.825825">
<time>2015-08-06T07:38:45Z</time></trkpt>
<trkpt lat="28.889446" lon="99.825995">
<time>2015-08-06T07:38:46Z</time></trkpt>
<trkpt lat="28.889386" lon="99.826175">
<time>2015-08-06T07:38:47Z</time></trkpt>
<trkpt lat="28.889346" lon="99.826296">
<time>2015-08-06T07:38:48Z</time></trkpt>
<trkpt lat="28.889277" lon="99.826556">
<time>2015-08-06T07:38:49Z</time></trkpt>
<trkpt lat="28.889257" lon="99.826707">
<time>2015-08-06T07:38:50Z</time></trkpt>
<trkpt lat="28.889238" lon="99.826867">
<time>2015-08-06T07:38:51Z</time></trkpt>
<trkpt lat="28.889228" lon="99.826997">
<time>2015-08-06T07:38:52Z</time></trkpt>
<trkpt lat="28.889218" lon="99.827158">
<time>2015-08-06T07:38:53Z</time></trkpt>
<trkpt lat="28.889229" lon="99.827568">
<time>2015-08-06T07:38:54Z</time></trkpt>
<trkpt lat="28.889239" lon="99.827809">
<time>2015-08-06T07:38:55Z</time></trkpt>
<trkpt lat="28.88923" lon="99.828019">
<time>2015-08-06T07:38:56Z</time></trkpt>
<trkpt lat="28.88922" lon="99.82818">
<time>2015-08-06T07:38:57Z</time></trkpt>
<trkpt lat="28.88921" lon="99.82835">
<time>2015-08-06T07:38:58Z</time></trkpt>
<trkpt lat="28.889171" lon="99.828611">
<time>2015-08-06T07:38:59Z</time></trkpt>
<trkpt lat="28.889082" lon="99.829132">
<time>2015-08-06T07:39:00Z</time></trkpt>
<trkpt lat="28.888993" lon="99.829553">
<time>2015-08-06T07:39:01Z</time></trkpt>
<trkpt lat="28.888953" lon="99.829683">
<time>2015-08-06T07:39:02Z</time></trkpt>
<trkpt lat="28.888913" lon="99.829833">
<time>2015-08-06T07:39:03Z</time></trkpt>
<trkpt lat="28.888804" lon="99.830144">
<time>2015-08-06T07:39:04Z</time></trkpt>
<trkpt lat="28.888754" lon="99.830304">
<time>2015-08-06T07:39:05Z</time></trkpt>
<trkpt lat="28.888725" lon="99.830424">
<time>2015-08-06T07:39:06Z</time></trkpt>
<trkpt lat="28.888705" lon="99.830585">
<time>2015-08-06T07:39:07Z</time></trkpt>
<trkpt lat="28.888685" lon="99.830715">
<time>2015-08-06T07:39:08Z</time></trkpt>
<trkpt lat="28.888656" lon="99.831036">
<time>2015-08-06T07:39:09Z</time></trkpt>
<trkpt lat="28.888646" lon="99.831176">
<time>2015-08-06T07:39:10Z</time></trkpt>
<trkpt lat="28.888626" lon="99.831286">
<time>2015-08-06T07:39:11Z</time></trkpt>
<trkpt lat="28.888587" lon="99.831467">
<time>2015-08-06T07:39:12Z</time></trkpt>
<trkpt lat="28.888299" lon="99.832499">
<time>2015-08-06T07:39:13Z</time></trkpt>
<trkpt lat="28.88814" lon="99.832839">
<time>2015-08-06T07:39:14Z</time></trkpt>
<trkpt lat="28.888" lon="99.83311">
<time>2015-08-06T07:39:15Z</time></trkpt>
<trkpt lat="28.887801" lon="99.833411">
<time>2015-08-06T07:39:16Z</time></trkpt>
<trkpt lat="28.887622" lon="99.833641">
<time>2015-08-06T07:39:17Z</time></trkpt>
<trkpt lat="28.887432" lon="99.833892">
<time>2015-08-06T07:39:18Z</time></trkpt>
<trkpt lat="28.887263" lon="99.834072">
<time>2015-08-06T07:39:19Z</time></trkpt>
<trkpt lat="28.887063" lon="99.834232">
<time>2015-08-06T07:39:20Z</time></trkpt>
<trkpt lat="28.886834" lon="99.834403">
<time>2015-08-06T07:39:21Z</time></trkpt>
<trkpt lat="28.886594" lon="99.834513">
<time>2015-08-06T07:39:22Z</time></trkpt>
<trkpt lat="28.886374" lon="99.834593">
<time>2015-08-06T07:39:23Z</time></trkpt>
<trkpt lat="28.886115" lon="99.834673">
<time>2015-08-06T07:39:24Z</time></trkpt>
<trkpt lat="28.885815" lon="99.834744">
<time>2015-08-06T07:39:25Z</time></trkpt>
<trkpt lat="28.885455" lon="99.834814">
<time>2015-08-06T07:39:26Z</time></trkpt>
<trkpt lat="28.885026" lon="99.834854">
<time>2015-08-06T07:39:27Z</time></trkpt>
<trkpt lat="28.884726" lon="99.834884">
<time>2015-08-06T07:39:28Z</time></trkpt>
<trkpt lat="28.884486" lon="99.834924">
<time>2015-08-06T07:39:29Z</time></trkpt>
<trkpt lat="28.884177" lon="99.835034">
<time>2015-08-06T07:39:30Z</time></trkpt>
<trkpt lat="28.883907" lon="99.835184">
<time>2015-08-06T07:39:31Z</time></trkpt>
<trkpt lat="28.883738" lon="99.835325">
<time>2015-08-06T07:39:32Z</time></trkpt>
<trkpt lat="28.883548" lon="99.835455">
<time>2015-08-06T07:39:33Z</time></trkpt>
<trkpt lat="28.883259" lon="99.835746">
<time>2015-08-06T07:39:34Z</time></trkpt>
<trkpt lat="28.88289" lon="99.836116">
<time>2015-08-06T07:39:35Z</time></trkpt>
<trkpt lat="28.88264" lon="99.836347">
<time>2015-08-06T07:39:36Z</time></trkpt>
<trkpt lat="28.882531" lon="99.836437">
<time>2015-08-06T07:39:37Z</time></trkpt>
<trkpt lat="28.882421" lon="99.836497">
<time>2015-08-06T07:39:38Z</time></trkpt>
<trkpt lat="28.882301" lon="99.836557">
<time>2015-08-06T07:39:39Z</time></trkpt>
<trkpt lat="28.882171" lon="99.836587">
<time>2015-08-06T07:39:40Z</time></trkpt>
<trkpt lat="28.881981" lon="99.836617">
<time>2015-08-06T07:39:41Z</time></trkpt>
<trkpt lat="28.881672" lon="99.836648">
<time>2015-08-06T07:39:42Z</time></trkpt>
<trkpt lat="28.881192" lon="99.836688">
<time>2015-08-06T07:39:43Z</time></trkpt>
<trkpt lat="28.881082" lon="99.836688">
<time>2015-08-06T07:39:44Z</time></trkpt>
<trkpt lat="28.880952" lon="99.836688">
<time>2015-08-06T07:39:45Z</time></trkpt>
<trkpt lat="28.880822" lon="99.836658">
<time>2015-08-06T07:39:46Z</time></trkpt>
<trkpt lat="28.880732" lon="99.836628">
<time>2015-08-06T07:39:47Z</time></trkpt>
<trkpt lat="28.880632" lon="99.836587">
<time>2015-08-06T07:39:48Z</time></trkpt>
<trkpt lat="28.880542" lon="99.836507">
<time>2015-08-06T07:39:49Z</time></trkpt>
<trkpt lat="28.880472" lon="99.836417">
<time>2015-08-06T07:39:50Z</time></trkpt>
<trkpt lat="28.880412" lon="99.836297">
<time>2015-08-06T07:39:51Z</time></trkpt>
<trkpt lat="28.879829" lon="99.834603">
<time>2015-08-06T07:39:52Z</time></trkpt>
<trkpt lat="28.879659" lon="99.834122">
<time>2015-08-06T07:39:53Z</time></trkpt>
<trkpt lat="28.879428" lon="99.833581">
<time>2015-08-06T07:39:54Z</time></trkpt>
<trkpt lat="28.879177" lon="99.83313">
<time>2015-08-06T07:39:55Z</time></trkpt>
<trkpt lat="28.878866" lon="99.832549">
<time>2015-08-06T07:39:56Z</time></trkpt>
<trkpt lat="28.878676" lon="99.832248">
<time>2015-08-06T07:39:57Z</time></trkpt>
<trkpt lat="28.878576" lon="99.832118">
<time>2015-08-06T07:39:58Z</time></trkpt>
<trkpt lat="28.878415" lon="99.831948">
<time>2015-08-06T07:39:59Z</time></trkpt>
<trkpt lat="28.878225" lon="99.831777">
<time>2015-08-06T07:40:00Z</time></trkpt>
<trkpt lat="28.878035" lon="99.831627">
<time>2015-08-06T07:40:01Z</time></trkpt>
<trkpt lat="28.877895" lon="99.831497">
<time>2015-08-06T07:40:02Z</time></trkpt>
<trkpt lat="28.877735" lon="99.831407">
<time>2015-08-06T07:40:03Z</time></trkpt>
<trkpt lat="28.877615" lon="99.831337">
<time>2015-08-06T07:40:04Z</time></trkpt>
<trkpt lat="28.877465" lon="99.831266">
<time>2015-08-06T07:40:05Z</time></trkpt>
<trkpt lat="28.877295" lon="99.831216">
<time>2015-08-06T07:40:06Z</time></trkpt>
<trkpt lat="28.877065" lon="99.831166">
<time>2015-08-06T07:40:07Z</time></trkpt>
<trkpt lat="28.876965" lon="99.831156">
<time>2015-08-06T07:40:08Z</time></trkpt>
<trkpt lat="28.876875" lon="99.831156">
<time>2015-08-06T07:40:09Z</time></trkpt>
<trkpt lat="28.876645" lon="99.831196">
<time>2015-08-06T07:40:10Z</time></trkpt>
<trkpt lat="28.876565" lon="99.831196">
<time>2015-08-06T07:40:11Z</time></trkpt>
<trkpt lat="28.876525" lon="99.831196">
<time>2015-08-06T07:40:12Z</time></trkpt>
<trkpt lat="28.876485" lon="99.831186">
<time>2015-08-06T07:40:13Z</time></trkpt>
<trkpt lat="28.876455" lon="99.831176">
<time>2015-08-06T07:40:14Z</time></trkpt>
<trkpt lat="28.876425" lon="99.831156">
<time>2015-08-06T07:40:15Z</time></trkpt>
<trkpt lat="28.876395" lon="99.831126">
<time>2015-08-06T07:40:16Z</time></trkpt>
<trkpt lat="28.876375" lon="99.831096">
<time>2015-08-06T07:40:17Z</time></trkpt>
<trkpt lat="28.876355" lon="99.831056">
<time>2015-08-06T07:40:18Z</time></trkpt>
<trkpt lat="28.876335" lon="99.831006">
<time>2015-08-06T07:40:19Z</time></trkpt>
<trkpt lat="28.876325" lon="99.830966">
<time>2015-08-06T07:40:20Z</time></trkpt>
<trkpt lat="28.876244" lon="99.830515">
<time>2015-08-06T07:40:21Z</time></trkpt>
<trkpt lat="28.876214" lon="99.830405">
<time>2015-08-06T07:40:22Z</time></trkpt>
<trkpt lat="28.876164" lon="99.830314">
<time>2015-08-06T07:40:23Z</time></trkpt>
<trkpt lat="28.876114" lon="99.830244">
<time>2015-08-06T07:40:24Z</time></trkpt>
<trkpt lat="28.876014" lon="99.830164">
<time>2015-08-06T07:40:25Z</time></trkpt>
<trkpt lat="28.875333" lon="99.829513">
<time>2015-08-06T07:40:26Z</time></trkpt>
<trkpt lat="28.874472" lon="99.828601">
<time>2015-08-06T07:40:27Z</time></trkpt>
<trkpt lat="28.874332" lon="99.828481">
<time>2015-08-06T07:40:28Z</time></trkpt>
<trkpt lat="28.874002" lon="99.82822">
<time>2015-08-06T07:40:29Z</time></trkpt>
<trkpt lat="28.873091" lon="99.827609">
<time>2015-08-06T07:40:30Z</time></trkpt>
<trkpt lat="28.872811" lon="99.827449">
<time>2015-08-06T07:40:31Z</time></trkpt>
<trkpt lat="28.872291" lon="99.827068">
<time>2015-08-06T07:40:32Z</time></trkpt>
<trkpt lat="28.871441" lon="99.826587">
<time>2015-08-06T07:40:33Z</time></trkpt>
<trkpt lat="28.871211" lon="99.826497">
<time>2015-08-06T07:40:34Z</time></trkpt>
<trkpt lat="28.871001" lon="99.826456">
<time>2015-08-06T07:40:35Z</time></trkpt>
<trkpt lat="28.870791" lon="99.826436">
<time>2015-08-06T07:40:36Z</time></trkpt>
<trkpt lat="28.870571" lon="99.826436">
<time>2015-08-06T07:40:37Z</time></trkpt>
<trkpt lat="28.870281" lon="99.826446">
<time>2015-08-06T07:40:38Z</time></trkpt>
<trkpt lat="28.870101" lon="99.826477">
<time>2015-08-06T07:40:39Z</time></trkpt>
<trkpt lat="28.869802" lon="99.826557">
<time>2015-08-06T07:40:40Z</time></trkpt>
<trkpt lat="28.868663" lon="99.827048">
<time>2015-08-06T07:40:41Z</time></trkpt>
<trkpt lat="28.868454" lon="99.827158">
<time>2015-08-06T07:40:42Z</time></trkpt>
<trkpt lat="28.868224" lon="99.827328">
<time>2015-08-06T07:40:43Z</time></trkpt>
<trkpt lat="28.868045" lon="99.827529">
<time>2015-08-06T07:40:44Z</time></trkpt>
<trkpt lat="28.867875" lon="99.827709">
<time>2015-08-06T07:40:45Z</time></trkpt>
<trkpt lat="28.867696" lon="99.82788">
<time>2015-08-06T07:40:46Z</time></trkpt>
<trkpt lat="28.867476" lon="99.82805">
<time>2015-08-06T07:40:47Z</time></trkpt>
<trkpt lat="28.867267" lon="99.82822">
<time>2015-08-06T07:40:48Z</time></trkpt>
<trkpt lat="28.867037" lon="99.828391">
<time>2015-08-06T07:40:49Z</time></trkpt>
<trkpt lat="28.866808" lon="99.828551">
<time>2015-08-06T07:40:50Z</time></trkpt>
<trkpt lat="28.866528" lon="99.828812">
<time>2015-08-06T07:40:51Z</time></trkpt>
<trkpt lat="28.86596" lon="99.829383">
<time>2015-08-06T07:40:52Z</time></trkpt>
<trkpt lat="28.8658" lon="99.829513">
<time>2015-08-06T07:40:53Z</time></trkpt>
<trkpt lat="28.865631" lon="99.829653">
<time>2015-08-06T07:40:54Z</time></trkpt>
<trkpt lat="28.865421" lon="99.829794">
<time>2015-08-06T07:40:55Z</time></trkpt>
<trkpt lat="28.865271" lon="99.829884">
<time>2015-08-06T07:40:56Z</time></trkpt>
<trkpt lat="28.865201" lon="99.829924">
<time>2015-08-06T07:40:57Z</time></trkpt>
<trkpt lat="28.865132" lon="99.829964">
<time>2015-08-06T07:40:58Z</time></trkpt>
<trkpt lat="28.865032" lon="99.830004">
<time>2015-08-06T07:40:59Z</time></trkpt>
<trkpt lat="28.864982" lon="99.830014">
<time>2015-08-06T07:41:00Z</time></trkpt>
<trkpt lat="28.864842" lon="99.830054">
<time>2015-08-06T07:41:01Z</time></trkpt>
<trkpt lat="28.864792" lon="99.830064">
<time>2015-08-06T07:41:02Z</time></trkpt>
<trkpt lat="28.864752" lon="99.830084">
<time>2015-08-06T07:41:03Z</time></trkpt>
<trkpt lat="28.864722" lon="99.830114">
<time>2015-08-06T07:41:04Z</time></trkpt>
<trkpt lat="28.864692" lon="99.830144">
<time>2015-08-06T07:41:05Z</time></trkpt>
<trkpt lat="28.864672" lon="99.830195">
<time>2015-08-06T07:41:06Z</time></trkpt>
<trkpt lat="28.864652" lon="99.830235">
<time>2015-08-06T07:41:07Z</time></trkpt>
<trkpt lat="28.864653" lon="99.830315">
<time>2015-08-06T07:41:08Z</time></trkpt>
<trkpt lat="28.864663" lon="99.830565">
<time>2015-08-06T07:41:09Z</time></trkpt>
<trkpt lat="28.864663" lon="99.830645">
<time>2015-08-06T07:41:10Z</time></trkpt>
<trkpt lat="28.864653" lon="99.830716">
<time>2015-08-06T07:41:11Z</time></trkpt>
<trkpt lat="28.864643" lon="99.830766">
<time>2015-08-06T07:41:12Z</time></trkpt>
<trkpt lat="28.864624" lon="99.830816">
<time>2015-08-06T07:41:13Z</time></trkpt>
<trkpt lat="28.864584" lon="99.830856">
<time>2015-08-06T07:41:14Z</time></trkpt>
<trkpt lat="28.864544" lon="99.830896">
<time>2015-08-06T07:41:15Z</time></trkpt>
<trkpt lat="28.864484" lon="99.830926">
<time>2015-08-06T07:41:16Z</time></trkpt>
<trkpt lat="28.864434" lon="99.830956">
<time>2015-08-06T07:41:17Z</time></trkpt>
<trkpt lat="28.864324" lon="99.830986">
<time>2015-08-06T07:41:18Z</time></trkpt>
<trkpt lat="28.864104" lon="99.831086">
<time>2015-08-06T07:41:19Z</time></trkpt>
<trkpt lat="28.863915" lon="99.831187">
<time>2015-08-06T07:41:20Z</time></trkpt>
<trkpt lat="28.863156" lon="99.831708">
<time>2015-08-06T07:41:21Z</time></trkpt>
<trkpt lat="28.862767" lon="99.831958">
<time>2015-08-06T07:41:22Z</time></trkpt>
<trkpt lat="28.862657" lon="99.832008">
<time>2015-08-06T07:41:23Z</time></trkpt>
<trkpt lat="28.862557" lon="99.832048">
<time>2015-08-06T07:41:24Z</time></trkpt>
<trkpt lat="28.862438" lon="99.832069">
<time>2015-08-06T07:41:25Z</time></trkpt>
<trkpt lat="28.862288" lon="99.832079">
<time>2015-08-06T07:41:26Z</time></trkpt>
<trkpt lat="28.861958" lon="99.832129">
<time>2015-08-06T07:41:27Z</time></trkpt>
<trkpt lat="28.861758" lon="99.832149">
<time>2015-08-06T07:41:28Z</time></trkpt>
<trkpt lat="28.861658" lon="99.832149">
<time>2015-08-06T07:41:29Z</time></trkpt>
<trkpt lat="28.861538" lon="99.832139">
<time>2015-08-06T07:41:30Z</time></trkpt>
<trkpt lat="28.861428" lon="99.832129">
<time>2015-08-06T07:41:31Z</time></trkpt>
<trkpt lat="28.861328" lon="99.832109">
<time>2015-08-06T07:41:32Z</time></trkpt>
<trkpt lat="28.861079" lon="99.832038">
<time>2015-08-06T07:41:33Z</time></trkpt>
<trkpt lat="28.860649" lon="99.831898">
<time>2015-08-06T07:41:34Z</time></trkpt>
<trkpt lat="28.860519" lon="99.831868">
<time>2015-08-06T07:41:35Z</time></trkpt>
<trkpt lat="28.860399" lon="99.831848">
<time>2015-08-06T07:41:36Z</time></trkpt>
<trkpt lat="28.860249" lon="99.831838">
<time>2015-08-06T07:41:37Z</time></trkpt>
<trkpt lat="28.860099" lon="99.831848">
<time>2015-08-06T07:41:38Z</time></trkpt>
<trkpt lat="28.860029" lon="99.831848">
<time>2015-08-06T07:41:39Z</time></trkpt>
<trkpt lat="28.859949" lon="99.831838">
<time>2015-08-06T07:41:40Z</time></trkpt>
<trkpt lat="28.859869" lon="99.831808">
<time>2015-08-06T07:41:41Z</time></trkpt>
<trkpt lat="28.859749" lon="99.831768">
<time>2015-08-06T07:41:42Z</time></trkpt>
<trkpt lat="28.859459" lon="99.831588">
<time>2015-08-06T07:41:43Z</time></trkpt>
<trkpt lat="28.859379" lon="99.831537">
<time>2015-08-06T07:41:44Z</time></trkpt>
<trkpt lat="28.859299" lon="99.831507">
<time>2015-08-06T07:41:45Z</time></trkpt>
<trkpt lat="28.859219" lon="99.831477">
<time>2015-08-06T07:41:46Z</time></trkpt>
<trkpt lat="28.859129" lon="99.831457">
<time>2015-08-06T07:41:47Z</time></trkpt>
<trkpt lat="28.859049" lon="99.831457">
<time>2015-08-06T07:41:48Z</time></trkpt>
<trkpt lat="28.858949" lon="99.831457">
<time>2015-08-06T07:41:49Z</time></trkpt>
<trkpt lat="28.858879" lon="99.831477">
<time>2015-08-06T07:41:50Z</time></trkpt>
<trkpt lat="28.858689" lon="99.831517">
<time>2015-08-06T07:41:51Z</time></trkpt>
<trkpt lat="28.857391" lon="99.831918">
<time>2015-08-06T07:41:52Z</time></trkpt>
<trkpt lat="28.857231" lon="99.831948">
<time>2015-08-06T07:41:53Z</time></trkpt>
<trkpt lat="28.857071" lon="99.831968">
<time>2015-08-06T07:41:54Z</time></trkpt>
<trkpt lat="28.856931" lon="99.831968">
<time>2015-08-06T07:41:55Z</time></trkpt>
<trkpt lat="28.856722" lon="99.831948">
<time>2015-08-06T07:41:56Z</time></trkpt>
<trkpt lat="28.856392" lon="99.831908">
<time>2015-08-06T07:41:57Z</time></trkpt>
<trkpt lat="28.856162" lon="99.831898">
<time>2015-08-06T07:41:58Z</time></trkpt>
<trkpt lat="28.855952" lon="99.831848">
<time>2015-08-06T07:41:59Z</time></trkpt>
<trkpt lat="28.855662" lon="99.831758">
<time>2015-08-06T07:42:00Z</time></trkpt>
<trkpt lat="28.855432" lon="99.831668">
<time>2015-08-06T07:42:01Z</time></trkpt>
<trkpt lat="28.855162" lon="99.831548">
<time>2015-08-06T07:42:02Z</time></trkpt>
<trkpt lat="28.854952" lon="99.831467">
<time>2015-08-06T07:42:03Z</time></trkpt>
<trkpt lat="28.854732" lon="99.831367">
<time>2015-08-06T07:42:04Z</time></trkpt>
<trkpt lat="28.854562" lon="99.831287">
<time>2015-08-06T07:42:05Z</time></trkpt>
<trkpt lat="28.854462" lon="99.831217">
<time>2015-08-06T07:42:06Z</time></trkpt>
<trkpt lat="28.854362" lon="99.831137">
<time>2015-08-06T07:42:07Z</time></trkpt>
<trkpt lat="28.854061" lon="99.830846">
<time>2015-08-06T07:42:08Z</time></trkpt>
<trkpt lat="28.853961" lon="99.830726">
<time>2015-08-06T07:42:09Z</time></trkpt>
<trkpt lat="28.853871" lon="99.830626">
<time>2015-08-06T07:42:10Z</time></trkpt>
<trkpt lat="28.853841" lon="99.830586">
<time>2015-08-06T07:42:11Z</time></trkpt>
<trkpt lat="28.853721" lon="99.830415">
<time>2015-08-06T07:42:12Z</time></trkpt>
<trkpt lat="28.853671" lon="99.830335">
<time>2015-08-06T07:42:13Z</time></trkpt>
<trkpt lat="28.853651" lon="99.830275">
<time>2015-08-06T07:42:14Z</time></trkpt>
<trkpt lat="28.853631" lon="99.830205">
<time>2015-08-06T07:42:15Z</time></trkpt>
<trkpt lat="28.853621" lon="99.830155">
<time>2015-08-06T07:42:16Z</time></trkpt>
<trkpt lat="28.85361" lon="99.830085">
<time>2015-08-06T07:42:17Z</time></trkpt>
<trkpt lat="28.85361" lon="99.830014">
<time>2015-08-06T07:42:18Z</time></trkpt>
<trkpt lat="28.85362" lon="99.829924">
<time>2015-08-06T07:42:19Z</time></trkpt>
<trkpt lat="28.85366" lon="99.829784">
<time>2015-08-06T07:42:20Z</time></trkpt>
<trkpt lat="28.85367" lon="99.829714">
<time>2015-08-06T07:42:21Z</time></trkpt>
<trkpt lat="28.85368" lon="99.829664">
<time>2015-08-06T07:42:22Z</time></trkpt>
<trkpt lat="28.853679" lon="99.829614">
<time>2015-08-06T07:42:23Z</time></trkpt>
<trkpt lat="28.853669" lon="99.829563">
<time>2015-08-06T07:42:24Z</time></trkpt>
<trkpt lat="28.853669" lon="99.829523">
<time>2015-08-06T07:42:25Z</time></trkpt>
<trkpt lat="28.853649" lon="99.829463">
<time>2015-08-06T07:42:26Z</time></trkpt>
<trkpt lat="28.853619" lon="99.829403">
<time>2015-08-06T07:42:27Z</time></trkpt>
<trkpt lat="28.853559" lon="99.829253">
<time>2015-08-06T07:42:28Z</time></trkpt>
<trkpt lat="28.853509" lon="99.829133">
<time>2015-08-06T07:42:29Z</time></trkpt>
<trkpt lat="28.853458" lon="99.828952">
<time>2015-08-06T07:42:30Z</time></trkpt>
<trkpt lat="28.853408" lon="99.828702">
<time>2015-08-06T07:42:31Z</time></trkpt>
<trkpt lat="28.853388" lon="99.828561">
<time>2015-08-06T07:42:32Z</time></trkpt>
<trkpt lat="28.853378" lon="99.828491">
<time>2015-08-06T07:42:33Z</time></trkpt>
<trkpt lat="28.853357" lon="99.828431">
<time>2015-08-06T07:42:34Z</time></trkpt>
<trkpt lat="28.853327" lon="99.828381">
<time>2015-08-06T07:42:35Z</time></trkpt>
<trkpt lat="28.853287" lon="99.828341">
<time>2015-08-06T07:42:36Z</time></trkpt>
<trkpt lat="28.853237" lon="99.828301">
<time>2015-08-06T07:42:37Z</time></trkpt>
<trkpt lat="28.853147" lon="99.828271">
<time>2015-08-06T07:42:38Z</time></trkpt>
<trkpt lat="28.852867" lon="99.828191">
<time>2015-08-06T07:42:39Z</time></trkpt>
<trkpt lat="28.852717" lon="99.82814">
<time>2015-08-06T07:42:40Z</time></trkpt>
<trkpt lat="28.852617" lon="99.82808">
<time>2015-08-06T07:42:41Z</time></trkpt>
<trkpt lat="28.852527" lon="99.82802">
<time>2015-08-06T07:42:42Z</time></trkpt>
<trkpt lat="28.852477" lon="99.82797">
<time>2015-08-06T07:42:43Z</time></trkpt>
<trkpt lat="28.852397" lon="99.82788">
<time>2015-08-06T07:42:44Z</time></trkpt>
<trkpt lat="28.852317" lon="99.82774">
<time>2015-08-06T07:42:45Z</time></trkpt>
<trkpt lat="28.852037" lon="99.827419">
<time>2015-08-06T07:42:46Z</time></trkpt>
<trkpt lat="28.851796" lon="99.827219">
<time>2015-08-06T07:42:47Z</time></trkpt>
<trkpt lat="28.851696" lon="99.827128">
<time>2015-08-06T07:42:48Z</time></trkpt>
<trkpt lat="28.851626" lon="99.827068">
<time>2015-08-06T07:42:49Z</time></trkpt>
<trkpt lat="28.851536" lon="99.827008">
<time>2015-08-06T07:42:50Z</time></trkpt>
<trkpt lat="28.851426" lon="99.826958">
<time>2015-08-06T07:42:51Z</time></trkpt>
<trkpt lat="28.851286" lon="99.826918">
<time>2015-08-06T07:42:52Z</time></trkpt>
<trkpt lat="28.850196" lon="99.826567">
<time>2015-08-06T07:42:53Z</time></trkpt>
<trkpt lat="28.850036" lon="99.826507">
<time>2015-08-06T07:42:54Z</time></trkpt>
<trkpt lat="28.849936" lon="99.826457">
<time>2015-08-06T07:42:55Z</time></trkpt>
<trkpt lat="28.849826" lon="99.826407">
<time>2015-08-06T07:42:56Z</time></trkpt>
<trkpt lat="28.849736" lon="99.826347">
<time>2015-08-06T07:42:57Z</time></trkpt>
<trkpt lat="28.849326" lon="99.826036">
<time>2015-08-06T07:42:58Z</time></trkpt>
<trkpt lat="28.848886" lon="99.825685">
<time>2015-08-06T07:42:59Z</time></trkpt>
<trkpt lat="28.848765" lon="99.825595">
<time>2015-08-06T07:43:00Z</time></trkpt>
<trkpt lat="28.848695" lon="99.825545">
<time>2015-08-06T07:43:01Z</time></trkpt>
<trkpt lat="28.848635" lon="99.825525">
<time>2015-08-06T07:43:02Z</time></trkpt>
<trkpt lat="28.848585" lon="99.825505">
<time>2015-08-06T07:43:03Z</time></trkpt>
<trkpt lat="28.848535" lon="99.825485">
<time>2015-08-06T07:43:04Z</time></trkpt>
<trkpt lat="28.848505" lon="99.825485">
<time>2015-08-06T07:43:05Z</time></trkpt>
<trkpt lat="28.848436" lon="99.825475">
<time>2015-08-06T07:43:06Z</time></trkpt>
<trkpt lat="28.848266" lon="99.825465">
<time>2015-08-06T07:43:07Z</time></trkpt>
<trkpt lat="28.847506" lon="99.825465">
<time>2015-08-06T07:43:08Z</time></trkpt>
<trkpt lat="28.846467" lon="99.825485">
<time>2015-08-06T07:43:09Z</time></trkpt>
<trkpt lat="28.845837" lon="99.825495">
<time>2015-08-06T07:43:10Z</time></trkpt>
<trkpt lat="28.844818" lon="99.825565">
<time>2015-08-06T07:43:11Z</time></trkpt>
<trkpt lat="28.844039" lon="99.825635">
<time>2015-08-06T07:43:12Z</time></trkpt>
<trkpt lat="28.8429" lon="99.825746">
<time>2015-08-06T07:43:13Z</time></trkpt>
<trkpt lat="28.841891" lon="99.825846">
<time>2015-08-06T07:43:14Z</time></trkpt>
<trkpt lat="28.841381" lon="99.825866">
<time>2015-08-06T07:43:15Z</time></trkpt>
<trkpt lat="28.841252" lon="99.825866">
<time>2015-08-06T07:43:16Z</time></trkpt>
<trkpt lat="28.841142" lon="99.825866">
<time>2015-08-06T07:43:17Z</time></trkpt>
<trkpt lat="28.840792" lon="99.825836">
<time>2015-08-06T07:43:18Z</time></trkpt>
<trkpt lat="28.840702" lon="99.825836">
<time>2015-08-06T07:43:19Z</time></trkpt>
<trkpt lat="28.840632" lon="99.825836">
<time>2015-08-06T07:43:20Z</time></trkpt>
<trkpt lat="28.840562" lon="99.825846">
<time>2015-08-06T07:43:21Z</time></trkpt>
<trkpt lat="28.840502" lon="99.825846">
<time>2015-08-06T07:43:22Z</time></trkpt>
<trkpt lat="28.840402" lon="99.825876">
<time>2015-08-06T07:43:23Z</time></trkpt>
<trkpt lat="28.840332" lon="99.825906">
<time>2015-08-06T07:43:24Z</time></trkpt>
<trkpt lat="28.840212" lon="99.825936">
<time>2015-08-06T07:43:25Z</time></trkpt>
<trkpt lat="28.840113" lon="99.825966">
<time>2015-08-06T07:43:26Z</time></trkpt>
<trkpt lat="28.840043" lon="99.825996">
<time>2015-08-06T07:43:27Z</time></trkpt>
<trkpt lat="28.839983" lon="99.826026">
<time>2015-08-06T07:43:28Z</time></trkpt>
<trkpt lat="28.839943" lon="99.826066">
<time>2015-08-06T07:43:29Z</time></trkpt>
<trkpt lat="28.839913" lon="99.826117">
<time>2015-08-06T07:43:30Z</time></trkpt>
<trkpt lat="28.839883" lon="99.826187">
<time>2015-08-06T07:43:31Z</time></trkpt>
<trkpt lat="28.839863" lon="99.826267">
<time>2015-08-06T07:43:32Z</time></trkpt>
<trkpt lat="28.839853" lon="99.826367">
<time>2015-08-06T07:43:33Z</time></trkpt>
<trkpt lat="28.839844" lon="99.826477">
<time>2015-08-06T07:43:34Z</time></trkpt>
<trkpt lat="28.839834" lon="99.826547">
<time>2015-08-06T07:43:35Z</time></trkpt>
<trkpt lat="28.839824" lon="99.826638">
<time>2015-08-06T07:43:36Z</time></trkpt>
<trkpt lat="28.839794" lon="99.826708">
<time>2015-08-06T07:43:37Z</time></trkpt>
<trkpt lat="28.839764" lon="99.826768">
<time>2015-08-06T07:43:38Z</time></trkpt>
<trkpt lat="28.839724" lon="99.826818">
<time>2015-08-06T07:43:39Z</time></trkpt>
<trkpt lat="28.839675" lon="99.826858">
<time>2015-08-06T07:43:40Z</time></trkpt>
<trkpt lat="28.839615" lon="99.826898">
<time>2015-08-06T07:43:41Z</time></trkpt>
<trkpt lat="28.839405" lon="99.826968">
<time>2015-08-06T07:43:42Z</time></trkpt>
<trkpt lat="28.838926" lon="99.827109">
<time>2015-08-06T07:43:43Z</time></trkpt>
<trkpt lat="28.838616" lon="99.827209">
<time>2015-08-06T07:43:44Z</time></trkpt>
<trkpt lat="28.838516" lon="99.827249">
<time>2015-08-06T07:43:45Z</time></trkpt>
<trkpt lat="28.838456" lon="99.827289">
<time>2015-08-06T07:43:46Z</time></trkpt>
<trkpt lat="28.838376" lon="99.827339">
<time>2015-08-06T07:43:47Z</time></trkpt>
<trkpt lat="28.838317" lon="99.827379">
<time>2015-08-06T07:43:48Z</time></trkpt>
<trkpt lat="28.838187" lon="99.827479">
<time>2015-08-06T07:43:49Z</time></trkpt>
<trkpt lat="28.837728" lon="99.82794">
<time>2015-08-06T07:43:50Z</time></trkpt>
<trkpt lat="28.837209" lon="99.828472">
<time>2015-08-06T07:43:51Z</time></trkpt>
<trkpt lat="28.83699" lon="99.828682">
<time>2015-08-06T07:43:52Z</time></trkpt>
<trkpt lat="28.8369" lon="99.828762">
<time>2015-08-06T07:43:53Z</time></trkpt>
<trkpt lat="28.8368" lon="99.828842">
<time>2015-08-06T07:43:54Z</time></trkpt>
<trkpt lat="28.836681" lon="99.828933">
<time>2015-08-06T07:43:55Z</time></trkpt>
<trkpt lat="28.836461" lon="99.829063">
<time>2015-08-06T07:43:56Z</time></trkpt>
<trkpt lat="28.836291" lon="99.829183">
<time>2015-08-06T07:43:57Z</time></trkpt>
<trkpt lat="28.836062" lon="99.829343">
<time>2015-08-06T07:43:58Z</time></trkpt>
<trkpt lat="28.835952" lon="99.829424">
<time>2015-08-06T07:43:59Z</time></trkpt>
<trkpt lat="28.835862" lon="99.829474">
<time>2015-08-06T07:44:00Z</time></trkpt>
<trkpt lat="28.835653" lon="99.829604">
<time>2015-08-06T07:44:01Z</time></trkpt>
<trkpt lat="28.835193" lon="99.829824">
<time>2015-08-06T07:44:02Z</time></trkpt>
<trkpt lat="28.834754" lon="99.829985">
<time>2015-08-06T07:44:03Z</time></trkpt>
<trkpt lat="28.834295" lon="99.830145">
<time>2015-08-06T07:44:04Z</time></trkpt>
<trkpt lat="28.833755" lon="99.830285">
<time>2015-08-06T07:44:05Z</time></trkpt>
<trkpt lat="28.833665" lon="99.830316">
<time>2015-08-06T07:44:06Z</time></trkpt>
<trkpt lat="28.833606" lon="99.830356">
<time>2015-08-06T07:44:07Z</time></trkpt>
<trkpt lat="28.833536" lon="99.830396">
<time>2015-08-06T07:44:08Z</time></trkpt>
<trkpt lat="28.833476" lon="99.830456">
<time>2015-08-06T07:44:09Z</time></trkpt>
<trkpt lat="28.833386" lon="99.830556">
<time>2015-08-06T07:44:10Z</time></trkpt>
<trkpt lat="28.833296" lon="99.830666">
<time>2015-08-06T07:44:11Z</time></trkpt>
<trkpt lat="28.833227" lon="99.830756">
<time>2015-08-06T07:44:12Z</time></trkpt>
<trkpt lat="28.833147" lon="99.830817">
<time>2015-08-06T07:44:13Z</time></trkpt>
<trkpt lat="28.833077" lon="99.830867">
<time>2015-08-06T07:44:14Z</time></trkpt>
<trkpt lat="28.833027" lon="99.830887">
<time>2015-08-06T07:44:15Z</time></trkpt>
<trkpt lat="28.832967" lon="99.830917">
<time>2015-08-06T07:44:16Z</time></trkpt>
<trkpt lat="28.832857" lon="99.830947">
<time>2015-08-06T07:44:17Z</time></trkpt>
<trkpt lat="28.832078" lon="99.831087">
<time>2015-08-06T07:44:18Z</time></trkpt>
<trkpt lat="28.831808" lon="99.831127">
<time>2015-08-06T07:44:19Z</time></trkpt>
<trkpt lat="28.831638" lon="99.831147">
<time>2015-08-06T07:44:20Z</time></trkpt>
<trkpt lat="28.831419" lon="99.831167">
<time>2015-08-06T07:44:21Z</time></trkpt>
<trkpt lat="28.831059" lon="99.831167">
<time>2015-08-06T07:44:22Z</time></trkpt>
<trkpt lat="28.830799" lon="99.831147">
<time>2015-08-06T07:44:23Z</time></trkpt>
<trkpt lat="28.830389" lon="99.831097">
<time>2015-08-06T07:44:24Z</time></trkpt>
<trkpt lat="28.830229" lon="99.831067">
<time>2015-08-06T07:44:25Z</time></trkpt>
<trkpt lat="28.830099" lon="99.831027">
<time>2015-08-06T07:44:26Z</time></trkpt>
<trkpt lat="28.829989" lon="99.830977">
<time>2015-08-06T07:44:27Z</time></trkpt>
<trkpt lat="28.829869" lon="99.830917">
<time>2015-08-06T07:44:28Z</time></trkpt>
<trkpt lat="28.829699" lon="99.830817">
<time>2015-08-06T07:44:29Z</time></trkpt>
<trkpt lat="28.829549" lon="99.830706">
<time>2015-08-06T07:44:30Z</time></trkpt>
<trkpt lat="28.829439" lon="99.830616">
<time>2015-08-06T07:44:31Z</time></trkpt>
<trkpt lat="28.829269" lon="99.830446">
<time>2015-08-06T07:44:32Z</time></trkpt>
<trkpt lat="28.829008" lon="99.830165">
<time>2015-08-06T07:44:33Z</time></trkpt>
<trkpt lat="28.828768" lon="99.829875">
<time>2015-08-06T07:44:34Z</time></trkpt>
<trkpt lat="28.828658" lon="99.829714">
<time>2015-08-06T07:44:35Z</time></trkpt>
<trkpt lat="28.828588" lon="99.829594">
<time>2015-08-06T07:44:36Z</time></trkpt>
<trkpt lat="28.828518" lon="99.829484">
<time>2015-08-06T07:44:37Z</time></trkpt>
<trkpt lat="28.828477" lon="99.829424">
<time>2015-08-06T07:44:38Z</time></trkpt>
<trkpt lat="28.828417" lon="99.829334">
<time>2015-08-06T07:44:39Z</time></trkpt>
<trkpt lat="28.828327" lon="99.829253">
<time>2015-08-06T07:44:40Z</time></trkpt>
<trkpt lat="28.828187" lon="99.829093">
<time>2015-08-06T07:44:41Z</time></trkpt>
<trkpt lat="28.828027" lon="99.828943">
<time>2015-08-06T07:44:42Z</time></trkpt>
<trkpt lat="28.827947" lon="99.828863">
<time>2015-08-06T07:44:43Z</time></trkpt>
<trkpt lat="28.827857" lon="99.828792">
<time>2015-08-06T07:44:44Z</time></trkpt>
<trkpt lat="28.827747" lon="99.828722">
<time>2015-08-06T07:44:45Z</time></trkpt>
<trkpt lat="28.827637" lon="99.828672">
<time>2015-08-06T07:44:46Z</time></trkpt>
<trkpt lat="28.827537" lon="99.828622">
<time>2015-08-06T07:44:47Z</time></trkpt>
<trkpt lat="28.827447" lon="99.828592">
<time>2015-08-06T07:44:48Z</time></trkpt>
<trkpt lat="28.827387" lon="99.828572">
<time>2015-08-06T07:44:49Z</time></trkpt>
<trkpt lat="28.827327" lon="99.828572">
<time>2015-08-06T07:44:50Z</time></trkpt>
<trkpt lat="28.827277" lon="99.828572">
<time>2015-08-06T07:44:51Z</time></trkpt>
<trkpt lat="28.827227" lon="99.828582">
<time>2015-08-06T07:44:52Z</time></trkpt>
<trkpt lat="28.827187" lon="99.828602">
<time>2015-08-06T07:44:53Z</time></trkpt>
<trkpt lat="28.827147" lon="99.828642">
<time>2015-08-06T07:44:54Z</time></trkpt>
<trkpt lat="28.827117" lon="99.828682">
<time>2015-08-06T07:44:55Z</time></trkpt>
<trkpt lat="28.827077" lon="99.828762">
<time>2015-08-06T07:44:56Z</time></trkpt>
<trkpt lat="28.827048" lon="99.828893">
<time>2015-08-06T07:44:57Z</time></trkpt>
<trkpt lat="28.827028" lon="99.829003">
<time>2015-08-06T07:44:58Z</time></trkpt>
<trkpt lat="28.827028" lon="99.829093">
<time>2015-08-06T07:44:59Z</time></trkpt>
<trkpt lat="28.827028" lon="99.829183">
<time>2015-08-06T07:45:00Z</time></trkpt>
<trkpt lat="28.827048" lon="99.829274">
<time>2015-08-06T07:45:01Z</time></trkpt>
<trkpt lat="28.827088" lon="99.829434">
<time>2015-08-06T07:45:02Z</time></trkpt>
<trkpt lat="28.827189" lon="99.829745">
<time>2015-08-06T07:45:03Z</time></trkpt>
<trkpt lat="28.82732" lon="99.830246">
<time>2015-08-06T07:45:04Z</time></trkpt>
<trkpt lat="28.82732" lon="99.830246">
<time>2015-08-06T07:45:05Z</time></trkpt>
<trkpt lat="28.82722" lon="99.830286">
<time>2015-08-06T07:45:06Z</time></trkpt>
<trkpt lat="28.82717" lon="99.830316">
<time>2015-08-06T07:45:07Z</time></trkpt>
<trkpt lat="28.82711" lon="99.830346">
<time>2015-08-06T07:45:08Z</time></trkpt>
<trkpt lat="28.82706" lon="99.830366">
<time>2015-08-06T07:45:09Z</time></trkpt>
<trkpt lat="28.82701" lon="99.830366">
<time>2015-08-06T07:45:10Z</time></trkpt>
<trkpt lat="28.82696" lon="99.830356">
<time>2015-08-06T07:45:11Z</time></trkpt>
<trkpt lat="28.82692" lon="99.830346">
<time>2015-08-06T07:45:12Z</time></trkpt>
<trkpt lat="28.82689" lon="99.830316">
<time>2015-08-06T07:45:13Z</time></trkpt>
<trkpt lat="28.82685" lon="99.830256">
<time>2015-08-06T07:45:14Z</time></trkpt>
<trkpt lat="28.82674" lon="99.830065">
<time>2015-08-06T07:45:15Z</time></trkpt>
<trkpt lat="28.826559" lon="99.829634">
<time>2015-08-06T07:45:16Z</time></trkpt>
<trkpt lat="28.826509" lon="99.829544">
<time>2015-08-06T07:45:17Z</time></trkpt>
<trkpt lat="28.826469" lon="99.829474">
<time>2015-08-06T07:45:18Z</time></trkpt>
<trkpt lat="28.826409" lon="99.829394">
<time>2015-08-06T07:45:19Z</time></trkpt>
<trkpt lat="28.826329" lon="99.829334">
<time>2015-08-06T07:45:20Z</time></trkpt>
<trkpt lat="28.826159" lon="99.829213">
<time>2015-08-06T07:45:21Z</time></trkpt>
<trkpt lat="28.826009" lon="99.829123">
<time>2015-08-06T07:45:22Z</time></trkpt>
<trkpt lat="28.825899" lon="99.829063">
<time>2015-08-06T07:45:23Z</time></trkpt>
<trkpt lat="28.825539" lon="99.828873">
<time>2015-08-06T07:45:24Z</time></trkpt>
<trkpt lat="28.825268" lon="99.828732">
<time>2015-08-06T07:45:25Z</time></trkpt>
<trkpt lat="28.825038" lon="99.828582">
<time>2015-08-06T07:45:26Z</time></trkpt>
<trkpt lat="28.824968" lon="99.828552">
<time>2015-08-06T07:45:27Z</time></trkpt>
<trkpt lat="28.824928" lon="99.828532">
<time>2015-08-06T07:45:28Z</time></trkpt>
<trkpt lat="28.824878" lon="99.828512">
<time>2015-08-06T07:45:29Z</time></trkpt>
<trkpt lat="28.824848" lon="99.828502">
<time>2015-08-06T07:45:30Z</time></trkpt>
<trkpt lat="28.824798" lon="99.828492">
<time>2015-08-06T07:45:31Z</time></trkpt>
<trkpt lat="28.824728" lon="99.828512">
<time>2015-08-06T07:45:32Z</time></trkpt>
<trkpt lat="28.824659" lon="99.828532">
<time>2015-08-06T07:45:33Z</time></trkpt>
<trkpt lat="28.824319" lon="99.828682">
<time>2015-08-06T07:45:34Z</time></trkpt>
<trkpt lat="28.824209" lon="99.828722">
<time>2015-08-06T07:45:35Z</time></trkpt>
<trkpt lat="28.824049" lon="99.828773">
<time>2015-08-06T07:45:36Z</time></trkpt>
<trkpt lat="28.82385" lon="99.828823">
<time>2015-08-06T07:45:37Z</time></trkpt>
<trkpt lat="28.82369" lon="99.828863">
<time>2015-08-06T07:45:38Z</time></trkpt>
<trkpt lat="28.82357" lon="99.828883">
<time>2015-08-06T07:45:39Z</time></trkpt>
<trkpt lat="28.82341" lon="99.828893">
<time>2015-08-06T07:45:40Z</time></trkpt>
<trkpt lat="28.82326" lon="99.828913">
<time>2015-08-06T07:45:41Z</time></trkpt>
<trkpt lat="28.82315" lon="99.828923">
<time>2015-08-06T07:45:42Z</time></trkpt>
<trkpt lat="28.823011" lon="99.828953">
<time>2015-08-06T07:45:43Z</time></trkpt>
<trkpt lat="28.822861" lon="99.829003">
<time>2015-08-06T07:45:44Z</time></trkpt>
<trkpt lat="28.822661" lon="99.829063">
<time>2015-08-06T07:45:45Z</time></trkpt>
<trkpt lat="28.822581" lon="99.829093">
<time>2015-08-06T07:45:46Z</time></trkpt>
<trkpt lat="28.822501" lon="99.829143">
<time>2015-08-06T07:45:47Z</time></trkpt>
<trkpt lat="28.822411" lon="99.829204">
<time>2015-08-06T07:45:48Z</time></trkpt>
<trkpt lat="28.822172" lon="99.829404">
<time>2015-08-06T07:45:49Z</time></trkpt>
<trkpt lat="28.821783" lon="99.829785">
<time>2015-08-06T07:45:50Z</time></trkpt>
<trkpt lat="28.821414" lon="99.830085">
<time>2015-08-06T07:45:51Z</time></trkpt>
<trkpt lat="28.821244" lon="99.830256">
<time>2015-08-06T07:45:52Z</time></trkpt>
<trkpt lat="28.821105" lon="99.830386">
<time>2015-08-06T07:45:53Z</time></trkpt>
<trkpt lat="28.820985" lon="99.830476">
<time>2015-08-06T07:45:54Z</time></trkpt>
<trkpt lat="28.820845" lon="99.830566">
<time>2015-08-06T07:45:55Z</time></trkpt>
<trkpt lat="28.820715" lon="99.830647">
<time>2015-08-06T07:45:56Z</time></trkpt>
<trkpt lat="28.820546" lon="99.830737">
<time>2015-08-06T07:45:57Z</time></trkpt>
<trkpt lat="28.820446" lon="99.830767">
<time>2015-08-06T07:45:58Z</time></trkpt>
<trkpt lat="28.820356" lon="99.830787">
<time>2015-08-06T07:45:59Z</time></trkpt>
<trkpt lat="28.820276" lon="99.830787">
<time>2015-08-06T07:46:00Z</time></trkpt>
<trkpt lat="28.820166" lon="99.830767">
<time>2015-08-06T07:46:01Z</time></trkpt>
<trkpt lat="28.820046" lon="99.830727">
<time>2015-08-06T07:46:02Z</time></trkpt>
<trkpt lat="28.819976" lon="99.830697">
<time>2015-08-06T07:46:03Z</time></trkpt>
<trkpt lat="28.819896" lon="99.830677">
<time>2015-08-06T07:46:04Z</time></trkpt>
<trkpt lat="28.819826" lon="99.830667">
<time>2015-08-06T07:46:05Z</time></trkpt>
<trkpt lat="28.819706" lon="99.830667">
<time>2015-08-06T07:46:06Z</time></trkpt>
<trkpt lat="28.819616" lon="99.830667">
<time>2015-08-06T07:46:07Z</time></trkpt>
<trkpt lat="28.819526" lon="99.830667">
<time>2015-08-06T07:46:08Z</time></trkpt>
<trkpt lat="28.819436" lon="99.830657">
<time>2015-08-06T07:46:09Z</time></trkpt>
<trkpt lat="28.819306" lon="99.830627">
<time>2015-08-06T07:46:10Z</time></trkpt>
<trkpt lat="28.819036" lon="99.830516">
<time>2015-08-06T07:46:11Z</time></trkpt>
<trkpt lat="28.818826" lon="99.830406">
<time>2015-08-06T07:46:12Z</time></trkpt>
<trkpt lat="28.818726" lon="99.830356">
<time>2015-08-06T07:46:13Z</time></trkpt>
<trkpt lat="28.818666" lon="99.830336">
<time>2015-08-06T07:46:14Z</time></trkpt>
<trkpt lat="28.818626" lon="99.830336">
<time>2015-08-06T07:46:15Z</time></trkpt>
<trkpt lat="28.818576" lon="99.830346">
<time>2015-08-06T07:46:16Z</time></trkpt>
<trkpt lat="28.818536" lon="99.830366">
<time>2015-08-06T07:46:17Z</time></trkpt>
<trkpt lat="28.818447" lon="99.830436">
<time>2015-08-06T07:46:18Z</time></trkpt>
<trkpt lat="28.818067" lon="99.830757">
<time>2015-08-06T07:46:19Z</time></trkpt>
<trkpt lat="28.817958" lon="99.830847">
<time>2015-08-06T07:46:20Z</time></trkpt>
<trkpt lat="28.817898" lon="99.830877">
<time>2015-08-06T07:46:21Z</time></trkpt>
<trkpt lat="28.817838" lon="99.830897">
<time>2015-08-06T07:46:22Z</time></trkpt>
<trkpt lat="28.817748" lon="99.830917">
<time>2015-08-06T07:46:23Z</time></trkpt>
<trkpt lat="28.817658" lon="99.830927">
<time>2015-08-06T07:46:24Z</time></trkpt>
<trkpt lat="28.817438" lon="99.830907">
<time>2015-08-06T07:46:25Z</time></trkpt>
<trkpt lat="28.817328" lon="99.830887">
<time>2015-08-06T07:46:26Z</time></trkpt>
<trkpt lat="28.817208" lon="99.830877">
<time>2015-08-06T07:46:27Z</time></trkpt>
<trkpt lat="28.817048" lon="99.830887">
<time>2015-08-06T07:46:28Z</time></trkpt>
<trkpt lat="28.816879" lon="99.830897">
<time>2015-08-06T07:46:29Z</time></trkpt>
<trkpt lat="28.816339" lon="99.830947">
<time>2015-08-06T07:46:30Z</time></trkpt>
<trkpt lat="28.8156" lon="99.830967">
<time>2015-08-06T07:46:31Z</time></trkpt>
<trkpt lat="28.81456" lon="99.830957">
<time>2015-08-06T07:46:32Z</time></trkpt>
<trkpt lat="28.814171" lon="99.830927">
<time>2015-08-06T07:46:33Z</time></trkpt>
<trkpt lat="28.814061" lon="99.830917">
<time>2015-08-06T07:46:34Z</time></trkpt>
<trkpt lat="28.813931" lon="99.830917">
<time>2015-08-06T07:46:35Z</time></trkpt>
<trkpt lat="28.813801" lon="99.830937">
<time>2015-08-06T07:46:36Z</time></trkpt>
<trkpt lat="28.813561" lon="99.830957">
<time>2015-08-06T07:46:37Z</time></trkpt>
<trkpt lat="28.813311" lon="99.831008">
<time>2015-08-06T07:46:38Z</time></trkpt>
<trkpt lat="28.813191" lon="99.831048">
<time>2015-08-06T07:46:39Z</time></trkpt>
<trkpt lat="28.813112" lon="99.831078">
<time>2015-08-06T07:46:40Z</time></trkpt>
<trkpt lat="28.813042" lon="99.831128">
<time>2015-08-06T07:46:41Z</time></trkpt>
<trkpt lat="28.813002" lon="99.831168">
<time>2015-08-06T07:46:42Z</time></trkpt>
<trkpt lat="28.812962" lon="99.831238">
<time>2015-08-06T07:46:43Z</time></trkpt>
<trkpt lat="28.812942" lon="99.831298">
<time>2015-08-06T07:46:44Z</time></trkpt>
<trkpt lat="28.812912" lon="99.831428">
<time>2015-08-06T07:46:45Z</time></trkpt>
<trkpt lat="28.812883" lon="99.831669">
<time>2015-08-06T07:46:46Z</time></trkpt>
<trkpt lat="28.812863" lon="99.831749">
<time>2015-08-06T07:46:47Z</time></trkpt>
<trkpt lat="28.812833" lon="99.831809">
<time>2015-08-06T07:46:48Z</time></trkpt>
<trkpt lat="28.812793" lon="99.831859">
<time>2015-08-06T07:46:49Z</time></trkpt>
<trkpt lat="28.812753" lon="99.831899">
<time>2015-08-06T07:46:50Z</time></trkpt>
<trkpt lat="28.812693" lon="99.831929">
<time>2015-08-06T07:46:51Z</time></trkpt>
<trkpt lat="28.812634" lon="99.83196">
<time>2015-08-06T07:46:52Z</time></trkpt>
<trkpt lat="28.812484" lon="99.83199">
<time>2015-08-06T07:46:53Z</time></trkpt>
<trkpt lat="28.812314" lon="99.83204">
<time>2015-08-06T07:46:54Z</time></trkpt>
<trkpt lat="28.812244" lon="99.83206">
<time>2015-08-06T07:46:55Z</time></trkpt>
<trkpt lat="28.812164" lon="99.83209">
<time>2015-08-06T07:46:56Z</time></trkpt>
<trkpt lat="28.812034" lon="99.83217">
<time>2015-08-06T07:46:57Z</time></trkpt>
<trkpt lat="28.811815" lon="99.83231">
<time>2015-08-06T07:46:58Z</time></trkpt>
<trkpt lat="28.811406" lon="99.832541">
<time>2015-08-06T07:46:59Z</time></trkpt>
<trkpt lat="28.811286" lon="99.832601">
<time>2015-08-06T07:47:00Z</time></trkpt>
<trkpt lat="28.811166" lon="99.832661">
<time>2015-08-06T07:47:01Z</time></trkpt>
<trkpt lat="28.810976" lon="99.832721">
<time>2015-08-06T07:47:02Z</time></trkpt>
<trkpt lat="28.810727" lon="99.832811">
<time>2015-08-06T07:47:03Z</time></trkpt>
<trkpt lat="28.810347" lon="99.832962">
<time>2015-08-06T07:47:04Z</time></trkpt>
<trkpt lat="28.810177" lon="99.833002">
<time>2015-08-06T07:47:05Z</time></trkpt>
<trkpt lat="28.810047" lon="99.833022">
<time>2015-08-06T07:47:06Z</time></trkpt>
<trkpt lat="28.809937" lon="99.833032">
<time>2015-08-06T07:47:07Z</time></trkpt>
<trkpt lat="28.809858" lon="99.833032">
<time>2015-08-06T07:47:08Z</time></trkpt>
<trkpt lat="28.809758" lon="99.833012">
<time>2015-08-06T07:47:09Z</time></trkpt>
<trkpt lat="28.809658" lon="99.832982">
<time>2015-08-06T07:47:10Z</time></trkpt>
<trkpt lat="28.809538" lon="99.832942">
<time>2015-08-06T07:47:11Z</time></trkpt>
<trkpt lat="28.809488" lon="99.832932">
<time>2015-08-06T07:47:12Z</time></trkpt>
<trkpt lat="28.809438" lon="99.832922">
<time>2015-08-06T07:47:13Z</time></trkpt>
<trkpt lat="28.809368" lon="99.832922">
<time>2015-08-06T07:47:14Z</time></trkpt>
<trkpt lat="28.809268" lon="99.832932">
<time>2015-08-06T07:47:15Z</time></trkpt>
<trkpt lat="28.809168" lon="99.832942">
<time>2015-08-06T07:47:16Z</time></trkpt>
<trkpt lat="28.809008" lon="99.832982">
<time>2015-08-06T07:47:17Z</time></trkpt>
<trkpt lat="28.808838" lon="99.833022">
<time>2015-08-06T07:47:18Z</time></trkpt>
<trkpt lat="28.808678" lon="99.833052">
<time>2015-08-06T07:47:19Z</time></trkpt>
<trkpt lat="28.808529" lon="99.833072">
<time>2015-08-06T07:47:20Z</time></trkpt>
<trkpt lat="28.808339" lon="99.833062">
<time>2015-08-06T07:47:21Z</time></trkpt>
<trkpt lat="28.807929" lon="99.833072">
<time>2015-08-06T07:47:22Z</time></trkpt>
<trkpt lat="28.807719" lon="99.833082">
<time>2015-08-06T07:47:23Z</time></trkpt>
<trkpt lat="28.807529" lon="99.833092">
<time>2015-08-06T07:47:24Z</time></trkpt>
<trkpt lat="28.807369" lon="99.833112">
<time>2015-08-06T07:47:25Z</time></trkpt>
<trkpt lat="28.80717" lon="99.833142">
<time>2015-08-06T07:47:26Z</time></trkpt>
<trkpt lat="28.80673" lon="99.833282">
<time>2015-08-06T07:47:27Z</time></trkpt>
<trkpt lat="28.806501" lon="99.833353">
<time>2015-08-06T07:47:28Z</time></trkpt>
<trkpt lat="28.806341" lon="99.833413">
<time>2015-08-06T07:47:29Z</time></trkpt>
<trkpt lat="28.806191" lon="99.833473">
<time>2015-08-06T07:47:30Z</time></trkpt>
<trkpt lat="28.806081" lon="99.833523">
<time>2015-08-06T07:47:31Z</time></trkpt>
<trkpt lat="28.805742" lon="99.833713">
<time>2015-08-06T07:47:32Z</time></trkpt>
<trkpt lat="28.805622" lon="99.833774">
<time>2015-08-06T07:47:33Z</time></trkpt>
<trkpt lat="28.805482" lon="99.833824">
<time>2015-08-06T07:47:34Z</time></trkpt>
<trkpt lat="28.805242" lon="99.833874">
<time>2015-08-06T07:47:35Z</time></trkpt>
<trkpt lat="28.805013" lon="99.833914">
<time>2015-08-06T07:47:36Z</time></trkpt>
<trkpt lat="28.804663" lon="99.833964">
<time>2015-08-06T07:47:37Z</time></trkpt>
<trkpt lat="28.804533" lon="99.833964">
<time>2015-08-06T07:47:38Z</time></trkpt>
<trkpt lat="28.804263" lon="99.833954">
<time>2015-08-06T07:47:39Z</time></trkpt>
<trkpt lat="28.804053" lon="99.833924">
<time>2015-08-06T07:47:40Z</time></trkpt>
<trkpt lat="28.803703" lon="99.833894">
<time>2015-08-06T07:47:41Z</time></trkpt>
<trkpt lat="28.803244" lon="99.833864">
<time>2015-08-06T07:47:42Z</time></trkpt>
<trkpt lat="28.802904" lon="99.833854">
<time>2015-08-06T07:47:43Z</time></trkpt>
<trkpt lat="28.802644" lon="99.833844">
<time>2015-08-06T07:47:44Z</time></trkpt>
<trkpt lat="28.802544" lon="99.833824">
<time>2015-08-06T07:47:45Z</time></trkpt>
<trkpt lat="28.802444" lon="99.833794">
<time>2015-08-06T07:47:46Z</time></trkpt>
<trkpt lat="28.802344" lon="99.833764">
<time>2015-08-06T07:47:47Z</time></trkpt>
<trkpt lat="28.802244" lon="99.833734">
<time>2015-08-06T07:47:48Z</time></trkpt>
<trkpt lat="28.802134" lon="99.833703">
<time>2015-08-06T07:47:49Z</time></trkpt>
<trkpt lat="28.802034" lon="99.833673">
<time>2015-08-06T07:47:50Z</time></trkpt>
<trkpt lat="28.801934" lon="99.833663">
<time>2015-08-06T07:47:51Z</time></trkpt>
<trkpt lat="28.801774" lon="99.833653">
<time>2015-08-06T07:47:52Z</time></trkpt>
<trkpt lat="28.801624" lon="99.833633">
<time>2015-08-06T07:47:53Z</time></trkpt>
<trkpt lat="28.801435" lon="99.833593">
<time>2015-08-06T07:47:54Z</time></trkpt>
<trkpt lat="28.801065" lon="99.833503">
<time>2015-08-06T07:47:55Z</time></trkpt>
<trkpt lat="28.800825" lon="99.833423">
<time>2015-08-06T07:47:56Z</time></trkpt>
<trkpt lat="28.800725" lon="99.833393">
<time>2015-08-06T07:47:57Z</time></trkpt>
<trkpt lat="28.800645" lon="99.833343">
<time>2015-08-06T07:47:58Z</time></trkpt>
<trkpt lat="28.800565" lon="99.833293">
<time>2015-08-06T07:47:59Z</time></trkpt>
<trkpt lat="28.800464" lon="99.833222">
<time>2015-08-06T07:48:00Z</time></trkpt>
<trkpt lat="28.800324" lon="99.833102">
<time>2015-08-06T07:48:01Z</time></trkpt>
<trkpt lat="28.800134" lon="99.832902">
<time>2015-08-06T07:48:02Z</time></trkpt>
<trkpt lat="28.799714" lon="99.832421">
<time>2015-08-06T07:48:03Z</time></trkpt>
<trkpt lat="28.799203" lon="99.83184">
<time>2015-08-06T07:48:04Z</time></trkpt>
<trkpt lat="28.799083" lon="99.831689">
<time>2015-08-06T07:48:05Z</time></trkpt>
<trkpt lat="28.799012" lon="99.831599">
<time>2015-08-06T07:48:06Z</time></trkpt>
<trkpt lat="28.798942" lon="99.831489">
<time>2015-08-06T07:48:07Z</time></trkpt>
<trkpt lat="28.798862" lon="99.831349">
<time>2015-08-06T07:48:08Z</time></trkpt>
<trkpt lat="28.798762" lon="99.831148">
<time>2015-08-06T07:48:09Z</time></trkpt>
<trkpt lat="28.798581" lon="99.830767">
<time>2015-08-06T07:48:10Z</time></trkpt>
<trkpt lat="28.798451" lon="99.830507">
<time>2015-08-06T07:48:11Z</time></trkpt>
<trkpt lat="28.798381" lon="99.830357">
<time>2015-08-06T07:48:12Z</time></trkpt>
<trkpt lat="28.79833" lon="99.830206">
<time>2015-08-06T07:48:13Z</time></trkpt>
<trkpt lat="28.79826" lon="99.830026">
<time>2015-08-06T07:48:14Z</time></trkpt>
<trkpt lat="28.79822" lon="99.829845">
<time>2015-08-06T07:48:15Z</time></trkpt>
<trkpt lat="28.79819" lon="99.829735">
<time>2015-08-06T07:48:16Z</time></trkpt>
<trkpt lat="28.798179" lon="99.829645">
<time>2015-08-06T07:48:17Z</time></trkpt>
<trkpt lat="28.798159" lon="99.829555">
<time>2015-08-06T07:48:18Z</time></trkpt>
<trkpt lat="28.798149" lon="99.829495">
<time>2015-08-06T07:48:19Z</time></trkpt>
<trkpt lat="28.798129" lon="99.829445">
<time>2015-08-06T07:48:20Z</time></trkpt>
<trkpt lat="28.798109" lon="99.829405">
<time>2015-08-06T07:48:21Z</time></trkpt>
<trkpt lat="28.798089" lon="99.829344">
<time>2015-08-06T07:48:22Z</time></trkpt>
<trkpt lat="28.798029" lon="99.829244">
<time>2015-08-06T07:48:23Z</time></trkpt>
<trkpt lat="28.797918" lon="99.829074">
<time>2015-08-06T07:48:24Z</time></trkpt>
<trkpt lat="28.797808" lon="99.828883">
<time>2015-08-06T07:48:25Z</time></trkpt>
<trkpt lat="28.797738" lon="99.828733">
<time>2015-08-06T07:48:26Z</time></trkpt>
<trkpt lat="28.797688" lon="99.828623">
<time>2015-08-06T07:48:27Z</time></trkpt>
<trkpt lat="28.797648" lon="99.828513">
<time>2015-08-06T07:48:28Z</time></trkpt>
<trkpt lat="28.797627" lon="99.828412">
<time>2015-08-06T07:48:29Z</time></trkpt>
<trkpt lat="28.797577" lon="99.828202">
<time>2015-08-06T07:48:30Z</time></trkpt>
<trkpt lat="28.797507" lon="99.827921">
<time>2015-08-06T07:48:31Z</time></trkpt>
<trkpt lat="28.797446" lon="99.827641">
<time>2015-08-06T07:48:32Z</time></trkpt>
<trkpt lat="28.797406" lon="99.82743">
<time>2015-08-06T07:48:33Z</time></trkpt>
<trkpt lat="28.797365" lon="99.82713">
<time>2015-08-06T07:48:34Z</time></trkpt>
<trkpt lat="28.797345" lon="99.82706">
<time>2015-08-06T07:48:35Z</time></trkpt>
<trkpt lat="28.797325" lon="99.82701">
<time>2015-08-06T07:48:36Z</time></trkpt>
<trkpt lat="28.797295" lon="99.826949">
<time>2015-08-06T07:48:37Z</time></trkpt>
<trkpt lat="28.797245" lon="99.826909">
<time>2015-08-06T07:48:38Z</time></trkpt>
<trkpt lat="28.797195" lon="99.826869">
<time>2015-08-06T07:48:39Z</time></trkpt>
<trkpt lat="28.797095" lon="99.826809">
<time>2015-08-06T07:48:40Z</time></trkpt>
<trkpt lat="28.797035" lon="99.826759">
<time>2015-08-06T07:48:41Z</time></trkpt>
<trkpt lat="28.796995" lon="99.826709">
<time>2015-08-06T07:48:42Z</time></trkpt>
<trkpt lat="28.796955" lon="99.826669">
<time>2015-08-06T07:48:43Z</time></trkpt>
<trkpt lat="28.796925" lon="99.826609">
<time>2015-08-06T07:48:44Z</time></trkpt>
<trkpt lat="28.796884" lon="99.826539">
<time>2015-08-06T07:48:45Z</time></trkpt>
<trkpt lat="28.796834" lon="99.826468">
<time>2015-08-06T07:48:46Z</time></trkpt>
<trkpt lat="28.796784" lon="99.826408">
<time>2015-08-06T07:48:47Z</time></trkpt>
<trkpt lat="28.796744" lon="99.826368">
<time>2015-08-06T07:48:48Z</time></trkpt>
<trkpt lat="28.796684" lon="99.826328">
<time>2015-08-06T07:48:49Z</time></trkpt>
<trkpt lat="28.796604" lon="99.826278">
<time>2015-08-06T07:48:50Z</time></trkpt>
<trkpt lat="28.796494" lon="99.826238">
<time>2015-08-06T07:48:51Z</time></trkpt>
<trkpt lat="28.796384" lon="99.826208">
<time>2015-08-06T07:48:52Z</time></trkpt>
<trkpt lat="28.796284" lon="99.826178">
<time>2015-08-06T07:48:53Z</time></trkpt>
<trkpt lat="28.796164" lon="99.826118">
<time>2015-08-06T07:48:54Z</time></trkpt>
<trkpt lat="28.796024" lon="99.826038">
<time>2015-08-06T07:48:55Z</time></trkpt>
<trkpt lat="28.795874" lon="99.825957">
<time>2015-08-06T07:48:56Z</time></trkpt>
<trkpt lat="28.795814" lon="99.825917">
<time>2015-08-06T07:48:57Z</time></trkpt>
<trkpt lat="28.795734" lon="99.825857">
<time>2015-08-06T07:48:58Z</time></trkpt>
<trkpt lat="28.795714" lon="99.825827">
<time>2015-08-06T07:48:59Z</time></trkpt>
<trkpt lat="28.795694" lon="99.825797">
<time>2015-08-06T07:49:00Z</time></trkpt>
<trkpt lat="28.795674" lon="99.825757">
<time>2015-08-06T07:49:01Z</time></trkpt>
<trkpt lat="28.795654" lon="99.825707">
<time>2015-08-06T07:49:02Z</time></trkpt>
<trkpt lat="28.795634" lon="99.825637">
<time>2015-08-06T07:49:03Z</time></trkpt>
<trkpt lat="28.795563" lon="99.825316">
<time>2015-08-06T07:49:04Z</time></trkpt>
<trkpt lat="28.795513" lon="99.825166">
<time>2015-08-06T07:49:05Z</time></trkpt>
<trkpt lat="28.795462" lon="99.824995">
<time>2015-08-06T07:49:06Z</time></trkpt>
<trkpt lat="28.795432" lon="99.824915">
<time>2015-08-06T07:49:07Z</time></trkpt>
<trkpt lat="28.795392" lon="99.824845">
<time>2015-08-06T07:49:08Z</time></trkpt>
<trkpt lat="28.795362" lon="99.824775">
<time>2015-08-06T07:49:09Z</time></trkpt>
<trkpt lat="28.795312" lon="99.824695">
<time>2015-08-06T07:49:10Z</time></trkpt>
<trkpt lat="28.795222" lon="99.824564">
<time>2015-08-06T07:49:11Z</time></trkpt>
<trkpt lat="28.795021" lon="99.824304">
<time>2015-08-06T07:49:12Z</time></trkpt>
<trkpt lat="28.794941" lon="99.824184">
<time>2015-08-06T07:49:13Z</time></trkpt>
<trkpt lat="28.794861" lon="99.824043">
<time>2015-08-06T07:49:14Z</time></trkpt>
<trkpt lat="28.794741" lon="99.823833">
<time>2015-08-06T07:49:15Z</time></trkpt>
<trkpt lat="28.794621" lon="99.823643">
<time>2015-08-06T07:49:16Z</time></trkpt>
<trkpt lat="28.79451" lon="99.823512">
<time>2015-08-06T07:49:17Z</time></trkpt>
<trkpt lat="28.79434" lon="99.823302">
<time>2015-08-06T07:49:18Z</time></trkpt>
<trkpt lat="28.79424" lon="99.823182">
<time>2015-08-06T07:49:19Z</time></trkpt>
<trkpt lat="28.79418" lon="99.823071">
<time>2015-08-06T07:49:20Z</time></trkpt>
<trkpt lat="28.79409" lon="99.822921">
<time>2015-08-06T07:49:21Z</time></trkpt>
<trkpt lat="28.794029" lon="99.822841">
<time>2015-08-06T07:49:22Z</time></trkpt>
<trkpt lat="28.793959" lon="99.822761">
<time>2015-08-06T07:49:23Z</time></trkpt>
<trkpt lat="28.793889" lon="99.822681">
<time>2015-08-06T07:49:24Z</time></trkpt>
<trkpt lat="28.793809" lon="99.82256">
<time>2015-08-06T07:49:25Z</time></trkpt>
<trkpt lat="28.793739" lon="99.82241">
<time>2015-08-06T07:49:26Z</time></trkpt>
<trkpt lat="28.793669" lon="99.82228">
<time>2015-08-06T07:49:27Z</time></trkpt>
<trkpt lat="28.793609" lon="99.82222">
<time>2015-08-06T07:49:28Z</time></trkpt>
<trkpt lat="28.793548" lon="99.822149">
<time>2015-08-06T07:49:29Z</time></trkpt>
<trkpt lat="28.793478" lon="99.822099">
<time>2015-08-06T07:49:30Z</time></trkpt>
<trkpt lat="28.793338" lon="99.821979">
<time>2015-08-06T07:49:31Z</time></trkpt>
<trkpt lat="28.793228" lon="99.821899">
<time>2015-08-06T07:49:32Z</time></trkpt>
<trkpt lat="28.793138" lon="99.821829">
<time>2015-08-06T07:49:33Z</time></trkpt>
<trkpt lat="28.792878" lon="99.821658">
<time>2015-08-06T07:49:34Z</time></trkpt>
<trkpt lat="28.792748" lon="99.821558">
<time>2015-08-06T07:49:35Z</time></trkpt>
<trkpt lat="28.792648" lon="99.821478">
<time>2015-08-06T07:49:36Z</time></trkpt>
<trkpt lat="28.792558" lon="99.821388">
<time>2015-08-06T07:49:37Z</time></trkpt>
<trkpt lat="28.792418" lon="99.821238">
<time>2015-08-06T07:49:38Z</time></trkpt>
<trkpt lat="28.792327" lon="99.821127">
<time>2015-08-06T07:49:39Z</time></trkpt>
<trkpt lat="28.792237" lon="99.821027">
<time>2015-08-06T07:49:40Z</time></trkpt>
<trkpt lat="28.792017" lon="99.820817">
<time>2015-08-06T07:49:41Z</time></trkpt>
<trkpt lat="28.791907" lon="99.820706">
<time>2015-08-06T07:49:42Z</time></trkpt>
<trkpt lat="28.791827" lon="99.820636">
<time>2015-08-06T07:49:43Z</time></trkpt>
<trkpt lat="28.791747" lon="99.820586">
<time>2015-08-06T07:49:44Z</time></trkpt>
<trkpt lat="28.791587" lon="99.820486">
<time>2015-08-06T07:49:45Z</time></trkpt>
<trkpt lat="28.791367" lon="99.820376">
<time>2015-08-06T07:49:46Z</time></trkpt>
<trkpt lat="28.791217" lon="99.820306">
<time>2015-08-06T07:49:47Z</time></trkpt>
<trkpt lat="28.791047" lon="99.820246">
<time>2015-08-06T07:49:48Z</time></trkpt>
<trkpt lat="28.790927" lon="99.820205">
<time>2015-08-06T07:49:49Z</time></trkpt>
<trkpt lat="28.790807" lon="99.820155">
<time>2015-08-06T07:49:50Z</time></trkpt>
<trkpt lat="28.790737" lon="99.820115">
<time>2015-08-06T07:49:51Z</time></trkpt>
<trkpt lat="28.790657" lon="99.820045">
<time>2015-08-06T07:49:52Z</time></trkpt>
<trkpt lat="28.790576" lon="99.819965">
<time>2015-08-06T07:49:53Z</time></trkpt>
<trkpt lat="28.790376" lon="99.819724">
<time>2015-08-06T07:49:54Z</time></trkpt>
<trkpt lat="28.790306" lon="99.819624">
<time>2015-08-06T07:49:55Z</time></trkpt>
<trkpt lat="28.790246" lon="99.819544">
<time>2015-08-06T07:49:56Z</time></trkpt>
<trkpt lat="28.790206" lon="99.819494">
<time>2015-08-06T07:49:57Z</time></trkpt>
<trkpt lat="28.790176" lon="99.819464">
<time>2015-08-06T07:49:58Z</time></trkpt>
<trkpt lat="28.790146" lon="99.819444">
<time>2015-08-06T07:49:59Z</time></trkpt>
<trkpt lat="28.790116" lon="99.819424">
<time>2015-08-06T07:50:00Z</time></trkpt>
<trkpt lat="28.790086" lon="99.819414">
<time>2015-08-06T07:50:01Z</time></trkpt>
<trkpt lat="28.789986" lon="99.819374">
<time>2015-08-06T07:50:02Z</time></trkpt>
<trkpt lat="28.789806" lon="99.819314">
<time>2015-08-06T07:50:03Z</time></trkpt>
<trkpt lat="28.789696" lon="99.819264">
<time>2015-08-06T07:50:04Z</time></trkpt>
<trkpt lat="28.789636" lon="99.819243">
<time>2015-08-06T07:50:05Z</time></trkpt>
<trkpt lat="28.789576" lon="99.819233">
<time>2015-08-06T07:50:06Z</time></trkpt>
<trkpt lat="28.789526" lon="99.819233">
<time>2015-08-06T07:50:07Z</time></trkpt>
<trkpt lat="28.789456" lon="99.819254">
<time>2015-08-06T07:50:08Z</time></trkpt>
<trkpt lat="28.789376" lon="99.819274">
<time>2015-08-06T07:50:09Z</time></trkpt>
<trkpt lat="28.789226" lon="99.819314">
<time>2015-08-06T07:50:10Z</time></trkpt>
<trkpt lat="28.789156" lon="99.819334">
<time>2015-08-06T07:50:11Z</time></trkpt>
<trkpt lat="28.789076" lon="99.819334">
<time>2015-08-06T07:50:12Z</time></trkpt>
<trkpt lat="28.788986" lon="99.819334">
<time>2015-08-06T07:50:13Z</time></trkpt>
<trkpt lat="28.788876" lon="99.819304">
<time>2015-08-06T07:50:14Z</time></trkpt>
<trkpt lat="28.788656" lon="99.819254">
<time>2015-08-06T07:50:15Z</time></trkpt>
<trkpt lat="28.788516" lon="99.819234">
<time>2015-08-06T07:50:16Z</time></trkpt>
<trkpt lat="28.788337" lon="99.819234">
<time>2015-08-06T07:50:17Z</time></trkpt>
<trkpt lat="28.788207" lon="99.819223">
<time>2015-08-06T07:50:18Z</time></trkpt>
<trkpt lat="28.788067" lon="99.819183">
<time>2015-08-06T07:50:19Z</time></trkpt>
<trkpt lat="28.787977" lon="99.819143">
<time>2015-08-06T07:50:20Z</time></trkpt>
<trkpt lat="28.787807" lon="99.819083">
<time>2015-08-06T07:50:21Z</time></trkpt>
<trkpt lat="28.787697" lon="99.819063">
<time>2015-08-06T07:50:22Z</time></trkpt>
<trkpt lat="28.787557" lon="99.819083">
<time>2015-08-06T07:50:23Z</time></trkpt>
<trkpt lat="28.787447" lon="99.819113">
<time>2015-08-06T07:50:24Z</time></trkpt>
<trkpt lat="28.787327" lon="99.819173">
<time>2015-08-06T07:50:25Z</time></trkpt>
<trkpt lat="28.787237" lon="99.819254">
<time>2015-08-06T07:50:26Z</time></trkpt>
<trkpt lat="28.787158" lon="99.819344">
<time>2015-08-06T07:50:27Z</time></trkpt>
<trkpt lat="28.787098" lon="99.819484">
<time>2015-08-06T07:50:28Z</time></trkpt>
<trkpt lat="28.786999" lon="99.819775">
<time>2015-08-06T07:50:29Z</time></trkpt>
<trkpt lat="28.786869" lon="99.820075">
<time>2015-08-06T07:50:30Z</time></trkpt>
<trkpt lat="28.78679" lon="99.820286">
<time>2015-08-06T07:50:31Z</time></trkpt>
<trkpt lat="28.78676" lon="99.820396">
<time>2015-08-06T07:50:32Z</time></trkpt>
<trkpt lat="28.78674" lon="99.820516">
<time>2015-08-06T07:50:33Z</time></trkpt>
<trkpt lat="28.78673" lon="99.820657">
<time>2015-08-06T07:50:34Z</time></trkpt>
<trkpt lat="28.786711" lon="99.820957">
<time>2015-08-06T07:50:35Z</time></trkpt>
<trkpt lat="28.786701" lon="99.821077">
<time>2015-08-06T07:50:36Z</time></trkpt>
<trkpt lat="28.786671" lon="99.821228">
<time>2015-08-06T07:50:37Z</time></trkpt>
<trkpt lat="28.786652" lon="99.821348">
<time>2015-08-06T07:50:38Z</time></trkpt>
<trkpt lat="28.786632" lon="99.821438">
<time>2015-08-06T07:50:39Z</time></trkpt>
<trkpt lat="28.786592" lon="99.821548">
<time>2015-08-06T07:50:40Z</time></trkpt>
<trkpt lat="28.786542" lon="99.821659">
<time>2015-08-06T07:50:41Z</time></trkpt>
<trkpt lat="28.786513" lon="99.821749">
<time>2015-08-06T07:50:42Z</time></trkpt>
<trkpt lat="28.786503" lon="99.821809">
<time>2015-08-06T07:50:43Z</time></trkpt>
<trkpt lat="28.786503" lon="99.821879">
<time>2015-08-06T07:50:44Z</time></trkpt>
<trkpt lat="28.786523" lon="99.821939">
<time>2015-08-06T07:50:45Z</time></trkpt>
<trkpt lat="28.786553" lon="99.821979">
<time>2015-08-06T07:50:46Z</time></trkpt>
<trkpt lat="28.786623" lon="99.822059">
<time>2015-08-06T07:50:47Z</time></trkpt>
<trkpt lat="28.786934" lon="99.82241">
<time>2015-08-06T07:50:48Z</time></trkpt>
<trkpt lat="28.787004" lon="99.8225">
<time>2015-08-06T07:50:49Z</time></trkpt>
<trkpt lat="28.787064" lon="99.822581">
<time>2015-08-06T07:50:50Z</time></trkpt>
<trkpt lat="28.787154" lon="99.822711">
<time>2015-08-06T07:50:51Z</time></trkpt>
<trkpt lat="28.787254" lon="99.822881">
<time>2015-08-06T07:50:52Z</time></trkpt>
<trkpt lat="28.787314" lon="99.822951">
<time>2015-08-06T07:50:53Z</time></trkpt>
<trkpt lat="28.787344" lon="99.822991">
<time>2015-08-06T07:50:54Z</time></trkpt>
<trkpt lat="28.787384" lon="99.823031">
<time>2015-08-06T07:50:55Z</time></trkpt>
<trkpt lat="28.787434" lon="99.823051">
<time>2015-08-06T07:50:56Z</time></trkpt>
<trkpt lat="28.787474" lon="99.823061">
<time>2015-08-06T07:50:57Z</time></trkpt>
<trkpt lat="28.787544" lon="99.823061">
<time>2015-08-06T07:50:58Z</time></trkpt>
<trkpt lat="28.787614" lon="99.823051">
<time>2015-08-06T07:50:59Z</time></trkpt>
<trkpt lat="28.787704" lon="99.823021">
<time>2015-08-06T07:51:00Z</time></trkpt>
<trkpt lat="28.787764" lon="99.823021">
<time>2015-08-06T07:51:01Z</time></trkpt>
<trkpt lat="28.787814" lon="99.823021">
<time>2015-08-06T07:51:02Z</time></trkpt>
<trkpt lat="28.787844" lon="99.823031">
<time>2015-08-06T07:51:03Z</time></trkpt>
<trkpt lat="28.787894" lon="99.823061">
<time>2015-08-06T07:51:04Z</time></trkpt>
<trkpt lat="28.787994" lon="99.823132">
<time>2015-08-06T07:51:05Z</time></trkpt>
<trkpt lat="28.788184" lon="99.823302">
<time>2015-08-06T07:51:06Z</time></trkpt>
<trkpt lat="28.788485" lon="99.823643">
<time>2015-08-06T07:51:07Z</time></trkpt>
<trkpt lat="28.788575" lon="99.823733">
<time>2015-08-06T07:51:08Z</time></trkpt>
<trkpt lat="28.788625" lon="99.823803">
<time>2015-08-06T07:51:09Z</time></trkpt>
<trkpt lat="28.788655" lon="99.823863">
<time>2015-08-06T07:51:10Z</time></trkpt>
<trkpt lat="28.788675" lon="99.823933">
<time>2015-08-06T07:51:11Z</time></trkpt>
<trkpt lat="28.788715" lon="99.824054">
<time>2015-08-06T07:51:12Z</time></trkpt>
<trkpt lat="28.788746" lon="99.824184">
<time>2015-08-06T07:51:13Z</time></trkpt>
<trkpt lat="28.788776" lon="99.824264">
<time>2015-08-06T07:51:14Z</time></trkpt>
<trkpt lat="28.788826" lon="99.824364">
<time>2015-08-06T07:51:15Z</time></trkpt>
<trkpt lat="28.788906" lon="99.824504">
<time>2015-08-06T07:51:16Z</time></trkpt>
<trkpt lat="28.789096" lon="99.824755">
<time>2015-08-06T07:51:17Z</time></trkpt>
<trkpt lat="28.789157" lon="99.824835">
<time>2015-08-06T07:51:18Z</time></trkpt>
<trkpt lat="28.789177" lon="99.824885">
<time>2015-08-06T07:51:19Z</time></trkpt>
<trkpt lat="28.789207" lon="99.824945">
<time>2015-08-06T07:51:20Z</time></trkpt>
<trkpt lat="28.789227" lon="99.825046">
<time>2015-08-06T07:51:21Z</time></trkpt>
<trkpt lat="28.789257" lon="99.825156">
<time>2015-08-06T07:51:22Z</time></trkpt>
<trkpt lat="28.789277" lon="99.825236">
<time>2015-08-06T07:51:23Z</time></trkpt>
<trkpt lat="28.789317" lon="99.825296">
<time>2015-08-06T07:51:24Z</time></trkpt>
<trkpt lat="28.789357" lon="99.825356">
<time>2015-08-06T07:51:25Z</time></trkpt>
<trkpt lat="28.789387" lon="99.825386">
<time>2015-08-06T07:51:26Z</time></trkpt>
<trkpt lat="28.789437" lon="99.825416">
<time>2015-08-06T07:51:27Z</time></trkpt>
<trkpt lat="28.789487" lon="99.825436">
<time>2015-08-06T07:51:28Z</time></trkpt>
<trkpt lat="28.789607" lon="99.825456">
<time>2015-08-06T07:51:29Z</time></trkpt>
<trkpt lat="28.789727" lon="99.825466">
<time>2015-08-06T07:51:30Z</time></trkpt>
<trkpt lat="28.789807" lon="99.825487">
<time>2015-08-06T07:51:31Z</time></trkpt>
<trkpt lat="28.789907" lon="99.825517">
<time>2015-08-06T07:51:32Z</time></trkpt>
<trkpt lat="28.789987" lon="99.825547">
<time>2015-08-06T07:51:33Z</time></trkpt>
<trkpt lat="28.790097" lon="99.825607">
<time>2015-08-06T07:51:34Z</time></trkpt>
<trkpt lat="28.790217" lon="99.825707">
<time>2015-08-06T07:51:35Z</time></trkpt>
<trkpt lat="28.790338" lon="99.825817">
<time>2015-08-06T07:51:36Z</time></trkpt>
<trkpt lat="28.790458" lon="99.825947">
<time>2015-08-06T07:51:37Z</time></trkpt>
<trkpt lat="28.790668" lon="99.826218">
<time>2015-08-06T07:51:38Z</time></trkpt>
<trkpt lat="28.790969" lon="99.826589">
<time>2015-08-06T07:51:39Z</time></trkpt>
<trkpt lat="28.791119" lon="99.826799">
<time>2015-08-06T07:51:40Z</time></trkpt>
<trkpt lat="28.791279" lon="99.82699">
<time>2015-08-06T07:51:41Z</time></trkpt>
<trkpt lat="28.791519" lon="99.82722">
<time>2015-08-06T07:51:42Z</time></trkpt>
<trkpt lat="28.79177" lon="99.827481">
<time>2015-08-06T07:51:43Z</time></trkpt>
<trkpt lat="28.79184" lon="99.827561">
<time>2015-08-06T07:51:44Z</time></trkpt>
<trkpt lat="28.79189" lon="99.827631">
<time>2015-08-06T07:51:45Z</time></trkpt>
<trkpt lat="28.79196" lon="99.827721">
<time>2015-08-06T07:51:46Z</time></trkpt>
<trkpt lat="28.79202" lon="99.827831">
<time>2015-08-06T07:51:47Z</time></trkpt>
<trkpt lat="28.79211" lon="99.828002">
<time>2015-08-06T07:51:48Z</time></trkpt>
<trkpt lat="28.792502" lon="99.828773">
<time>2015-08-06T07:51:49Z</time></trkpt>
<trkpt lat="28.792802" lon="99.829304">
<time>2015-08-06T07:51:50Z</time></trkpt>
<trkpt lat="28.792863" lon="99.829455">
<time>2015-08-06T07:51:51Z</time></trkpt>
<trkpt lat="28.792923" lon="99.829585">
<time>2015-08-06T07:51:52Z</time></trkpt>
<trkpt lat="28.792973" lon="99.829735">
<time>2015-08-06T07:51:53Z</time></trkpt>
<trkpt lat="28.793043" lon="99.829926">
<time>2015-08-06T07:51:54Z</time></trkpt>
<trkpt lat="28.793194" lon="99.830357">
<time>2015-08-06T07:51:55Z</time></trkpt>
<trkpt lat="28.793234" lon="99.830507">
<time>2015-08-06T07:51:56Z</time></trkpt>
<trkpt lat="28.793285" lon="99.830727">
<time>2015-08-06T07:51:57Z</time></trkpt>
<trkpt lat="28.793325" lon="99.830948">
<time>2015-08-06T07:51:58Z</time></trkpt>
<trkpt lat="28.793356" lon="99.831158">
<time>2015-08-06T07:51:59Z</time></trkpt>
<trkpt lat="28.793376" lon="99.831339">
<time>2015-08-06T07:52:00Z</time></trkpt>
<trkpt lat="28.793376" lon="99.831479">
<time>2015-08-06T07:52:01Z</time></trkpt>
<trkpt lat="28.793377" lon="99.83173">
<time>2015-08-06T07:52:02Z</time></trkpt>
<trkpt lat="28.793377" lon="99.83213">
<time>2015-08-06T07:52:03Z</time></trkpt>
<trkpt lat="28.793388" lon="99.832301">
<time>2015-08-06T07:52:04Z</time></trkpt>
<trkpt lat="28.793418" lon="99.832491">
<time>2015-08-06T07:52:05Z</time></trkpt>
<trkpt lat="28.793448" lon="99.832712">
<time>2015-08-06T07:52:06Z</time></trkpt>
<trkpt lat="28.793489" lon="99.832882">
<time>2015-08-06T07:52:07Z</time></trkpt>
<trkpt lat="28.793539" lon="99.833012">
<time>2015-08-06T07:52:08Z</time></trkpt>
<trkpt lat="28.793599" lon="99.833153">
<time>2015-08-06T07:52:09Z</time></trkpt>
<trkpt lat="28.793639" lon="99.833243">
<time>2015-08-06T07:52:10Z</time></trkpt>
<trkpt lat="28.793659" lon="99.833333">
<time>2015-08-06T07:52:11Z</time></trkpt>
<trkpt lat="28.79368" lon="99.833443">
<time>2015-08-06T07:52:12Z</time></trkpt>
<trkpt lat="28.7937" lon="99.833623">
<time>2015-08-06T07:52:13Z</time></trkpt>
<trkpt lat="28.79372" lon="99.833764">
<time>2015-08-06T07:52:14Z</time></trkpt>
<trkpt lat="28.79378" lon="99.833944">
<time>2015-08-06T07:52:15Z</time></trkpt>
<trkpt lat="28.793831" lon="99.834084">
<time>2015-08-06T07:52:16Z</time></trkpt>
<trkpt lat="28.793931" lon="99.834295">
<time>2015-08-06T07:52:17Z</time></trkpt>
<trkpt lat="28.794041" lon="99.834495">
<time>2015-08-06T07:52:18Z</time></trkpt>
<trkpt lat="28.794102" lon="99.834626">
<time>2015-08-06T07:52:19Z</time></trkpt>
<trkpt lat="28.794142" lon="99.834736">
<time>2015-08-06T07:52:20Z</time></trkpt>
<trkpt lat="28.794182" lon="99.834926">
<time>2015-08-06T07:52:21Z</time></trkpt>
<trkpt lat="28.794212" lon="99.835046">
<time>2015-08-06T07:52:22Z</time></trkpt>
<trkpt lat="28.794252" lon="99.835137">
<time>2015-08-06T07:52:23Z</time></trkpt>
<trkpt lat="28.794353" lon="99.835277">
<time>2015-08-06T07:52:24Z</time></trkpt>
<trkpt lat="28.794673" lon="99.835838">
<time>2015-08-06T07:52:25Z</time></trkpt>
<trkpt lat="28.794874" lon="99.836309">
<time>2015-08-06T07:52:26Z</time></trkpt>
<trkpt lat="28.795105" lon="99.83683">
<time>2015-08-06T07:52:27Z</time></trkpt>
<trkpt lat="28.795285" lon="99.837151">
<time>2015-08-06T07:52:28Z</time></trkpt>
<trkpt lat="28.795476" lon="99.837491">
<time>2015-08-06T07:52:29Z</time></trkpt>
<trkpt lat="28.795556" lon="99.837662">
<time>2015-08-06T07:52:30Z</time></trkpt>
<trkpt lat="28.795777" lon="99.838133">
<time>2015-08-06T07:52:31Z</time></trkpt>
<trkpt lat="28.795877" lon="99.838343">
<time>2015-08-06T07:52:32Z</time></trkpt>
<trkpt lat="28.795927" lon="99.838423">
<time>2015-08-06T07:52:33Z</time></trkpt>
<trkpt lat="28.796007" lon="99.838524">
<time>2015-08-06T07:52:34Z</time></trkpt>
<trkpt lat="28.796188" lon="99.838714">
<time>2015-08-06T07:52:35Z</time></trkpt>
<trkpt lat="28.796268" lon="99.838804">
<time>2015-08-06T07:52:36Z</time></trkpt>
<trkpt lat="28.796328" lon="99.838904">
<time>2015-08-06T07:52:37Z</time></trkpt>
<trkpt lat="28.796368" lon="99.838995">
<time>2015-08-06T07:52:38Z</time></trkpt>
<trkpt lat="28.796408" lon="99.839125">
<time>2015-08-06T07:52:39Z</time></trkpt>
<trkpt lat="28.796429" lon="99.839275">
<time>2015-08-06T07:52:40Z</time></trkpt>
<trkpt lat="28.796459" lon="99.839516">
<time>2015-08-06T07:52:41Z</time></trkpt>
<trkpt lat="28.79656" lon="99.840007">
<time>2015-08-06T07:52:42Z</time></trkpt>
<trkpt lat="28.796741" lon="99.840538">
<time>2015-08-06T07:52:43Z</time></trkpt>
<trkpt lat="28.796781" lon="99.840668">
<time>2015-08-06T07:52:44Z</time></trkpt>
<trkpt lat="28.796811" lon="99.840798">
<time>2015-08-06T07:52:45Z</time></trkpt>
<trkpt lat="28.796821" lon="99.841059">
<time>2015-08-06T07:52:46Z</time></trkpt>
<trkpt lat="28.796822" lon="99.841429">
<time>2015-08-06T07:52:47Z</time></trkpt>
<trkpt lat="28.796793" lon="99.8417">
<time>2015-08-06T07:52:48Z</time></trkpt>
<trkpt lat="28.796733" lon="99.842011">
<time>2015-08-06T07:52:49Z</time></trkpt>
<trkpt lat="28.796644" lon="99.842231">
<time>2015-08-06T07:52:50Z</time></trkpt>
<trkpt lat="28.796614" lon="99.842331">
<time>2015-08-06T07:52:51Z</time></trkpt>
<trkpt lat="28.796584" lon="99.842442">
<time>2015-08-06T07:52:52Z</time></trkpt>
<trkpt lat="28.796574" lon="99.842542">
<time>2015-08-06T07:52:53Z</time></trkpt>
<trkpt lat="28.796595" lon="99.842902">
<time>2015-08-06T07:52:54Z</time></trkpt>
<trkpt lat="28.796626" lon="99.843273">
<time>2015-08-06T07:52:55Z</time></trkpt>
<trkpt lat="28.796636" lon="99.843494">
<time>2015-08-06T07:52:56Z</time></trkpt>
<trkpt lat="28.796646" lon="99.843674">
<time>2015-08-06T07:52:57Z</time></trkpt>
<trkpt lat="28.796636" lon="99.843784">
<time>2015-08-06T07:52:58Z</time></trkpt>
<trkpt lat="28.796607" lon="99.843955">
<time>2015-08-06T07:52:59Z</time></trkpt>
<trkpt lat="28.796597" lon="99.844075">
<time>2015-08-06T07:53:00Z</time></trkpt>
<trkpt lat="28.796617" lon="99.844205">
<time>2015-08-06T07:53:01Z</time></trkpt>
<trkpt lat="28.796647" lon="99.844305">
<time>2015-08-06T07:53:02Z</time></trkpt>
<trkpt lat="28.796698" lon="99.844425">
<time>2015-08-06T07:53:03Z</time></trkpt>
<trkpt lat="28.796738" lon="99.844546">
<time>2015-08-06T07:53:04Z</time></trkpt>
<trkpt lat="28.796758" lon="99.844636">
<time>2015-08-06T07:53:05Z</time></trkpt>
<trkpt lat="28.796768" lon="99.844726">
<time>2015-08-06T07:53:06Z</time></trkpt>
<trkpt lat="28.796769" lon="99.844977">
<time>2015-08-06T07:53:07Z</time></trkpt>
<trkpt lat="28.79678" lon="99.845548">
<time>2015-08-06T07:53:08Z</time></trkpt>
<trkpt lat="28.79679" lon="99.845728">
<time>2015-08-06T07:53:09Z</time></trkpt>
<trkpt lat="28.79682" lon="99.845878">
<time>2015-08-06T07:53:10Z</time></trkpt>
<trkpt lat="28.79685" lon="99.846019">
<time>2015-08-06T07:53:11Z</time></trkpt>
<trkpt lat="28.79689" lon="99.846149">
<time>2015-08-06T07:53:12Z</time></trkpt>
<trkpt lat="28.796901" lon="99.846209">
<time>2015-08-06T07:53:13Z</time></trkpt>
<trkpt lat="28.796901" lon="99.846279">
<time>2015-08-06T07:53:14Z</time></trkpt>
<trkpt lat="28.796901" lon="99.846339">
<time>2015-08-06T07:53:15Z</time></trkpt>
<trkpt lat="28.796881" lon="99.846419">
<time>2015-08-06T07:53:16Z</time></trkpt>
<trkpt lat="28.796831" lon="99.84656">
<time>2015-08-06T07:53:17Z</time></trkpt>
<trkpt lat="28.796752" lon="99.84675">
<time>2015-08-06T07:53:18Z</time></trkpt>
<trkpt lat="28.796722" lon="99.84683">
<time>2015-08-06T07:53:19Z</time></trkpt>
<trkpt lat="28.796712" lon="99.84691">
<time>2015-08-06T07:53:20Z</time></trkpt>
<trkpt lat="28.796712" lon="99.84697">
<time>2015-08-06T07:53:21Z</time></trkpt>
<trkpt lat="28.796722" lon="99.847051">
<time>2015-08-06T07:53:22Z</time></trkpt>
<trkpt lat="28.796762" lon="99.847131">
<time>2015-08-06T07:53:23Z</time></trkpt>
<trkpt lat="28.796822" lon="99.847281">
<time>2015-08-06T07:53:24Z</time></trkpt>
<trkpt lat="28.796853" lon="99.847341">
<time>2015-08-06T07:53:25Z</time></trkpt>
<trkpt lat="28.796863" lon="99.847401">
<time>2015-08-06T07:53:26Z</time></trkpt>
<trkpt lat="28.796863" lon="99.847451">
<time>2015-08-06T07:53:27Z</time></trkpt>
<trkpt lat="28.796853" lon="99.847491">
<time>2015-08-06T07:53:28Z</time></trkpt>
<trkpt lat="28.796833" lon="99.847542">
<time>2015-08-06T07:53:29Z</time></trkpt>
<trkpt lat="28.796793" lon="99.847622">
<time>2015-08-06T07:53:30Z</time></trkpt>
<trkpt lat="28.796703" lon="99.847782">
<time>2015-08-06T07:53:31Z</time></trkpt>
<trkpt lat="28.796614" lon="99.847932">
<time>2015-08-06T07:53:32Z</time></trkpt>
<trkpt lat="28.796574" lon="99.848002">
<time>2015-08-06T07:53:33Z</time></trkpt>
<trkpt lat="28.796554" lon="99.848073">
<time>2015-08-06T07:53:34Z</time></trkpt>
<trkpt lat="28.796544" lon="99.848153">
<time>2015-08-06T07:53:35Z</time></trkpt>
<trkpt lat="28.796544" lon="99.848243">
<time>2015-08-06T07:53:36Z</time></trkpt>
<trkpt lat="28.796585" lon="99.848493">
<time>2015-08-06T07:53:37Z</time></trkpt>
<trkpt lat="28.796595" lon="99.848614">
<time>2015-08-06T07:53:38Z</time></trkpt>
<trkpt lat="28.796605" lon="99.848714">
<time>2015-08-06T07:53:39Z</time></trkpt>
<trkpt lat="28.796595" lon="99.848794">
<time>2015-08-06T07:53:40Z</time></trkpt>
<trkpt lat="28.796575" lon="99.848874">
<time>2015-08-06T07:53:41Z</time></trkpt>
<trkpt lat="28.796546" lon="99.848954">
<time>2015-08-06T07:53:42Z</time></trkpt>
<trkpt lat="28.796506" lon="99.849034">
<time>2015-08-06T07:53:43Z</time></trkpt>
<trkpt lat="28.796456" lon="99.849105">
<time>2015-08-06T07:53:44Z</time></trkpt>
<trkpt lat="28.796356" lon="99.849205">
<time>2015-08-06T07:53:45Z</time></trkpt>
<trkpt lat="28.796256" lon="99.849315">
<time>2015-08-06T07:53:46Z</time></trkpt>
<trkpt lat="28.796206" lon="99.849375">
<time>2015-08-06T07:53:47Z</time></trkpt>
<trkpt lat="28.796147" lon="99.849435">
<time>2015-08-06T07:53:48Z</time></trkpt>
<trkpt lat="28.796117" lon="99.849495">
<time>2015-08-06T07:53:49Z</time></trkpt>
<trkpt lat="28.796087" lon="99.849555">
<time>2015-08-06T07:53:50Z</time></trkpt>
<trkpt lat="28.796067" lon="99.849626">
<time>2015-08-06T07:53:51Z</time></trkpt>
<trkpt lat="28.796037" lon="99.849766">
<time>2015-08-06T07:53:52Z</time></trkpt>
<trkpt lat="28.796007" lon="99.849876">
<time>2015-08-06T07:53:53Z</time></trkpt>
<trkpt lat="28.795968" lon="99.849976">
<time>2015-08-06T07:53:54Z</time></trkpt>
<trkpt lat="28.795918" lon="99.850086">
<time>2015-08-06T07:53:55Z</time></trkpt>
<trkpt lat="28.795838" lon="99.850217">
<time>2015-08-06T07:53:56Z</time></trkpt>
<trkpt lat="28.795729" lon="99.850407">
<time>2015-08-06T07:53:57Z</time></trkpt>
<trkpt lat="28.795639" lon="99.850577">
<time>2015-08-06T07:53:58Z</time></trkpt>
<trkpt lat="28.79547" lon="99.850928">
<time>2015-08-06T07:53:59Z</time></trkpt>
<trkpt lat="28.79535" lon="99.851158">
<time>2015-08-06T07:54:00Z</time></trkpt>
<trkpt lat="28.795221" lon="99.851389">
<time>2015-08-06T07:54:01Z</time></trkpt>
<trkpt lat="28.795101" lon="99.851609">
<time>2015-08-06T07:54:02Z</time></trkpt>
<trkpt lat="28.794991" lon="99.85181">
<time>2015-08-06T07:54:03Z</time></trkpt>
<trkpt lat="28.794942" lon="99.85194">
<time>2015-08-06T07:54:04Z</time></trkpt>
<trkpt lat="28.794912" lon="99.85205">
<time>2015-08-06T07:54:05Z</time></trkpt>
<trkpt lat="28.794862" lon="99.852321">
<time>2015-08-06T07:54:06Z</time></trkpt>
<trkpt lat="28.794704" lon="99.853222">
<time>2015-08-06T07:54:07Z</time></trkpt>
<trkpt lat="28.794575" lon="99.853813">
<time>2015-08-06T07:54:08Z</time></trkpt>
<trkpt lat="28.794515" lon="99.854044">
<time>2015-08-06T07:54:09Z</time></trkpt>
<trkpt lat="28.794486" lon="99.854144">
<time>2015-08-06T07:54:10Z</time></trkpt>
<trkpt lat="28.794446" lon="99.854244">
<time>2015-08-06T07:54:11Z</time></trkpt>
<trkpt lat="28.794376" lon="99.854354">
<time>2015-08-06T07:54:12Z</time></trkpt>
<trkpt lat="28.794246" lon="99.854525">
<time>2015-08-06T07:54:13Z</time></trkpt>
<trkpt lat="28.794147" lon="99.854665">
<time>2015-08-06T07:54:14Z</time></trkpt>
<trkpt lat="28.794047" lon="99.854835">
<time>2015-08-06T07:54:15Z</time></trkpt>
<trkpt lat="28.793967" lon="99.854996">
<time>2015-08-06T07:54:16Z</time></trkpt>
<trkpt lat="28.793888" lon="99.855156">
<time>2015-08-06T07:54:17Z</time></trkpt>
<trkpt lat="28.793828" lon="99.855316">
<time>2015-08-06T07:54:18Z</time></trkpt>
<trkpt lat="28.793708" lon="99.855617">
<time>2015-08-06T07:54:19Z</time></trkpt>
<trkpt lat="28.793609" lon="99.855897">
<time>2015-08-06T07:54:20Z</time></trkpt>
<trkpt lat="28.793549" lon="99.856037">
<time>2015-08-06T07:54:21Z</time></trkpt>
<trkpt lat="28.793509" lon="99.856128">
<time>2015-08-06T07:54:22Z</time></trkpt>
<trkpt lat="28.79345" lon="99.856228">
<time>2015-08-06T07:54:23Z</time></trkpt>
<trkpt lat="28.79338" lon="99.856328">
<time>2015-08-06T07:54:24Z</time></trkpt>
<trkpt lat="28.7933" lon="99.856418">
<time>2015-08-06T07:54:25Z</time></trkpt>
<trkpt lat="28.79315" lon="99.856578">
<time>2015-08-06T07:54:26Z</time></trkpt>
<trkpt lat="28.792941" lon="99.856789">
<time>2015-08-06T07:54:27Z</time></trkpt>
<trkpt lat="28.792791" lon="99.856919">
<time>2015-08-06T07:54:28Z</time></trkpt>
<trkpt lat="28.792721" lon="99.856969">
<time>2015-08-06T07:54:29Z</time></trkpt>
<trkpt lat="28.792621" lon="99.857029">
<time>2015-08-06T07:54:30Z</time></trkpt>
<trkpt lat="28.792502" lon="99.857089">
<time>2015-08-06T07:54:31Z</time></trkpt>
<trkpt lat="28.792352" lon="99.857159">
<time>2015-08-06T07:54:32Z</time></trkpt>
<trkpt lat="28.792282" lon="99.857219">
<time>2015-08-06T07:54:33Z</time></trkpt>
<trkpt lat="28.792192" lon="99.85729">
<time>2015-08-06T07:54:34Z</time></trkpt>
<trkpt lat="28.792092" lon="99.85738">
<time>2015-08-06T07:54:35Z</time></trkpt>
<trkpt lat="28.792012" lon="99.85749">
<time>2015-08-06T07:54:36Z</time></trkpt>
<trkpt lat="28.791953" lon="99.85759">
<time>2015-08-06T07:54:37Z</time></trkpt>
<trkpt lat="28.791843" lon="99.85782">
<time>2015-08-06T07:54:38Z</time></trkpt>
<trkpt lat="28.791783" lon="99.857931">
<time>2015-08-06T07:54:39Z</time></trkpt>
<trkpt lat="28.791704" lon="99.858071">
<time>2015-08-06T07:54:40Z</time></trkpt>
<trkpt lat="28.791624" lon="99.858191">
<time>2015-08-06T07:54:41Z</time></trkpt>
<trkpt lat="28.791494" lon="99.858361">
<time>2015-08-06T07:54:42Z</time></trkpt>
<trkpt lat="28.791434" lon="99.858432">
<time>2015-08-06T07:54:43Z</time></trkpt>
<trkpt lat="28.791394" lon="99.858482">
<time>2015-08-06T07:54:44Z</time></trkpt>
<trkpt lat="28.791355" lon="99.858562">
<time>2015-08-06T07:54:45Z</time></trkpt>
<trkpt lat="28.791325" lon="99.858642">
<time>2015-08-06T07:54:46Z</time></trkpt>
<trkpt lat="28.791285" lon="99.858742">
<time>2015-08-06T07:54:47Z</time></trkpt>
<trkpt lat="28.791235" lon="99.858882">
<time>2015-08-06T07:54:48Z</time></trkpt>
<trkpt lat="28.791175" lon="99.859003">
<time>2015-08-06T07:54:49Z</time></trkpt>
<trkpt lat="28.791126" lon="99.859103">
<time>2015-08-06T07:54:50Z</time></trkpt>
<trkpt lat="28.791086" lon="99.859163">
<time>2015-08-06T07:54:51Z</time></trkpt>
<trkpt lat="28.791006" lon="99.859253">
<time>2015-08-06T07:54:52Z</time></trkpt>
<trkpt lat="28.790926" lon="99.859353">
<time>2015-08-06T07:54:53Z</time></trkpt>
<trkpt lat="28.790716" lon="99.859553">
<time>2015-08-06T07:54:54Z</time></trkpt>
<trkpt lat="28.790227" lon="99.859994">
<time>2015-08-06T07:54:55Z</time></trkpt>
<trkpt lat="28.789818" lon="99.860295">
<time>2015-08-06T07:54:56Z</time></trkpt>
<trkpt lat="28.789539" lon="99.860515">
<time>2015-08-06T07:54:57Z</time></trkpt>
<trkpt lat="28.789279" lon="99.860786">
<time>2015-08-06T07:54:58Z</time></trkpt>
<trkpt lat="28.78902" lon="99.861066">
<time>2015-08-06T07:54:59Z</time></trkpt>
<trkpt lat="28.7888" lon="99.861387">
<time>2015-08-06T07:55:00Z</time></trkpt>
<trkpt lat="28.788571" lon="99.861667">
<time>2015-08-06T07:55:01Z</time></trkpt>
<trkpt lat="28.788481" lon="99.861777">
<time>2015-08-06T07:55:02Z</time></trkpt>
<trkpt lat="28.788371" lon="99.861857">
<time>2015-08-06T07:55:03Z</time></trkpt>
<trkpt lat="28.788232" lon="99.861917">
<time>2015-08-06T07:55:04Z</time></trkpt>
<trkpt lat="28.788112" lon="99.861947">
<time>2015-08-06T07:55:05Z</time></trkpt>
<trkpt lat="28.787103" lon="99.862208">
<time>2015-08-06T07:55:06Z</time></trkpt>
<trkpt lat="28.786993" lon="99.862228">
<time>2015-08-06T07:55:07Z</time></trkpt>
<trkpt lat="28.786923" lon="99.862258">
<time>2015-08-06T07:55:08Z</time></trkpt>
<trkpt lat="28.786863" lon="99.862288">
<time>2015-08-06T07:55:09Z</time></trkpt>
<trkpt lat="28.786813" lon="99.862328">
<time>2015-08-06T07:55:10Z</time></trkpt>
<trkpt lat="28.786763" lon="99.862378">
<time>2015-08-06T07:55:11Z</time></trkpt>
<trkpt lat="28.786723" lon="99.862438">
<time>2015-08-06T07:55:12Z</time></trkpt>
<trkpt lat="28.786674" lon="99.862508">
<time>2015-08-06T07:55:13Z</time></trkpt>
<trkpt lat="28.786574" lon="99.862679">
<time>2015-08-06T07:55:14Z</time></trkpt>
<trkpt lat="28.786514" lon="99.862789">
<time>2015-08-06T07:55:15Z</time></trkpt>
<trkpt lat="28.786434" lon="99.862869">
<time>2015-08-06T07:55:16Z</time></trkpt>
<trkpt lat="28.786384" lon="99.862909">
<time>2015-08-06T07:55:17Z</time></trkpt>
<trkpt lat="28.786324" lon="99.862949">
<time>2015-08-06T07:55:18Z</time></trkpt>
<trkpt lat="28.786234" lon="99.862989">
<time>2015-08-06T07:55:19Z</time></trkpt>
<trkpt lat="28.786135" lon="99.863039">
<time>2015-08-06T07:55:20Z</time></trkpt>
<trkpt lat="28.786045" lon="99.863059">
<time>2015-08-06T07:55:21Z</time></trkpt>
<trkpt lat="28.785925" lon="99.863099">
<time>2015-08-06T07:55:22Z</time></trkpt>
<trkpt lat="28.785765" lon="99.863109">
<time>2015-08-06T07:55:23Z</time></trkpt>
<trkpt lat="28.785555" lon="99.863129">
<time>2015-08-06T07:55:24Z</time></trkpt>
<trkpt lat="28.785435" lon="99.863159">
<time>2015-08-06T07:55:25Z</time></trkpt>
<trkpt lat="28.785335" lon="99.863179">
<time>2015-08-06T07:55:26Z</time></trkpt>
<trkpt lat="28.785255" lon="99.863199">
<time>2015-08-06T07:55:27Z</time></trkpt>
<trkpt lat="28.785166" lon="99.86324">
<time>2015-08-06T07:55:28Z</time></trkpt>
<trkpt lat="28.785106" lon="99.86328">
<time>2015-08-06T07:55:29Z</time></trkpt>
<trkpt lat="28.785066" lon="99.86331">
<time>2015-08-06T07:55:30Z</time></trkpt>
<trkpt lat="28.785006" lon="99.86338">
<time>2015-08-06T07:55:31Z</time></trkpt>
<trkpt lat="28.784956" lon="99.86348">
<time>2015-08-06T07:55:32Z</time></trkpt>
<trkpt lat="28.784886" lon="99.8636">
<time>2015-08-06T07:55:33Z</time></trkpt>
<trkpt lat="28.784827" lon="99.86377">
<time>2015-08-06T07:55:34Z</time></trkpt>
<trkpt lat="28.784757" lon="99.863921">
<time>2015-08-06T07:55:35Z</time></trkpt>
<trkpt lat="28.784707" lon="99.864011">
<time>2015-08-06T07:55:36Z</time></trkpt>
<trkpt lat="28.784657" lon="99.864091">
<time>2015-08-06T07:55:37Z</time></trkpt>
<trkpt lat="28.784607" lon="99.864151">
<time>2015-08-06T07:55:38Z</time></trkpt>
<trkpt lat="28.784557" lon="99.864201">
<time>2015-08-06T07:55:39Z</time></trkpt>
<trkpt lat="28.784487" lon="99.864251">
<time>2015-08-06T07:55:40Z</time></trkpt>
<trkpt lat="28.784388" lon="99.864321">
<time>2015-08-06T07:55:41Z</time></trkpt>
<trkpt lat="28.784298" lon="99.864371">
<time>2015-08-06T07:55:42Z</time></trkpt>
<trkpt lat="28.784138" lon="99.864451">
<time>2015-08-06T07:55:43Z</time></trkpt>
<trkpt lat="28.783998" lon="99.864491">
<time>2015-08-06T07:55:44Z</time></trkpt>
<trkpt lat="28.783878" lon="99.864522">
<time>2015-08-06T07:55:45Z</time></trkpt>
<trkpt lat="28.783738" lon="99.864532">
<time>2015-08-06T07:55:46Z</time></trkpt>
<trkpt lat="28.783598" lon="99.864542">
<time>2015-08-06T07:55:47Z</time></trkpt>
<trkpt lat="28.783499" lon="99.864552">
<time>2015-08-06T07:55:48Z</time></trkpt>
<trkpt lat="28.783369" lon="99.864602">
<time>2015-08-06T07:55:49Z</time></trkpt>
<trkpt lat="28.783229" lon="99.864652">
<time>2015-08-06T07:55:50Z</time></trkpt>
<trkpt lat="28.782949" lon="99.864782">
<time>2015-08-06T07:55:51Z</time></trkpt>
<trkpt lat="28.782759" lon="99.864872">
<time>2015-08-06T07:55:52Z</time></trkpt>
<trkpt lat="28.78266" lon="99.864902">
<time>2015-08-06T07:55:53Z</time></trkpt>
<trkpt lat="28.78254" lon="99.864932">
<time>2015-08-06T07:55:54Z</time></trkpt>
<trkpt lat="28.7824" lon="99.864962">
<time>2015-08-06T07:55:55Z</time></trkpt>
<trkpt lat="28.78231" lon="99.864982">
<time>2015-08-06T07:55:56Z</time></trkpt>
<trkpt lat="28.78224" lon="99.865002">
<time>2015-08-06T07:55:57Z</time></trkpt>
<trkpt lat="28.78217" lon="99.865022">
<time>2015-08-06T07:55:58Z</time></trkpt>
<trkpt lat="28.78212" lon="99.865052">
<time>2015-08-06T07:55:59Z</time></trkpt>
<trkpt lat="28.78201" lon="99.865112">
<time>2015-08-06T07:56:00Z</time></trkpt>
<trkpt lat="28.781801" lon="99.865233">
<time>2015-08-06T07:56:01Z</time></trkpt>
<trkpt lat="28.781681" lon="99.865293">
<time>2015-08-06T07:56:02Z</time></trkpt>
<trkpt lat="28.781541" lon="99.865353">
<time>2015-08-06T07:56:03Z</time></trkpt>
<trkpt lat="28.781401" lon="99.865413">
<time>2015-08-06T07:56:04Z</time></trkpt>
<trkpt lat="28.781241" lon="99.865453">
<time>2015-08-06T07:56:05Z</time></trkpt>
<trkpt lat="28.781091" lon="99.865483">
<time>2015-08-06T07:56:06Z</time></trkpt>
<trkpt lat="28.780902" lon="99.865523">
<time>2015-08-06T07:56:07Z</time></trkpt>
<trkpt lat="28.780642" lon="99.865573">
<time>2015-08-06T07:56:08Z</time></trkpt>
<trkpt lat="28.780092" lon="99.865653">
<time>2015-08-06T07:56:09Z</time></trkpt>
<trkpt lat="28.779813" lon="99.865693">
<time>2015-08-06T07:56:10Z</time></trkpt>
<trkpt lat="28.779653" lon="99.865723">
<time>2015-08-06T07:56:11Z</time></trkpt>
<trkpt lat="28.779503" lon="99.865753">
<time>2015-08-06T07:56:12Z</time></trkpt>
<trkpt lat="28.779313" lon="99.865814">
<time>2015-08-06T07:56:13Z</time></trkpt>
<trkpt lat="28.778983" lon="99.865904">
<time>2015-08-06T07:56:14Z</time></trkpt>
<trkpt lat="28.778654" lon="99.865934">
<time>2015-08-06T07:56:15Z</time></trkpt>
<trkpt lat="28.778404" lon="99.865954">
<time>2015-08-06T07:56:16Z</time></trkpt>
<trkpt lat="28.778244" lon="99.866014">
<time>2015-08-06T07:56:17Z</time></trkpt>
<trkpt lat="28.778094" lon="99.866114">
<time>2015-08-06T07:56:18Z</time></trkpt>
<trkpt lat="28.777895" lon="99.866304">
<time>2015-08-06T07:56:19Z</time></trkpt>
<trkpt lat="28.777655" lon="99.866545">
<time>2015-08-06T07:56:20Z</time></trkpt>
<trkpt lat="28.777535" lon="99.866645">
<time>2015-08-06T07:56:21Z</time></trkpt>
<trkpt lat="28.777455" lon="99.866695">
<time>2015-08-06T07:56:22Z</time></trkpt>
<trkpt lat="28.777366" lon="99.866745">
<time>2015-08-06T07:56:23Z</time></trkpt>
<trkpt lat="28.777256" lon="99.866775">
<time>2015-08-06T07:56:24Z</time></trkpt>
<trkpt lat="28.777106" lon="99.866805">
<time>2015-08-06T07:56:25Z</time></trkpt>
<trkpt lat="28.776846" lon="99.866815">
<time>2015-08-06T07:56:26Z</time></trkpt>
<trkpt lat="28.776726" lon="99.866825">
<time>2015-08-06T07:56:27Z</time></trkpt>
<trkpt lat="28.776596" lon="99.866855">
<time>2015-08-06T07:56:28Z</time></trkpt>
<trkpt lat="28.776486" lon="99.866885">
<time>2015-08-06T07:56:29Z</time></trkpt>
<trkpt lat="28.776207" lon="99.866975">
<time>2015-08-06T07:56:30Z</time></trkpt>
<trkpt lat="28.776057" lon="99.867025">
<time>2015-08-06T07:56:31Z</time></trkpt>
<trkpt lat="28.775807" lon="99.867096">
<time>2015-08-06T07:56:32Z</time></trkpt>
<trkpt lat="28.775707" lon="99.867106">
<time>2015-08-06T07:56:33Z</time></trkpt>
<trkpt lat="28.775627" lon="99.867116">
<time>2015-08-06T07:56:34Z</time></trkpt>
<trkpt lat="28.775547" lon="99.867106">
<time>2015-08-06T07:56:35Z</time></trkpt>
<trkpt lat="28.775477" lon="99.867086">
<time>2015-08-06T07:56:36Z</time></trkpt>
<trkpt lat="28.775347" lon="99.867035">
<time>2015-08-06T07:56:37Z</time></trkpt>
<trkpt lat="28.775267" lon="99.867005">
<time>2015-08-06T07:56:38Z</time></trkpt>
<trkpt lat="28.775207" lon="99.867005">
<time>2015-08-06T07:56:39Z</time></trkpt>
<trkpt lat="28.775167" lon="99.867005">
<time>2015-08-06T07:56:40Z</time></trkpt>
<trkpt lat="28.775117" lon="99.867005">
<time>2015-08-06T07:56:41Z</time></trkpt>
<trkpt lat="28.775067" lon="99.867025">
<time>2015-08-06T07:56:42Z</time></trkpt>
<trkpt lat="28.775008" lon="99.867045">
<time>2015-08-06T07:56:43Z</time></trkpt>
<trkpt lat="28.774638" lon="99.867236">
<time>2015-08-06T07:56:44Z</time></trkpt>
<trkpt lat="28.774219" lon="99.867456">
<time>2015-08-06T07:56:45Z</time></trkpt>
<trkpt lat="28.774109" lon="99.867526">
<time>2015-08-06T07:56:46Z</time></trkpt>
<trkpt lat="28.774049" lon="99.867566">
<time>2015-08-06T07:56:47Z</time></trkpt>
<trkpt lat="28.773979" lon="99.867616">
<time>2015-08-06T07:56:48Z</time></trkpt>
<trkpt lat="28.773859" lon="99.867747">
<time>2015-08-06T07:56:49Z</time></trkpt>
<trkpt lat="28.77369" lon="99.867927">
<time>2015-08-06T07:56:50Z</time></trkpt>
<trkpt lat="28.77331" lon="99.868277">
<time>2015-08-06T07:56:51Z</time></trkpt>
<trkpt lat="28.77321" lon="99.868407">
<time>2015-08-06T07:56:52Z</time></trkpt>
<trkpt lat="28.773021" lon="99.868658">
<time>2015-08-06T07:56:53Z</time></trkpt>
<trkpt lat="28.772742" lon="99.869048">
<time>2015-08-06T07:56:54Z</time></trkpt>
<trkpt lat="28.772642" lon="99.869169">
<time>2015-08-06T07:56:55Z</time></trkpt>
<trkpt lat="28.772512" lon="99.869299">
<time>2015-08-06T07:56:56Z</time></trkpt>
<trkpt lat="28.772392" lon="99.869419">
<time>2015-08-06T07:56:57Z</time></trkpt>
<trkpt lat="28.772213" lon="99.869559">
<time>2015-08-06T07:56:58Z</time></trkpt>
<trkpt lat="28.772023" lon="99.869669">
<time>2015-08-06T07:56:59Z</time></trkpt>
<trkpt lat="28.771893" lon="99.869729">
<time>2015-08-06T07:57:00Z</time></trkpt>
<trkpt lat="28.771763" lon="99.869779">
<time>2015-08-06T07:57:01Z</time></trkpt>
<trkpt lat="28.771623" lon="99.869809">
<time>2015-08-06T07:57:02Z</time></trkpt>
<trkpt lat="28.771453" lon="99.869819">
<time>2015-08-06T07:57:03Z</time></trkpt>
<trkpt lat="28.771094" lon="99.869809">
<time>2015-08-06T07:57:04Z</time></trkpt>
<trkpt lat="28.770934" lon="99.869809">
<time>2015-08-06T07:57:05Z</time></trkpt>
<trkpt lat="28.770754" lon="99.869829">
<time>2015-08-06T07:57:06Z</time></trkpt>
<trkpt lat="28.770314" lon="99.86986">
<time>2015-08-06T07:57:07Z</time></trkpt>
<trkpt lat="28.770114" lon="99.86988">
<time>2015-08-06T07:57:08Z</time></trkpt>
<trkpt lat="28.769954" lon="99.86989">
<time>2015-08-06T07:57:09Z</time></trkpt>
<trkpt lat="28.769805" lon="99.86993">
<time>2015-08-06T07:57:10Z</time></trkpt>
<trkpt lat="28.769485" lon="99.87">
<time>2015-08-06T07:57:11Z</time></trkpt>
<trkpt lat="28.769385" lon="99.87001">
<time>2015-08-06T07:57:12Z</time></trkpt>
<trkpt lat="28.769295" lon="99.87001">
<time>2015-08-06T07:57:13Z</time></trkpt>
<trkpt lat="28.769195" lon="99.86997">
<time>2015-08-06T07:57:14Z</time></trkpt>
<trkpt lat="28.769045" lon="99.86991">
<time>2015-08-06T07:57:15Z</time></trkpt>
<trkpt lat="28.768985" lon="99.86989">
<time>2015-08-06T07:57:16Z</time></trkpt>
<trkpt lat="28.768935" lon="99.86989">
<time>2015-08-06T07:57:17Z</time></trkpt>
<trkpt lat="28.768875" lon="99.86988">
<time>2015-08-06T07:57:18Z</time></trkpt>
<trkpt lat="28.768795" lon="99.86988">
<time>2015-08-06T07:57:19Z</time></trkpt>
<trkpt lat="28.768705" lon="99.86989">
<time>2015-08-06T07:57:20Z</time></trkpt>
<trkpt lat="28.768306" lon="99.86999">
<time>2015-08-06T07:57:21Z</time></trkpt>
<trkpt lat="28.768046" lon="99.87004">
<time>2015-08-06T07:57:22Z</time></trkpt>
<trkpt lat="28.767886" lon="99.87006">
<time>2015-08-06T07:57:23Z</time></trkpt>
<trkpt lat="28.767596" lon="99.87006">
<time>2015-08-06T07:57:24Z</time></trkpt>
<trkpt lat="28.767396" lon="99.87006">
<time>2015-08-06T07:57:25Z</time></trkpt>
<trkpt lat="28.767276" lon="99.87007">
<time>2015-08-06T07:57:26Z</time></trkpt>
<trkpt lat="28.767197" lon="99.87008">
<time>2015-08-06T07:57:27Z</time></trkpt>
<trkpt lat="28.767117" lon="99.8701">
<time>2015-08-06T07:57:28Z</time></trkpt>
<trkpt lat="28.767057" lon="99.87013">
<time>2015-08-06T07:57:29Z</time></trkpt>
<trkpt lat="28.766987" lon="99.87017">
<time>2015-08-06T07:57:30Z</time></trkpt>
<trkpt lat="28.766597" lon="99.87042">
<time>2015-08-06T07:57:31Z</time></trkpt>
<trkpt lat="28.766488" lon="99.870521">
<time>2015-08-06T07:57:32Z</time></trkpt>
<trkpt lat="28.766418" lon="99.870591">
<time>2015-08-06T07:57:33Z</time></trkpt>
<trkpt lat="28.766358" lon="99.870671">
<time>2015-08-06T07:57:34Z</time></trkpt>
<trkpt lat="28.766298" lon="99.870781">
<time>2015-08-06T07:57:35Z</time></trkpt>
<trkpt lat="28.766198" lon="99.870981">
<time>2015-08-06T07:57:36Z</time></trkpt>
<trkpt lat="28.766039" lon="99.871292">
<time>2015-08-06T07:57:37Z</time></trkpt>
<trkpt lat="28.765969" lon="99.871402">
<time>2015-08-06T07:57:38Z</time></trkpt>
<trkpt lat="28.765909" lon="99.871492">
<time>2015-08-06T07:57:39Z</time></trkpt>
<trkpt lat="28.765809" lon="99.871602">
<time>2015-08-06T07:57:40Z</time></trkpt>
<trkpt lat="28.765679" lon="99.871712">
<time>2015-08-06T07:57:41Z</time></trkpt>
<trkpt lat="28.76557" lon="99.871792">
<time>2015-08-06T07:57:42Z</time></trkpt>
<trkpt lat="28.76546" lon="99.871862">
<time>2015-08-06T07:57:43Z</time></trkpt>
<trkpt lat="28.76537" lon="99.871912">
<time>2015-08-06T07:57:44Z</time></trkpt>
<trkpt lat="28.76527" lon="99.871952">
<time>2015-08-06T07:57:45Z</time></trkpt>
<trkpt lat="28.76518" lon="99.871972">
<time>2015-08-06T07:57:46Z</time></trkpt>
<trkpt lat="28.76502" lon="99.872002">
<time>2015-08-06T07:57:47Z</time></trkpt>
<trkpt lat="28.76488" lon="99.872022">
<time>2015-08-06T07:57:48Z</time></trkpt>
<trkpt lat="28.76479" lon="99.872043">
<time>2015-08-06T07:57:49Z</time></trkpt>
<trkpt lat="28.764681" lon="99.872083">
<time>2015-08-06T07:57:50Z</time></trkpt>
<trkpt lat="28.764601" lon="99.872133">
<time>2015-08-06T07:57:51Z</time></trkpt>
<trkpt lat="28.764511" lon="99.872193">
<time>2015-08-06T07:57:52Z</time></trkpt>
<trkpt lat="28.764391" lon="99.872293">
<time>2015-08-06T07:57:53Z</time></trkpt>
<trkpt lat="28.764261" lon="99.872393">
<time>2015-08-06T07:57:54Z</time></trkpt>
<trkpt lat="28.764191" lon="99.872443">
<time>2015-08-06T07:57:55Z</time></trkpt>
<trkpt lat="28.764121" lon="99.872483">
<time>2015-08-06T07:57:56Z</time></trkpt>
<trkpt lat="28.764061" lon="99.872493">
<time>2015-08-06T07:57:57Z</time></trkpt>
<trkpt lat="28.764001" lon="99.872503">
<time>2015-08-06T07:57:58Z</time></trkpt>
<trkpt lat="28.763941" lon="99.872503">
<time>2015-08-06T07:57:59Z</time></trkpt>
<trkpt lat="28.763882" lon="99.872493">
<time>2015-08-06T07:58:00Z</time></trkpt>
<trkpt lat="28.763802" lon="99.872463">
<time>2015-08-06T07:58:01Z</time></trkpt>
<trkpt lat="28.763692" lon="99.872413">
<time>2015-08-06T07:58:02Z</time></trkpt>
<trkpt lat="28.763592" lon="99.872343">
<time>2015-08-06T07:58:03Z</time></trkpt>
<trkpt lat="28.763502" lon="99.872273">
<time>2015-08-06T07:58:04Z</time></trkpt>
<trkpt lat="28.763421" lon="99.872183">
<time>2015-08-06T07:58:05Z</time></trkpt>
<trkpt lat="28.763261" lon="99.871982">
<time>2015-08-06T07:58:06Z</time></trkpt>
<trkpt lat="28.763151" lon="99.871842">
<time>2015-08-06T07:58:07Z</time></trkpt>
<trkpt lat="28.763091" lon="99.871762">
<time>2015-08-06T07:58:08Z</time></trkpt>
<trkpt lat="28.763031" lon="99.871702">
<time>2015-08-06T07:58:09Z</time></trkpt>
<trkpt lat="28.762981" lon="99.871652">
<time>2015-08-06T07:58:10Z</time></trkpt>
<trkpt lat="28.762921" lon="99.871612">
<time>2015-08-06T07:58:11Z</time></trkpt>
<trkpt lat="28.762851" lon="99.871562">
<time>2015-08-06T07:58:12Z</time></trkpt>
<trkpt lat="28.762711" lon="99.871512">
<time>2015-08-06T07:58:13Z</time></trkpt>
<trkpt lat="28.762611" lon="99.871472">
<time>2015-08-06T07:58:14Z</time></trkpt>
<trkpt lat="28.762551" lon="99.871442">
<time>2015-08-06T07:58:15Z</time></trkpt>
<trkpt lat="28.762451" lon="99.871382">
<time>2015-08-06T07:58:16Z</time></trkpt>
<trkpt lat="28.762361" lon="99.871322">
<time>2015-08-06T07:58:17Z</time></trkpt>
<trkpt lat="28.762261" lon="99.871242">
<time>2015-08-06T07:58:18Z</time></trkpt>
<trkpt lat="28.762161" lon="99.871151">
<time>2015-08-06T07:58:19Z</time></trkpt>
<trkpt lat="28.762111" lon="99.871061">
<time>2015-08-06T07:58:20Z</time></trkpt>
<trkpt lat="28.762051" lon="99.870981">
<time>2015-08-06T07:58:21Z</time></trkpt>
<trkpt lat="28.761991" lon="99.870861">
<time>2015-08-06T07:58:22Z</time></trkpt>
<trkpt lat="28.761941" lon="99.870761">
<time>2015-08-06T07:58:23Z</time></trkpt>
<trkpt lat="28.761881" lon="99.870661">
<time>2015-08-06T07:58:24Z</time></trkpt>
<trkpt lat="28.761841" lon="99.870601">
<time>2015-08-06T07:58:25Z</time></trkpt>
<trkpt lat="28.761771" lon="99.870521">
<time>2015-08-06T07:58:26Z</time></trkpt>
<trkpt lat="28.761711" lon="99.870471">
<time>2015-08-06T07:58:27Z</time></trkpt>
<trkpt lat="28.761601" lon="99.87038">
<time>2015-08-06T07:58:28Z</time></trkpt>
<trkpt lat="28.761371" lon="99.87021">
<time>2015-08-06T07:58:29Z</time></trkpt>
<trkpt lat="28.761081" lon="99.87">
<time>2015-08-06T07:58:30Z</time></trkpt>
<trkpt lat="28.76101" lon="99.86994">
<time>2015-08-06T07:58:31Z</time></trkpt>
<trkpt lat="28.76093" lon="99.86988">
<time>2015-08-06T07:58:32Z</time></trkpt>
<trkpt lat="28.7608" lon="99.86981">
<time>2015-08-06T07:58:33Z</time></trkpt>
<trkpt lat="28.76049" lon="99.869659">
<time>2015-08-06T07:58:34Z</time></trkpt>
<trkpt lat="28.760141" lon="99.869529">
<time>2015-08-06T07:58:35Z</time></trkpt>
<trkpt lat="28.759711" lon="99.869369">
<time>2015-08-06T07:58:36Z</time></trkpt>
<trkpt lat="28.759541" lon="99.869299">
<time>2015-08-06T07:58:37Z</time></trkpt>
<trkpt lat="28.759371" lon="99.869209">
<time>2015-08-06T07:58:38Z</time></trkpt>
<trkpt lat="28.759211" lon="99.869109">
<time>2015-08-06T07:58:39Z</time></trkpt>
<trkpt lat="28.758901" lon="99.868939">
<time>2015-08-06T07:58:40Z</time></trkpt>
<trkpt lat="28.758641" lon="99.868778">
<time>2015-08-06T07:58:41Z</time></trkpt>
<trkpt lat="28.758451" lon="99.868658">
<time>2015-08-06T07:58:42Z</time></trkpt>
<trkpt lat="28.758311" lon="99.868548">
<time>2015-08-06T07:58:43Z</time></trkpt>
<trkpt lat="28.758161" lon="99.868438">
<time>2015-08-06T07:58:44Z</time></trkpt>
<trkpt lat="28.758051" lon="99.868348">
<time>2015-08-06T07:58:45Z</time></trkpt>
<trkpt lat="28.75794" lon="99.868248">
<time>2015-08-06T07:58:46Z</time></trkpt>
<trkpt lat="28.75781" lon="99.868117">
<time>2015-08-06T07:58:47Z</time></trkpt>
<trkpt lat="28.7577" lon="99.867987">
<time>2015-08-06T07:58:48Z</time></trkpt>
<trkpt lat="28.7576" lon="99.867867">
<time>2015-08-06T07:58:49Z</time></trkpt>
<trkpt lat="28.75739" lon="99.867557">
<time>2015-08-06T07:58:50Z</time></trkpt>
<trkpt lat="28.75731" lon="99.867447">
<time>2015-08-06T07:58:51Z</time></trkpt>
<trkpt lat="28.75727" lon="99.867376">
<time>2015-08-06T07:58:52Z</time></trkpt>
<trkpt lat="28.75722" lon="99.867316">
<time>2015-08-06T07:58:53Z</time></trkpt>
<trkpt lat="28.75712" lon="99.867206">
<time>2015-08-06T07:58:54Z</time></trkpt>
<trkpt lat="28.75701" lon="99.867086">
<time>2015-08-06T07:58:55Z</time></trkpt>
<trkpt lat="28.756779" lon="99.866806">
<time>2015-08-06T07:58:56Z</time></trkpt>
<trkpt lat="28.756339" lon="99.866275">
<time>2015-08-06T07:58:57Z</time></trkpt>
<trkpt lat="28.756159" lon="99.866065">
<time>2015-08-06T07:58:58Z</time></trkpt>
<trkpt lat="28.756059" lon="99.865934">
<time>2015-08-06T07:58:59Z</time></trkpt>
<trkpt lat="28.755979" lon="99.865864">
<time>2015-08-06T07:59:00Z</time></trkpt>
<trkpt lat="28.755869" lon="99.865774">
<time>2015-08-06T07:59:01Z</time></trkpt>
<trkpt lat="28.755769" lon="99.865714">
<time>2015-08-06T07:59:02Z</time></trkpt>
<trkpt lat="28.755659" lon="99.865634">
<time>2015-08-06T07:59:03Z</time></trkpt>
<trkpt lat="28.755509" lon="99.865554">
<time>2015-08-06T07:59:04Z</time></trkpt>
<trkpt lat="28.755419" lon="99.865514">
<time>2015-08-06T07:59:05Z</time></trkpt>
<trkpt lat="28.755349" lon="99.865484">
<time>2015-08-06T07:59:06Z</time></trkpt>
<trkpt lat="28.755039" lon="99.865414">
<time>2015-08-06T07:59:07Z</time></trkpt>
<trkpt lat="28.754599" lon="99.865313">
<time>2015-08-06T07:59:08Z</time></trkpt>
<trkpt lat="28.754219" lon="99.865223">
<time>2015-08-06T07:59:09Z</time></trkpt>
<trkpt lat="28.753909" lon="99.865173">
<time>2015-08-06T07:59:10Z</time></trkpt>
<trkpt lat="28.753579" lon="99.865123">
<time>2015-08-06T07:59:11Z</time></trkpt>
<trkpt lat="28.753349" lon="99.865113">
<time>2015-08-06T07:59:12Z</time></trkpt>
<trkpt lat="28.75304" lon="99.865113">
<time>2015-08-06T07:59:13Z</time></trkpt>
<trkpt lat="28.75269" lon="99.865103">
<time>2015-08-06T07:59:14Z</time></trkpt>
<trkpt lat="28.75255" lon="99.865093">
<time>2015-08-06T07:59:15Z</time></trkpt>
<trkpt lat="28.75243" lon="99.865073">
<time>2015-08-06T07:59:16Z</time></trkpt>
<trkpt lat="28.75233" lon="99.865043">
<time>2015-08-06T07:59:17Z</time></trkpt>
<trkpt lat="28.75226" lon="99.865023">
<time>2015-08-06T07:59:18Z</time></trkpt>
<trkpt lat="28.75215" lon="99.864973">
<time>2015-08-06T07:59:19Z</time></trkpt>
<trkpt lat="28.752" lon="99.864883">
<time>2015-08-06T07:59:20Z</time></trkpt>
<trkpt lat="28.75186" lon="99.864773">
<time>2015-08-06T07:59:21Z</time></trkpt>
<trkpt lat="28.75173" lon="99.864663">
<time>2015-08-06T07:59:22Z</time></trkpt>
<trkpt lat="28.75161" lon="99.864552">
<time>2015-08-06T07:59:23Z</time></trkpt>
<trkpt lat="28.75151" lon="99.864462">
<time>2015-08-06T07:59:24Z</time></trkpt>
<trkpt lat="28.75142" lon="99.864392">
<time>2015-08-06T07:59:25Z</time></trkpt>
<trkpt lat="28.75136" lon="99.864352">
<time>2015-08-06T07:59:26Z</time></trkpt>
<trkpt lat="28.7513" lon="99.864322">
<time>2015-08-06T07:59:27Z</time></trkpt>
<trkpt lat="28.75123" lon="99.864282">
<time>2015-08-06T07:59:28Z</time></trkpt>
<trkpt lat="28.75116" lon="99.864272">
<time>2015-08-06T07:59:29Z</time></trkpt>
<trkpt lat="28.7511" lon="99.864252">
<time>2015-08-06T07:59:30Z</time></trkpt>
<trkpt lat="28.751" lon="99.864252">
<time>2015-08-06T07:59:31Z</time></trkpt>
<trkpt lat="28.75092" lon="99.864252">
<time>2015-08-06T07:59:32Z</time></trkpt>
<trkpt lat="28.75067" lon="99.864262">
<time>2015-08-06T07:59:33Z</time></trkpt>
<trkpt lat="28.75042" lon="99.864282">
<time>2015-08-06T07:59:34Z</time></trkpt>
<trkpt lat="28.75024" lon="99.864292">
<time>2015-08-06T07:59:35Z</time></trkpt>
<trkpt lat="28.750051" lon="99.864322">
<time>2015-08-06T07:59:36Z</time></trkpt>
<trkpt lat="28.750041" lon="99.864322">
<time>2015-08-06T07:59:37Z</time></trkpt>
<trkpt lat="28.749961" lon="99.864332">
<time>2015-08-06T07:59:38Z</time></trkpt>
<trkpt lat="28.749891" lon="99.864342">
<time>2015-08-06T07:59:39Z</time></trkpt>
<trkpt lat="28.749771" lon="99.864352">
<time>2015-08-06T07:59:40Z</time></trkpt>
<trkpt lat="28.749651" lon="99.864352">
<time>2015-08-06T07:59:41Z</time></trkpt>
<trkpt lat="28.749521" lon="99.864352">
<time>2015-08-06T07:59:42Z</time></trkpt>
<trkpt lat="28.749281" lon="99.864342">
<time>2015-08-06T07:59:43Z</time></trkpt>
<trkpt lat="28.749111" lon="99.864332">
<time>2015-08-06T07:59:44Z</time></trkpt>
<trkpt lat="28.748971" lon="99.864312">
<time>2015-08-06T07:59:45Z</time></trkpt>
<trkpt lat="28.748841" lon="99.864292">
<time>2015-08-06T07:59:46Z</time></trkpt>
<trkpt lat="28.748751" lon="99.864272">
<time>2015-08-06T07:59:47Z</time></trkpt>
<trkpt lat="28.748591" lon="99.864232">
<time>2015-08-06T07:59:48Z</time></trkpt>
<trkpt lat="28.748281" lon="99.864132">
<time>2015-08-06T07:59:49Z</time></trkpt>
<trkpt lat="28.748041" lon="99.864062">
<time>2015-08-06T07:59:50Z</time></trkpt>
<trkpt lat="28.747852" lon="99.864022">
<time>2015-08-06T07:59:51Z</time></trkpt>
<trkpt lat="28.747742" lon="99.864002">
<time>2015-08-06T07:59:52Z</time></trkpt>
<trkpt lat="28.747702" lon="99.863992">
<time>2015-08-06T07:59:53Z</time></trkpt>
<trkpt lat="28.747662" lon="99.863992">
<time>2015-08-06T07:59:54Z</time></trkpt>
<trkpt lat="28.747632" lon="99.863992">
<time>2015-08-06T07:59:55Z</time></trkpt>
<trkpt lat="28.747592" lon="99.864002">
<time>2015-08-06T07:59:56Z</time></trkpt>
<trkpt lat="28.747562" lon="99.864012">
<time>2015-08-06T07:59:57Z</time></trkpt>
<trkpt lat="28.747532" lon="99.864022">
<time>2015-08-06T07:59:58Z</time></trkpt>
<trkpt lat="28.747452" lon="99.864072">
<time>2015-08-06T07:59:59Z</time></trkpt>
<trkpt lat="28.747362" lon="99.864142">
<time>2015-08-06T08:00:00Z</time></trkpt>
<trkpt lat="28.747282" lon="99.864192">
<time>2015-08-06T08:00:01Z</time></trkpt>
<trkpt lat="28.747222" lon="99.864232">
<time>2015-08-06T08:00:02Z</time></trkpt>
<trkpt lat="28.747152" lon="99.864262">
<time>2015-08-06T08:00:03Z</time></trkpt>
<trkpt lat="28.747132" lon="99.864272">
<time>2015-08-06T08:00:04Z</time></trkpt>
<trkpt lat="28.747102" lon="99.864272">
<time>2015-08-06T08:00:05Z</time></trkpt>
<trkpt lat="28.747052" lon="99.864282">
<time>2015-08-06T08:00:06Z</time></trkpt>
<trkpt lat="28.746992" lon="99.864282">
<time>2015-08-06T08:00:07Z</time></trkpt>
<trkpt lat="28.746883" lon="99.864262">
<time>2015-08-06T08:00:08Z</time></trkpt>
<trkpt lat="28.746773" lon="99.864262">
<time>2015-08-06T08:00:09Z</time></trkpt>
<trkpt lat="28.746663" lon="99.864262">
<time>2015-08-06T08:00:10Z</time></trkpt>
<trkpt lat="28.746483" lon="99.864272">
<time>2015-08-06T08:00:11Z</time></trkpt>
<trkpt lat="28.746323" lon="99.864292">
<time>2015-08-06T08:00:12Z</time></trkpt>
<trkpt lat="28.746233" lon="99.864312">
<time>2015-08-06T08:00:13Z</time></trkpt>
<trkpt lat="28.746083" lon="99.864322">
<time>2015-08-06T08:00:14Z</time></trkpt>
<trkpt lat="28.746003" lon="99.864322">
<time>2015-08-06T08:00:15Z</time></trkpt>
<trkpt lat="28.745963" lon="99.864312">
<time>2015-08-06T08:00:16Z</time></trkpt>
<trkpt lat="28.745893" lon="99.864302">
<time>2015-08-06T08:00:17Z</time></trkpt>
<trkpt lat="28.745823" lon="99.864282">
<time>2015-08-06T08:00:18Z</time></trkpt>
<trkpt lat="28.745593" lon="99.864162">
<time>2015-08-06T08:00:19Z</time></trkpt>
<trkpt lat="28.744933" lon="99.863781">
<time>2015-08-06T08:00:20Z</time></trkpt>
<trkpt lat="28.744573" lon="99.863571">
<time>2015-08-06T08:00:21Z</time></trkpt>
<trkpt lat="28.744343" lon="99.863441">
<time>2015-08-06T08:00:22Z</time></trkpt>
<trkpt lat="28.744213" lon="99.863391">
<time>2015-08-06T08:00:23Z</time></trkpt>
<trkpt lat="28.744133" lon="99.863371">
<time>2015-08-06T08:00:24Z</time></trkpt>
<trkpt lat="28.744063" lon="99.863371">
<time>2015-08-06T08:00:25Z</time></trkpt>
<trkpt lat="28.743863" lon="99.863401">
<time>2015-08-06T08:00:26Z</time></trkpt>
<trkpt lat="28.743633" lon="99.863441">
<time>2015-08-06T08:00:27Z</time></trkpt>
<trkpt lat="28.743484" lon="99.863441">
<time>2015-08-06T08:00:28Z</time></trkpt>
<trkpt lat="28.743234" lon="99.863431">
<time>2015-08-06T08:00:29Z</time></trkpt>
<trkpt lat="28.743004" lon="99.863411">
<time>2015-08-06T08:00:30Z</time></trkpt>
<trkpt lat="28.742714" lon="99.863351">
<time>2015-08-06T08:00:31Z</time></trkpt>
<trkpt lat="28.742584" lon="99.863321">
<time>2015-08-06T08:00:32Z</time></trkpt>
<trkpt lat="28.742444" lon="99.863321">
<time>2015-08-06T08:00:33Z</time></trkpt>
<trkpt lat="28.742334" lon="99.863341">
<time>2015-08-06T08:00:34Z</time></trkpt>
<trkpt lat="28.742124" lon="99.863421">
<time>2015-08-06T08:00:35Z</time></trkpt>
<trkpt lat="28.741935" lon="99.863491">
<time>2015-08-06T08:00:36Z</time></trkpt>
<trkpt lat="28.741835" lon="99.863511">
<time>2015-08-06T08:00:37Z</time></trkpt>
<trkpt lat="28.741715" lon="99.863521">
<time>2015-08-06T08:00:38Z</time></trkpt>
<trkpt lat="28.741485" lon="99.863521">
<time>2015-08-06T08:00:39Z</time></trkpt>
<trkpt lat="28.741235" lon="99.863531">
<time>2015-08-06T08:00:40Z</time></trkpt>
<trkpt lat="28.741005" lon="99.863581">
<time>2015-08-06T08:00:41Z</time></trkpt>
<trkpt lat="28.740586" lon="99.863661">
<time>2015-08-06T08:00:42Z</time></trkpt>
<trkpt lat="28.740386" lon="99.863691">
<time>2015-08-06T08:00:43Z</time></trkpt>
<trkpt lat="28.740286" lon="99.863701">
<time>2015-08-06T08:00:44Z</time></trkpt>
<trkpt lat="28.740186" lon="99.863701">
<time>2015-08-06T08:00:45Z</time></trkpt>
<trkpt lat="28.740056" lon="99.863691">
<time>2015-08-06T08:00:46Z</time></trkpt>
<trkpt lat="28.739706" lon="99.863621">
<time>2015-08-06T08:00:47Z</time></trkpt>
<trkpt lat="28.739286" lon="99.863531">
<time>2015-08-06T08:00:48Z</time></trkpt>
<trkpt lat="28.739027" lon="99.863491">
<time>2015-08-06T08:00:49Z</time></trkpt>
<trkpt lat="28.738867" lon="99.863491">
<time>2015-08-06T08:00:50Z</time></trkpt>
<trkpt lat="28.738707" lon="99.863521">
<time>2015-08-06T08:00:51Z</time></trkpt>
<trkpt lat="28.738557" lon="99.863571">
<time>2015-08-06T08:00:52Z</time></trkpt>
<trkpt lat="28.738427" lon="99.863641">
<time>2015-08-06T08:00:53Z</time></trkpt>
<trkpt lat="28.738307" lon="99.863741">
<time>2015-08-06T08:00:54Z</time></trkpt>
<trkpt lat="28.738257" lon="99.863812">
<time>2015-08-06T08:00:55Z</time></trkpt>
<trkpt lat="28.738198" lon="99.863892">
<time>2015-08-06T08:00:56Z</time></trkpt>
<trkpt lat="28.738058" lon="99.864252">
<time>2015-08-06T08:00:57Z</time></trkpt>
<trkpt lat="28.737988" lon="99.864413">
<time>2015-08-06T08:00:58Z</time></trkpt>
<trkpt lat="28.737929" lon="99.864523">
<time>2015-08-06T08:00:59Z</time></trkpt>
<trkpt lat="28.737839" lon="99.864693">
<time>2015-08-06T08:01:00Z</time></trkpt>
<trkpt lat="28.737779" lon="99.864753">
<time>2015-08-06T08:01:01Z</time></trkpt>
<trkpt lat="28.737729" lon="99.864793">
<time>2015-08-06T08:01:02Z</time></trkpt>
<trkpt lat="28.737689" lon="99.864813">
<time>2015-08-06T08:01:03Z</time></trkpt>
<trkpt lat="28.737659" lon="99.864823">
<time>2015-08-06T08:01:04Z</time></trkpt>
<trkpt lat="28.737639" lon="99.864823">
<time>2015-08-06T08:01:05Z</time></trkpt>
<trkpt lat="28.737609" lon="99.864823">
<time>2015-08-06T08:01:06Z</time></trkpt>
<trkpt lat="28.737579" lon="99.864813">
<time>2015-08-06T08:01:07Z</time></trkpt>
<trkpt lat="28.737529" lon="99.864793">
<time>2015-08-06T08:01:08Z</time></trkpt>
<trkpt lat="28.737449" lon="99.864743">
<time>2015-08-06T08:01:09Z</time></trkpt>
<trkpt lat="28.737329" lon="99.864683">
<time>2015-08-06T08:01:10Z</time></trkpt>
<trkpt lat="28.737239" lon="99.864643">
<time>2015-08-06T08:01:11Z</time></trkpt>
<trkpt lat="28.737159" lon="99.864633">
<time>2015-08-06T08:01:12Z</time></trkpt>
<trkpt lat="28.736989" lon="99.864603">
<time>2015-08-06T08:01:13Z</time></trkpt>
<trkpt lat="28.736919" lon="99.864613">
<time>2015-08-06T08:01:14Z</time></trkpt>
<trkpt lat="28.736839" lon="99.864643">
<time>2015-08-06T08:01:15Z</time></trkpt>
<trkpt lat="28.73676" lon="99.864693">
<time>2015-08-06T08:01:16Z</time></trkpt>
<trkpt lat="28.73669" lon="99.864753">
<time>2015-08-06T08:01:17Z</time></trkpt>
<trkpt lat="28.73656" lon="99.864873">
<time>2015-08-06T08:01:18Z</time></trkpt>
<trkpt lat="28.73644" lon="99.865023">
<time>2015-08-06T08:01:19Z</time></trkpt>
<trkpt lat="28.736181" lon="99.865384">
<time>2015-08-06T08:01:20Z</time></trkpt>
<trkpt lat="28.736071" lon="99.865604">
<time>2015-08-06T08:01:21Z</time></trkpt>
<trkpt lat="28.736041" lon="99.865704">
<time>2015-08-06T08:01:22Z</time></trkpt>
<trkpt lat="28.736032" lon="99.865785">
<time>2015-08-06T08:01:23Z</time></trkpt>
<trkpt lat="28.736012" lon="99.865945">
<time>2015-08-06T08:01:24Z</time></trkpt>
<trkpt lat="28.735992" lon="99.866165">
<time>2015-08-06T08:01:25Z</time></trkpt>
<trkpt lat="28.735963" lon="99.866686">
<time>2015-08-06T08:01:26Z</time></trkpt>
<trkpt lat="28.735943" lon="99.866996">
<time>2015-08-06T08:01:27Z</time></trkpt>
<trkpt lat="28.735903" lon="99.867237">
<time>2015-08-06T08:01:28Z</time></trkpt>
<trkpt lat="28.735874" lon="99.867337">
<time>2015-08-06T08:01:29Z</time></trkpt>
<trkpt lat="28.735834" lon="99.867437">
<time>2015-08-06T08:01:30Z</time></trkpt>
<trkpt lat="28.735674" lon="99.867727">
<time>2015-08-06T08:01:31Z</time></trkpt>
<trkpt lat="28.735485" lon="99.868038">
<time>2015-08-06T08:01:32Z</time></trkpt>
<trkpt lat="28.735285" lon="99.868348">
<time>2015-08-06T08:01:33Z</time></trkpt>
<trkpt lat="28.734926" lon="99.868889">
<time>2015-08-06T08:01:34Z</time></trkpt>
<trkpt lat="28.734866" lon="99.868959">
<time>2015-08-06T08:01:35Z</time></trkpt>
<trkpt lat="28.734786" lon="99.869059">
<time>2015-08-06T08:01:36Z</time></trkpt>
<trkpt lat="28.734637" lon="99.8692">
<time>2015-08-06T08:01:37Z</time></trkpt>
<trkpt lat="28.734497" lon="99.86929">
<time>2015-08-06T08:01:38Z</time></trkpt>
<trkpt lat="28.734347" lon="99.86936">
<time>2015-08-06T08:01:39Z</time></trkpt>
<trkpt lat="28.734277" lon="99.86939">
<time>2015-08-06T08:01:40Z</time></trkpt>
<trkpt lat="28.734197" lon="99.86945">
<time>2015-08-06T08:01:41Z</time></trkpt>
<trkpt lat="28.734167" lon="99.86948">
<time>2015-08-06T08:01:42Z</time></trkpt>
<trkpt lat="28.734137" lon="99.86953">
<time>2015-08-06T08:01:43Z</time></trkpt>
<trkpt lat="28.734038" lon="99.86971">
<time>2015-08-06T08:01:44Z</time></trkpt>
<trkpt lat="28.733928" lon="99.86986">
<time>2015-08-06T08:01:45Z</time></trkpt>
<trkpt lat="28.733848" lon="99.869941">
<time>2015-08-06T08:01:46Z</time></trkpt>
<trkpt lat="28.733708" lon="99.870081">
<time>2015-08-06T08:01:47Z</time></trkpt>
<trkpt lat="28.733668" lon="99.870131">
<time>2015-08-06T08:01:48Z</time></trkpt>
<trkpt lat="28.733619" lon="99.870191">
<time>2015-08-06T08:01:49Z</time></trkpt>
<trkpt lat="28.733559" lon="99.870301">
<time>2015-08-06T08:01:50Z</time></trkpt>
<trkpt lat="28.733499" lon="99.870471">
<time>2015-08-06T08:01:51Z</time></trkpt>
<trkpt lat="28.733469" lon="99.870611">
<time>2015-08-06T08:01:52Z</time></trkpt>
<trkpt lat="28.733439" lon="99.870772">
<time>2015-08-06T08:01:53Z</time></trkpt>
<trkpt lat="28.7334" lon="99.871102">
<time>2015-08-06T08:01:54Z</time></trkpt>
<trkpt lat="28.73338" lon="99.871222">
<time>2015-08-06T08:01:55Z</time></trkpt>
<trkpt lat="28.73334" lon="99.871352">
<time>2015-08-06T08:01:56Z</time></trkpt>
<trkpt lat="28.73327" lon="99.871483">
<time>2015-08-06T08:01:57Z</time></trkpt>
<trkpt lat="28.73316" lon="99.871613">
<time>2015-08-06T08:01:58Z</time></trkpt>
<trkpt lat="28.733111" lon="99.871683">
<time>2015-08-06T08:01:59Z</time></trkpt>
<trkpt lat="28.733051" lon="99.871793">
<time>2015-08-06T08:02:00Z</time></trkpt>
<trkpt lat="28.733021" lon="99.871903">
<time>2015-08-06T08:02:01Z</time></trkpt>
<trkpt lat="28.733021" lon="99.871993">
<time>2015-08-06T08:02:02Z</time></trkpt>
<trkpt lat="28.733031" lon="99.872083">
<time>2015-08-06T08:02:03Z</time></trkpt>
<trkpt lat="28.733061" lon="99.872173">
<time>2015-08-06T08:02:04Z</time></trkpt>
<trkpt lat="28.733091" lon="99.872294">
<time>2015-08-06T08:02:05Z</time></trkpt>
<trkpt lat="28.733151" lon="99.872464">
<time>2015-08-06T08:02:06Z</time></trkpt>
<trkpt lat="28.733172" lon="99.872574">
<time>2015-08-06T08:02:07Z</time></trkpt>
<trkpt lat="28.733182" lon="99.872724">
<time>2015-08-06T08:02:08Z</time></trkpt>
<trkpt lat="28.733192" lon="99.872814">
<time>2015-08-06T08:02:09Z</time></trkpt>
<trkpt lat="28.733202" lon="99.872944">
<time>2015-08-06T08:02:10Z</time></trkpt>
<trkpt lat="28.733242" lon="99.873205">
<time>2015-08-06T08:02:11Z</time></trkpt>
<trkpt lat="28.733343" lon="99.873906">
<time>2015-08-06T08:02:12Z</time></trkpt>
<trkpt lat="28.733363" lon="99.874026">
<time>2015-08-06T08:02:13Z</time></trkpt>
<trkpt lat="28.733363" lon="99.874126">
<time>2015-08-06T08:02:14Z</time></trkpt>
<trkpt lat="28.733353" lon="99.874276">
<time>2015-08-06T08:02:15Z</time></trkpt>
<trkpt lat="28.733303" lon="99.874466">
<time>2015-08-06T08:02:16Z</time></trkpt>
<trkpt lat="28.733244" lon="99.874636">
<time>2015-08-06T08:02:17Z</time></trkpt>
<trkpt lat="28.733184" lon="99.874717">
<time>2015-08-06T08:02:18Z</time></trkpt>
<trkpt lat="28.733144" lon="99.874747">
<time>2015-08-06T08:02:19Z</time></trkpt>
<trkpt lat="28.733084" lon="99.874757">
<time>2015-08-06T08:02:20Z</time></trkpt>
<trkpt lat="28.733064" lon="99.874757">
<time>2015-08-06T08:02:21Z</time></trkpt>
<trkpt lat="28.733034" lon="99.874757">
<time>2015-08-06T08:02:22Z</time></trkpt>
<trkpt lat="28.732834" lon="99.874677">
<time>2015-08-06T08:02:23Z</time></trkpt>
<trkpt lat="28.732754" lon="99.874626">
<time>2015-08-06T08:02:24Z</time></trkpt>
<trkpt lat="28.732694" lon="99.874556">
<time>2015-08-06T08:02:25Z</time></trkpt>
<trkpt lat="28.732644" lon="99.874466">
<time>2015-08-06T08:02:26Z</time></trkpt>
<trkpt lat="28.732644" lon="99.874386">
<time>2015-08-06T08:02:27Z</time></trkpt>
<trkpt lat="28.732674" lon="99.874266">
<time>2015-08-06T08:02:28Z</time></trkpt>
<trkpt lat="28.732723" lon="99.874086">
<time>2015-08-06T08:02:29Z</time></trkpt>
<trkpt lat="28.732803" lon="99.873826">
<time>2015-08-06T08:02:30Z</time></trkpt>
<trkpt lat="28.732813" lon="99.873755">
<time>2015-08-06T08:02:31Z</time></trkpt>
<trkpt lat="28.732823" lon="99.873705">
<time>2015-08-06T08:02:32Z</time></trkpt>
<trkpt lat="28.732833" lon="99.873645">
<time>2015-08-06T08:02:33Z</time></trkpt>
<trkpt lat="28.732823" lon="99.873565">
<time>2015-08-06T08:02:34Z</time></trkpt>
<trkpt lat="28.732783" lon="99.873395">
<time>2015-08-06T08:02:35Z</time></trkpt>
<trkpt lat="28.732582" lon="99.872764">
<time>2015-08-06T08:02:36Z</time></trkpt>
<trkpt lat="28.732492" lon="99.872544">
<time>2015-08-06T08:02:37Z</time></trkpt>
<trkpt lat="28.732462" lon="99.872464">
<time>2015-08-06T08:02:38Z</time></trkpt>
<trkpt lat="28.732432" lon="99.872354">
<time>2015-08-06T08:02:39Z</time></trkpt>
<trkpt lat="28.732432" lon="99.872254">
<time>2015-08-06T08:02:40Z</time></trkpt>
<trkpt lat="28.732441" lon="99.872103">
<time>2015-08-06T08:02:41Z</time></trkpt>
<trkpt lat="28.732471" lon="99.871793">
<time>2015-08-06T08:02:42Z</time></trkpt>
<trkpt lat="28.732481" lon="99.871703">
<time>2015-08-06T08:02:43Z</time></trkpt>
<trkpt lat="28.732501" lon="99.871613">
<time>2015-08-06T08:02:44Z</time></trkpt>
<trkpt lat="28.732541" lon="99.871513">
<time>2015-08-06T08:02:45Z</time></trkpt>
<trkpt lat="28.73265" lon="99.871292">
<time>2015-08-06T08:02:46Z</time></trkpt>
<trkpt lat="28.7327" lon="99.871182">
<time>2015-08-06T08:02:47Z</time></trkpt>
<trkpt lat="28.73278" lon="99.870942">
<time>2015-08-06T08:02:48Z</time></trkpt>
<trkpt lat="28.73282" lon="99.870752">
<time>2015-08-06T08:02:49Z</time></trkpt>
<trkpt lat="28.732849" lon="99.870431">
<time>2015-08-06T08:02:50Z</time></trkpt>
<trkpt lat="28.732879" lon="99.870181">
<time>2015-08-06T08:02:51Z</time></trkpt>
<trkpt lat="28.732919" lon="99.870051">
<time>2015-08-06T08:02:52Z</time></trkpt>
<trkpt lat="28.732999" lon="99.86986">
<time>2015-08-06T08:02:53Z</time></trkpt>
<trkpt lat="28.733168" lon="99.86953">
<time>2015-08-06T08:02:54Z</time></trkpt>
<trkpt lat="28.733218" lon="99.86943">
<time>2015-08-06T08:02:55Z</time></trkpt>
<trkpt lat="28.733298" lon="99.8693">
<time>2015-08-06T08:02:56Z</time></trkpt>
<trkpt lat="28.733637" lon="99.868839">
<time>2015-08-06T08:02:57Z</time></trkpt>
<trkpt lat="28.733757" lon="99.868649">
<time>2015-08-06T08:02:58Z</time></trkpt>
<trkpt lat="28.733787" lon="99.868599">
<time>2015-08-06T08:02:59Z</time></trkpt>
<trkpt lat="28.733806" lon="99.868559">
<time>2015-08-06T08:03:00Z</time></trkpt>
<trkpt lat="28.733826" lon="99.868499">
<time>2015-08-06T08:03:01Z</time></trkpt>
<trkpt lat="28.733846" lon="99.868408">
<time>2015-08-06T08:03:02Z</time></trkpt>
<trkpt lat="28.733836" lon="99.868288">
<time>2015-08-06T08:03:03Z</time></trkpt>
<trkpt lat="28.733806" lon="99.868148">
<time>2015-08-06T08:03:04Z</time></trkpt>
<trkpt lat="28.733786" lon="99.868028">
<time>2015-08-06T08:03:05Z</time></trkpt>
<trkpt lat="28.733776" lon="99.867848">
<time>2015-08-06T08:03:06Z</time></trkpt>
<trkpt lat="28.733775" lon="99.867737">
<time>2015-08-06T08:03:07Z</time></trkpt>
<trkpt lat="28.733815" lon="99.867587">
<time>2015-08-06T08:03:08Z</time></trkpt>
<trkpt lat="28.733855" lon="99.867447">
<time>2015-08-06T08:03:09Z</time></trkpt>
<trkpt lat="28.733995" lon="99.867177">
<time>2015-08-06T08:03:10Z</time></trkpt>
<trkpt lat="28.734044" lon="99.867057">
<time>2015-08-06T08:03:11Z</time></trkpt>
<trkpt lat="28.734084" lon="99.866926">
<time>2015-08-06T08:03:12Z</time></trkpt>
<trkpt lat="28.734104" lon="99.866816">
<time>2015-08-06T08:03:13Z</time></trkpt>
<trkpt lat="28.734124" lon="99.866676">
<time>2015-08-06T08:03:14Z</time></trkpt>
<trkpt lat="28.734124" lon="99.866506">
<time>2015-08-06T08:03:15Z</time></trkpt>
<trkpt lat="28.734123" lon="99.866335">
<time>2015-08-06T08:03:16Z</time></trkpt>
<trkpt lat="28.734153" lon="99.865955">
<time>2015-08-06T08:03:17Z</time></trkpt>
<trkpt lat="28.734173" lon="99.865865">
<time>2015-08-06T08:03:18Z</time></trkpt>
<trkpt lat="28.734213" lon="99.865755">
<time>2015-08-06T08:03:19Z</time></trkpt>
<trkpt lat="28.734312" lon="99.865594">
<time>2015-08-06T08:03:20Z</time></trkpt>
<trkpt lat="28.734362" lon="99.865504">
<time>2015-08-06T08:03:21Z</time></trkpt>
<trkpt lat="28.734382" lon="99.865454">
<time>2015-08-06T08:03:22Z</time></trkpt>
<trkpt lat="28.734372" lon="99.865384">
<time>2015-08-06T08:03:23Z</time></trkpt>
<trkpt lat="28.734342" lon="99.865254">
<time>2015-08-06T08:03:24Z</time></trkpt>
<trkpt lat="28.734312" lon="99.865114">
<time>2015-08-06T08:03:25Z</time></trkpt>
<trkpt lat="28.734292" lon="99.865024">
<time>2015-08-06T08:03:26Z</time></trkpt>
<trkpt lat="28.734231" lon="99.864863">
<time>2015-08-06T08:03:27Z</time></trkpt>
<trkpt lat="28.734191" lon="99.864743">
<time>2015-08-06T08:03:28Z</time></trkpt>
<trkpt lat="28.734151" lon="99.864593">
<time>2015-08-06T08:03:29Z</time></trkpt>
<trkpt lat="28.734141" lon="99.864453">
<time>2015-08-06T08:03:30Z</time></trkpt>
<trkpt lat="28.734121" lon="99.864363">
<time>2015-08-06T08:03:31Z</time></trkpt>
<trkpt lat="28.734101" lon="99.864302">
<time>2015-08-06T08:03:32Z</time></trkpt>
<trkpt lat="28.734061" lon="99.864222">
<time>2015-08-06T08:03:33Z</time></trkpt>
<trkpt lat="28.734011" lon="99.864152">
<time>2015-08-06T08:03:34Z</time></trkpt>
<trkpt lat="28.733941" lon="99.864102">
<time>2015-08-06T08:03:35Z</time></trkpt>
<trkpt lat="28.733871" lon="99.864052">
<time>2015-08-06T08:03:36Z</time></trkpt>
<trkpt lat="28.733721" lon="99.863982">
<time>2015-08-06T08:03:37Z</time></trkpt>
<trkpt lat="28.73334" lon="99.863732">
<time>2015-08-06T08:03:38Z</time></trkpt>
<trkpt lat="28.73315" lon="99.863611">
<time>2015-08-06T08:03:39Z</time></trkpt>
<trkpt lat="28.73303" lon="99.863511">
<time>2015-08-06T08:03:40Z</time></trkpt>
<trkpt lat="28.73283" lon="99.863331">
<time>2015-08-06T08:03:41Z</time></trkpt>
<trkpt lat="28.73256" lon="99.863151">
<time>2015-08-06T08:03:42Z</time></trkpt>
<trkpt lat="28.73245" lon="99.863071">
<time>2015-08-06T08:03:43Z</time></trkpt>
<trkpt lat="28.73238" lon="99.86301">
<time>2015-08-06T08:03:44Z</time></trkpt>
<trkpt lat="28.73227" lon="99.86289">
<time>2015-08-06T08:03:45Z</time></trkpt>
<trkpt lat="28.73218" lon="99.86279">
<time>2015-08-06T08:03:46Z</time></trkpt>
<trkpt lat="28.73211" lon="99.8627">
<time>2015-08-06T08:03:47Z</time></trkpt>
<trkpt lat="28.73196" lon="99.86246">
<time>2015-08-06T08:03:48Z</time></trkpt>
<trkpt lat="28.731889" lon="99.862369">
<time>2015-08-06T08:03:49Z</time></trkpt>
<trkpt lat="28.731559" lon="99.861979">
<time>2015-08-06T08:03:50Z</time></trkpt>
<trkpt lat="28.731379" lon="99.861799">
<time>2015-08-06T08:03:51Z</time></trkpt>
<trkpt lat="28.731199" lon="99.861658">
<time>2015-08-06T08:03:52Z</time></trkpt>
<trkpt lat="28.731069" lon="99.861598">
<time>2015-08-06T08:03:53Z</time></trkpt>
<trkpt lat="28.730939" lon="99.861568">
<time>2015-08-06T08:03:54Z</time></trkpt>
<trkpt lat="28.730839" lon="99.861558">
<time>2015-08-06T08:03:55Z</time></trkpt>
<trkpt lat="28.730779" lon="99.861528">
<time>2015-08-06T08:03:56Z</time></trkpt>
<trkpt lat="28.730759" lon="99.861518">
<time>2015-08-06T08:03:57Z</time></trkpt>
<trkpt lat="28.730739" lon="99.861498">
<time>2015-08-06T08:03:58Z</time></trkpt>
<trkpt lat="28.730719" lon="99.861478">
<time>2015-08-06T08:03:59Z</time></trkpt>
<trkpt lat="28.730709" lon="99.861438">
<time>2015-08-06T08:04:00Z</time></trkpt>
<trkpt lat="28.730709" lon="99.861398">
<time>2015-08-06T08:04:01Z</time></trkpt>
<trkpt lat="28.730729" lon="99.861338">
<time>2015-08-06T08:04:02Z</time></trkpt>
<trkpt lat="28.730779" lon="99.861298">
<time>2015-08-06T08:04:03Z</time></trkpt>
<trkpt lat="28.730829" lon="99.861258">
<time>2015-08-06T08:04:04Z</time></trkpt>
<trkpt lat="28.730889" lon="99.861228">
<time>2015-08-06T08:04:05Z</time></trkpt>
<trkpt lat="28.730968" lon="99.861198">
<time>2015-08-06T08:04:06Z</time></trkpt>
<trkpt lat="28.731218" lon="99.861158">
<time>2015-08-06T08:04:07Z</time></trkpt>
<trkpt lat="28.731278" lon="99.861138">
<time>2015-08-06T08:04:08Z</time></trkpt>
<trkpt lat="28.731338" lon="99.861128">
<time>2015-08-06T08:04:09Z</time></trkpt>
<trkpt lat="28.731538" lon="99.861037">
<time>2015-08-06T08:04:10Z</time></trkpt>
<trkpt lat="28.731757" lon="99.860907">
<time>2015-08-06T08:04:11Z</time></trkpt>
<trkpt lat="28.731867" lon="99.860867">
<time>2015-08-06T08:04:12Z</time></trkpt>
<trkpt lat="28.731937" lon="99.860857">
<time>2015-08-06T08:04:13Z</time></trkpt>
<trkpt lat="28.732017" lon="99.860847">
<time>2015-08-06T08:04:14Z</time></trkpt>
<trkpt lat="28.732247" lon="99.860847">
<time>2015-08-06T08:04:15Z</time></trkpt>
<trkpt lat="28.732397" lon="99.860847">
<time>2015-08-06T08:04:16Z</time></trkpt>
<trkpt lat="28.732507" lon="99.860827">
<time>2015-08-06T08:04:17Z</time></trkpt>
<trkpt lat="28.732687" lon="99.860807">
<time>2015-08-06T08:04:18Z</time></trkpt>
<trkpt lat="28.732767" lon="99.860807">
<time>2015-08-06T08:04:19Z</time></trkpt>
<trkpt lat="28.733017" lon="99.860867">
<time>2015-08-06T08:04:20Z</time></trkpt>
<trkpt lat="28.733057" lon="99.860867">
<time>2015-08-06T08:04:21Z</time></trkpt>
<trkpt lat="28.733087" lon="99.860867">
<time>2015-08-06T08:04:22Z</time></trkpt>
<trkpt lat="28.733137" lon="99.860857">
<time>2015-08-06T08:04:23Z</time></trkpt>
<trkpt lat="28.733306" lon="99.860817">
<time>2015-08-06T08:04:24Z</time></trkpt>
<trkpt lat="28.733636" lon="99.860717">
<time>2015-08-06T08:04:25Z</time></trkpt>
<trkpt lat="28.733706" lon="99.860697">
<time>2015-08-06T08:04:26Z</time></trkpt>
<trkpt lat="28.733756" lon="99.860667">
<time>2015-08-06T08:04:27Z</time></trkpt>
<trkpt lat="28.733836" lon="99.860617">
<time>2015-08-06T08:04:28Z</time></trkpt>
<trkpt lat="28.733886" lon="99.860567">
<time>2015-08-06T08:04:29Z</time></trkpt>
<trkpt lat="28.733916" lon="99.860526">
<time>2015-08-06T08:04:30Z</time></trkpt>
<trkpt lat="28.733955" lon="99.860466">
<time>2015-08-06T08:04:31Z</time></trkpt>
<trkpt lat="28.733995" lon="99.860386">
<time>2015-08-06T08:04:32Z</time></trkpt>
<trkpt lat="28.734055" lon="99.860236">
<time>2015-08-06T08:04:33Z</time></trkpt>
<trkpt lat="28.734115" lon="99.860046">
<time>2015-08-06T08:04:34Z</time></trkpt>
<trkpt lat="28.734234" lon="99.859655">
<time>2015-08-06T08:04:35Z</time></trkpt>
<trkpt lat="28.734294" lon="99.859445">
<time>2015-08-06T08:04:36Z</time></trkpt>
<trkpt lat="28.734344" lon="99.859334">
<time>2015-08-06T08:04:37Z</time></trkpt>
<trkpt lat="28.734403" lon="99.859224">
<time>2015-08-06T08:04:38Z</time></trkpt>
<trkpt lat="28.734603" lon="99.858914">
<time>2015-08-06T08:04:39Z</time></trkpt>
<trkpt lat="28.734673" lon="99.858774">
<time>2015-08-06T08:04:40Z</time></trkpt>
<trkpt lat="28.734842" lon="99.858373">
<time>2015-08-06T08:04:41Z</time></trkpt>
<trkpt lat="28.734931" lon="99.858183">
<time>2015-08-06T08:04:42Z</time></trkpt>
<trkpt lat="28.735051" lon="99.857972">
<time>2015-08-06T08:04:43Z</time></trkpt>
<trkpt lat="28.735181" lon="99.857792">
<time>2015-08-06T08:04:44Z</time></trkpt>
<trkpt lat="28.73528" lon="99.857662">
<time>2015-08-06T08:04:45Z</time></trkpt>
<trkpt lat="28.73542" lon="99.857531">
<time>2015-08-06T08:04:46Z</time></trkpt>
<trkpt lat="28.73572" lon="99.857281">
<time>2015-08-06T08:04:47Z</time></trkpt>
<trkpt lat="28.735989" lon="99.857">
<time>2015-08-06T08:04:48Z</time></trkpt>
<trkpt lat="28.736089" lon="99.8569">
<time>2015-08-06T08:04:49Z</time></trkpt>
<trkpt lat="28.736169" lon="99.8568">
<time>2015-08-06T08:04:50Z</time></trkpt>
<trkpt lat="28.736208" lon="99.85672">
<time>2015-08-06T08:04:51Z</time></trkpt>
<trkpt lat="28.736268" lon="99.85654">
<time>2015-08-06T08:04:52Z</time></trkpt>
<trkpt lat="28.736328" lon="99.856239">
<time>2015-08-06T08:04:53Z</time></trkpt>
<trkpt lat="28.736387" lon="99.855959">
<time>2015-08-06T08:04:54Z</time></trkpt>
<trkpt lat="28.736427" lon="99.855768">
<time>2015-08-06T08:04:55Z</time></trkpt>
<trkpt lat="28.736456" lon="99.855548">
<time>2015-08-06T08:04:56Z</time></trkpt>
<trkpt lat="28.736496" lon="99.855418">
<time>2015-08-06T08:04:57Z</time></trkpt>
<trkpt lat="28.736536" lon="99.855297">
<time>2015-08-06T08:04:58Z</time></trkpt>
<trkpt lat="28.736655" lon="99.855017">
<time>2015-08-06T08:04:59Z</time></trkpt>
<trkpt lat="28.736815" lon="99.854646">
<time>2015-08-06T08:05:00Z</time></trkpt>
<trkpt lat="28.736875" lon="99.854526">
<time>2015-08-06T08:05:01Z</time></trkpt>
<trkpt lat="28.736914" lon="99.854416">
<time>2015-08-06T08:05:02Z</time></trkpt>
<trkpt lat="28.736934" lon="99.854326">
<time>2015-08-06T08:05:03Z</time></trkpt>
<trkpt lat="28.736934" lon="99.854165">
<time>2015-08-06T08:05:04Z</time></trkpt>
<trkpt lat="28.736954" lon="99.854065">
<time>2015-08-06T08:05:05Z</time></trkpt>
<trkpt lat="28.737004" lon="99.853965">
<time>2015-08-06T08:05:06Z</time></trkpt>
<trkpt lat="28.737093" lon="99.853855">
<time>2015-08-06T08:05:07Z</time></trkpt>
<trkpt lat="28.737183" lon="99.853755">
<time>2015-08-06T08:05:08Z</time></trkpt>
<trkpt lat="28.737223" lon="99.853705">
<time>2015-08-06T08:05:09Z</time></trkpt>
<trkpt lat="28.737233" lon="99.853665">
<time>2015-08-06T08:05:10Z</time></trkpt>
<trkpt lat="28.737243" lon="99.853614">
<time>2015-08-06T08:05:11Z</time></trkpt>
<trkpt lat="28.737253" lon="99.853564">
<time>2015-08-06T08:05:12Z</time></trkpt>
<trkpt lat="28.737242" lon="99.853324">
<time>2015-08-06T08:05:13Z</time></trkpt>
<trkpt lat="28.737262" lon="99.853214">
<time>2015-08-06T08:05:14Z</time></trkpt>
<trkpt lat="28.737302" lon="99.853114">
<time>2015-08-06T08:05:15Z</time></trkpt>
<trkpt lat="28.737342" lon="99.853043">
<time>2015-08-06T08:05:16Z</time></trkpt>
<trkpt lat="28.737372" lon="99.852963">
<time>2015-08-06T08:05:17Z</time></trkpt>
<trkpt lat="28.737382" lon="99.852923">
<time>2015-08-06T08:05:18Z</time></trkpt>
<trkpt lat="28.737382" lon="99.852883">
<time>2015-08-06T08:05:19Z</time></trkpt>
<trkpt lat="28.737301" lon="99.852382">
<time>2015-08-06T08:05:20Z</time></trkpt>
<trkpt lat="28.73724" lon="99.852102">
<time>2015-08-06T08:05:21Z</time></trkpt>
<trkpt lat="28.73719" lon="99.851831">
<time>2015-08-06T08:05:22Z</time></trkpt>
<trkpt lat="28.737009" lon="99.85118">
<time>2015-08-06T08:05:23Z</time></trkpt>
<trkpt lat="28.736989" lon="99.85108">
<time>2015-08-06T08:05:24Z</time></trkpt>
<trkpt lat="28.736979" lon="99.851">
<time>2015-08-06T08:05:25Z</time></trkpt>
<trkpt lat="28.736989" lon="99.85093">
<time>2015-08-06T08:05:26Z</time></trkpt>
<trkpt lat="28.737009" lon="99.850879">
<time>2015-08-06T08:05:27Z</time></trkpt>
<trkpt lat="28.737048" lon="99.850839">
<time>2015-08-06T08:05:28Z</time></trkpt>
<trkpt lat="28.737098" lon="99.850809">
<time>2015-08-06T08:05:29Z</time></trkpt>
<trkpt lat="28.737158" lon="99.850809">
<time>2015-08-06T08:05:30Z</time></trkpt>
<trkpt lat="28.737208" lon="99.850819">
<time>2015-08-06T08:05:31Z</time></trkpt>
<trkpt lat="28.737278" lon="99.850859">
<time>2015-08-06T08:05:32Z</time></trkpt>
<trkpt lat="28.737378" lon="99.85095">
<time>2015-08-06T08:05:33Z</time></trkpt>
<trkpt lat="28.737559" lon="99.85111">
<time>2015-08-06T08:05:34Z</time></trkpt>
<trkpt lat="28.737749" lon="99.85125">
<time>2015-08-06T08:05:35Z</time></trkpt>
<trkpt lat="28.737929" lon="99.85139">
<time>2015-08-06T08:05:36Z</time></trkpt>
<trkpt lat="28.738029" lon="99.85147">
<time>2015-08-06T08:05:37Z</time></trkpt>
<trkpt lat="28.738089" lon="99.851501">
<time>2015-08-06T08:05:38Z</time></trkpt>
<trkpt lat="28.738139" lon="99.851521">
<time>2015-08-06T08:05:39Z</time></trkpt>
<trkpt lat="28.738209" lon="99.851531">
<time>2015-08-06T08:05:40Z</time></trkpt>
<trkpt lat="28.738319" lon="99.851541">
<time>2015-08-06T08:05:41Z</time></trkpt>
<trkpt lat="28.738399" lon="99.851561">
<time>2015-08-06T08:05:42Z</time></trkpt>
<trkpt lat="28.738479" lon="99.851601">
<time>2015-08-06T08:05:43Z</time></trkpt>
<trkpt lat="28.738539" lon="99.851661">
<time>2015-08-06T08:05:44Z</time></trkpt>
<trkpt lat="28.738579" lon="99.851711">
<time>2015-08-06T08:05:45Z</time></trkpt>
<trkpt lat="28.738609" lon="99.851781">
<time>2015-08-06T08:05:46Z</time></trkpt>
<trkpt lat="28.738669" lon="99.851931">
<time>2015-08-06T08:05:47Z</time></trkpt>
<trkpt lat="28.738719" lon="99.852112">
<time>2015-08-06T08:05:48Z</time></trkpt>
<trkpt lat="28.73876" lon="99.852222">
<time>2015-08-06T08:05:49Z</time></trkpt>
<trkpt lat="28.73878" lon="99.852262">
<time>2015-08-06T08:05:50Z</time></trkpt>
<trkpt lat="28.73881" lon="99.852302">
<time>2015-08-06T08:05:51Z</time></trkpt>
<trkpt lat="28.73885" lon="99.852342">
<time>2015-08-06T08:05:52Z</time></trkpt>
<trkpt lat="28.73896" lon="99.852412">
<time>2015-08-06T08:05:53Z</time></trkpt>
<trkpt lat="28.73902" lon="99.852442">
<time>2015-08-06T08:05:54Z</time></trkpt>
<trkpt lat="28.73906" lon="99.852472">
<time>2015-08-06T08:05:55Z</time></trkpt>
<trkpt lat="28.7391" lon="99.852522">
<time>2015-08-06T08:05:56Z</time></trkpt>
<trkpt lat="28.73912" lon="99.852572">
<time>2015-08-06T08:05:57Z</time></trkpt>
<trkpt lat="28.73913" lon="99.852633">
<time>2015-08-06T08:05:58Z</time></trkpt>
<trkpt lat="28.73913" lon="99.852683">
<time>2015-08-06T08:05:59Z</time></trkpt>
<trkpt lat="28.739101" lon="99.852903">
<time>2015-08-06T08:06:00Z</time></trkpt>
<trkpt lat="28.739091" lon="99.853083">
<time>2015-08-06T08:06:01Z</time></trkpt>
<trkpt lat="28.739111" lon="99.853164">
<time>2015-08-06T08:06:02Z</time></trkpt>
<trkpt lat="28.739131" lon="99.853214">
<time>2015-08-06T08:06:03Z</time></trkpt>
<trkpt lat="28.739171" lon="99.853284">
<time>2015-08-06T08:06:04Z</time></trkpt>
<trkpt lat="28.739201" lon="99.853334">
<time>2015-08-06T08:06:05Z</time></trkpt>
<trkpt lat="28.739301" lon="99.853504">
<time>2015-08-06T08:06:06Z</time></trkpt>
<trkpt lat="28.739352" lon="99.853634">
<time>2015-08-06T08:06:07Z</time></trkpt>
<trkpt lat="28.739412" lon="99.853835">
<time>2015-08-06T08:06:08Z</time></trkpt>
<trkpt lat="28.739442" lon="99.853965">
<time>2015-08-06T08:06:09Z</time></trkpt>
<trkpt lat="28.739512" lon="99.854225">
<time>2015-08-06T08:06:10Z</time></trkpt>
<trkpt lat="28.739553" lon="99.854326">
<time>2015-08-06T08:06:11Z</time></trkpt>
<trkpt lat="28.739583" lon="99.854386">
<time>2015-08-06T08:06:12Z</time></trkpt>
<trkpt lat="28.739653" lon="99.854526">
<time>2015-08-06T08:06:13Z</time></trkpt>
<trkpt lat="28.739733" lon="99.854636">
<time>2015-08-06T08:06:14Z</time></trkpt>
<trkpt lat="28.739843" lon="99.854766">
<time>2015-08-06T08:06:15Z</time></trkpt>
<trkpt lat="28.739893" lon="99.854817">
<time>2015-08-06T08:06:16Z</time></trkpt>
<trkpt lat="28.739933" lon="99.854847">
<time>2015-08-06T08:06:17Z</time></trkpt>
<trkpt lat="28.740013" lon="99.854867">
<time>2015-08-06T08:06:18Z</time></trkpt>
<trkpt lat="28.740063" lon="99.854867">
<time>2015-08-06T08:06:19Z</time></trkpt>
<trkpt lat="28.740093" lon="99.854867">
<time>2015-08-06T08:06:20Z</time></trkpt>
<trkpt lat="28.740313" lon="99.854786">
<time>2015-08-06T08:06:21Z</time></trkpt>
<trkpt lat="28.740443" lon="99.854756">
<time>2015-08-06T08:06:22Z</time></trkpt>
<trkpt lat="28.740582" lon="99.854726">
<time>2015-08-06T08:06:23Z</time></trkpt>
<trkpt lat="28.740952" lon="99.854676">
<time>2015-08-06T08:06:24Z</time></trkpt>
<trkpt lat="28.741142" lon="99.854656">
<time>2015-08-06T08:06:25Z</time></trkpt>
<trkpt lat="28.741252" lon="99.854656">
<time>2015-08-06T08:06:26Z</time></trkpt>
<trkpt lat="28.741462" lon="99.854676">
<time>2015-08-06T08:06:27Z</time></trkpt>
<trkpt lat="28.741542" lon="99.854676">
<time>2015-08-06T08:06:28Z</time></trkpt>
<trkpt lat="28.741652" lon="99.854666">
<time>2015-08-06T08:06:29Z</time></trkpt>
<trkpt lat="28.741732" lon="99.854646">
<time>2015-08-06T08:06:30Z</time></trkpt>
<trkpt lat="28.741871" lon="99.854596">
<time>2015-08-06T08:06:31Z</time></trkpt>
<trkpt lat="28.741981" lon="99.854556">
<time>2015-08-06T08:06:32Z</time></trkpt>
<trkpt lat="28.742111" lon="99.854526">
<time>2015-08-06T08:06:33Z</time></trkpt>
<trkpt lat="28.742231" lon="99.854506">
<time>2015-08-06T08:06:34Z</time></trkpt>
<trkpt lat="28.742341" lon="99.854496">
<time>2015-08-06T08:06:35Z</time></trkpt>
<trkpt lat="28.742681" lon="99.854536">
<time>2015-08-06T08:06:36Z</time></trkpt>
<trkpt lat="28.742871" lon="99.854606">
<time>2015-08-06T08:06:37Z</time></trkpt>
<trkpt lat="28.743001" lon="99.854656">
<time>2015-08-06T08:06:38Z</time></trkpt>
<trkpt lat="28.743251" lon="99.854746">
<time>2015-08-06T08:06:39Z</time></trkpt>
<trkpt lat="28.743511" lon="99.854847">
<time>2015-08-06T08:06:40Z</time></trkpt>
<trkpt lat="28.743661" lon="99.854887">
<time>2015-08-06T08:06:41Z</time></trkpt>
<trkpt lat="28.743791" lon="99.854917">
<time>2015-08-06T08:06:42Z</time></trkpt>
<trkpt lat="28.743931" lon="99.854967">
<time>2015-08-06T08:06:43Z</time></trkpt>
<trkpt lat="28.744091" lon="99.855057">
<time>2015-08-06T08:06:44Z</time></trkpt>
<trkpt lat="28.744171" lon="99.855117">
<time>2015-08-06T08:06:45Z</time></trkpt>
<trkpt lat="28.744271" lon="99.855187">
<time>2015-08-06T08:06:46Z</time></trkpt>
<trkpt lat="28.744331" lon="99.855217">
<time>2015-08-06T08:06:47Z</time></trkpt>
<trkpt lat="28.744441" lon="99.855277">
<time>2015-08-06T08:06:48Z</time></trkpt>
<trkpt lat="28.744541" lon="99.855327">
<time>2015-08-06T08:06:49Z</time></trkpt>
<trkpt lat="28.744661" lon="99.855367">
<time>2015-08-06T08:06:50Z</time></trkpt>
<trkpt lat="28.744821" lon="99.855397">
<time>2015-08-06T08:06:51Z</time></trkpt>
<trkpt lat="28.744981" lon="99.855438">
<time>2015-08-06T08:06:52Z</time></trkpt>
<trkpt lat="28.745121" lon="99.855468">
<time>2015-08-06T08:06:53Z</time></trkpt>
<trkpt lat="28.745281" lon="99.855528">
<time>2015-08-06T08:06:54Z</time></trkpt>
<trkpt lat="28.745531" lon="99.855618">
<time>2015-08-06T08:06:55Z</time></trkpt>
<trkpt lat="28.745741" lon="99.855688">
<time>2015-08-06T08:06:56Z</time></trkpt>
<trkpt lat="28.746151" lon="99.855808">
<time>2015-08-06T08:06:57Z</time></trkpt>
<trkpt lat="28.746371" lon="99.855868">
<time>2015-08-06T08:06:58Z</time></trkpt>
<trkpt lat="28.74653" lon="99.855888">
<time>2015-08-06T08:06:59Z</time></trkpt>
<trkpt lat="28.74672" lon="99.855878">
<time>2015-08-06T08:07:00Z</time></trkpt>
<trkpt lat="28.74685" lon="99.855868">
<time>2015-08-06T08:07:01Z</time></trkpt>
<trkpt lat="28.74703" lon="99.855838">
<time>2015-08-06T08:07:02Z</time></trkpt>
<trkpt lat="28.74711" lon="99.855818">
<time>2015-08-06T08:07:03Z</time></trkpt>
<trkpt lat="28.7472" lon="99.855818">
<time>2015-08-06T08:07:04Z</time></trkpt>
<trkpt lat="28.74734" lon="99.855848">
<time>2015-08-06T08:07:05Z</time></trkpt>
<trkpt lat="28.74751" lon="99.855898">
<time>2015-08-06T08:07:06Z</time></trkpt>
<trkpt lat="28.74759" lon="99.855908">
<time>2015-08-06T08:07:07Z</time></trkpt>
<trkpt lat="28.74764" lon="99.855918">
<time>2015-08-06T08:07:08Z</time></trkpt>
<trkpt lat="28.74769" lon="99.855908">
<time>2015-08-06T08:07:09Z</time></trkpt>
<trkpt lat="28.74773" lon="99.855888">
<time>2015-08-06T08:07:10Z</time></trkpt>
<trkpt lat="28.74784" lon="99.855818">
<time>2015-08-06T08:07:11Z</time></trkpt>
<trkpt lat="28.747929" lon="99.855778">
<time>2015-08-06T08:07:12Z</time></trkpt>
<trkpt lat="28.747989" lon="99.855768">
<time>2015-08-06T08:07:13Z</time></trkpt>
<trkpt lat="28.748069" lon="99.855758">
<time>2015-08-06T08:07:14Z</time></trkpt>
<trkpt lat="28.748129" lon="99.855768">
<time>2015-08-06T08:07:15Z</time></trkpt>
<trkpt lat="28.748209" lon="99.855788">
<time>2015-08-06T08:07:16Z</time></trkpt>
<trkpt lat="28.748419" lon="99.855868">
<time>2015-08-06T08:07:17Z</time></trkpt>
<trkpt lat="28.748529" lon="99.855888">
<time>2015-08-06T08:07:18Z</time></trkpt>
<trkpt lat="28.748639" lon="99.855888">
<time>2015-08-06T08:07:19Z</time></trkpt>
<trkpt lat="28.748789" lon="99.855858">
<time>2015-08-06T08:07:20Z</time></trkpt>
<trkpt lat="28.748919" lon="99.855828">
<time>2015-08-06T08:07:21Z</time></trkpt>
<trkpt lat="28.749089" lon="99.855778">
<time>2015-08-06T08:07:22Z</time></trkpt>
<trkpt lat="28.749179" lon="99.855748">
<time>2015-08-06T08:07:23Z</time></trkpt>
<trkpt lat="28.749478" lon="99.855618">
<time>2015-08-06T08:07:24Z</time></trkpt>
<trkpt lat="28.749638" lon="99.855558">
<time>2015-08-06T08:07:25Z</time></trkpt>
<trkpt lat="28.749738" lon="99.855528">
<time>2015-08-06T08:07:26Z</time></trkpt>
<trkpt lat="28.749828" lon="99.855498">
<time>2015-08-06T08:07:27Z</time></trkpt>
<trkpt lat="28.749918" lon="99.855487">
<time>2015-08-06T08:07:28Z</time></trkpt>
<trkpt lat="28.750038" lon="99.855487">
<time>2015-08-06T08:07:29Z</time></trkpt>
<trkpt lat="28.750048" lon="99.855487">
<time>2015-08-06T08:07:30Z</time></trkpt>
<trkpt lat="28.750157" lon="99.855487">
<time>2015-08-06T08:07:31Z</time></trkpt>
<trkpt lat="28.750237" lon="99.855487">
<time>2015-08-06T08:07:32Z</time></trkpt>
<trkpt lat="28.750317" lon="99.855508">
<time>2015-08-06T08:07:33Z</time></trkpt>
<trkpt lat="28.750357" lon="99.855528">
<time>2015-08-06T08:07:34Z</time></trkpt>
<trkpt lat="28.750397" lon="99.855548">
<time>2015-08-06T08:07:35Z</time></trkpt>
<trkpt lat="28.750437" lon="99.855578">
<time>2015-08-06T08:07:36Z</time></trkpt>
<trkpt lat="28.750467" lon="99.855608">
<time>2015-08-06T08:07:37Z</time></trkpt>
<trkpt lat="28.750508" lon="99.855658">
<time>2015-08-06T08:07:38Z</time></trkpt>
<trkpt lat="28.750558" lon="99.855728">
<time>2015-08-06T08:07:39Z</time></trkpt>
<trkpt lat="28.750618" lon="99.855818">
<time>2015-08-06T08:07:40Z</time></trkpt>
<trkpt lat="28.750678" lon="99.855888">
<time>2015-08-06T08:07:41Z</time></trkpt>
<trkpt lat="28.750748" lon="99.855958">
<time>2015-08-06T08:07:42Z</time></trkpt>
<trkpt lat="28.750838" lon="99.856038">
<time>2015-08-06T08:07:43Z</time></trkpt>
<trkpt lat="28.750948" lon="99.856119">
<time>2015-08-06T08:07:44Z</time></trkpt>
<trkpt lat="28.751008" lon="99.856149">
<time>2015-08-06T08:07:45Z</time></trkpt>
<trkpt lat="28.751058" lon="99.856169">
<time>2015-08-06T08:07:46Z</time></trkpt>
<trkpt lat="28.751118" lon="99.856179">
<time>2015-08-06T08:07:47Z</time></trkpt>
<trkpt lat="28.751198" lon="99.856189">
<time>2015-08-06T08:07:48Z</time></trkpt>
<trkpt lat="28.751268" lon="99.856199">
<time>2015-08-06T08:07:49Z</time></trkpt>
<trkpt lat="28.751308" lon="99.856209">
<time>2015-08-06T08:07:50Z</time></trkpt>
<trkpt lat="28.751338" lon="99.856229">
<time>2015-08-06T08:07:51Z</time></trkpt>
<trkpt lat="28.751378" lon="99.856249">
<time>2015-08-06T08:07:52Z</time></trkpt>
<trkpt lat="28.751408" lon="99.856269">
<time>2015-08-06T08:07:53Z</time></trkpt>
<trkpt lat="28.751438" lon="99.856309">
<time>2015-08-06T08:07:54Z</time></trkpt>
<trkpt lat="28.751478" lon="99.856379">
<time>2015-08-06T08:07:55Z</time></trkpt>
<trkpt lat="28.751518" lon="99.856459">
<time>2015-08-06T08:07:56Z</time></trkpt>
<trkpt lat="28.751548" lon="99.856509">
<time>2015-08-06T08:07:57Z</time></trkpt>
<trkpt lat="28.751588" lon="99.856569">
<time>2015-08-06T08:07:58Z</time></trkpt>
<trkpt lat="28.751628" lon="99.856599">
<time>2015-08-06T08:07:59Z</time></trkpt>
<trkpt lat="28.751648" lon="99.856629">
<time>2015-08-06T08:08:00Z</time></trkpt>
<trkpt lat="28.751678" lon="99.856659">
<time>2015-08-06T08:08:01Z</time></trkpt>
<trkpt lat="28.751718" lon="99.85668">
<time>2015-08-06T08:08:02Z</time></trkpt>
<trkpt lat="28.751798" lon="99.85672">
<time>2015-08-06T08:08:03Z</time></trkpt>
<trkpt lat="28.751918" lon="99.85677">
<time>2015-08-06T08:08:04Z</time></trkpt>
<trkpt lat="28.752038" lon="99.85682">
<time>2015-08-06T08:08:05Z</time></trkpt>
<trkpt lat="28.752088" lon="99.85683">
<time>2015-08-06T08:08:06Z</time></trkpt>
<trkpt lat="28.752138" lon="99.85684">
<time>2015-08-06T08:08:07Z</time></trkpt>
<trkpt lat="28.752188" lon="99.85684">
<time>2015-08-06T08:08:08Z</time></trkpt>
<trkpt lat="28.752238" lon="99.85684">
<time>2015-08-06T08:08:09Z</time></trkpt>
<trkpt lat="28.752278" lon="99.85683">
<time>2015-08-06T08:08:10Z</time></trkpt>
<trkpt lat="28.752328" lon="99.85681">
<time>2015-08-06T08:08:11Z</time></trkpt>
<trkpt lat="28.752398" lon="99.85678">
<time>2015-08-06T08:08:12Z</time></trkpt>
<trkpt lat="28.752498" lon="99.85673">
<time>2015-08-06T08:08:13Z</time></trkpt>
<trkpt lat="28.752688" lon="99.856649">
<time>2015-08-06T08:08:14Z</time></trkpt>
<trkpt lat="28.752748" lon="99.856619">
<time>2015-08-06T08:08:15Z</time></trkpt>
<trkpt lat="28.752788" lon="99.856599">
<time>2015-08-06T08:08:16Z</time></trkpt>
<trkpt lat="28.752847" lon="99.856589">
<time>2015-08-06T08:08:17Z</time></trkpt>
<trkpt lat="28.752897" lon="99.856579">
<time>2015-08-06T08:08:18Z</time></trkpt>
<trkpt lat="28.752967" lon="99.856569">
<time>2015-08-06T08:08:19Z</time></trkpt>
<trkpt lat="28.753197" lon="99.856569">
<time>2015-08-06T08:08:20Z</time></trkpt>
<trkpt lat="28.753467" lon="99.856569">
<time>2015-08-06T08:08:21Z</time></trkpt>
<trkpt lat="28.753717" lon="99.856599">
<time>2015-08-06T08:08:22Z</time></trkpt>
<trkpt lat="28.753837" lon="99.856609">
<time>2015-08-06T08:08:23Z</time></trkpt>
<trkpt lat="28.753937" lon="99.856629">
<time>2015-08-06T08:08:24Z</time></trkpt>
<trkpt lat="28.754017" lon="99.856659">
<time>2015-08-06T08:08:25Z</time></trkpt>
<trkpt lat="28.754177" lon="99.85671">
<time>2015-08-06T08:08:26Z</time></trkpt>
<trkpt lat="28.754297" lon="99.85674">
<time>2015-08-06T08:08:27Z</time></trkpt>
<trkpt lat="28.754437" lon="99.85677">
<time>2015-08-06T08:08:28Z</time></trkpt>
<trkpt lat="28.754537" lon="99.85679">
<time>2015-08-06T08:08:29Z</time></trkpt>
<trkpt lat="28.754637" lon="99.85683">
<time>2015-08-06T08:08:30Z</time></trkpt>
<trkpt lat="28.754737" lon="99.85687">
<time>2015-08-06T08:08:31Z</time></trkpt>
<trkpt lat="28.754917" lon="99.85695">
<time>2015-08-06T08:08:32Z</time></trkpt>
<trkpt lat="28.755037" lon="99.85701">
<time>2015-08-06T08:08:33Z</time></trkpt>
<trkpt lat="28.755167" lon="99.85708">
<time>2015-08-06T08:08:34Z</time></trkpt>
<trkpt lat="28.755327" lon="99.85715">
<time>2015-08-06T08:08:35Z</time></trkpt>
<trkpt lat="28.755537" lon="99.85722">
<time>2015-08-06T08:08:36Z</time></trkpt>
<trkpt lat="28.755717" lon="99.85728">
<time>2015-08-06T08:08:37Z</time></trkpt>
<trkpt lat="28.755927" lon="99.857341">
<time>2015-08-06T08:08:38Z</time></trkpt>
<trkpt lat="28.756236" lon="99.857411">
<time>2015-08-06T08:08:39Z</time></trkpt>
<trkpt lat="28.756406" lon="99.857451">
<time>2015-08-06T08:08:40Z</time></trkpt>
<trkpt lat="28.756496" lon="99.857481">
<time>2015-08-06T08:08:41Z</time></trkpt>
<trkpt lat="28.756556" lon="99.857511">
<time>2015-08-06T08:08:42Z</time></trkpt>
<trkpt lat="28.756606" lon="99.857541">
<time>2015-08-06T08:08:43Z</time></trkpt>
<trkpt lat="28.756726" lon="99.857621">
<time>2015-08-06T08:08:44Z</time></trkpt>
<trkpt lat="28.756757" lon="99.857651">
<time>2015-08-06T08:08:45Z</time></trkpt>
<trkpt lat="28.756787" lon="99.857661">
<time>2015-08-06T08:08:46Z</time></trkpt>
<trkpt lat="28.756827" lon="99.857671">
<time>2015-08-06T08:08:47Z</time></trkpt>
<trkpt lat="28.756877" lon="99.857691">
<time>2015-08-06T08:08:48Z</time></trkpt>
<trkpt lat="28.756926" lon="99.857691">
<time>2015-08-06T08:08:49Z</time></trkpt>
<trkpt lat="28.757006" lon="99.857681">
<time>2015-08-06T08:08:50Z</time></trkpt>
<trkpt lat="28.757136" lon="99.857671">
<time>2015-08-06T08:08:51Z</time></trkpt>
<trkpt lat="28.757206" lon="99.857661">
<time>2015-08-06T08:08:52Z</time></trkpt>
<trkpt lat="28.757276" lon="99.857671">
<time>2015-08-06T08:08:53Z</time></trkpt>
<trkpt lat="28.757346" lon="99.857671">
<time>2015-08-06T08:08:54Z</time></trkpt>
<trkpt lat="28.757406" lon="99.857701">
<time>2015-08-06T08:08:55Z</time></trkpt>
<trkpt lat="28.757476" lon="99.857731">
<time>2015-08-06T08:08:56Z</time></trkpt>
<trkpt lat="28.757536" lon="99.857771">
<time>2015-08-06T08:08:57Z</time></trkpt>
<trkpt lat="28.757776" lon="99.857952">
<time>2015-08-06T08:08:58Z</time></trkpt>
<trkpt lat="28.757986" lon="99.858132">
<time>2015-08-06T08:08:59Z</time></trkpt>
<trkpt lat="28.758197" lon="99.858302">
<time>2015-08-06T08:09:00Z</time></trkpt>
<trkpt lat="28.758287" lon="99.858372">
<time>2015-08-06T08:09:01Z</time></trkpt>
<trkpt lat="28.758347" lon="99.858422">
<time>2015-08-06T08:09:02Z</time></trkpt>
<trkpt lat="28.758397" lon="99.858472">
<time>2015-08-06T08:09:03Z</time></trkpt>
<trkpt lat="28.758437" lon="99.858523">
<time>2015-08-06T08:09:04Z</time></trkpt>
<trkpt lat="28.758477" lon="99.858563">
<time>2015-08-06T08:09:05Z</time></trkpt>
<trkpt lat="28.758567" lon="99.858673">
<time>2015-08-06T08:09:06Z</time></trkpt>
<trkpt lat="28.758637" lon="99.858743">
<time>2015-08-06T08:09:07Z</time></trkpt>
<trkpt lat="28.758697" lon="99.858813">
<time>2015-08-06T08:09:08Z</time></trkpt>
<trkpt lat="28.758737" lon="99.858863">
<time>2015-08-06T08:09:09Z</time></trkpt>
<trkpt lat="28.758987" lon="99.859043">
<time>2015-08-06T08:09:10Z</time></trkpt>
<trkpt lat="28.759027" lon="99.859083">
<time>2015-08-06T08:09:11Z</time></trkpt>
<trkpt lat="28.759077" lon="99.859124">
<time>2015-08-06T08:09:12Z</time></trkpt>
<trkpt lat="28.759127" lon="99.859164">
<time>2015-08-06T08:09:13Z</time></trkpt>
<trkpt lat="28.759177" lon="99.859214">
<time>2015-08-06T08:09:14Z</time></trkpt>
<trkpt lat="28.759217" lon="99.859254">
<time>2015-08-06T08:09:15Z</time></trkpt>
<trkpt lat="28.759267" lon="99.859284">
<time>2015-08-06T08:09:16Z</time></trkpt>
<trkpt lat="28.759307" lon="99.859304">
<time>2015-08-06T08:09:17Z</time></trkpt>
<trkpt lat="28.759367" lon="99.859324">
<time>2015-08-06T08:09:18Z</time></trkpt>
<trkpt lat="28.759477" lon="99.859364">
<time>2015-08-06T08:09:19Z</time></trkpt>
<trkpt lat="28.759517" lon="99.859374">
<time>2015-08-06T08:09:20Z</time></trkpt>
<trkpt lat="28.759557" lon="99.859394">
<time>2015-08-06T08:09:21Z</time></trkpt>
<trkpt lat="28.759587" lon="99.859414">
<time>2015-08-06T08:09:22Z</time></trkpt>
<trkpt lat="28.759627" lon="99.859444">
<time>2015-08-06T08:09:23Z</time></trkpt>
<trkpt lat="28.759657" lon="99.859474">
<time>2015-08-06T08:09:24Z</time></trkpt>
<trkpt lat="28.759687" lon="99.859504">
<time>2015-08-06T08:09:25Z</time></trkpt>
<trkpt lat="28.759707" lon="99.859544">
<time>2015-08-06T08:09:26Z</time></trkpt>
<trkpt lat="28.759727" lon="99.859574">
<time>2015-08-06T08:09:27Z</time></trkpt>
<trkpt lat="28.759758" lon="99.859644">
<time>2015-08-06T08:09:28Z</time></trkpt>
<trkpt lat="28.759988" lon="99.860165">
<time>2015-08-06T08:09:29Z</time></trkpt>
<trkpt lat="28.760319" lon="99.860906">
<time>2015-08-06T08:09:30Z</time></trkpt>
<trkpt lat="28.760379" lon="99.861017">
<time>2015-08-06T08:09:31Z</time></trkpt>
<trkpt lat="28.760419" lon="99.861077">
<time>2015-08-06T08:09:32Z</time></trkpt>
<trkpt lat="28.760469" lon="99.861117">
<time>2015-08-06T08:09:33Z</time></trkpt>
<trkpt lat="28.760509" lon="99.861137">
<time>2015-08-06T08:09:34Z</time></trkpt>
<trkpt lat="28.760549" lon="99.861147">
<time>2015-08-06T08:09:35Z</time></trkpt>
<trkpt lat="28.760589" lon="99.861147">
<time>2015-08-06T08:09:36Z</time></trkpt>
<trkpt lat="28.760659" lon="99.861137">
<time>2015-08-06T08:09:37Z</time></trkpt>
<trkpt lat="28.760769" lon="99.861117">
<time>2015-08-06T08:09:38Z</time></trkpt>
<trkpt lat="28.760899" lon="99.861097">
<time>2015-08-06T08:09:39Z</time></trkpt>
<trkpt lat="28.761099" lon="99.861067">
<time>2015-08-06T08:09:40Z</time></trkpt>
<trkpt lat="28.761229" lon="99.861037">
<time>2015-08-06T08:09:41Z</time></trkpt>
<trkpt lat="28.761338" lon="99.860997">
<time>2015-08-06T08:09:42Z</time></trkpt>
<trkpt lat="28.761498" lon="99.860926">
<time>2015-08-06T08:09:43Z</time></trkpt>
<trkpt lat="28.761598" lon="99.860896">
<time>2015-08-06T08:09:44Z</time></trkpt>
<trkpt lat="28.761638" lon="99.860896">
<time>2015-08-06T08:09:45Z</time></trkpt>
<trkpt lat="28.761688" lon="99.860906">
<time>2015-08-06T08:09:46Z</time></trkpt>
<trkpt lat="28.761728" lon="99.860906">
<time>2015-08-06T08:09:47Z</time></trkpt>
<trkpt lat="28.761778" lon="99.860926">
<time>2015-08-06T08:09:48Z</time></trkpt>
<trkpt lat="28.761838" lon="99.860956">
<time>2015-08-06T08:09:49Z</time></trkpt>
<trkpt lat="28.761938" lon="99.861017">
<time>2015-08-06T08:09:50Z</time></trkpt>
<trkpt lat="28.762148" lon="99.861167">
<time>2015-08-06T08:09:51Z</time></trkpt>
<trkpt lat="28.762418" lon="99.861347">
<time>2015-08-06T08:09:52Z</time></trkpt>
<trkpt lat="28.762518" lon="99.861417">
<time>2015-08-06T08:09:53Z</time></trkpt>
<trkpt lat="28.762598" lon="99.861467">
<time>2015-08-06T08:09:54Z</time></trkpt>
<trkpt lat="28.762658" lon="99.861497">
<time>2015-08-06T08:09:55Z</time></trkpt>
<trkpt lat="28.762708" lon="99.861517">
<time>2015-08-06T08:09:56Z</time></trkpt>
<trkpt lat="28.762788" lon="99.861547">
<time>2015-08-06T08:09:57Z</time></trkpt>
<trkpt lat="28.762978" lon="99.861618">
<time>2015-08-06T08:09:58Z</time></trkpt>
<trkpt lat="28.763148" lon="99.861668">
<time>2015-08-06T08:09:59Z</time></trkpt>
<trkpt lat="28.763208" lon="99.861688">
<time>2015-08-06T08:10:00Z</time></trkpt>
<trkpt lat="28.763258" lon="99.861728">
<time>2015-08-06T08:10:01Z</time></trkpt>
<trkpt lat="28.763338" lon="99.861778">
<time>2015-08-06T08:10:02Z</time></trkpt>
<trkpt lat="28.763498" lon="99.861898">
<time>2015-08-06T08:10:03Z</time></trkpt>
<trkpt lat="28.763578" lon="99.861968">
<time>2015-08-06T08:10:04Z</time></trkpt>
<trkpt lat="28.763638" lon="99.862028">
<time>2015-08-06T08:10:05Z</time></trkpt>
<trkpt lat="28.763698" lon="99.862108">
<time>2015-08-06T08:10:06Z</time></trkpt>
<trkpt lat="28.763769" lon="99.862188">
<time>2015-08-06T08:10:07Z</time></trkpt>
<trkpt lat="28.763819" lon="99.862238">
<time>2015-08-06T08:10:08Z</time></trkpt>
<trkpt lat="28.763849" lon="99.862269">
<time>2015-08-06T08:10:09Z</time></trkpt>
<trkpt lat="28.763879" lon="99.862279">
<time>2015-08-06T08:10:10Z</time></trkpt>
<trkpt lat="28.763929" lon="99.862289">
<time>2015-08-06T08:10:11Z</time></trkpt>
<trkpt lat="28.763969" lon="99.862299">
<time>2015-08-06T08:10:12Z</time></trkpt>
<trkpt lat="28.764029" lon="99.862299">
<time>2015-08-06T08:10:13Z</time></trkpt>
<trkpt lat="28.764078" lon="99.862279">
<time>2015-08-06T08:10:14Z</time></trkpt>
<trkpt lat="28.764158" lon="99.862269">
<time>2015-08-06T08:10:15Z</time></trkpt>
<trkpt lat="28.764218" lon="99.862259">
<time>2015-08-06T08:10:16Z</time></trkpt>
<trkpt lat="28.764298" lon="99.862248">
<time>2015-08-06T08:10:17Z</time></trkpt>
<trkpt lat="28.764338" lon="99.862259">
<time>2015-08-06T08:10:18Z</time></trkpt>
<trkpt lat="28.764408" lon="99.862269">
<time>2015-08-06T08:10:19Z</time></trkpt>
<trkpt lat="28.764488" lon="99.862289">
<time>2015-08-06T08:10:20Z</time></trkpt>
<trkpt lat="28.764728" lon="99.862339">
<time>2015-08-06T08:10:21Z</time></trkpt>
<trkpt lat="28.764928" lon="99.862399">
<time>2015-08-06T08:10:22Z</time></trkpt>
<trkpt lat="28.765018" lon="99.862409">
<time>2015-08-06T08:10:23Z</time></trkpt>
<trkpt lat="28.765068" lon="99.862399">
<time>2015-08-06T08:10:24Z</time></trkpt>
<trkpt lat="28.765118" lon="99.862389">
<time>2015-08-06T08:10:25Z</time></trkpt>
<trkpt lat="28.765168" lon="99.862359">
<time>2015-08-06T08:10:26Z</time></trkpt>
<trkpt lat="28.765218" lon="99.862319">
<time>2015-08-06T08:10:27Z</time></trkpt>
<trkpt lat="28.765268" lon="99.862268">
<time>2015-08-06T08:10:28Z</time></trkpt>
<trkpt lat="28.765308" lon="99.862198">
<time>2015-08-06T08:10:29Z</time></trkpt>
<trkpt lat="28.765357" lon="99.862068">
<time>2015-08-06T08:10:30Z</time></trkpt>
<trkpt lat="28.765407" lon="99.861968">
<time>2015-08-06T08:10:31Z</time></trkpt>
<trkpt lat="28.765477" lon="99.861858">
<time>2015-08-06T08:10:32Z</time></trkpt>
<trkpt lat="28.765577" lon="99.861728">
<time>2015-08-06T08:10:33Z</time></trkpt>
<trkpt lat="28.765756" lon="99.861477">
<time>2015-08-06T08:10:34Z</time></trkpt>
<trkpt lat="28.765866" lon="99.861327">
<time>2015-08-06T08:10:35Z</time></trkpt>
<trkpt lat="28.765956" lon="99.861227">
<time>2015-08-06T08:10:36Z</time></trkpt>
<trkpt lat="28.766046" lon="99.861147">
<time>2015-08-06T08:10:37Z</time></trkpt>
<trkpt lat="28.766145" lon="99.861077">
<time>2015-08-06T08:10:38Z</time></trkpt>
<trkpt lat="28.766255" lon="99.861006">
<time>2015-08-06T08:10:39Z</time></trkpt>
<trkpt lat="28.766395" lon="99.860906">
<time>2015-08-06T08:10:40Z</time></trkpt>
<trkpt lat="28.766615" lon="99.860786">
<time>2015-08-06T08:10:41Z</time></trkpt>
<trkpt lat="28.766764" lon="99.860716">
<time>2015-08-06T08:10:42Z</time></trkpt>
<trkpt lat="28.766844" lon="99.860686">
<time>2015-08-06T08:10:43Z</time></trkpt>
<trkpt lat="28.766914" lon="99.860666">
<time>2015-08-06T08:10:44Z</time></trkpt>
<trkpt lat="28.767024" lon="99.860646">
<time>2015-08-06T08:10:45Z</time></trkpt>
<trkpt lat="28.767154" lon="99.860636">
<time>2015-08-06T08:10:46Z</time></trkpt>
<trkpt lat="28.767334" lon="99.860646">
<time>2015-08-06T08:10:47Z</time></trkpt>
<trkpt lat="28.767654" lon="99.860676">
<time>2015-08-06T08:10:48Z</time></trkpt>
<trkpt lat="28.767754" lon="99.860686">
<time>2015-08-06T08:10:49Z</time></trkpt>
<trkpt lat="28.767824" lon="99.860696">
<time>2015-08-06T08:10:50Z</time></trkpt>
<trkpt lat="28.767884" lon="99.860716">
<time>2015-08-06T08:10:51Z</time></trkpt>
<trkpt lat="28.767984" lon="99.860746">
<time>2015-08-06T08:10:52Z</time></trkpt>
<trkpt lat="28.768104" lon="99.860786">
<time>2015-08-06T08:10:53Z</time></trkpt>
<trkpt lat="28.768254" lon="99.860846">
<time>2015-08-06T08:10:54Z</time></trkpt>
<trkpt lat="28.768324" lon="99.860866">
<time>2015-08-06T08:10:55Z</time></trkpt>
<trkpt lat="28.768374" lon="99.860866">
<time>2015-08-06T08:10:56Z</time></trkpt>
<trkpt lat="28.768434" lon="99.860856">
<time>2015-08-06T08:10:57Z</time></trkpt>
<trkpt lat="28.768493" lon="99.860836">
<time>2015-08-06T08:10:58Z</time></trkpt>
<trkpt lat="28.768533" lon="99.860826">
<time>2015-08-06T08:10:59Z</time></trkpt>
<trkpt lat="28.768593" lon="99.860796">
<time>2015-08-06T08:11:00Z</time></trkpt>
<trkpt lat="28.768663" lon="99.860736">
<time>2015-08-06T08:11:01Z</time></trkpt>
<trkpt lat="28.768773" lon="99.860646">
<time>2015-08-06T08:11:02Z</time></trkpt>
<trkpt lat="28.768833" lon="99.860596">
<time>2015-08-06T08:11:03Z</time></trkpt>
<trkpt lat="28.768903" lon="99.860566">
<time>2015-08-06T08:11:04Z</time></trkpt>
<trkpt lat="28.768953" lon="99.860546">
<time>2015-08-06T08:11:05Z</time></trkpt>
<trkpt lat="28.769003" lon="99.860526">
<time>2015-08-06T08:11:06Z</time></trkpt>
<trkpt lat="28.769053" lon="99.860526">
<time>2015-08-06T08:11:07Z</time></trkpt>
<trkpt lat="28.769103" lon="99.860526">
<time>2015-08-06T08:11:08Z</time></trkpt>
<trkpt lat="28.769163" lon="99.860526">
<time>2015-08-06T08:11:09Z</time></trkpt>
<trkpt lat="28.769233" lon="99.860526">
<time>2015-08-06T08:11:10Z</time></trkpt>
<trkpt lat="28.769282" lon="99.860506">
<time>2015-08-06T08:11:11Z</time></trkpt>
<trkpt lat="28.769342" lon="99.860486">
<time>2015-08-06T08:11:12Z</time></trkpt>
<trkpt lat="28.769362" lon="99.860465">
<time>2015-08-06T08:11:13Z</time></trkpt>
<trkpt lat="28.769402" lon="99.860425">
<time>2015-08-06T08:11:14Z</time></trkpt>
<trkpt lat="28.769462" lon="99.860365">
<time>2015-08-06T08:11:15Z</time></trkpt>
<trkpt lat="28.769632" lon="99.860165">
<time>2015-08-06T08:11:16Z</time></trkpt>
<trkpt lat="28.769811" lon="99.859965">
<time>2015-08-06T08:11:17Z</time></trkpt>
<trkpt lat="28.769911" lon="99.859864">
<time>2015-08-06T08:11:18Z</time></trkpt>
<trkpt lat="28.769971" lon="99.859804">
<time>2015-08-06T08:11:19Z</time></trkpt>
<trkpt lat="28.770031" lon="99.859774">
<time>2015-08-06T08:11:20Z</time></trkpt>
<trkpt lat="28.770141" lon="99.859724">
<time>2015-08-06T08:11:21Z</time></trkpt>
<trkpt lat="28.77039" lon="99.859594">
<time>2015-08-06T08:11:22Z</time></trkpt>
<trkpt lat="28.77049" lon="99.859544">
<time>2015-08-06T08:11:23Z</time></trkpt>
<trkpt lat="28.77059" lon="99.859484">
<time>2015-08-06T08:11:24Z</time></trkpt>
<trkpt lat="28.77068" lon="99.859414">
<time>2015-08-06T08:11:25Z</time></trkpt>
<trkpt lat="28.77083" lon="99.859294">
<time>2015-08-06T08:11:26Z</time></trkpt>
<trkpt lat="28.7709" lon="99.859243">
<time>2015-08-06T08:11:27Z</time></trkpt>
<trkpt lat="28.770969" lon="99.859203">
<time>2015-08-06T08:11:28Z</time></trkpt>
<trkpt lat="28.771029" lon="99.859183">
<time>2015-08-06T08:11:29Z</time></trkpt>
<trkpt lat="28.771079" lon="99.859163">
<time>2015-08-06T08:11:30Z</time></trkpt>
<trkpt lat="28.771169" lon="99.859143">
<time>2015-08-06T08:11:31Z</time></trkpt>
<trkpt lat="28.771329" lon="99.859113">
<time>2015-08-06T08:11:32Z</time></trkpt>
<trkpt lat="28.771449" lon="99.859093">
<time>2015-08-06T08:11:33Z</time></trkpt>
<trkpt lat="28.771579" lon="99.859093">
<time>2015-08-06T08:11:34Z</time></trkpt>
<trkpt lat="28.771709" lon="99.859093">
<time>2015-08-06T08:11:35Z</time></trkpt>
<trkpt lat="28.771849" lon="99.859083">
<time>2015-08-06T08:11:36Z</time></trkpt>
<trkpt lat="28.771939" lon="99.859063">
<time>2015-08-06T08:11:37Z</time></trkpt>
<trkpt lat="28.772018" lon="99.859043">
<time>2015-08-06T08:11:38Z</time></trkpt>
<trkpt lat="28.772098" lon="99.859003">
<time>2015-08-06T08:11:39Z</time></trkpt>
<trkpt lat="28.772188" lon="99.858953">
<time>2015-08-06T08:11:40Z</time></trkpt>
<trkpt lat="28.772268" lon="99.858903">
<time>2015-08-06T08:11:41Z</time></trkpt>
<trkpt lat="28.772348" lon="99.858843">
<time>2015-08-06T08:11:42Z</time></trkpt>
<trkpt lat="28.772428" lon="99.858783">
<time>2015-08-06T08:11:43Z</time></trkpt>
<trkpt lat="28.772627" lon="99.858612">
<time>2015-08-06T08:11:44Z</time></trkpt>
<trkpt lat="28.772887" lon="99.858372">
<time>2015-08-06T08:11:45Z</time></trkpt>
<trkpt lat="28.772997" lon="99.858272">
<time>2015-08-06T08:11:46Z</time></trkpt>
<trkpt lat="28.773076" lon="99.858172">
<time>2015-08-06T08:11:47Z</time></trkpt>
<trkpt lat="28.773146" lon="99.858111">
<time>2015-08-06T08:11:48Z</time></trkpt>
<trkpt lat="28.773176" lon="99.858071">
<time>2015-08-06T08:11:49Z</time></trkpt>
<trkpt lat="28.773246" lon="99.858031">
<time>2015-08-06T08:11:50Z</time></trkpt>
<trkpt lat="28.773296" lon="99.858001">
<time>2015-08-06T08:11:51Z</time></trkpt>
<trkpt lat="28.773376" lon="99.857971">
<time>2015-08-06T08:11:52Z</time></trkpt>
<trkpt lat="28.773456" lon="99.857941">
<time>2015-08-06T08:11:53Z</time></trkpt>
<trkpt lat="28.773666" lon="99.857871">
<time>2015-08-06T08:11:54Z</time></trkpt>
<trkpt lat="28.773805" lon="99.857821">
<time>2015-08-06T08:11:55Z</time></trkpt>
<trkpt lat="28.773915" lon="99.857781">
<time>2015-08-06T08:11:56Z</time></trkpt>
<trkpt lat="28.774015" lon="99.857731">
<time>2015-08-06T08:11:57Z</time></trkpt>
<trkpt lat="28.774095" lon="99.857681">
<time>2015-08-06T08:11:58Z</time></trkpt>
<trkpt lat="28.774175" lon="99.857641">
<time>2015-08-06T08:11:59Z</time></trkpt>
<trkpt lat="28.774245" lon="99.857581">
<time>2015-08-06T08:12:00Z</time></trkpt>
<trkpt lat="28.774355" lon="99.85751">
<time>2015-08-06T08:12:01Z</time></trkpt>
<trkpt lat="28.774574" lon="99.85734">
<time>2015-08-06T08:12:02Z</time></trkpt>
<trkpt lat="28.774724" lon="99.85724">
<time>2015-08-06T08:12:03Z</time></trkpt>
<trkpt lat="28.774794" lon="99.8572">
<time>2015-08-06T08:12:04Z</time></trkpt>
<trkpt lat="28.774854" lon="99.85717">
<time>2015-08-06T08:12:05Z</time></trkpt>
<trkpt lat="28.774904" lon="99.85715">
<time>2015-08-06T08:12:06Z</time></trkpt>
<trkpt lat="28.774994" lon="99.85712">
<time>2015-08-06T08:12:07Z</time></trkpt>
<trkpt lat="28.775073" lon="99.85708">
<time>2015-08-06T08:12:08Z</time></trkpt>
<trkpt lat="28.775133" lon="99.85705">
<time>2015-08-06T08:12:09Z</time></trkpt>
<trkpt lat="28.775183" lon="99.85701">
<time>2015-08-06T08:12:10Z</time></trkpt>
<trkpt lat="28.775223" lon="99.856959">
<time>2015-08-06T08:12:11Z</time></trkpt>
<trkpt lat="28.775283" lon="99.856889">
<time>2015-08-06T08:12:12Z</time></trkpt>
<trkpt lat="28.775353" lon="99.856789">
<time>2015-08-06T08:12:13Z</time></trkpt>
<trkpt lat="28.775433" lon="99.856679">
<time>2015-08-06T08:12:14Z</time></trkpt>
<trkpt lat="28.775512" lon="99.856579">
<time>2015-08-06T08:12:15Z</time></trkpt>
<trkpt lat="28.775582" lon="99.856499">
<time>2015-08-06T08:12:16Z</time></trkpt>
<trkpt lat="28.775642" lon="99.856439">
<time>2015-08-06T08:12:17Z</time></trkpt>
<trkpt lat="28.775702" lon="99.856378">
<time>2015-08-06T08:12:18Z</time></trkpt>
<trkpt lat="28.775782" lon="99.856318">
<time>2015-08-06T08:12:19Z</time></trkpt>
<trkpt lat="28.775892" lon="99.856228">
<time>2015-08-06T08:12:20Z</time></trkpt>
<trkpt lat="28.775951" lon="99.856168">
<time>2015-08-06T08:12:21Z</time></trkpt>
<trkpt lat="28.775991" lon="99.856118">
<time>2015-08-06T08:12:22Z</time></trkpt>
<trkpt lat="28.776021" lon="99.856068">
<time>2015-08-06T08:12:23Z</time></trkpt>
<trkpt lat="28.776051" lon="99.856018">
<time>2015-08-06T08:12:24Z</time></trkpt>
<trkpt lat="28.776071" lon="99.855948">
<time>2015-08-06T08:12:25Z</time></trkpt>
<trkpt lat="28.776101" lon="99.855878">
<time>2015-08-06T08:12:26Z</time></trkpt>
<trkpt lat="28.776141" lon="99.855707">
<time>2015-08-06T08:12:27Z</time></trkpt>
<trkpt lat="28.77618" lon="99.855617">
<time>2015-08-06T08:12:28Z</time></trkpt>
<trkpt lat="28.77621" lon="99.855577">
<time>2015-08-06T08:12:29Z</time></trkpt>
<trkpt lat="28.77624" lon="99.855537">
<time>2015-08-06T08:12:30Z</time></trkpt>
<trkpt lat="28.77629" lon="99.855497">
<time>2015-08-06T08:12:31Z</time></trkpt>
<trkpt lat="28.77634" lon="99.855467">
<time>2015-08-06T08:12:32Z</time></trkpt>
<trkpt lat="28.77642" lon="99.855437">
<time>2015-08-06T08:12:33Z</time></trkpt>
<trkpt lat="28.77652" lon="99.855407">
<time>2015-08-06T08:12:34Z</time></trkpt>
<trkpt lat="28.77665" lon="99.855387">
<time>2015-08-06T08:12:35Z</time></trkpt>
<trkpt lat="28.77676" lon="99.855367">
<time>2015-08-06T08:12:36Z</time></trkpt>
<trkpt lat="28.77686" lon="99.855347">
<time>2015-08-06T08:12:37Z</time></trkpt>
<trkpt lat="28.776959" lon="99.855317">
<time>2015-08-06T08:12:38Z</time></trkpt>
<trkpt lat="28.777039" lon="99.855286">
<time>2015-08-06T08:12:39Z</time></trkpt>
<trkpt lat="28.777289" lon="99.855186">
<time>2015-08-06T08:12:40Z</time></trkpt>
<trkpt lat="28.777529" lon="99.855106">
<time>2015-08-06T08:12:41Z</time></trkpt>
<trkpt lat="28.777788" lon="99.855026">
<time>2015-08-06T08:12:42Z</time></trkpt>
<trkpt lat="28.778178" lon="99.854936">
<time>2015-08-06T08:12:43Z</time></trkpt>
<trkpt lat="28.778388" lon="99.854896">
<time>2015-08-06T08:12:44Z</time></trkpt>
<trkpt lat="28.778687" lon="99.854846">
<time>2015-08-06T08:12:45Z</time></trkpt>
<trkpt lat="28.778907" lon="99.854806">
<time>2015-08-06T08:12:46Z</time></trkpt>
<trkpt lat="28.779037" lon="99.854786">
<time>2015-08-06T08:12:47Z</time></trkpt>
<trkpt lat="28.779107" lon="99.854755">
<time>2015-08-06T08:12:48Z</time></trkpt>
<trkpt lat="28.779177" lon="99.854725">
<time>2015-08-06T08:12:49Z</time></trkpt>
<trkpt lat="28.779267" lon="99.854685">
<time>2015-08-06T08:12:50Z</time></trkpt>
<trkpt lat="28.779516" lon="99.854565">
<time>2015-08-06T08:12:51Z</time></trkpt>
<trkpt lat="28.779626" lon="99.854515">
<time>2015-08-06T08:12:52Z</time></trkpt>
<trkpt lat="28.779716" lon="99.854475">
<time>2015-08-06T08:12:53Z</time></trkpt>
<trkpt lat="28.779756" lon="99.854435">
<time>2015-08-06T08:12:54Z</time></trkpt>
<trkpt lat="28.779776" lon="99.854405">
<time>2015-08-06T08:12:55Z</time></trkpt>
<trkpt lat="28.779816" lon="99.854355">
<time>2015-08-06T08:12:56Z</time></trkpt>
<trkpt lat="28.779826" lon="99.854315">
<time>2015-08-06T08:12:57Z</time></trkpt>
<trkpt lat="28.779836" lon="99.854245">
<time>2015-08-06T08:12:58Z</time></trkpt>
<trkpt lat="28.779846" lon="99.854174">
<time>2015-08-06T08:12:59Z</time></trkpt>
<trkpt lat="28.779846" lon="99.854094">
<time>2015-08-06T08:13:00Z</time></trkpt>
<trkpt lat="28.779825" lon="99.854004">
<time>2015-08-06T08:13:01Z</time></trkpt>
<trkpt lat="28.779805" lon="99.853964">
<time>2015-08-06T08:13:02Z</time></trkpt>
<trkpt lat="28.779765" lon="99.853874">
<time>2015-08-06T08:13:03Z</time></trkpt>
<trkpt lat="28.779715" lon="99.853784">
<time>2015-08-06T08:13:04Z</time></trkpt>
<trkpt lat="28.779665" lon="99.853704">
<time>2015-08-06T08:13:05Z</time></trkpt>
<trkpt lat="28.779625" lon="99.853663">
<time>2015-08-06T08:13:06Z</time></trkpt>
<trkpt lat="28.779575" lon="99.853613">
<time>2015-08-06T08:13:07Z</time></trkpt>
<trkpt lat="28.779535" lon="99.853573">
<time>2015-08-06T08:13:08Z</time></trkpt>
<trkpt lat="28.779475" lon="99.853523">
<time>2015-08-06T08:13:09Z</time></trkpt>
<trkpt lat="28.779395" lon="99.853483">
<time>2015-08-06T08:13:10Z</time></trkpt>
<trkpt lat="28.779285" lon="99.853433">
<time>2015-08-06T08:13:11Z</time></trkpt>
<trkpt lat="28.779065" lon="99.853353">
<time>2015-08-06T08:13:12Z</time></trkpt>
<trkpt lat="28.778935" lon="99.853293">
<time>2015-08-06T08:13:13Z</time></trkpt>
<trkpt lat="28.778825" lon="99.853233">
<time>2015-08-06T08:13:14Z</time></trkpt>
<trkpt lat="28.778775" lon="99.853213">
<time>2015-08-06T08:13:15Z</time></trkpt>
<trkpt lat="28.778745" lon="99.853203">
<time>2015-08-06T08:13:16Z</time></trkpt>
<trkpt lat="28.778695" lon="99.853203">
<time>2015-08-06T08:13:17Z</time></trkpt>
<trkpt lat="28.778655" lon="99.853203">
<time>2015-08-06T08:13:18Z</time></trkpt>
<trkpt lat="28.778595" lon="99.853203">
<time>2015-08-06T08:13:19Z</time></trkpt>
<trkpt lat="28.778485" lon="99.853233">
<time>2015-08-06T08:13:20Z</time></trkpt>
<trkpt lat="28.778275" lon="99.853313">
<time>2015-08-06T08:13:21Z</time></trkpt>
<trkpt lat="28.778136" lon="99.853373">
<time>2015-08-06T08:13:22Z</time></trkpt>
<trkpt lat="28.777976" lon="99.853463">
<time>2015-08-06T08:13:23Z</time></trkpt>
<trkpt lat="28.777856" lon="99.853533">
<time>2015-08-06T08:13:24Z</time></trkpt>
<trkpt lat="28.777756" lon="99.853603">
<time>2015-08-06T08:13:25Z</time></trkpt>
<trkpt lat="28.777586" lon="99.853744">
<time>2015-08-06T08:13:26Z</time></trkpt>
<trkpt lat="28.777497" lon="99.853814">
<time>2015-08-06T08:13:27Z</time></trkpt>
<trkpt lat="28.777437" lon="99.853854">
<time>2015-08-06T08:13:28Z</time></trkpt>
<trkpt lat="28.777387" lon="99.853884">
<time>2015-08-06T08:13:29Z</time></trkpt>
<trkpt lat="28.777317" lon="99.853914">
<time>2015-08-06T08:13:30Z</time></trkpt>
<trkpt lat="28.777247" lon="99.853934">
<time>2015-08-06T08:13:31Z</time></trkpt>
<trkpt lat="28.777007" lon="99.853974">
<time>2015-08-06T08:13:32Z</time></trkpt>
<trkpt lat="28.776817" lon="99.854014">
<time>2015-08-06T08:13:33Z</time></trkpt>
<trkpt lat="28.776588" lon="99.854074">
<time>2015-08-06T08:13:34Z</time></trkpt>
<trkpt lat="28.776398" lon="99.854144">
<time>2015-08-06T08:13:35Z</time></trkpt>
<trkpt lat="28.776208" lon="99.854225">
<time>2015-08-06T08:13:36Z</time></trkpt>
<trkpt lat="28.776048" lon="99.854335">
<time>2015-08-06T08:13:37Z</time></trkpt>
<trkpt lat="28.775919" lon="99.854425">
<time>2015-08-06T08:13:38Z</time></trkpt>
<trkpt lat="28.775859" lon="99.854485">
<time>2015-08-06T08:13:39Z</time></trkpt>
<trkpt lat="28.775819" lon="99.854535">
<time>2015-08-06T08:13:40Z</time></trkpt>
<trkpt lat="28.775789" lon="99.854585">
<time>2015-08-06T08:13:41Z</time></trkpt>
<trkpt lat="28.775759" lon="99.854645">
<time>2015-08-06T08:13:42Z</time></trkpt>
<trkpt lat="28.775739" lon="99.854695">
<time>2015-08-06T08:13:43Z</time></trkpt>
<trkpt lat="28.775699" lon="99.854806">
<time>2015-08-06T08:13:44Z</time></trkpt>
<trkpt lat="28.77565" lon="99.854966">
<time>2015-08-06T08:13:45Z</time></trkpt>
<trkpt lat="28.77559" lon="99.855146">
<time>2015-08-06T08:13:46Z</time></trkpt>
<trkpt lat="28.77554" lon="99.855266">
<time>2015-08-06T08:13:47Z</time></trkpt>
<trkpt lat="28.775491" lon="99.855387">
<time>2015-08-06T08:13:48Z</time></trkpt>
<trkpt lat="28.775431" lon="99.855477">
<time>2015-08-06T08:13:49Z</time></trkpt>
<trkpt lat="28.775351" lon="99.855587">
<time>2015-08-06T08:13:50Z</time></trkpt>
<trkpt lat="28.775241" lon="99.855697">
<time>2015-08-06T08:13:51Z</time></trkpt>
<trkpt lat="28.775131" lon="99.855797">
<time>2015-08-06T08:13:52Z</time></trkpt>
<trkpt lat="28.774912" lon="99.855978">
<time>2015-08-06T08:13:53Z</time></trkpt>
<trkpt lat="28.774722" lon="99.856178">
<time>2015-08-06T08:13:54Z</time></trkpt>
<trkpt lat="28.774622" lon="99.856268">
<time>2015-08-06T08:13:55Z</time></trkpt>
<trkpt lat="28.774543" lon="99.856338">
<time>2015-08-06T08:13:56Z</time></trkpt>
<trkpt lat="28.774473" lon="99.856388">
<time>2015-08-06T08:13:57Z</time></trkpt>
<trkpt lat="28.774393" lon="99.856429">
<time>2015-08-06T08:13:58Z</time></trkpt>
<trkpt lat="28.774313" lon="99.856459">
<time>2015-08-06T08:13:59Z</time></trkpt>
<trkpt lat="28.774203" lon="99.856489">
<time>2015-08-06T08:14:00Z</time></trkpt>
<trkpt lat="28.774093" lon="99.856519">
<time>2015-08-06T08:14:01Z</time></trkpt>
<trkpt lat="28.774003" lon="99.856559">
<time>2015-08-06T08:14:02Z</time></trkpt>
<trkpt lat="28.773824" lon="99.856649">
<time>2015-08-06T08:14:03Z</time></trkpt>
<trkpt lat="28.773624" lon="99.856739">
<time>2015-08-06T08:14:04Z</time></trkpt>
<trkpt lat="28.773284" lon="99.856889">
<time>2015-08-06T08:14:05Z</time></trkpt>
<trkpt lat="28.773165" lon="99.856939">
<time>2015-08-06T08:14:06Z</time></trkpt>
<trkpt lat="28.773065" lon="99.856969">
<time>2015-08-06T08:14:07Z</time></trkpt>
<trkpt lat="28.773015" lon="99.85698">
<time>2015-08-06T08:14:08Z</time></trkpt>
<trkpt lat="28.772955" lon="99.85698">
<time>2015-08-06T08:14:09Z</time></trkpt>
<trkpt lat="28.772845" lon="99.85697">
<time>2015-08-06T08:14:10Z</time></trkpt>
<trkpt lat="28.772705" lon="99.856929">
<time>2015-08-06T08:14:11Z</time></trkpt>
<trkpt lat="28.772575" lon="99.856909">
<time>2015-08-06T08:14:12Z</time></trkpt>
<trkpt lat="28.772475" lon="99.856899">
<time>2015-08-06T08:14:13Z</time></trkpt>
<trkpt lat="28.772395" lon="99.856899">
<time>2015-08-06T08:14:14Z</time></trkpt>
<trkpt lat="28.772285" lon="99.856919">
<time>2015-08-06T08:14:15Z</time></trkpt>
<trkpt lat="28.772075" lon="99.85697">
<time>2015-08-06T08:14:16Z</time></trkpt>
<trkpt lat="28.771955" lon="99.857">
<time>2015-08-06T08:14:17Z</time></trkpt>
<trkpt lat="28.771885" lon="99.85702">
<time>2015-08-06T08:14:18Z</time></trkpt>
<trkpt lat="28.771806" lon="99.85702">
<time>2015-08-06T08:14:19Z</time></trkpt>
<trkpt lat="28.771726" lon="99.85702">
<time>2015-08-06T08:14:20Z</time></trkpt>
<trkpt lat="28.771676" lon="99.857">
<time>2015-08-06T08:14:21Z</time></trkpt>
<trkpt lat="28.771596" lon="99.85697">
<time>2015-08-06T08:14:22Z</time></trkpt>
<trkpt lat="28.771406" lon="99.856899">
<time>2015-08-06T08:14:23Z</time></trkpt>
<trkpt lat="28.771206" lon="99.856789">
<time>2015-08-06T08:14:24Z</time></trkpt>
<trkpt lat="28.771066" lon="99.856709">
<time>2015-08-06T08:14:25Z</time></trkpt>
<trkpt lat="28.770976" lon="99.856659">
<time>2015-08-06T08:14:26Z</time></trkpt>
<trkpt lat="28.770926" lon="99.856649">
<time>2015-08-06T08:14:27Z</time></trkpt>
<trkpt lat="28.770846" lon="99.856629">
<time>2015-08-06T08:14:28Z</time></trkpt>
<trkpt lat="28.770746" lon="99.856629">
<time>2015-08-06T08:14:29Z</time></trkpt>
<trkpt lat="28.770596" lon="99.856659">
<time>2015-08-06T08:14:30Z</time></trkpt>
<trkpt lat="28.770396" lon="99.856689">
<time>2015-08-06T08:14:31Z</time></trkpt>
<trkpt lat="28.770226" lon="99.856749">
<time>2015-08-06T08:14:32Z</time></trkpt>
<trkpt lat="28.770086" lon="99.856809">
<time>2015-08-06T08:14:33Z</time></trkpt>
<trkpt lat="28.769827" lon="99.85694">
<time>2015-08-06T08:14:34Z</time></trkpt>
<trkpt lat="28.769747" lon="99.85698">
<time>2015-08-06T08:14:35Z</time></trkpt>
<trkpt lat="28.769657" lon="99.85701">
<time>2015-08-06T08:14:36Z</time></trkpt>
<trkpt lat="28.769457" lon="99.85705">
<time>2015-08-06T08:14:37Z</time></trkpt>
<trkpt lat="28.769237" lon="99.85712">
<time>2015-08-06T08:14:38Z</time></trkpt>
<trkpt lat="28.769167" lon="99.85714">
<time>2015-08-06T08:14:39Z</time></trkpt>
<trkpt lat="28.769008" lon="99.85718">
<time>2015-08-06T08:14:40Z</time></trkpt>
<trkpt lat="28.768578" lon="99.85727">
<time>2015-08-06T08:14:41Z</time></trkpt>
<trkpt lat="28.768288" lon="99.85732">
<time>2015-08-06T08:14:42Z</time></trkpt>
<trkpt lat="28.768158" lon="99.85735">
<time>2015-08-06T08:14:43Z</time></trkpt>
<trkpt lat="28.768069" lon="99.85738">
<time>2015-08-06T08:14:44Z</time></trkpt>
<trkpt lat="28.768009" lon="99.85741">
<time>2015-08-06T08:14:45Z</time></trkpt>
<trkpt lat="28.767859" lon="99.857491">
<time>2015-08-06T08:14:46Z</time></trkpt>
<trkpt lat="28.767529" lon="99.857711">
<time>2015-08-06T08:14:47Z</time></trkpt>
<trkpt lat="28.7674" lon="99.857781">
<time>2015-08-06T08:14:48Z</time></trkpt>
<trkpt lat="28.76729" lon="99.857851">
<time>2015-08-06T08:14:49Z</time></trkpt>
<trkpt lat="28.76721" lon="99.857881">
<time>2015-08-06T08:14:50Z</time></trkpt>
<trkpt lat="28.76706" lon="99.857941">
<time>2015-08-06T08:14:51Z</time></trkpt>
<trkpt lat="28.76697" lon="99.857981">
<time>2015-08-06T08:14:52Z</time></trkpt>
<trkpt lat="28.76691" lon="99.858021">
<time>2015-08-06T08:14:53Z</time></trkpt>
<trkpt lat="28.766801" lon="99.858102">
<time>2015-08-06T08:14:54Z</time></trkpt>
<trkpt lat="28.766591" lon="99.858262">
<time>2015-08-06T08:14:55Z</time></trkpt>
<trkpt lat="28.766511" lon="99.858312">
<time>2015-08-06T08:14:56Z</time></trkpt>
<trkpt lat="28.766451" lon="99.858332">
<time>2015-08-06T08:14:57Z</time></trkpt>
<trkpt lat="28.766351" lon="99.858352">
<time>2015-08-06T08:14:58Z</time></trkpt>
<trkpt lat="28.766281" lon="99.858352">
<time>2015-08-06T08:14:59Z</time></trkpt>
<trkpt lat="28.766221" lon="99.858342">
<time>2015-08-06T08:15:00Z</time></trkpt>
<trkpt lat="28.766181" lon="99.858332">
<time>2015-08-06T08:15:01Z</time></trkpt>
<trkpt lat="28.766131" lon="99.858322">
<time>2015-08-06T08:15:02Z</time></trkpt>
<trkpt lat="28.766061" lon="99.858292">
<time>2015-08-06T08:15:03Z</time></trkpt>
<trkpt lat="28.766001" lon="99.858272">
<time>2015-08-06T08:15:04Z</time></trkpt>
<trkpt lat="28.765911" lon="99.858262">
<time>2015-08-06T08:15:05Z</time></trkpt>
<trkpt lat="28.765781" lon="99.858252">
<time>2015-08-06T08:15:06Z</time></trkpt>
<trkpt lat="28.765612" lon="99.858242">
<time>2015-08-06T08:15:07Z</time></trkpt>
<trkpt lat="28.765532" lon="99.858252">
<time>2015-08-06T08:15:08Z</time></trkpt>
<trkpt lat="28.765452" lon="99.858272">
<time>2015-08-06T08:15:09Z</time></trkpt>
<trkpt lat="28.765392" lon="99.858292">
<time>2015-08-06T08:15:10Z</time></trkpt>
<trkpt lat="28.765352" lon="99.858312">
<time>2015-08-06T08:15:11Z</time></trkpt>
<trkpt lat="28.765312" lon="99.858342">
<time>2015-08-06T08:15:12Z</time></trkpt>
<trkpt lat="28.765262" lon="99.858392">
<time>2015-08-06T08:15:13Z</time></trkpt>
<trkpt lat="28.765202" lon="99.858452">
<time>2015-08-06T08:15:14Z</time></trkpt>
<trkpt lat="28.765112" lon="99.858592">
<time>2015-08-06T08:15:15Z</time></trkpt>
<trkpt lat="28.764913" lon="99.858883">
<time>2015-08-06T08:15:16Z</time></trkpt>
<trkpt lat="28.764793" lon="99.859033">
<time>2015-08-06T08:15:17Z</time></trkpt>
<trkpt lat="28.764733" lon="99.859103">
<time>2015-08-06T08:15:18Z</time></trkpt>
<trkpt lat="28.764694" lon="99.859133">
<time>2015-08-06T08:15:19Z</time></trkpt>
<trkpt lat="28.764654" lon="99.859143">
<time>2015-08-06T08:15:20Z</time></trkpt>
<trkpt lat="28.764614" lon="99.859153">
<time>2015-08-06T08:15:21Z</time></trkpt>
<trkpt lat="28.764564" lon="99.859153">
<time>2015-08-06T08:15:22Z</time></trkpt>
<trkpt lat="28.764534" lon="99.859143">
<time>2015-08-06T08:15:23Z</time></trkpt>
<trkpt lat="28.764504" lon="99.859123">
<time>2015-08-06T08:15:24Z</time></trkpt>
<trkpt lat="28.764484" lon="99.859113">
<time>2015-08-06T08:15:25Z</time></trkpt>
<trkpt lat="28.764464" lon="99.859083">
<time>2015-08-06T08:15:26Z</time></trkpt>
<trkpt lat="28.764444" lon="99.859053">
<time>2015-08-06T08:15:27Z</time></trkpt>
<trkpt lat="28.764434" lon="99.859023">
<time>2015-08-06T08:15:28Z</time></trkpt>
<trkpt lat="28.764423" lon="99.858963">
<time>2015-08-06T08:15:29Z</time></trkpt>
<trkpt lat="28.764413" lon="99.858893">
<time>2015-08-06T08:15:30Z</time></trkpt>
<trkpt lat="28.764393" lon="99.858723">
<time>2015-08-06T08:15:31Z</time></trkpt>
<trkpt lat="28.764373" lon="99.858633">
<time>2015-08-06T08:15:32Z</time></trkpt>
<trkpt lat="28.764353" lon="99.858552">
<time>2015-08-06T08:15:33Z</time></trkpt>
<trkpt lat="28.764323" lon="99.858492">
<time>2015-08-06T08:15:34Z</time></trkpt>
<trkpt lat="28.764303" lon="99.858442">
<time>2015-08-06T08:15:35Z</time></trkpt>
<trkpt lat="28.764142" lon="99.858172">
<time>2015-08-06T08:15:36Z</time></trkpt>
<trkpt lat="28.764052" lon="99.858022">
<time>2015-08-06T08:15:37Z</time></trkpt>
<trkpt lat="28.764012" lon="99.857941">
<time>2015-08-06T08:15:38Z</time></trkpt>
<trkpt lat="28.763972" lon="99.857821">
<time>2015-08-06T08:15:39Z</time></trkpt>
<trkpt lat="28.763922" lon="99.857701">
<time>2015-08-06T08:15:40Z</time></trkpt>
<trkpt lat="28.763882" lon="99.857621">
<time>2015-08-06T08:15:41Z</time></trkpt>
<trkpt lat="28.763832" lon="99.857551">
<time>2015-08-06T08:15:42Z</time></trkpt>
<trkpt lat="28.763722" lon="99.857431">
<time>2015-08-06T08:15:43Z</time></trkpt>
<trkpt lat="28.763571" lon="99.85725">
<time>2015-08-06T08:15:44Z</time></trkpt>
<trkpt lat="28.763421" lon="99.85703">
<time>2015-08-06T08:15:45Z</time></trkpt>
<trkpt lat="28.763291" lon="99.856819">
<time>2015-08-06T08:15:46Z</time></trkpt>
<trkpt lat="28.763221" lon="99.856729">
<time>2015-08-06T08:15:47Z</time></trkpt>
<trkpt lat="28.763171" lon="99.856659">
<time>2015-08-06T08:15:48Z</time></trkpt>
<trkpt lat="28.763091" lon="99.856569">
<time>2015-08-06T08:15:49Z</time></trkpt>
<trkpt lat="28.762961" lon="99.856439">
<time>2015-08-06T08:15:50Z</time></trkpt>
<trkpt lat="28.76284" lon="99.856329">
<time>2015-08-06T08:15:51Z</time></trkpt>
<trkpt lat="28.76276" lon="99.856248">
<time>2015-08-06T08:15:52Z</time></trkpt>
<trkpt lat="28.7627" lon="99.856178">
<time>2015-08-06T08:15:53Z</time></trkpt>
<trkpt lat="28.76267" lon="99.856138">
<time>2015-08-06T08:15:54Z</time></trkpt>
<trkpt lat="28.76263" lon="99.856078">
<time>2015-08-06T08:15:55Z</time></trkpt>
<trkpt lat="28.7626" lon="99.856018">
<time>2015-08-06T08:15:56Z</time></trkpt>
<trkpt lat="28.76256" lon="99.855938">
<time>2015-08-06T08:15:57Z</time></trkpt>
<trkpt lat="28.76251" lon="99.855848">
<time>2015-08-06T08:15:58Z</time></trkpt>
<trkpt lat="28.76246" lon="99.855768">
<time>2015-08-06T08:15:59Z</time></trkpt>
<trkpt lat="28.7624" lon="99.855667">
<time>2015-08-06T08:16:00Z</time></trkpt>
<trkpt lat="28.76229" lon="99.855537">
<time>2015-08-06T08:16:01Z</time></trkpt>
<trkpt lat="28.762159" lon="99.855347">
<time>2015-08-06T08:16:02Z</time></trkpt>
<trkpt lat="28.762079" lon="99.855227">
<time>2015-08-06T08:16:03Z</time></trkpt>
<trkpt lat="28.762009" lon="99.855117">
<time>2015-08-06T08:16:04Z</time></trkpt>
<trkpt lat="28.761939" lon="99.855036">
<time>2015-08-06T08:16:05Z</time></trkpt>
<trkpt lat="28.761889" lon="99.854976">
<time>2015-08-06T08:16:06Z</time></trkpt>
<trkpt lat="28.761839" lon="99.854926">
<time>2015-08-06T08:16:07Z</time></trkpt>
<trkpt lat="28.761709" lon="99.854826">
<time>2015-08-06T08:16:08Z</time></trkpt>
<trkpt lat="28.761489" lon="99.854656">
<time>2015-08-06T08:16:09Z</time></trkpt>
<trkpt lat="28.761359" lon="99.854556">
<time>2015-08-06T08:16:10Z</time></trkpt>
<trkpt lat="28.761239" lon="99.854455">
<time>2015-08-06T08:16:11Z</time></trkpt>
<trkpt lat="28.761149" lon="99.854395">
<time>2015-08-06T08:16:12Z</time></trkpt>
<trkpt lat="28.761069" lon="99.854355">
<time>2015-08-06T08:16:13Z</time></trkpt>
<trkpt lat="28.760989" lon="99.854335">
<time>2015-08-06T08:16:14Z</time></trkpt>
<trkpt lat="28.760839" lon="99.854295">
<time>2015-08-06T08:16:15Z</time></trkpt>
<trkpt lat="28.760609" lon="99.854235">
<time>2015-08-06T08:16:16Z</time></trkpt>
<trkpt lat="28.760449" lon="99.854185">
<time>2015-08-06T08:16:17Z</time></trkpt>
<trkpt lat="28.760319" lon="99.854155">
<time>2015-08-06T08:16:18Z</time></trkpt>
<trkpt lat="28.760149" lon="99.854135">
<time>2015-08-06T08:16:19Z</time></trkpt>
<trkpt lat="28.759969" lon="99.854115">
<time>2015-08-06T08:16:20Z</time></trkpt>
<trkpt lat="28.759899" lon="99.854105">
<time>2015-08-06T08:16:21Z</time></trkpt>
<trkpt lat="28.759829" lon="99.854085">
<time>2015-08-06T08:16:22Z</time></trkpt>
<trkpt lat="28.759729" lon="99.854065">
<time>2015-08-06T08:16:23Z</time></trkpt>
<trkpt lat="28.759679" lon="99.854045">
<time>2015-08-06T08:16:24Z</time></trkpt>
<trkpt lat="28.759549" lon="99.853995">
<time>2015-08-06T08:16:25Z</time></trkpt>
<trkpt lat="28.759459" lon="99.853965">
<time>2015-08-06T08:16:26Z</time></trkpt>
<trkpt lat="28.759399" lon="99.853944">
<time>2015-08-06T08:16:27Z</time></trkpt>
<trkpt lat="28.759349" lon="99.853934">
<time>2015-08-06T08:16:28Z</time></trkpt>
<trkpt lat="28.759279" lon="99.853924">
<time>2015-08-06T08:16:29Z</time></trkpt>
<trkpt lat="28.759089" lon="99.853934">
<time>2015-08-06T08:16:30Z</time></trkpt>
<trkpt lat="28.758909" lon="99.853934">
<time>2015-08-06T08:16:31Z</time></trkpt>
<trkpt lat="28.758749" lon="99.853914">
<time>2015-08-06T08:16:32Z</time></trkpt>
<trkpt lat="28.758529" lon="99.853894">
<time>2015-08-06T08:16:33Z</time></trkpt>
<trkpt lat="28.75845" lon="99.853884">
<time>2015-08-06T08:16:34Z</time></trkpt>
<trkpt lat="28.75839" lon="99.853864">
<time>2015-08-06T08:16:35Z</time></trkpt>
<trkpt lat="28.75832" lon="99.853834">
<time>2015-08-06T08:16:36Z</time></trkpt>
<trkpt lat="28.758249" lon="99.853794">
<time>2015-08-06T08:16:37Z</time></trkpt>
<trkpt lat="28.758169" lon="99.853744">
<time>2015-08-06T08:16:38Z</time></trkpt>
<trkpt lat="28.758079" lon="99.853684">
<time>2015-08-06T08:16:39Z</time></trkpt>
<trkpt lat="28.757889" lon="99.853544">
<time>2015-08-06T08:16:40Z</time></trkpt>
<trkpt lat="28.757679" lon="99.853384">
<time>2015-08-06T08:16:41Z</time></trkpt>
<trkpt lat="28.757569" lon="99.853313">
<time>2015-08-06T08:16:42Z</time></trkpt>
<trkpt lat="28.757429" lon="99.853233">
<time>2015-08-06T08:16:43Z</time></trkpt>
<trkpt lat="28.757269" lon="99.853153">
<time>2015-08-06T08:16:44Z</time></trkpt>
<trkpt lat="28.757149" lon="99.853103">
<time>2015-08-06T08:16:45Z</time></trkpt>
<trkpt lat="28.757009" lon="99.853053">
<time>2015-08-06T08:16:46Z</time></trkpt>
<trkpt lat="28.756869" lon="99.853013">
<time>2015-08-06T08:16:47Z</time></trkpt>
<trkpt lat="28.756689" lon="99.852983">
<time>2015-08-06T08:16:48Z</time></trkpt>
<trkpt lat="28.756539" lon="99.852983">
<time>2015-08-06T08:16:49Z</time></trkpt>
<trkpt lat="28.756399" lon="99.852963">
<time>2015-08-06T08:16:50Z</time></trkpt>
<trkpt lat="28.756319" lon="99.852953">
<time>2015-08-06T08:16:51Z</time></trkpt>
<trkpt lat="28.756249" lon="99.852923">
<time>2015-08-06T08:16:52Z</time></trkpt>
<trkpt lat="28.756199" lon="99.852893">
<time>2015-08-06T08:16:53Z</time></trkpt>
<trkpt lat="28.756149" lon="99.852853">
<time>2015-08-06T08:16:54Z</time></trkpt>
<trkpt lat="28.756099" lon="99.852813">
<time>2015-08-06T08:16:55Z</time></trkpt>
<trkpt lat="28.756039" lon="99.852762">
<time>2015-08-06T08:16:56Z</time></trkpt>
<trkpt lat="28.755789" lon="99.852602">
<time>2015-08-06T08:16:57Z</time></trkpt>
<trkpt lat="28.755599" lon="99.852462">
<time>2015-08-06T08:16:58Z</time></trkpt>
<trkpt lat="28.755509" lon="99.852422">
<time>2015-08-06T08:16:59Z</time></trkpt>
<trkpt lat="28.755449" lon="99.852392">
<time>2015-08-06T08:17:00Z</time></trkpt>
<trkpt lat="28.755379" lon="99.852362">
<time>2015-08-06T08:17:01Z</time></trkpt>
<trkpt lat="28.755289" lon="99.852342">
<time>2015-08-06T08:17:02Z</time></trkpt>
<trkpt lat="28.755109" lon="99.852312">
<time>2015-08-06T08:17:03Z</time></trkpt>
<trkpt lat="28.754929" lon="99.852302">
<time>2015-08-06T08:17:04Z</time></trkpt>
<trkpt lat="28.754769" lon="99.852302">
<time>2015-08-06T08:17:05Z</time></trkpt>
<trkpt lat="28.754639" lon="99.852312">
<time>2015-08-06T08:17:06Z</time></trkpt>
<trkpt lat="28.75453" lon="99.852322">
<time>2015-08-06T08:17:07Z</time></trkpt>
<trkpt lat="28.75446" lon="99.852322">
<time>2015-08-06T08:17:08Z</time></trkpt>
<trkpt lat="28.75441" lon="99.852312">
<time>2015-08-06T08:17:09Z</time></trkpt>
<trkpt lat="28.75436" lon="99.852302">
<time>2015-08-06T08:17:10Z</time></trkpt>
<trkpt lat="28.75433" lon="99.852292">
<time>2015-08-06T08:17:11Z</time></trkpt>
<trkpt lat="28.75431" lon="99.852272">
<time>2015-08-06T08:17:12Z</time></trkpt>
<trkpt lat="28.75427" lon="99.852231">
<time>2015-08-06T08:17:13Z</time></trkpt>
<trkpt lat="28.75421" lon="99.852161">
<time>2015-08-06T08:17:14Z</time></trkpt>
<trkpt lat="28.754139" lon="99.852081">
<time>2015-08-06T08:17:15Z</time></trkpt>
<trkpt lat="28.754079" lon="99.852021">
<time>2015-08-06T08:17:16Z</time></trkpt>
<trkpt lat="28.753999" lon="99.851971">
<time>2015-08-06T08:17:17Z</time></trkpt>
<trkpt lat="28.753859" lon="99.851871">
<time>2015-08-06T08:17:18Z</time></trkpt>
<trkpt lat="28.753589" lon="99.851711">
<time>2015-08-06T08:17:19Z</time></trkpt>
<trkpt lat="28.753479" lon="99.85165">
<time>2015-08-06T08:17:20Z</time></trkpt>
<trkpt lat="28.753359" lon="99.85159">
<time>2015-08-06T08:17:21Z</time></trkpt>
<trkpt lat="28.753219" lon="99.85154">
<time>2015-08-06T08:17:22Z</time></trkpt>
<trkpt lat="28.753149" lon="99.8515">
<time>2015-08-06T08:17:23Z</time></trkpt>
<trkpt lat="28.753059" lon="99.85145">
<time>2015-08-06T08:17:24Z</time></trkpt>
<trkpt lat="28.752999" lon="99.85141">
<time>2015-08-06T08:17:25Z</time></trkpt>
<trkpt lat="28.752959" lon="99.85137">
<time>2015-08-06T08:17:26Z</time></trkpt>
<trkpt lat="28.752889" lon="99.85129">
<time>2015-08-06T08:17:27Z</time></trkpt>
<trkpt lat="28.752849" lon="99.85124">
<time>2015-08-06T08:17:28Z</time></trkpt>
<trkpt lat="28.752809" lon="99.85119">
<time>2015-08-06T08:17:29Z</time></trkpt>
<trkpt lat="28.752759" lon="99.851109">
<time>2015-08-06T08:17:30Z</time></trkpt>
<trkpt lat="28.752719" lon="99.851019">
<time>2015-08-06T08:17:31Z</time></trkpt>
<trkpt lat="28.752608" lon="99.850799">
<time>2015-08-06T08:17:32Z</time></trkpt>
<trkpt lat="28.752548" lon="99.850689">
<time>2015-08-06T08:17:33Z</time></trkpt>
<trkpt lat="28.752518" lon="99.850629">
<time>2015-08-06T08:17:34Z</time></trkpt>
<trkpt lat="28.752478" lon="99.850599">
<time>2015-08-06T08:17:35Z</time></trkpt>
<trkpt lat="28.752448" lon="99.850568">
<time>2015-08-06T08:17:36Z</time></trkpt>
<trkpt lat="28.752408" lon="99.850548">
<time>2015-08-06T08:17:37Z</time></trkpt>
<trkpt lat="28.752308" lon="99.850508">
<time>2015-08-06T08:17:38Z</time></trkpt>
<trkpt lat="28.752148" lon="99.850438">
<time>2015-08-06T08:17:39Z</time></trkpt>
<trkpt lat="28.751988" lon="99.850368">
<time>2015-08-06T08:17:40Z</time></trkpt>
<trkpt lat="28.751828" lon="99.850288">
<time>2015-08-06T08:17:41Z</time></trkpt>
<trkpt lat="28.751768" lon="99.850268">
<time>2015-08-06T08:17:42Z</time></trkpt>
<trkpt lat="28.751718" lon="99.850248">
<time>2015-08-06T08:17:43Z</time></trkpt>
<trkpt lat="28.751658" lon="99.850238">
<time>2015-08-06T08:17:44Z</time></trkpt>
<trkpt lat="28.751598" lon="99.850228">
<time>2015-08-06T08:17:45Z</time></trkpt>
<trkpt lat="28.751528" lon="99.850228">
<time>2015-08-06T08:17:46Z</time></trkpt>
<trkpt lat="28.751318" lon="99.850218">
<time>2015-08-06T08:17:47Z</time></trkpt>
<trkpt lat="28.751238" lon="99.850218">
<time>2015-08-06T08:17:48Z</time></trkpt>
<trkpt lat="28.751178" lon="99.850208">
<time>2015-08-06T08:17:49Z</time></trkpt>
<trkpt lat="28.751138" lon="99.850198">
<time>2015-08-06T08:17:50Z</time></trkpt>
<trkpt lat="28.751098" lon="99.850178">
<time>2015-08-06T08:17:51Z</time></trkpt>
<trkpt lat="28.751058" lon="99.850158">
<time>2015-08-06T08:17:52Z</time></trkpt>
<trkpt lat="28.751018" lon="99.850128">
<time>2015-08-06T08:17:53Z</time></trkpt>
<trkpt lat="28.750948" lon="99.850078">
<time>2015-08-06T08:17:54Z</time></trkpt>
<trkpt lat="28.750888" lon="99.850048">
<time>2015-08-06T08:17:55Z</time></trkpt>
<trkpt lat="28.750848" lon="99.850037">
<time>2015-08-06T08:17:56Z</time></trkpt>
<trkpt lat="28.750788" lon="99.850027">
<time>2015-08-06T08:17:57Z</time></trkpt>
<trkpt lat="28.750718" lon="99.850037">
<time>2015-08-06T08:17:58Z</time></trkpt>
<trkpt lat="28.750628" lon="99.850048">
<time>2015-08-06T08:17:59Z</time></trkpt>
<trkpt lat="28.750498" lon="99.850058">
<time>2015-08-06T08:18:00Z</time></trkpt>
<trkpt lat="28.750418" lon="99.850048">
<time>2015-08-06T08:18:01Z</time></trkpt>
<trkpt lat="28.750348" lon="99.850038">
<time>2015-08-06T08:18:02Z</time></trkpt>
<trkpt lat="28.750279" lon="99.850017">
<time>2015-08-06T08:18:03Z</time></trkpt>
<trkpt lat="28.750199" lon="99.849987">
<time>2015-08-06T08:18:04Z</time></trkpt>
<trkpt lat="28.750129" lon="99.849967">
<time>2015-08-06T08:18:05Z</time></trkpt>
<trkpt lat="28.750049" lon="99.849927">
<time>2015-08-06T08:18:06Z</time></trkpt>
<trkpt lat="28.749968" lon="99.849887">
<time>2015-08-06T08:18:07Z</time></trkpt>
<trkpt lat="28.749818" lon="99.849797">
<time>2015-08-06T08:18:08Z</time></trkpt>
<trkpt lat="28.749728" lon="99.849787">
<time>2015-08-06T08:18:09Z</time></trkpt>
<trkpt lat="28.749639" lon="99.849817">
<time>2015-08-06T08:18:10Z</time></trkpt>
<trkpt lat="28.749449" lon="99.849897">
<time>2015-08-06T08:18:11Z</time></trkpt>
<trkpt lat="28.749349" lon="99.849907">
<time>2015-08-06T08:18:12Z</time></trkpt>
<trkpt lat="28.749299" lon="99.849887">
<time>2015-08-06T08:18:13Z</time></trkpt>
<trkpt lat="28.749209" lon="99.849837">
<time>2015-08-06T08:18:14Z</time></trkpt>
<trkpt lat="28.749029" lon="99.849687">
<time>2015-08-06T08:18:15Z</time></trkpt>
<trkpt lat="28.748949" lon="99.849657">
<time>2015-08-06T08:18:16Z</time></trkpt>
<trkpt lat="28.748869" lon="99.849657">
<time>2015-08-06T08:18:17Z</time></trkpt>
<trkpt lat="28.748799" lon="99.849657">
<time>2015-08-06T08:18:18Z</time></trkpt>
<trkpt lat="28.748749" lon="99.849677">
<time>2015-08-06T08:18:19Z</time></trkpt>
<trkpt lat="28.748619" lon="99.849737">
<time>2015-08-06T08:18:20Z</time></trkpt>
<trkpt lat="28.748439" lon="99.849827">
<time>2015-08-06T08:18:21Z</time></trkpt>
<trkpt lat="28.748359" lon="99.849847">
<time>2015-08-06T08:18:22Z</time></trkpt>
<trkpt lat="28.74827" lon="99.849877">
<time>2015-08-06T08:18:23Z</time></trkpt>
<trkpt lat="28.74817" lon="99.849877">
<time>2015-08-06T08:18:24Z</time></trkpt>
<trkpt lat="28.74809" lon="99.849857">
<time>2015-08-06T08:18:25Z</time></trkpt>
<trkpt lat="28.74799" lon="99.849817">
<time>2015-08-06T08:18:26Z</time></trkpt>
<trkpt lat="28.74785" lon="99.849737">
<time>2015-08-06T08:18:27Z</time></trkpt>
<trkpt lat="28.74764" lon="99.849587">
<time>2015-08-06T08:18:28Z</time></trkpt>
<trkpt lat="28.747429" lon="99.849446">
<time>2015-08-06T08:18:29Z</time></trkpt>
<trkpt lat="28.747339" lon="99.849346">
<time>2015-08-06T08:18:30Z</time></trkpt>
<trkpt lat="28.747299" lon="99.849266">
<time>2015-08-06T08:18:31Z</time></trkpt>
<trkpt lat="28.747259" lon="99.849136">
<time>2015-08-06T08:18:32Z</time></trkpt>
<trkpt lat="28.747239" lon="99.849046">
<time>2015-08-06T08:18:33Z</time></trkpt>
<trkpt lat="28.747179" lon="99.848925">
<time>2015-08-06T08:18:34Z</time></trkpt>
<trkpt lat="28.747129" lon="99.848865">
<time>2015-08-06T08:18:35Z</time></trkpt>
<trkpt lat="28.747039" lon="99.848815">
<time>2015-08-06T08:18:36Z</time></trkpt>
<trkpt lat="28.746819" lon="99.848695">
<time>2015-08-06T08:18:37Z</time></trkpt>
<trkpt lat="28.746719" lon="99.848695">
<time>2015-08-06T08:18:38Z</time></trkpt>
<trkpt lat="28.746619" lon="99.848725">
<time>2015-08-06T08:18:39Z</time></trkpt>
<trkpt lat="28.746509" lon="99.848765">
<time>2015-08-06T08:18:40Z</time></trkpt>
<trkpt lat="28.746339" lon="99.848895">
<time>2015-08-06T08:18:41Z</time></trkpt>
<trkpt lat="28.746199" lon="99.848976">
<time>2015-08-06T08:18:42Z</time></trkpt>
<trkpt lat="28.74607" lon="99.849006">
<time>2015-08-06T08:18:43Z</time></trkpt>
<trkpt lat="28.74596" lon="99.849016">
<time>2015-08-06T08:18:44Z</time></trkpt>
<trkpt lat="28.74569" lon="99.849046">
<time>2015-08-06T08:18:45Z</time></trkpt>
<trkpt lat="28.74557" lon="99.849066">
<time>2015-08-06T08:18:46Z</time></trkpt>
<trkpt lat="28.7455" lon="99.849066">
<time>2015-08-06T08:18:47Z</time></trkpt>
<trkpt lat="28.74544" lon="99.849046">
<time>2015-08-06T08:18:48Z</time></trkpt>
<trkpt lat="28.74538" lon="99.848996">
<time>2015-08-06T08:18:49Z</time></trkpt>
<trkpt lat="28.74531" lon="99.848875">
<time>2015-08-06T08:18:50Z</time></trkpt>
<trkpt lat="28.74525" lon="99.848765">
<time>2015-08-06T08:18:51Z</time></trkpt>
<trkpt lat="28.745169" lon="99.848635">
<time>2015-08-06T08:18:52Z</time></trkpt>
<trkpt lat="28.744949" lon="99.848415">
<time>2015-08-06T08:18:53Z</time></trkpt>
<trkpt lat="28.744569" lon="99.848114">
<time>2015-08-06T08:18:54Z</time></trkpt>
<trkpt lat="28.744339" lon="99.848004">
<time>2015-08-06T08:18:55Z</time></trkpt>
<trkpt lat="28.744239" lon="99.847954">
<time>2015-08-06T08:18:56Z</time></trkpt>
<trkpt lat="28.744169" lon="99.847904">
<time>2015-08-06T08:18:57Z</time></trkpt>
<trkpt lat="28.744139" lon="99.847864">
<time>2015-08-06T08:18:58Z</time></trkpt>
<trkpt lat="28.744099" lon="99.847793">
<time>2015-08-06T08:18:59Z</time></trkpt>
<trkpt lat="28.744028" lon="99.847553">
<time>2015-08-06T08:19:00Z</time></trkpt>
<trkpt lat="28.743827" lon="99.846811">
<time>2015-08-06T08:19:01Z</time></trkpt>
<trkpt lat="28.743777" lon="99.846681">
<time>2015-08-06T08:19:02Z</time></trkpt>
<trkpt lat="28.743717" lon="99.846571">
<time>2015-08-06T08:19:03Z</time></trkpt>
<trkpt lat="28.743647" lon="99.846501">
<time>2015-08-06T08:19:04Z</time></trkpt>
<trkpt lat="28.743567" lon="99.846451">
<time>2015-08-06T08:19:05Z</time></trkpt>
<trkpt lat="28.743397" lon="99.846421">
<time>2015-08-06T08:19:06Z</time></trkpt>
<trkpt lat="28.743267" lon="99.846421">
<time>2015-08-06T08:19:07Z</time></trkpt>
<trkpt lat="28.743157" lon="99.846401">
<time>2015-08-06T08:19:08Z</time></trkpt>
<trkpt lat="28.743097" lon="99.846351">
<time>2015-08-06T08:19:09Z</time></trkpt>
<trkpt lat="28.743017" lon="99.84623">
<time>2015-08-06T08:19:10Z</time></trkpt>
<trkpt lat="28.742776" lon="99.845449">
<time>2015-08-06T08:19:11Z</time></trkpt>
<trkpt lat="28.742705" lon="99.845339">
<time>2015-08-06T08:19:12Z</time></trkpt>
<trkpt lat="28.742625" lon="99.845269">
<time>2015-08-06T08:19:13Z</time></trkpt>
<trkpt lat="28.742445" lon="99.845128">
<time>2015-08-06T08:19:14Z</time></trkpt>
<trkpt lat="28.742385" lon="99.845058">
<time>2015-08-06T08:19:15Z</time></trkpt>
<trkpt lat="28.742315" lon="99.844938">
<time>2015-08-06T08:19:16Z</time></trkpt>
<trkpt lat="28.742124" lon="99.844537">
<time>2015-08-06T08:19:17Z</time></trkpt>
<trkpt lat="28.741643" lon="99.843535">
<time>2015-08-06T08:19:18Z</time></trkpt>
<trkpt lat="28.741583" lon="99.843425">
<time>2015-08-06T08:19:19Z</time></trkpt>
<trkpt lat="28.741493" lon="99.843305">
<time>2015-08-06T08:19:20Z</time></trkpt>
<trkpt lat="28.741372" lon="99.843224">
<time>2015-08-06T08:19:21Z</time></trkpt>
<trkpt lat="28.741243" lon="99.843194">
<time>2015-08-06T08:19:22Z</time></trkpt>
<trkpt lat="28.741043" lon="99.843204">
<time>2015-08-06T08:19:23Z</time></trkpt>
<trkpt lat="28.740733" lon="99.843224">
<time>2015-08-06T08:19:24Z</time></trkpt>
<trkpt lat="28.740633" lon="99.843224">
<time>2015-08-06T08:19:25Z</time></trkpt>
<trkpt lat="28.740533" lon="99.843184">
<time>2015-08-06T08:19:26Z</time></trkpt>
<trkpt lat="28.740413" lon="99.843114">
<time>2015-08-06T08:19:27Z</time></trkpt>
<trkpt lat="28.740353" lon="99.843054">
<time>2015-08-06T08:19:28Z</time></trkpt>
<trkpt lat="28.740263" lon="99.842964">
<time>2015-08-06T08:19:29Z</time></trkpt>
<trkpt lat="28.740193" lon="99.842864">
<time>2015-08-06T08:19:30Z</time></trkpt>
<trkpt lat="28.740112" lon="99.842693">
<time>2015-08-06T08:19:31Z</time></trkpt>
<trkpt lat="28.740062" lon="99.842583">
<time>2015-08-06T08:19:32Z</time></trkpt>
<trkpt lat="28.739982" lon="99.842463">
<time>2015-08-06T08:19:33Z</time></trkpt>
<trkpt lat="28.739882" lon="99.842363">
<time>2015-08-06T08:19:34Z</time></trkpt>
<trkpt lat="28.739562" lon="99.842152">
<time>2015-08-06T08:19:35Z</time></trkpt>
<trkpt lat="28.739322" lon="99.841992">
<time>2015-08-06T08:19:36Z</time></trkpt>
<trkpt lat="28.739182" lon="99.841962">
<time>2015-08-06T08:19:37Z</time></trkpt>
<trkpt lat="28.738902" lon="99.841922">
<time>2015-08-06T08:19:38Z</time></trkpt>
<trkpt lat="28.738622" lon="99.841862">
<time>2015-08-06T08:19:39Z</time></trkpt>
<trkpt lat="28.738252" lon="99.841732">
<time>2015-08-06T08:19:40Z</time></trkpt>
<trkpt lat="28.738162" lon="99.841722">
<time>2015-08-06T08:19:41Z</time></trkpt>
<trkpt lat="28.738062" lon="99.841742">
<time>2015-08-06T08:19:42Z</time></trkpt>
<trkpt lat="28.737932" lon="99.841792">
<time>2015-08-06T08:19:43Z</time></trkpt>
<trkpt lat="28.737733" lon="99.841942">
<time>2015-08-06T08:19:44Z</time></trkpt>
<trkpt lat="28.737433" lon="99.842233">
<time>2015-08-06T08:19:45Z</time></trkpt>
<trkpt lat="28.737174" lon="99.842483">
<time>2015-08-06T08:19:46Z</time></trkpt>
<trkpt lat="28.737074" lon="99.842533">
<time>2015-08-06T08:19:47Z</time></trkpt>
<trkpt lat="28.736984" lon="99.842573">
<time>2015-08-06T08:19:48Z</time></trkpt>
<trkpt lat="28.736904" lon="99.842583">
<time>2015-08-06T08:19:49Z</time></trkpt>
<trkpt lat="28.736784" lon="99.842553">
<time>2015-08-06T08:19:50Z</time></trkpt>
<trkpt lat="28.736444" lon="99.842393">
<time>2015-08-06T08:19:51Z</time></trkpt>
<trkpt lat="28.735884" lon="99.842213">
<time>2015-08-06T08:19:52Z</time></trkpt>
<trkpt lat="28.735564" lon="99.842152">
<time>2015-08-06T08:19:53Z</time></trkpt>
<trkpt lat="28.735404" lon="99.842092">
<time>2015-08-06T08:19:54Z</time></trkpt>
<trkpt lat="28.735264" lon="99.842012">
<time>2015-08-06T08:19:55Z</time></trkpt>
<trkpt lat="28.735074" lon="99.841902">
<time>2015-08-06T08:19:56Z</time></trkpt>
<trkpt lat="28.734904" lon="99.841832">
<time>2015-08-06T08:19:57Z</time></trkpt>
<trkpt lat="28.734744" lon="99.841792">
<time>2015-08-06T08:19:58Z</time></trkpt>
<trkpt lat="28.734584" lon="99.841772">
<time>2015-08-06T08:19:59Z</time></trkpt>
<trkpt lat="28.734514" lon="99.841762">
<time>2015-08-06T08:20:00Z</time></trkpt>
<trkpt lat="28.734424" lon="99.841752">
<time>2015-08-06T08:20:01Z</time></trkpt>
<trkpt lat="28.734194" lon="99.841652">
<time>2015-08-06T08:20:02Z</time></trkpt>
<trkpt lat="28.734034" lon="99.841591">
<time>2015-08-06T08:20:03Z</time></trkpt>
<trkpt lat="28.733834" lon="99.841571">
<time>2015-08-06T08:20:04Z</time></trkpt>
<trkpt lat="28.733155" lon="99.841631">
<time>2015-08-06T08:20:05Z</time></trkpt>
<trkpt lat="28.732905" lon="99.841702">
<time>2015-08-06T08:20:06Z</time></trkpt>
<trkpt lat="28.732686" lon="99.841842">
<time>2015-08-06T08:20:07Z</time></trkpt>
<trkpt lat="28.732586" lon="99.841912">
<time>2015-08-06T08:20:08Z</time></trkpt>
<trkpt lat="28.732466" lon="99.842022">
<time>2015-08-06T08:20:09Z</time></trkpt>
<trkpt lat="28.732366" lon="99.842173">
<time>2015-08-06T08:20:10Z</time></trkpt>
<trkpt lat="28.732187" lon="99.842483">
<time>2015-08-06T08:20:11Z</time></trkpt>
<trkpt lat="28.731759" lon="99.843235">
<time>2015-08-06T08:20:12Z</time></trkpt>
<trkpt lat="28.731639" lon="99.843395">
<time>2015-08-06T08:20:13Z</time></trkpt>
<trkpt lat="28.731539" lon="99.843505">
<time>2015-08-06T08:20:14Z</time></trkpt>
<trkpt lat="28.731439" lon="99.843595">
<time>2015-08-06T08:20:15Z</time></trkpt>
<trkpt lat="28.73137" lon="99.843676">
<time>2015-08-06T08:20:16Z</time></trkpt>
<trkpt lat="28.73131" lon="99.843736">
<time>2015-08-06T08:20:17Z</time></trkpt>
<trkpt lat="28.73126" lon="99.843796">
<time>2015-08-06T08:20:18Z</time></trkpt>
<trkpt lat="28.73117" lon="99.844046">
<time>2015-08-06T08:20:19Z</time></trkpt>
<trkpt lat="28.731071" lon="99.844377">
<time>2015-08-06T08:20:20Z</time></trkpt>
<trkpt lat="28.730852" lon="99.844968">
<time>2015-08-06T08:20:21Z</time></trkpt>
<trkpt lat="28.730763" lon="99.845108">
<time>2015-08-06T08:20:22Z</time></trkpt>
<trkpt lat="28.730683" lon="99.845179">
<time>2015-08-06T08:20:23Z</time></trkpt>
<trkpt lat="28.730523" lon="99.845289">
<time>2015-08-06T08:20:24Z</time></trkpt>
<trkpt lat="28.730054" lon="99.84583">
<time>2015-08-06T08:20:25Z</time></trkpt>
<trkpt lat="28.729964" lon="99.84591">
<time>2015-08-06T08:20:26Z</time></trkpt>
<trkpt lat="28.729805" lon="99.846">
<time>2015-08-06T08:20:27Z</time></trkpt>
<trkpt lat="28.728237" lon="99.846501">
<time>2015-08-06T08:20:28Z</time></trkpt>
<trkpt lat="28.727827" lon="99.846642">
<time>2015-08-06T08:20:29Z</time></trkpt>
<trkpt lat="28.727587" lon="99.846672">
<time>2015-08-06T08:20:30Z</time></trkpt>
<trkpt lat="28.727118" lon="99.846752">
<time>2015-08-06T08:20:31Z</time></trkpt>
<trkpt lat="28.726748" lon="99.846842">
<time>2015-08-06T08:20:32Z</time></trkpt>
<trkpt lat="28.726269" lon="99.847022">
<time>2015-08-06T08:20:33Z</time></trkpt>
<trkpt lat="28.725749" lon="99.847243">
<time>2015-08-06T08:20:34Z</time></trkpt>
<trkpt lat="28.7254" lon="99.847403">
<time>2015-08-06T08:20:35Z</time></trkpt>
<trkpt lat="28.724901" lon="99.847784">
<time>2015-08-06T08:20:36Z</time></trkpt>
<trkpt lat="28.724811" lon="99.847834">
<time>2015-08-06T08:20:37Z</time></trkpt>
<trkpt lat="28.724701" lon="99.847884">
<time>2015-08-06T08:20:38Z</time></trkpt>
<trkpt lat="28.724461" lon="99.847884">
<time>2015-08-06T08:20:39Z</time></trkpt>
<trkpt lat="28.723662" lon="99.847834">
<time>2015-08-06T08:20:40Z</time></trkpt>
<trkpt lat="28.723402" lon="99.847854">
<time>2015-08-06T08:20:41Z</time></trkpt>
<trkpt lat="28.723272" lon="99.847904">
<time>2015-08-06T08:20:42Z</time></trkpt>
<trkpt lat="28.723062" lon="99.848034">
<time>2015-08-06T08:20:43Z</time></trkpt>
<trkpt lat="28.722923" lon="99.848125">
<time>2015-08-06T08:20:44Z</time></trkpt>
<trkpt lat="28.722713" lon="99.848305">
<time>2015-08-06T08:20:45Z</time></trkpt>
<trkpt lat="28.722524" lon="99.848445">
<time>2015-08-06T08:20:46Z</time></trkpt>
<trkpt lat="28.722444" lon="99.848475">
<time>2015-08-06T08:20:47Z</time></trkpt>
<trkpt lat="28.722364" lon="99.848475">
<time>2015-08-06T08:20:48Z</time></trkpt>
<trkpt lat="28.722294" lon="99.848465">
<time>2015-08-06T08:20:49Z</time></trkpt>
<trkpt lat="28.722204" lon="99.848415">
<time>2015-08-06T08:20:50Z</time></trkpt>
<trkpt lat="28.721923" lon="99.848185">
<time>2015-08-06T08:20:51Z</time></trkpt>
<trkpt lat="28.721753" lon="99.848074">
<time>2015-08-06T08:20:52Z</time></trkpt>
<trkpt lat="28.721423" lon="99.847964">
<time>2015-08-06T08:20:53Z</time></trkpt>
<trkpt lat="28.721333" lon="99.847954">
<time>2015-08-06T08:20:54Z</time></trkpt>
<trkpt lat="28.721213" lon="99.847894">
<time>2015-08-06T08:20:55Z</time></trkpt>
<trkpt lat="28.721123" lon="99.847824">
<time>2015-08-06T08:20:56Z</time></trkpt>
<trkpt lat="28.721023" lon="99.847694">
<time>2015-08-06T08:20:57Z</time></trkpt>
<trkpt lat="28.720963" lon="99.847433">
<time>2015-08-06T08:20:58Z</time></trkpt>
<trkpt lat="28.720902" lon="99.847203">
<time>2015-08-06T08:20:59Z</time></trkpt>
<trkpt lat="28.720862" lon="99.847083">
<time>2015-08-06T08:21:00Z</time></trkpt>
<trkpt lat="28.720822" lon="99.847022">
<time>2015-08-06T08:21:01Z</time></trkpt>
<trkpt lat="28.720782" lon="99.847002">
<time>2015-08-06T08:21:02Z</time></trkpt>
<trkpt lat="28.720712" lon="99.846982">
<time>2015-08-06T08:21:03Z</time></trkpt>
<trkpt lat="28.720642" lon="99.846982">
<time>2015-08-06T08:21:04Z</time></trkpt>
<trkpt lat="28.720562" lon="99.847022">
<time>2015-08-06T08:21:05Z</time></trkpt>
<trkpt lat="28.720502" lon="99.847093">
<time>2015-08-06T08:21:06Z</time></trkpt>
<trkpt lat="28.720363" lon="99.847323">
<time>2015-08-06T08:21:07Z</time></trkpt>
<trkpt lat="28.720273" lon="99.847564">
<time>2015-08-06T08:21:08Z</time></trkpt>
<trkpt lat="28.720204" lon="99.847884">
<time>2015-08-06T08:21:09Z</time></trkpt>
<trkpt lat="28.720174" lon="99.847964">
<time>2015-08-06T08:21:10Z</time></trkpt>
<trkpt lat="28.720144" lon="99.848014">
<time>2015-08-06T08:21:11Z</time></trkpt>
<trkpt lat="28.720084" lon="99.848044">
<time>2015-08-06T08:21:12Z</time></trkpt>
<trkpt lat="28.720024" lon="99.848044">
<time>2015-08-06T08:21:13Z</time></trkpt>
<trkpt lat="28.719974" lon="99.848034">
<time>2015-08-06T08:21:14Z</time></trkpt>
<trkpt lat="28.719924" lon="99.847994">
<time>2015-08-06T08:21:15Z</time></trkpt>
<trkpt lat="28.719884" lon="99.847964">
<time>2015-08-06T08:21:16Z</time></trkpt>
<trkpt lat="28.719794" lon="99.847834">
<time>2015-08-06T08:21:17Z</time></trkpt>
<trkpt lat="28.719704" lon="99.847694">
<time>2015-08-06T08:21:18Z</time></trkpt>
<trkpt lat="28.719534" lon="99.847533">
<time>2015-08-06T08:21:19Z</time></trkpt>
<trkpt lat="28.719234" lon="99.847363">
<time>2015-08-06T08:21:20Z</time></trkpt>
<trkpt lat="28.718864" lon="99.847173">
<time>2015-08-06T08:21:21Z</time></trkpt>
<trkpt lat="28.718764" lon="99.847103">
<time>2015-08-06T08:21:22Z</time></trkpt>
<trkpt lat="28.718633" lon="99.846962">
<time>2015-08-06T08:21:23Z</time></trkpt>
<trkpt lat="28.718523" lon="99.846742">
<time>2015-08-06T08:21:24Z</time></trkpt>
<trkpt lat="28.718442" lon="99.846371">
<time>2015-08-06T08:21:25Z</time></trkpt>
<trkpt lat="28.718372" lon="99.846201">
<time>2015-08-06T08:21:26Z</time></trkpt>
<trkpt lat="28.718302" lon="99.846081">
<time>2015-08-06T08:21:27Z</time></trkpt>
<trkpt lat="28.718242" lon="99.846001">
<time>2015-08-06T08:21:28Z</time></trkpt>
<trkpt lat="28.718042" lon="99.84572">
<time>2015-08-06T08:21:29Z</time></trkpt>
<trkpt lat="28.717991" lon="99.84561">
<time>2015-08-06T08:21:30Z</time></trkpt>
<trkpt lat="28.717951" lon="99.8455">
<time>2015-08-06T08:21:31Z</time></trkpt>
<trkpt lat="28.717921" lon="99.845339">
<time>2015-08-06T08:21:32Z</time></trkpt>
<trkpt lat="28.717921" lon="99.845159">
<time>2015-08-06T08:21:33Z</time></trkpt>
<trkpt lat="28.71793" lon="99.844979">
<time>2015-08-06T08:21:34Z</time></trkpt>
<trkpt lat="28.71792" lon="99.844848">
<time>2015-08-06T08:21:35Z</time></trkpt>
<trkpt lat="28.71789" lon="99.844718">
<time>2015-08-06T08:21:36Z</time></trkpt>
<trkpt lat="28.71785" lon="99.844668">
<time>2015-08-06T08:21:37Z</time></trkpt>
<trkpt lat="28.71779" lon="99.844638">
<time>2015-08-06T08:21:38Z</time></trkpt>
<trkpt lat="28.71772" lon="99.844638">
<time>2015-08-06T08:21:39Z</time></trkpt>
<trkpt lat="28.71766" lon="99.844658">
<time>2015-08-06T08:21:40Z</time></trkpt>
<trkpt lat="28.71757" lon="99.844738">
<time>2015-08-06T08:21:41Z</time></trkpt>
<trkpt lat="28.71753" lon="99.844808">
<time>2015-08-06T08:21:42Z</time></trkpt>
<trkpt lat="28.717361" lon="99.845059">
<time>2015-08-06T08:21:43Z</time></trkpt>
<trkpt lat="28.717271" lon="99.845129">
<time>2015-08-06T08:21:44Z</time></trkpt>
<trkpt lat="28.717191" lon="99.845159">
<time>2015-08-06T08:21:45Z</time></trkpt>
<trkpt lat="28.717061" lon="99.845179">
<time>2015-08-06T08:21:46Z</time></trkpt>
<trkpt lat="28.716811" lon="99.845219">
<time>2015-08-06T08:21:47Z</time></trkpt>
<trkpt lat="28.716542" lon="99.845289">
<time>2015-08-06T08:21:48Z</time></trkpt>
<trkpt lat="28.716162" lon="99.845419">
<time>2015-08-06T08:21:49Z</time></trkpt>
<trkpt lat="28.715523" lon="99.84582">
<time>2015-08-06T08:21:50Z</time></trkpt>
<trkpt lat="28.715404" lon="99.845961">
<time>2015-08-06T08:21:51Z</time></trkpt>
<trkpt lat="28.715354" lon="99.846071">
<time>2015-08-06T08:21:52Z</time></trkpt>
<trkpt lat="28.715195" lon="99.846552">
<time>2015-08-06T08:21:53Z</time></trkpt>
<trkpt lat="28.715006" lon="99.847143">
<time>2015-08-06T08:21:54Z</time></trkpt>
<trkpt lat="28.714956" lon="99.847203">
<time>2015-08-06T08:21:55Z</time></trkpt>
<trkpt lat="28.714906" lon="99.847233">
<time>2015-08-06T08:21:56Z</time></trkpt>
<trkpt lat="28.714816" lon="99.847253">
<time>2015-08-06T08:21:57Z</time></trkpt>
<trkpt lat="28.714756" lon="99.847253">
<time>2015-08-06T08:21:58Z</time></trkpt>
<trkpt lat="28.714606" lon="99.847223">
<time>2015-08-06T08:21:59Z</time></trkpt>
<trkpt lat="28.714456" lon="99.847233">
<time>2015-08-06T08:22:00Z</time></trkpt>
<trkpt lat="28.714067" lon="99.847313">
<time>2015-08-06T08:22:01Z</time></trkpt>
<trkpt lat="28.713957" lon="99.847333">
<time>2015-08-06T08:22:02Z</time></trkpt>
<trkpt lat="28.713847" lon="99.847333">
<time>2015-08-06T08:22:03Z</time></trkpt>
<trkpt lat="28.713697" lon="99.847313">
<time>2015-08-06T08:22:04Z</time></trkpt>
<trkpt lat="28.713507" lon="99.847253">
<time>2015-08-06T08:22:05Z</time></trkpt>
<trkpt lat="28.713287" lon="99.847113">
<time>2015-08-06T08:22:06Z</time></trkpt>
<trkpt lat="28.713127" lon="99.846983">
<time>2015-08-06T08:22:07Z</time></trkpt>
<trkpt lat="28.713017" lon="99.846922">
<time>2015-08-06T08:22:08Z</time></trkpt>
<trkpt lat="28.712947" lon="99.846892">
<time>2015-08-06T08:22:09Z</time></trkpt>
<trkpt lat="28.712837" lon="99.846872">
<time>2015-08-06T08:22:10Z</time></trkpt>
<trkpt lat="28.712737" lon="99.846862">
<time>2015-08-06T08:22:11Z</time></trkpt>
<trkpt lat="28.712647" lon="99.846882">
<time>2015-08-06T08:22:12Z</time></trkpt>
<trkpt lat="28.712417" lon="99.846933">
<time>2015-08-06T08:22:13Z</time></trkpt>
<trkpt lat="28.712337" lon="99.846912">
<time>2015-08-06T08:22:14Z</time></trkpt>
<trkpt lat="28.712237" lon="99.846872">
<time>2015-08-06T08:22:15Z</time></trkpt>
<trkpt lat="28.712107" lon="99.846742">
<time>2015-08-06T08:22:16Z</time></trkpt>
<trkpt lat="28.711977" lon="99.846622">
<time>2015-08-06T08:22:17Z</time></trkpt>
<trkpt lat="28.711847" lon="99.846552">
<time>2015-08-06T08:22:18Z</time></trkpt>
<trkpt lat="28.711517" lon="99.846452">
<time>2015-08-06T08:22:19Z</time></trkpt>
<trkpt lat="28.711197" lon="99.846361">
<time>2015-08-06T08:22:20Z</time></trkpt>
<trkpt lat="28.711047" lon="99.846331">
<time>2015-08-06T08:22:21Z</time></trkpt>
<trkpt lat="28.710967" lon="99.846321">
<time>2015-08-06T08:22:22Z</time></trkpt>
<trkpt lat="28.710857" lon="99.846351">
<time>2015-08-06T08:22:23Z</time></trkpt>
<trkpt lat="28.710727" lon="99.846442">
<time>2015-08-06T08:22:24Z</time></trkpt>
<trkpt lat="28.710518" lon="99.846632">
<time>2015-08-06T08:22:25Z</time></trkpt>
<trkpt lat="28.710448" lon="99.846652">
<time>2015-08-06T08:22:26Z</time></trkpt>
<trkpt lat="28.710378" lon="99.846662">
<time>2015-08-06T08:22:27Z</time></trkpt>
<trkpt lat="28.710318" lon="99.846622">
<time>2015-08-06T08:22:28Z</time></trkpt>
<trkpt lat="28.710278" lon="99.846582">
<time>2015-08-06T08:22:29Z</time></trkpt>
<trkpt lat="28.710238" lon="99.846492">
<time>2015-08-06T08:22:30Z</time></trkpt>
<trkpt lat="28.710187" lon="99.846331">
<time>2015-08-06T08:22:31Z</time></trkpt>
<trkpt lat="28.710107" lon="99.846051">
<time>2015-08-06T08:22:32Z</time></trkpt>
<trkpt lat="28.710046" lon="99.84567">
<time>2015-08-06T08:22:33Z</time></trkpt>
<trkpt lat="28.710026" lon="99.84554">
<time>2015-08-06T08:22:34Z</time></trkpt>
<trkpt lat="28.709986" lon="99.84541">
<time>2015-08-06T08:22:35Z</time></trkpt>
<trkpt lat="28.709896" lon="99.845249">
<time>2015-08-06T08:22:36Z</time></trkpt>
<trkpt lat="28.709415" lon="99.844628">
<time>2015-08-06T08:22:37Z</time></trkpt>
<trkpt lat="28.709335" lon="99.844528">
<time>2015-08-06T08:22:38Z</time></trkpt>
<trkpt lat="28.709205" lon="99.844418">
<time>2015-08-06T08:22:39Z</time></trkpt>
<trkpt lat="28.709035" lon="99.844287">
<time>2015-08-06T08:22:40Z</time></trkpt>
<trkpt lat="28.708915" lon="99.844217">
<time>2015-08-06T08:22:41Z</time></trkpt>
<trkpt lat="28.708825" lon="99.844207">
<time>2015-08-06T08:22:42Z</time></trkpt>
<trkpt lat="28.708745" lon="99.844237">
<time>2015-08-06T08:22:43Z</time></trkpt>
<trkpt lat="28.708565" lon="99.844307">
<time>2015-08-06T08:22:44Z</time></trkpt>
<trkpt lat="28.708465" lon="99.844388">
<time>2015-08-06T08:22:45Z</time></trkpt>
<trkpt lat="28.708315" lon="99.844508">
<time>2015-08-06T08:22:46Z</time></trkpt>
<trkpt lat="28.708206" lon="99.844638">
<time>2015-08-06T08:22:47Z</time></trkpt>
<trkpt lat="28.708076" lon="99.844778">
<time>2015-08-06T08:22:48Z</time></trkpt>
<trkpt lat="28.707966" lon="99.844859">
<time>2015-08-06T08:22:49Z</time></trkpt>
<trkpt lat="28.707846" lon="99.844919">
<time>2015-08-06T08:22:50Z</time></trkpt>
<trkpt lat="28.707187" lon="99.845149">
<time>2015-08-06T08:22:51Z</time></trkpt>
<trkpt lat="28.706808" lon="99.845269">
<time>2015-08-06T08:22:52Z</time></trkpt>
<trkpt lat="28.706618" lon="99.84532">
<time>2015-08-06T08:22:53Z</time></trkpt>
<trkpt lat="28.706388" lon="99.84534">
<time>2015-08-06T08:22:54Z</time></trkpt>
<trkpt lat="28.706238" lon="99.84532">
<time>2015-08-06T08:22:55Z</time></trkpt>
<trkpt lat="28.705918" lon="99.845239">
<time>2015-08-06T08:22:56Z</time></trkpt>
<trkpt lat="28.705768" lon="99.845209">
<time>2015-08-06T08:22:57Z</time></trkpt>
<trkpt lat="28.705638" lon="99.845199">
<time>2015-08-06T08:22:58Z</time></trkpt>
<trkpt lat="28.705458" lon="99.845209">
<time>2015-08-06T08:22:59Z</time></trkpt>
<trkpt lat="28.705069" lon="99.84534">
<time>2015-08-06T08:23:00Z</time></trkpt>
<trkpt lat="28.704959" lon="99.84541">
<time>2015-08-06T08:23:01Z</time></trkpt>
<trkpt lat="28.704879" lon="99.84551">
<time>2015-08-06T08:23:02Z</time></trkpt>
<trkpt lat="28.70459" lon="99.845931">
<time>2015-08-06T08:23:03Z</time></trkpt>
<trkpt lat="28.704351" lon="99.846221">
<time>2015-08-06T08:23:04Z</time></trkpt>
<trkpt lat="28.704181" lon="99.846382">
<time>2015-08-06T08:23:05Z</time></trkpt>
<trkpt lat="28.703892" lon="99.846622">
<time>2015-08-06T08:23:06Z</time></trkpt>
<trkpt lat="28.703742" lon="99.846782">
<time>2015-08-06T08:23:07Z</time></trkpt>
<trkpt lat="28.703563" lon="99.847013">
<time>2015-08-06T08:23:08Z</time></trkpt>
<trkpt lat="28.703483" lon="99.847133">
<time>2015-08-06T08:23:09Z</time></trkpt>
<trkpt lat="28.703433" lon="99.847273">
<time>2015-08-06T08:23:10Z</time></trkpt>
<trkpt lat="28.703394" lon="99.847444">
<time>2015-08-06T08:23:11Z</time></trkpt>
<trkpt lat="28.703334" lon="99.847794">
<time>2015-08-06T08:23:12Z</time></trkpt>
<trkpt lat="28.703334" lon="99.847945">
<time>2015-08-06T08:23:13Z</time></trkpt>
<trkpt lat="28.703345" lon="99.848075">
<time>2015-08-06T08:23:14Z</time></trkpt>
<trkpt lat="28.703365" lon="99.848285">
<time>2015-08-06T08:23:15Z</time></trkpt>
<trkpt lat="28.703355" lon="99.848416">
<time>2015-08-06T08:23:16Z</time></trkpt>
<trkpt lat="28.703226" lon="99.848776">
<time>2015-08-06T08:23:17Z</time></trkpt>
<trkpt lat="28.703047" lon="99.849227">
<time>2015-08-06T08:23:18Z</time></trkpt>
<trkpt lat="28.702957" lon="99.849498">
<time>2015-08-06T08:23:19Z</time></trkpt>
<trkpt lat="28.702937" lon="99.849608">
<time>2015-08-06T08:23:20Z</time></trkpt>
<trkpt lat="28.702888" lon="99.849838">
<time>2015-08-06T08:23:21Z</time></trkpt>
<trkpt lat="28.702848" lon="99.849939">
<time>2015-08-06T08:23:22Z</time></trkpt>
<trkpt lat="28.702728" lon="99.850099">
<time>2015-08-06T08:23:23Z</time></trkpt>
<trkpt lat="28.702499" lon="99.850319">
<time>2015-08-06T08:23:24Z</time></trkpt>
<trkpt lat="28.702389" lon="99.850449">
<time>2015-08-06T08:23:25Z</time></trkpt>
<trkpt lat="28.702309" lon="99.85057">
<time>2015-08-06T08:23:26Z</time></trkpt>
<trkpt lat="28.70227" lon="99.85067">
<time>2015-08-06T08:23:27Z</time></trkpt>
<trkpt lat="28.70226" lon="99.85072">
<time>2015-08-06T08:23:28Z</time></trkpt>
<trkpt lat="28.70225" lon="99.85078">
<time>2015-08-06T08:23:29Z</time></trkpt>
<trkpt lat="28.70227" lon="99.85084">
<time>2015-08-06T08:23:30Z</time></trkpt>
<trkpt lat="28.70235" lon="99.851011">
<time>2015-08-06T08:23:31Z</time></trkpt>
<trkpt lat="28.70241" lon="99.851141">
<time>2015-08-06T08:23:32Z</time></trkpt>
<trkpt lat="28.702411" lon="99.851231">
<time>2015-08-06T08:23:33Z</time></trkpt>
<trkpt lat="28.702381" lon="99.851341">
<time>2015-08-06T08:23:34Z</time></trkpt>
<trkpt lat="28.702321" lon="99.851431">
<time>2015-08-06T08:23:35Z</time></trkpt>
<trkpt lat="28.702211" lon="99.851562">
<time>2015-08-06T08:23:36Z</time></trkpt>
<trkpt lat="28.702161" lon="99.851632">
<time>2015-08-06T08:23:37Z</time></trkpt>
<trkpt lat="28.702082" lon="99.851882">
<time>2015-08-06T08:23:38Z</time></trkpt>
<trkpt lat="28.701992" lon="99.852032">
<time>2015-08-06T08:23:39Z</time></trkpt>
<trkpt lat="28.701882" lon="99.852183">
<time>2015-08-06T08:23:40Z</time></trkpt>
<trkpt lat="28.701783" lon="99.852293">
<time>2015-08-06T08:23:41Z</time></trkpt>
<trkpt lat="28.701753" lon="99.852393">
<time>2015-08-06T08:23:42Z</time></trkpt>
<trkpt lat="28.701743" lon="99.852483">
<time>2015-08-06T08:23:43Z</time></trkpt>
<trkpt lat="28.701783" lon="99.852573">
<time>2015-08-06T08:23:44Z</time></trkpt>
<trkpt lat="28.701833" lon="99.852664">
<time>2015-08-06T08:23:45Z</time></trkpt>
<trkpt lat="28.702073" lon="99.852854">
<time>2015-08-06T08:23:46Z</time></trkpt>
<trkpt lat="28.702144" lon="99.853024">
<time>2015-08-06T08:23:47Z</time></trkpt>
<trkpt lat="28.702154" lon="99.853225">
<time>2015-08-06T08:23:48Z</time></trkpt>
<trkpt lat="28.702154" lon="99.853395">
<time>2015-08-06T08:23:49Z</time></trkpt>
<trkpt lat="28.702155" lon="99.853746">
<time>2015-08-06T08:23:50Z</time></trkpt>
<trkpt lat="28.702085" lon="99.853936">
<time>2015-08-06T08:23:51Z</time></trkpt>
<trkpt lat="28.701896" lon="99.854277">
<time>2015-08-06T08:23:52Z</time></trkpt>
<trkpt lat="28.701886" lon="99.854347">
<time>2015-08-06T08:23:53Z</time></trkpt>
<trkpt lat="28.701866" lon="99.854447">
<time>2015-08-06T08:23:54Z</time></trkpt>
<trkpt lat="28.701876" lon="99.854527">
<time>2015-08-06T08:23:55Z</time></trkpt>
<trkpt lat="28.701906" lon="99.854617">
<time>2015-08-06T08:23:56Z</time></trkpt>
<trkpt lat="28.701977" lon="99.854777">
<time>2015-08-06T08:23:57Z</time></trkpt>
<trkpt lat="28.702057" lon="99.854968">
<time>2015-08-06T08:23:58Z</time></trkpt>
<trkpt lat="28.702167" lon="99.855409">
<time>2015-08-06T08:23:59Z</time></trkpt>
<trkpt lat="28.702168" lon="99.855499">
<time>2015-08-06T08:24:00Z</time></trkpt>
<trkpt lat="28.702158" lon="99.855569">
<time>2015-08-06T08:24:01Z</time></trkpt>
<trkpt lat="28.702118" lon="99.855659">
<time>2015-08-06T08:24:02Z</time></trkpt>
<trkpt lat="28.702078" lon="99.855709">
<time>2015-08-06T08:24:03Z</time></trkpt>
<trkpt lat="28.701918" lon="99.855799">
<time>2015-08-06T08:24:04Z</time></trkpt>
<trkpt lat="28.701718" lon="99.855869">
<time>2015-08-06T08:24:05Z</time></trkpt>
<trkpt lat="28.701559" lon="99.855899">
<time>2015-08-06T08:24:06Z</time></trkpt>
<trkpt lat="28.701269" lon="99.855929">
<time>2015-08-06T08:24:07Z</time></trkpt>
<trkpt lat="28.701109" lon="99.85598">
<time>2015-08-06T08:24:08Z</time></trkpt>
<trkpt lat="28.701029" lon="99.85605">
<time>2015-08-06T08:24:09Z</time></trkpt>
<trkpt lat="28.700939" lon="99.85616">
<time>2015-08-06T08:24:10Z</time></trkpt>
<trkpt lat="28.70084" lon="99.85633">
<time>2015-08-06T08:24:11Z</time></trkpt>
<trkpt lat="28.7008" lon="99.85642">
<time>2015-08-06T08:24:12Z</time></trkpt>
<trkpt lat="28.70079" lon="99.856521">
<time>2015-08-06T08:24:13Z</time></trkpt>
<trkpt lat="28.7008" lon="99.856641">
<time>2015-08-06T08:24:14Z</time></trkpt>
<trkpt lat="28.70086" lon="99.856801">
<time>2015-08-06T08:24:15Z</time></trkpt>
<trkpt lat="28.700881" lon="99.856951">
<time>2015-08-06T08:24:16Z</time></trkpt>
<trkpt lat="28.700871" lon="99.857061">
<time>2015-08-06T08:24:17Z</time></trkpt>
<trkpt lat="28.700851" lon="99.857142">
<time>2015-08-06T08:24:18Z</time></trkpt>
<trkpt lat="28.700801" lon="99.857242">
<time>2015-08-06T08:24:19Z</time></trkpt>
<trkpt lat="28.700502" lon="99.857632">
<time>2015-08-06T08:24:20Z</time></trkpt>
<trkpt lat="28.700203" lon="99.858013">
<time>2015-08-06T08:24:21Z</time></trkpt>
<trkpt lat="28.700143" lon="99.858063">
<time>2015-08-06T08:24:22Z</time></trkpt>
<trkpt lat="28.700073" lon="99.858083">
<time>2015-08-06T08:24:23Z</time></trkpt>
<trkpt lat="28.699983" lon="99.858083">
<time>2015-08-06T08:24:24Z</time></trkpt>
<trkpt lat="28.699903" lon="99.858073">
<time>2015-08-06T08:24:25Z</time></trkpt>
<trkpt lat="28.699773" lon="99.858013">
<time>2015-08-06T08:24:26Z</time></trkpt>
<trkpt lat="28.699063" lon="99.857693">
<time>2015-08-06T08:24:27Z</time></trkpt>
<trkpt lat="28.698913" lon="99.857642">
<time>2015-08-06T08:24:28Z</time></trkpt>
<trkpt lat="28.698803" lon="99.857622">
<time>2015-08-06T08:24:29Z</time></trkpt>
<trkpt lat="28.698573" lon="99.857612">
<time>2015-08-06T08:24:30Z</time></trkpt>
<trkpt lat="28.698323" lon="99.857532">
<time>2015-08-06T08:24:31Z</time></trkpt>
<trkpt lat="28.698113" lon="99.857442">
<time>2015-08-06T08:24:32Z</time></trkpt>
<trkpt lat="28.697853" lon="99.857392">
<time>2015-08-06T08:24:33Z</time></trkpt>
<trkpt lat="28.697723" lon="99.857372">
<time>2015-08-06T08:24:34Z</time></trkpt>
<trkpt lat="28.697363" lon="99.857322">
<time>2015-08-06T08:24:35Z</time></trkpt>
<trkpt lat="28.697143" lon="99.857242">
<time>2015-08-06T08:24:36Z</time></trkpt>
<trkpt lat="28.696883" lon="99.857112">
<time>2015-08-06T08:24:37Z</time></trkpt>
<trkpt lat="28.696593" lon="99.857042">
<time>2015-08-06T08:24:38Z</time></trkpt>
<trkpt lat="28.696263" lon="99.856971">
<time>2015-08-06T08:24:39Z</time></trkpt>
<trkpt lat="28.695833" lon="99.856831">
<time>2015-08-06T08:24:40Z</time></trkpt>
<trkpt lat="28.695623" lon="99.856681">
<time>2015-08-06T08:24:41Z</time></trkpt>
<trkpt lat="28.695543" lon="99.856611">
<time>2015-08-06T08:24:42Z</time></trkpt>
<trkpt lat="28.695443" lon="99.856551">
<time>2015-08-06T08:24:43Z</time></trkpt>
<trkpt lat="28.695323" lon="99.856511">
<time>2015-08-06T08:24:44Z</time></trkpt>
<trkpt lat="28.695013" lon="99.856491">
<time>2015-08-06T08:24:45Z</time></trkpt>
<trkpt lat="28.694883" lon="99.856471">
<time>2015-08-06T08:24:46Z</time></trkpt>
<trkpt lat="28.694723" lon="99.8564">
<time>2015-08-06T08:24:47Z</time></trkpt>
<trkpt lat="28.694563" lon="99.85629">
<time>2015-08-06T08:24:48Z</time></trkpt>
<trkpt lat="28.694393" lon="99.85609">
<time>2015-08-06T08:24:49Z</time></trkpt>
<trkpt lat="28.694253" lon="99.85594">
<time>2015-08-06T08:24:50Z</time></trkpt>
<trkpt lat="28.694073" lon="99.855829">
<time>2015-08-06T08:24:51Z</time></trkpt>
<trkpt lat="28.693803" lon="99.855749">
<time>2015-08-06T08:24:52Z</time></trkpt>
<trkpt lat="28.693353" lon="99.855689">
<time>2015-08-06T08:24:53Z</time></trkpt>
<trkpt lat="28.693203" lon="99.855679">
<time>2015-08-06T08:24:54Z</time></trkpt>
<trkpt lat="28.693023" lon="99.855629">
<time>2015-08-06T08:24:55Z</time></trkpt>
<trkpt lat="28.692673" lon="99.855499">
<time>2015-08-06T08:24:56Z</time></trkpt>
<trkpt lat="28.692523" lon="99.855469">
<time>2015-08-06T08:24:57Z</time></trkpt>
<trkpt lat="28.692363" lon="99.855469">
<time>2015-08-06T08:24:58Z</time></trkpt>
<trkpt lat="28.692163" lon="99.855479">
<time>2015-08-06T08:24:59Z</time></trkpt>
<trkpt lat="28.691954" lon="99.855519">
<time>2015-08-06T08:25:00Z</time></trkpt>
<trkpt lat="28.691334" lon="99.855769">
<time>2015-08-06T08:25:01Z</time></trkpt>
<trkpt lat="28.691035" lon="99.85584">
<time>2015-08-06T08:25:02Z</time></trkpt>
<trkpt lat="28.690695" lon="99.85584">
<time>2015-08-06T08:25:03Z</time></trkpt>
<trkpt lat="28.690425" lon="99.85589">
<time>2015-08-06T08:25:04Z</time></trkpt>
<trkpt lat="28.690026" lon="99.856">
<time>2015-08-06T08:25:05Z</time></trkpt>
<trkpt lat="28.689846" lon="99.85603">
<time>2015-08-06T08:25:06Z</time></trkpt>
<trkpt lat="28.689596" lon="99.85607">
<time>2015-08-06T08:25:07Z</time></trkpt>
<trkpt lat="28.689286" lon="99.85607">
<time>2015-08-06T08:25:08Z</time></trkpt>
<trkpt lat="28.689176" lon="99.85608">
<time>2015-08-06T08:25:09Z</time></trkpt>
<trkpt lat="28.689076" lon="99.85612">
<time>2015-08-06T08:25:10Z</time></trkpt>
<trkpt lat="28.688927" lon="99.85628">
<time>2015-08-06T08:25:11Z</time></trkpt>
<trkpt lat="28.688857" lon="99.856411">
<time>2015-08-06T08:25:12Z</time></trkpt>
<trkpt lat="28.688797" lon="99.856551">
<time>2015-08-06T08:25:13Z</time></trkpt>
<trkpt lat="28.688727" lon="99.856671">
<time>2015-08-06T08:25:14Z</time></trkpt>
<trkpt lat="28.688478" lon="99.857002">
<time>2015-08-06T08:25:15Z</time></trkpt>
<trkpt lat="28.688388" lon="99.857142">
<time>2015-08-06T08:25:16Z</time></trkpt>
<trkpt lat="28.688348" lon="99.857202">
<time>2015-08-06T08:25:17Z</time></trkpt>
<trkpt lat="28.688299" lon="99.857282">
<time>2015-08-06T08:25:18Z</time></trkpt>
<trkpt lat="28.688269" lon="99.857362">
<time>2015-08-06T08:25:19Z</time></trkpt>
<trkpt lat="28.688219" lon="99.857482">
<time>2015-08-06T08:25:20Z</time></trkpt>
<trkpt lat="28.688199" lon="99.857563">
<time>2015-08-06T08:25:21Z</time></trkpt>
<trkpt lat="28.68811" lon="99.857843">
<time>2015-08-06T08:25:22Z</time></trkpt>
<trkpt lat="28.68799" lon="99.858114">
<time>2015-08-06T08:25:23Z</time></trkpt>
<trkpt lat="28.687751" lon="99.858584">
<time>2015-08-06T08:25:24Z</time></trkpt>
<trkpt lat="28.687671" lon="99.858895">
<time>2015-08-06T08:25:25Z</time></trkpt>
<trkpt lat="28.687642" lon="99.859205">
<time>2015-08-06T08:25:26Z</time></trkpt>
<trkpt lat="28.687612" lon="99.859456">
<time>2015-08-06T08:25:27Z</time></trkpt>
<trkpt lat="28.687533" lon="99.859857">
<time>2015-08-06T08:25:28Z</time></trkpt>
<trkpt lat="28.687503" lon="99.860157">
<time>2015-08-06T08:25:29Z</time></trkpt>
<trkpt lat="28.687465" lon="99.860978">
<time>2015-08-06T08:25:30Z</time></trkpt>
<trkpt lat="28.687295" lon="99.861529">
<time>2015-08-06T08:25:31Z</time></trkpt>
<trkpt lat="28.687246" lon="99.861579">
<time>2015-08-06T08:25:32Z</time></trkpt>
<trkpt lat="28.687196" lon="99.861589">
<time>2015-08-06T08:25:33Z</time></trkpt>
<trkpt lat="28.687156" lon="99.861569">
<time>2015-08-06T08:25:34Z</time></trkpt>
<trkpt lat="28.687106" lon="99.861529">
<time>2015-08-06T08:25:35Z</time></trkpt>
<trkpt lat="28.687065" lon="99.861429">
<time>2015-08-06T08:25:36Z</time></trkpt>
<trkpt lat="28.687005" lon="99.861249">
<time>2015-08-06T08:25:37Z</time></trkpt>
<trkpt lat="28.686885" lon="99.861048">
<time>2015-08-06T08:25:38Z</time></trkpt>
<trkpt lat="28.686785" lon="99.860858">
<time>2015-08-06T08:25:39Z</time></trkpt>
<trkpt lat="28.686644" lon="99.860558">
<time>2015-08-06T08:25:40Z</time></trkpt>
<trkpt lat="28.686484" lon="99.860227">
<time>2015-08-06T08:25:41Z</time></trkpt>
<trkpt lat="28.686414" lon="99.859997">
<time>2015-08-06T08:25:42Z</time></trkpt>
<trkpt lat="28.686363" lon="99.859756">
<time>2015-08-06T08:25:43Z</time></trkpt>
<trkpt lat="28.686303" lon="99.859546">
<time>2015-08-06T08:25:44Z</time></trkpt>
<trkpt lat="28.686203" lon="99.859246">
<time>2015-08-06T08:25:45Z</time></trkpt>
<trkpt lat="28.686112" lon="99.859035">
<time>2015-08-06T08:25:46Z</time></trkpt>
<trkpt lat="28.686072" lon="99.858965">
<time>2015-08-06T08:25:47Z</time></trkpt>
<trkpt lat="28.686012" lon="99.858885">
<time>2015-08-06T08:25:48Z</time></trkpt>
<trkpt lat="28.685902" lon="99.858825">
<time>2015-08-06T08:25:49Z</time></trkpt>
<trkpt lat="28.685702" lon="99.858745">
<time>2015-08-06T08:25:50Z</time></trkpt>
<trkpt lat="28.685572" lon="99.858685">
<time>2015-08-06T08:25:51Z</time></trkpt>
<trkpt lat="28.685412" lon="99.858645">
<time>2015-08-06T08:25:52Z</time></trkpt>
<trkpt lat="28.685252" lon="99.858645">
<time>2015-08-06T08:25:53Z</time></trkpt>
<trkpt lat="28.685073" lon="99.858685">
<time>2015-08-06T08:25:54Z</time></trkpt>
<trkpt lat="28.684803" lon="99.858785">
<time>2015-08-06T08:25:55Z</time></trkpt>
<trkpt lat="28.684713" lon="99.858815">
<time>2015-08-06T08:25:56Z</time></trkpt>
<trkpt lat="28.684623" lon="99.858835">
<time>2015-08-06T08:25:57Z</time></trkpt>
<trkpt lat="28.684523" lon="99.858825">
<time>2015-08-06T08:25:58Z</time></trkpt>
<trkpt lat="28.684433" lon="99.858795">
<time>2015-08-06T08:25:59Z</time></trkpt>
<trkpt lat="28.684353" lon="99.858765">
<time>2015-08-06T08:26:00Z</time></trkpt>
<trkpt lat="28.684213" lon="99.858685">
<time>2015-08-06T08:26:01Z</time></trkpt>
<trkpt lat="28.684053" lon="99.858584">
<time>2015-08-06T08:26:02Z</time></trkpt>
<trkpt lat="28.683933" lon="99.858554">
<time>2015-08-06T08:26:03Z</time></trkpt>
<trkpt lat="28.683783" lon="99.858544">
<time>2015-08-06T08:26:04Z</time></trkpt>
<trkpt lat="28.683563" lon="99.858544">
<time>2015-08-06T08:26:05Z</time></trkpt>
<trkpt lat="28.683363" lon="99.858534">
<time>2015-08-06T08:26:06Z</time></trkpt>
<trkpt lat="28.683063" lon="99.858514">
<time>2015-08-06T08:26:07Z</time></trkpt>
<trkpt lat="28.682934" lon="99.858524">
<time>2015-08-06T08:26:08Z</time></trkpt>
<trkpt lat="28.682814" lon="99.858574">
<time>2015-08-06T08:26:09Z</time></trkpt>
<trkpt lat="28.682554" lon="99.858725">
<time>2015-08-06T08:26:10Z</time></trkpt>
<trkpt lat="28.682464" lon="99.858755">
<time>2015-08-06T08:26:11Z</time></trkpt>
<trkpt lat="28.682374" lon="99.858775">
<time>2015-08-06T08:26:12Z</time></trkpt>
<trkpt lat="28.682104" lon="99.858745">
<time>2015-08-06T08:26:13Z</time></trkpt>
<trkpt lat="28.681795" lon="99.858755">
<time>2015-08-06T08:26:14Z</time></trkpt>
<trkpt lat="28.681655" lon="99.858745">
<time>2015-08-06T08:26:15Z</time></trkpt>
<trkpt lat="28.681425" lon="99.858695">
<time>2015-08-06T08:26:16Z</time></trkpt>
<trkpt lat="28.681225" lon="99.858685">
<time>2015-08-06T08:26:17Z</time></trkpt>
<trkpt lat="28.681015" lon="99.858685">
<time>2015-08-06T08:26:18Z</time></trkpt>
<trkpt lat="28.680725" lon="99.858735">
<time>2015-08-06T08:26:19Z</time></trkpt>
<trkpt lat="28.680316" lon="99.858905">
<time>2015-08-06T08:26:20Z</time></trkpt>
<trkpt lat="28.680216" lon="99.858945">
<time>2015-08-06T08:26:21Z</time></trkpt>
<trkpt lat="28.679986" lon="99.858995">
<time>2015-08-06T08:26:22Z</time></trkpt>
<trkpt lat="28.679786" lon="99.859005">
<time>2015-08-06T08:26:23Z</time></trkpt>
<trkpt lat="28.679536" lon="99.859025">
<time>2015-08-06T08:26:24Z</time></trkpt>
<trkpt lat="28.679406" lon="99.859055">
<time>2015-08-06T08:26:25Z</time></trkpt>
<trkpt lat="28.679087" lon="99.859146">
<time>2015-08-06T08:26:26Z</time></trkpt>
<trkpt lat="28.678947" lon="99.859186">
<time>2015-08-06T08:26:27Z</time></trkpt>
<trkpt lat="28.678487" lon="99.859336">
<time>2015-08-06T08:26:28Z</time></trkpt>
<trkpt lat="28.678327" lon="99.859376">
<time>2015-08-06T08:26:29Z</time></trkpt>
<trkpt lat="28.677898" lon="99.859446">
<time>2015-08-06T08:26:30Z</time></trkpt>
<trkpt lat="28.677508" lon="99.859536">
<time>2015-08-06T08:26:31Z</time></trkpt>
<trkpt lat="28.677438" lon="99.859546">
<time>2015-08-06T08:26:32Z</time></trkpt>
<trkpt lat="28.677288" lon="99.859556">
<time>2015-08-06T08:26:33Z</time></trkpt>
<trkpt lat="28.676819" lon="99.859496">
<time>2015-08-06T08:26:34Z</time></trkpt>
<trkpt lat="28.676689" lon="99.859496">
<time>2015-08-06T08:26:35Z</time></trkpt>
<trkpt lat="28.676599" lon="99.859516">
<time>2015-08-06T08:26:36Z</time></trkpt>
<trkpt lat="28.676469" lon="99.859556">
<time>2015-08-06T08:26:37Z</time></trkpt>
<trkpt lat="28.676259" lon="99.859697">
<time>2015-08-06T08:26:38Z</time></trkpt>
<trkpt lat="28.67607" lon="99.859887">
<time>2015-08-06T08:26:39Z</time></trkpt>
<trkpt lat="28.67582" lon="99.860247">
<time>2015-08-06T08:26:40Z</time></trkpt>
<trkpt lat="28.67578" lon="99.860318">
<time>2015-08-06T08:26:41Z</time></trkpt>
<trkpt lat="28.67576" lon="99.860408">
<time>2015-08-06T08:26:42Z</time></trkpt>
<trkpt lat="28.675761" lon="99.860548">
<time>2015-08-06T08:26:43Z</time></trkpt>
<trkpt lat="28.675771" lon="99.860638">
<time>2015-08-06T08:26:44Z</time></trkpt>
<trkpt lat="28.675811" lon="99.860798">
<time>2015-08-06T08:26:45Z</time></trkpt>
<trkpt lat="28.675851" lon="99.860919">
<time>2015-08-06T08:26:46Z</time></trkpt>
<trkpt lat="28.675901" lon="99.861019">
<time>2015-08-06T08:26:47Z</time></trkpt>
<trkpt lat="28.676021" lon="99.861199">
<time>2015-08-06T08:26:48Z</time></trkpt>
<trkpt lat="28.676092" lon="99.861359">
<time>2015-08-06T08:26:49Z</time></trkpt>
<trkpt lat="28.676152" lon="99.86156">
<time>2015-08-06T08:26:50Z</time></trkpt>
<trkpt lat="28.676313" lon="99.862391">
<time>2015-08-06T08:26:51Z</time></trkpt>
<trkpt lat="28.676323" lon="99.862531">
<time>2015-08-06T08:26:52Z</time></trkpt>
<trkpt lat="28.676313" lon="99.862641">
<time>2015-08-06T08:26:53Z</time></trkpt>
<trkpt lat="28.676274" lon="99.862872">
<time>2015-08-06T08:26:54Z</time></trkpt>
<trkpt lat="28.676224" lon="99.863032">
<time>2015-08-06T08:26:55Z</time></trkpt>
<trkpt lat="28.676184" lon="99.863082">
<time>2015-08-06T08:26:56Z</time></trkpt>
<trkpt lat="28.676134" lon="99.863112">
<time>2015-08-06T08:26:57Z</time></trkpt>
<trkpt lat="28.676074" lon="99.863102">
<time>2015-08-06T08:26:58Z</time></trkpt>
<trkpt lat="28.676034" lon="99.863082">
<time>2015-08-06T08:26:59Z</time></trkpt>
<trkpt lat="28.675994" lon="99.863002">
<time>2015-08-06T08:27:00Z</time></trkpt>
<trkpt lat="28.675954" lon="99.862892">
<time>2015-08-06T08:27:01Z</time></trkpt>
<trkpt lat="28.675934" lon="99.862782">
<time>2015-08-06T08:27:02Z</time></trkpt>
<trkpt lat="28.675884" lon="99.862591">
<time>2015-08-06T08:27:03Z</time></trkpt>
<trkpt lat="28.675823" lon="99.862391">
<time>2015-08-06T08:27:04Z</time></trkpt>
<trkpt lat="28.675783" lon="99.862251">
<time>2015-08-06T08:27:05Z</time></trkpt>
<trkpt lat="28.675703" lon="99.862161">
<time>2015-08-06T08:27:06Z</time></trkpt>
<trkpt lat="28.675603" lon="99.8621">
<time>2015-08-06T08:27:07Z</time></trkpt>
<trkpt lat="28.675453" lon="99.86203">
<time>2015-08-06T08:27:08Z</time></trkpt>
<trkpt lat="28.675413" lon="99.86202">
<time>2015-08-06T08:27:09Z</time></trkpt>
<trkpt lat="28.675333" lon="99.86202">
<time>2015-08-06T08:27:10Z</time></trkpt>
<trkpt lat="28.675293" lon="99.86203">
<time>2015-08-06T08:27:11Z</time></trkpt>
<trkpt lat="28.675243" lon="99.86207">
<time>2015-08-06T08:27:12Z</time></trkpt>
<trkpt lat="28.675083" lon="99.862251">
<time>2015-08-06T08:27:13Z</time></trkpt>
<trkpt lat="28.674954" lon="99.862391">
<time>2015-08-06T08:27:14Z</time></trkpt>
<trkpt lat="28.674854" lon="99.862471">
<time>2015-08-06T08:27:15Z</time></trkpt>
<trkpt lat="28.674794" lon="99.862501">
<time>2015-08-06T08:27:16Z</time></trkpt>
<trkpt lat="28.674694" lon="99.862541">
<time>2015-08-06T08:27:17Z</time></trkpt>
<trkpt lat="28.674454" lon="99.862611">
<time>2015-08-06T08:27:18Z</time></trkpt>
<trkpt lat="28.674235" lon="99.862681">
<time>2015-08-06T08:27:19Z</time></trkpt>
<trkpt lat="28.674125" lon="99.862701">
<time>2015-08-06T08:27:20Z</time></trkpt>
<trkpt lat="28.673955" lon="99.862701">
<time>2015-08-06T08:27:21Z</time></trkpt>
<trkpt lat="28.673645" lon="99.862782">
<time>2015-08-06T08:27:22Z</time></trkpt>
<trkpt lat="28.673185" lon="99.862792">
<time>2015-08-06T08:27:23Z</time></trkpt>
<trkpt lat="28.672656" lon="99.862852">
<time>2015-08-06T08:27:24Z</time></trkpt>
<trkpt lat="28.672556" lon="99.862872">
<time>2015-08-06T08:27:25Z</time></trkpt>
<trkpt lat="28.672486" lon="99.862902">
<time>2015-08-06T08:27:26Z</time></trkpt>
<trkpt lat="28.672376" lon="99.862952">
<time>2015-08-06T08:27:27Z</time></trkpt>
<trkpt lat="28.672276" lon="99.862982">
<time>2015-08-06T08:27:28Z</time></trkpt>
<trkpt lat="28.672146" lon="99.862982">
<time>2015-08-06T08:27:29Z</time></trkpt>
<trkpt lat="28.671946" lon="99.862952">
<time>2015-08-06T08:27:30Z</time></trkpt>
<trkpt lat="28.671726" lon="99.862902">
<time>2015-08-06T08:27:31Z</time></trkpt>
<trkpt lat="28.671566" lon="99.862852">
<time>2015-08-06T08:27:32Z</time></trkpt>
<trkpt lat="28.671276" lon="99.862782">
<time>2015-08-06T08:27:33Z</time></trkpt>
<trkpt lat="28.671116" lon="99.862762">
<time>2015-08-06T08:27:34Z</time></trkpt>
<trkpt lat="28.670897" lon="99.862752">
<time>2015-08-06T08:27:35Z</time></trkpt>
<trkpt lat="28.670707" lon="99.862752">
<time>2015-08-06T08:27:36Z</time></trkpt>
<trkpt lat="28.670497" lon="99.862772">
<time>2015-08-06T08:27:37Z</time></trkpt>
<trkpt lat="28.670347" lon="99.862792">
<time>2015-08-06T08:27:38Z</time></trkpt>
<trkpt lat="28.670177" lon="99.862802">
<time>2015-08-06T08:27:39Z</time></trkpt>
<trkpt lat="28.670127" lon="99.862782">
<time>2015-08-06T08:27:40Z</time></trkpt>
<trkpt lat="28.670087" lon="99.862722">
<time>2015-08-06T08:27:41Z</time></trkpt>
<trkpt lat="28.670077" lon="99.862651">
<time>2015-08-06T08:27:42Z</time></trkpt>
<trkpt lat="28.670107" lon="99.862561">
<time>2015-08-06T08:27:43Z</time></trkpt>
<trkpt lat="28.670167" lon="99.862501">
<time>2015-08-06T08:27:44Z</time></trkpt>
<trkpt lat="28.670217" lon="99.862451">
<time>2015-08-06T08:27:45Z</time></trkpt>
<trkpt lat="28.670426" lon="99.862351">
<time>2015-08-06T08:27:46Z</time></trkpt>
<trkpt lat="28.670566" lon="99.862311">
<time>2015-08-06T08:27:47Z</time></trkpt>
<trkpt lat="28.670696" lon="99.862291">
<time>2015-08-06T08:27:48Z</time></trkpt>
<trkpt lat="28.670856" lon="99.862281">
<time>2015-08-06T08:27:49Z</time></trkpt>
<trkpt lat="28.670966" lon="99.862271">
<time>2015-08-06T08:27:50Z</time></trkpt>
<trkpt lat="28.671116" lon="99.862241">
<time>2015-08-06T08:27:51Z</time></trkpt>
<trkpt lat="28.671365" lon="99.862131">
<time>2015-08-06T08:27:52Z</time></trkpt>
<trkpt lat="28.671615" lon="99.86203">
<time>2015-08-06T08:27:53Z</time></trkpt>
<trkpt lat="28.671855" lon="99.86195">
<time>2015-08-06T08:27:54Z</time></trkpt>
<trkpt lat="28.672125" lon="99.86186">
<time>2015-08-06T08:27:55Z</time></trkpt>
<trkpt lat="28.672254" lon="99.8618">
<time>2015-08-06T08:27:56Z</time></trkpt>
<trkpt lat="28.672564" lon="99.8616">
<time>2015-08-06T08:27:57Z</time></trkpt>
<trkpt lat="28.672884" lon="99.861439">
<time>2015-08-06T08:27:58Z</time></trkpt>
<trkpt lat="28.673043" lon="99.861399">
<time>2015-08-06T08:27:59Z</time></trkpt>
<trkpt lat="28.673203" lon="99.861379">
<time>2015-08-06T08:28:00Z</time></trkpt>
<trkpt lat="28.673323" lon="99.861349">
<time>2015-08-06T08:28:01Z</time></trkpt>
<trkpt lat="28.673423" lon="99.861309">
<time>2015-08-06T08:28:02Z</time></trkpt>
<trkpt lat="28.673523" lon="99.861269">
<time>2015-08-06T08:28:03Z</time></trkpt>
<trkpt lat="28.673573" lon="99.861229">
<time>2015-08-06T08:28:04Z</time></trkpt>
<trkpt lat="28.673603" lon="99.861189">
<time>2015-08-06T08:28:05Z</time></trkpt>
<trkpt lat="28.673623" lon="99.861149">
<time>2015-08-06T08:28:06Z</time></trkpt>
<trkpt lat="28.673623" lon="99.861099">
<time>2015-08-06T08:28:07Z</time></trkpt>
<trkpt lat="28.673623" lon="99.861029">
<time>2015-08-06T08:28:08Z</time></trkpt>
<trkpt lat="28.673592" lon="99.860959">
<time>2015-08-06T08:28:09Z</time></trkpt>
<trkpt lat="28.673512" lon="99.860768">
<time>2015-08-06T08:28:10Z</time></trkpt>
<trkpt lat="28.673432" lon="99.860478">
<time>2015-08-06T08:28:11Z</time></trkpt>
<trkpt lat="28.673372" lon="99.860298">
<time>2015-08-06T08:28:12Z</time></trkpt>
<trkpt lat="28.673261" lon="99.860127">
<time>2015-08-06T08:28:13Z</time></trkpt>
<trkpt lat="28.673181" lon="99.859937">
<time>2015-08-06T08:28:14Z</time></trkpt>
<trkpt lat="28.673131" lon="99.859737">
<time>2015-08-06T08:28:15Z</time></trkpt>
<trkpt lat="28.673131" lon="99.859576">
<time>2015-08-06T08:28:16Z</time></trkpt>
<trkpt lat="28.6732" lon="99.859146">
<time>2015-08-06T08:28:17Z</time></trkpt>
<trkpt lat="28.67322" lon="99.858825">
<time>2015-08-06T08:28:18Z</time></trkpt>
<trkpt lat="28.673259" lon="99.858595">
<time>2015-08-06T08:28:19Z</time></trkpt>
<trkpt lat="28.673409" lon="99.858184">
<time>2015-08-06T08:28:20Z</time></trkpt>
<trkpt lat="28.673548" lon="99.857733">
<time>2015-08-06T08:28:21Z</time></trkpt>
<trkpt lat="28.673667" lon="99.857493">
<time>2015-08-06T08:28:22Z</time></trkpt>
<trkpt lat="28.673707" lon="99.857433">
<time>2015-08-06T08:28:23Z</time></trkpt>
<trkpt lat="28.673727" lon="99.857383">
<time>2015-08-06T08:28:24Z</time></trkpt>
<trkpt lat="28.673737" lon="99.857303">
<time>2015-08-06T08:28:25Z</time></trkpt>
<trkpt lat="28.673717" lon="99.857242">
<time>2015-08-06T08:28:26Z</time></trkpt>
<trkpt lat="28.673677" lon="99.857192">
<time>2015-08-06T08:28:27Z</time></trkpt>
<trkpt lat="28.673527" lon="99.857112">
<time>2015-08-06T08:28:28Z</time></trkpt>
<trkpt lat="28.673327" lon="99.857022">
<time>2015-08-06T08:28:29Z</time></trkpt>
<trkpt lat="28.673167" lon="99.856962">
<time>2015-08-06T08:28:30Z</time></trkpt>
<trkpt lat="28.673067" lon="99.856862">
<time>2015-08-06T08:28:31Z</time></trkpt>
<trkpt lat="28.673027" lon="99.856782">
<time>2015-08-06T08:28:32Z</time></trkpt>
<trkpt lat="28.673016" lon="99.856671">
<time>2015-08-06T08:28:33Z</time></trkpt>
<trkpt lat="28.673056" lon="99.856461">
<time>2015-08-06T08:28:34Z</time></trkpt>
<trkpt lat="28.673066" lon="99.856401">
<time>2015-08-06T08:28:35Z</time></trkpt>
<trkpt lat="28.673066" lon="99.856361">
<time>2015-08-06T08:28:36Z</time></trkpt>
<trkpt lat="28.673046" lon="99.856301">
<time>2015-08-06T08:28:37Z</time></trkpt>
<trkpt lat="28.672966" lon="99.85611">
<time>2015-08-06T08:28:38Z</time></trkpt>
<trkpt lat="28.672905" lon="99.8559">
<time>2015-08-06T08:28:39Z</time></trkpt>
<trkpt lat="28.672895" lon="99.85577">
<time>2015-08-06T08:28:40Z</time></trkpt>
<trkpt lat="28.672945" lon="99.8556">
<time>2015-08-06T08:28:41Z</time></trkpt>
<trkpt lat="28.673044" lon="99.855369">
<time>2015-08-06T08:28:42Z</time></trkpt>
<trkpt lat="28.673114" lon="99.855259">
<time>2015-08-06T08:28:43Z</time></trkpt>
<trkpt lat="28.673264" lon="99.855089">
<time>2015-08-06T08:28:44Z</time></trkpt>
<trkpt lat="28.673444" lon="99.854978">
<time>2015-08-06T08:28:45Z</time></trkpt>
<trkpt lat="28.673663" lon="99.854858">
<time>2015-08-06T08:28:46Z</time></trkpt>
<trkpt lat="28.673733" lon="99.854798">
<time>2015-08-06T08:28:47Z</time></trkpt>
<trkpt lat="28.673763" lon="99.854758">
<time>2015-08-06T08:28:48Z</time></trkpt>
<trkpt lat="28.673783" lon="99.854688">
<time>2015-08-06T08:28:49Z</time></trkpt>
<trkpt lat="28.673852" lon="99.854478">
<time>2015-08-06T08:28:50Z</time></trkpt>
<trkpt lat="28.673922" lon="99.854367">
<time>2015-08-06T08:28:51Z</time></trkpt>
<trkpt lat="28.674062" lon="99.854267">
<time>2015-08-06T08:28:52Z</time></trkpt>
<trkpt lat="28.674152" lon="99.854237">
<time>2015-08-06T08:28:53Z</time></trkpt>
<trkpt lat="28.674252" lon="99.854207">
<time>2015-08-06T08:28:54Z</time></trkpt>
<trkpt lat="28.674332" lon="99.854197">
<time>2015-08-06T08:28:55Z</time></trkpt>
<trkpt lat="28.674402" lon="99.854207">
<time>2015-08-06T08:28:56Z</time></trkpt>
<trkpt lat="28.674742" lon="99.854307">
<time>2015-08-06T08:28:57Z</time></trkpt>
<trkpt lat="28.674862" lon="99.854327">
<time>2015-08-06T08:28:58Z</time></trkpt>
<trkpt lat="28.674952" lon="99.854317">
<time>2015-08-06T08:28:59Z</time></trkpt>
<trkpt lat="28.675042" lon="99.854317">
<time>2015-08-06T08:29:00Z</time></trkpt>
<trkpt lat="28.675111" lon="99.854287">
<time>2015-08-06T08:29:01Z</time></trkpt>
<trkpt lat="28.675191" lon="99.854217">
<time>2015-08-06T08:29:02Z</time></trkpt>
<trkpt lat="28.675221" lon="99.854167">
<time>2015-08-06T08:29:03Z</time></trkpt>
<trkpt lat="28.675261" lon="99.854027">
<time>2015-08-06T08:29:04Z</time></trkpt>
<trkpt lat="28.67536" lon="99.853476">
<time>2015-08-06T08:29:05Z</time></trkpt>
<trkpt lat="28.675429" lon="99.852945">
<time>2015-08-06T08:29:06Z</time></trkpt>
<trkpt lat="28.675459" lon="99.852805">
<time>2015-08-06T08:29:07Z</time></trkpt>
<trkpt lat="28.675528" lon="99.852584">
<time>2015-08-06T08:29:08Z</time></trkpt>
<trkpt lat="28.675608" lon="99.852424">
<time>2015-08-06T08:29:09Z</time></trkpt>
<trkpt lat="28.675658" lon="99.852364">
<time>2015-08-06T08:29:10Z</time></trkpt>
<trkpt lat="28.675728" lon="99.852344">
<time>2015-08-06T08:29:11Z</time></trkpt>
<trkpt lat="28.675768" lon="99.852344">
<time>2015-08-06T08:29:12Z</time></trkpt>
<trkpt lat="28.675808" lon="99.852354">
<time>2015-08-06T08:29:13Z</time></trkpt>
<trkpt lat="28.675858" lon="99.852394">
<time>2015-08-06T08:29:14Z</time></trkpt>
<trkpt lat="28.675898" lon="99.852454">
<time>2015-08-06T08:29:15Z</time></trkpt>
<trkpt lat="28.675988" lon="99.852574">
<time>2015-08-06T08:29:16Z</time></trkpt>
<trkpt lat="28.676068" lon="99.852644">
<time>2015-08-06T08:29:17Z</time></trkpt>
<trkpt lat="28.676198" lon="99.852734">
<time>2015-08-06T08:29:18Z</time></trkpt>
<trkpt lat="28.676348" lon="99.852794">
<time>2015-08-06T08:29:19Z</time></trkpt>
<trkpt lat="28.676718" lon="99.852915">
<time>2015-08-06T08:29:20Z</time></trkpt>
<trkpt lat="28.676788" lon="99.852915">
<time>2015-08-06T08:29:21Z</time></trkpt>
<trkpt lat="28.676828" lon="99.852915">
<time>2015-08-06T08:29:22Z</time></trkpt>
<trkpt lat="28.676928" lon="99.852895">
<time>2015-08-06T08:29:23Z</time></trkpt>
<trkpt lat="28.677008" lon="99.852845">
<time>2015-08-06T08:29:24Z</time></trkpt>
<trkpt lat="28.677088" lon="99.852784">
<time>2015-08-06T08:29:25Z</time></trkpt>
<trkpt lat="28.677268" lon="99.852694">
<time>2015-08-06T08:29:26Z</time></trkpt>
<trkpt lat="28.677358" lon="99.852654">
<time>2015-08-06T08:29:27Z</time></trkpt>
<trkpt lat="28.677437" lon="99.852594">
<time>2015-08-06T08:29:28Z</time></trkpt>
<trkpt lat="28.677517" lon="99.852474">
<time>2015-08-06T08:29:29Z</time></trkpt>
<trkpt lat="28.677567" lon="99.852283">
<time>2015-08-06T08:29:30Z</time></trkpt>
<trkpt lat="28.677617" lon="99.852123">
<time>2015-08-06T08:29:31Z</time></trkpt>
<trkpt lat="28.677686" lon="99.851953">
<time>2015-08-06T08:29:32Z</time></trkpt>
<trkpt lat="28.677945" lon="99.851532">
<time>2015-08-06T08:29:33Z</time></trkpt>
<trkpt lat="28.678045" lon="99.851362">
<time>2015-08-06T08:29:34Z</time></trkpt>
<trkpt lat="28.678165" lon="99.851262">
<time>2015-08-06T08:29:35Z</time></trkpt>
<trkpt lat="28.678305" lon="99.851171">
<time>2015-08-06T08:29:36Z</time></trkpt>
<trkpt lat="28.678464" lon="99.851101">
<time>2015-08-06T08:29:37Z</time></trkpt>
<trkpt lat="28.678574" lon="99.851061">
<time>2015-08-06T08:29:38Z</time></trkpt>
<trkpt lat="28.678644" lon="99.851001">
<time>2015-08-06T08:29:39Z</time></trkpt>
<trkpt lat="28.678734" lon="99.850891">
<time>2015-08-06T08:29:40Z</time></trkpt>
<trkpt lat="28.678794" lon="99.850751">
<time>2015-08-06T08:29:41Z</time></trkpt>
<trkpt lat="28.678843" lon="99.85063">
<time>2015-08-06T08:29:42Z</time></trkpt>
<trkpt lat="28.678923" lon="99.85056">
<time>2015-08-06T08:29:43Z</time></trkpt>
<trkpt lat="28.679043" lon="99.85048">
<time>2015-08-06T08:29:44Z</time></trkpt>
<trkpt lat="28.679153" lon="99.85043">
<time>2015-08-06T08:29:45Z</time></trkpt>
<trkpt lat="28.679253" lon="99.85038">
<time>2015-08-06T08:29:46Z</time></trkpt>
<trkpt lat="28.679472" lon="99.85022">
<time>2015-08-06T08:29:47Z</time></trkpt>
<trkpt lat="28.679662" lon="99.850129">
<time>2015-08-06T08:29:48Z</time></trkpt>
<trkpt lat="28.679872" lon="99.850099">
<time>2015-08-06T08:29:49Z</time></trkpt>
<trkpt lat="28.680102" lon="99.850089">
<time>2015-08-06T08:29:50Z</time></trkpt>
<trkpt lat="28.680322" lon="99.850109">
<time>2015-08-06T08:29:51Z</time></trkpt>
<trkpt lat="28.680482" lon="99.850099">
<time>2015-08-06T08:29:52Z</time></trkpt>
<trkpt lat="28.681041" lon="99.850039">
<time>2015-08-06T08:29:53Z</time></trkpt>
<trkpt lat="28.681251" lon="99.849999">
<time>2015-08-06T08:29:54Z</time></trkpt>
<trkpt lat="28.681611" lon="99.849929">
<time>2015-08-06T08:29:55Z</time></trkpt>
<trkpt lat="28.68184" lon="99.849919">
<time>2015-08-06T08:29:56Z</time></trkpt>
<trkpt lat="28.68197" lon="99.849939">
<time>2015-08-06T08:29:57Z</time></trkpt>
<trkpt lat="28.68206" lon="99.849959">
<time>2015-08-06T08:29:58Z</time></trkpt>
<trkpt lat="28.68217" lon="99.849969">
<time>2015-08-06T08:29:59Z</time></trkpt>
<trkpt lat="28.68231" lon="99.849939">
<time>2015-08-06T08:30:00Z</time></trkpt>
<trkpt lat="28.6824" lon="99.849909">
<time>2015-08-06T08:30:01Z</time></trkpt>
<trkpt lat="28.68258" lon="99.849799">
<time>2015-08-06T08:30:02Z</time></trkpt>
<trkpt lat="28.682839" lon="99.849628">
<time>2015-08-06T08:30:03Z</time></trkpt>
<trkpt lat="28.682939" lon="99.849528">
<time>2015-08-06T08:30:04Z</time></trkpt>
<trkpt lat="28.683039" lon="99.849408">
<time>2015-08-06T08:30:05Z</time></trkpt>
<trkpt lat="28.683298" lon="99.848907">
<time>2015-08-06T08:30:06Z</time></trkpt>
<trkpt lat="28.683438" lon="99.848727">
<time>2015-08-06T08:30:07Z</time></trkpt>
<trkpt lat="28.683537" lon="99.848586">
<time>2015-08-06T08:30:08Z</time></trkpt>
<trkpt lat="28.683627" lon="99.848416">
<time>2015-08-06T08:30:09Z</time></trkpt>
<trkpt lat="28.683667" lon="99.848346">
<time>2015-08-06T08:30:10Z</time></trkpt>
<trkpt lat="28.683687" lon="99.848236">
<time>2015-08-06T08:30:11Z</time></trkpt>
<trkpt lat="28.683696" lon="99.848146">
<time>2015-08-06T08:30:12Z</time></trkpt>
<trkpt lat="28.683686" lon="99.848005">
<time>2015-08-06T08:30:13Z</time></trkpt>
<trkpt lat="28.683626" lon="99.847815">
<time>2015-08-06T08:30:14Z</time></trkpt>
<trkpt lat="28.683575" lon="99.847584">
<time>2015-08-06T08:30:15Z</time></trkpt>
<trkpt lat="28.683535" lon="99.847244">
<time>2015-08-06T08:30:16Z</time></trkpt>
<trkpt lat="28.683514" lon="99.846883">
<time>2015-08-06T08:30:17Z</time></trkpt>
<trkpt lat="28.683494" lon="99.846783">
<time>2015-08-06T08:30:18Z</time></trkpt>
<trkpt lat="28.683454" lon="99.846683">
<time>2015-08-06T08:30:19Z</time></trkpt>
<trkpt lat="28.683324" lon="99.846492">
<time>2015-08-06T08:30:20Z</time></trkpt>
<trkpt lat="28.683163" lon="99.846272">
<time>2015-08-06T08:30:21Z</time></trkpt>
<trkpt lat="28.683033" lon="99.846132">
<time>2015-08-06T08:30:22Z</time></trkpt>
<trkpt lat="28.682913" lon="99.846052">
<time>2015-08-06T08:30:23Z</time></trkpt>
<trkpt lat="28.682703" lon="99.845891">
<time>2015-08-06T08:30:24Z</time></trkpt>
<trkpt lat="28.682593" lon="99.845771">
<time>2015-08-06T08:30:25Z</time></trkpt>
<trkpt lat="28.682483" lon="99.845581">
<time>2015-08-06T08:30:26Z</time></trkpt>
<trkpt lat="28.682282" lon="99.84522">
<time>2015-08-06T08:30:27Z</time></trkpt>
<trkpt lat="28.682172" lon="99.8451">
<time>2015-08-06T08:30:28Z</time></trkpt>
<trkpt lat="28.681982" lon="99.844939">
<time>2015-08-06T08:30:29Z</time></trkpt>
<trkpt lat="28.681872" lon="99.844829">
<time>2015-08-06T08:30:30Z</time></trkpt>
<trkpt lat="28.681822" lon="99.844729">
<time>2015-08-06T08:30:31Z</time></trkpt>
<trkpt lat="28.681771" lon="99.844609">
<time>2015-08-06T08:30:32Z</time></trkpt>
<trkpt lat="28.681651" lon="99.844268">
<time>2015-08-06T08:30:33Z</time></trkpt>
<trkpt lat="28.68152" lon="99.844028">
<time>2015-08-06T08:30:34Z</time></trkpt>
<trkpt lat="28.68142" lon="99.843907">
<time>2015-08-06T08:30:35Z</time></trkpt>
<trkpt lat="28.68127" lon="99.843767">
<time>2015-08-06T08:30:36Z</time></trkpt>
<trkpt lat="28.68109" lon="99.843647">
<time>2015-08-06T08:30:37Z</time></trkpt>
<trkpt lat="28.68091" lon="99.843497">
<time>2015-08-06T08:30:38Z</time></trkpt>
<trkpt lat="28.68071" lon="99.843376">
<time>2015-08-06T08:30:39Z</time></trkpt>
<trkpt lat="28.68053" lon="99.843326">
<time>2015-08-06T08:30:40Z</time></trkpt>
<trkpt lat="28.68036" lon="99.843256">
<time>2015-08-06T08:30:41Z</time></trkpt>
<trkpt lat="28.68017" lon="99.843136">
<time>2015-08-06T08:30:42Z</time></trkpt>
<trkpt lat="28.679859" lon="99.842885">
<time>2015-08-06T08:30:43Z</time></trkpt>
<trkpt lat="28.679629" lon="99.842625">
<time>2015-08-06T08:30:44Z</time></trkpt>
<trkpt lat="28.679489" lon="99.842505">
<time>2015-08-06T08:30:45Z</time></trkpt>
<trkpt lat="28.679369" lon="99.842444">
<time>2015-08-06T08:30:46Z</time></trkpt>
<trkpt lat="28.679169" lon="99.842424">
<time>2015-08-06T08:30:47Z</time></trkpt>
<trkpt lat="28.678959" lon="99.842374">
<time>2015-08-06T08:30:48Z</time></trkpt>
<trkpt lat="28.678849" lon="99.842374">
<time>2015-08-06T08:30:49Z</time></trkpt>
<trkpt lat="28.678749" lon="99.842384">
<time>2015-08-06T08:30:50Z</time></trkpt>
<trkpt lat="28.678519" lon="99.842444">
<time>2015-08-06T08:30:51Z</time></trkpt>
<trkpt lat="28.678459" lon="99.842455">
<time>2015-08-06T08:30:52Z</time></trkpt>
<trkpt lat="28.678349" lon="99.842434">
<time>2015-08-06T08:30:53Z</time></trkpt>
<trkpt lat="28.678239" lon="99.842354">
<time>2015-08-06T08:30:54Z</time></trkpt>
<trkpt lat="28.678169" lon="99.842264">
<time>2015-08-06T08:30:55Z</time></trkpt>
<trkpt lat="28.678099" lon="99.842124">
<time>2015-08-06T08:30:56Z</time></trkpt>
<trkpt lat="28.678049" lon="99.841913">
<time>2015-08-06T08:30:57Z</time></trkpt>
<trkpt lat="28.678008" lon="99.841733">
<time>2015-08-06T08:30:58Z</time></trkpt>
<trkpt lat="28.677988" lon="99.841513">
<time>2015-08-06T08:30:59Z</time></trkpt>
<trkpt lat="28.677938" lon="99.841382">
<time>2015-08-06T08:31:00Z</time></trkpt>
<trkpt lat="28.677848" lon="99.841222">
<time>2015-08-06T08:31:01Z</time></trkpt>
<trkpt lat="28.677777" lon="99.841142">
<time>2015-08-06T08:31:02Z</time></trkpt>
<trkpt lat="28.677667" lon="99.840982">
<time>2015-08-06T08:31:03Z</time></trkpt>
<trkpt lat="28.677437" lon="99.840611">
<time>2015-08-06T08:31:04Z</time></trkpt>
<trkpt lat="28.677276" lon="99.840461">
<time>2015-08-06T08:31:05Z</time></trkpt>
<trkpt lat="28.677136" lon="99.84039">
<time>2015-08-06T08:31:06Z</time></trkpt>
<trkpt lat="28.676966" lon="99.84033">
<time>2015-08-06T08:31:07Z</time></trkpt>
<trkpt lat="28.676856" lon="99.84026">
<time>2015-08-06T08:31:08Z</time></trkpt>
<trkpt lat="28.676786" lon="99.84019">
<time>2015-08-06T08:31:09Z</time></trkpt>
<trkpt lat="28.676686" lon="99.84003">
<time>2015-08-06T08:31:10Z</time></trkpt>
<trkpt lat="28.676636" lon="99.839929">
<time>2015-08-06T08:31:11Z</time></trkpt>
<trkpt lat="28.676546" lon="99.839829">
<time>2015-08-06T08:31:12Z</time></trkpt>
<trkpt lat="28.676466" lon="99.839769">
<time>2015-08-06T08:31:13Z</time></trkpt>
<trkpt lat="28.676346" lon="99.839709">
<time>2015-08-06T08:31:14Z</time></trkpt>
<trkpt lat="28.676126" lon="99.839609">
<time>2015-08-06T08:31:15Z</time></trkpt>
<trkpt lat="28.676046" lon="99.839549">
<time>2015-08-06T08:31:16Z</time></trkpt>
<trkpt lat="28.675995" lon="99.839459">
<time>2015-08-06T08:31:17Z</time></trkpt>
<trkpt lat="28.676005" lon="99.839348">
<time>2015-08-06T08:31:18Z</time></trkpt>
<trkpt lat="28.676045" lon="99.839238">
<time>2015-08-06T08:31:19Z</time></trkpt>
<trkpt lat="28.676155" lon="99.839078">
<time>2015-08-06T08:31:20Z</time></trkpt>
<trkpt lat="28.676254" lon="99.838988">
<time>2015-08-06T08:31:21Z</time></trkpt>
<trkpt lat="28.676654" lon="99.838717">
<time>2015-08-06T08:31:22Z</time></trkpt>
<trkpt lat="28.676743" lon="99.838647">
<time>2015-08-06T08:31:23Z</time></trkpt>
<trkpt lat="28.676823" lon="99.838527">
<time>2015-08-06T08:31:24Z</time></trkpt>
<trkpt lat="28.676893" lon="99.838376">
<time>2015-08-06T08:31:25Z</time></trkpt>
<trkpt lat="28.676933" lon="99.838246">
<time>2015-08-06T08:31:26Z</time></trkpt>
<trkpt lat="28.677002" lon="99.838136">
<time>2015-08-06T08:31:27Z</time></trkpt>
<trkpt lat="28.677052" lon="99.838106">
<time>2015-08-06T08:31:28Z</time></trkpt>
<trkpt lat="28.677132" lon="99.838076">
<time>2015-08-06T08:31:29Z</time></trkpt>
<trkpt lat="28.677302" lon="99.838036">
<time>2015-08-06T08:31:30Z</time></trkpt>
<trkpt lat="28.677402" lon="99.837995">
<time>2015-08-06T08:31:31Z</time></trkpt>
<trkpt lat="28.677442" lon="99.837965">
<time>2015-08-06T08:31:32Z</time></trkpt>
<trkpt lat="28.677492" lon="99.837915">
<time>2015-08-06T08:31:33Z</time></trkpt>
<trkpt lat="28.677561" lon="99.837765">
<time>2015-08-06T08:31:34Z</time></trkpt>
<trkpt lat="28.677631" lon="99.837635">
<time>2015-08-06T08:31:35Z</time></trkpt>
<trkpt lat="28.677691" lon="99.837545">
<time>2015-08-06T08:31:36Z</time></trkpt>
<trkpt lat="28.677721" lon="99.837504">
<time>2015-08-06T08:31:37Z</time></trkpt>
<trkpt lat="28.677811" lon="99.837444">
<time>2015-08-06T08:31:38Z</time></trkpt>
<trkpt lat="28.677901" lon="99.837394">
<time>2015-08-06T08:31:39Z</time></trkpt>
<trkpt lat="28.678" lon="99.837364">
<time>2015-08-06T08:31:40Z</time></trkpt>
<trkpt lat="28.67814" lon="99.837344">
<time>2015-08-06T08:31:41Z</time></trkpt>
<trkpt lat="28.67824" lon="99.837324">
<time>2015-08-06T08:31:42Z</time></trkpt>
<trkpt lat="28.67831" lon="99.837324">
<time>2015-08-06T08:31:43Z</time></trkpt>
<trkpt lat="28.67837" lon="99.837344">
<time>2015-08-06T08:31:44Z</time></trkpt>
<trkpt lat="28.67853" lon="99.837474">
<time>2015-08-06T08:31:45Z</time></trkpt>
<trkpt lat="28.67867" lon="99.837534">
<time>2015-08-06T08:31:46Z</time></trkpt>
<trkpt lat="28.67883" lon="99.837575">
<time>2015-08-06T08:31:47Z</time></trkpt>
<trkpt lat="28.67896" lon="99.837585">
<time>2015-08-06T08:31:48Z</time></trkpt>
<trkpt lat="28.67907" lon="99.837575">
<time>2015-08-06T08:31:49Z</time></trkpt>
<trkpt lat="28.67918" lon="99.837565">
<time>2015-08-06T08:31:50Z</time></trkpt>
<trkpt lat="28.67934" lon="99.837524">
<time>2015-08-06T08:31:51Z</time></trkpt>
<trkpt lat="28.67949" lon="99.837484">
<time>2015-08-06T08:31:52Z</time></trkpt>
<trkpt lat="28.67963" lon="99.837424">
<time>2015-08-06T08:31:53Z</time></trkpt>
<trkpt lat="28.679809" lon="99.837314">
<time>2015-08-06T08:31:54Z</time></trkpt>
<trkpt lat="28.679929" lon="99.837154">
<time>2015-08-06T08:31:55Z</time></trkpt>
<trkpt lat="28.679999" lon="99.836973">
<time>2015-08-06T08:31:56Z</time></trkpt>
<trkpt lat="28.680068" lon="99.836793">
<time>2015-08-06T08:31:57Z</time></trkpt>
<trkpt lat="28.680148" lon="99.836643">
<time>2015-08-06T08:31:58Z</time></trkpt>
<trkpt lat="28.680238" lon="99.836502">
<time>2015-08-06T08:31:59Z</time></trkpt>
<trkpt lat="28.680347" lon="99.836372">
<time>2015-08-06T08:32:00Z</time></trkpt>
<trkpt lat="28.680517" lon="99.836222">
<time>2015-08-06T08:32:01Z</time></trkpt>
<trkpt lat="28.680746" lon="99.836091">
<time>2015-08-06T08:32:02Z</time></trkpt>
<trkpt lat="28.680906" lon="99.836021">
<time>2015-08-06T08:32:03Z</time></trkpt>
<trkpt lat="28.680996" lon="99.835981">
<time>2015-08-06T08:32:04Z</time></trkpt>
<trkpt lat="28.681086" lon="99.835961">
<time>2015-08-06T08:32:05Z</time></trkpt>
<trkpt lat="28.681196" lon="99.835951">
<time>2015-08-06T08:32:06Z</time></trkpt>
<trkpt lat="28.681316" lon="99.835941">
<time>2015-08-06T08:32:07Z</time></trkpt>
<trkpt lat="28.681476" lon="99.835971">
<time>2015-08-06T08:32:08Z</time></trkpt>
<trkpt lat="28.681756" lon="99.836021">
<time>2015-08-06T08:32:09Z</time></trkpt>
<trkpt lat="28.682206" lon="99.836142">
<time>2015-08-06T08:32:10Z</time></trkpt>
<trkpt lat="28.682296" lon="99.836142">
<time>2015-08-06T08:32:11Z</time></trkpt>
<trkpt lat="28.682386" lon="99.836111">
<time>2015-08-06T08:32:12Z</time></trkpt>
<trkpt lat="28.682485" lon="99.836031">
<time>2015-08-06T08:32:13Z</time></trkpt>
<trkpt lat="28.682844" lon="99.835661">
<time>2015-08-06T08:32:14Z</time></trkpt>
<trkpt lat="28.683014" lon="99.83551">
<time>2015-08-06T08:32:15Z</time></trkpt>
<trkpt lat="28.683344" lon="99.83531">
<time>2015-08-06T08:32:16Z</time></trkpt>
<trkpt lat="28.683543" lon="99.8352">
<time>2015-08-06T08:32:17Z</time></trkpt>
<trkpt lat="28.683633" lon="99.835139">
<time>2015-08-06T08:32:18Z</time></trkpt>
<trkpt lat="28.683683" lon="99.835079">
<time>2015-08-06T08:32:19Z</time></trkpt>
<trkpt lat="28.683723" lon="99.834979">
<time>2015-08-06T08:32:20Z</time></trkpt>
<trkpt lat="28.683743" lon="99.834889">
<time>2015-08-06T08:32:21Z</time></trkpt>
<trkpt lat="28.683742" lon="99.834799">
<time>2015-08-06T08:32:22Z</time></trkpt>
<trkpt lat="28.683732" lon="99.834719">
<time>2015-08-06T08:32:23Z</time></trkpt>
<trkpt lat="28.683712" lon="99.834618">
<time>2015-08-06T08:32:24Z</time></trkpt>
<trkpt lat="28.683642" lon="99.834368">
<time>2015-08-06T08:32:25Z</time></trkpt>
<trkpt lat="28.683521" lon="99.833947">
<time>2015-08-06T08:32:26Z</time></trkpt>
<trkpt lat="28.68344" lon="99.833716">
<time>2015-08-06T08:32:27Z</time></trkpt>
<trkpt lat="28.68334" lon="99.833506">
<time>2015-08-06T08:32:28Z</time></trkpt>
<trkpt lat="28.68329" lon="99.833386">
<time>2015-08-06T08:32:29Z</time></trkpt>
<trkpt lat="28.68318" lon="99.833195">
<time>2015-08-06T08:32:30Z</time></trkpt>
<trkpt lat="28.68314" lon="99.833145">
<time>2015-08-06T08:32:31Z</time></trkpt>
<trkpt lat="28.68308" lon="99.833085">
<time>2015-08-06T08:32:32Z</time></trkpt>
<trkpt lat="28.682859" lon="99.832925">
<time>2015-08-06T08:32:33Z</time></trkpt>
<trkpt lat="28.682189" lon="99.832494">
<time>2015-08-06T08:32:34Z</time></trkpt>
<trkpt lat="28.681979" lon="99.832414">
<time>2015-08-06T08:32:35Z</time></trkpt>
<trkpt lat="28.681649" lon="99.832334">
<time>2015-08-06T08:32:36Z</time></trkpt>
<trkpt lat="28.681269" lon="99.832284">
<time>2015-08-06T08:32:37Z</time></trkpt>
<trkpt lat="28.680219" lon="99.832173">
<time>2015-08-06T08:32:38Z</time></trkpt>
<trkpt lat="28.67965" lon="99.832183">
<time>2015-08-06T08:32:39Z</time></trkpt>
<trkpt lat="28.67943" lon="99.832143">
<time>2015-08-06T08:32:40Z</time></trkpt>
<trkpt lat="28.67926" lon="99.832133">
<time>2015-08-06T08:32:41Z</time></trkpt>
<trkpt lat="28.67914" lon="99.832163">
<time>2015-08-06T08:32:42Z</time></trkpt>
<trkpt lat="28.67893" lon="99.832274">
<time>2015-08-06T08:32:43Z</time></trkpt>
<trkpt lat="28.678801" lon="99.832344">
<time>2015-08-06T08:32:44Z</time></trkpt>
<trkpt lat="28.678641" lon="99.832384">
<time>2015-08-06T08:32:45Z</time></trkpt>
<trkpt lat="28.678571" lon="99.832374">
<time>2015-08-06T08:32:46Z</time></trkpt>
<trkpt lat="28.678461" lon="99.832354">
<time>2015-08-06T08:32:47Z</time></trkpt>
<trkpt lat="28.678351" lon="99.832294">
<time>2015-08-06T08:32:48Z</time></trkpt>
<trkpt lat="28.678231" lon="99.832203">
<time>2015-08-06T08:32:49Z</time></trkpt>
<trkpt lat="28.67807" lon="99.832013">
<time>2015-08-06T08:32:50Z</time></trkpt>
<trkpt lat="28.67797" lon="99.831903">
<time>2015-08-06T08:32:51Z</time></trkpt>
<trkpt lat="28.67785" lon="99.831823">
<time>2015-08-06T08:32:52Z</time></trkpt>
<trkpt lat="28.67763" lon="99.831722">
<time>2015-08-06T08:32:53Z</time></trkpt>
<trkpt lat="28.67752" lon="99.831712">
<time>2015-08-06T08:32:54Z</time></trkpt>
<trkpt lat="28.67741" lon="99.831712">
<time>2015-08-06T08:32:55Z</time></trkpt>
<trkpt lat="28.67731" lon="99.831753">
<time>2015-08-06T08:32:56Z</time></trkpt>
<trkpt lat="28.67723" lon="99.831793">
<time>2015-08-06T08:32:57Z</time></trkpt>
<trkpt lat="28.677091" lon="99.831903">
<time>2015-08-06T08:32:58Z</time></trkpt>
<trkpt lat="28.676971" lon="99.831983">
<time>2015-08-06T08:32:59Z</time></trkpt>
<trkpt lat="28.676761" lon="99.832123">
<time>2015-08-06T08:33:00Z</time></trkpt>
<trkpt lat="28.676462" lon="99.832284">
<time>2015-08-06T08:33:01Z</time></trkpt>
<trkpt lat="28.676232" lon="99.832354">
<time>2015-08-06T08:33:02Z</time></trkpt>
<trkpt lat="28.676082" lon="99.832394">
<time>2015-08-06T08:33:03Z</time></trkpt>
<trkpt lat="28.675832" lon="99.832424">
<time>2015-08-06T08:33:04Z</time></trkpt>
<trkpt lat="28.675533" lon="99.832414">
<time>2015-08-06T08:33:05Z</time></trkpt>
<trkpt lat="28.675333" lon="99.832374">
<time>2015-08-06T08:33:06Z</time></trkpt>
<trkpt lat="28.675083" lon="99.832304">
<time>2015-08-06T08:33:07Z</time></trkpt>
<trkpt lat="28.674893" lon="99.832234">
<time>2015-08-06T08:33:08Z</time></trkpt>
<trkpt lat="28.674773" lon="99.832173">
<time>2015-08-06T08:33:09Z</time></trkpt>
<trkpt lat="28.674672" lon="99.832083">
<time>2015-08-06T08:33:10Z</time></trkpt>
<trkpt lat="28.674552" lon="99.831923">
<time>2015-08-06T08:33:11Z</time></trkpt>
<trkpt lat="28.674502" lon="99.831813">
<time>2015-08-06T08:33:12Z</time></trkpt>
<trkpt lat="28.674442" lon="99.831642">
<time>2015-08-06T08:33:13Z</time></trkpt>
<trkpt lat="28.674421" lon="99.831462">
<time>2015-08-06T08:33:14Z</time></trkpt>
<trkpt lat="28.674421" lon="99.831242">
<time>2015-08-06T08:33:15Z</time></trkpt>
<trkpt lat="28.67444" lon="99.830761">
<time>2015-08-06T08:33:16Z</time></trkpt>
<trkpt lat="28.67442" lon="99.83064">
<time>2015-08-06T08:33:17Z</time></trkpt>
<trkpt lat="28.67437" lon="99.83049">
<time>2015-08-06T08:33:18Z</time></trkpt>
<trkpt lat="28.673908" lon="99.829378">
<time>2015-08-06T08:33:19Z</time></trkpt>
<trkpt lat="28.673707" lon="99.829047">
<time>2015-08-06T08:33:20Z</time></trkpt>
<trkpt lat="28.673547" lon="99.828796">
<time>2015-08-06T08:33:21Z</time></trkpt>
<trkpt lat="28.673367" lon="99.828576">
<time>2015-08-06T08:33:22Z</time></trkpt>
<trkpt lat="28.673136" lon="99.828325">
<time>2015-08-06T08:33:23Z</time></trkpt>
<trkpt lat="28.672986" lon="99.828135">
<time>2015-08-06T08:33:24Z</time></trkpt>
<trkpt lat="28.672906" lon="99.828005">
<time>2015-08-06T08:33:25Z</time></trkpt>
<trkpt lat="28.672866" lon="99.827905">
<time>2015-08-06T08:33:26Z</time></trkpt>
<trkpt lat="28.672785" lon="99.827614">
<time>2015-08-06T08:33:27Z</time></trkpt>
<trkpt lat="28.672725" lon="99.827464">
<time>2015-08-06T08:33:28Z</time></trkpt>
<trkpt lat="28.672675" lon="99.827404">
<time>2015-08-06T08:33:29Z</time></trkpt>
<trkpt lat="28.672615" lon="99.827343">
<time>2015-08-06T08:33:30Z</time></trkpt>
<trkpt lat="28.672535" lon="99.827323">
<time>2015-08-06T08:33:31Z</time></trkpt>
<trkpt lat="28.672445" lon="99.827333">
<time>2015-08-06T08:33:32Z</time></trkpt>
<trkpt lat="28.672365" lon="99.827353">
<time>2015-08-06T08:33:33Z</time></trkpt>
<trkpt lat="28.672275" lon="99.827414">
<time>2015-08-06T08:33:34Z</time></trkpt>
<trkpt lat="28.672215" lon="99.827494">
<time>2015-08-06T08:33:35Z</time></trkpt>
<trkpt lat="28.672175" lon="99.827574">
<time>2015-08-06T08:33:36Z</time></trkpt>
<trkpt lat="28.672146" lon="99.827724">
<time>2015-08-06T08:33:37Z</time></trkpt>
<trkpt lat="28.672126" lon="99.827885">
<time>2015-08-06T08:33:38Z</time></trkpt>
<trkpt lat="28.672106" lon="99.828035">
<time>2015-08-06T08:33:39Z</time></trkpt>
<trkpt lat="28.672077" lon="99.828215">
<time>2015-08-06T08:33:40Z</time></trkpt>
<trkpt lat="28.671987" lon="99.828566">
<time>2015-08-06T08:33:41Z</time></trkpt>
<trkpt lat="28.671968" lon="99.829057">
<time>2015-08-06T08:33:42Z</time></trkpt>
<trkpt lat="28.671929" lon="99.829328">
<time>2015-08-06T08:33:43Z</time></trkpt>
<trkpt lat="28.671909" lon="99.829448">
<time>2015-08-06T08:33:44Z</time></trkpt>
<trkpt lat="28.67182" lon="99.829728">
<time>2015-08-06T08:33:45Z</time></trkpt>
<trkpt lat="28.67174" lon="99.829899">
<time>2015-08-06T08:33:46Z</time></trkpt>
<trkpt lat="28.67166" lon="99.830009">
<time>2015-08-06T08:33:47Z</time></trkpt>
<trkpt lat="28.671531" lon="99.830149">
<time>2015-08-06T08:33:48Z</time></trkpt>
<trkpt lat="28.671381" lon="99.83027">
<time>2015-08-06T08:33:49Z</time></trkpt>
<trkpt lat="28.671251" lon="99.83035">
<time>2015-08-06T08:33:50Z</time></trkpt>
<trkpt lat="28.671151" lon="99.83041">
<time>2015-08-06T08:33:51Z</time></trkpt>
<trkpt lat="28.671071" lon="99.83048">
<time>2015-08-06T08:33:52Z</time></trkpt>
<trkpt lat="28.671002" lon="99.83054">
<time>2015-08-06T08:33:53Z</time></trkpt>
<trkpt lat="28.670932" lon="99.83064">
<time>2015-08-06T08:33:54Z</time></trkpt>
<trkpt lat="28.670723" lon="99.830971">
<time>2015-08-06T08:33:55Z</time></trkpt>
<trkpt lat="28.670523" lon="99.831242">
<time>2015-08-06T08:33:56Z</time></trkpt>
<trkpt lat="28.670403" lon="99.831332">
<time>2015-08-06T08:33:57Z</time></trkpt>
<trkpt lat="28.670294" lon="99.831392">
<time>2015-08-06T08:33:58Z</time></trkpt>
<trkpt lat="28.670174" lon="99.831432">
<time>2015-08-06T08:33:59Z</time></trkpt>
<trkpt lat="28.670054" lon="99.831472">
<time>2015-08-06T08:34:00Z</time></trkpt>
<trkpt lat="28.669954" lon="99.831522">
<time>2015-08-06T08:34:01Z</time></trkpt>
<trkpt lat="28.669874" lon="99.831582">
<time>2015-08-06T08:34:02Z</time></trkpt>
<trkpt lat="28.669814" lon="99.831652">
<time>2015-08-06T08:34:03Z</time></trkpt>
<trkpt lat="28.669715" lon="99.831773">
<time>2015-08-06T08:34:04Z</time></trkpt>
<trkpt lat="28.669087" lon="99.832775">
<time>2015-08-06T08:34:05Z</time></trkpt>
<trkpt lat="28.668987" lon="99.832905">
<time>2015-08-06T08:34:06Z</time></trkpt>
<trkpt lat="28.668937" lon="99.832975">
<time>2015-08-06T08:34:07Z</time></trkpt>
<trkpt lat="28.668848" lon="99.833055">
<time>2015-08-06T08:34:08Z</time></trkpt>
<trkpt lat="28.668698" lon="99.833136">
<time>2015-08-06T08:34:09Z</time></trkpt>
<trkpt lat="28.668418" lon="99.833206">
<time>2015-08-06T08:34:10Z</time></trkpt>
<trkpt lat="28.668258" lon="99.833256">
<time>2015-08-06T08:34:11Z</time></trkpt>
<trkpt lat="28.668138" lon="99.833306">
<time>2015-08-06T08:34:12Z</time></trkpt>
<trkpt lat="28.667939" lon="99.833436">
<time>2015-08-06T08:34:13Z</time></trkpt>
<trkpt lat="28.667719" lon="99.833617">
<time>2015-08-06T08:34:14Z</time></trkpt>
<trkpt lat="28.66748" lon="99.833797">
<time>2015-08-06T08:34:15Z</time></trkpt>
<trkpt lat="28.6673" lon="99.833887">
<time>2015-08-06T08:34:16Z</time></trkpt>
<trkpt lat="28.66713" lon="99.833927">
<time>2015-08-06T08:34:17Z</time></trkpt>
<trkpt lat="28.66693" lon="99.833927">
<time>2015-08-06T08:34:18Z</time></trkpt>
<trkpt lat="28.66686" lon="99.833927">
<time>2015-08-06T08:34:19Z</time></trkpt>
<trkpt lat="28.6667" lon="99.833947">
<time>2015-08-06T08:34:20Z</time></trkpt>
<trkpt lat="28.666621" lon="99.833957">
<time>2015-08-06T08:34:21Z</time></trkpt>
<trkpt lat="28.666531" lon="99.833997">
<time>2015-08-06T08:34:22Z</time></trkpt>
<trkpt lat="28.666451" lon="99.834058">
<time>2015-08-06T08:34:23Z</time></trkpt>
<trkpt lat="28.666381" lon="99.834138">
<time>2015-08-06T08:34:24Z</time></trkpt>
<trkpt lat="28.666311" lon="99.834258">
<time>2015-08-06T08:34:25Z</time></trkpt>
<trkpt lat="28.666232" lon="99.834428">
<time>2015-08-06T08:34:26Z</time></trkpt>
<trkpt lat="28.666172" lon="99.834619">
<time>2015-08-06T08:34:27Z</time></trkpt>
<trkpt lat="28.666083" lon="99.834869">
<time>2015-08-06T08:34:28Z</time></trkpt>
<trkpt lat="28.666033" lon="99.83498">
<time>2015-08-06T08:34:29Z</time></trkpt>
<trkpt lat="28.665993" lon="99.83505">
<time>2015-08-06T08:34:30Z</time></trkpt>
<trkpt lat="28.665923" lon="99.83512">
<time>2015-08-06T08:34:31Z</time></trkpt>
<trkpt lat="28.665863" lon="99.83516">
<time>2015-08-06T08:34:32Z</time></trkpt>
<trkpt lat="28.665773" lon="99.83518">
<time>2015-08-06T08:34:33Z</time></trkpt>
<trkpt lat="28.665693" lon="99.83518">
<time>2015-08-06T08:34:34Z</time></trkpt>
<trkpt lat="28.665613" lon="99.83517">
<time>2015-08-06T08:34:35Z</time></trkpt>
<trkpt lat="28.665503" lon="99.83514">
<time>2015-08-06T08:34:36Z</time></trkpt>
<trkpt lat="28.665413" lon="99.83511">
<time>2015-08-06T08:34:37Z</time></trkpt>
<trkpt lat="28.665283" lon="99.83508">
<time>2015-08-06T08:34:38Z</time></trkpt>
<trkpt lat="28.665183" lon="99.83506">
<time>2015-08-06T08:34:39Z</time></trkpt>
<trkpt lat="28.665043" lon="99.83505">
<time>2015-08-06T08:34:40Z</time></trkpt>
<trkpt lat="28.664864" lon="99.83504">
<time>2015-08-06T08:34:41Z</time></trkpt>
<trkpt lat="28.664754" lon="99.83503">
<time>2015-08-06T08:34:42Z</time></trkpt>
<trkpt lat="28.664664" lon="99.83501">
<time>2015-08-06T08:34:43Z</time></trkpt>
<trkpt lat="28.664594" lon="99.83497">
<time>2015-08-06T08:34:44Z</time></trkpt>
<trkpt lat="28.664503" lon="99.834899">
<time>2015-08-06T08:34:45Z</time></trkpt>
<trkpt lat="28.664373" lon="99.834779">
<time>2015-08-06T08:34:46Z</time></trkpt>
<trkpt lat="28.664313" lon="99.834719">
<time>2015-08-06T08:34:47Z</time></trkpt>
<trkpt lat="28.664263" lon="99.834679">
<time>2015-08-06T08:34:48Z</time></trkpt>
<trkpt lat="28.664203" lon="99.834649">
<time>2015-08-06T08:34:49Z</time></trkpt>
<trkpt lat="28.664143" lon="99.834619">
<time>2015-08-06T08:34:50Z</time></trkpt>
<trkpt lat="28.664083" lon="99.834599">
<time>2015-08-06T08:34:51Z</time></trkpt>
<trkpt lat="28.663913" lon="99.834569">
<time>2015-08-06T08:34:52Z</time></trkpt>
<trkpt lat="28.663823" lon="99.834549">
<time>2015-08-06T08:34:53Z</time></trkpt>
<trkpt lat="28.663793" lon="99.834539">
<time>2015-08-06T08:34:54Z</time></trkpt>
<trkpt lat="28.663613" lon="99.834479">
<time>2015-08-06T08:34:55Z</time></trkpt>
<trkpt lat="28.663473" lon="99.834428">
<time>2015-08-06T08:34:56Z</time></trkpt>
<trkpt lat="28.663383" lon="99.834398">
<time>2015-08-06T08:34:57Z</time></trkpt>
<trkpt lat="28.663293" lon="99.834388">
<time>2015-08-06T08:34:58Z</time></trkpt>
<trkpt lat="28.663203" lon="99.834398">
<time>2015-08-06T08:34:59Z</time></trkpt>
<trkpt lat="28.663103" lon="99.834418">
<time>2015-08-06T08:35:00Z</time></trkpt>
<trkpt lat="28.662993" lon="99.834469">
<time>2015-08-06T08:35:01Z</time></trkpt>
<trkpt lat="28.662864" lon="99.834549">
<time>2015-08-06T08:35:02Z</time></trkpt>
<trkpt lat="28.662714" lon="99.834679">
<time>2015-08-06T08:35:03Z</time></trkpt>
<trkpt lat="28.662425" lon="99.83497">
<time>2015-08-06T08:35:04Z</time></trkpt>
<trkpt lat="28.662285" lon="99.83512">
<time>2015-08-06T08:35:05Z</time></trkpt>
<trkpt lat="28.662185" lon="99.83525">
<time>2015-08-06T08:35:06Z</time></trkpt>
<trkpt lat="28.662126" lon="99.83535">
<time>2015-08-06T08:35:07Z</time></trkpt>
<trkpt lat="28.662096" lon="99.835441">
<time>2015-08-06T08:35:08Z</time></trkpt>
<trkpt lat="28.662076" lon="99.835541">
<time>2015-08-06T08:35:09Z</time></trkpt>
<trkpt lat="28.662096" lon="99.835651">
<time>2015-08-06T08:35:10Z</time></trkpt>
<trkpt lat="28.662136" lon="99.835801">
<time>2015-08-06T08:35:11Z</time></trkpt>
<trkpt lat="28.662157" lon="99.835922">
<time>2015-08-06T08:35:12Z</time></trkpt>
<trkpt lat="28.662167" lon="99.836032">
<time>2015-08-06T08:35:13Z</time></trkpt>
<trkpt lat="28.662167" lon="99.836142">
<time>2015-08-06T08:35:14Z</time></trkpt>
<trkpt lat="28.662147" lon="99.836252">
<time>2015-08-06T08:35:15Z</time></trkpt>
<trkpt lat="28.662107" lon="99.836352">
<time>2015-08-06T08:35:16Z</time></trkpt>
<trkpt lat="28.661978" lon="99.836613">
<time>2015-08-06T08:35:17Z</time></trkpt>
<trkpt lat="28.661888" lon="99.836803">
<time>2015-08-06T08:35:18Z</time></trkpt>
<trkpt lat="28.661829" lon="99.836924">
<time>2015-08-06T08:35:19Z</time></trkpt>
<trkpt lat="28.661789" lon="99.837054">
<time>2015-08-06T08:35:20Z</time></trkpt>
<trkpt lat="28.661779" lon="99.837164">
<time>2015-08-06T08:35:21Z</time></trkpt>
<trkpt lat="28.661769" lon="99.837274">
<time>2015-08-06T08:35:22Z</time></trkpt>
<trkpt lat="28.66177" lon="99.837415">
<time>2015-08-06T08:35:23Z</time></trkpt>
<trkpt lat="28.66178" lon="99.837595">
<time>2015-08-06T08:35:24Z</time></trkpt>
<trkpt lat="28.66178" lon="99.837725">
<time>2015-08-06T08:35:25Z</time></trkpt>
<trkpt lat="28.66177" lon="99.837886">
<time>2015-08-06T08:35:26Z</time></trkpt>
<trkpt lat="28.661751" lon="99.838056">
<time>2015-08-06T08:35:27Z</time></trkpt>
<trkpt lat="28.661751" lon="99.838206">
<time>2015-08-06T08:35:28Z</time></trkpt>
<trkpt lat="28.661751" lon="99.838317">
<time>2015-08-06T08:35:29Z</time></trkpt>
<trkpt lat="28.661772" lon="99.838457">
<time>2015-08-06T08:35:30Z</time></trkpt>
<trkpt lat="28.661802" lon="99.838597">
<time>2015-08-06T08:35:31Z</time></trkpt>
<trkpt lat="28.661802" lon="99.838677">
<time>2015-08-06T08:35:32Z</time></trkpt>
<trkpt lat="28.661792" lon="99.838757">
<time>2015-08-06T08:35:33Z</time></trkpt>
<trkpt lat="28.661772" lon="99.838828">
<time>2015-08-06T08:35:34Z</time></trkpt>
<trkpt lat="28.661732" lon="99.838888">
<time>2015-08-06T08:35:35Z</time></trkpt>
<trkpt lat="28.661603" lon="99.839018">
<time>2015-08-06T08:35:36Z</time></trkpt>
<trkpt lat="28.661463" lon="99.839148">
<time>2015-08-06T08:35:37Z</time></trkpt>
<trkpt lat="28.661313" lon="99.839319">
<time>2015-08-06T08:35:38Z</time></trkpt>
<trkpt lat="28.661184" lon="99.839499">
<time>2015-08-06T08:35:39Z</time></trkpt>
<trkpt lat="28.661034" lon="99.839719">
<time>2015-08-06T08:35:40Z</time></trkpt>
<trkpt lat="28.660915" lon="99.83991">
<time>2015-08-06T08:35:41Z</time></trkpt>
<trkpt lat="28.660845" lon="99.84004">
<time>2015-08-06T08:35:42Z</time></trkpt>
<trkpt lat="28.660785" lon="99.84011">
<time>2015-08-06T08:35:43Z</time></trkpt>
<trkpt lat="28.660725" lon="99.84017">
<time>2015-08-06T08:35:44Z</time></trkpt>
<trkpt lat="28.660655" lon="99.8402">
<time>2015-08-06T08:35:45Z</time></trkpt>
<trkpt lat="28.660575" lon="99.84023">
<time>2015-08-06T08:35:46Z</time></trkpt>
<trkpt lat="28.660495" lon="99.84023">
<time>2015-08-06T08:35:47Z</time></trkpt>
<trkpt lat="28.660415" lon="99.84021">
<time>2015-08-06T08:35:48Z</time></trkpt>
<trkpt lat="28.660345" lon="99.84017">
<time>2015-08-06T08:35:49Z</time></trkpt>
<trkpt lat="28.660295" lon="99.84012">
<time>2015-08-06T08:35:50Z</time></trkpt>
<trkpt lat="28.660195" lon="99.84">
<time>2015-08-06T08:35:51Z</time></trkpt>
<trkpt lat="28.660065" lon="99.83986">
<time>2015-08-06T08:35:52Z</time></trkpt>
<trkpt lat="28.659905" lon="99.83975">
<time>2015-08-06T08:35:53Z</time></trkpt>
<trkpt lat="28.659665" lon="99.839609">
<time>2015-08-06T08:35:54Z</time></trkpt>
<trkpt lat="28.659265" lon="99.839449">
<time>2015-08-06T08:35:55Z</time></trkpt>
<trkpt lat="28.659105" lon="99.839389">
<time>2015-08-06T08:35:56Z</time></trkpt>
<trkpt lat="28.658955" lon="99.839359">
<time>2015-08-06T08:35:57Z</time></trkpt>
<trkpt lat="28.658835" lon="99.839339">
<time>2015-08-06T08:35:58Z</time></trkpt>
<trkpt lat="28.658715" lon="99.839339">
<time>2015-08-06T08:35:59Z</time></trkpt>
<trkpt lat="28.658585" lon="99.839349">
<time>2015-08-06T08:36:00Z</time></trkpt>
<trkpt lat="28.658275" lon="99.839389">
<time>2015-08-06T08:36:01Z</time></trkpt>
<trkpt lat="28.657985" lon="99.839439">
<time>2015-08-06T08:36:02Z</time></trkpt>
<trkpt lat="28.657766" lon="99.839509">
<time>2015-08-06T08:36:03Z</time></trkpt>
<trkpt lat="28.657426" lon="99.839639">
<time>2015-08-06T08:36:04Z</time></trkpt>
<trkpt lat="28.657216" lon="99.83972">
<time>2015-08-06T08:36:05Z</time></trkpt>
<trkpt lat="28.656997" lon="99.83978">
<time>2015-08-06T08:36:06Z</time></trkpt>
<trkpt lat="28.656587" lon="99.83989">
<time>2015-08-06T08:36:07Z</time></trkpt>
<trkpt lat="28.656157" lon="99.84002">
<time>2015-08-06T08:36:08Z</time></trkpt>
<trkpt lat="28.656058" lon="99.84004">
<time>2015-08-06T08:36:09Z</time></trkpt>
<trkpt lat="28.655958" lon="99.84004">
<time>2015-08-06T08:36:10Z</time></trkpt>
<trkpt lat="28.655888" lon="99.84004">
<time>2015-08-06T08:36:11Z</time></trkpt>
<trkpt lat="28.655828" lon="99.84002">
<time>2015-08-06T08:36:12Z</time></trkpt>
<trkpt lat="28.655758" lon="99.83996">
<time>2015-08-06T08:36:13Z</time></trkpt>
<trkpt lat="28.655707" lon="99.83989">
<time>2015-08-06T08:36:14Z</time></trkpt>
<trkpt lat="28.655667" lon="99.83977">
<time>2015-08-06T08:36:15Z</time></trkpt>
<trkpt lat="28.655607" lon="99.839539">
<time>2015-08-06T08:36:16Z</time></trkpt>
<trkpt lat="28.655486" lon="99.839058">
<time>2015-08-06T08:36:17Z</time></trkpt>
<trkpt lat="28.655315" lon="99.838437">
<time>2015-08-06T08:36:18Z</time></trkpt>
<trkpt lat="28.655255" lon="99.838237">
<time>2015-08-06T08:36:19Z</time></trkpt>
<trkpt lat="28.655214" lon="99.838036">
<time>2015-08-06T08:36:20Z</time></trkpt>
<trkpt lat="28.655194" lon="99.837876">
<time>2015-08-06T08:36:21Z</time></trkpt>
<trkpt lat="28.655194" lon="99.837705">
<time>2015-08-06T08:36:22Z</time></trkpt>
<trkpt lat="28.655213" lon="99.837495">
<time>2015-08-06T08:36:23Z</time></trkpt>
<trkpt lat="28.655243" lon="99.837164">
<time>2015-08-06T08:36:24Z</time></trkpt>
<trkpt lat="28.655262" lon="99.836814">
<time>2015-08-06T08:36:25Z</time></trkpt>
<trkpt lat="28.655252" lon="99.836683">
<time>2015-08-06T08:36:26Z</time></trkpt>
<trkpt lat="28.655242" lon="99.836613">
<time>2015-08-06T08:36:27Z</time></trkpt>
<trkpt lat="28.655212" lon="99.836553">
<time>2015-08-06T08:36:28Z</time></trkpt>
<trkpt lat="28.655172" lon="99.836493">
<time>2015-08-06T08:36:29Z</time></trkpt>
<trkpt lat="28.655111" lon="99.836453">
<time>2015-08-06T08:36:30Z</time></trkpt>
<trkpt lat="28.655011" lon="99.836403">
<time>2015-08-06T08:36:31Z</time></trkpt>
<trkpt lat="28.654911" lon="99.836373">
<time>2015-08-06T08:36:32Z</time></trkpt>
<trkpt lat="28.654781" lon="99.836343">
<time>2015-08-06T08:36:33Z</time></trkpt>
<trkpt lat="28.654671" lon="99.836323">
<time>2015-08-06T08:36:34Z</time></trkpt>
<trkpt lat="28.654541" lon="99.836272">
<time>2015-08-06T08:36:35Z</time></trkpt>
<trkpt lat="28.654391" lon="99.836202">
<time>2015-08-06T08:36:36Z</time></trkpt>
<trkpt lat="28.654231" lon="99.836112">
<time>2015-08-06T08:36:37Z</time></trkpt>
<trkpt lat="28.654111" lon="99.835992">
<time>2015-08-06T08:36:38Z</time></trkpt>
<trkpt lat="28.654031" lon="99.835892">
<time>2015-08-06T08:36:39Z</time></trkpt>
<trkpt lat="28.653951" lon="99.835822">
<time>2015-08-06T08:36:40Z</time></trkpt>
<trkpt lat="28.653851" lon="99.835741">
<time>2015-08-06T08:36:41Z</time></trkpt>
<trkpt lat="28.653731" lon="99.835651">
<time>2015-08-06T08:36:42Z</time></trkpt>
<trkpt lat="28.653541" lon="99.835551">
<time>2015-08-06T08:36:43Z</time></trkpt>
<trkpt lat="28.653511" lon="99.835541">
<time>2015-08-06T08:36:44Z</time></trkpt>
<trkpt lat="28.653331" lon="99.835451">
<time>2015-08-06T08:36:45Z</time></trkpt>
<trkpt lat="28.653141" lon="99.835371">
<time>2015-08-06T08:36:46Z</time></trkpt>
<trkpt lat="28.653001" lon="99.835301">
<time>2015-08-06T08:36:47Z</time></trkpt>
<trkpt lat="28.65288" lon="99.83526">
<time>2015-08-06T08:36:48Z</time></trkpt>
<trkpt lat="28.652771" lon="99.83524">
<time>2015-08-06T08:36:49Z</time></trkpt>
<trkpt lat="28.652641" lon="99.8352">
<time>2015-08-06T08:36:50Z</time></trkpt>
<trkpt lat="28.652521" lon="99.83516">
<time>2015-08-06T08:36:51Z</time></trkpt>
<trkpt lat="28.65242" lon="99.83512">
<time>2015-08-06T08:36:52Z</time></trkpt>
<trkpt lat="28.6523" lon="99.83505">
<time>2015-08-06T08:36:53Z</time></trkpt>
<trkpt lat="28.65212" lon="99.83493">
<time>2015-08-06T08:36:54Z</time></trkpt>
<trkpt lat="28.65187" lon="99.834719">
<time>2015-08-06T08:36:55Z</time></trkpt>
<trkpt lat="28.65158" lon="99.834479">
<time>2015-08-06T08:36:56Z</time></trkpt>
<trkpt lat="28.65148" lon="99.834399">
<time>2015-08-06T08:36:57Z</time></trkpt>
<trkpt lat="28.6514" lon="99.834339">
<time>2015-08-06T08:36:58Z</time></trkpt>
<trkpt lat="28.65133" lon="99.834309">
<time>2015-08-06T08:36:59Z</time></trkpt>
<trkpt lat="28.65123" lon="99.834268">
<time>2015-08-06T08:37:00Z</time></trkpt>
<trkpt lat="28.65103" lon="99.834218">
<time>2015-08-06T08:37:01Z</time></trkpt>
<trkpt lat="28.6506" lon="99.834098">
<time>2015-08-06T08:37:02Z</time></trkpt>
<trkpt lat="28.65046" lon="99.834068">
<time>2015-08-06T08:37:03Z</time></trkpt>
<trkpt lat="28.65038" lon="99.834038">
<time>2015-08-06T08:37:04Z</time></trkpt>
<trkpt lat="28.65032" lon="99.833998">
<time>2015-08-06T08:37:05Z</time></trkpt>
<trkpt lat="28.650269" lon="99.833948">
<time>2015-08-06T08:37:06Z</time></trkpt>
<trkpt lat="28.650219" lon="99.833888">
<time>2015-08-06T08:37:07Z</time></trkpt>
<trkpt lat="28.650159" lon="99.833757">
<time>2015-08-06T08:37:08Z</time></trkpt>
<trkpt lat="28.650109" lon="99.833637">
<time>2015-08-06T08:37:09Z</time></trkpt>
<trkpt lat="28.650049" lon="99.833507">
<time>2015-08-06T08:37:10Z</time></trkpt>
<trkpt lat="28.649999" lon="99.833417">
<time>2015-08-06T08:37:11Z</time></trkpt>
<trkpt lat="28.649949" lon="99.833357">
<time>2015-08-06T08:37:12Z</time></trkpt>
<trkpt lat="28.649878" lon="99.833316">
<time>2015-08-06T08:37:13Z</time></trkpt>
<trkpt lat="28.649818" lon="99.833296">
<time>2015-08-06T08:37:14Z</time></trkpt>
<trkpt lat="28.649738" lon="99.833276">
<time>2015-08-06T08:37:15Z</time></trkpt>
<trkpt lat="28.649649" lon="99.833276">
<time>2015-08-06T08:37:16Z</time></trkpt>
<trkpt lat="28.649499" lon="99.833296">
<time>2015-08-06T08:37:17Z</time></trkpt>
<trkpt lat="28.649189" lon="99.833347">
<time>2015-08-06T08:37:18Z</time></trkpt>
<trkpt lat="28.648939" lon="99.833367">
<time>2015-08-06T08:37:19Z</time></trkpt>
<trkpt lat="28.648809" lon="99.833357">
<time>2015-08-06T08:37:20Z</time></trkpt>
<trkpt lat="28.648689" lon="99.833337">
<time>2015-08-06T08:37:21Z</time></trkpt>
<trkpt lat="28.648549" lon="99.833286">
<time>2015-08-06T08:37:22Z</time></trkpt>
<trkpt lat="28.648359" lon="99.833186">
<time>2015-08-06T08:37:23Z</time></trkpt>
<trkpt lat="28.648229" lon="99.833106">
<time>2015-08-06T08:37:24Z</time></trkpt>
<trkpt lat="28.648139" lon="99.833056">
<time>2015-08-06T08:37:25Z</time></trkpt>
<trkpt lat="28.648059" lon="99.833046">
<time>2015-08-06T08:37:26Z</time></trkpt>
<trkpt lat="28.647999" lon="99.833046">
<time>2015-08-06T08:37:27Z</time></trkpt>
<trkpt lat="28.647939" lon="99.833066">
<time>2015-08-06T08:37:28Z</time></trkpt>
<trkpt lat="28.647819" lon="99.833136">
<time>2015-08-06T08:37:29Z</time></trkpt>
<trkpt lat="28.647699" lon="99.833216">
<time>2015-08-06T08:37:30Z</time></trkpt>
<trkpt lat="28.64762" lon="99.833266">
<time>2015-08-06T08:37:31Z</time></trkpt>
<trkpt lat="28.64751" lon="99.833307">
<time>2015-08-06T08:37:32Z</time></trkpt>
<trkpt lat="28.6474" lon="99.833327">
<time>2015-08-06T08:37:33Z</time></trkpt>
<trkpt lat="28.64733" lon="99.833327">
<time>2015-08-06T08:37:34Z</time></trkpt>
<trkpt lat="28.64724" lon="99.833307">
<time>2015-08-06T08:37:35Z</time></trkpt>
<trkpt lat="28.64709" lon="99.833266">
<time>2015-08-06T08:37:36Z</time></trkpt>
<trkpt lat="28.64692" lon="99.833206">
<time>2015-08-06T08:37:37Z</time></trkpt>
<trkpt lat="28.64673" lon="99.833136">
<time>2015-08-06T08:37:38Z</time></trkpt>
<trkpt lat="28.64652" lon="99.833076">
<time>2015-08-06T08:37:39Z</time></trkpt>
<trkpt lat="28.64638" lon="99.833036">
<time>2015-08-06T08:37:40Z</time></trkpt>
<trkpt lat="28.64624" lon="99.833026">
<time>2015-08-06T08:37:41Z</time></trkpt>
<trkpt lat="28.64611" lon="99.833036">
<time>2015-08-06T08:37:42Z</time></trkpt>
<trkpt lat="28.646" lon="99.833056">
<time>2015-08-06T08:37:43Z</time></trkpt>
<trkpt lat="28.64588" lon="99.833106">
<time>2015-08-06T08:37:44Z</time></trkpt>
<trkpt lat="28.64579" lon="99.833166">
<time>2015-08-06T08:37:45Z</time></trkpt>
<trkpt lat="28.645741" lon="99.833216">
<time>2015-08-06T08:37:46Z</time></trkpt>
<trkpt lat="28.645691" lon="99.833287">
<time>2015-08-06T08:37:47Z</time></trkpt>
<trkpt lat="28.645661" lon="99.833357">
<time>2015-08-06T08:37:48Z</time></trkpt>
<trkpt lat="28.645641" lon="99.833457">
<time>2015-08-06T08:37:49Z</time></trkpt>
<trkpt lat="28.645641" lon="99.833587">
<time>2015-08-06T08:37:50Z</time></trkpt>
<trkpt lat="28.645642" lon="99.833727">
<time>2015-08-06T08:37:51Z</time></trkpt>
<trkpt lat="28.645622" lon="99.833828">
<time>2015-08-06T08:37:52Z</time></trkpt>
<trkpt lat="28.645592" lon="99.833928">
<time>2015-08-06T08:37:53Z</time></trkpt>
<trkpt lat="28.645532" lon="99.834008">
<time>2015-08-06T08:37:54Z</time></trkpt>
<trkpt lat="28.645482" lon="99.834078">
<time>2015-08-06T08:37:55Z</time></trkpt>
<trkpt lat="28.645363" lon="99.834168">
<time>2015-08-06T08:37:56Z</time></trkpt>
<trkpt lat="28.645243" lon="99.834249">
<time>2015-08-06T08:37:57Z</time></trkpt>
<trkpt lat="28.645043" lon="99.834389">
<time>2015-08-06T08:37:58Z</time></trkpt>
<trkpt lat="28.644913" lon="99.834499">
<time>2015-08-06T08:37:59Z</time></trkpt>
<trkpt lat="28.644824" lon="99.834609">
<time>2015-08-06T08:38:00Z</time></trkpt>
<trkpt lat="28.644764" lon="99.83471">
<time>2015-08-06T08:38:01Z</time></trkpt>
<trkpt lat="28.644734" lon="99.83482">
<time>2015-08-06T08:38:02Z</time></trkpt>
<trkpt lat="28.644724" lon="99.83493">
<time>2015-08-06T08:38:03Z</time></trkpt>
<trkpt lat="28.644734" lon="99.83505">
<time>2015-08-06T08:38:04Z</time></trkpt>
<trkpt lat="28.644775" lon="99.83517">
<time>2015-08-06T08:38:05Z</time></trkpt>
<trkpt lat="28.644815" lon="99.835291">
<time>2015-08-06T08:38:06Z</time></trkpt>
<trkpt lat="28.644845" lon="99.835401">
<time>2015-08-06T08:38:07Z</time></trkpt>
<trkpt lat="28.644865" lon="99.835511">
<time>2015-08-06T08:38:08Z</time></trkpt>
<trkpt lat="28.644855" lon="99.835611">
<time>2015-08-06T08:38:09Z</time></trkpt>
<trkpt lat="28.644836" lon="99.835792">
<time>2015-08-06T08:38:10Z</time></trkpt>
<trkpt lat="28.644826" lon="99.835922">
<time>2015-08-06T08:38:11Z</time></trkpt>
<trkpt lat="28.644836" lon="99.836032">
<time>2015-08-06T08:38:12Z</time></trkpt>
<trkpt lat="28.644866" lon="99.836142">
<time>2015-08-06T08:38:13Z</time></trkpt>
<trkpt lat="28.644947" lon="99.836353">
<time>2015-08-06T08:38:14Z</time></trkpt>
<trkpt lat="28.645047" lon="99.836583">
<time>2015-08-06T08:38:15Z</time></trkpt>
<trkpt lat="28.645097" lon="99.836724">
<time>2015-08-06T08:38:16Z</time></trkpt>
<trkpt lat="28.645128" lon="99.836834">
<time>2015-08-06T08:38:17Z</time></trkpt>
<trkpt lat="28.645148" lon="99.836944">
<time>2015-08-06T08:38:18Z</time></trkpt>
<trkpt lat="28.645138" lon="99.837044">
<time>2015-08-06T08:38:19Z</time></trkpt>
<trkpt lat="28.645118" lon="99.837145">
<time>2015-08-06T08:38:20Z</time></trkpt>
<trkpt lat="28.645098" lon="99.837225">
<time>2015-08-06T08:38:21Z</time></trkpt>
<trkpt lat="28.645079" lon="99.837345">
<time>2015-08-06T08:38:22Z</time></trkpt>
<trkpt lat="28.645079" lon="99.837445">
<time>2015-08-06T08:38:23Z</time></trkpt>
<trkpt lat="28.645099" lon="99.837535">
<time>2015-08-06T08:38:24Z</time></trkpt>
<trkpt lat="28.645149" lon="99.837676">
<time>2015-08-06T08:38:25Z</time></trkpt>
<trkpt lat="28.645199" lon="99.837786">
<time>2015-08-06T08:38:26Z</time></trkpt>
<trkpt lat="28.645219" lon="99.837876">
<time>2015-08-06T08:38:27Z</time></trkpt>
<trkpt lat="28.64523" lon="99.837966">
<time>2015-08-06T08:38:28Z</time></trkpt>
<trkpt lat="28.64522" lon="99.838056">
<time>2015-08-06T08:38:29Z</time></trkpt>
<trkpt lat="28.64521" lon="99.838127">
<time>2015-08-06T08:38:30Z</time></trkpt>
<trkpt lat="28.64517" lon="99.838197">
<time>2015-08-06T08:38:31Z</time></trkpt>
<trkpt lat="28.64512" lon="99.838257">
<time>2015-08-06T08:38:32Z</time></trkpt>
<trkpt lat="28.645" lon="99.838367">
<time>2015-08-06T08:38:33Z</time></trkpt>
<trkpt lat="28.644881" lon="99.838477">
<time>2015-08-06T08:38:34Z</time></trkpt>
<trkpt lat="28.644811" lon="99.838547">
<time>2015-08-06T08:38:35Z</time></trkpt>
<trkpt lat="28.644751" lon="99.838638">
<time>2015-08-06T08:38:36Z</time></trkpt>
<trkpt lat="28.644721" lon="99.838738">
<time>2015-08-06T08:38:37Z</time></trkpt>
<trkpt lat="28.644692" lon="99.838848">
<time>2015-08-06T08:38:38Z</time></trkpt>
<trkpt lat="28.644682" lon="99.838968">
<time>2015-08-06T08:38:39Z</time></trkpt>
<trkpt lat="28.644682" lon="99.839109">
<time>2015-08-06T08:38:40Z</time></trkpt>
<trkpt lat="28.644682" lon="99.839219">
<time>2015-08-06T08:38:41Z</time></trkpt>
<trkpt lat="28.644682" lon="99.839299">
<time>2015-08-06T08:38:42Z</time></trkpt>
<trkpt lat="28.644672" lon="99.839379">
<time>2015-08-06T08:38:43Z</time></trkpt>
<trkpt lat="28.644653" lon="99.839499">
<time>2015-08-06T08:38:44Z</time></trkpt>
<trkpt lat="28.644563" lon="99.83979">
<time>2015-08-06T08:38:45Z</time></trkpt>
<trkpt lat="28.644454" lon="99.840091">
<time>2015-08-06T08:38:46Z</time></trkpt>
<trkpt lat="28.644344" lon="99.840361">
<time>2015-08-06T08:38:47Z</time></trkpt>
<trkpt lat="28.644225" lon="99.840662">
<time>2015-08-06T08:38:48Z</time></trkpt>
<trkpt lat="28.644146" lon="99.840902">
<time>2015-08-06T08:38:49Z</time></trkpt>
<trkpt lat="28.644086" lon="99.841113">
<time>2015-08-06T08:38:50Z</time></trkpt>
<trkpt lat="28.644036" lon="99.841283">
<time>2015-08-06T08:38:51Z</time></trkpt>
<trkpt lat="28.643996" lon="99.841363">
<time>2015-08-06T08:38:52Z</time></trkpt>
<trkpt lat="28.643967" lon="99.841423">
<time>2015-08-06T08:38:53Z</time></trkpt>
<trkpt lat="28.643917" lon="99.841473">
<time>2015-08-06T08:38:54Z</time></trkpt>
<trkpt lat="28.643867" lon="99.841503">
<time>2015-08-06T08:38:55Z</time></trkpt>
<trkpt lat="28.643797" lon="99.841534">
<time>2015-08-06T08:38:56Z</time></trkpt>
<trkpt lat="28.643717" lon="99.841554">
<time>2015-08-06T08:38:57Z</time></trkpt>
<trkpt lat="28.643627" lon="99.841554">
<time>2015-08-06T08:38:58Z</time></trkpt>
<trkpt lat="28.643537" lon="99.841544">
<time>2015-08-06T08:38:59Z</time></trkpt>
<trkpt lat="28.643457" lon="99.841524">
<time>2015-08-06T08:39:00Z</time></trkpt>
<trkpt lat="28.643387" lon="99.841493">
<time>2015-08-06T08:39:01Z</time></trkpt>
<trkpt lat="28.643327" lon="99.841443">
<time>2015-08-06T08:39:02Z</time></trkpt>
<trkpt lat="28.643247" lon="99.841373">
<time>2015-08-06T08:39:03Z</time></trkpt>
<trkpt lat="28.643177" lon="99.841283">
<time>2015-08-06T08:39:04Z</time></trkpt>
<trkpt lat="28.643026" lon="99.841053">
<time>2015-08-06T08:39:05Z</time></trkpt>
<trkpt lat="28.642916" lon="99.840862">
<time>2015-08-06T08:39:06Z</time></trkpt>
<trkpt lat="28.642846" lon="99.840702">
<time>2015-08-06T08:39:07Z</time></trkpt>
<trkpt lat="28.642776" lon="99.840542">
<time>2015-08-06T08:39:08Z</time></trkpt>
<trkpt lat="28.642715" lon="99.840421">
<time>2015-08-06T08:39:09Z</time></trkpt>
<trkpt lat="28.642625" lon="99.840271">
<time>2015-08-06T08:39:10Z</time></trkpt>
<trkpt lat="28.642485" lon="99.83999">
<time>2015-08-06T08:39:11Z</time></trkpt>
<trkpt lat="28.642415" lon="99.83987">
<time>2015-08-06T08:39:12Z</time></trkpt>
<trkpt lat="28.642334" lon="99.83976">
<time>2015-08-06T08:39:13Z</time></trkpt>
<trkpt lat="28.642254" lon="99.83968">
<time>2015-08-06T08:39:14Z</time></trkpt>
<trkpt lat="28.642164" lon="99.83958">
<time>2015-08-06T08:39:15Z</time></trkpt>
<trkpt lat="28.642004" lon="99.839389">
<time>2015-08-06T08:39:16Z</time></trkpt>
<trkpt lat="28.641834" lon="99.839149">
<time>2015-08-06T08:39:17Z</time></trkpt>
<trkpt lat="28.641663" lon="99.838888">
<time>2015-08-06T08:39:18Z</time></trkpt>
<trkpt lat="28.641523" lon="99.838668">
<time>2015-08-06T08:39:19Z</time></trkpt>
<trkpt lat="28.641443" lon="99.838568">
<time>2015-08-06T08:39:20Z</time></trkpt>
<trkpt lat="28.641343" lon="99.838487">
<time>2015-08-06T08:39:21Z</time></trkpt>
<trkpt lat="28.641263" lon="99.838437">
<time>2015-08-06T08:39:22Z</time></trkpt>
<trkpt lat="28.641183" lon="99.838397">
<time>2015-08-06T08:39:23Z</time></trkpt>
<trkpt lat="28.641113" lon="99.838377">
<time>2015-08-06T08:39:24Z</time></trkpt>
<trkpt lat="28.641053" lon="99.838367">
<time>2015-08-06T08:39:25Z</time></trkpt>
<trkpt lat="28.640973" lon="99.838357">
<time>2015-08-06T08:39:26Z</time></trkpt>
<trkpt lat="28.640873" lon="99.838337">
<time>2015-08-06T08:39:27Z</time></trkpt>
<trkpt lat="28.640783" lon="99.838297">
<time>2015-08-06T08:39:28Z</time></trkpt>
<trkpt lat="28.640683" lon="99.838237">
<time>2015-08-06T08:39:29Z</time></trkpt>
<trkpt lat="28.640582" lon="99.838157">
<time>2015-08-06T08:39:30Z</time></trkpt>
<trkpt lat="28.640562" lon="99.838137">
<time>2015-08-06T08:39:31Z</time></trkpt>
<trkpt lat="28.640472" lon="99.838036">
<time>2015-08-06T08:39:32Z</time></trkpt>
<trkpt lat="28.640392" lon="99.837926">
<time>2015-08-06T08:39:33Z</time></trkpt>
<trkpt lat="28.640332" lon="99.837796">
<time>2015-08-06T08:39:34Z</time></trkpt>
<trkpt lat="28.640241" lon="99.837545">
<time>2015-08-06T08:39:35Z</time></trkpt>
<trkpt lat="28.640161" lon="99.837275">
<time>2015-08-06T08:39:36Z</time></trkpt>
<trkpt lat="28.640071" lon="99.837044">
<time>2015-08-06T08:39:37Z</time></trkpt>
<trkpt lat="28.63999" lon="99.836814">
<time>2015-08-06T08:39:38Z</time></trkpt>
<trkpt lat="28.63991" lon="99.836634">
<time>2015-08-06T08:39:39Z</time></trkpt>
<trkpt lat="28.6398" lon="99.836463">
<time>2015-08-06T08:39:40Z</time></trkpt>
<trkpt lat="28.639669" lon="99.836303">
<time>2015-08-06T08:39:41Z</time></trkpt>
<trkpt lat="28.639499" lon="99.836123">
<time>2015-08-06T08:39:42Z</time></trkpt>
<trkpt lat="28.639359" lon="99.836002">
<time>2015-08-06T08:39:43Z</time></trkpt>
<trkpt lat="28.639239" lon="99.835922">
<time>2015-08-06T08:39:44Z</time></trkpt>
<trkpt lat="28.639069" lon="99.835862">
<time>2015-08-06T08:39:45Z</time></trkpt>
<trkpt lat="28.638909" lon="99.835822">
<time>2015-08-06T08:39:46Z</time></trkpt>
<trkpt lat="28.638709" lon="99.835782">
<time>2015-08-06T08:39:47Z</time></trkpt>
<trkpt lat="28.638319" lon="99.835712">
<time>2015-08-06T08:39:48Z</time></trkpt>
<trkpt lat="28.638109" lon="99.835652">
<time>2015-08-06T08:39:49Z</time></trkpt>
<trkpt lat="28.638029" lon="99.835632">
<time>2015-08-06T08:39:50Z</time></trkpt>
<trkpt lat="28.637929" lon="99.835581">
<time>2015-08-06T08:39:51Z</time></trkpt>
<trkpt lat="28.637819" lon="99.835501">
<time>2015-08-06T08:39:52Z</time></trkpt>
<trkpt lat="28.637699" lon="99.835391">
<time>2015-08-06T08:39:53Z</time></trkpt>
<trkpt lat="28.637509" lon="99.835231">
<time>2015-08-06T08:39:54Z</time></trkpt>
<trkpt lat="28.637288" lon="99.83508">
<time>2015-08-06T08:39:55Z</time></trkpt>
<trkpt lat="28.637128" lon="99.83499">
<time>2015-08-06T08:39:56Z</time></trkpt>
<trkpt lat="28.636978" lon="99.83492">
<time>2015-08-06T08:39:57Z</time></trkpt>
<trkpt lat="28.636828" lon="99.83488">
<time>2015-08-06T08:39:58Z</time></trkpt>
<trkpt lat="28.636568" lon="99.83479">
<time>2015-08-06T08:39:59Z</time></trkpt>
<trkpt lat="28.636338" lon="99.83472">
<time>2015-08-06T08:40:00Z</time></trkpt>
<trkpt lat="28.636148" lon="99.83465">
<time>2015-08-06T08:40:01Z</time></trkpt>
<trkpt lat="28.635998" lon="99.834569">
<time>2015-08-06T08:40:02Z</time></trkpt>
<trkpt lat="28.635868" lon="99.834479">
<time>2015-08-06T08:40:03Z</time></trkpt>
<trkpt lat="28.635778" lon="99.834379">
<time>2015-08-06T08:40:04Z</time></trkpt>
<trkpt lat="28.635688" lon="99.834229">
<time>2015-08-06T08:40:05Z</time></trkpt>
<trkpt lat="28.635607" lon="99.834028">
<time>2015-08-06T08:40:06Z</time></trkpt>
<trkpt lat="28.635507" lon="99.833828">
<time>2015-08-06T08:40:07Z</time></trkpt>
<trkpt lat="28.635397" lon="99.833627">
<time>2015-08-06T08:40:08Z</time></trkpt>
<trkpt lat="28.635246" lon="99.833397">
<time>2015-08-06T08:40:09Z</time></trkpt>
<trkpt lat="28.634986" lon="99.833066">
<time>2015-08-06T08:40:10Z</time></trkpt>
<trkpt lat="28.634846" lon="99.832866">
<time>2015-08-06T08:40:11Z</time></trkpt>
<trkpt lat="28.634765" lon="99.832746">
<time>2015-08-06T08:40:12Z</time></trkpt>
<trkpt lat="28.634715" lon="99.832686">
<time>2015-08-06T08:40:13Z</time></trkpt>
<trkpt lat="28.634665" lon="99.832645">
<time>2015-08-06T08:40:14Z</time></trkpt>
<trkpt lat="28.634625" lon="99.832615">
<time>2015-08-06T08:40:15Z</time></trkpt>
<trkpt lat="28.634565" lon="99.832595">
<time>2015-08-06T08:40:16Z</time></trkpt>
<trkpt lat="28.634505" lon="99.832585">
<time>2015-08-06T08:40:17Z</time></trkpt>
<trkpt lat="28.634455" lon="99.832585">
<time>2015-08-06T08:40:18Z</time></trkpt>
<trkpt lat="28.634385" lon="99.832605">
<time>2015-08-06T08:40:19Z</time></trkpt>
<trkpt lat="28.634236" lon="99.832655">
<time>2015-08-06T08:40:20Z</time></trkpt>
<trkpt lat="28.633996" lon="99.832766">
<time>2015-08-06T08:40:21Z</time></trkpt>
<trkpt lat="28.633846" lon="99.832836">
<time>2015-08-06T08:40:22Z</time></trkpt>
<trkpt lat="28.633726" lon="99.832876">
<time>2015-08-06T08:40:23Z</time></trkpt>
<trkpt lat="28.633586" lon="99.832896">
<time>2015-08-06T08:40:24Z</time></trkpt>
<trkpt lat="28.633426" lon="99.832906">
<time>2015-08-06T08:40:25Z</time></trkpt>
<trkpt lat="28.633197" lon="99.832906">
<time>2015-08-06T08:40:26Z</time></trkpt>
<trkpt lat="28.633017" lon="99.832896">
<time>2015-08-06T08:40:27Z</time></trkpt>
<trkpt lat="28.632857" lon="99.832906">
<time>2015-08-06T08:40:28Z</time></trkpt>
<trkpt lat="28.632697" lon="99.832916">
<time>2015-08-06T08:40:29Z</time></trkpt>
<trkpt lat="28.632597" lon="99.832916">
<time>2015-08-06T08:40:30Z</time></trkpt>
<trkpt lat="28.632507" lon="99.832906">
<time>2015-08-06T08:40:31Z</time></trkpt>
<trkpt lat="28.632417" lon="99.832866">
<time>2015-08-06T08:40:32Z</time></trkpt>
<trkpt lat="28.632327" lon="99.832816">
<time>2015-08-06T08:40:33Z</time></trkpt>
<trkpt lat="28.632247" lon="99.832746">
<time>2015-08-06T08:40:34Z</time></trkpt>
<trkpt lat="28.632177" lon="99.832676">
<time>2015-08-06T08:40:35Z</time></trkpt>
<trkpt lat="28.632107" lon="99.832615">
<time>2015-08-06T08:40:36Z</time></trkpt>
<trkpt lat="28.632036" lon="99.832565">
<time>2015-08-06T08:40:37Z</time></trkpt>
<trkpt lat="28.631976" lon="99.832545">
<time>2015-08-06T08:40:38Z</time></trkpt>
<trkpt lat="28.631886" lon="99.832515">
<time>2015-08-06T08:40:39Z</time></trkpt>
<trkpt lat="28.631766" lon="99.832485">
<time>2015-08-06T08:40:40Z</time></trkpt>
<trkpt lat="28.631646" lon="99.832455">
<time>2015-08-06T08:40:41Z</time></trkpt>
<trkpt lat="28.631546" lon="99.832415">
<time>2015-08-06T08:40:42Z</time></trkpt>
<trkpt lat="28.631366" lon="99.832335">
<time>2015-08-06T08:40:43Z</time></trkpt>
<trkpt lat="28.631296" lon="99.832305">
<time>2015-08-06T08:40:44Z</time></trkpt>
<trkpt lat="28.631216" lon="99.832275">
<time>2015-08-06T08:40:45Z</time></trkpt>
<trkpt lat="28.631116" lon="99.832265">
<time>2015-08-06T08:40:46Z</time></trkpt>
<trkpt lat="28.630996" lon="99.832265">
<time>2015-08-06T08:40:47Z</time></trkpt>
<trkpt lat="28.630727" lon="99.832285">
<time>2015-08-06T08:40:48Z</time></trkpt>
<trkpt lat="28.630597" lon="99.832305">
<time>2015-08-06T08:40:49Z</time></trkpt>
<trkpt lat="28.630497" lon="99.832325">
<time>2015-08-06T08:40:50Z</time></trkpt>
<trkpt lat="28.630397" lon="99.832365">
<time>2015-08-06T08:40:51Z</time></trkpt>
<trkpt lat="28.630337" lon="99.832425">
<time>2015-08-06T08:40:52Z</time></trkpt>
<trkpt lat="28.630267" lon="99.832485">
<time>2015-08-06T08:40:53Z</time></trkpt>
<trkpt lat="28.630227" lon="99.832565">
<time>2015-08-06T08:40:54Z</time></trkpt>
<trkpt lat="28.630188" lon="99.832686">
<time>2015-08-06T08:40:55Z</time></trkpt>
<trkpt lat="28.630098" lon="99.833076">
<time>2015-08-06T08:40:56Z</time></trkpt>
<trkpt lat="28.630029" lon="99.833367">
<time>2015-08-06T08:40:57Z</time></trkpt>
<trkpt lat="28.630019" lon="99.833487">
<time>2015-08-06T08:40:58Z</time></trkpt>
<trkpt lat="28.630009" lon="99.833588">
<time>2015-08-06T08:40:59Z</time></trkpt>
<trkpt lat="28.63001" lon="99.833698">
<time>2015-08-06T08:41:00Z</time></trkpt>
<trkpt lat="28.63005" lon="99.834008">
<time>2015-08-06T08:41:01Z</time></trkpt>
<trkpt lat="28.630081" lon="99.834219">
<time>2015-08-06T08:41:02Z</time></trkpt>
<trkpt lat="28.630091" lon="99.834329">
<time>2015-08-06T08:41:03Z</time></trkpt>
<trkpt lat="28.630131" lon="99.834419">
<time>2015-08-06T08:41:04Z</time></trkpt>
<trkpt lat="28.630201" lon="99.83456">
<time>2015-08-06T08:41:05Z</time></trkpt>
<trkpt lat="28.630311" lon="99.83474">
<time>2015-08-06T08:41:06Z</time></trkpt>
<trkpt lat="28.630432" lon="99.83497">
<time>2015-08-06T08:41:07Z</time></trkpt>
<trkpt lat="28.630482" lon="99.835081">
<time>2015-08-06T08:41:08Z</time></trkpt>
<trkpt lat="28.630512" lon="99.835161">
<time>2015-08-06T08:41:09Z</time></trkpt>
<trkpt lat="28.630522" lon="99.835271">
<time>2015-08-06T08:41:10Z</time></trkpt>
<trkpt lat="28.630533" lon="99.835401">
<time>2015-08-06T08:41:11Z</time></trkpt>
<trkpt lat="28.630523" lon="99.835532">
<time>2015-08-06T08:41:12Z</time></trkpt>
<trkpt lat="28.630513" lon="99.835672">
<time>2015-08-06T08:41:13Z</time></trkpt>
<trkpt lat="28.630503" lon="99.835762">
<time>2015-08-06T08:41:14Z</time></trkpt>
<trkpt lat="28.630513" lon="99.835872">
<time>2015-08-06T08:41:15Z</time></trkpt>
<trkpt lat="28.630534" lon="99.835962">
<time>2015-08-06T08:41:16Z</time></trkpt>
<trkpt lat="28.630574" lon="99.836063">
<time>2015-08-06T08:41:17Z</time></trkpt>
<trkpt lat="28.630644" lon="99.836203">
<time>2015-08-06T08:41:18Z</time></trkpt>
<trkpt lat="28.630674" lon="99.836283">
<time>2015-08-06T08:41:19Z</time></trkpt>
<trkpt lat="28.630704" lon="99.836403">
<time>2015-08-06T08:41:20Z</time></trkpt>
<trkpt lat="28.630725" lon="99.836534">
<time>2015-08-06T08:41:21Z</time></trkpt>
<trkpt lat="28.630755" lon="99.836824">
<time>2015-08-06T08:41:22Z</time></trkpt>
<trkpt lat="28.630765" lon="99.836934">
<time>2015-08-06T08:41:23Z</time></trkpt>
<trkpt lat="28.630766" lon="99.837075">
<time>2015-08-06T08:41:24Z</time></trkpt>
<trkpt lat="28.630766" lon="99.837165">
<time>2015-08-06T08:41:25Z</time></trkpt>
<trkpt lat="28.630776" lon="99.837235">
<time>2015-08-06T08:41:26Z</time></trkpt>
<trkpt lat="28.630806" lon="99.837305">
<time>2015-08-06T08:41:27Z</time></trkpt>
<trkpt lat="28.630856" lon="99.837375">
<time>2015-08-06T08:41:28Z</time></trkpt>
<trkpt lat="28.630916" lon="99.837456">
<time>2015-08-06T08:41:29Z</time></trkpt>
<trkpt lat="28.630936" lon="99.837506">
<time>2015-08-06T08:41:30Z</time></trkpt>
<trkpt lat="28.630956" lon="99.837566">
<time>2015-08-06T08:41:31Z</time></trkpt>
<trkpt lat="28.630966" lon="99.837636">
<time>2015-08-06T08:41:32Z</time></trkpt>
<trkpt lat="28.630977" lon="99.837836">
<time>2015-08-06T08:41:33Z</time></trkpt>
<trkpt lat="28.630997" lon="99.837987">
<time>2015-08-06T08:41:34Z</time></trkpt>
<trkpt lat="28.631027" lon="99.838127">
<time>2015-08-06T08:41:35Z</time></trkpt>
<trkpt lat="28.631048" lon="99.838237">
<time>2015-08-06T08:41:36Z</time></trkpt>
<trkpt lat="28.631048" lon="99.838337">
<time>2015-08-06T08:41:37Z</time></trkpt>
<trkpt lat="28.631038" lon="99.838488">
<time>2015-08-06T08:41:38Z</time></trkpt>
<trkpt lat="28.631008" lon="99.838658">
<time>2015-08-06T08:41:39Z</time></trkpt>
<trkpt lat="28.631009" lon="99.838768">
<time>2015-08-06T08:41:40Z</time></trkpt>
<trkpt lat="28.631029" lon="99.838868">
<time>2015-08-06T08:41:41Z</time></trkpt>
<trkpt lat="28.631059" lon="99.838979">
<time>2015-08-06T08:41:42Z</time></trkpt>
<trkpt lat="28.631089" lon="99.839069">
<time>2015-08-06T08:41:43Z</time></trkpt>
<trkpt lat="28.631089" lon="99.839159">
<time>2015-08-06T08:41:44Z</time></trkpt>
<trkpt lat="28.631089" lon="99.839209">
<time>2015-08-06T08:41:45Z</time></trkpt>
<trkpt lat="28.631089" lon="99.839259">
<time>2015-08-06T08:41:46Z</time></trkpt>
<trkpt lat="28.63107" lon="99.839389">
<time>2015-08-06T08:41:47Z</time></trkpt>
<trkpt lat="28.63103" lon="99.83957">
<time>2015-08-06T08:41:48Z</time></trkpt>
<trkpt lat="28.63101" lon="99.83969">
<time>2015-08-06T08:41:49Z</time></trkpt>
<trkpt lat="28.63099" lon="99.83979">
<time>2015-08-06T08:41:50Z</time></trkpt>
<trkpt lat="28.630991" lon="99.839931">
<time>2015-08-06T08:41:51Z</time></trkpt>
<trkpt lat="28.631011" lon="99.840121">
<time>2015-08-06T08:41:52Z</time></trkpt>
<trkpt lat="28.631041" lon="99.840331">
<time>2015-08-06T08:41:53Z</time></trkpt>
<trkpt lat="28.631082" lon="99.840652">
<time>2015-08-06T08:41:54Z</time></trkpt>
<trkpt lat="28.631102" lon="99.840812">
<time>2015-08-06T08:41:55Z</time></trkpt>
<trkpt lat="28.631122" lon="99.840903">
<time>2015-08-06T08:41:56Z</time></trkpt>
<trkpt lat="28.631143" lon="99.841013">
<time>2015-08-06T08:41:57Z</time></trkpt>
<trkpt lat="28.631163" lon="99.841103">
<time>2015-08-06T08:41:58Z</time></trkpt>
<trkpt lat="28.631173" lon="99.841223">
<time>2015-08-06T08:41:59Z</time></trkpt>
<trkpt lat="28.631173" lon="99.841323">
<time>2015-08-06T08:42:00Z</time></trkpt>
<trkpt lat="28.631173" lon="99.841424">
<time>2015-08-06T08:42:01Z</time></trkpt>
<trkpt lat="28.631174" lon="99.841554">
<time>2015-08-06T08:42:02Z</time></trkpt>
<trkpt lat="28.631144" lon="99.841704">
<time>2015-08-06T08:42:03Z</time></trkpt>
<trkpt lat="28.631124" lon="99.841885">
<time>2015-08-06T08:42:04Z</time></trkpt>
<trkpt lat="28.631105" lon="99.842135">
<time>2015-08-06T08:42:05Z</time></trkpt>
<trkpt lat="28.631075" lon="99.842355">
<time>2015-08-06T08:42:06Z</time></trkpt>
<trkpt lat="28.631065" lon="99.842466">
<time>2015-08-06T08:42:07Z</time></trkpt>
<trkpt lat="28.631045" lon="99.842546">
<time>2015-08-06T08:42:08Z</time></trkpt>
<trkpt lat="28.631015" lon="99.842606">
<time>2015-08-06T08:42:09Z</time></trkpt>
<trkpt lat="28.630986" lon="99.842646">
<time>2015-08-06T08:42:10Z</time></trkpt>
<trkpt lat="28.630946" lon="99.842676">
<time>2015-08-06T08:42:11Z</time></trkpt>
<trkpt lat="28.630916" lon="99.842696">
<time>2015-08-06T08:42:12Z</time></trkpt>
<trkpt lat="28.630876" lon="99.842706">
<time>2015-08-06T08:42:13Z</time></trkpt>
<trkpt lat="28.630846" lon="99.842706">
<time>2015-08-06T08:42:14Z</time></trkpt>
<trkpt lat="28.630806" lon="99.842706">
<time>2015-08-06T08:42:15Z</time></trkpt>
<trkpt lat="28.630766" lon="99.842696">
<time>2015-08-06T08:42:16Z</time></trkpt>
<trkpt lat="28.630726" lon="99.842676">
<time>2015-08-06T08:42:17Z</time></trkpt>
<trkpt lat="28.630676" lon="99.842656">
<time>2015-08-06T08:42:18Z</time></trkpt>
<trkpt lat="28.630646" lon="99.842636">
<time>2015-08-06T08:42:19Z</time></trkpt>
<trkpt lat="28.630616" lon="99.842606">
<time>2015-08-06T08:42:20Z</time></trkpt>
<trkpt lat="28.630586" lon="99.842556">
<time>2015-08-06T08:42:21Z</time></trkpt>
<trkpt lat="28.630545" lon="99.842476">
<time>2015-08-06T08:42:22Z</time></trkpt>
<trkpt lat="28.630495" lon="99.842406">
<time>2015-08-06T08:42:23Z</time></trkpt>
<trkpt lat="28.630445" lon="99.842335">
<time>2015-08-06T08:42:24Z</time></trkpt>
<trkpt lat="28.630405" lon="99.842285">
<time>2015-08-06T08:42:25Z</time></trkpt>
<trkpt lat="28.630345" lon="99.842215">
<time>2015-08-06T08:42:26Z</time></trkpt>
<trkpt lat="28.630265" lon="99.842155">
<time>2015-08-06T08:42:27Z</time></trkpt>
<trkpt lat="28.630195" lon="99.842105">
<time>2015-08-06T08:42:28Z</time></trkpt>
<trkpt lat="28.630125" lon="99.842075">
<time>2015-08-06T08:42:29Z</time></trkpt>
<trkpt lat="28.630055" lon="99.842035">
<time>2015-08-06T08:42:30Z</time></trkpt>
<trkpt lat="28.629985" lon="99.841995">
<time>2015-08-06T08:42:31Z</time></trkpt>
<trkpt lat="28.629915" lon="99.841945">
<time>2015-08-06T08:42:32Z</time></trkpt>
<trkpt lat="28.629865" lon="99.841905">
<time>2015-08-06T08:42:33Z</time></trkpt>
<trkpt lat="28.629825" lon="99.841855">
<time>2015-08-06T08:42:34Z</time></trkpt>
<trkpt lat="28.629785" lon="99.841794">
<time>2015-08-06T08:42:35Z</time></trkpt>
<trkpt lat="28.629735" lon="99.841704">
<time>2015-08-06T08:42:36Z</time></trkpt>
<trkpt lat="28.629674" lon="99.841574">
<time>2015-08-06T08:42:37Z</time></trkpt>
<trkpt lat="28.629604" lon="99.841464">
<time>2015-08-06T08:42:38Z</time></trkpt>
<trkpt lat="28.629564" lon="99.841394">
<time>2015-08-06T08:42:39Z</time></trkpt>
<trkpt lat="28.629504" lon="99.841323">
<time>2015-08-06T08:42:40Z</time></trkpt>
<trkpt lat="28.629424" lon="99.841213">
<time>2015-08-06T08:42:41Z</time></trkpt>
<trkpt lat="28.629173" lon="99.840943">
<time>2015-08-06T08:42:42Z</time></trkpt>
<trkpt lat="28.629033" lon="99.840792">
<time>2015-08-06T08:42:43Z</time></trkpt>
<trkpt lat="28.628963" lon="99.840732">
<time>2015-08-06T08:42:44Z</time></trkpt>
<trkpt lat="28.628873" lon="99.840662">
<time>2015-08-06T08:42:45Z</time></trkpt>
<trkpt lat="28.628793" lon="99.840622">
<time>2015-08-06T08:42:46Z</time></trkpt>
<trkpt lat="28.628723" lon="99.840582">
<time>2015-08-06T08:42:47Z</time></trkpt>
<trkpt lat="28.628643" lon="99.840532">
<time>2015-08-06T08:42:48Z</time></trkpt>
<trkpt lat="28.628603" lon="99.840492">
<time>2015-08-06T08:42:49Z</time></trkpt>
<trkpt lat="28.628563" lon="99.840452">
<time>2015-08-06T08:42:50Z</time></trkpt>
<trkpt lat="28.628533" lon="99.840392">
<time>2015-08-06T08:42:51Z</time></trkpt>
<trkpt lat="28.628513" lon="99.840331">
<time>2015-08-06T08:42:52Z</time></trkpt>
<trkpt lat="28.628503" lon="99.840281">
<time>2015-08-06T08:42:53Z</time></trkpt>
<trkpt lat="28.628492" lon="99.840221">
<time>2015-08-06T08:42:54Z</time></trkpt>
<trkpt lat="28.628492" lon="99.840131">
<time>2015-08-06T08:42:55Z</time></trkpt>
<trkpt lat="28.628492" lon="99.840031">
<time>2015-08-06T08:42:56Z</time></trkpt>
<trkpt lat="28.628492" lon="99.839961">
<time>2015-08-06T08:42:57Z</time></trkpt>
<trkpt lat="28.628482" lon="99.839921">
<time>2015-08-06T08:42:58Z</time></trkpt>
<trkpt lat="28.628462" lon="99.839871">
<time>2015-08-06T08:42:59Z</time></trkpt>
<trkpt lat="28.628432" lon="99.83982">
<time>2015-08-06T08:43:00Z</time></trkpt>
<trkpt lat="28.628402" lon="99.83977">
<time>2015-08-06T08:43:01Z</time></trkpt>
<trkpt lat="28.628342" lon="99.8397">
<time>2015-08-06T08:43:02Z</time></trkpt>
<trkpt lat="28.628111" lon="99.83947">
<time>2015-08-06T08:43:03Z</time></trkpt>
<trkpt lat="28.627631" lon="99.838999">
<time>2015-08-06T08:43:04Z</time></trkpt>
<trkpt lat="28.627511" lon="99.838869">
<time>2015-08-06T08:43:05Z</time></trkpt>
<trkpt lat="28.62741" lon="99.838738">
<time>2015-08-06T08:43:06Z</time></trkpt>
<trkpt lat="28.62734" lon="99.838648">
<time>2015-08-06T08:43:07Z</time></trkpt>
<trkpt lat="28.62727" lon="99.838578">
<time>2015-08-06T08:43:08Z</time></trkpt>
<trkpt lat="28.62718" lon="99.838478">
<time>2015-08-06T08:43:09Z</time></trkpt>
<trkpt lat="28.62708" lon="99.838398">
<time>2015-08-06T08:43:10Z</time></trkpt>
<trkpt lat="28.62681" lon="99.838147">
<time>2015-08-06T08:43:11Z</time></trkpt>
<trkpt lat="28.626569" lon="99.837927">
<time>2015-08-06T08:43:12Z</time></trkpt>
<trkpt lat="28.626479" lon="99.837846">
<time>2015-08-06T08:43:13Z</time></trkpt>
<trkpt lat="28.626389" lon="99.837776">
<time>2015-08-06T08:43:14Z</time></trkpt>
<trkpt lat="28.626299" lon="99.837716">
<time>2015-08-06T08:43:15Z</time></trkpt>
<trkpt lat="28.626209" lon="99.837666">
<time>2015-08-06T08:43:16Z</time></trkpt>
<trkpt lat="28.626099" lon="99.837606">
<time>2015-08-06T08:43:17Z</time></trkpt>
<trkpt lat="28.625969" lon="99.837546">
<time>2015-08-06T08:43:18Z</time></trkpt>
<trkpt lat="28.625849" lon="99.837476">
<time>2015-08-06T08:43:19Z</time></trkpt>
<trkpt lat="28.625769" lon="99.837416">
<time>2015-08-06T08:43:20Z</time></trkpt>
<trkpt lat="28.625699" lon="99.837365">
<time>2015-08-06T08:43:21Z</time></trkpt>
<trkpt lat="28.625669" lon="99.837345">
<time>2015-08-06T08:43:22Z</time></trkpt>
<trkpt lat="28.625498" lon="99.837205">
<time>2015-08-06T08:43:23Z</time></trkpt>
<trkpt lat="28.625378" lon="99.837105">
<time>2015-08-06T08:43:24Z</time></trkpt>
<trkpt lat="28.625258" lon="99.836975">
<time>2015-08-06T08:43:25Z</time></trkpt>
<trkpt lat="28.625098" lon="99.836774">
<time>2015-08-06T08:43:26Z</time></trkpt>
<trkpt lat="28.625028" lon="99.836674">
<time>2015-08-06T08:43:27Z</time></trkpt>
<trkpt lat="28.624938" lon="99.836574">
<time>2015-08-06T08:43:28Z</time></trkpt>
<trkpt lat="28.624817" lon="99.836434">
<time>2015-08-06T08:43:29Z</time></trkpt>
<trkpt lat="28.624587" lon="99.836203">
<time>2015-08-06T08:43:30Z</time></trkpt>
<trkpt lat="28.624347" lon="99.835973">
<time>2015-08-06T08:43:31Z</time></trkpt>
<trkpt lat="28.624227" lon="99.835862">
<time>2015-08-06T08:43:32Z</time></trkpt>
<trkpt lat="28.624036" lon="99.835702">
<time>2015-08-06T08:43:33Z</time></trkpt>
<trkpt lat="28.623726" lon="99.835442">
<time>2015-08-06T08:43:34Z</time></trkpt>
<trkpt lat="28.623526" lon="99.835261">
<time>2015-08-06T08:43:35Z</time></trkpt>
<trkpt lat="28.623175" lon="99.83492">
<time>2015-08-06T08:43:36Z</time></trkpt>
<trkpt lat="28.623025" lon="99.83477">
<time>2015-08-06T08:43:37Z</time></trkpt>
<trkpt lat="28.622905" lon="99.83464">
<time>2015-08-06T08:43:38Z</time></trkpt>
<trkpt lat="28.622825" lon="99.83455">
<time>2015-08-06T08:43:39Z</time></trkpt>
<trkpt lat="28.622765" lon="99.83448">
<time>2015-08-06T08:43:40Z</time></trkpt>
<trkpt lat="28.622735" lon="99.834439">
<time>2015-08-06T08:43:41Z</time></trkpt>
<trkpt lat="28.622695" lon="99.834409">
<time>2015-08-06T08:43:42Z</time></trkpt>
<trkpt lat="28.622665" lon="99.834389">
<time>2015-08-06T08:43:43Z</time></trkpt>
<trkpt lat="28.622625" lon="99.834379">
<time>2015-08-06T08:43:44Z</time></trkpt>
<trkpt lat="28.622575" lon="99.834369">
<time>2015-08-06T08:43:45Z</time></trkpt>
<trkpt lat="28.622525" lon="99.834369">
<time>2015-08-06T08:43:46Z</time></trkpt>
<trkpt lat="28.622475" lon="99.834389">
<time>2015-08-06T08:43:47Z</time></trkpt>
<trkpt lat="28.622445" lon="99.834409">
<time>2015-08-06T08:43:48Z</time></trkpt>
<trkpt lat="28.622405" lon="99.83445">
<time>2015-08-06T08:43:49Z</time></trkpt>
<trkpt lat="28.622345" lon="99.83453">
<time>2015-08-06T08:43:50Z</time></trkpt>
<trkpt lat="28.622275" lon="99.83463">
<time>2015-08-06T08:43:51Z</time></trkpt>
<trkpt lat="28.622016" lon="99.835111">
<time>2015-08-06T08:43:52Z</time></trkpt>
<trkpt lat="28.621957" lon="99.835221">
<time>2015-08-06T08:43:53Z</time></trkpt>
<trkpt lat="28.621508" lon="99.836103">
<time>2015-08-06T08:43:54Z</time></trkpt>
<trkpt lat="28.62122" lon="99.836604">
<time>2015-08-06T08:43:55Z</time></trkpt>
<trkpt lat="28.62111" lon="99.836744">
<time>2015-08-06T08:43:56Z</time></trkpt>
<trkpt lat="28.62104" lon="99.836814">
<time>2015-08-06T08:43:57Z</time></trkpt>
<trkpt lat="28.62099" lon="99.836855">
<time>2015-08-06T08:43:58Z</time></trkpt>
<trkpt lat="28.62091" lon="99.836885">
<time>2015-08-06T08:43:59Z</time></trkpt>
<trkpt lat="28.62085" lon="99.836895">
<time>2015-08-06T08:44:00Z</time></trkpt>
<trkpt lat="28.62078" lon="99.836885">
<time>2015-08-06T08:44:01Z</time></trkpt>
<trkpt lat="28.62071" lon="99.836865">
<time>2015-08-06T08:44:02Z</time></trkpt>
<trkpt lat="28.62065" lon="99.836835">
<time>2015-08-06T08:44:03Z</time></trkpt>
<trkpt lat="28.62057" lon="99.836784">
<time>2015-08-06T08:44:04Z</time></trkpt>
<trkpt lat="28.62051" lon="99.836724">
<time>2015-08-06T08:44:05Z</time></trkpt>
<trkpt lat="28.62044" lon="99.836614">
<time>2015-08-06T08:44:06Z</time></trkpt>
<trkpt lat="28.62029" lon="99.836364">
<time>2015-08-06T08:44:07Z</time></trkpt>
<trkpt lat="28.620169" lon="99.836123">
<time>2015-08-06T08:44:08Z</time></trkpt>
<trkpt lat="28.620099" lon="99.835993">
<time>2015-08-06T08:44:09Z</time></trkpt>
<trkpt lat="28.620029" lon="99.835832">
<time>2015-08-06T08:44:10Z</time></trkpt>
<trkpt lat="28.619948" lon="99.835622">
<time>2015-08-06T08:44:11Z</time></trkpt>
<trkpt lat="28.619898" lon="99.835442">
<time>2015-08-06T08:44:12Z</time></trkpt>
<trkpt lat="28.619858" lon="99.835251">
<time>2015-08-06T08:44:13Z</time></trkpt>
<trkpt lat="28.619837" lon="99.835051">
<time>2015-08-06T08:44:14Z</time></trkpt>
<trkpt lat="28.619817" lon="99.83483">
<time>2015-08-06T08:44:15Z</time></trkpt>
<trkpt lat="28.619797" lon="99.83467">
<time>2015-08-06T08:44:16Z</time></trkpt>
<trkpt lat="28.619766" lon="99.83453">
<time>2015-08-06T08:44:17Z</time></trkpt>
<trkpt lat="28.619716" lon="99.834369">
<time>2015-08-06T08:44:18Z</time></trkpt>
<trkpt lat="28.619626" lon="99.834149">
<time>2015-08-06T08:44:19Z</time></trkpt>
<trkpt lat="28.619525" lon="99.833848">
<time>2015-08-06T08:44:20Z</time></trkpt>
<trkpt lat="28.619425" lon="99.833478">
<time>2015-08-06T08:44:21Z</time></trkpt>
<trkpt lat="28.619394" lon="99.833337">
<time>2015-08-06T08:44:22Z</time></trkpt>
<trkpt lat="28.619384" lon="99.833317">
<time>2015-08-06T08:44:23Z</time></trkpt>
<trkpt lat="28.619354" lon="99.833197">
<time>2015-08-06T08:44:24Z</time></trkpt>
<trkpt lat="28.619314" lon="99.833087">
<time>2015-08-06T08:44:25Z</time></trkpt>
<trkpt lat="28.619274" lon="99.832987">
<time>2015-08-06T08:44:26Z</time></trkpt>
<trkpt lat="28.619234" lon="99.832906">
<time>2015-08-06T08:44:27Z</time></trkpt>
<trkpt lat="28.619173" lon="99.832806">
<time>2015-08-06T08:44:28Z</time></trkpt>
<trkpt lat="28.619083" lon="99.832676">
<time>2015-08-06T08:44:29Z</time></trkpt>
<trkpt lat="28.619013" lon="99.832536">
<time>2015-08-06T08:44:30Z</time></trkpt>
<trkpt lat="28.618933" lon="99.832325">
<time>2015-08-06T08:44:31Z</time></trkpt>
<trkpt lat="28.618792" lon="99.831944">
<time>2015-08-06T08:44:32Z</time></trkpt>
<trkpt lat="28.618621" lon="99.831413">
<time>2015-08-06T08:44:33Z</time></trkpt>
<trkpt lat="28.618511" lon="99.831123">
<time>2015-08-06T08:44:34Z</time></trkpt>
<trkpt lat="28.61846" lon="99.830982">
<time>2015-08-06T08:44:35Z</time></trkpt>
<trkpt lat="28.61843" lon="99.830892">
<time>2015-08-06T08:44:36Z</time></trkpt>
<trkpt lat="28.6184" lon="99.830842">
<time>2015-08-06T08:44:37Z</time></trkpt>
<trkpt lat="28.61835" lon="99.830792">
<time>2015-08-06T08:44:38Z</time></trkpt>
<trkpt lat="28.6183" lon="99.830762">
<time>2015-08-06T08:44:39Z</time></trkpt>
<trkpt lat="28.61824" lon="99.830752">
<time>2015-08-06T08:44:40Z</time></trkpt>
<trkpt lat="28.61817" lon="99.830762">
<time>2015-08-06T08:44:41Z</time></trkpt>
<trkpt lat="28.61806" lon="99.830792">
<time>2015-08-06T08:44:42Z</time></trkpt>
<trkpt lat="28.617801" lon="99.830872">
<time>2015-08-06T08:44:43Z</time></trkpt>
<trkpt lat="28.617541" lon="99.830952">
<time>2015-08-06T08:44:44Z</time></trkpt>
<trkpt lat="28.617321" lon="99.831022">
<time>2015-08-06T08:44:45Z</time></trkpt>
<trkpt lat="28.617161" lon="99.831093">
<time>2015-08-06T08:44:46Z</time></trkpt>
<trkpt lat="28.617021" lon="99.831173">
<time>2015-08-06T08:44:47Z</time></trkpt>
<trkpt lat="28.616902" lon="99.831253">
<time>2015-08-06T08:44:48Z</time></trkpt>
<trkpt lat="28.616852" lon="99.831303">
<time>2015-08-06T08:44:49Z</time></trkpt>
<trkpt lat="28.616632" lon="99.831514">
<time>2015-08-06T08:44:50Z</time></trkpt>
<trkpt lat="28.616353" lon="99.831814">
<time>2015-08-06T08:44:51Z</time></trkpt>
<trkpt lat="28.615854" lon="99.832476">
<time>2015-08-06T08:44:52Z</time></trkpt>
<trkpt lat="28.615675" lon="99.832696">
<time>2015-08-06T08:44:53Z</time></trkpt>
<trkpt lat="28.615436" lon="99.832977">
<time>2015-08-06T08:44:54Z</time></trkpt>
<trkpt lat="28.615116" lon="99.833327">
<time>2015-08-06T08:44:55Z</time></trkpt>
<trkpt lat="28.614857" lon="99.833608">
<time>2015-08-06T08:44:56Z</time></trkpt>
<trkpt lat="28.614747" lon="99.833698">
<time>2015-08-06T08:44:57Z</time></trkpt>
<trkpt lat="28.614667" lon="99.833758">
<time>2015-08-06T08:44:58Z</time></trkpt>
<trkpt lat="28.614568" lon="99.833808">
<time>2015-08-06T08:44:59Z</time></trkpt>
<trkpt lat="28.614468" lon="99.833838">
<time>2015-08-06T08:45:00Z</time></trkpt>
<trkpt lat="28.614358" lon="99.833858">
<time>2015-08-06T08:45:01Z</time></trkpt>
<trkpt lat="28.614268" lon="99.833858">
<time>2015-08-06T08:45:02Z</time></trkpt>
<trkpt lat="28.614158" lon="99.833848">
<time>2015-08-06T08:45:03Z</time></trkpt>
<trkpt lat="28.614048" lon="99.833828">
<time>2015-08-06T08:45:04Z</time></trkpt>
<trkpt lat="28.613948" lon="99.833788">
<time>2015-08-06T08:45:05Z</time></trkpt>
<trkpt lat="28.613838" lon="99.833728">
<time>2015-08-06T08:45:06Z</time></trkpt>
<trkpt lat="28.613738" lon="99.833638">
<time>2015-08-06T08:45:07Z</time></trkpt>
<trkpt lat="28.613668" lon="99.833558">
<time>2015-08-06T08:45:08Z</time></trkpt>
<trkpt lat="28.613597" lon="99.833478">
<time>2015-08-06T08:45:09Z</time></trkpt>
<trkpt lat="28.613527" lon="99.833357">
<time>2015-08-06T08:45:10Z</time></trkpt>
<trkpt lat="28.613427" lon="99.833197">
<time>2015-08-06T08:45:11Z</time></trkpt>
<trkpt lat="28.613377" lon="99.833117">
<time>2015-08-06T08:45:12Z</time></trkpt>
<trkpt lat="28.613317" lon="99.833027">
<time>2015-08-06T08:45:13Z</time></trkpt>
<trkpt lat="28.613257" lon="99.832957">
<time>2015-08-06T08:45:14Z</time></trkpt>
<trkpt lat="28.613167" lon="99.832856">
<time>2015-08-06T08:45:15Z</time></trkpt>
<trkpt lat="28.612976" lon="99.832656">
<time>2015-08-06T08:45:16Z</time></trkpt>
<trkpt lat="28.612886" lon="99.832556">
<time>2015-08-06T08:45:17Z</time></trkpt>
<trkpt lat="28.612776" lon="99.832416">
<time>2015-08-06T08:45:18Z</time></trkpt>
<trkpt lat="28.612475" lon="99.832005">
<time>2015-08-06T08:45:19Z</time></trkpt>
<trkpt lat="28.612175" lon="99.831614">
<time>2015-08-06T08:45:20Z</time></trkpt>
<trkpt lat="28.612044" lon="99.831444">
<time>2015-08-06T08:45:21Z</time></trkpt>
<trkpt lat="28.611954" lon="99.831333">
<time>2015-08-06T08:45:22Z</time></trkpt>
<trkpt lat="28.611894" lon="99.831253">
<time>2015-08-06T08:45:23Z</time></trkpt>
<trkpt lat="28.611844" lon="99.831213">
<time>2015-08-06T08:45:24Z</time></trkpt>
<trkpt lat="28.611784" lon="99.831173">
<time>2015-08-06T08:45:25Z</time></trkpt>
<trkpt lat="28.611724" lon="99.831143">
<time>2015-08-06T08:45:26Z</time></trkpt>
<trkpt lat="28.611654" lon="99.831133">
<time>2015-08-06T08:45:27Z</time></trkpt>
<trkpt lat="28.611574" lon="99.831143">
<time>2015-08-06T08:45:28Z</time></trkpt>
<trkpt lat="28.611504" lon="99.831153">
<time>2015-08-06T08:45:29Z</time></trkpt>
<trkpt lat="28.611414" lon="99.831193">
<time>2015-08-06T08:45:30Z</time></trkpt>
<trkpt lat="28.611245" lon="99.831293">
<time>2015-08-06T08:45:31Z</time></trkpt>
<trkpt lat="28.611115" lon="99.831373">
<time>2015-08-06T08:45:32Z</time></trkpt>
<trkpt lat="28.611015" lon="99.831464">
<time>2015-08-06T08:45:33Z</time></trkpt>
<trkpt lat="28.610905" lon="99.831574">
<time>2015-08-06T08:45:34Z</time></trkpt>
<trkpt lat="28.610746" lon="99.831724">
<time>2015-08-06T08:45:35Z</time></trkpt>
<trkpt lat="28.610406" lon="99.831985">
<time>2015-08-06T08:45:36Z</time></trkpt>
<trkpt lat="28.610097" lon="99.832225">
<time>2015-08-06T08:45:37Z</time></trkpt>
<trkpt lat="28.609917" lon="99.832355">
<time>2015-08-06T08:45:38Z</time></trkpt>
<trkpt lat="28.609747" lon="99.832466">
<time>2015-08-06T08:45:39Z</time></trkpt>
<trkpt lat="28.609648" lon="99.832556">
<time>2015-08-06T08:45:40Z</time></trkpt>
<trkpt lat="28.609568" lon="99.832636">
<time>2015-08-06T08:45:41Z</time></trkpt>
<trkpt lat="28.609498" lon="99.832726">
<time>2015-08-06T08:45:42Z</time></trkpt>
<trkpt lat="28.609418" lon="99.832847">
<time>2015-08-06T08:45:43Z</time></trkpt>
<trkpt lat="28.609358" lon="99.832907">
<time>2015-08-06T08:45:44Z</time></trkpt>
<trkpt lat="28.609309" lon="99.832937">
<time>2015-08-06T08:45:45Z</time></trkpt>
<trkpt lat="28.609239" lon="99.832957">
<time>2015-08-06T08:45:46Z</time></trkpt>
<trkpt lat="28.609159" lon="99.832957">
<time>2015-08-06T08:45:47Z</time></trkpt>
<trkpt lat="28.609069" lon="99.832957">
<time>2015-08-06T08:45:48Z</time></trkpt>
<trkpt lat="28.608969" lon="99.832937">
<time>2015-08-06T08:45:49Z</time></trkpt>
<trkpt lat="28.608879" lon="99.832927">
<time>2015-08-06T08:45:50Z</time></trkpt>
<trkpt lat="28.608809" lon="99.832927">
<time>2015-08-06T08:45:51Z</time></trkpt>
<trkpt lat="28.608749" lon="99.832937">
<time>2015-08-06T08:45:52Z</time></trkpt>
<trkpt lat="28.608669" lon="99.832967">
<time>2015-08-06T08:45:53Z</time></trkpt>
<trkpt lat="28.608509" lon="99.833057">
<time>2015-08-06T08:45:54Z</time></trkpt>
<trkpt lat="28.608439" lon="99.833097">
<time>2015-08-06T08:45:55Z</time></trkpt>
<trkpt lat="28.608369" lon="99.833117">
<time>2015-08-06T08:45:56Z</time></trkpt>
<trkpt lat="28.608299" lon="99.833117">
<time>2015-08-06T08:45:57Z</time></trkpt>
<trkpt lat="28.608239" lon="99.833117">
<time>2015-08-06T08:45:58Z</time></trkpt>
<trkpt lat="28.608179" lon="99.833097">
<time>2015-08-06T08:45:59Z</time></trkpt>
<trkpt lat="28.608169" lon="99.833097">
<time>2015-08-06T08:46:00Z</time></trkpt>
<trkpt lat="28.608089" lon="99.833057">
<time>2015-08-06T08:46:01Z</time></trkpt>
<trkpt lat="28.608009" lon="99.833017">
<time>2015-08-06T08:46:02Z</time></trkpt>
<trkpt lat="28.607679" lon="99.832786">
<time>2015-08-06T08:46:03Z</time></trkpt>
<trkpt lat="28.607399" lon="99.832616">
<time>2015-08-06T08:46:04Z</time></trkpt>
<trkpt lat="28.607199" lon="99.832476">
<time>2015-08-06T08:46:05Z</time></trkpt>
<trkpt lat="28.606989" lon="99.832305">
<time>2015-08-06T08:46:06Z</time></trkpt>
<trkpt lat="28.606848" lon="99.832165">
<time>2015-08-06T08:46:07Z</time></trkpt>
<trkpt lat="28.606688" lon="99.831975">
<time>2015-08-06T08:46:08Z</time></trkpt>
<trkpt lat="28.606488" lon="99.831724">
<time>2015-08-06T08:46:09Z</time></trkpt>
<trkpt lat="28.606257" lon="99.831454">
<time>2015-08-06T08:46:10Z</time></trkpt>
<trkpt lat="28.606117" lon="99.831313">
<time>2015-08-06T08:46:11Z</time></trkpt>
<trkpt lat="28.606037" lon="99.831223">
<time>2015-08-06T08:46:12Z</time></trkpt>
<trkpt lat="28.605977" lon="99.831173">
<time>2015-08-06T08:46:13Z</time></trkpt>
<trkpt lat="28.605907" lon="99.831133">
<time>2015-08-06T08:46:14Z</time></trkpt>
<trkpt lat="28.605837" lon="99.831103">
<time>2015-08-06T08:46:15Z</time></trkpt>
<trkpt lat="28.605767" lon="99.831093">
<time>2015-08-06T08:46:16Z</time></trkpt>
<trkpt lat="28.605687" lon="99.831093">
<time>2015-08-06T08:46:17Z</time></trkpt>
<trkpt lat="28.605617" lon="99.831103">
<time>2015-08-06T08:46:18Z</time></trkpt>
<trkpt lat="28.605487" lon="99.831143">
<time>2015-08-06T08:46:19Z</time></trkpt>
<trkpt lat="28.605307" lon="99.831223">
<time>2015-08-06T08:46:20Z</time></trkpt>
<trkpt lat="28.605108" lon="99.831333">
<time>2015-08-06T08:46:21Z</time></trkpt>
<trkpt lat="28.604948" lon="99.831424">
<time>2015-08-06T08:46:22Z</time></trkpt>
<trkpt lat="28.604828" lon="99.831524">
<time>2015-08-06T08:46:23Z</time></trkpt>
<trkpt lat="28.604708" lon="99.831654">
<time>2015-08-06T08:46:24Z</time></trkpt>
<trkpt lat="28.604609" lon="99.831794">
<time>2015-08-06T08:46:25Z</time></trkpt>
<trkpt lat="28.604519" lon="99.831965">
<time>2015-08-06T08:46:26Z</time></trkpt>
<trkpt lat="28.604439" lon="99.832135">
<time>2015-08-06T08:46:27Z</time></trkpt>
<trkpt lat="28.60437" lon="99.832295">
<time>2015-08-06T08:46:28Z</time></trkpt>
<trkpt lat="28.60429" lon="99.832446">
<time>2015-08-06T08:46:29Z</time></trkpt>
<trkpt lat="28.60421" lon="99.832576">
<time>2015-08-06T08:46:30Z</time></trkpt>
<trkpt lat="28.604091" lon="99.832726">
<time>2015-08-06T08:46:31Z</time></trkpt>
<trkpt lat="28.603991" lon="99.832847">
<time>2015-08-06T08:46:32Z</time></trkpt>
<trkpt lat="28.603762" lon="99.833097">
<time>2015-08-06T08:46:33Z</time></trkpt>
<trkpt lat="28.603732" lon="99.833147">
<time>2015-08-06T08:46:34Z</time></trkpt>
<trkpt lat="28.603702" lon="99.833207">
<time>2015-08-06T08:46:35Z</time></trkpt>
<trkpt lat="28.603682" lon="99.833278">
<time>2015-08-06T08:46:36Z</time></trkpt>
<trkpt lat="28.603672" lon="99.833368">
<time>2015-08-06T08:46:37Z</time></trkpt>
<trkpt lat="28.603672" lon="99.833538">
<time>2015-08-06T08:46:38Z</time></trkpt>
<trkpt lat="28.603683" lon="99.833708">
<time>2015-08-06T08:46:39Z</time></trkpt>
<trkpt lat="28.603673" lon="99.833849">
<time>2015-08-06T08:46:40Z</time></trkpt>
<trkpt lat="28.603653" lon="99.833979">
<time>2015-08-06T08:46:41Z</time></trkpt>
<trkpt lat="28.603634" lon="99.834129">
<time>2015-08-06T08:46:42Z</time></trkpt>
<trkpt lat="28.603594" lon="99.83426">
<time>2015-08-06T08:46:43Z</time></trkpt>
<trkpt lat="28.603554" lon="99.83436">
<time>2015-08-06T08:46:44Z</time></trkpt>
<trkpt lat="28.603494" lon="99.83444">
<time>2015-08-06T08:46:45Z</time></trkpt>
<trkpt lat="28.603434" lon="99.8345">
<time>2015-08-06T08:46:46Z</time></trkpt>
<trkpt lat="28.603344" lon="99.83457">
<time>2015-08-06T08:46:47Z</time></trkpt>
<trkpt lat="28.603285" lon="99.83463">
<time>2015-08-06T08:46:48Z</time></trkpt>
<trkpt lat="28.603235" lon="99.83468">
<time>2015-08-06T08:46:49Z</time></trkpt>
<trkpt lat="28.603195" lon="99.834741">
<time>2015-08-06T08:46:50Z</time></trkpt>
<trkpt lat="28.603175" lon="99.834821">
<time>2015-08-06T08:46:51Z</time></trkpt>
<trkpt lat="28.603155" lon="99.834901">
<time>2015-08-06T08:46:52Z</time></trkpt>
<trkpt lat="28.603086" lon="99.835362">
<time>2015-08-06T08:46:53Z</time></trkpt>
<trkpt lat="28.603037" lon="99.835612">
<time>2015-08-06T08:46:54Z</time></trkpt>
<trkpt lat="28.602997" lon="99.835813">
<time>2015-08-06T08:46:55Z</time></trkpt>
<trkpt lat="28.602957" lon="99.835953">
<time>2015-08-06T08:46:56Z</time></trkpt>
<trkpt lat="28.602947" lon="99.836033">
<time>2015-08-06T08:46:57Z</time></trkpt>
<trkpt lat="28.602948" lon="99.836103">
<time>2015-08-06T08:46:58Z</time></trkpt>
<trkpt lat="28.602958" lon="99.836214">
<time>2015-08-06T08:46:59Z</time></trkpt>
<trkpt lat="28.602978" lon="99.836324">
<time>2015-08-06T08:47:00Z</time></trkpt>
<trkpt lat="28.603018" lon="99.836464">
<time>2015-08-06T08:47:01Z</time></trkpt>
<trkpt lat="28.603068" lon="99.836594">
<time>2015-08-06T08:47:02Z</time></trkpt>
<trkpt lat="28.603089" lon="99.836705">
<time>2015-08-06T08:47:03Z</time></trkpt>
<trkpt lat="28.603089" lon="99.836775">
<time>2015-08-06T08:47:04Z</time></trkpt>
<trkpt lat="28.603079" lon="99.836835">
<time>2015-08-06T08:47:05Z</time></trkpt>
<trkpt lat="28.603059" lon="99.836905">
<time>2015-08-06T08:47:06Z</time></trkpt>
<trkpt lat="28.603019" lon="99.836975">
<time>2015-08-06T08:47:07Z</time></trkpt>
<trkpt lat="28.602969" lon="99.837035">
<time>2015-08-06T08:47:08Z</time></trkpt>
<trkpt lat="28.602899" lon="99.837116">
<time>2015-08-06T08:47:09Z</time></trkpt>
<trkpt lat="28.60271" lon="99.837266">
<time>2015-08-06T08:47:10Z</time></trkpt>
<trkpt lat="28.60257" lon="99.837386">
<time>2015-08-06T08:47:11Z</time></trkpt>
<trkpt lat="28.60251" lon="99.837466">
<time>2015-08-06T08:47:12Z</time></trkpt>
<trkpt lat="28.60247" lon="99.837536">
<time>2015-08-06T08:47:13Z</time></trkpt>
<trkpt lat="28.602441" lon="99.837617">
<time>2015-08-06T08:47:14Z</time></trkpt>
<trkpt lat="28.602421" lon="99.837707">
<time>2015-08-06T08:47:15Z</time></trkpt>
<trkpt lat="28.602411" lon="99.837817">
<time>2015-08-06T08:47:16Z</time></trkpt>
<trkpt lat="28.602411" lon="99.837967">
<time>2015-08-06T08:47:17Z</time></trkpt>
<trkpt lat="28.602401" lon="99.838068">
<time>2015-08-06T08:47:18Z</time></trkpt>
<trkpt lat="28.602382" lon="99.838168">
<time>2015-08-06T08:47:19Z</time></trkpt>
<trkpt lat="28.602352" lon="99.838308">
<time>2015-08-06T08:47:20Z</time></trkpt>
<trkpt lat="28.602253" lon="99.838659">
<time>2015-08-06T08:47:21Z</time></trkpt>
<trkpt lat="28.602173" lon="99.838959">
<time>2015-08-06T08:47:22Z</time></trkpt>
<trkpt lat="28.602133" lon="99.8391">
<time>2015-08-06T08:47:23Z</time></trkpt>
<trkpt lat="28.602114" lon="99.83921">
<time>2015-08-06T08:47:24Z</time></trkpt>
<trkpt lat="28.602114" lon="99.83929">
<time>2015-08-06T08:47:25Z</time></trkpt>
<trkpt lat="28.602124" lon="99.83938">
<time>2015-08-06T08:47:26Z</time></trkpt>
<trkpt lat="28.602154" lon="99.83948">
<time>2015-08-06T08:47:27Z</time></trkpt>
<trkpt lat="28.602204" lon="99.839641">
<time>2015-08-06T08:47:28Z</time></trkpt>
<trkpt lat="28.602365" lon="99.840021">
<time>2015-08-06T08:47:29Z</time></trkpt>
<trkpt lat="28.602546" lon="99.840382">
<time>2015-08-06T08:47:30Z</time></trkpt>
<trkpt lat="28.602756" lon="99.840723">
<time>2015-08-06T08:47:31Z</time></trkpt>
<trkpt lat="28.603017" lon="99.841164">
<time>2015-08-06T08:47:32Z</time></trkpt>
<trkpt lat="28.603097" lon="99.841304">
<time>2015-08-06T08:47:33Z</time></trkpt>
<trkpt lat="28.603147" lon="99.841424">
<time>2015-08-06T08:47:34Z</time></trkpt>
<trkpt lat="28.603177" lon="99.841515">
<time>2015-08-06T08:47:35Z</time></trkpt>
<trkpt lat="28.603177" lon="99.841585">
<time>2015-08-06T08:47:36Z</time></trkpt>
<trkpt lat="28.603178" lon="99.841645">
<time>2015-08-06T08:47:37Z</time></trkpt>
<trkpt lat="28.603158" lon="99.841715">
<time>2015-08-06T08:47:38Z</time></trkpt>
<trkpt lat="28.603138" lon="99.841775">
<time>2015-08-06T08:47:39Z</time></trkpt>
<trkpt lat="28.603098" lon="99.841835">
<time>2015-08-06T08:47:40Z</time></trkpt>
<trkpt lat="28.602998" lon="99.841935">
<time>2015-08-06T08:47:41Z</time></trkpt>
<trkpt lat="28.602968" lon="99.841955">
<time>2015-08-06T08:47:42Z</time></trkpt>
<trkpt lat="28.602878" lon="99.842026">
<time>2015-08-06T08:47:43Z</time></trkpt>
<trkpt lat="28.602789" lon="99.842096">
<time>2015-08-06T08:47:44Z</time></trkpt>
<trkpt lat="28.602699" lon="99.842126">
<time>2015-08-06T08:47:45Z</time></trkpt>
<trkpt lat="28.602619" lon="99.842146">
<time>2015-08-06T08:47:46Z</time></trkpt>
<trkpt lat="28.602529" lon="99.842146">
<time>2015-08-06T08:47:47Z</time></trkpt>
<trkpt lat="28.602379" lon="99.842126">
<time>2015-08-06T08:47:48Z</time></trkpt>
<trkpt lat="28.602229" lon="99.842096">
<time>2015-08-06T08:47:49Z</time></trkpt>
<trkpt lat="28.602099" lon="99.842046">
<time>2015-08-06T08:47:50Z</time></trkpt>
<trkpt lat="28.601949" lon="99.841975">
<time>2015-08-06T08:47:51Z</time></trkpt>
<trkpt lat="28.601819" lon="99.841905">
<time>2015-08-06T08:47:52Z</time></trkpt>
<trkpt lat="28.601679" lon="99.841855">
<time>2015-08-06T08:47:53Z</time></trkpt>
<trkpt lat="28.601589" lon="99.841835">
<time>2015-08-06T08:47:54Z</time></trkpt>
<trkpt lat="28.601479" lon="99.841815">
<time>2015-08-06T08:47:55Z</time></trkpt>
<trkpt lat="28.601349" lon="99.841815">
<time>2015-08-06T08:47:56Z</time></trkpt>
<trkpt lat="28.601119" lon="99.841825">
<time>2015-08-06T08:47:57Z</time></trkpt>
<trkpt lat="28.600969" lon="99.841845">
<time>2015-08-06T08:47:58Z</time></trkpt>
<trkpt lat="28.600819" lon="99.841885">
<time>2015-08-06T08:47:59Z</time></trkpt>
<trkpt lat="28.600639" lon="99.841945">
<time>2015-08-06T08:48:00Z</time></trkpt>
<trkpt lat="28.60043" lon="99.842036">
<time>2015-08-06T08:48:01Z</time></trkpt>
<trkpt lat="28.60027" lon="99.842136">
<time>2015-08-06T08:48:02Z</time></trkpt>
<trkpt lat="28.59997" lon="99.842326">
<time>2015-08-06T08:48:03Z</time></trkpt>
<trkpt lat="28.599681" lon="99.842537">
<time>2015-08-06T08:48:04Z</time></trkpt>
<trkpt lat="28.599551" lon="99.842647">
<time>2015-08-06T08:48:05Z</time></trkpt>
<trkpt lat="28.599461" lon="99.842707">
<time>2015-08-06T08:48:06Z</time></trkpt>
<trkpt lat="28.599381" lon="99.842757">
<time>2015-08-06T08:48:07Z</time></trkpt>
<trkpt lat="28.599262" lon="99.842807">
<time>2015-08-06T08:48:08Z</time></trkpt>
<trkpt lat="28.599132" lon="99.842847">
<time>2015-08-06T08:48:09Z</time></trkpt>
<trkpt lat="28.599012" lon="99.842887">
<time>2015-08-06T08:48:10Z</time></trkpt>
<trkpt lat="28.598902" lon="99.842937">
<time>2015-08-06T08:48:11Z</time></trkpt>
<trkpt lat="28.598772" lon="99.843008">
<time>2015-08-06T08:48:12Z</time></trkpt>
<trkpt lat="28.598592" lon="99.843118">
<time>2015-08-06T08:48:13Z</time></trkpt>
<trkpt lat="28.597953" lon="99.843569">
<time>2015-08-06T08:48:14Z</time></trkpt>
<trkpt lat="28.597235" lon="99.84408">
<time>2015-08-06T08:48:15Z</time></trkpt>
<trkpt lat="28.597035" lon="99.84423">
<time>2015-08-06T08:48:16Z</time></trkpt>
<trkpt lat="28.596696" lon="99.844491">
<time>2015-08-06T08:48:17Z</time></trkpt>
<trkpt lat="28.595817" lon="99.845092">
<time>2015-08-06T08:48:18Z</time></trkpt>
<trkpt lat="28.595647" lon="99.845222">
<time>2015-08-06T08:48:19Z</time></trkpt>
<trkpt lat="28.595518" lon="99.845342">
<time>2015-08-06T08:48:20Z</time></trkpt>
<trkpt lat="28.595398" lon="99.845463">
<time>2015-08-06T08:48:21Z</time></trkpt>
<trkpt lat="28.595218" lon="99.845663">
<time>2015-08-06T08:48:22Z</time></trkpt>
<trkpt lat="28.5947" lon="99.846234">
<time>2015-08-06T08:48:23Z</time></trkpt>
<trkpt lat="28.59456" lon="99.846394">
<time>2015-08-06T08:48:24Z</time></trkpt>
<trkpt lat="28.59448" lon="99.846475">
<time>2015-08-06T08:48:25Z</time></trkpt>
<trkpt lat="28.59442" lon="99.846525">
<time>2015-08-06T08:48:26Z</time></trkpt>
<trkpt lat="28.59436" lon="99.846555">
<time>2015-08-06T08:48:27Z</time></trkpt>
<trkpt lat="28.59431" lon="99.846565">
<time>2015-08-06T08:48:28Z</time></trkpt>
<trkpt lat="28.59425" lon="99.846565">
<time>2015-08-06T08:48:29Z</time></trkpt>
<trkpt lat="28.59418" lon="99.846545">
<time>2015-08-06T08:48:30Z</time></trkpt>
<trkpt lat="28.59412" lon="99.846505">
<time>2015-08-06T08:48:31Z</time></trkpt>
<trkpt lat="28.59405" lon="99.846465">
<time>2015-08-06T08:48:32Z</time></trkpt>
<trkpt lat="28.59396" lon="99.846394">
<time>2015-08-06T08:48:33Z</time></trkpt>
<trkpt lat="28.5939" lon="99.846324">
<time>2015-08-06T08:48:34Z</time></trkpt>
<trkpt lat="28.59386" lon="99.846264">
<time>2015-08-06T08:48:35Z</time></trkpt>
<trkpt lat="28.59383" lon="99.846194">
<time>2015-08-06T08:48:36Z</time></trkpt>
<trkpt lat="28.59383" lon="99.846124">
<time>2015-08-06T08:48:37Z</time></trkpt>
<trkpt lat="28.59383" lon="99.846054">
<time>2015-08-06T08:48:38Z</time></trkpt>
<trkpt lat="28.59385" lon="99.845954">
<time>2015-08-06T08:48:39Z</time></trkpt>
<trkpt lat="28.593899" lon="99.845833">
<time>2015-08-06T08:48:40Z</time></trkpt>
<trkpt lat="28.593979" lon="99.845683">
<time>2015-08-06T08:48:41Z</time></trkpt>
<trkpt lat="28.594138" lon="99.845372">
<time>2015-08-06T08:48:42Z</time></trkpt>
<trkpt lat="28.594208" lon="99.845242">
<time>2015-08-06T08:48:43Z</time></trkpt>
<trkpt lat="28.594258" lon="99.845132">
<time>2015-08-06T08:48:44Z</time></trkpt>
<trkpt lat="28.594288" lon="99.845002">
<time>2015-08-06T08:48:45Z</time></trkpt>
<trkpt lat="28.594327" lon="99.844861">
<time>2015-08-06T08:48:46Z</time></trkpt>
<trkpt lat="28.594387" lon="99.844721">
<time>2015-08-06T08:48:47Z</time></trkpt>
<trkpt lat="28.594437" lon="99.844651">
<time>2015-08-06T08:48:48Z</time></trkpt>
<trkpt lat="28.594497" lon="99.844591">
<time>2015-08-06T08:48:49Z</time></trkpt>
<trkpt lat="28.594547" lon="99.844531">
<time>2015-08-06T08:48:50Z</time></trkpt>
<trkpt lat="28.594607" lon="99.844481">
<time>2015-08-06T08:48:51Z</time></trkpt>
<trkpt lat="28.594677" lon="99.8444">
<time>2015-08-06T08:48:52Z</time></trkpt>
<trkpt lat="28.594736" lon="99.84431">
<time>2015-08-06T08:48:53Z</time></trkpt>
<trkpt lat="28.594796" lon="99.84419">
<time>2015-08-06T08:48:54Z</time></trkpt>
<trkpt lat="28.594886" lon="99.84398">
<time>2015-08-06T08:48:55Z</time></trkpt>
<trkpt lat="28.594985" lon="99.843769">
<time>2015-08-06T08:48:56Z</time></trkpt>
<trkpt lat="28.595055" lon="99.843619">
<time>2015-08-06T08:48:57Z</time></trkpt>
<trkpt lat="28.595125" lon="99.843489">
<time>2015-08-06T08:48:58Z</time></trkpt>
<trkpt lat="28.595214" lon="99.843358">
<time>2015-08-06T08:48:59Z</time></trkpt>
<trkpt lat="28.595304" lon="99.843248">
<time>2015-08-06T08:49:00Z</time></trkpt>
<trkpt lat="28.595494" lon="99.843028">
<time>2015-08-06T08:49:01Z</time></trkpt>
<trkpt lat="28.595563" lon="99.842918">
<time>2015-08-06T08:49:02Z</time></trkpt>
<trkpt lat="28.595613" lon="99.842837">
<time>2015-08-06T08:49:03Z</time></trkpt>
<trkpt lat="28.595663" lon="99.842717">
<time>2015-08-06T08:49:04Z</time></trkpt>
<trkpt lat="28.595713" lon="99.842557">
<time>2015-08-06T08:49:05Z</time></trkpt>
<trkpt lat="28.595743" lon="99.842467">
<time>2015-08-06T08:49:06Z</time></trkpt>
<trkpt lat="28.595782" lon="99.842296">
<time>2015-08-06T08:49:07Z</time></trkpt>
<trkpt lat="28.595832" lon="99.842166">
<time>2015-08-06T08:49:08Z</time></trkpt>
<trkpt lat="28.595892" lon="99.842026">
<time>2015-08-06T08:49:09Z</time></trkpt>
<trkpt lat="28.595922" lon="99.841936">
<time>2015-08-06T08:49:10Z</time></trkpt>
<trkpt lat="28.595941" lon="99.841855">
<time>2015-08-06T08:49:11Z</time></trkpt>
<trkpt lat="28.595971" lon="99.841755">
<time>2015-08-06T08:49:12Z</time></trkpt>
<trkpt lat="28.595991" lon="99.841655">
<time>2015-08-06T08:49:13Z</time></trkpt>
<trkpt lat="28.596031" lon="99.841575">
<time>2015-08-06T08:49:14Z</time></trkpt>
<trkpt lat="28.596071" lon="99.841495">
<time>2015-08-06T08:49:15Z</time></trkpt>
<trkpt lat="28.596121" lon="99.841435">
<time>2015-08-06T08:49:16Z</time></trkpt>
<trkpt lat="28.59624" lon="99.841314">
<time>2015-08-06T08:49:17Z</time></trkpt>
<trkpt lat="28.59628" lon="99.841254">
<time>2015-08-06T08:49:18Z</time></trkpt>
<trkpt lat="28.59631" lon="99.841214">
<time>2015-08-06T08:49:19Z</time></trkpt>
<trkpt lat="28.59634" lon="99.841154">
<time>2015-08-06T08:49:20Z</time></trkpt>
<trkpt lat="28.59637" lon="99.841084">
<time>2015-08-06T08:49:21Z</time></trkpt>
<trkpt lat="28.59639" lon="99.840994">
<time>2015-08-06T08:49:22Z</time></trkpt>
<trkpt lat="28.596419" lon="99.840883">
<time>2015-08-06T08:49:23Z</time></trkpt>
<trkpt lat="28.596449" lon="99.840783">
<time>2015-08-06T08:49:24Z</time></trkpt>
<trkpt lat="28.596489" lon="99.840693">
<time>2015-08-06T08:49:25Z</time></trkpt>
<trkpt lat="28.596559" lon="99.840543">
<time>2015-08-06T08:49:26Z</time></trkpt>
<trkpt lat="28.596609" lon="99.840442">
<time>2015-08-06T08:49:27Z</time></trkpt>
<trkpt lat="28.596678" lon="99.840292">
<time>2015-08-06T08:49:28Z</time></trkpt>
<trkpt lat="28.596718" lon="99.840172">
<time>2015-08-06T08:49:29Z</time></trkpt>
<trkpt lat="28.596768" lon="99.840042">
<time>2015-08-06T08:49:30Z</time></trkpt>
<trkpt lat="28.596787" lon="99.839931">
<time>2015-08-06T08:49:31Z</time></trkpt>
<trkpt lat="28.596817" lon="99.839861">
<time>2015-08-06T08:49:32Z</time></trkpt>
<trkpt lat="28.596847" lon="99.839781">
<time>2015-08-06T08:49:33Z</time></trkpt>
<trkpt lat="28.596907" lon="99.839671">
<time>2015-08-06T08:49:34Z</time></trkpt>
<trkpt lat="28.596957" lon="99.839541">
<time>2015-08-06T08:49:35Z</time></trkpt>
<trkpt lat="28.597046" lon="99.83935">
<time>2015-08-06T08:49:36Z</time></trkpt>
<trkpt lat="28.597156" lon="99.83912">
<time>2015-08-06T08:49:37Z</time></trkpt>
<trkpt lat="28.597206" lon="99.83899">
<time>2015-08-06T08:49:38Z</time></trkpt>
<trkpt lat="28.597245" lon="99.838909">
<time>2015-08-06T08:49:39Z</time></trkpt>
<trkpt lat="28.597265" lon="99.838809">
<time>2015-08-06T08:49:40Z</time></trkpt>
<trkpt lat="28.597285" lon="99.838719">
<time>2015-08-06T08:49:41Z</time></trkpt>
<trkpt lat="28.597285" lon="99.838629">
<time>2015-08-06T08:49:42Z</time></trkpt>
<trkpt lat="28.597275" lon="99.838549">
<time>2015-08-06T08:49:43Z</time></trkpt>
<trkpt lat="28.597245" lon="99.838458">
<time>2015-08-06T08:49:44Z</time></trkpt>
<trkpt lat="28.597214" lon="99.838388">
<time>2015-08-06T08:49:45Z</time></trkpt>
<trkpt lat="28.597184" lon="99.838328">
<time>2015-08-06T08:49:46Z</time></trkpt>
<trkpt lat="28.597164" lon="99.838278">
<time>2015-08-06T08:49:47Z</time></trkpt>
<trkpt lat="28.597124" lon="99.838218">
<time>2015-08-06T08:49:48Z</time></trkpt>
<trkpt lat="28.597074" lon="99.838148">
<time>2015-08-06T08:49:49Z</time></trkpt>
<trkpt lat="28.597034" lon="99.838088">
<time>2015-08-06T08:49:50Z</time></trkpt>
<trkpt lat="28.597004" lon="99.838028">
<time>2015-08-06T08:49:51Z</time></trkpt>
<trkpt lat="28.596984" lon="99.837947">
<time>2015-08-06T08:49:52Z</time></trkpt>
<trkpt lat="28.596964" lon="99.837847">
<time>2015-08-06T08:49:53Z</time></trkpt>
<trkpt lat="28.596953" lon="99.837717">
<time>2015-08-06T08:49:54Z</time></trkpt>
<trkpt lat="28.596933" lon="99.837607">
<time>2015-08-06T08:49:55Z</time></trkpt>
<trkpt lat="28.596923" lon="99.837527">
<time>2015-08-06T08:49:56Z</time></trkpt>
<trkpt lat="28.596903" lon="99.837446">
<time>2015-08-06T08:49:57Z</time></trkpt>
<trkpt lat="28.596883" lon="99.837396">
<time>2015-08-06T08:49:58Z</time></trkpt>
<trkpt lat="28.596843" lon="99.837336">
<time>2015-08-06T08:49:59Z</time></trkpt>
<trkpt lat="28.596793" lon="99.837276">
<time>2015-08-06T08:50:00Z</time></trkpt>
<trkpt lat="28.596702" lon="99.837166">
<time>2015-08-06T08:50:01Z</time></trkpt>
<trkpt lat="28.596612" lon="99.837056">
<time>2015-08-06T08:50:02Z</time></trkpt>
<trkpt lat="28.596502" lon="99.836905">
<time>2015-08-06T08:50:03Z</time></trkpt>
<trkpt lat="28.596312" lon="99.836585">
<time>2015-08-06T08:50:04Z</time></trkpt>
<trkpt lat="28.596131" lon="99.836284">
<time>2015-08-06T08:50:05Z</time></trkpt>
<trkpt lat="28.596071" lon="99.836164">
<time>2015-08-06T08:50:06Z</time></trkpt>
<trkpt lat="28.596031" lon="99.836054">
<time>2015-08-06T08:50:07Z</time></trkpt>
<trkpt lat="28.596001" lon="99.835963">
<time>2015-08-06T08:50:08Z</time></trkpt>
<trkpt lat="28.59598" lon="99.835863">
<time>2015-08-06T08:50:09Z</time></trkpt>
<trkpt lat="28.59596" lon="99.835763">
<time>2015-08-06T08:50:10Z</time></trkpt>
<trkpt lat="28.59596" lon="99.835683">
<time>2015-08-06T08:50:11Z</time></trkpt>
<trkpt lat="28.59597" lon="99.835603">
<time>2015-08-06T08:50:12Z</time></trkpt>
<trkpt lat="28.596" lon="99.835512">
<time>2015-08-06T08:50:13Z</time></trkpt>
<trkpt lat="28.59604" lon="99.835432">
<time>2015-08-06T08:50:14Z</time></trkpt>
<trkpt lat="28.596089" lon="99.835312">
<time>2015-08-06T08:50:15Z</time></trkpt>
<trkpt lat="28.596109" lon="99.835252">
<time>2015-08-06T08:50:16Z</time></trkpt>
<trkpt lat="28.596119" lon="99.835172">
<time>2015-08-06T08:50:17Z</time></trkpt>
<trkpt lat="28.596129" lon="99.835102">
<time>2015-08-06T08:50:18Z</time></trkpt>
<trkpt lat="28.596119" lon="99.835031">
<time>2015-08-06T08:50:19Z</time></trkpt>
<trkpt lat="28.596109" lon="99.834951">
<time>2015-08-06T08:50:20Z</time></trkpt>
<trkpt lat="28.596078" lon="99.834851">
<time>2015-08-06T08:50:21Z</time></trkpt>
<trkpt lat="28.596038" lon="99.834731">
<time>2015-08-06T08:50:22Z</time></trkpt>
<trkpt lat="28.595988" lon="99.83454">
<time>2015-08-06T08:50:23Z</time></trkpt>
<trkpt lat="28.595968" lon="99.83446">
<time>2015-08-06T08:50:24Z</time></trkpt>
<trkpt lat="28.595948" lon="99.83438">
<time>2015-08-06T08:50:25Z</time></trkpt>
<trkpt lat="28.595937" lon="99.83427">
<time>2015-08-06T08:50:26Z</time></trkpt>
<trkpt lat="28.595927" lon="99.83414">
<time>2015-08-06T08:50:27Z</time></trkpt>
<trkpt lat="28.595907" lon="99.834039">
<time>2015-08-06T08:50:28Z</time></trkpt>
<trkpt lat="28.595887" lon="99.833979">
<time>2015-08-06T08:50:29Z</time></trkpt>
<trkpt lat="28.595867" lon="99.833929">
<time>2015-08-06T08:50:30Z</time></trkpt>
<trkpt lat="28.595837" lon="99.833879">
<time>2015-08-06T08:50:31Z</time></trkpt>
<trkpt lat="28.595797" lon="99.833819">
<time>2015-08-06T08:50:32Z</time></trkpt>
<trkpt lat="28.595727" lon="99.833739">
<time>2015-08-06T08:50:33Z</time></trkpt>
<trkpt lat="28.595596" lon="99.833608">
<time>2015-08-06T08:50:34Z</time></trkpt>
<trkpt lat="28.595436" lon="99.833478">
<time>2015-08-06T08:50:35Z</time></trkpt>
<trkpt lat="28.595326" lon="99.833368">
<time>2015-08-06T08:50:36Z</time></trkpt>
<trkpt lat="28.595226" lon="99.833258">
<time>2015-08-06T08:50:37Z</time></trkpt>
<trkpt lat="28.595126" lon="99.833127">
<time>2015-08-06T08:50:38Z</time></trkpt>
<trkpt lat="28.594945" lon="99.832877">
<time>2015-08-06T08:50:39Z</time></trkpt>
<trkpt lat="28.594885" lon="99.832807">
<time>2015-08-06T08:50:40Z</time></trkpt>
<trkpt lat="28.594815" lon="99.832757">
<time>2015-08-06T08:50:41Z</time></trkpt>
<trkpt lat="28.594755" lon="99.832717">
<time>2015-08-06T08:50:42Z</time></trkpt>
<trkpt lat="28.594675" lon="99.832667">
<time>2015-08-06T08:50:43Z</time></trkpt>
<trkpt lat="28.594605" lon="99.832636">
<time>2015-08-06T08:50:44Z</time></trkpt>
<trkpt lat="28.594505" lon="99.832596">
<time>2015-08-06T08:50:45Z</time></trkpt>
<trkpt lat="28.593895" lon="99.832446">
<time>2015-08-06T08:50:46Z</time></trkpt>
<trkpt lat="28.593355" lon="99.832306">
<time>2015-08-06T08:50:47Z</time></trkpt>
<trkpt lat="28.593245" lon="99.832276">
<time>2015-08-06T08:50:48Z</time></trkpt>
<trkpt lat="28.593135" lon="99.832226">
<time>2015-08-06T08:50:49Z</time></trkpt>
<trkpt lat="28.593005" lon="99.832165">
<time>2015-08-06T08:50:50Z</time></trkpt>
<trkpt lat="28.592865" lon="99.832065">
<time>2015-08-06T08:50:51Z</time></trkpt>
<trkpt lat="28.592725" lon="99.831945">
<time>2015-08-06T08:50:52Z</time></trkpt>
<trkpt lat="28.592554" lon="99.831735">
<time>2015-08-06T08:50:53Z</time></trkpt>
<trkpt lat="28.592444" lon="99.831614">
<time>2015-08-06T08:50:54Z</time></trkpt>
<trkpt lat="28.592384" lon="99.831554">
<time>2015-08-06T08:50:55Z</time></trkpt>
<trkpt lat="28.592314" lon="99.831504">
<time>2015-08-06T08:50:56Z</time></trkpt>
<trkpt lat="28.592234" lon="99.831454">
<time>2015-08-06T08:50:57Z</time></trkpt>
<trkpt lat="28.592144" lon="99.831414">
<time>2015-08-06T08:50:58Z</time></trkpt>
<trkpt lat="28.592004" lon="99.831384">
<time>2015-08-06T08:50:59Z</time></trkpt>
<trkpt lat="28.591894" lon="99.831364">
<time>2015-08-06T08:51:00Z</time></trkpt>
<trkpt lat="28.591744" lon="99.831354">
<time>2015-08-06T08:51:01Z</time></trkpt>
<trkpt lat="28.591454" lon="99.831344">
<time>2015-08-06T08:51:02Z</time></trkpt>
<trkpt lat="28.590774" lon="99.831354">
<time>2015-08-06T08:51:03Z</time></trkpt>
<trkpt lat="28.590425" lon="99.831364">
<time>2015-08-06T08:51:04Z</time></trkpt>
<trkpt lat="28.590195" lon="99.831354">
<time>2015-08-06T08:51:05Z</time></trkpt>
<trkpt lat="28.590035" lon="99.831344">
<time>2015-08-06T08:51:06Z</time></trkpt>
<trkpt lat="28.589895" lon="99.831324">
<time>2015-08-06T08:51:07Z</time></trkpt>
<trkpt lat="28.589735" lon="99.831274">
<time>2015-08-06T08:51:08Z</time></trkpt>
<trkpt lat="28.589295" lon="99.831123">
<time>2015-08-06T08:51:09Z</time></trkpt>
<trkpt lat="28.589005" lon="99.831023">
<time>2015-08-06T08:51:10Z</time></trkpt>
<trkpt lat="28.588905" lon="99.830993">
<time>2015-08-06T08:51:11Z</time></trkpt>
<trkpt lat="28.588845" lon="99.830993">
<time>2015-08-06T08:51:12Z</time></trkpt>
<trkpt lat="28.588795" lon="99.830993">
<time>2015-08-06T08:51:13Z</time></trkpt>
<trkpt lat="28.588745" lon="99.831013">
<time>2015-08-06T08:51:14Z</time></trkpt>
<trkpt lat="28.588695" lon="99.831043">
<time>2015-08-06T08:51:15Z</time></trkpt>
<trkpt lat="28.588645" lon="99.831093">
<time>2015-08-06T08:51:16Z</time></trkpt>
<trkpt lat="28.588515" lon="99.831244">
<time>2015-08-06T08:51:17Z</time></trkpt>
<trkpt lat="28.588037" lon="99.831815">
<time>2015-08-06T08:51:18Z</time></trkpt>
<trkpt lat="28.587678" lon="99.832256">
<time>2015-08-06T08:51:19Z</time></trkpt>
<trkpt lat="28.587478" lon="99.832536">
<time>2015-08-06T08:51:20Z</time></trkpt>
<trkpt lat="28.587189" lon="99.832997">
<time>2015-08-06T08:51:21Z</time></trkpt>
<trkpt lat="28.58695" lon="99.833388">
<time>2015-08-06T08:51:22Z</time></trkpt>
<trkpt lat="28.58687" lon="99.833518">
<time>2015-08-06T08:51:23Z</time></trkpt>
<trkpt lat="28.586721" lon="99.833749">
<time>2015-08-06T08:51:24Z</time></trkpt>
<trkpt lat="28.586541" lon="99.833979">
<time>2015-08-06T08:51:25Z</time></trkpt>
<trkpt lat="28.586302" lon="99.83431">
<time>2015-08-06T08:51:26Z</time></trkpt>
<trkpt lat="28.586112" lon="99.834541">
<time>2015-08-06T08:51:27Z</time></trkpt>
<trkpt lat="28.585983" lon="99.834701">
<time>2015-08-06T08:51:28Z</time></trkpt>
<trkpt lat="28.585873" lon="99.834831">
<time>2015-08-06T08:51:29Z</time></trkpt>
<trkpt lat="28.585793" lon="99.834911">
<time>2015-08-06T08:51:30Z</time></trkpt>
<trkpt lat="28.585713" lon="99.834951">
<time>2015-08-06T08:51:31Z</time></trkpt>
<trkpt lat="28.585624" lon="99.834992">
<time>2015-08-06T08:51:32Z</time></trkpt>
<trkpt lat="28.585544" lon="99.835012">
<time>2015-08-06T08:51:33Z</time></trkpt>
<trkpt lat="28.585454" lon="99.835022">
<time>2015-08-06T08:51:34Z</time></trkpt>
<trkpt lat="28.585384" lon="99.835042">
<time>2015-08-06T08:51:35Z</time></trkpt>
<trkpt lat="28.585314" lon="99.835082">
<time>2015-08-06T08:51:36Z</time></trkpt>
<trkpt lat="28.585264" lon="99.835132">
<time>2015-08-06T08:51:37Z</time></trkpt>
<trkpt lat="28.585204" lon="99.835182">
<time>2015-08-06T08:51:38Z</time></trkpt>
<trkpt lat="28.585045" lon="99.835382">
<time>2015-08-06T08:51:39Z</time></trkpt>
<trkpt lat="28.584945" lon="99.835523">
<time>2015-08-06T08:51:40Z</time></trkpt>
<trkpt lat="28.584885" lon="99.835603">
<time>2015-08-06T08:51:41Z</time></trkpt>
<trkpt lat="28.584855" lon="99.835693">
<time>2015-08-06T08:51:42Z</time></trkpt>
<trkpt lat="28.584805" lon="99.835803">
<time>2015-08-06T08:51:43Z</time></trkpt>
<trkpt lat="28.584786" lon="99.835853">
<time>2015-08-06T08:51:44Z</time></trkpt>
<trkpt lat="28.584756" lon="99.835893">
<time>2015-08-06T08:51:45Z</time></trkpt>
<trkpt lat="28.584716" lon="99.835924">
<time>2015-08-06T08:51:46Z</time></trkpt>
<trkpt lat="28.584666" lon="99.835944">
<time>2015-08-06T08:51:47Z</time></trkpt>
<trkpt lat="28.584626" lon="99.835954">
<time>2015-08-06T08:51:48Z</time></trkpt>
<trkpt lat="28.584576" lon="99.835944">
<time>2015-08-06T08:51:49Z</time></trkpt>
<trkpt lat="28.584536" lon="99.835934">
<time>2015-08-06T08:51:50Z</time></trkpt>
<trkpt lat="28.584506" lon="99.835903">
<time>2015-08-06T08:51:51Z</time></trkpt>
<trkpt lat="28.584466" lon="99.835853">
<time>2015-08-06T08:51:52Z</time></trkpt>
<trkpt lat="28.584446" lon="99.835793">
<time>2015-08-06T08:51:53Z</time></trkpt>
<trkpt lat="28.584435" lon="99.835713">
<time>2015-08-06T08:51:54Z</time></trkpt>
<trkpt lat="28.584415" lon="99.835593">
<time>2015-08-06T08:51:55Z</time></trkpt>
<trkpt lat="28.584385" lon="99.835463">
<time>2015-08-06T08:51:56Z</time></trkpt>
<trkpt lat="28.584345" lon="99.835292">
<time>2015-08-06T08:51:57Z</time></trkpt>
<trkpt lat="28.584304" lon="99.835162">
<time>2015-08-06T08:51:58Z</time></trkpt>
<trkpt lat="28.584244" lon="99.835022">
<time>2015-08-06T08:51:59Z</time></trkpt>
<trkpt lat="28.584144" lon="99.834821">
<time>2015-08-06T08:52:00Z</time></trkpt>
<trkpt lat="28.584003" lon="99.834501">
<time>2015-08-06T08:52:01Z</time></trkpt>
<trkpt lat="28.583923" lon="99.83431">
<time>2015-08-06T08:52:02Z</time></trkpt>
<trkpt lat="28.583863" lon="99.83416">
<time>2015-08-06T08:52:03Z</time></trkpt>
<trkpt lat="28.583843" lon="99.83411">
<time>2015-08-06T08:52:04Z</time></trkpt>
<trkpt lat="28.583793" lon="99.834">
<time>2015-08-06T08:52:05Z</time></trkpt>
<trkpt lat="28.583752" lon="99.833889">
<time>2015-08-06T08:52:06Z</time></trkpt>
<trkpt lat="28.583732" lon="99.833829">
<time>2015-08-06T08:52:07Z</time></trkpt>
<trkpt lat="28.583722" lon="99.833799">
<time>2015-08-06T08:52:08Z</time></trkpt>
<trkpt lat="28.583702" lon="99.833769">
<time>2015-08-06T08:52:09Z</time></trkpt>
<trkpt lat="28.583682" lon="99.833739">
<time>2015-08-06T08:52:10Z</time></trkpt>
<trkpt lat="28.583652" lon="99.833719">
<time>2015-08-06T08:52:11Z</time></trkpt>
<trkpt lat="28.583622" lon="99.833689">
<time>2015-08-06T08:52:12Z</time></trkpt>
<trkpt lat="28.583582" lon="99.833669">
<time>2015-08-06T08:52:13Z</time></trkpt>
<trkpt lat="28.583492" lon="99.833609">
<time>2015-08-06T08:52:14Z</time></trkpt>
<trkpt lat="28.583432" lon="99.833569">
<time>2015-08-06T08:52:15Z</time></trkpt>
<trkpt lat="28.583372" lon="99.833519">
<time>2015-08-06T08:52:16Z</time></trkpt>
<trkpt lat="28.583342" lon="99.833499">
<time>2015-08-06T08:52:17Z</time></trkpt>
<trkpt lat="28.583322" lon="99.833478">
<time>2015-08-06T08:52:18Z</time></trkpt>
<trkpt lat="28.583292" lon="99.833448">
<time>2015-08-06T08:52:19Z</time></trkpt>
<trkpt lat="28.583232" lon="99.833378">
<time>2015-08-06T08:52:20Z</time></trkpt>
<trkpt lat="28.583091" lon="99.833188">
<time>2015-08-06T08:52:21Z</time></trkpt>
<trkpt lat="28.583001" lon="99.833038">
<time>2015-08-06T08:52:22Z</time></trkpt>
<trkpt lat="28.582961" lon="99.832997">
<time>2015-08-06T08:52:23Z</time></trkpt>
<trkpt lat="28.582901" lon="99.832927">
<time>2015-08-06T08:52:24Z</time></trkpt>
<trkpt lat="28.582871" lon="99.832897">
<time>2015-08-06T08:52:25Z</time></trkpt>
<trkpt lat="28.582821" lon="99.832837">
<time>2015-08-06T08:52:26Z</time></trkpt>
<trkpt lat="28.582781" lon="99.832807">
<time>2015-08-06T08:52:27Z</time></trkpt>
<trkpt lat="28.582761" lon="99.832787">
<time>2015-08-06T08:52:28Z</time></trkpt>
<trkpt lat="28.582721" lon="99.832757">
<time>2015-08-06T08:52:29Z</time></trkpt>
<trkpt lat="28.582651" lon="99.832727">
<time>2015-08-06T08:52:30Z</time></trkpt>
<trkpt lat="28.582581" lon="99.832687">
<time>2015-08-06T08:52:31Z</time></trkpt>
<trkpt lat="28.582461" lon="99.832637">
<time>2015-08-06T08:52:32Z</time></trkpt>
<trkpt lat="28.582421" lon="99.832617">
<time>2015-08-06T08:52:33Z</time></trkpt>
<trkpt lat="28.582371" lon="99.832577">
<time>2015-08-06T08:52:34Z</time></trkpt>
<trkpt lat="28.58234" lon="99.832547">
<time>2015-08-06T08:52:35Z</time></trkpt>
<trkpt lat="28.5823" lon="99.832496">
<time>2015-08-06T08:52:36Z</time></trkpt>
<trkpt lat="28.58228" lon="99.832466">
<time>2015-08-06T08:52:37Z</time></trkpt>
<trkpt lat="28.58222" lon="99.832356">
<time>2015-08-06T08:52:38Z</time></trkpt>
<trkpt lat="28.58218" lon="99.832256">
<time>2015-08-06T08:52:39Z</time></trkpt>
<trkpt lat="28.58217" lon="99.832226">
<time>2015-08-06T08:52:40Z</time></trkpt>
<trkpt lat="28.58216" lon="99.832196">
<time>2015-08-06T08:52:41Z</time></trkpt>
<trkpt lat="28.58215" lon="99.832156">
<time>2015-08-06T08:52:42Z</time></trkpt>
<trkpt lat="28.58215" lon="99.832096">
<time>2015-08-06T08:52:43Z</time></trkpt>
<trkpt lat="28.58214" lon="99.832056">
<time>2015-08-06T08:52:44Z</time></trkpt>
<trkpt lat="28.58214" lon="99.831995">
<time>2015-08-06T08:52:45Z</time></trkpt>
<trkpt lat="28.582149" lon="99.831915">
<time>2015-08-06T08:52:46Z</time></trkpt>
<trkpt lat="28.582169" lon="99.831795">
<time>2015-08-06T08:52:47Z</time></trkpt>
<trkpt lat="28.582179" lon="99.831695">
<time>2015-08-06T08:52:48Z</time></trkpt>
<trkpt lat="28.582189" lon="99.831625">
<time>2015-08-06T08:52:49Z</time></trkpt>
<trkpt lat="28.582189" lon="99.831585">
<time>2015-08-06T08:52:50Z</time></trkpt>
<trkpt lat="28.582208" lon="99.831414">
<time>2015-08-06T08:52:51Z</time></trkpt>
<trkpt lat="28.582228" lon="99.831304">
<time>2015-08-06T08:52:52Z</time></trkpt>
<trkpt lat="28.582238" lon="99.831234">
<time>2015-08-06T08:52:53Z</time></trkpt>
<trkpt lat="28.582258" lon="99.831164">
<time>2015-08-06T08:52:54Z</time></trkpt>
<trkpt lat="28.582268" lon="99.831073">
<time>2015-08-06T08:52:55Z</time></trkpt>
<trkpt lat="28.582288" lon="99.831013">
<time>2015-08-06T08:52:56Z</time></trkpt>
<trkpt lat="28.582288" lon="99.831003">
<time>2015-08-06T08:52:57Z</time></trkpt>
<trkpt lat="28.582288" lon="99.830973">
<time>2015-08-06T08:52:58Z</time></trkpt>
<trkpt lat="28.582287" lon="99.830933">
<time>2015-08-06T08:52:59Z</time></trkpt>
<trkpt lat="28.582277" lon="99.830863">
<time>2015-08-06T08:53:00Z</time></trkpt>
<trkpt lat="28.582277" lon="99.830833">
<time>2015-08-06T08:53:01Z</time></trkpt>
<trkpt lat="28.582257" lon="99.830763">
<time>2015-08-06T08:53:02Z</time></trkpt>
<trkpt lat="28.582227" lon="99.830713">
<time>2015-08-06T08:53:03Z</time></trkpt>
<trkpt lat="28.582187" lon="99.830663">
<time>2015-08-06T08:53:04Z</time></trkpt>
<trkpt lat="28.582147" lon="99.830613">
<time>2015-08-06T08:53:05Z</time></trkpt>
<trkpt lat="28.582097" lon="99.830592">
<time>2015-08-06T08:53:06Z</time></trkpt>
<trkpt lat="28.582027" lon="99.830552">
<time>2015-08-06T08:53:07Z</time></trkpt>
<trkpt lat="28.581927" lon="99.830522">
<time>2015-08-06T08:53:08Z</time></trkpt>
<trkpt lat="28.581857" lon="99.830502">
<time>2015-08-06T08:53:09Z</time></trkpt>
<trkpt lat="28.581717" lon="99.830472">
<time>2015-08-06T08:53:10Z</time></trkpt>
<trkpt lat="28.581587" lon="99.830462">
<time>2015-08-06T08:53:11Z</time></trkpt>
<trkpt lat="28.581407" lon="99.830432">
<time>2015-08-06T08:53:12Z</time></trkpt>
<trkpt lat="28.581267" lon="99.830392">
<time>2015-08-06T08:53:13Z</time></trkpt>
<trkpt lat="28.581167" lon="99.830352">
<time>2015-08-06T08:53:14Z</time></trkpt>
<trkpt lat="28.580977" lon="99.830272">
<time>2015-08-06T08:53:15Z</time></trkpt>
<trkpt lat="28.580817" lon="99.830182">
<time>2015-08-06T08:53:16Z</time></trkpt>
<trkpt lat="28.580627" lon="99.830091">
<time>2015-08-06T08:53:17Z</time></trkpt>
<trkpt lat="28.580467" lon="99.830021">
<time>2015-08-06T08:53:18Z</time></trkpt>
<trkpt lat="28.580397" lon="99.829981">
<time>2015-08-06T08:53:19Z</time></trkpt>
<trkpt lat="28.580256" lon="99.829881">
<time>2015-08-06T08:53:20Z</time></trkpt>
<trkpt lat="28.580146" lon="99.829761">
<time>2015-08-06T08:53:21Z</time></trkpt>
<trkpt lat="28.580036" lon="99.829671">
<time>2015-08-06T08:53:22Z</time></trkpt>
<trkpt lat="28.579976" lon="99.82962">
<time>2015-08-06T08:53:23Z</time></trkpt>
<trkpt lat="28.579836" lon="99.82954">
<time>2015-08-06T08:53:24Z</time></trkpt>
<trkpt lat="28.579726" lon="99.82947">
<time>2015-08-06T08:53:25Z</time></trkpt>
<trkpt lat="28.579566" lon="99.82938">
<time>2015-08-06T08:53:26Z</time></trkpt>
<trkpt lat="28.579506" lon="99.82934">
<time>2015-08-06T08:53:27Z</time></trkpt>
<trkpt lat="28.579476" lon="99.82932">
<time>2015-08-06T08:53:28Z</time></trkpt>
<trkpt lat="28.579416" lon="99.82924">
<time>2015-08-06T08:53:29Z</time></trkpt>
<trkpt lat="28.579365" lon="99.82918">
<time>2015-08-06T08:53:30Z</time></trkpt>
<trkpt lat="28.579335" lon="99.829129">
<time>2015-08-06T08:53:31Z</time></trkpt>
<trkpt lat="28.579315" lon="99.829089">
<time>2015-08-06T08:53:32Z</time></trkpt>
<trkpt lat="28.579285" lon="99.829009">
<time>2015-08-06T08:53:33Z</time></trkpt>
<trkpt lat="28.579275" lon="99.828959">
<time>2015-08-06T08:53:34Z</time></trkpt>
<trkpt lat="28.579225" lon="99.828819">
<time>2015-08-06T08:53:35Z</time></trkpt>
<trkpt lat="28.579205" lon="99.828769">
<time>2015-08-06T08:53:36Z</time></trkpt>
<trkpt lat="28.579185" lon="99.828739">
<time>2015-08-06T08:53:37Z</time></trkpt>
<trkpt lat="28.579155" lon="99.828679">
<time>2015-08-06T08:53:38Z</time></trkpt>
<trkpt lat="28.579095" lon="99.828608">
<time>2015-08-06T08:53:39Z</time></trkpt>
<trkpt lat="28.579064" lon="99.828578">
<time>2015-08-06T08:53:40Z</time></trkpt>
<trkpt lat="28.579004" lon="99.828518">
<time>2015-08-06T08:53:41Z</time></trkpt>
<trkpt lat="28.578914" lon="99.828438">
<time>2015-08-06T08:53:42Z</time></trkpt>
<trkpt lat="28.578764" lon="99.828338">
<time>2015-08-06T08:53:43Z</time></trkpt>
<trkpt lat="28.578634" lon="99.828258">
<time>2015-08-06T08:53:44Z</time></trkpt>
<trkpt lat="28.578474" lon="99.828137">
<time>2015-08-06T08:53:45Z</time></trkpt>
<trkpt lat="28.578344" lon="99.828027">
<time>2015-08-06T08:53:46Z</time></trkpt>
<trkpt lat="28.578214" lon="99.827897">
<time>2015-08-06T08:53:47Z</time></trkpt>
<trkpt lat="28.578093" lon="99.827767">
<time>2015-08-06T08:53:48Z</time></trkpt>
<trkpt lat="28.577953" lon="99.827596">
<time>2015-08-06T08:53:49Z</time></trkpt>
<trkpt lat="28.577833" lon="99.827456">
<time>2015-08-06T08:53:50Z</time></trkpt>
<trkpt lat="28.577602" lon="99.827165">
<time>2015-08-06T08:53:51Z</time></trkpt>
<trkpt lat="28.577492" lon="99.827045">
<time>2015-08-06T08:53:52Z</time></trkpt>
<trkpt lat="28.577362" lon="99.826905">
<time>2015-08-06T08:53:53Z</time></trkpt>
<trkpt lat="28.577272" lon="99.826835">
<time>2015-08-06T08:53:54Z</time></trkpt>
<trkpt lat="28.577002" lon="99.826624">
<time>2015-08-06T08:53:55Z</time></trkpt>
<trkpt lat="28.576922" lon="99.826534">
<time>2015-08-06T08:53:56Z</time></trkpt>
<trkpt lat="28.576841" lon="99.826454">
<time>2015-08-06T08:53:57Z</time></trkpt>
<trkpt lat="28.576801" lon="99.826404">
<time>2015-08-06T08:53:58Z</time></trkpt>
<trkpt lat="28.576731" lon="99.826304">
<time>2015-08-06T08:53:59Z</time></trkpt>
<trkpt lat="28.576711" lon="99.826274">
<time>2015-08-06T08:54:00Z</time></trkpt>
<trkpt lat="28.576661" lon="99.826183">
<time>2015-08-06T08:54:01Z</time></trkpt>
<trkpt lat="28.576541" lon="99.826013">
<time>2015-08-06T08:54:02Z</time></trkpt>
<trkpt lat="28.57641" lon="99.825813">
<time>2015-08-06T08:54:03Z</time></trkpt>
<trkpt lat="28.5763" lon="99.825652">
<time>2015-08-06T08:54:04Z</time></trkpt>
<trkpt lat="28.57617" lon="99.825482">
<time>2015-08-06T08:54:05Z</time></trkpt>
<trkpt lat="28.57601" lon="99.825261">
<time>2015-08-06T08:54:06Z</time></trkpt>
<trkpt lat="28.575909" lon="99.825091">
<time>2015-08-06T08:54:07Z</time></trkpt>
<trkpt lat="28.575839" lon="99.824961">
<time>2015-08-06T08:54:08Z</time></trkpt>
<trkpt lat="28.575809" lon="99.824921">
<time>2015-08-06T08:54:09Z</time></trkpt>
<trkpt lat="28.575779" lon="99.824881">
<time>2015-08-06T08:54:10Z</time></trkpt>
<trkpt lat="28.575759" lon="99.824861">
<time>2015-08-06T08:54:11Z</time></trkpt>
<trkpt lat="28.575749" lon="99.824851">
<time>2015-08-06T08:54:12Z</time></trkpt>
<trkpt lat="28.575739" lon="99.824841">
<time>2015-08-06T08:54:13Z</time></trkpt>
<trkpt lat="28.575729" lon="99.824831">
<time>2015-08-06T08:54:14Z</time></trkpt>
<trkpt lat="28.575719" lon="99.824821">
<time>2015-08-06T08:54:15Z</time></trkpt>
<trkpt lat="28.575699" lon="99.824821">
<time>2015-08-06T08:54:16Z</time></trkpt>
<trkpt lat="28.575679" lon="99.824811">
<time>2015-08-06T08:54:17Z</time></trkpt>
<trkpt lat="28.575669" lon="99.824811">
<time>2015-08-06T08:54:18Z</time></trkpt>
<trkpt lat="28.575649" lon="99.824811">
<time>2015-08-06T08:54:19Z</time></trkpt>
<trkpt lat="28.575629" lon="99.824811">
<time>2015-08-06T08:54:20Z</time></trkpt>
<trkpt lat="28.575619" lon="99.824811">
<time>2015-08-06T08:54:21Z</time></trkpt>
<trkpt lat="28.575609" lon="99.824811">
<time>2015-08-06T08:54:22Z</time></trkpt>
<trkpt lat="28.575589" lon="99.824811">
<time>2015-08-06T08:54:23Z</time></trkpt>
<trkpt lat="28.575549" lon="99.824831">
<time>2015-08-06T08:54:24Z</time></trkpt>
<trkpt lat="28.575499" lon="99.824861">
<time>2015-08-06T08:54:25Z</time></trkpt>
<trkpt lat="28.575479" lon="99.824861">
<time>2015-08-06T08:54:26Z</time></trkpt>
<trkpt lat="28.575469" lon="99.824871">
<time>2015-08-06T08:54:27Z</time></trkpt>
<trkpt lat="28.575449" lon="99.824881">
<time>2015-08-06T08:54:28Z</time></trkpt>
<trkpt lat="28.575439" lon="99.824901">
<time>2015-08-06T08:54:29Z</time></trkpt>
<trkpt lat="28.575429" lon="99.824911">
<time>2015-08-06T08:54:30Z</time></trkpt>
<trkpt lat="28.575419" lon="99.824921">
<time>2015-08-06T08:54:31Z</time></trkpt>
<trkpt lat="28.575419" lon="99.824931">
<time>2015-08-06T08:54:32Z</time></trkpt>
<trkpt lat="28.575419" lon="99.824951">
<time>2015-08-06T08:54:33Z</time></trkpt>
<trkpt lat="28.575409" lon="99.824981">
<time>2015-08-06T08:54:34Z</time></trkpt>
<trkpt lat="28.575409" lon="99.825011">
<time>2015-08-06T08:54:35Z</time></trkpt>
<trkpt lat="28.575409" lon="99.825031">
<time>2015-08-06T08:54:36Z</time></trkpt>
<trkpt lat="28.575409" lon="99.825061">
<time>2015-08-06T08:54:37Z</time></trkpt>
<trkpt lat="28.57541" lon="99.825101">
<time>2015-08-06T08:54:38Z</time></trkpt>
<trkpt lat="28.57542" lon="99.825131">
<time>2015-08-06T08:54:39Z</time></trkpt>
<trkpt lat="28.57543" lon="99.825181">
<time>2015-08-06T08:54:40Z</time></trkpt>
<trkpt lat="28.57544" lon="99.825221">
<time>2015-08-06T08:54:41Z</time></trkpt>
<trkpt lat="28.57546" lon="99.825271">
<time>2015-08-06T08:54:42Z</time></trkpt>
<trkpt lat="28.57547" lon="99.825312">
<time>2015-08-06T08:54:43Z</time></trkpt>
<trkpt lat="28.5755" lon="99.825392">
<time>2015-08-06T08:54:44Z</time></trkpt>
<trkpt lat="28.575621" lon="99.825752">
<time>2015-08-06T08:54:45Z</time></trkpt>
<trkpt lat="28.575651" lon="99.825873">
<time>2015-08-06T08:54:46Z</time></trkpt>
<trkpt lat="28.575661" lon="99.825903">
<time>2015-08-06T08:54:47Z</time></trkpt>
<trkpt lat="28.575671" lon="99.825923">
<time>2015-08-06T08:54:48Z</time></trkpt>
<trkpt lat="28.575671" lon="99.825943">
<time>2015-08-06T08:54:49Z</time></trkpt>
<trkpt lat="28.575681" lon="99.825963">
<time>2015-08-06T08:54:50Z</time></trkpt>
<trkpt lat="28.575681" lon="99.825993">
<time>2015-08-06T08:54:51Z</time></trkpt>
<trkpt lat="28.575681" lon="99.826013">
<time>2015-08-06T08:54:52Z</time></trkpt>
<trkpt lat="28.575681" lon="99.826033">
<time>2015-08-06T08:54:53Z</time></trkpt>
<trkpt lat="28.575681" lon="99.826053">
<time>2015-08-06T08:54:54Z</time></trkpt>
<trkpt lat="28.575681" lon="99.826093">
<time>2015-08-06T08:54:55Z</time></trkpt>
<trkpt lat="28.575671" lon="99.826133">
<time>2015-08-06T08:54:56Z</time></trkpt>
<trkpt lat="28.575661" lon="99.826173">
<time>2015-08-06T08:54:57Z</time></trkpt>
<trkpt lat="28.575652" lon="99.826223">
<time>2015-08-06T08:54:58Z</time></trkpt>
<trkpt lat="28.575642" lon="99.826274">
<time>2015-08-06T08:54:59Z</time></trkpt>
<trkpt lat="28.575632" lon="99.826304">
<time>2015-08-06T08:55:00Z</time></trkpt>
<trkpt lat="28.575632" lon="99.826324">
<time>2015-08-06T08:55:01Z</time></trkpt>
<trkpt lat="28.575622" lon="99.826344">
<time>2015-08-06T08:55:02Z</time></trkpt>
<trkpt lat="28.575612" lon="99.826354">
<time>2015-08-06T08:55:03Z</time></trkpt>
<trkpt lat="28.575562" lon="99.826484">
<time>2015-08-06T08:55:04Z</time></trkpt>
<trkpt lat="28.575532" lon="99.826534">
<time>2015-08-06T08:55:05Z</time></trkpt>
<trkpt lat="28.575522" lon="99.826564">
<time>2015-08-06T08:55:06Z</time></trkpt>
<trkpt lat="28.575472" lon="99.826644">
<time>2015-08-06T08:55:07Z</time></trkpt>
<trkpt lat="28.575423" lon="99.826725">
<time>2015-08-06T08:55:08Z</time></trkpt>
<trkpt lat="28.575403" lon="99.826765">
<time>2015-08-06T08:55:09Z</time></trkpt>
<trkpt lat="28.575363" lon="99.826825">
<time>2015-08-06T08:55:10Z</time></trkpt>
<trkpt lat="28.575293" lon="99.826905">
<time>2015-08-06T08:55:11Z</time></trkpt>
<trkpt lat="28.575233" lon="99.826985">
<time>2015-08-06T08:55:12Z</time></trkpt>
<trkpt lat="28.575173" lon="99.827045">
<time>2015-08-06T08:55:13Z</time></trkpt>
<trkpt lat="28.575123" lon="99.827095">
<time>2015-08-06T08:55:14Z</time></trkpt>
<trkpt lat="28.575064" lon="99.827145">
<time>2015-08-06T08:55:15Z</time></trkpt>
<trkpt lat="28.575034" lon="99.827175">
<time>2015-08-06T08:55:16Z</time></trkpt>
<trkpt lat="28.574964" lon="99.827226">
<time>2015-08-06T08:55:17Z</time></trkpt>
<trkpt lat="28.574744" lon="99.827366">
<time>2015-08-06T08:55:18Z</time></trkpt>
<trkpt lat="28.574704" lon="99.827396">
<time>2015-08-06T08:55:19Z</time></trkpt>
<trkpt lat="28.574515" lon="99.827566">
<time>2015-08-06T08:55:20Z</time></trkpt>
<trkpt lat="28.574485" lon="99.827596">
<time>2015-08-06T08:55:21Z</time></trkpt>
<trkpt lat="28.574465" lon="99.827626">
<time>2015-08-06T08:55:22Z</time></trkpt>
<trkpt lat="28.574405" lon="99.827707">
<time>2015-08-06T08:55:23Z</time></trkpt>
<trkpt lat="28.574385" lon="99.827767">
<time>2015-08-06T08:55:24Z</time></trkpt>
<trkpt lat="28.574375" lon="99.827817">
<time>2015-08-06T08:55:25Z</time></trkpt>
<trkpt lat="28.574365" lon="99.827857">
<time>2015-08-06T08:55:26Z</time></trkpt>
<trkpt lat="28.574365" lon="99.827907">
<time>2015-08-06T08:55:27Z</time></trkpt>
<trkpt lat="28.574365" lon="99.827957">
<time>2015-08-06T08:55:28Z</time></trkpt>
<trkpt lat="28.574375" lon="99.827997">
<time>2015-08-06T08:55:29Z</time></trkpt>
<trkpt lat="28.574396" lon="99.828057">
<time>2015-08-06T08:55:30Z</time></trkpt>
<trkpt lat="28.574406" lon="99.828087">
<time>2015-08-06T08:55:31Z</time></trkpt>
<trkpt lat="28.574436" lon="99.828148">
<time>2015-08-06T08:55:32Z</time></trkpt>
<trkpt lat="28.574466" lon="99.828198">
<time>2015-08-06T08:55:33Z</time></trkpt>
<trkpt lat="28.574556" lon="99.828318">
<time>2015-08-06T08:55:34Z</time></trkpt>
<trkpt lat="28.574837" lon="99.828689">
<time>2015-08-06T08:55:35Z</time></trkpt>
<trkpt lat="28.574887" lon="99.828759">
<time>2015-08-06T08:55:36Z</time></trkpt>
<trkpt lat="28.574927" lon="99.828839">
<time>2015-08-06T08:55:37Z</time></trkpt>
<trkpt lat="28.574947" lon="99.828899">
<time>2015-08-06T08:55:38Z</time></trkpt>
<trkpt lat="28.574967" lon="99.828959">
<time>2015-08-06T08:55:39Z</time></trkpt>
<trkpt lat="28.574977" lon="99.829009">
<time>2015-08-06T08:55:40Z</time></trkpt>
<trkpt lat="28.574987" lon="99.829059">
<time>2015-08-06T08:55:41Z</time></trkpt>
<trkpt lat="28.574987" lon="99.82913">
<time>2015-08-06T08:55:42Z</time></trkpt>
<trkpt lat="28.574987" lon="99.82921">
<time>2015-08-06T08:55:43Z</time></trkpt>
<trkpt lat="28.574978" lon="99.82931">
<time>2015-08-06T08:55:44Z</time></trkpt>
<trkpt lat="28.574968" lon="99.82939">
<time>2015-08-06T08:55:45Z</time></trkpt>
<trkpt lat="28.574948" lon="99.82946">
<time>2015-08-06T08:55:46Z</time></trkpt>
<trkpt lat="28.574938" lon="99.82954">
<time>2015-08-06T08:55:47Z</time></trkpt>
<trkpt lat="28.574898" lon="99.829651">
<time>2015-08-06T08:55:48Z</time></trkpt>
<trkpt lat="28.574839" lon="99.829771">
<time>2015-08-06T08:55:49Z</time></trkpt>
<trkpt lat="28.574809" lon="99.829841">
<time>2015-08-06T08:55:50Z</time></trkpt>
<trkpt lat="28.574769" lon="99.829901">
<time>2015-08-06T08:55:51Z</time></trkpt>
<trkpt lat="28.574739" lon="99.829951">
<time>2015-08-06T08:55:52Z</time></trkpt>
<trkpt lat="28.574699" lon="99.829991">
<time>2015-08-06T08:55:53Z</time></trkpt>
<trkpt lat="28.574659" lon="99.830031">
<time>2015-08-06T08:55:54Z</time></trkpt>
<trkpt lat="28.57429" lon="99.830372">
<time>2015-08-06T08:55:55Z</time></trkpt>
<trkpt lat="28.57426" lon="99.830392">
<time>2015-08-06T08:55:56Z</time></trkpt>
<trkpt lat="28.57424" lon="99.830422">
<time>2015-08-06T08:55:57Z</time></trkpt>
<trkpt lat="28.5742" lon="99.830472">
<time>2015-08-06T08:55:58Z</time></trkpt>
<trkpt lat="28.57418" lon="99.830533">
<time>2015-08-06T08:55:59Z</time></trkpt>
<trkpt lat="28.57416" lon="99.830593">
<time>2015-08-06T08:56:00Z</time></trkpt>
<trkpt lat="28.574141" lon="99.830693">
<time>2015-08-06T08:56:01Z</time></trkpt>
<trkpt lat="28.574111" lon="99.830843">
<time>2015-08-06T08:56:02Z</time></trkpt>
<trkpt lat="28.574111" lon="99.830933">
<time>2015-08-06T08:56:03Z</time></trkpt>
<trkpt lat="28.574101" lon="99.830983">
<time>2015-08-06T08:56:04Z</time></trkpt>
<trkpt lat="28.574111" lon="99.831144">
<time>2015-08-06T08:56:05Z</time></trkpt>
<trkpt lat="28.574132" lon="99.831454">
<time>2015-08-06T08:56:06Z</time></trkpt>
<trkpt lat="28.574142" lon="99.831585">
<time>2015-08-06T08:56:07Z</time></trkpt>
<trkpt lat="28.574153" lon="99.831705">
<time>2015-08-06T08:56:08Z</time></trkpt>
<trkpt lat="28.574173" lon="99.831895">
<time>2015-08-06T08:56:09Z</time></trkpt>
<trkpt lat="28.574203" lon="99.832186">
<time>2015-08-06T08:56:10Z</time></trkpt>
<trkpt lat="28.574224" lon="99.832286">
<time>2015-08-06T08:56:11Z</time></trkpt>
<trkpt lat="28.574224" lon="99.832336">
<time>2015-08-06T08:56:12Z</time></trkpt>
<trkpt lat="28.574224" lon="99.832657">
<time>2015-08-06T08:56:13Z</time></trkpt>
<trkpt lat="28.574225" lon="99.832857">
<time>2015-08-06T08:56:14Z</time></trkpt>
<trkpt lat="28.574215" lon="99.832948">
<time>2015-08-06T08:56:15Z</time></trkpt>
<trkpt lat="28.574215" lon="99.833008">
<time>2015-08-06T08:56:16Z</time></trkpt>
<trkpt lat="28.574185" lon="99.833218">
<time>2015-08-06T08:56:17Z</time></trkpt>
<trkpt lat="28.574175" lon="99.833258">
<time>2015-08-06T08:56:18Z</time></trkpt>
<trkpt lat="28.574136" lon="99.833459">
<time>2015-08-06T08:56:19Z</time></trkpt>
<trkpt lat="28.574076" lon="99.833639">
<time>2015-08-06T08:56:20Z</time></trkpt>
<trkpt lat="28.574026" lon="99.833759">
<time>2015-08-06T08:56:21Z</time></trkpt>
<trkpt lat="28.573957" lon="99.83393">
<time>2015-08-06T08:56:22Z</time></trkpt>
<trkpt lat="28.573917" lon="99.83402">
<time>2015-08-06T08:56:23Z</time></trkpt>
<trkpt lat="28.573837" lon="99.8342">
<time>2015-08-06T08:56:24Z</time></trkpt>
<trkpt lat="28.573768" lon="99.834351">
<time>2015-08-06T08:56:25Z</time></trkpt>
<trkpt lat="28.573698" lon="99.834541">
<time>2015-08-06T08:56:26Z</time></trkpt>
<trkpt lat="28.573678" lon="99.834611">
<time>2015-08-06T08:56:27Z</time></trkpt>
<trkpt lat="28.573658" lon="99.834681">
<time>2015-08-06T08:56:28Z</time></trkpt>
<trkpt lat="28.573648" lon="99.834771">
<time>2015-08-06T08:56:29Z</time></trkpt>
<trkpt lat="28.573609" lon="99.835092">
<time>2015-08-06T08:56:30Z</time></trkpt>
<trkpt lat="28.573609" lon="99.835132">
<time>2015-08-06T08:56:31Z</time></trkpt>
<trkpt lat="28.573609" lon="99.835202">
<time>2015-08-06T08:56:32Z</time></trkpt>
<trkpt lat="28.57362" lon="99.835323">
<time>2015-08-06T08:56:33Z</time></trkpt>
<trkpt lat="28.57362" lon="99.835403">
<time>2015-08-06T08:56:34Z</time></trkpt>
<trkpt lat="28.57363" lon="99.835433">
<time>2015-08-06T08:56:35Z</time></trkpt>
<trkpt lat="28.57365" lon="99.835543">
<time>2015-08-06T08:56:36Z</time></trkpt>
<trkpt lat="28.57366" lon="99.835583">
<time>2015-08-06T08:56:37Z</time></trkpt>
<trkpt lat="28.57372" lon="99.835713">
<time>2015-08-06T08:56:38Z</time></trkpt>
<trkpt lat="28.57376" lon="99.835844">
<time>2015-08-06T08:56:39Z</time></trkpt>
<trkpt lat="28.573801" lon="99.835904">
<time>2015-08-06T08:56:40Z</time></trkpt>
<trkpt lat="28.573891" lon="99.836054">
<time>2015-08-06T08:56:41Z</time></trkpt>
<trkpt lat="28.573931" lon="99.836124">
<time>2015-08-06T08:56:42Z</time></trkpt>
<trkpt lat="28.574031" lon="99.836275">
<time>2015-08-06T08:56:43Z</time></trkpt>
<trkpt lat="28.574081" lon="99.836325">
<time>2015-08-06T08:56:44Z</time></trkpt>
<trkpt lat="28.574151" lon="99.836415">
<time>2015-08-06T08:56:45Z</time></trkpt>
<trkpt lat="28.574262" lon="99.836545">
<time>2015-08-06T08:56:46Z</time></trkpt>
<trkpt lat="28.574372" lon="99.836685">
<time>2015-08-06T08:56:47Z</time></trkpt>
<trkpt lat="28.574472" lon="99.836806">
<time>2015-08-06T08:56:48Z</time></trkpt>
<trkpt lat="28.574512" lon="99.836856">
<time>2015-08-06T08:56:49Z</time></trkpt>
<trkpt lat="28.574592" lon="99.836976">
<time>2015-08-06T08:56:50Z</time></trkpt>
<trkpt lat="28.574652" lon="99.837056">
<time>2015-08-06T08:56:51Z</time></trkpt>
<trkpt lat="28.574682" lon="99.837106">
<time>2015-08-06T08:56:52Z</time></trkpt>
<trkpt lat="28.574743" lon="99.837216">
<time>2015-08-06T08:56:53Z</time></trkpt>
<trkpt lat="28.574793" lon="99.837297">
<time>2015-08-06T08:56:54Z</time></trkpt>
<trkpt lat="28.574833" lon="99.837357">
<time>2015-08-06T08:56:55Z</time></trkpt>
<trkpt lat="28.574853" lon="99.837407">
<time>2015-08-06T08:56:56Z</time></trkpt>
<trkpt lat="28.574893" lon="99.837477">
<time>2015-08-06T08:56:57Z</time></trkpt>
<trkpt lat="28.574933" lon="99.837567">
<time>2015-08-06T08:56:58Z</time></trkpt>
<trkpt lat="28.574943" lon="99.837597">
<time>2015-08-06T08:56:59Z</time></trkpt>
<trkpt lat="28.574963" lon="99.837637">
<time>2015-08-06T08:57:00Z</time></trkpt>
<trkpt lat="28.574963" lon="99.837657">
<time>2015-08-06T08:57:01Z</time></trkpt>
<trkpt lat="28.574973" lon="99.837677">
<time>2015-08-06T08:57:02Z</time></trkpt>
<trkpt lat="28.574973" lon="99.837697">
<time>2015-08-06T08:57:03Z</time></trkpt>
<trkpt lat="28.574973" lon="99.837738">
<time>2015-08-06T08:57:04Z</time></trkpt>
<trkpt lat="28.574963" lon="99.837788">
<time>2015-08-06T08:57:05Z</time></trkpt>
<trkpt lat="28.574964" lon="99.837818">
<time>2015-08-06T08:57:06Z</time></trkpt>
<trkpt lat="28.574964" lon="99.837838">
<time>2015-08-06T08:57:07Z</time></trkpt>
<trkpt lat="28.574964" lon="99.837848">
<time>2015-08-06T08:57:08Z</time></trkpt>
<trkpt lat="28.574954" lon="99.837858">
<time>2015-08-06T08:57:09Z</time></trkpt>
<trkpt lat="28.574944" lon="99.837878">
<time>2015-08-06T08:57:10Z</time></trkpt>
<trkpt lat="28.574934" lon="99.837898">
<time>2015-08-06T08:57:11Z</time></trkpt>
<trkpt lat="28.574934" lon="99.837908">
<time>2015-08-06T08:57:12Z</time></trkpt>
<trkpt lat="28.574924" lon="99.837908">
<time>2015-08-06T08:57:13Z</time></trkpt>
<trkpt lat="28.574914" lon="99.837918">
<time>2015-08-06T08:57:14Z</time></trkpt>
<trkpt lat="28.574904" lon="99.837918">
<time>2015-08-06T08:57:15Z</time></trkpt>
<trkpt lat="28.574894" lon="99.837918">
<time>2015-08-06T08:57:16Z</time></trkpt>
<trkpt lat="28.574874" lon="99.837928">
<time>2015-08-06T08:57:17Z</time></trkpt>
<trkpt lat="28.574864" lon="99.837928">
<time>2015-08-06T08:57:18Z</time></trkpt>
<trkpt lat="28.574854" lon="99.837928">
<time>2015-08-06T08:57:19Z</time></trkpt>
<trkpt lat="28.574844" lon="99.837928">
<time>2015-08-06T08:57:20Z</time></trkpt>
<trkpt lat="28.574834" lon="99.837928">
<time>2015-08-06T08:57:21Z</time></trkpt>
<trkpt lat="28.574824" lon="99.837928">
<time>2015-08-06T08:57:22Z</time></trkpt>
<trkpt lat="28.574814" lon="99.837918">
<time>2015-08-06T08:57:23Z</time></trkpt>
<trkpt lat="28.574804" lon="99.837908">
<time>2015-08-06T08:57:24Z</time></trkpt>
<trkpt lat="28.574794" lon="99.837908">
<time>2015-08-06T08:57:25Z</time></trkpt>
<trkpt lat="28.574774" lon="99.837898">
<time>2015-08-06T08:57:26Z</time></trkpt>
<trkpt lat="28.574764" lon="99.837888">
<time>2015-08-06T08:57:27Z</time></trkpt>
<trkpt lat="28.574754" lon="99.837858">
<time>2015-08-06T08:57:28Z</time></trkpt>
<trkpt lat="28.574724" lon="99.837818">
<time>2015-08-06T08:57:29Z</time></trkpt>
<trkpt lat="28.574724" lon="99.837808">
<time>2015-08-06T08:57:30Z</time></trkpt>
<trkpt lat="28.574724" lon="99.837798">
<time>2015-08-06T08:57:31Z</time></trkpt>
<trkpt lat="28.574714" lon="99.837778">
<time>2015-08-06T08:57:32Z</time></trkpt>
<trkpt lat="28.574704" lon="99.837738">
<time>2015-08-06T08:57:33Z</time></trkpt>
<trkpt lat="28.574683" lon="99.837587">
<time>2015-08-06T08:57:34Z</time></trkpt>
<trkpt lat="28.574643" lon="99.837467">
<time>2015-08-06T08:57:35Z</time></trkpt>
<trkpt lat="28.574603" lon="99.837347">
<time>2015-08-06T08:57:36Z</time></trkpt>
<trkpt lat="28.574573" lon="99.837277">
<time>2015-08-06T08:57:37Z</time></trkpt>
<trkpt lat="28.574543" lon="99.837216">
<time>2015-08-06T08:57:38Z</time></trkpt>
<trkpt lat="28.574472" lon="99.837106">
<time>2015-08-06T08:57:39Z</time></trkpt>
<trkpt lat="28.574412" lon="99.837026">
<time>2015-08-06T08:57:40Z</time></trkpt>
<trkpt lat="28.574332" lon="99.836926">
<time>2015-08-06T08:57:41Z</time></trkpt>
<trkpt lat="28.574272" lon="99.836866">
<time>2015-08-06T08:57:42Z</time></trkpt>
<trkpt lat="28.574162" lon="99.836745">
<time>2015-08-06T08:57:43Z</time></trkpt>
<trkpt lat="28.573992" lon="99.836575">
<time>2015-08-06T08:57:44Z</time></trkpt>
<trkpt lat="28.573942" lon="99.836515">
<time>2015-08-06T08:57:45Z</time></trkpt>
<trkpt lat="28.573871" lon="99.836405">
<time>2015-08-06T08:57:46Z</time></trkpt>
<trkpt lat="28.573681" lon="99.836114">
<time>2015-08-06T08:57:47Z</time></trkpt>
<trkpt lat="28.573531" lon="99.835864">
<time>2015-08-06T08:57:48Z</time></trkpt>
<trkpt lat="28.57323" lon="99.835373">
<time>2015-08-06T08:57:49Z</time></trkpt>
<trkpt lat="28.5732" lon="99.835272">
<time>2015-08-06T08:57:50Z</time></trkpt>
<trkpt lat="28.57319" lon="99.835222">
<time>2015-08-06T08:57:51Z</time></trkpt>
<trkpt lat="28.573179" lon="99.835162">
<time>2015-08-06T08:57:52Z</time></trkpt>
<trkpt lat="28.573169" lon="99.835092">
<time>2015-08-06T08:57:53Z</time></trkpt>
<trkpt lat="28.573169" lon="99.835012">
<time>2015-08-06T08:57:54Z</time></trkpt>
<trkpt lat="28.573169" lon="99.834952">
<time>2015-08-06T08:57:55Z</time></trkpt>
<trkpt lat="28.573179" lon="99.834842">
<time>2015-08-06T08:57:56Z</time></trkpt>
<trkpt lat="28.573208" lon="99.834501">
<time>2015-08-06T08:57:57Z</time></trkpt>
<trkpt lat="28.573376" lon="99.833188">
<time>2015-08-06T08:57:58Z</time></trkpt>
<trkpt lat="28.573425" lon="99.832777">
<time>2015-08-06T08:57:59Z</time></trkpt>
<trkpt lat="28.573435" lon="99.832627">
<time>2015-08-06T08:58:00Z</time></trkpt>
<trkpt lat="28.573444" lon="99.832487">
<time>2015-08-06T08:58:01Z</time></trkpt>
<trkpt lat="28.573444" lon="99.832356">
<time>2015-08-06T08:58:02Z</time></trkpt>
<trkpt lat="28.573444" lon="99.832246">
<time>2015-08-06T08:58:03Z</time></trkpt>
<trkpt lat="28.573434" lon="99.832146">
<time>2015-08-06T08:58:04Z</time></trkpt>
<trkpt lat="28.573424" lon="99.832056">
<time>2015-08-06T08:58:05Z</time></trkpt>
<trkpt lat="28.573403" lon="99.831946">
<time>2015-08-06T08:58:06Z</time></trkpt>
<trkpt lat="28.573373" lon="99.831755">
<time>2015-08-06T08:58:07Z</time></trkpt>
<trkpt lat="28.573353" lon="99.831675">
<time>2015-08-06T08:58:08Z</time></trkpt>
<trkpt lat="28.573323" lon="99.831575">
<time>2015-08-06T08:58:09Z</time></trkpt>
<trkpt lat="28.573272" lon="99.831475">
<time>2015-08-06T08:58:10Z</time></trkpt>
<trkpt lat="28.573242" lon="99.831404">
<time>2015-08-06T08:58:11Z</time></trkpt>
<trkpt lat="28.573202" lon="99.831344">
<time>2015-08-06T08:58:12Z</time></trkpt>
<trkpt lat="28.573102" lon="99.831224">
<time>2015-08-06T08:58:13Z</time></trkpt>
<trkpt lat="28.572942" lon="99.831014">
<time>2015-08-06T08:58:14Z</time></trkpt>
<trkpt lat="28.572842" lon="99.830883">
<time>2015-08-06T08:58:15Z</time></trkpt>
<trkpt lat="28.572801" lon="99.830793">
<time>2015-08-06T08:58:16Z</time></trkpt>
<trkpt lat="28.572781" lon="99.830693">
<time>2015-08-06T08:58:17Z</time></trkpt>
<trkpt lat="28.572771" lon="99.830593">
<time>2015-08-06T08:58:18Z</time></trkpt>
<trkpt lat="28.572781" lon="99.830472">
<time>2015-08-06T08:58:19Z</time></trkpt>
<trkpt lat="28.572831" lon="99.830362">
<time>2015-08-06T08:58:20Z</time></trkpt>
<trkpt lat="28.57291" lon="99.830272">
<time>2015-08-06T08:58:21Z</time></trkpt>
<trkpt lat="28.57304" lon="99.830152">
<time>2015-08-06T08:58:22Z</time></trkpt>
<trkpt lat="28.57314" lon="99.830062">
<time>2015-08-06T08:58:23Z</time></trkpt>
<trkpt lat="28.57325" lon="99.829941">
<time>2015-08-06T08:58:24Z</time></trkpt>
<trkpt lat="28.573319" lon="99.829841">
<time>2015-08-06T08:58:25Z</time></trkpt>
<trkpt lat="28.573359" lon="99.829771">
<time>2015-08-06T08:58:26Z</time></trkpt>
<trkpt lat="28.573389" lon="99.829691">
<time>2015-08-06T08:58:27Z</time></trkpt>
<trkpt lat="28.573419" lon="99.829571">
<time>2015-08-06T08:58:28Z</time></trkpt>
<trkpt lat="28.573439" lon="99.82944">
<time>2015-08-06T08:58:29Z</time></trkpt>
<trkpt lat="28.573438" lon="99.82934">
<time>2015-08-06T08:58:30Z</time></trkpt>
<trkpt lat="28.573418" lon="99.82926">
<time>2015-08-06T08:58:31Z</time></trkpt>
<trkpt lat="28.573388" lon="99.8292">
<time>2015-08-06T08:58:32Z</time></trkpt>
<trkpt lat="28.573348" lon="99.82911">
<time>2015-08-06T08:58:33Z</time></trkpt>
<trkpt lat="28.573268" lon="99.829009">
<time>2015-08-06T08:58:34Z</time></trkpt>
<trkpt lat="28.573128" lon="99.828869">
<time>2015-08-06T08:58:35Z</time></trkpt>
<trkpt lat="28.573008" lon="99.828799">
<time>2015-08-06T08:58:36Z</time></trkpt>
<trkpt lat="28.572847" lon="99.828699">
<time>2015-08-06T08:58:37Z</time></trkpt>
<trkpt lat="28.572717" lon="99.828599">
<time>2015-08-06T08:58:38Z</time></trkpt>
<trkpt lat="28.572537" lon="99.828418">
<time>2015-08-06T08:58:39Z</time></trkpt>
<trkpt lat="28.572427" lon="99.828288">
<time>2015-08-06T08:58:40Z</time></trkpt>
<trkpt lat="28.572327" lon="99.828158">
<time>2015-08-06T08:58:41Z</time></trkpt>
<trkpt lat="28.572287" lon="99.828077">
<time>2015-08-06T08:58:42Z</time></trkpt>
<trkpt lat="28.572256" lon="99.828027">
<time>2015-08-06T08:58:43Z</time></trkpt>
<trkpt lat="28.572226" lon="99.827937">
<time>2015-08-06T08:58:44Z</time></trkpt>
<trkpt lat="28.572216" lon="99.827887">
<time>2015-08-06T08:58:45Z</time></trkpt>
<trkpt lat="28.572206" lon="99.827837">
<time>2015-08-06T08:58:46Z</time></trkpt>
<trkpt lat="28.572216" lon="99.827787">
<time>2015-08-06T08:58:47Z</time></trkpt>
<trkpt lat="28.572216" lon="99.827727">
<time>2015-08-06T08:58:48Z</time></trkpt>
<trkpt lat="28.572236" lon="99.827667">
<time>2015-08-06T08:58:49Z</time></trkpt>
<trkpt lat="28.572266" lon="99.827606">
<time>2015-08-06T08:58:50Z</time></trkpt>
<trkpt lat="28.572296" lon="99.827566">
<time>2015-08-06T08:58:51Z</time></trkpt>
<trkpt lat="28.572345" lon="99.827506">
<time>2015-08-06T08:58:52Z</time></trkpt>
<trkpt lat="28.572385" lon="99.827466">
<time>2015-08-06T08:58:53Z</time></trkpt>
<trkpt lat="28.572445" lon="99.827416">
<time>2015-08-06T08:58:54Z</time></trkpt>
<trkpt lat="28.572585" lon="99.827326">
<time>2015-08-06T08:58:55Z</time></trkpt>
<trkpt lat="28.572615" lon="99.827316">
<time>2015-08-06T08:58:56Z</time></trkpt>
<trkpt lat="28.572635" lon="99.827296">
<time>2015-08-06T08:58:57Z</time></trkpt>
<trkpt lat="28.572665" lon="99.827246">
<time>2015-08-06T08:58:58Z</time></trkpt>
<trkpt lat="28.572685" lon="99.827186">
<time>2015-08-06T08:58:59Z</time></trkpt>
<trkpt lat="28.572695" lon="99.827135">
<time>2015-08-06T08:59:00Z</time></trkpt>
<trkpt lat="28.572704" lon="99.827065">
<time>2015-08-06T08:59:01Z</time></trkpt>
<trkpt lat="28.572693" lon="99.826524">
<time>2015-08-06T08:59:02Z</time></trkpt>
<trkpt lat="28.572683" lon="99.826464">
<time>2015-08-06T08:59:03Z</time></trkpt>
<trkpt lat="28.572673" lon="99.826404">
<time>2015-08-06T08:59:04Z</time></trkpt>
<trkpt lat="28.572633" lon="99.826334">
<time>2015-08-06T08:59:05Z</time></trkpt>
<trkpt lat="28.572593" lon="99.826294">
<time>2015-08-06T08:59:06Z</time></trkpt>
<trkpt lat="28.572543" lon="99.826244">
<time>2015-08-06T08:59:07Z</time></trkpt>
<trkpt lat="28.572413" lon="99.826173">
<time>2015-08-06T08:59:08Z</time></trkpt>
<trkpt lat="28.572313" lon="99.826113">
<time>2015-08-06T08:59:09Z</time></trkpt>
<trkpt lat="28.572243" lon="99.826053">
<time>2015-08-06T08:59:10Z</time></trkpt>
<trkpt lat="28.572193" lon="99.826003">
<time>2015-08-06T08:59:11Z</time></trkpt>
<trkpt lat="28.572123" lon="99.825943">
<time>2015-08-06T08:59:12Z</time></trkpt>
<trkpt lat="28.572072" lon="99.825883">
<time>2015-08-06T08:59:13Z</time></trkpt>
<trkpt lat="28.571982" lon="99.825733">
<time>2015-08-06T08:59:14Z</time></trkpt>
<trkpt lat="28.571952" lon="99.825672">
<time>2015-08-06T08:59:15Z</time></trkpt>
<trkpt lat="28.571942" lon="99.825622">
<time>2015-08-06T08:59:16Z</time></trkpt>
<trkpt lat="28.571862" lon="99.825332">
<time>2015-08-06T08:59:17Z</time></trkpt>
<trkpt lat="28.571841" lon="99.825221">
<time>2015-08-06T08:59:18Z</time></trkpt>
<trkpt lat="28.571821" lon="99.825031">
<time>2015-08-06T08:59:19Z</time></trkpt>
<trkpt lat="28.571801" lon="99.824851">
<time>2015-08-06T08:59:20Z</time></trkpt>
<trkpt lat="28.57178" lon="99.82459">
<time>2015-08-06T08:59:21Z</time></trkpt>
<trkpt lat="28.57179" lon="99.82449">
<time>2015-08-06T08:59:22Z</time></trkpt>
<trkpt lat="28.57179" lon="99.82437">
<time>2015-08-06T08:59:23Z</time></trkpt>
<trkpt lat="28.57179" lon="99.824249">
<time>2015-08-06T08:59:24Z</time></trkpt>
<trkpt lat="28.571799" lon="99.824069">
<time>2015-08-06T08:59:25Z</time></trkpt>
<trkpt lat="28.571799" lon="99.824029">
<time>2015-08-06T08:59:26Z</time></trkpt>
<trkpt lat="28.571789" lon="99.823999">
<time>2015-08-06T08:59:27Z</time></trkpt>
<trkpt lat="28.571789" lon="99.823979">
<time>2015-08-06T08:59:28Z</time></trkpt>
<trkpt lat="28.571779" lon="99.823959">
<time>2015-08-06T08:59:29Z</time></trkpt>
<trkpt lat="28.571759" lon="99.823929">
<time>2015-08-06T08:59:30Z</time></trkpt>
<trkpt lat="28.571739" lon="99.823919">
<time>2015-08-06T08:59:31Z</time></trkpt>
<trkpt lat="28.571729" lon="99.823909">
<time>2015-08-06T08:59:32Z</time></trkpt>
<trkpt lat="28.571699" lon="99.823889">
<time>2015-08-06T08:59:33Z</time></trkpt>
<trkpt lat="28.571669" lon="99.823889">
<time>2015-08-06T08:59:34Z</time></trkpt>
<trkpt lat="28.571639" lon="99.823899">
<time>2015-08-06T08:59:35Z</time></trkpt>
<trkpt lat="28.571619" lon="99.823919">
<time>2015-08-06T08:59:36Z</time></trkpt>
<trkpt lat="28.571599" lon="99.823929">
<time>2015-08-06T08:59:37Z</time></trkpt>
<trkpt lat="28.571589" lon="99.823949">
<time>2015-08-06T08:59:38Z</time></trkpt>
<trkpt lat="28.571569" lon="99.824009">
<time>2015-08-06T08:59:39Z</time></trkpt>
<trkpt lat="28.571569" lon="99.824049">
<time>2015-08-06T08:59:40Z</time></trkpt>
<trkpt lat="28.571559" lon="99.824099">
<time>2015-08-06T08:59:41Z</time></trkpt>
<trkpt lat="28.57155" lon="99.824179">
<time>2015-08-06T08:59:42Z</time></trkpt>
<trkpt lat="28.57155" lon="99.82428">
<time>2015-08-06T08:59:43Z</time></trkpt>
<trkpt lat="28.57154" lon="99.82445">
<time>2015-08-06T08:59:44Z</time></trkpt>
<trkpt lat="28.57153" lon="99.82457">
<time>2015-08-06T08:59:45Z</time></trkpt>
<trkpt lat="28.57152" lon="99.82463">
<time>2015-08-06T08:59:46Z</time></trkpt>
<trkpt lat="28.57151" lon="99.82469">
<time>2015-08-06T08:59:47Z</time></trkpt>
<trkpt lat="28.571421" lon="99.824931">
<time>2015-08-06T08:59:48Z</time></trkpt>
<trkpt lat="28.571351" lon="99.825081">
<time>2015-08-06T08:59:49Z</time></trkpt>
<trkpt lat="28.571341" lon="99.825131">
<time>2015-08-06T08:59:50Z</time></trkpt>
<trkpt lat="28.571332" lon="99.825191">
<time>2015-08-06T08:59:51Z</time></trkpt>
<trkpt lat="28.571332" lon="99.825252">
<time>2015-08-06T08:59:52Z</time></trkpt>
<trkpt lat="28.571332" lon="99.825442">
<time>2015-08-06T08:59:53Z</time></trkpt>
<trkpt lat="28.571322" lon="99.825582">
<time>2015-08-06T08:59:54Z</time></trkpt>
<trkpt lat="28.571343" lon="99.825733">
<time>2015-08-06T08:59:55Z</time></trkpt>
<trkpt lat="28.571353" lon="99.825883">
<time>2015-08-06T08:59:56Z</time></trkpt>
<trkpt lat="28.571393" lon="99.826023">
<time>2015-08-06T08:59:57Z</time></trkpt>
<trkpt lat="28.571433" lon="99.826204">
<time>2015-08-06T08:59:58Z</time></trkpt>
<trkpt lat="28.571474" lon="99.826364">
<time>2015-08-06T08:59:59Z</time></trkpt>
<trkpt lat="28.571494" lon="99.826494">
<time>2015-08-06T09:00:00Z</time></trkpt>
<trkpt lat="28.571514" lon="99.826665">
<time>2015-08-06T09:00:01Z</time></trkpt>
<trkpt lat="28.571525" lon="99.827115">
<time>2015-08-06T09:00:02Z</time></trkpt>
<trkpt lat="28.571535" lon="99.827226">
<time>2015-08-06T09:00:03Z</time></trkpt>
<trkpt lat="28.571535" lon="99.827296">
<time>2015-08-06T09:00:04Z</time></trkpt>
<trkpt lat="28.571506" lon="99.827406">
<time>2015-08-06T09:00:05Z</time></trkpt>
<trkpt lat="28.571486" lon="99.827496">
<time>2015-08-06T09:00:06Z</time></trkpt>
<trkpt lat="28.571476" lon="99.827546">
<time>2015-08-06T09:00:07Z</time></trkpt>
<trkpt lat="28.571466" lon="99.827627">
<time>2015-08-06T09:00:08Z</time></trkpt>
<trkpt lat="28.571446" lon="99.827757">
<time>2015-08-06T09:00:09Z</time></trkpt>
<trkpt lat="28.571457" lon="99.827937">
<time>2015-08-06T09:00:10Z</time></trkpt>
<trkpt lat="28.571457" lon="99.828098">
<time>2015-08-06T09:00:11Z</time></trkpt>
<trkpt lat="28.571477" lon="99.828208">
<time>2015-08-06T09:00:12Z</time></trkpt>
<trkpt lat="28.571507" lon="99.828308">
<time>2015-08-06T09:00:13Z</time></trkpt>
<trkpt lat="28.571537" lon="99.828378">
<time>2015-08-06T09:00:14Z</time></trkpt>
<trkpt lat="28.571567" lon="99.828418">
<time>2015-08-06T09:00:15Z</time></trkpt>
<trkpt lat="28.571728" lon="99.828659">
<time>2015-08-06T09:00:16Z</time></trkpt>
<trkpt lat="28.571988" lon="99.829039">
<time>2015-08-06T09:00:17Z</time></trkpt>
<trkpt lat="28.572049" lon="99.82915">
<time>2015-08-06T09:00:18Z</time></trkpt>
<trkpt lat="28.572059" lon="99.8292">
<time>2015-08-06T09:00:19Z</time></trkpt>
<trkpt lat="28.572079" lon="99.82927">
<time>2015-08-06T09:00:20Z</time></trkpt>
<trkpt lat="28.572089" lon="99.82936">
<time>2015-08-06T09:00:21Z</time></trkpt>
<trkpt lat="28.572089" lon="99.82945">
<time>2015-08-06T09:00:22Z</time></trkpt>
<trkpt lat="28.572089" lon="99.82951">
<time>2015-08-06T09:00:23Z</time></trkpt>
<trkpt lat="28.572069" lon="99.829561">
<time>2015-08-06T09:00:24Z</time></trkpt>
<trkpt lat="28.572059" lon="99.829601">
<time>2015-08-06T09:00:25Z</time></trkpt>
<trkpt lat="28.57204" lon="99.829641">
<time>2015-08-06T09:00:26Z</time></trkpt>
<trkpt lat="28.57202" lon="99.829671">
<time>2015-08-06T09:00:27Z</time></trkpt>
<trkpt lat="28.57199" lon="99.829701">
<time>2015-08-06T09:00:28Z</time></trkpt>
<trkpt lat="28.57186" lon="99.829801">
<time>2015-08-06T09:00:29Z</time></trkpt>
<trkpt lat="28.571441" lon="99.830012">
<time>2015-08-06T09:00:30Z</time></trkpt>
<trkpt lat="28.571311" lon="99.830112">
<time>2015-08-06T09:00:31Z</time></trkpt>
<trkpt lat="28.571231" lon="99.830172">
<time>2015-08-06T09:00:32Z</time></trkpt>
<trkpt lat="28.571191" lon="99.830202">
<time>2015-08-06T09:00:33Z</time></trkpt>
<trkpt lat="28.571161" lon="99.830252">
<time>2015-08-06T09:00:34Z</time></trkpt>
<trkpt lat="28.571111" lon="99.830302">
<time>2015-08-06T09:00:35Z</time></trkpt>
<trkpt lat="28.571051" lon="99.830412">
<time>2015-08-06T09:00:36Z</time></trkpt>
<trkpt lat="28.571002" lon="99.830563">
<time>2015-08-06T09:00:37Z</time></trkpt>
<trkpt lat="28.570992" lon="99.830653">
<time>2015-08-06T09:00:38Z</time></trkpt>
<trkpt lat="28.570992" lon="99.830753">
<time>2015-08-06T09:00:39Z</time></trkpt>
<trkpt lat="28.571012" lon="99.830923">
<time>2015-08-06T09:00:40Z</time></trkpt>
<trkpt lat="28.571053" lon="99.831064">
<time>2015-08-06T09:00:41Z</time></trkpt>
<trkpt lat="28.571163" lon="99.831424">
<time>2015-08-06T09:00:42Z</time></trkpt>
<trkpt lat="28.571284" lon="99.831745">
<time>2015-08-06T09:00:43Z</time></trkpt>
<trkpt lat="28.571334" lon="99.831845">
<time>2015-08-06T09:00:44Z</time></trkpt>
<trkpt lat="28.571404" lon="99.831946">
<time>2015-08-06T09:00:45Z</time></trkpt>
<trkpt lat="28.571504" lon="99.832056">
<time>2015-08-06T09:00:46Z</time></trkpt>
<trkpt lat="28.571695" lon="99.832216">
<time>2015-08-06T09:00:47Z</time></trkpt>
<trkpt lat="28.571775" lon="99.832296">
<time>2015-08-06T09:00:48Z</time></trkpt>
<trkpt lat="28.571835" lon="99.832397">
<time>2015-08-06T09:00:49Z</time></trkpt>
<trkpt lat="28.571875" lon="99.832497">
<time>2015-08-06T09:00:50Z</time></trkpt>
<trkpt lat="28.571905" lon="99.832667">
<time>2015-08-06T09:00:51Z</time></trkpt>
<trkpt lat="28.571916" lon="99.832878">
<time>2015-08-06T09:00:52Z</time></trkpt>
<trkpt lat="28.571916" lon="99.833088">
<time>2015-08-06T09:00:53Z</time></trkpt>
<trkpt lat="28.571906" lon="99.833238">
<time>2015-08-06T09:00:54Z</time></trkpt>
<trkpt lat="28.571857" lon="99.833459">
<time>2015-08-06T09:00:55Z</time></trkpt>
<trkpt lat="28.571807" lon="99.833579">
<time>2015-08-06T09:00:56Z</time></trkpt>
<trkpt lat="28.571688" lon="99.83388">
<time>2015-08-06T09:00:57Z</time></trkpt>
<trkpt lat="28.571618" lon="99.83403">
<time>2015-08-06T09:00:58Z</time></trkpt>
<trkpt lat="28.571588" lon="99.83413">
<time>2015-08-06T09:00:59Z</time></trkpt>
<trkpt lat="28.571568" lon="99.83424">
<time>2015-08-06T09:01:00Z</time></trkpt>
<trkpt lat="28.571549" lon="99.834391">
<time>2015-08-06T09:01:01Z</time></trkpt>
<trkpt lat="28.571549" lon="99.834531">
<time>2015-08-06T09:01:02Z</time></trkpt>
<trkpt lat="28.571559" lon="99.834701">
<time>2015-08-06T09:01:03Z</time></trkpt>
<trkpt lat="28.57161" lon="99.835072">
<time>2015-08-06T09:01:04Z</time></trkpt>
<trkpt lat="28.57163" lon="99.835202">
<time>2015-08-06T09:01:05Z</time></trkpt>
<trkpt lat="28.571681" lon="99.835403">
<time>2015-08-06T09:01:06Z</time></trkpt>
<trkpt lat="28.571741" lon="99.835683">
<time>2015-08-06T09:01:07Z</time></trkpt>
<trkpt lat="28.571802" lon="99.835974">
<time>2015-08-06T09:01:08Z</time></trkpt>
<trkpt lat="28.571892" lon="99.836495">
<time>2015-08-06T09:01:09Z</time></trkpt>
<trkpt lat="28.571923" lon="99.836655">
<time>2015-08-06T09:01:10Z</time></trkpt>
<trkpt lat="28.571943" lon="99.836846">
<time>2015-08-06T09:01:11Z</time></trkpt>
<trkpt lat="28.571943" lon="99.836956">
<time>2015-08-06T09:01:12Z</time></trkpt>
<trkpt lat="28.571933" lon="99.837056">
<time>2015-08-06T09:01:13Z</time></trkpt>
<trkpt lat="28.571924" lon="99.837126">
<time>2015-08-06T09:01:14Z</time></trkpt>
<trkpt lat="28.571894" lon="99.837186">
<time>2015-08-06T09:01:15Z</time></trkpt>
<trkpt lat="28.571864" lon="99.837247">
<time>2015-08-06T09:01:16Z</time></trkpt>
<trkpt lat="28.571834" lon="99.837277">
<time>2015-08-06T09:01:17Z</time></trkpt>
<trkpt lat="28.571804" lon="99.837317">
<time>2015-08-06T09:01:18Z</time></trkpt>
<trkpt lat="28.571774" lon="99.837337">
<time>2015-08-06T09:01:19Z</time></trkpt>
<trkpt lat="28.571724" lon="99.837357">
<time>2015-08-06T09:01:20Z</time></trkpt>
<trkpt lat="28.571674" lon="99.837367">
<time>2015-08-06T09:01:21Z</time></trkpt>
<trkpt lat="28.571634" lon="99.837367">
<time>2015-08-06T09:01:22Z</time></trkpt>
<trkpt lat="28.571514" lon="99.837377">
<time>2015-08-06T09:01:23Z</time></trkpt>
<trkpt lat="28.571025" lon="99.837417">
<time>2015-08-06T09:01:24Z</time></trkpt>
<trkpt lat="28.570955" lon="99.837417">
<time>2015-08-06T09:01:25Z</time></trkpt>
<trkpt lat="28.570945" lon="99.837407">
<time>2015-08-06T09:01:26Z</time></trkpt>
<trkpt lat="28.570925" lon="99.837407">
<time>2015-08-06T09:01:27Z</time></trkpt>
<trkpt lat="28.570885" lon="99.837397">
<time>2015-08-06T09:01:28Z</time></trkpt>
<trkpt lat="28.570855" lon="99.837387">
<time>2015-08-06T09:01:29Z</time></trkpt>
<trkpt lat="28.570835" lon="99.837367">
<time>2015-08-06T09:01:30Z</time></trkpt>
<trkpt lat="28.570805" lon="99.837357">
<time>2015-08-06T09:01:31Z</time></trkpt>
<trkpt lat="28.570784" lon="99.837337">
<time>2015-08-06T09:01:32Z</time></trkpt>
<trkpt lat="28.570684" lon="99.837197">
<time>2015-08-06T09:01:33Z</time></trkpt>
<trkpt lat="28.570384" lon="99.836716">
<time>2015-08-06T09:01:34Z</time></trkpt>
<trkpt lat="28.570203" lon="99.836405">
<time>2015-08-06T09:01:35Z</time></trkpt>
<trkpt lat="28.570033" lon="99.836084">
<time>2015-08-06T09:01:36Z</time></trkpt>
<trkpt lat="28.569842" lon="99.835713">
<time>2015-08-06T09:01:37Z</time></trkpt>
<trkpt lat="28.569802" lon="99.835643">
<time>2015-08-06T09:01:38Z</time></trkpt>
<trkpt lat="28.569752" lon="99.835563">
<time>2015-08-06T09:01:39Z</time></trkpt>
<trkpt lat="28.569712" lon="99.835503">
<time>2015-08-06T09:01:40Z</time></trkpt>
<trkpt lat="28.569671" lon="99.835453">
<time>2015-08-06T09:01:41Z</time></trkpt>
<trkpt lat="28.569631" lon="99.835413">
<time>2015-08-06T09:01:42Z</time></trkpt>
<trkpt lat="28.569571" lon="99.835373">
<time>2015-08-06T09:01:43Z</time></trkpt>
<trkpt lat="28.569221" lon="99.835122">
<time>2015-08-06T09:01:44Z</time></trkpt>
<trkpt lat="28.568961" lon="99.834952">
<time>2015-08-06T09:01:45Z</time></trkpt>
<trkpt lat="28.568781" lon="99.834842">
<time>2015-08-06T09:01:46Z</time></trkpt>
<trkpt lat="28.568551" lon="99.834721">
<time>2015-08-06T09:01:47Z</time></trkpt>
<trkpt lat="28.56829" lon="99.834591">
<time>2015-08-06T09:01:48Z</time></trkpt>
<trkpt lat="28.56804" lon="99.834461">
<time>2015-08-06T09:01:49Z</time></trkpt>
<trkpt lat="28.56787" lon="99.834381">
<time>2015-08-06T09:01:50Z</time></trkpt>
<trkpt lat="28.56774" lon="99.834321">
<time>2015-08-06T09:01:51Z</time></trkpt>
<trkpt lat="28.56745" lon="99.83414">
<time>2015-08-06T09:01:52Z</time></trkpt>
<trkpt lat="28.56712" lon="99.83395">
<time>2015-08-06T09:01:53Z</time></trkpt>
<trkpt lat="28.56686" lon="99.83381">
<time>2015-08-06T09:01:54Z</time></trkpt>
<trkpt lat="28.56658" lon="99.833719">
<time>2015-08-06T09:01:55Z</time></trkpt>
<trkpt lat="28.56621" lon="99.833629">
<time>2015-08-06T09:01:56Z</time></trkpt>
<trkpt lat="28.56606" lon="99.833589">
<time>2015-08-06T09:01:57Z</time></trkpt>
<trkpt lat="28.56593" lon="99.833549">
<time>2015-08-06T09:01:58Z</time></trkpt>
<trkpt lat="28.56587" lon="99.833519">
<time>2015-08-06T09:01:59Z</time></trkpt>
<trkpt lat="28.565799" lon="99.833479">
<time>2015-08-06T09:02:00Z</time></trkpt>
<trkpt lat="28.565669" lon="99.833409">
<time>2015-08-06T09:02:01Z</time></trkpt>
<trkpt lat="28.565619" lon="99.833369">
<time>2015-08-06T09:02:02Z</time></trkpt>
<trkpt lat="28.565559" lon="99.833309">
<time>2015-08-06T09:02:03Z</time></trkpt>
<trkpt lat="28.565459" lon="99.833198">
<time>2015-08-06T09:02:04Z</time></trkpt>
<trkpt lat="28.565329" lon="99.833058">
<time>2015-08-06T09:02:05Z</time></trkpt>
<trkpt lat="28.565229" lon="99.832898">
<time>2015-08-06T09:02:06Z</time></trkpt>
<trkpt lat="28.565108" lon="99.832707">
<time>2015-08-06T09:02:07Z</time></trkpt>
<trkpt lat="28.564928" lon="99.832397">
<time>2015-08-06T09:02:08Z</time></trkpt>
<trkpt lat="28.564888" lon="99.832337">
<time>2015-08-06T09:02:09Z</time></trkpt>
<trkpt lat="28.564838" lon="99.832276">
<time>2015-08-06T09:02:10Z</time></trkpt>
<trkpt lat="28.564788" lon="99.832236">
<time>2015-08-06T09:02:11Z</time></trkpt>
<trkpt lat="28.564668" lon="99.832166">
<time>2015-08-06T09:02:12Z</time></trkpt>
<trkpt lat="28.564497" lon="99.832096">
<time>2015-08-06T09:02:13Z</time></trkpt>
<trkpt lat="28.564357" lon="99.832056">
<time>2015-08-06T09:02:14Z</time></trkpt>
<trkpt lat="28.564257" lon="99.831986">
<time>2015-08-06T09:02:15Z</time></trkpt>
<trkpt lat="28.564147" lon="99.831896">
<time>2015-08-06T09:02:16Z</time></trkpt>
<trkpt lat="28.564007" lon="99.831755">
<time>2015-08-06T09:02:17Z</time></trkpt>
<trkpt lat="28.563877" lon="99.831645">
<time>2015-08-06T09:02:18Z</time></trkpt>
<trkpt lat="28.563807" lon="99.831595">
<time>2015-08-06T09:02:19Z</time></trkpt>
<trkpt lat="28.563607" lon="99.831525">
<time>2015-08-06T09:02:20Z</time></trkpt>
<trkpt lat="28.563317" lon="99.831445">
<time>2015-08-06T09:02:21Z</time></trkpt>
<trkpt lat="28.563157" lon="99.831375">
<time>2015-08-06T09:02:22Z</time></trkpt>
<trkpt lat="28.563087" lon="99.831345">
<time>2015-08-06T09:02:23Z</time></trkpt>
<trkpt lat="28.563037" lon="99.831314">
<time>2015-08-06T09:02:24Z</time></trkpt>
<trkpt lat="28.562977" lon="99.831264">
<time>2015-08-06T09:02:25Z</time></trkpt>
<trkpt lat="28.562926" lon="99.831224">
<time>2015-08-06T09:02:26Z</time></trkpt>
<trkpt lat="28.562866" lon="99.831164">
<time>2015-08-06T09:02:27Z</time></trkpt>
<trkpt lat="28.562726" lon="99.830994">
<time>2015-08-06T09:02:28Z</time></trkpt>
<trkpt lat="28.562646" lon="99.830904">
<time>2015-08-06T09:02:29Z</time></trkpt>
<trkpt lat="28.562456" lon="99.830693">
<time>2015-08-06T09:02:30Z</time></trkpt>
<trkpt lat="28.562265" lon="99.830503">
<time>2015-08-06T09:02:31Z</time></trkpt>
<trkpt lat="28.562105" lon="99.830363">
<time>2015-08-06T09:02:32Z</time></trkpt>
<trkpt lat="28.562025" lon="99.830312">
<time>2015-08-06T09:02:33Z</time></trkpt>
<trkpt lat="28.561925" lon="99.830252">
<time>2015-08-06T09:02:34Z</time></trkpt>
<trkpt lat="28.561815" lon="99.830202">
<time>2015-08-06T09:02:35Z</time></trkpt>
<trkpt lat="28.561395" lon="99.830022">
<time>2015-08-06T09:02:36Z</time></trkpt>
<trkpt lat="28.560965" lon="99.829861">
<time>2015-08-06T09:02:37Z</time></trkpt>
<trkpt lat="28.560675" lon="99.829771">
<time>2015-08-06T09:02:38Z</time></trkpt>
<trkpt lat="28.560375" lon="99.829741">
<time>2015-08-06T09:02:39Z</time></trkpt>
<trkpt lat="28.560245" lon="99.829741">
<time>2015-08-06T09:02:40Z</time></trkpt>
<trkpt lat="28.560125" lon="99.829761">
<time>2015-08-06T09:02:41Z</time></trkpt>
<trkpt lat="28.559975" lon="99.829811">
<time>2015-08-06T09:02:42Z</time></trkpt>
<trkpt lat="28.559875" lon="99.829862">
<time>2015-08-06T09:02:43Z</time></trkpt>
<trkpt lat="28.559735" lon="99.829942">
<time>2015-08-06T09:02:44Z</time></trkpt>
<trkpt lat="28.559546" lon="99.830112">
<time>2015-08-06T09:02:45Z</time></trkpt>
<trkpt lat="28.559426" lon="99.830262">
<time>2015-08-06T09:02:46Z</time></trkpt>
<trkpt lat="28.559297" lon="99.830473">
<time>2015-08-06T09:02:47Z</time></trkpt>
<trkpt lat="28.559038" lon="99.831064">
<time>2015-08-06T09:02:48Z</time></trkpt>
<trkpt lat="28.55864" lon="99.831926">
<time>2015-08-06T09:02:49Z</time></trkpt>
<trkpt lat="28.558371" lon="99.832437">
<time>2015-08-06T09:02:50Z</time></trkpt>
<trkpt lat="28.558251" lon="99.832637">
<time>2015-08-06T09:02:51Z</time></trkpt>
<trkpt lat="28.558132" lon="99.832958">
<time>2015-08-06T09:02:52Z</time></trkpt>
<trkpt lat="28.558092" lon="99.833108">
<time>2015-08-06T09:02:53Z</time></trkpt>
<trkpt lat="28.558063" lon="99.833359">
<time>2015-08-06T09:02:54Z</time></trkpt>
<trkpt lat="28.558063" lon="99.833639">
<time>2015-08-06T09:02:55Z</time></trkpt>
<trkpt lat="28.558104" lon="99.83412">
<time>2015-08-06T09:02:56Z</time></trkpt>
<trkpt lat="28.558155" lon="99.834521">
<time>2015-08-06T09:02:57Z</time></trkpt>
<trkpt lat="28.558175" lon="99.834712">
<time>2015-08-06T09:02:58Z</time></trkpt>
<trkpt lat="28.558195" lon="99.834922">
<time>2015-08-06T09:02:59Z</time></trkpt>
<trkpt lat="28.558196" lon="99.835233">
<time>2015-08-06T09:03:00Z</time></trkpt>
<trkpt lat="28.558207" lon="99.835573">
<time>2015-08-06T09:03:01Z</time></trkpt>
<trkpt lat="28.558187" lon="99.835934">
<time>2015-08-06T09:03:02Z</time></trkpt>
<trkpt lat="28.558168" lon="99.836235">
<time>2015-08-06T09:03:03Z</time></trkpt>
<trkpt lat="28.558148" lon="99.836505">
<time>2015-08-06T09:03:04Z</time></trkpt>
<trkpt lat="28.558109" lon="99.836766">
<time>2015-08-06T09:03:05Z</time></trkpt>
<trkpt lat="28.558049" lon="99.837016">
<time>2015-08-06T09:03:06Z</time></trkpt>
<trkpt lat="28.55802" lon="99.837127">
<time>2015-08-06T09:03:07Z</time></trkpt>
<trkpt lat="28.558" lon="99.837167">
<time>2015-08-06T09:03:08Z</time></trkpt>
<trkpt lat="28.55798" lon="99.837197">
<time>2015-08-06T09:03:09Z</time></trkpt>
<trkpt lat="28.55796" lon="99.837227">
<time>2015-08-06T09:03:10Z</time></trkpt>
<trkpt lat="28.55794" lon="99.837237">
<time>2015-08-06T09:03:11Z</time></trkpt>
<trkpt lat="28.55792" lon="99.837257">
<time>2015-08-06T09:03:12Z</time></trkpt>
<trkpt lat="28.55788" lon="99.837267">
<time>2015-08-06T09:03:13Z</time></trkpt>
<trkpt lat="28.5574" lon="99.837367">
<time>2015-08-06T09:03:14Z</time></trkpt>
<trkpt lat="28.55735" lon="99.837377">
<time>2015-08-06T09:03:15Z</time></trkpt>
<trkpt lat="28.55731" lon="99.837377">
<time>2015-08-06T09:03:16Z</time></trkpt>
<trkpt lat="28.55722" lon="99.837377">
<time>2015-08-06T09:03:17Z</time></trkpt>
<trkpt lat="28.55717" lon="99.837367">
<time>2015-08-06T09:03:18Z</time></trkpt>
<trkpt lat="28.55713" lon="99.837347">
<time>2015-08-06T09:03:19Z</time></trkpt>
<trkpt lat="28.5571" lon="99.837327">
<time>2015-08-06T09:03:20Z</time></trkpt>
<trkpt lat="28.55707" lon="99.837307">
<time>2015-08-06T09:03:21Z</time></trkpt>
<trkpt lat="28.55702" lon="99.837267">
<time>2015-08-06T09:03:22Z</time></trkpt>
<trkpt lat="28.55696" lon="99.837207">
<time>2015-08-06T09:03:23Z</time></trkpt>
<trkpt lat="28.5567" lon="99.836876">
<time>2015-08-06T09:03:24Z</time></trkpt>
<trkpt lat="28.556599" lon="99.836736">
<time>2015-08-06T09:03:25Z</time></trkpt>
<trkpt lat="28.556509" lon="99.836636">
<time>2015-08-06T09:03:26Z</time></trkpt>
<trkpt lat="28.556269" lon="99.836385">
<time>2015-08-06T09:03:27Z</time></trkpt>
<trkpt lat="28.555969" lon="99.836145">
<time>2015-08-06T09:03:28Z</time></trkpt>
<trkpt lat="28.555848" lon="99.836055">
<time>2015-08-06T09:03:29Z</time></trkpt>
<trkpt lat="28.555728" lon="99.835954">
<time>2015-08-06T09:03:30Z</time></trkpt>
<trkpt lat="28.555638" lon="99.835864">
<time>2015-08-06T09:03:31Z</time></trkpt>
<trkpt lat="28.555568" lon="99.835754">
<time>2015-08-06T09:03:32Z</time></trkpt>
<trkpt lat="28.555488" lon="99.835614">
<time>2015-08-06T09:03:33Z</time></trkpt>
<trkpt lat="28.555408" lon="99.835443">
<time>2015-08-06T09:03:34Z</time></trkpt>
<trkpt lat="28.554504" lon="99.833499">
<time>2015-08-06T09:03:35Z</time></trkpt>
<trkpt lat="28.554133" lon="99.832758">
<time>2015-08-06T09:03:36Z</time></trkpt>
<trkpt lat="28.553862" lon="99.832237">
<time>2015-08-06T09:03:37Z</time></trkpt>
<trkpt lat="28.55336" lon="99.831204">
<time>2015-08-06T09:03:38Z</time></trkpt>
<trkpt lat="28.55319" lon="99.830744">
<time>2015-08-06T09:03:39Z</time></trkpt>
<trkpt lat="28.552939" lon="99.830092">
<time>2015-08-06T09:03:40Z</time></trkpt>
<trkpt lat="28.552647" lon="99.82927">
<time>2015-08-06T09:03:41Z</time></trkpt>
<trkpt lat="28.552476" lon="99.828789">
<time>2015-08-06T09:03:42Z</time></trkpt>
<trkpt lat="28.552336" lon="99.828509">
<time>2015-08-06T09:03:43Z</time></trkpt>
<trkpt lat="28.552256" lon="99.828429">
<time>2015-08-06T09:03:44Z</time></trkpt>
<trkpt lat="28.552136" lon="99.828318">
<time>2015-08-06T09:03:45Z</time></trkpt>
<trkpt lat="28.551995" lon="99.828268">
<time>2015-08-06T09:03:46Z</time></trkpt>
<trkpt lat="28.551825" lon="99.828248">
<time>2015-08-06T09:03:47Z</time></trkpt>
<trkpt lat="28.551706" lon="99.828258">
<time>2015-08-06T09:03:48Z</time></trkpt>
<trkpt lat="28.551586" lon="99.828278">
<time>2015-08-06T09:03:49Z</time></trkpt>
<trkpt lat="28.551506" lon="99.828308">
<time>2015-08-06T09:03:50Z</time></trkpt>
<trkpt lat="28.551296" lon="99.828379">
<time>2015-08-06T09:03:51Z</time></trkpt>
<trkpt lat="28.550497" lon="99.828769">
<time>2015-08-06T09:03:52Z</time></trkpt>
<trkpt lat="28.550327" lon="99.82884">
<time>2015-08-06T09:03:53Z</time></trkpt>
<trkpt lat="28.550247" lon="99.82886">
<time>2015-08-06T09:03:54Z</time></trkpt>
<trkpt lat="28.550147" lon="99.82888">
<time>2015-08-06T09:03:55Z</time></trkpt>
<trkpt lat="28.550067" lon="99.82889">
<time>2015-08-06T09:03:56Z</time></trkpt>
<trkpt lat="28.549957" lon="99.8289">
<time>2015-08-06T09:03:57Z</time></trkpt>
<trkpt lat="28.549378" lon="99.8289">
<time>2015-08-06T09:03:58Z</time></trkpt>
<trkpt lat="28.549208" lon="99.82889">
<time>2015-08-06T09:03:59Z</time></trkpt>
<trkpt lat="28.549108" lon="99.8289">
<time>2015-08-06T09:04:00Z</time></trkpt>
<trkpt lat="28.549068" lon="99.82891">
<time>2015-08-06T09:04:01Z</time></trkpt>
<trkpt lat="28.549028" lon="99.82893">
<time>2015-08-06T09:04:02Z</time></trkpt>
<trkpt lat="28.548948" lon="99.82897">
<time>2015-08-06T09:04:03Z</time></trkpt>
<trkpt lat="28.548868" lon="99.82902">
<time>2015-08-06T09:04:04Z</time></trkpt>
<trkpt lat="28.548778" lon="99.8291">
<time>2015-08-06T09:04:05Z</time></trkpt>
<trkpt lat="28.548669" lon="99.82921">
<time>2015-08-06T09:04:06Z</time></trkpt>
<trkpt lat="28.548359" lon="99.829611">
<time>2015-08-06T09:04:07Z</time></trkpt>
<trkpt lat="28.547771" lon="99.830463">
<time>2015-08-06T09:04:08Z</time></trkpt>
<trkpt lat="28.547642" lon="99.830653">
<time>2015-08-06T09:04:09Z</time></trkpt>
<trkpt lat="28.547612" lon="99.830754">
<time>2015-08-06T09:04:10Z</time></trkpt>
<trkpt lat="28.547582" lon="99.830844">
<time>2015-08-06T09:04:11Z</time></trkpt>
<trkpt lat="28.547552" lon="99.830934">
<time>2015-08-06T09:04:12Z</time></trkpt>
<trkpt lat="28.547533" lon="99.831084">
<time>2015-08-06T09:04:13Z</time></trkpt>
<trkpt lat="28.547434" lon="99.831636">
<time>2015-08-06T09:04:14Z</time></trkpt>
<trkpt lat="28.547404" lon="99.831826">
<time>2015-08-06T09:04:15Z</time></trkpt>
<trkpt lat="28.547374" lon="99.831956">
<time>2015-08-06T09:04:16Z</time></trkpt>
<trkpt lat="28.547335" lon="99.832096">
<time>2015-08-06T09:04:17Z</time></trkpt>
<trkpt lat="28.547275" lon="99.832197">
<time>2015-08-06T09:04:18Z</time></trkpt>
<trkpt lat="28.547185" lon="99.832327">
<time>2015-08-06T09:04:19Z</time></trkpt>
<trkpt lat="28.547075" lon="99.832447">
<time>2015-08-06T09:04:20Z</time></trkpt>
<trkpt lat="28.547005" lon="99.832497">
<time>2015-08-06T09:04:21Z</time></trkpt>
<trkpt lat="28.546926" lon="99.832537">
<time>2015-08-06T09:04:22Z</time></trkpt>
<trkpt lat="28.546846" lon="99.832547">
<time>2015-08-06T09:04:23Z</time></trkpt>
<trkpt lat="28.546756" lon="99.832537">
<time>2015-08-06T09:04:24Z</time></trkpt>
<trkpt lat="28.546656" lon="99.832527">
<time>2015-08-06T09:04:25Z</time></trkpt>
<trkpt lat="28.546536" lon="99.832477">
<time>2015-08-06T09:04:26Z</time></trkpt>
<trkpt lat="28.546466" lon="99.832447">
<time>2015-08-06T09:04:27Z</time></trkpt>
<trkpt lat="28.546386" lon="99.832397">
<time>2015-08-06T09:04:28Z</time></trkpt>
<trkpt lat="28.546015" lon="99.832127">
<time>2015-08-06T09:04:29Z</time></trkpt>
<trkpt lat="28.545855" lon="99.832006">
<time>2015-08-06T09:04:30Z</time></trkpt>
<trkpt lat="28.545474" lon="99.831636">
<time>2015-08-06T09:04:31Z</time></trkpt>
<trkpt lat="28.545064" lon="99.831195">
<time>2015-08-06T09:04:32Z</time></trkpt>
<trkpt lat="28.544372" lon="99.830323">
<time>2015-08-06T09:04:33Z</time></trkpt>
<trkpt lat="28.544082" lon="99.829922">
<time>2015-08-06T09:04:34Z</time></trkpt>
<trkpt lat="28.543901" lon="99.829611">
<time>2015-08-06T09:04:35Z</time></trkpt>
<trkpt lat="28.543701" lon="99.829261">
<time>2015-08-06T09:04:36Z</time></trkpt>
<trkpt lat="28.54352" lon="99.82896">
<time>2015-08-06T09:04:37Z</time></trkpt>
<trkpt lat="28.54339" lon="99.82881">
<time>2015-08-06T09:04:38Z</time></trkpt>
<trkpt lat="28.54329" lon="99.82871">
<time>2015-08-06T09:04:39Z</time></trkpt>
<trkpt lat="28.54326" lon="99.828689">
<time>2015-08-06T09:04:40Z</time></trkpt>
<trkpt lat="28.54324" lon="99.828679">
<time>2015-08-06T09:04:41Z</time></trkpt>
<trkpt lat="28.5432" lon="99.828659">
<time>2015-08-06T09:04:42Z</time></trkpt>
<trkpt lat="28.54317" lon="99.828649">
<time>2015-08-06T09:04:43Z</time></trkpt>
<trkpt lat="28.54314" lon="99.828649">
<time>2015-08-06T09:04:44Z</time></trkpt>
<trkpt lat="28.54311" lon="99.828649">
<time>2015-08-06T09:04:45Z</time></trkpt>
<trkpt lat="28.54307" lon="99.828649">
<time>2015-08-06T09:04:46Z</time></trkpt>
<trkpt lat="28.54303" lon="99.828669">
<time>2015-08-06T09:04:47Z</time></trkpt>
<trkpt lat="28.54299" lon="99.828679">
<time>2015-08-06T09:04:48Z</time></trkpt>
<trkpt lat="28.54295" lon="99.828699">
<time>2015-08-06T09:04:49Z</time></trkpt>
<trkpt lat="28.54291" lon="99.82873">
<time>2015-08-06T09:04:50Z</time></trkpt>
<trkpt lat="28.54275" lon="99.82882">
<time>2015-08-06T09:04:51Z</time></trkpt>
<trkpt lat="28.54266" lon="99.82891">
<time>2015-08-06T09:04:52Z</time></trkpt>
<trkpt lat="28.542491" lon="99.82905">
<time>2015-08-06T09:04:53Z</time></trkpt>
<trkpt lat="28.541702" lon="99.829591">
<time>2015-08-06T09:04:54Z</time></trkpt>
<trkpt lat="28.541522" lon="99.829692">
<time>2015-08-06T09:04:55Z</time></trkpt>
<trkpt lat="28.541412" lon="99.829742">
<time>2015-08-06T09:04:56Z</time></trkpt>
<trkpt lat="28.541163" lon="99.829812">
<time>2015-08-06T09:04:57Z</time></trkpt>
<trkpt lat="28.540953" lon="99.829852">
<time>2015-08-06T09:04:58Z</time></trkpt>
<trkpt lat="28.540753" lon="99.829882">
<time>2015-08-06T09:04:59Z</time></trkpt>
<trkpt lat="28.540673" lon="99.829902">
<time>2015-08-06T09:05:00Z</time></trkpt>
<trkpt lat="28.540613" lon="99.829902">
<time>2015-08-06T09:05:01Z</time></trkpt>
<trkpt lat="28.540563" lon="99.829902">
<time>2015-08-06T09:05:02Z</time></trkpt>
<trkpt lat="28.540523" lon="99.829902">
<time>2015-08-06T09:05:03Z</time></trkpt>
<trkpt lat="28.540503" lon="99.829902">
<time>2015-08-06T09:05:04Z</time></trkpt>
<trkpt lat="28.540473" lon="99.829892">
<time>2015-08-06T09:05:05Z</time></trkpt>
<trkpt lat="28.540433" lon="99.829872">
<time>2015-08-06T09:05:06Z</time></trkpt>
<trkpt lat="28.540393" lon="99.829842">
<time>2015-08-06T09:05:07Z</time></trkpt>
<trkpt lat="28.540373" lon="99.829812">
<time>2015-08-06T09:05:08Z</time></trkpt>
<trkpt lat="28.540353" lon="99.829782">
<time>2015-08-06T09:05:09Z</time></trkpt>
<trkpt lat="28.540343" lon="99.829752">
<time>2015-08-06T09:05:10Z</time></trkpt>
<trkpt lat="28.540343" lon="99.829722">
<time>2015-08-06T09:05:11Z</time></trkpt>
<trkpt lat="28.540333" lon="99.829692">
<time>2015-08-06T09:05:12Z</time></trkpt>
<trkpt lat="28.540333" lon="99.829662">
<time>2015-08-06T09:05:13Z</time></trkpt>
<trkpt lat="28.540333" lon="99.829632">
<time>2015-08-06T09:05:14Z</time></trkpt>
<trkpt lat="28.540343" lon="99.829601">
<time>2015-08-06T09:05:15Z</time></trkpt>
<trkpt lat="28.540353" lon="99.829571">
<time>2015-08-06T09:05:16Z</time></trkpt>
<trkpt lat="28.540363" lon="99.829541">
<time>2015-08-06T09:05:17Z</time></trkpt>
<trkpt lat="28.540392" lon="99.829521">
<time>2015-08-06T09:05:18Z</time></trkpt>
<trkpt lat="28.540422" lon="99.829491">
<time>2015-08-06T09:05:19Z</time></trkpt>
<trkpt lat="28.540492" lon="99.829441">
<time>2015-08-06T09:05:20Z</time></trkpt>
<trkpt lat="28.540572" lon="99.829401">
<time>2015-08-06T09:05:21Z</time></trkpt>
<trkpt lat="28.540722" lon="99.829351">
<time>2015-08-06T09:05:22Z</time></trkpt>
<trkpt lat="28.541072" lon="99.829251">
<time>2015-08-06T09:05:23Z</time></trkpt>
<trkpt lat="28.541711" lon="99.82901">
<time>2015-08-06T09:05:24Z</time></trkpt>
<trkpt lat="28.542041" lon="99.82882">
<time>2015-08-06T09:05:25Z</time></trkpt>
<trkpt lat="28.54228" lon="99.828629">
<time>2015-08-06T09:05:26Z</time></trkpt>
<trkpt lat="28.54248" lon="99.828439">
<time>2015-08-06T09:05:27Z</time></trkpt>
<trkpt lat="28.542928" lon="99.827938">
<time>2015-08-06T09:05:28Z</time></trkpt>
<trkpt lat="28.542998" lon="99.827878">
<time>2015-08-06T09:05:29Z</time></trkpt>
<trkpt lat="28.543078" lon="99.827818">
<time>2015-08-06T09:05:30Z</time></trkpt>
<trkpt lat="28.543138" lon="99.827778">
<time>2015-08-06T09:05:31Z</time></trkpt>
<trkpt lat="28.543168" lon="99.827758">
<time>2015-08-06T09:05:32Z</time></trkpt>
<trkpt lat="28.543218" lon="99.827737">
<time>2015-08-06T09:05:33Z</time></trkpt>
<trkpt lat="28.543248" lon="99.827727">
<time>2015-08-06T09:05:34Z</time></trkpt>
<trkpt lat="28.543278" lon="99.827717">
<time>2015-08-06T09:05:35Z</time></trkpt>
<trkpt lat="28.543328" lon="99.827717">
<time>2015-08-06T09:05:36Z</time></trkpt>
<trkpt lat="28.543378" lon="99.827727">
<time>2015-08-06T09:05:37Z</time></trkpt>
<trkpt lat="28.543448" lon="99.827737">
<time>2015-08-06T09:05:38Z</time></trkpt>
<trkpt lat="28.543518" lon="99.827758">
<time>2015-08-06T09:05:39Z</time></trkpt>
<trkpt lat="28.543568" lon="99.827778">
<time>2015-08-06T09:05:40Z</time></trkpt>
<trkpt lat="28.543618" lon="99.827798">
<time>2015-08-06T09:05:41Z</time></trkpt>
<trkpt lat="28.543658" lon="99.827828">
<time>2015-08-06T09:05:42Z</time></trkpt>
<trkpt lat="28.543718" lon="99.827868">
<time>2015-08-06T09:05:43Z</time></trkpt>
<trkpt lat="28.543758" lon="99.827908">
<time>2015-08-06T09:05:44Z</time></trkpt>
<trkpt lat="28.543949" lon="99.828168">
<time>2015-08-06T09:05:45Z</time></trkpt>
<trkpt lat="28.544299" lon="99.828569">
<time>2015-08-06T09:05:46Z</time></trkpt>
<trkpt lat="28.54465" lon="99.82905">
<time>2015-08-06T09:05:47Z</time></trkpt>
<trkpt lat="28.544901" lon="99.829471">
<time>2015-08-06T09:05:48Z</time></trkpt>
<trkpt lat="28.545011" lon="99.829671">
<time>2015-08-06T09:05:49Z</time></trkpt>
<trkpt lat="28.545091" lon="99.829802">
<time>2015-08-06T09:05:50Z</time></trkpt>
<trkpt lat="28.545221" lon="99.829982">
<time>2015-08-06T09:05:51Z</time></trkpt>
<trkpt lat="28.545422" lon="99.830173">
<time>2015-08-06T09:05:52Z</time></trkpt>
<trkpt lat="28.545552" lon="99.830283">
<time>2015-08-06T09:05:53Z</time></trkpt>
<trkpt lat="28.545592" lon="99.830313">
<time>2015-08-06T09:05:54Z</time></trkpt>
<trkpt lat="28.545632" lon="99.830343">
<time>2015-08-06T09:05:55Z</time></trkpt>
<trkpt lat="28.545872" lon="99.830473">
<time>2015-08-06T09:05:56Z</time></trkpt>
<trkpt lat="28.546022" lon="99.830543">
<time>2015-08-06T09:05:57Z</time></trkpt>
<trkpt lat="28.546052" lon="99.830563">
<time>2015-08-06T09:05:58Z</time></trkpt>
<trkpt lat="28.546072" lon="99.830563">
<time>2015-08-06T09:05:59Z</time></trkpt>
<trkpt lat="28.546142" lon="99.830583">
<time>2015-08-06T09:06:00Z</time></trkpt>
<trkpt lat="28.546182" lon="99.830583">
<time>2015-08-06T09:06:01Z</time></trkpt>
<trkpt lat="28.546232" lon="99.830583">
<time>2015-08-06T09:06:02Z</time></trkpt>
<trkpt lat="28.546272" lon="99.830583">
<time>2015-08-06T09:06:03Z</time></trkpt>
<trkpt lat="28.546302" lon="99.830573">
<time>2015-08-06T09:06:04Z</time></trkpt>
<trkpt lat="28.546332" lon="99.830553">
<time>2015-08-06T09:06:05Z</time></trkpt>
<trkpt lat="28.546352" lon="99.830533">
<time>2015-08-06T09:06:06Z</time></trkpt>
<trkpt lat="28.546362" lon="99.830523">
<time>2015-08-06T09:06:07Z</time></trkpt>
<trkpt lat="28.546382" lon="99.830493">
<time>2015-08-06T09:06:08Z</time></trkpt>
<trkpt lat="28.546422" lon="99.830413">
<time>2015-08-06T09:06:09Z</time></trkpt>
<trkpt lat="28.546621" lon="99.830002">
<time>2015-08-06T09:06:10Z</time></trkpt>
<trkpt lat="28.546711" lon="99.829852">
<time>2015-08-06T09:06:11Z</time></trkpt>
<trkpt lat="28.54692" lon="99.829501">
<time>2015-08-06T09:06:12Z</time></trkpt>
<trkpt lat="28.547" lon="99.829351">
<time>2015-08-06T09:06:13Z</time></trkpt>
<trkpt lat="28.547019" lon="99.829291">
<time>2015-08-06T09:06:14Z</time></trkpt>
<trkpt lat="28.547029" lon="99.829241">
<time>2015-08-06T09:06:15Z</time></trkpt>
<trkpt lat="28.547039" lon="99.82919">
<time>2015-08-06T09:06:16Z</time></trkpt>
<trkpt lat="28.547049" lon="99.82903">
<time>2015-08-06T09:06:17Z</time></trkpt>
<trkpt lat="28.547069" lon="99.82891">
<time>2015-08-06T09:06:18Z</time></trkpt>
<trkpt lat="28.547088" lon="99.828739">
<time>2015-08-06T09:06:19Z</time></trkpt>
<trkpt lat="28.547118" lon="99.828589">
<time>2015-08-06T09:06:20Z</time></trkpt>
<trkpt lat="28.547158" lon="99.828399">
<time>2015-08-06T09:06:21Z</time></trkpt>
<trkpt lat="28.547317" lon="99.827948">
<time>2015-08-06T09:06:22Z</time></trkpt>
<trkpt lat="28.547376" lon="99.827777">
<time>2015-08-06T09:06:23Z</time></trkpt>
<trkpt lat="28.547446" lon="99.827517">
<time>2015-08-06T09:06:24Z</time></trkpt>
<trkpt lat="28.547466" lon="99.827467">
<time>2015-08-06T09:06:25Z</time></trkpt>
<trkpt lat="28.547476" lon="99.827397">
<time>2015-08-06T09:06:26Z</time></trkpt>
<trkpt lat="28.547495" lon="99.827176">
<time>2015-08-06T09:06:27Z</time></trkpt>
<trkpt lat="28.547505" lon="99.827056">
<time>2015-08-06T09:06:28Z</time></trkpt>
<trkpt lat="28.547495" lon="99.826996">
<time>2015-08-06T09:06:29Z</time></trkpt>
<trkpt lat="28.547495" lon="99.826936">
<time>2015-08-06T09:06:30Z</time></trkpt>
<trkpt lat="28.547424" lon="99.826415">
<time>2015-08-06T09:06:31Z</time></trkpt>
<trkpt lat="28.547424" lon="99.826324">
<time>2015-08-06T09:06:32Z</time></trkpt>
<trkpt lat="28.547423" lon="99.826234">
<time>2015-08-06T09:06:33Z</time></trkpt>
<trkpt lat="28.547433" lon="99.826144">
<time>2015-08-06T09:06:34Z</time></trkpt>
<trkpt lat="28.547443" lon="99.826054">
<time>2015-08-06T09:06:35Z</time></trkpt>
<trkpt lat="28.547463" lon="99.825994">
<time>2015-08-06T09:06:36Z</time></trkpt>
<trkpt lat="28.547483" lon="99.825944">
<time>2015-08-06T09:06:37Z</time></trkpt>
<trkpt lat="28.547503" lon="99.825914">
<time>2015-08-06T09:06:38Z</time></trkpt>
<trkpt lat="28.547543" lon="99.825873">
<time>2015-08-06T09:06:39Z</time></trkpt>
<trkpt lat="28.547573" lon="99.825843">
<time>2015-08-06T09:06:40Z</time></trkpt>
<trkpt lat="28.547623" lon="99.825813">
<time>2015-08-06T09:06:41Z</time></trkpt>
<trkpt lat="28.547643" lon="99.825793">
<time>2015-08-06T09:06:42Z</time></trkpt>
<trkpt lat="28.547673" lon="99.825793">
<time>2015-08-06T09:06:43Z</time></trkpt>
<trkpt lat="28.547733" lon="99.825783">
<time>2015-08-06T09:06:44Z</time></trkpt>
<trkpt lat="28.547802" lon="99.825783">
<time>2015-08-06T09:06:45Z</time></trkpt>
<trkpt lat="28.547882" lon="99.825793">
<time>2015-08-06T09:06:46Z</time></trkpt>
<trkpt lat="28.548012" lon="99.825803">
<time>2015-08-06T09:06:47Z</time></trkpt>
<trkpt lat="28.548112" lon="99.825823">
<time>2015-08-06T09:06:48Z</time></trkpt>
<trkpt lat="28.548342" lon="99.825883">
<time>2015-08-06T09:06:49Z</time></trkpt>
<trkpt lat="28.548573" lon="99.826004">
<time>2015-08-06T09:06:50Z</time></trkpt>
<trkpt lat="28.548903" lon="99.826184">
<time>2015-08-06T09:06:51Z</time></trkpt>
<trkpt lat="28.549033" lon="99.826254">
<time>2015-08-06T09:06:52Z</time></trkpt>
<trkpt lat="28.549183" lon="99.826324">
<time>2015-08-06T09:06:53Z</time></trkpt>
<trkpt lat="28.549393" lon="99.826405">
<time>2015-08-06T09:06:54Z</time></trkpt>
<trkpt lat="28.549423" lon="99.826415">
<time>2015-08-06T09:06:55Z</time></trkpt>
<trkpt lat="28.549473" lon="99.826415">
<time>2015-08-06T09:06:56Z</time></trkpt>
<trkpt lat="28.549583" lon="99.826435">
<time>2015-08-06T09:06:57Z</time></trkpt>
<trkpt lat="28.549683" lon="99.826435">
<time>2015-08-06T09:06:58Z</time></trkpt>
<trkpt lat="28.549763" lon="99.826425">
<time>2015-08-06T09:06:59Z</time></trkpt>
<trkpt lat="28.549793" lon="99.826415">
<time>2015-08-06T09:07:00Z</time></trkpt>
<trkpt lat="28.549883" lon="99.826374">
<time>2015-08-06T09:07:01Z</time></trkpt>
<trkpt lat="28.550013" lon="99.826304">
<time>2015-08-06T09:07:02Z</time></trkpt>
<trkpt lat="28.550132" lon="99.826224">
<time>2015-08-06T09:07:03Z</time></trkpt>
<trkpt lat="28.550581" lon="99.825803">
<time>2015-08-06T09:07:04Z</time></trkpt>
<trkpt lat="28.550641" lon="99.825763">
<time>2015-08-06T09:07:05Z</time></trkpt>
<trkpt lat="28.550691" lon="99.825733">
<time>2015-08-06T09:07:06Z</time></trkpt>
<trkpt lat="28.550741" lon="99.825703">
<time>2015-08-06T09:07:07Z</time></trkpt>
<trkpt lat="28.550801" lon="99.825683">
<time>2015-08-06T09:07:08Z</time></trkpt>
<trkpt lat="28.550861" lon="99.825663">
<time>2015-08-06T09:07:09Z</time></trkpt>
<trkpt lat="28.551031" lon="99.825623">
<time>2015-08-06T09:07:10Z</time></trkpt>
<trkpt lat="28.551291" lon="99.825583">
<time>2015-08-06T09:07:11Z</time></trkpt>
<trkpt lat="28.551601" lon="99.825583">
<time>2015-08-06T09:07:12Z</time></trkpt>
<trkpt lat="28.551651" lon="99.825573">
<time>2015-08-06T09:07:13Z</time></trkpt>
<trkpt lat="28.551701" lon="99.825573">
<time>2015-08-06T09:07:14Z</time></trkpt>
<trkpt lat="28.55176" lon="99.825563">
<time>2015-08-06T09:07:15Z</time></trkpt>
<trkpt lat="28.55181" lon="99.825553">
<time>2015-08-06T09:07:16Z</time></trkpt>
<trkpt lat="28.55186" lon="99.825533">
<time>2015-08-06T09:07:17Z</time></trkpt>
<trkpt lat="28.55198" lon="99.825493">
<time>2015-08-06T09:07:18Z</time></trkpt>
<trkpt lat="28.55213" lon="99.825432">
<time>2015-08-06T09:07:19Z</time></trkpt>
<trkpt lat="28.55235" lon="99.825312">
<time>2015-08-06T09:07:20Z</time></trkpt>
<trkpt lat="28.552649" lon="99.825172">
<time>2015-08-06T09:07:21Z</time></trkpt>
<trkpt lat="28.552819" lon="99.825092">
<time>2015-08-06T09:07:22Z</time></trkpt>
<trkpt lat="28.552879" lon="99.825082">
<time>2015-08-06T09:07:23Z</time></trkpt>
<trkpt lat="28.552949" lon="99.825072">
<time>2015-08-06T09:07:24Z</time></trkpt>
<trkpt lat="28.553059" lon="99.825062">
<time>2015-08-06T09:07:25Z</time></trkpt>
<trkpt lat="28.553179" lon="99.825062">
<time>2015-08-06T09:07:26Z</time></trkpt>
<trkpt lat="28.553249" lon="99.825072">
<time>2015-08-06T09:07:27Z</time></trkpt>
<trkpt lat="28.553329" lon="99.825102">
<time>2015-08-06T09:07:28Z</time></trkpt>
<trkpt lat="28.553379" lon="99.825122">
<time>2015-08-06T09:07:29Z</time></trkpt>
<trkpt lat="28.553419" lon="99.825142">
<time>2015-08-06T09:07:30Z</time></trkpt>
<trkpt lat="28.553459" lon="99.825172">
<time>2015-08-06T09:07:31Z</time></trkpt>
<trkpt lat="28.553499" lon="99.825212">
<time>2015-08-06T09:07:32Z</time></trkpt>
<trkpt lat="28.553549" lon="99.825252">
<time>2015-08-06T09:07:33Z</time></trkpt>
<trkpt lat="28.553579" lon="99.825302">
<time>2015-08-06T09:07:34Z</time></trkpt>
<trkpt lat="28.553659" lon="99.825442">
<time>2015-08-06T09:07:35Z</time></trkpt>
<trkpt lat="28.55371" lon="99.825523">
<time>2015-08-06T09:07:36Z</time></trkpt>
<trkpt lat="28.5538" lon="99.825763">
<time>2015-08-06T09:07:37Z</time></trkpt>
<trkpt lat="28.55385" lon="99.825863">
<time>2015-08-06T09:07:38Z</time></trkpt>
<trkpt lat="28.55391" lon="99.825963">
<time>2015-08-06T09:07:39Z</time></trkpt>
<trkpt lat="28.553981" lon="99.826074">
<time>2015-08-06T09:07:40Z</time></trkpt>
<trkpt lat="28.554161" lon="99.826334">
<time>2015-08-06T09:07:41Z</time></trkpt>
<trkpt lat="28.554231" lon="99.826434">
<time>2015-08-06T09:07:42Z</time></trkpt>
<trkpt lat="28.554301" lon="99.826555">
<time>2015-08-06T09:07:43Z</time></trkpt>
<trkpt lat="28.554341" lon="99.826625">
<time>2015-08-06T09:07:44Z</time></trkpt>
<trkpt lat="28.554382" lon="99.826705">
<time>2015-08-06T09:07:45Z</time></trkpt>
<trkpt lat="28.554442" lon="99.826875">
<time>2015-08-06T09:07:46Z</time></trkpt>
<trkpt lat="28.554512" lon="99.827056">
<time>2015-08-06T09:07:47Z</time></trkpt>
<trkpt lat="28.554532" lon="99.827126">
<time>2015-08-06T09:07:48Z</time></trkpt>
<trkpt lat="28.554552" lon="99.827156">
<time>2015-08-06T09:07:49Z</time></trkpt>
<trkpt lat="28.554562" lon="99.827176">
<time>2015-08-06T09:07:50Z</time></trkpt>
<trkpt lat="28.554572" lon="99.827186">
<time>2015-08-06T09:07:51Z</time></trkpt>
<trkpt lat="28.554592" lon="99.827206">
<time>2015-08-06T09:07:52Z</time></trkpt>
<trkpt lat="28.554622" lon="99.827236">
<time>2015-08-06T09:07:53Z</time></trkpt>
<trkpt lat="28.554662" lon="99.827256">
<time>2015-08-06T09:07:54Z</time></trkpt>
<trkpt lat="28.554702" lon="99.827266">
<time>2015-08-06T09:07:55Z</time></trkpt>
<trkpt lat="28.554732" lon="99.827276">
<time>2015-08-06T09:07:56Z</time></trkpt>
<trkpt lat="28.554752" lon="99.827286">
<time>2015-08-06T09:07:57Z</time></trkpt>
<trkpt lat="28.554772" lon="99.827286">
<time>2015-08-06T09:07:58Z</time></trkpt>
<trkpt lat="28.554792" lon="99.827286">
<time>2015-08-06T09:07:59Z</time></trkpt>
<trkpt lat="28.554842" lon="99.827276">
<time>2015-08-06T09:08:00Z</time></trkpt>
<trkpt lat="28.554892" lon="99.827276">
<time>2015-08-06T09:08:01Z</time></trkpt>
<trkpt lat="28.554912" lon="99.827276">
<time>2015-08-06T09:08:02Z</time></trkpt>
<trkpt lat="28.554922" lon="99.827276">
<time>2015-08-06T09:08:03Z</time></trkpt>
<trkpt lat="28.554952" lon="99.827266">
<time>2015-08-06T09:08:04Z</time></trkpt>
<trkpt lat="28.555042" lon="99.827236">
<time>2015-08-06T09:08:05Z</time></trkpt>
<trkpt lat="28.555352" lon="99.827136">
<time>2015-08-06T09:08:06Z</time></trkpt>
<trkpt lat="28.555402" lon="99.827116">
<time>2015-08-06T09:08:07Z</time></trkpt>
<trkpt lat="28.555452" lon="99.827086">
<time>2015-08-06T09:08:08Z</time></trkpt>
<trkpt lat="28.555502" lon="99.827056">
<time>2015-08-06T09:08:09Z</time></trkpt>
<trkpt lat="28.555552" lon="99.827026">
<time>2015-08-06T09:08:10Z</time></trkpt>
<trkpt lat="28.555592" lon="99.826976">
<time>2015-08-06T09:08:11Z</time></trkpt>
<trkpt lat="28.555611" lon="99.826935">
<time>2015-08-06T09:08:12Z</time></trkpt>
<trkpt lat="28.555631" lon="99.826905">
<time>2015-08-06T09:08:13Z</time></trkpt>
<trkpt lat="28.555651" lon="99.826855">
<time>2015-08-06T09:08:14Z</time></trkpt>
<trkpt lat="28.555661" lon="99.826815">
<time>2015-08-06T09:08:15Z</time></trkpt>
<trkpt lat="28.555661" lon="99.826755">
<time>2015-08-06T09:08:16Z</time></trkpt>
<trkpt lat="28.555661" lon="99.826705">
<time>2015-08-06T09:08:17Z</time></trkpt>
<trkpt lat="28.555651" lon="99.826655">
<time>2015-08-06T09:08:18Z</time></trkpt>
<trkpt lat="28.555641" lon="99.826595">
<time>2015-08-06T09:08:19Z</time></trkpt>
<trkpt lat="28.555611" lon="99.826545">
<time>2015-08-06T09:08:20Z</time></trkpt>
<trkpt lat="28.555551" lon="99.826424">
<time>2015-08-06T09:08:21Z</time></trkpt>
<trkpt lat="28.55547" lon="99.826254">
<time>2015-08-06T09:08:22Z</time></trkpt>
<trkpt lat="28.55539" lon="99.826094">
<time>2015-08-06T09:08:23Z</time></trkpt>
<trkpt lat="28.55535" lon="99.825994">
<time>2015-08-06T09:08:24Z</time></trkpt>
<trkpt lat="28.55533" lon="99.825933">
<time>2015-08-06T09:08:25Z</time></trkpt>
<trkpt lat="28.55531" lon="99.825863">
<time>2015-08-06T09:08:26Z</time></trkpt>
<trkpt lat="28.555289" lon="99.825773">
<time>2015-08-06T09:08:27Z</time></trkpt>
<trkpt lat="28.555279" lon="99.825643">
<time>2015-08-06T09:08:28Z</time></trkpt>
<trkpt lat="28.555279" lon="99.825563">
<time>2015-08-06T09:08:29Z</time></trkpt>
<trkpt lat="28.555279" lon="99.825462">
<time>2015-08-06T09:08:30Z</time></trkpt>
<trkpt lat="28.555289" lon="99.825362">
<time>2015-08-06T09:08:31Z</time></trkpt>
<trkpt lat="28.555308" lon="99.825262">
<time>2015-08-06T09:08:32Z</time></trkpt>
<trkpt lat="28.555328" lon="99.825162">
<time>2015-08-06T09:08:33Z</time></trkpt>
<trkpt lat="28.555388" lon="99.825011">
<time>2015-08-06T09:08:34Z</time></trkpt>
<trkpt lat="28.555418" lon="99.824951">
<time>2015-08-06T09:08:35Z</time></trkpt>
<trkpt lat="28.555458" lon="99.824881">
<time>2015-08-06T09:08:36Z</time></trkpt>
<trkpt lat="28.555498" lon="99.824821">
<time>2015-08-06T09:08:37Z</time></trkpt>
<trkpt lat="28.555527" lon="99.824781">
<time>2015-08-06T09:08:38Z</time></trkpt>
<trkpt lat="28.555557" lon="99.824761">
<time>2015-08-06T09:08:39Z</time></trkpt>
<trkpt lat="28.555607" lon="99.824731">
<time>2015-08-06T09:08:40Z</time></trkpt>
<trkpt lat="28.555647" lon="99.824711">
<time>2015-08-06T09:08:41Z</time></trkpt>
<trkpt lat="28.555677" lon="99.824691">
<time>2015-08-06T09:08:42Z</time></trkpt>
<trkpt lat="28.555747" lon="99.824681">
<time>2015-08-06T09:08:43Z</time></trkpt>
<trkpt lat="28.555797" lon="99.824661">
<time>2015-08-06T09:08:44Z</time></trkpt>
<trkpt lat="28.555857" lon="99.824651">
<time>2015-08-06T09:08:45Z</time></trkpt>
<trkpt lat="28.555887" lon="99.824651">
<time>2015-08-06T09:08:46Z</time></trkpt>
<trkpt lat="28.555927" lon="99.824651">
<time>2015-08-06T09:08:47Z</time></trkpt>
<trkpt lat="28.556017" lon="99.824641">
<time>2015-08-06T09:08:48Z</time></trkpt>
<trkpt lat="28.556197" lon="99.824641">
<time>2015-08-06T09:08:49Z</time></trkpt>
<trkpt lat="28.556467" lon="99.824671">
<time>2015-08-06T09:08:50Z</time></trkpt>
<trkpt lat="28.557467" lon="99.824821">
<time>2015-08-06T09:08:51Z</time></trkpt>
<trkpt lat="28.557527" lon="99.824821">
<time>2015-08-06T09:08:52Z</time></trkpt>
<trkpt lat="28.557597" lon="99.824821">
<time>2015-08-06T09:08:53Z</time></trkpt>
<trkpt lat="28.557647" lon="99.824811">
<time>2015-08-06T09:08:54Z</time></trkpt>
<trkpt lat="28.557697" lon="99.824791">
<time>2015-08-06T09:08:55Z</time></trkpt>
<trkpt lat="28.557746" lon="99.824761">
<time>2015-08-06T09:08:56Z</time></trkpt>
<trkpt lat="28.557776" lon="99.824741">
<time>2015-08-06T09:08:57Z</time></trkpt>
<trkpt lat="28.557806" lon="99.824721">
<time>2015-08-06T09:08:58Z</time></trkpt>
<trkpt lat="28.557826" lon="99.824691">
<time>2015-08-06T09:08:59Z</time></trkpt>
<trkpt lat="28.557836" lon="99.824671">
<time>2015-08-06T09:09:00Z</time></trkpt>
<trkpt lat="28.557856" lon="99.824641">
<time>2015-08-06T09:09:01Z</time></trkpt>
<trkpt lat="28.557856" lon="99.824611">
<time>2015-08-06T09:09:02Z</time></trkpt>
<trkpt lat="28.557866" lon="99.82458">
<time>2015-08-06T09:09:03Z</time></trkpt>
<trkpt lat="28.557866" lon="99.82455">
<time>2015-08-06T09:09:04Z</time></trkpt>
<trkpt lat="28.557866" lon="99.8245">
<time>2015-08-06T09:09:05Z</time></trkpt>
<trkpt lat="28.557865" lon="99.82416">
<time>2015-08-06T09:09:06Z</time></trkpt>
<trkpt lat="28.557855" lon="99.824089">
<time>2015-08-06T09:09:07Z</time></trkpt>
<trkpt lat="28.557855" lon="99.824049">
<time>2015-08-06T09:09:08Z</time></trkpt>
<trkpt lat="28.557845" lon="99.823989">
<time>2015-08-06T09:09:09Z</time></trkpt>
<trkpt lat="28.557835" lon="99.823949">
<time>2015-08-06T09:09:10Z</time></trkpt>
<trkpt lat="28.557815" lon="99.823909">
<time>2015-08-06T09:09:11Z</time></trkpt>
<trkpt lat="28.557795" lon="99.823869">
<time>2015-08-06T09:09:12Z</time></trkpt>
<trkpt lat="28.557755" lon="99.823809">
<time>2015-08-06T09:09:13Z</time></trkpt>
<trkpt lat="28.557705" lon="99.823759">
<time>2015-08-06T09:09:14Z</time></trkpt>
<trkpt lat="28.557645" lon="99.823709">
<time>2015-08-06T09:09:15Z</time></trkpt>
<trkpt lat="28.557444" lon="99.823588">
<time>2015-08-06T09:09:16Z</time></trkpt>
<trkpt lat="28.556084" lon="99.822937">
<time>2015-08-06T09:09:17Z</time></trkpt>
<trkpt lat="28.555814" lon="99.822827">
<time>2015-08-06T09:09:18Z</time></trkpt>
<trkpt lat="28.555614" lon="99.822737">
<time>2015-08-06T09:09:19Z</time></trkpt>
<trkpt lat="28.555353" lon="99.822647">
<time>2015-08-06T09:09:20Z</time></trkpt>
<trkpt lat="28.555043" lon="99.822556">
<time>2015-08-06T09:09:21Z</time></trkpt>
<trkpt lat="28.554833" lon="99.822476">
<time>2015-08-06T09:09:22Z</time></trkpt>
<trkpt lat="28.554703" lon="99.822426">
<time>2015-08-06T09:09:23Z</time></trkpt>
<trkpt lat="28.554623" lon="99.822386">
<time>2015-08-06T09:09:24Z</time></trkpt>
<trkpt lat="28.554433" lon="99.822286">
<time>2015-08-06T09:09:25Z</time></trkpt>
<trkpt lat="28.554283" lon="99.822216">
<time>2015-08-06T09:09:26Z</time></trkpt>
<trkpt lat="28.554233" lon="99.822196">
<time>2015-08-06T09:09:27Z</time></trkpt>
<trkpt lat="28.554193" lon="99.822186">
<time>2015-08-06T09:09:28Z</time></trkpt>
<trkpt lat="28.554123" lon="99.822176">
<time>2015-08-06T09:09:29Z</time></trkpt>
<trkpt lat="28.554063" lon="99.822166">
<time>2015-08-06T09:09:30Z</time></trkpt>
<trkpt lat="28.554033" lon="99.822156">
<time>2015-08-06T09:09:31Z</time></trkpt>
<trkpt lat="28.553993" lon="99.822156">
<time>2015-08-06T09:09:32Z</time></trkpt>
<trkpt lat="28.553513" lon="99.822176">
<time>2015-08-06T09:09:33Z</time></trkpt>
<trkpt lat="28.553004" lon="99.822186">
<time>2015-08-06T09:09:34Z</time></trkpt>
<trkpt lat="28.552764" lon="99.822186">
<time>2015-08-06T09:09:35Z</time></trkpt>
<trkpt lat="28.552644" lon="99.822176">
<time>2015-08-06T09:09:36Z</time></trkpt>
<trkpt lat="28.552514" lon="99.822156">
<time>2015-08-06T09:09:37Z</time></trkpt>
<trkpt lat="28.552214" lon="99.822085">
<time>2015-08-06T09:09:38Z</time></trkpt>
<trkpt lat="28.551834" lon="99.822025">
<time>2015-08-06T09:09:39Z</time></trkpt>
<trkpt lat="28.551514" lon="99.821975">
<time>2015-08-06T09:09:40Z</time></trkpt>
<trkpt lat="28.551354" lon="99.821965">
<time>2015-08-06T09:09:41Z</time></trkpt>
<trkpt lat="28.551234" lon="99.821965">
<time>2015-08-06T09:09:42Z</time></trkpt>
<trkpt lat="28.551074" lon="99.821965">
<time>2015-08-06T09:09:43Z</time></trkpt>
<trkpt lat="28.550764" lon="99.821985">
<time>2015-08-06T09:09:44Z</time></trkpt>
<trkpt lat="28.550304" lon="99.822005">
<time>2015-08-06T09:09:45Z</time></trkpt>
<trkpt lat="28.549905" lon="99.822045">
<time>2015-08-06T09:09:46Z</time></trkpt>
<trkpt lat="28.549345" lon="99.822106">
<time>2015-08-06T09:09:47Z</time></trkpt>
<trkpt lat="28.549255" lon="99.822106">
<time>2015-08-06T09:09:48Z</time></trkpt>
<trkpt lat="28.549185" lon="99.822106">
<time>2015-08-06T09:09:49Z</time></trkpt>
<trkpt lat="28.549145" lon="99.822106">
<time>2015-08-06T09:09:50Z</time></trkpt>
<trkpt lat="28.549115" lon="99.822096">
<time>2015-08-06T09:09:51Z</time></trkpt>
<trkpt lat="28.548965" lon="99.822075">
<time>2015-08-06T09:09:52Z</time></trkpt>
<trkpt lat="28.548915" lon="99.822075">
<time>2015-08-06T09:09:53Z</time></trkpt>
<trkpt lat="28.548855" lon="99.822055">
<time>2015-08-06T09:09:54Z</time></trkpt>
<trkpt lat="28.548705" lon="99.822025">
<time>2015-08-06T09:09:55Z</time></trkpt>
<trkpt lat="28.548665" lon="99.822015">
<time>2015-08-06T09:09:56Z</time></trkpt>
<trkpt lat="28.548635" lon="99.821995">
<time>2015-08-06T09:09:57Z</time></trkpt>
<trkpt lat="28.548485" lon="99.821935">
<time>2015-08-06T09:09:58Z</time></trkpt>
<trkpt lat="28.548185" lon="99.821795">
<time>2015-08-06T09:09:59Z</time></trkpt>
<trkpt lat="28.548025" lon="99.821715">
<time>2015-08-06T09:10:00Z</time></trkpt>
<trkpt lat="28.547965" lon="99.821675">
<time>2015-08-06T09:10:01Z</time></trkpt>
<trkpt lat="28.547895" lon="99.821615">
<time>2015-08-06T09:10:02Z</time></trkpt>
<trkpt lat="28.547845" lon="99.821574">
<time>2015-08-06T09:10:03Z</time></trkpt>
<trkpt lat="28.547805" lon="99.821544">
<time>2015-08-06T09:10:04Z</time></trkpt>
<trkpt lat="28.547704" lon="99.821434">
<time>2015-08-06T09:10:05Z</time></trkpt>
<trkpt lat="28.547664" lon="99.821394">
<time>2015-08-06T09:10:06Z</time></trkpt>
<trkpt lat="28.547634" lon="99.821364">
<time>2015-08-06T09:10:07Z</time></trkpt>
<trkpt lat="28.547604" lon="99.821344">
<time>2015-08-06T09:10:08Z</time></trkpt>
<trkpt lat="28.547564" lon="99.821324">
<time>2015-08-06T09:10:09Z</time></trkpt>
<trkpt lat="28.547534" lon="99.821304">
<time>2015-08-06T09:10:10Z</time></trkpt>
<trkpt lat="28.547444" lon="99.821264">
<time>2015-08-06T09:10:11Z</time></trkpt>
<trkpt lat="28.547324" lon="99.821224">
<time>2015-08-06T09:10:12Z</time></trkpt>
<trkpt lat="28.547124" lon="99.821164">
<time>2015-08-06T09:10:13Z</time></trkpt>
<trkpt lat="28.547014" lon="99.821134">
<time>2015-08-06T09:10:14Z</time></trkpt>
<trkpt lat="28.546884" lon="99.821114">
<time>2015-08-06T09:10:15Z</time></trkpt>
<trkpt lat="28.546834" lon="99.821104">
<time>2015-08-06T09:10:16Z</time></trkpt>
<trkpt lat="28.546794" lon="99.821104">
<time>2015-08-06T09:10:17Z</time></trkpt>
<trkpt lat="28.546724" lon="99.821104">
<time>2015-08-06T09:10:18Z</time></trkpt>
<trkpt lat="28.546674" lon="99.821114">
<time>2015-08-06T09:10:19Z</time></trkpt>
<trkpt lat="28.546644" lon="99.821124">
<time>2015-08-06T09:10:20Z</time></trkpt>
<trkpt lat="28.546614" lon="99.821134">
<time>2015-08-06T09:10:21Z</time></trkpt>
<trkpt lat="28.546604" lon="99.821154">
<time>2015-08-06T09:10:22Z</time></trkpt>
<trkpt lat="28.546584" lon="99.821174">
<time>2015-08-06T09:10:23Z</time></trkpt>
<trkpt lat="28.546584" lon="99.821184">
<time>2015-08-06T09:10:24Z</time></trkpt>
<trkpt lat="28.546574" lon="99.821214">
<time>2015-08-06T09:10:25Z</time></trkpt>
<trkpt lat="28.546584" lon="99.821244">
<time>2015-08-06T09:10:26Z</time></trkpt>
<trkpt lat="28.546584" lon="99.821274">
<time>2015-08-06T09:10:27Z</time></trkpt>
<trkpt lat="28.546595" lon="99.821294">
<time>2015-08-06T09:10:28Z</time></trkpt>
<trkpt lat="28.546615" lon="99.821314">
<time>2015-08-06T09:10:29Z</time></trkpt>
<trkpt lat="28.546625" lon="99.821334">
<time>2015-08-06T09:10:30Z</time></trkpt>
<trkpt lat="28.546645" lon="99.821344">
<time>2015-08-06T09:10:31Z</time></trkpt>
<trkpt lat="28.546655" lon="99.821354">
<time>2015-08-06T09:10:32Z</time></trkpt>
<trkpt lat="28.546695" lon="99.821374">
<time>2015-08-06T09:10:33Z</time></trkpt>
<trkpt lat="28.547145" lon="99.821574">
<time>2015-08-06T09:10:34Z</time></trkpt>
<trkpt lat="28.547295" lon="99.821655">
<time>2015-08-06T09:10:35Z</time></trkpt>
<trkpt lat="28.547355" lon="99.821695">
<time>2015-08-06T09:10:36Z</time></trkpt>
<trkpt lat="28.547395" lon="99.821715">
<time>2015-08-06T09:10:37Z</time></trkpt>
<trkpt lat="28.547465" lon="99.821775">
<time>2015-08-06T09:10:38Z</time></trkpt>
<trkpt lat="28.547525" lon="99.821845">
<time>2015-08-06T09:10:39Z</time></trkpt>
<trkpt lat="28.547545" lon="99.821865">
<time>2015-08-06T09:10:40Z</time></trkpt>
<trkpt lat="28.547565" lon="99.821895">
<time>2015-08-06T09:10:41Z</time></trkpt>
<trkpt lat="28.547565" lon="99.821915">
<time>2015-08-06T09:10:42Z</time></trkpt>
<trkpt lat="28.547575" lon="99.821945">
<time>2015-08-06T09:10:43Z</time></trkpt>
<trkpt lat="28.547575" lon="99.821955">
<time>2015-08-06T09:10:44Z</time></trkpt>
<trkpt lat="28.547575" lon="99.821975">
<time>2015-08-06T09:10:45Z</time></trkpt>
<trkpt lat="28.547575" lon="99.821995">
<time>2015-08-06T09:10:46Z</time></trkpt>
<trkpt lat="28.547565" lon="99.822005">
<time>2015-08-06T09:10:47Z</time></trkpt>
<trkpt lat="28.547566" lon="99.822025">
<time>2015-08-06T09:10:48Z</time></trkpt>
<trkpt lat="28.547556" lon="99.822035">
<time>2015-08-06T09:10:49Z</time></trkpt>
<trkpt lat="28.547546" lon="99.822045">
<time>2015-08-06T09:10:50Z</time></trkpt>
<trkpt lat="28.547526" lon="99.822045">
<time>2015-08-06T09:10:51Z</time></trkpt>
<trkpt lat="28.547516" lon="99.822045">
<time>2015-08-06T09:10:52Z</time></trkpt>
<trkpt lat="28.547486" lon="99.822055">
<time>2015-08-06T09:10:53Z</time></trkpt>
<trkpt lat="28.547466" lon="99.822045">
<time>2015-08-06T09:10:54Z</time></trkpt>
<trkpt lat="28.547446" lon="99.822045">
<time>2015-08-06T09:10:55Z</time></trkpt>
<trkpt lat="28.547416" lon="99.822035">
<time>2015-08-06T09:10:56Z</time></trkpt>
<trkpt lat="28.547366" lon="99.822025">
<time>2015-08-06T09:10:57Z</time></trkpt>
<trkpt lat="28.547316" lon="99.821995">
<time>2015-08-06T09:10:58Z</time></trkpt>
<trkpt lat="28.547255" lon="99.821935">
<time>2015-08-06T09:10:59Z</time></trkpt>
<trkpt lat="28.547175" lon="99.821855">
<time>2015-08-06T09:11:00Z</time></trkpt>
<trkpt lat="28.547155" lon="99.821835">
<time>2015-08-06T09:11:01Z</time></trkpt>
<trkpt lat="28.547125" lon="99.821825">
<time>2015-08-06T09:11:02Z</time></trkpt>
<trkpt lat="28.547065" lon="99.821795">
<time>2015-08-06T09:11:03Z</time></trkpt>
<trkpt lat="28.547025" lon="99.821775">
<time>2015-08-06T09:11:04Z</time></trkpt>
<trkpt lat="28.546975" lon="99.821755">
<time>2015-08-06T09:11:05Z</time></trkpt>
<trkpt lat="28.546935" lon="99.821745">
<time>2015-08-06T09:11:06Z</time></trkpt>
<trkpt lat="28.546875" lon="99.821735">
<time>2015-08-06T09:11:07Z</time></trkpt>
<trkpt lat="28.546745" lon="99.821715">
<time>2015-08-06T09:11:08Z</time></trkpt>
<trkpt lat="28.546595" lon="99.821675">
<time>2015-08-06T09:11:09Z</time></trkpt>
<trkpt lat="28.546515" lon="99.821655">
<time>2015-08-06T09:11:10Z</time></trkpt>
<trkpt lat="28.546455" lon="99.821625">
<time>2015-08-06T09:11:11Z</time></trkpt>
<trkpt lat="28.546325" lon="99.821564">
<time>2015-08-06T09:11:12Z</time></trkpt>
<trkpt lat="28.546225" lon="99.821494">
<time>2015-08-06T09:11:13Z</time></trkpt>
<trkpt lat="28.546175" lon="99.821454">
<time>2015-08-06T09:11:14Z</time></trkpt>
<trkpt lat="28.546085" lon="99.821394">
<time>2015-08-06T09:11:15Z</time></trkpt>
<trkpt lat="28.545654" lon="99.820973">
<time>2015-08-06T09:11:16Z</time></trkpt>
<trkpt lat="28.545244" lon="99.820512">
<time>2015-08-06T09:11:17Z</time></trkpt>
<trkpt lat="28.544893" lon="99.820142">
<time>2015-08-06T09:11:18Z</time></trkpt>
<trkpt lat="28.544643" lon="99.819921">
<time>2015-08-06T09:11:19Z</time></trkpt>
<trkpt lat="28.544412" lon="99.819701">
<time>2015-08-06T09:11:20Z</time></trkpt>
<trkpt lat="28.544052" lon="99.81937">
<time>2015-08-06T09:11:21Z</time></trkpt>
<trkpt lat="28.543912" lon="99.81926">
<time>2015-08-06T09:11:22Z</time></trkpt>
<trkpt lat="28.543752" lon="99.81917">
<time>2015-08-06T09:11:23Z</time></trkpt>
<trkpt lat="28.543612" lon="99.819099">
<time>2015-08-06T09:11:24Z</time></trkpt>
<trkpt lat="28.543492" lon="99.819049">
<time>2015-08-06T09:11:25Z</time></trkpt>
<trkpt lat="28.543242" lon="99.818959">
<time>2015-08-06T09:11:26Z</time></trkpt>
<trkpt lat="28.542631" lon="99.818769">
<time>2015-08-06T09:11:27Z</time></trkpt>
<trkpt lat="28.542231" lon="99.818669">
<time>2015-08-06T09:11:28Z</time></trkpt>
<trkpt lat="28.541851" lon="99.818629">
<time>2015-08-06T09:11:29Z</time></trkpt>
<trkpt lat="28.541482" lon="99.818619">
<time>2015-08-06T09:11:30Z</time></trkpt>
<trkpt lat="28.540262" lon="99.818588">
<time>2015-08-06T09:11:31Z</time></trkpt>
<trkpt lat="28.539982" lon="99.818568">
<time>2015-08-06T09:11:32Z</time></trkpt>
<trkpt lat="28.539792" lon="99.818538">
<time>2015-08-06T09:11:33Z</time></trkpt>
<trkpt lat="28.539622" lon="99.818508">
<time>2015-08-06T09:11:34Z</time></trkpt>
<trkpt lat="28.539352" lon="99.818438">
<time>2015-08-06T09:11:35Z</time></trkpt>
<trkpt lat="28.539142" lon="99.818358">
<time>2015-08-06T09:11:36Z</time></trkpt>
<trkpt lat="28.538772" lon="99.818218">
<time>2015-08-06T09:11:37Z</time></trkpt>
<trkpt lat="28.538592" lon="99.818168">
<time>2015-08-06T09:11:38Z</time></trkpt>
<trkpt lat="28.538482" lon="99.818138">
<time>2015-08-06T09:11:39Z</time></trkpt>
<trkpt lat="28.538322" lon="99.818118">
<time>2015-08-06T09:11:40Z</time></trkpt>
<trkpt lat="28.538162" lon="99.818098">
<time>2015-08-06T09:11:41Z</time></trkpt>
<trkpt lat="28.538032" lon="99.818088">
<time>2015-08-06T09:11:42Z</time></trkpt>
<trkpt lat="28.538012" lon="99.818088">
<time>2015-08-06T09:11:43Z</time></trkpt>
<trkpt lat="28.537992" lon="99.818088">
<time>2015-08-06T09:11:44Z</time></trkpt>
<trkpt lat="28.537982" lon="99.818098">
<time>2015-08-06T09:11:45Z</time></trkpt>
<trkpt lat="28.537962" lon="99.818098">
<time>2015-08-06T09:11:46Z</time></trkpt>
<trkpt lat="28.537952" lon="99.818108">
<time>2015-08-06T09:11:47Z</time></trkpt>
<trkpt lat="28.537922" lon="99.818128">
<time>2015-08-06T09:11:48Z</time></trkpt>
<trkpt lat="28.537762" lon="99.818268">
<time>2015-08-06T09:11:49Z</time></trkpt>
<trkpt lat="28.537673" lon="99.818328">
<time>2015-08-06T09:11:50Z</time></trkpt>
<trkpt lat="28.537503" lon="99.818438">
<time>2015-08-06T09:11:51Z</time></trkpt>
<trkpt lat="28.537413" lon="99.818498">
<time>2015-08-06T09:11:52Z</time></trkpt>
<trkpt lat="28.537323" lon="99.818548">
<time>2015-08-06T09:11:53Z</time></trkpt>
<trkpt lat="28.537233" lon="99.818579">
<time>2015-08-06T09:11:54Z</time></trkpt>
<trkpt lat="28.537183" lon="99.818599">
<time>2015-08-06T09:11:55Z</time></trkpt>
<trkpt lat="28.537133" lon="99.818619">
<time>2015-08-06T09:11:56Z</time></trkpt>
<trkpt lat="28.537033" lon="99.818639">
<time>2015-08-06T09:11:57Z</time></trkpt>
<trkpt lat="28.536704" lon="99.818699">
<time>2015-08-06T09:11:58Z</time></trkpt>
<trkpt lat="28.536554" lon="99.818729">
<time>2015-08-06T09:11:59Z</time></trkpt>
<trkpt lat="28.536394" lon="99.818749">
<time>2015-08-06T09:12:00Z</time></trkpt>
<trkpt lat="28.536174" lon="99.818759">
<time>2015-08-06T09:12:01Z</time></trkpt>
<trkpt lat="28.535904" lon="99.818779">
<time>2015-08-06T09:12:02Z</time></trkpt>
<trkpt lat="28.535674" lon="99.818799">
<time>2015-08-06T09:12:03Z</time></trkpt>
<trkpt lat="28.535404" lon="99.818789">
<time>2015-08-06T09:12:04Z</time></trkpt>
<trkpt lat="28.535214" lon="99.818779">
<time>2015-08-06T09:12:05Z</time></trkpt>
<trkpt lat="28.534964" lon="99.818759">
<time>2015-08-06T09:12:06Z</time></trkpt>
<trkpt lat="28.534774" lon="99.818729">
<time>2015-08-06T09:12:07Z</time></trkpt>
<trkpt lat="28.534534" lon="99.818679">
<time>2015-08-06T09:12:08Z</time></trkpt>
<trkpt lat="28.534384" lon="99.818649">
<time>2015-08-06T09:12:09Z</time></trkpt>
<trkpt lat="28.534274" lon="99.818609">
<time>2015-08-06T09:12:10Z</time></trkpt>
<trkpt lat="28.533934" lon="99.818478">
<time>2015-08-06T09:12:11Z</time></trkpt>
<trkpt lat="28.533744" lon="99.818418">
<time>2015-08-06T09:12:12Z</time></trkpt>
<trkpt lat="28.533574" lon="99.818378">
<time>2015-08-06T09:12:13Z</time></trkpt>
<trkpt lat="28.533404" lon="99.818358">
<time>2015-08-06T09:12:14Z</time></trkpt>
<trkpt lat="28.533094" lon="99.818348">
<time>2015-08-06T09:12:15Z</time></trkpt>
<trkpt lat="28.532844" lon="99.818328">
<time>2015-08-06T09:12:16Z</time></trkpt>
<trkpt lat="28.532365" lon="99.818328">
<time>2015-08-06T09:12:17Z</time></trkpt>
<trkpt lat="28.531415" lon="99.818328">
<time>2015-08-06T09:12:18Z</time></trkpt>
<trkpt lat="28.531165" lon="99.818318">
<time>2015-08-06T09:12:19Z</time></trkpt>
<trkpt lat="28.531095" lon="99.818318">
<time>2015-08-06T09:12:20Z</time></trkpt>
<trkpt lat="28.530995" lon="99.818298">
<time>2015-08-06T09:12:21Z</time></trkpt>
<trkpt lat="28.530635" lon="99.818188">
<time>2015-08-06T09:12:22Z</time></trkpt>
<trkpt lat="28.530455" lon="99.818138">
<time>2015-08-06T09:12:23Z</time></trkpt>
<trkpt lat="28.530365" lon="99.818118">
<time>2015-08-06T09:12:24Z</time></trkpt>
<trkpt lat="28.530335" lon="99.818108">
<time>2015-08-06T09:12:25Z</time></trkpt>
<trkpt lat="28.530285" lon="99.818108">
<time>2015-08-06T09:12:26Z</time></trkpt>
<trkpt lat="28.530125" lon="99.818108">
<time>2015-08-06T09:12:27Z</time></trkpt>
<trkpt lat="28.529865" lon="99.818098">
<time>2015-08-06T09:12:28Z</time></trkpt>
<trkpt lat="28.529735" lon="99.818098">
<time>2015-08-06T09:12:29Z</time></trkpt>
<trkpt lat="28.529615" lon="99.818098">
<time>2015-08-06T09:12:30Z</time></trkpt>
<trkpt lat="28.529565" lon="99.818088">
<time>2015-08-06T09:12:31Z</time></trkpt>
<trkpt lat="28.529515" lon="99.818088">
<time>2015-08-06T09:12:32Z</time></trkpt>
<trkpt lat="28.529395" lon="99.818068">
<time>2015-08-06T09:12:33Z</time></trkpt>
<trkpt lat="28.529345" lon="99.818058">
<time>2015-08-06T09:12:34Z</time></trkpt>
<trkpt lat="28.529305" lon="99.818048">
<time>2015-08-06T09:12:35Z</time></trkpt>
<trkpt lat="28.529205" lon="99.818018">
<time>2015-08-06T09:12:36Z</time></trkpt>
<trkpt lat="28.529155" lon="99.818008">
<time>2015-08-06T09:12:37Z</time></trkpt>
<trkpt lat="28.529105" lon="99.817988">
<time>2015-08-06T09:12:38Z</time></trkpt>
<trkpt lat="28.529055" lon="99.817978">
<time>2015-08-06T09:12:39Z</time></trkpt>
<trkpt lat="28.528885" lon="99.817897">
<time>2015-08-06T09:12:40Z</time></trkpt>
<trkpt lat="28.528725" lon="99.817827">
<time>2015-08-06T09:12:41Z</time></trkpt>
<trkpt lat="28.528555" lon="99.817747">
<time>2015-08-06T09:12:42Z</time></trkpt>
<trkpt lat="28.528465" lon="99.817697">
<time>2015-08-06T09:12:43Z</time></trkpt>
<trkpt lat="28.528355" lon="99.817667">
<time>2015-08-06T09:12:44Z</time></trkpt>
<trkpt lat="28.528155" lon="99.817597">
<time>2015-08-06T09:12:45Z</time></trkpt>
<trkpt lat="28.527925" lon="99.817557">
<time>2015-08-06T09:12:46Z</time></trkpt>
<trkpt lat="28.527745" lon="99.817517">
<time>2015-08-06T09:12:47Z</time></trkpt>
<trkpt lat="28.527265" lon="99.817396">
<time>2015-08-06T09:12:48Z</time></trkpt>
<trkpt lat="28.526795" lon="99.817286">
<time>2015-08-06T09:12:49Z</time></trkpt>
<trkpt lat="28.526435" lon="99.817236">
<time>2015-08-06T09:12:50Z</time></trkpt>
<trkpt lat="28.525805" lon="99.817166">
<time>2015-08-06T09:12:51Z</time></trkpt>
<trkpt lat="28.525655" lon="99.817166">
<time>2015-08-06T09:12:52Z</time></trkpt>
<trkpt lat="28.525495" lon="99.817176">
<time>2015-08-06T09:12:53Z</time></trkpt>
<trkpt lat="28.525175" lon="99.817196">
<time>2015-08-06T09:12:54Z</time></trkpt>
<trkpt lat="28.524875" lon="99.817246">
<time>2015-08-06T09:12:55Z</time></trkpt>
<trkpt lat="28.524546" lon="99.817316">
<time>2015-08-06T09:12:56Z</time></trkpt>
<trkpt lat="28.524146" lon="99.817396">
<time>2015-08-06T09:12:57Z</time></trkpt>
<trkpt lat="28.523576" lon="99.817567">
<time>2015-08-06T09:12:58Z</time></trkpt>
<trkpt lat="28.523237" lon="99.817657">
<time>2015-08-06T09:12:59Z</time></trkpt>
<trkpt lat="28.522977" lon="99.817707">
<time>2015-08-06T09:13:00Z</time></trkpt>
<trkpt lat="28.522687" lon="99.817757">
<time>2015-08-06T09:13:01Z</time></trkpt>
<trkpt lat="28.522427" lon="99.817767">
<time>2015-08-06T09:13:02Z</time></trkpt>
<trkpt lat="28.522027" lon="99.817787">
<time>2015-08-06T09:13:03Z</time></trkpt>
<trkpt lat="28.520168" lon="99.817797">
<time>2015-08-06T09:13:04Z</time></trkpt>
<trkpt lat="28.520038" lon="99.817787">
<time>2015-08-06T09:13:05Z</time></trkpt>
<trkpt lat="28.519718" lon="99.817807">
<time>2015-08-06T09:13:06Z</time></trkpt>
<trkpt lat="28.519049" lon="99.817858">
<time>2015-08-06T09:13:07Z</time></trkpt>
<trkpt lat="28.518679" lon="99.817858">
<time>2015-08-06T09:13:08Z</time></trkpt>
<trkpt lat="28.518349" lon="99.817868">
<time>2015-08-06T09:13:09Z</time></trkpt>
<trkpt lat="28.518209" lon="99.817898">
<time>2015-08-06T09:13:10Z</time></trkpt>
<trkpt lat="28.518029" lon="99.817978">
<time>2015-08-06T09:13:11Z</time></trkpt>
<trkpt lat="28.51785" lon="99.818078">
<time>2015-08-06T09:13:12Z</time></trkpt>
<trkpt lat="28.51769" lon="99.818168">
<time>2015-08-06T09:13:13Z</time></trkpt>
<trkpt lat="28.51752" lon="99.818308">
<time>2015-08-06T09:13:14Z</time></trkpt>
<trkpt lat="28.51745" lon="99.818379">
<time>2015-08-06T09:13:15Z</time></trkpt>
<trkpt lat="28.51737" lon="99.818429">
<time>2015-08-06T09:13:16Z</time></trkpt>
<trkpt lat="28.51726" lon="99.818479">
<time>2015-08-06T09:13:17Z</time></trkpt>
<trkpt lat="28.517151" lon="99.818539">
<time>2015-08-06T09:13:18Z</time></trkpt>
<trkpt lat="28.517011" lon="99.818579">
<time>2015-08-06T09:13:19Z</time></trkpt>
<trkpt lat="28.516941" lon="99.818599">
<time>2015-08-06T09:13:20Z</time></trkpt>
<trkpt lat="28.516871" lon="99.818609">
<time>2015-08-06T09:13:21Z</time></trkpt>
<trkpt lat="28.516761" lon="99.818629">
<time>2015-08-06T09:13:22Z</time></trkpt>
<trkpt lat="28.516641" lon="99.818629">
<time>2015-08-06T09:13:23Z</time></trkpt>
<trkpt lat="28.516531" lon="99.818629">
<time>2015-08-06T09:13:24Z</time></trkpt>
<trkpt lat="28.516461" lon="99.818619">
<time>2015-08-06T09:13:25Z</time></trkpt>
<trkpt lat="28.516371" lon="99.818619">
<time>2015-08-06T09:13:26Z</time></trkpt>
<trkpt lat="28.516261" lon="99.818599">
<time>2015-08-06T09:13:27Z</time></trkpt>
<trkpt lat="28.516071" lon="99.818539">
<time>2015-08-06T09:13:28Z</time></trkpt>
<trkpt lat="28.515811" lon="99.818439">
<time>2015-08-06T09:13:29Z</time></trkpt>
<trkpt lat="28.515511" lon="99.818288">
<time>2015-08-06T09:13:30Z</time></trkpt>
<trkpt lat="28.515421" lon="99.818248">
<time>2015-08-06T09:13:31Z</time></trkpt>
<trkpt lat="28.515331" lon="99.818208">
<time>2015-08-06T09:13:32Z</time></trkpt>
<trkpt lat="28.515231" lon="99.818178">
<time>2015-08-06T09:13:33Z</time></trkpt>
<trkpt lat="28.515131" lon="99.818168">
<time>2015-08-06T09:13:34Z</time></trkpt>
<trkpt lat="28.515011" lon="99.818158">
<time>2015-08-06T09:13:35Z</time></trkpt>
<trkpt lat="28.513681" lon="99.818218">
<time>2015-08-06T09:13:36Z</time></trkpt>
<trkpt lat="28.513481" lon="99.818238">
<time>2015-08-06T09:13:37Z</time></trkpt>
<trkpt lat="28.513291" lon="99.818269">
<time>2015-08-06T09:13:38Z</time></trkpt>
<trkpt lat="28.513122" lon="99.818309">
<time>2015-08-06T09:13:39Z</time></trkpt>
<trkpt lat="28.512952" lon="99.818359">
<time>2015-08-06T09:13:40Z</time></trkpt>
<trkpt lat="28.512732" lon="99.818439">
<time>2015-08-06T09:13:41Z</time></trkpt>
<trkpt lat="28.512582" lon="99.818509">
<time>2015-08-06T09:13:42Z</time></trkpt>
<trkpt lat="28.512462" lon="99.818579">
<time>2015-08-06T09:13:43Z</time></trkpt>
<trkpt lat="28.512073" lon="99.81881">
<time>2015-08-06T09:13:44Z</time></trkpt>
<trkpt lat="28.511684" lon="99.81912">
<time>2015-08-06T09:13:45Z</time></trkpt>
<trkpt lat="28.511025" lon="99.819742">
<time>2015-08-06T09:13:46Z</time></trkpt>
<trkpt lat="28.510576" lon="99.820173">
<time>2015-08-06T09:13:47Z</time></trkpt>
<trkpt lat="28.510446" lon="99.820313">
<time>2015-08-06T09:13:48Z</time></trkpt>
<trkpt lat="28.510337" lon="99.820423">
<time>2015-08-06T09:13:49Z</time></trkpt>
<trkpt lat="28.510187" lon="99.820573">
<time>2015-08-06T09:13:50Z</time></trkpt>
<trkpt lat="28.509907" lon="99.820804">
<time>2015-08-06T09:13:51Z</time></trkpt>
<trkpt lat="28.509568" lon="99.821054">
<time>2015-08-06T09:13:52Z</time></trkpt>
<trkpt lat="28.509288" lon="99.821195">
<time>2015-08-06T09:13:53Z</time></trkpt>
<trkpt lat="28.509119" lon="99.821255">
<time>2015-08-06T09:13:54Z</time></trkpt>
<trkpt lat="28.508979" lon="99.821295">
<time>2015-08-06T09:13:55Z</time></trkpt>
<trkpt lat="28.508709" lon="99.821365">
<time>2015-08-06T09:13:56Z</time></trkpt>
<trkpt lat="28.508469" lon="99.821405">
<time>2015-08-06T09:13:57Z</time></trkpt>
<trkpt lat="28.508219" lon="99.821405">
<time>2015-08-06T09:13:58Z</time></trkpt>
<trkpt lat="28.507939" lon="99.821385">
<time>2015-08-06T09:13:59Z</time></trkpt>
<trkpt lat="28.507709" lon="99.821355">
<time>2015-08-06T09:14:00Z</time></trkpt>
<trkpt lat="28.507309" lon="99.821285">
<time>2015-08-06T09:14:01Z</time></trkpt>
<trkpt lat="28.506909" lon="99.821195">
<time>2015-08-06T09:14:02Z</time></trkpt>
<trkpt lat="28.506819" lon="99.821175">
<time>2015-08-06T09:14:03Z</time></trkpt>
<trkpt lat="28.506699" lon="99.821125">
<time>2015-08-06T09:14:04Z</time></trkpt>
<trkpt lat="28.506449" lon="99.821004">
<time>2015-08-06T09:14:05Z</time></trkpt>
<trkpt lat="28.506189" lon="99.820834">
<time>2015-08-06T09:14:06Z</time></trkpt>
<trkpt lat="28.505929" lon="99.820664">
<time>2015-08-06T09:14:07Z</time></trkpt>
<trkpt lat="28.505728" lon="99.820503">
<time>2015-08-06T09:14:08Z</time></trkpt>
<trkpt lat="28.505418" lon="99.820163">
<time>2015-08-06T09:14:09Z</time></trkpt>
<trkpt lat="28.505197" lon="99.819922">
<time>2015-08-06T09:14:10Z</time></trkpt>
<trkpt lat="28.504977" lon="99.819682">
<time>2015-08-06T09:14:11Z</time></trkpt>
<trkpt lat="28.504707" lon="99.819371">
<time>2015-08-06T09:14:12Z</time></trkpt>
<trkpt lat="28.504556" lon="99.819221">
<time>2015-08-06T09:14:13Z</time></trkpt>
<trkpt lat="28.504326" lon="99.81899">
<time>2015-08-06T09:14:14Z</time></trkpt>
<trkpt lat="28.504176" lon="99.81884">
<time>2015-08-06T09:14:15Z</time></trkpt>
<trkpt lat="28.504076" lon="99.81876">
<time>2015-08-06T09:14:16Z</time></trkpt>
<trkpt lat="28.503966" lon="99.81868">
<time>2015-08-06T09:14:17Z</time></trkpt>
<trkpt lat="28.503845" lon="99.818609">
<time>2015-08-06T09:14:18Z</time></trkpt>
<trkpt lat="28.503745" lon="99.818559">
<time>2015-08-06T09:14:19Z</time></trkpt>
<trkpt lat="28.503645" lon="99.818499">
<time>2015-08-06T09:14:20Z</time></trkpt>
<trkpt lat="28.503415" lon="99.818319">
<time>2015-08-06T09:14:21Z</time></trkpt>
<trkpt lat="28.503295" lon="99.818239">
<time>2015-08-06T09:14:22Z</time></trkpt>
<trkpt lat="28.503175" lon="99.818128">
<time>2015-08-06T09:14:23Z</time></trkpt>
<trkpt lat="28.503004" lon="99.817928">
<time>2015-08-06T09:14:24Z</time></trkpt>
<trkpt lat="28.502744" lon="99.817688">
<time>2015-08-06T09:14:25Z</time></trkpt>
<trkpt lat="28.502624" lon="99.817587">
<time>2015-08-06T09:14:26Z</time></trkpt>
<trkpt lat="28.502464" lon="99.817477">
<time>2015-08-06T09:14:27Z</time></trkpt>
<trkpt lat="28.502364" lon="99.817417">
<time>2015-08-06T09:14:28Z</time></trkpt>
<trkpt lat="28.502224" lon="99.817377">
<time>2015-08-06T09:14:29Z</time></trkpt>
<trkpt lat="28.501994" lon="99.817357">
<time>2015-08-06T09:14:30Z</time></trkpt>
<trkpt lat="28.501394" lon="99.817367">
<time>2015-08-06T09:14:31Z</time></trkpt>
<trkpt lat="28.500744" lon="99.817407">
<time>2015-08-06T09:14:32Z</time></trkpt>
<trkpt lat="28.500034" lon="99.817407">
<time>2015-08-06T09:14:33Z</time></trkpt>
<trkpt lat="28.500024" lon="99.817407">
<time>2015-08-06T09:14:34Z</time></trkpt>
<trkpt lat="28.499954" lon="99.817397">
<time>2015-08-06T09:14:35Z</time></trkpt>
<trkpt lat="28.499825" lon="99.817397">
<time>2015-08-06T09:14:36Z</time></trkpt>
<trkpt lat="28.499735" lon="99.817407">
<time>2015-08-06T09:14:37Z</time></trkpt>
<trkpt lat="28.499665" lon="99.817407">
<time>2015-08-06T09:14:38Z</time></trkpt>
<trkpt lat="28.499575" lon="99.817417">
<time>2015-08-06T09:14:39Z</time></trkpt>
<trkpt lat="28.499505" lon="99.817427">
<time>2015-08-06T09:14:40Z</time></trkpt>
<trkpt lat="28.499375" lon="99.817447">
<time>2015-08-06T09:14:41Z</time></trkpt>
<trkpt lat="28.499305" lon="99.817457">
<time>2015-08-06T09:14:42Z</time></trkpt>
<trkpt lat="28.499255" lon="99.817477">
<time>2015-08-06T09:14:43Z</time></trkpt>
<trkpt lat="28.499185" lon="99.817507">
<time>2015-08-06T09:14:44Z</time></trkpt>
<trkpt lat="28.499015" lon="99.817567">
<time>2015-08-06T09:14:45Z</time></trkpt>
<trkpt lat="28.498785" lon="99.817658">
<time>2015-08-06T09:14:46Z</time></trkpt>
<trkpt lat="28.498705" lon="99.817688">
<time>2015-08-06T09:14:47Z</time></trkpt>
<trkpt lat="28.498636" lon="99.817738">
<time>2015-08-06T09:14:48Z</time></trkpt>
<trkpt lat="28.498526" lon="99.817798">
<time>2015-08-06T09:14:49Z</time></trkpt>
<trkpt lat="28.498176" lon="99.818038">
<time>2015-08-06T09:14:50Z</time></trkpt>
<trkpt lat="28.498106" lon="99.818099">
<time>2015-08-06T09:14:51Z</time></trkpt>
<trkpt lat="28.498017" lon="99.818149">
<time>2015-08-06T09:14:52Z</time></trkpt>
<trkpt lat="28.497927" lon="99.818199">
<time>2015-08-06T09:14:53Z</time></trkpt>
<trkpt lat="28.497327" lon="99.818489">
<time>2015-08-06T09:14:54Z</time></trkpt>
<trkpt lat="28.496948" lon="99.81868">
<time>2015-08-06T09:14:55Z</time></trkpt>
<trkpt lat="28.496409" lon="99.81896">
<time>2015-08-06T09:14:56Z</time></trkpt>
<trkpt lat="28.496139" lon="99.819101">
<time>2015-08-06T09:14:57Z</time></trkpt>
<trkpt lat="28.496079" lon="99.819131">
<time>2015-08-06T09:14:58Z</time></trkpt>
<trkpt lat="28.495989" lon="99.819171">
<time>2015-08-06T09:14:59Z</time></trkpt>
<trkpt lat="28.495919" lon="99.819201">
<time>2015-08-06T09:15:00Z</time></trkpt>
<trkpt lat="28.495779" lon="99.819241">
<time>2015-08-06T09:15:01Z</time></trkpt>
<trkpt lat="28.495689" lon="99.819261">
<time>2015-08-06T09:15:02Z</time></trkpt>
<trkpt lat="28.495649" lon="99.819271">
<time>2015-08-06T09:15:03Z</time></trkpt>
<trkpt lat="28.495609" lon="99.819271">
<time>2015-08-06T09:15:04Z</time></trkpt>
<trkpt lat="28.495569" lon="99.819271">
<time>2015-08-06T09:15:05Z</time></trkpt>
<trkpt lat="28.495499" lon="99.819271">
<time>2015-08-06T09:15:06Z</time></trkpt>
<trkpt lat="28.495429" lon="99.819261">
<time>2015-08-06T09:15:07Z</time></trkpt>
<trkpt lat="28.495359" lon="99.819251">
<time>2015-08-06T09:15:08Z</time></trkpt>
<trkpt lat="28.495319" lon="99.819231">
<time>2015-08-06T09:15:09Z</time></trkpt>
<trkpt lat="28.495189" lon="99.819181">
<time>2015-08-06T09:15:10Z</time></trkpt>
<trkpt lat="28.495019" lon="99.819101">
<time>2015-08-06T09:15:11Z</time></trkpt>
<trkpt lat="28.494919" lon="99.819051">
<time>2015-08-06T09:15:12Z</time></trkpt>
<trkpt lat="28.494789" lon="99.81898">
<time>2015-08-06T09:15:13Z</time></trkpt>
<trkpt lat="28.494019" lon="99.81856">
<time>2015-08-06T09:15:14Z</time></trkpt>
<trkpt lat="28.493418" lon="99.818239">
<time>2015-08-06T09:15:15Z</time></trkpt>
<trkpt lat="28.493048" lon="99.818039">
<time>2015-08-06T09:15:16Z</time></trkpt>
<trkpt lat="28.492848" lon="99.817898">
<time>2015-08-06T09:15:17Z</time></trkpt>
<trkpt lat="28.492578" lon="99.817718">
<time>2015-08-06T09:15:18Z</time></trkpt>
<trkpt lat="28.492007" lon="99.817297">
<time>2015-08-06T09:15:19Z</time></trkpt>
<trkpt lat="28.491576" lon="99.816956">
<time>2015-08-06T09:15:20Z</time></trkpt>
<trkpt lat="28.491316" lon="99.816746">
<time>2015-08-06T09:15:21Z</time></trkpt>
<trkpt lat="28.491006" lon="99.816465">
<time>2015-08-06T09:15:22Z</time></trkpt>
<trkpt lat="28.490715" lon="99.816195">
<time>2015-08-06T09:15:23Z</time></trkpt>
<trkpt lat="28.490215" lon="99.815694">
<time>2015-08-06T09:15:24Z</time></trkpt>
<trkpt lat="28.489584" lon="99.815053">
<time>2015-08-06T09:15:25Z</time></trkpt>
<trkpt lat="28.489143" lon="99.814652">
<time>2015-08-06T09:15:26Z</time></trkpt>
<trkpt lat="28.488803" lon="99.814341">
<time>2015-08-06T09:15:27Z</time></trkpt>
<trkpt lat="28.488702" lon="99.814251">
<time>2015-08-06T09:15:28Z</time></trkpt>
<trkpt lat="28.488622" lon="99.814151">
<time>2015-08-06T09:15:29Z</time></trkpt>
<trkpt lat="28.488422" lon="99.81381">
<time>2015-08-06T09:15:30Z</time></trkpt>
<trkpt lat="28.488161" lon="99.813389">
<time>2015-08-06T09:15:31Z</time></trkpt>
<trkpt lat="28.487991" lon="99.813169">
<time>2015-08-06T09:15:32Z</time></trkpt>
<trkpt lat="28.48778" lon="99.812938">
<time>2015-08-06T09:15:33Z</time></trkpt>
<trkpt lat="28.48763" lon="99.812778">
<time>2015-08-06T09:15:34Z</time></trkpt>
<trkpt lat="28.48741" lon="99.812588">
<time>2015-08-06T09:15:35Z</time></trkpt>
<trkpt lat="28.487019" lon="99.812247">
<time>2015-08-06T09:15:36Z</time></trkpt>
<trkpt lat="28.486649" lon="99.811906">
<time>2015-08-06T09:15:37Z</time></trkpt>
<trkpt lat="28.486238" lon="99.811516">
<time>2015-08-06T09:15:38Z</time></trkpt>
<trkpt lat="28.485948" lon="99.811235">
<time>2015-08-06T09:15:39Z</time></trkpt>
<trkpt lat="28.485587" lon="99.810824">
<time>2015-08-06T09:15:40Z</time></trkpt>
<trkpt lat="28.485407" lon="99.810634">
<time>2015-08-06T09:15:41Z</time></trkpt>
<trkpt lat="28.485207" lon="99.810474">
<time>2015-08-06T09:15:42Z</time></trkpt>
<trkpt lat="28.485037" lon="99.810343">
<time>2015-08-06T09:15:43Z</time></trkpt>
<trkpt lat="28.484896" lon="99.810253">
<time>2015-08-06T09:15:44Z</time></trkpt>
<trkpt lat="28.484776" lon="99.810163">
<time>2015-08-06T09:15:45Z</time></trkpt>
<trkpt lat="28.484696" lon="99.810123">
<time>2015-08-06T09:15:46Z</time></trkpt>
<trkpt lat="28.484546" lon="99.810053">
<time>2015-08-06T09:15:47Z</time></trkpt>
<trkpt lat="28.484236" lon="99.809953">
<time>2015-08-06T09:15:48Z</time></trkpt>
<trkpt lat="28.484166" lon="99.809933">
<time>2015-08-06T09:15:49Z</time></trkpt>
<trkpt lat="28.484126" lon="99.809922">
<time>2015-08-06T09:15:50Z</time></trkpt>
<trkpt lat="28.484096" lon="99.809912">
<time>2015-08-06T09:15:51Z</time></trkpt>
<trkpt lat="28.484046" lon="99.809922">
<time>2015-08-06T09:15:52Z</time></trkpt>
<trkpt lat="28.484016" lon="99.809933">
<time>2015-08-06T09:15:53Z</time></trkpt>
<trkpt lat="28.483926" lon="99.809953">
<time>2015-08-06T09:15:54Z</time></trkpt>
<trkpt lat="28.483407" lon="99.810083">
<time>2015-08-06T09:15:55Z</time></trkpt>
<trkpt lat="28.482807" lon="99.810243">
<time>2015-08-06T09:15:56Z</time></trkpt>
<trkpt lat="28.481498" lon="99.810684">
<time>2015-08-06T09:15:57Z</time></trkpt>
<trkpt lat="28.480579" lon="99.811015">
<time>2015-08-06T09:15:58Z</time></trkpt>
<trkpt lat="28.480289" lon="99.811135">
<time>2015-08-06T09:15:59Z</time></trkpt>
<trkpt lat="28.48008" lon="99.811225">
<time>2015-08-06T09:16:00Z</time></trkpt>
<trkpt lat="28.47999" lon="99.811255">
<time>2015-08-06T09:16:01Z</time></trkpt>
<trkpt lat="28.47991" lon="99.811285">
<time>2015-08-06T09:16:02Z</time></trkpt>
<trkpt lat="28.47987" lon="99.811295">
<time>2015-08-06T09:16:03Z</time></trkpt>
<trkpt lat="28.47983" lon="99.811305">
<time>2015-08-06T09:16:04Z</time></trkpt>
<trkpt lat="28.47974" lon="99.811305">
<time>2015-08-06T09:16:05Z</time></trkpt>
<trkpt lat="28.47961" lon="99.811305">
<time>2015-08-06T09:16:06Z</time></trkpt>
<trkpt lat="28.47904" lon="99.811335">
<time>2015-08-06T09:16:07Z</time></trkpt>
<trkpt lat="28.4789" lon="99.811345">
<time>2015-08-06T09:16:08Z</time></trkpt>
<trkpt lat="28.47884" lon="99.811355">
<time>2015-08-06T09:16:09Z</time></trkpt>
<trkpt lat="28.47879" lon="99.811355">
<time>2015-08-06T09:16:10Z</time></trkpt>
<trkpt lat="28.47875" lon="99.811345">
<time>2015-08-06T09:16:11Z</time></trkpt>
<trkpt lat="28.4787" lon="99.811345">
<time>2015-08-06T09:16:12Z</time></trkpt>
<trkpt lat="28.47863" lon="99.811325">
<time>2015-08-06T09:16:13Z</time></trkpt>
<trkpt lat="28.47847" lon="99.811285">
<time>2015-08-06T09:16:14Z</time></trkpt>
<trkpt lat="28.47832" lon="99.811255">
<time>2015-08-06T09:16:15Z</time></trkpt>
<trkpt lat="28.47824" lon="99.811225">
<time>2015-08-06T09:16:16Z</time></trkpt>
<trkpt lat="28.47819" lon="99.811215">
<time>2015-08-06T09:16:17Z</time></trkpt>
<trkpt lat="28.47813" lon="99.811175">
<time>2015-08-06T09:16:18Z</time></trkpt>
<trkpt lat="28.47805" lon="99.811135">
<time>2015-08-06T09:16:19Z</time></trkpt>
<trkpt lat="28.47773" lon="99.810955">
<time>2015-08-06T09:16:20Z</time></trkpt>
<trkpt lat="28.47749" lon="99.810794">
<time>2015-08-06T09:16:21Z</time></trkpt>
<trkpt lat="28.47742" lon="99.810754">
<time>2015-08-06T09:16:22Z</time></trkpt>
<trkpt lat="28.47735" lon="99.810704">
<time>2015-08-06T09:16:23Z</time></trkpt>
<trkpt lat="28.47731" lon="99.810664">
<time>2015-08-06T09:16:24Z</time></trkpt>
<trkpt lat="28.477229" lon="99.810584">
<time>2015-08-06T09:16:25Z</time></trkpt>
<trkpt lat="28.477089" lon="99.810424">
<time>2015-08-06T09:16:26Z</time></trkpt>
<trkpt lat="28.476729" lon="99.810053">
<time>2015-08-06T09:16:27Z</time></trkpt>
<trkpt lat="28.476358" lon="99.809742">
<time>2015-08-06T09:16:28Z</time></trkpt>
<trkpt lat="28.475818" lon="99.809322">
<time>2015-08-06T09:16:29Z</time></trkpt>
<trkpt lat="28.475808" lon="99.809322">
<time>2015-08-06T09:16:30Z</time></trkpt>
<trkpt lat="28.475507" lon="99.809111">
<time>2015-08-06T09:16:31Z</time></trkpt>
<trkpt lat="28.474947" lon="99.80878">
<time>2015-08-06T09:16:32Z</time></trkpt>
<trkpt lat="28.474727" lon="99.80871">
<time>2015-08-06T09:16:33Z</time></trkpt>
<trkpt lat="28.473787" lon="99.80838">
<time>2015-08-06T09:16:34Z</time></trkpt>
<trkpt lat="28.472666" lon="99.807979">
<time>2015-08-06T09:16:35Z</time></trkpt>
<trkpt lat="28.472456" lon="99.807899">
<time>2015-08-06T09:16:36Z</time></trkpt>
<trkpt lat="28.472246" lon="99.807839">
<time>2015-08-06T09:16:37Z</time></trkpt>
<trkpt lat="28.471766" lon="99.807729">
<time>2015-08-06T09:16:38Z</time></trkpt>
<trkpt lat="28.470406" lon="99.807398">
<time>2015-08-06T09:16:39Z</time></trkpt>
<trkpt lat="28.469966" lon="99.807288">
<time>2015-08-06T09:16:40Z</time></trkpt>
<trkpt lat="28.469326" lon="99.807158">
<time>2015-08-06T09:16:41Z</time></trkpt>
<trkpt lat="28.468876" lon="99.807077">
<time>2015-08-06T09:16:42Z</time></trkpt>
<trkpt lat="28.468656" lon="99.807027">
<time>2015-08-06T09:16:43Z</time></trkpt>
<trkpt lat="28.468486" lon="99.806967">
<time>2015-08-06T09:16:44Z</time></trkpt>
<trkpt lat="28.467835" lon="99.806717">
<time>2015-08-06T09:16:45Z</time></trkpt>
<trkpt lat="28.467455" lon="99.806526">
<time>2015-08-06T09:16:46Z</time></trkpt>
<trkpt lat="28.467055" lon="99.806336">
<time>2015-08-06T09:16:47Z</time></trkpt>
<trkpt lat="28.466715" lon="99.806136">
<time>2015-08-06T09:16:48Z</time></trkpt>
<trkpt lat="28.466515" lon="99.805985">
<time>2015-08-06T09:16:49Z</time></trkpt>
<trkpt lat="28.466354" lon="99.805895">
<time>2015-08-06T09:16:50Z</time></trkpt>
<trkpt lat="28.466214" lon="99.805805">
<time>2015-08-06T09:16:51Z</time></trkpt>
<trkpt lat="28.465884" lon="99.805625">
<time>2015-08-06T09:16:52Z</time></trkpt>
<trkpt lat="28.465684" lon="99.805525">
<time>2015-08-06T09:16:53Z</time></trkpt>
<trkpt lat="28.465524" lon="99.805454">
<time>2015-08-06T09:16:54Z</time></trkpt>
<trkpt lat="28.465424" lon="99.805414">
<time>2015-08-06T09:16:55Z</time></trkpt>
<trkpt lat="28.465314" lon="99.805394">
<time>2015-08-06T09:16:56Z</time></trkpt>
<trkpt lat="28.465224" lon="99.805374">
<time>2015-08-06T09:16:57Z</time></trkpt>
<trkpt lat="28.465104" lon="99.805384">
<time>2015-08-06T09:16:58Z</time></trkpt>
<trkpt lat="28.464944" lon="99.805424">
<time>2015-08-06T09:16:59Z</time></trkpt>
<trkpt lat="28.464594" lon="99.805494">
<time>2015-08-06T09:17:00Z</time></trkpt>
<trkpt lat="28.464284" lon="99.805525">
<time>2015-08-06T09:17:01Z</time></trkpt>
<trkpt lat="28.464194" lon="99.805525">
<time>2015-08-06T09:17:02Z</time></trkpt>
<trkpt lat="28.464134" lon="99.805525">
<time>2015-08-06T09:17:03Z</time></trkpt>
<trkpt lat="28.464064" lon="99.805525">
<time>2015-08-06T09:17:04Z</time></trkpt>
<trkpt lat="28.463994" lon="99.805515">
<time>2015-08-06T09:17:05Z</time></trkpt>
<trkpt lat="28.463864" lon="99.805484">
<time>2015-08-06T09:17:06Z</time></trkpt>
<trkpt lat="28.463744" lon="99.805464">
<time>2015-08-06T09:17:07Z</time></trkpt>
<trkpt lat="28.463654" lon="99.805434">
<time>2015-08-06T09:17:08Z</time></trkpt>
<trkpt lat="28.463574" lon="99.805404">
<time>2015-08-06T09:17:09Z</time></trkpt>
<trkpt lat="28.463184" lon="99.805234">
<time>2015-08-06T09:17:10Z</time></trkpt>
<trkpt lat="28.463064" lon="99.805174">
<time>2015-08-06T09:17:11Z</time></trkpt>
<trkpt lat="28.462984" lon="99.805124">
<time>2015-08-06T09:17:12Z</time></trkpt>
<trkpt lat="28.462934" lon="99.805104">
<time>2015-08-06T09:17:13Z</time></trkpt>
<trkpt lat="28.462884" lon="99.805074">
<time>2015-08-06T09:17:14Z</time></trkpt>
<trkpt lat="28.462824" lon="99.805024">
<time>2015-08-06T09:17:15Z</time></trkpt>
<trkpt lat="28.462414" lon="99.804733">
<time>2015-08-06T09:17:16Z</time></trkpt>
<trkpt lat="28.462293" lon="99.804643">
<time>2015-08-06T09:17:17Z</time></trkpt>
<trkpt lat="28.462203" lon="99.804583">
<time>2015-08-06T09:17:18Z</time></trkpt>
<trkpt lat="28.462113" lon="99.804543">
<time>2015-08-06T09:17:19Z</time></trkpt>
<trkpt lat="28.461663" lon="99.804312">
<time>2015-08-06T09:17:20Z</time></trkpt>
<trkpt lat="28.460833" lon="99.803972">
<time>2015-08-06T09:17:21Z</time></trkpt>
<trkpt lat="28.459602" lon="99.803441">
<time>2015-08-06T09:17:22Z</time></trkpt>
<trkpt lat="28.459512" lon="99.803391">
<time>2015-08-06T09:17:23Z</time></trkpt>
<trkpt lat="28.459402" lon="99.803331">
<time>2015-08-06T09:17:24Z</time></trkpt>
<trkpt lat="28.459302" lon="99.80325">
<time>2015-08-06T09:17:25Z</time></trkpt>
<trkpt lat="28.459182" lon="99.80317">
<time>2015-08-06T09:17:26Z</time></trkpt>
<trkpt lat="28.459082" lon="99.80307">
<time>2015-08-06T09:17:27Z</time></trkpt>
<trkpt lat="28.458972" lon="99.80296">
<time>2015-08-06T09:17:28Z</time></trkpt>
<trkpt lat="28.458821" lon="99.80281">
<time>2015-08-06T09:17:29Z</time></trkpt>
<trkpt lat="28.458711" lon="99.80273">
<time>2015-08-06T09:17:30Z</time></trkpt>
<trkpt lat="28.458541" lon="99.802639">
<time>2015-08-06T09:17:31Z</time></trkpt>
<trkpt lat="28.458311" lon="99.802539">
<time>2015-08-06T09:17:32Z</time></trkpt>
<trkpt lat="28.457781" lon="99.802319">
<time>2015-08-06T09:17:33Z</time></trkpt>
<trkpt lat="28.457681" lon="99.802279">
<time>2015-08-06T09:17:34Z</time></trkpt>
<trkpt lat="28.457601" lon="99.802239">
<time>2015-08-06T09:17:35Z</time></trkpt>
<trkpt lat="28.457521" lon="99.802199">
<time>2015-08-06T09:17:36Z</time></trkpt>
<trkpt lat="28.457441" lon="99.802149">
<time>2015-08-06T09:17:37Z</time></trkpt>
<trkpt lat="28.457341" lon="99.802068">
<time>2015-08-06T09:17:38Z</time></trkpt>
<trkpt lat="28.45715" lon="99.801898">
<time>2015-08-06T09:17:39Z</time></trkpt>
<trkpt lat="28.45671" lon="99.801547">
<time>2015-08-06T09:17:40Z</time></trkpt>
<trkpt lat="28.45639" lon="99.801317">
<time>2015-08-06T09:17:41Z</time></trkpt>
<trkpt lat="28.455279" lon="99.800546">
<time>2015-08-06T09:17:42Z</time></trkpt>
<trkpt lat="28.454598" lon="99.800045">
<time>2015-08-06T09:17:43Z</time></trkpt>
<trkpt lat="28.454538" lon="99.800005">
<time>2015-08-06T09:17:44Z</time></trkpt>
<trkpt lat="28.454508" lon="99.799985">
<time>2015-08-06T09:17:45Z</time></trkpt>
<trkpt lat="28.454478" lon="99.799975">
<time>2015-08-06T09:17:46Z</time></trkpt>
<trkpt lat="28.454418" lon="99.799965">
<time>2015-08-06T09:17:47Z</time></trkpt>
<trkpt lat="28.454258" lon="99.799925">
<time>2015-08-06T09:17:48Z</time></trkpt>
<trkpt lat="28.454178" lon="99.799905">
<time>2015-08-06T09:17:49Z</time></trkpt>
<trkpt lat="28.454108" lon="99.799895">
<time>2015-08-06T09:17:50Z</time></trkpt>
<trkpt lat="28.453778" lon="99.799885">
<time>2015-08-06T09:17:51Z</time></trkpt>
<trkpt lat="28.453388" lon="99.799875">
<time>2015-08-06T09:17:52Z</time></trkpt>
<trkpt lat="28.453348" lon="99.799875">
<time>2015-08-06T09:17:53Z</time></trkpt>
<trkpt lat="28.453328" lon="99.799875">
<time>2015-08-06T09:17:54Z</time></trkpt>
<trkpt lat="28.453308" lon="99.799875">
<time>2015-08-06T09:17:55Z</time></trkpt>
<trkpt lat="28.453298" lon="99.799875">
<time>2015-08-06T09:17:56Z</time></trkpt>
<trkpt lat="28.453288" lon="99.799875">
<time>2015-08-06T09:17:57Z</time></trkpt>
<trkpt lat="28.453278" lon="99.799865">
<time>2015-08-06T09:17:58Z</time></trkpt>
<trkpt lat="28.453268" lon="99.799865">
<time>2015-08-06T09:17:59Z</time></trkpt>
<trkpt lat="28.453238" lon="99.799845">
<time>2015-08-06T09:18:00Z</time></trkpt>
<trkpt lat="28.453188" lon="99.799814">
<time>2015-08-06T09:18:01Z</time></trkpt>
<trkpt lat="28.453008" lon="99.799714">
<time>2015-08-06T09:18:02Z</time></trkpt>
<trkpt lat="28.452658" lon="99.799524">
<time>2015-08-06T09:18:03Z</time></trkpt>
<trkpt lat="28.452317" lon="99.799284">
<time>2015-08-06T09:18:04Z</time></trkpt>
<trkpt lat="28.452167" lon="99.799163">
<time>2015-08-06T09:18:05Z</time></trkpt>
<trkpt lat="28.451907" lon="99.798873">
<time>2015-08-06T09:18:06Z</time></trkpt>
<trkpt lat="28.451767" lon="99.798693">
<time>2015-08-06T09:18:07Z</time></trkpt>
<trkpt lat="28.451526" lon="99.798352">
<time>2015-08-06T09:18:08Z</time></trkpt>
<trkpt lat="28.451406" lon="99.798192">
<time>2015-08-06T09:18:09Z</time></trkpt>
<trkpt lat="28.451246" lon="99.798061">
<time>2015-08-06T09:18:10Z</time></trkpt>
<trkpt lat="28.451126" lon="99.797971">
<time>2015-08-06T09:18:11Z</time></trkpt>
<trkpt lat="28.450956" lon="99.797881">
<time>2015-08-06T09:18:12Z</time></trkpt>
<trkpt lat="28.450685" lon="99.797771">
<time>2015-08-06T09:18:13Z</time></trkpt>
<trkpt lat="28.450495" lon="99.797661">
<time>2015-08-06T09:18:14Z</time></trkpt>
<trkpt lat="28.450155" lon="99.79741">
<time>2015-08-06T09:18:15Z</time></trkpt>
<trkpt lat="28.449855" lon="99.79718">
<time>2015-08-06T09:18:16Z</time></trkpt>
<trkpt lat="28.449634" lon="99.79699">
<time>2015-08-06T09:18:17Z</time></trkpt>
<trkpt lat="28.449224" lon="99.796549">
<time>2015-08-06T09:18:18Z</time></trkpt>
<trkpt lat="28.448703" lon="99.795998">
<time>2015-08-06T09:18:19Z</time></trkpt>
<trkpt lat="28.448383" lon="99.795678">
<time>2015-08-06T09:18:20Z</time></trkpt>
<trkpt lat="28.448273" lon="99.795587">
<time>2015-08-06T09:18:21Z</time></trkpt>
<trkpt lat="28.448203" lon="99.795527">
<time>2015-08-06T09:18:22Z</time></trkpt>
<trkpt lat="28.448113" lon="99.795477">
<time>2015-08-06T09:18:23Z</time></trkpt>
<trkpt lat="28.447302" lon="99.794976">
<time>2015-08-06T09:18:24Z</time></trkpt>
<trkpt lat="28.445941" lon="99.794255">
<time>2015-08-06T09:18:25Z</time></trkpt>
<trkpt lat="28.445301" lon="99.793935">
<time>2015-08-06T09:18:26Z</time></trkpt>
<trkpt lat="28.444561" lon="99.793504">
<time>2015-08-06T09:18:27Z</time></trkpt>
<trkpt lat="28.44395" lon="99.793154">
<time>2015-08-06T09:18:28Z</time></trkpt>
<trkpt lat="28.44356" lon="99.792953">
<time>2015-08-06T09:18:29Z</time></trkpt>
<trkpt lat="28.4427" lon="99.792573">
<time>2015-08-06T09:18:30Z</time></trkpt>
<trkpt lat="28.441429" lon="99.792062">
<time>2015-08-06T09:18:31Z</time></trkpt>
<trkpt lat="28.440939" lon="99.791862">
<time>2015-08-06T09:18:32Z</time></trkpt>
<trkpt lat="28.440539" lon="99.791671">
<time>2015-08-06T09:18:33Z</time></trkpt>
<trkpt lat="28.440099" lon="99.791431">
<time>2015-08-06T09:18:34Z</time></trkpt>
<trkpt lat="28.440009" lon="99.791381">
<time>2015-08-06T09:18:35Z</time></trkpt>
<trkpt lat="28.439939" lon="99.791331">
<time>2015-08-06T09:18:36Z</time></trkpt>
<trkpt lat="28.439788" lon="99.791211">
<time>2015-08-06T09:18:37Z</time></trkpt>
<trkpt lat="28.439768" lon="99.791191">
<time>2015-08-06T09:18:38Z</time></trkpt>
<trkpt lat="28.439728" lon="99.791161">
<time>2015-08-06T09:18:39Z</time></trkpt>
<trkpt lat="28.439688" lon="99.791121">
<time>2015-08-06T09:18:40Z</time></trkpt>
<trkpt lat="28.439668" lon="99.79109">
<time>2015-08-06T09:18:41Z</time></trkpt>
<trkpt lat="28.439638" lon="99.79104">
<time>2015-08-06T09:18:42Z</time></trkpt>
<trkpt lat="28.439598" lon="99.79095">
<time>2015-08-06T09:18:43Z</time></trkpt>
<trkpt lat="28.439428" lon="99.79046">
<time>2015-08-06T09:18:44Z</time></trkpt>
<trkpt lat="28.439196" lon="99.789528">
<time>2015-08-06T09:18:45Z</time></trkpt>
<trkpt lat="28.439056" lon="99.788947">
<time>2015-08-06T09:18:46Z</time></trkpt>
<trkpt lat="28.438965" lon="99.788587">
<time>2015-08-06T09:18:47Z</time></trkpt>
<trkpt lat="28.438935" lon="99.788467">
<time>2015-08-06T09:18:48Z</time></trkpt>
<trkpt lat="28.438915" lon="99.788427">
<time>2015-08-06T09:18:49Z</time></trkpt>
<trkpt lat="28.438895" lon="99.788376">
<time>2015-08-06T09:18:50Z</time></trkpt>
<trkpt lat="28.438865" lon="99.788326">
<time>2015-08-06T09:18:51Z</time></trkpt>
<trkpt lat="28.438825" lon="99.788276">
<time>2015-08-06T09:18:52Z</time></trkpt>
<trkpt lat="28.438775" lon="99.788216">
<time>2015-08-06T09:18:53Z</time></trkpt>
<trkpt lat="28.438705" lon="99.788126">
<time>2015-08-06T09:18:54Z</time></trkpt>
<trkpt lat="28.438684" lon="99.788086">
<time>2015-08-06T09:18:55Z</time></trkpt>
<trkpt lat="28.438654" lon="99.788056">
<time>2015-08-06T09:18:56Z</time></trkpt>
<trkpt lat="28.438604" lon="99.788026">
<time>2015-08-06T09:18:57Z</time></trkpt>
<trkpt lat="28.438534" lon="99.787976">
<time>2015-08-06T09:18:58Z</time></trkpt>
<trkpt lat="28.438364" lon="99.787876">
<time>2015-08-06T09:18:59Z</time></trkpt>
<trkpt lat="28.438244" lon="99.787816">
<time>2015-08-06T09:19:00Z</time></trkpt>
<trkpt lat="28.438174" lon="99.787786">
<time>2015-08-06T09:19:01Z</time></trkpt>
<trkpt lat="28.438064" lon="99.787756">
<time>2015-08-06T09:19:02Z</time></trkpt>
<trkpt lat="28.437674" lon="99.787665">
<time>2015-08-06T09:19:03Z</time></trkpt>
<trkpt lat="28.437224" lon="99.787615">
<time>2015-08-06T09:19:04Z</time></trkpt>
<trkpt lat="28.437054" lon="99.787595">
<time>2015-08-06T09:19:05Z</time></trkpt>
<trkpt lat="28.436984" lon="99.787585">
<time>2015-08-06T09:19:06Z</time></trkpt>
<trkpt lat="28.436934" lon="99.787565">
<time>2015-08-06T09:19:07Z</time></trkpt>
<trkpt lat="28.436884" lon="99.787555">
<time>2015-08-06T09:19:08Z</time></trkpt>
<trkpt lat="28.436854" lon="99.787535">
<time>2015-08-06T09:19:09Z</time></trkpt>
<trkpt lat="28.436814" lon="99.787505">
<time>2015-08-06T09:19:10Z</time></trkpt>
<trkpt lat="28.436584" lon="99.787345">
<time>2015-08-06T09:19:11Z</time></trkpt>
<trkpt lat="28.435183" lon="99.786224">
<time>2015-08-06T09:19:12Z</time></trkpt>
<trkpt lat="28.434442" lon="99.785583">
<time>2015-08-06T09:19:13Z</time></trkpt>
<trkpt lat="28.433662" lon="99.784842">
<time>2015-08-06T09:19:14Z</time></trkpt>
<trkpt lat="28.433081" lon="99.784271">
<time>2015-08-06T09:19:15Z</time></trkpt>
<trkpt lat="28.432691" lon="99.783961">
<time>2015-08-06T09:19:16Z</time></trkpt>
<trkpt lat="28.43229" lon="99.7837">
<time>2015-08-06T09:19:17Z</time></trkpt>
<trkpt lat="28.4316" lon="99.78332">
<time>2015-08-06T09:19:18Z</time></trkpt>
<trkpt lat="28.43121" lon="99.783069">
<time>2015-08-06T09:19:19Z</time></trkpt>
<trkpt lat="28.43074" lon="99.782739">
<time>2015-08-06T09:19:20Z</time></trkpt>
<trkpt lat="28.429989" lon="99.782168">
<time>2015-08-06T09:19:21Z</time></trkpt>
<trkpt lat="28.429619" lon="99.781828">
<time>2015-08-06T09:19:22Z</time></trkpt>
<trkpt lat="28.429339" lon="99.781628">
<time>2015-08-06T09:19:23Z</time></trkpt>
<trkpt lat="28.428979" lon="99.781428">
<time>2015-08-06T09:19:24Z</time></trkpt>
<trkpt lat="28.428488" lon="99.781207">
<time>2015-08-06T09:19:25Z</time></trkpt>
<trkpt lat="28.428298" lon="99.781107">
<time>2015-08-06T09:19:26Z</time></trkpt>
<trkpt lat="28.428138" lon="99.781007">
<time>2015-08-06T09:19:27Z</time></trkpt>
<trkpt lat="28.427968" lon="99.780867">
<time>2015-08-06T09:19:28Z</time></trkpt>
<trkpt lat="28.427738" lon="99.780667">
<time>2015-08-06T09:19:29Z</time></trkpt>
<trkpt lat="28.427108" lon="99.780176">
<time>2015-08-06T09:19:30Z</time></trkpt>
<trkpt lat="28.426928" lon="99.780036">
<time>2015-08-06T09:19:31Z</time></trkpt>
<trkpt lat="28.426727" lon="99.779846">
<time>2015-08-06T09:19:32Z</time></trkpt>
<trkpt lat="28.426347" lon="99.779405">
<time>2015-08-06T09:19:33Z</time></trkpt>
<trkpt lat="28.426027" lon="99.778975">
<time>2015-08-06T09:19:34Z</time></trkpt>
<trkpt lat="28.425866" lon="99.778785">
<time>2015-08-06T09:19:35Z</time></trkpt>
<trkpt lat="28.425806" lon="99.778714">
<time>2015-08-06T09:19:36Z</time></trkpt>
<trkpt lat="28.425746" lon="99.778654">
<time>2015-08-06T09:19:37Z</time></trkpt>
<trkpt lat="28.425666" lon="99.778584">
<time>2015-08-06T09:19:38Z</time></trkpt>
<trkpt lat="28.425536" lon="99.778514">
<time>2015-08-06T09:19:39Z</time></trkpt>
<trkpt lat="28.425216" lon="99.778324">
<time>2015-08-06T09:19:40Z</time></trkpt>
<trkpt lat="28.424676" lon="99.778044">
<time>2015-08-06T09:19:41Z</time></trkpt>
<trkpt lat="28.424286" lon="99.777753">
<time>2015-08-06T09:19:42Z</time></trkpt>
<trkpt lat="28.424216" lon="99.777693">
<time>2015-08-06T09:19:43Z</time></trkpt>
<trkpt lat="28.424136" lon="99.777593">
<time>2015-08-06T09:19:44Z</time></trkpt>
<trkpt lat="28.424005" lon="99.777453">
<time>2015-08-06T09:19:45Z</time></trkpt>
<trkpt lat="28.423255" lon="99.776572">
<time>2015-08-06T09:19:46Z</time></trkpt>
<trkpt lat="28.423055" lon="99.776352">
<time>2015-08-06T09:19:47Z</time></trkpt>
<trkpt lat="28.422975" lon="99.776292">
<time>2015-08-06T09:19:48Z</time></trkpt>
<trkpt lat="28.422905" lon="99.776242">
<time>2015-08-06T09:19:49Z</time></trkpt>
<trkpt lat="28.422634" lon="99.776142">
<time>2015-08-06T09:19:50Z</time></trkpt>
<trkpt lat="28.422304" lon="99.776032">
<time>2015-08-06T09:19:51Z</time></trkpt>
<trkpt lat="28.422224" lon="99.776012">
<time>2015-08-06T09:19:52Z</time></trkpt>
<trkpt lat="28.422144" lon="99.776002">
<time>2015-08-06T09:19:53Z</time></trkpt>
<trkpt lat="28.422044" lon="99.775992">
<time>2015-08-06T09:19:54Z</time></trkpt>
<trkpt lat="28.421765" lon="99.775972">
<time>2015-08-06T09:19:55Z</time></trkpt>
<trkpt lat="28.421675" lon="99.775972">
<time>2015-08-06T09:19:56Z</time></trkpt>
<trkpt lat="28.421585" lon="99.775972">
<time>2015-08-06T09:19:57Z</time></trkpt>
<trkpt lat="28.421515" lon="99.775972">
<time>2015-08-06T09:19:58Z</time></trkpt>
<trkpt lat="28.421465" lon="99.775982">
<time>2015-08-06T09:19:59Z</time></trkpt>
<trkpt lat="28.421385" lon="99.776012">
<time>2015-08-06T09:20:00Z</time></trkpt>
<trkpt lat="28.421275" lon="99.776052">
<time>2015-08-06T09:20:01Z</time></trkpt>
<trkpt lat="28.420895" lon="99.776192">
<time>2015-08-06T09:20:02Z</time></trkpt>
<trkpt lat="28.420445" lon="99.776342">
<time>2015-08-06T09:20:03Z</time></trkpt>
<trkpt lat="28.419826" lon="99.776572">
<time>2015-08-06T09:20:04Z</time></trkpt>
<trkpt lat="28.419646" lon="99.776642">
<time>2015-08-06T09:20:05Z</time></trkpt>
<trkpt lat="28.419576" lon="99.776662">
<time>2015-08-06T09:20:06Z</time></trkpt>
<trkpt lat="28.419536" lon="99.776672">
<time>2015-08-06T09:20:07Z</time></trkpt>
<trkpt lat="28.419456" lon="99.776682">
<time>2015-08-06T09:20:08Z</time></trkpt>
<trkpt lat="28.419366" lon="99.776682">
<time>2015-08-06T09:20:09Z</time></trkpt>
<trkpt lat="28.419216" lon="99.776682">
<time>2015-08-06T09:20:10Z</time></trkpt>
<trkpt lat="28.418386" lon="99.776672">
<time>2015-08-06T09:20:11Z</time></trkpt>
<trkpt lat="28.417796" lon="99.776632">
<time>2015-08-06T09:20:12Z</time></trkpt>
<trkpt lat="28.417726" lon="99.776632">
<time>2015-08-06T09:20:13Z</time></trkpt>
<trkpt lat="28.417696" lon="99.776622">
<time>2015-08-06T09:20:14Z</time></trkpt>
<trkpt lat="28.417666" lon="99.776622">
<time>2015-08-06T09:20:15Z</time></trkpt>
<trkpt lat="28.417636" lon="99.776612">
<time>2015-08-06T09:20:16Z</time></trkpt>
<trkpt lat="28.417616" lon="99.776602">
<time>2015-08-06T09:20:17Z</time></trkpt>
<trkpt lat="28.417586" lon="99.776592">
<time>2015-08-06T09:20:18Z</time></trkpt>
<trkpt lat="28.417496" lon="99.776542">
<time>2015-08-06T09:20:19Z</time></trkpt>
<trkpt lat="28.417436" lon="99.776502">
<time>2015-08-06T09:20:20Z</time></trkpt>
<trkpt lat="28.417396" lon="99.776472">
<time>2015-08-06T09:20:21Z</time></trkpt>
<trkpt lat="28.417356" lon="99.776442">
<time>2015-08-06T09:20:22Z</time></trkpt>
<trkpt lat="28.417286" lon="99.776362">
<time>2015-08-06T09:20:23Z</time></trkpt>
<trkpt lat="28.417026" lon="99.776102">
<time>2015-08-06T09:20:24Z</time></trkpt>
<trkpt lat="28.416976" lon="99.776052">
<time>2015-08-06T09:20:25Z</time></trkpt>
<trkpt lat="28.416946" lon="99.776022">
<time>2015-08-06T09:20:26Z</time></trkpt>
<trkpt lat="28.416886" lon="99.775992">
<time>2015-08-06T09:20:27Z</time></trkpt>
<trkpt lat="28.416846" lon="99.775972">
<time>2015-08-06T09:20:28Z</time></trkpt>
<trkpt lat="28.416816" lon="99.775962">
<time>2015-08-06T09:20:29Z</time></trkpt>
<trkpt lat="28.416696" lon="99.775932">
<time>2015-08-06T09:20:30Z</time></trkpt>
<trkpt lat="28.416686" lon="99.775932">
<time>2015-08-06T09:20:31Z</time></trkpt>
<trkpt lat="28.416676" lon="99.775932">
<time>2015-08-06T09:20:32Z</time></trkpt>
<trkpt lat="28.416606" lon="99.775962">
<time>2015-08-06T09:20:33Z</time></trkpt>
<trkpt lat="28.416076" lon="99.776132">
<time>2015-08-06T09:20:34Z</time></trkpt>
<trkpt lat="28.415936" lon="99.776172">
<time>2015-08-06T09:20:35Z</time></trkpt>
<trkpt lat="28.415856" lon="99.776192">
<time>2015-08-06T09:20:36Z</time></trkpt>
<trkpt lat="28.415736" lon="99.776212">
<time>2015-08-06T09:20:37Z</time></trkpt>
<trkpt lat="28.415636" lon="99.776222">
<time>2015-08-06T09:20:38Z</time></trkpt>
<trkpt lat="28.415586" lon="99.776232">
<time>2015-08-06T09:20:39Z</time></trkpt>
<trkpt lat="28.415546" lon="99.776232">
<time>2015-08-06T09:20:40Z</time></trkpt>
<trkpt lat="28.415506" lon="99.776222">
<time>2015-08-06T09:20:41Z</time></trkpt>
<trkpt lat="28.415456" lon="99.776222">
<time>2015-08-06T09:20:42Z</time></trkpt>
<trkpt lat="28.415386" lon="99.776212">
<time>2015-08-06T09:20:43Z</time></trkpt>
<trkpt lat="28.415206" lon="99.776182">
<time>2015-08-06T09:20:44Z</time></trkpt>
<trkpt lat="28.414776" lon="99.776102">
<time>2015-08-06T09:20:45Z</time></trkpt>
<trkpt lat="28.414366" lon="99.776012">
<time>2015-08-06T09:20:46Z</time></trkpt>
<trkpt lat="28.414236" lon="99.775982">
<time>2015-08-06T09:20:47Z</time></trkpt>
<trkpt lat="28.413996" lon="99.775962">
<time>2015-08-06T09:20:48Z</time></trkpt>
<trkpt lat="28.413526" lon="99.775932">
<time>2015-08-06T09:20:49Z</time></trkpt>
<trkpt lat="28.413086" lon="99.775902">
<time>2015-08-06T09:20:50Z</time></trkpt>
<trkpt lat="28.412456" lon="99.775852">
<time>2015-08-06T09:20:51Z</time></trkpt>
<trkpt lat="28.412256" lon="99.775832">
<time>2015-08-06T09:20:52Z</time></trkpt>
<trkpt lat="28.412166" lon="99.775822">
<time>2015-08-06T09:20:53Z</time></trkpt>
<trkpt lat="28.412116" lon="99.775802">
<time>2015-08-06T09:20:54Z</time></trkpt>
<trkpt lat="28.411526" lon="99.775622">
<time>2015-08-06T09:20:55Z</time></trkpt>
<trkpt lat="28.411256" lon="99.775531">
<time>2015-08-06T09:20:56Z</time></trkpt>
<trkpt lat="28.411156" lon="99.775491">
<time>2015-08-06T09:20:57Z</time></trkpt>
<trkpt lat="28.411056" lon="99.775451">
<time>2015-08-06T09:20:58Z</time></trkpt>
<trkpt lat="28.410886" lon="99.775381">
<time>2015-08-06T09:20:59Z</time></trkpt>
<trkpt lat="28.410516" lon="99.775221">
<time>2015-08-06T09:21:00Z</time></trkpt>
<trkpt lat="28.410436" lon="99.775191">
<time>2015-08-06T09:21:01Z</time></trkpt>
<trkpt lat="28.410366" lon="99.775171">
<time>2015-08-06T09:21:02Z</time></trkpt>
<trkpt lat="28.410316" lon="99.775161">
<time>2015-08-06T09:21:03Z</time></trkpt>
<trkpt lat="28.410266" lon="99.775161">
<time>2015-08-06T09:21:04Z</time></trkpt>
<trkpt lat="28.410166" lon="99.775161">
<time>2015-08-06T09:21:05Z</time></trkpt>
<trkpt lat="28.410096" lon="99.775171">
<time>2015-08-06T09:21:06Z</time></trkpt>
<trkpt lat="28.410016" lon="99.775171">
<time>2015-08-06T09:21:07Z</time></trkpt>
<trkpt lat="28.409956" lon="99.775171">
<time>2015-08-06T09:21:08Z</time></trkpt>
<trkpt lat="28.409906" lon="99.775181">
<time>2015-08-06T09:21:09Z</time></trkpt>
<trkpt lat="28.409856" lon="99.775201">
<time>2015-08-06T09:21:10Z</time></trkpt>
<trkpt lat="28.409776" lon="99.775241">
<time>2015-08-06T09:21:11Z</time></trkpt>
<trkpt lat="28.409657" lon="99.775311">
<time>2015-08-06T09:21:12Z</time></trkpt>
<trkpt lat="28.409357" lon="99.775481">
<time>2015-08-06T09:21:13Z</time></trkpt>
<trkpt lat="28.409117" lon="99.775622">
<time>2015-08-06T09:21:14Z</time></trkpt>
<trkpt lat="28.408977" lon="99.775692">
<time>2015-08-06T09:21:15Z</time></trkpt>
<trkpt lat="28.408897" lon="99.775732">
<time>2015-08-06T09:21:16Z</time></trkpt>
<trkpt lat="28.408857" lon="99.775742">
<time>2015-08-06T09:21:17Z</time></trkpt>
<trkpt lat="28.408827" lon="99.775752">
<time>2015-08-06T09:21:18Z</time></trkpt>
<trkpt lat="28.408807" lon="99.775752">
<time>2015-08-06T09:21:19Z</time></trkpt>
<trkpt lat="28.408767" lon="99.775752">
<time>2015-08-06T09:21:20Z</time></trkpt>
<trkpt lat="28.408727" lon="99.775742">
<time>2015-08-06T09:21:21Z</time></trkpt>
<trkpt lat="28.408687" lon="99.775732">
<time>2015-08-06T09:21:22Z</time></trkpt>
<trkpt lat="28.408647" lon="99.775722">
<time>2015-08-06T09:21:23Z</time></trkpt>
<trkpt lat="28.408587" lon="99.775692">
<time>2015-08-06T09:21:24Z</time></trkpt>
<trkpt lat="28.408527" lon="99.775652">
<time>2015-08-06T09:21:25Z</time></trkpt>
<trkpt lat="28.408477" lon="99.775612">
<time>2015-08-06T09:21:26Z</time></trkpt>
<trkpt lat="28.408437" lon="99.775572">
<time>2015-08-06T09:21:27Z</time></trkpt>
<trkpt lat="28.408387" lon="99.775522">
<time>2015-08-06T09:21:28Z</time></trkpt>
<trkpt lat="28.408317" lon="99.775441">
<time>2015-08-06T09:21:29Z</time></trkpt>
<trkpt lat="28.407766" lon="99.774791">
<time>2015-08-06T09:21:30Z</time></trkpt>
<trkpt lat="28.407636" lon="99.774631">
<time>2015-08-06T09:21:31Z</time></trkpt>
<trkpt lat="28.407476" lon="99.7744">
<time>2015-08-06T09:21:32Z</time></trkpt>
<trkpt lat="28.407306" lon="99.77415">
<time>2015-08-06T09:21:33Z</time></trkpt>
<trkpt lat="28.407186" lon="99.774">
<time>2015-08-06T09:21:34Z</time></trkpt>
<trkpt lat="28.407006" lon="99.7738">
<time>2015-08-06T09:21:35Z</time></trkpt>
<trkpt lat="28.406735" lon="99.7735">
<time>2015-08-06T09:21:36Z</time></trkpt>
<trkpt lat="28.406605" lon="99.773319">
<time>2015-08-06T09:21:37Z</time></trkpt>
<trkpt lat="28.406435" lon="99.773079">
<time>2015-08-06T09:21:38Z</time></trkpt>
<trkpt lat="28.406325" lon="99.772939">
<time>2015-08-06T09:21:39Z</time></trkpt>
<trkpt lat="28.406285" lon="99.772899">
<time>2015-08-06T09:21:40Z</time></trkpt>
<trkpt lat="28.406245" lon="99.772869">
<time>2015-08-06T09:21:41Z</time></trkpt>
<trkpt lat="28.406135" lon="99.772819">
<time>2015-08-06T09:21:42Z</time></trkpt>
<trkpt lat="28.405675" lon="99.772649">
<time>2015-08-06T09:21:43Z</time></trkpt>
<trkpt lat="28.405465" lon="99.772569">
<time>2015-08-06T09:21:44Z</time></trkpt>
<trkpt lat="28.405315" lon="99.772529">
<time>2015-08-06T09:21:45Z</time></trkpt>
<trkpt lat="28.404445" lon="99.772279">
<time>2015-08-06T09:21:46Z</time></trkpt>
<trkpt lat="28.404245" lon="99.772209">
<time>2015-08-06T09:21:47Z</time></trkpt>
<trkpt lat="28.404095" lon="99.772159">
<time>2015-08-06T09:21:48Z</time></trkpt>
<trkpt lat="28.403885" lon="99.772058">
<time>2015-08-06T09:21:49Z</time></trkpt>
<trkpt lat="28.403115" lon="99.771688">
<time>2015-08-06T09:21:50Z</time></trkpt>
<trkpt lat="28.402205" lon="99.771308">
<time>2015-08-06T09:21:51Z</time></trkpt>
<trkpt lat="28.401975" lon="99.771198">
<time>2015-08-06T09:21:52Z</time></trkpt>
<trkpt lat="28.401924" lon="99.771178">
<time>2015-08-06T09:21:53Z</time></trkpt>
<trkpt lat="28.401774" lon="99.771098">
<time>2015-08-06T09:21:54Z</time></trkpt>
<trkpt lat="28.401714" lon="99.771068">
<time>2015-08-06T09:21:55Z</time></trkpt>
<trkpt lat="28.401644" lon="99.771018">
<time>2015-08-06T09:21:56Z</time></trkpt>
<trkpt lat="28.401394" lon="99.770767">
<time>2015-08-06T09:21:57Z</time></trkpt>
<trkpt lat="28.401264" lon="99.770637">
<time>2015-08-06T09:21:58Z</time></trkpt>
<trkpt lat="28.400914" lon="99.770227">
<time>2015-08-06T09:21:59Z</time></trkpt>
<trkpt lat="28.400814" lon="99.770087">
<time>2015-08-06T09:22:00Z</time></trkpt>
<trkpt lat="28.400724" lon="99.770007">
<time>2015-08-06T09:22:01Z</time></trkpt>
<trkpt lat="28.400604" lon="99.769917">
<time>2015-08-06T09:22:02Z</time></trkpt>
<trkpt lat="28.400204" lon="99.769597">
<time>2015-08-06T09:22:03Z</time></trkpt>
<trkpt lat="28.400184" lon="99.769587">
<time>2015-08-06T09:22:04Z</time></trkpt>
<trkpt lat="28.400014" lon="99.769486">
<time>2015-08-06T09:22:05Z</time></trkpt>
<trkpt lat="28.399263" lon="99.769116">
<time>2015-08-06T09:22:06Z</time></trkpt>
<trkpt lat="28.398973" lon="99.768976">
<time>2015-08-06T09:22:07Z</time></trkpt>
<trkpt lat="28.398903" lon="99.768946">
<time>2015-08-06T09:22:08Z</time></trkpt>
<trkpt lat="28.398803" lon="99.768896">
<time>2015-08-06T09:22:09Z</time></trkpt>
<trkpt lat="28.398783" lon="99.768886">
<time>2015-08-06T09:22:10Z</time></trkpt>
<trkpt lat="28.398763" lon="99.768866">
<time>2015-08-06T09:22:11Z</time></trkpt>
<trkpt lat="28.398743" lon="99.768856">
<time>2015-08-06T09:22:12Z</time></trkpt>
<trkpt lat="28.398713" lon="99.768836">
<time>2015-08-06T09:22:13Z</time></trkpt>
<trkpt lat="28.398653" lon="99.768776">
<time>2015-08-06T09:22:14Z</time></trkpt>
<trkpt lat="28.398363" lon="99.768896">
<time>2015-08-06T09:22:15Z</time></trkpt>
<trkpt lat="28.398333" lon="99.768906">
<time>2015-08-06T09:22:16Z</time></trkpt>
<trkpt lat="28.398303" lon="99.768906">
<time>2015-08-06T09:22:17Z</time></trkpt>
<trkpt lat="28.398263" lon="99.768906">
<time>2015-08-06T09:22:18Z</time></trkpt>
<trkpt lat="28.398223" lon="99.768896">
<time>2015-08-06T09:22:19Z</time></trkpt>
<trkpt lat="28.398163" lon="99.768886">
<time>2015-08-06T09:22:20Z</time></trkpt>
<trkpt lat="28.398033" lon="99.768866">
<time>2015-08-06T09:22:21Z</time></trkpt>
<trkpt lat="28.397943" lon="99.768846">
<time>2015-08-06T09:22:22Z</time></trkpt>
<trkpt lat="28.397893" lon="99.768826">
<time>2015-08-06T09:22:23Z</time></trkpt>
<trkpt lat="28.397813" lon="99.768776">
<time>2015-08-06T09:22:24Z</time></trkpt>
<trkpt lat="28.397703" lon="99.768706">
<time>2015-08-06T09:22:25Z</time></trkpt>
<trkpt lat="28.397613" lon="99.768656">
<time>2015-08-06T09:22:26Z</time></trkpt>
<trkpt lat="28.397463" lon="99.768526">
<time>2015-08-06T09:22:27Z</time></trkpt>
<trkpt lat="28.397383" lon="99.768436">
<time>2015-08-06T09:22:28Z</time></trkpt>
<trkpt lat="28.397243" lon="99.768286">
<time>2015-08-06T09:22:29Z</time></trkpt>
<trkpt lat="28.397133" lon="99.768206">
<time>2015-08-06T09:22:30Z</time></trkpt>
<trkpt lat="28.397073" lon="99.768166">
<time>2015-08-06T09:22:31Z</time></trkpt>
<trkpt lat="28.397023" lon="99.768136">
<time>2015-08-06T09:22:32Z</time></trkpt>
<trkpt lat="28.396973" lon="99.768116">
<time>2015-08-06T09:22:33Z</time></trkpt>
<trkpt lat="28.396883" lon="99.768096">
<time>2015-08-06T09:22:34Z</time></trkpt>
<trkpt lat="28.396343" lon="99.767975">
<time>2015-08-06T09:22:35Z</time></trkpt>
<trkpt lat="28.396083" lon="99.767935">
<time>2015-08-06T09:22:36Z</time></trkpt>
<trkpt lat="28.395813" lon="99.767915">
<time>2015-08-06T09:22:37Z</time></trkpt>
<trkpt lat="28.395653" lon="99.767895">
<time>2015-08-06T09:22:38Z</time></trkpt>
<trkpt lat="28.395483" lon="99.767895">
<time>2015-08-06T09:22:39Z</time></trkpt>
<trkpt lat="28.394833" lon="99.767905">
<time>2015-08-06T09:22:40Z</time></trkpt>
<trkpt lat="28.393974" lon="99.767945">
<time>2015-08-06T09:22:41Z</time></trkpt>
<trkpt lat="28.393164" lon="99.767915">
<time>2015-08-06T09:22:42Z</time></trkpt>
<trkpt lat="28.391344" lon="99.767795">
<time>2015-08-06T09:22:43Z</time></trkpt>
<trkpt lat="28.390684" lon="99.767765">
<time>2015-08-06T09:22:44Z</time></trkpt>
<trkpt lat="28.390504" lon="99.767775">
<time>2015-08-06T09:22:45Z</time></trkpt>
<trkpt lat="28.390344" lon="99.767795">
<time>2015-08-06T09:22:46Z</time></trkpt>
<trkpt lat="28.389624" lon="99.767916">
<time>2015-08-06T09:22:47Z</time></trkpt>
<trkpt lat="28.389434" lon="99.767916">
<time>2015-08-06T09:22:48Z</time></trkpt>
<trkpt lat="28.389264" lon="99.767916">
<time>2015-08-06T09:22:49Z</time></trkpt>
<trkpt lat="28.389084" lon="99.767906">
<time>2015-08-06T09:22:50Z</time></trkpt>
<trkpt lat="28.388855" lon="99.767876">
<time>2015-08-06T09:22:51Z</time></trkpt>
<trkpt lat="28.388555" lon="99.767806">
<time>2015-08-06T09:22:52Z</time></trkpt>
<trkpt lat="28.387414" lon="99.767425">
<time>2015-08-06T09:22:53Z</time></trkpt>
<trkpt lat="28.386994" lon="99.767255">
<time>2015-08-06T09:22:54Z</time></trkpt>
<trkpt lat="28.386644" lon="99.767115">
<time>2015-08-06T09:22:55Z</time></trkpt>
<trkpt lat="28.386024" lon="99.766775">
<time>2015-08-06T09:22:56Z</time></trkpt>
<trkpt lat="28.385664" lon="99.766605">
<time>2015-08-06T09:22:57Z</time></trkpt>
<trkpt lat="28.385334" lon="99.766455">
<time>2015-08-06T09:22:58Z</time></trkpt>
<trkpt lat="28.385204" lon="99.766405">
<time>2015-08-06T09:22:59Z</time></trkpt>
<trkpt lat="28.385034" lon="99.766345">
<time>2015-08-06T09:23:00Z</time></trkpt>
<trkpt lat="28.384764" lon="99.766275">
<time>2015-08-06T09:23:01Z</time></trkpt>
<trkpt lat="28.384644" lon="99.766245">
<time>2015-08-06T09:23:02Z</time></trkpt>
<trkpt lat="28.384554" lon="99.766205">
<time>2015-08-06T09:23:03Z</time></trkpt>
<trkpt lat="28.384464" lon="99.766155">
<time>2015-08-06T09:23:04Z</time></trkpt>
<trkpt lat="28.384234" lon="99.766014">
<time>2015-08-06T09:23:05Z</time></trkpt>
<trkpt lat="28.383984" lon="99.765914">
<time>2015-08-06T09:23:06Z</time></trkpt>
<trkpt lat="28.383634" lon="99.765764">
<time>2015-08-06T09:23:07Z</time></trkpt>
<trkpt lat="28.383334" lon="99.765674">
<time>2015-08-06T09:23:08Z</time></trkpt>
<trkpt lat="28.383104" lon="99.765624">
<time>2015-08-06T09:23:09Z</time></trkpt>
<trkpt lat="28.382694" lon="99.765574">
<time>2015-08-06T09:23:10Z</time></trkpt>
<trkpt lat="28.382544" lon="99.765564">
<time>2015-08-06T09:23:11Z</time></trkpt>
<trkpt lat="28.382284" lon="99.765564">
<time>2015-08-06T09:23:12Z</time></trkpt>
<trkpt lat="28.382154" lon="99.765564">
<time>2015-08-06T09:23:13Z</time></trkpt>
<trkpt lat="28.381764" lon="99.765654">
<time>2015-08-06T09:23:14Z</time></trkpt>
<trkpt lat="28.381664" lon="99.765674">
<time>2015-08-06T09:23:15Z</time></trkpt>
<trkpt lat="28.381504" lon="99.765704">
<time>2015-08-06T09:23:16Z</time></trkpt>
<trkpt lat="28.381005" lon="99.765744">
<time>2015-08-06T09:23:17Z</time></trkpt>
<trkpt lat="28.380295" lon="99.765784">
<time>2015-08-06T09:23:18Z</time></trkpt>
<trkpt lat="28.380145" lon="99.765784">
<time>2015-08-06T09:23:19Z</time></trkpt>
<trkpt lat="28.379605" lon="99.765885">
<time>2015-08-06T09:23:20Z</time></trkpt>
<trkpt lat="28.379495" lon="99.765905">
<time>2015-08-06T09:23:21Z</time></trkpt>
<trkpt lat="28.379425" lon="99.765935">
<time>2015-08-06T09:23:22Z</time></trkpt>
<trkpt lat="28.379145" lon="99.766095">
<time>2015-08-06T09:23:23Z</time></trkpt>
<trkpt lat="28.378815" lon="99.766285">
<time>2015-08-06T09:23:24Z</time></trkpt>
<trkpt lat="28.378585" lon="99.766455">
<time>2015-08-06T09:23:25Z</time></trkpt>
<trkpt lat="28.378415" lon="99.766565">
<time>2015-08-06T09:23:26Z</time></trkpt>
<trkpt lat="28.378286" lon="99.766675">
<time>2015-08-06T09:23:27Z</time></trkpt>
<trkpt lat="28.378156" lon="99.766805">
<time>2015-08-06T09:23:28Z</time></trkpt>
<trkpt lat="28.377956" lon="99.766965">
<time>2015-08-06T09:23:29Z</time></trkpt>
<trkpt lat="28.377766" lon="99.767105">
<time>2015-08-06T09:23:30Z</time></trkpt>
<trkpt lat="28.377516" lon="99.767265">
<time>2015-08-06T09:23:31Z</time></trkpt>
<trkpt lat="28.377286" lon="99.767366">
<time>2015-08-06T09:23:32Z</time></trkpt>
<trkpt lat="28.376836" lon="99.767556">
<time>2015-08-06T09:23:33Z</time></trkpt>
<trkpt lat="28.376527" lon="99.767686">
<time>2015-08-06T09:23:34Z</time></trkpt>
<trkpt lat="28.376317" lon="99.767796">
<time>2015-08-06T09:23:35Z</time></trkpt>
<trkpt lat="28.376147" lon="99.767896">
<time>2015-08-06T09:23:36Z</time></trkpt>
<trkpt lat="28.375727" lon="99.768166">
<time>2015-08-06T09:23:37Z</time></trkpt>
<trkpt lat="28.375337" lon="99.768456">
<time>2015-08-06T09:23:38Z</time></trkpt>
<trkpt lat="28.375147" lon="99.768586">
<time>2015-08-06T09:23:39Z</time></trkpt>
<trkpt lat="28.374948" lon="99.768717">
<time>2015-08-06T09:23:40Z</time></trkpt>
<trkpt lat="28.374728" lon="99.768917">
<time>2015-08-06T09:23:41Z</time></trkpt>
<trkpt lat="28.374598" lon="99.769027">
<time>2015-08-06T09:23:42Z</time></trkpt>
<trkpt lat="28.374418" lon="99.769187">
<time>2015-08-06T09:23:43Z</time></trkpt>
<trkpt lat="28.374308" lon="99.769297">
<time>2015-08-06T09:23:44Z</time></trkpt>
<trkpt lat="28.373949" lon="99.769837">
<time>2015-08-06T09:23:45Z</time></trkpt>
<trkpt lat="28.373759" lon="99.770038">
<time>2015-08-06T09:23:46Z</time></trkpt>
<trkpt lat="28.373539" lon="99.770248">
<time>2015-08-06T09:23:47Z</time></trkpt>
<trkpt lat="28.373179" lon="99.770528">
<time>2015-08-06T09:23:48Z</time></trkpt>
<trkpt lat="28.372819" lon="99.770768">
<time>2015-08-06T09:23:49Z</time></trkpt>
<trkpt lat="28.37252" lon="99.770928">
<time>2015-08-06T09:23:50Z</time></trkpt>
<trkpt lat="28.37211" lon="99.771078">
<time>2015-08-06T09:23:51Z</time></trkpt>
<trkpt lat="28.37194" lon="99.771108">
<time>2015-08-06T09:23:52Z</time></trkpt>
<trkpt lat="28.37169" lon="99.771138">
<time>2015-08-06T09:23:53Z</time></trkpt>
<trkpt lat="28.37123" lon="99.771169">
<time>2015-08-06T09:23:54Z</time></trkpt>
<trkpt lat="28.37083" lon="99.771179">
<time>2015-08-06T09:23:55Z</time></trkpt>
<trkpt lat="28.37066" lon="99.771199">
<time>2015-08-06T09:23:56Z</time></trkpt>
<trkpt lat="28.37053" lon="99.771239">
<time>2015-08-06T09:23:57Z</time></trkpt>
<trkpt lat="28.37042" lon="99.771289">
<time>2015-08-06T09:23:58Z</time></trkpt>
<trkpt lat="28.37033" lon="99.771359">
<time>2015-08-06T09:23:59Z</time></trkpt>
<trkpt lat="28.369831" lon="99.771709">
<time>2015-08-06T09:24:00Z</time></trkpt>
<trkpt lat="28.369701" lon="99.771799">
<time>2015-08-06T09:24:01Z</time></trkpt>
<trkpt lat="28.369631" lon="99.771869">
<time>2015-08-06T09:24:02Z</time></trkpt>
<trkpt lat="28.369591" lon="99.771929">
<time>2015-08-06T09:24:03Z</time></trkpt>
<trkpt lat="28.369551" lon="99.771979">
<time>2015-08-06T09:24:04Z</time></trkpt>
<trkpt lat="28.369521" lon="99.772019">
<time>2015-08-06T09:24:05Z</time></trkpt>
<trkpt lat="28.369471" lon="99.772059">
<time>2015-08-06T09:24:06Z</time></trkpt>
<trkpt lat="28.369391" lon="99.772109">
<time>2015-08-06T09:24:07Z</time></trkpt>
<trkpt lat="28.369291" lon="99.772169">
<time>2015-08-06T09:24:08Z</time></trkpt>
<trkpt lat="28.369061" lon="99.77229">
<time>2015-08-06T09:24:09Z</time></trkpt>
<trkpt lat="28.368941" lon="99.77233">
<time>2015-08-06T09:24:10Z</time></trkpt>
<trkpt lat="28.368851" lon="99.77235">
<time>2015-08-06T09:24:11Z</time></trkpt>
<trkpt lat="28.368751" lon="99.77236">
<time>2015-08-06T09:24:12Z</time></trkpt>
<trkpt lat="28.368611" lon="99.77237">
<time>2015-08-06T09:24:13Z</time></trkpt>
<trkpt lat="28.368271" lon="99.77237">
<time>2015-08-06T09:24:14Z</time></trkpt>
<trkpt lat="28.368161" lon="99.77238">
<time>2015-08-06T09:24:15Z</time></trkpt>
<trkpt lat="28.368012" lon="99.77241">
<time>2015-08-06T09:24:16Z</time></trkpt>
<trkpt lat="28.367872" lon="99.77244">
<time>2015-08-06T09:24:17Z</time></trkpt>
<trkpt lat="28.367822" lon="99.77247">
<time>2015-08-06T09:24:18Z</time></trkpt>
<trkpt lat="28.367772" lon="99.77251">
<time>2015-08-06T09:24:19Z</time></trkpt>
<trkpt lat="28.367722" lon="99.77255">
<time>2015-08-06T09:24:20Z</time></trkpt>
<trkpt lat="28.367662" lon="99.77262">
<time>2015-08-06T09:24:21Z</time></trkpt>
<trkpt lat="28.367572" lon="99.77275">
<time>2015-08-06T09:24:22Z</time></trkpt>
<trkpt lat="28.367402" lon="99.77304">
<time>2015-08-06T09:24:23Z</time></trkpt>
<trkpt lat="28.367332" lon="99.77318">
<time>2015-08-06T09:24:24Z</time></trkpt>
<trkpt lat="28.367252" lon="99.773361">
<time>2015-08-06T09:24:25Z</time></trkpt>
<trkpt lat="28.367133" lon="99.773551">
<time>2015-08-06T09:24:26Z</time></trkpt>
<trkpt lat="28.367073" lon="99.773641">
<time>2015-08-06T09:24:27Z</time></trkpt>
<trkpt lat="28.367023" lon="99.773691">
<time>2015-08-06T09:24:28Z</time></trkpt>
<trkpt lat="28.366923" lon="99.773761">
<time>2015-08-06T09:24:29Z</time></trkpt>
<trkpt lat="28.366483" lon="99.774111">
<time>2015-08-06T09:24:30Z</time></trkpt>
<trkpt lat="28.366273" lon="99.774281">
<time>2015-08-06T09:24:31Z</time></trkpt>
<trkpt lat="28.366114" lon="99.774382">
<time>2015-08-06T09:24:32Z</time></trkpt>
<trkpt lat="28.366024" lon="99.774442">
<time>2015-08-06T09:24:33Z</time></trkpt>
<trkpt lat="28.365904" lon="99.774482">
<time>2015-08-06T09:24:34Z</time></trkpt>
<trkpt lat="28.365744" lon="99.774532">
<time>2015-08-06T09:24:35Z</time></trkpt>
<trkpt lat="28.365604" lon="99.774562">
<time>2015-08-06T09:24:36Z</time></trkpt>
<trkpt lat="28.365374" lon="99.774592">
<time>2015-08-06T09:24:37Z</time></trkpt>
<trkpt lat="28.364424" lon="99.774692">
<time>2015-08-06T09:24:38Z</time></trkpt>
<trkpt lat="28.364164" lon="99.774722">
<time>2015-08-06T09:24:39Z</time></trkpt>
<trkpt lat="28.363874" lon="99.774782">
<time>2015-08-06T09:24:40Z</time></trkpt>
<trkpt lat="28.363414" lon="99.774892">
<time>2015-08-06T09:24:41Z</time></trkpt>
<trkpt lat="28.363015" lon="99.775032">
<time>2015-08-06T09:24:42Z</time></trkpt>
<trkpt lat="28.362885" lon="99.775072">
<time>2015-08-06T09:24:43Z</time></trkpt>
<trkpt lat="28.362705" lon="99.775102">
<time>2015-08-06T09:24:44Z</time></trkpt>
<trkpt lat="28.362115" lon="99.775272">
<time>2015-08-06T09:24:45Z</time></trkpt>
<trkpt lat="28.361895" lon="99.775343">
<time>2015-08-06T09:24:46Z</time></trkpt>
<trkpt lat="28.361795" lon="99.775373">
<time>2015-08-06T09:24:47Z</time></trkpt>
<trkpt lat="28.361655" lon="99.775393">
<time>2015-08-06T09:24:48Z</time></trkpt>
<trkpt lat="28.361525" lon="99.775403">
<time>2015-08-06T09:24:49Z</time></trkpt>
<trkpt lat="28.361425" lon="99.775393">
<time>2015-08-06T09:24:50Z</time></trkpt>
<trkpt lat="28.361285" lon="99.775363">
<time>2015-08-06T09:24:51Z</time></trkpt>
<trkpt lat="28.361205" lon="99.775343">
<time>2015-08-06T09:24:52Z</time></trkpt>
<trkpt lat="28.361145" lon="99.775313">
<time>2015-08-06T09:24:53Z</time></trkpt>
<trkpt lat="28.361065" lon="99.775272">
<time>2015-08-06T09:24:54Z</time></trkpt>
<trkpt lat="28.360485" lon="99.774752">
<time>2015-08-06T09:24:55Z</time></trkpt>
<trkpt lat="28.360365" lon="99.774642">
<time>2015-08-06T09:24:56Z</time></trkpt>
<trkpt lat="28.360315" lon="99.774602">
<time>2015-08-06T09:24:57Z</time></trkpt>
<trkpt lat="28.360275" lon="99.774572">
<time>2015-08-06T09:24:58Z</time></trkpt>
<trkpt lat="28.360215" lon="99.774542">
<time>2015-08-06T09:24:59Z</time></trkpt>
<trkpt lat="28.360165" lon="99.774512">
<time>2015-08-06T09:25:00Z</time></trkpt>
<trkpt lat="28.360135" lon="99.774492">
<time>2015-08-06T09:25:01Z</time></trkpt>
<trkpt lat="28.360095" lon="99.774482">
<time>2015-08-06T09:25:02Z</time></trkpt>
<trkpt lat="28.360045" lon="99.774462">
<time>2015-08-06T09:25:03Z</time></trkpt>
<trkpt lat="28.360015" lon="99.774452">
<time>2015-08-06T09:25:04Z</time></trkpt>
<trkpt lat="28.360005" lon="99.774442">
<time>2015-08-06T09:25:05Z</time></trkpt>
<trkpt lat="28.359985" lon="99.774442">
<time>2015-08-06T09:25:06Z</time></trkpt>
<trkpt lat="28.359975" lon="99.774442">
<time>2015-08-06T09:25:07Z</time></trkpt>
<trkpt lat="28.359965" lon="99.774442">
<time>2015-08-06T09:25:08Z</time></trkpt>
<trkpt lat="28.359955" lon="99.774442">
<time>2015-08-06T09:25:09Z</time></trkpt>
<trkpt lat="28.359935" lon="99.774452">
<time>2015-08-06T09:25:10Z</time></trkpt>
<trkpt lat="28.359915" lon="99.774452">
<time>2015-08-06T09:25:11Z</time></trkpt>
<trkpt lat="28.359885" lon="99.774472">
<time>2015-08-06T09:25:12Z</time></trkpt>
<trkpt lat="28.359855" lon="99.774482">
<time>2015-08-06T09:25:13Z</time></trkpt>
<trkpt lat="28.359845" lon="99.774492">
<time>2015-08-06T09:25:14Z</time></trkpt>
<trkpt lat="28.359775" lon="99.774542">
<time>2015-08-06T09:25:15Z</time></trkpt>
<trkpt lat="28.359895" lon="99.774532">
<time>2015-08-06T09:25:16Z</time></trkpt>
<trkpt lat="28.359945" lon="99.774532">
<time>2015-08-06T09:25:17Z</time></trkpt>
<trkpt lat="28.359965" lon="99.774542">
<time>2015-08-06T09:25:18Z</time></trkpt>
<trkpt lat="28.359985" lon="99.774542">
<time>2015-08-06T09:25:19Z</time></trkpt>
<trkpt lat="28.360005" lon="99.774562">
<time>2015-08-06T09:25:20Z</time></trkpt>
<trkpt lat="28.360035" lon="99.774592">
<time>2015-08-06T09:25:21Z</time></trkpt>
<trkpt lat="28.360205" lon="99.774742">
<time>2015-08-06T09:25:22Z</time></trkpt>
<trkpt lat="28.360225" lon="99.774762">
<time>2015-08-06T09:25:23Z</time></trkpt>
<trkpt lat="28.360245" lon="99.774792">
<time>2015-08-06T09:25:24Z</time></trkpt>
<trkpt lat="28.360335" lon="99.774932">
<time>2015-08-06T09:25:25Z</time></trkpt>
<trkpt lat="28.360445" lon="99.775122">
<time>2015-08-06T09:25:26Z</time></trkpt>
<trkpt lat="28.360545" lon="99.775283">
<time>2015-08-06T09:25:27Z</time></trkpt>
<trkpt lat="28.360595" lon="99.775353">
<time>2015-08-06T09:25:28Z</time></trkpt>
<trkpt lat="28.360595" lon="99.775363">
<time>2015-08-06T09:25:29Z</time></trkpt>
<trkpt lat="28.360595" lon="99.775373">
<time>2015-08-06T09:25:30Z</time></trkpt>
<trkpt lat="28.360595" lon="99.775383">
<time>2015-08-06T09:25:31Z</time></trkpt>
<trkpt lat="28.360585" lon="99.775403">
<time>2015-08-06T09:25:32Z</time></trkpt>
<trkpt lat="28.360575" lon="99.775403">
<time>2015-08-06T09:25:33Z</time></trkpt>
<trkpt lat="28.360575" lon="99.775413">
<time>2015-08-06T09:25:34Z</time></trkpt>
<trkpt lat="28.360565" lon="99.775413">
<time>2015-08-06T09:25:35Z</time></trkpt>
<trkpt lat="28.360555" lon="99.775403">
<time>2015-08-06T09:25:36Z</time></trkpt>
<trkpt lat="28.360495" lon="99.775383">
<time>2015-08-06T09:25:37Z</time></trkpt>
<trkpt lat="28.360425" lon="99.775363">
<time>2015-08-06T09:25:38Z</time></trkpt>
<trkpt lat="28.360385" lon="99.775353">
<time>2015-08-06T09:25:39Z</time></trkpt>
<trkpt lat="28.360375" lon="99.775353">
<time>2015-08-06T09:25:40Z</time></trkpt>
<trkpt lat="28.360365" lon="99.775343">
<time>2015-08-06T09:25:41Z</time></trkpt>
<trkpt lat="28.360355" lon="99.775343">
<time>2015-08-06T09:25:42Z</time></trkpt>
<trkpt lat="28.360355" lon="99.775333">
<time>2015-08-06T09:25:43Z</time></trkpt>
<trkpt lat="28.360335" lon="99.775313">
<time>2015-08-06T09:25:44Z</time></trkpt>
<trkpt lat="28.360265" lon="99.775232">
<time>2015-08-06T09:25:45Z</time></trkpt>
<trkpt lat="28.360205" lon="99.775152">
<time>2015-08-06T09:25:46Z</time></trkpt>
<trkpt lat="28.360185" lon="99.775132">
<time>2015-08-06T09:25:47Z</time></trkpt>
<trkpt lat="28.360165" lon="99.775122">
<time>2015-08-06T09:25:48Z</time></trkpt>
<trkpt lat="28.360145" lon="99.775102">
<time>2015-08-06T09:25:49Z</time></trkpt>
<trkpt lat="28.360105" lon="99.775082">
<time>2015-08-06T09:25:50Z</time></trkpt>
<trkpt lat="28.360015" lon="99.775042">
<time>2015-08-06T09:25:51Z</time></trkpt>
<trkpt lat="28.359925" lon="99.775002">
<time>2015-08-06T09:25:52Z</time></trkpt>
<trkpt lat="28.359905" lon="99.775002">
<time>2015-08-06T09:25:53Z</time></trkpt>
<trkpt lat="28.359895" lon="99.775002">
<time>2015-08-06T09:25:54Z</time></trkpt>
<trkpt lat="28.359875" lon="99.775002">
<time>2015-08-06T09:25:55Z</time></trkpt>
<trkpt lat="28.359845" lon="99.774992">
<time>2015-08-06T09:25:56Z</time></trkpt>
<trkpt lat="28.359765" lon="99.774992">
<time>2015-08-06T09:25:57Z</time></trkpt>
<trkpt lat="28.359725" lon="99.775002">
<time>2015-08-06T09:25:58Z</time></trkpt>
<trkpt lat="28.359705" lon="99.775002">
<time>2015-08-06T09:25:59Z</time></trkpt>
<trkpt lat="28.359685" lon="99.775002">
<time>2015-08-06T09:26:00Z</time></trkpt>
<trkpt lat="28.359675" lon="99.775002">
<time>2015-08-06T09:26:01Z</time></trkpt>
<trkpt lat="28.359655" lon="99.775012">
<time>2015-08-06T09:26:02Z</time></trkpt>
<trkpt lat="28.359635" lon="99.775022">
<time>2015-08-06T09:26:03Z</time></trkpt>
<trkpt lat="28.359605" lon="99.775052">
<time>2015-08-06T09:26:04Z</time></trkpt>
<trkpt lat="28.359385" lon="99.775273">
<time>2015-08-06T09:26:05Z</time></trkpt>
<trkpt lat="28.359226" lon="99.775433">
<time>2015-08-06T09:26:06Z</time></trkpt>
<trkpt lat="28.359106" lon="99.775593">
<time>2015-08-06T09:26:07Z</time></trkpt>
<trkpt lat="28.359036" lon="99.775693">
<time>2015-08-06T09:26:08Z</time></trkpt>
<trkpt lat="28.358846" lon="99.775813">
<time>2015-08-06T09:26:09Z</time></trkpt>
<trkpt lat="28.358776" lon="99.775873">
<time>2015-08-06T09:26:10Z</time></trkpt>
<trkpt lat="28.358686" lon="99.775933">
<time>2015-08-06T09:26:11Z</time></trkpt>
<trkpt lat="28.358576" lon="99.776043">
<time>2015-08-06T09:26:12Z</time></trkpt>
<trkpt lat="28.358466" lon="99.776173">
<time>2015-08-06T09:26:13Z</time></trkpt>
<trkpt lat="28.358436" lon="99.776203">
<time>2015-08-06T09:26:14Z</time></trkpt>
<trkpt lat="28.358396" lon="99.776284">
<time>2015-08-06T09:26:15Z</time></trkpt>
<trkpt lat="28.358367" lon="99.776334">
<time>2015-08-06T09:26:16Z</time></trkpt>
<trkpt lat="28.358317" lon="99.776394">
<time>2015-08-06T09:26:17Z</time></trkpt>
<trkpt lat="28.358267" lon="99.776434">
<time>2015-08-06T09:26:18Z</time></trkpt>
<trkpt lat="28.358217" lon="99.776474">
<time>2015-08-06T09:26:19Z</time></trkpt>
<trkpt lat="28.358147" lon="99.776514">
<time>2015-08-06T09:26:20Z</time></trkpt>
<trkpt lat="28.358017" lon="99.776594">
<time>2015-08-06T09:26:21Z</time></trkpt>
<trkpt lat="28.357727" lon="99.776804">
<time>2015-08-06T09:26:22Z</time></trkpt>
<trkpt lat="28.357547" lon="99.776944">
<time>2015-08-06T09:26:23Z</time></trkpt>
<trkpt lat="28.357447" lon="99.777034">
<time>2015-08-06T09:26:24Z</time></trkpt>
<trkpt lat="28.357377" lon="99.777094">
<time>2015-08-06T09:26:25Z</time></trkpt>
<trkpt lat="28.357268" lon="99.777245">
<time>2015-08-06T09:26:26Z</time></trkpt>
<trkpt lat="28.357148" lon="99.777405">
<time>2015-08-06T09:26:27Z</time></trkpt>
<trkpt lat="28.357028" lon="99.777535">
<time>2015-08-06T09:26:28Z</time></trkpt>
<trkpt lat="28.356958" lon="99.777615">
<time>2015-08-06T09:26:29Z</time></trkpt>
<trkpt lat="28.356858" lon="99.777755">
<time>2015-08-06T09:26:30Z</time></trkpt>
<trkpt lat="28.356808" lon="99.777815">
<time>2015-08-06T09:26:31Z</time></trkpt>
<trkpt lat="28.356748" lon="99.777875">
<time>2015-08-06T09:26:32Z</time></trkpt>
<trkpt lat="28.356578" lon="99.778015">
<time>2015-08-06T09:26:33Z</time></trkpt>
<trkpt lat="28.356169" lon="99.778396">
<time>2015-08-06T09:26:34Z</time></trkpt>
<trkpt lat="28.355789" lon="99.778726">
<time>2015-08-06T09:26:35Z</time></trkpt>
<trkpt lat="28.35536" lon="99.779077">
<time>2015-08-06T09:26:36Z</time></trkpt>
<trkpt lat="28.35508" lon="99.779307">
<time>2015-08-06T09:26:37Z</time></trkpt>
<trkpt lat="28.35469" lon="99.779557">
<time>2015-08-06T09:26:38Z</time></trkpt>
<trkpt lat="28.354281" lon="99.779777">
<time>2015-08-06T09:26:39Z</time></trkpt>
<trkpt lat="28.354031" lon="99.779928">
<time>2015-08-06T09:26:40Z</time></trkpt>
<trkpt lat="28.353931" lon="99.779998">
<time>2015-08-06T09:26:41Z</time></trkpt>
<trkpt lat="28.353851" lon="99.780068">
<time>2015-08-06T09:26:42Z</time></trkpt>
<trkpt lat="28.353472" lon="99.780468">
<time>2015-08-06T09:26:43Z</time></trkpt>
<trkpt lat="28.353372" lon="99.780598">
<time>2015-08-06T09:26:44Z</time></trkpt>
<trkpt lat="28.353312" lon="99.780739">
<time>2015-08-06T09:26:45Z</time></trkpt>
<trkpt lat="28.353272" lon="99.780819">
<time>2015-08-06T09:26:46Z</time></trkpt>
<trkpt lat="28.353242" lon="99.780889">
<time>2015-08-06T09:26:47Z</time></trkpt>
<trkpt lat="28.353212" lon="99.780939">
<time>2015-08-06T09:26:48Z</time></trkpt>
<trkpt lat="28.353162" lon="99.781029">
<time>2015-08-06T09:26:49Z</time></trkpt>
<trkpt lat="28.353122" lon="99.781109">
<time>2015-08-06T09:26:50Z</time></trkpt>
<trkpt lat="28.353092" lon="99.781189">
<time>2015-08-06T09:26:51Z</time></trkpt>
<trkpt lat="28.353013" lon="99.781389">
<time>2015-08-06T09:26:52Z</time></trkpt>
<trkpt lat="28.352953" lon="99.78151">
<time>2015-08-06T09:26:53Z</time></trkpt>
<trkpt lat="28.352923" lon="99.78158">
<time>2015-08-06T09:26:54Z</time></trkpt>
<trkpt lat="28.352883" lon="99.78163">
<time>2015-08-06T09:26:55Z</time></trkpt>
<trkpt lat="28.352713" lon="99.7818">
<time>2015-08-06T09:26:56Z</time></trkpt>
<trkpt lat="28.352443" lon="99.78199">
<time>2015-08-06T09:26:57Z</time></trkpt>
<trkpt lat="28.352383" lon="99.78203">
<time>2015-08-06T09:26:58Z</time></trkpt>
<trkpt lat="28.352324" lon="99.78206">
<time>2015-08-06T09:26:59Z</time></trkpt>
<trkpt lat="28.352094" lon="99.78212">
<time>2015-08-06T09:27:00Z</time></trkpt>
<trkpt lat="28.351664" lon="99.78224">
<time>2015-08-06T09:27:01Z</time></trkpt>
<trkpt lat="28.351574" lon="99.782261">
<time>2015-08-06T09:27:02Z</time></trkpt>
<trkpt lat="28.351484" lon="99.782301">
<time>2015-08-06T09:27:03Z</time></trkpt>
<trkpt lat="28.351104" lon="99.782481">
<time>2015-08-06T09:27:04Z</time></trkpt>
<trkpt lat="28.350994" lon="99.782531">
<time>2015-08-06T09:27:05Z</time></trkpt>
<trkpt lat="28.350794" lon="99.782651">
<time>2015-08-06T09:27:06Z</time></trkpt>
<trkpt lat="28.350714" lon="99.782701">
<time>2015-08-06T09:27:07Z</time></trkpt>
<trkpt lat="28.350665" lon="99.782751">
<time>2015-08-06T09:27:08Z</time></trkpt>
<trkpt lat="28.350585" lon="99.782821">
<time>2015-08-06T09:27:09Z</time></trkpt>
<trkpt lat="28.350535" lon="99.782881">
<time>2015-08-06T09:27:10Z</time></trkpt>
<trkpt lat="28.350475" lon="99.782931">
<time>2015-08-06T09:27:11Z</time></trkpt>
<trkpt lat="28.350055" lon="99.783222">
<time>2015-08-06T09:27:12Z</time></trkpt>
<trkpt lat="28.349676" lon="99.783502">
<time>2015-08-06T09:27:13Z</time></trkpt>
<trkpt lat="28.349086" lon="99.784013">
<time>2015-08-06T09:27:14Z</time></trkpt>
<trkpt lat="28.348157" lon="99.784704">
<time>2015-08-06T09:27:15Z</time></trkpt>
<trkpt lat="28.347957" lon="99.784894">
<time>2015-08-06T09:27:16Z</time></trkpt>
<trkpt lat="28.347548" lon="99.785335">
<time>2015-08-06T09:27:17Z</time></trkpt>
<trkpt lat="28.347348" lon="99.785595">
<time>2015-08-06T09:27:18Z</time></trkpt>
<trkpt lat="28.347189" lon="99.785835">
<time>2015-08-06T09:27:19Z</time></trkpt>
<trkpt lat="28.347079" lon="99.786056">
<time>2015-08-06T09:27:20Z</time></trkpt>
<trkpt lat="28.34695" lon="99.786426">
<time>2015-08-06T09:27:21Z</time></trkpt>
<trkpt lat="28.3468" lon="99.786797">
<time>2015-08-06T09:27:22Z</time></trkpt>
<trkpt lat="28.34671" lon="99.786987">
<time>2015-08-06T09:27:23Z</time></trkpt>
<trkpt lat="28.34667" lon="99.787117">
<time>2015-08-06T09:27:24Z</time></trkpt>
<trkpt lat="28.346651" lon="99.787197">
<time>2015-08-06T09:27:25Z</time></trkpt>
<trkpt lat="28.346621" lon="99.787277">
<time>2015-08-06T09:27:26Z</time></trkpt>
<trkpt lat="28.346581" lon="99.787367">
<time>2015-08-06T09:27:27Z</time></trkpt>
<trkpt lat="28.346551" lon="99.787438">
<time>2015-08-06T09:27:28Z</time></trkpt>
<trkpt lat="28.346521" lon="99.787488">
<time>2015-08-06T09:27:29Z</time></trkpt>
<trkpt lat="28.346471" lon="99.787538">
<time>2015-08-06T09:27:30Z</time></trkpt>
<trkpt lat="28.346381" lon="99.787618">
<time>2015-08-06T09:27:31Z</time></trkpt>
<trkpt lat="28.346221" lon="99.787718">
<time>2015-08-06T09:27:32Z</time></trkpt>
<trkpt lat="28.346121" lon="99.787798">
<time>2015-08-06T09:27:33Z</time></trkpt>
<trkpt lat="28.345932" lon="99.787958">
<time>2015-08-06T09:27:34Z</time></trkpt>
<trkpt lat="28.345562" lon="99.788209">
<time>2015-08-06T09:27:35Z</time></trkpt>
<trkpt lat="28.345482" lon="99.788259">
<time>2015-08-06T09:27:36Z</time></trkpt>
<trkpt lat="28.345402" lon="99.788299">
<time>2015-08-06T09:27:37Z</time></trkpt>
<trkpt lat="28.345172" lon="99.788399">
<time>2015-08-06T09:27:38Z</time></trkpt>
<trkpt lat="28.344813" lon="99.788499">
<time>2015-08-06T09:27:39Z</time></trkpt>
<trkpt lat="28.344613" lon="99.788549">
<time>2015-08-06T09:27:40Z</time></trkpt>
<trkpt lat="28.344393" lon="99.788589">
<time>2015-08-06T09:27:41Z</time></trkpt>
<trkpt lat="28.344033" lon="99.788619">
<time>2015-08-06T09:27:42Z</time></trkpt>
<trkpt lat="28.343843" lon="99.788629">
<time>2015-08-06T09:27:43Z</time></trkpt>
<trkpt lat="28.343643" lon="99.788619">
<time>2015-08-06T09:27:44Z</time></trkpt>
<trkpt lat="28.343443" lon="99.788619">
<time>2015-08-06T09:27:45Z</time></trkpt>
<trkpt lat="28.343303" lon="99.788599">
<time>2015-08-06T09:27:46Z</time></trkpt>
<trkpt lat="28.343133" lon="99.788569">
<time>2015-08-06T09:27:47Z</time></trkpt>
<trkpt lat="28.342863" lon="99.788479">
<time>2015-08-06T09:27:48Z</time></trkpt>
<trkpt lat="28.342493" lon="99.788389">
<time>2015-08-06T09:27:49Z</time></trkpt>
<trkpt lat="28.341823" lon="99.788229">
<time>2015-08-06T09:27:50Z</time></trkpt>
<trkpt lat="28.341062" lon="99.788069">
<time>2015-08-06T09:27:51Z</time></trkpt>
<trkpt lat="28.340752" lon="99.787998">
<time>2015-08-06T09:27:52Z</time></trkpt>
<trkpt lat="28.340402" lon="99.787898">
<time>2015-08-06T09:27:53Z</time></trkpt>
<trkpt lat="28.340002" lon="99.787828">
<time>2015-08-06T09:27:54Z</time></trkpt>
<trkpt lat="28.339772" lon="99.787798">
<time>2015-08-06T09:27:55Z</time></trkpt>
<trkpt lat="28.339682" lon="99.787788">
<time>2015-08-06T09:27:56Z</time></trkpt>
<trkpt lat="28.339612" lon="99.787798">
<time>2015-08-06T09:27:57Z</time></trkpt>
<trkpt lat="28.339262" lon="99.787848">
<time>2015-08-06T09:27:58Z</time></trkpt>
<trkpt lat="28.339052" lon="99.787878">
<time>2015-08-06T09:27:59Z</time></trkpt>
<trkpt lat="28.338833" lon="99.787948">
<time>2015-08-06T09:28:00Z</time></trkpt>
<trkpt lat="28.338663" lon="99.787988">
<time>2015-08-06T09:28:01Z</time></trkpt>
<trkpt lat="28.338433" lon="99.788039">
<time>2015-08-06T09:28:02Z</time></trkpt>
<trkpt lat="28.337923" lon="99.788019">
<time>2015-08-06T09:28:03Z</time></trkpt>
<trkpt lat="28.337483" lon="99.787948">
<time>2015-08-06T09:28:04Z</time></trkpt>
<trkpt lat="28.337113" lon="99.787908">
<time>2015-08-06T09:28:05Z</time></trkpt>
<trkpt lat="28.336903" lon="99.787858">
<time>2015-08-06T09:28:06Z</time></trkpt>
<trkpt lat="28.336663" lon="99.787788">
<time>2015-08-06T09:28:07Z</time></trkpt>
<trkpt lat="28.336082" lon="99.787648">
<time>2015-08-06T09:28:08Z</time></trkpt>
<trkpt lat="28.335122" lon="99.787428">
<time>2015-08-06T09:28:09Z</time></trkpt>
<trkpt lat="28.334942" lon="99.787378">
<time>2015-08-06T09:28:10Z</time></trkpt>
<trkpt lat="28.334812" lon="99.787358">
<time>2015-08-06T09:28:11Z</time></trkpt>
<trkpt lat="28.334772" lon="99.787348">
<time>2015-08-06T09:28:12Z</time></trkpt>
<trkpt lat="28.334752" lon="99.787348">
<time>2015-08-06T09:28:13Z</time></trkpt>
<trkpt lat="28.334732" lon="99.787348">
<time>2015-08-06T09:28:14Z</time></trkpt>
<trkpt lat="28.334722" lon="99.787358">
<time>2015-08-06T09:28:15Z</time></trkpt>
<trkpt lat="28.334712" lon="99.787368">
<time>2015-08-06T09:28:16Z</time></trkpt>
<trkpt lat="28.334682" lon="99.787388">
<time>2015-08-06T09:28:17Z</time></trkpt>
<trkpt lat="28.334572" lon="99.787468">
<time>2015-08-06T09:28:18Z</time></trkpt>
<trkpt lat="28.334482" lon="99.787538">
<time>2015-08-06T09:28:19Z</time></trkpt>
<trkpt lat="28.334423" lon="99.787588">
<time>2015-08-06T09:28:20Z</time></trkpt>
<trkpt lat="28.334333" lon="99.787678">
<time>2015-08-06T09:28:21Z</time></trkpt>
<trkpt lat="28.334153" lon="99.787878">
<time>2015-08-06T09:28:22Z</time></trkpt>
<trkpt lat="28.333734" lon="99.788319">
<time>2015-08-06T09:28:23Z</time></trkpt>
<trkpt lat="28.333654" lon="99.788399">
<time>2015-08-06T09:28:24Z</time></trkpt>
<trkpt lat="28.333594" lon="99.788469">
<time>2015-08-06T09:28:25Z</time></trkpt>
<trkpt lat="28.333554" lon="99.788489">
<time>2015-08-06T09:28:26Z</time></trkpt>
<trkpt lat="28.333524" lon="99.788509">
<time>2015-08-06T09:28:27Z</time></trkpt>
<trkpt lat="28.333444" lon="99.788549">
<time>2015-08-06T09:28:28Z</time></trkpt>
<trkpt lat="28.333364" lon="99.788569">
<time>2015-08-06T09:28:29Z</time></trkpt>
<trkpt lat="28.332434" lon="99.78879">
<time>2015-08-06T09:28:30Z</time></trkpt>
<trkpt lat="28.331824" lon="99.78884">
<time>2015-08-06T09:28:31Z</time></trkpt>
<trkpt lat="28.331255" lon="99.78881">
<time>2015-08-06T09:28:32Z</time></trkpt>
<trkpt lat="28.330584" lon="99.78873">
<time>2015-08-06T09:28:33Z</time></trkpt>
<trkpt lat="28.329824" lon="99.78855">
<time>2015-08-06T09:28:34Z</time></trkpt>
<trkpt lat="28.329264" lon="99.788319">
<time>2015-08-06T09:28:35Z</time></trkpt>
<trkpt lat="28.328564" lon="99.787959">
<time>2015-08-06T09:28:36Z</time></trkpt>
<trkpt lat="28.328053" lon="99.787778">
<time>2015-08-06T09:28:37Z</time></trkpt>
<trkpt lat="28.327353" lon="99.787518">
<time>2015-08-06T09:28:38Z</time></trkpt>
<trkpt lat="28.326413" lon="99.787258">
<time>2015-08-06T09:28:39Z</time></trkpt>
<trkpt lat="28.323362" lon="99.786637">
<time>2015-08-06T09:28:40Z</time></trkpt>
<trkpt lat="28.319692" lon="99.785886">
<time>2015-08-06T09:28:41Z</time></trkpt>
<trkpt lat="28.316601" lon="99.785125">
<time>2015-08-06T09:28:42Z</time></trkpt>
<trkpt lat="28.315251" lon="99.784925">
<time>2015-08-06T09:28:43Z</time></trkpt>
<trkpt lat="28.314481" lon="99.784915">
<time>2015-08-06T09:28:44Z</time></trkpt>
<trkpt lat="28.313861" lon="99.784995">
<time>2015-08-06T09:28:45Z</time></trkpt>
<trkpt lat="28.312682" lon="99.785315">
<time>2015-08-06T09:28:46Z</time></trkpt>
<trkpt lat="28.311682" lon="99.785666">
<time>2015-08-06T09:28:47Z</time></trkpt>
<trkpt lat="28.310523" lon="99.786087">
<time>2015-08-06T09:28:48Z</time></trkpt>
<trkpt lat="28.309783" lon="99.786287">
<time>2015-08-06T09:28:49Z</time></trkpt>
<trkpt lat="28.309003" lon="99.786457">
<time>2015-08-06T09:28:50Z</time></trkpt>
<trkpt lat="28.308144" lon="99.786557">
<time>2015-08-06T09:28:51Z</time></trkpt>
<trkpt lat="28.307384" lon="99.786507">
<time>2015-08-06T09:28:52Z</time></trkpt>
<trkpt lat="28.306734" lon="99.786417">
<time>2015-08-06T09:28:53Z</time></trkpt>
<trkpt lat="28.306103" lon="99.786287">
<time>2015-08-06T09:28:54Z</time></trkpt>
<trkpt lat="28.305173" lon="99.785947">
<time>2015-08-06T09:28:55Z</time></trkpt>
<trkpt lat="28.304563" lon="99.785536">
<time>2015-08-06T09:28:56Z</time></trkpt>
<trkpt lat="28.303982" lon="99.785045">
<time>2015-08-06T09:28:57Z</time></trkpt>
<trkpt lat="28.303421" lon="99.784505">
<time>2015-08-06T09:28:58Z</time></trkpt>
<trkpt lat="28.30228" lon="99.782963">
<time>2015-08-06T09:28:59Z</time></trkpt>
<trkpt lat="28.301298" lon="99.781261">
<time>2015-08-06T09:29:00Z</time></trkpt>
<trkpt lat="28.300576" lon="99.779699">
<time>2015-08-06T09:29:01Z</time></trkpt>
<trkpt lat="28.300024" lon="99.777707">
<time>2015-08-06T09:29:02Z</time></trkpt>
<trkpt lat="28.299662" lon="99.775224">
<time>2015-08-06T09:29:03Z</time></trkpt>
<trkpt lat="28.2994" lon="99.773482">
<time>2015-08-06T09:29:04Z</time></trkpt>
<trkpt lat="28.298789" lon="99.772231">
<time>2015-08-06T09:29:05Z</time></trkpt>
<trkpt lat="28.298059" lon="99.771711">
<time>2015-08-06T09:29:06Z</time></trkpt>
<trkpt lat="28.297128" lon="99.771431">
<time>2015-08-06T09:29:07Z</time></trkpt>
<trkpt lat="28.295908" lon="99.771431">
<time>2015-08-06T09:29:08Z</time></trkpt>
<trkpt lat="28.294539" lon="99.771621">
<time>2015-08-06T09:29:09Z</time></trkpt>
<trkpt lat="28.293059" lon="99.772261">
<time>2015-08-06T09:29:10Z</time></trkpt>
<trkpt lat="28.287612" lon="99.774784">
<time>2015-08-06T09:29:11Z</time></trkpt>
<trkpt lat="28.286562" lon="99.775184">
<time>2015-08-06T09:29:12Z</time></trkpt>
<trkpt lat="28.285733" lon="99.775485">
<time>2015-08-06T09:29:13Z</time></trkpt>
<trkpt lat="28.284623" lon="99.775745">
<time>2015-08-06T09:29:14Z</time></trkpt>
<trkpt lat="28.283803" lon="99.775865">
<time>2015-08-06T09:29:15Z</time></trkpt>
<trkpt lat="28.283313" lon="99.775905">
<time>2015-08-06T09:29:16Z</time></trkpt>
<trkpt lat="28.282993" lon="99.775925">
<time>2015-08-06T09:29:17Z</time></trkpt>
<trkpt lat="28.282463" lon="99.775855">
<time>2015-08-06T09:29:18Z</time></trkpt>
<trkpt lat="28.282153" lon="99.775775">
<time>2015-08-06T09:29:19Z</time></trkpt>
<trkpt lat="28.281833" lon="99.775635">
<time>2015-08-06T09:29:20Z</time></trkpt>
<trkpt lat="28.281563" lon="99.775445">
<time>2015-08-06T09:29:21Z</time></trkpt>
<trkpt lat="28.281393" lon="99.775204">
<time>2015-08-06T09:29:22Z</time></trkpt>
<trkpt lat="28.281272" lon="99.774914">
<time>2015-08-06T09:29:23Z</time></trkpt>
<trkpt lat="28.281212" lon="99.774614">
<time>2015-08-06T09:29:24Z</time></trkpt>
<trkpt lat="28.281192" lon="99.774424">
<time>2015-08-06T09:29:25Z</time></trkpt>
<trkpt lat="28.281192" lon="99.774173">
<time>2015-08-06T09:29:26Z</time></trkpt>
<trkpt lat="28.281261" lon="99.773923">
<time>2015-08-06T09:29:27Z</time></trkpt>
<trkpt lat="28.281341" lon="99.773773">
<time>2015-08-06T09:29:28Z</time></trkpt>
<trkpt lat="28.281531" lon="99.773403">
<time>2015-08-06T09:29:29Z</time></trkpt>
<trkpt lat="28.281811" lon="99.772992">
<time>2015-08-06T09:29:30Z</time></trkpt>
<trkpt lat="28.28226" lon="99.772392">
<time>2015-08-06T09:29:31Z</time></trkpt>
<trkpt lat="28.284387" lon="99.769219">
<time>2015-08-06T09:29:32Z</time></trkpt>
<trkpt lat="28.284937" lon="99.768409">
<time>2015-08-06T09:29:33Z</time></trkpt>
<trkpt lat="28.285147" lon="99.768058">
<time>2015-08-06T09:29:34Z</time></trkpt>
<trkpt lat="28.285326" lon="99.767708">
<time>2015-08-06T09:29:35Z</time></trkpt>
<trkpt lat="28.285386" lon="99.767448">
<time>2015-08-06T09:29:36Z</time></trkpt>
<trkpt lat="28.285416" lon="99.767248">
<time>2015-08-06T09:29:37Z</time></trkpt>
<trkpt lat="28.285406" lon="99.766948">
<time>2015-08-06T09:29:38Z</time></trkpt>
<trkpt lat="28.285326" lon="99.766697">
<time>2015-08-06T09:29:39Z</time></trkpt>
<trkpt lat="28.285215" lon="99.766457">
<time>2015-08-06T09:29:40Z</time></trkpt>
<trkpt lat="28.285045" lon="99.766247">
<time>2015-08-06T09:29:41Z</time></trkpt>
<trkpt lat="28.284875" lon="99.766087">
<time>2015-08-06T09:29:42Z</time></trkpt>
<trkpt lat="28.284675" lon="99.765937">
<time>2015-08-06T09:29:43Z</time></trkpt>
<trkpt lat="28.284405" lon="99.765797">
<time>2015-08-06T09:29:44Z</time></trkpt>
<trkpt lat="28.284195" lon="99.765737">
<time>2015-08-06T09:29:45Z</time></trkpt>
<trkpt lat="28.283975" lon="99.765687">
<time>2015-08-06T09:29:46Z</time></trkpt>
<trkpt lat="28.283735" lon="99.765687">
<time>2015-08-06T09:29:47Z</time></trkpt>
<trkpt lat="28.283485" lon="99.765727">
<time>2015-08-06T09:29:48Z</time></trkpt>
<trkpt lat="28.277776" lon="99.766998">
<time>2015-08-06T09:29:49Z</time></trkpt>
<trkpt lat="28.277046" lon="99.767188">
<time>2015-08-06T09:29:50Z</time></trkpt>
<trkpt lat="28.276586" lon="99.767308">
<time>2015-08-06T09:29:51Z</time></trkpt>
<trkpt lat="28.276246" lon="99.767398">
<time>2015-08-06T09:29:52Z</time></trkpt>
<trkpt lat="28.275976" lon="99.767438">
<time>2015-08-06T09:29:53Z</time></trkpt>
<trkpt lat="28.275797" lon="99.767458">
<time>2015-08-06T09:29:54Z</time></trkpt>
<trkpt lat="28.275657" lon="99.767478">
<time>2015-08-06T09:29:55Z</time></trkpt>
<trkpt lat="28.275487" lon="99.767468">
<time>2015-08-06T09:29:56Z</time></trkpt>
<trkpt lat="28.275316" lon="99.767418">
<time>2015-08-06T09:29:57Z</time></trkpt>
<trkpt lat="28.275186" lon="99.767338">
<time>2015-08-06T09:29:58Z</time></trkpt>
<trkpt lat="28.275086" lon="99.767238">
<time>2015-08-06T09:29:59Z</time></trkpt>
<trkpt lat="28.274976" lon="99.767088">
<time>2015-08-06T09:30:00Z</time></trkpt>
<trkpt lat="28.274856" lon="99.766868">
<time>2015-08-06T09:30:01Z</time></trkpt>
<trkpt lat="28.274716" lon="99.766598">
<time>2015-08-06T09:30:02Z</time></trkpt>
<trkpt lat="28.274576" lon="99.766267">
<time>2015-08-06T09:30:03Z</time></trkpt>
<trkpt lat="28.273945" lon="99.764717">
<time>2015-08-06T09:30:04Z</time></trkpt>
<trkpt lat="28.273684" lon="99.764056">
<time>2015-08-06T09:30:05Z</time></trkpt>
<trkpt lat="28.273414" lon="99.763376">
<time>2015-08-06T09:30:06Z</time></trkpt>
<trkpt lat="28.272924" lon="99.762405">
<time>2015-08-06T09:30:07Z</time></trkpt>
<trkpt lat="28.272573" lon="99.761955">
<time>2015-08-06T09:30:08Z</time></trkpt>
<trkpt lat="28.272203" lon="99.761665">
<time>2015-08-06T09:30:09Z</time></trkpt>
<trkpt lat="28.272083" lon="99.761615">
<time>2015-08-06T09:30:10Z</time></trkpt>
<trkpt lat="28.271363" lon="99.761255">
<time>2015-08-06T09:30:11Z</time></trkpt>
<trkpt lat="28.270353" lon="99.760865">
<time>2015-08-06T09:30:12Z</time></trkpt>
<trkpt lat="28.269483" lon="99.760315">
<time>2015-08-06T09:30:13Z</time></trkpt>
<trkpt lat="28.268412" lon="99.759374">
<time>2015-08-06T09:30:14Z</time></trkpt>
<trkpt lat="28.267442" lon="99.758314">
<time>2015-08-06T09:30:15Z</time></trkpt>
<trkpt lat="28.266542" lon="99.757064">
<time>2015-08-06T09:30:16Z</time></trkpt>
<trkpt lat="28.265791" lon="99.755703">
<time>2015-08-06T09:30:17Z</time></trkpt>
<trkpt lat="28.265131" lon="99.754423">
<time>2015-08-06T09:30:18Z</time></trkpt>
<trkpt lat="28.264351" lon="99.752523">
<time>2015-08-06T09:30:19Z</time></trkpt>
<trkpt lat="28.263291" lon="99.750023">
<time>2015-08-06T09:30:20Z</time></trkpt>
<trkpt lat="28.262841" lon="99.749323">
<time>2015-08-06T09:30:21Z</time></trkpt>
<trkpt lat="28.262421" lon="99.748903">
<time>2015-08-06T09:30:22Z</time></trkpt>
<trkpt lat="28.261831" lon="99.748523">
<time>2015-08-06T09:30:23Z</time></trkpt>
<trkpt lat="28.261211" lon="99.748273">
<time>2015-08-06T09:30:24Z</time></trkpt>
<trkpt lat="28.260601" lon="99.748024">
<time>2015-08-06T09:30:25Z</time></trkpt>
<trkpt lat="28.259651" lon="99.747814">
<time>2015-08-06T09:30:26Z</time></trkpt>
<trkpt lat="28.258901" lon="99.747564">
<time>2015-08-06T09:30:27Z</time></trkpt>
<trkpt lat="28.258161" lon="99.747204">
<time>2015-08-06T09:30:28Z</time></trkpt>
<trkpt lat="28.258011" lon="99.747104">
<time>2015-08-06T09:30:29Z</time></trkpt>
<trkpt lat="28.257881" lon="99.747024">
<time>2015-08-06T09:30:30Z</time></trkpt>
<trkpt lat="28.257821" lon="99.747004">
<time>2015-08-06T09:30:31Z</time></trkpt>
<trkpt lat="28.257761" lon="99.746994">
<time>2015-08-06T09:30:32Z</time></trkpt>
<trkpt lat="28.257711" lon="99.746994">
<time>2015-08-06T09:30:33Z</time></trkpt>
<trkpt lat="28.257651" lon="99.747004">
<time>2015-08-06T09:30:34Z</time></trkpt>
<trkpt lat="28.257591" lon="99.747034">
<time>2015-08-06T09:30:35Z</time></trkpt>
<trkpt lat="28.257541" lon="99.747064">
<time>2015-08-06T09:30:36Z</time></trkpt>
<trkpt lat="28.257491" lon="99.747104">
<time>2015-08-06T09:30:37Z</time></trkpt>
<trkpt lat="28.257451" lon="99.747164">
<time>2015-08-06T09:30:38Z</time></trkpt>
<trkpt lat="28.257411" lon="99.747224">
<time>2015-08-06T09:30:39Z</time></trkpt>
<trkpt lat="28.257371" lon="99.747294">
<time>2015-08-06T09:30:40Z</time></trkpt>
<trkpt lat="28.257331" lon="99.747364">
<time>2015-08-06T09:30:41Z</time></trkpt>
<trkpt lat="28.257281" lon="99.747424">
<time>2015-08-06T09:30:42Z</time></trkpt>
<trkpt lat="28.257191" lon="99.747504">
<time>2015-08-06T09:30:43Z</time></trkpt>
<trkpt lat="28.257021" lon="99.747564">
<time>2015-08-06T09:30:44Z</time></trkpt>
<trkpt lat="28.256881" lon="99.747594">
<time>2015-08-06T09:30:45Z</time></trkpt>
<trkpt lat="28.256701" lon="99.747594">
<time>2015-08-06T09:30:46Z</time></trkpt>
<trkpt lat="28.256531" lon="99.747574">
<time>2015-08-06T09:30:47Z</time></trkpt>
<trkpt lat="28.256341" lon="99.747514">
<time>2015-08-06T09:30:48Z</time></trkpt>
<trkpt lat="28.256111" lon="99.747414">
<time>2015-08-06T09:30:49Z</time></trkpt>
<trkpt lat="28.255891" lon="99.747244">
<time>2015-08-06T09:30:50Z</time></trkpt>
<trkpt lat="28.255671" lon="99.747024">
<time>2015-08-06T09:30:51Z</time></trkpt>
<trkpt lat="28.255351" lon="99.746624">
<time>2015-08-06T09:30:52Z</time></trkpt>
<trkpt lat="28.255191" lon="99.746394">
<time>2015-08-06T09:30:53Z</time></trkpt>
<trkpt lat="28.255011" lon="99.746054">
<time>2015-08-06T09:30:54Z</time></trkpt>
<trkpt lat="28.254811" lon="99.745604">
<time>2015-08-06T09:30:55Z</time></trkpt>
<trkpt lat="28.254801" lon="99.745534">
<time>2015-08-06T09:30:56Z</time></trkpt>
<trkpt lat="28.254771" lon="99.745454">
<time>2015-08-06T09:30:57Z</time></trkpt>
<trkpt lat="28.254741" lon="99.745414">
<time>2015-08-06T09:30:58Z</time></trkpt>
<trkpt lat="28.254701" lon="99.745384">
<time>2015-08-06T09:30:59Z</time></trkpt>
<trkpt lat="28.254641" lon="99.745364">
<time>2015-08-06T09:31:00Z</time></trkpt>
<trkpt lat="28.254581" lon="99.745344">
<time>2015-08-06T09:31:01Z</time></trkpt>
<trkpt lat="28.254501" lon="99.745324">
<time>2015-08-06T09:31:02Z</time></trkpt>
<trkpt lat="28.254341" lon="99.745324">
<time>2015-08-06T09:31:03Z</time></trkpt>
<trkpt lat="28.254251" lon="99.745334">
<time>2015-08-06T09:31:04Z</time></trkpt>
<trkpt lat="28.254181" lon="99.745344">
<time>2015-08-06T09:31:05Z</time></trkpt>
<trkpt lat="28.254101" lon="99.745364">
<time>2015-08-06T09:31:06Z</time></trkpt>
<trkpt lat="28.254031" lon="99.745404">
<time>2015-08-06T09:31:07Z</time></trkpt>
<trkpt lat="28.253971" lon="99.745454">
<time>2015-08-06T09:31:08Z</time></trkpt>
<trkpt lat="28.253931" lon="99.745484">
<time>2015-08-06T09:31:09Z</time></trkpt>
<trkpt lat="28.253881" lon="99.745534">
<time>2015-08-06T09:31:10Z</time></trkpt>
<trkpt lat="28.253851" lon="99.745574">
<time>2015-08-06T09:31:11Z</time></trkpt>
<trkpt lat="28.253811" lon="99.745604">
<time>2015-08-06T09:31:12Z</time></trkpt>
<trkpt lat="28.253781" lon="99.745614">
<time>2015-08-06T09:31:13Z</time></trkpt>
<trkpt lat="28.253721" lon="99.745634">
<time>2015-08-06T09:31:14Z</time></trkpt>
<trkpt lat="28.253661" lon="99.745634">
<time>2015-08-06T09:31:15Z</time></trkpt>
<trkpt lat="28.253611" lon="99.745624">
<time>2015-08-06T09:31:16Z</time></trkpt>
<trkpt lat="28.253561" lon="99.745614">
<time>2015-08-06T09:31:17Z</time></trkpt>
<trkpt lat="28.253511" lon="99.745564">
<time>2015-08-06T09:31:18Z</time></trkpt>
<trkpt lat="28.253451" lon="99.745514">
<time>2015-08-06T09:31:19Z</time></trkpt>
<trkpt lat="28.253381" lon="99.745434">
<time>2015-08-06T09:31:20Z</time></trkpt>
<trkpt lat="28.253331" lon="99.745344">
<time>2015-08-06T09:31:21Z</time></trkpt>
<trkpt lat="28.253121" lon="99.744934">
<time>2015-08-06T09:31:22Z</time></trkpt>
<trkpt lat="28.252991" lon="99.744734">
<time>2015-08-06T09:31:23Z</time></trkpt>
<trkpt lat="28.252881" lon="99.744605">
<time>2015-08-06T09:31:24Z</time></trkpt>
<trkpt lat="28.252651" lon="99.744435">
<time>2015-08-06T09:31:25Z</time></trkpt>
<trkpt lat="28.252381" lon="99.744315">
<time>2015-08-06T09:31:26Z</time></trkpt>
<trkpt lat="28.251941" lon="99.744205">
<time>2015-08-06T09:31:27Z</time></trkpt>
<trkpt lat="28.251181" lon="99.744105">
<time>2015-08-06T09:31:28Z</time></trkpt>
<trkpt lat="28.250021" lon="99.743995">
<time>2015-08-06T09:31:29Z</time></trkpt>
<trkpt lat="28.249971" lon="99.743995">
<time>2015-08-06T09:31:30Z</time></trkpt>
<trkpt lat="28.249851" lon="99.744005">
<time>2015-08-06T09:31:31Z</time></trkpt>
<trkpt lat="28.249711" lon="99.744015">
<time>2015-08-06T09:31:32Z</time></trkpt>
<trkpt lat="28.249541" lon="99.744055">
<time>2015-08-06T09:31:33Z</time></trkpt>
<trkpt lat="28.249511" lon="99.744065">
<time>2015-08-06T09:31:34Z</time></trkpt>
<trkpt lat="28.249341" lon="99.744135">
<time>2015-08-06T09:31:35Z</time></trkpt>
<trkpt lat="28.248061" lon="99.744865">
<time>2015-08-06T09:31:36Z</time></trkpt>
<trkpt lat="28.247031" lon="99.745674">
<time>2015-08-06T09:31:37Z</time></trkpt>
<trkpt lat="28.245821" lon="99.746454">
<time>2015-08-06T09:31:38Z</time></trkpt>
<trkpt lat="28.244631" lon="99.747074">
<time>2015-08-06T09:31:39Z</time></trkpt>
<trkpt lat="28.243231" lon="99.747514">
<time>2015-08-06T09:31:40Z</time></trkpt>
<trkpt lat="28.241701" lon="99.747894">
<time>2015-08-06T09:31:41Z</time></trkpt>
<trkpt lat="28.240061" lon="99.748004">
<time>2015-08-06T09:31:42Z</time></trkpt>
<trkpt lat="28.237851" lon="99.747734">
<time>2015-08-06T09:31:43Z</time></trkpt>
<trkpt lat="28.235511" lon="99.747204">
<time>2015-08-06T09:31:44Z</time></trkpt>
<trkpt lat="28.233171" lon="99.746515">
<time>2015-08-06T09:31:45Z</time></trkpt>
<trkpt lat="28.231481" lon="99.745955">
<time>2015-08-06T09:31:46Z</time></trkpt>
<trkpt lat="28.228461" lon="99.744765">
<time>2015-08-06T09:31:47Z</time></trkpt>
<trkpt lat="28.225711" lon="99.743835">
<time>2015-08-06T09:31:48Z</time></trkpt>
<trkpt lat="28.223991" lon="99.742896">
<time>2015-08-06T09:31:49Z</time></trkpt>
<trkpt lat="28.222092" lon="99.741706">
<time>2015-08-06T09:31:50Z</time></trkpt>
<trkpt lat="28.220772" lon="99.740807">
<time>2015-08-06T09:31:51Z</time></trkpt>
<trkpt lat="28.220412" lon="99.740527">
<time>2015-08-06T09:31:52Z</time></trkpt>
<trkpt lat="28.219432" lon="99.739767">
<time>2015-08-06T09:31:53Z</time></trkpt>
<trkpt lat="28.219042" lon="99.739328">
<time>2015-08-06T09:31:54Z</time></trkpt>
<trkpt lat="28.218193" lon="99.738348">
<time>2015-08-06T09:31:55Z</time></trkpt>
<trkpt lat="28.216963" lon="99.737489">
<time>2015-08-06T09:31:56Z</time></trkpt>
<trkpt lat="28.215493" lon="99.736899">
<time>2015-08-06T09:31:57Z</time></trkpt>
<trkpt lat="28.214373" lon="99.736589">
<time>2015-08-06T09:31:58Z</time></trkpt>
<trkpt lat="28.212973" lon="99.736619">
<time>2015-08-06T09:31:59Z</time></trkpt>
<trkpt lat="28.212383" lon="99.736659">
<time>2015-08-06T09:32:00Z</time></trkpt>
<trkpt lat="28.211623" lon="99.736709">
<time>2015-08-06T09:32:01Z</time></trkpt>
<trkpt lat="28.209943" lon="99.736989">
<time>2015-08-06T09:32:02Z</time></trkpt>
<trkpt lat="28.207443" lon="99.737179">
<time>2015-08-06T09:32:03Z</time></trkpt>
<trkpt lat="28.205633" lon="99.737209">
<time>2015-08-06T09:32:04Z</time></trkpt>
<trkpt lat="28.204293" lon="99.737059">
<time>2015-08-06T09:32:05Z</time></trkpt>
<trkpt lat="28.202473" lon="99.73665">
<time>2015-08-06T09:32:06Z</time></trkpt>
<trkpt lat="28.200203" lon="99.73575">
<time>2015-08-06T09:32:07Z</time></trkpt>
<trkpt lat="28.197464" lon="99.734531">
<time>2015-08-06T09:32:08Z</time></trkpt>
<trkpt lat="28.194815" lon="99.733003">
<time>2015-08-06T09:32:09Z</time></trkpt>
<trkpt lat="28.191385" lon="99.731634">
<time>2015-08-06T09:32:10Z</time></trkpt>
<trkpt lat="28.189286" lon="99.730805">
<time>2015-08-06T09:32:11Z</time></trkpt>
<trkpt lat="28.188056" lon="99.730785">
<time>2015-08-06T09:32:12Z</time></trkpt>
<trkpt lat="28.186606" lon="99.730395">
<time>2015-08-06T09:32:13Z</time></trkpt>
<trkpt lat="28.185636" lon="99.730055">
<time>2015-08-06T09:32:14Z</time></trkpt>
<trkpt lat="28.184746" lon="99.729796">
<time>2015-08-06T09:32:15Z</time></trkpt>
<trkpt lat="28.182677" lon="99.729036">
<time>2015-08-06T09:32:16Z</time></trkpt>
<trkpt lat="28.181068" lon="99.727738">
<time>2015-08-06T09:32:17Z</time></trkpt>
<trkpt lat="28.180608" lon="99.727348">
<time>2015-08-06T09:32:18Z</time></trkpt>
<trkpt lat="28.180478" lon="99.727278">
<time>2015-08-06T09:32:19Z</time></trkpt>
<trkpt lat="28.180358" lon="99.727248">
<time>2015-08-06T09:32:20Z</time></trkpt>
<trkpt lat="28.180298" lon="99.727248">
<time>2015-08-06T09:32:21Z</time></trkpt>
<trkpt lat="28.180218" lon="99.727268">
<time>2015-08-06T09:32:22Z</time></trkpt>
<trkpt lat="28.180168" lon="99.727318">
<time>2015-08-06T09:32:23Z</time></trkpt>
<trkpt lat="28.180148" lon="99.727338">
<time>2015-08-06T09:32:24Z</time></trkpt>
<trkpt lat="28.180108" lon="99.727388">
<time>2015-08-06T09:32:25Z</time></trkpt>
<trkpt lat="28.179998" lon="99.727548">
<time>2015-08-06T09:32:26Z</time></trkpt>
<trkpt lat="28.179918" lon="99.727708">
<time>2015-08-06T09:32:27Z</time></trkpt>
<trkpt lat="28.179867" lon="99.727818">
<time>2015-08-06T09:32:28Z</time></trkpt>
<trkpt lat="28.179867" lon="99.727828">
<time>2015-08-06T09:32:29Z</time></trkpt>
<trkpt lat="28.179827" lon="99.727948">
<time>2015-08-06T09:32:30Z</time></trkpt>
<trkpt lat="28.179797" lon="99.728038">
<time>2015-08-06T09:32:31Z</time></trkpt>
<trkpt lat="28.179777" lon="99.728097">
<time>2015-08-06T09:32:32Z</time></trkpt>
<trkpt lat="28.179737" lon="99.728187">
<time>2015-08-06T09:32:33Z</time></trkpt>
<trkpt lat="28.179687" lon="99.728267">
<time>2015-08-06T09:32:34Z</time></trkpt>
<trkpt lat="28.179617" lon="99.728357">
<time>2015-08-06T09:32:35Z</time></trkpt>
<trkpt lat="28.179567" lon="99.728437">
<time>2015-08-06T09:32:36Z</time></trkpt>
<trkpt lat="28.179487" lon="99.728517">
<time>2015-08-06T09:32:37Z</time></trkpt>
<trkpt lat="28.179387" lon="99.728607">
<time>2015-08-06T09:32:38Z</time></trkpt>
<trkpt lat="28.179307" lon="99.728687">
<time>2015-08-06T09:32:39Z</time></trkpt>
<trkpt lat="28.179237" lon="99.728747">
<time>2015-08-06T09:32:40Z</time></trkpt>
<trkpt lat="28.179157" lon="99.728817">
<time>2015-08-06T09:32:41Z</time></trkpt>
<trkpt lat="28.179097" lon="99.728877">
<time>2015-08-06T09:32:42Z</time></trkpt>
<trkpt lat="28.179037" lon="99.728937">
<time>2015-08-06T09:32:43Z</time></trkpt>
<trkpt lat="28.178987" lon="99.729017">
<time>2015-08-06T09:32:44Z</time></trkpt>
<trkpt lat="28.178936" lon="99.729076">
<time>2015-08-06T09:32:45Z</time></trkpt>
<trkpt lat="28.178906" lon="99.729166">
<time>2015-08-06T09:32:46Z</time></trkpt>
<trkpt lat="28.178866" lon="99.729246">
<time>2015-08-06T09:32:47Z</time></trkpt>
<trkpt lat="28.178826" lon="99.729336">
<time>2015-08-06T09:32:48Z</time></trkpt>
<trkpt lat="28.178776" lon="99.729416">
<time>2015-08-06T09:32:49Z</time></trkpt>
<trkpt lat="28.178726" lon="99.729486">
<time>2015-08-06T09:32:50Z</time></trkpt>
<trkpt lat="28.178686" lon="99.729526">
<time>2015-08-06T09:32:51Z</time></trkpt>
<trkpt lat="28.178636" lon="99.729576">
<time>2015-08-06T09:32:52Z</time></trkpt>
<trkpt lat="28.178586" lon="99.729616">
<time>2015-08-06T09:32:53Z</time></trkpt>
<trkpt lat="28.178536" lon="99.729656">
<time>2015-08-06T09:32:54Z</time></trkpt>
<trkpt lat="28.178336" lon="99.729796">
<time>2015-08-06T09:32:55Z</time></trkpt>
<trkpt lat="28.178186" lon="99.729896">
<time>2015-08-06T09:32:56Z</time></trkpt>
<trkpt lat="28.178046" lon="99.729986">
<time>2015-08-06T09:32:57Z</time></trkpt>
<trkpt lat="28.177946" lon="99.730056">
<time>2015-08-06T09:32:58Z</time></trkpt>
<trkpt lat="28.177866" lon="99.730086">
<time>2015-08-06T09:32:59Z</time></trkpt>
<trkpt lat="28.177816" lon="99.730106">
<time>2015-08-06T09:33:00Z</time></trkpt>
<trkpt lat="28.177756" lon="99.730126">
<time>2015-08-06T09:33:01Z</time></trkpt>
<trkpt lat="28.177666" lon="99.730126">
<time>2015-08-06T09:33:02Z</time></trkpt>
<trkpt lat="28.177576" lon="99.730116">
<time>2015-08-06T09:33:03Z</time></trkpt>
<trkpt lat="28.177486" lon="99.730096">
<time>2015-08-06T09:33:04Z</time></trkpt>
<trkpt lat="28.177416" lon="99.730086">
<time>2015-08-06T09:33:05Z</time></trkpt>
<trkpt lat="28.177286" lon="99.730066">
<time>2015-08-06T09:33:06Z</time></trkpt>
<trkpt lat="28.177196" lon="99.730056">
<time>2015-08-06T09:33:07Z</time></trkpt>
<trkpt lat="28.177096" lon="99.730056">
<time>2015-08-06T09:33:08Z</time></trkpt>
<trkpt lat="28.177016" lon="99.730066">
<time>2015-08-06T09:33:09Z</time></trkpt>
<trkpt lat="28.176916" lon="99.730116">
<time>2015-08-06T09:33:10Z</time></trkpt>
<trkpt lat="28.176816" lon="99.730185">
<time>2015-08-06T09:33:11Z</time></trkpt>
<trkpt lat="28.176725" lon="99.730265">
<time>2015-08-06T09:33:12Z</time></trkpt>
<trkpt lat="28.176655" lon="99.730345">
<time>2015-08-06T09:33:13Z</time></trkpt>
<trkpt lat="28.176575" lon="99.730435">
<time>2015-08-06T09:33:14Z</time></trkpt>
<trkpt lat="28.176515" lon="99.730525">
<time>2015-08-06T09:33:15Z</time></trkpt>
<trkpt lat="28.176435" lon="99.730655">
<time>2015-08-06T09:33:16Z</time></trkpt>
<trkpt lat="28.176405" lon="99.730745">
<time>2015-08-06T09:33:17Z</time></trkpt>
<trkpt lat="28.176385" lon="99.730825">
<time>2015-08-06T09:33:18Z</time></trkpt>
<trkpt lat="28.176355" lon="99.730965">
<time>2015-08-06T09:33:19Z</time></trkpt>
<trkpt lat="28.176325" lon="99.731055">
<time>2015-08-06T09:33:20Z</time></trkpt>
<trkpt lat="28.176295" lon="99.731145">
<time>2015-08-06T09:33:21Z</time></trkpt>
<trkpt lat="28.176265" lon="99.731185">
<time>2015-08-06T09:33:22Z</time></trkpt>
<trkpt lat="28.176225" lon="99.731235">
<time>2015-08-06T09:33:23Z</time></trkpt>
<trkpt lat="28.176185" lon="99.731295">
<time>2015-08-06T09:33:24Z</time></trkpt>
<trkpt lat="28.176105" lon="99.731354">
<time>2015-08-06T09:33:25Z</time></trkpt>
<trkpt lat="28.176045" lon="99.731404">
<time>2015-08-06T09:33:26Z</time></trkpt>
<trkpt lat="28.175985" lon="99.731434">
<time>2015-08-06T09:33:27Z</time></trkpt>
<trkpt lat="28.175905" lon="99.731484">
<time>2015-08-06T09:33:28Z</time></trkpt>
<trkpt lat="28.175775" lon="99.731534">
<time>2015-08-06T09:33:29Z</time></trkpt>
<trkpt lat="28.175594" lon="99.731604">
<time>2015-08-06T09:33:30Z</time></trkpt>
<trkpt lat="28.175424" lon="99.731664">
<time>2015-08-06T09:33:31Z</time></trkpt>
<trkpt lat="28.175244" lon="99.731724">
<time>2015-08-06T09:33:32Z</time></trkpt>
<trkpt lat="28.175124" lon="99.731784">
<time>2015-08-06T09:33:33Z</time></trkpt>
<trkpt lat="28.174954" lon="99.731874">
<time>2015-08-06T09:33:34Z</time></trkpt>
<trkpt lat="28.174774" lon="99.731944">
<time>2015-08-06T09:33:35Z</time></trkpt>
<trkpt lat="28.174704" lon="99.731974">
<time>2015-08-06T09:33:36Z</time></trkpt>
<trkpt lat="28.174634" lon="99.732004">
<time>2015-08-06T09:33:37Z</time></trkpt>
<trkpt lat="28.174544" lon="99.732034">
<time>2015-08-06T09:33:38Z</time></trkpt>
<trkpt lat="28.174494" lon="99.732044">
<time>2015-08-06T09:33:39Z</time></trkpt>
<trkpt lat="28.174424" lon="99.732064">
<time>2015-08-06T09:33:40Z</time></trkpt>
<trkpt lat="28.174304" lon="99.732094">
<time>2015-08-06T09:33:41Z</time></trkpt>
<trkpt lat="28.174074" lon="99.732154">
<time>2015-08-06T09:33:42Z</time></trkpt>
<trkpt lat="28.173864" lon="99.732204">
<time>2015-08-06T09:33:43Z</time></trkpt>
<trkpt lat="28.173764" lon="99.732234">
<time>2015-08-06T09:33:44Z</time></trkpt>
<trkpt lat="28.173694" lon="99.732254">
<time>2015-08-06T09:33:45Z</time></trkpt>
<trkpt lat="28.173644" lon="99.732284">
<time>2015-08-06T09:33:46Z</time></trkpt>
<trkpt lat="28.173584" lon="99.732324">
<time>2015-08-06T09:33:47Z</time></trkpt>
<trkpt lat="28.173434" lon="99.732454">
<time>2015-08-06T09:33:48Z</time></trkpt>
<trkpt lat="28.173274" lon="99.732573">
<time>2015-08-06T09:33:49Z</time></trkpt>
<trkpt lat="28.173154" lon="99.732673">
<time>2015-08-06T09:33:50Z</time></trkpt>
<trkpt lat="28.172863" lon="99.732913">
<time>2015-08-06T09:33:51Z</time></trkpt>
<trkpt lat="28.172573" lon="99.733153">
<time>2015-08-06T09:33:52Z</time></trkpt>
<trkpt lat="28.172193" lon="99.733473">
<time>2015-08-06T09:33:53Z</time></trkpt>
<trkpt lat="28.172013" lon="99.733623">
<time>2015-08-06T09:33:54Z</time></trkpt>
<trkpt lat="28.171963" lon="99.733673">
<time>2015-08-06T09:33:55Z</time></trkpt>
<trkpt lat="28.171893" lon="99.733743">
<time>2015-08-06T09:33:56Z</time></trkpt>
<trkpt lat="28.171803" lon="99.733852">
<time>2015-08-06T09:33:57Z</time></trkpt>
<trkpt lat="28.171613" lon="99.734102">
<time>2015-08-06T09:33:58Z</time></trkpt>
<trkpt lat="28.171563" lon="99.734162">
<time>2015-08-06T09:33:59Z</time></trkpt>
<trkpt lat="28.171493" lon="99.734242">
<time>2015-08-06T09:34:00Z</time></trkpt>
<trkpt lat="28.171433" lon="99.734312">
<time>2015-08-06T09:34:01Z</time></trkpt>
<trkpt lat="28.171363" lon="99.734392">
<time>2015-08-06T09:34:02Z</time></trkpt>
<trkpt lat="28.171292" lon="99.734462">
<time>2015-08-06T09:34:03Z</time></trkpt>
<trkpt lat="28.171222" lon="99.734512">
<time>2015-08-06T09:34:04Z</time></trkpt>
<trkpt lat="28.170962" lon="99.734762">
<time>2015-08-06T09:34:05Z</time></trkpt>
<trkpt lat="28.170822" lon="99.734902">
<time>2015-08-06T09:34:06Z</time></trkpt>
<trkpt lat="28.170712" lon="99.735012">
<time>2015-08-06T09:34:07Z</time></trkpt>
<trkpt lat="28.170602" lon="99.735142">
<time>2015-08-06T09:34:08Z</time></trkpt>
<trkpt lat="28.170522" lon="99.735241">
<time>2015-08-06T09:34:09Z</time></trkpt>
<trkpt lat="28.170442" lon="99.735331">
<time>2015-08-06T09:34:10Z</time></trkpt>
<trkpt lat="28.170382" lon="99.735401">
<time>2015-08-06T09:34:11Z</time></trkpt>
<trkpt lat="28.170312" lon="99.735451">
<time>2015-08-06T09:34:12Z</time></trkpt>
<trkpt lat="28.170232" lon="99.735521">
<time>2015-08-06T09:34:13Z</time></trkpt>
<trkpt lat="28.170122" lon="99.735601">
<time>2015-08-06T09:34:14Z</time></trkpt>
<trkpt lat="28.169952" lon="99.735711">
<time>2015-08-06T09:34:15Z</time></trkpt>
<trkpt lat="28.169862" lon="99.735761">
<time>2015-08-06T09:34:16Z</time></trkpt>
<trkpt lat="28.169802" lon="99.735811">
<time>2015-08-06T09:34:17Z</time></trkpt>
<trkpt lat="28.169752" lon="99.735851">
<time>2015-08-06T09:34:18Z</time></trkpt>
<trkpt lat="28.169712" lon="99.735881">
<time>2015-08-06T09:34:19Z</time></trkpt>
<trkpt lat="28.169672" lon="99.735931">
<time>2015-08-06T09:34:20Z</time></trkpt>
<trkpt lat="28.169592" lon="99.736041">
<time>2015-08-06T09:34:21Z</time></trkpt>
<trkpt lat="28.169531" lon="99.736121">
<time>2015-08-06T09:34:22Z</time></trkpt>
<trkpt lat="28.169501" lon="99.736171">
<time>2015-08-06T09:34:23Z</time></trkpt>
<trkpt lat="28.169451" lon="99.736241">
<time>2015-08-06T09:34:24Z</time></trkpt>
<trkpt lat="28.169401" lon="99.736311">
<time>2015-08-06T09:34:25Z</time></trkpt>
<trkpt lat="28.169371" lon="99.736351">
<time>2015-08-06T09:34:26Z</time></trkpt>
<trkpt lat="28.169311" lon="99.736411">
<time>2015-08-06T09:34:27Z</time></trkpt>
<trkpt lat="28.169231" lon="99.736481">
<time>2015-08-06T09:34:28Z</time></trkpt>
<trkpt lat="28.169191" lon="99.736511">
<time>2015-08-06T09:34:29Z</time></trkpt>
<trkpt lat="28.169141" lon="99.736541">
<time>2015-08-06T09:34:30Z</time></trkpt>
<trkpt lat="28.169021" lon="99.736611">
<time>2015-08-06T09:34:31Z</time></trkpt>
<trkpt lat="28.168871" lon="99.736691">
<time>2015-08-06T09:34:32Z</time></trkpt>
<trkpt lat="28.168781" lon="99.73676">
<time>2015-08-06T09:34:33Z</time></trkpt>
<trkpt lat="28.168731" lon="99.73679">
<time>2015-08-06T09:34:34Z</time></trkpt>
<trkpt lat="28.168661" lon="99.73683">
<time>2015-08-06T09:34:35Z</time></trkpt>
<trkpt lat="28.168601" lon="99.73687">
<time>2015-08-06T09:34:36Z</time></trkpt>
<trkpt lat="28.168551" lon="99.73692">
<time>2015-08-06T09:34:37Z</time></trkpt>
<trkpt lat="28.168491" lon="99.737">
<time>2015-08-06T09:34:38Z</time></trkpt>
<trkpt lat="28.168431" lon="99.73707">
<time>2015-08-06T09:34:39Z</time></trkpt>
<trkpt lat="28.168391" lon="99.73716">
<time>2015-08-06T09:34:40Z</time></trkpt>
<trkpt lat="28.168361" lon="99.73722">
<time>2015-08-06T09:34:41Z</time></trkpt>
<trkpt lat="28.168321" lon="99.73728">
<time>2015-08-06T09:34:42Z</time></trkpt>
<trkpt lat="28.168301" lon="99.7373">
<time>2015-08-06T09:34:43Z</time></trkpt>
<trkpt lat="28.168281" lon="99.73733">
<time>2015-08-06T09:34:44Z</time></trkpt>
<trkpt lat="28.168251" lon="99.73736">
<time>2015-08-06T09:34:45Z</time></trkpt>
<trkpt lat="28.168211" lon="99.73739">
<time>2015-08-06T09:34:46Z</time></trkpt>
<trkpt lat="28.168181" lon="99.7374">
<time>2015-08-06T09:34:47Z</time></trkpt>
<trkpt lat="28.168131" lon="99.73742">
<time>2015-08-06T09:34:48Z</time></trkpt>
<trkpt lat="28.168061" lon="99.73744">
<time>2015-08-06T09:34:49Z</time></trkpt>
<trkpt lat="28.168021" lon="99.73744">
<time>2015-08-06T09:34:50Z</time></trkpt>
<trkpt lat="28.167971" lon="99.73744">
<time>2015-08-06T09:34:51Z</time></trkpt>
<trkpt lat="28.167931" lon="99.73744">
<time>2015-08-06T09:34:52Z</time></trkpt>
<trkpt lat="28.167911" lon="99.73745">
<time>2015-08-06T09:34:53Z</time></trkpt>
<trkpt lat="28.167881" lon="99.73746">
<time>2015-08-06T09:34:54Z</time></trkpt>
<trkpt lat="28.167831" lon="99.73748">
<time>2015-08-06T09:34:55Z</time></trkpt>
<trkpt lat="28.167761" lon="99.73751">
<time>2015-08-06T09:34:56Z</time></trkpt>
<trkpt lat="28.167651" lon="99.73754">
<time>2015-08-06T09:34:57Z</time></trkpt>
<trkpt lat="28.167611" lon="99.73754">
<time>2015-08-06T09:34:58Z</time></trkpt>
<trkpt lat="28.167561" lon="99.73754">
<time>2015-08-06T09:34:59Z</time></trkpt>
<trkpt lat="28.167331" lon="99.73753">
<time>2015-08-06T09:35:00Z</time></trkpt>
<trkpt lat="28.167051" lon="99.73752">
<time>2015-08-06T09:35:01Z</time></trkpt>
<trkpt lat="28.166871" lon="99.73751">
<time>2015-08-06T09:35:02Z</time></trkpt>
<trkpt lat="28.166751" lon="99.7375">
<time>2015-08-06T09:35:03Z</time></trkpt>
<trkpt lat="28.166721" lon="99.73751">
<time>2015-08-06T09:35:04Z</time></trkpt>
<trkpt lat="28.166691" lon="99.73751">
<time>2015-08-06T09:35:05Z</time></trkpt>
<trkpt lat="28.166621" lon="99.73752">
<time>2015-08-06T09:35:06Z</time></trkpt>
<trkpt lat="28.166561" lon="99.73754">
<time>2015-08-06T09:35:07Z</time></trkpt>
<trkpt lat="28.166501" lon="99.73756">
<time>2015-08-06T09:35:08Z</time></trkpt>
<trkpt lat="28.166481" lon="99.73756">
<time>2015-08-06T09:35:09Z</time></trkpt>
<trkpt lat="28.166461" lon="99.73756">
<time>2015-08-06T09:35:10Z</time></trkpt>
<trkpt lat="28.166421" lon="99.73757">
<time>2015-08-06T09:35:11Z</time></trkpt>
<trkpt lat="28.166301" lon="99.73758">
<time>2015-08-06T09:35:12Z</time></trkpt>
<trkpt lat="28.166251" lon="99.73759">
<time>2015-08-06T09:35:13Z</time></trkpt>
<trkpt lat="28.166131" lon="99.7376">
<time>2015-08-06T09:35:14Z</time></trkpt>
<trkpt lat="28.166081" lon="99.7376">
<time>2015-08-06T09:35:15Z</time></trkpt>
<trkpt lat="28.166041" lon="99.73761">
<time>2015-08-06T09:35:16Z</time></trkpt>
<trkpt lat="28.166031" lon="99.73761">
<time>2015-08-06T09:35:17Z</time></trkpt>
<trkpt lat="28.166021" lon="99.73761">
<time>2015-08-06T09:35:18Z</time></trkpt>
<trkpt lat="28.166001" lon="99.73761">
<time>2015-08-06T09:35:19Z</time></trkpt>
<trkpt lat="28.165991" lon="99.73762">
<time>2015-08-06T09:35:20Z</time></trkpt>
<trkpt lat="28.165931" lon="99.73763">
<time>2015-08-06T09:35:21Z</time></trkpt>
<trkpt lat="28.165871" lon="99.73765">
<time>2015-08-06T09:35:22Z</time></trkpt>
<trkpt lat="28.165831" lon="99.73765">
<time>2015-08-06T09:35:23Z</time></trkpt>
<trkpt lat="28.165791" lon="99.73766">
<time>2015-08-06T09:35:24Z</time></trkpt>
<trkpt lat="28.16567" lon="99.73768">
<time>2015-08-06T09:35:25Z</time></trkpt>
<trkpt lat="28.16557" lon="99.73769">
<time>2015-08-06T09:35:26Z</time></trkpt>
<trkpt lat="28.16549" lon="99.7377">
<time>2015-08-06T09:35:27Z</time></trkpt>
<trkpt lat="28.1654" lon="99.7377">
<time>2015-08-06T09:35:28Z</time></trkpt>
<trkpt lat="28.16532" lon="99.73771">
<time>2015-08-06T09:35:29Z</time></trkpt>
<trkpt lat="28.16527" lon="99.73772">
<time>2015-08-06T09:35:30Z</time></trkpt>
<trkpt lat="28.16522" lon="99.73774">
<time>2015-08-06T09:35:31Z</time></trkpt>
<trkpt lat="28.16517" lon="99.73775">
<time>2015-08-06T09:35:32Z</time></trkpt>
<trkpt lat="28.16514" lon="99.73775">
<time>2015-08-06T09:35:33Z</time></trkpt>
<trkpt lat="28.16506" lon="99.73775">
<time>2015-08-06T09:35:34Z</time></trkpt>
<trkpt lat="28.16501" lon="99.73776">
<time>2015-08-06T09:35:35Z</time></trkpt>
<trkpt lat="28.16495" lon="99.73776">
<time>2015-08-06T09:35:36Z</time></trkpt>
<trkpt lat="28.16489" lon="99.73777">
<time>2015-08-06T09:35:37Z</time></trkpt>
<trkpt lat="28.16483" lon="99.73778">
<time>2015-08-06T09:35:38Z</time></trkpt>
<trkpt lat="28.16478" lon="99.73778">
<time>2015-08-06T09:35:39Z</time></trkpt>
<trkpt lat="28.16475" lon="99.73778">
<time>2015-08-06T09:35:40Z</time></trkpt>
<trkpt lat="28.16472" lon="99.73777">
<time>2015-08-06T09:35:41Z</time></trkpt>
<trkpt lat="28.16465" lon="99.73776">
<time>2015-08-06T09:35:42Z</time></trkpt>
<trkpt lat="28.16456" lon="99.73774">
<time>2015-08-06T09:35:43Z</time></trkpt>
<trkpt lat="28.16443" lon="99.73772">
<time>2015-08-06T09:35:44Z</time></trkpt>
<trkpt lat="28.16428" lon="99.73768">
<time>2015-08-06T09:35:45Z</time></trkpt>
<trkpt lat="28.16422" lon="99.73766">
<time>2015-08-06T09:35:46Z</time></trkpt>
<trkpt lat="28.16416" lon="99.73764">
<time>2015-08-06T09:35:47Z</time></trkpt>
<trkpt lat="28.16404" lon="99.73759">
<time>2015-08-06T09:35:48Z</time></trkpt>
<trkpt lat="28.16371" lon="99.73743">
<time>2015-08-06T09:35:49Z</time></trkpt>
<trkpt lat="28.16354" lon="99.73736">
<time>2015-08-06T09:35:50Z</time></trkpt>
<trkpt lat="28.16351" lon="99.73735">
<time>2015-08-06T09:35:51Z</time></trkpt>
<trkpt lat="28.16348" lon="99.73735">
<time>2015-08-06T09:35:52Z</time></trkpt>
<trkpt lat="28.16343" lon="99.73733">
<time>2015-08-06T09:35:53Z</time></trkpt>
<trkpt lat="28.16337" lon="99.73732">
<time>2015-08-06T09:35:54Z</time></trkpt>
<trkpt lat="28.16334" lon="99.73731">
<time>2015-08-06T09:35:55Z</time></trkpt>
<trkpt lat="28.1633" lon="99.73731">
<time>2015-08-06T09:35:56Z</time></trkpt>
<trkpt lat="28.16324" lon="99.7373">
<time>2015-08-06T09:35:57Z</time></trkpt>
<trkpt lat="28.16315" lon="99.7373">
<time>2015-08-06T09:35:58Z</time></trkpt>
<trkpt lat="28.16302" lon="99.7373">
<time>2015-08-06T09:35:59Z</time></trkpt>
<trkpt lat="28.16284" lon="99.7373">
<time>2015-08-06T09:36:00Z</time></trkpt>
<trkpt lat="28.16272" lon="99.73731">
<time>2015-08-06T09:36:01Z</time></trkpt>
<trkpt lat="28.16267" lon="99.73732">
<time>2015-08-06T09:36:02Z</time></trkpt>
<trkpt lat="28.16262" lon="99.73733">
<time>2015-08-06T09:36:03Z</time></trkpt>
<trkpt lat="28.16258" lon="99.73735">
<time>2015-08-06T09:36:04Z</time></trkpt>
<trkpt lat="28.16255" lon="99.73736">
<time>2015-08-06T09:36:05Z</time></trkpt>
<trkpt lat="28.16251" lon="99.73739">
<time>2015-08-06T09:36:06Z</time></trkpt>
<trkpt lat="28.16233" lon="99.73752">
<time>2015-08-06T09:36:07Z</time></trkpt>
<trkpt lat="28.16226" lon="99.73757">
<time>2015-08-06T09:36:08Z</time></trkpt>
<trkpt lat="28.1622" lon="99.73762">
<time>2015-08-06T09:36:09Z</time></trkpt>
<trkpt lat="28.16216" lon="99.73765">
<time>2015-08-06T09:36:10Z</time></trkpt>
<trkpt lat="28.16211" lon="99.73768">
<time>2015-08-06T09:36:11Z</time></trkpt>
<trkpt lat="28.16207" lon="99.7377">
<time>2015-08-06T09:36:12Z</time></trkpt>
<trkpt lat="28.16203" lon="99.73771">
<time>2015-08-06T09:36:13Z</time></trkpt>
<trkpt lat="28.16198" lon="99.73773">
<time>2015-08-06T09:36:14Z</time></trkpt>
<trkpt lat="28.16193" lon="99.73773">
<time>2015-08-06T09:36:15Z</time></trkpt>
<trkpt lat="28.16188" lon="99.73774">
<time>2015-08-06T09:36:16Z</time></trkpt>
<trkpt lat="28.16181" lon="99.73774">
<time>2015-08-06T09:36:17Z</time></trkpt>
<trkpt lat="28.16173" lon="99.73774">
<time>2015-08-06T09:36:18Z</time></trkpt>
<trkpt lat="28.16166" lon="99.73774">
<time>2015-08-06T09:36:19Z</time></trkpt>
<trkpt lat="28.16158" lon="99.73773">
<time>2015-08-06T09:36:20Z</time></trkpt>
<trkpt lat="28.16147" lon="99.73772">
<time>2015-08-06T09:36:21Z</time></trkpt>
<trkpt lat="28.16142" lon="99.73771">
<time>2015-08-06T09:36:22Z</time></trkpt>
<trkpt lat="28.16137" lon="99.73771">
<time>2015-08-06T09:36:23Z</time></trkpt>
<trkpt lat="28.16133" lon="99.73771">
<time>2015-08-06T09:36:24Z</time></trkpt>
<trkpt lat="28.16128" lon="99.73772">
<time>2015-08-06T09:36:25Z</time></trkpt>
<trkpt lat="28.16126" lon="99.73773">
<time>2015-08-06T09:36:26Z</time></trkpt>
<trkpt lat="28.16122" lon="99.73774">
<time>2015-08-06T09:36:27Z</time></trkpt>
<trkpt lat="28.16117" lon="99.73776">
<time>2015-08-06T09:36:28Z</time></trkpt>
<trkpt lat="28.16113" lon="99.73778">
<time>2015-08-06T09:36:29Z</time></trkpt>
<trkpt lat="28.16105" lon="99.73784">
<time>2015-08-06T09:36:30Z</time></trkpt>
<trkpt lat="28.16099" lon="99.73789">
<time>2015-08-06T09:36:31Z</time></trkpt>
<trkpt lat="28.16093" lon="99.73795">
<time>2015-08-06T09:36:32Z</time></trkpt>
<trkpt lat="28.16087" lon="99.738">
<time>2015-08-06T09:36:33Z</time></trkpt>
<trkpt lat="28.16081" lon="99.73805">
<time>2015-08-06T09:36:34Z</time></trkpt>
<trkpt lat="28.16077" lon="99.73808">
<time>2015-08-06T09:36:35Z</time></trkpt>
<trkpt lat="28.16072" lon="99.73811">
<time>2015-08-06T09:36:36Z</time></trkpt>
<trkpt lat="28.16068" lon="99.73813">
<time>2015-08-06T09:36:37Z</time></trkpt>
<trkpt lat="28.1606" lon="99.73817">
<time>2015-08-06T09:36:38Z</time></trkpt>
<trkpt lat="28.16053" lon="99.73821">
<time>2015-08-06T09:36:39Z</time></trkpt>
<trkpt lat="28.16044" lon="99.73827">
<time>2015-08-06T09:36:40Z</time></trkpt>
<trkpt lat="28.1604" lon="99.7383">
<time>2015-08-06T09:36:41Z</time></trkpt>
<trkpt lat="28.16036" lon="99.73834">
<time>2015-08-06T09:36:42Z</time></trkpt>
<trkpt lat="28.16028" lon="99.73842">
<time>2015-08-06T09:36:43Z</time></trkpt>
<trkpt lat="28.16008" lon="99.73865">
<time>2015-08-06T09:36:44Z</time></trkpt>
<trkpt lat="28.15994" lon="99.738819">
<time>2015-08-06T09:36:45Z</time></trkpt>
<trkpt lat="28.15986" lon="99.738909">
<time>2015-08-06T09:36:46Z</time></trkpt>
<trkpt lat="28.15982" lon="99.738949">
<time>2015-08-06T09:36:47Z</time></trkpt>
<trkpt lat="28.15978" lon="99.738979">
<time>2015-08-06T09:36:48Z</time></trkpt>
<trkpt lat="28.15974" lon="99.739009">
<time>2015-08-06T09:36:49Z</time></trkpt>
<trkpt lat="28.159709" lon="99.739029">
<time>2015-08-06T09:36:50Z</time></trkpt>
<trkpt lat="28.159659" lon="99.739059">
<time>2015-08-06T09:36:51Z</time></trkpt>
<trkpt lat="28.159499" lon="99.739139">
<time>2015-08-06T09:36:52Z</time></trkpt>
<trkpt lat="28.159409" lon="99.739199">
<time>2015-08-06T09:36:53Z</time></trkpt>
<trkpt lat="28.159299" lon="99.739259">
<time>2015-08-06T09:36:54Z</time></trkpt>
<trkpt lat="28.159109" lon="99.739389">
<time>2015-08-06T09:36:55Z</time></trkpt>
<trkpt lat="28.158949" lon="99.739489">
<time>2015-08-06T09:36:56Z</time></trkpt>
<trkpt lat="28.158859" lon="99.739529">
<time>2015-08-06T09:36:57Z</time></trkpt>
<trkpt lat="28.158759" lon="99.739579">
<time>2015-08-06T09:36:58Z</time></trkpt>
<trkpt lat="28.158719" lon="99.739609">
<time>2015-08-06T09:36:59Z</time></trkpt>
<trkpt lat="28.158669" lon="99.739639">
<time>2015-08-06T09:37:00Z</time></trkpt>
<trkpt lat="28.158609" lon="99.739699">
<time>2015-08-06T09:37:01Z</time></trkpt>
<trkpt lat="28.158559" lon="99.739759">
<time>2015-08-06T09:37:02Z</time></trkpt>
<trkpt lat="28.158479" lon="99.739859">
<time>2015-08-06T09:37:03Z</time></trkpt>
<trkpt lat="28.158409" lon="99.739939">
<time>2015-08-06T09:37:04Z</time></trkpt>
<trkpt lat="28.158299" lon="99.740089">
<time>2015-08-06T09:37:05Z</time></trkpt>
<trkpt lat="28.158239" lon="99.740169">
<time>2015-08-06T09:37:06Z</time></trkpt>
<trkpt lat="28.158159" lon="99.740299">
<time>2015-08-06T09:37:07Z</time></trkpt>
<trkpt lat="28.158069" lon="99.740419">
<time>2015-08-06T09:37:08Z</time></trkpt>
<trkpt lat="28.157949" lon="99.740619">
<time>2015-08-06T09:37:09Z</time></trkpt>
<trkpt lat="28.157889" lon="99.740719">
<time>2015-08-06T09:37:10Z</time></trkpt>
<trkpt lat="28.157839" lon="99.740778">
<time>2015-08-06T09:37:11Z</time></trkpt>
<trkpt lat="28.157799" lon="99.740828">
<time>2015-08-06T09:37:12Z</time></trkpt>
<trkpt lat="28.157759" lon="99.740878">
<time>2015-08-06T09:37:13Z</time></trkpt>
<trkpt lat="28.157689" lon="99.740938">
<time>2015-08-06T09:37:14Z</time></trkpt>
<trkpt lat="28.157609" lon="99.740978">
<time>2015-08-06T09:37:15Z</time></trkpt>
<trkpt lat="28.157509" lon="99.741008">
<time>2015-08-06T09:37:16Z</time></trkpt>
<trkpt lat="28.157179" lon="99.741078">
<time>2015-08-06T09:37:17Z</time></trkpt>
<trkpt lat="28.156949" lon="99.741128">
<time>2015-08-06T09:37:18Z</time></trkpt>
<trkpt lat="28.156819" lon="99.741158">
<time>2015-08-06T09:37:19Z</time></trkpt>
<trkpt lat="28.156458" lon="99.741228">
<time>2015-08-06T09:37:20Z</time></trkpt>
<trkpt lat="28.156128" lon="99.741308">
<time>2015-08-06T09:37:21Z</time></trkpt>
<trkpt lat="28.156038" lon="99.741338">
<time>2015-08-06T09:37:22Z</time></trkpt>
<trkpt lat="28.155988" lon="99.741358">
<time>2015-08-06T09:37:23Z</time></trkpt>
<trkpt lat="28.155948" lon="99.741368">
<time>2015-08-06T09:37:24Z</time></trkpt>
<trkpt lat="28.155908" lon="99.741388">
<time>2015-08-06T09:37:25Z</time></trkpt>
<trkpt lat="28.155868" lon="99.741408">
<time>2015-08-06T09:37:26Z</time></trkpt>
<trkpt lat="28.155718" lon="99.741498">
<time>2015-08-06T09:37:27Z</time></trkpt>
<trkpt lat="28.155508" lon="99.741638">
<time>2015-08-06T09:37:28Z</time></trkpt>
<trkpt lat="28.155398" lon="99.741708">
<time>2015-08-06T09:37:29Z</time></trkpt>
<trkpt lat="28.155298" lon="99.741778">
<time>2015-08-06T09:37:30Z</time></trkpt>
<trkpt lat="28.155108" lon="99.741908">
<time>2015-08-06T09:37:31Z</time></trkpt>
<trkpt lat="28.154858" lon="99.742058">
<time>2015-08-06T09:37:32Z</time></trkpt>
<trkpt lat="28.154608" lon="99.742228">
<time>2015-08-06T09:37:33Z</time></trkpt>
<trkpt lat="28.154468" lon="99.742328">
<time>2015-08-06T09:37:34Z</time></trkpt>
<trkpt lat="28.154358" lon="99.742408">
<time>2015-08-06T09:37:35Z</time></trkpt>
<trkpt lat="28.154298" lon="99.742448">
<time>2015-08-06T09:37:36Z</time></trkpt>
<trkpt lat="28.154238" lon="99.742468">
<time>2015-08-06T09:37:37Z</time></trkpt>
<trkpt lat="28.154198" lon="99.742488">
<time>2015-08-06T09:37:38Z</time></trkpt>
<trkpt lat="28.154148" lon="99.742508">
<time>2015-08-06T09:37:39Z</time></trkpt>
<trkpt lat="28.154088" lon="99.742518">
<time>2015-08-06T09:37:40Z</time></trkpt>
<trkpt lat="28.154038" lon="99.742528">
<time>2015-08-06T09:37:41Z</time></trkpt>
<trkpt lat="28.153998" lon="99.742548">
<time>2015-08-06T09:37:42Z</time></trkpt>
<trkpt lat="28.153948" lon="99.742558">
<time>2015-08-06T09:37:43Z</time></trkpt>
<trkpt lat="28.153828" lon="99.742568">
<time>2015-08-06T09:37:44Z</time></trkpt>
<trkpt lat="28.153658" lon="99.742588">
<time>2015-08-06T09:37:45Z</time></trkpt>
<trkpt lat="28.153208" lon="99.742628">
<time>2015-08-06T09:37:46Z</time></trkpt>
<trkpt lat="28.152848" lon="99.742668">
<time>2015-08-06T09:37:47Z</time></trkpt>
<trkpt lat="28.152368" lon="99.742718">
<time>2015-08-06T09:37:48Z</time></trkpt>
<trkpt lat="28.151988" lon="99.742768">
<time>2015-08-06T09:37:49Z</time></trkpt>
<trkpt lat="28.151558" lon="99.742828">
<time>2015-08-06T09:37:50Z</time></trkpt>
<trkpt lat="28.151508" lon="99.742828">
<time>2015-08-06T09:37:51Z</time></trkpt>
<trkpt lat="28.151468" lon="99.742828">
<time>2015-08-06T09:37:52Z</time></trkpt>
<trkpt lat="28.151428" lon="99.742828">
<time>2015-08-06T09:37:53Z</time></trkpt>
<trkpt lat="28.151388" lon="99.742818">
<time>2015-08-06T09:37:54Z</time></trkpt>
<trkpt lat="28.151358" lon="99.742808">
<time>2015-08-06T09:37:55Z</time></trkpt>
<trkpt lat="28.151288" lon="99.742788">
<time>2015-08-06T09:37:56Z</time></trkpt>
<trkpt lat="28.151238" lon="99.742758">
<time>2015-08-06T09:37:57Z</time></trkpt>
<trkpt lat="28.151178" lon="99.742718">
<time>2015-08-06T09:37:58Z</time></trkpt>
<trkpt lat="28.151128" lon="99.742678">
<time>2015-08-06T09:37:59Z</time></trkpt>
<trkpt lat="28.151018" lon="99.742568">
<time>2015-08-06T09:38:00Z</time></trkpt>
<trkpt lat="28.150678" lon="99.742198">
<time>2015-08-06T09:38:01Z</time></trkpt>
<trkpt lat="28.150428" lon="99.741918">
<time>2015-08-06T09:38:02Z</time></trkpt>
<trkpt lat="28.150368" lon="99.741848">
<time>2015-08-06T09:38:03Z</time></trkpt>
<trkpt lat="28.150288" lon="99.741768">
<time>2015-08-06T09:38:04Z</time></trkpt>
<trkpt lat="28.150228" lon="99.741718">
<time>2015-08-06T09:38:05Z</time></trkpt>
<trkpt lat="28.150168" lon="99.741668">
<time>2015-08-06T09:38:06Z</time></trkpt>
<trkpt lat="28.150098" lon="99.741628">
<time>2015-08-06T09:38:07Z</time></trkpt>
<trkpt lat="28.150018" lon="99.741578">
<time>2015-08-06T09:38:08Z</time></trkpt>
<trkpt lat="28.149938" lon="99.741538">
<time>2015-08-06T09:38:09Z</time></trkpt>
<trkpt lat="28.149738" lon="99.741448">
<time>2015-08-06T09:38:10Z</time></trkpt>
<trkpt lat="28.149628" lon="99.741398">
<time>2015-08-06T09:38:11Z</time></trkpt>
<trkpt lat="28.149568" lon="99.741378">
<time>2015-08-06T09:38:12Z</time></trkpt>
<trkpt lat="28.149528" lon="99.741358">
<time>2015-08-06T09:38:13Z</time></trkpt>
<trkpt lat="28.149498" lon="99.741368">
<time>2015-08-06T09:38:14Z</time></trkpt>
<trkpt lat="28.149468" lon="99.741368">
<time>2015-08-06T09:38:15Z</time></trkpt>
<trkpt lat="28.149418" lon="99.741378">
<time>2015-08-06T09:38:16Z</time></trkpt>
<trkpt lat="28.149378" lon="99.741388">
<time>2015-08-06T09:38:17Z</time></trkpt>
<trkpt lat="28.149328" lon="99.741428">
<time>2015-08-06T09:38:18Z</time></trkpt>
<trkpt lat="28.149268" lon="99.741468">
<time>2015-08-06T09:38:19Z</time></trkpt>
<trkpt lat="28.149188" lon="99.741528">
<time>2015-08-06T09:38:20Z</time></trkpt>
<trkpt lat="28.149008" lon="99.741708">
<time>2015-08-06T09:38:21Z</time></trkpt>
<trkpt lat="28.148928" lon="99.741788">
<time>2015-08-06T09:38:22Z</time></trkpt>
<trkpt lat="28.148878" lon="99.741838">
<time>2015-08-06T09:38:23Z</time></trkpt>
<trkpt lat="28.148848" lon="99.741878">
<time>2015-08-06T09:38:24Z</time></trkpt>
<trkpt lat="28.148828" lon="99.741928">
<time>2015-08-06T09:38:25Z</time></trkpt>
<trkpt lat="28.148818" lon="99.741968">
<time>2015-08-06T09:38:26Z</time></trkpt>
<trkpt lat="28.148788" lon="99.742028">
<time>2015-08-06T09:38:27Z</time></trkpt>
<trkpt lat="28.148778" lon="99.742088">
<time>2015-08-06T09:38:28Z</time></trkpt>
<trkpt lat="28.148778" lon="99.742148">
<time>2015-08-06T09:38:29Z</time></trkpt>
<trkpt lat="28.148758" lon="99.742238">
<time>2015-08-06T09:38:30Z</time></trkpt>
<trkpt lat="28.148758" lon="99.742308">
<time>2015-08-06T09:38:31Z</time></trkpt>
<trkpt lat="28.148737" lon="99.742428">
<time>2015-08-06T09:38:32Z</time></trkpt>
<trkpt lat="28.148727" lon="99.742478">
<time>2015-08-06T09:38:33Z</time></trkpt>
<trkpt lat="28.148717" lon="99.742528">
<time>2015-08-06T09:38:34Z</time></trkpt>
<trkpt lat="28.148697" lon="99.742578">
<time>2015-08-06T09:38:35Z</time></trkpt>
<trkpt lat="28.148677" lon="99.742638">
<time>2015-08-06T09:38:36Z</time></trkpt>
<trkpt lat="28.148647" lon="99.742698">
<time>2015-08-06T09:38:37Z</time></trkpt>
<trkpt lat="28.148617" lon="99.742758">
<time>2015-08-06T09:38:38Z</time></trkpt>
<trkpt lat="28.148577" lon="99.742818">
<time>2015-08-06T09:38:39Z</time></trkpt>
<trkpt lat="28.148537" lon="99.742878">
<time>2015-08-06T09:38:40Z</time></trkpt>
<trkpt lat="28.148487" lon="99.742938">
<time>2015-08-06T09:38:41Z</time></trkpt>
<trkpt lat="28.148427" lon="99.743008">
<time>2015-08-06T09:38:42Z</time></trkpt>
<trkpt lat="28.148367" lon="99.743048">
<time>2015-08-06T09:38:43Z</time></trkpt>
<trkpt lat="28.148327" lon="99.743088">
<time>2015-08-06T09:38:44Z</time></trkpt>
<trkpt lat="28.148277" lon="99.743118">
<time>2015-08-06T09:38:45Z</time></trkpt>
<trkpt lat="28.148147" lon="99.743198">
<time>2015-08-06T09:38:46Z</time></trkpt>
<trkpt lat="28.148077" lon="99.743258">
<time>2015-08-06T09:38:47Z</time></trkpt>
<trkpt lat="28.147967" lon="99.743348">
<time>2015-08-06T09:38:48Z</time></trkpt>
<trkpt lat="28.147907" lon="99.743408">
<time>2015-08-06T09:38:49Z</time></trkpt>
<trkpt lat="28.147837" lon="99.743488">
<time>2015-08-06T09:38:50Z</time></trkpt>
<trkpt lat="28.147617" lon="99.743758">
<time>2015-08-06T09:38:51Z</time></trkpt>
<trkpt lat="28.147537" lon="99.743847">
<time>2015-08-06T09:38:52Z</time></trkpt>
<trkpt lat="28.147427" lon="99.743967">
<time>2015-08-06T09:38:53Z</time></trkpt>
<trkpt lat="28.147397" lon="99.743987">
<time>2015-08-06T09:38:54Z</time></trkpt>
<trkpt lat="28.147347" lon="99.744017">
<time>2015-08-06T09:38:55Z</time></trkpt>
<trkpt lat="28.147257" lon="99.744057">
<time>2015-08-06T09:38:56Z</time></trkpt>
<trkpt lat="28.147167" lon="99.744107">
<time>2015-08-06T09:38:57Z</time></trkpt>
<trkpt lat="28.146827" lon="99.744257">
<time>2015-08-06T09:38:58Z</time></trkpt>
<trkpt lat="28.146517" lon="99.744397">
<time>2015-08-06T09:38:59Z</time></trkpt>
<trkpt lat="28.146447" lon="99.744427">
<time>2015-08-06T09:39:00Z</time></trkpt>
<trkpt lat="28.146377" lon="99.744447">
<time>2015-08-06T09:39:01Z</time></trkpt>
<trkpt lat="28.146337" lon="99.744447">
<time>2015-08-06T09:39:02Z</time></trkpt>
<trkpt lat="28.146257" lon="99.744457">
<time>2015-08-06T09:39:03Z</time></trkpt>
<trkpt lat="28.146177" lon="99.744457">
<time>2015-08-06T09:39:04Z</time></trkpt>
<trkpt lat="28.146067" lon="99.744437">
<time>2015-08-06T09:39:05Z</time></trkpt>
<trkpt lat="28.145947" lon="99.744397">
<time>2015-08-06T09:39:06Z</time></trkpt>
<trkpt lat="28.145827" lon="99.744347">
<time>2015-08-06T09:39:07Z</time></trkpt>
<trkpt lat="28.145717" lon="99.744287">
<time>2015-08-06T09:39:08Z</time></trkpt>
<trkpt lat="28.145647" lon="99.744237">
<time>2015-08-06T09:39:09Z</time></trkpt>
<trkpt lat="28.145547" lon="99.744167">
<time>2015-08-06T09:39:10Z</time></trkpt>
<trkpt lat="28.145477" lon="99.744097">
<time>2015-08-06T09:39:11Z</time></trkpt>
<trkpt lat="28.145387" lon="99.744007">
<time>2015-08-06T09:39:12Z</time></trkpt>
<trkpt lat="28.145327" lon="99.743928">
<time>2015-08-06T09:39:13Z</time></trkpt>
<trkpt lat="28.145297" lon="99.743888">
<time>2015-08-06T09:39:14Z</time></trkpt>
<trkpt lat="28.145267" lon="99.743848">
<time>2015-08-06T09:39:15Z</time></trkpt>
<trkpt lat="28.145247" lon="99.743818">
<time>2015-08-06T09:39:16Z</time></trkpt>
<trkpt lat="28.145127" lon="99.743658">
<time>2015-08-06T09:39:17Z</time></trkpt>
<trkpt lat="28.145067" lon="99.743548">
<time>2015-08-06T09:39:18Z</time></trkpt>
<trkpt lat="28.145047" lon="99.743518">
<time>2015-08-06T09:39:19Z</time></trkpt>
<trkpt lat="28.145017" lon="99.743498">
<time>2015-08-06T09:39:20Z</time></trkpt>
<trkpt lat="28.144987" lon="99.743468">
<time>2015-08-06T09:39:21Z</time></trkpt>
<trkpt lat="28.144947" lon="99.743448">
<time>2015-08-06T09:39:22Z</time></trkpt>
<trkpt lat="28.144917" lon="99.743438">
<time>2015-08-06T09:39:23Z</time></trkpt>
<trkpt lat="28.144897" lon="99.743428">
<time>2015-08-06T09:39:24Z</time></trkpt>
<trkpt lat="28.144877" lon="99.743428">
<time>2015-08-06T09:39:25Z</time></trkpt>
<trkpt lat="28.144847" lon="99.743438">
<time>2015-08-06T09:39:26Z</time></trkpt>
<trkpt lat="28.144807" lon="99.743438">
<time>2015-08-06T09:39:27Z</time></trkpt>
<trkpt lat="28.144757" lon="99.743458">
<time>2015-08-06T09:39:28Z</time></trkpt>
<trkpt lat="28.144697" lon="99.743488">
<time>2015-08-06T09:39:29Z</time></trkpt>
<trkpt lat="28.144557" lon="99.743588">
<time>2015-08-06T09:39:30Z</time></trkpt>
<trkpt lat="28.144337" lon="99.743728">
<time>2015-08-06T09:39:31Z</time></trkpt>
<trkpt lat="28.144167" lon="99.743848">
<time>2015-08-06T09:39:32Z</time></trkpt>
<trkpt lat="28.144007" lon="99.743948">
<time>2015-08-06T09:39:33Z</time></trkpt>
<trkpt lat="28.143917" lon="99.744008">
<time>2015-08-06T09:39:34Z</time></trkpt>
<trkpt lat="28.143867" lon="99.744058">
<time>2015-08-06T09:39:35Z</time></trkpt>
<trkpt lat="28.143837" lon="99.744098">
<time>2015-08-06T09:39:36Z</time></trkpt>
<trkpt lat="28.143807" lon="99.744147">
<time>2015-08-06T09:39:37Z</time></trkpt>
<trkpt lat="28.143787" lon="99.744177">
<time>2015-08-06T09:39:38Z</time></trkpt>
<trkpt lat="28.143767" lon="99.744227">
<time>2015-08-06T09:39:39Z</time></trkpt>
<trkpt lat="28.143757" lon="99.744257">
<time>2015-08-06T09:39:40Z</time></trkpt>
<trkpt lat="28.143737" lon="99.744327">
<time>2015-08-06T09:39:41Z</time></trkpt>
<trkpt lat="28.143647" lon="99.744597">
<time>2015-08-06T09:39:42Z</time></trkpt>
<trkpt lat="28.143567" lon="99.744897">
<time>2015-08-06T09:39:43Z</time></trkpt>
<trkpt lat="28.143526" lon="99.745007">
<time>2015-08-06T09:39:44Z</time></trkpt>
<trkpt lat="28.143486" lon="99.745127">
<time>2015-08-06T09:39:45Z</time></trkpt>
<trkpt lat="28.143436" lon="99.745237">
<time>2015-08-06T09:39:46Z</time></trkpt>
<trkpt lat="28.143406" lon="99.745307">
<time>2015-08-06T09:39:47Z</time></trkpt>
<trkpt lat="28.143346" lon="99.745387">
<time>2015-08-06T09:39:48Z</time></trkpt>
<trkpt lat="28.143276" lon="99.745497">
<time>2015-08-06T09:39:49Z</time></trkpt>
<trkpt lat="28.143196" lon="99.745607">
<time>2015-08-06T09:39:50Z</time></trkpt>
<trkpt lat="28.143096" lon="99.745737">
<time>2015-08-06T09:39:51Z</time></trkpt>
<trkpt lat="28.143006" lon="99.745857">
<time>2015-08-06T09:39:52Z</time></trkpt>
<trkpt lat="28.142916" lon="99.745957">
<time>2015-08-06T09:39:53Z</time></trkpt>
<trkpt lat="28.142836" lon="99.746047">
<time>2015-08-06T09:39:54Z</time></trkpt>
<trkpt lat="28.142786" lon="99.746087">
<time>2015-08-06T09:39:55Z</time></trkpt>
<trkpt lat="28.142746" lon="99.746117">
<time>2015-08-06T09:39:56Z</time></trkpt>
<trkpt lat="28.142686" lon="99.746157">
<time>2015-08-06T09:39:57Z</time></trkpt>
<trkpt lat="28.142606" lon="99.746207">
<time>2015-08-06T09:39:58Z</time></trkpt>
<trkpt lat="28.142516" lon="99.746257">
<time>2015-08-06T09:39:59Z</time></trkpt>
<trkpt lat="28.142416" lon="99.746307">
<time>2015-08-06T09:40:00Z</time></trkpt>
<trkpt lat="28.142346" lon="99.746347">
<time>2015-08-06T09:40:01Z</time></trkpt>
<trkpt lat="28.142286" lon="99.746377">
<time>2015-08-06T09:40:02Z</time></trkpt>
<trkpt lat="28.142226" lon="99.746417">
<time>2015-08-06T09:40:03Z</time></trkpt>
<trkpt lat="28.142116" lon="99.746497">
<time>2015-08-06T09:40:04Z</time></trkpt>
<trkpt lat="28.142006" lon="99.746577">
<time>2015-08-06T09:40:05Z</time></trkpt>
<trkpt lat="28.141866" lon="99.746667">
<time>2015-08-06T09:40:06Z</time></trkpt>
<trkpt lat="28.141766" lon="99.746727">
<time>2015-08-06T09:40:07Z</time></trkpt>
<trkpt lat="28.141686" lon="99.746777">
<time>2015-08-06T09:40:08Z</time></trkpt>
<trkpt lat="28.141596" lon="99.746837">
<time>2015-08-06T09:40:09Z</time></trkpt>
<trkpt lat="28.141406" lon="99.746937">
<time>2015-08-06T09:40:10Z</time></trkpt>
<trkpt lat="28.141296" lon="99.746997">
<time>2015-08-06T09:40:11Z</time></trkpt>
<trkpt lat="28.141206" lon="99.747047">
<time>2015-08-06T09:40:12Z</time></trkpt>
<trkpt lat="28.141156" lon="99.747067">
<time>2015-08-06T09:40:13Z</time></trkpt>
<trkpt lat="28.141106" lon="99.747087">
<time>2015-08-06T09:40:14Z</time></trkpt>
<trkpt lat="28.141036" lon="99.747107">
<time>2015-08-06T09:40:15Z</time></trkpt>
<trkpt lat="28.140946" lon="99.747127">
<time>2015-08-06T09:40:16Z</time></trkpt>
<trkpt lat="28.140836" lon="99.747137">
<time>2015-08-06T09:40:17Z</time></trkpt>
<trkpt lat="28.140776" lon="99.747137">
<time>2015-08-06T09:40:18Z</time></trkpt>
<trkpt lat="28.140716" lon="99.747147">
<time>2015-08-06T09:40:19Z</time></trkpt>
<trkpt lat="28.140656" lon="99.747167">
<time>2015-08-06T09:40:20Z</time></trkpt>
<trkpt lat="28.140586" lon="99.747187">
<time>2015-08-06T09:40:21Z</time></trkpt>
<trkpt lat="28.140536" lon="99.747207">
<time>2015-08-06T09:40:22Z</time></trkpt>
<trkpt lat="28.140466" lon="99.747247">
<time>2015-08-06T09:40:23Z</time></trkpt>
<trkpt lat="28.140376" lon="99.747297">
<time>2015-08-06T09:40:24Z</time></trkpt>
<trkpt lat="28.140286" lon="99.747347">
<time>2015-08-06T09:40:25Z</time></trkpt>
<trkpt lat="28.140056" lon="99.747457">
<time>2015-08-06T09:40:26Z</time></trkpt>
<trkpt lat="28.139816" lon="99.747567">
<time>2015-08-06T09:40:27Z</time></trkpt>
<trkpt lat="28.139676" lon="99.747627">
<time>2015-08-06T09:40:28Z</time></trkpt>
<trkpt lat="28.139576" lon="99.747667">
<time>2015-08-06T09:40:29Z</time></trkpt>
<trkpt lat="28.139466" lon="99.747717">
<time>2015-08-06T09:40:30Z</time></trkpt>
<trkpt lat="28.139386" lon="99.747757">
<time>2015-08-06T09:40:31Z</time></trkpt>
<trkpt lat="28.139306" lon="99.747807">
<time>2015-08-06T09:40:32Z</time></trkpt>
<trkpt lat="28.139236" lon="99.747857">
<time>2015-08-06T09:40:33Z</time></trkpt>
<trkpt lat="28.139166" lon="99.747907">
<time>2015-08-06T09:40:34Z</time></trkpt>
<trkpt lat="28.139036" lon="99.748037">
<time>2015-08-06T09:40:35Z</time></trkpt>
<trkpt lat="28.138936" lon="99.748127">
<time>2015-08-06T09:40:36Z</time></trkpt>
<trkpt lat="28.138856" lon="99.748207">
<time>2015-08-06T09:40:37Z</time></trkpt>
<trkpt lat="28.138766" lon="99.748287">
<time>2015-08-06T09:40:38Z</time></trkpt>
<trkpt lat="28.138696" lon="99.748337">
<time>2015-08-06T09:40:39Z</time></trkpt>
<trkpt lat="28.138636" lon="99.748387">
<time>2015-08-06T09:40:40Z</time></trkpt>
<trkpt lat="28.138576" lon="99.748427">
<time>2015-08-06T09:40:41Z</time></trkpt>
<trkpt lat="28.138526" lon="99.748447">
<time>2015-08-06T09:40:42Z</time></trkpt>
<trkpt lat="28.138476" lon="99.748467">
<time>2015-08-06T09:40:43Z</time></trkpt>
<trkpt lat="28.138436" lon="99.748487">
<time>2015-08-06T09:40:44Z</time></trkpt>
<trkpt lat="28.138376" lon="99.748497">
<time>2015-08-06T09:40:45Z</time></trkpt>
<trkpt lat="28.138326" lon="99.748507">
<time>2015-08-06T09:40:46Z</time></trkpt>
<trkpt lat="28.137896" lon="99.748567">
<time>2015-08-06T09:40:47Z</time></trkpt>
<trkpt lat="28.137786" lon="99.748587">
<time>2015-08-06T09:40:48Z</time></trkpt>
<trkpt lat="28.137696" lon="99.748607">
<time>2015-08-06T09:40:49Z</time></trkpt>
<trkpt lat="28.137616" lon="99.748637">
<time>2015-08-06T09:40:50Z</time></trkpt>
<trkpt lat="28.137516" lon="99.748677">
<time>2015-08-06T09:40:51Z</time></trkpt>
<trkpt lat="28.137366" lon="99.748737">
<time>2015-08-06T09:40:52Z</time></trkpt>
<trkpt lat="28.137256" lon="99.748787">
<time>2015-08-06T09:40:53Z</time></trkpt>
<trkpt lat="28.137176" lon="99.748807">
<time>2015-08-06T09:40:54Z</time></trkpt>
<trkpt lat="28.137096" lon="99.748817">
<time>2015-08-06T09:40:55Z</time></trkpt>
<trkpt lat="28.137026" lon="99.748817">
<time>2015-08-06T09:40:56Z</time></trkpt>
<trkpt lat="28.136956" lon="99.748817">
<time>2015-08-06T09:40:57Z</time></trkpt>
<trkpt lat="28.136886" lon="99.748817">
<time>2015-08-06T09:40:58Z</time></trkpt>
<trkpt lat="28.136766" lon="99.748797">
<time>2015-08-06T09:40:59Z</time></trkpt>
<trkpt lat="28.136656" lon="99.748777">
<time>2015-08-06T09:41:00Z</time></trkpt>
<trkpt lat="28.136606" lon="99.748767">
<time>2015-08-06T09:41:01Z</time></trkpt>
<trkpt lat="28.136536" lon="99.748757">
<time>2015-08-06T09:41:02Z</time></trkpt>
<trkpt lat="28.136315" lon="99.748737">
<time>2015-08-06T09:41:03Z</time></trkpt>
<trkpt lat="28.136205" lon="99.748727">
<time>2015-08-06T09:41:04Z</time></trkpt>
<trkpt lat="28.136095" lon="99.748727">
<time>2015-08-06T09:41:05Z</time></trkpt>
<trkpt lat="28.136005" lon="99.748727">
<time>2015-08-06T09:41:06Z</time></trkpt>
<trkpt lat="28.135905" lon="99.748737">
<time>2015-08-06T09:41:07Z</time></trkpt>
<trkpt lat="28.135825" lon="99.748757">
<time>2015-08-06T09:41:08Z</time></trkpt>
<trkpt lat="28.135755" lon="99.748787">
<time>2015-08-06T09:41:09Z</time></trkpt>
<trkpt lat="28.135705" lon="99.748807">
<time>2015-08-06T09:41:10Z</time></trkpt>
<trkpt lat="28.135655" lon="99.748847">
<time>2015-08-06T09:41:11Z</time></trkpt>
<trkpt lat="28.135625" lon="99.748867">
<time>2015-08-06T09:41:12Z</time></trkpt>
<trkpt lat="28.135585" lon="99.748907">
<time>2015-08-06T09:41:13Z</time></trkpt>
<trkpt lat="28.135495" lon="99.749037">
<time>2015-08-06T09:41:14Z</time></trkpt>
<trkpt lat="28.135425" lon="99.749167">
<time>2015-08-06T09:41:15Z</time></trkpt>
<trkpt lat="28.135325" lon="99.749347">
<time>2015-08-06T09:41:16Z</time></trkpt>
<trkpt lat="28.135265" lon="99.749447">
<time>2015-08-06T09:41:17Z</time></trkpt>
<trkpt lat="28.135195" lon="99.749537">
<time>2015-08-06T09:41:18Z</time></trkpt>
<trkpt lat="28.135155" lon="99.749587">
<time>2015-08-06T09:41:19Z</time></trkpt>
<trkpt lat="28.135105" lon="99.749627">
<time>2015-08-06T09:41:20Z</time></trkpt>
<trkpt lat="28.135045" lon="99.749667">
<time>2015-08-06T09:41:21Z</time></trkpt>
<trkpt lat="28.134965" lon="99.749717">
<time>2015-08-06T09:41:22Z</time></trkpt>
<trkpt lat="28.134805" lon="99.749807">
<time>2015-08-06T09:41:23Z</time></trkpt>
<trkpt lat="28.134675" lon="99.749867">
<time>2015-08-06T09:41:24Z</time></trkpt>
<trkpt lat="28.134555" lon="99.749917">
<time>2015-08-06T09:41:25Z</time></trkpt>
<trkpt lat="28.134495" lon="99.749947">
<time>2015-08-06T09:41:26Z</time></trkpt>
<trkpt lat="28.134415" lon="99.749967">
<time>2015-08-06T09:41:27Z</time></trkpt>
<trkpt lat="28.134345" lon="99.749987">
<time>2015-08-06T09:41:28Z</time></trkpt>
<trkpt lat="28.134285" lon="99.749997">
<time>2015-08-06T09:41:29Z</time></trkpt>
<trkpt lat="28.134215" lon="99.749997">
<time>2015-08-06T09:41:30Z</time></trkpt>
<trkpt lat="28.134145" lon="99.749997">
<time>2015-08-06T09:41:31Z</time></trkpt>
<trkpt lat="28.133995" lon="99.749997">
<time>2015-08-06T09:41:32Z</time></trkpt>
<trkpt lat="28.133795" lon="99.749967">
<time>2015-08-06T09:41:33Z</time></trkpt>
<trkpt lat="28.133715" lon="99.749957">
<time>2015-08-06T09:41:34Z</time></trkpt>
<trkpt lat="28.133635" lon="99.749947">
<time>2015-08-06T09:41:35Z</time></trkpt>
<trkpt lat="28.133575" lon="99.749947">
<time>2015-08-06T09:41:36Z</time></trkpt>
<trkpt lat="28.133535" lon="99.749947">
<time>2015-08-06T09:41:37Z</time></trkpt>
<trkpt lat="28.133475" lon="99.749967">
<time>2015-08-06T09:41:38Z</time></trkpt>
<trkpt lat="28.133385" lon="99.750027">
<time>2015-08-06T09:41:39Z</time></trkpt>
<trkpt lat="28.133055" lon="99.750247">
<time>2015-08-06T09:41:40Z</time></trkpt>
<trkpt lat="28.132445" lon="99.750677">
<time>2015-08-06T09:41:41Z</time></trkpt>
<trkpt lat="28.132375" lon="99.750707">
<time>2015-08-06T09:41:42Z</time></trkpt>
<trkpt lat="28.132315" lon="99.750717">
<time>2015-08-06T09:41:43Z</time></trkpt>
<trkpt lat="28.132265" lon="99.750717">
<time>2015-08-06T09:41:44Z</time></trkpt>
<trkpt lat="28.132215" lon="99.750717">
<time>2015-08-06T09:41:45Z</time></trkpt>
<trkpt lat="28.132015" lon="99.750697">
<time>2015-08-06T09:41:46Z</time></trkpt>
<trkpt lat="28.131755" lon="99.750647">
<time>2015-08-06T09:41:47Z</time></trkpt>
<trkpt lat="28.131675" lon="99.750647">
<time>2015-08-06T09:41:48Z</time></trkpt>
<trkpt lat="28.131645" lon="99.750657">
<time>2015-08-06T09:41:49Z</time></trkpt>
<trkpt lat="28.131595" lon="99.750667">
<time>2015-08-06T09:41:50Z</time></trkpt>
<trkpt lat="28.131545" lon="99.750687">
<time>2015-08-06T09:41:51Z</time></trkpt>
<trkpt lat="28.131495" lon="99.750727">
<time>2015-08-06T09:41:52Z</time></trkpt>
<trkpt lat="28.131375" lon="99.750837">
<time>2015-08-06T09:41:53Z</time></trkpt>
<trkpt lat="28.131045" lon="99.751177">
<time>2015-08-06T09:41:54Z</time></trkpt>
<trkpt lat="28.130955" lon="99.751257">
<time>2015-08-06T09:41:55Z</time></trkpt>
<trkpt lat="28.130625" lon="99.751507">
<time>2015-08-06T09:41:56Z</time></trkpt>
<trkpt lat="28.130435" lon="99.751637">
<time>2015-08-06T09:41:57Z</time></trkpt>
<trkpt lat="28.130285" lon="99.751727">
<time>2015-08-06T09:41:58Z</time></trkpt>
<trkpt lat="28.130125" lon="99.751777">
<time>2015-08-06T09:41:59Z</time></trkpt>
<trkpt lat="28.129995" lon="99.751817">
<time>2015-08-06T09:42:00Z</time></trkpt>
<trkpt lat="28.129865" lon="99.751867">
<time>2015-08-06T09:42:01Z</time></trkpt>
<trkpt lat="28.129815" lon="99.751897">
<time>2015-08-06T09:42:02Z</time></trkpt>
<trkpt lat="28.129765" lon="99.751937">
<time>2015-08-06T09:42:03Z</time></trkpt>
<trkpt lat="28.129725" lon="99.751977">
<time>2015-08-06T09:42:04Z</time></trkpt>
<trkpt lat="28.129695" lon="99.752017">
<time>2015-08-06T09:42:05Z</time></trkpt>
<trkpt lat="28.129595" lon="99.752167">
<time>2015-08-06T09:42:06Z</time></trkpt>
<trkpt lat="28.129455" lon="99.752417">
<time>2015-08-06T09:42:07Z</time></trkpt>
<trkpt lat="28.129365" lon="99.752527">
<time>2015-08-06T09:42:08Z</time></trkpt>
<trkpt lat="28.129205" lon="99.752637">
<time>2015-08-06T09:42:09Z</time></trkpt>
<trkpt lat="28.128135" lon="99.753327">
<time>2015-08-06T09:42:10Z</time></trkpt>
<trkpt lat="28.127105" lon="99.753997">
<time>2015-08-06T09:42:11Z</time></trkpt>
<trkpt lat="28.126355" lon="99.754537">
<time>2015-08-06T09:42:12Z</time></trkpt>
<trkpt lat="28.126185" lon="99.754627">
<time>2015-08-06T09:42:13Z</time></trkpt>
<trkpt lat="28.126075" lon="99.754657">
<time>2015-08-06T09:42:14Z</time></trkpt>
<trkpt lat="28.125905" lon="99.754687">
<time>2015-08-06T09:42:15Z</time></trkpt>
<trkpt lat="28.125755" lon="99.754727">
<time>2015-08-06T09:42:16Z</time></trkpt>
<trkpt lat="28.125625" lon="99.754797">
<time>2015-08-06T09:42:17Z</time></trkpt>
<trkpt lat="28.125505" lon="99.754887">
<time>2015-08-06T09:42:18Z</time></trkpt>
<trkpt lat="28.125305" lon="99.755067">
<time>2015-08-06T09:42:19Z</time></trkpt>
<trkpt lat="28.125025" lon="99.755377">
<time>2015-08-06T09:42:20Z</time></trkpt>
<trkpt lat="28.124855" lon="99.755527">
<time>2015-08-06T09:42:21Z</time></trkpt>
<trkpt lat="28.124685" lon="99.755617">
<time>2015-08-06T09:42:22Z</time></trkpt>
<trkpt lat="28.124485" lon="99.755667">
<time>2015-08-06T09:42:23Z</time></trkpt>
<trkpt lat="28.124125" lon="99.755707">
<time>2015-08-06T09:42:24Z</time></trkpt>
<trkpt lat="28.123615" lon="99.755717">
<time>2015-08-06T09:42:25Z</time></trkpt>
<trkpt lat="28.123345" lon="99.755707">
<time>2015-08-06T09:42:26Z</time></trkpt>
<trkpt lat="28.123205" lon="99.755667">
<time>2015-08-06T09:42:27Z</time></trkpt>
<trkpt lat="28.123125" lon="99.755637">
<time>2015-08-06T09:42:28Z</time></trkpt>
<trkpt lat="28.122965" lon="99.755557">
<time>2015-08-06T09:42:29Z</time></trkpt>
<trkpt lat="28.122915" lon="99.755537">
<time>2015-08-06T09:42:30Z</time></trkpt>
<trkpt lat="28.122835" lon="99.755517">
<time>2015-08-06T09:42:31Z</time></trkpt>
<trkpt lat="28.122775" lon="99.755517">
<time>2015-08-06T09:42:32Z</time></trkpt>
<trkpt lat="28.122645" lon="99.755547">
<time>2015-08-06T09:42:33Z</time></trkpt>
<trkpt lat="28.122475" lon="99.755637">
<time>2015-08-06T09:42:34Z</time></trkpt>
<trkpt lat="28.122355" lon="99.755677">
<time>2015-08-06T09:42:35Z</time></trkpt>
<trkpt lat="28.122275" lon="99.755687">
<time>2015-08-06T09:42:36Z</time></trkpt>
<trkpt lat="28.122165" lon="99.755687">
<time>2015-08-06T09:42:37Z</time></trkpt>
<trkpt lat="28.122085" lon="99.755667">
<time>2015-08-06T09:42:38Z</time></trkpt>
<trkpt lat="28.121995" lon="99.755627">
<time>2015-08-06T09:42:39Z</time></trkpt>
<trkpt lat="28.121905" lon="99.755567">
<time>2015-08-06T09:42:40Z</time></trkpt>
<trkpt lat="28.121805" lon="99.755407">
<time>2015-08-06T09:42:41Z</time></trkpt>
<trkpt lat="28.121705" lon="99.755257">
<time>2015-08-06T09:42:42Z</time></trkpt>
<trkpt lat="28.121615" lon="99.755147">
<time>2015-08-06T09:42:43Z</time></trkpt>
<trkpt lat="28.121475" lon="99.755037">
<time>2015-08-06T09:42:44Z</time></trkpt>
<trkpt lat="28.121195" lon="99.754877">
<time>2015-08-06T09:42:45Z</time></trkpt>
<trkpt lat="28.121035" lon="99.754797">
<time>2015-08-06T09:42:46Z</time></trkpt>
<trkpt lat="28.120965" lon="99.754777">
<time>2015-08-06T09:42:47Z</time></trkpt>
<trkpt lat="28.120884" lon="99.754757">
<time>2015-08-06T09:42:48Z</time></trkpt>
<trkpt lat="28.120764" lon="99.754767">
<time>2015-08-06T09:42:49Z</time></trkpt>
<trkpt lat="28.120614" lon="99.754827">
<time>2015-08-06T09:42:50Z</time></trkpt>
<trkpt lat="28.120534" lon="99.754897">
<time>2015-08-06T09:42:51Z</time></trkpt>
<trkpt lat="28.120424" lon="99.754987">
<time>2015-08-06T09:42:52Z</time></trkpt>
<trkpt lat="28.120215" lon="99.755147">
<time>2015-08-06T09:42:53Z</time></trkpt>
<trkpt lat="28.120064" lon="99.755197">
<time>2015-08-06T09:42:54Z</time></trkpt>
<trkpt lat="28.119924" lon="99.755217">
<time>2015-08-06T09:42:55Z</time></trkpt>
<trkpt lat="28.119694" lon="99.755197">
<time>2015-08-06T09:42:56Z</time></trkpt>
<trkpt lat="28.119524" lon="99.755167">
<time>2015-08-06T09:42:57Z</time></trkpt>
<trkpt lat="28.119374" lon="99.755107">
<time>2015-08-06T09:42:58Z</time></trkpt>
<trkpt lat="28.119164" lon="99.754977">
<time>2015-08-06T09:42:59Z</time></trkpt>
<trkpt lat="28.119054" lon="99.754927">
<time>2015-08-06T09:43:00Z</time></trkpt>
<trkpt lat="28.118944" lon="99.754887">
<time>2015-08-06T09:43:01Z</time></trkpt>
<trkpt lat="28.118854" lon="99.754867">
<time>2015-08-06T09:43:02Z</time></trkpt>
<trkpt lat="28.118754" lon="99.754857">
<time>2015-08-06T09:43:03Z</time></trkpt>
<trkpt lat="28.118584" lon="99.754897">
<time>2015-08-06T09:43:04Z</time></trkpt>
<trkpt lat="28.118314" lon="99.755057">
<time>2015-08-06T09:43:05Z</time></trkpt>
<trkpt lat="28.117974" lon="99.755287">
<time>2015-08-06T09:43:06Z</time></trkpt>
<trkpt lat="28.117574" lon="99.755497">
<time>2015-08-06T09:43:07Z</time></trkpt>
<trkpt lat="28.117414" lon="99.755567">
<time>2015-08-06T09:43:08Z</time></trkpt>
<trkpt lat="28.117334" lon="99.755597">
<time>2015-08-06T09:43:09Z</time></trkpt>
<trkpt lat="28.117234" lon="99.755647">
<time>2015-08-06T09:43:10Z</time></trkpt>
<trkpt lat="28.117174" lon="99.755697">
<time>2015-08-06T09:43:11Z</time></trkpt>
<trkpt lat="28.116944" lon="99.755887">
<time>2015-08-06T09:43:12Z</time></trkpt>
<trkpt lat="28.116684" lon="99.756127">
<time>2015-08-06T09:43:13Z</time></trkpt>
<trkpt lat="28.116454" lon="99.756327">
<time>2015-08-06T09:43:14Z</time></trkpt>
<trkpt lat="28.116324" lon="99.756437">
<time>2015-08-06T09:43:15Z</time></trkpt>
<trkpt lat="28.116254" lon="99.756477">
<time>2015-08-06T09:43:16Z</time></trkpt>
<trkpt lat="28.116174" lon="99.756517">
<time>2015-08-06T09:43:17Z</time></trkpt>
<trkpt lat="28.116024" lon="99.756567">
<time>2015-08-06T09:43:18Z</time></trkpt>
<trkpt lat="28.115344" lon="99.756788">
<time>2015-08-06T09:43:19Z</time></trkpt>
<trkpt lat="28.114954" lon="99.756898">
<time>2015-08-06T09:43:20Z</time></trkpt>
<trkpt lat="28.114834" lon="99.756938">
<time>2015-08-06T09:43:21Z</time></trkpt>
<trkpt lat="28.114704" lon="99.757008">
<time>2015-08-06T09:43:22Z</time></trkpt>
<trkpt lat="28.114434" lon="99.757188">
<time>2015-08-06T09:43:23Z</time></trkpt>
<trkpt lat="28.114304" lon="99.757268">
<time>2015-08-06T09:43:24Z</time></trkpt>
<trkpt lat="28.114184" lon="99.757358">
<time>2015-08-06T09:43:25Z</time></trkpt>
<trkpt lat="28.114124" lon="99.757408">
<time>2015-08-06T09:43:26Z</time></trkpt>
<trkpt lat="28.114074" lon="99.757448">
<time>2015-08-06T09:43:27Z</time></trkpt>
<trkpt lat="28.114024" lon="99.757508">
<time>2015-08-06T09:43:28Z</time></trkpt>
<trkpt lat="28.113905" lon="99.757708">
<time>2015-08-06T09:43:29Z</time></trkpt>
<trkpt lat="28.113815" lon="99.757858">
<time>2015-08-06T09:43:30Z</time></trkpt>
<trkpt lat="28.113775" lon="99.757928">
<time>2015-08-06T09:43:31Z</time></trkpt>
<trkpt lat="28.113695" lon="99.758008">
<time>2015-08-06T09:43:32Z</time></trkpt>
<trkpt lat="28.113545" lon="99.758098">
<time>2015-08-06T09:43:33Z</time></trkpt>
<trkpt lat="28.113345" lon="99.758228">
<time>2015-08-06T09:43:34Z</time></trkpt>
<trkpt lat="28.113145" lon="99.758328">
<time>2015-08-06T09:43:35Z</time></trkpt>
<trkpt lat="28.113065" lon="99.758388">
<time>2015-08-06T09:43:36Z</time></trkpt>
<trkpt lat="28.112965" lon="99.758508">
<time>2015-08-06T09:43:37Z</time></trkpt>
<trkpt lat="28.112905" lon="99.758618">
<time>2015-08-06T09:43:38Z</time></trkpt>
<trkpt lat="28.112695" lon="99.758968">
<time>2015-08-06T09:43:39Z</time></trkpt>
<trkpt lat="28.112615" lon="99.759088">
<time>2015-08-06T09:43:40Z</time></trkpt>
<trkpt lat="28.112535" lon="99.759168">
<time>2015-08-06T09:43:41Z</time></trkpt>
<trkpt lat="28.112445" lon="99.759238">
<time>2015-08-06T09:43:42Z</time></trkpt>
<trkpt lat="28.112355" lon="99.759278">
<time>2015-08-06T09:43:43Z</time></trkpt>
<trkpt lat="28.112215" lon="99.759348">
<time>2015-08-06T09:43:44Z</time></trkpt>
<trkpt lat="28.112135" lon="99.759388">
<time>2015-08-06T09:43:45Z</time></trkpt>
<trkpt lat="28.112035" lon="99.759458">
<time>2015-08-06T09:43:46Z</time></trkpt>
<trkpt lat="28.111935" lon="99.759558">
<time>2015-08-06T09:43:47Z</time></trkpt>
<trkpt lat="28.111565" lon="99.759949">
<time>2015-08-06T09:43:48Z</time></trkpt>
<trkpt lat="28.111475" lon="99.760029">
<time>2015-08-06T09:43:49Z</time></trkpt>
<trkpt lat="28.111365" lon="99.760169">
<time>2015-08-06T09:43:50Z</time></trkpt>
<trkpt lat="28.111325" lon="99.760239">
<time>2015-08-06T09:43:51Z</time></trkpt>
<trkpt lat="28.111295" lon="99.760329">
<time>2015-08-06T09:43:52Z</time></trkpt>
<trkpt lat="28.111265" lon="99.760449">
<time>2015-08-06T09:43:53Z</time></trkpt>
<trkpt lat="28.111245" lon="99.760639">
<time>2015-08-06T09:43:54Z</time></trkpt>
<trkpt lat="28.111235" lon="99.760889">
<time>2015-08-06T09:43:55Z</time></trkpt>
<trkpt lat="28.111205" lon="99.761059">
<time>2015-08-06T09:43:56Z</time></trkpt>
<trkpt lat="28.111176" lon="99.761129">
<time>2015-08-06T09:43:57Z</time></trkpt>
<trkpt lat="28.111146" lon="99.761189">
<time>2015-08-06T09:43:58Z</time></trkpt>
<trkpt lat="28.111106" lon="99.761249">
<time>2015-08-06T09:43:59Z</time></trkpt>
<trkpt lat="28.111056" lon="99.761299">
<time>2015-08-06T09:44:00Z</time></trkpt>
<trkpt lat="28.110956" lon="99.761359">
<time>2015-08-06T09:44:01Z</time></trkpt>
<trkpt lat="28.110556" lon="99.761549">
<time>2015-08-06T09:44:02Z</time></trkpt>
<trkpt lat="28.110336" lon="99.761699">
<time>2015-08-06T09:44:03Z</time></trkpt>
<trkpt lat="28.110206" lon="99.761829">
<time>2015-08-06T09:44:04Z</time></trkpt>
<trkpt lat="28.110076" lon="99.761969">
<time>2015-08-06T09:44:05Z</time></trkpt>
<trkpt lat="28.109886" lon="99.762179">
<time>2015-08-06T09:44:06Z</time></trkpt>
<trkpt lat="28.109736" lon="99.76237">
<time>2015-08-06T09:44:07Z</time></trkpt>
<trkpt lat="28.109526" lon="99.76256">
<time>2015-08-06T09:44:08Z</time></trkpt>
<trkpt lat="28.109436" lon="99.76263">
<time>2015-08-06T09:44:09Z</time></trkpt>
<trkpt lat="28.109336" lon="99.76267">
<time>2015-08-06T09:44:10Z</time></trkpt>
<trkpt lat="28.109276" lon="99.7627">
<time>2015-08-06T09:44:11Z</time></trkpt>
<trkpt lat="28.109206" lon="99.76271">
<time>2015-08-06T09:44:12Z</time></trkpt>
<trkpt lat="28.109096" lon="99.76273">
<time>2015-08-06T09:44:13Z</time></trkpt>
<trkpt lat="28.108826" lon="99.76274">
<time>2015-08-06T09:44:14Z</time></trkpt>
<trkpt lat="28.108726" lon="99.76275">
<time>2015-08-06T09:44:15Z</time></trkpt>
<trkpt lat="28.108556" lon="99.76278">
<time>2015-08-06T09:44:16Z</time></trkpt>
<trkpt lat="28.108286" lon="99.76285">
<time>2015-08-06T09:44:17Z</time></trkpt>
<trkpt lat="28.108186" lon="99.76286">
<time>2015-08-06T09:44:18Z</time></trkpt>
<trkpt lat="28.108056" lon="99.76286">
<time>2015-08-06T09:44:19Z</time></trkpt>
<trkpt lat="28.107826" lon="99.7628">
<time>2015-08-06T09:44:20Z</time></trkpt>
<trkpt lat="28.107576" lon="99.76274">
<time>2015-08-06T09:44:21Z</time></trkpt>
<trkpt lat="28.107466" lon="99.76271">
<time>2015-08-06T09:44:22Z</time></trkpt>
<trkpt lat="28.107396" lon="99.7627">
<time>2015-08-06T09:44:23Z</time></trkpt>
<trkpt lat="28.107396" lon="99.7627">
<time>2015-08-06T09:44:24Z</time></trkpt>
<trkpt lat="28.107705" lon="99.761969">
<time>2015-08-06T09:44:25Z</time></trkpt>
<trkpt lat="28.107775" lon="99.761739">
<time>2015-08-06T09:44:26Z</time></trkpt>
<trkpt lat="28.107755" lon="99.761529">
<time>2015-08-06T09:44:27Z</time></trkpt>
<trkpt lat="28.107685" lon="99.761379">
<time>2015-08-06T09:44:28Z</time></trkpt>
<trkpt lat="28.107525" lon="99.761249">
<time>2015-08-06T09:44:29Z</time></trkpt>
<trkpt lat="28.105864" lon="99.760189">
<time>2015-08-06T09:44:30Z</time></trkpt>
<trkpt lat="28.104564" lon="99.759188">
<time>2015-08-06T09:44:31Z</time></trkpt>
<trkpt lat="28.103594" lon="99.758528">
<time>2015-08-06T09:44:32Z</time></trkpt>
<trkpt lat="28.103393" lon="99.758078">
<time>2015-08-06T09:44:33Z</time></trkpt>
<trkpt lat="28.102993" lon="99.757608">
<time>2015-08-06T09:44:34Z</time></trkpt>
<trkpt lat="28.101463" lon="99.756888">
<time>2015-08-06T09:44:35Z</time></trkpt>
<trkpt lat="28.100923" lon="99.756738">
<time>2015-08-06T09:44:36Z</time></trkpt>
<trkpt lat="28.100743" lon="99.756598">
<time>2015-08-06T09:44:37Z</time></trkpt>
<trkpt lat="28.100603" lon="99.756388">
<time>2015-08-06T09:44:38Z</time></trkpt>
<trkpt lat="28.100462" lon="99.755878">
<time>2015-08-06T09:44:39Z</time></trkpt>
<trkpt lat="28.100432" lon="99.755678">
<time>2015-08-06T09:44:40Z</time></trkpt>
<trkpt lat="28.100342" lon="99.755138">
<time>2015-08-06T09:44:41Z</time></trkpt>
<trkpt lat="28.099692" lon="99.754107">
<time>2015-08-06T09:44:42Z</time></trkpt>
<trkpt lat="28.098762" lon="99.753427">
<time>2015-08-06T09:44:43Z</time></trkpt>
<trkpt lat="28.098372" lon="99.753377">
<time>2015-08-06T09:44:44Z</time></trkpt>
<trkpt lat="28.098112" lon="99.753357">
<time>2015-08-06T09:44:45Z</time></trkpt>
<trkpt lat="28.097731" lon="99.752837">
<time>2015-08-06T09:44:46Z</time></trkpt>
<trkpt lat="28.097451" lon="99.752407">
<time>2015-08-06T09:44:47Z</time></trkpt>
<trkpt lat="28.097401" lon="99.752327">
<time>2015-08-06T09:44:48Z</time></trkpt>
<trkpt lat="28.097231" lon="99.752217">
<time>2015-08-06T09:44:49Z</time></trkpt>
<trkpt lat="28.096991" lon="99.752137">
<time>2015-08-06T09:44:50Z</time></trkpt>
<trkpt lat="28.096631" lon="99.752147">
<time>2015-08-06T09:44:51Z</time></trkpt>
<trkpt lat="28.096451" lon="99.752057">
<time>2015-08-06T09:44:52Z</time></trkpt>
<trkpt lat="28.096371" lon="99.751747">
<time>2015-08-06T09:44:53Z</time></trkpt>
<trkpt lat="28.096281" lon="99.751477">
<time>2015-08-06T09:44:54Z</time></trkpt>
<trkpt lat="28.096271" lon="99.751137">
<time>2015-08-06T09:44:55Z</time></trkpt>
<trkpt lat="28.096301" lon="99.750537">
<time>2015-08-06T09:44:56Z</time></trkpt>
<trkpt lat="28.096321" lon="99.750327">
<time>2015-08-06T09:44:57Z</time></trkpt>
<trkpt lat="28.096321" lon="99.750028">
<time>2015-08-06T09:44:58Z</time></trkpt>
<trkpt lat="28.096321" lon="99.750018">
<time>2015-08-06T09:44:59Z</time></trkpt>
<trkpt lat="28.096151" lon="99.749808">
<time>2015-08-06T09:45:00Z</time></trkpt>
<trkpt lat="28.096011" lon="99.749508">
<time>2015-08-06T09:45:01Z</time></trkpt>
<trkpt lat="28.095861" lon="99.749168">
<time>2015-08-06T09:45:02Z</time></trkpt>
<trkpt lat="28.095781" lon="99.748738">
<time>2015-08-06T09:45:03Z</time></trkpt>
<trkpt lat="28.095691" lon="99.748548">
<time>2015-08-06T09:45:04Z</time></trkpt>
<trkpt lat="28.095401" lon="99.748228">
<time>2015-08-06T09:45:05Z</time></trkpt>
<trkpt lat="28.095001" lon="99.747778">
<time>2015-08-06T09:45:06Z</time></trkpt>
<trkpt lat="28.094451" lon="99.747358">
<time>2015-08-06T09:45:07Z</time></trkpt>
<trkpt lat="28.094281" lon="99.747178">
<time>2015-08-06T09:45:08Z</time></trkpt>
<trkpt lat="28.094211" lon="99.747048">
<time>2015-08-06T09:45:09Z</time></trkpt>
<trkpt lat="28.094211" lon="99.746868">
<time>2015-08-06T09:45:10Z</time></trkpt>
<trkpt lat="28.094211" lon="99.746848">
<time>2015-08-06T09:45:11Z</time></trkpt>
<trkpt lat="28.094211" lon="99.746668">
<time>2015-08-06T09:45:12Z</time></trkpt>
<trkpt lat="28.094191" lon="99.746568">
<time>2015-08-06T09:45:13Z</time></trkpt>
<trkpt lat="28.094151" lon="99.746518">
<time>2015-08-06T09:45:14Z</time></trkpt>
<trkpt lat="28.094021" lon="99.746468">
<time>2015-08-06T09:45:15Z</time></trkpt>
<trkpt lat="28.093801" lon="99.746428">
<time>2015-08-06T09:45:16Z</time></trkpt>
<trkpt lat="28.093661" lon="99.746258">
<time>2015-08-06T09:45:17Z</time></trkpt>
<trkpt lat="28.093611" lon="99.746178">
<time>2015-08-06T09:45:18Z</time></trkpt>
<trkpt lat="28.093591" lon="99.746018">
<time>2015-08-06T09:45:19Z</time></trkpt>
<trkpt lat="28.093711" lon="99.745668">
<time>2015-08-06T09:45:20Z</time></trkpt>
<trkpt lat="28.093711" lon="99.745628">
<time>2015-08-06T09:45:21Z</time></trkpt>
<trkpt lat="28.093691" lon="99.745548">
<time>2015-08-06T09:45:22Z</time></trkpt>
<trkpt lat="28.093411" lon="99.745318">
<time>2015-08-06T09:45:23Z</time></trkpt>
<trkpt lat="28.093391" lon="99.745268">
<time>2015-08-06T09:45:24Z</time></trkpt>
<trkpt lat="28.093381" lon="99.745138">
<time>2015-08-06T09:45:25Z</time></trkpt>
<trkpt lat="28.093401" lon="99.744949">
<time>2015-08-06T09:45:26Z</time></trkpt>
<trkpt lat="28.093401" lon="99.744919">
<time>2015-08-06T09:45:27Z</time></trkpt>
<trkpt lat="28.093401" lon="99.744739">
<time>2015-08-06T09:45:28Z</time></trkpt>
<trkpt lat="28.093381" lon="99.744499">
<time>2015-08-06T09:45:29Z</time></trkpt>
<trkpt lat="28.093281" lon="99.744209">
<time>2015-08-06T09:45:30Z</time></trkpt>
<trkpt lat="28.093131" lon="99.743979">
<time>2015-08-06T09:45:31Z</time></trkpt>
<trkpt lat="28.093081" lon="99.743609">
<time>2015-08-06T09:45:32Z</time></trkpt>
<trkpt lat="28.093091" lon="99.743349">
<time>2015-08-06T09:45:33Z</time></trkpt>
<trkpt lat="28.093111" lon="99.743189">
<time>2015-08-06T09:45:34Z</time></trkpt>
<trkpt lat="28.093151" lon="99.743039">
<time>2015-08-06T09:45:35Z</time></trkpt>
<trkpt lat="28.093131" lon="99.742959">
<time>2015-08-06T09:45:36Z</time></trkpt>
<trkpt lat="28.092941" lon="99.742709">
<time>2015-08-06T09:45:37Z</time></trkpt>
<trkpt lat="28.092701" lon="99.74221">
<time>2015-08-06T09:45:38Z</time></trkpt>
<trkpt lat="28.092691" lon="99.74217">
<time>2015-08-06T09:45:39Z</time></trkpt>
<trkpt lat="28.092611" lon="99.74208">
<time>2015-08-06T09:45:40Z</time></trkpt>
<trkpt lat="28.092262" lon="99.74137">
<time>2015-08-06T09:45:41Z</time></trkpt>
<trkpt lat="28.091912" lon="99.74091">
<time>2015-08-06T09:45:42Z</time></trkpt>
<trkpt lat="28.091742" lon="99.74056">
<time>2015-08-06T09:45:43Z</time></trkpt>
<trkpt lat="28.091792" lon="99.74035">
<time>2015-08-06T09:45:44Z</time></trkpt>
<trkpt lat="28.091792" lon="99.74024">
<time>2015-08-06T09:45:45Z</time></trkpt>
<trkpt lat="28.091772" lon="99.740131">
<time>2015-08-06T09:45:46Z</time></trkpt>
<trkpt lat="28.091742" lon="99.740101">
<time>2015-08-06T09:45:47Z</time></trkpt>
<trkpt lat="28.091742" lon="99.740091">
<time>2015-08-06T09:45:48Z</time></trkpt>
<trkpt lat="28.091692" lon="99.740001">
<time>2015-08-06T09:45:49Z</time></trkpt>
<trkpt lat="28.091622" lon="99.739931">
<time>2015-08-06T09:45:50Z</time></trkpt>
<trkpt lat="28.091342" lon="99.739811">
<time>2015-08-06T09:45:51Z</time></trkpt>
<trkpt lat="28.091272" lon="99.739741">
<time>2015-08-06T09:45:52Z</time></trkpt>
<trkpt lat="28.091262" lon="99.739701">
<time>2015-08-06T09:45:53Z</time></trkpt>
<trkpt lat="28.091182" lon="99.739631">
<time>2015-08-06T09:45:54Z</time></trkpt>
<trkpt lat="28.091042" lon="99.739611">
<time>2015-08-06T09:45:55Z</time></trkpt>
<trkpt lat="28.090872" lon="99.739581">
<time>2015-08-06T09:45:56Z</time></trkpt>
<trkpt lat="28.090752" lon="99.739511">
<time>2015-08-06T09:45:57Z</time></trkpt>
<trkpt lat="28.090692" lon="99.739441">
<time>2015-08-06T09:45:58Z</time></trkpt>
<trkpt lat="28.090662" lon="99.739331">
<time>2015-08-06T09:45:59Z</time></trkpt>
<trkpt lat="28.090672" lon="99.739181">
<time>2015-08-06T09:46:00Z</time></trkpt>
<trkpt lat="28.090652" lon="99.739071">
<time>2015-08-06T09:46:01Z</time></trkpt>
<trkpt lat="28.090472" lon="99.738671">
<time>2015-08-06T09:46:02Z</time></trkpt>
<trkpt lat="28.090343" lon="99.738202">
<time>2015-08-06T09:46:03Z</time></trkpt>
<trkpt lat="28.090333" lon="99.737672">
<time>2015-08-06T09:46:04Z</time></trkpt>
<trkpt lat="28.090343" lon="99.737412">
<time>2015-08-06T09:46:05Z</time></trkpt>
<trkpt lat="28.090283" lon="99.737272">
<time>2015-08-06T09:46:06Z</time></trkpt>
<trkpt lat="28.090143" lon="99.736932">
<time>2015-08-06T09:46:07Z</time></trkpt>
<trkpt lat="28.090083" lon="99.736643">
<time>2015-08-06T09:46:08Z</time></trkpt>
<trkpt lat="28.090083" lon="99.736463">
<time>2015-08-06T09:46:09Z</time></trkpt>
<trkpt lat="28.090003" lon="99.736323">
<time>2015-08-06T09:46:10Z</time></trkpt>
<trkpt lat="28.089843" lon="99.736323">
<time>2015-08-06T09:46:11Z</time></trkpt>
<trkpt lat="28.089753" lon="99.736223">
<time>2015-08-06T09:46:12Z</time></trkpt>
<trkpt lat="28.089753" lon="99.736143">
<time>2015-08-06T09:46:13Z</time></trkpt>
<trkpt lat="28.089763" lon="99.735923">
<time>2015-08-06T09:46:14Z</time></trkpt>
<trkpt lat="28.089734" lon="99.735733">
<time>2015-08-06T09:46:15Z</time></trkpt>
<trkpt lat="28.089664" lon="99.735503">
<time>2015-08-06T09:46:16Z</time></trkpt>
<trkpt lat="28.089604" lon="99.735433">
<time>2015-08-06T09:46:17Z</time></trkpt>
<trkpt lat="28.089484" lon="99.735403">
<time>2015-08-06T09:46:18Z</time></trkpt>
<trkpt lat="28.089434" lon="99.735423">
<time>2015-08-06T09:46:19Z</time></trkpt>
<trkpt lat="28.089244" lon="99.735593">
<time>2015-08-06T09:46:20Z</time></trkpt>
<trkpt lat="28.089053" lon="99.735723">
<time>2015-08-06T09:46:21Z</time></trkpt>
<trkpt lat="28.088833" lon="99.735773">
<time>2015-08-06T09:46:22Z</time></trkpt>
<trkpt lat="28.088603" lon="99.735783">
<time>2015-08-06T09:46:23Z</time></trkpt>
<trkpt lat="28.088303" lon="99.735723">
<time>2015-08-06T09:46:24Z</time></trkpt>
<trkpt lat="28.087973" lon="99.735663">
<time>2015-08-06T09:46:25Z</time></trkpt>
<trkpt lat="28.087683" lon="99.735473">
<time>2015-08-06T09:46:26Z</time></trkpt>
<trkpt lat="28.087623" lon="99.735463">
<time>2015-08-06T09:46:27Z</time></trkpt>
<trkpt lat="28.087373" lon="99.735533">
<time>2015-08-06T09:46:28Z</time></trkpt>
<trkpt lat="28.086933" lon="99.735603">
<time>2015-08-06T09:46:29Z</time></trkpt>
<trkpt lat="28.086853" lon="99.735643">
<time>2015-08-06T09:46:30Z</time></trkpt>
<trkpt lat="28.086733" lon="99.735703">
<time>2015-08-06T09:46:31Z</time></trkpt>
<trkpt lat="28.086703" lon="99.735773">
<time>2015-08-06T09:46:32Z</time></trkpt>
<trkpt lat="28.086463" lon="99.735843">
<time>2015-08-06T09:46:33Z</time></trkpt>
<trkpt lat="28.086103" lon="99.735853">
<time>2015-08-06T09:46:34Z</time></trkpt>
<trkpt lat="28.085993" lon="99.735873">
<time>2015-08-06T09:46:35Z</time></trkpt>
<trkpt lat="28.085903" lon="99.735933">
<time>2015-08-06T09:46:36Z</time></trkpt>
<trkpt lat="28.085793" lon="99.736003">
<time>2015-08-06T09:46:37Z</time></trkpt>
<trkpt lat="28.085453" lon="99.736093">
<time>2015-08-06T09:46:38Z</time></trkpt>
<trkpt lat="28.085123" lon="99.736193">
<time>2015-08-06T09:46:39Z</time></trkpt>
<trkpt lat="28.085093" lon="99.736213">
<time>2015-08-06T09:46:40Z</time></trkpt>
<trkpt lat="28.084873" lon="99.736283">
<time>2015-08-06T09:46:41Z</time></trkpt>
<trkpt lat="28.084433" lon="99.736383">
<time>2015-08-06T09:46:42Z</time></trkpt>
<trkpt lat="28.084203" lon="99.736373">
<time>2015-08-06T09:46:43Z</time></trkpt>
<trkpt lat="28.083943" lon="99.736273">
<time>2015-08-06T09:46:44Z</time></trkpt>
<trkpt lat="28.083633" lon="99.736103">
<time>2015-08-06T09:46:45Z</time></trkpt>
<trkpt lat="28.083503" lon="99.736053">
<time>2015-08-06T09:46:46Z</time></trkpt>
<trkpt lat="28.083413" lon="99.736053">
<time>2015-08-06T09:46:47Z</time></trkpt>
<trkpt lat="28.083353" lon="99.736073">
<time>2015-08-06T09:46:48Z</time></trkpt>
<trkpt lat="28.083233" lon="99.736123">
<time>2015-08-06T09:46:49Z</time></trkpt>
<trkpt lat="28.083102" lon="99.736243">
<time>2015-08-06T09:46:50Z</time></trkpt>
<trkpt lat="28.082812" lon="99.736443">
<time>2015-08-06T09:46:51Z</time></trkpt>
<trkpt lat="28.082492" lon="99.736543">
<time>2015-08-06T09:46:52Z</time></trkpt>
<trkpt lat="28.082112" lon="99.736563">
<time>2015-08-06T09:46:53Z</time></trkpt>
<trkpt lat="28.081882" lon="99.736613">
<time>2015-08-06T09:46:54Z</time></trkpt>
<trkpt lat="28.081832" lon="99.736603">
<time>2015-08-06T09:46:55Z</time></trkpt>
<trkpt lat="28.081792" lon="99.736583">
<time>2015-08-06T09:46:56Z</time></trkpt>
<trkpt lat="28.081762" lon="99.736563">
<time>2015-08-06T09:46:57Z</time></trkpt>
<trkpt lat="28.081742" lon="99.736523">
<time>2015-08-06T09:46:58Z</time></trkpt>
<trkpt lat="28.081732" lon="99.736483">
<time>2015-08-06T09:46:59Z</time></trkpt>
<trkpt lat="28.081732" lon="99.736433">
<time>2015-08-06T09:47:00Z</time></trkpt>
<trkpt lat="28.081732" lon="99.736393">
<time>2015-08-06T09:47:01Z</time></trkpt>
<trkpt lat="28.081752" lon="99.736343">
<time>2015-08-06T09:47:02Z</time></trkpt>
<trkpt lat="28.081992" lon="99.735963">
<time>2015-08-06T09:47:03Z</time></trkpt>
<trkpt lat="28.082083" lon="99.735833">
<time>2015-08-06T09:47:04Z</time></trkpt>
<trkpt lat="28.082383" lon="99.735344">
<time>2015-08-06T09:47:05Z</time></trkpt>
<trkpt lat="28.082393" lon="99.735324">
<time>2015-08-06T09:47:06Z</time></trkpt>
<trkpt lat="28.082703" lon="99.735024">
<time>2015-08-06T09:47:07Z</time></trkpt>
<trkpt lat="28.082793" lon="99.734894">
<time>2015-08-06T09:47:08Z</time></trkpt>
<trkpt lat="28.082843" lon="99.734784">
<time>2015-08-06T09:47:09Z</time></trkpt>
<trkpt lat="28.082923" lon="99.734244">
<time>2015-08-06T09:47:10Z</time></trkpt>
<trkpt lat="28.082964" lon="99.734145">
<time>2015-08-06T09:47:11Z</time></trkpt>
<trkpt lat="28.083354" lon="99.733675">
<time>2015-08-06T09:47:12Z</time></trkpt>
<trkpt lat="28.083404" lon="99.733605">
<time>2015-08-06T09:47:13Z</time></trkpt>
<trkpt lat="28.083624" lon="99.733285">
<time>2015-08-06T09:47:14Z</time></trkpt>
<trkpt lat="28.084195" lon="99.732706">
<time>2015-08-06T09:47:15Z</time></trkpt>
<trkpt lat="28.084425" lon="99.732516">
<time>2015-08-06T09:47:16Z</time></trkpt>
<trkpt lat="28.084795" lon="99.732286">
<time>2015-08-06T09:47:17Z</time></trkpt>
<trkpt lat="28.085075" lon="99.732086">
<time>2015-08-06T09:47:18Z</time></trkpt>
<trkpt lat="28.085205" lon="99.731896">
<time>2015-08-06T09:47:19Z</time></trkpt>
<trkpt lat="28.085255" lon="99.731756">
<time>2015-08-06T09:47:20Z</time></trkpt>
<trkpt lat="28.085285" lon="99.731627">
<time>2015-08-06T09:47:21Z</time></trkpt>
<trkpt lat="28.085315" lon="99.731557">
<time>2015-08-06T09:47:22Z</time></trkpt>
<trkpt lat="28.085375" lon="99.731527">
<time>2015-08-06T09:47:23Z</time></trkpt>
<trkpt lat="28.085666" lon="99.731427">
<time>2015-08-06T09:47:24Z</time></trkpt>
<trkpt lat="28.085776" lon="99.731407">
<time>2015-08-06T09:47:25Z</time></trkpt>
<trkpt lat="28.085916" lon="99.731297">
<time>2015-08-06T09:47:26Z</time></trkpt>
<trkpt lat="28.085956" lon="99.731237">
<time>2015-08-06T09:47:27Z</time></trkpt>
<trkpt lat="28.086336" lon="99.730797">
<time>2015-08-06T09:47:28Z</time></trkpt>
<trkpt lat="28.086356" lon="99.730767">
<time>2015-08-06T09:47:29Z</time></trkpt>
<trkpt lat="28.086626" lon="99.730298">
<time>2015-08-06T09:47:30Z</time></trkpt>
<trkpt lat="28.086737" lon="99.730128">
<time>2015-08-06T09:47:31Z</time></trkpt>
<trkpt lat="28.086847" lon="99.730068">
<time>2015-08-06T09:47:32Z</time></trkpt>
<trkpt lat="28.086857" lon="99.730068">
<time>2015-08-06T09:47:33Z</time></trkpt>
<trkpt lat="28.087287" lon="99.729928">
<time>2015-08-06T09:47:34Z</time></trkpt>
<trkpt lat="28.087557" lon="99.729908">
<time>2015-08-06T09:47:35Z</time></trkpt>
<trkpt lat="28.087657" lon="99.729868">
<time>2015-08-06T09:47:36Z</time></trkpt>
<trkpt lat="28.087797" lon="99.729668">
<time>2015-08-06T09:47:37Z</time></trkpt>
<trkpt lat="28.087927" lon="99.729558">
<time>2015-08-06T09:47:38Z</time></trkpt>
<trkpt lat="28.088127" lon="99.729438">
<time>2015-08-06T09:47:39Z</time></trkpt>
<trkpt lat="28.088297" lon="99.729239">
<time>2015-08-06T09:47:40Z</time></trkpt>
<trkpt lat="28.088307" lon="99.729219">
<time>2015-08-06T09:47:41Z</time></trkpt>
<trkpt lat="28.088357" lon="99.729159">
<time>2015-08-06T09:47:42Z</time></trkpt>
<trkpt lat="28.088868" lon="99.728919">
<time>2015-08-06T09:47:43Z</time></trkpt>
<trkpt lat="28.089298" lon="99.728609">
<time>2015-08-06T09:47:44Z</time></trkpt>
<trkpt lat="28.089398" lon="99.728539">
<time>2015-08-06T09:47:45Z</time></trkpt>
<trkpt lat="28.089668" lon="99.72828">
<time>2015-08-06T09:47:46Z</time></trkpt>
<trkpt lat="28.089929" lon="99.72789">
<time>2015-08-06T09:47:47Z</time></trkpt>
<trkpt lat="28.090069" lon="99.7278">
<time>2015-08-06T09:47:48Z</time></trkpt>
<trkpt lat="28.090339" lon="99.72746">
<time>2015-08-06T09:47:49Z</time></trkpt>
<trkpt lat="28.090659" lon="99.727081">
<time>2015-08-06T09:47:50Z</time></trkpt>
<trkpt lat="28.09092" lon="99.726931">
<time>2015-08-06T09:47:51Z</time></trkpt>
<trkpt lat="28.09121" lon="99.726861">
<time>2015-08-06T09:47:52Z</time></trkpt>
<trkpt lat="28.0913" lon="99.726811">
<time>2015-08-06T09:47:53Z</time></trkpt>
<trkpt lat="28.09135" lon="99.726751">
<time>2015-08-06T09:47:54Z</time></trkpt>
<trkpt lat="28.09144" lon="99.726501">
<time>2015-08-06T09:47:55Z</time></trkpt>
<trkpt lat="28.09149" lon="99.726342">
<time>2015-08-06T09:47:56Z</time></trkpt>
<trkpt lat="28.09151" lon="99.726142">
<time>2015-08-06T09:47:57Z</time></trkpt>
<trkpt lat="28.091581" lon="99.725512">
<time>2015-08-06T09:47:58Z</time></trkpt>
<trkpt lat="28.091621" lon="99.725093">
<time>2015-08-06T09:47:59Z</time></trkpt>
<trkpt lat="28.091682" lon="99.724703">
<time>2015-08-06T09:48:00Z</time></trkpt>
<trkpt lat="28.091722" lon="99.724354">
<time>2015-08-06T09:48:01Z</time></trkpt>
<trkpt lat="28.091712" lon="99.724064">
<time>2015-08-06T09:48:02Z</time></trkpt>
<trkpt lat="28.091682" lon="99.723844">
<time>2015-08-06T09:48:03Z</time></trkpt>
<trkpt lat="28.091633" lon="99.723665">
<time>2015-08-06T09:48:04Z</time></trkpt>
<trkpt lat="28.091653" lon="99.723425">
<time>2015-08-06T09:48:05Z</time></trkpt>
<trkpt lat="28.091793" lon="99.722975">
<time>2015-08-06T09:48:06Z</time></trkpt>
<trkpt lat="28.091833" lon="99.722756">
<time>2015-08-06T09:48:07Z</time></trkpt>
<trkpt lat="28.091844" lon="99.722606">
<time>2015-08-06T09:48:08Z</time></trkpt>
<trkpt lat="28.091864" lon="99.722416">
<time>2015-08-06T09:48:09Z</time></trkpt>
<trkpt lat="28.091864" lon="99.722266">
<time>2015-08-06T09:48:10Z</time></trkpt>
<trkpt lat="28.091824" lon="99.721837">
<time>2015-08-06T09:48:11Z</time></trkpt>
<trkpt lat="28.091795" lon="99.721477">
<time>2015-08-06T09:48:12Z</time></trkpt>
<trkpt lat="28.091785" lon="99.721238">
<time>2015-08-06T09:48:13Z</time></trkpt>
<trkpt lat="28.091675" lon="99.720888">
<time>2015-08-06T09:48:14Z</time></trkpt>
<trkpt lat="28.091596" lon="99.720548">
<time>2015-08-06T09:48:15Z</time></trkpt>
<trkpt lat="28.091576" lon="99.720379">
<time>2015-08-06T09:48:16Z</time></trkpt>
<trkpt lat="28.091576" lon="99.720349">
<time>2015-08-06T09:48:17Z</time></trkpt>
<trkpt lat="28.091576" lon="99.720049">
<time>2015-08-06T09:48:18Z</time></trkpt>
<trkpt lat="28.091546" lon="99.719969">
<time>2015-08-06T09:48:19Z</time></trkpt>
<trkpt lat="28.091466" lon="99.719829">
<time>2015-08-06T09:48:20Z</time></trkpt>
<trkpt lat="28.091306" lon="99.71966">
<time>2015-08-06T09:48:21Z</time></trkpt>
<trkpt lat="28.091067" lon="99.71947">
<time>2015-08-06T09:48:22Z</time></trkpt>
<trkpt lat="28.090577" lon="99.71932">
<time>2015-08-06T09:48:23Z</time></trkpt>
<trkpt lat="28.090557" lon="99.71927">
<time>2015-08-06T09:48:24Z</time></trkpt>
<trkpt lat="28.090557" lon="99.71922">
<time>2015-08-06T09:48:25Z</time></trkpt>
<trkpt lat="28.090647" lon="99.719051">
<time>2015-08-06T09:48:26Z</time></trkpt>
<trkpt lat="28.090847" lon="99.718721">
<time>2015-08-06T09:48:27Z</time></trkpt>
<trkpt lat="28.090948" lon="99.718381">
<time>2015-08-06T09:48:28Z</time></trkpt>
<trkpt lat="28.090978" lon="99.718331">
<time>2015-08-06T09:48:29Z</time></trkpt>
<trkpt lat="28.091078" lon="99.718182">
<time>2015-08-06T09:48:30Z</time></trkpt>
<trkpt lat="28.091188" lon="99.717942">
<time>2015-08-06T09:48:31Z</time></trkpt>
<trkpt lat="28.091218" lon="99.717862">
<time>2015-08-06T09:48:32Z</time></trkpt>
<trkpt lat="28.091228" lon="99.717812">
<time>2015-08-06T09:48:33Z</time></trkpt>
<trkpt lat="28.091229" lon="99.717772">
<time>2015-08-06T09:48:34Z</time></trkpt>
<trkpt lat="28.091209" lon="99.717742">
<time>2015-08-06T09:48:35Z</time></trkpt>
<trkpt lat="28.091189" lon="99.717712">
<time>2015-08-06T09:48:36Z</time></trkpt>
<trkpt lat="28.091159" lon="99.717702">
<time>2015-08-06T09:48:37Z</time></trkpt>
<trkpt lat="28.091109" lon="99.717682">
<time>2015-08-06T09:48:38Z</time></trkpt>
<trkpt lat="28.090789" lon="99.717622">
<time>2015-08-06T09:48:39Z</time></trkpt>
<trkpt lat="28.089659" lon="99.717173">
<time>2015-08-06T09:48:40Z</time></trkpt>
<trkpt lat="28.088269" lon="99.716634">
<time>2015-08-06T09:48:41Z</time></trkpt>
<trkpt lat="28.088259" lon="99.716634">
<time>2015-08-06T09:48:42Z</time></trkpt>
<trkpt lat="28.08744" lon="99.716344">
<time>2015-08-06T09:48:43Z</time></trkpt>
<trkpt lat="28.08656" lon="99.716035">
<time>2015-08-06T09:48:44Z</time></trkpt>
<trkpt lat="28.08555" lon="99.715705">
<time>2015-08-06T09:48:45Z</time></trkpt>
<trkpt lat="28.08484" lon="99.715426">
<time>2015-08-06T09:48:46Z</time></trkpt>
<trkpt lat="28.084111" lon="99.715156">
<time>2015-08-06T09:48:47Z</time></trkpt>
<trkpt lat="28.083761" lon="99.715026">
<time>2015-08-06T09:48:48Z</time></trkpt>
<trkpt lat="28.083451" lon="99.714897">
<time>2015-08-06T09:48:49Z</time></trkpt>
<trkpt lat="28.083351" lon="99.714857">
<time>2015-08-06T09:48:50Z</time></trkpt>
<trkpt lat="28.083231" lon="99.714817">
<time>2015-08-06T09:48:51Z</time></trkpt>
<trkpt lat="28.083061" lon="99.714757">
<time>2015-08-06T09:48:52Z</time></trkpt>
<trkpt lat="28.082471" lon="99.714517">
<time>2015-08-06T09:48:53Z</time></trkpt>
<trkpt lat="28.081392" lon="99.714098">
<time>2015-08-06T09:48:54Z</time></trkpt>
<trkpt lat="28.080862" lon="99.713908">
<time>2015-08-06T09:48:55Z</time></trkpt>
<trkpt lat="28.080192" lon="99.713699">
<time>2015-08-06T09:48:56Z</time></trkpt>
<trkpt lat="28.079972" lon="99.713639">
<time>2015-08-06T09:48:57Z</time></trkpt>
<trkpt lat="28.079552" lon="99.713719">
<time>2015-08-06T09:48:58Z</time></trkpt>
<trkpt lat="28.078561" lon="99.714058">
<time>2015-08-06T09:48:59Z</time></trkpt>
<trkpt lat="28.077681" lon="99.714348">
<time>2015-08-06T09:49:00Z</time></trkpt>
<trkpt lat="28.07689" lon="99.714517">
<time>2015-08-06T09:49:01Z</time></trkpt>
<trkpt lat="28.07688" lon="99.714517">
<time>2015-08-06T09:49:02Z</time></trkpt>
<trkpt lat="28.07624" lon="99.714458">
<time>2015-08-06T09:49:03Z</time></trkpt>
<trkpt lat="28.07585" lon="99.714398">
<time>2015-08-06T09:49:04Z</time></trkpt>
<trkpt lat="28.07562" lon="99.714388">
<time>2015-08-06T09:49:05Z</time></trkpt>
<trkpt lat="28.07553" lon="99.714398">
<time>2015-08-06T09:49:06Z</time></trkpt>
<trkpt lat="28.07544" lon="99.714428">
<time>2015-08-06T09:49:07Z</time></trkpt>
<trkpt lat="28.07509" lon="99.714697">
<time>2015-08-06T09:49:08Z</time></trkpt>
<trkpt lat="28.07464" lon="99.714987">
<time>2015-08-06T09:49:09Z</time></trkpt>
<trkpt lat="28.073819" lon="99.715366">
<time>2015-08-06T09:49:10Z</time></trkpt>
<trkpt lat="28.073719" lon="99.715406">
<time>2015-08-06T09:49:11Z</time></trkpt>
<trkpt lat="28.072238" lon="99.716165">
<time>2015-08-06T09:49:12Z</time></trkpt>
<trkpt lat="28.071467" lon="99.716545">
<time>2015-08-06T09:49:13Z</time></trkpt>
<trkpt lat="28.070667" lon="99.716924">
<time>2015-08-06T09:49:14Z</time></trkpt>
<trkpt lat="28.070216" lon="99.717134">
<time>2015-08-06T09:49:15Z</time></trkpt>
<trkpt lat="28.069566" lon="99.717573">
<time>2015-08-06T09:49:16Z</time></trkpt>
<trkpt lat="28.069055" lon="99.717933">
<time>2015-08-06T09:49:17Z</time></trkpt>
<trkpt lat="28.069055" lon="99.717933">
<time>2015-08-06T09:49:18Z</time></trkpt>
<trkpt lat="28.069046" lon="99.717323">
<time>2015-08-06T09:49:19Z</time></trkpt>
<trkpt lat="28.069036" lon="99.717174">
<time>2015-08-06T09:49:20Z</time></trkpt>
<trkpt lat="28.069006" lon="99.717114">
<time>2015-08-06T09:49:21Z</time></trkpt>
<trkpt lat="28.068976" lon="99.717094">
<time>2015-08-06T09:49:22Z</time></trkpt>
<trkpt lat="28.068796" lon="99.716954">
<time>2015-08-06T09:49:23Z</time></trkpt>
<trkpt lat="28.068726" lon="99.716894">
<time>2015-08-06T09:49:24Z</time></trkpt>
<trkpt lat="28.068637" lon="99.716704">
<time>2015-08-06T09:49:25Z</time></trkpt>
<trkpt lat="28.068607" lon="99.716654">
<time>2015-08-06T09:49:26Z</time></trkpt>
<trkpt lat="28.068537" lon="99.716585">
<time>2015-08-06T09:49:27Z</time></trkpt>
<trkpt lat="28.068417" lon="99.716535">
<time>2015-08-06T09:49:28Z</time></trkpt>
<trkpt lat="28.067867" lon="99.716375">
<time>2015-08-06T09:49:29Z</time></trkpt>
<trkpt lat="28.067797" lon="99.716345">
<time>2015-08-06T09:49:30Z</time></trkpt>
<trkpt lat="28.067777" lon="99.716295">
<time>2015-08-06T09:49:31Z</time></trkpt>
<trkpt lat="28.067777" lon="99.716245">
<time>2015-08-06T09:49:32Z</time></trkpt>
<trkpt lat="28.067698" lon="99.715676">
<time>2015-08-06T09:49:33Z</time></trkpt>
<trkpt lat="28.067608" lon="99.715516">
<time>2015-08-06T09:49:34Z</time></trkpt>
<trkpt lat="28.067538" lon="99.715506">
<time>2015-08-06T09:49:35Z</time></trkpt>
<trkpt lat="28.067028" lon="99.715466">
<time>2015-08-06T09:49:36Z</time></trkpt>
<trkpt lat="28.066878" lon="99.715396">
<time>2015-08-06T09:49:37Z</time></trkpt>
<trkpt lat="28.066688" lon="99.715167">
<time>2015-08-06T09:49:38Z</time></trkpt>
<trkpt lat="28.066558" lon="99.715087">
<time>2015-08-06T09:49:39Z</time></trkpt>
<trkpt lat="28.066468" lon="99.715107">
<time>2015-08-06T09:49:40Z</time></trkpt>
<trkpt lat="28.066168" lon="99.715316">
<time>2015-08-06T09:49:41Z</time></trkpt>
<trkpt lat="28.066118" lon="99.715346">
<time>2015-08-06T09:49:42Z</time></trkpt>
<trkpt lat="28.066068" lon="99.715436">
<time>2015-08-06T09:49:43Z</time></trkpt>
<trkpt lat="28.065737" lon="99.716015">
<time>2015-08-06T09:49:44Z</time></trkpt>
<trkpt lat="28.065247" lon="99.716165">
<time>2015-08-06T09:49:45Z</time></trkpt>
<trkpt lat="28.064487" lon="99.716315">
<time>2015-08-06T09:49:46Z</time></trkpt>
<trkpt lat="28.064006" lon="99.716565">
<time>2015-08-06T09:49:47Z</time></trkpt>
<trkpt lat="28.063726" lon="99.716635">
<time>2015-08-06T09:49:48Z</time></trkpt>
<trkpt lat="28.063376" lon="99.716645">
<time>2015-08-06T09:49:49Z</time></trkpt>
<trkpt lat="28.063176" lon="99.716575">
<time>2015-08-06T09:49:50Z</time></trkpt>
<trkpt lat="28.063176" lon="99.716565">
<time>2015-08-06T09:49:51Z</time></trkpt>
<trkpt lat="28.062986" lon="99.716525">
<time>2015-08-06T09:49:52Z</time></trkpt>
<trkpt lat="28.062476" lon="99.716355">
<time>2015-08-06T09:49:53Z</time></trkpt>
<trkpt lat="28.062186" lon="99.716345">
<time>2015-08-06T09:49:54Z</time></trkpt>
<trkpt lat="28.062106" lon="99.716375">
<time>2015-08-06T09:49:55Z</time></trkpt>
<trkpt lat="28.061926" lon="99.716375">
<time>2015-08-06T09:49:56Z</time></trkpt>
<trkpt lat="28.061666" lon="99.716225">
<time>2015-08-06T09:49:57Z</time></trkpt>
<trkpt lat="28.061346" lon="99.716075">
<time>2015-08-06T09:49:58Z</time></trkpt>
<trkpt lat="28.060616" lon="99.715976">
<time>2015-08-06T09:49:59Z</time></trkpt>
<trkpt lat="28.060066" lon="99.715876">
<time>2015-08-06T09:50:00Z</time></trkpt>
<trkpt lat="28.059526" lon="99.715826">
<time>2015-08-06T09:50:01Z</time></trkpt>
<trkpt lat="28.059376" lon="99.715826">
<time>2015-08-06T09:50:02Z</time></trkpt>
<trkpt lat="28.058776" lon="99.715856">
<time>2015-08-06T09:50:03Z</time></trkpt>
<trkpt lat="28.058416" lon="99.715836">
<time>2015-08-06T09:50:04Z</time></trkpt>
<trkpt lat="28.058196" lon="99.715776">
<time>2015-08-06T09:50:05Z</time></trkpt>
<trkpt lat="28.057546" lon="99.715626">
<time>2015-08-06T09:50:06Z</time></trkpt>
<trkpt lat="28.057056" lon="99.715656">
<time>2015-08-06T09:50:07Z</time></trkpt>
<trkpt lat="28.056056" lon="99.715686">
<time>2015-08-06T09:50:08Z</time></trkpt>
<trkpt lat="28.055356" lon="99.715616">
<time>2015-08-06T09:50:09Z</time></trkpt>
<trkpt lat="28.054936" lon="99.715437">
<time>2015-08-06T09:50:10Z</time></trkpt>
<trkpt lat="28.054856" lon="99.715417">
<time>2015-08-06T09:50:11Z</time></trkpt>
<trkpt lat="28.054276" lon="99.715347">
<time>2015-08-06T09:50:12Z</time></trkpt>
<trkpt lat="28.054076" lon="99.715377">
<time>2015-08-06T09:50:13Z</time></trkpt>
<trkpt lat="28.054046" lon="99.715397">
<time>2015-08-06T09:50:14Z</time></trkpt>
<trkpt lat="28.053816" lon="99.715546">
<time>2015-08-06T09:50:15Z</time></trkpt>
<trkpt lat="28.053816" lon="99.715546">
<time>2015-08-06T09:50:16Z</time></trkpt>
<trkpt lat="28.053446" lon="99.715167">
<time>2015-08-06T09:50:17Z</time></trkpt>
<trkpt lat="28.053286" lon="99.715077">
<time>2015-08-06T09:50:18Z</time></trkpt>
<trkpt lat="28.052956" lon="99.715027">
<time>2015-08-06T09:50:19Z</time></trkpt>
<trkpt lat="28.052686" lon="99.715037">
<time>2015-08-06T09:50:20Z</time></trkpt>
<trkpt lat="28.052526" lon="99.715037">
<time>2015-08-06T09:50:21Z</time></trkpt>
<trkpt lat="28.052386" lon="99.714997">
<time>2015-08-06T09:50:22Z</time></trkpt>
<trkpt lat="28.052226" lon="99.714858">
<time>2015-08-06T09:50:23Z</time></trkpt>
<trkpt lat="28.051967" lon="99.714648">
<time>2015-08-06T09:50:24Z</time></trkpt>
<trkpt lat="28.051797" lon="99.714508">
<time>2015-08-06T09:50:25Z</time></trkpt>
<trkpt lat="28.051577" lon="99.714418">
<time>2015-08-06T09:50:26Z</time></trkpt>
<trkpt lat="28.051037" lon="99.714298">
<time>2015-08-06T09:50:27Z</time></trkpt>
<trkpt lat="28.050827" lon="99.714248">
<time>2015-08-06T09:50:28Z</time></trkpt>
<trkpt lat="28.050657" lon="99.714199">
<time>2015-08-06T09:50:29Z</time></trkpt>
<trkpt lat="28.050497" lon="99.714139">
<time>2015-08-06T09:50:30Z</time></trkpt>
<trkpt lat="28.050037" lon="99.714069">
<time>2015-08-06T09:50:31Z</time></trkpt>
<trkpt lat="28.049627" lon="99.714059">
<time>2015-08-06T09:50:32Z</time></trkpt>
<trkpt lat="28.049177" lon="99.714049">
<time>2015-08-06T09:50:33Z</time></trkpt>
<trkpt lat="28.048647" lon="99.714079">
<time>2015-08-06T09:50:34Z</time></trkpt>
<trkpt lat="28.048377" lon="99.714059">
<time>2015-08-06T09:50:35Z</time></trkpt>
<trkpt lat="28.048237" lon="99.714039">
<time>2015-08-06T09:50:36Z</time></trkpt>
<trkpt lat="28.048167" lon="99.714049">
<time>2015-08-06T09:50:37Z</time></trkpt>
<trkpt lat="28.047687" lon="99.714099">
<time>2015-08-06T09:50:38Z</time></trkpt>
<trkpt lat="28.047267" lon="99.714189">
<time>2015-08-06T09:50:39Z</time></trkpt>
<trkpt lat="28.047196" lon="99.714219">
<time>2015-08-06T09:50:40Z</time></trkpt>
<trkpt lat="28.046966" lon="99.714348">
<time>2015-08-06T09:50:41Z</time></trkpt>
<trkpt lat="28.046786" lon="99.714448">
<time>2015-08-06T09:50:42Z</time></trkpt>
<trkpt lat="28.046556" lon="99.714478">
<time>2015-08-06T09:50:43Z</time></trkpt>
<trkpt lat="28.046386" lon="99.714508">
<time>2015-08-06T09:50:44Z</time></trkpt>
<trkpt lat="28.046186" lon="99.714538">
<time>2015-08-06T09:50:45Z</time></trkpt>
<trkpt lat="28.045656" lon="99.714538">
<time>2015-08-06T09:50:46Z</time></trkpt>
<trkpt lat="28.045546" lon="99.714528">
<time>2015-08-06T09:50:47Z</time></trkpt>
<trkpt lat="28.044656" lon="99.714538">
<time>2015-08-06T09:50:48Z</time></trkpt>
<trkpt lat="28.044176" lon="99.714548">
<time>2015-08-06T09:50:49Z</time></trkpt>
<trkpt lat="28.044126" lon="99.714548">
<time>2015-08-06T09:50:50Z</time></trkpt>
<trkpt lat="28.043885" lon="99.714608">
<time>2015-08-06T09:50:51Z</time></trkpt>
<trkpt lat="28.043765" lon="99.714688">
<time>2015-08-06T09:50:52Z</time></trkpt>
<trkpt lat="28.043635" lon="99.714758">
<time>2015-08-06T09:50:53Z</time></trkpt>
<trkpt lat="28.043505" lon="99.714818">
<time>2015-08-06T09:50:54Z</time></trkpt>
<trkpt lat="28.043375" lon="99.714878">
<time>2015-08-06T09:50:55Z</time></trkpt>
<trkpt lat="28.043235" lon="99.714898">
<time>2015-08-06T09:50:56Z</time></trkpt>
<trkpt lat="28.043015" lon="99.714938">
<time>2015-08-06T09:50:57Z</time></trkpt>
<trkpt lat="28.042945" lon="99.714958">
<time>2015-08-06T09:50:58Z</time></trkpt>
<trkpt lat="28.042725" lon="99.715008">
<time>2015-08-06T09:50:59Z</time></trkpt>
<trkpt lat="28.042345" lon="99.714998">
<time>2015-08-06T09:51:00Z</time></trkpt>
<trkpt lat="28.042125" lon="99.715028">
<time>2015-08-06T09:51:01Z</time></trkpt>
<trkpt lat="28.041605" lon="99.715107">
<time>2015-08-06T09:51:02Z</time></trkpt>
<trkpt lat="28.041564" lon="99.715117">
<time>2015-08-06T09:51:03Z</time></trkpt>
<trkpt lat="28.041294" lon="99.715177">
<time>2015-08-06T09:51:04Z</time></trkpt>
<trkpt lat="28.040904" lon="99.715307">
<time>2015-08-06T09:51:05Z</time></trkpt>
<trkpt lat="28.040754" lon="99.715357">
<time>2015-08-06T09:51:06Z</time></trkpt>
<trkpt lat="28.040654" lon="99.715367">
<time>2015-08-06T09:51:07Z</time></trkpt>
<trkpt lat="28.040554" lon="99.715357">
<time>2015-08-06T09:51:08Z</time></trkpt>
<trkpt lat="28.040344" lon="99.715277">
<time>2015-08-06T09:51:09Z</time></trkpt>
<trkpt lat="28.040104" lon="99.715217">
<time>2015-08-06T09:51:10Z</time></trkpt>
<trkpt lat="28.039984" lon="99.715217">
<time>2015-08-06T09:51:11Z</time></trkpt>
<trkpt lat="28.039804" lon="99.715207">
<time>2015-08-06T09:51:12Z</time></trkpt>
<trkpt lat="28.039514" lon="99.715157">
<time>2015-08-06T09:51:13Z</time></trkpt>
<trkpt lat="28.039424" lon="99.715147">
<time>2015-08-06T09:51:14Z</time></trkpt>
<trkpt lat="28.039274" lon="99.715038">
<time>2015-08-06T09:51:15Z</time></trkpt>
<trkpt lat="28.039035" lon="99.714778">
<time>2015-08-06T09:51:16Z</time></trkpt>
<trkpt lat="28.039005" lon="99.714758">
<time>2015-08-06T09:51:17Z</time></trkpt>
<trkpt lat="28.038905" lon="99.714698">
<time>2015-08-06T09:51:18Z</time></trkpt>
<trkpt lat="28.038355" lon="99.714588">
<time>2015-08-06T09:51:19Z</time></trkpt>
<trkpt lat="28.037775" lon="99.714548">
<time>2015-08-06T09:51:20Z</time></trkpt>
<trkpt lat="28.037515" lon="99.714498">
<time>2015-08-06T09:51:21Z</time></trkpt>
<trkpt lat="28.036815" lon="99.714389">
<time>2015-08-06T09:51:22Z</time></trkpt>
<trkpt lat="28.036455" lon="99.714379">
<time>2015-08-06T09:51:23Z</time></trkpt>
<trkpt lat="28.036184" lon="99.714469">
<time>2015-08-06T09:51:24Z</time></trkpt>
<trkpt lat="28.036094" lon="99.714498">
<time>2015-08-06T09:51:25Z</time></trkpt>
<trkpt lat="28.035524" lon="99.714578">
<time>2015-08-06T09:51:26Z</time></trkpt>
<trkpt lat="28.035384" lon="99.714598">
<time>2015-08-06T09:51:27Z</time></trkpt>
<trkpt lat="28.035044" lon="99.714568">
<time>2015-08-06T09:51:28Z</time></trkpt>
<trkpt lat="28.034674" lon="99.714598">
<time>2015-08-06T09:51:29Z</time></trkpt>
<trkpt lat="28.034294" lon="99.714738">
<time>2015-08-06T09:51:30Z</time></trkpt>
<trkpt lat="28.034044" lon="99.714768">
<time>2015-08-06T09:51:31Z</time></trkpt>
<trkpt lat="28.034034" lon="99.714768">
<time>2015-08-06T09:51:32Z</time></trkpt>
<trkpt lat="28.033624" lon="99.714848">
<time>2015-08-06T09:51:33Z</time></trkpt>
<trkpt lat="28.032863" lon="99.715168">
<time>2015-08-06T09:51:34Z</time></trkpt>
<trkpt lat="28.032043" lon="99.715527">
<time>2015-08-06T09:51:35Z</time></trkpt>
<trkpt lat="28.031682" lon="99.715647">
<time>2015-08-06T09:51:36Z</time></trkpt>
<trkpt lat="28.031442" lon="99.715707">
<time>2015-08-06T09:51:37Z</time></trkpt>
<trkpt lat="28.030972" lon="99.715867">
<time>2015-08-06T09:51:38Z</time></trkpt>
<trkpt lat="28.030672" lon="99.715986">
<time>2015-08-06T09:51:39Z</time></trkpt>
<trkpt lat="28.030552" lon="99.716016">
<time>2015-08-06T09:51:40Z</time></trkpt>
<trkpt lat="28.030462" lon="99.716016">
<time>2015-08-06T09:51:41Z</time></trkpt>
<trkpt lat="28.030112" lon="99.715907">
<time>2015-08-06T09:51:42Z</time></trkpt>
<trkpt lat="28.029812" lon="99.715907">
<time>2015-08-06T09:51:43Z</time></trkpt>
<trkpt lat="28.029521" lon="99.716046">
<time>2015-08-06T09:51:44Z</time></trkpt>
<trkpt lat="28.029131" lon="99.716296">
<time>2015-08-06T09:51:45Z</time></trkpt>
<trkpt lat="28.028771" lon="99.716376">
<time>2015-08-06T09:51:46Z</time></trkpt>
<trkpt lat="28.028641" lon="99.716436">
<time>2015-08-06T09:51:47Z</time></trkpt>
<trkpt lat="28.028461" lon="99.716476">
<time>2015-08-06T09:51:48Z</time></trkpt>
<trkpt lat="28.028081" lon="99.716566">
<time>2015-08-06T09:51:49Z</time></trkpt>
<trkpt lat="28.02774" lon="99.716685">
<time>2015-08-06T09:51:50Z</time></trkpt>
<trkpt lat="28.02728" lon="99.716735">
<time>2015-08-06T09:51:51Z</time></trkpt>
<trkpt lat="28.027" lon="99.716805">
<time>2015-08-06T09:51:52Z</time></trkpt>
<trkpt lat="28.02632" lon="99.717315">
<time>2015-08-06T09:51:53Z</time></trkpt>
<trkpt lat="28.026279" lon="99.717335">
<time>2015-08-06T09:51:54Z</time></trkpt>
<trkpt lat="28.025869" lon="99.717634">
<time>2015-08-06T09:51:55Z</time></trkpt>
<trkpt lat="28.025759" lon="99.717724">
<time>2015-08-06T09:51:56Z</time></trkpt>
<trkpt lat="28.025669" lon="99.717824">
<time>2015-08-06T09:51:57Z</time></trkpt>
<trkpt lat="28.025479" lon="99.718024">
<time>2015-08-06T09:51:58Z</time></trkpt>
<trkpt lat="28.025348" lon="99.718193">
<time>2015-08-06T09:51:59Z</time></trkpt>
<trkpt lat="28.024788" lon="99.718493">
<time>2015-08-06T09:52:00Z</time></trkpt>
<trkpt lat="28.024528" lon="99.718553">
<time>2015-08-06T09:52:01Z</time></trkpt>
<trkpt lat="28.024518" lon="99.718563">
<time>2015-08-06T09:52:02Z</time></trkpt>
<trkpt lat="28.024228" lon="99.718563">
<time>2015-08-06T09:52:03Z</time></trkpt>
<trkpt lat="28.024068" lon="99.718603">
<time>2015-08-06T09:52:04Z</time></trkpt>
<trkpt lat="28.023988" lon="99.718663">
<time>2015-08-06T09:52:05Z</time></trkpt>
<trkpt lat="28.023777" lon="99.718803">
<time>2015-08-06T09:52:06Z</time></trkpt>
<trkpt lat="28.023527" lon="99.719032">
<time>2015-08-06T09:52:07Z</time></trkpt>
<trkpt lat="28.023407" lon="99.719102">
<time>2015-08-06T09:52:08Z</time></trkpt>
<trkpt lat="28.023287" lon="99.719092">
<time>2015-08-06T09:52:09Z</time></trkpt>
<trkpt lat="28.023197" lon="99.719072">
<time>2015-08-06T09:52:10Z</time></trkpt>
<trkpt lat="28.022987" lon="99.718992">
<time>2015-08-06T09:52:11Z</time></trkpt>
<trkpt lat="28.022777" lon="99.718972">
<time>2015-08-06T09:52:12Z</time></trkpt>
<trkpt lat="28.022497" lon="99.718823">
<time>2015-08-06T09:52:13Z</time></trkpt>
<trkpt lat="28.022127" lon="99.718623">
<time>2015-08-06T09:52:14Z</time></trkpt>
<trkpt lat="28.021728" lon="99.718373">
<time>2015-08-06T09:52:15Z</time></trkpt>
<trkpt lat="28.021188" lon="99.717944">
<time>2015-08-06T09:52:16Z</time></trkpt>
<trkpt lat="28.020848" lon="99.717644">
<time>2015-08-06T09:52:17Z</time></trkpt>
<trkpt lat="28.020658" lon="99.717474">
<time>2015-08-06T09:52:18Z</time></trkpt>
<trkpt lat="28.020479" lon="99.717325">
<time>2015-08-06T09:52:19Z</time></trkpt>
<trkpt lat="28.020099" lon="99.717105">
<time>2015-08-06T09:52:20Z</time></trkpt>
<trkpt lat="28.019809" lon="99.716925">
<time>2015-08-06T09:52:21Z</time></trkpt>
<trkpt lat="28.019629" lon="99.716795">
<time>2015-08-06T09:52:22Z</time></trkpt>
<trkpt lat="28.019539" lon="99.716706">
<time>2015-08-06T09:52:23Z</time></trkpt>
<trkpt lat="28.019429" lon="99.716576">
<time>2015-08-06T09:52:24Z</time></trkpt>
<trkpt lat="28.019269" lon="99.716376">
<time>2015-08-06T09:52:25Z</time></trkpt>
<trkpt lat="28.01885" lon="99.715767">
<time>2015-08-06T09:52:26Z</time></trkpt>
<trkpt lat="28.01865" lon="99.715577">
<time>2015-08-06T09:52:27Z</time></trkpt>
<trkpt lat="28.018171" lon="99.715218">
<time>2015-08-06T09:52:28Z</time></trkpt>
<trkpt lat="28.017431" lon="99.714679">
<time>2015-08-06T09:52:29Z</time></trkpt>
<trkpt lat="28.017211" lon="99.714529">
<time>2015-08-06T09:52:30Z</time></trkpt>
<trkpt lat="28.017031" lon="99.714419">
<time>2015-08-06T09:52:31Z</time></trkpt>
<trkpt lat="28.016871" lon="99.714349">
<time>2015-08-06T09:52:32Z</time></trkpt>
<trkpt lat="28.016492" lon="99.714249">
<time>2015-08-06T09:52:33Z</time></trkpt>
<trkpt lat="28.016102" lon="99.714169">
<time>2015-08-06T09:52:34Z</time></trkpt>
<trkpt lat="28.015892" lon="99.71411">
<time>2015-08-06T09:52:35Z</time></trkpt>
<trkpt lat="28.015732" lon="99.71405">
<time>2015-08-06T09:52:36Z</time></trkpt>
<trkpt lat="28.015622" lon="99.71401">
<time>2015-08-06T09:52:37Z</time></trkpt>
<trkpt lat="28.015122" lon="99.71372">
<time>2015-08-06T09:52:38Z</time></trkpt>
<trkpt lat="28.014892" lon="99.71358">
<time>2015-08-06T09:52:39Z</time></trkpt>
<trkpt lat="28.014632" lon="99.713441">
<time>2015-08-06T09:52:40Z</time></trkpt>
<trkpt lat="28.014152" lon="99.713251">
<time>2015-08-06T09:52:41Z</time></trkpt>
<trkpt lat="28.013403" lon="99.712971">
<time>2015-08-06T09:52:42Z</time></trkpt>
<trkpt lat="28.013223" lon="99.712912">
<time>2015-08-06T09:52:43Z</time></trkpt>
<trkpt lat="28.013153" lon="99.712872">
<time>2015-08-06T09:52:44Z</time></trkpt>
<trkpt lat="28.013053" lon="99.712802">
<time>2015-08-06T09:52:45Z</time></trkpt>
<trkpt lat="28.012953" lon="99.712702">
<time>2015-08-06T09:52:46Z</time></trkpt>
<trkpt lat="28.012823" lon="99.712542">
<time>2015-08-06T09:52:47Z</time></trkpt>
<trkpt lat="28.012593" lon="99.712332">
<time>2015-08-06T09:52:48Z</time></trkpt>
<trkpt lat="28.012453" lon="99.712243">
<time>2015-08-06T09:52:49Z</time></trkpt>
<trkpt lat="28.012273" lon="99.712163">
<time>2015-08-06T09:52:50Z</time></trkpt>
<trkpt lat="28.011634" lon="99.711953">
<time>2015-08-06T09:52:51Z</time></trkpt>
<trkpt lat="28.011294" lon="99.711843">
<time>2015-08-06T09:52:52Z</time></trkpt>
<trkpt lat="28.010994" lon="99.711704">
<time>2015-08-06T09:52:53Z</time></trkpt>
<trkpt lat="28.010884" lon="99.711644">
<time>2015-08-06T09:52:54Z</time></trkpt>
<trkpt lat="28.010764" lon="99.711574">
<time>2015-08-06T09:52:55Z</time></trkpt>
<trkpt lat="28.010684" lon="99.711534">
<time>2015-08-06T09:52:56Z</time></trkpt>
<trkpt lat="28.010594" lon="99.711504">
<time>2015-08-06T09:52:57Z</time></trkpt>
<trkpt lat="28.010444" lon="99.711484">
<time>2015-08-06T09:52:58Z</time></trkpt>
<trkpt lat="28.010294" lon="99.711484">
<time>2015-08-06T09:52:59Z</time></trkpt>
<trkpt lat="28.010064" lon="99.711464">
<time>2015-08-06T09:53:00Z</time></trkpt>
<trkpt lat="28.009944" lon="99.711444">
<time>2015-08-06T09:53:01Z</time></trkpt>
<trkpt lat="28.009824" lon="99.711414">
<time>2015-08-06T09:53:02Z</time></trkpt>
<trkpt lat="28.009694" lon="99.711354">
<time>2015-08-06T09:53:03Z</time></trkpt>
<trkpt lat="28.009534" lon="99.711274">
<time>2015-08-06T09:53:04Z</time></trkpt>
<trkpt lat="28.009374" lon="99.711154">
<time>2015-08-06T09:53:05Z</time></trkpt>
<trkpt lat="28.009204" lon="99.711015">
<time>2015-08-06T09:53:06Z</time></trkpt>
<trkpt lat="28.009005" lon="99.710795">
<time>2015-08-06T09:53:07Z</time></trkpt>
<trkpt lat="28.008895" lon="99.710655">
<time>2015-08-06T09:53:08Z</time></trkpt>
<trkpt lat="28.008695" lon="99.710396">
<time>2015-08-06T09:53:09Z</time></trkpt>
<trkpt lat="28.008535" lon="99.710176">
<time>2015-08-06T09:53:10Z</time></trkpt>
<trkpt lat="28.008406" lon="99.709986">
<time>2015-08-06T09:53:11Z</time></trkpt>
<trkpt lat="28.008276" lon="99.709747">
<time>2015-08-06T09:53:12Z</time></trkpt>
<trkpt lat="28.008116" lon="99.709467">
<time>2015-08-06T09:53:13Z</time></trkpt>
<trkpt lat="28.008056" lon="99.709387">
<time>2015-08-06T09:53:14Z</time></trkpt>
<trkpt lat="28.007996" lon="99.709328">
<time>2015-08-06T09:53:15Z</time></trkpt>
<trkpt lat="28.007927" lon="99.709278">
<time>2015-08-06T09:53:16Z</time></trkpt>
<trkpt lat="28.007817" lon="99.709218">
<time>2015-08-06T09:53:17Z</time></trkpt>
<trkpt lat="28.007677" lon="99.709148">
<time>2015-08-06T09:53:18Z</time></trkpt>
<trkpt lat="28.007547" lon="99.709068">
<time>2015-08-06T09:53:19Z</time></trkpt>
<trkpt lat="28.007477" lon="99.709008">
<time>2015-08-06T09:53:20Z</time></trkpt>
<trkpt lat="28.007407" lon="99.708948">
<time>2015-08-06T09:53:21Z</time></trkpt>
<trkpt lat="28.007307" lon="99.708788">
<time>2015-08-06T09:53:22Z</time></trkpt>
<trkpt lat="28.007018" lon="99.708239">
<time>2015-08-06T09:53:23Z</time></trkpt>
<trkpt lat="28.006409" lon="99.707141">
<time>2015-08-06T09:53:24Z</time></trkpt>
<trkpt lat="28.00599" lon="99.706383">
<time>2015-08-06T09:53:25Z</time></trkpt>
<trkpt lat="28.005631" lon="99.705804">
<time>2015-08-06T09:53:26Z</time></trkpt>
<trkpt lat="28.005481" lon="99.705594">
<time>2015-08-06T09:53:27Z</time></trkpt>
<trkpt lat="28.005142" lon="99.705205">
<time>2015-08-06T09:53:28Z</time></trkpt>
<trkpt lat="28.004723" lon="99.704676">
<time>2015-08-06T09:53:29Z</time></trkpt>
<trkpt lat="28.004653" lon="99.704596">
<time>2015-08-06T09:53:30Z</time></trkpt>
<trkpt lat="28.004533" lon="99.704476">
<time>2015-08-06T09:53:31Z</time></trkpt>
<trkpt lat="28.004033" lon="99.704097">
<time>2015-08-06T09:53:32Z</time></trkpt>
<trkpt lat="28.003893" lon="99.703967">
<time>2015-08-06T09:53:33Z</time></trkpt>
<trkpt lat="28.003834" lon="99.703897">
<time>2015-08-06T09:53:34Z</time></trkpt>
<trkpt lat="28.003784" lon="99.703827">
<time>2015-08-06T09:53:35Z</time></trkpt>
<trkpt lat="28.003764" lon="99.703797">
<time>2015-08-06T09:53:36Z</time></trkpt>
<trkpt lat="28.003744" lon="99.703748">
<time>2015-08-06T09:53:37Z</time></trkpt>
<trkpt lat="28.003724" lon="99.703688">
<time>2015-08-06T09:53:38Z</time></trkpt>
<trkpt lat="28.003714" lon="99.703638">
<time>2015-08-06T09:53:39Z</time></trkpt>
<trkpt lat="28.003714" lon="99.703598">
<time>2015-08-06T09:53:40Z</time></trkpt>
<trkpt lat="28.003724" lon="99.703548">
<time>2015-08-06T09:53:41Z</time></trkpt>
<trkpt lat="28.003734" lon="99.703508">
<time>2015-08-06T09:53:42Z</time></trkpt>
<trkpt lat="28.003744" lon="99.703478">
<time>2015-08-06T09:53:43Z</time></trkpt>
<trkpt lat="28.003764" lon="99.703448">
<time>2015-08-06T09:53:44Z</time></trkpt>
<trkpt lat="28.003774" lon="99.703418">
<time>2015-08-06T09:53:45Z</time></trkpt>
<trkpt lat="28.003935" lon="99.703239">
<time>2015-08-06T09:53:46Z</time></trkpt>
<trkpt lat="28.004125" lon="99.702949">
<time>2015-08-06T09:53:47Z</time></trkpt>
<trkpt lat="28.004165" lon="99.702869">
<time>2015-08-06T09:53:48Z</time></trkpt>
<trkpt lat="28.004185" lon="99.702809">
<time>2015-08-06T09:53:49Z</time></trkpt>
<trkpt lat="28.004205" lon="99.702769">
<time>2015-08-06T09:53:50Z</time></trkpt>
<trkpt lat="28.004215" lon="99.702719">
<time>2015-08-06T09:53:51Z</time></trkpt>
<trkpt lat="28.004216" lon="99.70266">
<time>2015-08-06T09:53:52Z</time></trkpt>
<trkpt lat="28.004216" lon="99.70263">
<time>2015-08-06T09:53:53Z</time></trkpt>
<trkpt lat="28.004206" lon="99.70259">
<time>2015-08-06T09:53:54Z</time></trkpt>
<trkpt lat="28.004176" lon="99.70253">
<time>2015-08-06T09:53:55Z</time></trkpt>
<trkpt lat="28.004136" lon="99.70248">
<time>2015-08-06T09:53:56Z</time></trkpt>
<trkpt lat="28.004096" lon="99.70244">
<time>2015-08-06T09:53:57Z</time></trkpt>
<trkpt lat="28.004056" lon="99.70241">
<time>2015-08-06T09:53:58Z</time></trkpt>
<trkpt lat="28.004036" lon="99.7024">
<time>2015-08-06T09:53:59Z</time></trkpt>
<trkpt lat="28.004006" lon="99.70239">
<time>2015-08-06T09:54:00Z</time></trkpt>
<trkpt lat="28.003986" lon="99.70239">
<time>2015-08-06T09:54:01Z</time></trkpt>
<trkpt lat="28.003956" lon="99.70239">
<time>2015-08-06T09:54:02Z</time></trkpt>
<trkpt lat="28.003936" lon="99.70239">
<time>2015-08-06T09:54:03Z</time></trkpt>
<trkpt lat="28.003906" lon="99.7024">
<time>2015-08-06T09:54:04Z</time></trkpt>
<trkpt lat="28.003876" lon="99.70241">
<time>2015-08-06T09:54:05Z</time></trkpt>
<trkpt lat="28.003766" lon="99.7025">
<time>2015-08-06T09:54:06Z</time></trkpt>
<trkpt lat="28.003625" lon="99.70262">
<time>2015-08-06T09:54:07Z</time></trkpt>
<trkpt lat="28.003545" lon="99.70269">
<time>2015-08-06T09:54:08Z</time></trkpt>
<trkpt lat="28.003315" lon="99.702869">
<time>2015-08-06T09:54:09Z</time></trkpt>
<trkpt lat="28.003245" lon="99.702909">
<time>2015-08-06T09:54:10Z</time></trkpt>
<trkpt lat="28.003095" lon="99.702979">
<time>2015-08-06T09:54:11Z</time></trkpt>
<trkpt lat="28.002564" lon="99.703189">
<time>2015-08-06T09:54:12Z</time></trkpt>
<trkpt lat="28.002444" lon="99.703239">
<time>2015-08-06T09:54:13Z</time></trkpt>
<trkpt lat="28.002284" lon="99.703288">
<time>2015-08-06T09:54:14Z</time></trkpt>
<trkpt lat="28.002144" lon="99.703328">
<time>2015-08-06T09:54:15Z</time></trkpt>
<trkpt lat="28.002054" lon="99.703358">
<time>2015-08-06T09:54:16Z</time></trkpt>
<trkpt lat="28.001934" lon="99.703378">
<time>2015-08-06T09:54:17Z</time></trkpt>
<trkpt lat="28.001744" lon="99.703418">
<time>2015-08-06T09:54:18Z</time></trkpt>
<trkpt lat="28.001584" lon="99.703438">
<time>2015-08-06T09:54:19Z</time></trkpt>
<trkpt lat="28.001364" lon="99.703468">
<time>2015-08-06T09:54:20Z</time></trkpt>
<trkpt lat="28.001214" lon="99.703488">
<time>2015-08-06T09:54:21Z</time></trkpt>
<trkpt lat="28.001124" lon="99.703498">
<time>2015-08-06T09:54:22Z</time></trkpt>
<trkpt lat="28.001034" lon="99.703498">
<time>2015-08-06T09:54:23Z</time></trkpt>
<trkpt lat="28.000784" lon="99.703538">
<time>2015-08-06T09:54:24Z</time></trkpt>
<trkpt lat="28.000273" lon="99.703648">
<time>2015-08-06T09:54:25Z</time></trkpt>
<trkpt lat="28.000013" lon="99.703708">
<time>2015-08-06T09:54:26Z</time></trkpt>
<trkpt lat="27.999873" lon="99.703738">
<time>2015-08-06T09:54:27Z</time></trkpt>
<trkpt lat="27.999663" lon="99.703768">
<time>2015-08-06T09:54:28Z</time></trkpt>
<trkpt lat="27.999423" lon="99.703788">
<time>2015-08-06T09:54:29Z</time></trkpt>
<trkpt lat="27.999103" lon="99.703798">
<time>2015-08-06T09:54:30Z</time></trkpt>
<trkpt lat="27.998883" lon="99.703798">
<time>2015-08-06T09:54:31Z</time></trkpt>
<trkpt lat="27.998713" lon="99.703798">
<time>2015-08-06T09:54:32Z</time></trkpt>
<trkpt lat="27.998633" lon="99.703808">
<time>2015-08-06T09:54:33Z</time></trkpt>
<trkpt lat="27.998553" lon="99.703828">
<time>2015-08-06T09:54:34Z</time></trkpt>
<trkpt lat="27.998483" lon="99.703848">
<time>2015-08-06T09:54:35Z</time></trkpt>
<trkpt lat="27.998403" lon="99.703877">
<time>2015-08-06T09:54:36Z</time></trkpt>
<trkpt lat="27.998333" lon="99.703927">
<time>2015-08-06T09:54:37Z</time></trkpt>
<trkpt lat="27.998253" lon="99.703977">
<time>2015-08-06T09:54:38Z</time></trkpt>
<trkpt lat="27.998162" lon="99.704047">
<time>2015-08-06T09:54:39Z</time></trkpt>
<trkpt lat="27.997982" lon="99.704237">
<time>2015-08-06T09:54:40Z</time></trkpt>
<trkpt lat="27.997832" lon="99.704397">
<time>2015-08-06T09:54:41Z</time></trkpt>
<trkpt lat="27.997742" lon="99.704476">
<time>2015-08-06T09:54:42Z</time></trkpt>
<trkpt lat="27.997642" lon="99.704556">
<time>2015-08-06T09:54:43Z</time></trkpt>
<trkpt lat="27.997541" lon="99.704626">
<time>2015-08-06T09:54:44Z</time></trkpt>
<trkpt lat="27.997451" lon="99.704666">
<time>2015-08-06T09:54:45Z</time></trkpt>
<trkpt lat="27.997301" lon="99.704726">
<time>2015-08-06T09:54:46Z</time></trkpt>
<trkpt lat="27.996611" lon="99.704906">
<time>2015-08-06T09:54:47Z</time></trkpt>
<trkpt lat="27.996021" lon="99.705035">
<time>2015-08-06T09:54:48Z</time></trkpt>
<trkpt lat="27.99583" lon="99.705055">
<time>2015-08-06T09:54:49Z</time></trkpt>
<trkpt lat="27.995671" lon="99.705035">
<time>2015-08-06T09:54:50Z</time></trkpt>
<trkpt lat="27.995251" lon="99.704946">
<time>2015-08-06T09:54:51Z</time></trkpt>
<trkpt lat="27.994961" lon="99.704846">
<time>2015-08-06T09:54:52Z</time></trkpt>
<trkpt lat="27.994761" lon="99.704756">
<time>2015-08-06T09:54:53Z</time></trkpt>
<trkpt lat="27.994571" lon="99.704646">
<time>2015-08-06T09:54:54Z</time></trkpt>
<trkpt lat="27.994291" lon="99.704417">
<time>2015-08-06T09:54:55Z</time></trkpt>
<trkpt lat="27.993832" lon="99.704057">
<time>2015-08-06T09:54:56Z</time></trkpt>
<trkpt lat="27.993702" lon="99.703977">
<time>2015-08-06T09:54:57Z</time></trkpt>
<trkpt lat="27.993532" lon="99.703878">
<time>2015-08-06T09:54:58Z</time></trkpt>
<trkpt lat="27.992662" lon="99.703458">
<time>2015-08-06T09:54:59Z</time></trkpt>
<trkpt lat="27.992382" lon="99.703339">
<time>2015-08-06T09:55:00Z</time></trkpt>
<trkpt lat="27.992322" lon="99.703329">
<time>2015-08-06T09:55:01Z</time></trkpt>
<trkpt lat="27.992232" lon="99.703329">
<time>2015-08-06T09:55:02Z</time></trkpt>
<trkpt lat="27.992102" lon="99.703349">
<time>2015-08-06T09:55:03Z</time></trkpt>
<trkpt lat="27.991922" lon="99.703418">
<time>2015-08-06T09:55:04Z</time></trkpt>
<trkpt lat="27.991792" lon="99.703448">
<time>2015-08-06T09:55:05Z</time></trkpt>
<trkpt lat="27.991712" lon="99.703468">
<time>2015-08-06T09:55:06Z</time></trkpt>
<trkpt lat="27.991642" lon="99.703458">
<time>2015-08-06T09:55:07Z</time></trkpt>
<trkpt lat="27.991332" lon="99.703389">
<time>2015-08-06T09:55:08Z</time></trkpt>
<trkpt lat="27.990792" lon="99.703219">
<time>2015-08-06T09:55:09Z</time></trkpt>
<trkpt lat="27.990672" lon="99.703199">
<time>2015-08-06T09:55:10Z</time></trkpt>
<trkpt lat="27.990582" lon="99.703189">
<time>2015-08-06T09:55:11Z</time></trkpt>
<trkpt lat="27.990532" lon="99.703199">
<time>2015-08-06T09:55:12Z</time></trkpt>
<trkpt lat="27.990472" lon="99.703209">
<time>2015-08-06T09:55:13Z</time></trkpt>
<trkpt lat="27.990412" lon="99.703249">
<time>2015-08-06T09:55:14Z</time></trkpt>
<trkpt lat="27.990362" lon="99.703309">
<time>2015-08-06T09:55:15Z</time></trkpt>
<trkpt lat="27.990282" lon="99.703399">
<time>2015-08-06T09:55:16Z</time></trkpt>
<trkpt lat="27.990182" lon="99.703588">
<time>2015-08-06T09:55:17Z</time></trkpt>
<trkpt lat="27.989971" lon="99.703928">
<time>2015-08-06T09:55:18Z</time></trkpt>
<trkpt lat="27.989901" lon="99.704047">
<time>2015-08-06T09:55:19Z</time></trkpt>
<trkpt lat="27.989831" lon="99.704117">
<time>2015-08-06T09:55:20Z</time></trkpt>
<trkpt lat="27.989741" lon="99.704177">
<time>2015-08-06T09:55:21Z</time></trkpt>
<trkpt lat="27.989641" lon="99.704217">
<time>2015-08-06T09:55:22Z</time></trkpt>
<trkpt lat="27.989361" lon="99.704297">
<time>2015-08-06T09:55:23Z</time></trkpt>
<trkpt lat="27.98887" lon="99.704407">
<time>2015-08-06T09:55:24Z</time></trkpt>
<trkpt lat="27.98872" lon="99.704427">
<time>2015-08-06T09:55:25Z</time></trkpt>
<trkpt lat="27.98858" lon="99.704437">
<time>2015-08-06T09:55:26Z</time></trkpt>
<trkpt lat="27.98792" lon="99.704417">
<time>2015-08-06T09:55:27Z</time></trkpt>
<trkpt lat="27.98782" lon="99.704417">
<time>2015-08-06T09:55:28Z</time></trkpt>
<trkpt lat="27.98775" lon="99.704437">
<time>2015-08-06T09:55:29Z</time></trkpt>
<trkpt lat="27.98769" lon="99.704457">
<time>2015-08-06T09:55:30Z</time></trkpt>
<trkpt lat="27.98764" lon="99.704477">
<time>2015-08-06T09:55:31Z</time></trkpt>
<trkpt lat="27.98756" lon="99.704537">
<time>2015-08-06T09:55:32Z</time></trkpt>
<trkpt lat="27.98746" lon="99.704636">
<time>2015-08-06T09:55:33Z</time></trkpt>
<trkpt lat="27.987169" lon="99.705056">
<time>2015-08-06T09:55:34Z</time></trkpt>
<trkpt lat="27.987049" lon="99.705235">
<time>2015-08-06T09:55:35Z</time></trkpt>
<trkpt lat="27.986959" lon="99.705315">
<time>2015-08-06T09:55:36Z</time></trkpt>
<trkpt lat="27.986909" lon="99.705345">
<time>2015-08-06T09:55:37Z</time></trkpt>
<trkpt lat="27.986848" lon="99.705365">
<time>2015-08-06T09:55:38Z</time></trkpt>
<trkpt lat="27.986778" lon="99.705375">
<time>2015-08-06T09:55:39Z</time></trkpt>
<trkpt lat="27.986698" lon="99.705375">
<time>2015-08-06T09:55:40Z</time></trkpt>
<trkpt lat="27.986568" lon="99.705355">
<time>2015-08-06T09:55:41Z</time></trkpt>
<trkpt lat="27.986359" lon="99.705295">
<time>2015-08-06T09:55:42Z</time></trkpt>
<trkpt lat="27.985839" lon="99.705086">
<time>2015-08-06T09:55:43Z</time></trkpt>
<trkpt lat="27.985759" lon="99.705026">
<time>2015-08-06T09:55:44Z</time></trkpt>
<trkpt lat="27.985709" lon="99.704966">
<time>2015-08-06T09:55:45Z</time></trkpt>
<trkpt lat="27.985679" lon="99.704916">
<time>2015-08-06T09:55:46Z</time></trkpt>
<trkpt lat="27.985649" lon="99.704866">
<time>2015-08-06T09:55:47Z</time></trkpt>
<trkpt lat="27.985639" lon="99.704816">
<time>2015-08-06T09:55:48Z</time></trkpt>
<trkpt lat="27.985639" lon="99.704746">
<time>2015-08-06T09:55:49Z</time></trkpt>
<trkpt lat="27.985649" lon="99.704646">
<time>2015-08-06T09:55:50Z</time></trkpt>
<trkpt lat="27.98566" lon="99.704537">
<time>2015-08-06T09:55:51Z</time></trkpt>
<trkpt lat="27.98567" lon="99.704457">
<time>2015-08-06T09:55:52Z</time></trkpt>
<trkpt lat="27.98567" lon="99.704407">
<time>2015-08-06T09:55:53Z</time></trkpt>
<trkpt lat="27.98566" lon="99.704357">
<time>2015-08-06T09:55:54Z</time></trkpt>
<trkpt lat="27.98565" lon="99.704317">
<time>2015-08-06T09:55:55Z</time></trkpt>
<trkpt lat="27.98563" lon="99.704277">
<time>2015-08-06T09:55:56Z</time></trkpt>
<trkpt lat="27.9856" lon="99.704237">
<time>2015-08-06T09:55:57Z</time></trkpt>
<trkpt lat="27.98556" lon="99.704187">
<time>2015-08-06T09:55:58Z</time></trkpt>
<trkpt lat="27.98553" lon="99.704167">
<time>2015-08-06T09:55:59Z</time></trkpt>
<trkpt lat="27.98549" lon="99.704137">
<time>2015-08-06T09:56:00Z</time></trkpt>
<trkpt lat="27.98543" lon="99.704077">
<time>2015-08-06T09:56:01Z</time></trkpt>
<trkpt lat="27.9853" lon="99.704008">
<time>2015-08-06T09:56:02Z</time></trkpt>
<trkpt lat="27.98523" lon="99.703998">
<time>2015-08-06T09:56:03Z</time></trkpt>
<trkpt lat="27.98518" lon="99.703988">
<time>2015-08-06T09:56:04Z</time></trkpt>
<trkpt lat="27.98513" lon="99.703998">
<time>2015-08-06T09:56:05Z</time></trkpt>
<trkpt lat="27.98508" lon="99.704008">
<time>2015-08-06T09:56:06Z</time></trkpt>
<trkpt lat="27.98504" lon="99.704028">
<time>2015-08-06T09:56:07Z</time></trkpt>
<trkpt lat="27.98481" lon="99.704157">
<time>2015-08-06T09:56:08Z</time></trkpt>
<trkpt lat="27.9845" lon="99.704327">
<time>2015-08-06T09:56:09Z</time></trkpt>
<trkpt lat="27.984359" lon="99.704397">
<time>2015-08-06T09:56:10Z</time></trkpt>
<trkpt lat="27.984239" lon="99.704427">
<time>2015-08-06T09:56:11Z</time></trkpt>
<trkpt lat="27.984099" lon="99.704427">
<time>2015-08-06T09:56:12Z</time></trkpt>
<trkpt lat="27.983879" lon="99.704357">
<time>2015-08-06T09:56:13Z</time></trkpt>
<trkpt lat="27.983679" lon="99.704327">
<time>2015-08-06T09:56:14Z</time></trkpt>
<trkpt lat="27.983569" lon="99.704317">
<time>2015-08-06T09:56:15Z</time></trkpt>
<trkpt lat="27.983439" lon="99.704337">
<time>2015-08-06T09:56:16Z</time></trkpt>
<trkpt lat="27.983139" lon="99.704417">
<time>2015-08-06T09:56:17Z</time></trkpt>
<trkpt lat="27.982439" lon="99.704656">
<time>2015-08-06T09:56:18Z</time></trkpt>
<trkpt lat="27.982269" lon="99.704726">
<time>2015-08-06T09:56:19Z</time></trkpt>
<trkpt lat="27.982128" lon="99.704816">
<time>2015-08-06T09:56:20Z</time></trkpt>
<trkpt lat="27.981998" lon="99.704946">
<time>2015-08-06T09:56:21Z</time></trkpt>
<trkpt lat="27.981868" lon="99.705096">
<time>2015-08-06T09:56:22Z</time></trkpt>
<trkpt lat="27.981768" lon="99.705215">
<time>2015-08-06T09:56:23Z</time></trkpt>
<trkpt lat="27.981698" lon="99.705285">
<time>2015-08-06T09:56:24Z</time></trkpt>
<trkpt lat="27.981427" lon="99.705465">
<time>2015-08-06T09:56:25Z</time></trkpt>
<trkpt lat="27.980817" lon="99.705864">
<time>2015-08-06T09:56:26Z</time></trkpt>
<trkpt lat="27.980717" lon="99.705894">
<time>2015-08-06T09:56:27Z</time></trkpt>
<trkpt lat="27.980647" lon="99.705924">
<time>2015-08-06T09:56:28Z</time></trkpt>
<trkpt lat="27.980567" lon="99.705934">
<time>2015-08-06T09:56:29Z</time></trkpt>
<trkpt lat="27.980467" lon="99.705944">
<time>2015-08-06T09:56:30Z</time></trkpt>
<trkpt lat="27.979787" lon="99.705844">
<time>2015-08-06T09:56:31Z</time></trkpt>
<trkpt lat="27.979227" lon="99.705745">
<time>2015-08-06T09:56:32Z</time></trkpt>
<trkpt lat="27.979097" lon="99.705695">
<time>2015-08-06T09:56:33Z</time></trkpt>
<trkpt lat="27.978957" lon="99.705625">
<time>2015-08-06T09:56:34Z</time></trkpt>
<trkpt lat="27.978837" lon="99.705565">
<time>2015-08-06T09:56:35Z</time></trkpt>
<trkpt lat="27.978477" lon="99.705305">
<time>2015-08-06T09:56:36Z</time></trkpt>
<trkpt lat="27.978217" lon="99.705116">
<time>2015-08-06T09:56:37Z</time></trkpt>
<trkpt lat="27.977388" lon="99.704557">
<time>2015-08-06T09:56:38Z</time></trkpt>
<trkpt lat="27.976599" lon="99.704098">
<time>2015-08-06T09:56:39Z</time></trkpt>
<trkpt lat="27.976099" lon="99.703808">
<time>2015-08-06T09:56:40Z</time></trkpt>
<trkpt lat="27.975889" lon="99.703718">
<time>2015-08-06T09:56:41Z</time></trkpt>
<trkpt lat="27.975669" lon="99.703648">
<time>2015-08-06T09:56:42Z</time></trkpt>
<trkpt lat="27.975499" lon="99.703609">
<time>2015-08-06T09:56:43Z</time></trkpt>
<trkpt lat="27.975259" lon="99.703579">
<time>2015-08-06T09:56:44Z</time></trkpt>
<trkpt lat="27.974439" lon="99.703519">
<time>2015-08-06T09:56:45Z</time></trkpt>
<trkpt lat="27.973619" lon="99.703449">
<time>2015-08-06T09:56:46Z</time></trkpt>
<trkpt lat="27.973159" lon="99.703409">
<time>2015-08-06T09:56:47Z</time></trkpt>
<trkpt lat="27.972869" lon="99.703359">
<time>2015-08-06T09:56:48Z</time></trkpt>
<trkpt lat="27.972679" lon="99.703299">
<time>2015-08-06T09:56:49Z</time></trkpt>
<trkpt lat="27.972429" lon="99.703159">
<time>2015-08-06T09:56:50Z</time></trkpt>
<trkpt lat="27.972159" lon="99.70299">
<time>2015-08-06T09:56:51Z</time></trkpt>
<trkpt lat="27.97205" lon="99.70294">
<time>2015-08-06T09:56:52Z</time></trkpt>
<trkpt lat="27.97195" lon="99.70291">
<time>2015-08-06T09:56:53Z</time></trkpt>
<trkpt lat="27.97185" lon="99.7029">
<time>2015-08-06T09:56:54Z</time></trkpt>
<trkpt lat="27.971569" lon="99.70291">
<time>2015-08-06T09:56:55Z</time></trkpt>
<trkpt lat="27.970939" lon="99.70294">
<time>2015-08-06T09:56:56Z</time></trkpt>
<trkpt lat="27.970759" lon="99.70293">
<time>2015-08-06T09:56:57Z</time></trkpt>
<trkpt lat="27.970599" lon="99.7029">
<time>2015-08-06T09:56:58Z</time></trkpt>
<trkpt lat="27.970319" lon="99.7028">
<time>2015-08-06T09:56:59Z</time></trkpt>
<trkpt lat="27.97009" lon="99.7027">
<time>2015-08-06T09:57:00Z</time></trkpt>
<trkpt lat="27.96984" lon="99.702561">
<time>2015-08-06T09:57:01Z</time></trkpt>
<trkpt lat="27.96958" lon="99.702321">
<time>2015-08-06T09:57:02Z</time></trkpt>
<trkpt lat="27.96945" lon="99.702231">
<time>2015-08-06T09:57:03Z</time></trkpt>
<trkpt lat="27.96936" lon="99.702171">
<time>2015-08-06T09:57:04Z</time></trkpt>
<trkpt lat="27.96929" lon="99.702131">
<time>2015-08-06T09:57:05Z</time></trkpt>
<trkpt lat="27.96919" lon="99.702112">
<time>2015-08-06T09:57:06Z</time></trkpt>
<trkpt lat="27.96909" lon="99.702102">
<time>2015-08-06T09:57:07Z</time></trkpt>
<trkpt lat="27.969" lon="99.702102">
<time>2015-08-06T09:57:08Z</time></trkpt>
<trkpt lat="27.96892" lon="99.702112">
<time>2015-08-06T09:57:09Z</time></trkpt>
<trkpt lat="27.96877" lon="99.702171">
<time>2015-08-06T09:57:10Z</time></trkpt>
<trkpt lat="27.96818" lon="99.702461">
<time>2015-08-06T09:57:11Z</time></trkpt>
<trkpt lat="27.967669" lon="99.70271">
<time>2015-08-06T09:57:12Z</time></trkpt>
<trkpt lat="27.967469" lon="99.70282">
<time>2015-08-06T09:57:13Z</time></trkpt>
<trkpt lat="27.967339" lon="99.70292">
<time>2015-08-06T09:57:14Z</time></trkpt>
<trkpt lat="27.967098" lon="99.70315">
<time>2015-08-06T09:57:15Z</time></trkpt>
<trkpt lat="27.966968" lon="99.703269">
<time>2015-08-06T09:57:16Z</time></trkpt>
<trkpt lat="27.966878" lon="99.703319">
<time>2015-08-06T09:57:17Z</time></trkpt>
<trkpt lat="27.966428" lon="99.703519">
<time>2015-08-06T09:57:18Z</time></trkpt>
<trkpt lat="27.965797" lon="99.703798">
<time>2015-08-06T09:57:19Z</time></trkpt>
<trkpt lat="27.965537" lon="99.703898">
<time>2015-08-06T09:57:20Z</time></trkpt>
<trkpt lat="27.965387" lon="99.703938">
<time>2015-08-06T09:57:21Z</time></trkpt>
<trkpt lat="27.965297" lon="99.703958">
<time>2015-08-06T09:57:22Z</time></trkpt>
<trkpt lat="27.965177" lon="99.703948">
<time>2015-08-06T09:57:23Z</time></trkpt>
<trkpt lat="27.964847" lon="99.703948">
<time>2015-08-06T09:57:24Z</time></trkpt>
<trkpt lat="27.964647" lon="99.703988">
<time>2015-08-06T09:57:25Z</time></trkpt>
<trkpt lat="27.964416" lon="99.704068">
<time>2015-08-06T09:57:26Z</time></trkpt>
<trkpt lat="27.964036" lon="99.704218">
<time>2015-08-06T09:57:27Z</time></trkpt>
<trkpt lat="27.963455" lon="99.704607">
<time>2015-08-06T09:57:28Z</time></trkpt>
<trkpt lat="27.962935" lon="99.704956">
<time>2015-08-06T09:57:29Z</time></trkpt>
<trkpt lat="27.962404" lon="99.705216">
<time>2015-08-06T09:57:30Z</time></trkpt>
<trkpt lat="27.962114" lon="99.705346">
<time>2015-08-06T09:57:31Z</time></trkpt>
<trkpt lat="27.961994" lon="99.705386">
<time>2015-08-06T09:57:32Z</time></trkpt>
<trkpt lat="27.961904" lon="99.705406">
<time>2015-08-06T09:57:33Z</time></trkpt>
<trkpt lat="27.961734" lon="99.705416">
<time>2015-08-06T09:57:34Z</time></trkpt>
<trkpt lat="27.961144" lon="99.705386">
<time>2015-08-06T09:57:35Z</time></trkpt>
<trkpt lat="27.961014" lon="99.705386">
<time>2015-08-06T09:57:36Z</time></trkpt>
<trkpt lat="27.960924" lon="99.705406">
<time>2015-08-06T09:57:37Z</time></trkpt>
<trkpt lat="27.960854" lon="99.705426">
<time>2015-08-06T09:57:38Z</time></trkpt>
<trkpt lat="27.960804" lon="99.705456">
<time>2015-08-06T09:57:39Z</time></trkpt>
<trkpt lat="27.960603" lon="99.705625">
<time>2015-08-06T09:57:40Z</time></trkpt>
<trkpt lat="27.959992" lon="99.706204">
<time>2015-08-06T09:57:41Z</time></trkpt>
<trkpt lat="27.959922" lon="99.706244">
<time>2015-08-06T09:57:42Z</time></trkpt>
<trkpt lat="27.959832" lon="99.706274">
<time>2015-08-06T09:57:43Z</time></trkpt>
<trkpt lat="27.959762" lon="99.706284">
<time>2015-08-06T09:57:44Z</time></trkpt>
<trkpt lat="27.959702" lon="99.706284">
<time>2015-08-06T09:57:45Z</time></trkpt>
<trkpt lat="27.959662" lon="99.706274">
<time>2015-08-06T09:57:46Z</time></trkpt>
<trkpt lat="27.959632" lon="99.706254">
<time>2015-08-06T09:57:47Z</time></trkpt>
<trkpt lat="27.959582" lon="99.706224">
<time>2015-08-06T09:57:48Z</time></trkpt>
<trkpt lat="27.959373" lon="99.706054">
<time>2015-08-06T09:57:49Z</time></trkpt>
<trkpt lat="27.958693" lon="99.705535">
<time>2015-08-06T09:57:50Z</time></trkpt>
<trkpt lat="27.958453" lon="99.705356">
<time>2015-08-06T09:57:51Z</time></trkpt>
<trkpt lat="27.958244" lon="99.705226">
<time>2015-08-06T09:57:52Z</time></trkpt>
<trkpt lat="27.957644" lon="99.704907">
<time>2015-08-06T09:57:53Z</time></trkpt>
<trkpt lat="27.957504" lon="99.704827">
<time>2015-08-06T09:57:54Z</time></trkpt>
<trkpt lat="27.957344" lon="99.704707">
<time>2015-08-06T09:57:55Z</time></trkpt>
<trkpt lat="27.957135" lon="99.704487">
<time>2015-08-06T09:57:56Z</time></trkpt>
<trkpt lat="27.956725" lon="99.703978">
<time>2015-08-06T09:57:57Z</time></trkpt>
<trkpt lat="27.956506" lon="99.703739">
<time>2015-08-06T09:57:58Z</time></trkpt>
<trkpt lat="27.956246" lon="99.703489">
<time>2015-08-06T09:57:59Z</time></trkpt>
<trkpt lat="27.955636" lon="99.70305">
<time>2015-08-06T09:58:00Z</time></trkpt>
<trkpt lat="27.955487" lon="99.70296">
<time>2015-08-06T09:58:01Z</time></trkpt>
<trkpt lat="27.955397" lon="99.70293">
<time>2015-08-06T09:58:02Z</time></trkpt>
<trkpt lat="27.955287" lon="99.7029">
<time>2015-08-06T09:58:03Z</time></trkpt>
<trkpt lat="27.955057" lon="99.70289">
<time>2015-08-06T09:58:04Z</time></trkpt>
<trkpt lat="27.954586" lon="99.7029">
<time>2015-08-06T09:58:05Z</time></trkpt>
<trkpt lat="27.954346" lon="99.70288">
<time>2015-08-06T09:58:06Z</time></trkpt>
<trkpt lat="27.954146" lon="99.702841">
<time>2015-08-06T09:58:07Z</time></trkpt>
<trkpt lat="27.953697" lon="99.702691">
<time>2015-08-06T09:58:08Z</time></trkpt>
<trkpt lat="27.952567" lon="99.702302">
<time>2015-08-06T09:58:09Z</time></trkpt>
<trkpt lat="27.951717" lon="99.701942">
<time>2015-08-06T09:58:10Z</time></trkpt>
<trkpt lat="27.951368" lon="99.701773">
<time>2015-08-06T09:58:11Z</time></trkpt>
<trkpt lat="27.951288" lon="99.701703">
<time>2015-08-06T09:58:12Z</time></trkpt>
<trkpt lat="27.951198" lon="99.701603">
<time>2015-08-06T09:58:13Z</time></trkpt>
<trkpt lat="27.951068" lon="99.701403">
<time>2015-08-06T09:58:14Z</time></trkpt>
<trkpt lat="27.950948" lon="99.701254">
<time>2015-08-06T09:58:15Z</time></trkpt>
<trkpt lat="27.950878" lon="99.701194">
<time>2015-08-06T09:58:16Z</time></trkpt>
<trkpt lat="27.950779" lon="99.701124">
<time>2015-08-06T09:58:17Z</time></trkpt>
<trkpt lat="27.950389" lon="99.700934">
<time>2015-08-06T09:58:18Z</time></trkpt>
<trkpt lat="27.950019" lon="99.700745">
<time>2015-08-06T09:58:19Z</time></trkpt>
<trkpt lat="27.949609" lon="99.700575">
<time>2015-08-06T09:58:20Z</time></trkpt>
<trkpt lat="27.949419" lon="99.700515">
<time>2015-08-06T09:58:21Z</time></trkpt>
<trkpt lat="27.948779" lon="99.700335">
<time>2015-08-06T09:58:22Z</time></trkpt>
<trkpt lat="27.947859" lon="99.700186">
<time>2015-08-06T09:58:23Z</time></trkpt>
<trkpt lat="27.947589" lon="99.700136">
<time>2015-08-06T09:58:24Z</time></trkpt>
<trkpt lat="27.947449" lon="99.700126">
<time>2015-08-06T09:58:25Z</time></trkpt>
<trkpt lat="27.947249" lon="99.700146">
<time>2015-08-06T09:58:26Z</time></trkpt>
<trkpt lat="27.946999" lon="99.700186">
<time>2015-08-06T09:58:27Z</time></trkpt>
<trkpt lat="27.946339" lon="99.700306">
<time>2015-08-06T09:58:28Z</time></trkpt>
<trkpt lat="27.945999" lon="99.700346">
<time>2015-08-06T09:58:29Z</time></trkpt>
<trkpt lat="27.945719" lon="99.700346">
<time>2015-08-06T09:58:30Z</time></trkpt>
<trkpt lat="27.945319" lon="99.700296">
<time>2015-08-06T09:58:31Z</time></trkpt>
<trkpt lat="27.944939" lon="99.700236">
<time>2015-08-06T09:58:32Z</time></trkpt>
<trkpt lat="27.944859" lon="99.700226">
<time>2015-08-06T09:58:33Z</time></trkpt>
<trkpt lat="27.944769" lon="99.700236">
<time>2015-08-06T09:58:34Z</time></trkpt>
<trkpt lat="27.944709" lon="99.700246">
<time>2015-08-06T09:58:35Z</time></trkpt>
<trkpt lat="27.944609" lon="99.700296">
<time>2015-08-06T09:58:36Z</time></trkpt>
<trkpt lat="27.944459" lon="99.700376">
<time>2015-08-06T09:58:37Z</time></trkpt>
<trkpt lat="27.944158" lon="99.700565">
<time>2015-08-06T09:58:38Z</time></trkpt>
<trkpt lat="27.943958" lon="99.700665">
<time>2015-08-06T09:58:39Z</time></trkpt>
<trkpt lat="27.943808" lon="99.700725">
<time>2015-08-06T09:58:40Z</time></trkpt>
<trkpt lat="27.943618" lon="99.700785">
<time>2015-08-06T09:58:41Z</time></trkpt>
<trkpt lat="27.943067" lon="99.700895">
<time>2015-08-06T09:58:42Z</time></trkpt>
<trkpt lat="27.942387" lon="99.701034">
<time>2015-08-06T09:58:43Z</time></trkpt>
<trkpt lat="27.942177" lon="99.701064">
<time>2015-08-06T09:58:44Z</time></trkpt>
<trkpt lat="27.942007" lon="99.701074">
<time>2015-08-06T09:58:45Z</time></trkpt>
<trkpt lat="27.941687" lon="99.701074">
<time>2015-08-06T09:58:46Z</time></trkpt>
<trkpt lat="27.941397" lon="99.701054">
<time>2015-08-06T09:58:47Z</time></trkpt>
<trkpt lat="27.941137" lon="99.701014">
<time>2015-08-06T09:58:48Z</time></trkpt>
<trkpt lat="27.940547" lon="99.700845">
<time>2015-08-06T09:58:49Z</time></trkpt>
<trkpt lat="27.940277" lon="99.700775">
<time>2015-08-06T09:58:50Z</time></trkpt>
<trkpt lat="27.940117" lon="99.700765">
<time>2015-08-06T09:58:51Z</time></trkpt>
<trkpt lat="27.939977" lon="99.700765">
<time>2015-08-06T09:58:52Z</time></trkpt>
<trkpt lat="27.939737" lon="99.700785">
<time>2015-08-06T09:58:53Z</time></trkpt>
<trkpt lat="27.939157" lon="99.700885">
<time>2015-08-06T09:58:54Z</time></trkpt>
<trkpt lat="27.938877" lon="99.700935">
<time>2015-08-06T09:58:55Z</time></trkpt>
<trkpt lat="27.938166" lon="99.701184">
<time>2015-08-06T09:58:56Z</time></trkpt>
<trkpt lat="27.937936" lon="99.701264">
<time>2015-08-06T09:58:57Z</time></trkpt>
<trkpt lat="27.937796" lon="99.701304">
<time>2015-08-06T09:58:58Z</time></trkpt>
<trkpt lat="27.937576" lon="99.701344">
<time>2015-08-06T09:58:59Z</time></trkpt>
<trkpt lat="27.937416" lon="99.701354">
<time>2015-08-06T09:59:00Z</time></trkpt>
<trkpt lat="27.937266" lon="99.701354">
<time>2015-08-06T09:59:01Z</time></trkpt>
<trkpt lat="27.937026" lon="99.701334">
<time>2015-08-06T09:59:02Z</time></trkpt>
<trkpt lat="27.936066" lon="99.701174">
<time>2015-08-06T09:59:03Z</time></trkpt>
<trkpt lat="27.935406" lon="99.701094">
<time>2015-08-06T09:59:04Z</time></trkpt>
<trkpt lat="27.935206" lon="99.701064">
<time>2015-08-06T09:59:05Z</time></trkpt>
<trkpt lat="27.935026" lon="99.701014">
<time>2015-08-06T09:59:06Z</time></trkpt>
<trkpt lat="27.934786" lon="99.700925">
<time>2015-08-06T09:59:07Z</time></trkpt>
<trkpt lat="27.934526" lon="99.700815">
<time>2015-08-06T09:59:08Z</time></trkpt>
<trkpt lat="27.934406" lon="99.700765">
<time>2015-08-06T09:59:09Z</time></trkpt>
<trkpt lat="27.934266" lon="99.700735">
<time>2015-08-06T09:59:10Z</time></trkpt>
<trkpt lat="27.934126" lon="99.700715">
<time>2015-08-06T09:59:11Z</time></trkpt>
<trkpt lat="27.934006" lon="99.700705">
<time>2015-08-06T09:59:12Z</time></trkpt>
<trkpt lat="27.933856" lon="99.700705">
<time>2015-08-06T09:59:13Z</time></trkpt>
<trkpt lat="27.933686" lon="99.700715">
<time>2015-08-06T09:59:14Z</time></trkpt>
<trkpt lat="27.933466" lon="99.700775">
<time>2015-08-06T09:59:15Z</time></trkpt>
<trkpt lat="27.932976" lon="99.700945">
<time>2015-08-06T09:59:16Z</time></trkpt>
<trkpt lat="27.932645" lon="99.701074">
<time>2015-08-06T09:59:17Z</time></trkpt>
<trkpt lat="27.931855" lon="99.701414">
<time>2015-08-06T09:59:18Z</time></trkpt>
<trkpt lat="27.931274" lon="99.701653">
<time>2015-08-06T09:59:19Z</time></trkpt>
<trkpt lat="27.930664" lon="99.701913">
<time>2015-08-06T09:59:20Z</time></trkpt>
<trkpt lat="27.930183" lon="99.702132">
<time>2015-08-06T09:59:21Z</time></trkpt>
<trkpt lat="27.929843" lon="99.702252">
<time>2015-08-06T09:59:22Z</time></trkpt>
<trkpt lat="27.929393" lon="99.702362">
<time>2015-08-06T09:59:23Z</time></trkpt>
<trkpt lat="27.928302" lon="99.702632">
<time>2015-08-06T09:59:24Z</time></trkpt>
<trkpt lat="27.927462" lon="99.702901">
<time>2015-08-06T09:59:25Z</time></trkpt>
<trkpt lat="27.926691" lon="99.703151">
<time>2015-08-06T09:59:26Z</time></trkpt>
<trkpt lat="27.92582" lon="99.70342">
<time>2015-08-06T09:59:27Z</time></trkpt>
<trkpt lat="27.92525" lon="99.70359">
<time>2015-08-06T09:59:28Z</time></trkpt>
<trkpt lat="27.924579" lon="99.703909">
<time>2015-08-06T09:59:29Z</time></trkpt>
<trkpt lat="27.924409" lon="99.703989">
<time>2015-08-06T09:59:30Z</time></trkpt>
<trkpt lat="27.924319" lon="99.704049">
<time>2015-08-06T09:59:31Z</time></trkpt>
<trkpt lat="27.924249" lon="99.704119">
<time>2015-08-06T09:59:32Z</time></trkpt>
<trkpt lat="27.924139" lon="99.704229">
<time>2015-08-06T09:59:33Z</time></trkpt>
<trkpt lat="27.923718" lon="99.704738">
<time>2015-08-06T09:59:34Z</time></trkpt>
<trkpt lat="27.923137" lon="99.705476">
<time>2015-08-06T09:59:35Z</time></trkpt>
<trkpt lat="27.922636" lon="99.706085">
<time>2015-08-06T09:59:36Z</time></trkpt>
<trkpt lat="27.922115" lon="99.706764">
<time>2015-08-06T09:59:37Z</time></trkpt>
<trkpt lat="27.921844" lon="99.707114">
<time>2015-08-06T09:59:38Z</time></trkpt>
<trkpt lat="27.921544" lon="99.707473">
<time>2015-08-06T09:59:39Z</time></trkpt>
<trkpt lat="27.921063" lon="99.708002">
<time>2015-08-06T09:59:40Z</time></trkpt>
<trkpt lat="27.920893" lon="99.708162">
<time>2015-08-06T09:59:41Z</time></trkpt>
<trkpt lat="27.920582" lon="99.708411">
<time>2015-08-06T09:59:42Z</time></trkpt>
<trkpt lat="27.920072" lon="99.708781">
<time>2015-08-06T09:59:43Z</time></trkpt>
<trkpt lat="27.919971" lon="99.70889">
<time>2015-08-06T09:59:44Z</time></trkpt>
<trkpt lat="27.919891" lon="99.70899">
<time>2015-08-06T09:59:45Z</time></trkpt>
<trkpt lat="27.919861" lon="99.70908">
<time>2015-08-06T09:59:46Z</time></trkpt>
<trkpt lat="27.919831" lon="99.70921">
<time>2015-08-06T09:59:47Z</time></trkpt>
<trkpt lat="27.919811" lon="99.70933">
<time>2015-08-06T09:59:48Z</time></trkpt>
<trkpt lat="27.919801" lon="99.70941">
<time>2015-08-06T09:59:49Z</time></trkpt>
<trkpt lat="27.919771" lon="99.709489">
<time>2015-08-06T09:59:50Z</time></trkpt>
<trkpt lat="27.91974" lon="99.709579">
<time>2015-08-06T09:59:51Z</time></trkpt>
<trkpt lat="27.91971" lon="99.709649">
<time>2015-08-06T09:59:52Z</time></trkpt>
<trkpt lat="27.91967" lon="99.709699">
<time>2015-08-06T09:59:53Z</time></trkpt>
<trkpt lat="27.9195" lon="99.709879">
<time>2015-08-06T09:59:54Z</time></trkpt>
<trkpt lat="27.91922" lon="99.710128">
<time>2015-08-06T09:59:55Z</time></trkpt>
<trkpt lat="27.919039" lon="99.710268">
<time>2015-08-06T09:59:56Z</time></trkpt>
<trkpt lat="27.918519" lon="99.710598">
<time>2015-08-06T09:59:57Z</time></trkpt>
<trkpt lat="27.918369" lon="99.710707">
<time>2015-08-06T09:59:58Z</time></trkpt>
<trkpt lat="27.918279" lon="99.710787">
<time>2015-08-06T09:59:59Z</time></trkpt>
<trkpt lat="27.918168" lon="99.710927">
<time>2015-08-06T10:00:00Z</time></trkpt>
<trkpt lat="27.917978" lon="99.711227">
<time>2015-08-06T10:00:01Z</time></trkpt>
<trkpt lat="27.917717" lon="99.711686">
<time>2015-08-06T10:00:02Z</time></trkpt>
<trkpt lat="27.917326" lon="99.712365">
<time>2015-08-06T10:00:03Z</time></trkpt>
<trkpt lat="27.917176" lon="99.712624">
<time>2015-08-06T10:00:04Z</time></trkpt>
<trkpt lat="27.917106" lon="99.712724">
<time>2015-08-06T10:00:05Z</time></trkpt>
<trkpt lat="27.916935" lon="99.712954">
<time>2015-08-06T10:00:06Z</time></trkpt>
<trkpt lat="27.916805" lon="99.713094">
<time>2015-08-06T10:00:07Z</time></trkpt>
<trkpt lat="27.916685" lon="99.713223">
<time>2015-08-06T10:00:08Z</time></trkpt>
<trkpt lat="27.916675" lon="99.713233">
<time>2015-08-06T10:00:09Z</time></trkpt>
<trkpt lat="27.916655" lon="99.713253">
<time>2015-08-06T10:00:10Z</time></trkpt>
<trkpt lat="27.916625" lon="99.713273">
<time>2015-08-06T10:00:11Z</time></trkpt>
<trkpt lat="27.916565" lon="99.713323">
<time>2015-08-06T10:00:12Z</time></trkpt>
<trkpt lat="27.916395" lon="99.713493">
<time>2015-08-06T10:00:13Z</time></trkpt>
<trkpt lat="27.916214" lon="99.713663">
<time>2015-08-06T10:00:14Z</time></trkpt>
<trkpt lat="27.915954" lon="99.713902">
<time>2015-08-06T10:00:15Z</time></trkpt>
<trkpt lat="27.915674" lon="99.714162">
<time>2015-08-06T10:00:16Z</time></trkpt>
<trkpt lat="27.915373" lon="99.714442">
<time>2015-08-06T10:00:17Z</time></trkpt>
<trkpt lat="27.915053" lon="99.714751">
<time>2015-08-06T10:00:18Z</time></trkpt>
<trkpt lat="27.914632" lon="99.715151">
<time>2015-08-06T10:00:19Z</time></trkpt>
<trkpt lat="27.914262" lon="99.71549">
<time>2015-08-06T10:00:20Z</time></trkpt>
<trkpt lat="27.913851" lon="99.715889">
<time>2015-08-06T10:00:21Z</time></trkpt>
<trkpt lat="27.913431" lon="99.716289">
<time>2015-08-06T10:00:22Z</time></trkpt>
<trkpt lat="27.91296" lon="99.716728">
<time>2015-08-06T10:00:23Z</time></trkpt>
<trkpt lat="27.91244" lon="99.717228">
<time>2015-08-06T10:00:24Z</time></trkpt>
<trkpt lat="27.911909" lon="99.717727">
<time>2015-08-06T10:00:25Z</time></trkpt>
<trkpt lat="27.911418" lon="99.718196">
<time>2015-08-06T10:00:26Z</time></trkpt>
<trkpt lat="27.911298" lon="99.718306">
<time>2015-08-06T10:00:27Z</time></trkpt>
<trkpt lat="27.910928" lon="99.718596">
<time>2015-08-06T10:00:28Z</time></trkpt>
<trkpt lat="27.910567" lon="99.718825">
<time>2015-08-06T10:00:29Z</time></trkpt>
<trkpt lat="27.910047" lon="99.719155">
<time>2015-08-06T10:00:30Z</time></trkpt>
<trkpt lat="27.909607" lon="99.719425">
<time>2015-08-06T10:00:31Z</time></trkpt>
<trkpt lat="27.908976" lon="99.719834">
<time>2015-08-06T10:00:32Z</time></trkpt>
<trkpt lat="27.908245" lon="99.720293">
<time>2015-08-06T10:00:33Z</time></trkpt>
<trkpt lat="27.907585" lon="99.720713">
<time>2015-08-06T10:00:34Z</time></trkpt>
<trkpt lat="27.906474" lon="99.721422">
<time>2015-08-06T10:00:35Z</time></trkpt>
<trkpt lat="27.905673" lon="99.721931">
<time>2015-08-06T10:00:36Z</time></trkpt>
<trkpt lat="27.905203" lon="99.722241">
<time>2015-08-06T10:00:37Z</time></trkpt>
<trkpt lat="27.905113" lon="99.722321">
<time>2015-08-06T10:00:38Z</time></trkpt>
<trkpt lat="27.904442" lon="99.72295">
<time>2015-08-06T10:00:39Z</time></trkpt>
<trkpt lat="27.904202" lon="99.72317">
<time>2015-08-06T10:00:40Z</time></trkpt>
<trkpt lat="27.904142" lon="99.72321">
<time>2015-08-06T10:00:41Z</time></trkpt>
<trkpt lat="27.904002" lon="99.72327">
<time>2015-08-06T10:00:42Z</time></trkpt>
<trkpt lat="27.903561" lon="99.7234">
<time>2015-08-06T10:00:43Z</time></trkpt>
<trkpt lat="27.903231" lon="99.72352">
<time>2015-08-06T10:00:44Z</time></trkpt>
<trkpt lat="27.902831" lon="99.723689">
<time>2015-08-06T10:00:45Z</time></trkpt>
<trkpt lat="27.902641" lon="99.723769">
<time>2015-08-06T10:00:46Z</time></trkpt>
<trkpt lat="27.902421" lon="99.723849">
<time>2015-08-06T10:00:47Z</time></trkpt>
<trkpt lat="27.902131" lon="99.723919">
<time>2015-08-06T10:00:48Z</time></trkpt>
<trkpt lat="27.901781" lon="99.723959">
<time>2015-08-06T10:00:49Z</time></trkpt>
<trkpt lat="27.901241" lon="99.723999">
<time>2015-08-06T10:00:50Z</time></trkpt>
<trkpt lat="27.90068" lon="99.724049">
<time>2015-08-06T10:00:51Z</time></trkpt>
<trkpt lat="27.90036" lon="99.724099">
<time>2015-08-06T10:00:52Z</time></trkpt>
<trkpt lat="27.90025" lon="99.724139">
<time>2015-08-06T10:00:53Z</time></trkpt>
<trkpt lat="27.90013" lon="99.724189">
<time>2015-08-06T10:00:54Z</time></trkpt>
<trkpt lat="27.89989" lon="99.724329">
<time>2015-08-06T10:00:55Z</time></trkpt>
<trkpt lat="27.89955" lon="99.724618">
<time>2015-08-06T10:00:56Z</time></trkpt>
<trkpt lat="27.898859" lon="99.725228">
<time>2015-08-06T10:00:57Z</time></trkpt>
<trkpt lat="27.898659" lon="99.725398">
<time>2015-08-06T10:00:58Z</time></trkpt>
<trkpt lat="27.898298" lon="99.725687">
<time>2015-08-06T10:00:59Z</time></trkpt>
<trkpt lat="27.897828" lon="99.726007">
<time>2015-08-06T10:01:00Z</time></trkpt>
<trkpt lat="27.897788" lon="99.726037">
<time>2015-08-06T10:01:01Z</time></trkpt>
<trkpt lat="27.897568" lon="99.726177">
<time>2015-08-06T10:01:02Z</time></trkpt>
<trkpt lat="27.896817" lon="99.726656">
<time>2015-08-06T10:01:03Z</time></trkpt>
<trkpt lat="27.896257" lon="99.726996">
<time>2015-08-06T10:01:04Z</time></trkpt>
<trkpt lat="27.895987" lon="99.727136">
<time>2015-08-06T10:01:05Z</time></trkpt>
<trkpt lat="27.895607" lon="99.727266">
<time>2015-08-06T10:01:06Z</time></trkpt>
<trkpt lat="27.895277" lon="99.727385">
<time>2015-08-06T10:01:07Z</time></trkpt>
<trkpt lat="27.894696" lon="99.727575">
<time>2015-08-06T10:01:08Z</time></trkpt>
<trkpt lat="27.894186" lon="99.727725">
<time>2015-08-06T10:01:09Z</time></trkpt>
<trkpt lat="27.893676" lon="99.727895">
<time>2015-08-06T10:01:10Z</time></trkpt>
<trkpt lat="27.893076" lon="99.728085">
<time>2015-08-06T10:01:11Z</time></trkpt>
<trkpt lat="27.892405" lon="99.728295">
<time>2015-08-06T10:01:12Z</time></trkpt>
<trkpt lat="27.891825" lon="99.728484">
<time>2015-08-06T10:01:13Z</time></trkpt>
<trkpt lat="27.891085" lon="99.728724">
<time>2015-08-06T10:01:14Z</time></trkpt>
<trkpt lat="27.890064" lon="99.729034">
<time>2015-08-06T10:01:15Z</time></trkpt>
<trkpt lat="27.889504" lon="99.729214">
<time>2015-08-06T10:01:16Z</time></trkpt>
<trkpt lat="27.888914" lon="99.729404">
<time>2015-08-06T10:01:17Z</time></trkpt>
<trkpt lat="27.888504" lon="99.729533">
<time>2015-08-06T10:01:18Z</time></trkpt>
<trkpt lat="27.888434" lon="99.729573">
<time>2015-08-06T10:01:19Z</time></trkpt>
<trkpt lat="27.888344" lon="99.729653">
<time>2015-08-06T10:01:20Z</time></trkpt>
<trkpt lat="27.888193" lon="99.729833">
<time>2015-08-06T10:01:21Z</time></trkpt>
<trkpt lat="27.887763" lon="99.730513">
<time>2015-08-06T10:01:22Z</time></trkpt>
<trkpt lat="27.887553" lon="99.730772">
<time>2015-08-06T10:01:23Z</time></trkpt>
<trkpt lat="27.887483" lon="99.730822">
<time>2015-08-06T10:01:24Z</time></trkpt>
<trkpt lat="27.887342" lon="99.730912">
<time>2015-08-06T10:01:25Z</time></trkpt>
<trkpt lat="27.886722" lon="99.731172">
<time>2015-08-06T10:01:26Z</time></trkpt>
<trkpt lat="27.885682" lon="99.731522">
<time>2015-08-06T10:01:27Z</time></trkpt>
<trkpt lat="27.884841" lon="99.731861">
<time>2015-08-06T10:01:28Z</time></trkpt>
<trkpt lat="27.884631" lon="99.731981">
<time>2015-08-06T10:01:29Z</time></trkpt>
<trkpt lat="27.884381" lon="99.732181">
<time>2015-08-06T10:01:30Z</time></trkpt>
<trkpt lat="27.884151" lon="99.732471">
<time>2015-08-06T10:01:31Z</time></trkpt>
<trkpt lat="27.88372" lon="99.733031">
<time>2015-08-06T10:01:32Z</time></trkpt>
<trkpt lat="27.8832" lon="99.73375">
<time>2015-08-06T10:01:33Z</time></trkpt>
<trkpt lat="27.882739" lon="99.734379">
<time>2015-08-06T10:01:34Z</time></trkpt>
<trkpt lat="27.882409" lon="99.734779">
<time>2015-08-06T10:01:35Z</time></trkpt>
<trkpt lat="27.882309" lon="99.734849">
<time>2015-08-06T10:01:36Z</time></trkpt>
<trkpt lat="27.882129" lon="99.734969">
<time>2015-08-06T10:01:37Z</time></trkpt>
<trkpt lat="27.881889" lon="99.735079">
<time>2015-08-06T10:01:38Z</time></trkpt>
<trkpt lat="27.881359" lon="99.735319">
<time>2015-08-06T10:01:39Z</time></trkpt>
<trkpt lat="27.880608" lon="99.735679">
<time>2015-08-06T10:01:40Z</time></trkpt>
<trkpt lat="27.880038" lon="99.735928">
<time>2015-08-06T10:01:41Z</time></trkpt>
<trkpt lat="27.879138" lon="99.736358">
<time>2015-08-06T10:01:42Z</time></trkpt>
<trkpt lat="27.878498" lon="99.736638">
<time>2015-08-06T10:01:43Z</time></trkpt>
<trkpt lat="27.877597" lon="99.737058">
<time>2015-08-06T10:01:44Z</time></trkpt>
<trkpt lat="27.876877" lon="99.737398">
<time>2015-08-06T10:01:45Z</time></trkpt>
<trkpt lat="27.876337" lon="99.737637">
<time>2015-08-06T10:01:46Z</time></trkpt>
<trkpt lat="27.875096" lon="99.738077">
<time>2015-08-06T10:01:47Z</time></trkpt>
<trkpt lat="27.874306" lon="99.738337">
<time>2015-08-06T10:01:48Z</time></trkpt>
<trkpt lat="27.873396" lon="99.738637">
<time>2015-08-06T10:01:49Z</time></trkpt>
<trkpt lat="27.872676" lon="99.738887">
<time>2015-08-06T10:01:50Z</time></trkpt>
<trkpt lat="27.871805" lon="99.739177">
<time>2015-08-06T10:01:51Z</time></trkpt>
<trkpt lat="27.871805" lon="99.739177">
<time>2015-08-06T10:01:52Z</time></trkpt>
<trkpt lat="27.871415" lon="99.739307">
<time>2015-08-06T10:01:53Z</time></trkpt>
<trkpt lat="27.870995" lon="99.739437">
<time>2015-08-06T10:01:54Z</time></trkpt>
<trkpt lat="27.870895" lon="99.739447">
<time>2015-08-06T10:01:55Z</time></trkpt>
<trkpt lat="27.870385" lon="99.739506">
<time>2015-08-06T10:01:56Z</time></trkpt>
<trkpt lat="27.869585" lon="99.739606">
<time>2015-08-06T10:01:57Z</time></trkpt>
<trkpt lat="27.868945" lon="99.739686">
<time>2015-08-06T10:01:58Z</time></trkpt>
<trkpt lat="27.868184" lon="99.739776">
<time>2015-08-06T10:01:59Z</time></trkpt>
<trkpt lat="27.867454" lon="99.739866">
<time>2015-08-06T10:02:00Z</time></trkpt>
<trkpt lat="27.866674" lon="99.739966">
<time>2015-08-06T10:02:01Z</time></trkpt>
<trkpt lat="27.866284" lon="99.740006">
<time>2015-08-06T10:02:02Z</time></trkpt>
<trkpt lat="27.866094" lon="99.740026">
<time>2015-08-06T10:02:03Z</time></trkpt>
<trkpt lat="27.865934" lon="99.740016">
<time>2015-08-06T10:02:04Z</time></trkpt>
<trkpt lat="27.865644" lon="99.739976">
<time>2015-08-06T10:02:05Z</time></trkpt>
<trkpt lat="27.865294" lon="99.739876">
<time>2015-08-06T10:02:06Z</time></trkpt>
<trkpt lat="27.865144" lon="99.739816">
<time>2015-08-06T10:02:07Z</time></trkpt>
<trkpt lat="27.864794" lon="99.739697">
<time>2015-08-06T10:02:08Z</time></trkpt>
<trkpt lat="27.864054" lon="99.739427">
<time>2015-08-06T10:02:09Z</time></trkpt>
<trkpt lat="27.863294" lon="99.739147">
<time>2015-08-06T10:02:10Z</time></trkpt>
<trkpt lat="27.862824" lon="99.738977">
<time>2015-08-06T10:02:11Z</time></trkpt>
<trkpt lat="27.862114" lon="99.738707">
<time>2015-08-06T10:02:12Z</time></trkpt>
<trkpt lat="27.861834" lon="99.738597">
<time>2015-08-06T10:02:13Z</time></trkpt>
<trkpt lat="27.860944" lon="99.738267">
<time>2015-08-06T10:02:14Z</time></trkpt>
<trkpt lat="27.860894" lon="99.738247">
<time>2015-08-06T10:02:15Z</time></trkpt>
<trkpt lat="27.860644" lon="99.738167">
<time>2015-08-06T10:02:16Z</time></trkpt>
<trkpt lat="27.860374" lon="99.738058">
<time>2015-08-06T10:02:17Z</time></trkpt>
<trkpt lat="27.859784" lon="99.737848">
<time>2015-08-06T10:02:18Z</time></trkpt>
<trkpt lat="27.859094" lon="99.737588">
<time>2015-08-06T10:02:19Z</time></trkpt>
<trkpt lat="27.858414" lon="99.737338">
<time>2015-08-06T10:02:20Z</time></trkpt>
<trkpt lat="27.858174" lon="99.737248">
<time>2015-08-06T10:02:21Z</time></trkpt>
<trkpt lat="27.858054" lon="99.737198">
<time>2015-08-06T10:02:22Z</time></trkpt>
<trkpt lat="27.857344" lon="99.736958">
<time>2015-08-06T10:02:23Z</time></trkpt>
<trkpt lat="27.856744" lon="99.736728">
<time>2015-08-06T10:02:24Z</time></trkpt>
<trkpt lat="27.856034" lon="99.736479">
<time>2015-08-06T10:02:25Z</time></trkpt>
<trkpt lat="27.855834" lon="99.736399">
<time>2015-08-06T10:02:26Z</time></trkpt>
<trkpt lat="27.855764" lon="99.736349">
<time>2015-08-06T10:02:27Z</time></trkpt>
<trkpt lat="27.855554" lon="99.736169">
<time>2015-08-06T10:02:28Z</time></trkpt>
<trkpt lat="27.854664" lon="99.73508">
<time>2015-08-06T10:02:29Z</time></trkpt>
<trkpt lat="27.853894" lon="99.73412">
<time>2015-08-06T10:02:30Z</time></trkpt>
<trkpt lat="27.853345" lon="99.733461">
<time>2015-08-06T10:02:31Z</time></trkpt>
<trkpt lat="27.853165" lon="99.733271">
<time>2015-08-06T10:02:32Z</time></trkpt>
<trkpt lat="27.852695" lon="99.732772">
<time>2015-08-06T10:02:33Z</time></trkpt>
<trkpt lat="27.852625" lon="99.732702">
<time>2015-08-06T10:02:34Z</time></trkpt>
<trkpt lat="27.851775" lon="99.731802">
<time>2015-08-06T10:02:35Z</time></trkpt>
<trkpt lat="27.851546" lon="99.731563">
<time>2015-08-06T10:02:36Z</time></trkpt>
<trkpt lat="27.851086" lon="99.731073">
<time>2015-08-06T10:02:37Z</time></trkpt>
<trkpt lat="27.850726" lon="99.730693">
<time>2015-08-06T10:02:38Z</time></trkpt>
<trkpt lat="27.850436" lon="99.730394">
<time>2015-08-06T10:02:39Z</time></trkpt>
<trkpt lat="27.849996" lon="99.729924">
<time>2015-08-06T10:02:40Z</time></trkpt>
<trkpt lat="27.849307" lon="99.729215">
<time>2015-08-06T10:02:41Z</time></trkpt>
<trkpt lat="27.848367" lon="99.728236">
<time>2015-08-06T10:02:42Z</time></trkpt>
<trkpt lat="27.848218" lon="99.728076">
<time>2015-08-06T10:02:43Z</time></trkpt>
<trkpt lat="27.847188" lon="99.727007">
<time>2015-08-06T10:02:44Z</time></trkpt>
<trkpt lat="27.846828" lon="99.726627">
<time>2015-08-06T10:02:45Z</time></trkpt>
<trkpt lat="27.845979" lon="99.725758">
<time>2015-08-06T10:02:46Z</time></trkpt>
<trkpt lat="27.845459" lon="99.725199">
<time>2015-08-06T10:02:47Z</time></trkpt>
<trkpt lat="27.84512" lon="99.7248">
<time>2015-08-06T10:02:48Z</time></trkpt>
<trkpt lat="27.84509" lon="99.72476">
<time>2015-08-06T10:02:49Z</time></trkpt>
<trkpt lat="27.84473" lon="99.72412">
<time>2015-08-06T10:02:50Z</time></trkpt>
<trkpt lat="27.843722" lon="99.722073">
<time>2015-08-06T10:02:51Z</time></trkpt>
<trkpt lat="27.843553" lon="99.721504">
<time>2015-08-06T10:02:52Z</time></trkpt>
<trkpt lat="27.842745" lon="99.718837">
<time>2015-08-06T10:02:53Z</time></trkpt>
<trkpt lat="27.842277" lon="99.717289">
<time>2015-08-06T10:02:54Z</time></trkpt>
<trkpt lat="27.842088" lon="99.71665">
<time>2015-08-06T10:02:55Z</time></trkpt>
<trkpt lat="27.841729" lon="99.715482">
<time>2015-08-06T10:02:56Z</time></trkpt>
<trkpt lat="27.841559" lon="99.714913">
<time>2015-08-06T10:02:57Z</time></trkpt>
<trkpt lat="27.84127" lon="99.714074">
<time>2015-08-06T10:02:58Z</time></trkpt>
<trkpt lat="27.841241" lon="99.713984">
<time>2015-08-06T10:02:59Z</time></trkpt>
<trkpt lat="27.840942" lon="99.712966">
<time>2015-08-06T10:03:00Z</time></trkpt>
<trkpt lat="27.840773" lon="99.712357">
<time>2015-08-06T10:03:01Z</time></trkpt>
<trkpt lat="27.840743" lon="99.712237">
<time>2015-08-06T10:03:02Z</time></trkpt>
<trkpt lat="27.840374" lon="99.711049">
<time>2015-08-06T10:03:03Z</time></trkpt>
<trkpt lat="27.840205" lon="99.71051">
<time>2015-08-06T10:03:04Z</time></trkpt>
<trkpt lat="27.840205" lon="99.71048">
<time>2015-08-06T10:03:05Z</time></trkpt>
<trkpt lat="27.839896" lon="99.709551">
<time>2015-08-06T10:03:06Z</time></trkpt>
<trkpt lat="27.839856" lon="99.709452">
<time>2015-08-06T10:03:07Z</time></trkpt>
<trkpt lat="27.839826" lon="99.709372">
<time>2015-08-06T10:03:08Z</time></trkpt>
<trkpt lat="27.839776" lon="99.709302">
<time>2015-08-06T10:03:09Z</time></trkpt>
<trkpt lat="27.839717" lon="99.709202">
<time>2015-08-06T10:03:10Z</time></trkpt>
<trkpt lat="27.839647" lon="99.709092">
<time>2015-08-06T10:03:11Z</time></trkpt>
<trkpt lat="27.838858" lon="99.707944">
<time>2015-08-06T10:03:12Z</time></trkpt>
<trkpt lat="27.838359" lon="99.707166">
<time>2015-08-06T10:03:13Z</time></trkpt>
<trkpt lat="27.837601" lon="99.706117">
<time>2015-08-06T10:03:14Z</time></trkpt>
<trkpt lat="27.837012" lon="99.705269">
<time>2015-08-06T10:03:15Z</time></trkpt>
<trkpt lat="27.836942" lon="99.705179">
<time>2015-08-06T10:03:16Z</time></trkpt>
<trkpt lat="27.836732" lon="99.70487">
<time>2015-08-06T10:03:17Z</time></trkpt>
<trkpt lat="27.836593" lon="99.70462">
<time>2015-08-06T10:03:18Z</time></trkpt>
<trkpt lat="27.836413" lon="99.704401">
<time>2015-08-06T10:03:19Z</time></trkpt>
<trkpt lat="27.836313" lon="99.704301">
<time>2015-08-06T10:03:20Z</time></trkpt>
<trkpt lat="27.836313" lon="99.704301">
<time>2015-08-06T10:03:21Z</time></trkpt>
<trkpt lat="27.836293" lon="99.704291">
<time>2015-08-06T10:03:22Z</time></trkpt>
<trkpt lat="27.836283" lon="99.704281">
<time>2015-08-06T10:03:23Z</time></trkpt>
<trkpt lat="27.836263" lon="99.704271">
<time>2015-08-06T10:03:24Z</time></trkpt>
<trkpt lat="27.836133" lon="99.704201">
<time>2015-08-06T10:03:25Z</time></trkpt>
<trkpt lat="27.836043" lon="99.704161">
<time>2015-08-06T10:03:26Z</time></trkpt>
<trkpt lat="27.835943" lon="99.704111">
<time>2015-08-06T10:03:27Z</time></trkpt>
<trkpt lat="27.835813" lon="99.704071">
<time>2015-08-06T10:03:28Z</time></trkpt>
<trkpt lat="27.835693" lon="99.704041">
<time>2015-08-06T10:03:29Z</time></trkpt>
<trkpt lat="27.835443" lon="99.704011">
<time>2015-08-06T10:03:30Z</time></trkpt>
<trkpt lat="27.835413" lon="99.704011">
<time>2015-08-06T10:03:31Z</time></trkpt>
<trkpt lat="27.835023" lon="99.703961">
<time>2015-08-06T10:03:32Z</time></trkpt>
<trkpt lat="27.834873" lon="99.703941">
<time>2015-08-06T10:03:33Z</time></trkpt>
<trkpt lat="27.834873" lon="99.703931">
<time>2015-08-06T10:03:34Z</time></trkpt>
<trkpt lat="27.834233" lon="99.703842">
<time>2015-08-06T10:03:35Z</time></trkpt>
<trkpt lat="27.834013" lon="99.703812">
<time>2015-08-06T10:03:36Z</time></trkpt>
<trkpt lat="27.834013" lon="99.703812">
<time>2015-08-06T10:03:37Z</time></trkpt>
<trkpt lat="27.834013" lon="99.703752">
<time>2015-08-06T10:03:38Z</time></trkpt>
<trkpt lat="27.833994" lon="99.703682">
<time>2015-08-06T10:03:39Z</time></trkpt>
<trkpt lat="27.833656" lon="99.702335">
<time>2015-08-06T10:03:40Z</time></trkpt>
<trkpt lat="27.833636" lon="99.702265">
<time>2015-08-06T10:03:41Z</time></trkpt>
<trkpt lat="27.833626" lon="99.702235">
<time>2015-08-06T10:03:42Z</time></trkpt>
<trkpt lat="27.833357" lon="99.701296">
<time>2015-08-06T10:03:43Z</time></trkpt>
<trkpt lat="27.833277" lon="99.701057">
<time>2015-08-06T10:03:44Z</time></trkpt>
<trkpt lat="27.833098" lon="99.700448">
<time>2015-08-06T10:03:45Z</time></trkpt>
<trkpt lat="27.832939" lon="99.699879">
<time>2015-08-06T10:03:46Z</time></trkpt>
<trkpt lat="27.832939" lon="99.699879">
<time>2015-08-06T10:03:47Z</time></trkpt>
<trkpt lat="27.832849" lon="99.699969">
<time>2015-08-06T10:03:48Z</time></trkpt>
<trkpt lat="27.832809" lon="99.700029">
<time>2015-08-06T10:03:49Z</time></trkpt>
<trkpt lat="27.832729" lon="99.700099">
<time>2015-08-06T10:03:50Z</time></trkpt>
<trkpt lat="27.832619" lon="99.700179">
<time>2015-08-06T10:03:51Z</time></trkpt>
<trkpt lat="27.831798" lon="99.700748">
<time>2015-08-06T10:03:52Z</time></trkpt>
<trkpt lat="27.831037" lon="99.701187">
<time>2015-08-06T10:03:53Z</time></trkpt>
<trkpt lat="27.830767" lon="99.701366">
<time>2015-08-06T10:03:54Z</time></trkpt>
<trkpt lat="27.830036" lon="99.701806">
<time>2015-08-06T10:03:55Z</time></trkpt>
<trkpt lat="27.830036" lon="99.701806">
<time>2015-08-06T10:03:56Z</time></trkpt>
<trkpt lat="27.829935" lon="99.702444">
<time>2015-08-06T10:03:57Z</time></trkpt>
<trkpt lat="27.829935" lon="99.702444">
<time>2015-08-06T10:03:58Z</time></trkpt>
<trkpt lat="27.829555" lon="99.702375">
<time>2015-08-06T10:03:59Z</time></trkpt>
<trkpt lat="27.829365" lon="99.702345">
<time>2015-08-06T10:04:00Z</time></trkpt>
<trkpt lat="27.829285" lon="99.702335">
<time>2015-08-06T10:04:01Z</time></trkpt>
<trkpt lat="27.829235" lon="99.702335">
<time>2015-08-06T10:04:02Z</time></trkpt>
<trkpt lat="27.829195" lon="99.702345">
<time>2015-08-06T10:04:03Z</time></trkpt>
<trkpt lat="27.829155" lon="99.702375">
<time>2015-08-06T10:04:04Z</time></trkpt>
<trkpt lat="27.829115" lon="99.702414">
<time>2015-08-06T10:04:05Z</time></trkpt>
<trkpt lat="27.829014" lon="99.702554">
<time>2015-08-06T10:04:06Z</time></trkpt>
<trkpt lat="27.828944" lon="99.702684">
<time>2015-08-06T10:04:07Z</time></trkpt>
<trkpt lat="27.828894" lon="99.702784">
<time>2015-08-06T10:04:08Z</time></trkpt>
<trkpt lat="27.828874" lon="99.702844">
<time>2015-08-06T10:04:09Z</time></trkpt>
<trkpt lat="27.828854" lon="99.702943">
<time>2015-08-06T10:04:10Z</time></trkpt>
<trkpt lat="27.828854" lon="99.702943">
<time>2015-08-06T10:04:11Z</time></trkpt>
<trkpt lat="27.827954" lon="99.702824">
<time>2015-08-06T10:04:12Z</time></trkpt>
<trkpt lat="27.827904" lon="99.702814">
<time>2015-08-06T10:04:13Z</time></trkpt>
<trkpt lat="27.827834" lon="99.702804">
<time>2015-08-06T10:04:14Z</time></trkpt>
<trkpt lat="27.827724" lon="99.702784">
<time>2015-08-06T10:04:15Z</time></trkpt>
<trkpt lat="27.826584" lon="99.702624">
<time>2015-08-06T10:04:16Z</time></trkpt>
<trkpt lat="27.825994" lon="99.702544">
<time>2015-08-06T10:04:17Z</time></trkpt>
<trkpt lat="27.825894" lon="99.702524">
<time>2015-08-06T10:04:18Z</time></trkpt>
<trkpt lat="27.825574" lon="99.702484">
<time>2015-08-06T10:04:19Z</time></trkpt>
<trkpt lat="27.824584" lon="99.702355">
<time>2015-08-06T10:04:20Z</time></trkpt>
<trkpt lat="27.824574" lon="99.702355">
<time>2015-08-06T10:04:21Z</time></trkpt>
<trkpt lat="27.824194" lon="99.702305">
<time>2015-08-06T10:04:22Z</time></trkpt>
<trkpt lat="27.823964" lon="99.702295">
<time>2015-08-06T10:04:23Z</time></trkpt>
<trkpt lat="27.823124" lon="99.702195">
<time>2015-08-06T10:04:24Z</time></trkpt>
<trkpt lat="27.822884" lon="99.702175">
<time>2015-08-06T10:04:25Z</time></trkpt>
<trkpt lat="27.822604" lon="99.702145">
<time>2015-08-06T10:04:26Z</time></trkpt>
<trkpt lat="27.821944" lon="99.702075">
<time>2015-08-06T10:04:27Z</time></trkpt>
<trkpt lat="27.821714" lon="99.702045">
<time>2015-08-06T10:04:28Z</time></trkpt>
<trkpt lat="27.821334" lon="99.702005">
<time>2015-08-06T10:04:29Z</time></trkpt>
<trkpt lat="27.820984" lon="99.701976">
<time>2015-08-06T10:04:30Z</time></trkpt>
<trkpt lat="27.820764" lon="99.701985">
<time>2015-08-06T10:04:31Z</time></trkpt>
<trkpt lat="27.820684" lon="99.701995">
<time>2015-08-06T10:04:32Z</time></trkpt>
<trkpt lat="27.820424" lon="99.702025">
<time>2015-08-06T10:04:33Z</time></trkpt>
<trkpt lat="27.820214" lon="99.702075">
<time>2015-08-06T10:04:34Z</time></trkpt>
<trkpt lat="27.819623" lon="99.702225">
<time>2015-08-06T10:04:35Z</time></trkpt>
<trkpt lat="27.819223" lon="99.702305">
<time>2015-08-06T10:04:36Z</time></trkpt>
<trkpt lat="27.819173" lon="99.702315">
<time>2015-08-06T10:04:37Z</time></trkpt>
<trkpt lat="27.819083" lon="99.702335">
<time>2015-08-06T10:04:38Z</time></trkpt>
<trkpt lat="27.818243" lon="99.702564">
<time>2015-08-06T10:04:39Z</time></trkpt>
<trkpt lat="27.818142" lon="99.702604">
<time>2015-08-06T10:04:40Z</time></trkpt>
<trkpt lat="27.818032" lon="99.702674">
<time>2015-08-06T10:04:41Z</time></trkpt>
<trkpt lat="27.817972" lon="99.702774">
<time>2015-08-06T10:04:42Z</time></trkpt>
<trkpt lat="27.817972" lon="99.702774">
<time>2015-08-06T10:04:43Z</time></trkpt>
<trkpt lat="27.817902" lon="99.702864">
<time>2015-08-06T10:04:44Z</time></trkpt>
<trkpt lat="27.817822" lon="99.702914">
<time>2015-08-06T10:04:45Z</time></trkpt>
<trkpt lat="27.817562" lon="99.703004">
<time>2015-08-06T10:04:46Z</time></trkpt>
<trkpt lat="27.817432" lon="99.703083">
<time>2015-08-06T10:04:47Z</time></trkpt>
<trkpt lat="27.816981" lon="99.703223">
<time>2015-08-06T10:04:48Z</time></trkpt>
<trkpt lat="27.816761" lon="99.703283">
<time>2015-08-06T10:04:49Z</time></trkpt>
<trkpt lat="27.816571" lon="99.703343">
<time>2015-08-06T10:04:50Z</time></trkpt>
<trkpt lat="27.816561" lon="99.703353">
<time>2015-08-06T10:04:51Z</time></trkpt>
<trkpt lat="27.816361" lon="99.703433">
<time>2015-08-06T10:04:52Z</time></trkpt>
<trkpt lat="27.816281" lon="99.703473">
<time>2015-08-06T10:04:53Z</time></trkpt>
<trkpt lat="27.816161" lon="99.703533">
<time>2015-08-06T10:04:54Z</time></trkpt>
<trkpt lat="27.815961" lon="99.703593">
<time>2015-08-06T10:04:55Z</time></trkpt>
<trkpt lat="27.815961" lon="99.703593">
<time>2015-08-06T10:04:56Z</time></trkpt>
<trkpt lat="27.815891" lon="99.703603">
<time>2015-08-06T10:04:57Z</time></trkpt>
<trkpt lat="27.815861" lon="99.703623">
<time>2015-08-06T10:04:58Z</time></trkpt>
<trkpt lat="27.81583" lon="99.703652">
<time>2015-08-06T10:04:59Z</time></trkpt>
<trkpt lat="27.81582" lon="99.703702">
<time>2015-08-06T10:05:00Z</time></trkpt>
<trkpt lat="27.81578" lon="99.703862">
<time>2015-08-06T10:05:01Z</time></trkpt>
<trkpt lat="27.81578" lon="99.703862">
<time>2015-08-06T10:05:02Z</time></trkpt>
<trkpt lat="27.81561" lon="99.703912">
<time>2015-08-06T10:05:03Z</time></trkpt>
<trkpt lat="27.81535" lon="99.704032">
<time>2015-08-06T10:05:04Z</time></trkpt>
<trkpt lat="27.81517" lon="99.704072">
<time>2015-08-06T10:05:05Z</time></trkpt>
<trkpt lat="27.81502" lon="99.704092">
<time>2015-08-06T10:05:06Z</time></trkpt>
<trkpt lat="27.81489" lon="99.704112">
<time>2015-08-06T10:05:07Z</time></trkpt>
<trkpt lat="27.81486" lon="99.704122">
<time>2015-08-06T10:05:08Z</time></trkpt>
<trkpt lat="27.8148" lon="99.704172">
<time>2015-08-06T10:05:09Z</time></trkpt>
<trkpt lat="27.814739" lon="99.704241">
<time>2015-08-06T10:05:10Z</time></trkpt>
<trkpt lat="27.814669" lon="99.704321">
<time>2015-08-06T10:05:11Z</time></trkpt>
<trkpt lat="27.814569" lon="99.704421">
<time>2015-08-06T10:05:12Z</time></trkpt>
<trkpt lat="27.814549" lon="99.704441">
<time>2015-08-06T10:05:13Z</time></trkpt>
<trkpt lat="27.814549" lon="99.704441">
<time>2015-08-06T10:05:14Z</time></trkpt>
<trkpt lat="27.814539" lon="99.704451">
<time>2015-08-06T10:05:15Z</time></trkpt>
<trkpt lat="27.814529" lon="99.704451">
<time>2015-08-06T10:05:16Z</time></trkpt>
<trkpt lat="27.814519" lon="99.704451">
<time>2015-08-06T10:05:17Z</time></trkpt>
<trkpt lat="27.814509" lon="99.704441">
<time>2015-08-06T10:05:18Z</time></trkpt>
<trkpt lat="27.814499" lon="99.704431">
<time>2015-08-06T10:05:19Z</time></trkpt>
<trkpt lat="27.814489" lon="99.704401">
<time>2015-08-06T10:05:20Z</time></trkpt>
<trkpt lat="27.814489" lon="99.704401">
<time>2015-08-06T10:05:21Z</time></trkpt>
<trkpt lat="27.814369" lon="99.704491">
<time>2015-08-06T10:05:22Z</time></trkpt>
<trkpt lat="27.814339" lon="99.704521">
<time>2015-08-06T10:05:23Z</time></trkpt>
<trkpt lat="27.814299" lon="99.704561">
<time>2015-08-06T10:05:24Z</time></trkpt>
<trkpt lat="27.814229" lon="99.704611">
<time>2015-08-06T10:05:25Z</time></trkpt>
<trkpt lat="27.814159" lon="99.704661">
<time>2015-08-06T10:05:26Z</time></trkpt>
<trkpt lat="27.814079" lon="99.70476">
<time>2015-08-06T10:05:27Z</time></trkpt>
<trkpt lat="27.814038" lon="99.70482">
<time>2015-08-06T10:05:28Z</time></trkpt>
<trkpt lat="27.813978" lon="99.70493">
<time>2015-08-06T10:05:29Z</time></trkpt>
<trkpt lat="27.813758" lon="99.70524">
<time>2015-08-06T10:05:30Z</time></trkpt>
<trkpt lat="27.813758" lon="99.70524">
<time>2015-08-06T10:05:31Z</time></trkpt>
<trkpt lat="27.813738" lon="99.7052">
<time>2015-08-06T10:05:32Z</time></trkpt>
<trkpt lat="27.813708" lon="99.70518">
<time>2015-08-06T10:05:33Z</time></trkpt>
<trkpt lat="27.813688" lon="99.70516">
<time>2015-08-06T10:05:34Z</time></trkpt>
<trkpt lat="27.813658" lon="99.70515">
<time>2015-08-06T10:05:35Z</time></trkpt>
<trkpt lat="27.813648" lon="99.70515">
<time>2015-08-06T10:05:36Z</time></trkpt>
<trkpt lat="27.813648" lon="99.70515">
<time>2015-08-06T10:05:37Z</time></trkpt>
<trkpt lat="27.813638" lon="99.705369">
<time>2015-08-06T10:05:38Z</time></trkpt>
<trkpt lat="27.813647" lon="99.705489">
<time>2015-08-06T10:05:39Z</time></trkpt>
<trkpt lat="27.813647" lon="99.705489">
<time>2015-08-06T10:05:40Z</time></trkpt>
<trkpt lat="27.813597" lon="99.705489">
<time>2015-08-06T10:05:41Z</time></trkpt>
<trkpt lat="27.813567" lon="99.705499">
<time>2015-08-06T10:05:42Z</time></trkpt>
<trkpt lat="27.813537" lon="99.705509">
<time>2015-08-06T10:05:43Z</time></trkpt>
<trkpt lat="27.813497" lon="99.705529">
<time>2015-08-06T10:05:44Z</time></trkpt>
<trkpt lat="27.813467" lon="99.705549">
<time>2015-08-06T10:05:45Z</time></trkpt>
<trkpt lat="27.813417" lon="99.705589">
<time>2015-08-06T10:05:46Z</time></trkpt>
<trkpt lat="27.813367" lon="99.705639">
<time>2015-08-06T10:05:47Z</time></trkpt>
<trkpt lat="27.813267" lon="99.705699">
<time>2015-08-06T10:05:48Z</time></trkpt>
<trkpt lat="27.813267" lon="99.705699">
<time>2015-08-06T10:05:49Z</time></trkpt>
<trkpt lat="27.813227" lon="99.705639">
<time>2015-08-06T10:05:50Z</time></trkpt>
<trkpt lat="27.813137" lon="99.705409">
<time>2015-08-06T10:05:51Z</time></trkpt>
<trkpt lat="27.813137" lon="99.705409">
<time>2015-08-06T10:05:52Z</time></trkpt>
<trkpt lat="27.813127" lon="99.705419">
<time>2015-08-06T10:05:53Z</time></trkpt>
<trkpt lat="27.813117" lon="99.705439">
<time>2015-08-06T10:05:54Z</time></trkpt>
<trkpt lat="27.813097" lon="99.705449">
<time>2015-08-06T10:05:55Z</time></trkpt>
<trkpt lat="27.813077" lon="99.705459">
<time>2015-08-06T10:05:56Z</time></trkpt>
<trkpt lat="27.813067" lon="99.705479">
<time>2015-08-06T10:05:57Z</time></trkpt>
<trkpt lat="27.813057" lon="99.705479">
<time>2015-08-06T10:05:58Z</time></trkpt>
<trkpt lat="27.813037" lon="99.705499">
<time>2015-08-06T10:05:59Z</time></trkpt>
<trkpt lat="27.812987" lon="99.705559">
<time>2015-08-06T10:06:00Z</time></trkpt>
<trkpt lat="27.812927" lon="99.705619">
<time>2015-08-06T10:06:01Z</time></trkpt>
<trkpt lat="27.812867" lon="99.705699">
<time>2015-08-06T10:06:02Z</time></trkpt>
<trkpt lat="27.812817" lon="99.705759">
<time>2015-08-06T10:06:03Z</time></trkpt>
<trkpt lat="27.812787" lon="99.705809">
<time>2015-08-06T10:06:04Z</time></trkpt>
<trkpt lat="27.812727" lon="99.705878">
<time>2015-08-06T10:06:05Z</time></trkpt>
<trkpt lat="27.812687" lon="99.705918">
<time>2015-08-06T10:06:06Z</time></trkpt>
<trkpt lat="27.812606" lon="99.705988">
<time>2015-08-06T10:06:07Z</time></trkpt>
<trkpt lat="27.812496" lon="99.706078">
<time>2015-08-06T10:06:08Z</time></trkpt>
<trkpt lat="27.812426" lon="99.706138">
<time>2015-08-06T10:06:09Z</time></trkpt>
<trkpt lat="27.812346" lon="99.706218">
<time>2015-08-06T10:06:10Z</time></trkpt>
<trkpt lat="27.812226" lon="99.706348">
<time>2015-08-06T10:06:11Z</time></trkpt>
<trkpt lat="27.812076" lon="99.706497">
<time>2015-08-06T10:06:12Z</time></trkpt>
<trkpt lat="27.811976" lon="99.706587">
<time>2015-08-06T10:06:13Z</time></trkpt>
<trkpt lat="27.811895" lon="99.706637">
<time>2015-08-06T10:06:14Z</time></trkpt>
<trkpt lat="27.811775" lon="99.706717">
<time>2015-08-06T10:06:15Z</time></trkpt>
<trkpt lat="27.811665" lon="99.706787">
<time>2015-08-06T10:06:16Z</time></trkpt>
<trkpt lat="27.811555" lon="99.706837">
<time>2015-08-06T10:06:17Z</time></trkpt>
<trkpt lat="27.811205" lon="99.706977">
<time>2015-08-06T10:06:18Z</time></trkpt>
<trkpt lat="27.810675" lon="99.707146">
<time>2015-08-06T10:06:19Z</time></trkpt>
<trkpt lat="27.810494" lon="99.707236">
<time>2015-08-06T10:06:20Z</time></trkpt>
<trkpt lat="27.810204" lon="99.707426">
<time>2015-08-06T10:06:21Z</time></trkpt>
<trkpt lat="27.810174" lon="99.707446">
<time>2015-08-06T10:06:22Z</time></trkpt>
<trkpt lat="27.809924" lon="99.707605">
<time>2015-08-06T10:06:23Z</time></trkpt>
<trkpt lat="27.808192" lon="99.708294">
<time>2015-08-06T10:06:24Z</time></trkpt>
<trkpt lat="27.808192" lon="99.708294">
<time>2015-08-06T10:06:25Z</time></trkpt>
<trkpt lat="27.808103" lon="99.708224">
<time>2015-08-06T10:06:26Z</time></trkpt>
<trkpt lat="27.807923" lon="99.708125">
<time>2015-08-06T10:06:27Z</time></trkpt>
<trkpt lat="27.807783" lon="99.708065">
<time>2015-08-06T10:06:28Z</time></trkpt>
<trkpt lat="27.807573" lon="99.708005">
<time>2015-08-06T10:06:29Z</time></trkpt>
<trkpt lat="27.807163" lon="99.707915">
<time>2015-08-06T10:06:30Z</time></trkpt>
<trkpt lat="27.806903" lon="99.707865">
<time>2015-08-06T10:06:31Z</time></trkpt>
<trkpt lat="27.806903" lon="99.707865">
<time>2015-08-06T10:06:32Z</time></trkpt>
<trkpt lat="27.806783" lon="99.707865">
<time>2015-08-06T10:06:33Z</time></trkpt>
<trkpt lat="27.805693" lon="99.707616">
<time>2015-08-06T10:06:34Z</time></trkpt>
<trkpt lat="27.805693" lon="99.707616">
<time>2015-08-06T10:06:35Z</time></trkpt>
<trkpt lat="27.805443" lon="99.707566">
<time>2015-08-06T10:06:36Z</time></trkpt>
<trkpt lat="27.803573" lon="99.707146">
<time>2015-08-06T10:06:37Z</time></trkpt>
<trkpt lat="27.803003" lon="99.707007">
<time>2015-08-06T10:06:38Z</time></trkpt>
<trkpt lat="27.802694" lon="99.706887">
<time>2015-08-06T10:06:39Z</time></trkpt>
<trkpt lat="27.802414" lon="99.706757">
<time>2015-08-06T10:06:40Z</time></trkpt>
<trkpt lat="27.802404" lon="99.706757">
<time>2015-08-06T10:06:41Z</time></trkpt>
<trkpt lat="27.802354" lon="99.706727">
<time>2015-08-06T10:06:42Z</time></trkpt>
<trkpt lat="27.802134" lon="99.706597">
<time>2015-08-06T10:06:43Z</time></trkpt>
<trkpt lat="27.801894" lon="99.706428">
<time>2015-08-06T10:06:44Z</time></trkpt>
<trkpt lat="27.801415" lon="99.706078">
<time>2015-08-06T10:06:45Z</time></trkpt>
<trkpt lat="27.799346" lon="99.704571">
<time>2015-08-06T10:06:46Z</time></trkpt>
<trkpt lat="27.799316" lon="99.704541">
<time>2015-08-06T10:06:47Z</time></trkpt>
<trkpt lat="27.797618" lon="99.703274">
<time>2015-08-06T10:06:48Z</time></trkpt>
<trkpt lat="27.796979" lon="99.702815">
<time>2015-08-06T10:06:49Z</time></trkpt>
<trkpt lat="27.796619" lon="99.702495">
<time>2015-08-06T10:06:50Z</time></trkpt>
<trkpt lat="27.796449" lon="99.702305">
<time>2015-08-06T10:06:51Z</time></trkpt>
<trkpt lat="27.79622" lon="99.702066">
<time>2015-08-06T10:06:52Z</time></trkpt>
<trkpt lat="27.79615" lon="99.701966">
<time>2015-08-06T10:06:53Z</time></trkpt>
<trkpt lat="27.79605" lon="99.701826">
<time>2015-08-06T10:06:54Z</time></trkpt>
<trkpt lat="27.79587" lon="99.701567">
<time>2015-08-06T10:06:55Z</time></trkpt>
<trkpt lat="27.795661" lon="99.701188">
<time>2015-08-06T10:06:56Z</time></trkpt>
<trkpt lat="27.795501" lon="99.700868">
<time>2015-08-06T10:06:57Z</time></trkpt>
<trkpt lat="27.795133" lon="99.70009">
<time>2015-08-06T10:06:58Z</time></trkpt>
<trkpt lat="27.794913" lon="99.699541">
<time>2015-08-06T10:06:59Z</time></trkpt>
<trkpt lat="27.794913" lon="99.699541">
<time>2015-08-06T10:07:00Z</time></trkpt>
<trkpt lat="27.793532" lon="99.70012">
<time>2015-08-06T10:07:01Z</time></trkpt>
<trkpt lat="27.792211" lon="99.700679">
<time>2015-08-06T10:07:02Z</time></trkpt>
<trkpt lat="27.791991" lon="99.700759">
<time>2015-08-06T10:07:03Z</time></trkpt>
<trkpt lat="27.791711" lon="99.700868">
<time>2015-08-06T10:07:04Z</time></trkpt>
<trkpt lat="27.791321" lon="99.701028">
<time>2015-08-06T10:07:05Z</time></trkpt>
<trkpt lat="27.79091" lon="99.701178">
<time>2015-08-06T10:07:06Z</time></trkpt>
<trkpt lat="27.79087" lon="99.701188">
<time>2015-08-06T10:07:07Z</time></trkpt>
<trkpt lat="27.79082" lon="99.701208">
<time>2015-08-06T10:07:08Z</time></trkpt>
<trkpt lat="27.7905" lon="99.701278">
<time>2015-08-06T10:07:09Z</time></trkpt>
<trkpt lat="27.79037" lon="99.701308">
<time>2015-08-06T10:07:10Z</time></trkpt>
<trkpt lat="27.78998" lon="99.701397">
<time>2015-08-06T10:07:11Z</time></trkpt>
<trkpt lat="27.78963" lon="99.701467">
<time>2015-08-06T10:07:12Z</time></trkpt>
<trkpt lat="27.788209" lon="99.701737">
<time>2015-08-06T10:07:13Z</time></trkpt>
<trkpt lat="27.786028" lon="99.702136">
<time>2015-08-06T10:07:14Z</time></trkpt>
<trkpt lat="27.784938" lon="99.702296">
<time>2015-08-06T10:07:15Z</time></trkpt>
<trkpt lat="27.783967" lon="99.702426">
<time>2015-08-06T10:07:16Z</time></trkpt>
<trkpt lat="27.783437" lon="99.702505">
<time>2015-08-06T10:07:17Z</time></trkpt>
<trkpt lat="27.783207" lon="99.702545">
<time>2015-08-06T10:07:18Z</time></trkpt>
<trkpt lat="27.780926" lon="99.702885">
<time>2015-08-06T10:07:19Z</time></trkpt>
<trkpt lat="27.780806" lon="99.702905">
<time>2015-08-06T10:07:20Z</time></trkpt>
<trkpt lat="27.779406" lon="99.703104">
<time>2015-08-06T10:07:21Z</time></trkpt>
<trkpt lat="27.778875" lon="99.703184">
<time>2015-08-06T10:07:22Z</time></trkpt>
<trkpt lat="27.778415" lon="99.703244">
<time>2015-08-06T10:07:23Z</time></trkpt>
<trkpt lat="27.775914" lon="99.703624">
<time>2015-08-06T10:07:24Z</time></trkpt>
<trkpt lat="27.774864" lon="99.703783">
<time>2015-08-06T10:07:25Z</time></trkpt>
<trkpt lat="27.773653" lon="99.703953">
<time>2015-08-06T10:07:26Z</time></trkpt>
<trkpt lat="27.772833" lon="99.704073">
<time>2015-08-06T10:07:27Z</time></trkpt>
<trkpt lat="27.771242" lon="99.704312">
<time>2015-08-06T10:07:28Z</time></trkpt>
<trkpt lat="27.770372" lon="99.704442">
<time>2015-08-06T10:07:29Z</time></trkpt>
<trkpt lat="27.769902" lon="99.704512">
<time>2015-08-06T10:07:30Z</time></trkpt>
<trkpt lat="27.767871" lon="99.704812">
<time>2015-08-06T10:07:31Z</time></trkpt>
<trkpt lat="27.76537" lon="99.705161">
<time>2015-08-06T10:07:32Z</time></trkpt>
<trkpt lat="27.76363" lon="99.705421">
<time>2015-08-06T10:07:33Z</time></trkpt>
<trkpt lat="27.762919" lon="99.70553">
<time>2015-08-06T10:07:34Z</time></trkpt>
<trkpt lat="27.761149" lon="99.70578">
<time>2015-08-06T10:07:35Z</time></trkpt>
<trkpt lat="27.760889" lon="99.70582">
<time>2015-08-06T10:07:36Z</time></trkpt>
<trkpt lat="27.760409" lon="99.70588">
<time>2015-08-06T10:07:37Z</time></trkpt>
<trkpt lat="27.759598" lon="99.70602">
<time>2015-08-06T10:07:38Z</time></trkpt>
<trkpt lat="27.758738" lon="99.706159">
<time>2015-08-06T10:07:39Z</time></trkpt>
<trkpt lat="27.758388" lon="99.706219">
<time>2015-08-06T10:07:40Z</time></trkpt>
<trkpt lat="27.758228" lon="99.706239">
<time>2015-08-06T10:07:41Z</time></trkpt>
<trkpt lat="27.757838" lon="99.706299">
<time>2015-08-06T10:07:42Z</time></trkpt>
<trkpt lat="27.757557" lon="99.706339">
<time>2015-08-06T10:07:43Z</time></trkpt>
<trkpt lat="27.757437" lon="99.706359">
<time>2015-08-06T10:07:44Z</time></trkpt>
<trkpt lat="27.757087" lon="99.706439">
<time>2015-08-06T10:07:45Z</time></trkpt>
<trkpt lat="27.757047" lon="99.706449">
<time>2015-08-06T10:07:46Z</time></trkpt>
<trkpt lat="27.756797" lon="99.706529">
<time>2015-08-06T10:07:47Z</time></trkpt>
<trkpt lat="27.756507" lon="99.706639">
<time>2015-08-06T10:07:48Z</time></trkpt>
<trkpt lat="27.756267" lon="99.706748">
<time>2015-08-06T10:07:49Z</time></trkpt>
<trkpt lat="27.755946" lon="99.706888">
<time>2015-08-06T10:07:50Z</time></trkpt>
<trkpt lat="27.755596" lon="99.707088">
<time>2015-08-06T10:07:51Z</time></trkpt>
<trkpt lat="27.755356" lon="99.707237">
<time>2015-08-06T10:07:52Z</time></trkpt>
<trkpt lat="27.754805" lon="99.707617">
<time>2015-08-06T10:07:53Z</time></trkpt>
<trkpt lat="27.754305" lon="99.707956">
<time>2015-08-06T10:07:54Z</time></trkpt>
<trkpt lat="27.752973" lon="99.708845">
<time>2015-08-06T10:07:55Z</time></trkpt>
<trkpt lat="27.752343" lon="99.709294">
<time>2015-08-06T10:07:56Z</time></trkpt>
<trkpt lat="27.751972" lon="99.709544">
<time>2015-08-06T10:07:57Z</time></trkpt>
<trkpt lat="27.751612" lon="99.709793">
<time>2015-08-06T10:07:58Z</time></trkpt>
<trkpt lat="27.75002" lon="99.710871">
<time>2015-08-06T10:07:59Z</time></trkpt>
<trkpt lat="27.748789" lon="99.71171">
<time>2015-08-06T10:08:00Z</time></trkpt>
<trkpt lat="27.745636" lon="99.713837">
<time>2015-08-06T10:08:01Z</time></trkpt>
<trkpt lat="27.745345" lon="99.714037">
<time>2015-08-06T10:08:02Z</time></trkpt>
<trkpt lat="27.740901" lon="99.717042">
<time>2015-08-06T10:08:03Z</time></trkpt>
<trkpt lat="27.73954" lon="99.717981">
<time>2015-08-06T10:08:04Z</time></trkpt>
<trkpt lat="27.73946" lon="99.718031">
<time>2015-08-06T10:08:05Z</time></trkpt>
<trkpt lat="27.73893" lon="99.71837">
<time>2015-08-06T10:08:06Z</time></trkpt>
<trkpt lat="27.738219" lon="99.7188">
<time>2015-08-06T10:08:07Z</time></trkpt>
<trkpt lat="27.737689" lon="99.719069">
<time>2015-08-06T10:08:08Z</time></trkpt>
<trkpt lat="27.736608" lon="99.719519">
<time>2015-08-06T10:08:09Z</time></trkpt>
<trkpt lat="27.735988" lon="99.719719">
<time>2015-08-06T10:08:10Z</time></trkpt>
<trkpt lat="27.735227" lon="99.719898">
<time>2015-08-06T10:08:11Z</time></trkpt>
<trkpt lat="27.734847" lon="99.719968">
<time>2015-08-06T10:08:12Z</time></trkpt>
<trkpt lat="27.734407" lon="99.720048">
<time>2015-08-06T10:08:13Z</time></trkpt>
<trkpt lat="27.733647" lon="99.720108">
<time>2015-08-06T10:08:14Z</time></trkpt>
<trkpt lat="27.733147" lon="99.720148">
<time>2015-08-06T10:08:15Z</time></trkpt>
<trkpt lat="27.732797" lon="99.720168">
<time>2015-08-06T10:08:16Z</time></trkpt>
<trkpt lat="27.732707" lon="99.720208">
<time>2015-08-06T10:08:17Z</time></trkpt>
<trkpt lat="27.731427" lon="99.720278">
<time>2015-08-06T10:08:18Z</time></trkpt>
<trkpt lat="27.730936" lon="99.720328">
<time>2015-08-06T10:08:19Z</time></trkpt>
<trkpt lat="27.730616" lon="99.720398">
<time>2015-08-06T10:08:20Z</time></trkpt>
<trkpt lat="27.730306" lon="99.720478">
<time>2015-08-06T10:08:21Z</time></trkpt>
<trkpt lat="27.730046" lon="99.720568">
<time>2015-08-06T10:08:22Z</time></trkpt>
<trkpt lat="27.729766" lon="99.720697">
<time>2015-08-06T10:08:23Z</time></trkpt>
<trkpt lat="27.729496" lon="99.720837">
<time>2015-08-06T10:08:24Z</time></trkpt>
<trkpt lat="27.728965" lon="99.721187">
<time>2015-08-06T10:08:25Z</time></trkpt>
<trkpt lat="27.728545" lon="99.721496">
<time>2015-08-06T10:08:26Z</time></trkpt>
<trkpt lat="27.728205" lon="99.721746">
<time>2015-08-06T10:08:27Z</time></trkpt>
<trkpt lat="27.727904" lon="99.721916">
<time>2015-08-06T10:08:28Z</time></trkpt>
<trkpt lat="27.727644" lon="99.722026">
<time>2015-08-06T10:08:29Z</time></trkpt>
<trkpt lat="27.727444" lon="99.722096">
<time>2015-08-06T10:08:30Z</time></trkpt>
<trkpt lat="27.727214" lon="99.722136">
<time>2015-08-06T10:08:31Z</time></trkpt>
<trkpt lat="27.727044" lon="99.722146">
<time>2015-08-06T10:08:32Z</time></trkpt>
<trkpt lat="27.726874" lon="99.722166">
<time>2015-08-06T10:08:33Z</time></trkpt>
<trkpt lat="27.726814" lon="99.722166">
<time>2015-08-06T10:08:34Z</time></trkpt>
<trkpt lat="27.726614" lon="99.722166">
<time>2015-08-06T10:08:35Z</time></trkpt>
<trkpt lat="27.726404" lon="99.722136">
<time>2015-08-06T10:08:36Z</time></trkpt>
<trkpt lat="27.725444" lon="99.721986">
<time>2015-08-06T10:08:37Z</time></trkpt>
<trkpt lat="27.724974" lon="99.721966">
<time>2015-08-06T10:08:38Z</time></trkpt>
<trkpt lat="27.724594" lon="99.722026">
<time>2015-08-06T10:08:39Z</time></trkpt>
<trkpt lat="27.724304" lon="99.722106">
<time>2015-08-06T10:08:40Z</time></trkpt>
<trkpt lat="27.724024" lon="99.722256">
<time>2015-08-06T10:08:41Z</time></trkpt>
<trkpt lat="27.723663" lon="99.722515">
<time>2015-08-06T10:08:42Z</time></trkpt>
<trkpt lat="27.723353" lon="99.722805">
<time>2015-08-06T10:08:43Z</time></trkpt>
<trkpt lat="27.721841" lon="99.724333">
<time>2015-08-06T10:08:44Z</time></trkpt>
<trkpt lat="27.721371" lon="99.724793">
<time>2015-08-06T10:08:45Z</time></trkpt>
<trkpt lat="27.72078" lon="99.725212">
<time>2015-08-06T10:08:46Z</time></trkpt>
<trkpt lat="27.72044" lon="99.725392">
<time>2015-08-06T10:08:47Z</time></trkpt>
<trkpt lat="27.72013" lon="99.725512">
<time>2015-08-06T10:08:48Z</time></trkpt>
<trkpt lat="27.71974" lon="99.725602">
<time>2015-08-06T10:08:49Z</time></trkpt>
<trkpt lat="27.71936" lon="99.725642">
<time>2015-08-06T10:08:50Z</time></trkpt>
<trkpt lat="27.7189" lon="99.725642">
<time>2015-08-06T10:08:51Z</time></trkpt>
<trkpt lat="27.71842" lon="99.725602">
<time>2015-08-06T10:08:52Z</time></trkpt>
<trkpt lat="27.71683" lon="99.725412">
<time>2015-08-06T10:08:53Z</time></trkpt>
<trkpt lat="27.71601" lon="99.725322">
<time>2015-08-06T10:08:54Z</time></trkpt>
<trkpt lat="27.71554" lon="99.725262">
<time>2015-08-06T10:08:55Z</time></trkpt>
<trkpt lat="27.71527" lon="99.725212">
<time>2015-08-06T10:08:56Z</time></trkpt>
<trkpt lat="27.71509" lon="99.725172">
<time>2015-08-06T10:08:57Z</time></trkpt>
<trkpt lat="27.71489" lon="99.725102">
<time>2015-08-06T10:08:58Z</time></trkpt>
<trkpt lat="27.71455" lon="99.724943">
<time>2015-08-06T10:08:59Z</time></trkpt>
<trkpt lat="27.71439" lon="99.724853">
<time>2015-08-06T10:09:00Z</time></trkpt>
<trkpt lat="27.71423" lon="99.724743">
<time>2015-08-06T10:09:01Z</time></trkpt>
<trkpt lat="27.71401" lon="99.724563">
<time>2015-08-06T10:09:02Z</time></trkpt>
<trkpt lat="27.71374" lon="99.724293">
<time>2015-08-06T10:09:03Z</time></trkpt>
<trkpt lat="27.713111" lon="99.723594">
<time>2015-08-06T10:09:04Z</time></trkpt>
<trkpt lat="27.712272" lon="99.722635">
<time>2015-08-06T10:09:05Z</time></trkpt>
<trkpt lat="27.712052" lon="99.722436">
<time>2015-08-06T10:09:06Z</time></trkpt>
<trkpt lat="27.711832" lon="99.722236">
<time>2015-08-06T10:09:07Z</time></trkpt>
<trkpt lat="27.711652" lon="99.722106">
<time>2015-08-06T10:09:08Z</time></trkpt>
<trkpt lat="27.711452" lon="99.721976">
<time>2015-08-06T10:09:09Z</time></trkpt>
<trkpt lat="27.711182" lon="99.721846">
<time>2015-08-06T10:09:10Z</time></trkpt>
<trkpt lat="27.710892" lon="99.721747">
<time>2015-08-06T10:09:11Z</time></trkpt>
<trkpt lat="27.710643" lon="99.721697">
<time>2015-08-06T10:09:12Z</time></trkpt>
<trkpt lat="27.710403" lon="99.721657">
<time>2015-08-06T10:09:13Z</time></trkpt>
<trkpt lat="27.710153" lon="99.721657">
<time>2015-08-06T10:09:14Z</time></trkpt>
<trkpt lat="27.709872" lon="99.721697">
<time>2015-08-06T10:09:15Z</time></trkpt>
<trkpt lat="27.709512" lon="99.721777">
<time>2015-08-06T10:09:16Z</time></trkpt>
<trkpt lat="27.709182" lon="99.721916">
<time>2015-08-06T10:09:17Z</time></trkpt>
<trkpt lat="27.70618" lon="99.723545">
<time>2015-08-06T10:09:18Z</time></trkpt>
<trkpt lat="27.703819" lon="99.724823">
<time>2015-08-06T10:09:19Z</time></trkpt>
<trkpt lat="27.703549" lon="99.724933">
<time>2015-08-06T10:09:20Z</time></trkpt>
<trkpt lat="27.703339" lon="99.725003">
<time>2015-08-06T10:09:21Z</time></trkpt>
<trkpt lat="27.702888" lon="99.725093">
<time>2015-08-06T10:09:22Z</time></trkpt>
<trkpt lat="27.702528" lon="99.725113">
<time>2015-08-06T10:09:23Z</time></trkpt>
<trkpt lat="27.702138" lon="99.725113">
<time>2015-08-06T10:09:24Z</time></trkpt>
<trkpt lat="27.701198" lon="99.725003">
<time>2015-08-06T10:09:25Z</time></trkpt>
<trkpt lat="27.700508" lon="99.724963">
<time>2015-08-06T10:09:26Z</time></trkpt>
<trkpt lat="27.700138" lon="99.725003">
<time>2015-08-06T10:09:27Z</time></trkpt>
<trkpt lat="27.699708" lon="99.725083">
<time>2015-08-06T10:09:28Z</time></trkpt>
<trkpt lat="27.698288" lon="99.725423">
<time>2015-08-06T10:09:29Z</time></trkpt>
<trkpt lat="27.693276" lon="99.726621">
<time>2015-08-06T10:09:30Z</time></trkpt>
<trkpt lat="27.692886" lon="99.726711">
<time>2015-08-06T10:09:31Z</time></trkpt>
<trkpt lat="27.692526" lon="99.726841">
<time>2015-08-06T10:09:32Z</time></trkpt>
<trkpt lat="27.692146" lon="99.727021">
<time>2015-08-06T10:09:33Z</time></trkpt>
<trkpt lat="27.691936" lon="99.727131">
<time>2015-08-06T10:09:34Z</time></trkpt>
<trkpt lat="27.691775" lon="99.727241">
<time>2015-08-06T10:09:35Z</time></trkpt>
<trkpt lat="27.691425" lon="99.72753">
<time>2015-08-06T10:09:36Z</time></trkpt>
<trkpt lat="27.690995" lon="99.72798">
<time>2015-08-06T10:09:37Z</time></trkpt>
<trkpt lat="27.690654" lon="99.72848">
<time>2015-08-06T10:09:38Z</time></trkpt>
<trkpt lat="27.689803" lon="99.730188">
<time>2015-08-06T10:09:39Z</time></trkpt>
<trkpt lat="27.689332" lon="99.731127">
<time>2015-08-06T10:09:40Z</time></trkpt>
<trkpt lat="27.689162" lon="99.731457">
<time>2015-08-06T10:09:41Z</time></trkpt>
<trkpt lat="27.689032" lon="99.731687">
<time>2015-08-06T10:09:42Z</time></trkpt>
<trkpt lat="27.688822" lon="99.731996">
<time>2015-08-06T10:09:43Z</time></trkpt>
<trkpt lat="27.688551" lon="99.732276">
<time>2015-08-06T10:09:44Z</time></trkpt>
<trkpt lat="27.688311" lon="99.732486">
<time>2015-08-06T10:09:45Z</time></trkpt>
<trkpt lat="27.688061" lon="99.732646">
<time>2015-08-06T10:09:46Z</time></trkpt>
<trkpt lat="27.687761" lon="99.732766">
<time>2015-08-06T10:09:47Z</time></trkpt>
<trkpt lat="27.687511" lon="99.732826">
<time>2015-08-06T10:09:48Z</time></trkpt>
<trkpt lat="27.687251" lon="99.732866">
<time>2015-08-06T10:09:49Z</time></trkpt>
<trkpt lat="27.686861" lon="99.732856">
<time>2015-08-06T10:09:50Z</time></trkpt>
<trkpt lat="27.686531" lon="99.732796">
<time>2015-08-06T10:09:51Z</time></trkpt>
<trkpt lat="27.686231" lon="99.732726">
<time>2015-08-06T10:09:52Z</time></trkpt>
<trkpt lat="27.683741" lon="99.731996">
<time>2015-08-06T10:09:53Z</time></trkpt>
<trkpt lat="27.683361" lon="99.731907">
<time>2015-08-06T10:09:54Z</time></trkpt>
<trkpt lat="27.682931" lon="99.731827">
<time>2015-08-06T10:09:55Z</time></trkpt>
<trkpt lat="27.682441" lon="99.731817">
<time>2015-08-06T10:09:56Z</time></trkpt>
<trkpt lat="27.682131" lon="99.731817">
<time>2015-08-06T10:09:57Z</time></trkpt>
<trkpt lat="27.681761" lon="99.731877">
<time>2015-08-06T10:09:58Z</time></trkpt>
<trkpt lat="27.681481" lon="99.731937">
<time>2015-08-06T10:09:59Z</time></trkpt>
<trkpt lat="27.681121" lon="99.732036">
<time>2015-08-06T10:10:00Z</time></trkpt>
<trkpt lat="27.680911" lon="99.732136">
<time>2015-08-06T10:10:01Z</time></trkpt>
<trkpt lat="27.680281" lon="99.732476">
<time>2015-08-06T10:10:02Z</time></trkpt>
<trkpt lat="27.68005" lon="99.732636">
<time>2015-08-06T10:10:03Z</time></trkpt>
<trkpt lat="27.67992" lon="99.732726">
<time>2015-08-06T10:10:04Z</time></trkpt>
<trkpt lat="27.67957" lon="99.733016">
<time>2015-08-06T10:10:05Z</time></trkpt>
<trkpt lat="27.67926" lon="99.733375">
<time>2015-08-06T10:10:06Z</time></trkpt>
<trkpt lat="27.67905" lon="99.733625">
<time>2015-08-06T10:10:07Z</time></trkpt>
<trkpt lat="27.67883" lon="99.733935">
<time>2015-08-06T10:10:08Z</time></trkpt>
<trkpt lat="27.678619" lon="99.734315">
<time>2015-08-06T10:10:09Z</time></trkpt>
<trkpt lat="27.678339" lon="99.734934">
<time>2015-08-06T10:10:10Z</time></trkpt>
<trkpt lat="27.678119" lon="99.735564">
<time>2015-08-06T10:10:11Z</time></trkpt>
<trkpt lat="27.677768" lon="99.736493">
<time>2015-08-06T10:10:12Z</time></trkpt>
<trkpt lat="27.677578" lon="99.736863">
<time>2015-08-06T10:10:13Z</time></trkpt>
<trkpt lat="27.677338" lon="99.737183">
<time>2015-08-06T10:10:14Z</time></trkpt>
<trkpt lat="27.677098" lon="99.737423">
<time>2015-08-06T10:10:15Z</time></trkpt>
<trkpt lat="27.676857" lon="99.737603">
<time>2015-08-06T10:10:16Z</time></trkpt>
<trkpt lat="27.676627" lon="99.737732">
<time>2015-08-06T10:10:17Z</time></trkpt>
<trkpt lat="27.676447" lon="99.737822">
<time>2015-08-06T10:10:18Z</time></trkpt>
<trkpt lat="27.676297" lon="99.737872">
<time>2015-08-06T10:10:19Z</time></trkpt>
<trkpt lat="27.676017" lon="99.737942">
<time>2015-08-06T10:10:20Z</time></trkpt>
<trkpt lat="27.675587" lon="99.738002">
<time>2015-08-06T10:10:21Z</time></trkpt>
<trkpt lat="27.674547" lon="99.738042">
<time>2015-08-06T10:10:22Z</time></trkpt>
<trkpt lat="27.673987" lon="99.738142">
<time>2015-08-06T10:10:23Z</time></trkpt>
<trkpt lat="27.673547" lon="99.738262">
<time>2015-08-06T10:10:24Z</time></trkpt>
<trkpt lat="27.672797" lon="99.738552">
<time>2015-08-06T10:10:25Z</time></trkpt>
<trkpt lat="27.671476" lon="99.739082">
<time>2015-08-06T10:10:26Z</time></trkpt>
<trkpt lat="27.670476" lon="99.739472">
<time>2015-08-06T10:10:27Z</time></trkpt>
<trkpt lat="27.669976" lon="99.739632">
<time>2015-08-06T10:10:28Z</time></trkpt>
<trkpt lat="27.669436" lon="99.739751">
<time>2015-08-06T10:10:29Z</time></trkpt>
<trkpt lat="27.668996" lon="99.739841">
<time>2015-08-06T10:10:30Z</time></trkpt>
<trkpt lat="27.668476" lon="99.739911">
<time>2015-08-06T10:10:31Z</time></trkpt>
<trkpt lat="27.667926" lon="99.739961">
<time>2015-08-06T10:10:32Z</time></trkpt>
<trkpt lat="27.667316" lon="99.739981">
<time>2015-08-06T10:10:33Z</time></trkpt>
<trkpt lat="27.666816" lon="99.740001">
<time>2015-08-06T10:10:34Z</time></trkpt>
<trkpt lat="27.666726" lon="99.740011">
<time>2015-08-06T10:10:35Z</time></trkpt>
<trkpt lat="27.666696" lon="99.740011">
<time>2015-08-06T10:10:36Z</time></trkpt>
<trkpt lat="27.666246" lon="99.740011">
<time>2015-08-06T10:10:37Z</time></trkpt>
<trkpt lat="27.662325" lon="99.740071">
<time>2015-08-06T10:10:38Z</time></trkpt>
<trkpt lat="27.659055" lon="99.740122">
<time>2015-08-06T10:10:39Z</time></trkpt>
<trkpt lat="27.658615" lon="99.740152">
<time>2015-08-06T10:10:40Z</time></trkpt>
<trkpt lat="27.658375" lon="99.740172">
<time>2015-08-06T10:10:41Z</time></trkpt>
<trkpt lat="27.658115" lon="99.740232">
<time>2015-08-06T10:10:42Z</time></trkpt>
<trkpt lat="27.657935" lon="99.740271">
<time>2015-08-06T10:10:43Z</time></trkpt>
<trkpt lat="27.657745" lon="99.740331">
<time>2015-08-06T10:10:44Z</time></trkpt>
<trkpt lat="27.657285" lon="99.740551">
<time>2015-08-06T10:10:45Z</time></trkpt>
<trkpt lat="27.656544" lon="99.741001">
<time>2015-08-06T10:10:46Z</time></trkpt>
<trkpt lat="27.655294" lon="99.741761">
<time>2015-08-06T10:10:47Z</time></trkpt>
<trkpt lat="27.652884" lon="99.74324">
<time>2015-08-06T10:10:48Z</time></trkpt>
<trkpt lat="27.652113" lon="99.74372">
<time>2015-08-06T10:10:49Z</time></trkpt>
<trkpt lat="27.651733" lon="99.74395">
<time>2015-08-06T10:10:50Z</time></trkpt>
<trkpt lat="27.647953" lon="99.74626">
<time>2015-08-06T10:10:51Z</time></trkpt>
<trkpt lat="27.647033" lon="99.746819">
<time>2015-08-06T10:10:52Z</time></trkpt>
<trkpt lat="27.646783" lon="99.746959">
<time>2015-08-06T10:10:53Z</time></trkpt>
<trkpt lat="27.645792" lon="99.747519">
<time>2015-08-06T10:10:54Z</time></trkpt>
<trkpt lat="27.644372" lon="99.748219">
<time>2015-08-06T10:10:55Z</time></trkpt>
<trkpt lat="27.643552" lon="99.748649">
<time>2015-08-06T10:10:56Z</time></trkpt>
<trkpt lat="27.643052" lon="99.748909">
<time>2015-08-06T10:10:57Z</time></trkpt>
<trkpt lat="27.642632" lon="99.749169">
<time>2015-08-06T10:10:58Z</time></trkpt>
<trkpt lat="27.642212" lon="99.749469">
<time>2015-08-06T10:10:59Z</time></trkpt>
<trkpt lat="27.641812" lon="99.749789">
<time>2015-08-06T10:11:00Z</time></trkpt>
<trkpt lat="27.641552" lon="99.750029">
<time>2015-08-06T10:11:01Z</time></trkpt>
<trkpt lat="27.641542" lon="99.750029">
<time>2015-08-06T10:11:02Z</time></trkpt>
<trkpt lat="27.641532" lon="99.750039">
<time>2015-08-06T10:11:03Z</time></trkpt>
<trkpt lat="27.641162" lon="99.750379">
<time>2015-08-06T10:11:04Z</time></trkpt>
<trkpt lat="27.640152" lon="99.751259">
<time>2015-08-06T10:11:05Z</time></trkpt>
<trkpt lat="27.638852" lon="99.752389">
<time>2015-08-06T10:11:06Z</time></trkpt>
<trkpt lat="27.638502" lon="99.752689">
<time>2015-08-06T10:11:07Z</time></trkpt>
<trkpt lat="27.638092" lon="99.753009">
<time>2015-08-06T10:11:08Z</time></trkpt>
<trkpt lat="27.637542" lon="99.753439">
<time>2015-08-06T10:11:09Z</time></trkpt>
<trkpt lat="27.637142" lon="99.753729">
<time>2015-08-06T10:11:10Z</time></trkpt>
<trkpt lat="27.636672" lon="99.754069">
<time>2015-08-06T10:11:11Z</time></trkpt>
<trkpt lat="27.635322" lon="99.754909">
<time>2015-08-06T10:11:12Z</time></trkpt>
<trkpt lat="27.634152" lon="99.75568">
<time>2015-08-06T10:11:13Z</time></trkpt>
<trkpt lat="27.633302" lon="99.75623">
<time>2015-08-06T10:11:14Z</time></trkpt>
<trkpt lat="27.632183" lon="99.7569">
<time>2015-08-06T10:11:15Z</time></trkpt>
<trkpt lat="27.632173" lon="99.75691">
<time>2015-08-06T10:11:16Z</time></trkpt>
<trkpt lat="27.630963" lon="99.7577">
<time>2015-08-06T10:11:17Z</time></trkpt>
<trkpt lat="27.630363" lon="99.75812">
<time>2015-08-06T10:11:18Z</time></trkpt>
<trkpt lat="27.629783" lon="99.75856">
<time>2015-08-06T10:11:19Z</time></trkpt>
<trkpt lat="27.629193" lon="99.759051">
<time>2015-08-06T10:11:20Z</time></trkpt>
<trkpt lat="27.628103" lon="99.759951">
<time>2015-08-06T10:11:21Z</time></trkpt>
<trkpt lat="27.627534" lon="99.760431">
<time>2015-08-06T10:11:22Z</time></trkpt>
<trkpt lat="27.627264" lon="99.760651">
<time>2015-08-06T10:11:23Z</time></trkpt>
<trkpt lat="27.626954" lon="99.760891">
<time>2015-08-06T10:11:24Z</time></trkpt>
<trkpt lat="27.626624" lon="99.761121">
<time>2015-08-06T10:11:25Z</time></trkpt>
<trkpt lat="27.626304" lon="99.761331">
<time>2015-08-06T10:11:26Z</time></trkpt>
<trkpt lat="27.626024" lon="99.761502">
<time>2015-08-06T10:11:27Z</time></trkpt>
<trkpt lat="27.625674" lon="99.761692">
<time>2015-08-06T10:11:28Z</time></trkpt>
<trkpt lat="27.625124" lon="99.761972">
<time>2015-08-06T10:11:29Z</time></trkpt>
<trkpt lat="27.624184" lon="99.762412">
<time>2015-08-06T10:11:30Z</time></trkpt>
<trkpt lat="27.623414" lon="99.762772">
<time>2015-08-06T10:11:31Z</time></trkpt>
<trkpt lat="27.622635" lon="99.763132">
<time>2015-08-06T10:11:32Z</time></trkpt>
<trkpt lat="27.622615" lon="99.763142">
<time>2015-08-06T10:11:33Z</time></trkpt>
<trkpt lat="27.621865" lon="99.763493">
<time>2015-08-06T10:11:34Z</time></trkpt>
<trkpt lat="27.621045" lon="99.763873">
<time>2015-08-06T10:11:35Z</time></trkpt>
<trkpt lat="27.620285" lon="99.764233">
<time>2015-08-06T10:11:36Z</time></trkpt>
<trkpt lat="27.619725" lon="99.764503">
<time>2015-08-06T10:11:37Z</time></trkpt>
<trkpt lat="27.619225" lon="99.764733">
<time>2015-08-06T10:11:38Z</time></trkpt>
<trkpt lat="27.618765" lon="99.764953">
<time>2015-08-06T10:11:39Z</time></trkpt>
<trkpt lat="27.618255" lon="99.765194">
<time>2015-08-06T10:11:40Z</time></trkpt>
<trkpt lat="27.617806" lon="99.765404">
<time>2015-08-06T10:11:41Z</time></trkpt>
<trkpt lat="27.617306" lon="99.765634">
<time>2015-08-06T10:11:42Z</time></trkpt>
<trkpt lat="27.617286" lon="99.765644">
<time>2015-08-06T10:11:43Z</time></trkpt>
<trkpt lat="27.616936" lon="99.765804">
<time>2015-08-06T10:11:44Z</time></trkpt>
<trkpt lat="27.616346" lon="99.766084">
<time>2015-08-06T10:11:45Z</time></trkpt>
<trkpt lat="27.615746" lon="99.766364">
<time>2015-08-06T10:11:46Z</time></trkpt>
<trkpt lat="27.615486" lon="99.766504">
<time>2015-08-06T10:11:47Z</time></trkpt>
<trkpt lat="27.615166" lon="99.766655">
<time>2015-08-06T10:11:48Z</time></trkpt>
<trkpt lat="27.614756" lon="99.766845">
<time>2015-08-06T10:11:49Z</time></trkpt>
<trkpt lat="27.614386" lon="99.767015">
<time>2015-08-06T10:11:50Z</time></trkpt>
<trkpt lat="27.613807" lon="99.767285">
<time>2015-08-06T10:11:51Z</time></trkpt>
<trkpt lat="27.613447" lon="99.767445">
<time>2015-08-06T10:11:52Z</time></trkpt>
<trkpt lat="27.612757" lon="99.767765">
<time>2015-08-06T10:11:53Z</time></trkpt>
<trkpt lat="27.612307" lon="99.767985">
<time>2015-08-06T10:11:54Z</time></trkpt>
<trkpt lat="27.611907" lon="99.768166">
<time>2015-08-06T10:11:55Z</time></trkpt>
<trkpt lat="27.611537" lon="99.768336">
<time>2015-08-06T10:11:56Z</time></trkpt>
<trkpt lat="27.611117" lon="99.768546">
<time>2015-08-06T10:11:57Z</time></trkpt>
<trkpt lat="27.610877" lon="99.768646">
<time>2015-08-06T10:11:58Z</time></trkpt>
<trkpt lat="27.610438" lon="99.768856">
<time>2015-08-06T10:11:59Z</time></trkpt>
<trkpt lat="27.610098" lon="99.769016">
<time>2015-08-06T10:12:00Z</time></trkpt>
<trkpt lat="27.609798" lon="99.769156">
<time>2015-08-06T10:12:01Z</time></trkpt>
<trkpt lat="27.609378" lon="99.769367">
<time>2015-08-06T10:12:02Z</time></trkpt>
<trkpt lat="27.609048" lon="99.769537">
<time>2015-08-06T10:12:03Z</time></trkpt>
<trkpt lat="27.608798" lon="99.769707">
<time>2015-08-06T10:12:04Z</time></trkpt>
<trkpt lat="27.608578" lon="99.769867">
<time>2015-08-06T10:12:05Z</time></trkpt>
<trkpt lat="27.608338" lon="99.770047">
<time>2015-08-06T10:12:06Z</time></trkpt>
<trkpt lat="27.607959" lon="99.770397">
<time>2015-08-06T10:12:07Z</time></trkpt>
<trkpt lat="27.607709" lon="99.770668">
<time>2015-08-06T10:12:08Z</time></trkpt>
<trkpt lat="27.607449" lon="99.770978">
<time>2015-08-06T10:12:09Z</time></trkpt>
<trkpt lat="27.607219" lon="99.771288">
<time>2015-08-06T10:12:10Z</time></trkpt>
<trkpt lat="27.60688" lon="99.771759">
<time>2015-08-06T10:12:11Z</time></trkpt>
<trkpt lat="27.60658" lon="99.772159">
<time>2015-08-06T10:12:12Z</time></trkpt>
<trkpt lat="27.6064" lon="99.772389">
<time>2015-08-06T10:12:13Z</time></trkpt>
<trkpt lat="27.6063" lon="99.772519">
<time>2015-08-06T10:12:14Z</time></trkpt>
<trkpt lat="27.605971" lon="99.77298">
<time>2015-08-06T10:12:15Z</time></trkpt>
<trkpt lat="27.605631" lon="99.77344">
<time>2015-08-06T10:12:16Z</time></trkpt>
<trkpt lat="27.605331" lon="99.77385">
<time>2015-08-06T10:12:17Z</time></trkpt>
<trkpt lat="27.605152" lon="99.774091">
<time>2015-08-06T10:12:18Z</time></trkpt>
<trkpt lat="27.604902" lon="99.774421">
<time>2015-08-06T10:12:19Z</time></trkpt>
<trkpt lat="27.604642" lon="99.774781">
<time>2015-08-06T10:12:20Z</time></trkpt>
<trkpt lat="27.604412" lon="99.775072">
<time>2015-08-06T10:12:21Z</time></trkpt>
<trkpt lat="27.604173" lon="99.775402">
<time>2015-08-06T10:12:22Z</time></trkpt>
<trkpt lat="27.603893" lon="99.775792">
<time>2015-08-06T10:12:23Z</time></trkpt>
<trkpt lat="27.603633" lon="99.776133">
<time>2015-08-06T10:12:24Z</time></trkpt>
<trkpt lat="27.603144" lon="99.776783">
<time>2015-08-06T10:12:25Z</time></trkpt>
<trkpt lat="27.602884" lon="99.777144">
<time>2015-08-06T10:12:26Z</time></trkpt>
<trkpt lat="27.602355" lon="99.777854">
<time>2015-08-06T10:12:27Z</time></trkpt>
<trkpt lat="27.602245" lon="99.778015">
<time>2015-08-06T10:12:28Z</time></trkpt>
<trkpt lat="27.601946" lon="99.778445">
<time>2015-08-06T10:12:29Z</time></trkpt>
<trkpt lat="27.601766" lon="99.778765">
<time>2015-08-06T10:12:30Z</time></trkpt>
<trkpt lat="27.601606" lon="99.779086">
<time>2015-08-06T10:12:31Z</time></trkpt>
<trkpt lat="27.601497" lon="99.779376">
<time>2015-08-06T10:12:32Z</time></trkpt>
<trkpt lat="27.601387" lon="99.779757">
<time>2015-08-06T10:12:33Z</time></trkpt>
<trkpt lat="27.601347" lon="99.779937">
<time>2015-08-06T10:12:34Z</time></trkpt>
<trkpt lat="27.601307" lon="99.780127">
<time>2015-08-06T10:12:35Z</time></trkpt>
<trkpt lat="27.601278" lon="99.780337">
<time>2015-08-06T10:12:36Z</time></trkpt>
<trkpt lat="27.601268" lon="99.780548">
<time>2015-08-06T10:12:37Z</time></trkpt>
<trkpt lat="27.601259" lon="99.781429">
<time>2015-08-06T10:12:38Z</time></trkpt>
<trkpt lat="27.60129" lon="99.78225">
<time>2015-08-06T10:12:39Z</time></trkpt>
<trkpt lat="27.601321" lon="99.783201">
<time>2015-08-06T10:12:40Z</time></trkpt>
<trkpt lat="27.601332" lon="99.783802">
<time>2015-08-06T10:12:41Z</time></trkpt>
<trkpt lat="27.601322" lon="99.784132">
<time>2015-08-06T10:12:42Z</time></trkpt>
<trkpt lat="27.601273" lon="99.784583">
<time>2015-08-06T10:12:43Z</time></trkpt>
<trkpt lat="27.601183" lon="99.784973">
<time>2015-08-06T10:12:44Z</time></trkpt>
<trkpt lat="27.601064" lon="99.785354">
<time>2015-08-06T10:12:45Z</time></trkpt>
<trkpt lat="27.600964" lon="99.785614">
<time>2015-08-06T10:12:46Z</time></trkpt>
<trkpt lat="27.600914" lon="99.785724">
<time>2015-08-06T10:12:47Z</time></trkpt>
<trkpt lat="27.600884" lon="99.785774">
<time>2015-08-06T10:12:48Z</time></trkpt>
<trkpt lat="27.600824" lon="99.785884">
<time>2015-08-06T10:12:49Z</time></trkpt>
<trkpt lat="27.600665" lon="99.786145">
<time>2015-08-06T10:12:50Z</time></trkpt>
<trkpt lat="27.600475" lon="99.786435">
<time>2015-08-06T10:12:51Z</time></trkpt>
<trkpt lat="27.600285" lon="99.786675">
<time>2015-08-06T10:12:52Z</time></trkpt>
<trkpt lat="27.600036" lon="99.786936">
<time>2015-08-06T10:12:53Z</time></trkpt>
<trkpt lat="27.599856" lon="99.787086">
<time>2015-08-06T10:12:54Z</time></trkpt>
<trkpt lat="27.599656" lon="99.787246">
<time>2015-08-06T10:12:55Z</time></trkpt>
<trkpt lat="27.599406" lon="99.787406">
<time>2015-08-06T10:12:56Z</time></trkpt>
<trkpt lat="27.599106" lon="99.787567">
<time>2015-08-06T10:12:57Z</time></trkpt>
<trkpt lat="27.598926" lon="99.787647">
<time>2015-08-06T10:12:58Z</time></trkpt>
<trkpt lat="27.598707" lon="99.787727">
<time>2015-08-06T10:12:59Z</time></trkpt>
<trkpt lat="27.598517" lon="99.787787">
<time>2015-08-06T10:13:00Z</time></trkpt>
<trkpt lat="27.598217" lon="99.787857">
<time>2015-08-06T10:13:01Z</time></trkpt>
<trkpt lat="27.597737" lon="99.787957">
<time>2015-08-06T10:13:02Z</time></trkpt>
<trkpt lat="27.596987" lon="99.788117">
<time>2015-08-06T10:13:03Z</time></trkpt>
<trkpt lat="27.596687" lon="99.788188">
<time>2015-08-06T10:13:04Z</time></trkpt>
<trkpt lat="27.596247" lon="99.788268">
<time>2015-08-06T10:13:05Z</time></trkpt>
<trkpt lat="27.595667" lon="99.788388">
<time>2015-08-06T10:13:06Z</time></trkpt>
<trkpt lat="27.595387" lon="99.788448">
<time>2015-08-06T10:13:07Z</time></trkpt>
<trkpt lat="27.594848" lon="99.788558">
<time>2015-08-06T10:13:08Z</time></trkpt>
<trkpt lat="27.594378" lon="99.788658">
<time>2015-08-06T10:13:09Z</time></trkpt>
<trkpt lat="27.593828" lon="99.788768">
<time>2015-08-06T10:13:10Z</time></trkpt>
<trkpt lat="27.593328" lon="99.788869">
<time>2015-08-06T10:13:11Z</time></trkpt>
<trkpt lat="27.592788" lon="99.788979">
<time>2015-08-06T10:13:12Z</time></trkpt>
<trkpt lat="27.592298" lon="99.789079">
<time>2015-08-06T10:13:13Z</time></trkpt>
<trkpt lat="27.591218" lon="99.789279">
<time>2015-08-06T10:13:14Z</time></trkpt>
<trkpt lat="27.590849" lon="99.78945">
<time>2015-08-06T10:13:15Z</time></trkpt>
<trkpt lat="27.590519" lon="99.78959">
<time>2015-08-06T10:13:16Z</time></trkpt>
<trkpt lat="27.590309" lon="99.78967">
<time>2015-08-06T10:13:17Z</time></trkpt>
<trkpt lat="27.589999" lon="99.78984">
<time>2015-08-06T10:13:18Z</time></trkpt>
<trkpt lat="27.58951" lon="99.790121">
<time>2015-08-06T10:13:19Z</time></trkpt>
<trkpt lat="27.58909" lon="99.790381">
<time>2015-08-06T10:13:20Z</time></trkpt>
<trkpt lat="27.58861" lon="99.790691">
<time>2015-08-06T10:13:21Z</time></trkpt>
<trkpt lat="27.588161" lon="99.790982">
<time>2015-08-06T10:13:22Z</time></trkpt>
<trkpt lat="27.587831" lon="99.791182">
<time>2015-08-06T10:13:23Z</time></trkpt>
<trkpt lat="27.587291" lon="99.791533">
<time>2015-08-06T10:13:24Z</time></trkpt>
<trkpt lat="27.586902" lon="99.791773">
<time>2015-08-06T10:13:25Z</time></trkpt>
<trkpt lat="27.586382" lon="99.792003">
<time>2015-08-06T10:13:26Z</time></trkpt>
<trkpt lat="27.586002" lon="99.792144">
<time>2015-08-06T10:13:27Z</time></trkpt>
<trkpt lat="27.585582" lon="99.792234">
<time>2015-08-06T10:13:28Z</time></trkpt>
<trkpt lat="27.585132" lon="99.792304">
<time>2015-08-06T10:13:29Z</time></trkpt>
<trkpt lat="27.584683" lon="99.792334">
<time>2015-08-06T10:13:30Z</time></trkpt>
<trkpt lat="27.584022" lon="99.792274">
<time>2015-08-06T10:13:31Z</time></trkpt>
<trkpt lat="27.583512" lon="99.792204">
<time>2015-08-06T10:13:32Z</time></trkpt>
<trkpt lat="27.583362" lon="99.792184">
<time>2015-08-06T10:13:33Z</time></trkpt>
<trkpt lat="27.583332" lon="99.792184">
<time>2015-08-06T10:13:34Z</time></trkpt>
<trkpt lat="27.583052" lon="99.792154">
<time>2015-08-06T10:13:35Z</time></trkpt>
<trkpt lat="27.582712" lon="99.792134">
<time>2015-08-06T10:13:36Z</time></trkpt>
<trkpt lat="27.582452" lon="99.792134">
<time>2015-08-06T10:13:37Z</time></trkpt>
<trkpt lat="27.582112" lon="99.792164">
<time>2015-08-06T10:13:38Z</time></trkpt>
<trkpt lat="27.581842" lon="99.792194">
<time>2015-08-06T10:13:39Z</time></trkpt>
<trkpt lat="27.581382" lon="99.792304">
<time>2015-08-06T10:13:40Z</time></trkpt>
<trkpt lat="27.581063" lon="99.792414">
<time>2015-08-06T10:13:41Z</time></trkpt>
<trkpt lat="27.580553" lon="99.792645">
<time>2015-08-06T10:13:42Z</time></trkpt>
<trkpt lat="27.580273" lon="99.792815">
<time>2015-08-06T10:13:43Z</time></trkpt>
<trkpt lat="27.580023" lon="99.792995">
<time>2015-08-06T10:13:44Z</time></trkpt>
<trkpt lat="27.579754" lon="99.793216">
<time>2015-08-06T10:13:45Z</time></trkpt>
<trkpt lat="27.579504" lon="99.793456">
<time>2015-08-06T10:13:46Z</time></trkpt>
<trkpt lat="27.579244" lon="99.793746">
<time>2015-08-06T10:13:47Z</time></trkpt>
<trkpt lat="27.578925" lon="99.794177">
<time>2015-08-06T10:13:48Z</time></trkpt>
<trkpt lat="27.578636" lon="99.794678">
<time>2015-08-06T10:13:49Z</time></trkpt>
<trkpt lat="27.578317" lon="99.795359">
<time>2015-08-06T10:13:50Z</time></trkpt>
<trkpt lat="27.578217" lon="99.795579">
<time>2015-08-06T10:13:51Z</time></trkpt>
<trkpt lat="27.578127" lon="99.79576">
<time>2015-08-06T10:13:52Z</time></trkpt>
<trkpt lat="27.577928" lon="99.79615">
<time>2015-08-06T10:13:53Z</time></trkpt>
<trkpt lat="27.577748" lon="99.796461">
<time>2015-08-06T10:13:54Z</time></trkpt>
<trkpt lat="27.577519" lon="99.796771">
<time>2015-08-06T10:13:55Z</time></trkpt>
<trkpt lat="27.57721" lon="99.797122">
<time>2015-08-06T10:13:56Z</time></trkpt>
<trkpt lat="27.57693" lon="99.797362">
<time>2015-08-06T10:13:57Z</time></trkpt>
<trkpt lat="27.57666" lon="99.797573">
<time>2015-08-06T10:13:58Z</time></trkpt>
<trkpt lat="27.5764" lon="99.797753">
<time>2015-08-06T10:13:59Z</time></trkpt>
<trkpt lat="27.576161" lon="99.797913">
<time>2015-08-06T10:14:00Z</time></trkpt>
<trkpt lat="27.575911" lon="99.798094">
<time>2015-08-06T10:14:01Z</time></trkpt>
<trkpt lat="27.575611" lon="99.798294">
<time>2015-08-06T10:14:02Z</time></trkpt>
<trkpt lat="27.575422" lon="99.798424">
<time>2015-08-06T10:14:03Z</time></trkpt>
<trkpt lat="27.575082" lon="99.798655">
<time>2015-08-06T10:14:04Z</time></trkpt>
<trkpt lat="27.574842" lon="99.798825">
<time>2015-08-06T10:14:05Z</time></trkpt>
<trkpt lat="27.574612" lon="99.798995">
<time>2015-08-06T10:14:06Z</time></trkpt>
<trkpt lat="27.574353" lon="99.799226">
<time>2015-08-06T10:14:07Z</time></trkpt>
<trkpt lat="27.574083" lon="99.799486">
<time>2015-08-06T10:14:08Z</time></trkpt>
<trkpt lat="27.573804" lon="99.799837">
<time>2015-08-06T10:14:09Z</time></trkpt>
<trkpt lat="27.573754" lon="99.799917">
<time>2015-08-06T10:14:10Z</time></trkpt>
<trkpt lat="27.573654" lon="99.800077">
<time>2015-08-06T10:14:11Z</time></trkpt>
<trkpt lat="27.573624" lon="99.800137">
<time>2015-08-06T10:14:12Z</time></trkpt>
<trkpt lat="27.573515" lon="99.800338">
<time>2015-08-06T10:14:13Z</time></trkpt>
<trkpt lat="27.573415" lon="99.800548">
<time>2015-08-06T10:14:14Z</time></trkpt>
<trkpt lat="27.573305" lon="99.800818">
<time>2015-08-06T10:14:15Z</time></trkpt>
<trkpt lat="27.573136" lon="99.801269">
<time>2015-08-06T10:14:16Z</time></trkpt>
<trkpt lat="27.573007" lon="99.80164">
<time>2015-08-06T10:14:17Z</time></trkpt>
<trkpt lat="27.572827" lon="99.802131">
<time>2015-08-06T10:14:18Z</time></trkpt>
<trkpt lat="27.572728" lon="99.802391">
<time>2015-08-06T10:14:19Z</time></trkpt>
<trkpt lat="27.572558" lon="99.802732">
<time>2015-08-06T10:14:20Z</time></trkpt>
<trkpt lat="27.572409" lon="99.802962">
<time>2015-08-06T10:14:21Z</time></trkpt>
<trkpt lat="27.572359" lon="99.803032">
<time>2015-08-06T10:14:22Z</time></trkpt>
<trkpt lat="27.572219" lon="99.803233">
<time>2015-08-06T10:14:23Z</time></trkpt>
<trkpt lat="27.57204" lon="99.803443">
<time>2015-08-06T10:14:24Z</time></trkpt>
<trkpt lat="27.57177" lon="99.803724">
<time>2015-08-06T10:14:25Z</time></trkpt>
<trkpt lat="27.57152" lon="99.803934">
<time>2015-08-06T10:14:26Z</time></trkpt>
<trkpt lat="27.571261" lon="99.804114">
<time>2015-08-06T10:14:27Z</time></trkpt>
<trkpt lat="27.571001" lon="99.804275">
<time>2015-08-06T10:14:28Z</time></trkpt>
<trkpt lat="27.570651" lon="99.804435">
<time>2015-08-06T10:14:29Z</time></trkpt>
<trkpt lat="27.570391" lon="99.804525">
<time>2015-08-06T10:14:30Z</time></trkpt>
<trkpt lat="27.569892" lon="99.804716">
<time>2015-08-06T10:14:31Z</time></trkpt>
<trkpt lat="27.569812" lon="99.804746">
<time>2015-08-06T10:14:32Z</time></trkpt>
<trkpt lat="27.569602" lon="99.804816">
<time>2015-08-06T10:14:33Z</time></trkpt>
<trkpt lat="27.569082" lon="99.805006">
<time>2015-08-06T10:14:34Z</time></trkpt>
<trkpt lat="27.568303" lon="99.805287">
<time>2015-08-06T10:14:35Z</time></trkpt>
<trkpt lat="27.567783" lon="99.805497">
<time>2015-08-06T10:14:36Z</time></trkpt>
<trkpt lat="27.567313" lon="99.805727">
<time>2015-08-06T10:14:37Z</time></trkpt>
<trkpt lat="27.566954" lon="99.805928">
<time>2015-08-06T10:14:38Z</time></trkpt>
<trkpt lat="27.566734" lon="99.806078">
<time>2015-08-06T10:14:39Z</time></trkpt>
<trkpt lat="27.566394" lon="99.806329">
<time>2015-08-06T10:14:40Z</time></trkpt>
<trkpt lat="27.566215" lon="99.806469">
<time>2015-08-06T10:14:41Z</time></trkpt>
<trkpt lat="27.565995" lon="99.806659">
<time>2015-08-06T10:14:42Z</time></trkpt>
<trkpt lat="27.565945" lon="99.806699">
<time>2015-08-06T10:14:43Z</time></trkpt>
<trkpt lat="27.565765" lon="99.80686">
<time>2015-08-06T10:14:44Z</time></trkpt>
<trkpt lat="27.565446" lon="99.80719">
<time>2015-08-06T10:14:45Z</time></trkpt>
<trkpt lat="27.565196" lon="99.807471">
<time>2015-08-06T10:14:46Z</time></trkpt>
<trkpt lat="27.564997" lon="99.807701">
<time>2015-08-06T10:14:47Z</time></trkpt>
<trkpt lat="27.564458" lon="99.808322">
<time>2015-08-06T10:14:48Z</time></trkpt>
<trkpt lat="27.564208" lon="99.808623">
<time>2015-08-06T10:14:49Z</time></trkpt>
<trkpt lat="27.563989" lon="99.808884">
<time>2015-08-06T10:14:50Z</time></trkpt>
<trkpt lat="27.563749" lon="99.809164">
<time>2015-08-06T10:14:51Z</time></trkpt>
<trkpt lat="27.56344" lon="99.809525">
<time>2015-08-06T10:14:52Z</time></trkpt>
<trkpt lat="27.56327" lon="99.809725">
<time>2015-08-06T10:14:53Z</time></trkpt>
<trkpt lat="27.563111" lon="99.809906">
<time>2015-08-06T10:14:54Z</time></trkpt>
<trkpt lat="27.562841" lon="99.810206">
<time>2015-08-06T10:14:55Z</time></trkpt>
<trkpt lat="27.562572" lon="99.810517">
<time>2015-08-06T10:14:56Z</time></trkpt>
<trkpt lat="27.562103" lon="99.811068">
<time>2015-08-06T10:14:57Z</time></trkpt>
<trkpt lat="27.561823" lon="99.811388">
<time>2015-08-06T10:14:58Z</time></trkpt>
<trkpt lat="27.561534" lon="99.811709">
<time>2015-08-06T10:14:59Z</time></trkpt>
<trkpt lat="27.561075" lon="99.81225">
<time>2015-08-06T10:15:00Z</time></trkpt>
<trkpt lat="27.560506" lon="99.812921">
<time>2015-08-06T10:15:01Z</time></trkpt>
<trkpt lat="27.560017" lon="99.813473">
<time>2015-08-06T10:15:02Z</time></trkpt>
<trkpt lat="27.559788" lon="99.813743">
<time>2015-08-06T10:15:03Z</time></trkpt>
<trkpt lat="27.559508" lon="99.814054">
<time>2015-08-06T10:15:04Z</time></trkpt>
<trkpt lat="27.559288" lon="99.814264">
<time>2015-08-06T10:15:05Z</time></trkpt>
<trkpt lat="27.559029" lon="99.814495">
<time>2015-08-06T10:15:06Z</time></trkpt>
<trkpt lat="27.558659" lon="99.814755">
<time>2015-08-06T10:15:07Z</time></trkpt>
<trkpt lat="27.558569" lon="99.814815">
<time>2015-08-06T10:15:08Z</time></trkpt>
<trkpt lat="27.55845" lon="99.814885">
<time>2015-08-06T10:15:09Z</time></trkpt>
<trkpt lat="27.5581" lon="99.815076">
<time>2015-08-06T10:15:10Z</time></trkpt>
<trkpt lat="27.5579" lon="99.815156">
<time>2015-08-06T10:15:11Z</time></trkpt>
<trkpt lat="27.55754" lon="99.815286">
<time>2015-08-06T10:15:12Z</time></trkpt>
<trkpt lat="27.55737" lon="99.815336">
<time>2015-08-06T10:15:13Z</time></trkpt>
<trkpt lat="27.557181" lon="99.815397">
<time>2015-08-06T10:15:14Z</time></trkpt>
<trkpt lat="27.557131" lon="99.815417">
<time>2015-08-06T10:15:15Z</time></trkpt>
<trkpt lat="27.556601" lon="99.815587">
<time>2015-08-06T10:15:16Z</time></trkpt>
<trkpt lat="27.556111" lon="99.815737">
<time>2015-08-06T10:15:17Z</time></trkpt>
<trkpt lat="27.555551" lon="99.815898">
<time>2015-08-06T10:15:18Z</time></trkpt>
<trkpt lat="27.554782" lon="99.816138">
<time>2015-08-06T10:15:19Z</time></trkpt>
<trkpt lat="27.554422" lon="99.816258">
<time>2015-08-06T10:15:20Z</time></trkpt>
<trkpt lat="27.554032" lon="99.816429">
<time>2015-08-06T10:15:21Z</time></trkpt>
<trkpt lat="27.553813" lon="99.816539">
<time>2015-08-06T10:15:22Z</time></trkpt>
<trkpt lat="27.553523" lon="99.816679">
<time>2015-08-06T10:15:23Z</time></trkpt>
<trkpt lat="27.553223" lon="99.81686">
<time>2015-08-06T10:15:24Z</time></trkpt>
<trkpt lat="27.552764" lon="99.81713">
<time>2015-08-06T10:15:25Z</time></trkpt>
<trkpt lat="27.552144" lon="99.817511">
<time>2015-08-06T10:15:26Z</time></trkpt>
<trkpt lat="27.552005" lon="99.817591">
<time>2015-08-06T10:15:27Z</time></trkpt>
<trkpt lat="27.551405" lon="99.817942">
<time>2015-08-06T10:15:28Z</time></trkpt>
<trkpt lat="27.550676" lon="99.818363">
<time>2015-08-06T10:15:29Z</time></trkpt>
<trkpt lat="27.549907" lon="99.818824">
<time>2015-08-06T10:15:30Z</time></trkpt>
<trkpt lat="27.549477" lon="99.819054">
<time>2015-08-06T10:15:31Z</time></trkpt>
<trkpt lat="27.549168" lon="99.819194">
<time>2015-08-06T10:15:32Z</time></trkpt>
<trkpt lat="27.548848" lon="99.819325">
<time>2015-08-06T10:15:33Z</time></trkpt>
<trkpt lat="27.548548" lon="99.819425">
<time>2015-08-06T10:15:34Z</time></trkpt>
<trkpt lat="27.548008" lon="99.819615">
<time>2015-08-06T10:15:35Z</time></trkpt>
<trkpt lat="27.547239" lon="99.819876">
<time>2015-08-06T10:15:36Z</time></trkpt>
<trkpt lat="27.546499" lon="99.820116">
<time>2015-08-06T10:15:37Z</time></trkpt>
<trkpt lat="27.546449" lon="99.820136">
<time>2015-08-06T10:15:38Z</time></trkpt>
<trkpt lat="27.54567" lon="99.820417">
<time>2015-08-06T10:15:39Z</time></trkpt>
<trkpt lat="27.54539" lon="99.820527">
<time>2015-08-06T10:15:40Z</time></trkpt>
<trkpt lat="27.54521" lon="99.820587">
<time>2015-08-06T10:15:41Z</time></trkpt>
<trkpt lat="27.544731" lon="99.820828">
<time>2015-08-06T10:15:42Z</time></trkpt>
<trkpt lat="27.544221" lon="99.821128">
<time>2015-08-06T10:15:43Z</time></trkpt>
<trkpt lat="27.543872" lon="99.821369">
<time>2015-08-06T10:15:44Z</time></trkpt>
<trkpt lat="27.543332" lon="99.82173">
<time>2015-08-06T10:15:45Z</time></trkpt>
<trkpt lat="27.542803" lon="99.822091">
<time>2015-08-06T10:15:46Z</time></trkpt>
<trkpt lat="27.542274" lon="99.822451">
<time>2015-08-06T10:15:47Z</time></trkpt>
<trkpt lat="27.541784" lon="99.822782">
<time>2015-08-06T10:15:48Z</time></trkpt>
<trkpt lat="27.541445" lon="99.823022">
<time>2015-08-06T10:15:49Z</time></trkpt>
<trkpt lat="27.541145" lon="99.823213">
<time>2015-08-06T10:15:50Z</time></trkpt>
<trkpt lat="27.540895" lon="99.823393">
<time>2015-08-06T10:15:51Z</time></trkpt>
<trkpt lat="27.540576" lon="99.823614">
<time>2015-08-06T10:15:52Z</time></trkpt>
<trkpt lat="27.540566" lon="99.823614">
<time>2015-08-06T10:15:53Z</time></trkpt>
<trkpt lat="27.540037" lon="99.823974">
<time>2015-08-06T10:15:54Z</time></trkpt>
<trkpt lat="27.539507" lon="99.824335">
<time>2015-08-06T10:15:55Z</time></trkpt>
<trkpt lat="27.538978" lon="99.824706">
<time>2015-08-06T10:15:56Z</time></trkpt>
<trkpt lat="27.538439" lon="99.825107">
<time>2015-08-06T10:15:57Z</time></trkpt>
<trkpt lat="27.538089" lon="99.825387">
<time>2015-08-06T10:15:58Z</time></trkpt>
<trkpt lat="27.53779" lon="99.825628">
<time>2015-08-06T10:15:59Z</time></trkpt>
<trkpt lat="27.53748" lon="99.825889">
<time>2015-08-06T10:16:00Z</time></trkpt>
<trkpt lat="27.537241" lon="99.826099">
<time>2015-08-06T10:16:01Z</time></trkpt>
<trkpt lat="27.536941" lon="99.826339">
<time>2015-08-06T10:16:02Z</time></trkpt>
<trkpt lat="27.536192" lon="99.826991">
<time>2015-08-06T10:16:03Z</time></trkpt>
<trkpt lat="27.535823" lon="99.827251">
<time>2015-08-06T10:16:04Z</time></trkpt>
<trkpt lat="27.535284" lon="99.827612">
<time>2015-08-06T10:16:05Z</time></trkpt>
<trkpt lat="27.535214" lon="99.827652">
<time>2015-08-06T10:16:06Z</time></trkpt>
<trkpt lat="27.535214" lon="99.827652">
<time>2015-08-06T10:16:07Z</time></trkpt>
<trkpt lat="27.535184" lon="99.827682">
<time>2015-08-06T10:16:08Z</time></trkpt>
<trkpt lat="27.535134" lon="99.827712">
<time>2015-08-06T10:16:09Z</time></trkpt>
<trkpt lat="27.535084" lon="99.827732">
<time>2015-08-06T10:16:10Z</time></trkpt>
<trkpt lat="27.535044" lon="99.827742">
<time>2015-08-06T10:16:11Z</time></trkpt>
<trkpt lat="27.534784" lon="99.827883">
<time>2015-08-06T10:16:12Z</time></trkpt>
<trkpt lat="27.534554" lon="99.827973">
<time>2015-08-06T10:16:13Z</time></trkpt>
<trkpt lat="27.534554" lon="99.827973">
<time>2015-08-06T10:16:14Z</time></trkpt>
<trkpt lat="27.534554" lon="99.828063">
<time>2015-08-06T10:16:15Z</time></trkpt>
<trkpt lat="27.534535" lon="99.828173">
<time>2015-08-06T10:16:16Z</time></trkpt>
<trkpt lat="27.534485" lon="99.828284">
<time>2015-08-06T10:16:17Z</time></trkpt>
<trkpt lat="27.534435" lon="99.828454">
<time>2015-08-06T10:16:18Z</time></trkpt>
<trkpt lat="27.534355" lon="99.828594">
<time>2015-08-06T10:16:19Z</time></trkpt>
<trkpt lat="27.534116" lon="99.828765">
<time>2015-08-06T10:16:20Z</time></trkpt>
<trkpt lat="27.533846" lon="99.829025">
<time>2015-08-06T10:16:21Z</time></trkpt>
<trkpt lat="27.533377" lon="99.829486">
<time>2015-08-06T10:16:22Z</time></trkpt>
<trkpt lat="27.532689" lon="99.830328">
<time>2015-08-06T10:16:23Z</time></trkpt>
<trkpt lat="27.53212" lon="99.830959">
<time>2015-08-06T10:16:24Z</time></trkpt>
<trkpt lat="27.53188" lon="99.83115">
<time>2015-08-06T10:16:25Z</time></trkpt>
<trkpt lat="27.53163" lon="99.83128">
<time>2015-08-06T10:16:26Z</time></trkpt>
<trkpt lat="27.531161" lon="99.83146">
<time>2015-08-06T10:16:27Z</time></trkpt>
<trkpt lat="27.529712" lon="99.831941">
<time>2015-08-06T10:16:28Z</time></trkpt>
<trkpt lat="27.529372" lon="99.832031">
<time>2015-08-06T10:16:29Z</time></trkpt>
<trkpt lat="27.529062" lon="99.832132">
<time>2015-08-06T10:16:30Z</time></trkpt>
<trkpt lat="27.528752" lon="99.832232">
<time>2015-08-06T10:16:31Z</time></trkpt>
<trkpt lat="27.528443" lon="99.832332">
<time>2015-08-06T10:16:32Z</time></trkpt>
<trkpt lat="27.528143" lon="99.832422">
<time>2015-08-06T10:16:33Z</time></trkpt>
<trkpt lat="27.527833" lon="99.832523">
<time>2015-08-06T10:16:34Z</time></trkpt>
<trkpt lat="27.527533" lon="99.832663">
<time>2015-08-06T10:16:35Z</time></trkpt>
<trkpt lat="27.527243" lon="99.832753">
<time>2015-08-06T10:16:36Z</time></trkpt>
<trkpt lat="27.526974" lon="99.832863">
<time>2015-08-06T10:16:37Z</time></trkpt>
<trkpt lat="27.526724" lon="99.832994">
<time>2015-08-06T10:16:38Z</time></trkpt>
<trkpt lat="27.526484" lon="99.833144">
<time>2015-08-06T10:16:39Z</time></trkpt>
<trkpt lat="27.526264" lon="99.833314">
<time>2015-08-06T10:16:40Z</time></trkpt>
<trkpt lat="27.526085" lon="99.833495">
<time>2015-08-06T10:16:41Z</time></trkpt>
<trkpt lat="27.525955" lon="99.833705">
<time>2015-08-06T10:16:42Z</time></trkpt>
<trkpt lat="27.525836" lon="99.833935">
<time>2015-08-06T10:16:43Z</time></trkpt>
<trkpt lat="27.525696" lon="99.834146">
<time>2015-08-06T10:16:44Z</time></trkpt>
<trkpt lat="27.525506" lon="99.834276">
<time>2015-08-06T10:16:45Z</time></trkpt>
<trkpt lat="27.525286" lon="99.834366">
<time>2015-08-06T10:16:46Z</time></trkpt>
<trkpt lat="27.525037" lon="99.834437">
<time>2015-08-06T10:16:47Z</time></trkpt>
<trkpt lat="27.524767" lon="99.834447">
<time>2015-08-06T10:16:48Z</time></trkpt>
<trkpt lat="27.524497" lon="99.834467">
<time>2015-08-06T10:16:49Z</time></trkpt>
<trkpt lat="27.524207" lon="99.834497">
<time>2015-08-06T10:16:50Z</time></trkpt>
<trkpt lat="27.523927" lon="99.834557">
<time>2015-08-06T10:16:51Z</time></trkpt>
<trkpt lat="27.523667" lon="99.834617">
<time>2015-08-06T10:16:52Z</time></trkpt>
<trkpt lat="27.523427" lon="99.834677">
<time>2015-08-06T10:16:53Z</time></trkpt>
<trkpt lat="27.523207" lon="99.834787">
<time>2015-08-06T10:16:54Z</time></trkpt>
<trkpt lat="27.523018" lon="99.834938">
<time>2015-08-06T10:16:55Z</time></trkpt>
<trkpt lat="27.522838" lon="99.835118">
<time>2015-08-06T10:16:56Z</time></trkpt>
<trkpt lat="27.522708" lon="99.835308">
<time>2015-08-06T10:16:57Z</time></trkpt>
<trkpt lat="27.522539" lon="99.835529">
<time>2015-08-06T10:16:58Z</time></trkpt>
<trkpt lat="27.522339" lon="99.835649">
<time>2015-08-06T10:16:59Z</time></trkpt>
<trkpt lat="27.522079" lon="99.835689">
<time>2015-08-06T10:17:00Z</time></trkpt>
<trkpt lat="27.521809" lon="99.835769">
<time>2015-08-06T10:17:01Z</time></trkpt>
<trkpt lat="27.521539" lon="99.835809">
<time>2015-08-06T10:17:02Z</time></trkpt>
<trkpt lat="27.521289" lon="99.83585">
<time>2015-08-06T10:17:03Z</time></trkpt>
<trkpt lat="27.521029" lon="99.83587">
<time>2015-08-06T10:17:04Z</time></trkpt>
<trkpt lat="27.520799" lon="99.83586">
<time>2015-08-06T10:17:05Z</time></trkpt>
<trkpt lat="27.520569" lon="99.835809">
<time>2015-08-06T10:17:06Z</time></trkpt>
<trkpt lat="27.520369" lon="99.835739">
<time>2015-08-06T10:17:07Z</time></trkpt>
<trkpt lat="27.520209" lon="99.835709">
<time>2015-08-06T10:17:08Z</time></trkpt>
<trkpt lat="27.520059" lon="99.835769">
<time>2015-08-06T10:17:09Z</time></trkpt>
<trkpt lat="27.519969" lon="99.83592">
<time>2015-08-06T10:17:10Z</time></trkpt>
<trkpt lat="27.51996" lon="99.83613">
<time>2015-08-06T10:17:11Z</time></trkpt>
<trkpt lat="27.52001" lon="99.836361">
<time>2015-08-06T10:17:12Z</time></trkpt>
<trkpt lat="27.520061" lon="99.836601">
<time>2015-08-06T10:17:13Z</time></trkpt>
<trkpt lat="27.520151" lon="99.836812">
<time>2015-08-06T10:17:14Z</time></trkpt>
<trkpt lat="27.520271" lon="99.836992">
<time>2015-08-06T10:17:15Z</time></trkpt>
<trkpt lat="27.520412" lon="99.837172">
<time>2015-08-06T10:17:16Z</time></trkpt>
<trkpt lat="27.520552" lon="99.837343">
<time>2015-08-06T10:17:17Z</time></trkpt>
<trkpt lat="27.520702" lon="99.837523">
<time>2015-08-06T10:17:18Z</time></trkpt>
<trkpt lat="27.520843" lon="99.837713">
<time>2015-08-06T10:17:19Z</time></trkpt>
<trkpt lat="27.520963" lon="99.837914">
<time>2015-08-06T10:17:20Z</time></trkpt>
<trkpt lat="27.521073" lon="99.838144">
<time>2015-08-06T10:17:21Z</time></trkpt>
<trkpt lat="27.521154" lon="99.838385">
<time>2015-08-06T10:17:22Z</time></trkpt>
<trkpt lat="27.521194" lon="99.838645">
<time>2015-08-06T10:17:23Z</time></trkpt>
<trkpt lat="27.521185" lon="99.838906">
<time>2015-08-06T10:17:24Z</time></trkpt>
<trkpt lat="27.521175" lon="99.839166">
<time>2015-08-06T10:17:25Z</time></trkpt>
<trkpt lat="27.521206" lon="99.839437">
<time>2015-08-06T10:17:26Z</time></trkpt>
<trkpt lat="27.521286" lon="99.839697">
<time>2015-08-06T10:17:27Z</time></trkpt>
<trkpt lat="27.521397" lon="99.839948">
<time>2015-08-06T10:17:28Z</time></trkpt>
<trkpt lat="27.521487" lon="99.840188">
<time>2015-08-06T10:17:29Z</time></trkpt>
<trkpt lat="27.521568" lon="99.840439">
<time>2015-08-06T10:17:30Z</time></trkpt>
<trkpt lat="27.521618" lon="99.840689">
<time>2015-08-06T10:17:31Z</time></trkpt>
<trkpt lat="27.521659" lon="99.84094">
<time>2015-08-06T10:17:32Z</time></trkpt>
<trkpt lat="27.521679" lon="99.84119">
<time>2015-08-06T10:17:33Z</time></trkpt>
<trkpt lat="27.521699" lon="99.841431">
<time>2015-08-06T10:17:34Z</time></trkpt>
<trkpt lat="27.52172" lon="99.841661">
<time>2015-08-06T10:17:35Z</time></trkpt>
<trkpt lat="27.52178" lon="99.841992">
<time>2015-08-06T10:17:36Z</time></trkpt>
<trkpt lat="27.521921" lon="99.842242">
<time>2015-08-06T10:17:37Z</time></trkpt>
<trkpt lat="27.522081" lon="99.842473">
<time>2015-08-06T10:17:38Z</time></trkpt>
<trkpt lat="27.522242" lon="99.842673">
<time>2015-08-06T10:17:39Z</time></trkpt>
<trkpt lat="27.522302" lon="99.842914">
<time>2015-08-06T10:17:40Z</time></trkpt>
<trkpt lat="27.522313" lon="99.843134">
<time>2015-08-06T10:17:41Z</time></trkpt>
<trkpt lat="27.522263" lon="99.843415">
<time>2015-08-06T10:17:42Z</time></trkpt>
<trkpt lat="27.522174" lon="99.843695">
<time>2015-08-06T10:17:43Z</time></trkpt>
<trkpt lat="27.522074" lon="99.843976">
<time>2015-08-06T10:17:44Z</time></trkpt>
<trkpt lat="27.522005" lon="99.844297">
<time>2015-08-06T10:17:45Z</time></trkpt>
<trkpt lat="27.521985" lon="99.844327">
<time>2015-08-06T10:17:46Z</time></trkpt>
<trkpt lat="27.521885" lon="99.844567">
<time>2015-08-06T10:17:47Z</time></trkpt>
<trkpt lat="27.521786" lon="99.844858">
<time>2015-08-06T10:17:48Z</time></trkpt>
<trkpt lat="27.521686" lon="99.845148">
<time>2015-08-06T10:17:49Z</time></trkpt>
<trkpt lat="27.521567" lon="99.845399">
<time>2015-08-06T10:17:50Z</time></trkpt>
<trkpt lat="27.521447" lon="99.845629">
<time>2015-08-06T10:17:51Z</time></trkpt>
<trkpt lat="27.521327" lon="99.84585">
<time>2015-08-06T10:17:52Z</time></trkpt>
<trkpt lat="27.521208" lon="99.84607">
<time>2015-08-06T10:17:53Z</time></trkpt>
<trkpt lat="27.521098" lon="99.84629">
<time>2015-08-06T10:17:54Z</time></trkpt>
<trkpt lat="27.520998" lon="99.846501">
<time>2015-08-06T10:17:55Z</time></trkpt>
<trkpt lat="27.520919" lon="99.846731">
<time>2015-08-06T10:17:56Z</time></trkpt>
<trkpt lat="27.520829" lon="99.846972">
<time>2015-08-06T10:17:57Z</time></trkpt>
<trkpt lat="27.52074" lon="99.847212">
<time>2015-08-06T10:17:58Z</time></trkpt>
<trkpt lat="27.52065" lon="99.847463">
<time>2015-08-06T10:17:59Z</time></trkpt>
<trkpt lat="27.520561" lon="99.847723">
<time>2015-08-06T10:18:00Z</time></trkpt>
<trkpt lat="27.520451" lon="99.847984">
<time>2015-08-06T10:18:01Z</time></trkpt>
<trkpt lat="27.520342" lon="99.848284">
<time>2015-08-06T10:18:02Z</time></trkpt>
<trkpt lat="27.520152" lon="99.848505">
<time>2015-08-06T10:18:03Z</time></trkpt>
<trkpt lat="27.519942" lon="99.848675">
<time>2015-08-06T10:18:04Z</time></trkpt>
<trkpt lat="27.519712" lon="99.848795">
<time>2015-08-06T10:18:05Z</time></trkpt>
<trkpt lat="27.519462" lon="99.848805">
<time>2015-08-06T10:18:06Z</time></trkpt>
<trkpt lat="27.519182" lon="99.848765">
<time>2015-08-06T10:18:07Z</time></trkpt>
<trkpt lat="27.518872" lon="99.848705">
<time>2015-08-06T10:18:08Z</time></trkpt>
<trkpt lat="27.518582" lon="99.848665">
<time>2015-08-06T10:18:09Z</time></trkpt>
<trkpt lat="27.518292" lon="99.848635">
<time>2015-08-06T10:18:10Z</time></trkpt>
<trkpt lat="27.518012" lon="99.848595">
<time>2015-08-06T10:18:11Z</time></trkpt>
<trkpt lat="27.517742" lon="99.848565">
<time>2015-08-06T10:18:12Z</time></trkpt>
<trkpt lat="27.517492" lon="99.848565">
<time>2015-08-06T10:18:13Z</time></trkpt>
<trkpt lat="27.517242" lon="99.848635">
<time>2015-08-06T10:18:14Z</time></trkpt>
<trkpt lat="27.517012" lon="99.848705">
<time>2015-08-06T10:18:15Z</time></trkpt>
<trkpt lat="27.516783" lon="99.848795">
<time>2015-08-06T10:18:16Z</time></trkpt>
<trkpt lat="27.516563" lon="99.848875">
<time>2015-08-06T10:18:17Z</time></trkpt>
<trkpt lat="27.516343" lon="99.848956">
<time>2015-08-06T10:18:18Z</time></trkpt>
<trkpt lat="27.516133" lon="99.849026">
<time>2015-08-06T10:18:19Z</time></trkpt>
<trkpt lat="27.515923" lon="99.849096">
<time>2015-08-06T10:18:20Z</time></trkpt>
<trkpt lat="27.515723" lon="99.849166">
<time>2015-08-06T10:18:21Z</time></trkpt>
<trkpt lat="27.515523" lon="99.849236">
<time>2015-08-06T10:18:22Z</time></trkpt>
<trkpt lat="27.515323" lon="99.849296">
<time>2015-08-06T10:18:23Z</time></trkpt>
<trkpt lat="27.515093" lon="99.849296">
<time>2015-08-06T10:18:24Z</time></trkpt>
<trkpt lat="27.514873" lon="99.849316">
<time>2015-08-06T10:18:25Z</time></trkpt>
<trkpt lat="27.514633" lon="99.849306">
<time>2015-08-06T10:18:26Z</time></trkpt>
<trkpt lat="27.514383" lon="99.849306">
<time>2015-08-06T10:18:27Z</time></trkpt>
<trkpt lat="27.514123" lon="99.849306">
<time>2015-08-06T10:18:28Z</time></trkpt>
<trkpt lat="27.513854" lon="99.849306">
<time>2015-08-06T10:18:29Z</time></trkpt>
<trkpt lat="27.513574" lon="99.849336">
<time>2015-08-06T10:18:30Z</time></trkpt>
<trkpt lat="27.513294" lon="99.849356">
<time>2015-08-06T10:18:31Z</time></trkpt>
<trkpt lat="27.513014" lon="99.849387">
<time>2015-08-06T10:18:32Z</time></trkpt>
<trkpt lat="27.512764" lon="99.849437">
<time>2015-08-06T10:18:33Z</time></trkpt>
<trkpt lat="27.512534" lon="99.849547">
<time>2015-08-06T10:18:34Z</time></trkpt>
<trkpt lat="27.512334" lon="99.849697">
<time>2015-08-06T10:18:35Z</time></trkpt>
<trkpt lat="27.512124" lon="99.849817">
<time>2015-08-06T10:18:36Z</time></trkpt>
<trkpt lat="27.511895" lon="99.849908">
<time>2015-08-06T10:18:37Z</time></trkpt>
<trkpt lat="27.511625" lon="99.849968">
<time>2015-08-06T10:18:38Z</time></trkpt>
<trkpt lat="27.511345" lon="99.849988">
<time>2015-08-06T10:18:39Z</time></trkpt>
<trkpt lat="27.511075" lon="99.849978">
<time>2015-08-06T10:18:40Z</time></trkpt>
<trkpt lat="27.510795" lon="99.849938">
<time>2015-08-06T10:18:41Z</time></trkpt>
<trkpt lat="27.510525" lon="99.849908">
<time>2015-08-06T10:18:42Z</time></trkpt>
<trkpt lat="27.510255" lon="99.849888">
<time>2015-08-06T10:18:43Z</time></trkpt>
<trkpt lat="27.510005" lon="99.849908">
<time>2015-08-06T10:18:44Z</time></trkpt>
<trkpt lat="27.509775" lon="99.849998">
<time>2015-08-06T10:18:45Z</time></trkpt>
<trkpt lat="27.509555" lon="99.850138">
<time>2015-08-06T10:18:46Z</time></trkpt>
<trkpt lat="27.509325" lon="99.850298">
<time>2015-08-06T10:18:47Z</time></trkpt>
<trkpt lat="27.509116" lon="99.850479">
<time>2015-08-06T10:18:48Z</time></trkpt>
<trkpt lat="27.508956" lon="99.850679">
<time>2015-08-06T10:18:49Z</time></trkpt>
<trkpt lat="27.508806" lon="99.850869">
<time>2015-08-06T10:18:50Z</time></trkpt>
<trkpt lat="27.508667" lon="99.85108">
<time>2015-08-06T10:18:51Z</time></trkpt>
<trkpt lat="27.508537" lon="99.85132">
<time>2015-08-06T10:18:52Z</time></trkpt>
<trkpt lat="27.508447" lon="99.851571">
<time>2015-08-06T10:18:53Z</time></trkpt>
<trkpt lat="27.508418" lon="99.851841">
<time>2015-08-06T10:18:54Z</time></trkpt>
<trkpt lat="27.508438" lon="99.852132">
<time>2015-08-06T10:18:55Z</time></trkpt>
<trkpt lat="27.508459" lon="99.852422">
<time>2015-08-06T10:18:56Z</time></trkpt>
<trkpt lat="27.508449" lon="99.852703">
<time>2015-08-06T10:18:57Z</time></trkpt>
<trkpt lat="27.508449" lon="99.852753">
<time>2015-08-06T10:18:58Z</time></trkpt>
<trkpt lat="27.50845" lon="99.852983">
<time>2015-08-06T10:18:59Z</time></trkpt>
<trkpt lat="27.50838" lon="99.853254">
<time>2015-08-06T10:19:00Z</time></trkpt>
<trkpt lat="27.508231" lon="99.853584">
<time>2015-08-06T10:19:01Z</time></trkpt>
<trkpt lat="27.508001" lon="99.853875">
<time>2015-08-06T10:19:02Z</time></trkpt>
<trkpt lat="27.507812" lon="99.854135">
<time>2015-08-06T10:19:03Z</time></trkpt>
<trkpt lat="27.507582" lon="99.854446">
<time>2015-08-06T10:19:04Z</time></trkpt>
<trkpt lat="27.507373" lon="99.854756">
<time>2015-08-06T10:19:05Z</time></trkpt>
<trkpt lat="27.507163" lon="99.855057">
<time>2015-08-06T10:19:06Z</time></trkpt>
<trkpt lat="27.507014" lon="99.855287">
<time>2015-08-06T10:19:07Z</time></trkpt>
<trkpt lat="27.506834" lon="99.855518">
<time>2015-08-06T10:19:08Z</time></trkpt>
<trkpt lat="27.506714" lon="99.855708">
<time>2015-08-06T10:19:09Z</time></trkpt>
<trkpt lat="27.506555" lon="99.855929">
<time>2015-08-06T10:19:10Z</time></trkpt>
<trkpt lat="27.506385" lon="99.856159">
<time>2015-08-06T10:19:11Z</time></trkpt>
<trkpt lat="27.506145" lon="99.856399">
<time>2015-08-06T10:19:12Z</time></trkpt>
<trkpt lat="27.505896" lon="99.8566">
<time>2015-08-06T10:19:13Z</time></trkpt>
<trkpt lat="27.505646" lon="99.8568">
<time>2015-08-06T10:19:14Z</time></trkpt>
<trkpt lat="27.505396" lon="99.85696">
<time>2015-08-06T10:19:15Z</time></trkpt>
<trkpt lat="27.505156" lon="99.857081">
<time>2015-08-06T10:19:16Z</time></trkpt>
<trkpt lat="27.504887" lon="99.857201">
<time>2015-08-06T10:19:17Z</time></trkpt>
<trkpt lat="27.504667" lon="99.857281">
<time>2015-08-06T10:19:18Z</time></trkpt>
<trkpt lat="27.504457" lon="99.857371">
<time>2015-08-06T10:19:19Z</time></trkpt>
<trkpt lat="27.504237" lon="99.857461">
<time>2015-08-06T10:19:20Z</time></trkpt>
<trkpt lat="27.503987" lon="99.857561">
<time>2015-08-06T10:19:21Z</time></trkpt>
<trkpt lat="27.503657" lon="99.857702">
<time>2015-08-06T10:19:22Z</time></trkpt>
<trkpt lat="27.503358" lon="99.857842">
<time>2015-08-06T10:19:23Z</time></trkpt>
<trkpt lat="27.503058" lon="99.857972">
<time>2015-08-06T10:19:24Z</time></trkpt>
<trkpt lat="27.502768" lon="99.858102">
<time>2015-08-06T10:19:25Z</time></trkpt>
<trkpt lat="27.502458" lon="99.858243">
<time>2015-08-06T10:19:26Z</time></trkpt>
<trkpt lat="27.502129" lon="99.858393">
<time>2015-08-06T10:19:27Z</time></trkpt>
<trkpt lat="27.501789" lon="99.858523">
<time>2015-08-06T10:19:28Z</time></trkpt>
<trkpt lat="27.501719" lon="99.858553">
<time>2015-08-06T10:19:29Z</time></trkpt>
<trkpt lat="27.501459" lon="99.858663">
<time>2015-08-06T10:19:30Z</time></trkpt>
<trkpt lat="27.501129" lon="99.858784">
<time>2015-08-06T10:19:31Z</time></trkpt>
<trkpt lat="27.500829" lon="99.858934">
<time>2015-08-06T10:19:32Z</time></trkpt>
<trkpt lat="27.50054" lon="99.859124">
<time>2015-08-06T10:19:33Z</time></trkpt>
<trkpt lat="27.50027" lon="99.859344">
<time>2015-08-06T10:19:34Z</time></trkpt>
<trkpt lat="27.50003" lon="99.859545">
<time>2015-08-06T10:19:35Z</time></trkpt>
<trkpt lat="27.499891" lon="99.859655">
<time>2015-08-06T10:19:36Z</time></trkpt>
<trkpt lat="27.499731" lon="99.859785">
<time>2015-08-06T10:19:37Z</time></trkpt>
<trkpt lat="27.499461" lon="99.860006">
<time>2015-08-06T10:19:38Z</time></trkpt>
<trkpt lat="27.499211" lon="99.860226">
<time>2015-08-06T10:19:39Z</time></trkpt>
<trkpt lat="27.498952" lon="99.860446">
<time>2015-08-06T10:19:40Z</time></trkpt>
<trkpt lat="27.498682" lon="99.860667">
<time>2015-08-06T10:19:41Z</time></trkpt>
<trkpt lat="27.498412" lon="99.860887">
<time>2015-08-06T10:19:42Z</time></trkpt>
<trkpt lat="27.498183" lon="99.861107">
<time>2015-08-06T10:19:43Z</time></trkpt>
<trkpt lat="27.497973" lon="99.861368">
<time>2015-08-06T10:19:44Z</time></trkpt>
<trkpt lat="27.497753" lon="99.861618">
<time>2015-08-06T10:19:45Z</time></trkpt>
<trkpt lat="27.497534" lon="99.861889">
<time>2015-08-06T10:19:46Z</time></trkpt>
<trkpt lat="27.497314" lon="99.862149">
<time>2015-08-06T10:19:47Z</time></trkpt>
<trkpt lat="27.497085" lon="99.862419">
<time>2015-08-06T10:19:48Z</time></trkpt>
<trkpt lat="27.496855" lon="99.86269">
<time>2015-08-06T10:19:49Z</time></trkpt>
<trkpt lat="27.496625" lon="99.86294">
<time>2015-08-06T10:19:50Z</time></trkpt>
<trkpt lat="27.496396" lon="99.863221">
<time>2015-08-06T10:19:51Z</time></trkpt>
<trkpt lat="27.496186" lon="99.863481">
<time>2015-08-06T10:19:52Z</time></trkpt>
<trkpt lat="27.496176" lon="99.863491">
<time>2015-08-06T10:19:53Z</time></trkpt>
<trkpt lat="27.495987" lon="99.863742">
<time>2015-08-06T10:19:54Z</time></trkpt>
<trkpt lat="27.495797" lon="99.863992">
<time>2015-08-06T10:19:55Z</time></trkpt>
<trkpt lat="27.495607" lon="99.864182">
<time>2015-08-06T10:19:56Z</time></trkpt>
<trkpt lat="27.495417" lon="99.864383">
<time>2015-08-06T10:19:57Z</time></trkpt>
<trkpt lat="27.495218" lon="99.864563">
<time>2015-08-06T10:19:58Z</time></trkpt>
<trkpt lat="27.494988" lon="99.864723">
<time>2015-08-06T10:19:59Z</time></trkpt>
<trkpt lat="27.494748" lon="99.864863">
<time>2015-08-06T10:20:00Z</time></trkpt>
<trkpt lat="27.494448" lon="99.865014">
<time>2015-08-06T10:20:01Z</time></trkpt>
<trkpt lat="27.494189" lon="99.865194">
<time>2015-08-06T10:20:02Z</time></trkpt>
<trkpt lat="27.493949" lon="99.865384">
<time>2015-08-06T10:20:03Z</time></trkpt>
<trkpt lat="27.493709" lon="99.865554">
<time>2015-08-06T10:20:04Z</time></trkpt>
<trkpt lat="27.493429" lon="99.865705">
<time>2015-08-06T10:20:05Z</time></trkpt>
<trkpt lat="27.49313" lon="99.865885">
<time>2015-08-06T10:20:06Z</time></trkpt>
<trkpt lat="27.49285" lon="99.866075">
<time>2015-08-06T10:20:07Z</time></trkpt>
<trkpt lat="27.49262" lon="99.866255">
<time>2015-08-06T10:20:08Z</time></trkpt>
<trkpt lat="27.49236" lon="99.866456">
<time>2015-08-06T10:20:09Z</time></trkpt>
<trkpt lat="27.492091" lon="99.866676">
<time>2015-08-06T10:20:10Z</time></trkpt>
<trkpt lat="27.491841" lon="99.866866">
<time>2015-08-06T10:20:11Z</time></trkpt>
<trkpt lat="27.491641" lon="99.867047">
<time>2015-08-06T10:20:12Z</time></trkpt>
<trkpt lat="27.491291" lon="99.867317">
<time>2015-08-06T10:20:13Z</time></trkpt>
<trkpt lat="27.491082" lon="99.867537">
<time>2015-08-06T10:20:14Z</time></trkpt>
<trkpt lat="27.490942" lon="99.867707">
<time>2015-08-06T10:20:15Z</time></trkpt>
<trkpt lat="27.490712" lon="99.867918">
<time>2015-08-06T10:20:16Z</time></trkpt>
<trkpt lat="27.490642" lon="99.867998">
<time>2015-08-06T10:20:17Z</time></trkpt>
<trkpt lat="27.490523" lon="99.868118">
<time>2015-08-06T10:20:18Z</time></trkpt>
<trkpt lat="27.490293" lon="99.868368">
<time>2015-08-06T10:20:19Z</time></trkpt>
<trkpt lat="27.490123" lon="99.868599">
<time>2015-08-06T10:20:20Z</time></trkpt>
<trkpt lat="27.490043" lon="99.868669">
<time>2015-08-06T10:20:21Z</time></trkpt>
<trkpt lat="27.489943" lon="99.868779">
<time>2015-08-06T10:20:22Z</time></trkpt>
<trkpt lat="27.489704" lon="99.868959">
<time>2015-08-06T10:20:23Z</time></trkpt>
<trkpt lat="27.489494" lon="99.869089">
<time>2015-08-06T10:20:24Z</time></trkpt>
<trkpt lat="27.489284" lon="99.8692">
<time>2015-08-06T10:20:25Z</time></trkpt>
<trkpt lat="27.489094" lon="99.86932">
<time>2015-08-06T10:20:26Z</time></trkpt>
<trkpt lat="27.488934" lon="99.86941">
<time>2015-08-06T10:20:27Z</time></trkpt>
<trkpt lat="27.488684" lon="99.86956">
<time>2015-08-06T10:20:28Z</time></trkpt>
<trkpt lat="27.488455" lon="99.86966">
<time>2015-08-06T10:20:29Z</time></trkpt>
<trkpt lat="27.488165" lon="99.86979">
<time>2015-08-06T10:20:30Z</time></trkpt>
<trkpt lat="27.487915" lon="99.869911">
<time>2015-08-06T10:20:31Z</time></trkpt>
<trkpt lat="27.487665" lon="99.870001">
<time>2015-08-06T10:20:32Z</time></trkpt>
<trkpt lat="27.487445" lon="99.870131">
<time>2015-08-06T10:20:33Z</time></trkpt>
<trkpt lat="27.487225" lon="99.870331">
<time>2015-08-06T10:20:34Z</time></trkpt>
<trkpt lat="27.487006" lon="99.870511">
<time>2015-08-06T10:20:35Z</time></trkpt>
<trkpt lat="27.486796" lon="99.870682">
<time>2015-08-06T10:20:36Z</time></trkpt>
<trkpt lat="27.486586" lon="99.870812">
<time>2015-08-06T10:20:37Z</time></trkpt>
<trkpt lat="27.486366" lon="99.870882">
<time>2015-08-06T10:20:38Z</time></trkpt>
<trkpt lat="27.486126" lon="99.870902">
<time>2015-08-06T10:20:39Z</time></trkpt>
<trkpt lat="27.485936" lon="99.871002">
<time>2015-08-06T10:20:40Z</time></trkpt>
<trkpt lat="27.485846" lon="99.871202">
<time>2015-08-06T10:20:41Z</time></trkpt>
<trkpt lat="27.485827" lon="99.871423">
<time>2015-08-06T10:20:42Z</time></trkpt>
<trkpt lat="27.485847" lon="99.871653">
<time>2015-08-06T10:20:43Z</time></trkpt>
<trkpt lat="27.485837" lon="99.871923">
<time>2015-08-06T10:20:44Z</time></trkpt>
<trkpt lat="27.485788" lon="99.872194">
<time>2015-08-06T10:20:45Z</time></trkpt>
<trkpt lat="27.485708" lon="99.872484">
<time>2015-08-06T10:20:46Z</time></trkpt>
<trkpt lat="27.485618" lon="99.872734">
<time>2015-08-06T10:20:47Z</time></trkpt>
<trkpt lat="27.485519" lon="99.873005">
<time>2015-08-06T10:20:48Z</time></trkpt>
<trkpt lat="27.485389" lon="99.873255">
<time>2015-08-06T10:20:49Z</time></trkpt>
<trkpt lat="27.485239" lon="99.873515">
<time>2015-08-06T10:20:50Z</time></trkpt>
<trkpt lat="27.485069" lon="99.873776">
<time>2015-08-06T10:20:51Z</time></trkpt>
<trkpt lat="27.48493" lon="99.874046">
<time>2015-08-06T10:20:52Z</time></trkpt>
<trkpt lat="27.48477" lon="99.874316">
<time>2015-08-06T10:20:53Z</time></trkpt>
<trkpt lat="27.48462" lon="99.874596">
<time>2015-08-06T10:20:54Z</time></trkpt>
<trkpt lat="27.484481" lon="99.874887">
<time>2015-08-06T10:20:55Z</time></trkpt>
<trkpt lat="27.484421" lon="99.875027">
<time>2015-08-06T10:20:56Z</time></trkpt>
<trkpt lat="27.484361" lon="99.875137">
<time>2015-08-06T10:20:57Z</time></trkpt>
<trkpt lat="27.484281" lon="99.875447">
<time>2015-08-06T10:20:58Z</time></trkpt>
<trkpt lat="27.484201" lon="99.875748">
<time>2015-08-06T10:20:59Z</time></trkpt>
<trkpt lat="27.484102" lon="99.876018">
<time>2015-08-06T10:21:00Z</time></trkpt>
<trkpt lat="27.483992" lon="99.876298">
<time>2015-08-06T10:21:01Z</time></trkpt>
<trkpt lat="27.483872" lon="99.876549">
<time>2015-08-06T10:21:02Z</time></trkpt>
<trkpt lat="27.483763" lon="99.876789">
<time>2015-08-06T10:21:03Z</time></trkpt>
<trkpt lat="27.483653" lon="99.877019">
<time>2015-08-06T10:21:04Z</time></trkpt>
<trkpt lat="27.483593" lon="99.877239">
<time>2015-08-06T10:21:05Z</time></trkpt>
<trkpt lat="27.483593" lon="99.87745">
<time>2015-08-06T10:21:06Z</time></trkpt>
<trkpt lat="27.483643" lon="99.87764">
<time>2015-08-06T10:21:07Z</time></trkpt>
<trkpt lat="27.483734" lon="99.87785">
<time>2015-08-06T10:21:08Z</time></trkpt>
<trkpt lat="27.483804" lon="99.87809">
<time>2015-08-06T10:21:09Z</time></trkpt>
<trkpt lat="27.483824" lon="99.878321">
<time>2015-08-06T10:21:10Z</time></trkpt>
<trkpt lat="27.483834" lon="99.878561">
<time>2015-08-06T10:21:11Z</time></trkpt>
<trkpt lat="27.483874" lon="99.878801">
<time>2015-08-06T10:21:12Z</time></trkpt>
<trkpt lat="27.483905" lon="99.879051">
<time>2015-08-06T10:21:13Z</time></trkpt>
<trkpt lat="27.483925" lon="99.879272">
<time>2015-08-06T10:21:14Z</time></trkpt>
<trkpt lat="27.483885" lon="99.879462">
<time>2015-08-06T10:21:15Z</time></trkpt>
<trkpt lat="27.483775" lon="99.879582">
<time>2015-08-06T10:21:16Z</time></trkpt>
<trkpt lat="27.483625" lon="99.879652">
<time>2015-08-06T10:21:17Z</time></trkpt>
<trkpt lat="27.483435" lon="99.879692">
<time>2015-08-06T10:21:18Z</time></trkpt>
<trkpt lat="27.483205" lon="99.879752">
<time>2015-08-06T10:21:19Z</time></trkpt>
<trkpt lat="27.482985" lon="99.879812">
<time>2015-08-06T10:21:20Z</time></trkpt>
<trkpt lat="27.482775" lon="99.879882">
<time>2015-08-06T10:21:21Z</time></trkpt>
<trkpt lat="27.482586" lon="99.880002">
<time>2015-08-06T10:21:22Z</time></trkpt>
<trkpt lat="27.482446" lon="99.880172">
<time>2015-08-06T10:21:23Z</time></trkpt>
<trkpt lat="27.482266" lon="99.880343">
<time>2015-08-06T10:21:24Z</time></trkpt>
<trkpt lat="27.482026" lon="99.880463">
<time>2015-08-06T10:21:25Z</time></trkpt>
<trkpt lat="27.481776" lon="99.880533">
<time>2015-08-06T10:21:26Z</time></trkpt>
<trkpt lat="27.481526" lon="99.880643">
<time>2015-08-06T10:21:27Z</time></trkpt>
<trkpt lat="27.481286" lon="99.880773">
<time>2015-08-06T10:21:28Z</time></trkpt>
<trkpt lat="27.481036" lon="99.880893">
<time>2015-08-06T10:21:29Z</time></trkpt>
<trkpt lat="27.480776" lon="99.880953">
<time>2015-08-06T10:21:30Z</time></trkpt>
<trkpt lat="27.480516" lon="99.881013">
<time>2015-08-06T10:21:31Z</time></trkpt>
<trkpt lat="27.480277" lon="99.881043">
<time>2015-08-06T10:21:32Z</time></trkpt>
<trkpt lat="27.480016" lon="99.881013">
<time>2015-08-06T10:21:33Z</time></trkpt>
<trkpt lat="27.479837" lon="99.881023">
<time>2015-08-06T10:21:34Z</time></trkpt>
<trkpt lat="27.479617" lon="99.881043">
<time>2015-08-06T10:21:35Z</time></trkpt>
<trkpt lat="27.479377" lon="99.881103">
<time>2015-08-06T10:21:36Z</time></trkpt>
<trkpt lat="27.479217" lon="99.881243">
<time>2015-08-06T10:21:37Z</time></trkpt>
<trkpt lat="27.479007" lon="99.881474">
<time>2015-08-06T10:21:38Z</time></trkpt>
<trkpt lat="27.478857" lon="99.881664">
<time>2015-08-06T10:21:39Z</time></trkpt>
<trkpt lat="27.478717" lon="99.881864">
<time>2015-08-06T10:21:40Z</time></trkpt>
<trkpt lat="27.478517" lon="99.882014">
<time>2015-08-06T10:21:41Z</time></trkpt>
<trkpt lat="27.478277" lon="99.882124">
<time>2015-08-06T10:21:42Z</time></trkpt>
<trkpt lat="27.478038" lon="99.882224">
<time>2015-08-06T10:21:43Z</time></trkpt>
<trkpt lat="27.477788" lon="99.882294">
<time>2015-08-06T10:21:44Z</time></trkpt>
<trkpt lat="27.477538" lon="99.882375">
<time>2015-08-06T10:21:45Z</time></trkpt>
<trkpt lat="27.477318" lon="99.882525">
<time>2015-08-06T10:21:46Z</time></trkpt>
<trkpt lat="27.477128" lon="99.882705">
<time>2015-08-06T10:21:47Z</time></trkpt>
<trkpt lat="27.476938" lon="99.882875">
<time>2015-08-06T10:21:48Z</time></trkpt>
<trkpt lat="27.476768" lon="99.883025">
<time>2015-08-06T10:21:49Z</time></trkpt>
<trkpt lat="27.476608" lon="99.883175">
<time>2015-08-06T10:21:50Z</time></trkpt>
<trkpt lat="27.476438" lon="99.883325">
<time>2015-08-06T10:21:51Z</time></trkpt>
<trkpt lat="27.476289" lon="99.883475">
<time>2015-08-06T10:21:52Z</time></trkpt>
<trkpt lat="27.476159" lon="99.883656">
<time>2015-08-06T10:21:53Z</time></trkpt>
<trkpt lat="27.476019" lon="99.883816">
<time>2015-08-06T10:21:54Z</time></trkpt>
<trkpt lat="27.475869" lon="99.883976">
<time>2015-08-06T10:21:55Z</time></trkpt>
<trkpt lat="27.475739" lon="99.884156">
<time>2015-08-06T10:21:56Z</time></trkpt>
<trkpt lat="27.475599" lon="99.884346">
<time>2015-08-06T10:21:57Z</time></trkpt>
<trkpt lat="27.475469" lon="99.884536">
<time>2015-08-06T10:21:58Z</time></trkpt>
<trkpt lat="27.47531" lon="99.884736">
<time>2015-08-06T10:21:59Z</time></trkpt>
<trkpt lat="27.47513" lon="99.884897">
<time>2015-08-06T10:22:00Z</time></trkpt>
<trkpt lat="27.47494" lon="99.884987">
<time>2015-08-06T10:22:01Z</time></trkpt>
<trkpt lat="27.47472" lon="99.885027">
<time>2015-08-06T10:22:02Z</time></trkpt>
<trkpt lat="27.47451" lon="99.885087">
<time>2015-08-06T10:22:03Z</time></trkpt>
<trkpt lat="27.47421" lon="99.885147">
<time>2015-08-06T10:22:04Z</time></trkpt>
<trkpt lat="27.474" lon="99.885297">
<time>2015-08-06T10:22:05Z</time></trkpt>
<trkpt lat="27.47381" lon="99.885467">
<time>2015-08-06T10:22:06Z</time></trkpt>
<trkpt lat="27.47362" lon="99.885667">
<time>2015-08-06T10:22:07Z</time></trkpt>
<trkpt lat="27.47337" lon="99.885777">
<time>2015-08-06T10:22:08Z</time></trkpt>
<trkpt lat="27.47311" lon="99.885847">
<time>2015-08-06T10:22:09Z</time></trkpt>
<trkpt lat="27.47285" lon="99.885917">
<time>2015-08-06T10:22:10Z</time></trkpt>
<trkpt lat="27.472601" lon="99.886017">
<time>2015-08-06T10:22:11Z</time></trkpt>
<trkpt lat="27.472371" lon="99.886138">
<time>2015-08-06T10:22:12Z</time></trkpt>
<trkpt lat="27.472141" lon="99.886218">
<time>2015-08-06T10:22:13Z</time></trkpt>
<trkpt lat="27.471911" lon="99.886218">
<time>2015-08-06T10:22:14Z</time></trkpt>
<trkpt lat="27.471681" lon="99.886218">
<time>2015-08-06T10:22:15Z</time></trkpt>
<trkpt lat="27.471451" lon="99.886278">
<time>2015-08-06T10:22:16Z</time></trkpt>
<trkpt lat="27.471221" lon="99.886368">
<time>2015-08-06T10:22:17Z</time></trkpt>
<trkpt lat="27.470991" lon="99.886468">
<time>2015-08-06T10:22:18Z</time></trkpt>
<trkpt lat="27.470761" lon="99.886578">
<time>2015-08-06T10:22:19Z</time></trkpt>
<trkpt lat="27.470551" lon="99.886598">
<time>2015-08-06T10:22:20Z</time></trkpt>
<trkpt lat="27.470351" lon="99.886758">
<time>2015-08-06T10:22:21Z</time></trkpt>
<trkpt lat="27.470211" lon="99.886988">
<time>2015-08-06T10:22:22Z</time></trkpt>
<trkpt lat="27.470051" lon="99.887118">
<time>2015-08-06T10:22:23Z</time></trkpt>
<trkpt lat="27.470031" lon="99.887138">
<time>2015-08-06T10:22:24Z</time></trkpt>
<trkpt lat="27.469841" lon="99.887238">
<time>2015-08-06T10:22:25Z</time></trkpt>
<trkpt lat="27.469642" lon="99.887318">
<time>2015-08-06T10:22:26Z</time></trkpt>
<trkpt lat="27.469452" lon="99.887388">
<time>2015-08-06T10:22:27Z</time></trkpt>
<trkpt lat="27.469322" lon="99.887439">
<time>2015-08-06T10:22:28Z</time></trkpt>
<trkpt lat="27.469142" lon="99.887469">
<time>2015-08-06T10:22:29Z</time></trkpt>
<trkpt lat="27.468952" lon="99.887489">
<time>2015-08-06T10:22:30Z</time></trkpt>
<trkpt lat="27.468772" lon="99.887559">
<time>2015-08-06T10:22:31Z</time></trkpt>
<trkpt lat="27.468592" lon="99.887719">
<time>2015-08-06T10:22:32Z</time></trkpt>
<trkpt lat="27.468462" lon="99.887899">
<time>2015-08-06T10:22:33Z</time></trkpt>
<trkpt lat="27.468362" lon="99.888069">
<time>2015-08-06T10:22:34Z</time></trkpt>
<trkpt lat="27.468262" lon="99.888259">
<time>2015-08-06T10:22:35Z</time></trkpt>
<trkpt lat="27.468142" lon="99.888459">
<time>2015-08-06T10:22:36Z</time></trkpt>
<trkpt lat="27.468012" lon="99.888659">
<time>2015-08-06T10:22:37Z</time></trkpt>
<trkpt lat="27.467902" lon="99.888859">
<time>2015-08-06T10:22:38Z</time></trkpt>
<trkpt lat="27.467843" lon="99.88906">
<time>2015-08-06T10:22:39Z</time></trkpt>
<trkpt lat="27.467823" lon="99.8891">
<time>2015-08-06T10:22:40Z</time></trkpt>
<trkpt lat="27.467773" lon="99.88933">
<time>2015-08-06T10:22:41Z</time></trkpt>
<trkpt lat="27.467753" lon="99.88958">
<time>2015-08-06T10:22:42Z</time></trkpt>
<trkpt lat="27.467743" lon="99.88977">
<time>2015-08-06T10:22:43Z</time></trkpt>
<trkpt lat="27.467723" lon="99.88997">
<time>2015-08-06T10:22:44Z</time></trkpt>
<trkpt lat="27.467723" lon="99.89017">
<time>2015-08-06T10:22:45Z</time></trkpt>
<trkpt lat="27.467703" lon="99.89039">
<time>2015-08-06T10:22:46Z</time></trkpt>
<trkpt lat="27.467623" lon="99.89054">
<time>2015-08-06T10:22:47Z</time></trkpt>
<trkpt lat="27.467493" lon="99.89061">
<time>2015-08-06T10:22:48Z</time></trkpt>
<trkpt lat="27.467323" lon="99.89057">
<time>2015-08-06T10:22:49Z</time></trkpt>
<trkpt lat="27.467153" lon="99.89045">
<time>2015-08-06T10:22:50Z</time></trkpt>
<trkpt lat="27.467023" lon="99.89033">
<time>2015-08-06T10:22:51Z</time></trkpt>
<trkpt lat="27.466873" lon="99.89023">
<time>2015-08-06T10:22:52Z</time></trkpt>
<trkpt lat="27.466693" lon="99.89018">
<time>2015-08-06T10:22:53Z</time></trkpt>
<trkpt lat="27.466533" lon="99.89019">
<time>2015-08-06T10:22:54Z</time></trkpt>
<trkpt lat="27.466373" lon="99.89027">
<time>2015-08-06T10:22:55Z</time></trkpt>
<trkpt lat="27.466273" lon="99.89043">
<time>2015-08-06T10:22:56Z</time></trkpt>
<trkpt lat="27.466193" lon="99.8906">
<time>2015-08-06T10:22:57Z</time></trkpt>
<trkpt lat="27.466104" lon="99.89077">
<time>2015-08-06T10:22:58Z</time></trkpt>
<trkpt lat="27.466004" lon="99.890931">
<time>2015-08-06T10:22:59Z</time></trkpt>
<trkpt lat="27.465904" lon="99.891101">
<time>2015-08-06T10:23:00Z</time></trkpt>
<trkpt lat="27.465844" lon="99.891281">
<time>2015-08-06T10:23:01Z</time></trkpt>
<trkpt lat="27.465884" lon="99.891471">
<time>2015-08-06T10:23:02Z</time></trkpt>
<trkpt lat="27.465964" lon="99.891661">
<time>2015-08-06T10:23:03Z</time></trkpt>
<trkpt lat="27.466014" lon="99.891861">
<time>2015-08-06T10:23:04Z</time></trkpt>
<trkpt lat="27.465954" lon="99.892051">
<time>2015-08-06T10:23:05Z</time></trkpt>
<trkpt lat="27.465824" lon="99.892181">
<time>2015-08-06T10:23:06Z</time></trkpt>
<trkpt lat="27.465694" lon="99.892291">
<time>2015-08-06T10:23:07Z</time></trkpt>
<trkpt lat="27.465544" lon="99.892391">
<time>2015-08-06T10:23:08Z</time></trkpt>
<trkpt lat="27.465394" lon="99.892491">
<time>2015-08-06T10:23:09Z</time></trkpt>
<trkpt lat="27.465234" lon="99.892571">
<time>2015-08-06T10:23:10Z</time></trkpt>
<trkpt lat="27.465104" lon="99.892691">
<time>2015-08-06T10:23:11Z</time></trkpt>
<trkpt lat="27.465044" lon="99.892861">
<time>2015-08-06T10:23:12Z</time></trkpt>
<trkpt lat="27.465054" lon="99.893041">
<time>2015-08-06T10:23:13Z</time></trkpt>
<trkpt lat="27.465015" lon="99.893212">
<time>2015-08-06T10:23:14Z</time></trkpt>
<trkpt lat="27.464895" lon="99.893342">
<time>2015-08-06T10:23:15Z</time></trkpt>
<trkpt lat="27.464705" lon="99.893382">
<time>2015-08-06T10:23:16Z</time></trkpt>
<trkpt lat="27.464525" lon="99.893392">
<time>2015-08-06T10:23:17Z</time></trkpt>
<trkpt lat="27.464345" lon="99.893402">
<time>2015-08-06T10:23:18Z</time></trkpt>
<trkpt lat="27.464205" lon="99.893502">
<time>2015-08-06T10:23:19Z</time></trkpt>
<trkpt lat="27.464135" lon="99.893672">
<time>2015-08-06T10:23:20Z</time></trkpt>
<trkpt lat="27.464125" lon="99.893852">
<time>2015-08-06T10:23:21Z</time></trkpt>
<trkpt lat="27.464105" lon="99.894022">
<time>2015-08-06T10:23:22Z</time></trkpt>
<trkpt lat="27.464025" lon="99.894172">
<time>2015-08-06T10:23:23Z</time></trkpt>
<trkpt lat="27.463885" lon="99.894242">
<time>2015-08-06T10:23:24Z</time></trkpt>
<trkpt lat="27.463735" lon="99.894302">
<time>2015-08-06T10:23:25Z</time></trkpt>
<trkpt lat="27.463625" lon="99.894432">
<time>2015-08-06T10:23:26Z</time></trkpt>
<trkpt lat="27.463555" lon="99.894562">
<time>2015-08-06T10:23:27Z</time></trkpt>
<trkpt lat="27.463555" lon="99.894752">
<time>2015-08-06T10:23:28Z</time></trkpt>
<trkpt lat="27.463535" lon="99.894932">
<time>2015-08-06T10:23:29Z</time></trkpt>
<trkpt lat="27.463465" lon="99.895042">
<time>2015-08-06T10:23:30Z</time></trkpt>
<trkpt lat="27.463325" lon="99.895172">
<time>2015-08-06T10:23:31Z</time></trkpt>
<trkpt lat="27.463185" lon="99.895262">
<time>2015-08-06T10:23:32Z</time></trkpt>
<trkpt lat="27.463045" lon="99.895332">
<time>2015-08-06T10:23:33Z</time></trkpt>
<trkpt lat="27.462955" lon="99.895452">
<time>2015-08-06T10:23:34Z</time></trkpt>
<trkpt lat="27.462965" lon="99.895592">
<time>2015-08-06T10:23:35Z</time></trkpt>
<trkpt lat="27.462995" lon="99.895772">
<time>2015-08-06T10:23:36Z</time></trkpt>
<trkpt lat="27.463005" lon="99.895952">
<time>2015-08-06T10:23:37Z</time></trkpt>
<trkpt lat="27.462935" lon="99.896133">
<time>2015-08-06T10:23:38Z</time></trkpt>
<trkpt lat="27.462816" lon="99.896263">
<time>2015-08-06T10:23:39Z</time></trkpt>
<trkpt lat="27.462716" lon="99.896493">
<time>2015-08-06T10:23:40Z</time></trkpt>
<trkpt lat="27.462676" lon="99.896693">
<time>2015-08-06T10:23:41Z</time></trkpt>
<trkpt lat="27.462636" lon="99.896903">
<time>2015-08-06T10:23:42Z</time></trkpt>
<trkpt lat="27.462626" lon="99.897103">
<time>2015-08-06T10:23:43Z</time></trkpt>
<trkpt lat="27.462626" lon="99.897273">
<time>2015-08-06T10:23:44Z</time></trkpt>
<trkpt lat="27.462616" lon="99.897493">
<time>2015-08-06T10:23:45Z</time></trkpt>
<trkpt lat="27.462616" lon="99.897703">
<time>2015-08-06T10:23:46Z</time></trkpt>
<trkpt lat="27.462556" lon="99.897843">
<time>2015-08-06T10:23:47Z</time></trkpt>
<trkpt lat="27.462436" lon="99.897943">
<time>2015-08-06T10:23:48Z</time></trkpt>
<trkpt lat="27.462276" lon="99.898003">
<time>2015-08-06T10:23:49Z</time></trkpt>
<trkpt lat="27.462116" lon="99.898093">
<time>2015-08-06T10:23:50Z</time></trkpt>
<trkpt lat="27.462006" lon="99.898243">
<time>2015-08-06T10:23:51Z</time></trkpt>
<trkpt lat="27.461976" lon="99.898433">
<time>2015-08-06T10:23:52Z</time></trkpt>
<trkpt lat="27.462056" lon="99.898583">
<time>2015-08-06T10:23:53Z</time></trkpt>
<trkpt lat="27.462146" lon="99.898743">
<time>2015-08-06T10:23:54Z</time></trkpt>
<trkpt lat="27.462226" lon="99.898873">
<time>2015-08-06T10:23:55Z</time></trkpt>
<trkpt lat="27.462286" lon="99.898963">
<time>2015-08-06T10:23:56Z</time></trkpt>
<trkpt lat="27.462356" lon="99.899123">
<time>2015-08-06T10:23:57Z</time></trkpt>
<trkpt lat="27.462426" lon="99.899273">
<time>2015-08-06T10:23:58Z</time></trkpt>
<trkpt lat="27.462486" lon="99.899453">
<time>2015-08-06T10:23:59Z</time></trkpt>
<trkpt lat="27.462576" lon="99.899693">
<time>2015-08-06T10:24:00Z</time></trkpt>
<trkpt lat="27.462656" lon="99.899953">
<time>2015-08-06T10:24:01Z</time></trkpt>
<trkpt lat="27.462646" lon="99.900123">
<time>2015-08-06T10:24:02Z</time></trkpt>
<trkpt lat="27.462566" lon="99.900283">
<time>2015-08-06T10:24:03Z</time></trkpt>
<trkpt lat="27.462406" lon="99.900343">
<time>2015-08-06T10:24:04Z</time></trkpt>
<trkpt lat="27.462236" lon="99.900373">
<time>2015-08-06T10:24:05Z</time></trkpt>
<trkpt lat="27.462056" lon="99.900393">
<time>2015-08-06T10:24:06Z</time></trkpt>
<trkpt lat="27.461876" lon="99.900423">
<time>2015-08-06T10:24:07Z</time></trkpt>
<trkpt lat="27.461706" lon="99.900423">
<time>2015-08-06T10:24:08Z</time></trkpt>
<trkpt lat="27.461556" lon="99.900443">
<time>2015-08-06T10:24:09Z</time></trkpt>
<trkpt lat="27.461396" lon="99.900483">
<time>2015-08-06T10:24:10Z</time></trkpt>
<trkpt lat="27.461156" lon="99.900573">
<time>2015-08-06T10:24:11Z</time></trkpt>
<trkpt lat="27.461026" lon="99.900703">
<time>2015-08-06T10:24:12Z</time></trkpt>
<trkpt lat="27.460996" lon="99.900863">
<time>2015-08-06T10:24:13Z</time></trkpt>
<trkpt lat="27.461066" lon="99.901063">
<time>2015-08-06T10:24:14Z</time></trkpt>
<trkpt lat="27.461176" lon="99.901233">
<time>2015-08-06T10:24:15Z</time></trkpt>
<trkpt lat="27.461296" lon="99.901433">
<time>2015-08-06T10:24:16Z</time></trkpt>
<trkpt lat="27.461406" lon="99.901573">
<time>2015-08-06T10:24:17Z</time></trkpt>
<trkpt lat="27.461526" lon="99.901763">
<time>2015-08-06T10:24:18Z</time></trkpt>
<trkpt lat="27.461686" lon="99.901913">
<time>2015-08-06T10:24:19Z</time></trkpt>
<trkpt lat="27.461836" lon="99.902053">
<time>2015-08-06T10:24:20Z</time></trkpt>
<trkpt lat="27.461986" lon="99.902153">
<time>2015-08-06T10:24:21Z</time></trkpt>
<trkpt lat="27.462166" lon="99.902283">
<time>2015-08-06T10:24:22Z</time></trkpt>
<trkpt lat="27.462326" lon="99.902383">
<time>2015-08-06T10:24:23Z</time></trkpt>
<trkpt lat="27.462496" lon="99.902463">
<time>2015-08-06T10:24:24Z</time></trkpt>
<trkpt lat="27.462576" lon="99.902633">
<time>2015-08-06T10:24:25Z</time></trkpt>
<trkpt lat="27.462566" lon="99.902843">
<time>2015-08-06T10:24:26Z</time></trkpt>
<trkpt lat="27.462466" lon="99.902913">
<time>2015-08-06T10:24:27Z</time></trkpt>
<trkpt lat="27.462316" lon="99.902943">
<time>2015-08-06T10:24:28Z</time></trkpt>
<trkpt lat="27.462136" lon="99.902993">
<time>2015-08-06T10:24:29Z</time></trkpt>
<trkpt lat="27.461936" lon="99.903053">
<time>2015-08-06T10:24:30Z</time></trkpt>
<trkpt lat="27.461756" lon="99.903123">
<time>2015-08-06T10:24:31Z</time></trkpt>
<trkpt lat="27.461596" lon="99.903203">
<time>2015-08-06T10:24:32Z</time></trkpt>
<trkpt lat="27.461476" lon="99.903243">
<time>2015-08-06T10:24:33Z</time></trkpt>
<trkpt lat="27.461456" lon="99.903403">
<time>2015-08-06T10:24:34Z</time></trkpt>
<trkpt lat="27.461526" lon="99.903523">
<time>2015-08-06T10:24:35Z</time></trkpt>
<trkpt lat="27.461696" lon="99.903593">
<time>2015-08-06T10:24:36Z</time></trkpt>
<trkpt lat="27.461796" lon="99.903643">
<time>2015-08-06T10:24:37Z</time></trkpt>
<trkpt lat="27.461896" lon="99.903703">
<time>2015-08-06T10:24:38Z</time></trkpt>
<trkpt lat="27.462036" lon="99.903793">
<time>2015-08-06T10:24:39Z</time></trkpt>
<trkpt lat="27.462226" lon="99.903903">
<time>2015-08-06T10:24:40Z</time></trkpt>
<trkpt lat="27.462386" lon="99.903993">
<time>2015-08-06T10:24:41Z</time></trkpt>
<trkpt lat="27.462546" lon="99.904083">
<time>2015-08-06T10:24:42Z</time></trkpt>
<trkpt lat="27.462716" lon="99.904173">
<time>2015-08-06T10:24:43Z</time></trkpt>
<trkpt lat="27.462836" lon="99.904233">
<time>2015-08-06T10:24:44Z</time></trkpt>
<trkpt lat="27.462966" lon="99.904313">
<time>2015-08-06T10:24:45Z</time></trkpt>
<trkpt lat="27.463126" lon="99.904383">
<time>2015-08-06T10:24:46Z</time></trkpt>
<trkpt lat="27.463286" lon="99.904463">
<time>2015-08-06T10:24:47Z</time></trkpt>
<trkpt lat="27.463426" lon="99.904523">
<time>2015-08-06T10:24:48Z</time></trkpt>
<trkpt lat="27.463586" lon="99.904593">
<time>2015-08-06T10:24:49Z</time></trkpt>
<trkpt lat="27.463736" lon="99.904663">
<time>2015-08-06T10:24:50Z</time></trkpt>
<trkpt lat="27.463876" lon="99.904733">
<time>2015-08-06T10:24:51Z</time></trkpt>
<trkpt lat="27.464026" lon="99.904823">
<time>2015-08-06T10:24:52Z</time></trkpt>
<trkpt lat="27.464175" lon="99.904923">
<time>2015-08-06T10:24:53Z</time></trkpt>
<trkpt lat="27.464305" lon="99.905013">
<time>2015-08-06T10:24:54Z</time></trkpt>
<trkpt lat="27.464385" lon="99.905143">
<time>2015-08-06T10:24:55Z</time></trkpt>
<trkpt lat="27.464445" lon="99.905303">
<time>2015-08-06T10:24:56Z</time></trkpt>
<trkpt lat="27.464515" lon="99.905433">
<time>2015-08-06T10:24:57Z</time></trkpt>
<trkpt lat="27.464595" lon="99.905583">
<time>2015-08-06T10:24:58Z</time></trkpt>
<trkpt lat="27.464655" lon="99.905813">
<time>2015-08-06T10:24:59Z</time></trkpt>
<trkpt lat="27.464735" lon="99.906042">
<time>2015-08-06T10:25:00Z</time></trkpt>
<trkpt lat="27.464785" lon="99.906252">
<time>2015-08-06T10:25:01Z</time></trkpt>
<trkpt lat="27.464865" lon="99.906472">
<time>2015-08-06T10:25:02Z</time></trkpt>
<trkpt lat="27.464935" lon="99.906732">
<time>2015-08-06T10:25:03Z</time></trkpt>
<trkpt lat="27.465005" lon="99.906982">
<time>2015-08-06T10:25:04Z</time></trkpt>
<trkpt lat="27.465085" lon="99.907222">
<time>2015-08-06T10:25:05Z</time></trkpt>
<trkpt lat="27.465165" lon="99.907462">
<time>2015-08-06T10:25:06Z</time></trkpt>
<trkpt lat="27.465235" lon="99.907722">
<time>2015-08-06T10:25:07Z</time></trkpt>
<trkpt lat="27.465275" lon="99.907982">
<time>2015-08-06T10:25:08Z</time></trkpt>
<trkpt lat="27.465295" lon="99.908212">
<time>2015-08-06T10:25:09Z</time></trkpt>
<trkpt lat="27.465295" lon="99.908432">
<time>2015-08-06T10:25:10Z</time></trkpt>
<trkpt lat="27.465264" lon="99.908652">
<time>2015-08-06T10:25:11Z</time></trkpt>
<trkpt lat="27.465184" lon="99.908852">
<time>2015-08-06T10:25:12Z</time></trkpt>
<trkpt lat="27.465054" lon="99.909022">
<time>2015-08-06T10:25:13Z</time></trkpt>
<trkpt lat="27.464974" lon="99.909151">
<time>2015-08-06T10:25:14Z</time></trkpt>
<trkpt lat="27.464954" lon="99.909301">
<time>2015-08-06T10:25:15Z</time></trkpt>
<trkpt lat="27.464964" lon="99.909491">
<time>2015-08-06T10:25:16Z</time></trkpt>
<trkpt lat="27.464984" lon="99.909641">
<time>2015-08-06T10:25:17Z</time></trkpt>
<trkpt lat="27.465014" lon="99.909771">
<time>2015-08-06T10:25:18Z</time></trkpt>
<trkpt lat="27.465044" lon="99.909931">
<time>2015-08-06T10:25:19Z</time></trkpt>
<trkpt lat="27.465034" lon="99.910051">
<time>2015-08-06T10:25:20Z</time></trkpt>
<trkpt lat="27.464994" lon="99.910201">
<time>2015-08-06T10:25:21Z</time></trkpt>
<trkpt lat="27.464944" lon="99.910401">
<time>2015-08-06T10:25:22Z</time></trkpt>
<trkpt lat="27.464974" lon="99.910641">
<time>2015-08-06T10:25:23Z</time></trkpt>
<trkpt lat="27.465084" lon="99.910831">
<time>2015-08-06T10:25:24Z</time></trkpt>
<trkpt lat="27.465183" lon="99.911071">
<time>2015-08-06T10:25:25Z</time></trkpt>
<trkpt lat="27.465173" lon="99.911271">
<time>2015-08-06T10:25:26Z</time></trkpt>
<trkpt lat="27.465073" lon="99.91142">
<time>2015-08-06T10:25:27Z</time></trkpt>
<trkpt lat="27.464943" lon="99.91149">
<time>2015-08-06T10:25:28Z</time></trkpt>
<trkpt lat="27.464833" lon="99.91159">
<time>2015-08-06T10:25:29Z</time></trkpt>
<trkpt lat="27.464713" lon="99.91169">
<time>2015-08-06T10:25:30Z</time></trkpt>
<trkpt lat="27.464553" lon="99.91189">
<time>2015-08-06T10:25:31Z</time></trkpt>
<trkpt lat="27.464473" lon="99.9121">
<time>2015-08-06T10:25:32Z</time></trkpt>
<trkpt lat="27.464373" lon="99.91227">
<time>2015-08-06T10:25:33Z</time></trkpt>
<trkpt lat="27.464273" lon="99.91246">
<time>2015-08-06T10:25:34Z</time></trkpt>
<trkpt lat="27.464163" lon="99.91267">
<time>2015-08-06T10:25:35Z</time></trkpt>
<trkpt lat="27.464063" lon="99.91285">
<time>2015-08-06T10:25:36Z</time></trkpt>
<trkpt lat="27.463973" lon="99.91301">
<time>2015-08-06T10:25:37Z</time></trkpt>
<trkpt lat="27.463883" lon="99.91314">
<time>2015-08-06T10:25:38Z</time></trkpt>
<trkpt lat="27.463822" lon="99.913259">
<time>2015-08-06T10:25:39Z</time></trkpt>
<trkpt lat="27.463752" lon="99.913349">
<time>2015-08-06T10:25:40Z</time></trkpt>
<trkpt lat="27.463672" lon="99.913439">
<time>2015-08-06T10:25:41Z</time></trkpt>
<trkpt lat="27.463592" lon="99.913479">
<time>2015-08-06T10:25:42Z</time></trkpt>
<trkpt lat="27.463472" lon="99.913579">
<time>2015-08-06T10:25:43Z</time></trkpt>
<trkpt lat="27.463342" lon="99.913699">
<time>2015-08-06T10:25:44Z</time></trkpt>
<trkpt lat="27.463222" lon="99.913839">
<time>2015-08-06T10:25:45Z</time></trkpt>
<trkpt lat="27.463102" lon="99.913979">
<time>2015-08-06T10:25:46Z</time></trkpt>
<trkpt lat="27.463032" lon="99.914199">
<time>2015-08-06T10:25:47Z</time></trkpt>
<trkpt lat="27.463002" lon="99.914389">
<time>2015-08-06T10:25:48Z</time></trkpt>
<trkpt lat="27.462932" lon="99.914569">
<time>2015-08-06T10:25:49Z</time></trkpt>
<trkpt lat="27.462802" lon="99.914779">
<time>2015-08-06T10:25:50Z</time></trkpt>
<trkpt lat="27.462652" lon="99.914928">
<time>2015-08-06T10:25:51Z</time></trkpt>
<trkpt lat="27.462462" lon="99.914978">
<time>2015-08-06T10:25:52Z</time></trkpt>
<trkpt lat="27.462282" lon="99.915058">
<time>2015-08-06T10:25:53Z</time></trkpt>
<trkpt lat="27.462161" lon="99.915178">
<time>2015-08-06T10:25:54Z</time></trkpt>
<trkpt lat="27.462051" lon="99.915298">
<time>2015-08-06T10:25:55Z</time></trkpt>
<trkpt lat="27.461931" lon="99.915438">
<time>2015-08-06T10:25:56Z</time></trkpt>
<trkpt lat="27.461751" lon="99.915668">
<time>2015-08-06T10:25:57Z</time></trkpt>
<trkpt lat="27.461581" lon="99.915878">
<time>2015-08-06T10:25:58Z</time></trkpt>
<trkpt lat="27.461411" lon="99.916098">
<time>2015-08-06T10:25:59Z</time></trkpt>
<trkpt lat="27.461241" lon="99.916277">
<time>2015-08-06T10:26:00Z</time></trkpt>
<trkpt lat="27.461051" lon="99.916457">
<time>2015-08-06T10:26:01Z</time></trkpt>
<trkpt lat="27.460861" lon="99.916557">
<time>2015-08-06T10:26:02Z</time></trkpt>
<trkpt lat="27.460631" lon="99.916637">
<time>2015-08-06T10:26:03Z</time></trkpt>
<trkpt lat="27.460371" lon="99.916647">
<time>2015-08-06T10:26:04Z</time></trkpt>
<trkpt lat="27.460091" lon="99.916667">
<time>2015-08-06T10:26:05Z</time></trkpt>
<trkpt lat="27.459891" lon="99.916667">
<time>2015-08-06T10:26:06Z</time></trkpt>
<trkpt lat="27.459701" lon="99.916677">
<time>2015-08-06T10:26:07Z</time></trkpt>
<trkpt lat="27.459531" lon="99.916717">
<time>2015-08-06T10:26:08Z</time></trkpt>
<trkpt lat="27.459391" lon="99.916817">
<time>2015-08-06T10:26:09Z</time></trkpt>
<trkpt lat="27.45928" lon="99.916957">
<time>2015-08-06T10:26:10Z</time></trkpt>
<trkpt lat="27.45921" lon="99.917087">
<time>2015-08-06T10:26:11Z</time></trkpt>
<trkpt lat="27.45915" lon="99.917197">
<time>2015-08-06T10:26:12Z</time></trkpt>
<trkpt lat="27.45905" lon="99.917347">
<time>2015-08-06T10:26:13Z</time></trkpt>
<trkpt lat="27.45897" lon="99.917497">
<time>2015-08-06T10:26:14Z</time></trkpt>
<trkpt lat="27.45887" lon="99.917616">
<time>2015-08-06T10:26:15Z</time></trkpt>
<trkpt lat="27.45879" lon="99.917696">
<time>2015-08-06T10:26:16Z</time></trkpt>
<trkpt lat="27.45866" lon="99.917776">
<time>2015-08-06T10:26:17Z</time></trkpt>
<trkpt lat="27.45849" lon="99.917846">
<time>2015-08-06T10:26:18Z</time></trkpt>
<trkpt lat="27.4583" lon="99.917926">
<time>2015-08-06T10:26:19Z</time></trkpt>
<trkpt lat="27.45813" lon="99.917986">
<time>2015-08-06T10:26:20Z</time></trkpt>
<trkpt lat="27.45794" lon="99.918036">
<time>2015-08-06T10:26:21Z</time></trkpt>
<trkpt lat="27.45775" lon="99.918106">
<time>2015-08-06T10:26:22Z</time></trkpt>
<trkpt lat="27.45758" lon="99.918166">
<time>2015-08-06T10:26:23Z</time></trkpt>
<trkpt lat="27.45735" lon="99.918196">
<time>2015-08-06T10:26:24Z</time></trkpt>
<trkpt lat="27.45712" lon="99.918136">
<time>2015-08-06T10:26:25Z</time></trkpt>
<trkpt lat="27.45693" lon="99.918036">
<time>2015-08-06T10:26:26Z</time></trkpt>
<trkpt lat="27.45676" lon="99.917876">
<time>2015-08-06T10:26:27Z</time></trkpt>
<trkpt lat="27.45659" lon="99.917716">
<time>2015-08-06T10:26:28Z</time></trkpt>
<trkpt lat="27.45638" lon="99.917577">
<time>2015-08-06T10:26:29Z</time></trkpt>
<trkpt lat="27.45616" lon="99.917457">
<time>2015-08-06T10:26:30Z</time></trkpt>
<trkpt lat="27.45592" lon="99.917337">
<time>2015-08-06T10:26:31Z</time></trkpt>
<trkpt lat="27.455701" lon="99.917227">
<time>2015-08-06T10:26:32Z</time></trkpt>
<trkpt lat="27.455491" lon="99.917117">
<time>2015-08-06T10:26:33Z</time></trkpt>
<trkpt lat="27.455301" lon="99.917007">
<time>2015-08-06T10:26:34Z</time></trkpt>
<trkpt lat="27.455131" lon="99.916887">
<time>2015-08-06T10:26:35Z</time></trkpt>
<trkpt lat="27.454991" lon="99.916747">
<time>2015-08-06T10:26:36Z</time></trkpt>
<trkpt lat="27.454861" lon="99.916617">
<time>2015-08-06T10:26:37Z</time></trkpt>
<trkpt lat="27.454741" lon="99.916497">
<time>2015-08-06T10:26:38Z</time></trkpt>
<trkpt lat="27.454631" lon="99.916398">
<time>2015-08-06T10:26:39Z</time></trkpt>
<trkpt lat="27.454501" lon="99.916308">
<time>2015-08-06T10:26:40Z</time></trkpt>
<trkpt lat="27.454391" lon="99.916268">
<time>2015-08-06T10:26:41Z</time></trkpt>
<trkpt lat="27.454271" lon="99.916228">
<time>2015-08-06T10:26:42Z</time></trkpt>
<trkpt lat="27.454161" lon="99.916208">
<time>2015-08-06T10:26:43Z</time></trkpt>
<trkpt lat="27.454041" lon="99.916198">
<time>2015-08-06T10:26:44Z</time></trkpt>
<trkpt lat="27.453941" lon="99.916168">
<time>2015-08-06T10:26:45Z</time></trkpt>
<trkpt lat="27.453851" lon="99.916138">
<time>2015-08-06T10:26:46Z</time></trkpt>
<trkpt lat="27.453702" lon="99.916068">
<time>2015-08-06T10:26:47Z</time></trkpt>
<trkpt lat="27.453552" lon="99.916038">
<time>2015-08-06T10:26:48Z</time></trkpt>
<trkpt lat="27.453382" lon="99.915988">
<time>2015-08-06T10:26:49Z</time></trkpt>
<trkpt lat="27.453262" lon="99.915908">
<time>2015-08-06T10:26:50Z</time></trkpt>
<trkpt lat="27.453152" lon="99.915808">
<time>2015-08-06T10:26:51Z</time></trkpt>
<trkpt lat="27.453062" lon="99.915698">
<time>2015-08-06T10:26:52Z</time></trkpt>
<trkpt lat="27.452952" lon="99.915548">
<time>2015-08-06T10:26:53Z</time></trkpt>
<trkpt lat="27.452852" lon="99.915378">
<time>2015-08-06T10:26:54Z</time></trkpt>
<trkpt lat="27.452742" lon="99.915228">
<time>2015-08-06T10:26:55Z</time></trkpt>
<trkpt lat="27.452572" lon="99.915089">
<time>2015-08-06T10:26:56Z</time></trkpt>
<trkpt lat="27.452362" lon="99.915009">
<time>2015-08-06T10:26:57Z</time></trkpt>
<trkpt lat="27.452162" lon="99.914969">
<time>2015-08-06T10:26:58Z</time></trkpt>
<trkpt lat="27.451942" lon="99.914929">
<time>2015-08-06T10:26:59Z</time></trkpt>
<trkpt lat="27.451722" lon="99.914879">
<time>2015-08-06T10:27:00Z</time></trkpt>
<trkpt lat="27.451513" lon="99.914829">
<time>2015-08-06T10:27:01Z</time></trkpt>
<trkpt lat="27.451313" lon="99.914759">
<time>2015-08-06T10:27:02Z</time></trkpt>
<trkpt lat="27.451083" lon="99.914689">
<time>2015-08-06T10:27:03Z</time></trkpt>
<trkpt lat="27.450903" lon="99.914619">
<time>2015-08-06T10:27:04Z</time></trkpt>
<trkpt lat="27.450743" lon="99.914489">
<time>2015-08-06T10:27:05Z</time></trkpt>
<trkpt lat="27.450603" lon="99.914329">
<time>2015-08-06T10:27:06Z</time></trkpt>
<trkpt lat="27.450503" lon="99.914149">
<time>2015-08-06T10:27:07Z</time></trkpt>
<trkpt lat="27.450443" lon="99.913959">
<time>2015-08-06T10:27:08Z</time></trkpt>
<trkpt lat="27.450363" lon="99.913779">
<time>2015-08-06T10:27:09Z</time></trkpt>
<trkpt lat="27.450233" lon="99.91367">
<time>2015-08-06T10:27:10Z</time></trkpt>
<trkpt lat="27.450073" lon="99.91359">
<time>2015-08-06T10:27:11Z</time></trkpt>
<trkpt lat="27.449923" lon="99.91354">
<time>2015-08-06T10:27:12Z</time></trkpt>
<trkpt lat="27.449733" lon="99.91355">
<time>2015-08-06T10:27:13Z</time></trkpt>
<trkpt lat="27.449573" lon="99.91355">
<time>2015-08-06T10:27:14Z</time></trkpt>
<trkpt lat="27.449443" lon="99.91355">
<time>2015-08-06T10:27:15Z</time></trkpt>
<trkpt lat="27.449273" lon="99.91359">
<time>2015-08-06T10:27:16Z</time></trkpt>
<trkpt lat="27.449143" lon="99.9136">
<time>2015-08-06T10:27:17Z</time></trkpt>
<trkpt lat="27.448993" lon="99.91363">
<time>2015-08-06T10:27:18Z</time></trkpt>
<trkpt lat="27.448843" lon="99.91367">
<time>2015-08-06T10:27:19Z</time></trkpt>
<trkpt lat="27.448743" lon="99.91375">
<time>2015-08-06T10:27:20Z</time></trkpt>
<trkpt lat="27.448623" lon="99.913869">
<time>2015-08-06T10:27:21Z</time></trkpt>
<trkpt lat="27.448423" lon="99.914009">
<time>2015-08-06T10:27:22Z</time></trkpt>
<trkpt lat="27.448273" lon="99.914039">
<time>2015-08-06T10:27:23Z</time></trkpt>
<trkpt lat="27.448083" lon="99.914089">
<time>2015-08-06T10:27:24Z</time></trkpt>
<trkpt lat="27.447793" lon="99.914139">
<time>2015-08-06T10:27:25Z</time></trkpt>
<trkpt lat="27.447483" lon="99.914219">
<time>2015-08-06T10:27:26Z</time></trkpt>
<trkpt lat="27.447243" lon="99.914269">
<time>2015-08-06T10:27:27Z</time></trkpt>
<trkpt lat="27.447033" lon="99.914299">
<time>2015-08-06T10:27:28Z</time></trkpt>
<trkpt lat="27.446843" lon="99.914339">
<time>2015-08-06T10:27:29Z</time></trkpt>
<trkpt lat="27.446673" lon="99.914379">
<time>2015-08-06T10:27:30Z</time></trkpt>
<trkpt lat="27.446473" lon="99.914359">
<time>2015-08-06T10:27:31Z</time></trkpt>
<trkpt lat="27.446303" lon="99.914339">
<time>2015-08-06T10:27:32Z</time></trkpt>
<trkpt lat="27.446083" lon="99.914319">
<time>2015-08-06T10:27:33Z</time></trkpt>
<trkpt lat="27.445913" lon="99.914319">
<time>2015-08-06T10:27:34Z</time></trkpt>
<trkpt lat="27.445743" lon="99.914329">
<time>2015-08-06T10:27:35Z</time></trkpt>
<trkpt lat="27.445603" lon="99.914429">
<time>2015-08-06T10:27:36Z</time></trkpt>
<trkpt lat="27.445463" lon="99.914619">
<time>2015-08-06T10:27:37Z</time></trkpt>
<trkpt lat="27.445263" lon="99.914769">
<time>2015-08-06T10:27:38Z</time></trkpt>
<trkpt lat="27.445063" lon="99.914929">
<time>2015-08-06T10:27:39Z</time></trkpt>
<trkpt lat="27.444823" lon="99.915009">
<time>2015-08-06T10:27:40Z</time></trkpt>
<trkpt lat="27.444613" lon="99.915039">
<time>2015-08-06T10:27:41Z</time></trkpt>
<trkpt lat="27.444433" lon="99.915089">
<time>2015-08-06T10:27:42Z</time></trkpt>
<trkpt lat="27.444293" lon="99.915189">
<time>2015-08-06T10:27:43Z</time></trkpt>
<trkpt lat="27.444163" lon="99.915349">
<time>2015-08-06T10:27:44Z</time></trkpt>
<trkpt lat="27.444063" lon="99.915578">
<time>2015-08-06T10:27:45Z</time></trkpt>
<trkpt lat="27.444013" lon="99.915818">
<time>2015-08-06T10:27:46Z</time></trkpt>
<trkpt lat="27.443932" lon="99.916048">
<time>2015-08-06T10:27:47Z</time></trkpt>
<trkpt lat="27.443882" lon="99.916228">
<time>2015-08-06T10:27:48Z</time></trkpt>
<trkpt lat="27.443822" lon="99.916388">
<time>2015-08-06T10:27:49Z</time></trkpt>
<trkpt lat="27.443722" lon="99.916528">
<time>2015-08-06T10:27:50Z</time></trkpt>
<trkpt lat="27.443652" lon="99.916628">
<time>2015-08-06T10:27:51Z</time></trkpt>
<trkpt lat="27.443542" lon="99.916758">
<time>2015-08-06T10:27:52Z</time></trkpt>
<trkpt lat="27.443452" lon="99.916817">
<time>2015-08-06T10:27:53Z</time></trkpt>
<trkpt lat="27.443302" lon="99.916927">
<time>2015-08-06T10:27:54Z</time></trkpt>
<trkpt lat="27.443122" lon="99.917037">
<time>2015-08-06T10:27:55Z</time></trkpt>
<trkpt lat="27.442982" lon="99.917137">
<time>2015-08-06T10:27:56Z</time></trkpt>
<trkpt lat="27.442892" lon="99.917187">
<time>2015-08-06T10:27:57Z</time></trkpt>
<trkpt lat="27.442732" lon="99.917297">
<time>2015-08-06T10:27:58Z</time></trkpt>
<trkpt lat="27.442602" lon="99.917387">
<time>2015-08-06T10:27:59Z</time></trkpt>
<trkpt lat="27.442442" lon="99.917487">
<time>2015-08-06T10:28:00Z</time></trkpt>
<trkpt lat="27.442261" lon="99.917607">
<time>2015-08-06T10:28:01Z</time></trkpt>
<trkpt lat="27.442111" lon="99.917707">
<time>2015-08-06T10:28:02Z</time></trkpt>
<trkpt lat="27.441921" lon="99.917807">
<time>2015-08-06T10:28:03Z</time></trkpt>
<trkpt lat="27.441731" lon="99.917937">
<time>2015-08-06T10:28:04Z</time></trkpt>
<trkpt lat="27.441561" lon="99.918057">
<time>2015-08-06T10:28:05Z</time></trkpt>
<trkpt lat="27.441391" lon="99.918176">
<time>2015-08-06T10:28:06Z</time></trkpt>
<trkpt lat="27.441201" lon="99.918286">
<time>2015-08-06T10:28:07Z</time></trkpt>
<trkpt lat="27.441061" lon="99.918366">
<time>2015-08-06T10:28:08Z</time></trkpt>
<trkpt lat="27.440881" lon="99.918486">
<time>2015-08-06T10:28:09Z</time></trkpt>
<trkpt lat="27.440691" lon="99.918616">
<time>2015-08-06T10:28:10Z</time></trkpt>
<trkpt lat="27.440531" lon="99.918736">
<time>2015-08-06T10:28:11Z</time></trkpt>
<trkpt lat="27.440341" lon="99.918846">
<time>2015-08-06T10:28:12Z</time></trkpt>
<trkpt lat="27.440201" lon="99.918936">
<time>2015-08-06T10:28:13Z</time></trkpt>
<trkpt lat="27.439971" lon="99.919026">
<time>2015-08-06T10:28:14Z</time></trkpt>
<trkpt lat="27.439731" lon="99.919096">
<time>2015-08-06T10:28:15Z</time></trkpt>
<trkpt lat="27.4395" lon="99.919166">
<time>2015-08-06T10:28:16Z</time></trkpt>
<trkpt lat="27.43927" lon="99.919206">
<time>2015-08-06T10:28:17Z</time></trkpt>
<trkpt lat="27.43906" lon="99.919286">
<time>2015-08-06T10:28:18Z</time></trkpt>
<trkpt lat="27.43886" lon="99.919385">
<time>2015-08-06T10:28:19Z</time></trkpt>
<trkpt lat="27.43868" lon="99.919545">
<time>2015-08-06T10:28:20Z</time></trkpt>
<trkpt lat="27.43849" lon="99.919695">
<time>2015-08-06T10:28:21Z</time></trkpt>
<trkpt lat="27.4383" lon="99.919885">
<time>2015-08-06T10:28:22Z</time></trkpt>
<trkpt lat="27.43811" lon="99.920045">
<time>2015-08-06T10:28:23Z</time></trkpt>
<trkpt lat="27.43788" lon="99.920155">
<time>2015-08-06T10:28:24Z</time></trkpt>
<trkpt lat="27.43765" lon="99.920235">
<time>2015-08-06T10:28:25Z</time></trkpt>
<trkpt lat="27.43741" lon="99.920285">
<time>2015-08-06T10:28:26Z</time></trkpt>
<trkpt lat="27.43717" lon="99.920285">
<time>2015-08-06T10:28:27Z</time></trkpt>
<trkpt lat="27.43692" lon="99.920285">
<time>2015-08-06T10:28:28Z</time></trkpt>
<trkpt lat="27.43668" lon="99.920285">
<time>2015-08-06T10:28:29Z</time></trkpt>
<trkpt lat="27.43644" lon="99.920355">
<time>2015-08-06T10:28:30Z</time></trkpt>
<trkpt lat="27.43623" lon="99.920445">
<time>2015-08-06T10:28:31Z</time></trkpt>
<trkpt lat="27.43596" lon="99.920554">
<time>2015-08-06T10:28:32Z</time></trkpt>
<trkpt lat="27.43573" lon="99.920694">
<time>2015-08-06T10:28:33Z</time></trkpt>
<trkpt lat="27.435509" lon="99.920884">
<time>2015-08-06T10:28:34Z</time></trkpt>
<trkpt lat="27.435379" lon="99.921024">
<time>2015-08-06T10:28:35Z</time></trkpt>
<trkpt lat="27.435259" lon="99.921154">
<time>2015-08-06T10:28:36Z</time></trkpt>
<trkpt lat="27.435099" lon="99.921294">
<time>2015-08-06T10:28:37Z</time></trkpt>
<trkpt lat="27.434909" lon="99.921494">
<time>2015-08-06T10:28:38Z</time></trkpt>
<trkpt lat="27.434729" lon="99.921663">
<time>2015-08-06T10:28:39Z</time></trkpt>
<trkpt lat="27.434559" lon="99.921833">
<time>2015-08-06T10:28:40Z</time></trkpt>
<trkpt lat="27.434349" lon="99.921903">
<time>2015-08-06T10:28:41Z</time></trkpt>
<trkpt lat="27.434129" lon="99.921873">
<time>2015-08-06T10:28:42Z</time></trkpt>
<trkpt lat="27.433989" lon="99.921953">
<time>2015-08-06T10:28:43Z</time></trkpt>
<trkpt lat="27.433878" lon="99.922093">
<time>2015-08-06T10:28:44Z</time></trkpt>
<trkpt lat="27.433738" lon="99.922283">
<time>2015-08-06T10:28:45Z</time></trkpt>
<trkpt lat="27.433618" lon="99.922443">
<time>2015-08-06T10:28:46Z</time></trkpt>
<trkpt lat="27.433538" lon="99.922632">
<time>2015-08-06T10:28:47Z</time></trkpt>
<trkpt lat="27.433478" lon="99.922832">
<time>2015-08-06T10:28:48Z</time></trkpt>
<trkpt lat="27.433318" lon="99.922982">
<time>2015-08-06T10:28:49Z</time></trkpt>
<trkpt lat="27.433148" lon="99.923112">
<time>2015-08-06T10:28:50Z</time></trkpt>
<trkpt lat="27.432957" lon="99.923212">
<time>2015-08-06T10:28:51Z</time></trkpt>
<trkpt lat="27.432737" lon="99.923202">
<time>2015-08-06T10:28:52Z</time></trkpt>
<trkpt lat="27.432518" lon="99.923142">
<time>2015-08-06T10:28:53Z</time></trkpt>
<trkpt lat="27.432398" lon="99.923042">
<time>2015-08-06T10:28:54Z</time></trkpt>
<trkpt lat="27.432248" lon="99.922892">
<time>2015-08-06T10:28:55Z</time></trkpt>
<trkpt lat="27.432018" lon="99.922922">
<time>2015-08-06T10:28:56Z</time></trkpt>
<trkpt lat="27.431858" lon="99.922992">
<time>2015-08-06T10:28:57Z</time></trkpt>
<trkpt lat="27.431718" lon="99.923152">
<time>2015-08-06T10:28:58Z</time></trkpt>
<trkpt lat="27.431587" lon="99.923312">
<time>2015-08-06T10:28:59Z</time></trkpt>
<trkpt lat="27.431367" lon="99.923442">
<time>2015-08-06T10:29:00Z</time></trkpt>
<trkpt lat="27.431147" lon="99.923551">
<time>2015-08-06T10:29:01Z</time></trkpt>
<trkpt lat="27.430907" lon="99.923541">
<time>2015-08-06T10:29:02Z</time></trkpt>
<trkpt lat="27.430667" lon="99.923571">
<time>2015-08-06T10:29:03Z</time></trkpt>
<trkpt lat="27.430427" lon="99.923601">
<time>2015-08-06T10:29:04Z</time></trkpt>
<trkpt lat="27.430197" lon="99.923651">
<time>2015-08-06T10:29:05Z</time></trkpt>
<trkpt lat="27.429987" lon="99.923741">
<time>2015-08-06T10:29:06Z</time></trkpt>
<trkpt lat="27.429777" lon="99.923831">
<time>2015-08-06T10:29:07Z</time></trkpt>
<trkpt lat="27.429567" lon="99.923931">
<time>2015-08-06T10:29:08Z</time></trkpt>
<trkpt lat="27.429367" lon="99.924051">
<time>2015-08-06T10:29:09Z</time></trkpt>
<trkpt lat="27.429177" lon="99.924201">
<time>2015-08-06T10:29:10Z</time></trkpt>
<trkpt lat="27.429037" lon="99.92439">
<time>2015-08-06T10:29:11Z</time></trkpt>
<trkpt lat="27.428926" lon="99.92461">
<time>2015-08-06T10:29:12Z</time></trkpt>
<trkpt lat="27.428806" lon="99.9248">
<time>2015-08-06T10:29:13Z</time></trkpt>
<trkpt lat="27.428676" lon="99.92501">
<time>2015-08-06T10:29:14Z</time></trkpt>
<trkpt lat="27.428546" lon="99.92521">
<time>2015-08-06T10:29:15Z</time></trkpt>
<trkpt lat="27.428416" lon="99.925409">
<time>2015-08-06T10:29:16Z</time></trkpt>
<trkpt lat="27.428285" lon="99.925619">
<time>2015-08-06T10:29:17Z</time></trkpt>
<trkpt lat="27.428155" lon="99.925819">
<time>2015-08-06T10:29:18Z</time></trkpt>
<trkpt lat="27.428015" lon="99.926019">
<time>2015-08-06T10:29:19Z</time></trkpt>
<trkpt lat="27.427855" lon="99.926188">
<time>2015-08-06T10:29:20Z</time></trkpt>
<trkpt lat="27.427685" lon="99.926348">
<time>2015-08-06T10:29:21Z</time></trkpt>
<trkpt lat="27.427504" lon="99.926468">
<time>2015-08-06T10:29:22Z</time></trkpt>
<trkpt lat="27.427324" lon="99.926548">
<time>2015-08-06T10:29:23Z</time></trkpt>
<trkpt lat="27.427134" lon="99.926578">
<time>2015-08-06T10:29:24Z</time></trkpt>
<trkpt lat="27.426914" lon="99.926608">
<time>2015-08-06T10:29:25Z</time></trkpt>
<trkpt lat="27.426684" lon="99.926628">
<time>2015-08-06T10:29:26Z</time></trkpt>
<trkpt lat="27.426484" lon="99.926658">
<time>2015-08-06T10:29:27Z</time></trkpt>
<trkpt lat="27.426384" lon="99.926758">
<time>2015-08-06T10:29:28Z</time></trkpt>
<trkpt lat="27.426284" lon="99.926957">
<time>2015-08-06T10:29:29Z</time></trkpt>
<trkpt lat="27.426184" lon="99.927177">
<time>2015-08-06T10:29:30Z</time></trkpt>
<trkpt lat="27.426124" lon="99.927317">
<time>2015-08-06T10:29:31Z</time></trkpt>
<trkpt lat="27.426024" lon="99.927447">
<time>2015-08-06T10:29:32Z</time></trkpt>
<trkpt lat="27.425893" lon="99.927567">
<time>2015-08-06T10:29:33Z</time></trkpt>
<trkpt lat="27.425733" lon="99.927667">
<time>2015-08-06T10:29:34Z</time></trkpt>
<trkpt lat="27.425583" lon="99.927796">
<time>2015-08-06T10:29:35Z</time></trkpt>
<trkpt lat="27.425423" lon="99.927936">
<time>2015-08-06T10:29:36Z</time></trkpt>
<trkpt lat="27.425223" lon="99.928106">
<time>2015-08-06T10:29:37Z</time></trkpt>
<trkpt lat="27.425023" lon="99.928306">
<time>2015-08-06T10:29:38Z</time></trkpt>
<trkpt lat="27.424812" lon="99.928446">
<time>2015-08-06T10:29:39Z</time></trkpt>
<trkpt lat="27.424622" lon="99.928545">
<time>2015-08-06T10:29:40Z</time></trkpt>
<trkpt lat="27.424462" lon="99.928645">
<time>2015-08-06T10:29:41Z</time></trkpt>
<trkpt lat="27.424242" lon="99.928725">
<time>2015-08-06T10:29:42Z</time></trkpt>
<trkpt lat="27.424092" lon="99.928775">
<time>2015-08-06T10:29:43Z</time></trkpt>
<trkpt lat="27.423872" lon="99.928825">
<time>2015-08-06T10:29:44Z</time></trkpt>
<trkpt lat="27.423722" lon="99.928875">
<time>2015-08-06T10:29:45Z</time></trkpt>
<trkpt lat="27.423632" lon="99.929025">
<time>2015-08-06T10:29:46Z</time></trkpt>
<trkpt lat="27.423602" lon="99.929224">
<time>2015-08-06T10:29:47Z</time></trkpt>
<trkpt lat="27.423521" lon="99.929424">
<time>2015-08-06T10:29:48Z</time></trkpt>
<trkpt lat="27.423471" lon="99.929564">
<time>2015-08-06T10:29:49Z</time></trkpt>
<trkpt lat="27.423431" lon="99.929714">
<time>2015-08-06T10:29:50Z</time></trkpt>
<trkpt lat="27.423381" lon="99.929864">
<time>2015-08-06T10:29:51Z</time></trkpt>
<trkpt lat="27.423231" lon="99.930023">
<time>2015-08-06T10:29:52Z</time></trkpt>
<trkpt lat="27.42307" lon="99.930153">
<time>2015-08-06T10:29:53Z</time></trkpt>
<trkpt lat="27.42294" lon="99.930293">
<time>2015-08-06T10:29:54Z</time></trkpt>
<trkpt lat="27.42285" lon="99.930483">
<time>2015-08-06T10:29:55Z</time></trkpt>
<trkpt lat="27.42277" lon="99.930702">
<time>2015-08-06T10:29:56Z</time></trkpt>
<trkpt lat="27.42274" lon="99.930872">
<time>2015-08-06T10:29:57Z</time></trkpt>
<trkpt lat="27.422699" lon="99.931012">
<time>2015-08-06T10:29:58Z</time></trkpt>
<trkpt lat="27.422619" lon="99.931132">
<time>2015-08-06T10:29:59Z</time></trkpt>
<trkpt lat="27.422479" lon="99.931202">
<time>2015-08-06T10:30:00Z</time></trkpt>
<trkpt lat="27.422359" lon="99.931222">
<time>2015-08-06T10:30:01Z</time></trkpt>
<trkpt lat="27.422239" lon="99.931242">
<time>2015-08-06T10:30:02Z</time></trkpt>
<trkpt lat="27.422129" lon="99.931272">
<time>2015-08-06T10:30:03Z</time></trkpt>
<trkpt lat="27.422039" lon="99.931341">
<time>2015-08-06T10:30:04Z</time></trkpt>
<trkpt lat="27.421979" lon="99.931461">
<time>2015-08-06T10:30:05Z</time></trkpt>
<trkpt lat="27.421919" lon="99.931581">
<time>2015-08-06T10:30:06Z</time></trkpt>
<trkpt lat="27.421858" lon="99.931751">
<time>2015-08-06T10:30:07Z</time></trkpt>
<trkpt lat="27.421788" lon="99.931881">
<time>2015-08-06T10:30:08Z</time></trkpt>
<trkpt lat="27.421728" lon="99.93201">
<time>2015-08-06T10:30:09Z</time></trkpt>
<trkpt lat="27.421688" lon="99.93211">
<time>2015-08-06T10:30:10Z</time></trkpt>
<trkpt lat="27.421618" lon="99.93228">
<time>2015-08-06T10:30:11Z</time></trkpt>
<trkpt lat="27.421517" lon="99.93255">
<time>2015-08-06T10:30:12Z</time></trkpt>
<trkpt lat="27.421457" lon="99.932829">
<time>2015-08-06T10:30:13Z</time></trkpt>
<trkpt lat="27.421437" lon="99.933009">
<time>2015-08-06T10:30:14Z</time></trkpt>
<trkpt lat="27.421426" lon="99.933189">
<time>2015-08-06T10:30:15Z</time></trkpt>
<trkpt lat="27.421396" lon="99.933338">
<time>2015-08-06T10:30:16Z</time></trkpt>
<trkpt lat="27.421316" lon="99.933468">
<time>2015-08-06T10:30:17Z</time></trkpt>
<trkpt lat="27.421206" lon="99.933538">
<time>2015-08-06T10:30:18Z</time></trkpt>
<trkpt lat="27.421036" lon="99.933588">
<time>2015-08-06T10:30:19Z</time></trkpt>
<trkpt lat="27.420936" lon="99.933668">
<time>2015-08-06T10:30:20Z</time></trkpt>
<trkpt lat="27.420876" lon="99.933768">
<time>2015-08-06T10:30:21Z</time></trkpt>
<trkpt lat="27.420826" lon="99.933878">
<time>2015-08-06T10:30:22Z</time></trkpt>
<trkpt lat="27.420715" lon="99.934057">
<time>2015-08-06T10:30:23Z</time></trkpt>
<trkpt lat="27.420625" lon="99.934197">
<time>2015-08-06T10:30:24Z</time></trkpt>
<trkpt lat="27.420545" lon="99.934297">
<time>2015-08-06T10:30:25Z</time></trkpt>
<trkpt lat="27.420465" lon="99.934427">
<time>2015-08-06T10:30:26Z</time></trkpt>
<trkpt lat="27.420375" lon="99.934536">
<time>2015-08-06T10:30:27Z</time></trkpt>
<trkpt lat="27.420354" lon="99.934696">
<time>2015-08-06T10:30:28Z</time></trkpt>
<trkpt lat="27.420354" lon="99.934866">
<time>2015-08-06T10:30:29Z</time></trkpt>
<trkpt lat="27.420364" lon="99.935046">
<time>2015-08-06T10:30:30Z</time></trkpt>
<trkpt lat="27.420364" lon="99.935215">
<time>2015-08-06T10:30:31Z</time></trkpt>
<trkpt lat="27.420363" lon="99.935365">
<time>2015-08-06T10:30:32Z</time></trkpt>
<trkpt lat="27.420373" lon="99.935565">
<time>2015-08-06T10:30:33Z</time></trkpt>
<trkpt lat="27.420373" lon="99.935724">
<time>2015-08-06T10:30:34Z</time></trkpt>
<trkpt lat="27.420373" lon="99.935854">
<time>2015-08-06T10:30:35Z</time></trkpt>
<trkpt lat="27.420372" lon="99.935984">
<time>2015-08-06T10:30:36Z</time></trkpt>
<trkpt lat="27.420372" lon="99.936194">
<time>2015-08-06T10:30:37Z</time></trkpt>
<trkpt lat="27.420382" lon="99.936403">
<time>2015-08-06T10:30:38Z</time></trkpt>
<trkpt lat="27.420391" lon="99.936563">
<time>2015-08-06T10:30:39Z</time></trkpt>
<trkpt lat="27.420401" lon="99.936763">
<time>2015-08-06T10:30:40Z</time></trkpt>
<trkpt lat="27.420401" lon="99.936942">
<time>2015-08-06T10:30:41Z</time></trkpt>
<trkpt lat="27.420401" lon="99.937082">
<time>2015-08-06T10:30:42Z</time></trkpt>
<trkpt lat="27.42041" lon="99.937242">
<time>2015-08-06T10:30:43Z</time></trkpt>
<trkpt lat="27.4204" lon="99.937392">
<time>2015-08-06T10:30:44Z</time></trkpt>
<trkpt lat="27.42041" lon="99.937581">
<time>2015-08-06T10:30:45Z</time></trkpt>
<trkpt lat="27.42041" lon="99.937731">
<time>2015-08-06T10:30:46Z</time></trkpt>
<trkpt lat="27.420429" lon="99.937881">
<time>2015-08-06T10:30:47Z</time></trkpt>
<trkpt lat="27.420429" lon="99.93806">
<time>2015-08-06T10:30:48Z</time></trkpt>
<trkpt lat="27.420429" lon="99.93822">
<time>2015-08-06T10:30:49Z</time></trkpt>
<trkpt lat="27.420429" lon="99.93838">
<time>2015-08-06T10:30:50Z</time></trkpt>
<trkpt lat="27.420438" lon="99.93853">
<time>2015-08-06T10:30:51Z</time></trkpt>
<trkpt lat="27.420448" lon="99.938699">
<time>2015-08-06T10:30:52Z</time></trkpt>
<trkpt lat="27.420458" lon="99.938849">
<time>2015-08-06T10:30:53Z</time></trkpt>
<trkpt lat="27.420457" lon="99.939049">
<time>2015-08-06T10:30:54Z</time></trkpt>
<trkpt lat="27.420457" lon="99.939228">
<time>2015-08-06T10:30:55Z</time></trkpt>
<trkpt lat="27.420457" lon="99.939448">
<time>2015-08-06T10:30:56Z</time></trkpt>
<trkpt lat="27.420466" lon="99.939608">
<time>2015-08-06T10:30:57Z</time></trkpt>
<trkpt lat="27.420506" lon="99.939767">
<time>2015-08-06T10:30:58Z</time></trkpt>
<trkpt lat="27.420596" lon="99.939897">
<time>2015-08-06T10:30:59Z</time></trkpt>
<trkpt lat="27.420666" lon="99.940027">
<time>2015-08-06T10:31:00Z</time></trkpt>
<trkpt lat="27.420725" lon="99.940156">
<time>2015-08-06T10:31:01Z</time></trkpt>
<trkpt lat="27.420735" lon="99.940326">
<time>2015-08-06T10:31:02Z</time></trkpt>
<trkpt lat="27.420715" lon="99.940446">
<time>2015-08-06T10:31:03Z</time></trkpt>
<trkpt lat="27.420685" lon="99.940576">
<time>2015-08-06T10:31:04Z</time></trkpt>
<trkpt lat="27.420604" lon="99.940745">
<time>2015-08-06T10:31:05Z</time></trkpt>
<trkpt lat="27.420544" lon="99.940875">
<time>2015-08-06T10:31:06Z</time></trkpt>
<trkpt lat="27.420554" lon="99.941005">
<time>2015-08-06T10:31:07Z</time></trkpt>
<trkpt lat="27.420624" lon="99.941175">
<time>2015-08-06T10:31:08Z</time></trkpt>
<trkpt lat="27.420734" lon="99.941284">
<time>2015-08-06T10:31:09Z</time></trkpt>
<trkpt lat="27.420853" lon="99.941334">
<time>2015-08-06T10:31:10Z</time></trkpt>
<trkpt lat="27.420983" lon="99.941374">
<time>2015-08-06T10:31:11Z</time></trkpt>
<trkpt lat="27.421103" lon="99.941384">
<time>2015-08-06T10:31:12Z</time></trkpt>
<trkpt lat="27.421253" lon="99.941384">
<time>2015-08-06T10:31:13Z</time></trkpt>
<trkpt lat="27.421393" lon="99.941414">
<time>2015-08-06T10:31:14Z</time></trkpt>
<trkpt lat="27.421523" lon="99.941454">
<time>2015-08-06T10:31:15Z</time></trkpt>
<trkpt lat="27.421633" lon="99.941534">
<time>2015-08-06T10:31:16Z</time></trkpt>
<trkpt lat="27.421753" lon="99.941654">
<time>2015-08-06T10:31:17Z</time></trkpt>
<trkpt lat="27.421792" lon="99.941823">
<time>2015-08-06T10:31:18Z</time></trkpt>
<trkpt lat="27.421792" lon="99.941983">
<time>2015-08-06T10:31:19Z</time></trkpt>
<trkpt lat="27.421782" lon="99.942143">
<time>2015-08-06T10:31:20Z</time></trkpt>
<trkpt lat="27.421722" lon="99.942282">
<time>2015-08-06T10:31:21Z</time></trkpt>
<trkpt lat="27.421561" lon="99.942352">
<time>2015-08-06T10:31:22Z</time></trkpt>
<trkpt lat="27.421382" lon="99.942342">
<time>2015-08-06T10:31:23Z</time></trkpt>
<trkpt lat="27.421192" lon="99.942372">
<time>2015-08-06T10:31:24Z</time></trkpt>
<trkpt lat="27.421001" lon="99.942452">
<time>2015-08-06T10:31:25Z</time></trkpt>
<trkpt lat="27.420851" lon="99.942572">
<time>2015-08-06T10:31:26Z</time></trkpt>
<trkpt lat="27.420731" lon="99.942682">
<time>2015-08-06T10:31:27Z</time></trkpt>
<trkpt lat="27.420591" lon="99.942811">
<time>2015-08-06T10:31:28Z</time></trkpt>
<trkpt lat="27.420531" lon="99.942951">
<time>2015-08-06T10:31:29Z</time></trkpt>
<trkpt lat="27.42042" lon="99.943171">
<time>2015-08-06T10:31:30Z</time></trkpt>
<trkpt lat="27.42032" lon="99.94343">
<time>2015-08-06T10:31:31Z</time></trkpt>
<trkpt lat="27.420219" lon="99.943719">
<time>2015-08-06T10:31:32Z</time></trkpt>
<trkpt lat="27.420189" lon="99.943979">
<time>2015-08-06T10:31:33Z</time></trkpt>
<trkpt lat="27.420168" lon="99.944228">
<time>2015-08-06T10:31:34Z</time></trkpt>
<trkpt lat="27.420098" lon="99.944438">
<time>2015-08-06T10:31:35Z</time></trkpt>
<trkpt lat="27.419997" lon="99.944598">
<time>2015-08-06T10:31:36Z</time></trkpt>
<trkpt lat="27.419837" lon="99.944757">
<time>2015-08-06T10:31:37Z</time></trkpt>
<trkpt lat="27.419657" lon="99.944877">
<time>2015-08-06T10:31:38Z</time></trkpt>
<trkpt lat="27.419507" lon="99.945017">
<time>2015-08-06T10:31:39Z</time></trkpt>
<trkpt lat="27.419376" lon="99.945216">
<time>2015-08-06T10:31:40Z</time></trkpt>
<trkpt lat="27.419276" lon="99.945416">
<time>2015-08-06T10:31:41Z</time></trkpt>
<trkpt lat="27.419216" lon="99.945566">
<time>2015-08-06T10:31:42Z</time></trkpt>
<trkpt lat="27.419165" lon="99.945765">
<time>2015-08-06T10:31:43Z</time></trkpt>
<trkpt lat="27.419165" lon="99.945915">
<time>2015-08-06T10:31:44Z</time></trkpt>
<trkpt lat="27.419135" lon="99.946065">
<time>2015-08-06T10:31:45Z</time></trkpt>
<trkpt lat="27.419125" lon="99.946194">
<time>2015-08-06T10:31:46Z</time></trkpt>
<trkpt lat="27.419104" lon="99.946314">
<time>2015-08-06T10:31:47Z</time></trkpt>
<trkpt lat="27.419104" lon="99.946424">
<time>2015-08-06T10:31:48Z</time></trkpt>
<trkpt lat="27.419084" lon="99.946603">
<time>2015-08-06T10:31:49Z</time></trkpt>
<trkpt lat="27.419033" lon="99.946833">
<time>2015-08-06T10:31:50Z</time></trkpt>
<trkpt lat="27.418973" lon="99.947072">
<time>2015-08-06T10:31:51Z</time></trkpt>
<trkpt lat="27.418922" lon="99.947292">
<time>2015-08-06T10:31:52Z</time></trkpt>
<trkpt lat="27.418862" lon="99.947511">
<time>2015-08-06T10:31:53Z</time></trkpt>
<trkpt lat="27.418821" lon="99.947751">
<time>2015-08-06T10:31:54Z</time></trkpt>
<trkpt lat="27.418761" lon="99.94801">
<time>2015-08-06T10:31:55Z</time></trkpt>
<trkpt lat="27.41872" lon="99.94822">
<time>2015-08-06T10:31:56Z</time></trkpt>
<trkpt lat="27.41867" lon="99.948419">
<time>2015-08-06T10:31:57Z</time></trkpt>
<trkpt lat="27.41861" lon="99.948579">
<time>2015-08-06T10:31:58Z</time></trkpt>
<trkpt lat="27.418489" lon="99.948749">
<time>2015-08-06T10:31:59Z</time></trkpt>
<trkpt lat="27.418349" lon="99.948868">
<time>2015-08-06T10:32:00Z</time></trkpt>
<trkpt lat="27.418169" lon="99.948978">
<time>2015-08-06T10:32:01Z</time></trkpt>
<trkpt lat="27.417999" lon="99.949098">
<time>2015-08-06T10:32:02Z</time></trkpt>
<trkpt lat="27.417839" lon="99.949178">
<time>2015-08-06T10:32:03Z</time></trkpt>
<trkpt lat="27.417698" lon="99.949277">
<time>2015-08-06T10:32:04Z</time></trkpt>
<trkpt lat="27.417578" lon="99.949427">
<time>2015-08-06T10:32:05Z</time></trkpt>
<trkpt lat="27.417498" lon="99.949597">
<time>2015-08-06T10:32:06Z</time></trkpt>
<trkpt lat="27.417447" lon="99.949756">
<time>2015-08-06T10:32:07Z</time></trkpt>
<trkpt lat="27.417297" lon="99.950006">
<time>2015-08-06T10:32:08Z</time></trkpt>
<trkpt lat="27.417126" lon="99.950245">
<time>2015-08-06T10:32:09Z</time></trkpt>
<trkpt lat="27.417016" lon="99.950405">
<time>2015-08-06T10:32:10Z</time></trkpt>
<trkpt lat="27.416906" lon="99.950534">
<time>2015-08-06T10:32:11Z</time></trkpt>
<trkpt lat="27.416746" lon="99.950684">
<time>2015-08-06T10:32:12Z</time></trkpt>
<trkpt lat="27.416686" lon="99.950724">
<time>2015-08-06T10:32:13Z</time></trkpt>
<trkpt lat="27.416585" lon="99.950814">
<time>2015-08-06T10:32:14Z</time></trkpt>
<trkpt lat="27.416415" lon="99.950964">
<time>2015-08-06T10:32:15Z</time></trkpt>
<trkpt lat="27.416235" lon="99.951113">
<time>2015-08-06T10:32:16Z</time></trkpt>
<trkpt lat="27.416025" lon="99.951193">
<time>2015-08-06T10:32:17Z</time></trkpt>
<trkpt lat="27.415805" lon="99.951203">
<time>2015-08-06T10:32:18Z</time></trkpt>
<trkpt lat="27.415615" lon="99.951173">
<time>2015-08-06T10:32:19Z</time></trkpt>
<trkpt lat="27.415545" lon="99.951163">
<time>2015-08-06T10:32:20Z</time></trkpt>
<trkpt lat="27.415325" lon="99.951173">
<time>2015-08-06T10:32:21Z</time></trkpt>
<trkpt lat="27.415105" lon="99.951153">
<time>2015-08-06T10:32:22Z</time></trkpt>
<trkpt lat="27.414885" lon="99.951093">
<time>2015-08-06T10:32:23Z</time></trkpt>
<trkpt lat="27.414625" lon="99.951063">
<time>2015-08-06T10:32:24Z</time></trkpt>
<trkpt lat="27.414415" lon="99.950993">
<time>2015-08-06T10:32:25Z</time></trkpt>
<trkpt lat="27.414205" lon="99.950934">
<time>2015-08-06T10:32:26Z</time></trkpt>
<trkpt lat="27.414016" lon="99.950794">
<time>2015-08-06T10:32:27Z</time></trkpt>
<trkpt lat="27.413856" lon="99.950674">
<time>2015-08-06T10:32:28Z</time></trkpt>
<trkpt lat="27.413706" lon="99.950565">
<time>2015-08-06T10:32:29Z</time></trkpt>
<trkpt lat="27.413546" lon="99.950515">
<time>2015-08-06T10:32:30Z</time></trkpt>
<trkpt lat="27.413376" lon="99.950525">
<time>2015-08-06T10:32:31Z</time></trkpt>
<trkpt lat="27.413246" lon="99.950525">
<time>2015-08-06T10:32:32Z</time></trkpt>
<trkpt lat="27.413146" lon="99.950555">
<time>2015-08-06T10:32:33Z</time></trkpt>
<trkpt lat="27.413016" lon="99.950574">
<time>2015-08-06T10:32:34Z</time></trkpt>
<trkpt lat="27.412906" lon="99.950604">
<time>2015-08-06T10:32:35Z</time></trkpt>
<trkpt lat="27.412806" lon="99.950654">
<time>2015-08-06T10:32:36Z</time></trkpt>
<trkpt lat="27.412646" lon="99.950784">
<time>2015-08-06T10:32:37Z</time></trkpt>
<trkpt lat="27.412546" lon="99.950894">
<time>2015-08-06T10:32:38Z</time></trkpt>
<trkpt lat="27.412365" lon="99.951043">
<time>2015-08-06T10:32:39Z</time></trkpt>
<trkpt lat="27.412245" lon="99.951173">
<time>2015-08-06T10:32:40Z</time></trkpt>
<trkpt lat="27.412105" lon="99.951273">
<time>2015-08-06T10:32:41Z</time></trkpt>
<trkpt lat="27.411925" lon="99.951353">
<time>2015-08-06T10:32:42Z</time></trkpt>
<trkpt lat="27.411775" lon="99.951373">
<time>2015-08-06T10:32:43Z</time></trkpt>
<trkpt lat="27.411625" lon="99.951373">
<time>2015-08-06T10:32:44Z</time></trkpt>
<trkpt lat="27.411495" lon="99.951373">
<time>2015-08-06T10:32:45Z</time></trkpt>
<trkpt lat="27.411255" lon="99.951313">
<time>2015-08-06T10:32:46Z</time></trkpt>
<trkpt lat="27.411045" lon="99.951193">
<time>2015-08-06T10:32:47Z</time></trkpt>
<trkpt lat="27.410866" lon="99.951023">
<time>2015-08-06T10:32:48Z</time></trkpt>
<trkpt lat="27.410706" lon="99.950814">
<time>2015-08-06T10:32:49Z</time></trkpt>
<trkpt lat="27.410536" lon="99.950644">
<time>2015-08-06T10:32:50Z</time></trkpt>
<trkpt lat="27.410347" lon="99.950475">
<time>2015-08-06T10:32:51Z</time></trkpt>
<trkpt lat="27.410187" lon="99.950315">
<time>2015-08-06T10:32:52Z</time></trkpt>
<trkpt lat="27.409987" lon="99.950185">
<time>2015-08-06T10:32:53Z</time></trkpt>
<trkpt lat="27.409798" lon="99.950156">
<time>2015-08-06T10:32:54Z</time></trkpt>
<trkpt lat="27.409598" lon="99.950166">
<time>2015-08-06T10:32:55Z</time></trkpt>
<trkpt lat="27.409387" lon="99.950205">
<time>2015-08-06T10:32:56Z</time></trkpt>
<trkpt lat="27.409197" lon="99.950235">
<time>2015-08-06T10:32:57Z</time></trkpt>
<trkpt lat="27.408997" lon="99.950245">
<time>2015-08-06T10:32:58Z</time></trkpt>
<trkpt lat="27.408797" lon="99.950245">
<time>2015-08-06T10:32:59Z</time></trkpt>
<trkpt lat="27.408658" lon="99.950215">
<time>2015-08-06T10:33:00Z</time></trkpt>
<trkpt lat="27.408538" lon="99.950116">
<time>2015-08-06T10:33:01Z</time></trkpt>
<trkpt lat="27.408388" lon="99.949976">
<time>2015-08-06T10:33:02Z</time></trkpt>
<trkpt lat="27.408248" lon="99.949826">
<time>2015-08-06T10:33:03Z</time></trkpt>
<trkpt lat="27.408119" lon="99.949687">
<time>2015-08-06T10:33:04Z</time></trkpt>
<trkpt lat="27.408009" lon="99.949517">
<time>2015-08-06T10:33:05Z</time></trkpt>
<trkpt lat="27.407889" lon="99.949328">
<time>2015-08-06T10:33:06Z</time></trkpt>
<trkpt lat="27.40772" lon="99.949168">
<time>2015-08-06T10:33:07Z</time></trkpt>
<trkpt lat="27.40753" lon="99.949078">
<time>2015-08-06T10:33:08Z</time></trkpt>
<trkpt lat="27.4073" lon="99.948978">
<time>2015-08-06T10:33:09Z</time></trkpt>
<trkpt lat="27.407101" lon="99.948869">
<time>2015-08-06T10:33:10Z</time></trkpt>
<trkpt lat="27.406911" lon="99.948769">
<time>2015-08-06T10:33:11Z</time></trkpt>
<trkpt lat="27.406761" lon="99.948669">
<time>2015-08-06T10:33:12Z</time></trkpt>
<trkpt lat="27.406611" lon="99.948579">
<time>2015-08-06T10:33:13Z</time></trkpt>
<trkpt lat="27.406461" lon="99.948519">
<time>2015-08-06T10:33:14Z</time></trkpt>
<trkpt lat="27.406322" lon="99.94841">
<time>2015-08-06T10:33:15Z</time></trkpt>
<trkpt lat="27.406182" lon="99.94829">
<time>2015-08-06T10:33:16Z</time></trkpt>
<trkpt lat="27.406092" lon="99.94816">
<time>2015-08-06T10:33:17Z</time></trkpt>
<trkpt lat="27.406003" lon="99.947901">
<time>2015-08-06T10:33:18Z</time></trkpt>
<trkpt lat="27.405903" lon="99.947621">
<time>2015-08-06T10:33:19Z</time></trkpt>
<trkpt lat="27.405804" lon="99.947382">
<time>2015-08-06T10:33:20Z</time></trkpt>
<trkpt lat="27.405704" lon="99.947152">
<time>2015-08-06T10:33:21Z</time></trkpt>
<trkpt lat="27.405585" lon="99.946923">
<time>2015-08-06T10:33:22Z</time></trkpt>
<trkpt lat="27.405415" lon="99.946733">
<time>2015-08-06T10:33:23Z</time></trkpt>
<trkpt lat="27.405265" lon="99.946584">
<time>2015-08-06T10:33:24Z</time></trkpt>
<trkpt lat="27.405106" lon="99.946444">
<time>2015-08-06T10:33:25Z</time></trkpt>
<trkpt lat="27.404936" lon="99.946294">
<time>2015-08-06T10:33:26Z</time></trkpt>
<trkpt lat="27.404766" lon="99.946175">
<time>2015-08-06T10:33:27Z</time></trkpt>
<trkpt lat="27.404626" lon="99.946055">
<time>2015-08-06T10:33:28Z</time></trkpt>
<trkpt lat="27.404437" lon="99.945925">
<time>2015-08-06T10:33:29Z</time></trkpt>
<trkpt lat="27.404247" lon="99.945805">
<time>2015-08-06T10:33:30Z</time></trkpt>
<trkpt lat="27.404057" lon="99.945676">
<time>2015-08-06T10:33:31Z</time></trkpt>
<trkpt lat="27.403878" lon="99.945566">
<time>2015-08-06T10:33:32Z</time></trkpt>
<trkpt lat="27.403688" lon="99.945456">
<time>2015-08-06T10:33:33Z</time></trkpt>
<trkpt lat="27.403478" lon="99.945346">
<time>2015-08-06T10:33:34Z</time></trkpt>
<trkpt lat="27.403228" lon="99.945237">
<time>2015-08-06T10:33:35Z</time></trkpt>
<trkpt lat="27.402969" lon="99.945127">
<time>2015-08-06T10:33:36Z</time></trkpt>
<trkpt lat="27.402769" lon="99.945047">
<time>2015-08-06T10:33:37Z</time></trkpt>
<trkpt lat="27.402589" lon="99.944967">
<time>2015-08-06T10:33:38Z</time></trkpt>
<trkpt lat="27.402339" lon="99.944887">
<time>2015-08-06T10:33:39Z</time></trkpt>
<trkpt lat="27.402109" lon="99.944828">
<time>2015-08-06T10:33:40Z</time></trkpt>
<trkpt lat="27.401879" lon="99.944758">
<time>2015-08-06T10:33:41Z</time></trkpt>
<trkpt lat="27.401639" lon="99.944698">
<time>2015-08-06T10:33:42Z</time></trkpt>
<trkpt lat="27.4014" lon="99.944648">
<time>2015-08-06T10:33:43Z</time></trkpt>
<trkpt lat="27.40107" lon="99.944618">
<time>2015-08-06T10:33:44Z</time></trkpt>
<trkpt lat="27.40083" lon="99.944588">
<time>2015-08-06T10:33:45Z</time></trkpt>
<trkpt lat="27.40077" lon="99.944588">
<time>2015-08-06T10:33:46Z</time></trkpt>
<trkpt lat="27.4005" lon="99.944628">
<time>2015-08-06T10:33:47Z</time></trkpt>
<trkpt lat="27.40017" lon="99.944718">
<time>2015-08-06T10:33:48Z</time></trkpt>
<trkpt lat="27.39991" lon="99.944788">
<time>2015-08-06T10:33:49Z</time></trkpt>
<trkpt lat="27.399659" lon="99.944897">
<time>2015-08-06T10:33:50Z</time></trkpt>
<trkpt lat="27.399429" lon="99.945017">
<time>2015-08-06T10:33:51Z</time></trkpt>
<trkpt lat="27.399199" lon="99.945127">
<time>2015-08-06T10:33:52Z</time></trkpt>
<trkpt lat="27.398979" lon="99.945247">
<time>2015-08-06T10:33:53Z</time></trkpt>
<trkpt lat="27.398809" lon="99.945376">
<time>2015-08-06T10:33:54Z</time></trkpt>
<trkpt lat="27.398578" lon="99.945496">
<time>2015-08-06T10:33:55Z</time></trkpt>
<trkpt lat="27.398308" lon="99.945566">
<time>2015-08-06T10:33:56Z</time></trkpt>
<trkpt lat="27.397998" lon="99.945636">
<time>2015-08-06T10:33:57Z</time></trkpt>
<trkpt lat="27.397658" lon="99.945706">
<time>2015-08-06T10:33:58Z</time></trkpt>
<trkpt lat="27.397398" lon="99.945756">
<time>2015-08-06T10:33:59Z</time></trkpt>
<trkpt lat="27.397158" lon="99.945786">
<time>2015-08-06T10:34:00Z</time></trkpt>
<trkpt lat="27.396968" lon="99.945786">
<time>2015-08-06T10:34:01Z</time></trkpt>
<trkpt lat="27.396778" lon="99.945816">
<time>2015-08-06T10:34:02Z</time></trkpt>
<trkpt lat="27.396598" lon="99.945865">
<time>2015-08-06T10:34:03Z</time></trkpt>
<trkpt lat="27.396418" lon="99.945925">
<time>2015-08-06T10:34:04Z</time></trkpt>
<trkpt lat="27.396268" lon="99.945985">
<time>2015-08-06T10:34:05Z</time></trkpt>
<trkpt lat="27.396098" lon="99.946085">
<time>2015-08-06T10:34:06Z</time></trkpt>
<trkpt lat="27.395907" lon="99.946185">
<time>2015-08-06T10:34:07Z</time></trkpt>
<trkpt lat="27.395727" lon="99.946295">
<time>2015-08-06T10:34:08Z</time></trkpt>
<trkpt lat="27.395587" lon="99.946394">
<time>2015-08-06T10:34:09Z</time></trkpt>
<trkpt lat="27.395447" lon="99.946504">
<time>2015-08-06T10:34:10Z</time></trkpt>
<trkpt lat="27.395387" lon="99.946544">
<time>2015-08-06T10:34:11Z</time></trkpt>
<trkpt lat="27.395277" lon="99.946624">
<time>2015-08-06T10:34:12Z</time></trkpt>
<trkpt lat="27.395116" lon="99.946744">
<time>2015-08-06T10:34:13Z</time></trkpt>
<trkpt lat="27.394966" lon="99.946863">
<time>2015-08-06T10:34:14Z</time></trkpt>
<trkpt lat="27.394816" lon="99.946963">
<time>2015-08-06T10:34:15Z</time></trkpt>
<trkpt lat="27.394656" lon="99.947063">
<time>2015-08-06T10:34:16Z</time></trkpt>
<trkpt lat="27.394486" lon="99.947183">
<time>2015-08-06T10:34:17Z</time></trkpt>
<trkpt lat="27.394355" lon="99.947262">
<time>2015-08-06T10:34:18Z</time></trkpt>
<trkpt lat="27.394215" lon="99.947362">
<time>2015-08-06T10:34:19Z</time></trkpt>
<trkpt lat="27.394055" lon="99.947442">
<time>2015-08-06T10:34:20Z</time></trkpt>
<trkpt lat="27.393865" lon="99.947482">
<time>2015-08-06T10:34:21Z</time></trkpt>
<trkpt lat="27.393695" lon="99.947502">
<time>2015-08-06T10:34:22Z</time></trkpt>
<trkpt lat="27.393515" lon="99.947542">
<time>2015-08-06T10:34:23Z</time></trkpt>
<trkpt lat="27.393365" lon="99.947662">
<time>2015-08-06T10:34:24Z</time></trkpt>
<trkpt lat="27.393254" lon="99.947841">
<time>2015-08-06T10:34:25Z</time></trkpt>
<trkpt lat="27.393184" lon="99.948041">
<time>2015-08-06T10:34:26Z</time></trkpt>
<trkpt lat="27.393084" lon="99.94823">
<time>2015-08-06T10:34:27Z</time></trkpt>
<trkpt lat="27.392943" lon="99.9484">
<time>2015-08-06T10:34:28Z</time></trkpt>
<trkpt lat="27.392833" lon="99.94854">
<time>2015-08-06T10:34:29Z</time></trkpt>
<trkpt lat="27.392743" lon="99.948669">
<time>2015-08-06T10:34:30Z</time></trkpt>
<trkpt lat="27.392632" lon="99.948839">
<time>2015-08-06T10:34:31Z</time></trkpt>
<trkpt lat="27.392532" lon="99.948969">
<time>2015-08-06T10:34:32Z</time></trkpt>
<trkpt lat="27.392402" lon="99.949128">
<time>2015-08-06T10:34:33Z</time></trkpt>
<trkpt lat="27.392302" lon="99.949268">
<time>2015-08-06T10:34:34Z</time></trkpt>
<trkpt lat="27.392231" lon="99.949338">
<time>2015-08-06T10:34:35Z</time></trkpt>
<trkpt lat="27.392131" lon="99.949408">
<time>2015-08-06T10:34:36Z</time></trkpt>
<trkpt lat="27.391901" lon="99.949617">
<time>2015-08-06T10:34:37Z</time></trkpt>
<trkpt lat="27.391751" lon="99.949747">
<time>2015-08-06T10:34:38Z</time></trkpt>
<trkpt lat="27.3916" lon="99.949887">
<time>2015-08-06T10:34:39Z</time></trkpt>
<trkpt lat="27.39148" lon="99.949986">
<time>2015-08-06T10:34:40Z</time></trkpt>
<trkpt lat="27.39135" lon="99.950106">
<time>2015-08-06T10:34:41Z</time></trkpt>
<trkpt lat="27.3912" lon="99.950236">
<time>2015-08-06T10:34:42Z</time></trkpt>
<trkpt lat="27.391049" lon="99.950366">
<time>2015-08-06T10:34:43Z</time></trkpt>
<trkpt lat="27.390899" lon="99.950505">
<time>2015-08-06T10:34:44Z</time></trkpt>
<trkpt lat="27.390739" lon="99.950645">
<time>2015-08-06T10:34:45Z</time></trkpt>
<trkpt lat="27.390579" lon="99.950814">
<time>2015-08-06T10:34:46Z</time></trkpt>
<trkpt lat="27.390428" lon="99.950924">
<time>2015-08-06T10:34:47Z</time></trkpt>
<trkpt lat="27.390208" lon="99.951044">
<time>2015-08-06T10:34:48Z</time></trkpt>
<trkpt lat="27.389998" lon="99.951164">
<time>2015-08-06T10:34:49Z</time></trkpt>
<trkpt lat="27.389828" lon="99.951303">
<time>2015-08-06T10:34:50Z</time></trkpt>
<trkpt lat="27.389687" lon="99.951413">
<time>2015-08-06T10:34:51Z</time></trkpt>
<trkpt lat="27.389527" lon="99.951523">
<time>2015-08-06T10:34:52Z</time></trkpt>
<trkpt lat="27.389417" lon="99.951623">
<time>2015-08-06T10:34:53Z</time></trkpt>
<trkpt lat="27.389287" lon="99.951722">
<time>2015-08-06T10:34:54Z</time></trkpt>
<trkpt lat="27.389137" lon="99.951852">
<time>2015-08-06T10:34:55Z</time></trkpt>
<trkpt lat="27.388946" lon="99.952002">
<time>2015-08-06T10:34:56Z</time></trkpt>
<trkpt lat="27.388756" lon="99.952131">
<time>2015-08-06T10:34:57Z</time></trkpt>
<trkpt lat="27.388556" lon="99.952261">
<time>2015-08-06T10:34:58Z</time></trkpt>
<trkpt lat="27.388355" lon="99.952401">
<time>2015-08-06T10:34:59Z</time></trkpt>
<trkpt lat="27.388155" lon="99.952501">
<time>2015-08-06T10:35:00Z</time></trkpt>
<trkpt lat="27.387945" lon="99.95257">
<time>2015-08-06T10:35:01Z</time></trkpt>
<trkpt lat="27.387745" lon="99.95263">
<time>2015-08-06T10:35:02Z</time></trkpt>
<trkpt lat="27.387535" lon="99.95266">
<time>2015-08-06T10:35:03Z</time></trkpt>
<trkpt lat="27.387325" lon="99.95266">
<time>2015-08-06T10:35:04Z</time></trkpt>
<trkpt lat="27.387145" lon="99.95267">
<time>2015-08-06T10:35:05Z</time></trkpt>
<trkpt lat="27.386985" lon="99.95268">
<time>2015-08-06T10:35:06Z</time></trkpt>
<trkpt lat="27.386835" lon="99.95266">
<time>2015-08-06T10:35:07Z</time></trkpt>
<trkpt lat="27.386715" lon="99.95264">
<time>2015-08-06T10:35:08Z</time></trkpt>
<trkpt lat="27.386615" lon="99.95263">
<time>2015-08-06T10:35:09Z</time></trkpt>
<trkpt lat="27.386475" lon="99.95263">
<time>2015-08-06T10:35:10Z</time></trkpt>
<trkpt lat="27.386345" lon="99.95266">
<time>2015-08-06T10:35:11Z</time></trkpt>
<trkpt lat="27.386175" lon="99.95272">
<time>2015-08-06T10:35:12Z</time></trkpt>
<trkpt lat="27.386015" lon="99.95279">
<time>2015-08-06T10:35:13Z</time></trkpt>
<trkpt lat="27.385855" lon="99.95286">
<time>2015-08-06T10:35:14Z</time></trkpt>
<trkpt lat="27.385705" lon="99.95292">
<time>2015-08-06T10:35:15Z</time></trkpt>
<trkpt lat="27.385565" lon="99.952969">
<time>2015-08-06T10:35:16Z</time></trkpt>
<trkpt lat="27.385424" lon="99.953019">
<time>2015-08-06T10:35:17Z</time></trkpt>
<trkpt lat="27.385274" lon="99.953059">
<time>2015-08-06T10:35:18Z</time></trkpt>
<trkpt lat="27.385124" lon="99.953109">
<time>2015-08-06T10:35:19Z</time></trkpt>
<trkpt lat="27.384954" lon="99.953169">
<time>2015-08-06T10:35:20Z</time></trkpt>
<trkpt lat="27.384794" lon="99.953239">
<time>2015-08-06T10:35:21Z</time></trkpt>
<trkpt lat="27.384634" lon="99.953279">
<time>2015-08-06T10:35:22Z</time></trkpt>
<trkpt lat="27.384474" lon="99.953329">
<time>2015-08-06T10:35:23Z</time></trkpt>
<trkpt lat="27.384214" lon="99.953408">
<time>2015-08-06T10:35:24Z</time></trkpt>
<trkpt lat="27.383974" lon="99.953488">
<time>2015-08-06T10:35:25Z</time></trkpt>
<trkpt lat="27.383804" lon="99.953538">
<time>2015-08-06T10:35:26Z</time></trkpt>
<trkpt lat="27.383594" lon="99.953568">
<time>2015-08-06T10:35:27Z</time></trkpt>
<trkpt lat="27.383444" lon="99.953578">
<time>2015-08-06T10:35:28Z</time></trkpt>
<trkpt lat="27.383244" lon="99.953578">
<time>2015-08-06T10:35:29Z</time></trkpt>
<trkpt lat="27.382994" lon="99.953598">
<time>2015-08-06T10:35:30Z</time></trkpt>
<trkpt lat="27.382744" lon="99.953618">
<time>2015-08-06T10:35:31Z</time></trkpt>
<trkpt lat="27.382493" lon="99.953658">
<time>2015-08-06T10:35:32Z</time></trkpt>
<trkpt lat="27.382243" lon="99.953718">
<time>2015-08-06T10:35:33Z</time></trkpt>
<trkpt lat="27.382003" lon="99.953748">
<time>2015-08-06T10:35:34Z</time></trkpt>
<trkpt lat="27.381763" lon="99.953768">
<time>2015-08-06T10:35:35Z</time></trkpt>
<trkpt lat="27.381523" lon="99.953768">
<time>2015-08-06T10:35:36Z</time></trkpt>
<trkpt lat="27.381283" lon="99.953768">
<time>2015-08-06T10:35:37Z</time></trkpt>
<trkpt lat="27.381043" lon="99.953768">
<time>2015-08-06T10:35:38Z</time></trkpt>
<trkpt lat="27.380803" lon="99.953768">
<time>2015-08-06T10:35:39Z</time></trkpt>
<trkpt lat="27.380554" lon="99.953738">
<time>2015-08-06T10:35:40Z</time></trkpt>
<trkpt lat="27.380324" lon="99.953748">
<time>2015-08-06T10:35:41Z</time></trkpt>
<trkpt lat="27.380084" lon="99.953748">
<time>2015-08-06T10:35:42Z</time></trkpt>
<trkpt lat="27.379864" lon="99.953728">
<time>2015-08-06T10:35:43Z</time></trkpt>
<trkpt lat="27.379654" lon="99.953728">
<time>2015-08-06T10:35:44Z</time></trkpt>
<trkpt lat="27.379454" lon="99.953698">
<time>2015-08-06T10:35:45Z</time></trkpt>
<trkpt lat="27.379274" lon="99.953668">
<time>2015-08-06T10:35:46Z</time></trkpt>
<trkpt lat="27.379104" lon="99.953598">
<time>2015-08-06T10:35:47Z</time></trkpt>
<trkpt lat="27.378954" lon="99.953498">
<time>2015-08-06T10:35:48Z</time></trkpt>
<trkpt lat="27.378805" lon="99.953409">
<time>2015-08-06T10:35:49Z</time></trkpt>
<trkpt lat="27.378645" lon="99.953339">
<time>2015-08-06T10:35:50Z</time></trkpt>
<trkpt lat="27.378485" lon="99.953299">
<time>2015-08-06T10:35:51Z</time></trkpt>
<trkpt lat="27.378315" lon="99.953289">
<time>2015-08-06T10:35:52Z</time></trkpt>
<trkpt lat="27.378155" lon="99.953329">
<time>2015-08-06T10:35:53Z</time></trkpt>
<trkpt lat="27.377985" lon="99.953369">
<time>2015-08-06T10:35:54Z</time></trkpt>
<trkpt lat="27.377825" lon="99.953389">
<time>2015-08-06T10:35:55Z</time></trkpt>
<trkpt lat="27.377655" lon="99.953429">
<time>2015-08-06T10:35:56Z</time></trkpt>
<trkpt lat="27.377495" lon="99.953518">
<time>2015-08-06T10:35:57Z</time></trkpt>
<trkpt lat="27.377384" lon="99.953668">
<time>2015-08-06T10:35:58Z</time></trkpt>
<trkpt lat="27.377294" lon="99.953867">
<time>2015-08-06T10:35:59Z</time></trkpt>
<trkpt lat="27.377203" lon="99.954087">
<time>2015-08-06T10:36:00Z</time></trkpt>
<trkpt lat="27.377093" lon="99.954256">
<time>2015-08-06T10:36:01Z</time></trkpt>
<trkpt lat="27.376932" lon="99.954466">
<time>2015-08-06T10:36:02Z</time></trkpt>
<trkpt lat="27.376802" lon="99.954576">
<time>2015-08-06T10:36:03Z</time></trkpt>
<trkpt lat="27.376632" lon="99.954685">
<time>2015-08-06T10:36:04Z</time></trkpt>
<trkpt lat="27.376502" lon="99.954815">
<time>2015-08-06T10:36:05Z</time></trkpt>
<trkpt lat="27.376372" lon="99.954905">
<time>2015-08-06T10:36:06Z</time></trkpt>
<trkpt lat="27.376271" lon="99.954995">
<time>2015-08-06T10:36:07Z</time></trkpt>
<trkpt lat="27.376161" lon="99.955094">
<time>2015-08-06T10:36:08Z</time></trkpt>
<trkpt lat="27.376051" lon="99.955184">
<time>2015-08-06T10:36:09Z</time></trkpt>
<trkpt lat="27.375961" lon="99.955244">
<time>2015-08-06T10:36:10Z</time></trkpt>
<trkpt lat="27.375861" lon="99.955314">
<time>2015-08-06T10:36:11Z</time></trkpt>
<trkpt lat="27.37575" lon="99.955414">
<time>2015-08-06T10:36:12Z</time></trkpt>
<trkpt lat="27.37564" lon="99.955493">
<time>2015-08-06T10:36:13Z</time></trkpt>
<trkpt lat="27.37552" lon="99.955583">
<time>2015-08-06T10:36:14Z</time></trkpt>
<trkpt lat="27.3754" lon="99.955673">
<time>2015-08-06T10:36:15Z</time></trkpt>
<trkpt lat="27.37522" lon="99.955823">
<time>2015-08-06T10:36:16Z</time></trkpt>
<trkpt lat="27.375089" lon="99.955902">
<time>2015-08-06T10:36:17Z</time></trkpt>
<trkpt lat="27.374959" lon="99.955982">
<time>2015-08-06T10:36:18Z</time></trkpt>
<trkpt lat="27.374859" lon="99.956092">
<time>2015-08-06T10:36:19Z</time></trkpt>
<trkpt lat="27.374769" lon="99.956232">
<time>2015-08-06T10:36:20Z</time></trkpt>
<trkpt lat="27.374698" lon="99.956401">
<time>2015-08-06T10:36:21Z</time></trkpt>
<trkpt lat="27.374638" lon="99.956571">
<time>2015-08-06T10:36:22Z</time></trkpt>
<trkpt lat="27.374588" lon="99.95675">
<time>2015-08-06T10:36:23Z</time></trkpt>
<trkpt lat="27.374537" lon="99.95694">
<time>2015-08-06T10:36:24Z</time></trkpt>
<trkpt lat="27.374507" lon="99.957109">
<time>2015-08-06T10:36:25Z</time></trkpt>
<trkpt lat="27.374496" lon="99.957289">
<time>2015-08-06T10:36:26Z</time></trkpt>
<trkpt lat="27.374466" lon="99.957458">
<time>2015-08-06T10:36:27Z</time></trkpt>
<trkpt lat="27.374445" lon="99.957688">
<time>2015-08-06T10:36:28Z</time></trkpt>
<trkpt lat="27.374435" lon="99.957897">
<time>2015-08-06T10:36:29Z</time></trkpt>
<trkpt lat="27.374414" lon="99.958067">
<time>2015-08-06T10:36:30Z</time></trkpt>
<trkpt lat="27.374394" lon="99.958226">
<time>2015-08-06T10:36:31Z</time></trkpt>
<trkpt lat="27.374384" lon="99.958396">
<time>2015-08-06T10:36:32Z</time></trkpt>
<trkpt lat="27.374403" lon="99.958536">
<time>2015-08-06T10:36:33Z</time></trkpt>
<trkpt lat="27.374413" lon="99.958695">
<time>2015-08-06T10:36:34Z</time></trkpt>
<trkpt lat="27.374433" lon="99.958825">
<time>2015-08-06T10:36:35Z</time></trkpt>
<trkpt lat="27.374442" lon="99.958945">
<time>2015-08-06T10:36:36Z</time></trkpt>
<trkpt lat="27.374452" lon="99.959084">
<time>2015-08-06T10:36:37Z</time></trkpt>
<trkpt lat="27.374472" lon="99.959234">
<time>2015-08-06T10:36:38Z</time></trkpt>
<trkpt lat="27.374511" lon="99.959423">
<time>2015-08-06T10:36:39Z</time></trkpt>
<trkpt lat="27.374541" lon="99.959603">
<time>2015-08-06T10:36:40Z</time></trkpt>
<trkpt lat="27.37459" lon="99.959812">
<time>2015-08-06T10:36:41Z</time></trkpt>
<trkpt lat="27.37463" lon="99.960042">
<time>2015-08-06T10:36:42Z</time></trkpt>
<trkpt lat="27.374699" lon="99.960281">
<time>2015-08-06T10:36:43Z</time></trkpt>
<trkpt lat="27.374758" lon="99.96053">
<time>2015-08-06T10:36:44Z</time></trkpt>
<trkpt lat="27.374828" lon="99.96077">
<time>2015-08-06T10:36:45Z</time></trkpt>
<trkpt lat="27.374877" lon="99.960969">
<time>2015-08-06T10:36:46Z</time></trkpt>
<trkpt lat="27.374947" lon="99.961228">
<time>2015-08-06T10:36:47Z</time></trkpt>
<trkpt lat="27.375006" lon="99.961428">
<time>2015-08-06T10:36:48Z</time></trkpt>
<trkpt lat="27.375056" lon="99.961667">
<time>2015-08-06T10:36:49Z</time></trkpt>
<trkpt lat="27.375115" lon="99.961906">
<time>2015-08-06T10:36:50Z</time></trkpt>
<trkpt lat="27.375134" lon="99.962136">
<time>2015-08-06T10:36:51Z</time></trkpt>
<trkpt lat="27.375134" lon="99.962365">
<time>2015-08-06T10:36:52Z</time></trkpt>
<trkpt lat="27.375123" lon="99.962595">
<time>2015-08-06T10:36:53Z</time></trkpt>
<trkpt lat="27.375113" lon="99.962814">
<time>2015-08-06T10:36:54Z</time></trkpt>
<trkpt lat="27.375042" lon="99.963043">
<time>2015-08-06T10:36:55Z</time></trkpt>
<trkpt lat="27.374972" lon="99.963233">
<time>2015-08-06T10:36:56Z</time></trkpt>
<trkpt lat="27.374911" lon="99.963412">
<time>2015-08-06T10:36:57Z</time></trkpt>
<trkpt lat="27.374831" lon="99.963592">
<time>2015-08-06T10:36:58Z</time></trkpt>
<trkpt lat="27.37474" lon="99.963761">
<time>2015-08-06T10:36:59Z</time></trkpt>
<trkpt lat="27.37464" lon="99.963921">
<time>2015-08-06T10:37:00Z</time></trkpt>
<trkpt lat="27.37452" lon="99.964021">
<time>2015-08-06T10:37:01Z</time></trkpt>
<trkpt lat="27.374389" lon="99.96415">
<time>2015-08-06T10:37:02Z</time></trkpt>
<trkpt lat="27.374259" lon="99.96428">
<time>2015-08-06T10:37:03Z</time></trkpt>
<trkpt lat="27.374129" lon="99.964429">
<time>2015-08-06T10:37:04Z</time></trkpt>
<trkpt lat="27.374048" lon="99.964559">
<time>2015-08-06T10:37:05Z</time></trkpt>
<trkpt lat="27.373978" lon="99.964669">
<time>2015-08-06T10:37:06Z</time></trkpt>
<trkpt lat="27.373868" lon="99.964818">
<time>2015-08-06T10:37:07Z</time></trkpt>
<trkpt lat="27.373737" lon="99.965068">
<time>2015-08-06T10:37:08Z</time></trkpt>
<trkpt lat="27.373667" lon="99.965257">
<time>2015-08-06T10:37:09Z</time></trkpt>
<trkpt lat="27.373596" lon="99.965417">
<time>2015-08-06T10:37:10Z</time></trkpt>
<trkpt lat="27.373506" lon="99.965586">
<time>2015-08-06T10:37:11Z</time></trkpt>
<trkpt lat="27.373425" lon="99.965776">
<time>2015-08-06T10:37:12Z</time></trkpt>
<trkpt lat="27.373345" lon="99.965975">
<time>2015-08-06T10:37:13Z</time></trkpt>
<trkpt lat="27.373254" lon="99.966165">
<time>2015-08-06T10:37:14Z</time></trkpt>
<trkpt lat="27.373194" lon="99.966324">
<time>2015-08-06T10:37:15Z</time></trkpt>
<trkpt lat="27.373084" lon="99.966524">
<time>2015-08-06T10:37:16Z</time></trkpt>
<trkpt lat="27.373013" lon="99.966713">
<time>2015-08-06T10:37:17Z</time></trkpt>
<trkpt lat="27.372933" lon="99.966892">
<time>2015-08-06T10:37:18Z</time></trkpt>
<trkpt lat="27.372852" lon="99.967082">
<time>2015-08-06T10:37:19Z</time></trkpt>
<trkpt lat="27.372781" lon="99.967321">
<time>2015-08-06T10:37:20Z</time></trkpt>
<trkpt lat="27.372741" lon="99.96758">
<time>2015-08-06T10:37:21Z</time></trkpt>
<trkpt lat="27.37269" lon="99.96779">
<time>2015-08-06T10:37:22Z</time></trkpt>
<trkpt lat="27.3726" lon="99.968009">
<time>2015-08-06T10:37:23Z</time></trkpt>
<trkpt lat="27.372519" lon="99.968229">
<time>2015-08-06T10:37:24Z</time></trkpt>
<trkpt lat="27.372399" lon="99.968408">
<time>2015-08-06T10:37:25Z</time></trkpt>
<trkpt lat="27.372218" lon="99.968518">
<time>2015-08-06T10:37:26Z</time></trkpt>
<trkpt lat="27.372098" lon="99.968598">
<time>2015-08-06T10:37:27Z</time></trkpt>
<trkpt lat="27.371988" lon="99.968657">
<time>2015-08-06T10:37:28Z</time></trkpt>
<trkpt lat="27.371978" lon="99.968667">
<time>2015-08-06T10:37:29Z</time></trkpt>
<trkpt lat="27.371868" lon="99.968727">
<time>2015-08-06T10:37:30Z</time></trkpt>
<trkpt lat="27.371728" lon="99.968797">
<time>2015-08-06T10:37:31Z</time></trkpt>
<trkpt lat="27.371557" lon="99.968897">
<time>2015-08-06T10:37:32Z</time></trkpt>
<trkpt lat="27.371387" lon="99.968986">
<time>2015-08-06T10:37:33Z</time></trkpt>
<trkpt lat="27.371257" lon="99.969056">
<time>2015-08-06T10:37:34Z</time></trkpt>
<trkpt lat="27.371107" lon="99.969096">
<time>2015-08-06T10:37:35Z</time></trkpt>
<trkpt lat="27.370967" lon="99.969166">
<time>2015-08-06T10:37:36Z</time></trkpt>
<trkpt lat="27.370807" lon="99.969236">
<time>2015-08-06T10:37:37Z</time></trkpt>
<trkpt lat="27.370637" lon="99.969315">
<time>2015-08-06T10:37:38Z</time></trkpt>
<trkpt lat="27.370446" lon="99.969395">
<time>2015-08-06T10:37:39Z</time></trkpt>
<trkpt lat="27.370276" lon="99.969475">
<time>2015-08-06T10:37:40Z</time></trkpt>
<trkpt lat="27.370106" lon="99.969545">
<time>2015-08-06T10:37:41Z</time></trkpt>
<trkpt lat="27.369926" lon="99.969634">
<time>2015-08-06T10:37:42Z</time></trkpt>
<trkpt lat="27.369726" lon="99.969734">
<time>2015-08-06T10:37:43Z</time></trkpt>
<trkpt lat="27.369585" lon="99.969794">
<time>2015-08-06T10:37:44Z</time></trkpt>
<trkpt lat="27.369405" lon="99.969874">
<time>2015-08-06T10:37:45Z</time></trkpt>
<trkpt lat="27.369215" lon="99.969993">
<time>2015-08-06T10:37:46Z</time></trkpt>
<trkpt lat="27.369015" lon="99.970103">
<time>2015-08-06T10:37:47Z</time></trkpt>
<trkpt lat="27.368825" lon="99.970133">
<time>2015-08-06T10:37:48Z</time></trkpt>
<trkpt lat="27.368645" lon="99.970103">
<time>2015-08-06T10:37:49Z</time></trkpt>
<trkpt lat="27.368455" lon="99.970063">
<time>2015-08-06T10:37:50Z</time></trkpt>
<trkpt lat="27.368295" lon="99.969993">
<time>2015-08-06T10:37:51Z</time></trkpt>
<trkpt lat="27.368155" lon="99.969904">
<time>2015-08-06T10:37:52Z</time></trkpt>
<trkpt lat="27.368036" lon="99.969824">
<time>2015-08-06T10:37:53Z</time></trkpt>
<trkpt lat="27.367936" lon="99.969734">
<time>2015-08-06T10:37:54Z</time></trkpt>
<trkpt lat="27.367846" lon="99.969674">
<time>2015-08-06T10:37:55Z</time></trkpt>
<trkpt lat="27.367746" lon="99.969595">
<time>2015-08-06T10:37:56Z</time></trkpt>
<trkpt lat="27.367406" lon="99.969515">
<time>2015-08-06T10:37:57Z</time></trkpt>
<trkpt lat="27.367097" lon="99.969286">
<time>2015-08-06T10:37:58Z</time></trkpt>
<trkpt lat="27.366888" lon="99.969106">
<time>2015-08-06T10:37:59Z</time></trkpt>
<trkpt lat="27.366718" lon="99.968967">
<time>2015-08-06T10:38:00Z</time></trkpt>
<trkpt lat="27.366628" lon="99.968927">
<time>2015-08-06T10:38:01Z</time></trkpt>
<trkpt lat="27.366578" lon="99.968897">
<time>2015-08-06T10:38:02Z</time></trkpt>
<trkpt lat="27.366478" lon="99.968867">
<time>2015-08-06T10:38:03Z</time></trkpt>
<trkpt lat="27.366338" lon="99.968867">
<time>2015-08-06T10:38:04Z</time></trkpt>
<trkpt lat="27.366168" lon="99.968897">
<time>2015-08-06T10:38:05Z</time></trkpt>
<trkpt lat="27.365978" lon="99.968937">
<time>2015-08-06T10:38:06Z</time></trkpt>
<trkpt lat="27.365828" lon="99.968957">
<time>2015-08-06T10:38:07Z</time></trkpt>
<trkpt lat="27.365738" lon="99.968957">
<time>2015-08-06T10:38:08Z</time></trkpt>
<trkpt lat="27.365638" lon="99.968947">
<time>2015-08-06T10:38:09Z</time></trkpt>
<trkpt lat="27.365498" lon="99.968907">
<time>2015-08-06T10:38:10Z</time></trkpt>
<trkpt lat="27.365289" lon="99.968827">
<time>2015-08-06T10:38:11Z</time></trkpt>
<trkpt lat="27.365179" lon="99.968767">
<time>2015-08-06T10:38:12Z</time></trkpt>
<trkpt lat="27.365119" lon="99.968727">
<time>2015-08-06T10:38:13Z</time></trkpt>
<trkpt lat="27.365039" lon="99.968667">
<time>2015-08-06T10:38:14Z</time></trkpt>
<trkpt lat="27.364929" lon="99.968558">
<time>2015-08-06T10:38:15Z</time></trkpt>
<trkpt lat="27.36481" lon="99.968458">
<time>2015-08-06T10:38:16Z</time></trkpt>
<trkpt lat="27.36462" lon="99.968299">
<time>2015-08-06T10:38:17Z</time></trkpt>
<trkpt lat="27.364431" lon="99.968169">
<time>2015-08-06T10:38:18Z</time></trkpt>
<trkpt lat="27.364341" lon="99.968109">
<time>2015-08-06T10:38:19Z</time></trkpt>
<trkpt lat="27.364191" lon="99.96798">
<time>2015-08-06T10:38:20Z</time></trkpt>
<trkpt lat="27.364071" lon="99.96785">
<time>2015-08-06T10:38:21Z</time></trkpt>
<trkpt lat="27.364012" lon="99.96778">
<time>2015-08-06T10:38:22Z</time></trkpt>
<trkpt lat="27.363942" lon="99.9677">
<time>2015-08-06T10:38:23Z</time></trkpt>
<trkpt lat="27.363912" lon="99.96767">
<time>2015-08-06T10:38:24Z</time></trkpt>
<trkpt lat="27.363862" lon="99.967641">
<time>2015-08-06T10:38:25Z</time></trkpt>
<trkpt lat="27.363772" lon="99.967611">
<time>2015-08-06T10:38:26Z</time></trkpt>
<trkpt lat="27.363642" lon="99.967601">
<time>2015-08-06T10:38:27Z</time></trkpt>
<trkpt lat="27.363542" lon="99.967601">
<time>2015-08-06T10:38:28Z</time></trkpt>
<trkpt lat="27.363482" lon="99.967581">
<time>2015-08-06T10:38:29Z</time></trkpt>
<trkpt lat="27.363422" lon="99.967561">
<time>2015-08-06T10:38:30Z</time></trkpt>
<trkpt lat="27.363342" lon="99.967531">
<time>2015-08-06T10:38:31Z</time></trkpt>
<trkpt lat="27.363273" lon="99.967481">
<time>2015-08-06T10:38:32Z</time></trkpt>
<trkpt lat="27.363133" lon="99.967421">
<time>2015-08-06T10:38:33Z</time></trkpt>
<trkpt lat="27.362993" lon="99.967391">
<time>2015-08-06T10:38:34Z</time></trkpt>
<trkpt lat="27.362673" lon="99.967292">
<time>2015-08-06T10:38:35Z</time></trkpt>
<trkpt lat="27.362503" lon="99.967212">
<time>2015-08-06T10:38:36Z</time></trkpt>
<trkpt lat="27.362433" lon="99.967162">
<time>2015-08-06T10:38:37Z</time></trkpt>
<trkpt lat="27.362384" lon="99.967112">
<time>2015-08-06T10:38:38Z</time></trkpt>
<trkpt lat="27.362354" lon="99.967082">
<time>2015-08-06T10:38:39Z</time></trkpt>
<trkpt lat="27.362324" lon="99.967032">
<time>2015-08-06T10:38:40Z</time></trkpt>
<trkpt lat="27.362334" lon="99.966943">
<time>2015-08-06T10:38:41Z</time></trkpt>
<trkpt lat="27.362364" lon="99.966863">
<time>2015-08-06T10:38:42Z</time></trkpt>
<trkpt lat="27.362415" lon="99.966683">
<time>2015-08-06T10:38:43Z</time></trkpt>
<trkpt lat="27.362385" lon="99.966564">
<time>2015-08-06T10:38:44Z</time></trkpt>
<trkpt lat="27.362345" lon="99.966484">
<time>2015-08-06T10:38:45Z</time></trkpt>
<trkpt lat="27.362236" lon="99.966225">
<time>2015-08-06T10:38:46Z</time></trkpt>
<trkpt lat="27.362136" lon="99.966045">
<time>2015-08-06T10:38:47Z</time></trkpt>
<trkpt lat="27.361967" lon="99.965886">
<time>2015-08-06T10:38:48Z</time></trkpt>
<trkpt lat="27.361777" lon="99.965776">
<time>2015-08-06T10:38:49Z</time></trkpt>
<trkpt lat="27.361428" lon="99.965537">
<time>2015-08-06T10:38:50Z</time></trkpt>
<trkpt lat="27.361138" lon="99.965337">
<time>2015-08-06T10:38:51Z</time></trkpt>
<trkpt lat="27.360879" lon="99.965128">
<time>2015-08-06T10:38:52Z</time></trkpt>
<trkpt lat="27.3606" lon="99.964669">
<time>2015-08-06T10:38:53Z</time></trkpt>
<trkpt lat="27.360481" lon="99.96444">
<time>2015-08-06T10:38:54Z</time></trkpt>
<trkpt lat="27.360351" lon="99.96428">
<time>2015-08-06T10:38:55Z</time></trkpt>
<trkpt lat="27.360252" lon="99.964101">
<time>2015-08-06T10:38:56Z</time></trkpt>
<trkpt lat="27.360182" lon="99.963921">
<time>2015-08-06T10:38:57Z</time></trkpt>
<trkpt lat="27.360113" lon="99.963752">
<time>2015-08-06T10:38:58Z</time></trkpt>
<trkpt lat="27.360033" lon="99.963592">
<time>2015-08-06T10:38:59Z</time></trkpt>
<trkpt lat="27.359944" lon="99.963433">
<time>2015-08-06T10:39:00Z</time></trkpt>
<trkpt lat="27.359874" lon="99.963263">
<time>2015-08-06T10:39:01Z</time></trkpt>
<trkpt lat="27.359854" lon="99.963074">
<time>2015-08-06T10:39:02Z</time></trkpt>
<trkpt lat="27.359835" lon="99.962904">
<time>2015-08-06T10:39:03Z</time></trkpt>
<trkpt lat="27.359815" lon="99.962735">
<time>2015-08-06T10:39:04Z</time></trkpt>
<trkpt lat="27.359806" lon="99.962525">
<time>2015-08-06T10:39:05Z</time></trkpt>
<trkpt lat="27.359806" lon="99.962336">
<time>2015-08-06T10:39:06Z</time></trkpt>
<trkpt lat="27.359807" lon="99.962146">
<time>2015-08-06T10:39:07Z</time></trkpt>
<trkpt lat="27.359837" lon="99.961967">
<time>2015-08-06T10:39:08Z</time></trkpt>
<trkpt lat="27.359908" lon="99.961817">
<time>2015-08-06T10:39:09Z</time></trkpt>
<trkpt lat="27.359918" lon="99.961658">
<time>2015-08-06T10:39:10Z</time></trkpt>
<trkpt lat="27.359878" lon="99.961468">
<time>2015-08-06T10:39:11Z</time></trkpt>
<trkpt lat="27.359799" lon="99.961289">
<time>2015-08-06T10:39:12Z</time></trkpt>
<trkpt lat="27.359739" lon="99.961109">
<time>2015-08-06T10:39:13Z</time></trkpt>
<trkpt lat="27.3597" lon="99.96093">
<time>2015-08-06T10:39:14Z</time></trkpt>
<trkpt lat="27.35969" lon="99.96074">
<time>2015-08-06T10:39:15Z</time></trkpt>
<trkpt lat="27.359621" lon="99.960511">
<time>2015-08-06T10:39:16Z</time></trkpt>
<trkpt lat="27.359481" lon="99.960381">
<time>2015-08-06T10:39:17Z</time></trkpt>
<trkpt lat="27.359341" lon="99.960291">
<time>2015-08-06T10:39:18Z</time></trkpt>
<trkpt lat="27.359222" lon="99.960162">
<time>2015-08-06T10:39:19Z</time></trkpt>
<trkpt lat="27.359092" lon="99.960022">
<time>2015-08-06T10:39:20Z</time></trkpt>
<trkpt lat="27.358993" lon="99.959862">
<time>2015-08-06T10:39:21Z</time></trkpt>
<trkpt lat="27.358903" lon="99.959653">
<time>2015-08-06T10:39:22Z</time></trkpt>
<trkpt lat="27.358864" lon="99.959444">
<time>2015-08-06T10:39:23Z</time></trkpt>
<trkpt lat="27.358814" lon="99.959224">
<time>2015-08-06T10:39:24Z</time></trkpt>
<trkpt lat="27.358745" lon="99.959045">
<time>2015-08-06T10:39:25Z</time></trkpt>
<trkpt lat="27.358625" lon="99.958905">
<time>2015-08-06T10:39:26Z</time></trkpt>
<trkpt lat="27.358485" lon="99.958785">
<time>2015-08-06T10:39:27Z</time></trkpt>
<trkpt lat="27.358316" lon="99.958656">
<time>2015-08-06T10:39:28Z</time></trkpt>
<trkpt lat="27.358146" lon="99.958536">
<time>2015-08-06T10:39:29Z</time></trkpt>
<trkpt lat="27.357996" lon="99.958396">
<time>2015-08-06T10:39:30Z</time></trkpt>
<trkpt lat="27.357867" lon="99.958247">
<time>2015-08-06T10:39:31Z</time></trkpt>
<trkpt lat="27.357787" lon="99.958077">
<time>2015-08-06T10:39:32Z</time></trkpt>
<trkpt lat="27.357697" lon="99.957918">
<time>2015-08-06T10:39:33Z</time></trkpt>
<trkpt lat="27.357618" lon="99.957748">
<time>2015-08-06T10:39:34Z</time></trkpt>
<trkpt lat="27.357538" lon="99.957588">
<time>2015-08-06T10:39:35Z</time></trkpt>
<trkpt lat="27.357449" lon="99.957429">
<time>2015-08-06T10:39:36Z</time></trkpt>
<trkpt lat="27.357329" lon="99.957309">
<time>2015-08-06T10:39:37Z</time></trkpt>
<trkpt lat="27.357159" lon="99.957229">
<time>2015-08-06T10:39:38Z</time></trkpt>
<trkpt lat="27.356979" lon="99.95718">
<time>2015-08-06T10:39:39Z</time></trkpt>
<trkpt lat="27.356789" lon="99.95714">
<time>2015-08-06T10:39:40Z</time></trkpt>
<trkpt lat="27.356589" lon="99.95713">
<time>2015-08-06T10:39:41Z</time></trkpt>
<trkpt lat="27.3564" lon="99.95707">
<time>2015-08-06T10:39:42Z</time></trkpt>
<trkpt lat="27.35623" lon="99.95698">
<time>2015-08-06T10:39:43Z</time></trkpt>
<trkpt lat="27.35608" lon="99.9569">
<time>2015-08-06T10:39:44Z</time></trkpt>
<trkpt lat="27.35593" lon="99.95684">
<time>2015-08-06T10:39:45Z</time></trkpt>
<trkpt lat="27.3558" lon="99.956771">
<time>2015-08-06T10:39:46Z</time></trkpt>
<trkpt lat="27.355651" lon="99.956731">
<time>2015-08-06T10:39:47Z</time></trkpt>
<trkpt lat="27.355511" lon="99.956741">
<time>2015-08-06T10:39:48Z</time></trkpt>
<trkpt lat="27.35537" lon="99.956811">
<time>2015-08-06T10:39:49Z</time></trkpt>
<trkpt lat="27.35522" lon="99.95688">
<time>2015-08-06T10:39:50Z</time></trkpt>
<trkpt lat="27.35509" lon="99.95694">
<time>2015-08-06T10:39:51Z</time></trkpt>
<trkpt lat="27.35493" lon="99.95699">
<time>2015-08-06T10:39:52Z</time></trkpt>
<trkpt lat="27.35478" lon="99.95704">
<time>2015-08-06T10:39:53Z</time></trkpt>
<trkpt lat="27.35461" lon="99.95713">
<time>2015-08-06T10:39:54Z</time></trkpt>
<trkpt lat="27.35445" lon="99.95719">
<time>2015-08-06T10:39:55Z</time></trkpt>
<trkpt lat="27.35429" lon="99.95721">
<time>2015-08-06T10:39:56Z</time></trkpt>
<trkpt lat="27.35412" lon="99.95722">
<time>2015-08-06T10:39:57Z</time></trkpt>
<trkpt lat="27.35394" lon="99.957229">
<time>2015-08-06T10:39:58Z</time></trkpt>
<trkpt lat="27.35378" lon="99.9572">
<time>2015-08-06T10:39:59Z</time></trkpt>
<trkpt lat="27.35341" lon="99.95714">
<time>2015-08-06T10:40:00Z</time></trkpt>
<trkpt lat="27.35315" lon="99.95709">
<time>2015-08-06T10:40:01Z</time></trkpt>
<trkpt lat="27.35302" lon="99.95704">
<time>2015-08-06T10:40:02Z</time></trkpt>
<trkpt lat="27.352791" lon="99.956841">
<time>2015-08-06T10:40:03Z</time></trkpt>
<trkpt lat="27.352611" lon="99.956721">
<time>2015-08-06T10:40:04Z</time></trkpt>
<trkpt lat="27.352431" lon="99.956571">
<time>2015-08-06T10:40:05Z</time></trkpt>
<trkpt lat="27.352242" lon="99.956452">
<time>2015-08-06T10:40:06Z</time></trkpt>
<trkpt lat="27.352152" lon="99.956402">
<time>2015-08-06T10:40:07Z</time></trkpt>
<trkpt lat="27.352052" lon="99.956382">
<time>2015-08-06T10:40:08Z</time></trkpt>
<trkpt lat="27.351882" lon="99.956352">
<time>2015-08-06T10:40:09Z</time></trkpt>
<trkpt lat="27.351752" lon="99.956372">
<time>2015-08-06T10:40:10Z</time></trkpt>
<trkpt lat="27.351602" lon="99.956432">
<time>2015-08-06T10:40:11Z</time></trkpt>
<trkpt lat="27.351392" lon="99.956481">
<time>2015-08-06T10:40:12Z</time></trkpt>
<trkpt lat="27.350692" lon="99.956551">
<time>2015-08-06T10:40:13Z</time></trkpt>
<trkpt lat="27.350472" lon="99.956581">
<time>2015-08-06T10:40:14Z</time></trkpt>
<trkpt lat="27.350282" lon="99.956631">
<time>2015-08-06T10:40:15Z</time></trkpt>
<trkpt lat="27.350082" lon="99.956621">
<time>2015-08-06T10:40:16Z</time></trkpt>
<trkpt lat="27.349892" lon="99.956631">
<time>2015-08-06T10:40:17Z</time></trkpt>
<trkpt lat="27.349742" lon="99.956601">
<time>2015-08-06T10:40:18Z</time></trkpt>
<trkpt lat="27.349542" lon="99.956591">
<time>2015-08-06T10:40:19Z</time></trkpt>
<trkpt lat="27.349362" lon="99.956561">
<time>2015-08-06T10:40:20Z</time></trkpt>
<trkpt lat="27.349092" lon="99.956482">
<time>2015-08-06T10:40:21Z</time></trkpt>
<trkpt lat="27.348782" lon="99.956432">
<time>2015-08-06T10:40:22Z</time></trkpt>
<trkpt lat="27.348503" lon="99.956352">
<time>2015-08-06T10:40:23Z</time></trkpt>
<trkpt lat="27.348293" lon="99.956322">
<time>2015-08-06T10:40:24Z</time></trkpt>
<trkpt lat="27.347903" lon="99.956302">
<time>2015-08-06T10:40:25Z</time></trkpt>
<trkpt lat="27.347533" lon="99.956292">
<time>2015-08-06T10:40:26Z</time></trkpt>
<trkpt lat="27.347093" lon="99.956372">
<time>2015-08-06T10:40:27Z</time></trkpt>
<trkpt lat="27.346953" lon="99.956392">
<time>2015-08-06T10:40:28Z</time></trkpt>
<trkpt lat="27.346693" lon="99.956382">
<time>2015-08-06T10:40:29Z</time></trkpt>
<trkpt lat="27.346213" lon="99.956332">
<time>2015-08-06T10:40:30Z</time></trkpt>
<trkpt lat="27.346013" lon="99.956302">
<time>2015-08-06T10:40:31Z</time></trkpt>
<trkpt lat="27.345823" lon="99.956232">
<time>2015-08-06T10:40:32Z</time></trkpt>
<trkpt lat="27.345674" lon="99.956123">
<time>2015-08-06T10:40:33Z</time></trkpt>
<trkpt lat="27.345554" lon="99.955963">
<time>2015-08-06T10:40:34Z</time></trkpt>
<trkpt lat="27.345424" lon="99.955813">
<time>2015-08-06T10:40:35Z</time></trkpt>
<trkpt lat="27.345285" lon="99.955674">
<time>2015-08-06T10:40:36Z</time></trkpt>
<trkpt lat="27.345105" lon="99.955594">
<time>2015-08-06T10:40:37Z</time></trkpt>
<trkpt lat="27.344905" lon="99.955574">
<time>2015-08-06T10:40:38Z</time></trkpt>
<trkpt lat="27.344705" lon="99.955594">
<time>2015-08-06T10:40:39Z</time></trkpt>
<trkpt lat="27.344485" lon="99.955604">
<time>2015-08-06T10:40:40Z</time></trkpt>
<trkpt lat="27.344245" lon="99.955644">
<time>2015-08-06T10:40:41Z</time></trkpt>
<trkpt lat="27.344025" lon="99.955694">
<time>2015-08-06T10:40:42Z</time></trkpt>
<trkpt lat="27.343805" lon="99.955773">
<time>2015-08-06T10:40:43Z</time></trkpt>
<trkpt lat="27.343615" lon="99.955863">
<time>2015-08-06T10:40:44Z</time></trkpt>
<trkpt lat="27.343464" lon="99.955933">
<time>2015-08-06T10:40:45Z</time></trkpt>
<trkpt lat="27.343324" lon="99.955993">
<time>2015-08-06T10:40:46Z</time></trkpt>
<trkpt lat="27.343184" lon="99.956093">
<time>2015-08-06T10:40:47Z</time></trkpt>
<trkpt lat="27.343014" lon="99.956272">
<time>2015-08-06T10:40:48Z</time></trkpt>
<trkpt lat="27.342883" lon="99.956452">
<time>2015-08-06T10:40:49Z</time></trkpt>
<trkpt lat="27.342783" lon="99.956601">
<time>2015-08-06T10:40:50Z</time></trkpt>
<trkpt lat="27.342673" lon="99.956771">
<time>2015-08-06T10:40:51Z</time></trkpt>
<trkpt lat="27.342582" lon="99.956941">
<time>2015-08-06T10:40:52Z</time></trkpt>
<trkpt lat="27.342482" lon="99.95711">
<time>2015-08-06T10:40:53Z</time></trkpt>
<trkpt lat="27.342381" lon="99.95726">
<time>2015-08-06T10:40:54Z</time></trkpt>
<trkpt lat="27.342221" lon="99.957359">
<time>2015-08-06T10:40:55Z</time></trkpt>
<trkpt lat="27.342061" lon="99.957409">
<time>2015-08-06T10:40:56Z</time></trkpt>
<trkpt lat="27.341891" lon="99.957459">
<time>2015-08-06T10:40:57Z</time></trkpt>
<trkpt lat="27.341741" lon="99.957519">
<time>2015-08-06T10:40:58Z</time></trkpt>
<trkpt lat="27.341571" lon="99.957589">
<time>2015-08-06T10:40:59Z</time></trkpt>
<trkpt lat="27.341411" lon="99.957639">
<time>2015-08-06T10:41:00Z</time></trkpt>
<trkpt lat="27.341281" lon="99.957699">
<time>2015-08-06T10:41:01Z</time></trkpt>
<trkpt lat="27.341121" lon="99.957748">
<time>2015-08-06T10:41:02Z</time></trkpt>
<trkpt lat="27.34097" lon="99.957798">
<time>2015-08-06T10:41:03Z</time></trkpt>
<trkpt lat="27.34083" lon="99.957848">
<time>2015-08-06T10:41:04Z</time></trkpt>
<trkpt lat="27.34068" lon="99.957908">
<time>2015-08-06T10:41:05Z</time></trkpt>
<trkpt lat="27.34049" lon="99.957958">
<time>2015-08-06T10:41:06Z</time></trkpt>
<trkpt lat="27.34033" lon="99.958008">
<time>2015-08-06T10:41:07Z</time></trkpt>
<trkpt lat="27.34017" lon="99.958068">
<time>2015-08-06T10:41:08Z</time></trkpt>
<trkpt lat="27.34" lon="99.958118">
<time>2015-08-06T10:41:09Z</time></trkpt>
<trkpt lat="27.33984" lon="99.958167">
<time>2015-08-06T10:41:10Z</time></trkpt>
<trkpt lat="27.33968" lon="99.958207">
<time>2015-08-06T10:41:11Z</time></trkpt>
<trkpt lat="27.339469" lon="99.958317">
<time>2015-08-06T10:41:12Z</time></trkpt>
<trkpt lat="27.339339" lon="99.958467">
<time>2015-08-06T10:41:13Z</time></trkpt>
<trkpt lat="27.339259" lon="99.958636">
<time>2015-08-06T10:41:14Z</time></trkpt>
<trkpt lat="27.339208" lon="99.958796">
<time>2015-08-06T10:41:15Z</time></trkpt>
<trkpt lat="27.339148" lon="99.958975">
<time>2015-08-06T10:41:16Z</time></trkpt>
<trkpt lat="27.339088" lon="99.959165">
<time>2015-08-06T10:41:17Z</time></trkpt>
<trkpt lat="27.339027" lon="99.959354">
<time>2015-08-06T10:41:18Z</time></trkpt>
<trkpt lat="27.338967" lon="99.959534">
<time>2015-08-06T10:41:19Z</time></trkpt>
<trkpt lat="27.338916" lon="99.959693">
<time>2015-08-06T10:41:20Z</time></trkpt>
<trkpt lat="27.338786" lon="99.959923">
<time>2015-08-06T10:41:21Z</time></trkpt>
<trkpt lat="27.338685" lon="99.960082">
<time>2015-08-06T10:41:22Z</time></trkpt>
<trkpt lat="27.338575" lon="99.960232">
<time>2015-08-06T10:41:23Z</time></trkpt>
<trkpt lat="27.338435" lon="99.960352">
<time>2015-08-06T10:41:24Z</time></trkpt>
<trkpt lat="27.338174" lon="99.960651">
<time>2015-08-06T10:41:25Z</time></trkpt>
<trkpt lat="27.338014" lon="99.96086">
<time>2015-08-06T10:41:26Z</time></trkpt>
<trkpt lat="27.336018" lon="99.963084">
<time>2015-08-06T10:41:27Z</time></trkpt>
<trkpt lat="27.336018" lon="99.963084">
<time>2015-08-06T10:41:28Z</time></trkpt>
<trkpt lat="27.336295" lon="99.964351">
<time>2015-08-06T10:41:29Z</time></trkpt>
<trkpt lat="27.336374" lon="99.96468">
<time>2015-08-06T10:41:30Z</time></trkpt>
<trkpt lat="27.336454" lon="99.964959">
<time>2015-08-06T10:41:31Z</time></trkpt>
<trkpt lat="27.336533" lon="99.965338">
<time>2015-08-06T10:41:32Z</time></trkpt>
<trkpt lat="27.336552" lon="99.965408">
<time>2015-08-06T10:41:33Z</time></trkpt>
<trkpt lat="27.336632" lon="99.965627">
<time>2015-08-06T10:41:34Z</time></trkpt>
<trkpt lat="27.336721" lon="99.965836">
<time>2015-08-06T10:41:35Z</time></trkpt>
<trkpt lat="27.33686" lon="99.966106">
<time>2015-08-06T10:41:36Z</time></trkpt>
<trkpt lat="27.33696" lon="99.966325">
<time>2015-08-06T10:41:37Z</time></trkpt>
<trkpt lat="27.337019" lon="99.966485">
<time>2015-08-06T10:41:38Z</time></trkpt>
<trkpt lat="27.337059" lon="99.966684">
<time>2015-08-06T10:41:39Z</time></trkpt>
<trkpt lat="27.337069" lon="99.966843">
<time>2015-08-06T10:41:40Z</time></trkpt>
<trkpt lat="27.337068" lon="99.966993">
<time>2015-08-06T10:41:41Z</time></trkpt>
<trkpt lat="27.337038" lon="99.967153">
<time>2015-08-06T10:41:42Z</time></trkpt>
<trkpt lat="27.336957" lon="99.967402">
<time>2015-08-06T10:41:43Z</time></trkpt>
<trkpt lat="27.336846" lon="99.967701">
<time>2015-08-06T10:41:44Z</time></trkpt>
<trkpt lat="27.336715" lon="99.96804">
<time>2015-08-06T10:41:45Z</time></trkpt>
<trkpt lat="27.336625" lon="99.968339">
<time>2015-08-06T10:41:46Z</time></trkpt>
<trkpt lat="27.336594" lon="99.968499">
<time>2015-08-06T10:41:47Z</time></trkpt>
<trkpt lat="27.336584" lon="99.968618">
<time>2015-08-06T10:41:48Z</time></trkpt>
<trkpt lat="27.336594" lon="99.968748">
<time>2015-08-06T10:41:49Z</time></trkpt>
<trkpt lat="27.336613" lon="99.968888">
<time>2015-08-06T10:41:50Z</time></trkpt>
<trkpt lat="27.336653" lon="99.969037">
<time>2015-08-06T10:41:51Z</time></trkpt>
<trkpt lat="27.336722" lon="99.969246">
<time>2015-08-06T10:41:52Z</time></trkpt>
<trkpt lat="27.336792" lon="99.969356">
<time>2015-08-06T10:41:53Z</time></trkpt>
<trkpt lat="27.336891" lon="99.969615">
<time>2015-08-06T10:41:54Z</time></trkpt>
<trkpt lat="27.33695" lon="99.969895">
<time>2015-08-06T10:41:55Z</time></trkpt>
<trkpt lat="27.33699" lon="99.970144">
<time>2015-08-06T10:41:56Z</time></trkpt>
<trkpt lat="27.337009" lon="99.970303">
<time>2015-08-06T10:41:57Z</time></trkpt>
<trkpt lat="27.337029" lon="99.970493">
<time>2015-08-06T10:41:58Z</time></trkpt>
<trkpt lat="27.337077" lon="99.970971">
<time>2015-08-06T10:41:59Z</time></trkpt>
<trkpt lat="27.337097" lon="99.971121">
<time>2015-08-06T10:42:00Z</time></trkpt>
<trkpt lat="27.337147" lon="99.97126">
<time>2015-08-06T10:42:01Z</time></trkpt>
<trkpt lat="27.337455" lon="99.971849">
<time>2015-08-06T10:42:02Z</time></trkpt>
<trkpt lat="27.337763" lon="99.972437">
<time>2015-08-06T10:42:03Z</time></trkpt>
<trkpt lat="27.337932" lon="99.972806">
<time>2015-08-06T10:42:04Z</time></trkpt>
<trkpt lat="27.338091" lon="99.973135">
<time>2015-08-06T10:42:05Z</time></trkpt>
<trkpt lat="27.3383" lon="99.973623">
<time>2015-08-06T10:42:06Z</time></trkpt>
<trkpt lat="27.338369" lon="99.973823">
<time>2015-08-06T10:42:07Z</time></trkpt>
<trkpt lat="27.338508" lon="99.974152">
<time>2015-08-06T10:42:08Z</time></trkpt>
<trkpt lat="27.338677" lon="99.97466">
<time>2015-08-06T10:42:09Z</time></trkpt>
<trkpt lat="27.338736" lon="99.974899">
<time>2015-08-06T10:42:10Z</time></trkpt>
<trkpt lat="27.338756" lon="99.975099">
<time>2015-08-06T10:42:11Z</time></trkpt>
<trkpt lat="27.338755" lon="99.975268">
<time>2015-08-06T10:42:12Z</time></trkpt>
<trkpt lat="27.338735" lon="99.975428">
<time>2015-08-06T10:42:13Z</time></trkpt>
<trkpt lat="27.338694" lon="99.975617">
<time>2015-08-06T10:42:14Z</time></trkpt>
<trkpt lat="27.338604" lon="99.975836">
<time>2015-08-06T10:42:15Z</time></trkpt>
<trkpt lat="27.338493" lon="99.976096">
<time>2015-08-06T10:42:16Z</time></trkpt>
<trkpt lat="27.338393" lon="99.976245">
<time>2015-08-06T10:42:17Z</time></trkpt>
<trkpt lat="27.338372" lon="99.976285">
<time>2015-08-06T10:42:18Z</time></trkpt>
<trkpt lat="27.338202" lon="99.976464">
<time>2015-08-06T10:42:19Z</time></trkpt>
<trkpt lat="27.337691" lon="99.976903">
<time>2015-08-06T10:42:20Z</time></trkpt>
<trkpt lat="27.337571" lon="99.977023">
<time>2015-08-06T10:42:21Z</time></trkpt>
<trkpt lat="27.33741" lon="99.977192">
<time>2015-08-06T10:42:22Z</time></trkpt>
<trkpt lat="27.33728" lon="99.977352">
<time>2015-08-06T10:42:23Z</time></trkpt>
<trkpt lat="27.337189" lon="99.977521">
<time>2015-08-06T10:42:24Z</time></trkpt>
<trkpt lat="27.337129" lon="99.97772">
<time>2015-08-06T10:42:25Z</time></trkpt>
<trkpt lat="27.337128" lon="99.97792">
<time>2015-08-06T10:42:26Z</time></trkpt>
<trkpt lat="27.337127" lon="99.978119">
<time>2015-08-06T10:42:27Z</time></trkpt>
<trkpt lat="27.337157" lon="99.978378">
<time>2015-08-06T10:42:28Z</time></trkpt>
<trkpt lat="27.337206" lon="99.978588">
<time>2015-08-06T10:42:29Z</time></trkpt>
<trkpt lat="27.337265" lon="99.978996">
<time>2015-08-06T10:42:30Z</time></trkpt>
<trkpt lat="27.337314" lon="99.979325">
<time>2015-08-06T10:42:31Z</time></trkpt>
<trkpt lat="27.337333" lon="99.979634">
<time>2015-08-06T10:42:32Z</time></trkpt>
<trkpt lat="27.337352" lon="99.980093">
<time>2015-08-06T10:42:33Z</time></trkpt>
<trkpt lat="27.33736" lon="99.980591">
<time>2015-08-06T10:42:34Z</time></trkpt>
<trkpt lat="27.337369" lon="99.98109">
<time>2015-08-06T10:42:35Z</time></trkpt>
<trkpt lat="27.337337" lon="99.981768">
<time>2015-08-06T10:42:36Z</time></trkpt>
<trkpt lat="27.337266" lon="99.982166">
<time>2015-08-06T10:42:37Z</time></trkpt>
<trkpt lat="27.337134" lon="99.982595">
<time>2015-08-06T10:42:38Z</time></trkpt>
<trkpt lat="27.336963" lon="99.982984">
<time>2015-08-06T10:42:39Z</time></trkpt>
<trkpt lat="27.336742" lon="99.983442">
<time>2015-08-06T10:42:40Z</time></trkpt>
<trkpt lat="27.336571" lon="99.983941">
<time>2015-08-06T10:42:41Z</time></trkpt>
<trkpt lat="27.336408" lon="99.984718">
<time>2015-08-06T10:42:42Z</time></trkpt>
<trkpt lat="27.336287" lon="99.985047">
<time>2015-08-06T10:42:43Z</time></trkpt>
<trkpt lat="27.336257" lon="99.985157">
<time>2015-08-06T10:42:44Z</time></trkpt>
<trkpt lat="27.336126" lon="99.985366">
<time>2015-08-06T10:42:45Z</time></trkpt>
<trkpt lat="27.335996" lon="99.985515">
<time>2015-08-06T10:42:46Z</time></trkpt>
<trkpt lat="27.335986" lon="99.985535">
<time>2015-08-06T10:42:47Z</time></trkpt>
<trkpt lat="27.335866" lon="99.985645">
<time>2015-08-06T10:42:48Z</time></trkpt>
<trkpt lat="27.335515" lon="99.985894">
<time>2015-08-06T10:42:49Z</time></trkpt>
<trkpt lat="27.335114" lon="99.986163">
<time>2015-08-06T10:42:50Z</time></trkpt>
<trkpt lat="27.334694" lon="99.986442">
<time>2015-08-06T10:42:51Z</time></trkpt>
<trkpt lat="27.334503" lon="99.986562">
<time>2015-08-06T10:42:52Z</time></trkpt>
<trkpt lat="27.334343" lon="99.986622">
<time>2015-08-06T10:42:53Z</time></trkpt>
<trkpt lat="27.334153" lon="99.986672">
<time>2015-08-06T10:42:54Z</time></trkpt>
<trkpt lat="27.333983" lon="99.986682">
<time>2015-08-06T10:42:55Z</time></trkpt>
<trkpt lat="27.333803" lon="99.986652">
<time>2015-08-06T10:42:56Z</time></trkpt>
<trkpt lat="27.333553" lon="99.986582">
<time>2015-08-06T10:42:57Z</time></trkpt>
<trkpt lat="27.333354" lon="99.986492">
<time>2015-08-06T10:42:58Z</time></trkpt>
<trkpt lat="27.333184" lon="99.986403">
<time>2015-08-06T10:42:59Z</time></trkpt>
<trkpt lat="27.333024" lon="99.986313">
<time>2015-08-06T10:43:00Z</time></trkpt>
<trkpt lat="27.332904" lon="99.986273">
<time>2015-08-06T10:43:01Z</time></trkpt>
<trkpt lat="27.332774" lon="99.986253">
<time>2015-08-06T10:43:02Z</time></trkpt>
<trkpt lat="27.332644" lon="99.986243">
<time>2015-08-06T10:43:03Z</time></trkpt>
<trkpt lat="27.332505" lon="99.986243">
<time>2015-08-06T10:43:04Z</time></trkpt>
<trkpt lat="27.332354" lon="99.986263">
<time>2015-08-06T10:43:05Z</time></trkpt>
<trkpt lat="27.332204" lon="99.986323">
<time>2015-08-06T10:43:06Z</time></trkpt>
<trkpt lat="27.332054" lon="99.986403">
<time>2015-08-06T10:43:07Z</time></trkpt>
<trkpt lat="27.331864" lon="99.986522">
<time>2015-08-06T10:43:08Z</time></trkpt>
<trkpt lat="27.331553" lon="99.986761">
<time>2015-08-06T10:43:09Z</time></trkpt>
<trkpt lat="27.331433" lon="99.986851">
<time>2015-08-06T10:43:10Z</time></trkpt>
<trkpt lat="27.331303" lon="99.986911">
<time>2015-08-06T10:43:11Z</time></trkpt>
<trkpt lat="27.331173" lon="99.986971">
<time>2015-08-06T10:43:12Z</time></trkpt>
<trkpt lat="27.331023" lon="99.987001">
<time>2015-08-06T10:43:13Z</time></trkpt>
<trkpt lat="27.330893" lon="99.987001">
<time>2015-08-06T10:43:14Z</time></trkpt>
<trkpt lat="27.330743" lon="99.986971">
<time>2015-08-06T10:43:15Z</time></trkpt>
<trkpt lat="27.330613" lon="99.986941">
<time>2015-08-06T10:43:16Z</time></trkpt>
<trkpt lat="27.330483" lon="99.986891">
<time>2015-08-06T10:43:17Z</time></trkpt>
<trkpt lat="27.330313" lon="99.986801">
<time>2015-08-06T10:43:18Z</time></trkpt>
<trkpt lat="27.330124" lon="99.986682">
<time>2015-08-06T10:43:19Z</time></trkpt>
<trkpt lat="27.329834" lon="99.986562">
<time>2015-08-06T10:43:20Z</time></trkpt>
<trkpt lat="27.329684" lon="99.986522">
<time>2015-08-06T10:43:21Z</time></trkpt>
<trkpt lat="27.329574" lon="99.986512">
<time>2015-08-06T10:43:22Z</time></trkpt>
<trkpt lat="27.329464" lon="99.986512">
<time>2015-08-06T10:43:23Z</time></trkpt>
<trkpt lat="27.329344" lon="99.986532">
<time>2015-08-06T10:43:24Z</time></trkpt>
<trkpt lat="27.329174" lon="99.986572">
<time>2015-08-06T10:43:25Z</time></trkpt>
<trkpt lat="27.328944" lon="99.986652">
<time>2015-08-06T10:43:26Z</time></trkpt>
<trkpt lat="27.328724" lon="99.986742">
<time>2015-08-06T10:43:27Z</time></trkpt>
<trkpt lat="27.328594" lon="99.986801">
<time>2015-08-06T10:43:28Z</time></trkpt>
<trkpt lat="27.328433" lon="99.986861">
<time>2015-08-06T10:43:29Z</time></trkpt>
<trkpt lat="27.328313" lon="99.986881">
<time>2015-08-06T10:43:30Z</time></trkpt>
<trkpt lat="27.328183" lon="99.986891">
<time>2015-08-06T10:43:31Z</time></trkpt>
<trkpt lat="27.328073" lon="99.986881">
<time>2015-08-06T10:43:32Z</time></trkpt>
<trkpt lat="27.327943" lon="99.986861">
<time>2015-08-06T10:43:33Z</time></trkpt>
<trkpt lat="27.327804" lon="99.986831">
<time>2015-08-06T10:43:34Z</time></trkpt>
<trkpt lat="27.327684" lon="99.986781">
<time>2015-08-06T10:43:35Z</time></trkpt>
<trkpt lat="27.327564" lon="99.986712">
<time>2015-08-06T10:43:36Z</time></trkpt>
<trkpt lat="27.327374" lon="99.986572">
<time>2015-08-06T10:43:37Z</time></trkpt>
<trkpt lat="27.327135" lon="99.986403">
<time>2015-08-06T10:43:38Z</time></trkpt>
<trkpt lat="27.326965" lon="99.986313">
<time>2015-08-06T10:43:39Z</time></trkpt>
<trkpt lat="27.326865" lon="99.986283">
<time>2015-08-06T10:43:40Z</time></trkpt>
<trkpt lat="27.326745" lon="99.986263">
<time>2015-08-06T10:43:41Z</time></trkpt>
<trkpt lat="27.326616" lon="99.986263">
<time>2015-08-06T10:43:42Z</time></trkpt>
<trkpt lat="27.326475" lon="99.986293">
<time>2015-08-06T10:43:43Z</time></trkpt>
<trkpt lat="27.326325" lon="99.986363">
<time>2015-08-06T10:43:44Z</time></trkpt>
<trkpt lat="27.326035" lon="99.986532">
<time>2015-08-06T10:43:45Z</time></trkpt>
<trkpt lat="27.325644" lon="99.986772">
<time>2015-08-06T10:43:46Z</time></trkpt>
<trkpt lat="27.325494" lon="99.986861">
<time>2015-08-06T10:43:47Z</time></trkpt>
<trkpt lat="27.325364" lon="99.986941">
<time>2015-08-06T10:43:48Z</time></trkpt>
<trkpt lat="27.325204" lon="99.987001">
<time>2015-08-06T10:43:49Z</time></trkpt>
<trkpt lat="27.325043" lon="99.987051">
<time>2015-08-06T10:43:50Z</time></trkpt>
<trkpt lat="27.324913" lon="99.987081">
<time>2015-08-06T10:43:51Z</time></trkpt>
<trkpt lat="27.324763" lon="99.9871">
<time>2015-08-06T10:43:52Z</time></trkpt>
<trkpt lat="27.324573" lon="99.98712">
<time>2015-08-06T10:43:53Z</time></trkpt>
<trkpt lat="27.324213" lon="99.98712">
<time>2015-08-06T10:43:54Z</time></trkpt>
<trkpt lat="27.323693" lon="99.98714">
<time>2015-08-06T10:43:55Z</time></trkpt>
<trkpt lat="27.323443" lon="99.98714">
<time>2015-08-06T10:43:56Z</time></trkpt>
<trkpt lat="27.323184" lon="99.98711">
<time>2015-08-06T10:43:57Z</time></trkpt>
<trkpt lat="27.322984" lon="99.987081">
<time>2015-08-06T10:43:58Z</time></trkpt>
<trkpt lat="27.322834" lon="99.987041">
<time>2015-08-06T10:43:59Z</time></trkpt>
<trkpt lat="27.322644" lon="99.986961">
<time>2015-08-06T10:44:00Z</time></trkpt>
<trkpt lat="27.322414" lon="99.986871">
<time>2015-08-06T10:44:01Z</time></trkpt>
<trkpt lat="27.322245" lon="99.986792">
<time>2015-08-06T10:44:02Z</time></trkpt>
<trkpt lat="27.322055" lon="99.986732">
<time>2015-08-06T10:44:03Z</time></trkpt>
<trkpt lat="27.321865" lon="99.986692">
<time>2015-08-06T10:44:04Z</time></trkpt>
<trkpt lat="27.321675" lon="99.986672">
<time>2015-08-06T10:44:05Z</time></trkpt>
<trkpt lat="27.321505" lon="99.986672">
<time>2015-08-06T10:44:06Z</time></trkpt>
<trkpt lat="27.321365" lon="99.986692">
<time>2015-08-06T10:44:07Z</time></trkpt>
<trkpt lat="27.321145" lon="99.986732">
<time>2015-08-06T10:44:08Z</time></trkpt>
<trkpt lat="27.320905" lon="99.986792">
<time>2015-08-06T10:44:09Z</time></trkpt>
<trkpt lat="27.320395" lon="99.986931">
<time>2015-08-06T10:44:10Z</time></trkpt>
<trkpt lat="27.320104" lon="99.987011">
<time>2015-08-06T10:44:11Z</time></trkpt>
<trkpt lat="27.319934" lon="99.987041">
<time>2015-08-06T10:44:12Z</time></trkpt>
<trkpt lat="27.319734" lon="99.987061">
<time>2015-08-06T10:44:13Z</time></trkpt>
<trkpt lat="27.319564" lon="99.987061">
<time>2015-08-06T10:44:14Z</time></trkpt>
<trkpt lat="27.319395" lon="99.987041">
<time>2015-08-06T10:44:15Z</time></trkpt>
<trkpt lat="27.319205" lon="99.987011">
<time>2015-08-06T10:44:16Z</time></trkpt>
<trkpt lat="27.319015" lon="99.986961">
<time>2015-08-06T10:44:17Z</time></trkpt>
<trkpt lat="27.318565" lon="99.986822">
<time>2015-08-06T10:44:18Z</time></trkpt>
<trkpt lat="27.318425" lon="99.986782">
<time>2015-08-06T10:44:19Z</time></trkpt>
<trkpt lat="27.318246" lon="99.986752">
<time>2015-08-06T10:44:20Z</time></trkpt>
<trkpt lat="27.318056" lon="99.986752">
<time>2015-08-06T10:44:21Z</time></trkpt>
<trkpt lat="27.317876" lon="99.986762">
<time>2015-08-06T10:44:22Z</time></trkpt>
<trkpt lat="27.317716" lon="99.986792">
<time>2015-08-06T10:44:23Z</time></trkpt>
<trkpt lat="27.317555" lon="99.986842">
<time>2015-08-06T10:44:24Z</time></trkpt>
<trkpt lat="27.317355" lon="99.986931">
<time>2015-08-06T10:44:25Z</time></trkpt>
<trkpt lat="27.317015" lon="99.987111">
<time>2015-08-06T10:44:26Z</time></trkpt>
<trkpt lat="27.316524" lon="99.98738">
<time>2015-08-06T10:44:27Z</time></trkpt>
<trkpt lat="27.316234" lon="99.987529">
<time>2015-08-06T10:44:28Z</time></trkpt>
<trkpt lat="27.316063" lon="99.987609">
<time>2015-08-06T10:44:29Z</time></trkpt>
<trkpt lat="27.315903" lon="99.987659">
<time>2015-08-06T10:44:30Z</time></trkpt>
<trkpt lat="27.315733" lon="99.987699">
<time>2015-08-06T10:44:31Z</time></trkpt>
<trkpt lat="27.315633" lon="99.987709">
<time>2015-08-06T10:44:32Z</time></trkpt>
<trkpt lat="27.315533" lon="99.987709">
<time>2015-08-06T10:44:33Z</time></trkpt>
<trkpt lat="27.315413" lon="99.987709">
<time>2015-08-06T10:44:34Z</time></trkpt>
<trkpt lat="27.313834" lon="99.98741">
<time>2015-08-06T10:44:35Z</time></trkpt>
<trkpt lat="27.313625" lon="99.98737">
<time>2015-08-06T10:44:36Z</time></trkpt>
<trkpt lat="27.313465" lon="99.98737">
<time>2015-08-06T10:44:37Z</time></trkpt>
<trkpt lat="27.313365" lon="99.98738">
<time>2015-08-06T10:44:38Z</time></trkpt>
<trkpt lat="27.313265" lon="99.9874">
<time>2015-08-06T10:44:39Z</time></trkpt>
<trkpt lat="27.313144" lon="99.98745">
<time>2015-08-06T10:44:40Z</time></trkpt>
<trkpt lat="27.313004" lon="99.987519">
<time>2015-08-06T10:44:41Z</time></trkpt>
<trkpt lat="27.312764" lon="99.987709">
<time>2015-08-06T10:44:42Z</time></trkpt>
<trkpt lat="27.312453" lon="99.987988">
<time>2015-08-06T10:44:43Z</time></trkpt>
<trkpt lat="27.312182" lon="99.988327">
<time>2015-08-06T10:44:44Z</time></trkpt>
<trkpt lat="27.312041" lon="99.988536">
<time>2015-08-06T10:44:45Z</time></trkpt>
<trkpt lat="27.31178" lon="99.989034">
<time>2015-08-06T10:44:46Z</time></trkpt>
<trkpt lat="27.311599" lon="99.989403">
<time>2015-08-06T10:44:47Z</time></trkpt>
<trkpt lat="27.311448" lon="99.989652">
<time>2015-08-06T10:44:48Z</time></trkpt>
<trkpt lat="27.311378" lon="99.989722">
<time>2015-08-06T10:44:49Z</time></trkpt>
<trkpt lat="27.311228" lon="99.989882">
<time>2015-08-06T10:44:50Z</time></trkpt>
<trkpt lat="27.311027" lon="99.990031">
<time>2015-08-06T10:44:51Z</time></trkpt>
<trkpt lat="27.310767" lon="99.990171">
<time>2015-08-06T10:44:52Z</time></trkpt>
<trkpt lat="27.310546" lon="99.99028">
<time>2015-08-06T10:44:53Z</time></trkpt>
<trkpt lat="27.310206" lon="99.99041">
<time>2015-08-06T10:44:54Z</time></trkpt>
<trkpt lat="27.309896" lon="99.990579">
<time>2015-08-06T10:44:55Z</time></trkpt>
<trkpt lat="27.309605" lon="99.990838">
<time>2015-08-06T10:44:56Z</time></trkpt>
<trkpt lat="27.309204" lon="99.991217">
<time>2015-08-06T10:44:57Z</time></trkpt>
<trkpt lat="27.308292" lon="99.992025">
<time>2015-08-06T10:44:58Z</time></trkpt>
<trkpt lat="27.308041" lon="99.992244">
<time>2015-08-06T10:44:59Z</time></trkpt>
<trkpt lat="27.30754" lon="99.992682">
<time>2015-08-06T10:45:00Z</time></trkpt>
<trkpt lat="27.306698" lon="99.993211">
<time>2015-08-06T10:45:01Z</time></trkpt>
<trkpt lat="27.306127" lon="99.993609">
<time>2015-08-06T10:45:02Z</time></trkpt>
<trkpt lat="27.305576" lon="99.994088">
<time>2015-08-06T10:45:03Z</time></trkpt>
<trkpt lat="27.305025" lon="99.994546">
<time>2015-08-06T10:45:04Z</time></trkpt>
<trkpt lat="27.304503" lon="99.995035">
<time>2015-08-06T10:45:05Z</time></trkpt>
<trkpt lat="27.302689" lon="99.996679">
<time>2015-08-06T10:45:06Z</time></trkpt>
<trkpt lat="27.302288" lon="99.997048">
<time>2015-08-06T10:45:07Z</time></trkpt>
<trkpt lat="27.301816" lon="99.997486">
<time>2015-08-06T10:45:08Z</time></trkpt>
<trkpt lat="27.301616" lon="99.997646">
<time>2015-08-06T10:45:09Z</time></trkpt>
<trkpt lat="27.301345" lon="99.997845">
<time>2015-08-06T10:45:10Z</time></trkpt>
<trkpt lat="27.301175" lon="99.997955">
<time>2015-08-06T10:45:11Z</time></trkpt>
<trkpt lat="27.301005" lon="99.998065">
<time>2015-08-06T10:45:12Z</time></trkpt>
<trkpt lat="27.300814" lon="99.998174">
<time>2015-08-06T10:45:13Z</time></trkpt>
<trkpt lat="27.300364" lon="99.998423">
<time>2015-08-06T10:45:14Z</time></trkpt>
<trkpt lat="27.300203" lon="99.998513">
<time>2015-08-06T10:45:15Z</time></trkpt>
<trkpt lat="27.300003" lon="99.998623">
<time>2015-08-06T10:45:16Z</time></trkpt>
<trkpt lat="27.299873" lon="99.998682">
<time>2015-08-06T10:45:17Z</time></trkpt>
<trkpt lat="27.299753" lon="99.998722">
<time>2015-08-06T10:45:18Z</time></trkpt>
<trkpt lat="27.299583" lon="99.998772">
<time>2015-08-06T10:45:19Z</time></trkpt>
<trkpt lat="27.299463" lon="99.998802">
<time>2015-08-06T10:45:20Z</time></trkpt>
<trkpt lat="27.299243" lon="99.998862">
<time>2015-08-06T10:45:21Z</time></trkpt>
<trkpt lat="27.298842" lon="99.998932">
<time>2015-08-06T10:45:22Z</time></trkpt>
<trkpt lat="27.298532" lon="99.999011">
<time>2015-08-06T10:45:23Z</time></trkpt>
<trkpt lat="27.298382" lon="99.999051">
<time>2015-08-06T10:45:24Z</time></trkpt>
<trkpt lat="27.298242" lon="99.999101">
<time>2015-08-06T10:45:25Z</time></trkpt>
<trkpt lat="27.298012" lon="99.999201">
<time>2015-08-06T10:45:26Z</time></trkpt>
<trkpt lat="27.297832" lon="99.9993">
<time>2015-08-06T10:45:27Z</time></trkpt>
<trkpt lat="27.297631" lon="99.99943">
<time>2015-08-06T10:45:28Z</time></trkpt>
<trkpt lat="27.297381" lon="99.999609">
<time>2015-08-06T10:45:29Z</time></trkpt>
<trkpt lat="27.29711" lon="99.999779">
<time>2015-08-06T10:45:30Z</time></trkpt>
<trkpt lat="27.29696" lon="99.999859">
<time>2015-08-06T10:45:31Z</time></trkpt>
<trkpt lat="27.29682" lon="99.999928">
<time>2015-08-06T10:45:32Z</time></trkpt>
<trkpt lat="27.2967" lon="99.999968">
<time>2015-08-06T10:45:33Z</time></trkpt>
<trkpt lat="27.2964" lon="100.000018">
<time>2015-08-06T10:45:34Z</time></trkpt>
<trkpt lat="27.29612" lon="100.000078">
<time>2015-08-06T10:45:35Z</time></trkpt>
<trkpt lat="27.295939" lon="100.000118">
<time>2015-08-06T10:45:36Z</time></trkpt>
<trkpt lat="27.295729" lon="100.000188">
<time>2015-08-06T10:45:37Z</time></trkpt>
<trkpt lat="27.295549" lon="100.000267">
<time>2015-08-06T10:45:38Z</time></trkpt>
<trkpt lat="27.295399" lon="100.000377">
<time>2015-08-06T10:45:39Z</time></trkpt>
<trkpt lat="27.295218" lon="100.000526">
<time>2015-08-06T10:45:40Z</time></trkpt>
<trkpt lat="27.295008" lon="100.000736">
<time>2015-08-06T10:45:41Z</time></trkpt>
<trkpt lat="27.294777" lon="100.000945">
<time>2015-08-06T10:45:42Z</time></trkpt>
<trkpt lat="27.294657" lon="100.001005">
<time>2015-08-06T10:45:43Z</time></trkpt>
<trkpt lat="27.294537" lon="100.001045">
<time>2015-08-06T10:45:44Z</time></trkpt>
<trkpt lat="27.294407" lon="100.001055">
<time>2015-08-06T10:45:45Z</time></trkpt>
<trkpt lat="27.294267" lon="100.001055">
<time>2015-08-06T10:45:46Z</time></trkpt>
<trkpt lat="27.294117" lon="100.001015">
<time>2015-08-06T10:45:47Z</time></trkpt>
<trkpt lat="27.293808" lon="100.000885">
<time>2015-08-06T10:45:48Z</time></trkpt>
<trkpt lat="27.293588" lon="100.000835">
<time>2015-08-06T10:45:49Z</time></trkpt>
<trkpt lat="27.293388" lon="100.000815">
<time>2015-08-06T10:45:50Z</time></trkpt>
<trkpt lat="27.293248" lon="100.000845">
<time>2015-08-06T10:45:51Z</time></trkpt>
<trkpt lat="27.293118" lon="100.000895">
<time>2015-08-06T10:45:52Z</time></trkpt>
<trkpt lat="27.292977" lon="100.001015">
<time>2015-08-06T10:45:53Z</time></trkpt>
<trkpt lat="27.292797" lon="100.001214">
<time>2015-08-06T10:45:54Z</time></trkpt>
<trkpt lat="27.292325" lon="100.001752">
<time>2015-08-06T10:45:55Z</time></trkpt>
<trkpt lat="27.292125" lon="100.001932">
<time>2015-08-06T10:45:56Z</time></trkpt>
<trkpt lat="27.291924" lon="100.002061">
<time>2015-08-06T10:45:57Z</time></trkpt>
<trkpt lat="27.291674" lon="100.002191">
<time>2015-08-06T10:45:58Z</time></trkpt>
<trkpt lat="27.291314" lon="100.00235">
<time>2015-08-06T10:45:59Z</time></trkpt>
<trkpt lat="27.290453" lon="100.002699">
<time>2015-08-06T10:46:00Z</time></trkpt>
<trkpt lat="27.290062" lon="100.002899">
<time>2015-08-06T10:46:01Z</time></trkpt>
<trkpt lat="27.289662" lon="100.003128">
<time>2015-08-06T10:46:02Z</time></trkpt>
<trkpt lat="27.28896" lon="100.003576">
<time>2015-08-06T10:46:03Z</time></trkpt>
<trkpt lat="27.2888" lon="100.003676">
<time>2015-08-06T10:46:04Z</time></trkpt>
<trkpt lat="27.28851" lon="100.003835">
<time>2015-08-06T10:46:05Z</time></trkpt>
<trkpt lat="27.288339" lon="100.003915">
<time>2015-08-06T10:46:06Z</time></trkpt>
<trkpt lat="27.288149" lon="100.003995">
<time>2015-08-06T10:46:07Z</time></trkpt>
<trkpt lat="27.288009" lon="100.004025">
<time>2015-08-06T10:46:08Z</time></trkpt>
<trkpt lat="27.287869" lon="100.004045">
<time>2015-08-06T10:46:09Z</time></trkpt>
<trkpt lat="27.287739" lon="100.004045">
<time>2015-08-06T10:46:10Z</time></trkpt>
<trkpt lat="27.287599" lon="100.004025">
<time>2015-08-06T10:46:11Z</time></trkpt>
<trkpt lat="27.287469" lon="100.003995">
<time>2015-08-06T10:46:12Z</time></trkpt>
<trkpt lat="27.28707" lon="100.003875">
<time>2015-08-06T10:46:13Z</time></trkpt>
<trkpt lat="27.28691" lon="100.003816">
<time>2015-08-06T10:46:14Z</time></trkpt>
<trkpt lat="27.28667" lon="100.003756">
<time>2015-08-06T10:46:15Z</time></trkpt>
<trkpt lat="27.28653" lon="100.003736">
<time>2015-08-06T10:46:16Z</time></trkpt>
<trkpt lat="27.28631" lon="100.003726">
<time>2015-08-06T10:46:17Z</time></trkpt>
<trkpt lat="27.28605" lon="100.003746">
<time>2015-08-06T10:46:18Z</time></trkpt>
<trkpt lat="27.28586" lon="100.003796">
<time>2015-08-06T10:46:19Z</time></trkpt>
<trkpt lat="27.28562" lon="100.003855">
<time>2015-08-06T10:46:20Z</time></trkpt>
<trkpt lat="27.284809" lon="100.004204">
<time>2015-08-06T10:46:21Z</time></trkpt>
<trkpt lat="27.284319" lon="100.004404">
<time>2015-08-06T10:46:22Z</time></trkpt>
<trkpt lat="27.284048" lon="100.004523">
<time>2015-08-06T10:46:23Z</time></trkpt>
<trkpt lat="27.283648" lon="100.004683">
<time>2015-08-06T10:46:24Z</time></trkpt>
<trkpt lat="27.283298" lon="100.004862">
<time>2015-08-06T10:46:25Z</time></trkpt>
<trkpt lat="27.283037" lon="100.005052">
<time>2015-08-06T10:46:26Z</time></trkpt>
<trkpt lat="27.282806" lon="100.005311">
<time>2015-08-06T10:46:27Z</time></trkpt>
<trkpt lat="27.282535" lon="100.00564">
<time>2015-08-06T10:46:28Z</time></trkpt>
<trkpt lat="27.282465" lon="100.005709">
<time>2015-08-06T10:46:29Z</time></trkpt>
<trkpt lat="27.282375" lon="100.005779">
<time>2015-08-06T10:46:30Z</time></trkpt>
<trkpt lat="27.282245" lon="100.005869">
<time>2015-08-06T10:46:31Z</time></trkpt>
<trkpt lat="27.282135" lon="100.005919">
<time>2015-08-06T10:46:32Z</time></trkpt>
<trkpt lat="27.281955" lon="100.005978">
<time>2015-08-06T10:46:33Z</time></trkpt>
<trkpt lat="27.281794" lon="100.006008">
<time>2015-08-06T10:46:34Z</time></trkpt>
<trkpt lat="27.281355" lon="100.005998">
<time>2015-08-06T10:46:35Z</time></trkpt>
<trkpt lat="27.281035" lon="100.005969">
<time>2015-08-06T10:46:36Z</time></trkpt>
<trkpt lat="27.280595" lon="100.005919">
<time>2015-08-06T10:46:37Z</time></trkpt>
<trkpt lat="27.280295" lon="100.005919">
<time>2015-08-06T10:46:38Z</time></trkpt>
<trkpt lat="27.280125" lon="100.005929">
<time>2015-08-06T10:46:39Z</time></trkpt>
<trkpt lat="27.279985" lon="100.005959">
<time>2015-08-06T10:46:40Z</time></trkpt>
<trkpt lat="27.279895" lon="100.005989">
<time>2015-08-06T10:46:41Z</time></trkpt>
<trkpt lat="27.279815" lon="100.006048">
<time>2015-08-06T10:46:42Z</time></trkpt>
<trkpt lat="27.279735" lon="100.006108">
<time>2015-08-06T10:46:43Z</time></trkpt>
<trkpt lat="27.279634" lon="100.006208">
<time>2015-08-06T10:46:44Z</time></trkpt>
<trkpt lat="27.279584" lon="100.006288">
<time>2015-08-06T10:46:45Z</time></trkpt>
<trkpt lat="27.279534" lon="100.006367">
<time>2015-08-06T10:46:46Z</time></trkpt>
<trkpt lat="27.279484" lon="100.006477">
<time>2015-08-06T10:46:47Z</time></trkpt>
<trkpt lat="27.279433" lon="100.006666">
<time>2015-08-06T10:46:48Z</time></trkpt>
<trkpt lat="27.279412" lon="100.006826">
<time>2015-08-06T10:46:49Z</time></trkpt>
<trkpt lat="27.279372" lon="100.006995">
<time>2015-08-06T10:46:50Z</time></trkpt>
<trkpt lat="27.279311" lon="100.007234">
<time>2015-08-06T10:46:51Z</time></trkpt>
<trkpt lat="27.279211" lon="100.007464">
<time>2015-08-06T10:46:52Z</time></trkpt>
<trkpt lat="27.27908" lon="100.007713">
<time>2015-08-06T10:46:53Z</time></trkpt>
<trkpt lat="27.278939" lon="100.007942">
<time>2015-08-06T10:46:54Z</time></trkpt>
<trkpt lat="27.278799" lon="100.008131">
<time>2015-08-06T10:46:55Z</time></trkpt>
<trkpt lat="27.278548" lon="100.00841">
<time>2015-08-06T10:46:56Z</time></trkpt>
<trkpt lat="27.278428" lon="100.00853">
<time>2015-08-06T10:46:57Z</time></trkpt>
<trkpt lat="27.278267" lon="100.00865">
<time>2015-08-06T10:46:58Z</time></trkpt>
<trkpt lat="27.278077" lon="100.008789">
<time>2015-08-06T10:46:59Z</time></trkpt>
<trkpt lat="27.277926" lon="100.008929">
<time>2015-08-06T10:47:00Z</time></trkpt>
<trkpt lat="27.277796" lon="100.009088">
<time>2015-08-06T10:47:01Z</time></trkpt>
<trkpt lat="27.277726" lon="100.009198">
<time>2015-08-06T10:47:02Z</time></trkpt>
<trkpt lat="27.277645" lon="100.009318">
<time>2015-08-06T10:47:03Z</time></trkpt>
<trkpt lat="27.277585" lon="100.009467">
<time>2015-08-06T10:47:04Z</time></trkpt>
<trkpt lat="27.277514" lon="100.009646">
<time>2015-08-06T10:47:05Z</time></trkpt>
<trkpt lat="27.277464" lon="100.009806">
<time>2015-08-06T10:47:06Z</time></trkpt>
<trkpt lat="27.277403" lon="100.010045">
<time>2015-08-06T10:47:07Z</time></trkpt>
<trkpt lat="27.277332" lon="100.010394">
<time>2015-08-06T10:47:08Z</time></trkpt>
<trkpt lat="27.277221" lon="100.010872">
<time>2015-08-06T10:47:09Z</time></trkpt>
<trkpt lat="27.27716" lon="100.011132">
<time>2015-08-06T10:47:10Z</time></trkpt>
<trkpt lat="27.277089" lon="100.011381">
<time>2015-08-06T10:47:11Z</time></trkpt>
<trkpt lat="27.277079" lon="100.011401">
<time>2015-08-06T10:47:12Z</time></trkpt>
<trkpt lat="27.276989" lon="100.01159">
<time>2015-08-06T10:47:13Z</time></trkpt>
<trkpt lat="27.276788" lon="100.011879">
<time>2015-08-06T10:47:14Z</time></trkpt>
<trkpt lat="27.276617" lon="100.012108">
<time>2015-08-06T10:47:15Z</time></trkpt>
<trkpt lat="27.276487" lon="100.012238">
<time>2015-08-06T10:47:16Z</time></trkpt>
<trkpt lat="27.276327" lon="100.012368">
<time>2015-08-06T10:47:17Z</time></trkpt>
<trkpt lat="27.276176" lon="100.012477">
<time>2015-08-06T10:47:18Z</time></trkpt>
<trkpt lat="27.276026" lon="100.012567">
<time>2015-08-06T10:47:19Z</time></trkpt>
<trkpt lat="27.275676" lon="100.012756">
<time>2015-08-06T10:47:20Z</time></trkpt>
<trkpt lat="27.275285" lon="100.012986">
<time>2015-08-06T10:47:21Z</time></trkpt>
<trkpt lat="27.275105" lon="100.013125">
<time>2015-08-06T10:47:22Z</time></trkpt>
<trkpt lat="27.274874" lon="100.013305">
<time>2015-08-06T10:47:23Z</time></trkpt>
<trkpt lat="27.274573" lon="100.013584">
<time>2015-08-06T10:47:24Z</time></trkpt>
<trkpt lat="27.274202" lon="100.013952">
<time>2015-08-06T10:47:25Z</time></trkpt>
<trkpt lat="27.273811" lon="100.014341">
<time>2015-08-06T10:47:26Z</time></trkpt>
<trkpt lat="27.27322" lon="100.014919">
<time>2015-08-06T10:47:27Z</time></trkpt>
<trkpt lat="27.272297" lon="100.015866">
<time>2015-08-06T10:47:28Z</time></trkpt>
<trkpt lat="27.272207" lon="100.015936">
<time>2015-08-06T10:47:29Z</time></trkpt>
<trkpt lat="27.272097" lon="100.015996">
<time>2015-08-06T10:47:30Z</time></trkpt>
<trkpt lat="27.271987" lon="100.016046">
<time>2015-08-06T10:47:31Z</time></trkpt>
<trkpt lat="27.271867" lon="100.016086">
<time>2015-08-06T10:47:32Z</time></trkpt>
<trkpt lat="27.271736" lon="100.016115">
<time>2015-08-06T10:47:33Z</time></trkpt>
<trkpt lat="27.271546" lon="100.016145">
<time>2015-08-06T10:47:34Z</time></trkpt>
<trkpt lat="27.271286" lon="100.016185">
<time>2015-08-06T10:47:35Z</time></trkpt>
<trkpt lat="27.270996" lon="100.016225">
<time>2015-08-06T10:47:36Z</time></trkpt>
<trkpt lat="27.270856" lon="100.016255">
<time>2015-08-06T10:47:37Z</time></trkpt>
<trkpt lat="27.270756" lon="100.016275">
<time>2015-08-06T10:47:38Z</time></trkpt>
<trkpt lat="27.270576" lon="100.016335">
<time>2015-08-06T10:47:39Z</time></trkpt>
<trkpt lat="27.270376" lon="100.016434">
<time>2015-08-06T10:47:40Z</time></trkpt>
<trkpt lat="27.270156" lon="100.016564">
<time>2015-08-06T10:47:41Z</time></trkpt>
<trkpt lat="27.269935" lon="100.016674">
<time>2015-08-06T10:47:42Z</time></trkpt>
<trkpt lat="27.269695" lon="100.016813">
<time>2015-08-06T10:47:43Z</time></trkpt>
<trkpt lat="27.269274" lon="100.017102">
<time>2015-08-06T10:47:44Z</time></trkpt>
<trkpt lat="27.268823" lon="100.017401">
<time>2015-08-06T10:47:45Z</time></trkpt>
<trkpt lat="27.268553" lon="100.017571">
<time>2015-08-06T10:47:46Z</time></trkpt>
<trkpt lat="27.268323" lon="100.01772">
<time>2015-08-06T10:47:47Z</time></trkpt>
<trkpt lat="27.268182" lon="100.01779">
<time>2015-08-06T10:47:48Z</time></trkpt>
<trkpt lat="27.268002" lon="100.01788">
<time>2015-08-06T10:47:49Z</time></trkpt>
<trkpt lat="27.267742" lon="100.01797">
<time>2015-08-06T10:47:50Z</time></trkpt>
<trkpt lat="27.267552" lon="100.01801">
<time>2015-08-06T10:47:51Z</time></trkpt>
<trkpt lat="27.267262" lon="100.018069">
<time>2015-08-06T10:47:52Z</time></trkpt>
<trkpt lat="27.266902" lon="100.018109">
<time>2015-08-06T10:47:53Z</time></trkpt>
<trkpt lat="27.266492" lon="100.018169">
<time>2015-08-06T10:47:54Z</time></trkpt>
<trkpt lat="27.266102" lon="100.018219">
<time>2015-08-06T10:47:55Z</time></trkpt>
<trkpt lat="27.265812" lon="100.018259">
<time>2015-08-06T10:47:56Z</time></trkpt>
<trkpt lat="27.265632" lon="100.018279">
<time>2015-08-06T10:47:57Z</time></trkpt>
<trkpt lat="27.265441" lon="100.018319">
<time>2015-08-06T10:47:58Z</time></trkpt>
<trkpt lat="27.265301" lon="100.018349">
<time>2015-08-06T10:47:59Z</time></trkpt>
<trkpt lat="27.265081" lon="100.018408">
<time>2015-08-06T10:48:00Z</time></trkpt>
<trkpt lat="27.264721" lon="100.018538">
<time>2015-08-06T10:48:01Z</time></trkpt>
<trkpt lat="27.264291" lon="100.018717">
<time>2015-08-06T10:48:02Z</time></trkpt>
<trkpt lat="27.26382" lon="100.018907">
<time>2015-08-06T10:48:03Z</time></trkpt>
<trkpt lat="27.26351" lon="100.019016">
<time>2015-08-06T10:48:04Z</time></trkpt>
<trkpt lat="27.2634" lon="100.019056">
<time>2015-08-06T10:48:05Z</time></trkpt>
<trkpt lat="27.26326" lon="100.019116">
<time>2015-08-06T10:48:06Z</time></trkpt>
<trkpt lat="27.262969" lon="100.019226">
<time>2015-08-06T10:48:07Z</time></trkpt>
<trkpt lat="27.262739" lon="100.019306">
<time>2015-08-06T10:48:08Z</time></trkpt>
<trkpt lat="27.262609" lon="100.019335">
<time>2015-08-06T10:48:09Z</time></trkpt>
<trkpt lat="27.262429" lon="100.019355">
<time>2015-08-06T10:48:10Z</time></trkpt>
<trkpt lat="27.262289" lon="100.019365">
<time>2015-08-06T10:48:11Z</time></trkpt>
<trkpt lat="27.262169" lon="100.019355">
<time>2015-08-06T10:48:12Z</time></trkpt>
<trkpt lat="27.262009" lon="100.019345">
<time>2015-08-06T10:48:13Z</time></trkpt>
<trkpt lat="27.261819" lon="100.019316">
<time>2015-08-06T10:48:14Z</time></trkpt>
<trkpt lat="27.26136" lon="100.019226">
<time>2015-08-06T10:48:15Z</time></trkpt>
<trkpt lat="27.26055" lon="100.019056">
<time>2015-08-06T10:48:16Z</time></trkpt>
<trkpt lat="27.260351" lon="100.019026">
<time>2015-08-06T10:48:17Z</time></trkpt>
<trkpt lat="27.260241" lon="100.019017">
<time>2015-08-06T10:48:18Z</time></trkpt>
<trkpt lat="27.260151" lon="100.019017">
<time>2015-08-06T10:48:19Z</time></trkpt>
<trkpt lat="27.260011" lon="100.019036">
<time>2015-08-06T10:48:20Z</time></trkpt>
<trkpt lat="27.259841" lon="100.019066">
<time>2015-08-06T10:48:21Z</time></trkpt>
<trkpt lat="27.25968" lon="100.019116">
<time>2015-08-06T10:48:22Z</time></trkpt>
<trkpt lat="27.25948" lon="100.019216">
<time>2015-08-06T10:48:23Z</time></trkpt>
<trkpt lat="27.25928" lon="100.019365">
<time>2015-08-06T10:48:24Z</time></trkpt>
<trkpt lat="27.258528" lon="100.020003">
<time>2015-08-06T10:48:25Z</time></trkpt>
<trkpt lat="27.258338" lon="100.020163">
<time>2015-08-06T10:48:26Z</time></trkpt>
<trkpt lat="27.258248" lon="100.020243">
<time>2015-08-06T10:48:27Z</time></trkpt>
<trkpt lat="27.258127" lon="100.020313">
<time>2015-08-06T10:48:28Z</time></trkpt>
<trkpt lat="27.257987" lon="100.020402">
<time>2015-08-06T10:48:29Z</time></trkpt>
<trkpt lat="27.257797" lon="100.020482">
<time>2015-08-06T10:48:30Z</time></trkpt>
<trkpt lat="27.257617" lon="100.020532">
<time>2015-08-06T10:48:31Z</time></trkpt>
<trkpt lat="27.257347" lon="100.020592">
<time>2015-08-06T10:48:32Z</time></trkpt>
<trkpt lat="27.257067" lon="100.020632">
<time>2015-08-06T10:48:33Z</time></trkpt>
<trkpt lat="27.256697" lon="100.020681">
<time>2015-08-06T10:48:34Z</time></trkpt>
<trkpt lat="27.256357" lon="100.020741">
<time>2015-08-06T10:48:35Z</time></trkpt>
<trkpt lat="27.256146" lon="100.020801">
<time>2015-08-06T10:48:36Z</time></trkpt>
<trkpt lat="27.255906" lon="100.020901">
<time>2015-08-06T10:48:37Z</time></trkpt>
<trkpt lat="27.255656" lon="100.02107">
<time>2015-08-06T10:48:38Z</time></trkpt>
<trkpt lat="27.255345" lon="100.021309">
<time>2015-08-06T10:48:39Z</time></trkpt>
<trkpt lat="27.254984" lon="100.021589">
<time>2015-08-06T10:48:40Z</time></trkpt>
<trkpt lat="27.254584" lon="100.021918">
<time>2015-08-06T10:48:41Z</time></trkpt>
<trkpt lat="27.254253" lon="100.022157">
<time>2015-08-06T10:48:42Z</time></trkpt>
<trkpt lat="27.254123" lon="100.022247">
<time>2015-08-06T10:48:43Z</time></trkpt>
<trkpt lat="27.254063" lon="100.022276">
<time>2015-08-06T10:48:44Z</time></trkpt>
<trkpt lat="27.254003" lon="100.022316">
<time>2015-08-06T10:48:45Z</time></trkpt>
<trkpt lat="27.253943" lon="100.022336">
<time>2015-08-06T10:48:46Z</time></trkpt>
<trkpt lat="27.253872" lon="100.022366">
<time>2015-08-06T10:48:47Z</time></trkpt>
<trkpt lat="27.253802" lon="100.022386">
<time>2015-08-06T10:48:48Z</time></trkpt>
<trkpt lat="27.253712" lon="100.022416">
<time>2015-08-06T10:48:49Z</time></trkpt>
<trkpt lat="27.253542" lon="100.022456">
<time>2015-08-06T10:48:50Z</time></trkpt>
<trkpt lat="27.253462" lon="100.022466">
<time>2015-08-06T10:48:51Z</time></trkpt>
<trkpt lat="27.253362" lon="100.022486">
<time>2015-08-06T10:48:52Z</time></trkpt>
<trkpt lat="27.253262" lon="100.022496">
<time>2015-08-06T10:48:53Z</time></trkpt>
<trkpt lat="27.253172" lon="100.022506">
<time>2015-08-06T10:48:54Z</time></trkpt>
<trkpt lat="27.253082" lon="100.022516">
<time>2015-08-06T10:48:55Z</time></trkpt>
<trkpt lat="27.253012" lon="100.022506">
<time>2015-08-06T10:48:56Z</time></trkpt>
<trkpt lat="27.252942" lon="100.022496">
<time>2015-08-06T10:48:57Z</time></trkpt>
<trkpt lat="27.252862" lon="100.022466">
<time>2015-08-06T10:48:58Z</time></trkpt>
<trkpt lat="27.252793" lon="100.022436">
<time>2015-08-06T10:48:59Z</time></trkpt>
<trkpt lat="27.252713" lon="100.022386">
<time>2015-08-06T10:49:00Z</time></trkpt>
<trkpt lat="27.252653" lon="100.022336">
<time>2015-08-06T10:49:01Z</time></trkpt>
<trkpt lat="27.252563" lon="100.022247">
<time>2015-08-06T10:49:02Z</time></trkpt>
<trkpt lat="27.252384" lon="100.022007">
<time>2015-08-06T10:49:03Z</time></trkpt>
<trkpt lat="27.252065" lon="100.021539">
<time>2015-08-06T10:49:04Z</time></trkpt>
<trkpt lat="27.251796" lon="100.02119">
<time>2015-08-06T10:49:05Z</time></trkpt>
<trkpt lat="27.251617" lon="100.02102">
<time>2015-08-06T10:49:06Z</time></trkpt>
<trkpt lat="27.251377" lon="100.020811">
<time>2015-08-06T10:49:07Z</time></trkpt>
<trkpt lat="27.250499" lon="100.020203">
<time>2015-08-06T10:49:08Z</time></trkpt>
<trkpt lat="27.25012" lon="100.019964">
<time>2015-08-06T10:49:09Z</time></trkpt>
<trkpt lat="27.25002" lon="100.019924">
<time>2015-08-06T10:49:10Z</time></trkpt>
<trkpt lat="27.249821" lon="100.019824">
<time>2015-08-06T10:49:11Z</time></trkpt>
<trkpt lat="27.249661" lon="100.019764">
<time>2015-08-06T10:49:12Z</time></trkpt>
<trkpt lat="27.249461" lon="100.019705">
<time>2015-08-06T10:49:13Z</time></trkpt>
<trkpt lat="27.249241" lon="100.019655">
<time>2015-08-06T10:49:14Z</time></trkpt>
<trkpt lat="27.249071" lon="100.019645">
<time>2015-08-06T10:49:15Z</time></trkpt>
<trkpt lat="27.248911" lon="100.019635">
<time>2015-08-06T10:49:16Z</time></trkpt>
<trkpt lat="27.248711" lon="100.019635">
<time>2015-08-06T10:49:17Z</time></trkpt>
<trkpt lat="27.248551" lon="100.019645">
<time>2015-08-06T10:49:18Z</time></trkpt>
<trkpt lat="27.248311" lon="100.019665">
<time>2015-08-06T10:49:19Z</time></trkpt>
<trkpt lat="27.247941" lon="100.019695">
<time>2015-08-06T10:49:20Z</time></trkpt>
<trkpt lat="27.247531" lon="100.019745">
<time>2015-08-06T10:49:21Z</time></trkpt>
<trkpt lat="27.246981" lon="100.019814">
<time>2015-08-06T10:49:22Z</time></trkpt>
<trkpt lat="27.246301" lon="100.019884">
<time>2015-08-06T10:49:23Z</time></trkpt>
<trkpt lat="27.245911" lon="100.019944">
<time>2015-08-06T10:49:24Z</time></trkpt>
<trkpt lat="27.245751" lon="100.019964">
<time>2015-08-06T10:49:25Z</time></trkpt>
<trkpt lat="27.245481" lon="100.020014">
<time>2015-08-06T10:49:26Z</time></trkpt>
<trkpt lat="27.245341" lon="100.020054">
<time>2015-08-06T10:49:27Z</time></trkpt>
<trkpt lat="27.245191" lon="100.020113">
<time>2015-08-06T10:49:28Z</time></trkpt>
<trkpt lat="27.244951" lon="100.020223">
<time>2015-08-06T10:49:29Z</time></trkpt>
<trkpt lat="27.24485" lon="100.020283">
<time>2015-08-06T10:49:30Z</time></trkpt>
<trkpt lat="27.24472" lon="100.020363">
<time>2015-08-06T10:49:31Z</time></trkpt>
<trkpt lat="27.24463" lon="100.020413">
<time>2015-08-06T10:49:32Z</time></trkpt>
<trkpt lat="27.24441" lon="100.020542">
<time>2015-08-06T10:49:33Z</time></trkpt>
<trkpt lat="27.24428" lon="100.020632">
<time>2015-08-06T10:49:34Z</time></trkpt>
<trkpt lat="27.244159" lon="100.020742">
<time>2015-08-06T10:49:35Z</time></trkpt>
<trkpt lat="27.243999" lon="100.020931">
<time>2015-08-06T10:49:36Z</time></trkpt>
<trkpt lat="27.243808" lon="100.02115">
<time>2015-08-06T10:49:37Z</time></trkpt>
<trkpt lat="27.243718" lon="100.02129">
<time>2015-08-06T10:49:38Z</time></trkpt>
<trkpt lat="27.243668" lon="100.02137">
<time>2015-08-06T10:49:39Z</time></trkpt>
<trkpt lat="27.243637" lon="100.021409">
<time>2015-08-06T10:49:40Z</time></trkpt>
<trkpt lat="27.243537" lon="100.021529">
<time>2015-08-06T10:49:41Z</time></trkpt>
<trkpt lat="27.243457" lon="100.021589">
<time>2015-08-06T10:49:42Z</time></trkpt>
<trkpt lat="27.243367" lon="100.021649">
<time>2015-08-06T10:49:43Z</time></trkpt>
<trkpt lat="27.243257" lon="100.021689">
<time>2015-08-06T10:49:44Z</time></trkpt>
<trkpt lat="27.243137" lon="100.021709">
<time>2015-08-06T10:49:45Z</time></trkpt>
<trkpt lat="27.243027" lon="100.021709">
<time>2015-08-06T10:49:46Z</time></trkpt>
<trkpt lat="27.242877" lon="100.021689">
<time>2015-08-06T10:49:47Z</time></trkpt>
<trkpt lat="27.242657" lon="100.021639">
<time>2015-08-06T10:49:48Z</time></trkpt>
<trkpt lat="27.242277" lon="100.021569">
<time>2015-08-06T10:49:49Z</time></trkpt>
<trkpt lat="27.242128" lon="100.021519">
<time>2015-08-06T10:49:50Z</time></trkpt>
<trkpt lat="27.241798" lon="100.021439">
<time>2015-08-06T10:49:51Z</time></trkpt>
<trkpt lat="27.241668" lon="100.021419">
<time>2015-08-06T10:49:52Z</time></trkpt>
<trkpt lat="27.241558" lon="100.0214">
<time>2015-08-06T10:49:53Z</time></trkpt>
<trkpt lat="27.241418" lon="100.0214">
<time>2015-08-06T10:49:54Z</time></trkpt>
<trkpt lat="27.241318" lon="100.0214">
<time>2015-08-06T10:49:55Z</time></trkpt>
<trkpt lat="27.241168" lon="100.02141">
<time>2015-08-06T10:49:56Z</time></trkpt>
<trkpt lat="27.240958" lon="100.021439">
<time>2015-08-06T10:49:57Z</time></trkpt>
<trkpt lat="27.239928" lon="100.021679">
<time>2015-08-06T10:49:58Z</time></trkpt>
<trkpt lat="27.238897" lon="100.021918">
<time>2015-08-06T10:49:59Z</time></trkpt>
<trkpt lat="27.238747" lon="100.021948">
<time>2015-08-06T10:50:00Z</time></trkpt>
<trkpt lat="27.238597" lon="100.021958">
<time>2015-08-06T10:50:01Z</time></trkpt>
<trkpt lat="27.238457" lon="100.021968">
<time>2015-08-06T10:50:02Z</time></trkpt>
<trkpt lat="27.238317" lon="100.021968">
<time>2015-08-06T10:50:03Z</time></trkpt>
<trkpt lat="27.238027" lon="100.021948">
<time>2015-08-06T10:50:04Z</time></trkpt>
<trkpt lat="27.237138" lon="100.021898">
<time>2015-08-06T10:50:05Z</time></trkpt>
<trkpt lat="27.236778" lon="100.021868">
<time>2015-08-06T10:50:06Z</time></trkpt>
<trkpt lat="27.236178" lon="100.021848">
<time>2015-08-06T10:50:07Z</time></trkpt>
<trkpt lat="27.236058" lon="100.021848">
<time>2015-08-06T10:50:08Z</time></trkpt>
<trkpt lat="27.235928" lon="100.021858">
<time>2015-08-06T10:50:09Z</time></trkpt>
<trkpt lat="27.235768" lon="100.021878">
<time>2015-08-06T10:50:10Z</time></trkpt>
<trkpt lat="27.235628" lon="100.021898">
<time>2015-08-06T10:50:11Z</time></trkpt>
<trkpt lat="27.235498" lon="100.021938">
<time>2015-08-06T10:50:12Z</time></trkpt>
<trkpt lat="27.235318" lon="100.022018">
<time>2015-08-06T10:50:13Z</time></trkpt>
<trkpt lat="27.234697" lon="100.022397">
<time>2015-08-06T10:50:14Z</time></trkpt>
<trkpt lat="27.234066" lon="100.022726">
<time>2015-08-06T10:50:15Z</time></trkpt>
<trkpt lat="27.233936" lon="100.022775">
<time>2015-08-06T10:50:16Z</time></trkpt>
<trkpt lat="27.233595" lon="100.022975">
<time>2015-08-06T10:50:17Z</time></trkpt>
<trkpt lat="27.233445" lon="100.023065">
<time>2015-08-06T10:50:18Z</time></trkpt>
<trkpt lat="27.233215" lon="100.023174">
<time>2015-08-06T10:50:19Z</time></trkpt>
<trkpt lat="27.232995" lon="100.023254">
<time>2015-08-06T10:50:20Z</time></trkpt>
<trkpt lat="27.232785" lon="100.023304">
<time>2015-08-06T10:50:21Z</time></trkpt>
<trkpt lat="27.232505" lon="100.023354">
<time>2015-08-06T10:50:22Z</time></trkpt>
<trkpt lat="27.232205" lon="100.023374">
<time>2015-08-06T10:50:23Z</time></trkpt>
<trkpt lat="27.231915" lon="100.023374">
<time>2015-08-06T10:50:24Z</time></trkpt>
<trkpt lat="27.231565" lon="100.023384">
<time>2015-08-06T10:50:25Z</time></trkpt>
<trkpt lat="27.231305" lon="100.023404">
<time>2015-08-06T10:50:26Z</time></trkpt>
<trkpt lat="27.231035" lon="100.023453">
<time>2015-08-06T10:50:27Z</time></trkpt>
<trkpt lat="27.230875" lon="100.023483">
<time>2015-08-06T10:50:28Z</time></trkpt>
<trkpt lat="27.230684" lon="100.023553">
<time>2015-08-06T10:50:29Z</time></trkpt>
<trkpt lat="27.230454" lon="100.023663">
<time>2015-08-06T10:50:30Z</time></trkpt>
<trkpt lat="27.230204" lon="100.023772">
<time>2015-08-06T10:50:31Z</time></trkpt>
<trkpt lat="27.229974" lon="100.023872">
<time>2015-08-06T10:50:32Z</time></trkpt>
<trkpt lat="27.229814" lon="100.023942">
<time>2015-08-06T10:50:33Z</time></trkpt>
<trkpt lat="27.229633" lon="100.024002">
<time>2015-08-06T10:50:34Z</time></trkpt>
<trkpt lat="27.229403" lon="100.024082">
<time>2015-08-06T10:50:35Z</time></trkpt>
<trkpt lat="27.229313" lon="100.024092">
<time>2015-08-06T10:50:36Z</time></trkpt>
<trkpt lat="27.229163" lon="100.024111">
<time>2015-08-06T10:50:37Z</time></trkpt>
<trkpt lat="27.229023" lon="100.024131">
<time>2015-08-06T10:50:38Z</time></trkpt>
<trkpt lat="27.228713" lon="100.024102">
<time>2015-08-06T10:50:39Z</time></trkpt>
<trkpt lat="27.228484" lon="100.024072">
<time>2015-08-06T10:50:40Z</time></trkpt>
<trkpt lat="27.228244" lon="100.024022">
<time>2015-08-06T10:50:41Z</time></trkpt>
<trkpt lat="27.228004" lon="100.023962">
<time>2015-08-06T10:50:42Z</time></trkpt>
<trkpt lat="27.227774" lon="100.023932">
<time>2015-08-06T10:50:43Z</time></trkpt>
<trkpt lat="27.227614" lon="100.023912">
<time>2015-08-06T10:50:44Z</time></trkpt>
<trkpt lat="27.227484" lon="100.023922">
<time>2015-08-06T10:50:45Z</time></trkpt>
<trkpt lat="27.227314" lon="100.023942">
<time>2015-08-06T10:50:46Z</time></trkpt>
<trkpt lat="27.227114" lon="100.023982">
<time>2015-08-06T10:50:47Z</time></trkpt>
<trkpt lat="27.226884" lon="100.024062">
<time>2015-08-06T10:50:48Z</time></trkpt>
<trkpt lat="27.226544" lon="100.024241">
<time>2015-08-06T10:50:49Z</time></trkpt>
<trkpt lat="27.226113" lon="100.02452">
<time>2015-08-06T10:50:50Z</time></trkpt>
<trkpt lat="27.225612" lon="100.024819">
<time>2015-08-06T10:50:51Z</time></trkpt>
<trkpt lat="27.224931" lon="100.025188">
<time>2015-08-06T10:50:52Z</time></trkpt>
<trkpt lat="27.224511" lon="100.025438">
<time>2015-08-06T10:50:53Z</time></trkpt>
<trkpt lat="27.22437" lon="100.025527">
<time>2015-08-06T10:50:54Z</time></trkpt>
<trkpt lat="27.2242" lon="100.025607">
<time>2015-08-06T10:50:55Z</time></trkpt>
<trkpt lat="27.22399" lon="100.025717">
<time>2015-08-06T10:50:56Z</time></trkpt>
<trkpt lat="27.22376" lon="100.025787">
<time>2015-08-06T10:50:57Z</time></trkpt>
<trkpt lat="27.22357" lon="100.025856">
<time>2015-08-06T10:50:58Z</time></trkpt>
<trkpt lat="27.2233" lon="100.025916">
<time>2015-08-06T10:50:59Z</time></trkpt>
<trkpt lat="27.22297" lon="100.025996">
<time>2015-08-06T10:51:00Z</time></trkpt>
<trkpt lat="27.222759" lon="100.026066">
<time>2015-08-06T10:51:01Z</time></trkpt>
<trkpt lat="27.222569" lon="100.026126">
<time>2015-08-06T10:51:02Z</time></trkpt>
<trkpt lat="27.222399" lon="100.026185">
<time>2015-08-06T10:51:03Z</time></trkpt>
<trkpt lat="27.222239" lon="100.026245">
<time>2015-08-06T10:51:04Z</time></trkpt>
<trkpt lat="27.222129" lon="100.026305">
<time>2015-08-06T10:51:05Z</time></trkpt>
<trkpt lat="27.221808" lon="100.026504">
<time>2015-08-06T10:51:06Z</time></trkpt>
<trkpt lat="27.221107" lon="100.027083">
<time>2015-08-06T10:51:07Z</time></trkpt>
<trkpt lat="27.220917" lon="100.027222">
<time>2015-08-06T10:51:08Z</time></trkpt>
<trkpt lat="27.219975" lon="100.02798">
<time>2015-08-06T10:51:09Z</time></trkpt>
<trkpt lat="27.219845" lon="100.02811">
<time>2015-08-06T10:51:10Z</time></trkpt>
<trkpt lat="27.219684" lon="100.028269">
<time>2015-08-06T10:51:11Z</time></trkpt>
<trkpt lat="27.219554" lon="100.028409">
<time>2015-08-06T10:51:12Z</time></trkpt>
<trkpt lat="27.219453" lon="100.028548">
<time>2015-08-06T10:51:13Z</time></trkpt>
<trkpt lat="27.21866" lon="100.029745">
<time>2015-08-06T10:51:14Z</time></trkpt>
<trkpt lat="27.21842" lon="100.030114">
<time>2015-08-06T10:51:15Z</time></trkpt>
<trkpt lat="27.218259" lon="100.030373">
<time>2015-08-06T10:51:16Z</time></trkpt>
<trkpt lat="27.218078" lon="100.030632">
<time>2015-08-06T10:51:17Z</time></trkpt>
<trkpt lat="27.217858" lon="100.030932">
<time>2015-08-06T10:51:18Z</time></trkpt>
<trkpt lat="27.217657" lon="100.031191">
<time>2015-08-06T10:51:19Z</time></trkpt>
<trkpt lat="27.217506" lon="100.03137">
<time>2015-08-06T10:51:20Z</time></trkpt>
<trkpt lat="27.217276" lon="100.03163">
<time>2015-08-06T10:51:21Z</time></trkpt>
<trkpt lat="27.216985" lon="100.031909">
<time>2015-08-06T10:51:22Z</time></trkpt>
<trkpt lat="27.216674" lon="100.032258">
<time>2015-08-06T10:51:23Z</time></trkpt>
<trkpt lat="27.216484" lon="100.032457">
<time>2015-08-06T10:51:24Z</time></trkpt>
<trkpt lat="27.216324" lon="100.032617">
<time>2015-08-06T10:51:25Z</time></trkpt>
<trkpt lat="27.216153" lon="100.032786">
<time>2015-08-06T10:51:26Z</time></trkpt>
<trkpt lat="27.215903" lon="100.033026">
<time>2015-08-06T10:51:27Z</time></trkpt>
<trkpt lat="27.215732" lon="100.033155">
<time>2015-08-06T10:51:28Z</time></trkpt>
<trkpt lat="27.215652" lon="100.033215">
<time>2015-08-06T10:51:29Z</time></trkpt>
<trkpt lat="27.215512" lon="100.033295">
<time>2015-08-06T10:51:30Z</time></trkpt>
<trkpt lat="27.215302" lon="100.033395">
<time>2015-08-06T10:51:31Z</time></trkpt>
<trkpt lat="27.215102" lon="100.033464">
<time>2015-08-06T10:51:32Z</time></trkpt>
<trkpt lat="27.214791" lon="100.033554">
<time>2015-08-06T10:51:33Z</time></trkpt>
<trkpt lat="27.214451" lon="100.033644">
<time>2015-08-06T10:51:34Z</time></trkpt>
<trkpt lat="27.214241" lon="100.033704">
<time>2015-08-06T10:51:35Z</time></trkpt>
<trkpt lat="27.214101" lon="100.033754">
<time>2015-08-06T10:51:36Z</time></trkpt>
<trkpt lat="27.213981" lon="100.033803">
<time>2015-08-06T10:51:37Z</time></trkpt>
<trkpt lat="27.213811" lon="100.033883">
<time>2015-08-06T10:51:38Z</time></trkpt>
<trkpt lat="27.21344" lon="100.034073">
<time>2015-08-06T10:51:39Z</time></trkpt>
<trkpt lat="27.21323" lon="100.034202">
<time>2015-08-06T10:51:40Z</time></trkpt>
<trkpt lat="27.21306" lon="100.034312">
<time>2015-08-06T10:51:41Z</time></trkpt>
<trkpt lat="27.21284" lon="100.034442">
<time>2015-08-06T10:51:42Z</time></trkpt>
<trkpt lat="27.21269" lon="100.034531">
<time>2015-08-06T10:51:43Z</time></trkpt>
<trkpt lat="27.212099" lon="100.034881">
<time>2015-08-06T10:51:44Z</time></trkpt>
<trkpt lat="27.211598" lon="100.03518">
<time>2015-08-06T10:51:45Z</time></trkpt>
<trkpt lat="27.211448" lon="100.035279">
<time>2015-08-06T10:51:46Z</time></trkpt>
<trkpt lat="27.211308" lon="100.035359">
<time>2015-08-06T10:51:47Z</time></trkpt>
<trkpt lat="27.211268" lon="100.035389">
<time>2015-08-06T10:51:48Z</time></trkpt>
<trkpt lat="27.211228" lon="100.035429">
<time>2015-08-06T10:51:49Z</time></trkpt>
<trkpt lat="27.211127" lon="100.035519">
<time>2015-08-06T10:51:50Z</time></trkpt>
<trkpt lat="27.211037" lon="100.035599">
<time>2015-08-06T10:51:51Z</time></trkpt>
<trkpt lat="27.210857" lon="100.035788">
<time>2015-08-06T10:51:52Z</time></trkpt>
<trkpt lat="27.210756" lon="100.035918">
<time>2015-08-06T10:51:53Z</time></trkpt>
<trkpt lat="27.210646" lon="100.036077">
<time>2015-08-06T10:51:54Z</time></trkpt>
<trkpt lat="27.210465" lon="100.036396">
<time>2015-08-06T10:51:55Z</time></trkpt>
<trkpt lat="27.209923" lon="100.037384">
<time>2015-08-06T10:51:56Z</time></trkpt>
<trkpt lat="27.209722" lon="100.037723">
<time>2015-08-06T10:51:57Z</time></trkpt>
<trkpt lat="27.209582" lon="100.037942">
<time>2015-08-06T10:51:58Z</time></trkpt>
<trkpt lat="27.209401" lon="100.038152">
<time>2015-08-06T10:51:59Z</time></trkpt>
<trkpt lat="27.209051" lon="100.038531">
<time>2015-08-06T10:52:00Z</time></trkpt>
<trkpt lat="27.20895" lon="100.03865">
<time>2015-08-06T10:52:01Z</time></trkpt>
<trkpt lat="27.20883" lon="100.03881">
<time>2015-08-06T10:52:02Z</time></trkpt>
<trkpt lat="27.20874" lon="100.03896">
<time>2015-08-06T10:52:03Z</time></trkpt>
<trkpt lat="27.208599" lon="100.039209">
<time>2015-08-06T10:52:04Z</time></trkpt>
<trkpt lat="27.208418" lon="100.039598">
<time>2015-08-06T10:52:05Z</time></trkpt>
<trkpt lat="27.208267" lon="100.039977">
<time>2015-08-06T10:52:06Z</time></trkpt>
<trkpt lat="27.208167" lon="100.040176">
<time>2015-08-06T10:52:07Z</time></trkpt>
<trkpt lat="27.207986" lon="100.040466">
<time>2015-08-06T10:52:08Z</time></trkpt>
<trkpt lat="27.207685" lon="100.040825">
<time>2015-08-06T10:52:09Z</time></trkpt>
<trkpt lat="27.207334" lon="100.041274">
<time>2015-08-06T10:52:10Z</time></trkpt>
<trkpt lat="27.206823" lon="100.041932">
<time>2015-08-06T10:52:11Z</time></trkpt>
<trkpt lat="27.206593" lon="100.042191">
<time>2015-08-06T10:52:12Z</time></trkpt>
<trkpt lat="27.206452" lon="100.042361">
<time>2015-08-06T10:52:13Z</time></trkpt>
<trkpt lat="27.206322" lon="100.042511">
<time>2015-08-06T10:52:14Z</time></trkpt>
<trkpt lat="27.206242" lon="100.04261">
<time>2015-08-06T10:52:15Z</time></trkpt>
<trkpt lat="27.206191" lon="100.04268">
<time>2015-08-06T10:52:16Z</time></trkpt>
<trkpt lat="27.206111" lon="100.04275">
<time>2015-08-06T10:52:17Z</time></trkpt>
<trkpt lat="27.206031" lon="100.04281">
<time>2015-08-06T10:52:18Z</time></trkpt>
<trkpt lat="27.205941" lon="100.04287">
<time>2015-08-06T10:52:19Z</time></trkpt>
<trkpt lat="27.205831" lon="100.04293">
<time>2015-08-06T10:52:20Z</time></trkpt>
<trkpt lat="27.205711" lon="100.042979">
<time>2015-08-06T10:52:21Z</time></trkpt>
<trkpt lat="27.205571" lon="100.043009">
<time>2015-08-06T10:52:22Z</time></trkpt>
<trkpt lat="27.205411" lon="100.043029">
<time>2015-08-06T10:52:23Z</time></trkpt>
<trkpt lat="27.205271" lon="100.043029">
<time>2015-08-06T10:52:24Z</time></trkpt>
<trkpt lat="27.205081" lon="100.043009">
<time>2015-08-06T10:52:25Z</time></trkpt>
<trkpt lat="27.204801" lon="100.042979">
<time>2015-08-06T10:52:26Z</time></trkpt>
<trkpt lat="27.204621" lon="100.04295">
<time>2015-08-06T10:52:27Z</time></trkpt>
<trkpt lat="27.204451" lon="100.04293">
<time>2015-08-06T10:52:28Z</time></trkpt>
<trkpt lat="27.204261" lon="100.04293">
<time>2015-08-06T10:52:29Z</time></trkpt>
<trkpt lat="27.204041" lon="100.04295">
<time>2015-08-06T10:52:30Z</time></trkpt>
<trkpt lat="27.203891" lon="100.04297">
<time>2015-08-06T10:52:31Z</time></trkpt>
<trkpt lat="27.203781" lon="100.042989">
<time>2015-08-06T10:52:32Z</time></trkpt>
<trkpt lat="27.203681" lon="100.043029">
<time>2015-08-06T10:52:33Z</time></trkpt>
<trkpt lat="27.203571" lon="100.043079">
<time>2015-08-06T10:52:34Z</time></trkpt>
<trkpt lat="27.203431" lon="100.043149">
<time>2015-08-06T10:52:35Z</time></trkpt>
<trkpt lat="27.203301" lon="100.043219">
<time>2015-08-06T10:52:36Z</time></trkpt>
<trkpt lat="27.203191" lon="100.043299">
<time>2015-08-06T10:52:37Z</time></trkpt>
<trkpt lat="27.20272" lon="100.043658">
<time>2015-08-06T10:52:38Z</time></trkpt>
<trkpt lat="27.202049" lon="100.044226">
<time>2015-08-06T10:52:39Z</time></trkpt>
<trkpt lat="27.201438" lon="100.044725">
<time>2015-08-06T10:52:40Z</time></trkpt>
<trkpt lat="27.201348" lon="100.044795">
<time>2015-08-06T10:52:41Z</time></trkpt>
<trkpt lat="27.201198" lon="100.044905">
<time>2015-08-06T10:52:42Z</time></trkpt>
<trkpt lat="27.201108" lon="100.044965">
<time>2015-08-06T10:52:43Z</time></trkpt>
<trkpt lat="27.200978" lon="100.045025">
<time>2015-08-06T10:52:44Z</time></trkpt>
<trkpt lat="27.200857" lon="100.045055">
<time>2015-08-06T10:52:45Z</time></trkpt>
<trkpt lat="27.200707" lon="100.045084">
<time>2015-08-06T10:52:46Z</time></trkpt>
<trkpt lat="27.200577" lon="100.045084">
<time>2015-08-06T10:52:47Z</time></trkpt>
<trkpt lat="27.200218" lon="100.045094">
<time>2015-08-06T10:52:48Z</time></trkpt>
<trkpt lat="27.199758" lon="100.045074">
<time>2015-08-06T10:52:49Z</time></trkpt>
<trkpt lat="27.199458" lon="100.045045">
<time>2015-08-06T10:52:50Z</time></trkpt>
<trkpt lat="27.199288" lon="100.045055">
<time>2015-08-06T10:52:51Z</time></trkpt>
<trkpt lat="27.199148" lon="100.045065">
<time>2015-08-06T10:52:52Z</time></trkpt>
<trkpt lat="27.198928" lon="100.045094">
<time>2015-08-06T10:52:53Z</time></trkpt>
<trkpt lat="27.198758" lon="100.045134">
<time>2015-08-06T10:52:54Z</time></trkpt>
<trkpt lat="27.198578" lon="100.045194">
<time>2015-08-06T10:52:55Z</time></trkpt>
<trkpt lat="27.198418" lon="100.045274">
<time>2015-08-06T10:52:56Z</time></trkpt>
<trkpt lat="27.198227" lon="100.045394">
<time>2015-08-06T10:52:57Z</time></trkpt>
<trkpt lat="27.197997" lon="100.045563">
<time>2015-08-06T10:52:58Z</time></trkpt>
<trkpt lat="27.197817" lon="100.045673">
<time>2015-08-06T10:52:59Z</time></trkpt>
<trkpt lat="27.197637" lon="100.045743">
<time>2015-08-06T10:53:00Z</time></trkpt>
<trkpt lat="27.197487" lon="100.045823">
<time>2015-08-06T10:53:01Z</time></trkpt>
<trkpt lat="27.197327" lon="100.045883">
<time>2015-08-06T10:53:02Z</time></trkpt>
<trkpt lat="27.197096" lon="100.045962">
<time>2015-08-06T10:53:03Z</time></trkpt>
<trkpt lat="27.196896" lon="100.046022">
<time>2015-08-06T10:53:04Z</time></trkpt>
<trkpt lat="27.196476" lon="100.046142">
<time>2015-08-06T10:53:05Z</time></trkpt>
<trkpt lat="27.195976" lon="100.046282">
<time>2015-08-06T10:53:06Z</time></trkpt>
<trkpt lat="27.195696" lon="100.046401">
<time>2015-08-06T10:53:07Z</time></trkpt>
<trkpt lat="27.195296" lon="100.046561">
<time>2015-08-06T10:53:08Z</time></trkpt>
<trkpt lat="27.194985" lon="100.046721">
<time>2015-08-06T10:53:09Z</time></trkpt>
<trkpt lat="27.194775" lon="100.046801">
<time>2015-08-06T10:53:10Z</time></trkpt>
<trkpt lat="27.194455" lon="100.04696">
<time>2015-08-06T10:53:11Z</time></trkpt>
<trkpt lat="27.194275" lon="100.04705">
<time>2015-08-06T10:53:12Z</time></trkpt>
<trkpt lat="27.194155" lon="100.04713">
<time>2015-08-06T10:53:13Z</time></trkpt>
<trkpt lat="27.193674" lon="100.047429">
<time>2015-08-06T10:53:14Z</time></trkpt>
<trkpt lat="27.193313" lon="100.048257">
<time>2015-08-06T10:53:15Z</time></trkpt>
<trkpt lat="27.193232" lon="100.048407">
<time>2015-08-06T10:53:16Z</time></trkpt>
<trkpt lat="27.193182" lon="100.048507">
<time>2015-08-06T10:53:17Z</time></trkpt>
<trkpt lat="27.193122" lon="100.048586">
<time>2015-08-06T10:53:18Z</time></trkpt>
<trkpt lat="27.193052" lon="100.048696">
<time>2015-08-06T10:53:19Z</time></trkpt>
<trkpt lat="27.192961" lon="100.048816">
<time>2015-08-06T10:53:20Z</time></trkpt>
<trkpt lat="27.192881" lon="100.048896">
<time>2015-08-06T10:53:21Z</time></trkpt>
<trkpt lat="27.192781" lon="100.048966">
<time>2015-08-06T10:53:22Z</time></trkpt>
<trkpt lat="27.192651" lon="100.049045">
<time>2015-08-06T10:53:23Z</time></trkpt>
<trkpt lat="27.192511" lon="100.049105">
<time>2015-08-06T10:53:24Z</time></trkpt>
<trkpt lat="27.192321" lon="100.049155">
<time>2015-08-06T10:53:25Z</time></trkpt>
<trkpt lat="27.191991" lon="100.049215">
<time>2015-08-06T10:53:26Z</time></trkpt>
<trkpt lat="27.191761" lon="100.049265">
<time>2015-08-06T10:53:27Z</time></trkpt>
<trkpt lat="27.191651" lon="100.049295">
<time>2015-08-06T10:53:28Z</time></trkpt>
<trkpt lat="27.191531" lon="100.049335">
<time>2015-08-06T10:53:29Z</time></trkpt>
<trkpt lat="27.191351" lon="100.049415">
<time>2015-08-06T10:53:30Z</time></trkpt>
<trkpt lat="27.19113" lon="100.049524">
<time>2015-08-06T10:53:31Z</time></trkpt>
<trkpt lat="27.190129" lon="100.050123">
<time>2015-08-06T10:53:32Z</time></trkpt>
<trkpt lat="27.189729" lon="100.050343">
<time>2015-08-06T10:53:33Z</time></trkpt>
<trkpt lat="27.189479" lon="100.050472">
<time>2015-08-06T10:53:34Z</time></trkpt>
<trkpt lat="27.189259" lon="100.050562">
<time>2015-08-06T10:53:35Z</time></trkpt>
<trkpt lat="27.189149" lon="100.050622">
<time>2015-08-06T10:53:36Z</time></trkpt>
<trkpt lat="27.189019" lon="100.050672">
<time>2015-08-06T10:53:37Z</time></trkpt>
<trkpt lat="27.188899" lon="100.050712">
<time>2015-08-06T10:53:38Z</time></trkpt>
<trkpt lat="27.188809" lon="100.050752">
<time>2015-08-06T10:53:39Z</time></trkpt>
<trkpt lat="27.188739" lon="100.050762">
<time>2015-08-06T10:53:40Z</time></trkpt>
<trkpt lat="27.188338" lon="100.050872">
<time>2015-08-06T10:53:41Z</time></trkpt>
<trkpt lat="27.187918" lon="100.050981">
<time>2015-08-06T10:53:42Z</time></trkpt>
<trkpt lat="27.187658" lon="100.051051">
<time>2015-08-06T10:53:43Z</time></trkpt>
<trkpt lat="27.187338" lon="100.051131">
<time>2015-08-06T10:53:44Z</time></trkpt>
<trkpt lat="27.187048" lon="100.051191">
<time>2015-08-06T10:53:45Z</time></trkpt>
<trkpt lat="27.186948" lon="100.051221">
<time>2015-08-06T10:53:46Z</time></trkpt>
<trkpt lat="27.186848" lon="100.051251">
<time>2015-08-06T10:53:47Z</time></trkpt>
<trkpt lat="27.186778" lon="100.051271">
<time>2015-08-06T10:53:48Z</time></trkpt>
<trkpt lat="27.186718" lon="100.051291">
<time>2015-08-06T10:53:49Z</time></trkpt>
<trkpt lat="27.186668" lon="100.051301">
<time>2015-08-06T10:53:50Z</time></trkpt>
<trkpt lat="27.186618" lon="100.051311">
<time>2015-08-06T10:53:51Z</time></trkpt>
<trkpt lat="27.186588" lon="100.051311">
<time>2015-08-06T10:53:52Z</time></trkpt>
<trkpt lat="27.186288" lon="100.051201">
<time>2015-08-06T10:53:53Z</time></trkpt>
<trkpt lat="27.186049" lon="100.051101">
<time>2015-08-06T10:53:54Z</time></trkpt>
<trkpt lat="27.185769" lon="100.050971">
<time>2015-08-06T10:53:55Z</time></trkpt>
<trkpt lat="27.185549" lon="100.050842">
<time>2015-08-06T10:53:56Z</time></trkpt>
<trkpt lat="27.185369" lon="100.050712">
<time>2015-08-06T10:53:57Z</time></trkpt>
<trkpt lat="27.18509" lon="100.050512">
<time>2015-08-06T10:53:58Z</time></trkpt>
<trkpt lat="27.18445" lon="100.050642">
<time>2015-08-06T10:53:59Z</time></trkpt>
<trkpt lat="27.18405" lon="100.050752">
<time>2015-08-06T10:54:00Z</time></trkpt>
<trkpt lat="27.183559" lon="100.050942">
<time>2015-08-06T10:54:01Z</time></trkpt>
<trkpt lat="27.183129" lon="100.051111">
<time>2015-08-06T10:54:02Z</time></trkpt>
<trkpt lat="27.182789" lon="100.051301">
<time>2015-08-06T10:54:03Z</time></trkpt>
<trkpt lat="27.182419" lon="100.05157">
<time>2015-08-06T10:54:04Z</time></trkpt>
<trkpt lat="27.181678" lon="100.052089">
<time>2015-08-06T10:54:05Z</time></trkpt>
<trkpt lat="27.181337" lon="100.052379">
<time>2015-08-06T10:54:06Z</time></trkpt>
<trkpt lat="27.181197" lon="100.052518">
<time>2015-08-06T10:54:07Z</time></trkpt>
<trkpt lat="27.181097" lon="100.052648">
<time>2015-08-06T10:54:08Z</time></trkpt>
<trkpt lat="27.180936" lon="100.052927">
<time>2015-08-06T10:54:09Z</time></trkpt>
<trkpt lat="27.180776" lon="100.053267">
<time>2015-08-06T10:54:10Z</time></trkpt>
<trkpt lat="27.180715" lon="100.053376">
<time>2015-08-06T10:54:11Z</time></trkpt>
<trkpt lat="27.180645" lon="100.053496">
<time>2015-08-06T10:54:12Z</time></trkpt>
<trkpt lat="27.180515" lon="100.053666">
<time>2015-08-06T10:54:13Z</time></trkpt>
<trkpt lat="27.180365" lon="100.053786">
<time>2015-08-06T10:54:14Z</time></trkpt>
<trkpt lat="27.180165" lon="100.053905">
<time>2015-08-06T10:54:15Z</time></trkpt>
<trkpt lat="27.179955" lon="100.053975">
<time>2015-08-06T10:54:16Z</time></trkpt>
<trkpt lat="27.178894" lon="100.054215">
<time>2015-08-06T10:54:17Z</time></trkpt>
<trkpt lat="27.178554" lon="100.054295">
<time>2015-08-06T10:54:18Z</time></trkpt>
<trkpt lat="27.178314" lon="100.054404">
<time>2015-08-06T10:54:19Z</time></trkpt>
<trkpt lat="27.178004" lon="100.054594">
<time>2015-08-06T10:54:20Z</time></trkpt>
<trkpt lat="27.177714" lon="100.054794">
<time>2015-08-06T10:54:21Z</time></trkpt>
<trkpt lat="27.177573" lon="100.054903">
<time>2015-08-06T10:54:22Z</time></trkpt>
<trkpt lat="27.177433" lon="100.054993">
<time>2015-08-06T10:54:23Z</time></trkpt>
<trkpt lat="27.177183" lon="100.055113">
<time>2015-08-06T10:54:24Z</time></trkpt>
<trkpt lat="27.176683" lon="100.055263">
<time>2015-08-06T10:54:25Z</time></trkpt>
<trkpt lat="27.175723" lon="100.055482">
<time>2015-08-06T10:54:26Z</time></trkpt>
<trkpt lat="27.174373" lon="100.055832">
<time>2015-08-06T10:54:27Z</time></trkpt>
<trkpt lat="27.174072" lon="100.055931">
<time>2015-08-06T10:54:28Z</time></trkpt>
<trkpt lat="27.173802" lon="100.056021">
<time>2015-08-06T10:54:29Z</time></trkpt>
<trkpt lat="27.173372" lon="100.056261">
<time>2015-08-06T10:54:30Z</time></trkpt>
<trkpt lat="27.172661" lon="100.05671">
<time>2015-08-06T10:54:31Z</time></trkpt>
<trkpt lat="27.172481" lon="100.05683">
<time>2015-08-06T10:54:32Z</time></trkpt>
<trkpt lat="27.172331" lon="100.05696">
<time>2015-08-06T10:54:33Z</time></trkpt>
<trkpt lat="27.172221" lon="100.057079">
<time>2015-08-06T10:54:34Z</time></trkpt>
<trkpt lat="27.172071" lon="100.057289">
<time>2015-08-06T10:54:35Z</time></trkpt>
<trkpt lat="27.17188" lon="100.057608">
<time>2015-08-06T10:54:36Z</time></trkpt>
<trkpt lat="27.171669" lon="100.058008">
<time>2015-08-06T10:54:37Z</time></trkpt>
<trkpt lat="27.171389" lon="100.058417">
<time>2015-08-06T10:54:38Z</time></trkpt>
<trkpt lat="27.171199" lon="100.058616">
<time>2015-08-06T10:54:39Z</time></trkpt>
<trkpt lat="27.171068" lon="100.058796">
<time>2015-08-06T10:54:40Z</time></trkpt>
<trkpt lat="27.170557" lon="100.059375">
<time>2015-08-06T10:54:41Z</time></trkpt>
<trkpt lat="27.170097" lon="100.059934">
<time>2015-08-06T10:54:42Z</time></trkpt>
<trkpt lat="27.169946" lon="100.060154">
<time>2015-08-06T10:54:43Z</time></trkpt>
<trkpt lat="27.169836" lon="100.060383">
<time>2015-08-06T10:54:44Z</time></trkpt>
<trkpt lat="27.169776" lon="100.060583">
<time>2015-08-06T10:54:45Z</time></trkpt>
<trkpt lat="27.169745" lon="100.060773">
<time>2015-08-06T10:54:46Z</time></trkpt>
<trkpt lat="27.169745" lon="100.061072">
<time>2015-08-06T10:54:47Z</time></trkpt>
<trkpt lat="27.169754" lon="100.061402">
<time>2015-08-06T10:54:48Z</time></trkpt>
<trkpt lat="27.169754" lon="100.061871">
<time>2015-08-06T10:54:49Z</time></trkpt>
<trkpt lat="27.169703" lon="100.06227">
<time>2015-08-06T10:54:50Z</time></trkpt>
<trkpt lat="27.169643" lon="100.06263">
<time>2015-08-06T10:54:51Z</time></trkpt>
<trkpt lat="27.169522" lon="100.063099">
<time>2015-08-06T10:54:52Z</time></trkpt>
<trkpt lat="27.169451" lon="100.063338">
<time>2015-08-06T10:54:53Z</time></trkpt>
<trkpt lat="27.169371" lon="100.063488">
<time>2015-08-06T10:54:54Z</time></trkpt>
<trkpt lat="27.169271" lon="100.063668">
<time>2015-08-06T10:54:55Z</time></trkpt>
<trkpt lat="27.169151" lon="100.063818">
<time>2015-08-06T10:54:56Z</time></trkpt>
<trkpt lat="27.169011" lon="100.063957">
<time>2015-08-06T10:54:57Z</time></trkpt>
<trkpt lat="27.168901" lon="100.064047">
<time>2015-08-06T10:54:58Z</time></trkpt>
<trkpt lat="27.168741" lon="100.064137">
<time>2015-08-06T10:54:59Z</time></trkpt>
<trkpt lat="27.16858" lon="100.064217">
<time>2015-08-06T10:55:00Z</time></trkpt>
<trkpt lat="27.16843" lon="100.064267">
<time>2015-08-06T10:55:01Z</time></trkpt>
<trkpt lat="27.16828" lon="100.064307">
<time>2015-08-06T10:55:02Z</time></trkpt>
<trkpt lat="27.16801" lon="100.064347">
<time>2015-08-06T10:55:03Z</time></trkpt>
<trkpt lat="27.16782" lon="100.064367">
<time>2015-08-06T10:55:04Z</time></trkpt>
<trkpt lat="27.16767" lon="100.064377">
<time>2015-08-06T10:55:05Z</time></trkpt>
<trkpt lat="27.16752" lon="100.064377">
<time>2015-08-06T10:55:06Z</time></trkpt>
<trkpt lat="27.167391" lon="100.064367">
<time>2015-08-06T10:55:07Z</time></trkpt>
<trkpt lat="27.167261" lon="100.064337">
<time>2015-08-06T10:55:08Z</time></trkpt>
<trkpt lat="27.167181" lon="100.064307">
<time>2015-08-06T10:55:09Z</time></trkpt>
<trkpt lat="27.167101" lon="100.064277">
<time>2015-08-06T10:55:10Z</time></trkpt>
<trkpt lat="27.167001" lon="100.064207">
<time>2015-08-06T10:55:11Z</time></trkpt>
<trkpt lat="27.166911" lon="100.064107">
<time>2015-08-06T10:55:12Z</time></trkpt>
<trkpt lat="27.166821" lon="100.063987">
<time>2015-08-06T10:55:13Z</time></trkpt>
<trkpt lat="27.166692" lon="100.063788">
<time>2015-08-06T10:55:14Z</time></trkpt>
<trkpt lat="27.166582" lon="100.063678">
<time>2015-08-06T10:55:15Z</time></trkpt>
<trkpt lat="27.166442" lon="100.063548">
<time>2015-08-06T10:55:16Z</time></trkpt>
<trkpt lat="27.166342" lon="100.063438">
<time>2015-08-06T10:55:17Z</time></trkpt>
<trkpt lat="27.166262" lon="100.063329">
<time>2015-08-06T10:55:18Z</time></trkpt>
<trkpt lat="27.166093" lon="100.063039">
<time>2015-08-06T10:55:19Z</time></trkpt>
<trkpt lat="27.165933" lon="100.062769">
<time>2015-08-06T10:55:20Z</time></trkpt>
<trkpt lat="27.165734" lon="100.06248">
<time>2015-08-06T10:55:21Z</time></trkpt>
<trkpt lat="27.165624" lon="100.06237">
<time>2015-08-06T10:55:22Z</time></trkpt>
<trkpt lat="27.165514" lon="100.06226">
<time>2015-08-06T10:55:23Z</time></trkpt>
<trkpt lat="27.165424" lon="100.06218">
<time>2015-08-06T10:55:24Z</time></trkpt>
<trkpt lat="27.165324" lon="100.062081">
<time>2015-08-06T10:55:25Z</time></trkpt>
<trkpt lat="27.165185" lon="100.061981">
<time>2015-08-06T10:55:26Z</time></trkpt>
<trkpt lat="27.165045" lon="100.061881">
<time>2015-08-06T10:55:27Z</time></trkpt>
<trkpt lat="27.164725" lon="100.061641">
<time>2015-08-06T10:55:28Z</time></trkpt>
<trkpt lat="27.164526" lon="100.061512">
<time>2015-08-06T10:55:29Z</time></trkpt>
<trkpt lat="27.164256" lon="100.061292">
<time>2015-08-06T10:55:30Z</time></trkpt>
<trkpt lat="27.164106" lon="100.061152">
<time>2015-08-06T10:55:31Z</time></trkpt>
<trkpt lat="27.163907" lon="100.060923">
<time>2015-08-06T10:55:32Z</time></trkpt>
<trkpt lat="27.163777" lon="100.060733">
<time>2015-08-06T10:55:33Z</time></trkpt>
<trkpt lat="27.163538" lon="100.060413">
<time>2015-08-06T10:55:34Z</time></trkpt>
<trkpt lat="27.163378" lon="100.060254">
<time>2015-08-06T10:55:35Z</time></trkpt>
<trkpt lat="27.163198" lon="100.060094">
<time>2015-08-06T10:55:36Z</time></trkpt>
<trkpt lat="27.162968" lon="100.059934">
<time>2015-08-06T10:55:37Z</time></trkpt>
<trkpt lat="27.162749" lon="100.059825">
<time>2015-08-06T10:55:38Z</time></trkpt>
<trkpt lat="27.162199" lon="100.059625">
<time>2015-08-06T10:55:39Z</time></trkpt>
<trkpt lat="27.16186" lon="100.059485">
<time>2015-08-06T10:55:40Z</time></trkpt>
<trkpt lat="27.16162" lon="100.059355">
<time>2015-08-06T10:55:41Z</time></trkpt>
<trkpt lat="27.16144" lon="100.059256">
<time>2015-08-06T10:55:42Z</time></trkpt>
<trkpt lat="27.16125" lon="100.059146">
<time>2015-08-06T10:55:43Z</time></trkpt>
<trkpt lat="27.16124" lon="100.059136">
<time>2015-08-06T10:55:44Z</time></trkpt>
<trkpt lat="27.16109" lon="100.059056">
<time>2015-08-06T10:55:45Z</time></trkpt>
<trkpt lat="27.160911" lon="100.058986">
<time>2015-08-06T10:55:46Z</time></trkpt>
<trkpt lat="27.160721" lon="100.058916">
<time>2015-08-06T10:55:47Z</time></trkpt>
<trkpt lat="27.160481" lon="100.058876">
<time>2015-08-06T10:55:48Z</time></trkpt>
<trkpt lat="27.160321" lon="100.058876">
<time>2015-08-06T10:55:49Z</time></trkpt>
<trkpt lat="27.160091" lon="100.058886">
<time>2015-08-06T10:55:50Z</time></trkpt>
<trkpt lat="27.159951" lon="100.058886">
<time>2015-08-06T10:55:51Z</time></trkpt>
<trkpt lat="27.159781" lon="100.058896">
<time>2015-08-06T10:55:52Z</time></trkpt>
<trkpt lat="27.159601" lon="100.058896">
<time>2015-08-06T10:55:53Z</time></trkpt>
<trkpt lat="27.159421" lon="100.058896">
<time>2015-08-06T10:55:54Z</time></trkpt>
<trkpt lat="27.159071" lon="100.058846">
<time>2015-08-06T10:55:55Z</time></trkpt>
<trkpt lat="27.158382" lon="100.058667">
<time>2015-08-06T10:55:56Z</time></trkpt>
<trkpt lat="27.158142" lon="100.058647">
<time>2015-08-06T10:55:57Z</time></trkpt>
<trkpt lat="27.157522" lon="100.058607">
<time>2015-08-06T10:55:58Z</time></trkpt>
<trkpt lat="27.156922" lon="100.058577">
<time>2015-08-06T10:55:59Z</time></trkpt>
<trkpt lat="27.156233" lon="100.058507">
<time>2015-08-06T10:56:00Z</time></trkpt>
<trkpt lat="27.155973" lon="100.058467">
<time>2015-08-06T10:56:01Z</time></trkpt>
<trkpt lat="27.155613" lon="100.058387">
<time>2015-08-06T10:56:02Z</time></trkpt>
<trkpt lat="27.155253" lon="100.058278">
<time>2015-08-06T10:56:03Z</time></trkpt>
<trkpt lat="27.154874" lon="100.058148">
<time>2015-08-06T10:56:04Z</time></trkpt>
<trkpt lat="27.154444" lon="100.057968">
<time>2015-08-06T10:56:05Z</time></trkpt>
<trkpt lat="27.154044" lon="100.057788">
<time>2015-08-06T10:56:06Z</time></trkpt>
<trkpt lat="27.153795" lon="100.057689">
<time>2015-08-06T10:56:07Z</time></trkpt>
<trkpt lat="27.153345" lon="100.057509">
<time>2015-08-06T10:56:08Z</time></trkpt>
<trkpt lat="27.151057" lon="100.056741">
<time>2015-08-06T10:56:09Z</time></trkpt>
<trkpt lat="27.150318" lon="100.056541">
<time>2015-08-06T10:56:10Z</time></trkpt>
<trkpt lat="27.149698" lon="100.056361">
<time>2015-08-06T10:56:11Z</time></trkpt>
<trkpt lat="27.149108" lon="100.056272">
<time>2015-08-06T10:56:12Z</time></trkpt>
<trkpt lat="27.147999" lon="100.056172">
<time>2015-08-06T10:56:13Z</time></trkpt>
<trkpt lat="27.147259" lon="100.056162">
<time>2015-08-06T10:56:14Z</time></trkpt>
<trkpt lat="27.146879" lon="100.056142">
<time>2015-08-06T10:56:15Z</time></trkpt>
<trkpt lat="27.146629" lon="100.056072">
<time>2015-08-06T10:56:16Z</time></trkpt>
<trkpt lat="27.14644" lon="100.056012">
<time>2015-08-06T10:56:17Z</time></trkpt>
<trkpt lat="27.14627" lon="100.055952">
<time>2015-08-06T10:56:18Z</time></trkpt>
<trkpt lat="27.14607" lon="100.055862">
<time>2015-08-06T10:56:19Z</time></trkpt>
<trkpt lat="27.14586" lon="100.055793">
<time>2015-08-06T10:56:20Z</time></trkpt>
<trkpt lat="27.14566" lon="100.055703">
<time>2015-08-06T10:56:21Z</time></trkpt>
<trkpt lat="27.14545" lon="100.055633">
<time>2015-08-06T10:56:22Z</time></trkpt>
<trkpt lat="27.145201" lon="100.055593">
<time>2015-08-06T10:56:23Z</time></trkpt>
<trkpt lat="27.144991" lon="100.055553">
<time>2015-08-06T10:56:24Z</time></trkpt>
<trkpt lat="27.144801" lon="100.055523">
<time>2015-08-06T10:56:25Z</time></trkpt>
<trkpt lat="27.144631" lon="100.055503">
<time>2015-08-06T10:56:26Z</time></trkpt>
<trkpt lat="27.144431" lon="100.055483">
<time>2015-08-06T10:56:27Z</time></trkpt>
<trkpt lat="27.144241" lon="100.055453">
<time>2015-08-06T10:56:28Z</time></trkpt>
<trkpt lat="27.144061" lon="100.055433">
<time>2015-08-06T10:56:29Z</time></trkpt>
<trkpt lat="27.143891" lon="100.055433">
<time>2015-08-06T10:56:30Z</time></trkpt>
<trkpt lat="27.143741" lon="100.055433">
<time>2015-08-06T10:56:31Z</time></trkpt>
<trkpt lat="27.143601" lon="100.055423">
<time>2015-08-06T10:56:32Z</time></trkpt>
<trkpt lat="27.143471" lon="100.055413">
<time>2015-08-06T10:56:33Z</time></trkpt>
<trkpt lat="27.143301" lon="100.055403">
<time>2015-08-06T10:56:34Z</time></trkpt>
<trkpt lat="27.143091" lon="100.055403">
<time>2015-08-06T10:56:35Z</time></trkpt>
<trkpt lat="27.142892" lon="100.055403">
<time>2015-08-06T10:56:36Z</time></trkpt>
<trkpt lat="27.142722" lon="100.055423">
<time>2015-08-06T10:56:37Z</time></trkpt>
<trkpt lat="27.141452" lon="100.055334">
<time>2015-08-06T10:56:38Z</time></trkpt>
<trkpt lat="27.141182" lon="100.055274">
<time>2015-08-06T10:56:39Z</time></trkpt>
<trkpt lat="27.139923" lon="100.055034">
<time>2015-08-06T10:56:40Z</time></trkpt>
<trkpt lat="27.139443" lon="100.054974">
<time>2015-08-06T10:56:41Z</time></trkpt>
<trkpt lat="27.139063" lon="100.054974">
<time>2015-08-06T10:56:42Z</time></trkpt>
<trkpt lat="27.138433" lon="100.054994">
<time>2015-08-06T10:56:43Z</time></trkpt>
<trkpt lat="27.137994" lon="100.054974">
<time>2015-08-06T10:56:44Z</time></trkpt>
<trkpt lat="27.137794" lon="100.054944">
<time>2015-08-06T10:56:45Z</time></trkpt>
<trkpt lat="27.137634" lon="100.054904">
<time>2015-08-06T10:56:46Z</time></trkpt>
<trkpt lat="27.137314" lon="100.054755">
<time>2015-08-06T10:56:47Z</time></trkpt>
<trkpt lat="27.136995" lon="100.054595">
<time>2015-08-06T10:56:48Z</time></trkpt>
<trkpt lat="27.136865" lon="100.054515">
<time>2015-08-06T10:56:49Z</time></trkpt>
<trkpt lat="27.136695" lon="100.054416">
<time>2015-08-06T10:56:50Z</time></trkpt>
<trkpt lat="27.136415" lon="100.054266">
<time>2015-08-06T10:56:51Z</time></trkpt>
<trkpt lat="27.136156" lon="100.054136">
<time>2015-08-06T10:56:52Z</time></trkpt>
<trkpt lat="27.135896" lon="100.054056">
<time>2015-08-06T10:56:53Z</time></trkpt>
<trkpt lat="27.135586" lon="100.054006">
<time>2015-08-06T10:56:54Z</time></trkpt>
<trkpt lat="27.135376" lon="100.054006">
<time>2015-08-06T10:56:55Z</time></trkpt>
<trkpt lat="27.133876" lon="100.054266">
<time>2015-08-06T10:56:56Z</time></trkpt>
<trkpt lat="27.133686" lon="100.054326">
<time>2015-08-06T10:56:57Z</time></trkpt>
<trkpt lat="27.133486" lon="100.054366">
<time>2015-08-06T10:56:58Z</time></trkpt>
<trkpt lat="27.133296" lon="100.054386">
<time>2015-08-06T10:56:59Z</time></trkpt>
<trkpt lat="27.133096" lon="100.054396">
<time>2015-08-06T10:57:00Z</time></trkpt>
<trkpt lat="27.132886" lon="100.054386">
<time>2015-08-06T10:57:01Z</time></trkpt>
<trkpt lat="27.131947" lon="100.054266">
<time>2015-08-06T10:57:02Z</time></trkpt>
<trkpt lat="27.131687" lon="100.054216">
<time>2015-08-06T10:57:03Z</time></trkpt>
<trkpt lat="27.130687" lon="100.053967">
<time>2015-08-06T10:57:04Z</time></trkpt>
<trkpt lat="27.130348" lon="100.053887">
<time>2015-08-06T10:57:05Z</time></trkpt>
<trkpt lat="27.130128" lon="100.053827">
<time>2015-08-06T10:57:06Z</time></trkpt>
<trkpt lat="27.129858" lon="100.053737">
<time>2015-08-06T10:57:07Z</time></trkpt>
<trkpt lat="27.129608" lon="100.053677">
<time>2015-08-06T10:57:08Z</time></trkpt>
<trkpt lat="27.129268" lon="100.053627">
<time>2015-08-06T10:57:09Z</time></trkpt>
<trkpt lat="27.128829" lon="100.053607">
<time>2015-08-06T10:57:10Z</time></trkpt>
<trkpt lat="27.125839" lon="100.053568">
<time>2015-08-06T10:57:11Z</time></trkpt>
<trkpt lat="27.12526" lon="100.053498">
<time>2015-08-06T10:57:12Z</time></trkpt>
<trkpt lat="27.12505" lon="100.053438">
<time>2015-08-06T10:57:13Z</time></trkpt>
<trkpt lat="27.12486" lon="100.053388">
<time>2015-08-06T10:57:14Z</time></trkpt>
<trkpt lat="27.124291" lon="100.053228">
<time>2015-08-06T10:57:15Z</time></trkpt>
<trkpt lat="27.123701" lon="100.053138">
<time>2015-08-06T10:57:16Z</time></trkpt>
<trkpt lat="27.122581" lon="100.053069">
<time>2015-08-06T10:57:17Z</time></trkpt>
<trkpt lat="27.121822" lon="100.053039">
<time>2015-08-06T10:57:18Z</time></trkpt>
<trkpt lat="27.120922" lon="100.053099">
<time>2015-08-06T10:57:19Z</time></trkpt>
<trkpt lat="27.120692" lon="100.053119">
<time>2015-08-06T10:57:20Z</time></trkpt>
<trkpt lat="27.120032" lon="100.053198">
<time>2015-08-06T10:57:21Z</time></trkpt>
<trkpt lat="27.119342" lon="100.053228">
<time>2015-08-06T10:57:22Z</time></trkpt>
<trkpt lat="27.119052" lon="100.053188">
<time>2015-08-06T10:57:23Z</time></trkpt>
<trkpt lat="27.118762" lon="100.053129">
<time>2015-08-06T10:57:24Z</time></trkpt>
<trkpt lat="27.118252" lon="100.053039">
<time>2015-08-06T10:57:25Z</time></trkpt>
<trkpt lat="27.117993" lon="100.052969">
<time>2015-08-06T10:57:26Z</time></trkpt>
<trkpt lat="27.117313" lon="100.052859">
<time>2015-08-06T10:57:27Z</time></trkpt>
<trkpt lat="27.116973" lon="100.052849">
<time>2015-08-06T10:57:28Z</time></trkpt>
<trkpt lat="27.116683" lon="100.052859">
<time>2015-08-06T10:57:29Z</time></trkpt>
<trkpt lat="27.116063" lon="100.052899">
<time>2015-08-06T10:57:30Z</time></trkpt>
<trkpt lat="27.115463" lon="100.052939">
<time>2015-08-06T10:57:31Z</time></trkpt>
<trkpt lat="27.115233" lon="100.052929">
<time>2015-08-06T10:57:32Z</time></trkpt>
<trkpt lat="27.114964" lon="100.052889">
<time>2015-08-06T10:57:33Z</time></trkpt>
<trkpt lat="27.114204" lon="100.052859">
<time>2015-08-06T10:57:34Z</time></trkpt>
<trkpt lat="27.111454" lon="100.053029">
<time>2015-08-06T10:57:35Z</time></trkpt>
<trkpt lat="27.110554" lon="100.053079">
<time>2015-08-06T10:57:36Z</time></trkpt>
<trkpt lat="27.109325" lon="100.053219">
<time>2015-08-06T10:57:37Z</time></trkpt>
<trkpt lat="27.109064" lon="100.053309">
<time>2015-08-06T10:57:38Z</time></trkpt>
<trkpt lat="27.108774" lon="100.053398">
<time>2015-08-06T10:57:39Z</time></trkpt>
<trkpt lat="27.108334" lon="100.053538">
<time>2015-08-06T10:57:40Z</time></trkpt>
<trkpt lat="27.107544" lon="100.053887">
<time>2015-08-06T10:57:41Z</time></trkpt>
<trkpt lat="27.106943" lon="100.054257">
<time>2015-08-06T10:57:42Z</time></trkpt>
<trkpt lat="27.106483" lon="100.054586">
<time>2015-08-06T10:57:43Z</time></trkpt>
<trkpt lat="27.104711" lon="100.056033">
<time>2015-08-06T10:57:44Z</time></trkpt>
<trkpt lat="27.10447" lon="100.056233">
<time>2015-08-06T10:57:45Z</time></trkpt>
<trkpt lat="27.10425" lon="100.056442">
<time>2015-08-06T10:57:46Z</time></trkpt>
<trkpt lat="27.103279" lon="100.057271">
<time>2015-08-06T10:57:47Z</time></trkpt>
<trkpt lat="27.102498" lon="100.05785">
<time>2015-08-06T10:57:48Z</time></trkpt>
<trkpt lat="27.102278" lon="100.057989">
<time>2015-08-06T10:57:49Z</time></trkpt>
<trkpt lat="27.102048" lon="100.058119">
<time>2015-08-06T10:57:50Z</time></trkpt>
<trkpt lat="27.100797" lon="100.058728">
<time>2015-08-06T10:57:51Z</time></trkpt>
<trkpt lat="27.099756" lon="100.059227">
<time>2015-08-06T10:57:52Z</time></trkpt>
<trkpt lat="27.098566" lon="100.059846">
<time>2015-08-06T10:57:53Z</time></trkpt>
<trkpt lat="27.098266" lon="100.059956">
<time>2015-08-06T10:57:54Z</time></trkpt>
<trkpt lat="27.097495" lon="100.060345">
<time>2015-08-06T10:57:55Z</time></trkpt>
<trkpt lat="27.096905" lon="100.060565">
<time>2015-08-06T10:57:56Z</time></trkpt>
<trkpt lat="27.096415" lon="100.060715">
<time>2015-08-06T10:57:57Z</time></trkpt>
<trkpt lat="27.095505" lon="100.060884">
<time>2015-08-06T10:57:58Z</time></trkpt>
<trkpt lat="27.094005" lon="100.061094">
<time>2015-08-06T10:57:59Z</time></trkpt>
<trkpt lat="27.093305" lon="100.061164">
<time>2015-08-06T10:58:00Z</time></trkpt>
<trkpt lat="27.093045" lon="100.061184">
<time>2015-08-06T10:58:01Z</time></trkpt>
<trkpt lat="27.091815" lon="100.061184">
<time>2015-08-06T10:58:02Z</time></trkpt>
<trkpt lat="27.091595" lon="100.061194">
<time>2015-08-06T10:58:03Z</time></trkpt>
<trkpt lat="27.091025" lon="100.061234">
<time>2015-08-06T10:58:04Z</time></trkpt>
<trkpt lat="27.090625" lon="100.061314">
<time>2015-08-06T10:58:05Z</time></trkpt>
<trkpt lat="27.090315" lon="100.061394">
<time>2015-08-06T10:58:06Z</time></trkpt>
<trkpt lat="27.089995" lon="100.061474">
<time>2015-08-06T10:58:07Z</time></trkpt>
<trkpt lat="27.089685" lon="100.061554">
<time>2015-08-06T10:58:08Z</time></trkpt>
<trkpt lat="27.089385" lon="100.061633">
<time>2015-08-06T10:58:09Z</time></trkpt>
<trkpt lat="27.089085" lon="100.061703">
<time>2015-08-06T10:58:10Z</time></trkpt>
<trkpt lat="27.088785" lon="100.061773">
<time>2015-08-06T10:58:11Z</time></trkpt>
<trkpt lat="27.088495" lon="100.061833">
<time>2015-08-06T10:58:12Z</time></trkpt>
<trkpt lat="27.088195" lon="100.061863">
<time>2015-08-06T10:58:13Z</time></trkpt>
<trkpt lat="27.087905" lon="100.061863">
<time>2015-08-06T10:58:14Z</time></trkpt>
<trkpt lat="27.087605" lon="100.061833">
<time>2015-08-06T10:58:15Z</time></trkpt>
<trkpt lat="27.087306" lon="100.061783">
<time>2015-08-06T10:58:16Z</time></trkpt>
<trkpt lat="27.086996" lon="100.061733">
<time>2015-08-06T10:58:17Z</time></trkpt>
<trkpt lat="27.086926" lon="100.061733">
<time>2015-08-06T10:58:18Z</time></trkpt>
<trkpt lat="27.086686" lon="100.061713">
<time>2015-08-06T10:58:19Z</time></trkpt>
<trkpt lat="27.086366" lon="100.061713">
<time>2015-08-06T10:58:20Z</time></trkpt>
<trkpt lat="27.086046" lon="100.061713">
<time>2015-08-06T10:58:21Z</time></trkpt>
<trkpt lat="27.085726" lon="100.061713">
<time>2015-08-06T10:58:22Z</time></trkpt>
<trkpt lat="27.085406" lon="100.061723">
<time>2015-08-06T10:58:23Z</time></trkpt>
<trkpt lat="27.085086" lon="100.061713">
<time>2015-08-06T10:58:24Z</time></trkpt>
<trkpt lat="27.084756" lon="100.061703">
<time>2015-08-06T10:58:25Z</time></trkpt>
<trkpt lat="27.084426" lon="100.061713">
<time>2015-08-06T10:58:26Z</time></trkpt>
<trkpt lat="27.084107" lon="100.061743">
<time>2015-08-06T10:58:27Z</time></trkpt>
<trkpt lat="27.083787" lon="100.061773">
<time>2015-08-06T10:58:28Z</time></trkpt>
<trkpt lat="27.083457" lon="100.061813">
<time>2015-08-06T10:58:29Z</time></trkpt>
<trkpt lat="27.083357" lon="100.061823">
<time>2015-08-06T10:58:30Z</time></trkpt>
<trkpt lat="27.082967" lon="100.061813">
<time>2015-08-06T10:58:31Z</time></trkpt>
<trkpt lat="27.081897" lon="100.061813">
<time>2015-08-06T10:58:32Z</time></trkpt>
<trkpt lat="27.081537" lon="100.061843">
<time>2015-08-06T10:58:33Z</time></trkpt>
<trkpt lat="27.081177" lon="100.061883">
<time>2015-08-06T10:58:34Z</time></trkpt>
<trkpt lat="27.080537" lon="100.062053">
<time>2015-08-06T10:58:35Z</time></trkpt>
<trkpt lat="27.079377" lon="100.062532">
<time>2015-08-06T10:58:36Z</time></trkpt>
<trkpt lat="27.077536" lon="100.063331">
<time>2015-08-06T10:58:37Z</time></trkpt>
<trkpt lat="27.077376" lon="100.063411">
<time>2015-08-06T10:58:38Z</time></trkpt>
<trkpt lat="27.077236" lon="100.063491">
<time>2015-08-06T10:58:39Z</time></trkpt>
<trkpt lat="27.077096" lon="100.063581">
<time>2015-08-06T10:58:40Z</time></trkpt>
<trkpt lat="27.076986" lon="100.06367">
<time>2015-08-06T10:58:41Z</time></trkpt>
<trkpt lat="27.076885" lon="100.06376">
<time>2015-08-06T10:58:42Z</time></trkpt>
<trkpt lat="27.076775" lon="100.06388">
<time>2015-08-06T10:58:43Z</time></trkpt>
<trkpt lat="27.076665" lon="100.06401">
<time>2015-08-06T10:58:44Z</time></trkpt>
<trkpt lat="27.076535" lon="100.06417">
<time>2015-08-06T10:58:45Z</time></trkpt>
<trkpt lat="27.076465" lon="100.064279">
<time>2015-08-06T10:58:46Z</time></trkpt>
<trkpt lat="27.076204" lon="100.064709">
<time>2015-08-06T10:58:47Z</time></trkpt>
<trkpt lat="27.075874" lon="100.065268">
<time>2015-08-06T10:58:48Z</time></trkpt>
<trkpt lat="27.075763" lon="100.065408">
<time>2015-08-06T10:58:49Z</time></trkpt>
<trkpt lat="27.075653" lon="100.065547">
<time>2015-08-06T10:58:50Z</time></trkpt>
<trkpt lat="27.075363" lon="100.065827">
<time>2015-08-06T10:58:51Z</time></trkpt>
<trkpt lat="27.074912" lon="100.066246">
<time>2015-08-06T10:58:52Z</time></trkpt>
<trkpt lat="27.074522" lon="100.066646">
<time>2015-08-06T10:58:53Z</time></trkpt>
<trkpt lat="27.074372" lon="100.066836">
<time>2015-08-06T10:58:54Z</time></trkpt>
<trkpt lat="27.074222" lon="100.067055">
<time>2015-08-06T10:58:55Z</time></trkpt>
<trkpt lat="27.074031" lon="100.067375">
<time>2015-08-06T10:58:56Z</time></trkpt>
<trkpt lat="27.073881" lon="100.067664">
<time>2015-08-06T10:58:57Z</time></trkpt>
<trkpt lat="27.07348" lon="100.068493">
<time>2015-08-06T10:58:58Z</time></trkpt>
<trkpt lat="27.073239" lon="100.069043">
<time>2015-08-06T10:58:59Z</time></trkpt>
<trkpt lat="27.073069" lon="100.069352">
<time>2015-08-06T10:59:00Z</time></trkpt>
<trkpt lat="27.072919" lon="100.069592">
<time>2015-08-06T10:59:01Z</time></trkpt>
<trkpt lat="27.072698" lon="100.069862">
<time>2015-08-06T10:59:02Z</time></trkpt>
<trkpt lat="27.072538" lon="100.070021">
<time>2015-08-06T10:59:03Z</time></trkpt>
<trkpt lat="27.072358" lon="100.070171">
<time>2015-08-06T10:59:04Z</time></trkpt>
<trkpt lat="27.072038" lon="100.070381">
<time>2015-08-06T10:59:05Z</time></trkpt>
<trkpt lat="27.071908" lon="100.070431">
<time>2015-08-06T10:59:06Z</time></trkpt>
<trkpt lat="27.070998" lon="100.07077">
<time>2015-08-06T10:59:07Z</time></trkpt>
<trkpt lat="27.070308" lon="100.07101">
<time>2015-08-06T10:59:08Z</time></trkpt>
<trkpt lat="27.069708" lon="100.07121">
<time>2015-08-06T10:59:09Z</time></trkpt>
<trkpt lat="27.069437" lon="100.07133">
<time>2015-08-06T10:59:10Z</time></trkpt>
<trkpt lat="27.069167" lon="100.07142">
<time>2015-08-06T10:59:11Z</time></trkpt>
<trkpt lat="27.068887" lon="100.07151">
<time>2015-08-06T10:59:12Z</time></trkpt>
<trkpt lat="27.068607" lon="100.071589">
<time>2015-08-06T10:59:13Z</time></trkpt>
<trkpt lat="27.067857" lon="100.071709">
<time>2015-08-06T10:59:14Z</time></trkpt>
<trkpt lat="27.067158" lon="100.071719">
<time>2015-08-06T10:59:15Z</time></trkpt>
<trkpt lat="27.065688" lon="100.071669">
<time>2015-08-06T10:59:16Z</time></trkpt>
<trkpt lat="27.064848" lon="100.071679">
<time>2015-08-06T10:59:17Z</time></trkpt>
<trkpt lat="27.064338" lon="100.071719">
<time>2015-08-06T10:59:18Z</time></trkpt>
<trkpt lat="27.063878" lon="100.071799">
<time>2015-08-06T10:59:19Z</time></trkpt>
<trkpt lat="27.063438" lon="100.071909">
<time>2015-08-06T10:59:20Z</time></trkpt>
<trkpt lat="27.058548" lon="100.073128">
<time>2015-08-06T10:59:21Z</time></trkpt>
<trkpt lat="27.054838" lon="100.074057">
<time>2015-08-06T10:59:22Z</time></trkpt>
<trkpt lat="27.053618" lon="100.074327">
<time>2015-08-06T10:59:23Z</time></trkpt>
<trkpt lat="27.053178" lon="100.074427">
<time>2015-08-06T10:59:24Z</time></trkpt>
<trkpt lat="27.052458" lon="100.074626">
<time>2015-08-06T10:59:25Z</time></trkpt>
<trkpt lat="27.052318" lon="100.074656">
<time>2015-08-06T10:59:26Z</time></trkpt>
<trkpt lat="27.051989" lon="100.074726">
<time>2015-08-06T10:59:27Z</time></trkpt>
<trkpt lat="27.051539" lon="100.074726">
<time>2015-08-06T10:59:28Z</time></trkpt>
<trkpt lat="27.051139" lon="100.074676">
<time>2015-08-06T10:59:29Z</time></trkpt>
<trkpt lat="27.050739" lon="100.074577">
<time>2015-08-06T10:59:30Z</time></trkpt>
<trkpt lat="27.050339" lon="100.074437">
<time>2015-08-06T10:59:31Z</time></trkpt>
<trkpt lat="27.050119" lon="100.074317">
<time>2015-08-06T10:59:32Z</time></trkpt>
<trkpt lat="27.04984" lon="100.074167">
<time>2015-08-06T10:59:33Z</time></trkpt>
<trkpt lat="27.04956" lon="100.073947">
<time>2015-08-06T10:59:34Z</time></trkpt>
<trkpt lat="27.04925" lon="100.073678">
<time>2015-08-06T10:59:35Z</time></trkpt>
<trkpt lat="27.04915" lon="100.073598">
<time>2015-08-06T10:59:36Z</time></trkpt>
<trkpt lat="27.048112" lon="100.072439">
<time>2015-08-06T10:59:37Z</time></trkpt>
<trkpt lat="27.047533" lon="100.07181">
<time>2015-08-06T10:59:38Z</time></trkpt>
<trkpt lat="27.047423" lon="100.07169">
<time>2015-08-06T10:59:39Z</time></trkpt>
<trkpt lat="27.046574" lon="100.070961">
<time>2015-08-06T10:59:40Z</time></trkpt>
<trkpt lat="27.045625" lon="100.070282">
<time>2015-08-06T10:59:41Z</time></trkpt>
<trkpt lat="27.045056" lon="100.069872">
<time>2015-08-06T10:59:42Z</time></trkpt>
<trkpt lat="27.044257" lon="100.069303">
<time>2015-08-06T10:59:43Z</time></trkpt>
<trkpt lat="27.042349" lon="100.068105">
<time>2015-08-06T10:59:44Z</time></trkpt>
<trkpt lat="27.039801" lon="100.066867">
<time>2015-08-06T10:59:45Z</time></trkpt>
<trkpt lat="27.038202" lon="100.066058">
<time>2015-08-06T10:59:46Z</time></trkpt>
<trkpt lat="27.037383" lon="100.065578">
<time>2015-08-06T10:59:47Z</time></trkpt>
<trkpt lat="27.036285" lon="100.0649">
<time>2015-08-06T10:59:48Z</time></trkpt>
<trkpt lat="27.035925" lon="100.06473">
<time>2015-08-06T10:59:49Z</time></trkpt>
<trkpt lat="27.035575" lon="100.06461">
<time>2015-08-06T10:59:50Z</time></trkpt>
<trkpt lat="27.035245" lon="100.06455">
<time>2015-08-06T10:59:51Z</time></trkpt>
<trkpt lat="27.034915" lon="100.06454">
<time>2015-08-06T10:59:52Z</time></trkpt>
<trkpt lat="27.034616" lon="100.06454">
<time>2015-08-06T10:59:53Z</time></trkpt>
<trkpt lat="27.034266" lon="100.06458">
<time>2015-08-06T10:59:54Z</time></trkpt>
<trkpt lat="27.033675" lon="100.06473">
<time>2015-08-06T10:59:55Z</time></trkpt>
<trkpt lat="27.031875" lon="100.065189">
<time>2015-08-06T10:59:56Z</time></trkpt>
<trkpt lat="27.030415" lon="100.065818">
<time>2015-08-06T10:59:57Z</time></trkpt>
<trkpt lat="27.029885" lon="100.066058">
<time>2015-08-06T10:59:58Z</time></trkpt>
<trkpt lat="27.028994" lon="100.066427">
<time>2015-08-06T10:59:59Z</time></trkpt>
<trkpt lat="27.028274" lon="100.066807">
<time>2015-08-06T11:00:00Z</time></trkpt>
<trkpt lat="27.027824" lon="100.067126">
<time>2015-08-06T11:00:01Z</time></trkpt>
<trkpt lat="27.024471" lon="100.069733">
<time>2015-08-06T11:00:02Z</time></trkpt>
<trkpt lat="27.023661" lon="100.070422">
<time>2015-08-06T11:00:03Z</time></trkpt>
<trkpt lat="27.023541" lon="100.070542">
<time>2015-08-06T11:00:04Z</time></trkpt>
<trkpt lat="27.023" lon="100.071081">
<time>2015-08-06T11:00:05Z</time></trkpt>
<trkpt lat="27.02298" lon="100.071101">
<time>2015-08-06T11:00:06Z</time></trkpt>
<trkpt lat="27.021509" lon="100.072659">
<time>2015-08-06T11:00:07Z</time></trkpt>
<trkpt lat="27.020928" lon="100.073209">
<time>2015-08-06T11:00:08Z</time></trkpt>
<trkpt lat="27.020478" lon="100.073578">
<time>2015-08-06T11:00:09Z</time></trkpt>
<trkpt lat="27.020088" lon="100.073818">
<time>2015-08-06T11:00:10Z</time></trkpt>
<trkpt lat="27.019858" lon="100.073938">
<time>2015-08-06T11:00:11Z</time></trkpt>
<trkpt lat="27.019678" lon="100.074018">
<time>2015-08-06T11:00:12Z</time></trkpt>
<trkpt lat="27.019558" lon="100.074068">
<time>2015-08-06T11:00:13Z</time></trkpt>
<trkpt lat="27.019218" lon="100.074178">
<time>2015-08-06T11:00:14Z</time></trkpt>
<trkpt lat="27.018618" lon="100.074298">
<time>2015-08-06T11:00:15Z</time></trkpt>
<trkpt lat="27.018308" lon="100.074298">
<time>2015-08-06T11:00:16Z</time></trkpt>
<trkpt lat="27.017988" lon="100.074288">
<time>2015-08-06T11:00:17Z</time></trkpt>
<trkpt lat="27.017498" lon="100.074228">
<time>2015-08-06T11:00:18Z</time></trkpt>
<trkpt lat="27.016858" lon="100.074088">
<time>2015-08-06T11:00:19Z</time></trkpt>
<trkpt lat="27.016219" lon="100.073938">
<time>2015-08-06T11:00:20Z</time></trkpt>
<trkpt lat="27.015839" lon="100.073858">
<time>2015-08-06T11:00:21Z</time></trkpt>
<trkpt lat="27.015509" lon="100.073768">
<time>2015-08-06T11:00:22Z</time></trkpt>
<trkpt lat="27.015189" lon="100.073688">
<time>2015-08-06T11:00:23Z</time></trkpt>
<trkpt lat="27.01361" lon="100.073339">
<time>2015-08-06T11:00:24Z</time></trkpt>
<trkpt lat="27.011171" lon="100.0728">
<time>2015-08-06T11:00:25Z</time></trkpt>
<trkpt lat="27.009862" lon="100.07246">
<time>2015-08-06T11:00:26Z</time></trkpt>
<trkpt lat="27.009342" lon="100.07223">
<time>2015-08-06T11:00:27Z</time></trkpt>
<trkpt lat="27.008963" lon="100.072011">
<time>2015-08-06T11:00:28Z</time></trkpt>
<trkpt lat="27.008513" lon="100.071741">
<time>2015-08-06T11:00:29Z</time></trkpt>
<trkpt lat="27.007844" lon="100.071301">
<time>2015-08-06T11:00:30Z</time></trkpt>
<trkpt lat="27.007065" lon="100.070742">
<time>2015-08-06T11:00:31Z</time></trkpt>
<trkpt lat="27.006455" lon="100.070403">
<time>2015-08-06T11:00:32Z</time></trkpt>
<trkpt lat="27.005346" lon="100.069883">
<time>2015-08-06T11:00:33Z</time></trkpt>
<trkpt lat="27.005346" lon="100.069883">
<time>2015-08-06T11:00:34Z</time></trkpt>
<trkpt lat="27.005276" lon="100.070183">
<time>2015-08-06T11:00:35Z</time></trkpt>
<trkpt lat="27.004684" lon="100.071751">
<time>2015-08-06T11:00:36Z</time></trkpt>
<trkpt lat="27.004403" lon="100.07252">
<time>2015-08-06T11:00:37Z</time></trkpt>
<trkpt lat="27.004303" lon="100.07283">
<time>2015-08-06T11:00:38Z</time></trkpt>
<trkpt lat="27.004173" lon="100.07279">
<time>2015-08-06T11:00:39Z</time></trkpt>
<trkpt lat="27.003973" lon="100.07273">
<time>2015-08-06T11:00:40Z</time></trkpt>
<trkpt lat="27.003154" lon="100.07245">
<time>2015-08-06T11:00:41Z</time></trkpt>
<trkpt lat="27.002944" lon="100.07238">
<time>2015-08-06T11:00:42Z</time></trkpt>
<trkpt lat="27.002744" lon="100.07232">
<time>2015-08-06T11:00:43Z</time></trkpt>
<trkpt lat="27.002534" lon="100.07225">
<time>2015-08-06T11:00:44Z</time></trkpt>
<trkpt lat="27.002064" lon="100.072101">
<time>2015-08-06T11:00:45Z</time></trkpt>
<trkpt lat="27.001804" lon="100.072011">
<time>2015-08-06T11:00:46Z</time></trkpt>
<trkpt lat="27.001215" lon="100.071781">
<time>2015-08-06T11:00:47Z</time></trkpt>
<trkpt lat="27.000945" lon="100.071651">
<time>2015-08-06T11:00:48Z</time></trkpt>
<trkpt lat="27.000645" lon="100.071521">
<time>2015-08-06T11:00:49Z</time></trkpt>
<trkpt lat="27.000146" lon="100.071232">
<time>2015-08-06T11:00:50Z</time></trkpt>
<trkpt lat="27.000016" lon="100.071162">
<time>2015-08-06T11:00:51Z</time></trkpt>
<trkpt lat="26.99604" lon="100.068585">
<time>2015-08-06T11:00:52Z</time></trkpt>
<trkpt lat="26.993583" lon="100.067077">
<time>2015-08-06T11:00:53Z</time></trkpt>
<trkpt lat="26.992583" lon="100.066738">
<time>2015-08-06T11:00:54Z</time></trkpt>
<trkpt lat="26.992084" lon="100.066648">
<time>2015-08-06T11:00:55Z</time></trkpt>
<trkpt lat="26.990305" lon="100.066169">
<time>2015-08-06T11:00:56Z</time></trkpt>
<trkpt lat="26.989226" lon="100.06561">
<time>2015-08-06T11:00:57Z</time></trkpt>
<trkpt lat="26.988407" lon="100.064781">
<time>2015-08-06T11:00:58Z</time></trkpt>
<trkpt lat="26.988197" lon="100.064671">
<time>2015-08-06T11:00:59Z</time></trkpt>
<trkpt lat="26.987868" lon="100.064392">
<time>2015-08-06T11:01:00Z</time></trkpt>
<trkpt lat="26.987748" lon="100.064262">
<time>2015-08-06T11:01:01Z</time></trkpt>
<trkpt lat="26.986879" lon="100.063713">
<time>2015-08-06T11:01:02Z</time></trkpt>
<trkpt lat="26.98595" lon="100.063413">
<time>2015-08-06T11:01:03Z</time></trkpt>
<trkpt lat="26.98488" lon="100.063214">
<time>2015-08-06T11:01:04Z</time></trkpt>
<trkpt lat="26.9846" lon="100.063224">
<time>2015-08-06T11:01:05Z</time></trkpt>
<trkpt lat="26.98446" lon="100.063214">
<time>2015-08-06T11:01:06Z</time></trkpt>
<trkpt lat="26.9843" lon="100.063184">
<time>2015-08-06T11:01:07Z</time></trkpt>
<trkpt lat="26.98417" lon="100.063154">
<time>2015-08-06T11:01:08Z</time></trkpt>
<trkpt lat="26.984041" lon="100.063104">
<time>2015-08-06T11:01:09Z</time></trkpt>
<trkpt lat="26.983921" lon="100.063054">
<time>2015-08-06T11:01:10Z</time></trkpt>
<trkpt lat="26.983401" lon="100.062884">
<time>2015-08-06T11:01:11Z</time></trkpt>
<trkpt lat="26.982842" lon="100.062595">
<time>2015-08-06T11:01:12Z</time></trkpt>
<trkpt lat="26.982043" lon="100.062165">
<time>2015-08-06T11:01:13Z</time></trkpt>
<trkpt lat="26.981153" lon="100.061706">
<time>2015-08-06T11:01:14Z</time></trkpt>
<trkpt lat="26.980534" lon="100.061536">
<time>2015-08-06T11:01:15Z</time></trkpt>
<trkpt lat="26.979974" lon="100.061437">
<time>2015-08-06T11:01:16Z</time></trkpt>
<trkpt lat="26.979044" lon="100.061407">
<time>2015-08-06T11:01:17Z</time></trkpt>
<trkpt lat="26.978175" lon="100.061487">
<time>2015-08-06T11:01:18Z</time></trkpt>
<trkpt lat="26.977145" lon="100.061427">
<time>2015-08-06T11:01:19Z</time></trkpt>
<trkpt lat="26.976525" lon="100.061387">
<time>2015-08-06T11:01:20Z</time></trkpt>
<trkpt lat="26.976295" lon="100.061367">
<time>2015-08-06T11:01:21Z</time></trkpt>
<trkpt lat="26.976115" lon="100.061337">
<time>2015-08-06T11:01:22Z</time></trkpt>
<trkpt lat="26.976005" lon="100.061317">
<time>2015-08-06T11:01:23Z</time></trkpt>
<trkpt lat="26.975855" lon="100.061267">
<time>2015-08-06T11:01:24Z</time></trkpt>
<trkpt lat="26.975226" lon="100.061127">
<time>2015-08-06T11:01:25Z</time></trkpt>
<trkpt lat="26.974706" lon="100.060958">
<time>2015-08-06T11:01:26Z</time></trkpt>
<trkpt lat="26.974157" lon="100.060828">
<time>2015-08-06T11:01:27Z</time></trkpt>
<trkpt lat="26.973667" lon="100.060728">
<time>2015-08-06T11:01:28Z</time></trkpt>
<trkpt lat="26.973307" lon="100.060678">
<time>2015-08-06T11:01:29Z</time></trkpt>
<trkpt lat="26.972937" lon="100.060668">
<time>2015-08-06T11:01:30Z</time></trkpt>
<trkpt lat="26.972597" lon="100.060678">
<time>2015-08-06T11:01:31Z</time></trkpt>
<trkpt lat="26.972287" lon="100.060708">
<time>2015-08-06T11:01:32Z</time></trkpt>
<trkpt lat="26.971927" lon="100.060778">
<time>2015-08-06T11:01:33Z</time></trkpt>
<trkpt lat="26.971717" lon="100.060868">
<time>2015-08-06T11:01:34Z</time></trkpt>
<trkpt lat="26.971487" lon="100.060918">
<time>2015-08-06T11:01:35Z</time></trkpt>
<trkpt lat="26.971227" lon="100.060968">
<time>2015-08-06T11:01:36Z</time></trkpt>
<trkpt lat="26.970987" lon="100.061008">
<time>2015-08-06T11:01:37Z</time></trkpt>
<trkpt lat="26.970687" lon="100.061018">
<time>2015-08-06T11:01:38Z</time></trkpt>
<trkpt lat="26.970587" lon="100.061028">
<time>2015-08-06T11:01:39Z</time></trkpt>
<trkpt lat="26.970507" lon="100.061038">
<time>2015-08-06T11:01:40Z</time></trkpt>
<trkpt lat="26.970417" lon="100.061068">
<time>2015-08-06T11:01:41Z</time></trkpt>
<trkpt lat="26.970307" lon="100.061117">
<time>2015-08-06T11:01:42Z</time></trkpt>
<trkpt lat="26.968997" lon="100.061107">
<time>2015-08-06T11:01:43Z</time></trkpt>
<trkpt lat="26.967688" lon="100.060738">
<time>2015-08-06T11:01:44Z</time></trkpt>
<trkpt lat="26.96606" lon="100.0599">
<time>2015-08-06T11:01:45Z</time></trkpt>
<trkpt lat="26.96593" lon="100.05988">
<time>2015-08-06T11:01:46Z</time></trkpt>
<trkpt lat="26.9658" lon="100.05985">
<time>2015-08-06T11:01:47Z</time></trkpt>
<trkpt lat="26.96567" lon="100.05979">
<time>2015-08-06T11:01:48Z</time></trkpt>
<trkpt lat="26.964861" lon="100.059411">
<time>2015-08-06T11:01:49Z</time></trkpt>
<trkpt lat="26.964312" lon="100.059151">
<time>2015-08-06T11:01:50Z</time></trkpt>
<trkpt lat="26.963423" lon="100.058722">
<time>2015-08-06T11:01:51Z</time></trkpt>
<trkpt lat="26.962963" lon="100.058512">
<time>2015-08-06T11:01:52Z</time></trkpt>
<trkpt lat="26.962763" lon="100.058452">
<time>2015-08-06T11:01:53Z</time></trkpt>
<trkpt lat="26.962583" lon="100.058412">
<time>2015-08-06T11:01:54Z</time></trkpt>
<trkpt lat="26.962314" lon="100.058353">
<time>2015-08-06T11:01:55Z</time></trkpt>
<trkpt lat="26.961994" lon="100.058313">
<time>2015-08-06T11:01:56Z</time></trkpt>
<trkpt lat="26.961544" lon="100.058293">
<time>2015-08-06T11:01:57Z</time></trkpt>
<trkpt lat="26.961034" lon="100.058303">
<time>2015-08-06T11:01:58Z</time></trkpt>
<trkpt lat="26.960564" lon="100.058393">
<time>2015-08-06T11:01:59Z</time></trkpt>
<trkpt lat="26.960344" lon="100.058403">
<time>2015-08-06T11:02:00Z</time></trkpt>
<trkpt lat="26.960254" lon="100.058422">
<time>2015-08-06T11:02:01Z</time></trkpt>
<trkpt lat="26.960154" lon="100.058442">
<time>2015-08-06T11:02:02Z</time></trkpt>
<trkpt lat="26.960084" lon="100.058462">
<time>2015-08-06T11:02:03Z</time></trkpt>
<trkpt lat="26.960004" lon="100.058492">
<time>2015-08-06T11:02:04Z</time></trkpt>
<trkpt lat="26.959914" lon="100.058532">
<time>2015-08-06T11:02:05Z</time></trkpt>
<trkpt lat="26.957034" lon="100.059071">
<time>2015-08-06T11:02:06Z</time></trkpt>
<trkpt lat="26.956604" lon="100.059141">
<time>2015-08-06T11:02:07Z</time></trkpt>
<trkpt lat="26.956174" lon="100.059151">
<time>2015-08-06T11:02:08Z</time></trkpt>
<trkpt lat="26.955444" lon="100.059091">
<time>2015-08-06T11:02:09Z</time></trkpt>
<trkpt lat="26.954175" lon="100.058912">
<time>2015-08-06T11:02:10Z</time></trkpt>
<trkpt lat="26.953315" lon="100.058882">
<time>2015-08-06T11:02:11Z</time></trkpt>
<trkpt lat="26.952335" lon="100.059002">
<time>2015-08-06T11:02:12Z</time></trkpt>
<trkpt lat="26.949084" lon="100.05994">
<time>2015-08-06T11:02:13Z</time></trkpt>
<trkpt lat="26.944503" lon="100.061328">
<time>2015-08-06T11:02:14Z</time></trkpt>
<trkpt lat="26.943183" lon="100.061677">
<time>2015-08-06T11:02:15Z</time></trkpt>
<trkpt lat="26.942733" lon="100.061717">
<time>2015-08-06T11:02:16Z</time></trkpt>
<trkpt lat="26.942413" lon="100.061737">
<time>2015-08-06T11:02:17Z</time></trkpt>
<trkpt lat="26.941893" lon="100.061747">
<time>2015-08-06T11:02:18Z</time></trkpt>
<trkpt lat="26.941563" lon="100.061707">
<time>2015-08-06T11:02:19Z</time></trkpt>
<trkpt lat="26.941083" lon="100.061597">
<time>2015-08-06T11:02:20Z</time></trkpt>
<trkpt lat="26.940244" lon="100.061428">
<time>2015-08-06T11:02:21Z</time></trkpt>
<trkpt lat="26.940244" lon="100.061428">
<time>2015-08-06T11:02:22Z</time></trkpt>
<trkpt lat="26.939723" lon="100.061777">
<time>2015-08-06T11:02:23Z</time></trkpt>
<trkpt lat="26.939403" lon="100.061917">
<time>2015-08-06T11:02:24Z</time></trkpt>
<trkpt lat="26.938983" lon="100.061977">
<time>2015-08-06T11:02:25Z</time></trkpt>
<trkpt lat="26.938733" lon="100.062007">
<time>2015-08-06T11:02:26Z</time></trkpt>
<trkpt lat="26.938503" lon="100.062027">
<time>2015-08-06T11:02:27Z</time></trkpt>
<trkpt lat="26.938233" lon="100.061987">
<time>2015-08-06T11:02:28Z</time></trkpt>
<trkpt lat="26.937994" lon="100.061837">
<time>2015-08-06T11:02:29Z</time></trkpt>
<trkpt lat="26.937654" lon="100.061747">
<time>2015-08-06T11:02:30Z</time></trkpt>
<trkpt lat="26.937634" lon="100.061747">
<time>2015-08-06T11:02:31Z</time></trkpt>
<trkpt lat="26.937354" lon="100.061687">
<time>2015-08-06T11:02:32Z</time></trkpt>
<trkpt lat="26.936904" lon="100.061697">
<time>2015-08-06T11:02:33Z</time></trkpt>
<trkpt lat="26.936624" lon="100.061657">
<time>2015-08-06T11:02:34Z</time></trkpt>
<trkpt lat="26.936424" lon="100.061568">
<time>2015-08-06T11:02:35Z</time></trkpt>
<trkpt lat="26.936275" lon="100.061398">
<time>2015-08-06T11:02:36Z</time></trkpt>
<trkpt lat="26.936025" lon="100.061118">
<time>2015-08-06T11:02:37Z</time></trkpt>
<trkpt lat="26.935766" lon="100.060849">
<time>2015-08-06T11:02:38Z</time></trkpt>
<trkpt lat="26.935546" lon="100.060679">
<time>2015-08-06T11:02:39Z</time></trkpt>
<trkpt lat="26.935037" lon="100.06024">
<time>2015-08-06T11:02:40Z</time></trkpt>
<trkpt lat="26.935037" lon="100.06024">
<time>2015-08-06T11:02:41Z</time></trkpt>
<trkpt lat="26.934447" lon="100.059911">
<time>2015-08-06T11:02:42Z</time></trkpt>
<trkpt lat="26.933858" lon="100.059551">
<time>2015-08-06T11:02:43Z</time></trkpt>
<trkpt lat="26.933489" lon="100.059262">
<time>2015-08-06T11:02:44Z</time></trkpt>
<trkpt lat="26.933169" lon="100.058952">
<time>2015-08-06T11:02:45Z</time></trkpt>
<trkpt lat="26.93267" lon="100.058403">
<time>2015-08-06T11:02:46Z</time></trkpt>
<trkpt lat="26.932181" lon="100.057784">
<time>2015-08-06T11:02:47Z</time></trkpt>
<trkpt lat="26.931812" lon="100.057295">
<time>2015-08-06T11:02:48Z</time></trkpt>
<trkpt lat="26.931433" lon="100.056826">
<time>2015-08-06T11:02:49Z</time></trkpt>
<trkpt lat="26.930914" lon="100.056347">
<time>2015-08-06T11:02:50Z</time></trkpt>
<trkpt lat="26.930495" lon="100.056038">
<time>2015-08-06T11:02:51Z</time></trkpt>
<trkpt lat="26.930075" lon="100.055798">
<time>2015-08-06T11:02:52Z</time></trkpt>
<trkpt lat="26.929606" lon="100.055569">
<time>2015-08-06T11:02:53Z</time></trkpt>
<trkpt lat="26.929116" lon="100.055429">
<time>2015-08-06T11:02:54Z</time></trkpt>
<trkpt lat="26.928707" lon="100.055339">
<time>2015-08-06T11:02:55Z</time></trkpt>
<trkpt lat="26.928287" lon="100.055279">
<time>2015-08-06T11:02:56Z</time></trkpt>
<trkpt lat="26.928247" lon="100.055279">
<time>2015-08-06T11:02:57Z</time></trkpt>
<trkpt lat="26.927867" lon="100.055279">
<time>2015-08-06T11:02:58Z</time></trkpt>
<trkpt lat="26.927447" lon="100.055299">
<time>2015-08-06T11:02:59Z</time></trkpt>
<trkpt lat="26.926987" lon="100.055329">
<time>2015-08-06T11:03:00Z</time></trkpt>
<trkpt lat="26.926557" lon="100.055349">
<time>2015-08-06T11:03:01Z</time></trkpt>
<trkpt lat="26.926137" lon="100.055359">
<time>2015-08-06T11:03:02Z</time></trkpt>
<trkpt lat="26.925677" lon="100.055349">
<time>2015-08-06T11:03:03Z</time></trkpt>
<trkpt lat="26.925197" lon="100.055289">
<time>2015-08-06T11:03:04Z</time></trkpt>
<trkpt lat="26.924548" lon="100.05509">
<time>2015-08-06T11:03:05Z</time></trkpt>
<trkpt lat="26.924138" lon="100.05489">
<time>2015-08-06T11:03:06Z</time></trkpt>
<trkpt lat="26.923859" lon="100.054741">
<time>2015-08-06T11:03:07Z</time></trkpt>
<trkpt lat="26.923379" lon="100.054411">
<time>2015-08-06T11:03:08Z</time></trkpt>
<trkpt lat="26.922521" lon="100.053633">
<time>2015-08-06T11:03:09Z</time></trkpt>
<trkpt lat="26.921743" lon="100.052874">
<time>2015-08-06T11:03:10Z</time></trkpt>
<trkpt lat="26.921044" lon="100.052196">
<time>2015-08-06T11:03:11Z</time></trkpt>
<trkpt lat="26.920246" lon="100.051457">
<time>2015-08-06T11:03:12Z</time></trkpt>
<trkpt lat="26.919737" lon="100.050988">
<time>2015-08-06T11:03:13Z</time></trkpt>
<trkpt lat="26.919188" lon="100.050549">
<time>2015-08-06T11:03:14Z</time></trkpt>
<trkpt lat="26.918749" lon="100.05024">
<time>2015-08-06T11:03:15Z</time></trkpt>
<trkpt lat="26.918239" lon="100.049991">
<time>2015-08-06T11:03:16Z</time></trkpt>
<trkpt lat="26.91772" lon="100.049781">
<time>2015-08-06T11:03:17Z</time></trkpt>
<trkpt lat="26.91697" lon="100.049602">
<time>2015-08-06T11:03:18Z</time></trkpt>
<trkpt lat="26.91668" lon="100.049572">
<time>2015-08-06T11:03:19Z</time></trkpt>
<trkpt lat="26.91608" lon="100.049562">
<time>2015-08-06T11:03:20Z</time></trkpt>
<trkpt lat="26.91522" lon="100.049661">
<time>2015-08-06T11:03:21Z</time></trkpt>
<trkpt lat="26.91415" lon="100.049961">
<time>2015-08-06T11:03:22Z</time></trkpt>
<trkpt lat="26.91353" lon="100.05021">
<time>2015-08-06T11:03:23Z</time></trkpt>
<trkpt lat="26.912499" lon="100.05046">
<time>2015-08-06T11:03:24Z</time></trkpt>
<trkpt lat="26.9115" lon="100.0505">
<time>2015-08-06T11:03:25Z</time></trkpt>
<trkpt lat="26.9108" lon="100.05038">
<time>2015-08-06T11:03:26Z</time></trkpt>
<trkpt lat="26.91011" lon="100.05021">
<time>2015-08-06T11:03:27Z</time></trkpt>
<trkpt lat="26.909361" lon="100.049871">
<time>2015-08-06T11:03:28Z</time></trkpt>
<trkpt lat="26.908572" lon="100.049372">
<time>2015-08-06T11:03:29Z</time></trkpt>
<trkpt lat="26.907764" lon="100.048584">
<time>2015-08-06T11:03:30Z</time></trkpt>
<trkpt lat="26.907156" lon="100.047786">
<time>2015-08-06T11:03:31Z</time></trkpt>
<trkpt lat="26.9064" lon="100.04613">
<time>2015-08-06T11:03:32Z</time></trkpt>
<trkpt lat="26.905813" lon="100.044923">
<time>2015-08-06T11:03:33Z</time></trkpt>
<trkpt lat="26.905414" lon="100.044214">
<time>2015-08-06T11:03:34Z</time></trkpt>
<trkpt lat="26.904896" lon="100.043556">
<time>2015-08-06T11:03:35Z</time></trkpt>
<trkpt lat="26.904158" lon="100.042778">
<time>2015-08-06T11:03:36Z</time></trkpt>
<trkpt lat="26.903339" lon="100.042159">
<time>2015-08-06T11:03:37Z</time></trkpt>
<trkpt lat="26.902501" lon="100.041671">
<time>2015-08-06T11:03:38Z</time></trkpt>
<trkpt lat="26.901621" lon="100.041332">
<time>2015-08-06T11:03:39Z</time></trkpt>
<trkpt lat="26.900872" lon="100.041132">
<time>2015-08-06T11:03:40Z</time></trkpt>
<trkpt lat="26.900043" lon="100.041032">
<time>2015-08-06T11:03:41Z</time></trkpt>
<trkpt lat="26.899233" lon="100.041042">
<time>2015-08-06T11:03:42Z</time></trkpt>
<trkpt lat="26.898633" lon="100.041102">
<time>2015-08-06T11:03:43Z</time></trkpt>
<trkpt lat="26.897872" lon="100.041262">
<time>2015-08-06T11:03:44Z</time></trkpt>
<trkpt lat="26.897182" lon="100.041511">
<time>2015-08-06T11:03:45Z</time></trkpt>
<trkpt lat="26.896351" lon="100.04189">
<time>2015-08-06T11:03:46Z</time></trkpt>
<trkpt lat="26.89548" lon="100.042509">
<time>2015-08-06T11:03:47Z</time></trkpt>
<trkpt lat="26.894669" lon="100.043167">
<time>2015-08-06T11:03:48Z</time></trkpt>
<trkpt lat="26.893648" lon="100.043786">
<time>2015-08-06T11:03:49Z</time></trkpt>
<trkpt lat="26.892777" lon="100.044095">
<time>2015-08-06T11:03:50Z</time></trkpt>
<trkpt lat="26.891887" lon="100.044205">
<time>2015-08-06T11:03:51Z</time></trkpt>
<trkpt lat="26.891007" lon="100.044165">
<time>2015-08-06T11:03:52Z</time></trkpt>
<trkpt lat="26.890188" lon="100.043955">
<time>2015-08-06T11:03:53Z</time></trkpt>
<trkpt lat="26.88893" lon="100.043257">
<time>2015-08-06T11:03:54Z</time></trkpt>
<trkpt lat="26.887962" lon="100.04231">
<time>2015-08-06T11:03:55Z</time></trkpt>
<trkpt lat="26.886876" lon="100.040524">
<time>2015-08-06T11:03:56Z</time></trkpt>
<trkpt lat="26.886429" lon="100.039487">
<time>2015-08-06T11:03:57Z</time></trkpt>
<trkpt lat="26.885703" lon="100.037981">
<time>2015-08-06T11:03:58Z</time></trkpt>
<trkpt lat="26.884688" lon="100.035876">
<time>2015-08-06T11:03:59Z</time></trkpt>
<trkpt lat="26.88427" lon="100.034979">
<time>2015-08-06T11:04:00Z</time></trkpt>
<trkpt lat="26.883693" lon="100.034061">
<time>2015-08-06T11:04:01Z</time></trkpt>
<trkpt lat="26.882835" lon="100.033214">
<time>2015-08-06T11:04:02Z</time></trkpt>
<trkpt lat="26.882027" lon="100.032695">
<time>2015-08-06T11:04:03Z</time></trkpt>
<trkpt lat="26.881158" lon="100.032217">
<time>2015-08-06T11:04:04Z</time></trkpt>
<trkpt lat="26.880409" lon="100.031758">
<time>2015-08-06T11:04:05Z</time></trkpt>
<trkpt lat="26.88011" lon="100.031529">
<time>2015-08-06T11:04:06Z</time></trkpt>
<trkpt lat="26.879811" lon="100.031269">
<time>2015-08-06T11:04:07Z</time></trkpt>
<trkpt lat="26.879412" lon="100.030871">
<time>2015-08-06T11:04:08Z</time></trkpt>
<trkpt lat="26.878963" lon="100.030302">
<time>2015-08-06T11:04:09Z</time></trkpt>
<trkpt lat="26.878536" lon="100.029505">
<time>2015-08-06T11:04:10Z</time></trkpt>
<trkpt lat="26.878337" lon="100.028976">
<time>2015-08-06T11:04:11Z</time></trkpt>
<trkpt lat="26.878179" lon="100.028418">
<time>2015-08-06T11:04:12Z</time></trkpt>
<trkpt lat="26.877882" lon="100.027132">
<time>2015-08-06T11:04:13Z</time></trkpt>
<trkpt lat="26.877515" lon="100.026005">
<time>2015-08-06T11:04:14Z</time></trkpt>
<trkpt lat="26.876998" lon="100.025058">
<time>2015-08-06T11:04:15Z</time></trkpt>
<trkpt lat="26.87634" lon="100.02423">
<time>2015-08-06T11:04:16Z</time></trkpt>
<trkpt lat="26.875542" lon="100.023602">
<time>2015-08-06T11:04:17Z</time></trkpt>
<trkpt lat="26.874584" lon="100.023014">
<time>2015-08-06T11:04:18Z</time></trkpt>
<trkpt lat="26.873706" lon="100.022496">
<time>2015-08-06T11:04:19Z</time></trkpt>
<trkpt lat="26.872358" lon="100.021768">
<time>2015-08-06T11:04:20Z</time></trkpt>
<trkpt lat="26.87141" lon="100.0212">
<time>2015-08-06T11:04:21Z</time></trkpt>
<trkpt lat="26.870461" lon="100.020741">
<time>2015-08-06T11:04:22Z</time></trkpt>
<trkpt lat="26.870251" lon="100.020681">
<time>2015-08-06T11:04:23Z</time></trkpt>
<trkpt lat="26.870251" lon="100.020681">
<time>2015-08-06T11:04:24Z</time></trkpt>
<trkpt lat="26.86994" lon="100.021309">
<time>2015-08-06T11:04:25Z</time></trkpt>
<trkpt lat="26.869618" lon="100.021838">
<time>2015-08-06T11:04:26Z</time></trkpt>
<trkpt lat="26.869578" lon="100.021908">
<time>2015-08-06T11:04:27Z</time></trkpt>
<trkpt lat="26.869538" lon="100.021928">
<time>2015-08-06T11:04:28Z</time></trkpt>
<trkpt lat="26.869508" lon="100.021947">
<time>2015-08-06T11:04:29Z</time></trkpt>
<trkpt lat="26.869488" lon="100.021957">
<time>2015-08-06T11:04:30Z</time></trkpt>
<trkpt lat="26.869468" lon="100.021967">
<time>2015-08-06T11:04:31Z</time></trkpt>
<trkpt lat="26.869438" lon="100.021977">
<time>2015-08-06T11:04:32Z</time></trkpt>
<trkpt lat="26.869408" lon="100.021977">
<time>2015-08-06T11:04:33Z</time></trkpt>
<trkpt lat="26.869308" lon="100.021977">
<time>2015-08-06T11:04:34Z</time></trkpt>
<trkpt lat="26.869308" lon="100.021977">
<time>2015-08-06T11:04:35Z</time></trkpt>
<trkpt lat="26.869318" lon="100.022057">
<time>2015-08-06T11:04:36Z</time></trkpt>
<trkpt lat="26.869318" lon="100.022127">
<time>2015-08-06T11:04:37Z</time></trkpt>
<trkpt lat="26.869317" lon="100.022177">
<time>2015-08-06T11:04:38Z</time></trkpt>
<trkpt lat="26.869307" lon="100.022227">
<time>2015-08-06T11:04:39Z</time></trkpt>
<trkpt lat="26.869297" lon="100.022296">
<time>2015-08-06T11:04:40Z</time></trkpt>
<trkpt lat="26.869277" lon="100.022356">
<time>2015-08-06T11:04:41Z</time></trkpt>
<trkpt lat="26.869217" lon="100.022436">
<time>2015-08-06T11:04:42Z</time></trkpt>
<trkpt lat="26.869167" lon="100.022506">
<time>2015-08-06T11:04:43Z</time></trkpt>
<trkpt lat="26.869106" lon="100.022595">
<time>2015-08-06T11:04:44Z</time></trkpt>
<trkpt lat="26.869036" lon="100.022705">
<time>2015-08-06T11:04:45Z</time></trkpt>
<trkpt lat="26.868936" lon="100.022865">
<time>2015-08-06T11:04:46Z</time></trkpt>
<trkpt lat="26.868845" lon="100.023024">
<time>2015-08-06T11:04:47Z</time></trkpt>
<trkpt lat="26.868825" lon="100.023114">
<time>2015-08-06T11:04:48Z</time></trkpt>
<trkpt lat="26.868805" lon="100.023214">
<time>2015-08-06T11:04:49Z</time></trkpt>
<trkpt lat="26.868794" lon="100.023303">
<time>2015-08-06T11:04:50Z</time></trkpt>
<trkpt lat="26.868794" lon="100.023393">
<time>2015-08-06T11:04:51Z</time></trkpt>
<trkpt lat="26.868804" lon="100.023543">
<time>2015-08-06T11:04:52Z</time></trkpt>
<trkpt lat="26.868823" lon="100.023712">
<time>2015-08-06T11:04:53Z</time></trkpt>
<trkpt lat="26.868902" lon="100.024211">
<time>2015-08-06T11:04:54Z</time></trkpt>
<trkpt lat="26.86903" lon="100.024998">
<time>2015-08-06T11:04:55Z</time></trkpt>
<trkpt lat="26.869079" lon="100.025377">
<time>2015-08-06T11:04:56Z</time></trkpt>
<trkpt lat="26.869098" lon="100.025497">
<time>2015-08-06T11:04:57Z</time></trkpt>
<trkpt lat="26.869098" lon="100.025586">
<time>2015-08-06T11:04:58Z</time></trkpt>
<trkpt lat="26.869088" lon="100.025686">
<time>2015-08-06T11:04:59Z</time></trkpt>
<trkpt lat="26.869057" lon="100.025766">
<time>2015-08-06T11:05:00Z</time></trkpt>
<trkpt lat="26.869007" lon="100.025826">
<time>2015-08-06T11:05:01Z</time></trkpt>
<trkpt lat="26.868957" lon="100.025866">
<time>2015-08-06T11:05:02Z</time></trkpt>
<trkpt lat="26.868897" lon="100.025895">
<time>2015-08-06T11:05:03Z</time></trkpt>
<trkpt lat="26.868827" lon="100.025895">
<time>2015-08-06T11:05:04Z</time></trkpt>
<trkpt lat="26.868767" lon="100.025885">
<time>2015-08-06T11:05:05Z</time></trkpt>
<trkpt lat="26.868687" lon="100.025866">
<time>2015-08-06T11:05:06Z</time></trkpt>
<trkpt lat="26.868328" lon="100.025736">
<time>2015-08-06T11:05:07Z</time></trkpt>
<trkpt lat="26.868238" lon="100.025696">
<time>2015-08-06T11:05:08Z</time></trkpt>
<trkpt lat="26.868128" lon="100.025646">
<time>2015-08-06T11:05:09Z</time></trkpt>
<trkpt lat="26.867659" lon="100.025467">
<time>2015-08-06T11:05:10Z</time></trkpt>
<trkpt lat="26.867199" lon="100.025267">
<time>2015-08-06T11:05:11Z</time></trkpt>
<trkpt lat="26.86701" lon="100.025158">
<time>2015-08-06T11:05:12Z</time></trkpt>
<trkpt lat="26.86681" lon="100.025028">
<time>2015-08-06T11:05:13Z</time></trkpt>
<trkpt lat="26.865732" lon="100.02431">
<time>2015-08-06T11:05:14Z</time></trkpt>
<trkpt lat="26.865612" lon="100.024221">
<time>2015-08-06T11:05:15Z</time></trkpt>
<trkpt lat="26.865552" lon="100.024181">
<time>2015-08-06T11:05:16Z</time></trkpt>
<trkpt lat="26.865463" lon="100.024141">
<time>2015-08-06T11:05:17Z</time></trkpt>
<trkpt lat="26.865363" lon="100.024101">
<time>2015-08-06T11:05:18Z</time></trkpt>
<trkpt lat="26.865273" lon="100.024091">
<time>2015-08-06T11:05:19Z</time></trkpt>
<trkpt lat="26.865193" lon="100.024091">
<time>2015-08-06T11:05:20Z</time></trkpt>
<trkpt lat="26.865113" lon="100.024111">
<time>2015-08-06T11:05:21Z</time></trkpt>
<trkpt lat="26.864913" lon="100.024191">
<time>2015-08-06T11:05:22Z</time></trkpt>
<trkpt lat="26.864142" lon="100.02453">
<time>2015-08-06T11:05:23Z</time></trkpt>
<trkpt lat="26.864052" lon="100.02457">
<time>2015-08-06T11:05:24Z</time></trkpt>
<trkpt lat="26.863942" lon="100.024599">
<time>2015-08-06T11:05:25Z</time></trkpt>
<trkpt lat="26.863862" lon="100.024609">
<time>2015-08-06T11:05:26Z</time></trkpt>
<trkpt lat="26.863782" lon="100.024599">
<time>2015-08-06T11:05:27Z</time></trkpt>
<trkpt lat="26.863692" lon="100.02459">
<time>2015-08-06T11:05:28Z</time></trkpt>
<trkpt lat="26.863652" lon="100.02458">
<time>2015-08-06T11:05:29Z</time></trkpt>
<trkpt lat="26.863562" lon="100.02454">
<time>2015-08-06T11:05:30Z</time></trkpt>
<trkpt lat="26.863482" lon="100.02448">
<time>2015-08-06T11:05:31Z</time></trkpt>
<trkpt lat="26.863432" lon="100.02442">
<time>2015-08-06T11:05:32Z</time></trkpt>
<trkpt lat="26.863253" lon="100.024221">
<time>2015-08-06T11:05:33Z</time></trkpt>
<trkpt lat="26.863064" lon="100.023971">
<time>2015-08-06T11:05:34Z</time></trkpt>
<trkpt lat="26.862964" lon="100.023882">
<time>2015-08-06T11:05:35Z</time></trkpt>
<trkpt lat="26.862844" lon="100.023782">
<time>2015-08-06T11:05:36Z</time></trkpt>
<trkpt lat="26.862764" lon="100.023742">
<time>2015-08-06T11:05:37Z</time></trkpt>
<trkpt lat="26.862654" lon="100.023682">
<time>2015-08-06T11:05:38Z</time></trkpt>
<trkpt lat="26.862505" lon="100.023642">
<time>2015-08-06T11:05:39Z</time></trkpt>
<trkpt lat="26.862395" lon="100.023623">
<time>2015-08-06T11:05:40Z</time></trkpt>
<trkpt lat="26.862295" lon="100.023613">
<time>2015-08-06T11:05:41Z</time></trkpt>
<trkpt lat="26.862205" lon="100.023623">
<time>2015-08-06T11:05:42Z</time></trkpt>
<trkpt lat="26.862075" lon="100.023642">
<time>2015-08-06T11:05:43Z</time></trkpt>
<trkpt lat="26.861954" lon="100.023692">
<time>2015-08-06T11:05:44Z</time></trkpt>
<trkpt lat="26.861844" lon="100.023742">
<time>2015-08-06T11:05:45Z</time></trkpt>
<trkpt lat="26.861734" lon="100.023802">
<time>2015-08-06T11:05:46Z</time></trkpt>
<trkpt lat="26.861644" lon="100.023872">
<time>2015-08-06T11:05:47Z</time></trkpt>
<trkpt lat="26.861544" lon="100.023981">
<time>2015-08-06T11:05:48Z</time></trkpt>
<trkpt lat="26.861453" lon="100.024101">
<time>2015-08-06T11:05:49Z</time></trkpt>
<trkpt lat="26.861393" lon="100.024211">
<time>2015-08-06T11:05:50Z</time></trkpt>
<trkpt lat="26.861222" lon="100.02456">
<time>2015-08-06T11:05:51Z</time></trkpt>
<trkpt lat="26.86089" lon="100.025268">
<time>2015-08-06T11:05:52Z</time></trkpt>
<trkpt lat="26.86083" lon="100.025387">
<time>2015-08-06T11:05:53Z</time></trkpt>
<trkpt lat="26.86078" lon="100.025467">
<time>2015-08-06T11:05:54Z</time></trkpt>
<trkpt lat="26.86073" lon="100.025527">
<time>2015-08-06T11:05:55Z</time></trkpt>
<trkpt lat="26.860669" lon="100.025577">
<time>2015-08-06T11:05:56Z</time></trkpt>
<trkpt lat="26.860619" lon="100.025607">
<time>2015-08-06T11:05:57Z</time></trkpt>
<trkpt lat="26.860559" lon="100.025617">
<time>2015-08-06T11:05:58Z</time></trkpt>
<trkpt lat="26.860489" lon="100.025607">
<time>2015-08-06T11:05:59Z</time></trkpt>
<trkpt lat="26.860429" lon="100.025597">
<time>2015-08-06T11:06:00Z</time></trkpt>
<trkpt lat="26.86037" lon="100.025557">
<time>2015-08-06T11:06:01Z</time></trkpt>
<trkpt lat="26.859322" lon="100.02462">
<time>2015-08-06T11:06:02Z</time></trkpt>
<trkpt lat="26.859073" lon="100.02438">
<time>2015-08-06T11:06:03Z</time></trkpt>
<trkpt lat="26.858983" lon="100.024301">
<time>2015-08-06T11:06:04Z</time></trkpt>
<trkpt lat="26.858913" lon="100.024261">
<time>2015-08-06T11:06:05Z</time></trkpt>
<trkpt lat="26.858854" lon="100.024241">
<time>2015-08-06T11:06:06Z</time></trkpt>
<trkpt lat="26.858784" lon="100.024241">
<time>2015-08-06T11:06:07Z</time></trkpt>
<trkpt lat="26.858733" lon="100.024251">
<time>2015-08-06T11:06:08Z</time></trkpt>
<trkpt lat="26.858683" lon="100.024271">
<time>2015-08-06T11:06:09Z</time></trkpt>
<trkpt lat="26.858623" lon="100.02433">
<time>2015-08-06T11:06:10Z</time></trkpt>
<trkpt lat="26.858593" lon="100.02442">
<time>2015-08-06T11:06:11Z</time></trkpt>
<trkpt lat="26.858603" lon="100.02448">
<time>2015-08-06T11:06:12Z</time></trkpt>
<trkpt lat="26.858623" lon="100.02456">
<time>2015-08-06T11:06:13Z</time></trkpt>
<trkpt lat="26.858652" lon="100.02463">
<time>2015-08-06T11:06:14Z</time></trkpt>
<trkpt lat="26.858702" lon="100.024689">
<time>2015-08-06T11:06:15Z</time></trkpt>
<trkpt lat="26.858762" lon="100.024749">
<time>2015-08-06T11:06:16Z</time></trkpt>
<trkpt lat="26.859131" lon="100.025068">
<time>2015-08-06T11:06:17Z</time></trkpt>
<trkpt lat="26.85962" lon="100.025507">
<time>2015-08-06T11:06:18Z</time></trkpt>
<trkpt lat="26.859869" lon="100.025736">
<time>2015-08-06T11:06:19Z</time></trkpt>
<trkpt lat="26.859949" lon="100.025846">
<time>2015-08-06T11:06:20Z</time></trkpt>
<trkpt lat="26.860039" lon="100.025975">
<time>2015-08-06T11:06:21Z</time></trkpt>
<trkpt lat="26.860108" lon="100.026115">
<time>2015-08-06T11:06:22Z</time></trkpt>
<trkpt lat="26.860307" lon="100.026514">
<time>2015-08-06T11:06:23Z</time></trkpt>
<trkpt lat="26.860595" lon="100.027092">
<time>2015-08-06T11:06:24Z</time></trkpt>
<trkpt lat="26.860774" lon="100.027431">
<time>2015-08-06T11:06:25Z</time></trkpt>
<trkpt lat="26.860864" lon="100.027561">
<time>2015-08-06T11:06:26Z</time></trkpt>
<trkpt lat="26.860944" lon="100.027621">
<time>2015-08-06T11:06:27Z</time></trkpt>
<trkpt lat="26.861014" lon="100.02765">
<time>2015-08-06T11:06:28Z</time></trkpt>
<trkpt lat="26.861074" lon="100.02765">
<time>2015-08-06T11:06:29Z</time></trkpt>
<trkpt lat="26.861134" lon="100.02764">
<time>2015-08-06T11:06:30Z</time></trkpt>
<trkpt lat="26.861214" lon="100.027601">
<time>2015-08-06T11:06:31Z</time></trkpt>
<trkpt lat="26.861264" lon="100.027551">
<time>2015-08-06T11:06:32Z</time></trkpt>
<trkpt lat="26.861324" lon="100.027481">
<time>2015-08-06T11:06:33Z</time></trkpt>
<trkpt lat="26.861425" lon="100.027321">
<time>2015-08-06T11:06:34Z</time></trkpt>
<trkpt lat="26.861957" lon="100.026384">
<time>2015-08-06T11:06:35Z</time></trkpt>
<trkpt lat="26.862017" lon="100.026294">
<time>2015-08-06T11:06:36Z</time></trkpt>
<trkpt lat="26.862087" lon="100.026215">
<time>2015-08-06T11:06:37Z</time></trkpt>
<trkpt lat="26.862128" lon="100.026175">
<time>2015-08-06T11:06:38Z</time></trkpt>
<trkpt lat="26.862198" lon="100.026125">
<time>2015-08-06T11:06:39Z</time></trkpt>
<trkpt lat="26.862268" lon="100.026095">
<time>2015-08-06T11:06:40Z</time></trkpt>
<trkpt lat="26.862348" lon="100.026065">
<time>2015-08-06T11:06:41Z</time></trkpt>
<trkpt lat="26.862418" lon="100.026065">
<time>2015-08-06T11:06:42Z</time></trkpt>
<trkpt lat="26.862478" lon="100.026075">
<time>2015-08-06T11:06:43Z</time></trkpt>
<trkpt lat="26.862528" lon="100.026095">
<time>2015-08-06T11:06:44Z</time></trkpt>
<trkpt lat="26.862578" lon="100.026115">
<time>2015-08-06T11:06:45Z</time></trkpt>
<trkpt lat="26.862638" lon="100.026165">
<time>2015-08-06T11:06:46Z</time></trkpt>
<trkpt lat="26.862697" lon="100.026215">
<time>2015-08-06T11:06:47Z</time></trkpt>
<trkpt lat="26.862767" lon="100.026274">
<time>2015-08-06T11:06:48Z</time></trkpt>
<trkpt lat="26.863166" lon="100.026753">
<time>2015-08-06T11:06:49Z</time></trkpt>
<trkpt lat="26.863355" lon="100.026992">
<time>2015-08-06T11:06:50Z</time></trkpt>
<trkpt lat="26.863564" lon="100.027232">
<time>2015-08-06T11:06:51Z</time></trkpt>
<trkpt lat="26.863664" lon="100.027301">
<time>2015-08-06T11:06:52Z</time></trkpt>
<trkpt lat="26.863804" lon="100.027401">
<time>2015-08-06T11:06:53Z</time></trkpt>
<trkpt lat="26.864163" lon="100.0276">
<time>2015-08-06T11:06:54Z</time></trkpt>
<trkpt lat="26.864892" lon="100.028009">
<time>2015-08-06T11:06:55Z</time></trkpt>
<trkpt lat="26.865022" lon="100.028099">
<time>2015-08-06T11:06:56Z</time></trkpt>
<trkpt lat="26.865102" lon="100.028159">
<time>2015-08-06T11:06:57Z</time></trkpt>
<trkpt lat="26.865161" lon="100.028249">
<time>2015-08-06T11:06:58Z</time></trkpt>
<trkpt lat="26.865231" lon="100.028338">
<time>2015-08-06T11:06:59Z</time></trkpt>
<trkpt lat="26.865301" lon="100.028488">
<time>2015-08-06T11:07:00Z</time></trkpt>
<trkpt lat="26.86534" lon="100.028637">
<time>2015-08-06T11:07:01Z</time></trkpt>
<trkpt lat="26.86535" lon="100.028747">
<time>2015-08-06T11:07:02Z</time></trkpt>
<trkpt lat="26.86535" lon="100.028847">
<time>2015-08-06T11:07:03Z</time></trkpt>
<trkpt lat="26.86534" lon="100.028946">
<time>2015-08-06T11:07:04Z</time></trkpt>
<trkpt lat="26.865299" lon="100.029056">
<time>2015-08-06T11:07:05Z</time></trkpt>
<trkpt lat="26.865259" lon="100.029146">
<time>2015-08-06T11:07:06Z</time></trkpt>
<trkpt lat="26.865179" lon="100.029276">
<time>2015-08-06T11:07:07Z</time></trkpt>
<trkpt lat="26.865078" lon="100.029405">
<time>2015-08-06T11:07:08Z</time></trkpt>
<trkpt lat="26.864807" lon="100.029754">
<time>2015-08-06T11:07:09Z</time></trkpt>
<trkpt lat="26.864737" lon="100.029834">
<time>2015-08-06T11:07:10Z</time></trkpt>
<trkpt lat="26.864687" lon="100.029934">
<time>2015-08-06T11:07:11Z</time></trkpt>
<trkpt lat="26.864637" lon="100.030033">
<time>2015-08-06T11:07:12Z</time></trkpt>
<trkpt lat="26.864627" lon="100.030123">
<time>2015-08-06T11:07:13Z</time></trkpt>
<trkpt lat="26.864636" lon="100.030203">
<time>2015-08-06T11:07:14Z</time></trkpt>
<trkpt lat="26.864656" lon="100.030293">
<time>2015-08-06T11:07:15Z</time></trkpt>
<trkpt lat="26.864696" lon="100.030402">
<time>2015-08-06T11:07:16Z</time></trkpt>
<trkpt lat="26.864775" lon="100.030562">
<time>2015-08-06T11:07:17Z</time></trkpt>
<trkpt lat="26.865392" lon="100.031738">
<time>2015-08-06T11:07:18Z</time></trkpt>
<trkpt lat="26.865571" lon="100.032107">
<time>2015-08-06T11:07:19Z</time></trkpt>
<trkpt lat="26.865601" lon="100.032217">
<time>2015-08-06T11:07:20Z</time></trkpt>
<trkpt lat="26.865621" lon="100.032327">
<time>2015-08-06T11:07:21Z</time></trkpt>
<trkpt lat="26.86563" lon="100.032436">
<time>2015-08-06T11:07:22Z</time></trkpt>
<trkpt lat="26.86563" lon="100.032536">
<time>2015-08-06T11:07:23Z</time></trkpt>
<trkpt lat="26.86561" lon="100.032706">
<time>2015-08-06T11:07:24Z</time></trkpt>
<trkpt lat="26.865508" lon="100.033204">
<time>2015-08-06T11:07:25Z</time></trkpt>
<trkpt lat="26.865427" lon="100.033633">
<time>2015-08-06T11:07:26Z</time></trkpt>
<trkpt lat="26.865417" lon="100.033743">
<time>2015-08-06T11:07:27Z</time></trkpt>
<trkpt lat="26.865427" lon="100.033823">
<time>2015-08-06T11:07:28Z</time></trkpt>
<trkpt lat="26.865447" lon="100.033902">
<time>2015-08-06T11:07:29Z</time></trkpt>
<trkpt lat="26.865486" lon="100.033962">
<time>2015-08-06T11:07:30Z</time></trkpt>
<trkpt lat="26.865546" lon="100.034022">
<time>2015-08-06T11:07:31Z</time></trkpt>
<trkpt lat="26.865626" lon="100.034052">
<time>2015-08-06T11:07:32Z</time></trkpt>
<trkpt lat="26.865706" lon="100.034052">
<time>2015-08-06T11:07:33Z</time></trkpt>
<trkpt lat="26.865806" lon="100.034012">
<time>2015-08-06T11:07:34Z</time></trkpt>
<trkpt lat="26.866257" lon="100.033793">
<time>2015-08-06T11:07:35Z</time></trkpt>
<trkpt lat="26.866377" lon="100.033753">
<time>2015-08-06T11:07:36Z</time></trkpt>
<trkpt lat="26.866457" lon="100.033723">
<time>2015-08-06T11:07:37Z</time></trkpt>
<trkpt lat="26.866547" lon="100.033713">
<time>2015-08-06T11:07:38Z</time></trkpt>
<trkpt lat="26.866647" lon="100.033713">
<time>2015-08-06T11:07:39Z</time></trkpt>
<trkpt lat="26.866747" lon="100.033733">
<time>2015-08-06T11:07:40Z</time></trkpt>
<trkpt lat="26.866847" lon="100.033783">
<time>2015-08-06T11:07:41Z</time></trkpt>
<trkpt lat="26.867086" lon="100.033942">
<time>2015-08-06T11:07:42Z</time></trkpt>
<trkpt lat="26.867475" lon="100.034211">
<time>2015-08-06T11:07:43Z</time></trkpt>
<trkpt lat="26.867855" lon="100.034501">
<time>2015-08-06T11:07:44Z</time></trkpt>
<trkpt lat="26.867934" lon="100.03457">
<time>2015-08-06T11:07:45Z</time></trkpt>
<trkpt lat="26.867974" lon="100.03466">
<time>2015-08-06T11:07:46Z</time></trkpt>
<trkpt lat="26.867994" lon="100.03471">
<time>2015-08-06T11:07:47Z</time></trkpt>
<trkpt lat="26.868004" lon="100.03478">
<time>2015-08-06T11:07:48Z</time></trkpt>
<trkpt lat="26.867974" lon="100.03486">
<time>2015-08-06T11:07:49Z</time></trkpt>
<trkpt lat="26.867934" lon="100.0349">
<time>2015-08-06T11:07:50Z</time></trkpt>
<trkpt lat="26.867874" lon="100.034919">
<time>2015-08-06T11:07:51Z</time></trkpt>
<trkpt lat="26.867814" lon="100.034929">
<time>2015-08-06T11:07:52Z</time></trkpt>
<trkpt lat="26.867744" lon="100.034919">
<time>2015-08-06T11:07:53Z</time></trkpt>
<trkpt lat="26.867644" lon="100.03488">
<time>2015-08-06T11:07:54Z</time></trkpt>
<trkpt lat="26.866785" lon="100.034501">
<time>2015-08-06T11:07:55Z</time></trkpt>
<trkpt lat="26.866695" lon="100.034461">
<time>2015-08-06T11:07:56Z</time></trkpt>
<trkpt lat="26.866625" lon="100.034441">
<time>2015-08-06T11:07:57Z</time></trkpt>
<trkpt lat="26.866515" lon="100.034431">
<time>2015-08-06T11:07:58Z</time></trkpt>
<trkpt lat="26.866435" lon="100.034431">
<time>2015-08-06T11:07:59Z</time></trkpt>
<trkpt lat="26.866335" lon="100.034441">
<time>2015-08-06T11:08:00Z</time></trkpt>
<trkpt lat="26.866035" lon="100.034521">
<time>2015-08-06T11:08:01Z</time></trkpt>
<trkpt lat="26.865825" lon="100.034551">
<time>2015-08-06T11:08:02Z</time></trkpt>
<trkpt lat="26.865715" lon="100.03457">
<time>2015-08-06T11:08:03Z</time></trkpt>
<trkpt lat="26.865435" lon="100.03464">
<time>2015-08-06T11:08:04Z</time></trkpt>
<trkpt lat="26.865235" lon="100.03469">
<time>2015-08-06T11:08:05Z</time></trkpt>
<trkpt lat="26.865115" lon="100.0347">
<time>2015-08-06T11:08:06Z</time></trkpt>
<trkpt lat="26.865055" lon="100.0347">
<time>2015-08-06T11:08:07Z</time></trkpt>
<trkpt lat="26.864985" lon="100.0347">
<time>2015-08-06T11:08:08Z</time></trkpt>
<trkpt lat="26.864915" lon="100.03467">
<time>2015-08-06T11:08:09Z</time></trkpt>
<trkpt lat="26.864845" lon="100.03464">
<time>2015-08-06T11:08:10Z</time></trkpt>
<trkpt lat="26.864795" lon="100.03459">
<time>2015-08-06T11:08:11Z</time></trkpt>
<trkpt lat="26.864745" lon="100.034521">
<time>2015-08-06T11:08:12Z</time></trkpt>
<trkpt lat="26.864725" lon="100.034431">
<time>2015-08-06T11:08:13Z</time></trkpt>
<trkpt lat="26.864706" lon="100.034331">
<time>2015-08-06T11:08:14Z</time></trkpt>
<trkpt lat="26.864696" lon="100.034221">
<time>2015-08-06T11:08:15Z</time></trkpt>
<trkpt lat="26.864707" lon="100.033972">
<time>2015-08-06T11:08:16Z</time></trkpt>
<trkpt lat="26.864727" lon="100.033613">
<time>2015-08-06T11:08:17Z</time></trkpt>
<trkpt lat="26.864728" lon="100.033414">
<time>2015-08-06T11:08:18Z</time></trkpt>
<trkpt lat="26.864718" lon="100.033264">
<time>2015-08-06T11:08:19Z</time></trkpt>
<trkpt lat="26.864699" lon="100.033154">
<time>2015-08-06T11:08:20Z</time></trkpt>
<trkpt lat="26.864679" lon="100.033055">
<time>2015-08-06T11:08:21Z</time></trkpt>
<trkpt lat="26.864639" lon="100.032885">
<time>2015-08-06T11:08:22Z</time></trkpt>
<trkpt lat="26.864451" lon="100.032317">
<time>2015-08-06T11:08:23Z</time></trkpt>
<trkpt lat="26.864381" lon="100.032137">
<time>2015-08-06T11:08:24Z</time></trkpt>
<trkpt lat="26.864322" lon="100.031978">
<time>2015-08-06T11:08:25Z</time></trkpt>
<trkpt lat="26.864242" lon="100.031838">
<time>2015-08-06T11:08:26Z</time></trkpt>
<trkpt lat="26.864162" lon="100.031748">
<time>2015-08-06T11:08:27Z</time></trkpt>
<trkpt lat="26.864083" lon="100.031659">
<time>2015-08-06T11:08:28Z</time></trkpt>
<trkpt lat="26.863973" lon="100.031589">
<time>2015-08-06T11:08:29Z</time></trkpt>
<trkpt lat="26.863863" lon="100.031519">
<time>2015-08-06T11:08:30Z</time></trkpt>
<trkpt lat="26.863713" lon="100.031449">
<time>2015-08-06T11:08:31Z</time></trkpt>
<trkpt lat="26.863463" lon="100.03136">
<time>2015-08-06T11:08:32Z</time></trkpt>
<trkpt lat="26.863234" lon="100.03127">
<time>2015-08-06T11:08:33Z</time></trkpt>
<trkpt lat="26.862664" lon="100.03107">
<time>2015-08-06T11:08:34Z</time></trkpt>
<trkpt lat="26.862205" lon="100.030911">
<time>2015-08-06T11:08:35Z</time></trkpt>
<trkpt lat="26.862085" lon="100.030871">
<time>2015-08-06T11:08:36Z</time></trkpt>
<trkpt lat="26.861995" lon="100.030841">
<time>2015-08-06T11:08:37Z</time></trkpt>
<trkpt lat="26.861935" lon="100.030831">
<time>2015-08-06T11:08:38Z</time></trkpt>
<trkpt lat="26.861865" lon="100.030841">
<time>2015-08-06T11:08:39Z</time></trkpt>
<trkpt lat="26.861785" lon="100.030861">
<time>2015-08-06T11:08:40Z</time></trkpt>
<trkpt lat="26.861725" lon="100.030921">
<time>2015-08-06T11:08:41Z</time></trkpt>
<trkpt lat="26.861685" lon="100.031001">
<time>2015-08-06T11:08:42Z</time></trkpt>
<trkpt lat="26.861674" lon="100.0311">
<time>2015-08-06T11:08:43Z</time></trkpt>
<trkpt lat="26.861694" lon="100.0312">
<time>2015-08-06T11:08:44Z</time></trkpt>
<trkpt lat="26.861754" lon="100.0313">
<time>2015-08-06T11:08:45Z</time></trkpt>
<trkpt lat="26.861834" lon="100.03136">
<time>2015-08-06T11:08:46Z</time></trkpt>
<trkpt lat="26.862203" lon="100.031549">
<time>2015-08-06T11:08:47Z</time></trkpt>
<trkpt lat="26.862633" lon="100.031748">
<time>2015-08-06T11:08:48Z</time></trkpt>
<trkpt lat="26.863032" lon="100.031918">
<time>2015-08-06T11:08:49Z</time></trkpt>
<trkpt lat="26.863352" lon="100.032068">
<time>2015-08-06T11:08:50Z</time></trkpt>
<trkpt lat="26.863441" lon="100.032127">
<time>2015-08-06T11:08:51Z</time></trkpt>
<trkpt lat="26.863531" lon="100.032197">
<time>2015-08-06T11:08:52Z</time></trkpt>
<trkpt lat="26.863611" lon="100.032287">
<time>2015-08-06T11:08:53Z</time></trkpt>
<trkpt lat="26.863691" lon="100.032397">
<time>2015-08-06T11:08:54Z</time></trkpt>
<trkpt lat="26.86374" lon="100.032526">
<time>2015-08-06T11:08:55Z</time></trkpt>
<trkpt lat="26.86378" lon="100.032666">
<time>2015-08-06T11:08:56Z</time></trkpt>
<trkpt lat="26.86379" lon="100.032786">
<time>2015-08-06T11:08:57Z</time></trkpt>
<trkpt lat="26.863799" lon="100.032905">
<time>2015-08-06T11:08:58Z</time></trkpt>
<trkpt lat="26.863779" lon="100.033025">
<time>2015-08-06T11:08:59Z</time></trkpt>
<trkpt lat="26.863749" lon="100.033164">
<time>2015-08-06T11:09:00Z</time></trkpt>
<trkpt lat="26.863698" lon="100.033274">
<time>2015-08-06T11:09:01Z</time></trkpt>
<trkpt lat="26.863618" lon="100.033404">
<time>2015-08-06T11:09:02Z</time></trkpt>
<trkpt lat="26.863498" lon="100.033513">
<time>2015-08-06T11:09:03Z</time></trkpt>
<trkpt lat="26.863388" lon="100.033583">
<time>2015-08-06T11:09:04Z</time></trkpt>
<trkpt lat="26.863268" lon="100.033623">
<time>2015-08-06T11:09:05Z</time></trkpt>
<trkpt lat="26.863128" lon="100.033643">
<time>2015-08-06T11:09:06Z</time></trkpt>
<trkpt lat="26.863008" lon="100.033643">
<time>2015-08-06T11:09:07Z</time></trkpt>
<trkpt lat="26.862888" lon="100.033613">
<time>2015-08-06T11:09:08Z</time></trkpt>
<trkpt lat="26.862788" lon="100.033583">
<time>2015-08-06T11:09:09Z</time></trkpt>
<trkpt lat="26.862548" lon="100.033484">
<time>2015-08-06T11:09:10Z</time></trkpt>
<trkpt lat="26.862069" lon="100.033264">
<time>2015-08-06T11:09:11Z</time></trkpt>
<trkpt lat="26.86153" lon="100.033025">
<time>2015-08-06T11:09:12Z</time></trkpt>
<trkpt lat="26.86135" lon="100.032935">
<time>2015-08-06T11:09:13Z</time></trkpt>
<trkpt lat="26.86121" lon="100.032895">
<time>2015-08-06T11:09:14Z</time></trkpt>
<trkpt lat="26.86111" lon="100.032885">
<time>2015-08-06T11:09:15Z</time></trkpt>
<trkpt lat="26.8608" lon="100.032865">
<time>2015-08-06T11:09:16Z</time></trkpt>
<trkpt lat="26.86025" lon="100.032875">
<time>2015-08-06T11:09:17Z</time></trkpt>
<trkpt lat="26.86004" lon="100.032865">
<time>2015-08-06T11:09:18Z</time></trkpt>
<trkpt lat="26.85968" lon="100.032855">
<time>2015-08-06T11:09:19Z</time></trkpt>
<trkpt lat="26.8591" lon="100.032855">
<time>2015-08-06T11:09:20Z</time></trkpt>
<trkpt lat="26.85885" lon="100.032855">
<time>2015-08-06T11:09:21Z</time></trkpt>
<trkpt lat="26.85863" lon="100.032855">
<time>2015-08-06T11:09:22Z</time></trkpt>
<trkpt lat="26.85855" lon="100.032865">
<time>2015-08-06T11:09:23Z</time></trkpt>
<trkpt lat="26.85847" lon="100.032885">
<time>2015-08-06T11:09:24Z</time></trkpt>
<trkpt lat="26.85841" lon="100.032925">
<time>2015-08-06T11:09:25Z</time></trkpt>
<trkpt lat="26.85835" lon="100.032975">
<time>2015-08-06T11:09:26Z</time></trkpt>
<trkpt lat="26.85831" lon="100.033065">
<time>2015-08-06T11:09:27Z</time></trkpt>
<trkpt lat="26.85828" lon="100.033165">
<time>2015-08-06T11:09:28Z</time></trkpt>
<trkpt lat="26.858289" lon="100.033264">
<time>2015-08-06T11:09:29Z</time></trkpt>
<trkpt lat="26.858319" lon="100.033374">
<time>2015-08-06T11:09:30Z</time></trkpt>
<trkpt lat="26.858468" lon="100.033683">
<time>2015-08-06T11:09:31Z</time></trkpt>
<trkpt lat="26.858598" lon="100.033922">
<time>2015-08-06T11:09:32Z</time></trkpt>
<trkpt lat="26.858767" lon="100.034202">
<time>2015-08-06T11:09:33Z</time></trkpt>
<trkpt lat="26.858847" lon="100.034291">
<time>2015-08-06T11:09:34Z</time></trkpt>
<trkpt lat="26.858937" lon="100.034371">
<time>2015-08-06T11:09:35Z</time></trkpt>
<trkpt lat="26.859026" lon="100.034431">
<time>2015-08-06T11:09:36Z</time></trkpt>
<trkpt lat="26.859226" lon="100.034531">
<time>2015-08-06T11:09:37Z</time></trkpt>
<trkpt lat="26.859945" lon="100.03483">
<time>2015-08-06T11:09:38Z</time></trkpt>
<trkpt lat="26.860115" lon="100.03491">
<time>2015-08-06T11:09:39Z</time></trkpt>
<trkpt lat="26.860245" lon="100.034989">
<time>2015-08-06T11:09:40Z</time></trkpt>
<trkpt lat="26.860345" lon="100.035059">
<time>2015-08-06T11:09:41Z</time></trkpt>
<trkpt lat="26.860464" lon="100.035149">
<time>2015-08-06T11:09:42Z</time></trkpt>
<trkpt lat="26.860584" lon="100.035259">
<time>2015-08-06T11:09:43Z</time></trkpt>
<trkpt lat="26.860714" lon="100.035408">
<time>2015-08-06T11:09:44Z</time></trkpt>
<trkpt lat="26.861192" lon="100.035937">
<time>2015-08-06T11:09:45Z</time></trkpt>
<trkpt lat="26.861282" lon="100.035987">
<time>2015-08-06T11:09:46Z</time></trkpt>
<trkpt lat="26.861352" lon="100.036037">
<time>2015-08-06T11:09:47Z</time></trkpt>
<trkpt lat="26.861432" lon="100.036057">
<time>2015-08-06T11:09:48Z</time></trkpt>
<trkpt lat="26.861502" lon="100.036067">
<time>2015-08-06T11:09:49Z</time></trkpt>
<trkpt lat="26.861562" lon="100.036057">
<time>2015-08-06T11:09:50Z</time></trkpt>
<trkpt lat="26.861622" lon="100.036047">
<time>2015-08-06T11:09:51Z</time></trkpt>
<trkpt lat="26.861692" lon="100.036017">
<time>2015-08-06T11:09:52Z</time></trkpt>
<trkpt lat="26.861762" lon="100.035967">
<time>2015-08-06T11:09:53Z</time></trkpt>
<trkpt lat="26.861832" lon="100.035897">
<time>2015-08-06T11:09:54Z</time></trkpt>
<trkpt lat="26.861953" lon="100.035767">
<time>2015-08-06T11:09:55Z</time></trkpt>
<trkpt lat="26.862033" lon="100.035688">
<time>2015-08-06T11:09:56Z</time></trkpt>
<trkpt lat="26.862113" lon="100.035628">
<time>2015-08-06T11:09:57Z</time></trkpt>
<trkpt lat="26.862193" lon="100.035578">
<time>2015-08-06T11:09:58Z</time></trkpt>
<trkpt lat="26.862293" lon="100.035558">
<time>2015-08-06T11:09:59Z</time></trkpt>
<trkpt lat="26.862363" lon="100.035558">
<time>2015-08-06T11:10:00Z</time></trkpt>
<trkpt lat="26.862423" lon="100.035558">
<time>2015-08-06T11:10:01Z</time></trkpt>
<trkpt lat="26.862493" lon="100.035578">
<time>2015-08-06T11:10:02Z</time></trkpt>
<trkpt lat="26.862553" lon="100.035598">
<time>2015-08-06T11:10:03Z</time></trkpt>
<trkpt lat="26.862623" lon="100.035628">
<time>2015-08-06T11:10:04Z</time></trkpt>
<trkpt lat="26.862693" lon="100.035688">
<time>2015-08-06T11:10:05Z</time></trkpt>
<trkpt lat="26.862792" lon="100.035767">
<time>2015-08-06T11:10:06Z</time></trkpt>
<trkpt lat="26.863221" lon="100.036196">
<time>2015-08-06T11:10:07Z</time></trkpt>
<trkpt lat="26.863371" lon="100.036336">
<time>2015-08-06T11:10:08Z</time></trkpt>
<trkpt lat="26.863461" lon="100.036435">
<time>2015-08-06T11:10:09Z</time></trkpt>
<trkpt lat="26.86352" lon="100.036515">
<time>2015-08-06T11:10:10Z</time></trkpt>
<trkpt lat="26.86358" lon="100.036615">
<time>2015-08-06T11:10:11Z</time></trkpt>
<trkpt lat="26.86364" lon="100.036755">
<time>2015-08-06T11:10:12Z</time></trkpt>
<trkpt lat="26.863779" lon="100.037114">
<time>2015-08-06T11:10:13Z</time></trkpt>
<trkpt lat="26.863878" lon="100.037433">
<time>2015-08-06T11:10:14Z</time></trkpt>
<trkpt lat="26.864007" lon="100.037842">
<time>2015-08-06T11:10:15Z</time></trkpt>
<trkpt lat="26.864037" lon="100.037951">
<time>2015-08-06T11:10:16Z</time></trkpt>
<trkpt lat="26.864036" lon="100.038061">
<time>2015-08-06T11:10:17Z</time></trkpt>
<trkpt lat="26.864046" lon="100.038161">
<time>2015-08-06T11:10:18Z</time></trkpt>
<trkpt lat="26.864026" lon="100.038261">
<time>2015-08-06T11:10:19Z</time></trkpt>
<trkpt lat="26.863976" lon="100.03837">
<time>2015-08-06T11:10:20Z</time></trkpt>
<trkpt lat="26.863915" lon="100.03849">
<time>2015-08-06T11:10:21Z</time></trkpt>
<trkpt lat="26.863785" lon="100.038679">
<time>2015-08-06T11:10:22Z</time></trkpt>
<trkpt lat="26.863695" lon="100.038809">
<time>2015-08-06T11:10:23Z</time></trkpt>
<trkpt lat="26.863544" lon="100.039049">
<time>2015-08-06T11:10:24Z</time></trkpt>
<trkpt lat="26.863384" lon="100.039298">
<time>2015-08-06T11:10:25Z</time></trkpt>
<trkpt lat="26.863293" lon="100.039398">
<time>2015-08-06T11:10:26Z</time></trkpt>
<trkpt lat="26.863173" lon="100.039517">
<time>2015-08-06T11:10:27Z</time></trkpt>
<trkpt lat="26.863033" lon="100.039617">
<time>2015-08-06T11:10:28Z</time></trkpt>
<trkpt lat="26.862903" lon="100.039707">
<time>2015-08-06T11:10:29Z</time></trkpt>
<trkpt lat="26.862552" lon="100.039906">
<time>2015-08-06T11:10:30Z</time></trkpt>
<trkpt lat="26.862342" lon="100.040016">
<time>2015-08-06T11:10:31Z</time></trkpt>
<trkpt lat="26.862162" lon="100.040136">
<time>2015-08-06T11:10:32Z</time></trkpt>
<trkpt lat="26.861791" lon="100.040335">
<time>2015-08-06T11:10:33Z</time></trkpt>
<trkpt lat="26.861581" lon="100.040445">
<time>2015-08-06T11:10:34Z</time></trkpt>
<trkpt lat="26.861381" lon="100.040525">
<time>2015-08-06T11:10:35Z</time></trkpt>
<trkpt lat="26.861201" lon="100.040595">
<time>2015-08-06T11:10:36Z</time></trkpt>
<trkpt lat="26.861001" lon="100.040634">
<time>2015-08-06T11:10:37Z</time></trkpt>
<trkpt lat="26.860841" lon="100.040654">
<time>2015-08-06T11:10:38Z</time></trkpt>
<trkpt lat="26.860641" lon="100.040674">
<time>2015-08-06T11:10:39Z</time></trkpt>
<trkpt lat="26.860371" lon="100.040664">
<time>2015-08-06T11:10:40Z</time></trkpt>
<trkpt lat="26.860121" lon="100.040634">
<time>2015-08-06T11:10:41Z</time></trkpt>
<trkpt lat="26.859791" lon="100.040565">
<time>2015-08-06T11:10:42Z</time></trkpt>
<trkpt lat="26.859112" lon="100.040365">
<time>2015-08-06T11:10:43Z</time></trkpt>
<trkpt lat="26.858372" lon="100.040176">
<time>2015-08-06T11:10:44Z</time></trkpt>
<trkpt lat="26.858292" lon="100.040156">
<time>2015-08-06T11:10:45Z</time></trkpt>
<trkpt lat="26.858203" lon="100.040146">
<time>2015-08-06T11:10:46Z</time></trkpt>
<trkpt lat="26.858143" lon="100.040146">
<time>2015-08-06T11:10:47Z</time></trkpt>
<trkpt lat="26.858073" lon="100.040146">
<time>2015-08-06T11:10:48Z</time></trkpt>
<trkpt lat="26.857983" lon="100.040166">
<time>2015-08-06T11:10:49Z</time></trkpt>
<trkpt lat="26.857912" lon="100.040216">
<time>2015-08-06T11:10:50Z</time></trkpt>
<trkpt lat="26.857842" lon="100.040285">
<time>2015-08-06T11:10:51Z</time></trkpt>
<trkpt lat="26.857792" lon="100.040365">
<time>2015-08-06T11:10:52Z</time></trkpt>
<trkpt lat="26.857772" lon="100.040475">
<time>2015-08-06T11:10:53Z</time></trkpt>
<trkpt lat="26.857772" lon="100.040585">
<time>2015-08-06T11:10:54Z</time></trkpt>
<trkpt lat="26.857791" lon="100.040684">
<time>2015-08-06T11:10:55Z</time></trkpt>
<trkpt lat="26.857841" lon="100.040794">
<time>2015-08-06T11:10:56Z</time></trkpt>
<trkpt lat="26.857921" lon="100.040904">
<time>2015-08-06T11:10:57Z</time></trkpt>
<trkpt lat="26.85812" lon="100.041113">
<time>2015-08-06T11:10:58Z</time></trkpt>
<trkpt lat="26.85838" lon="100.041353">
<time>2015-08-06T11:10:59Z</time></trkpt>
<trkpt lat="26.858958" lon="100.041871">
<time>2015-08-06T11:11:00Z</time></trkpt>
<trkpt lat="26.859128" lon="100.042001">
<time>2015-08-06T11:11:01Z</time></trkpt>
<trkpt lat="26.859418" lon="100.042201">
<time>2015-08-06T11:11:02Z</time></trkpt>
<trkpt lat="26.860346" lon="100.042749">
<time>2015-08-06T11:11:03Z</time></trkpt>
<trkpt lat="26.860666" lon="100.042949">
<time>2015-08-06T11:11:04Z</time></trkpt>
<trkpt lat="26.860805" lon="100.043058">
<time>2015-08-06T11:11:05Z</time></trkpt>
<trkpt lat="26.860955" lon="100.043158">
<time>2015-08-06T11:11:06Z</time></trkpt>
<trkpt lat="26.861125" lon="100.043288">
<time>2015-08-06T11:11:07Z</time></trkpt>
<trkpt lat="26.861584" lon="100.043687">
<time>2015-08-06T11:11:08Z</time></trkpt>
<trkpt lat="26.862073" lon="100.044086">
<time>2015-08-06T11:11:09Z</time></trkpt>
<trkpt lat="26.862203" lon="100.044186">
<time>2015-08-06T11:11:10Z</time></trkpt>
<trkpt lat="26.862282" lon="100.044265">
<time>2015-08-06T11:11:11Z</time></trkpt>
<trkpt lat="26.862342" lon="100.044365">
<time>2015-08-06T11:11:12Z</time></trkpt>
<trkpt lat="26.862382" lon="100.044455">
<time>2015-08-06T11:11:13Z</time></trkpt>
<trkpt lat="26.862392" lon="100.044565">
<time>2015-08-06T11:11:14Z</time></trkpt>
<trkpt lat="26.862391" lon="100.044654">
<time>2015-08-06T11:11:15Z</time></trkpt>
<trkpt lat="26.862371" lon="100.044744">
<time>2015-08-06T11:11:16Z</time></trkpt>
<trkpt lat="26.862331" lon="100.044824">
<time>2015-08-06T11:11:17Z</time></trkpt>
<trkpt lat="26.862261" lon="100.044904">
<time>2015-08-06T11:11:18Z</time></trkpt>
<trkpt lat="26.862181" lon="100.044964">
<time>2015-08-06T11:11:19Z</time></trkpt>
<trkpt lat="26.862101" lon="100.044994">
<time>2015-08-06T11:11:20Z</time></trkpt>
<trkpt lat="26.862001" lon="100.045014">
<time>2015-08-06T11:11:21Z</time></trkpt>
<trkpt lat="26.861911" lon="100.044994">
<time>2015-08-06T11:11:22Z</time></trkpt>
<trkpt lat="26.861621" lon="100.044944">
<time>2015-08-06T11:11:23Z</time></trkpt>
<trkpt lat="26.860652" lon="100.044744">
<time>2015-08-06T11:11:24Z</time></trkpt>
<trkpt lat="26.859123" lon="100.044435">
<time>2015-08-06T11:11:25Z</time></trkpt>
<trkpt lat="26.858253" lon="100.044256">
<time>2015-08-06T11:11:26Z</time></trkpt>
<trkpt lat="26.857933" lon="100.044186">
<time>2015-08-06T11:11:27Z</time></trkpt>
<trkpt lat="26.857644" lon="100.044116">
<time>2015-08-06T11:11:28Z</time></trkpt>
<trkpt lat="26.857394" lon="100.044076">
<time>2015-08-06T11:11:29Z</time></trkpt>
<trkpt lat="26.857294" lon="100.044076">
<time>2015-08-06T11:11:30Z</time></trkpt>
<trkpt lat="26.857204" lon="100.044076">
<time>2015-08-06T11:11:31Z</time></trkpt>
<trkpt lat="26.857124" lon="100.044096">
<time>2015-08-06T11:11:32Z</time></trkpt>
<trkpt lat="26.857044" lon="100.044126">
<time>2015-08-06T11:11:33Z</time></trkpt>
<trkpt lat="26.856984" lon="100.044156">
<time>2015-08-06T11:11:34Z</time></trkpt>
<trkpt lat="26.856913" lon="100.044216">
<time>2015-08-06T11:11:35Z</time></trkpt>
<trkpt lat="26.856853" lon="100.044285">
<time>2015-08-06T11:11:36Z</time></trkpt>
<trkpt lat="26.856783" lon="100.044395">
<time>2015-08-06T11:11:37Z</time></trkpt>
<trkpt lat="26.856713" lon="100.044575">
<time>2015-08-06T11:11:38Z</time></trkpt>
<trkpt lat="26.856612" lon="100.044884">
<time>2015-08-06T11:11:39Z</time></trkpt>
<trkpt lat="26.856411" lon="100.045552">
<time>2015-08-06T11:11:40Z</time></trkpt>
<trkpt lat="26.85636" lon="100.045762">
<time>2015-08-06T11:11:41Z</time></trkpt>
<trkpt lat="26.85632" lon="100.045842">
<time>2015-08-06T11:11:42Z</time></trkpt>
<trkpt lat="26.85627" lon="100.045932">
<time>2015-08-06T11:11:43Z</time></trkpt>
<trkpt lat="26.85622" lon="100.046001">
<time>2015-08-06T11:11:44Z</time></trkpt>
<trkpt lat="26.856159" lon="100.046071">
<time>2015-08-06T11:11:45Z</time></trkpt>
<trkpt lat="26.856079" lon="100.046131">
<time>2015-08-06T11:11:46Z</time></trkpt>
<trkpt lat="26.856009" lon="100.046171">
<time>2015-08-06T11:11:47Z</time></trkpt>
<trkpt lat="26.855919" lon="100.046201">
<time>2015-08-06T11:11:48Z</time></trkpt>
<trkpt lat="26.855389" lon="100.04639">
<time>2015-08-06T11:11:49Z</time></trkpt>
<trkpt lat="26.855069" lon="100.04651">
<time>2015-08-06T11:11:50Z</time></trkpt>
<trkpt lat="26.854989" lon="100.04656">
<time>2015-08-06T11:11:51Z</time></trkpt>
<trkpt lat="26.854929" lon="100.04659">
<time>2015-08-06T11:11:52Z</time></trkpt>
<trkpt lat="26.854848" lon="100.04666">
<time>2015-08-06T11:11:53Z</time></trkpt>
<trkpt lat="26.854758" lon="100.04674">
<time>2015-08-06T11:11:54Z</time></trkpt>
<trkpt lat="26.854678" lon="100.046859">
<time>2015-08-06T11:11:55Z</time></trkpt>
<trkpt lat="26.854578" lon="100.047059">
<time>2015-08-06T11:11:56Z</time></trkpt>
<trkpt lat="26.854467" lon="100.047298">
<time>2015-08-06T11:11:57Z</time></trkpt>
<trkpt lat="26.854065" lon="100.048236">
<time>2015-08-06T11:11:58Z</time></trkpt>
<trkpt lat="26.853794" lon="100.048885">
<time>2015-08-06T11:11:59Z</time></trkpt>
<trkpt lat="26.853734" lon="100.049064">
<time>2015-08-06T11:12:00Z</time></trkpt>
<trkpt lat="26.853693" lon="100.049234">
<time>2015-08-06T11:12:01Z</time></trkpt>
<trkpt lat="26.853663" lon="100.049414">
<time>2015-08-06T11:12:02Z</time></trkpt>
<trkpt lat="26.853643" lon="100.049603">
<time>2015-08-06T11:12:03Z</time></trkpt>
<trkpt lat="26.853632" lon="100.049873">
<time>2015-08-06T11:12:04Z</time></trkpt>
<trkpt lat="26.853621" lon="100.050441">
<time>2015-08-06T11:12:05Z</time></trkpt>
<trkpt lat="26.853579" lon="100.051429">
<time>2015-08-06T11:12:06Z</time></trkpt>
<trkpt lat="26.853558" lon="100.051769">
<time>2015-08-06T11:12:07Z</time></trkpt>
<trkpt lat="26.853528" lon="100.052078">
<time>2015-08-06T11:12:08Z</time></trkpt>
<trkpt lat="26.853487" lon="100.052317">
<time>2015-08-06T11:12:09Z</time></trkpt>
<trkpt lat="26.853326" lon="100.052986">
<time>2015-08-06T11:12:10Z</time></trkpt>
<trkpt lat="26.853003" lon="100.054283">
<time>2015-08-06T11:12:11Z</time></trkpt>
<trkpt lat="26.852943" lon="100.054423">
<time>2015-08-06T11:12:12Z</time></trkpt>
<trkpt lat="26.852843" lon="100.054643">
<time>2015-08-06T11:12:13Z</time></trkpt>
<trkpt lat="26.852713" lon="100.054812">
<time>2015-08-06T11:12:14Z</time></trkpt>
<trkpt lat="26.852582" lon="100.054932">
<time>2015-08-06T11:12:15Z</time></trkpt>
<trkpt lat="26.852402" lon="100.055072">
<time>2015-08-06T11:12:16Z</time></trkpt>
<trkpt lat="26.851541" lon="100.055671">
<time>2015-08-06T11:12:17Z</time></trkpt>
<trkpt lat="26.85038" lon="100.056509">
<time>2015-08-06T11:12:18Z</time></trkpt>
<trkpt lat="26.849309" lon="100.057268">
<time>2015-08-06T11:12:19Z</time></trkpt>
<trkpt lat="26.849179" lon="100.057357">
<time>2015-08-06T11:12:20Z</time></trkpt>
<trkpt lat="26.849048" lon="100.057487">
<time>2015-08-06T11:12:21Z</time></trkpt>
<trkpt lat="26.848928" lon="100.057627">
<time>2015-08-06T11:12:22Z</time></trkpt>
<trkpt lat="26.848828" lon="100.057767">
<time>2015-08-06T11:12:23Z</time></trkpt>
<trkpt lat="26.848748" lon="100.057926">
<time>2015-08-06T11:12:24Z</time></trkpt>
<trkpt lat="26.848687" lon="100.058066">
<time>2015-08-06T11:12:25Z</time></trkpt>
<trkpt lat="26.848637" lon="100.058256">
<time>2015-08-06T11:12:26Z</time></trkpt>
<trkpt lat="26.848587" lon="100.058555">
<time>2015-08-06T11:12:27Z</time></trkpt>
<trkpt lat="26.848485" lon="100.059324">
<time>2015-08-06T11:12:28Z</time></trkpt>
<trkpt lat="26.848303" lon="100.060622">
<time>2015-08-06T11:12:29Z</time></trkpt>
<trkpt lat="26.848263" lon="100.060811">
<time>2015-08-06T11:12:30Z</time></trkpt>
<trkpt lat="26.848213" lon="100.060961">
<time>2015-08-06T11:12:31Z</time></trkpt>
<trkpt lat="26.848162" lon="100.061151">
<time>2015-08-06T11:12:32Z</time></trkpt>
<trkpt lat="26.848012" lon="100.0615">
<time>2015-08-06T11:12:33Z</time></trkpt>
<trkpt lat="26.847641" lon="100.062289">
<time>2015-08-06T11:12:34Z</time></trkpt>
<trkpt lat="26.84736" lon="100.062788">
<time>2015-08-06T11:12:35Z</time></trkpt>
<trkpt lat="26.84725" lon="100.062928">
<time>2015-08-06T11:12:36Z</time></trkpt>
<trkpt lat="26.84713" lon="100.063057">
<time>2015-08-06T11:12:37Z</time></trkpt>
<trkpt lat="26.846849" lon="100.063307">
<time>2015-08-06T11:12:38Z</time></trkpt>
<trkpt lat="26.845978" lon="100.064136">
<time>2015-08-06T11:12:39Z</time></trkpt>
<trkpt lat="26.845888" lon="100.064236">
<time>2015-08-06T11:12:40Z</time></trkpt>
<trkpt lat="26.845808" lon="100.064345">
<time>2015-08-06T11:12:41Z</time></trkpt>
<trkpt lat="26.845708" lon="100.064495">
<time>2015-08-06T11:12:42Z</time></trkpt>
<trkpt lat="26.845598" lon="100.064715">
<time>2015-08-06T11:12:43Z</time></trkpt>
<trkpt lat="26.845537" lon="100.064875">
<time>2015-08-06T11:12:44Z</time></trkpt>
<trkpt lat="26.845497" lon="100.065114">
<time>2015-08-06T11:12:45Z</time></trkpt>
<trkpt lat="26.845487" lon="100.065264">
<time>2015-08-06T11:12:46Z</time></trkpt>
<trkpt lat="26.845497" lon="100.065444">
<time>2015-08-06T11:12:47Z</time></trkpt>
<trkpt lat="26.845516" lon="100.065614">
<time>2015-08-06T11:12:48Z</time></trkpt>
<trkpt lat="26.845566" lon="100.065843">
<time>2015-08-06T11:12:49Z</time></trkpt>
<trkpt lat="26.845765" lon="100.066622">
<time>2015-08-06T11:12:50Z</time></trkpt>
<trkpt lat="26.845924" lon="100.067251">
<time>2015-08-06T11:12:51Z</time></trkpt>
<trkpt lat="26.845964" lon="100.067371">
<time>2015-08-06T11:12:52Z</time></trkpt>
<trkpt lat="26.845974" lon="100.067481">
<time>2015-08-06T11:12:53Z</time></trkpt>
<trkpt lat="26.845983" lon="100.067621">
<time>2015-08-06T11:12:54Z</time></trkpt>
<trkpt lat="26.845993" lon="100.06775">
<time>2015-08-06T11:12:55Z</time></trkpt>
<trkpt lat="26.845993" lon="100.06795">
<time>2015-08-06T11:12:56Z</time></trkpt>
<trkpt lat="26.845973" lon="100.06822">
<time>2015-08-06T11:12:57Z</time></trkpt>
<trkpt lat="26.845922" lon="100.068529">
<time>2015-08-06T11:12:58Z</time></trkpt>
<trkpt lat="26.845771" lon="100.069338">
<time>2015-08-06T11:12:59Z</time></trkpt>
<trkpt lat="26.84557" lon="100.070377">
<time>2015-08-06T11:13:00Z</time></trkpt>
<trkpt lat="26.84552" lon="100.070707">
<time>2015-08-06T11:13:01Z</time></trkpt>
<trkpt lat="26.84551" lon="100.070896">
<time>2015-08-06T11:13:02Z</time></trkpt>
<trkpt lat="26.845509" lon="100.071116">
<time>2015-08-06T11:13:03Z</time></trkpt>
<trkpt lat="26.845529" lon="100.071316">
<time>2015-08-06T11:13:04Z</time></trkpt>
<trkpt lat="26.845589" lon="100.071625">
<time>2015-08-06T11:13:05Z</time></trkpt>
<trkpt lat="26.845758" lon="100.072494">
<time>2015-08-06T11:13:06Z</time></trkpt>
<trkpt lat="26.845787" lon="100.072664">
<time>2015-08-06T11:13:07Z</time></trkpt>
<trkpt lat="26.845787" lon="100.072764">
<time>2015-08-06T11:13:08Z</time></trkpt>
<trkpt lat="26.845787" lon="100.072874">
<time>2015-08-06T11:13:09Z</time></trkpt>
<trkpt lat="26.845767" lon="100.073014">
<time>2015-08-06T11:13:10Z</time></trkpt>
<trkpt lat="26.845747" lon="100.073154">
<time>2015-08-06T11:13:11Z</time></trkpt>
<trkpt lat="26.845667" lon="100.073443">
<time>2015-08-06T11:13:12Z</time></trkpt>
<trkpt lat="26.845386" lon="100.074622">
<time>2015-08-06T11:13:13Z</time></trkpt>
<trkpt lat="26.845295" lon="100.074972">
<time>2015-08-06T11:13:14Z</time></trkpt>
<trkpt lat="26.845135" lon="100.075651">
<time>2015-08-06T11:13:15Z</time></trkpt>
<trkpt lat="26.844934" lon="100.07644">
<time>2015-08-06T11:13:16Z</time></trkpt>
<trkpt lat="26.844894" lon="100.07657">
<time>2015-08-06T11:13:17Z</time></trkpt>
<trkpt lat="26.844844" lon="100.07667">
<time>2015-08-06T11:13:18Z</time></trkpt>
<trkpt lat="26.844784" lon="100.07677">
<time>2015-08-06T11:13:19Z</time></trkpt>
<trkpt lat="26.844694" lon="100.07686">
<time>2015-08-06T11:13:20Z</time></trkpt>
<trkpt lat="26.844603" lon="100.07695">
<time>2015-08-06T11:13:21Z</time></trkpt>
<trkpt lat="26.844523" lon="100.07701">
<time>2015-08-06T11:13:22Z</time></trkpt>
<trkpt lat="26.844403" lon="100.07705">
<time>2015-08-06T11:13:23Z</time></trkpt>
<trkpt lat="26.844283" lon="100.07709">
<time>2015-08-06T11:13:24Z</time></trkpt>
<trkpt lat="26.843823" lon="100.077209">
<time>2015-08-06T11:13:25Z</time></trkpt>
<trkpt lat="26.843053" lon="100.077409">
<time>2015-08-06T11:13:26Z</time></trkpt>
<trkpt lat="26.842933" lon="100.077449">
<time>2015-08-06T11:13:27Z</time></trkpt>
<trkpt lat="26.842863" lon="100.077479">
<time>2015-08-06T11:13:28Z</time></trkpt>
<trkpt lat="26.842783" lon="100.077539">
<time>2015-08-06T11:13:29Z</time></trkpt>
<trkpt lat="26.842713" lon="100.077629">
<time>2015-08-06T11:13:30Z</time></trkpt>
<trkpt lat="26.842653" lon="100.077759">
<time>2015-08-06T11:13:31Z</time></trkpt>
<trkpt lat="26.842613" lon="100.077889">
<time>2015-08-06T11:13:32Z</time></trkpt>
<trkpt lat="26.842402" lon="100.078748">
<time>2015-08-06T11:13:33Z</time></trkpt>
<trkpt lat="26.842322" lon="100.079138">
<time>2015-08-06T11:13:34Z</time></trkpt>
<trkpt lat="26.842312" lon="100.079268">
<time>2015-08-06T11:13:35Z</time></trkpt>
<trkpt lat="26.842312" lon="100.079388">
<time>2015-08-06T11:13:36Z</time></trkpt>
<trkpt lat="26.842342" lon="100.079517">
<time>2015-08-06T11:13:37Z</time></trkpt>
<trkpt lat="26.842382" lon="100.079677">
<time>2015-08-06T11:13:38Z</time></trkpt>
<trkpt lat="26.842451" lon="100.079877">
<time>2015-08-06T11:13:39Z</time></trkpt>
<trkpt lat="26.842651" lon="100.080287">
<time>2015-08-06T11:13:40Z</time></trkpt>
<trkpt lat="26.842881" lon="100.080727">
<time>2015-08-06T11:13:41Z</time></trkpt>
<trkpt lat="26.842931" lon="100.080846">
<time>2015-08-06T11:13:42Z</time></trkpt>
<trkpt lat="26.84297" lon="100.081016">
<time>2015-08-06T11:13:43Z</time></trkpt>
<trkpt lat="26.84298" lon="100.081146">
<time>2015-08-06T11:13:44Z</time></trkpt>
<trkpt lat="26.84298" lon="100.081266">
<time>2015-08-06T11:13:45Z</time></trkpt>
<trkpt lat="26.84297" lon="100.081386">
<time>2015-08-06T11:13:46Z</time></trkpt>
<trkpt lat="26.84293" lon="100.081486">
<time>2015-08-06T11:13:47Z</time></trkpt>
<trkpt lat="26.84287" lon="100.081616">
<time>2015-08-06T11:13:48Z</time></trkpt>
<trkpt lat="26.84279" lon="100.081726">
<time>2015-08-06T11:13:49Z</time></trkpt>
<trkpt lat="26.84272" lon="100.081806">
<time>2015-08-06T11:13:50Z</time></trkpt>
<trkpt lat="26.84254" lon="100.081946">
<time>2015-08-06T11:13:51Z</time></trkpt>
<trkpt lat="26.84174" lon="100.082595">
<time>2015-08-06T11:13:52Z</time></trkpt>
<trkpt lat="26.841289" lon="100.082955">
<time>2015-08-06T11:13:53Z</time></trkpt>
<trkpt lat="26.841079" lon="100.083155">
<time>2015-08-06T11:13:54Z</time></trkpt>
<trkpt lat="26.840929" lon="100.083305">
<time>2015-08-06T11:13:55Z</time></trkpt>
<trkpt lat="26.840789" lon="100.083475">
<time>2015-08-06T11:13:56Z</time></trkpt>
<trkpt lat="26.840549" lon="100.083775">
<time>2015-08-06T11:13:57Z</time></trkpt>
<trkpt lat="26.840239" lon="100.084164">
<time>2015-08-06T11:13:58Z</time></trkpt>
<trkpt lat="26.840089" lon="100.084324">
<time>2015-08-06T11:13:59Z</time></trkpt>
<trkpt lat="26.839899" lon="100.084474">
<time>2015-08-06T11:14:00Z</time></trkpt>
<trkpt lat="26.839499" lon="100.084764">
<time>2015-08-06T11:14:01Z</time></trkpt>
<trkpt lat="26.839399" lon="100.084854">
<time>2015-08-06T11:14:02Z</time></trkpt>
<trkpt lat="26.839209" lon="100.084964">
<time>2015-08-06T11:14:03Z</time></trkpt>
<trkpt lat="26.839069" lon="100.085054">
<time>2015-08-06T11:14:04Z</time></trkpt>
<trkpt lat="26.838148" lon="100.085684">
<time>2015-08-06T11:14:05Z</time></trkpt>
<trkpt lat="26.837208" lon="100.086343">
<time>2015-08-06T11:14:06Z</time></trkpt>
<trkpt lat="26.837038" lon="100.086463">
<time>2015-08-06T11:14:07Z</time></trkpt>
<trkpt lat="26.836848" lon="100.086633">
<time>2015-08-06T11:14:08Z</time></trkpt>
<trkpt lat="26.836248" lon="100.087303">
<time>2015-08-06T11:14:09Z</time></trkpt>
<trkpt lat="26.835538" lon="100.088083">
<time>2015-08-06T11:14:10Z</time></trkpt>
<trkpt lat="26.835318" lon="100.088342">
<time>2015-08-06T11:14:11Z</time></trkpt>
<trkpt lat="26.835148" lon="100.088582">
<time>2015-08-06T11:14:12Z</time></trkpt>
<trkpt lat="26.835028" lon="100.088802">
<time>2015-08-06T11:14:13Z</time></trkpt>
<trkpt lat="26.834477" lon="100.089782">
<time>2015-08-06T11:14:14Z</time></trkpt>
<trkpt lat="26.833937" lon="100.090732">
<time>2015-08-06T11:14:15Z</time></trkpt>
<trkpt lat="26.833857" lon="100.090832">
<time>2015-08-06T11:14:16Z</time></trkpt>
<trkpt lat="26.833737" lon="100.090962">
<time>2015-08-06T11:14:17Z</time></trkpt>
<trkpt lat="26.833627" lon="100.091052">
<time>2015-08-06T11:14:18Z</time></trkpt>
<trkpt lat="26.833517" lon="100.091122">
<time>2015-08-06T11:14:19Z</time></trkpt>
<trkpt lat="26.833417" lon="100.091172">
<time>2015-08-06T11:14:20Z</time></trkpt>
<trkpt lat="26.833357" lon="100.091192">
<time>2015-08-06T11:14:21Z</time></trkpt>
<trkpt lat="26.832277" lon="100.091682">
<time>2015-08-06T11:14:22Z</time></trkpt>
<trkpt lat="26.829957" lon="100.092741">
<time>2015-08-06T11:14:23Z</time></trkpt>
<trkpt lat="26.829227" lon="100.093081">
<time>2015-08-06T11:14:24Z</time></trkpt>
<trkpt lat="26.828807" lon="100.093331">
<time>2015-08-06T11:14:25Z</time></trkpt>
<trkpt lat="26.828527" lon="100.093611">
<time>2015-08-06T11:14:26Z</time></trkpt>
<trkpt lat="26.827787" lon="100.094361">
<time>2015-08-06T11:14:27Z</time></trkpt>
<trkpt lat="26.827007" lon="100.095181">
<time>2015-08-06T11:14:28Z</time></trkpt>
<trkpt lat="26.826667" lon="100.095501">
<time>2015-08-06T11:14:29Z</time></trkpt>
<trkpt lat="26.826537" lon="100.095691">
<time>2015-08-06T11:14:30Z</time></trkpt>
<trkpt lat="26.826517" lon="100.095891">
<time>2015-08-06T11:14:31Z</time></trkpt>
<trkpt lat="26.826527" lon="100.096091">
<time>2015-08-06T11:14:32Z</time></trkpt>
<trkpt lat="26.826647" lon="100.096631">
<time>2015-08-06T11:14:33Z</time></trkpt>
<trkpt lat="26.826737" lon="100.097051">
<time>2015-08-06T11:14:34Z</time></trkpt>
<trkpt lat="26.826767" lon="100.097301">
<time>2015-08-06T11:14:35Z</time></trkpt>
<trkpt lat="26.826707" lon="100.097521">
<time>2015-08-06T11:14:36Z</time></trkpt>
<trkpt lat="26.826627" lon="100.097701">
<time>2015-08-06T11:14:37Z</time></trkpt>
<trkpt lat="26.826517" lon="100.097841">
<time>2015-08-06T11:14:38Z</time></trkpt>
<trkpt lat="26.826387" lon="100.097941">
<time>2015-08-06T11:14:39Z</time></trkpt>
<trkpt lat="26.826237" lon="100.098011">
<time>2015-08-06T11:14:40Z</time></trkpt>
<trkpt lat="26.826047" lon="100.098021">
<time>2015-08-06T11:14:41Z</time></trkpt>
<trkpt lat="26.825867" lon="100.097981">
<time>2015-08-06T11:14:42Z</time></trkpt>
<trkpt lat="26.825458" lon="100.097841">
<time>2015-08-06T11:14:43Z</time></trkpt>
<trkpt lat="26.825088" lon="100.097701">
<time>2015-08-06T11:14:44Z</time></trkpt>
<trkpt lat="26.824918" lon="100.097691">
<time>2015-08-06T11:14:45Z</time></trkpt>
<trkpt lat="26.824778" lon="100.097731">
<time>2015-08-06T11:14:46Z</time></trkpt>
<trkpt lat="26.824658" lon="100.097831">
<time>2015-08-06T11:14:47Z</time></trkpt>
<trkpt lat="26.824588" lon="100.098001">
<time>2015-08-06T11:14:48Z</time></trkpt>
<trkpt lat="26.824628" lon="100.098191">
<time>2015-08-06T11:14:49Z</time></trkpt>
<trkpt lat="26.824698" lon="100.098321">
<time>2015-08-06T11:14:50Z</time></trkpt>
<trkpt lat="26.824908" lon="100.098591">
<time>2015-08-06T11:14:51Z</time></trkpt>
<trkpt lat="26.825668" lon="100.099542">
<time>2015-08-06T11:14:52Z</time></trkpt>
<trkpt lat="26.825828" lon="100.099772">
<time>2015-08-06T11:14:53Z</time></trkpt>
<trkpt lat="26.825898" lon="100.099992">
<time>2015-08-06T11:14:54Z</time></trkpt>
<trkpt lat="26.825898" lon="100.100202">
<time>2015-08-06T11:14:55Z</time></trkpt>
<trkpt lat="26.825838" lon="100.100432">
<time>2015-08-06T11:14:56Z</time></trkpt>
<trkpt lat="26.825688" lon="100.100652">
<time>2015-08-06T11:14:57Z</time></trkpt>
<trkpt lat="26.825438" lon="100.100922">
<time>2015-08-06T11:14:58Z</time></trkpt>
<trkpt lat="26.824798" lon="100.101552">
<time>2015-08-06T11:14:59Z</time></trkpt>
<trkpt lat="26.824628" lon="100.101702">
<time>2015-08-06T11:15:00Z</time></trkpt>
<trkpt lat="26.824178" lon="100.102032">
<time>2015-08-06T11:15:01Z</time></trkpt>
<trkpt lat="26.822929" lon="100.102973">
<time>2015-08-06T11:15:02Z</time></trkpt>
<trkpt lat="26.822179" lon="100.103563">
<time>2015-08-06T11:15:03Z</time></trkpt>
<trkpt lat="26.822019" lon="100.103683">
<time>2015-08-06T11:15:04Z</time></trkpt>
<trkpt lat="26.821929" lon="100.103873">
<time>2015-08-06T11:15:05Z</time></trkpt>
<trkpt lat="26.821879" lon="100.104023">
<time>2015-08-06T11:15:06Z</time></trkpt>
<trkpt lat="26.821929" lon="100.104233">
<time>2015-08-06T11:15:07Z</time></trkpt>
<trkpt lat="26.822129" lon="100.104763">
<time>2015-08-06T11:15:08Z</time></trkpt>
<trkpt lat="26.82247" lon="100.105574">
<time>2015-08-06T11:15:09Z</time></trkpt>
<trkpt lat="26.82267" lon="100.106014">
<time>2015-08-06T11:15:10Z</time></trkpt>
<trkpt lat="26.82271" lon="100.106104">
<time>2015-08-06T11:15:11Z</time></trkpt>
<trkpt lat="26.82288" lon="100.106574">
<time>2015-08-06T11:15:12Z</time></trkpt>
<trkpt lat="26.82325" lon="100.107505">
<time>2015-08-06T11:15:13Z</time></trkpt>
<trkpt lat="26.82332" lon="100.107685">
<time>2015-08-06T11:15:14Z</time></trkpt>
<trkpt lat="26.82335" lon="100.107765">
<time>2015-08-06T11:15:15Z</time></trkpt>
<trkpt lat="26.82338" lon="100.107875">
<time>2015-08-06T11:15:16Z</time></trkpt>
<trkpt lat="26.8234" lon="100.107955">
<time>2015-08-06T11:15:17Z</time></trkpt>
<trkpt lat="26.823411" lon="100.108045">
<time>2015-08-06T11:15:18Z</time></trkpt>
<trkpt lat="26.823421" lon="100.108135">
<time>2015-08-06T11:15:19Z</time></trkpt>
<trkpt lat="26.823421" lon="100.108235">
<time>2015-08-06T11:15:20Z</time></trkpt>
<trkpt lat="26.823411" lon="100.108365">
<time>2015-08-06T11:15:21Z</time></trkpt>
<trkpt lat="26.823391" lon="100.108485">
<time>2015-08-06T11:15:22Z</time></trkpt>
<trkpt lat="26.823321" lon="100.108795">
<time>2015-08-06T11:15:23Z</time></trkpt>
<trkpt lat="26.823301" lon="100.108965">
<time>2015-08-06T11:15:24Z</time></trkpt>
<trkpt lat="26.823301" lon="100.109086">
<time>2015-08-06T11:15:25Z</time></trkpt>
<trkpt lat="26.823301" lon="100.109176">
<time>2015-08-06T11:15:26Z</time></trkpt>
<trkpt lat="26.823331" lon="100.109266">
<time>2015-08-06T11:15:27Z</time></trkpt>
<trkpt lat="26.823351" lon="100.109336">
<time>2015-08-06T11:15:28Z</time></trkpt>
<trkpt lat="26.823391" lon="100.109406">
<time>2015-08-06T11:15:29Z</time></trkpt>
<trkpt lat="26.823471" lon="100.109526">
<time>2015-08-06T11:15:30Z</time></trkpt>
<trkpt lat="26.823641" lon="100.109786">
<time>2015-08-06T11:15:31Z</time></trkpt>
<trkpt lat="26.823912" lon="100.110186">
<time>2015-08-06T11:15:32Z</time></trkpt>
<trkpt lat="26.824322" lon="100.110757">
<time>2015-08-06T11:15:33Z</time></trkpt>
<trkpt lat="26.824952" lon="100.111657">
<time>2015-08-06T11:15:34Z</time></trkpt>
<trkpt lat="26.825032" lon="100.111787">
<time>2015-08-06T11:15:35Z</time></trkpt>
<trkpt lat="26.825072" lon="100.111877">
<time>2015-08-06T11:15:36Z</time></trkpt>
<trkpt lat="26.825102" lon="100.111947">
<time>2015-08-06T11:15:37Z</time></trkpt>
<trkpt lat="26.825122" lon="100.112027">
<time>2015-08-06T11:15:38Z</time></trkpt>
<trkpt lat="26.825143" lon="100.112108">
<time>2015-08-06T11:15:39Z</time></trkpt>
<trkpt lat="26.825163" lon="100.112198">
<time>2015-08-06T11:15:40Z</time></trkpt>
<trkpt lat="26.825163" lon="100.112308">
<time>2015-08-06T11:15:41Z</time></trkpt>
<trkpt lat="26.825163" lon="100.112438">
<time>2015-08-06T11:15:42Z</time></trkpt>
<trkpt lat="26.825163" lon="100.112598">
<time>2015-08-06T11:15:43Z</time></trkpt>
<trkpt lat="26.825064" lon="100.114009">
<time>2015-08-06T11:15:44Z</time></trkpt>
<trkpt lat="26.824995" lon="100.11503">
<time>2015-08-06T11:15:45Z</time></trkpt>
<trkpt lat="26.824995" lon="100.11503">
<time>2015-08-06T11:15:46Z</time></trkpt>
<trkpt lat="26.825245" lon="100.1153">
<time>2015-08-06T11:15:47Z</time></trkpt>
<trkpt lat="26.825325" lon="100.11543">
<time>2015-08-06T11:15:48Z</time></trkpt>
<trkpt lat="26.825405" lon="100.11554">
<time>2015-08-06T11:15:49Z</time></trkpt>
<trkpt lat="26.825475" lon="100.11565">
<time>2015-08-06T11:15:50Z</time></trkpt>
<trkpt lat="26.825525" lon="100.115761">
<time>2015-08-06T11:15:51Z</time></trkpt>
<trkpt lat="26.825565" lon="100.115841">
<time>2015-08-06T11:15:52Z</time></trkpt>
<trkpt lat="26.825595" lon="100.115881">
<time>2015-08-06T11:15:53Z</time></trkpt>
<trkpt lat="26.825625" lon="100.115901">
<time>2015-08-06T11:15:54Z</time></trkpt>
<trkpt lat="26.825645" lon="100.115911">
<time>2015-08-06T11:15:55Z</time></trkpt>
<trkpt lat="26.825705" lon="100.115931">
<time>2015-08-06T11:15:56Z</time></trkpt>
<trkpt lat="26.825755" lon="100.115961">
<time>2015-08-06T11:15:57Z</time></trkpt>
<trkpt lat="26.825785" lon="100.115981">
<time>2015-08-06T11:15:58Z</time></trkpt>
<trkpt lat="26.825795" lon="100.116001">
<time>2015-08-06T11:15:59Z</time></trkpt>
<trkpt lat="26.825815" lon="100.116031">
<time>2015-08-06T11:16:00Z</time></trkpt>
<trkpt lat="26.825825" lon="100.116091">
<time>2015-08-06T11:16:01Z</time></trkpt>
<trkpt lat="26.825835" lon="100.116161">
<time>2015-08-06T11:16:02Z</time></trkpt>
<trkpt lat="26.825825" lon="100.116221">
<time>2015-08-06T11:16:03Z</time></trkpt>
<trkpt lat="26.825815" lon="100.116321">
<time>2015-08-06T11:16:04Z</time></trkpt>
<trkpt lat="26.825766" lon="100.116521">
<time>2015-08-06T11:16:05Z</time></trkpt>
<trkpt lat="26.825766" lon="100.116521">
<time>2015-08-06T11:16:06Z</time></trkpt>
<trkpt lat="26.825846" lon="100.116541">
<time>2015-08-06T11:16:07Z</time></trkpt>
<trkpt lat="26.826076" lon="100.116561">
<time>2015-08-06T11:16:08Z</time></trkpt>
<trkpt lat="26.826596" lon="100.116561">
<time>2015-08-06T11:16:09Z</time></trkpt>
<trkpt lat="26.826596" lon="100.116561">
<time>2015-08-06T11:16:10Z</time></trkpt>
<trkpt lat="26.826716" lon="100.116721">
<time>2015-08-06T11:16:11Z</time></trkpt>
<trkpt lat="26.826786" lon="100.116852">
<time>2015-08-06T11:16:12Z</time></trkpt>
<trkpt lat="26.826876" lon="100.116962">
<time>2015-08-06T11:16:13Z</time></trkpt>
<trkpt lat="26.827026" lon="100.117152">
<time>2015-08-06T11:16:14Z</time></trkpt>
<trkpt lat="26.827376" lon="100.117542">
<time>2015-08-06T11:16:15Z</time></trkpt>
<trkpt lat="26.827456" lon="100.117662">
<time>2015-08-06T11:16:16Z</time></trkpt>
<trkpt lat="26.827586" lon="100.117742">
<time>2015-08-06T11:16:17Z</time></trkpt>
<trkpt lat="26.827666" lon="100.117822">
<time>2015-08-06T11:16:18Z</time></trkpt>
<trkpt lat="26.827707" lon="100.117983">
<time>2015-08-06T11:16:19Z</time></trkpt>
<trkpt lat="26.827737" lon="100.118243">
<time>2015-08-06T11:16:20Z</time></trkpt>
<trkpt lat="26.827737" lon="100.118453">
<time>2015-08-06T11:16:21Z</time></trkpt>
<trkpt lat="26.827627" lon="100.118483">
<time>2015-08-06T11:16:22Z</time></trkpt>
<trkpt lat="26.827407" lon="100.118623">
<time>2015-08-06T11:16:23Z</time></trkpt>
<trkpt lat="26.827227" lon="100.118783">
<time>2015-08-06T11:16:24Z</time></trkpt>
<trkpt lat="26.827207" lon="100.118884">
<time>2015-08-06T11:16:25Z</time></trkpt>
<trkpt lat="26.827208" lon="100.119004">
<time>2015-08-06T11:16:26Z</time></trkpt>
<trkpt lat="26.827208" lon="100.119004">
<time>2015-08-06T11:16:27Z</time></trkpt>
<trkpt lat="26.826968" lon="100.119094">
<time>2015-08-06T11:16:28Z</time></trkpt>
<trkpt lat="26.826818" lon="100.119194">
<time>2015-08-06T11:16:29Z</time></trkpt>
<trkpt lat="26.826628" lon="100.119454">
<time>2015-08-06T11:16:30Z</time></trkpt>
<trkpt lat="26.826458" lon="100.119835">
<time>2015-08-06T11:16:31Z</time></trkpt>
<trkpt lat="26.826438" lon="100.119875">
<time>2015-08-06T11:16:32Z</time></trkpt>
<trkpt lat="26.826239" lon="100.120205">
<time>2015-08-06T11:16:33Z</time></trkpt>
<trkpt lat="26.825979" lon="100.120435">
<time>2015-08-06T11:16:34Z</time></trkpt>
<trkpt lat="26.82538" lon="100.120916">
<time>2015-08-06T11:16:35Z</time></trkpt>
<trkpt lat="26.82526" lon="100.121076">
<time>2015-08-06T11:16:36Z</time></trkpt>
<trkpt lat="26.82521" lon="100.121396">
<time>2015-08-06T11:16:37Z</time></trkpt>
<trkpt lat="26.82529" lon="100.121727">
<time>2015-08-06T11:16:38Z</time></trkpt>
<trkpt lat="26.825451" lon="100.122017">
<time>2015-08-06T11:16:39Z</time></trkpt>
<trkpt lat="26.825681" lon="100.122418">
<time>2015-08-06T11:16:40Z</time></trkpt>
<trkpt lat="26.825851" lon="100.122728">
<time>2015-08-06T11:16:41Z</time></trkpt>
<trkpt lat="26.826102" lon="100.123158">
<time>2015-08-06T11:16:42Z</time></trkpt>
<trkpt lat="26.826242" lon="100.123519">
<time>2015-08-06T11:16:43Z</time></trkpt>
<trkpt lat="26.826252" lon="100.123809">
<time>2015-08-06T11:16:44Z</time></trkpt>
<trkpt lat="26.826243" lon="100.1243">
<time>2015-08-06T11:16:45Z</time></trkpt>
<trkpt lat="26.826193" lon="100.12469">
<time>2015-08-06T11:16:46Z</time></trkpt>
<trkpt lat="26.826183" lon="100.12477">
<time>2015-08-06T11:16:47Z</time></trkpt>
<trkpt lat="26.826134" lon="100.125021">
<time>2015-08-06T11:16:48Z</time></trkpt>
<trkpt lat="26.826124" lon="100.125121">
<time>2015-08-06T11:16:49Z</time></trkpt>
<trkpt lat="26.826074" lon="100.125381">
<time>2015-08-06T11:16:50Z</time></trkpt>
<trkpt lat="26.825994" lon="100.125591">
<time>2015-08-06T11:16:51Z</time></trkpt>
<trkpt lat="26.825935" lon="100.125772">
<time>2015-08-06T11:16:52Z</time></trkpt>
<trkpt lat="26.825905" lon="100.125852">
<time>2015-08-06T11:16:53Z</time></trkpt>
<trkpt lat="26.825895" lon="100.125882">
<time>2015-08-06T11:16:54Z</time></trkpt>
<trkpt lat="26.825675" lon="100.126392">
<time>2015-08-06T11:16:55Z</time></trkpt>
<trkpt lat="26.825216" lon="100.127344">
<time>2015-08-06T11:16:56Z</time></trkpt>
<trkpt lat="26.825187" lon="100.127394">
<time>2015-08-06T11:16:57Z</time></trkpt>
<trkpt lat="26.825097" lon="100.127554">
<time>2015-08-06T11:16:58Z</time></trkpt>
<trkpt lat="26.825097" lon="100.127554">
<time>2015-08-06T11:16:59Z</time></trkpt>
<trkpt lat="26.825217" lon="100.127584">
<time>2015-08-06T11:17:00Z</time></trkpt>
<trkpt lat="26.825347" lon="100.127624">
<time>2015-08-06T11:17:01Z</time></trkpt>
<trkpt lat="26.825577" lon="100.127714">
<time>2015-08-06T11:17:02Z</time></trkpt>
<trkpt lat="26.826027" lon="100.127915">
<time>2015-08-06T11:17:03Z</time></trkpt>
<trkpt lat="26.826347" lon="100.128055">
<time>2015-08-06T11:17:04Z</time></trkpt>
<trkpt lat="26.826657" lon="100.128185">
<time>2015-08-06T11:17:05Z</time></trkpt>
<trkpt lat="26.826887" lon="100.128285">
<time>2015-08-06T11:17:06Z</time></trkpt>
<trkpt lat="26.827147" lon="100.128385">
<time>2015-08-06T11:17:07Z</time></trkpt>
<trkpt lat="26.827718" lon="100.128635">
<time>2015-08-06T11:17:08Z</time></trkpt>
<trkpt lat="26.828098" lon="100.128796">
<time>2015-08-06T11:17:09Z</time></trkpt>
<trkpt lat="26.828498" lon="100.128986">
<time>2015-08-06T11:17:10Z</time></trkpt>
<trkpt lat="26.828638" lon="100.129046">
<time>2015-08-06T11:17:11Z</time></trkpt>
<trkpt lat="26.828748" lon="100.129106">
<time>2015-08-06T11:17:12Z</time></trkpt>
<trkpt lat="26.828858" lon="100.129176">
<time>2015-08-06T11:17:13Z</time></trkpt>
<trkpt lat="26.828978" lon="100.129256">
<time>2015-08-06T11:17:14Z</time></trkpt>
<trkpt lat="26.829118" lon="100.129356">
<time>2015-08-06T11:17:15Z</time></trkpt>
<trkpt lat="26.829379" lon="100.129557">
<time>2015-08-06T11:17:16Z</time></trkpt>
<trkpt lat="26.829669" lon="100.129777">
<time>2015-08-06T11:17:17Z</time></trkpt>
<trkpt lat="26.829989" lon="100.130017">
<time>2015-08-06T11:17:18Z</time></trkpt>
<trkpt lat="26.830349" lon="100.130268">
<time>2015-08-06T11:17:19Z</time></trkpt>
<trkpt lat="26.83093" lon="100.130728">
<time>2015-08-06T11:17:20Z</time></trkpt>
<trkpt lat="26.83173" lon="100.131339">
<time>2015-08-06T11:17:21Z</time></trkpt>
<trkpt lat="26.832331" lon="100.13178">
<time>2015-08-06T11:17:22Z</time></trkpt>
<trkpt lat="26.832781" lon="100.13212">
<time>2015-08-06T11:17:23Z</time></trkpt>
<trkpt lat="26.833352" lon="100.132551">
<time>2015-08-06T11:17:24Z</time></trkpt>
<trkpt lat="26.841559" lon="100.138721">
<time>2015-08-06T11:17:25Z</time></trkpt>
<trkpt lat="26.843962" lon="100.140524">
<time>2015-08-06T11:17:26Z</time></trkpt>
<trkpt lat="26.845323" lon="100.141546">
<time>2015-08-06T11:17:27Z</time></trkpt>
<trkpt lat="26.845443" lon="100.141636">
<time>2015-08-06T11:17:28Z</time></trkpt>
<trkpt lat="26.845883" lon="100.141946">
<time>2015-08-06T11:17:29Z</time></trkpt>
<trkpt lat="26.847715" lon="100.143359">
<time>2015-08-06T11:17:30Z</time></trkpt>
<trkpt lat="26.848336" lon="100.14383">
<time>2015-08-06T11:17:31Z</time></trkpt>
<trkpt lat="26.848897" lon="100.14425">
<time>2015-08-06T11:17:32Z</time></trkpt>
<trkpt lat="26.849728" lon="100.144881">
<time>2015-08-06T11:17:33Z</time></trkpt>
<trkpt lat="26.850468" lon="100.145412">
<time>2015-08-06T11:17:34Z</time></trkpt>
<trkpt lat="26.850739" lon="100.145603">
<time>2015-08-06T11:17:35Z</time></trkpt>
<trkpt lat="26.851159" lon="100.145903">
<time>2015-08-06T11:17:36Z</time></trkpt>
<trkpt lat="26.851329" lon="100.146054">
<time>2015-08-06T11:17:37Z</time></trkpt>
<trkpt lat="26.85175" lon="100.146354">
<time>2015-08-06T11:17:38Z</time></trkpt>
<trkpt lat="26.85238" lon="100.146845">
<time>2015-08-06T11:17:39Z</time></trkpt>
<trkpt lat="26.85242" lon="100.146875">
<time>2015-08-06T11:17:40Z</time></trkpt>
<trkpt lat="26.85245" lon="100.146895">
<time>2015-08-06T11:17:41Z</time></trkpt>
<trkpt lat="26.852571" lon="100.146995">
<time>2015-08-06T11:17:42Z</time></trkpt>
<trkpt lat="26.852621" lon="100.147035">
<time>2015-08-06T11:17:43Z</time></trkpt>
<trkpt lat="26.852731" lon="100.147106">
<time>2015-08-06T11:17:44Z</time></trkpt>
<trkpt lat="26.852761" lon="100.147126">
<time>2015-08-06T11:17:45Z</time></trkpt>
<trkpt lat="26.852821" lon="100.147176">
<time>2015-08-06T11:17:46Z</time></trkpt>
<trkpt lat="26.852961" lon="100.147286">
<time>2015-08-06T11:17:47Z</time></trkpt>
<trkpt lat="26.853221" lon="100.147486">
<time>2015-08-06T11:17:48Z</time></trkpt>
<trkpt lat="26.853802" lon="100.147917">
<time>2015-08-06T11:17:49Z</time></trkpt>
<trkpt lat="26.854202" lon="100.148198">
<time>2015-08-06T11:17:50Z</time></trkpt>
<trkpt lat="26.854473" lon="100.148368">
<time>2015-08-06T11:17:51Z</time></trkpt>
<trkpt lat="26.854833" lon="100.148608">
<time>2015-08-06T11:17:52Z</time></trkpt>
<trkpt lat="26.855043" lon="100.148779">
<time>2015-08-06T11:17:53Z</time></trkpt>
<trkpt lat="26.855323" lon="100.149019">
<time>2015-08-06T11:17:54Z</time></trkpt>
<trkpt lat="26.855644" lon="100.14927">
<time>2015-08-06T11:17:55Z</time></trkpt>
<trkpt lat="26.856214" lon="100.14968">
<time>2015-08-06T11:17:56Z</time></trkpt>
<trkpt lat="26.856595" lon="100.149931">
<time>2015-08-06T11:17:57Z</time></trkpt>
<trkpt lat="26.857536" lon="100.150592">
<time>2015-08-06T11:17:58Z</time></trkpt>
<trkpt lat="26.858006" lon="100.150913">
<time>2015-08-06T11:17:59Z</time></trkpt>
<trkpt lat="26.858557" lon="100.151294">
<time>2015-08-06T11:18:00Z</time></trkpt>
<trkpt lat="26.859768" lon="100.152115">
<time>2015-08-06T11:18:01Z</time></trkpt>
<trkpt lat="26.860889" lon="100.152887">
<time>2015-08-06T11:18:02Z</time></trkpt>
<trkpt lat="26.86123" lon="100.153117">
<time>2015-08-06T11:18:03Z</time></trkpt>
<trkpt lat="26.86143" lon="100.153267">
<time>2015-08-06T11:18:04Z</time></trkpt>
<trkpt lat="26.8617" lon="100.153458">
<time>2015-08-06T11:18:05Z</time></trkpt>
<trkpt lat="26.86185" lon="100.153568">
<time>2015-08-06T11:18:06Z</time></trkpt>
<trkpt lat="26.86198" lon="100.153658">
<time>2015-08-06T11:18:07Z</time></trkpt>
<trkpt lat="26.86204" lon="100.153718">
<time>2015-08-06T11:18:08Z</time></trkpt>
<trkpt lat="26.862131" lon="100.153818">
<time>2015-08-06T11:18:09Z</time></trkpt>
<trkpt lat="26.862251" lon="100.153949">
<time>2015-08-06T11:18:10Z</time></trkpt>
<trkpt lat="26.862501" lon="100.154319">
<time>2015-08-06T11:18:11Z</time></trkpt>
<trkpt lat="26.863093" lon="100.155131">
<time>2015-08-06T11:18:12Z</time></trkpt>
<trkpt lat="26.864125" lon="100.156584">
<time>2015-08-06T11:18:13Z</time></trkpt>
<trkpt lat="26.864316" lon="100.156835">
<time>2015-08-06T11:18:14Z</time></trkpt>
<trkpt lat="26.864356" lon="100.156905">
<time>2015-08-06T11:18:15Z</time></trkpt>
<trkpt lat="26.864576" lon="100.157115">
<time>2015-08-06T11:18:16Z</time></trkpt>
<trkpt lat="26.864927" lon="100.157366">
<time>2015-08-06T11:18:17Z</time></trkpt>
<trkpt lat="26.865247" lon="100.157546">
<time>2015-08-06T11:18:18Z</time></trkpt>
<trkpt lat="26.866548" lon="100.158328">
<time>2015-08-06T11:18:19Z</time></trkpt>
<trkpt lat="26.866748" lon="100.158398">
<time>2015-08-06T11:18:20Z</time></trkpt>
<trkpt lat="26.866768" lon="100.158408">
<time>2015-08-06T11:18:21Z</time></trkpt>
<trkpt lat="26.868289" lon="100.158839">
<time>2015-08-06T11:18:22Z</time></trkpt>
<trkpt lat="26.868909" lon="100.159039">
<time>2015-08-06T11:18:23Z</time></trkpt>
<trkpt lat="26.869269" lon="100.159159">
<time>2015-08-06T11:18:24Z</time></trkpt>
<trkpt lat="26.869349" lon="100.159209">
<time>2015-08-06T11:18:25Z</time></trkpt>
<trkpt lat="26.869389" lon="100.159229">
<time>2015-08-06T11:18:26Z</time></trkpt>
<trkpt lat="26.869469" lon="100.159289">
<time>2015-08-06T11:18:27Z</time></trkpt>
<trkpt lat="26.86969" lon="100.15951">
<time>2015-08-06T11:18:28Z</time></trkpt>
<trkpt lat="26.871563" lon="100.161494">
<time>2015-08-06T11:18:29Z</time></trkpt>
<trkpt lat="26.871653" lon="100.161584">
<time>2015-08-06T11:18:30Z</time></trkpt>
<trkpt lat="26.871783" lon="100.161694">
<time>2015-08-06T11:18:31Z</time></trkpt>
<trkpt lat="26.872023" lon="100.161815">
<time>2015-08-06T11:18:32Z</time></trkpt>
<trkpt lat="26.872264" lon="100.161935">
<time>2015-08-06T11:18:33Z</time></trkpt>
<trkpt lat="26.872434" lon="100.162055">
<time>2015-08-06T11:18:34Z</time></trkpt>
<trkpt lat="26.872564" lon="100.162165">
<time>2015-08-06T11:18:35Z</time></trkpt>
<trkpt lat="26.872674" lon="100.162306">
<time>2015-08-06T11:18:36Z</time></trkpt>
<trkpt lat="26.872744" lon="100.162436">
<time>2015-08-06T11:18:37Z</time></trkpt>
<trkpt lat="26.872785" lon="100.162526">
<time>2015-08-06T11:18:38Z</time></trkpt>
<trkpt lat="26.872805" lon="100.162646">
<time>2015-08-06T11:18:39Z</time></trkpt>
<trkpt lat="26.872835" lon="100.162837">
<time>2015-08-06T11:18:40Z</time></trkpt>
<trkpt lat="26.872866" lon="100.163278">
<time>2015-08-06T11:18:41Z</time></trkpt>
<trkpt lat="26.872876" lon="100.163418">
<time>2015-08-06T11:18:42Z</time></trkpt>
<trkpt lat="26.872907" lon="100.163578">
<time>2015-08-06T11:18:43Z</time></trkpt>
<trkpt lat="26.872917" lon="100.163608">
<time>2015-08-06T11:18:44Z</time></trkpt>
<trkpt lat="26.872967" lon="100.163719">
<time>2015-08-06T11:18:45Z</time></trkpt>
<trkpt lat="26.873037" lon="100.163839">
<time>2015-08-06T11:18:46Z</time></trkpt>
<trkpt lat="26.873177" lon="100.163999">
<time>2015-08-06T11:18:47Z</time></trkpt>
<trkpt lat="26.873267" lon="100.164079">
<time>2015-08-06T11:18:48Z</time></trkpt>
<trkpt lat="26.873407" lon="100.16414">
<time>2015-08-06T11:18:49Z</time></trkpt>
<trkpt lat="26.873528" lon="100.16419">
<time>2015-08-06T11:18:50Z</time></trkpt>
<trkpt lat="26.873708" lon="100.16422">
<time>2015-08-06T11:18:51Z</time></trkpt>
<trkpt lat="26.873928" lon="100.16428">
<time>2015-08-06T11:18:52Z</time></trkpt>
<trkpt lat="26.874158" lon="100.16434">
<time>2015-08-06T11:18:53Z</time></trkpt>
<trkpt lat="26.874408" lon="100.16449">
<time>2015-08-06T11:18:54Z</time></trkpt>
<trkpt lat="26.876462" lon="100.166605">
<time>2015-08-06T11:18:55Z</time></trkpt>
<trkpt lat="26.876512" lon="100.166645">
<time>2015-08-06T11:18:56Z</time></trkpt>
<trkpt lat="26.876692" lon="100.166845">
<time>2015-08-06T11:18:57Z</time></trkpt>
<trkpt lat="26.877914" lon="100.168138">
<time>2015-08-06T11:18:58Z</time></trkpt>
<trkpt lat="26.880108" lon="100.170443">
<time>2015-08-06T11:18:59Z</time></trkpt>
<trkpt lat="26.880339" lon="100.170703">
<time>2015-08-06T11:19:00Z</time></trkpt>
<trkpt lat="26.880769" lon="100.171194">
<time>2015-08-06T11:19:01Z</time></trkpt>
<trkpt lat="26.88094" lon="100.171495">
<time>2015-08-06T11:19:02Z</time></trkpt>
<trkpt lat="26.88101" lon="100.171655">
<time>2015-08-06T11:19:03Z</time></trkpt>
<trkpt lat="26.8811" lon="100.171796">
<time>2015-08-06T11:19:04Z</time></trkpt>
<trkpt lat="26.881181" lon="100.171886">
<time>2015-08-06T11:19:05Z</time></trkpt>
<trkpt lat="26.881351" lon="100.172036">
<time>2015-08-06T11:19:06Z</time></trkpt>
<trkpt lat="26.881491" lon="100.172106">
<time>2015-08-06T11:19:07Z</time></trkpt>
<trkpt lat="26.881751" lon="100.172267">
<time>2015-08-06T11:19:08Z</time></trkpt>
<trkpt lat="26.881941" lon="100.172387">
<time>2015-08-06T11:19:09Z</time></trkpt>
<trkpt lat="26.882192" lon="100.172637">
<time>2015-08-06T11:19:10Z</time></trkpt>
<trkpt lat="26.882412" lon="100.172868">
<time>2015-08-06T11:19:11Z</time></trkpt>
<trkpt lat="26.882492" lon="100.172938">
<time>2015-08-06T11:19:12Z</time></trkpt>
<trkpt lat="26.882532" lon="100.172948">
<time>2015-08-06T11:19:13Z</time></trkpt>
<trkpt lat="26.882582" lon="100.172978">
<time>2015-08-06T11:19:14Z</time></trkpt>
<trkpt lat="26.882662" lon="100.173008">
<time>2015-08-06T11:19:15Z</time></trkpt>
<trkpt lat="26.882732" lon="100.173038">
<time>2015-08-06T11:19:16Z</time></trkpt>
<trkpt lat="26.882793" lon="100.173068">
<time>2015-08-06T11:19:17Z</time></trkpt>
<trkpt lat="26.882853" lon="100.173098">
<time>2015-08-06T11:19:18Z</time></trkpt>
<trkpt lat="26.882903" lon="100.173158">
<time>2015-08-06T11:19:19Z</time></trkpt>
<trkpt lat="26.882963" lon="100.173219">
<time>2015-08-06T11:19:20Z</time></trkpt>
<trkpt lat="26.883003" lon="100.173299">
<time>2015-08-06T11:19:21Z</time></trkpt>
<trkpt lat="26.883023" lon="100.173369">
<time>2015-08-06T11:19:22Z</time></trkpt>
<trkpt lat="26.883053" lon="100.173489">
<time>2015-08-06T11:19:23Z</time></trkpt>
<trkpt lat="26.883063" lon="100.173569">
<time>2015-08-06T11:19:24Z</time></trkpt>
<trkpt lat="26.883114" lon="100.173669">
<time>2015-08-06T11:19:25Z</time></trkpt>
<trkpt lat="26.883174" lon="100.17377">
<time>2015-08-06T11:19:26Z</time></trkpt>
<trkpt lat="26.883254" lon="100.17388">
<time>2015-08-06T11:19:27Z</time></trkpt>
<trkpt lat="26.883274" lon="100.1739">
<time>2015-08-06T11:19:28Z</time></trkpt>
<trkpt lat="26.883334" lon="100.17395">
<time>2015-08-06T11:19:29Z</time></trkpt>
<trkpt lat="26.883394" lon="100.174">
<time>2015-08-06T11:19:30Z</time></trkpt>
<trkpt lat="26.883414" lon="100.17402">
<time>2015-08-06T11:19:31Z</time></trkpt>
<trkpt lat="26.883444" lon="100.17405">
<time>2015-08-06T11:19:32Z</time></trkpt>
<trkpt lat="26.883494" lon="100.17414">
<time>2015-08-06T11:19:33Z</time></trkpt>
<trkpt lat="26.883565" lon="100.174331">
<time>2015-08-06T11:19:34Z</time></trkpt>
<trkpt lat="26.883646" lon="100.174862">
<time>2015-08-06T11:19:35Z</time></trkpt>
<trkpt lat="26.883716" lon="100.175072">
<time>2015-08-06T11:19:36Z</time></trkpt>
<trkpt lat="26.883897" lon="100.175313">
<time>2015-08-06T11:19:37Z</time></trkpt>
<trkpt lat="26.884268" lon="100.175914">
<time>2015-08-06T11:19:38Z</time></trkpt>
<trkpt lat="26.884448" lon="100.176255">
<time>2015-08-06T11:19:39Z</time></trkpt>
<trkpt lat="26.884549" lon="100.176536">
<time>2015-08-06T11:19:40Z</time></trkpt>
<trkpt lat="26.884559" lon="100.176556">
<time>2015-08-06T11:19:41Z</time></trkpt>
<trkpt lat="26.884699" lon="100.176956">
<time>2015-08-06T11:19:42Z</time></trkpt>
<trkpt lat="26.88477" lon="100.177117">
<time>2015-08-06T11:19:43Z</time></trkpt>
<trkpt lat="26.88486" lon="100.177307">
<time>2015-08-06T11:19:44Z</time></trkpt>
<trkpt lat="26.884931" lon="100.177558">
<time>2015-08-06T11:19:45Z</time></trkpt>
<trkpt lat="26.884991" lon="100.177808">
<time>2015-08-06T11:19:46Z</time></trkpt>
<trkpt lat="26.885163" lon="100.1787">
<time>2015-08-06T11:19:47Z</time></trkpt>
<trkpt lat="26.885243" lon="100.179151">
<time>2015-08-06T11:19:48Z</time></trkpt>
<trkpt lat="26.885254" lon="100.179371">
<time>2015-08-06T11:19:49Z</time></trkpt>
<trkpt lat="26.885254" lon="100.179542">
<time>2015-08-06T11:19:50Z</time></trkpt>
<trkpt lat="26.885225" lon="100.179732">
<time>2015-08-06T11:19:51Z</time></trkpt>
<trkpt lat="26.885185" lon="100.179963">
<time>2015-08-06T11:19:52Z</time></trkpt>
<trkpt lat="26.885165" lon="100.180103">
<time>2015-08-06T11:19:53Z</time></trkpt>
<trkpt lat="26.885136" lon="100.180283">
<time>2015-08-06T11:19:54Z</time></trkpt>
<trkpt lat="26.885116" lon="100.180414">
<time>2015-08-06T11:19:55Z</time></trkpt>
<trkpt lat="26.885056" lon="100.180654">
<time>2015-08-06T11:19:56Z</time></trkpt>
<trkpt lat="26.884987" lon="100.180824">
<time>2015-08-06T11:19:57Z</time></trkpt>
<trkpt lat="26.884847" lon="100.181045">
<time>2015-08-06T11:19:58Z</time></trkpt>
<trkpt lat="26.884727" lon="100.181195">
<time>2015-08-06T11:19:59Z</time></trkpt>
<trkpt lat="26.884438" lon="100.181476">
<time>2015-08-06T11:20:00Z</time></trkpt>
<trkpt lat="26.883939" lon="100.181937">
<time>2015-08-06T11:20:01Z</time></trkpt>
<trkpt lat="26.883679" lon="100.182157">
<time>2015-08-06T11:20:02Z</time></trkpt>
<trkpt lat="26.88345" lon="100.182328">
<time>2015-08-06T11:20:03Z</time></trkpt>
<trkpt lat="26.88331" lon="100.182448">
<time>2015-08-06T11:20:04Z</time></trkpt>
<trkpt lat="26.88317" lon="100.182628">
<time>2015-08-06T11:20:05Z</time></trkpt>
<trkpt lat="26.883021" lon="100.182859">
<time>2015-08-06T11:20:06Z</time></trkpt>
<trkpt lat="26.882881" lon="100.183019">
<time>2015-08-06T11:20:07Z</time></trkpt>
<trkpt lat="26.882731" lon="100.183169">
<time>2015-08-06T11:20:08Z</time></trkpt>
<trkpt lat="26.882472" lon="100.1835">
<time>2015-08-06T11:20:09Z</time></trkpt>
<trkpt lat="26.882382" lon="100.18359">
<time>2015-08-06T11:20:10Z</time></trkpt>
<trkpt lat="26.882352" lon="100.18361">
<time>2015-08-06T11:20:11Z</time></trkpt>
<trkpt lat="26.882312" lon="100.18362">
<time>2015-08-06T11:20:12Z</time></trkpt>
<trkpt lat="26.882272" lon="100.18363">
<time>2015-08-06T11:20:13Z</time></trkpt>
<trkpt lat="26.882242" lon="100.18362">
<time>2015-08-06T11:20:14Z</time></trkpt>
<trkpt lat="26.882202" lon="100.18361">
<time>2015-08-06T11:20:15Z</time></trkpt>
<trkpt lat="26.882142" lon="100.18357">
<time>2015-08-06T11:20:16Z</time></trkpt>
<trkpt lat="26.882062" lon="100.18347">
<time>2015-08-06T11:20:17Z</time></trkpt>
<trkpt lat="26.881992" lon="100.1834">
<time>2015-08-06T11:20:18Z</time></trkpt>
<trkpt lat="26.881922" lon="100.18335">
<time>2015-08-06T11:20:19Z</time></trkpt>
<trkpt lat="26.881812" lon="100.18331">
<time>2015-08-06T11:20:20Z</time></trkpt>
<trkpt lat="26.881722" lon="100.18329">
<time>2015-08-06T11:20:21Z</time></trkpt>
<trkpt lat="26.881632" lon="100.18329">
<time>2015-08-06T11:20:22Z</time></trkpt>
<trkpt lat="26.881532" lon="100.18329">
<time>2015-08-06T11:20:23Z</time></trkpt>
<trkpt lat="26.881452" lon="100.18333">
<time>2015-08-06T11:20:24Z</time></trkpt>
<trkpt lat="26.881392" lon="100.18338">
<time>2015-08-06T11:20:25Z</time></trkpt>
<trkpt lat="26.881372" lon="100.18342">
<time>2015-08-06T11:20:26Z</time></trkpt>
<trkpt lat="26.881352" lon="100.18348">
<time>2015-08-06T11:20:27Z</time></trkpt>
<trkpt lat="26.881312" lon="100.18363">
<time>2015-08-06T11:20:28Z</time></trkpt>
<trkpt lat="26.881313" lon="100.183811">
<time>2015-08-06T11:20:29Z</time></trkpt>
<trkpt lat="26.881313" lon="100.183981">
<time>2015-08-06T11:20:30Z</time></trkpt>
<trkpt lat="26.881323" lon="100.184202">
<time>2015-08-06T11:20:31Z</time></trkpt>
<trkpt lat="26.881344" lon="100.184302">
<time>2015-08-06T11:20:32Z</time></trkpt>
<trkpt lat="26.881374" lon="100.184512">
<time>2015-08-06T11:20:33Z</time></trkpt>
<trkpt lat="26.881384" lon="100.184582">
<time>2015-08-06T11:20:34Z</time></trkpt>
<trkpt lat="26.881355" lon="100.184833">
<time>2015-08-06T11:20:35Z</time></trkpt>
<trkpt lat="26.881345" lon="100.184903">
<time>2015-08-06T11:20:36Z</time></trkpt>
<trkpt lat="26.881345" lon="100.185013">
<time>2015-08-06T11:20:37Z</time></trkpt>
<trkpt lat="26.881355" lon="100.185053">
<time>2015-08-06T11:20:38Z</time></trkpt>
<trkpt lat="26.881385" lon="100.185294">
<time>2015-08-06T11:20:39Z</time></trkpt>
<trkpt lat="26.881416" lon="100.185484">
<time>2015-08-06T11:20:40Z</time></trkpt>
<trkpt lat="26.881406" lon="100.185705">
<time>2015-08-06T11:20:41Z</time></trkpt>
<trkpt lat="26.881376" lon="100.185845">
<time>2015-08-06T11:20:42Z</time></trkpt>
<trkpt lat="26.881317" lon="100.186005">
<time>2015-08-06T11:20:43Z</time></trkpt>
<trkpt lat="26.881227" lon="100.186155">
<time>2015-08-06T11:20:44Z</time></trkpt>
<trkpt lat="26.881137" lon="100.186266">
<time>2015-08-06T11:20:45Z</time></trkpt>
<trkpt lat="26.881047" lon="100.186356">
<time>2015-08-06T11:20:46Z</time></trkpt>
<trkpt lat="26.880948" lon="100.186406">
<time>2015-08-06T11:20:47Z</time></trkpt>
<trkpt lat="26.880728" lon="100.186466">
<time>2015-08-06T11:20:48Z</time></trkpt>
<trkpt lat="26.880568" lon="100.186516">
<time>2015-08-06T11:20:49Z</time></trkpt>
<trkpt lat="26.880228" lon="100.186667">
<time>2015-08-06T11:20:50Z</time></trkpt>
<trkpt lat="26.880138" lon="100.186717">
<time>2015-08-06T11:20:51Z</time></trkpt>
<trkpt lat="26.880068" lon="100.186727">
<time>2015-08-06T11:20:52Z</time></trkpt>
<trkpt lat="26.879948" lon="100.186727">
<time>2015-08-06T11:20:53Z</time></trkpt>
<trkpt lat="26.879848" lon="100.186697">
<time>2015-08-06T11:20:54Z</time></trkpt>
<trkpt lat="26.879418" lon="100.186416">
<time>2015-08-06T11:20:55Z</time></trkpt>
<trkpt lat="26.879358" lon="100.186396">
<time>2015-08-06T11:20:56Z</time></trkpt>
<trkpt lat="26.879238" lon="100.186376">
<time>2015-08-06T11:20:57Z</time></trkpt>
<trkpt lat="26.879158" lon="100.186416">
<time>2015-08-06T11:20:58Z</time></trkpt>
<trkpt lat="26.878978" lon="100.186647">
<time>2015-08-06T11:20:59Z</time></trkpt>
<trkpt lat="26.878779" lon="100.186947">
<time>2015-08-06T11:21:00Z</time></trkpt>
<trkpt lat="26.87812" lon="100.187318">
<time>2015-08-06T11:21:01Z</time></trkpt>
<trkpt lat="26.87754" lon="100.187619">
<time>2015-08-06T11:21:02Z</time></trkpt>
<trkpt lat="26.877351" lon="100.187709">
<time>2015-08-06T11:21:03Z</time></trkpt>
<trkpt lat="26.877261" lon="100.187719">
<time>2015-08-06T11:21:04Z</time></trkpt>
<trkpt lat="26.877191" lon="100.187709">
<time>2015-08-06T11:21:05Z</time></trkpt>
<trkpt lat="26.877121" lon="100.187679">
<time>2015-08-06T11:21:06Z</time></trkpt>
<trkpt lat="26.87704" lon="100.187558">
<time>2015-08-06T11:21:07Z</time></trkpt>
<trkpt lat="26.87696" lon="100.187508">
<time>2015-08-06T11:21:08Z</time></trkpt>
<trkpt lat="26.8769" lon="100.187478">
<time>2015-08-06T11:21:09Z</time></trkpt>
<trkpt lat="26.87685" lon="100.187478">
<time>2015-08-06T11:21:10Z</time></trkpt>
<trkpt lat="26.87679" lon="100.187488">
<time>2015-08-06T11:21:11Z</time></trkpt>
<trkpt lat="26.87671" lon="100.187548">
<time>2015-08-06T11:21:12Z</time></trkpt>
<trkpt lat="26.876491" lon="100.187869">
<time>2015-08-06T11:21:13Z</time></trkpt>
<trkpt lat="26.876441" lon="100.187909">
<time>2015-08-06T11:21:14Z</time></trkpt>
<trkpt lat="26.876401" lon="100.187929">
<time>2015-08-06T11:21:15Z</time></trkpt>
<trkpt lat="26.876331" lon="100.187949">
<time>2015-08-06T11:21:16Z</time></trkpt>
<trkpt lat="26.876221" lon="100.187939">
<time>2015-08-06T11:21:17Z</time></trkpt>
<trkpt lat="26.876101" lon="100.187889">
<time>2015-08-06T11:21:18Z</time></trkpt>
<trkpt lat="26.875991" lon="100.187869">
<time>2015-08-06T11:21:19Z</time></trkpt>
<trkpt lat="26.875901" lon="100.187879">
<time>2015-08-06T11:21:20Z</time></trkpt>
<trkpt lat="26.875791" lon="100.187899">
<time>2015-08-06T11:21:21Z</time></trkpt>
<trkpt lat="26.875631" lon="100.187949">
<time>2015-08-06T11:21:22Z</time></trkpt>
<trkpt lat="26.875242" lon="100.18814">
<time>2015-08-06T11:21:23Z</time></trkpt>
<trkpt lat="26.874802" lon="100.1884">
<time>2015-08-06T11:21:24Z</time></trkpt>
<trkpt lat="26.874413" lon="100.18856">
<time>2015-08-06T11:21:25Z</time></trkpt>
<trkpt lat="26.874313" lon="100.188591">
<time>2015-08-06T11:21:26Z</time></trkpt>
<trkpt lat="26.873533" lon="100.188771">
<time>2015-08-06T11:21:27Z</time></trkpt>
<trkpt lat="26.873483" lon="100.188791">
<time>2015-08-06T11:21:28Z</time></trkpt>
<trkpt lat="26.873253" lon="100.188841">
<time>2015-08-06T11:21:29Z</time></trkpt>
<trkpt lat="26.873073" lon="100.188871">
<time>2015-08-06T11:21:30Z</time></trkpt>
<trkpt lat="26.872833" lon="100.188851">
<time>2015-08-06T11:21:31Z</time></trkpt>
<trkpt lat="26.872143" lon="100.188661">
<time>2015-08-06T11:21:32Z</time></trkpt>
<trkpt lat="26.871693" lon="100.188581">
<time>2015-08-06T11:21:33Z</time></trkpt>
<trkpt lat="26.871523" lon="100.188561">
<time>2015-08-06T11:21:34Z</time></trkpt>
<trkpt lat="26.870853" lon="100.188651">
<time>2015-08-06T11:21:35Z</time></trkpt>
<trkpt lat="26.870703" lon="100.188661">
<time>2015-08-06T11:21:36Z</time></trkpt>
<trkpt lat="26.870594" lon="100.188691">
<time>2015-08-06T11:21:37Z</time></trkpt>
<trkpt lat="26.870484" lon="100.188711">
<time>2015-08-06T11:21:38Z</time></trkpt>
<trkpt lat="26.870364" lon="100.188751">
<time>2015-08-06T11:21:39Z</time></trkpt>
<trkpt lat="26.870254" lon="100.188791">
<time>2015-08-06T11:21:40Z</time></trkpt>
<trkpt lat="26.870114" lon="100.188841">
<time>2015-08-06T11:21:41Z</time></trkpt>
<trkpt lat="26.869934" lon="100.188891">
<time>2015-08-06T11:21:42Z</time></trkpt>
<trkpt lat="26.869714" lon="100.188951">
<time>2015-08-06T11:21:43Z</time></trkpt>
<trkpt lat="26.869584" lon="100.188961">
<time>2015-08-06T11:21:44Z</time></trkpt>
<trkpt lat="26.869404" lon="100.188951">
<time>2015-08-06T11:21:45Z</time></trkpt>
<trkpt lat="26.868824" lon="100.188881">
<time>2015-08-06T11:21:46Z</time></trkpt>
<trkpt lat="26.868484" lon="100.188891">
<time>2015-08-06T11:21:47Z</time></trkpt>
<trkpt lat="26.868384" lon="100.188901">
<time>2015-08-06T11:21:48Z</time></trkpt>
<trkpt lat="26.868284" lon="100.188951">
<time>2015-08-06T11:21:49Z</time></trkpt>
<trkpt lat="26.868175" lon="100.189032">
<time>2015-08-06T11:21:50Z</time></trkpt>
<trkpt lat="26.868085" lon="100.189162">
<time>2015-08-06T11:21:51Z</time></trkpt>
<trkpt lat="26.867796" lon="100.189623">
<time>2015-08-06T11:21:52Z</time></trkpt>
<trkpt lat="26.867556" lon="100.189983">
<time>2015-08-06T11:21:53Z</time></trkpt>
<trkpt lat="26.867357" lon="100.190294">
<time>2015-08-06T11:21:54Z</time></trkpt>
<trkpt lat="26.867048" lon="100.190795">
<time>2015-08-06T11:21:55Z</time></trkpt>
<trkpt lat="26.866878" lon="100.191076">
<time>2015-08-06T11:21:56Z</time></trkpt>
<trkpt lat="26.866829" lon="100.191196">
<time>2015-08-06T11:21:57Z</time></trkpt>
<trkpt lat="26.866809" lon="100.191336">
<time>2015-08-06T11:21:58Z</time></trkpt>
<trkpt lat="26.866779" lon="100.191607">
<time>2015-08-06T11:21:59Z</time></trkpt>
<trkpt lat="26.8668" lon="100.191907">
<time>2015-08-06T11:22:00Z</time></trkpt>
<trkpt lat="26.86684" lon="100.192238">
<time>2015-08-06T11:22:01Z</time></trkpt>
<trkpt lat="26.866913" lon="100.19357">
<time>2015-08-06T11:22:02Z</time></trkpt>
<trkpt lat="26.866913" lon="100.19357">
<time>2015-08-06T11:22:03Z</time></trkpt>
<trkpt lat="26.866883" lon="100.193641">
<time>2015-08-06T11:22:04Z</time></trkpt>
<trkpt lat="26.866945" lon="100.194913">
<time>2015-08-06T11:22:05Z</time></trkpt>
<trkpt lat="26.866955" lon="100.194993">
<time>2015-08-06T11:22:06Z</time></trkpt>
<trkpt lat="26.867059" lon="100.197227">
<time>2015-08-06T11:22:07Z</time></trkpt>
<trkpt lat="26.867059" lon="100.197317">
<time>2015-08-06T11:22:08Z</time></trkpt>
<trkpt lat="26.867162" lon="100.199381">
<time>2015-08-06T11:22:09Z</time></trkpt>
<trkpt lat="26.867172" lon="100.199491">
<time>2015-08-06T11:22:10Z</time></trkpt>
<trkpt lat="26.867172" lon="100.199591">
<time>2015-08-06T11:22:11Z</time></trkpt>
<trkpt lat="26.867224" lon="100.200633">
<time>2015-08-06T11:22:12Z</time></trkpt>
<trkpt lat="26.867224" lon="100.200713">
<time>2015-08-06T11:22:13Z</time></trkpt>
<trkpt lat="26.867276" lon="100.201625">
<time>2015-08-06T11:22:14Z</time></trkpt>
<trkpt lat="26.867276" lon="100.201705">
<time>2015-08-06T11:22:15Z</time></trkpt>
<trkpt lat="26.867317" lon="100.202556">
<time>2015-08-06T11:22:16Z</time></trkpt>
<trkpt lat="26.867327" lon="100.202677">
<time>2015-08-06T11:22:17Z</time></trkpt>
<trkpt lat="26.86742" lon="100.20468">
<time>2015-08-06T11:22:18Z</time></trkpt>
<trkpt lat="26.86742" lon="100.20477">
<time>2015-08-06T11:22:19Z</time></trkpt>
<trkpt lat="26.867461" lon="100.205521">
<time>2015-08-06T11:22:20Z</time></trkpt>
<trkpt lat="26.867501" lon="100.205612">
<time>2015-08-06T11:22:21Z</time></trkpt>
<trkpt lat="26.867501" lon="100.205612">
<time>2015-08-06T11:22:22Z</time></trkpt>
<trkpt lat="26.867482" lon="100.205672">
<time>2015-08-06T11:22:23Z</time></trkpt>
<trkpt lat="26.867512" lon="100.206343">
<time>2015-08-06T11:22:24Z</time></trkpt>
<trkpt lat="26.867544" lon="100.207194">
<time>2015-08-06T11:22:25Z</time></trkpt>
<trkpt lat="26.867657" lon="100.209568">
<time>2015-08-06T11:22:26Z</time></trkpt>
<trkpt lat="26.867657" lon="100.209768">
<time>2015-08-06T11:22:27Z</time></trkpt>
<trkpt lat="26.867688" lon="100.210459">
<time>2015-08-06T11:22:28Z</time></trkpt>
<trkpt lat="26.867698" lon="100.210699">
<time>2015-08-06T11:22:29Z</time></trkpt>
<trkpt lat="26.867729" lon="100.21141">
<time>2015-08-06T11:22:30Z</time></trkpt>
<trkpt lat="26.86775" lon="100.211831">
<time>2015-08-06T11:22:31Z</time></trkpt>
<trkpt lat="26.86777" lon="100.212171">
<time>2015-08-06T11:22:32Z</time></trkpt>
<trkpt lat="26.86777" lon="100.212272">
<time>2015-08-06T11:22:33Z</time></trkpt>
<trkpt lat="26.867822" lon="100.213453">
<time>2015-08-06T11:22:34Z</time></trkpt>
<trkpt lat="26.867894" lon="100.215015">
<time>2015-08-06T11:22:35Z</time></trkpt>
<trkpt lat="26.867925" lon="100.215806">
<time>2015-08-06T11:22:36Z</time></trkpt>
<trkpt lat="26.867966" lon="100.216647">
<time>2015-08-06T11:22:37Z</time></trkpt>
<trkpt lat="26.867966" lon="100.216788">
<time>2015-08-06T11:22:38Z</time></trkpt>
<trkpt lat="26.867986" lon="100.217118">
<time>2015-08-06T11:22:39Z</time></trkpt>
<trkpt lat="26.868007" lon="100.217589">
<time>2015-08-06T11:22:40Z</time></trkpt>
<trkpt lat="26.868027" lon="100.217949">
<time>2015-08-06T11:22:41Z</time></trkpt>
<trkpt lat="26.868027" lon="100.218039">
<time>2015-08-06T11:22:42Z</time></trkpt>
<trkpt lat="26.868078" lon="100.219291">
<time>2015-08-06T11:22:43Z</time></trkpt>
<trkpt lat="26.868078" lon="100.219301">
<time>2015-08-06T11:22:44Z</time></trkpt>
<trkpt lat="26.868078" lon="100.219351">
<time>2015-08-06T11:22:45Z</time></trkpt>
<trkpt lat="26.868078" lon="100.219361">
<time>2015-08-06T11:22:46Z</time></trkpt>
<trkpt lat="26.868119" lon="100.220182">
<time>2015-08-06T11:22:47Z</time></trkpt>
<trkpt lat="26.86814" lon="100.220602">
<time>2015-08-06T11:22:48Z</time></trkpt>
<trkpt lat="26.86815" lon="100.220952">
<time>2015-08-06T11:22:49Z</time></trkpt>
<trkpt lat="26.868171" lon="100.221363">
<time>2015-08-06T11:22:50Z</time></trkpt>
<trkpt lat="26.868181" lon="100.221663">
<time>2015-08-06T11:22:51Z</time></trkpt>
<trkpt lat="26.868181" lon="100.221663">
<time>2015-08-06T11:22:52Z</time></trkpt>
<trkpt lat="26.868141" lon="100.221753">
<time>2015-08-06T11:22:53Z</time></trkpt>
<trkpt lat="26.868091" lon="100.221823">
<time>2015-08-06T11:22:54Z</time></trkpt>
<trkpt lat="26.868021" lon="100.221903">
<time>2015-08-06T11:22:55Z</time></trkpt>
<trkpt lat="26.867961" lon="100.221964">
<time>2015-08-06T11:22:56Z</time></trkpt>
<trkpt lat="26.867961" lon="100.221964">
<time>2015-08-06T11:22:57Z</time></trkpt>
<trkpt lat="26.867801" lon="100.221994">
<time>2015-08-06T11:22:58Z</time></trkpt>
<trkpt lat="26.867401" lon="100.222044">
<time>2015-08-06T11:22:59Z</time></trkpt>
<trkpt lat="26.867391" lon="100.222044">
<time>2015-08-06T11:23:00Z</time></trkpt>
<trkpt lat="26.867011" lon="100.222104">
<time>2015-08-06T11:23:01Z</time></trkpt>
<trkpt lat="26.866642" lon="100.222194">
<time>2015-08-06T11:23:02Z</time></trkpt>
<trkpt lat="26.866342" lon="100.222294">
<time>2015-08-06T11:23:03Z</time></trkpt>
<trkpt lat="26.866122" lon="100.222374">
<time>2015-08-06T11:23:04Z</time></trkpt>
<trkpt lat="26.865932" lon="100.222484">
<time>2015-08-06T11:23:05Z</time></trkpt>
<trkpt lat="26.865632" lon="100.222654">
<time>2015-08-06T11:23:06Z</time></trkpt>
<trkpt lat="26.865512" lon="100.222724">
<time>2015-08-06T11:23:07Z</time></trkpt>
<trkpt lat="26.865402" lon="100.222794">
<time>2015-08-06T11:23:08Z</time></trkpt>
<trkpt lat="26.865093" lon="100.222995">
<time>2015-08-06T11:23:09Z</time></trkpt>
<trkpt lat="26.865063" lon="100.223015">
<time>2015-08-06T11:23:10Z</time></trkpt>
<trkpt lat="26.864443" lon="100.223415">
<time>2015-08-06T11:23:11Z</time></trkpt>
<trkpt lat="26.864073" lon="100.223665">
<time>2015-08-06T11:23:12Z</time></trkpt>
<trkpt lat="26.863924" lon="100.223755">
<time>2015-08-06T11:23:13Z</time></trkpt>
<trkpt lat="26.863654" lon="100.223916">
<time>2015-08-06T11:23:14Z</time></trkpt>
<trkpt lat="26.863594" lon="100.223956">
<time>2015-08-06T11:23:15Z</time></trkpt>
<trkpt lat="26.863314" lon="100.224126">
<time>2015-08-06T11:23:16Z</time></trkpt>
<trkpt lat="26.863274" lon="100.224146">
<time>2015-08-06T11:23:17Z</time></trkpt>
<trkpt lat="26.862854" lon="100.224406">
<time>2015-08-06T11:23:18Z</time></trkpt>
<trkpt lat="26.862015" lon="100.224907">
<time>2015-08-06T11:23:19Z</time></trkpt>
<trkpt lat="26.861595" lon="100.225157">
<time>2015-08-06T11:23:20Z</time></trkpt>
<trkpt lat="26.861255" lon="100.225357">
<time>2015-08-06T11:23:21Z</time></trkpt>
<trkpt lat="26.861225" lon="100.225377">
<time>2015-08-06T11:23:22Z</time></trkpt>
<trkpt lat="26.860956" lon="100.225537">
<time>2015-08-06T11:23:23Z</time></trkpt>
<trkpt lat="26.860866" lon="100.225597">
<time>2015-08-06T11:23:24Z</time></trkpt>
<trkpt lat="26.860576" lon="100.225757">
<time>2015-08-06T11:23:25Z</time></trkpt>
<trkpt lat="26.860226" lon="100.225978">
<time>2015-08-06T11:23:26Z</time></trkpt>
<trkpt lat="26.859916" lon="100.226158">
<time>2015-08-06T11:23:27Z</time></trkpt>
<trkpt lat="26.859217" lon="100.226548">
<time>2015-08-06T11:23:28Z</time></trkpt>
<trkpt lat="26.858637" lon="100.226859">
<time>2015-08-06T11:23:29Z</time></trkpt>
<trkpt lat="26.858477" lon="100.226949">
<time>2015-08-06T11:23:30Z</time></trkpt>
<trkpt lat="26.858477" lon="100.226949">
<time>2015-08-06T11:23:31Z</time></trkpt>
<trkpt lat="26.858407" lon="100.226718">
<time>2015-08-06T11:23:32Z</time></trkpt>
<trkpt lat="26.858407" lon="100.226708">
<time>2015-08-06T11:23:33Z</time></trkpt>
<trkpt lat="26.858407" lon="100.226708">
<time>2015-08-06T11:23:34Z</time></trkpt>
<trkpt lat="26.858407" lon="100.226718">
<time>2015-08-06T11:23:35Z</time></trkpt>
<trkpt lat="26.858477" lon="100.226949">
<time>2015-08-06T11:23:36Z</time></trkpt>
<trkpt lat="26.858517" lon="100.227089">
<time>2015-08-06T11:23:37Z</time></trkpt>
<trkpt lat="26.858517" lon="100.227089">
<time>2015-08-06T11:23:38Z</time></trkpt>
<trkpt lat="26.858357" lon="100.227179">
<time>2015-08-06T11:23:39Z</time></trkpt>
<trkpt lat="26.857328" lon="100.227739">
<time>2015-08-06T11:23:40Z</time></trkpt>
<trkpt lat="26.856469" lon="100.22821">
<time>2015-08-06T11:23:41Z</time></trkpt>
<trkpt lat="26.855889" lon="100.22844">
<time>2015-08-06T11:23:42Z</time></trkpt>
<trkpt lat="26.855529" lon="100.22858">
<time>2015-08-06T11:23:43Z</time></trkpt>
<trkpt lat="26.855229" lon="100.22867">
<time>2015-08-06T11:23:44Z</time></trkpt>
<trkpt lat="26.854979" lon="100.22871">
<time>2015-08-06T11:23:45Z</time></trkpt>
<trkpt lat="26.854829" lon="100.22873">
<time>2015-08-06T11:23:46Z</time></trkpt>
<trkpt lat="26.854709" lon="100.22873">
<time>2015-08-06T11:23:47Z</time></trkpt>
<trkpt lat="26.854529" lon="100.22872">
<time>2015-08-06T11:23:48Z</time></trkpt>
<trkpt lat="26.854349" lon="100.22869">
<time>2015-08-06T11:23:49Z</time></trkpt>
<trkpt lat="26.854059" lon="100.22856">
<time>2015-08-06T11:23:50Z</time></trkpt>
<trkpt lat="26.854059" lon="100.22856">
<time>2015-08-06T11:23:51Z</time></trkpt>
<trkpt lat="26.853989" lon="100.22861">
<time>2015-08-06T11:23:52Z</time></trkpt>
<trkpt lat="26.853959" lon="100.22865">
<time>2015-08-06T11:23:53Z</time></trkpt>
<trkpt lat="26.853939" lon="100.2287">
<time>2015-08-06T11:23:54Z</time></trkpt>
<trkpt lat="26.853919" lon="100.22876">
<time>2015-08-06T11:23:55Z</time></trkpt>
<trkpt lat="26.853919" lon="100.22885">
<time>2015-08-06T11:23:56Z</time></trkpt>
<trkpt lat="26.85392" lon="100.22893">
<time>2015-08-06T11:23:57Z</time></trkpt>
<trkpt lat="26.85392" lon="100.22893">
<time>2015-08-06T11:23:58Z</time></trkpt>
<trkpt lat="26.854871" lon="100.231052">
<time>2015-08-06T11:23:59Z</time></trkpt>
<trkpt lat="26.855011" lon="100.231372">
<time>2015-08-06T11:24:00Z</time></trkpt>
<trkpt lat="26.855462" lon="100.232393">
<time>2015-08-06T11:24:01Z</time></trkpt>
<trkpt lat="26.855672" lon="100.232863">
<time>2015-08-06T11:24:02Z</time></trkpt>
<trkpt lat="26.856122" lon="100.233884">
<time>2015-08-06T11:24:03Z</time></trkpt>
<trkpt lat="26.856643" lon="100.235084">
<time>2015-08-06T11:24:04Z</time></trkpt>
<trkpt lat="26.856863" lon="100.235575">
<time>2015-08-06T11:24:05Z</time></trkpt>
<trkpt lat="26.857003" lon="100.235965">
<time>2015-08-06T11:24:06Z</time></trkpt>
<trkpt lat="26.857394" lon="100.236995">
<time>2015-08-06T11:24:07Z</time></trkpt>
<trkpt lat="26.857394" lon="100.236995">
<time>2015-08-06T11:24:08Z</time></trkpt>
<trkpt lat="26.857344" lon="100.237015">
<time>2015-08-06T11:24:09Z</time></trkpt>
<trkpt lat="26.857064" lon="100.237146">
<time>2015-08-06T11:24:10Z</time></trkpt>
<trkpt lat="26.856564" lon="100.237526">
<time>2015-08-06T11:24:11Z</time></trkpt>
<trkpt lat="26.856054" lon="100.238036">
<time>2015-08-06T11:24:12Z</time></trkpt>
<trkpt lat="26.855305" lon="100.238786">
<time>2015-08-06T11:24:13Z</time></trkpt>
<trkpt lat="26.854615" lon="100.239457">
<time>2015-08-06T11:24:14Z</time></trkpt>
<trkpt lat="26.854115" lon="100.239937">
<time>2015-08-06T11:24:15Z</time></trkpt>
<trkpt lat="26.854035" lon="100.240007">
<time>2015-08-06T11:24:16Z</time></trkpt>
<trkpt lat="26.853925" lon="100.240087">
<time>2015-08-06T11:24:17Z</time></trkpt>
<trkpt lat="26.853725" lon="100.240227">
<time>2015-08-06T11:24:18Z</time></trkpt>
<trkpt lat="26.853336" lon="100.240407">
<time>2015-08-06T11:24:19Z</time></trkpt>
<trkpt lat="26.852656" lon="100.240647">
<time>2015-08-06T11:24:20Z</time></trkpt>
<trkpt lat="26.851416" lon="100.241057">
<time>2015-08-06T11:24:21Z</time></trkpt>
<trkpt lat="26.850476" lon="100.241427">
<time>2015-08-06T11:24:22Z</time></trkpt>
<trkpt lat="26.850376" lon="100.241467">
<time>2015-08-06T11:24:23Z</time></trkpt>
<trkpt lat="26.850186" lon="100.241547">
<time>2015-08-06T11:24:24Z</time></trkpt>
<trkpt lat="26.847457" lon="100.242618">
<time>2015-08-06T11:24:25Z</time></trkpt>
<trkpt lat="26.843408" lon="100.244208">
<time>2015-08-06T11:24:26Z</time></trkpt>
<trkpt lat="26.843128" lon="100.244338">
<time>2015-08-06T11:24:27Z</time></trkpt>
<trkpt lat="26.843128" lon="100.244338">
<time>2015-08-06T11:24:28Z</time></trkpt>
<trkpt lat="26.843078" lon="100.244368">
<time>2015-08-06T11:24:29Z</time></trkpt>
<trkpt lat="26.842728" lon="100.244538">
<time>2015-08-06T11:24:30Z</time></trkpt>
<trkpt lat="26.841589" lon="100.245078">
<time>2015-08-06T11:24:31Z</time></trkpt>
<trkpt lat="26.839279" lon="100.246158">
<time>2015-08-06T11:24:32Z</time></trkpt>
<trkpt lat="26.838829" lon="100.246378">
<time>2015-08-06T11:24:33Z</time></trkpt>
<trkpt lat="26.838109" lon="100.246718">
<time>2015-08-06T11:24:34Z</time></trkpt>
<trkpt lat="26.838059" lon="100.246748">
<time>2015-08-06T11:24:35Z</time></trkpt>
<trkpt lat="26.837789" lon="100.246849">
<time>2015-08-06T11:24:36Z</time></trkpt>
<trkpt lat="26.836949" lon="100.247179">
<time>2015-08-06T11:24:37Z</time></trkpt>
<trkpt lat="26.83664" lon="100.247319">
<time>2015-08-06T11:24:38Z</time></trkpt>
<trkpt lat="26.8365" lon="100.247409">
<time>2015-08-06T11:24:39Z</time></trkpt>
<trkpt lat="26.83637" lon="100.247479">
<time>2015-08-06T11:24:40Z</time></trkpt>
<trkpt lat="26.83608" lon="100.247699">
<time>2015-08-06T11:24:41Z</time></trkpt>
<trkpt lat="26.83581" lon="100.247939">
<time>2015-08-06T11:24:42Z</time></trkpt>
<trkpt lat="26.83575" lon="100.247979">
<time>2015-08-06T11:24:43Z</time></trkpt>
<trkpt lat="26.83558" lon="100.248119">
<time>2015-08-06T11:24:44Z</time></trkpt>
<trkpt lat="26.83551" lon="100.248179">
<time>2015-08-06T11:24:45Z</time></trkpt>
<trkpt lat="26.83525" lon="100.248409">
<time>2015-08-06T11:24:46Z</time></trkpt>
<trkpt lat="26.83505" lon="100.248569">
<time>2015-08-06T11:24:47Z</time></trkpt>
<trkpt lat="26.83501" lon="100.248599">
<time>2015-08-06T11:24:48Z</time></trkpt>
<trkpt lat="26.83475" lon="100.248819">
<time>2015-08-06T11:24:49Z</time></trkpt>
<trkpt lat="26.83442" lon="100.249029">
<time>2015-08-06T11:24:50Z</time></trkpt>
<trkpt lat="26.83421" lon="100.249159">
<time>2015-08-06T11:24:51Z</time></trkpt>
<trkpt lat="26.83397" lon="100.249329">
<time>2015-08-06T11:24:52Z</time></trkpt>
<trkpt lat="26.83367" lon="100.249489">
<time>2015-08-06T11:24:53Z</time></trkpt>
<trkpt lat="26.83335" lon="100.249609">
<time>2015-08-06T11:24:54Z</time></trkpt>
<trkpt lat="26.83215" lon="100.249889">
<time>2015-08-06T11:24:55Z</time></trkpt>
<trkpt lat="26.83154" lon="100.250019">
<time>2015-08-06T11:24:56Z</time></trkpt>
<trkpt lat="26.830121" lon="100.250369">
<time>2015-08-06T11:24:57Z</time></trkpt>
<trkpt lat="26.829321" lon="100.250559">
<time>2015-08-06T11:24:58Z</time></trkpt>
<trkpt lat="26.829111" lon="100.250599">
<time>2015-08-06T11:24:59Z</time></trkpt>
<trkpt lat="26.828321" lon="100.250749">
<time>2015-08-06T11:25:00Z</time></trkpt>
<trkpt lat="26.828041" lon="100.250749">
<time>2015-08-06T11:25:01Z</time></trkpt>
<trkpt lat="26.826701" lon="100.251059">
<time>2015-08-06T11:25:02Z</time></trkpt>
<trkpt lat="26.826681" lon="100.251069">
<time>2015-08-06T11:25:03Z</time></trkpt>
<trkpt lat="26.821542" lon="100.252179">
<time>2015-08-06T11:25:04Z</time></trkpt>
<trkpt lat="26.821242" lon="100.252239">
<time>2015-08-06T11:25:05Z</time></trkpt>
<trkpt lat="26.821032" lon="100.252299">
<time>2015-08-06T11:25:06Z</time></trkpt>
<trkpt lat="26.820522" lon="100.252499">
<time>2015-08-06T11:25:07Z</time></trkpt>
<trkpt lat="26.820492" lon="100.252519">
<time>2015-08-06T11:25:08Z</time></trkpt>
<trkpt lat="26.820382" lon="100.252589">
<time>2015-08-06T11:25:09Z</time></trkpt>
<trkpt lat="26.820232" lon="100.252689">
<time>2015-08-06T11:25:10Z</time></trkpt>
<trkpt lat="26.820052" lon="100.252828">
<time>2015-08-06T11:25:11Z</time></trkpt>
<trkpt lat="26.819872" lon="100.252978">
<time>2015-08-06T11:25:12Z</time></trkpt>
<trkpt lat="26.819642" lon="100.253178">
<time>2015-08-06T11:25:13Z</time></trkpt>
<trkpt lat="26.819512" lon="100.253338">
<time>2015-08-06T11:25:14Z</time></trkpt>
<trkpt lat="26.819442" lon="100.253418">
<time>2015-08-06T11:25:15Z</time></trkpt>
<trkpt lat="26.819442" lon="100.253418">
<time>2015-08-06T11:25:16Z</time></trkpt>
<trkpt lat="26.819372" lon="100.253568">
<time>2015-08-06T11:25:17Z</time></trkpt>
<trkpt lat="26.819352" lon="100.253598">
<time>2015-08-06T11:25:18Z</time></trkpt>
<trkpt lat="26.819252" lon="100.253738">
<time>2015-08-06T11:25:19Z</time></trkpt>
<trkpt lat="26.819092" lon="100.254058">
<time>2015-08-06T11:25:20Z</time></trkpt>
<trkpt lat="26.818972" lon="100.254438">
<time>2015-08-06T11:25:21Z</time></trkpt>
<trkpt lat="26.818932" lon="100.254648">
<time>2015-08-06T11:25:22Z</time></trkpt>
<trkpt lat="26.818881" lon="100.254978">
<time>2015-08-06T11:25:23Z</time></trkpt>
<trkpt lat="26.818861" lon="100.255388">
<time>2015-08-06T11:25:24Z</time></trkpt>
<trkpt lat="26.818851" lon="100.255488">
<time>2015-08-06T11:25:25Z</time></trkpt>
<trkpt lat="26.818831" lon="100.255568">
<time>2015-08-06T11:25:26Z</time></trkpt>
<trkpt lat="26.818831" lon="100.255668">
<time>2015-08-06T11:25:27Z</time></trkpt>
<trkpt lat="26.818841" lon="100.256018">
<time>2015-08-06T11:25:28Z</time></trkpt>
<trkpt lat="26.818851" lon="100.256208">
<time>2015-08-06T11:25:29Z</time></trkpt>
<trkpt lat="26.818851" lon="100.256667">
<time>2015-08-06T11:25:30Z</time></trkpt>
<trkpt lat="26.818821" lon="100.257017">
<time>2015-08-06T11:25:31Z</time></trkpt>
<trkpt lat="26.818811" lon="100.257167">
<time>2015-08-06T11:25:32Z</time></trkpt>
<trkpt lat="26.818681" lon="100.257407">
<time>2015-08-06T11:25:33Z</time></trkpt>
<trkpt lat="26.818541" lon="100.257617">
<time>2015-08-06T11:25:34Z</time></trkpt>
<trkpt lat="26.818461" lon="100.257707">
<time>2015-08-06T11:25:35Z</time></trkpt>
<trkpt lat="26.818271" lon="100.257847">
<time>2015-08-06T11:25:36Z</time></trkpt>
<trkpt lat="26.818201" lon="100.257877">
<time>2015-08-06T11:25:37Z</time></trkpt>
<trkpt lat="26.818091" lon="100.257937">
<time>2015-08-06T11:25:38Z</time></trkpt>
<trkpt lat="26.817761" lon="100.258007">
<time>2015-08-06T11:25:39Z</time></trkpt>
<trkpt lat="26.817491" lon="100.258017">
<time>2015-08-06T11:25:40Z</time></trkpt>
<trkpt lat="26.816961" lon="100.258047">
<time>2015-08-06T11:25:41Z</time></trkpt>
<trkpt lat="26.816521" lon="100.258067">
<time>2015-08-06T11:25:42Z</time></trkpt>
<trkpt lat="26.816141" lon="100.258057">
<time>2015-08-06T11:25:43Z</time></trkpt>
<trkpt lat="26.815961" lon="100.258077">
<time>2015-08-06T11:25:44Z</time></trkpt>
<trkpt lat="26.815841" lon="100.258087">
<time>2015-08-06T11:25:45Z</time></trkpt>
<trkpt lat="26.815451" lon="100.258077">
<time>2015-08-06T11:25:46Z</time></trkpt>
<trkpt lat="26.815311" lon="100.258087">
<time>2015-08-06T11:25:47Z</time></trkpt>
<trkpt lat="26.815181" lon="100.258127">
<time>2015-08-06T11:25:48Z</time></trkpt>
<trkpt lat="26.815051" lon="100.258187">
<time>2015-08-06T11:25:49Z</time></trkpt>
<trkpt lat="26.814911" lon="100.258257">
<time>2015-08-06T11:25:50Z</time></trkpt>
<trkpt lat="26.814771" lon="100.258337">
<time>2015-08-06T11:25:51Z</time></trkpt>
<trkpt lat="26.814361" lon="100.258517">
<time>2015-08-06T11:25:52Z</time></trkpt>
<trkpt lat="26.813911" lon="100.258747">
<time>2015-08-06T11:25:53Z</time></trkpt>
<trkpt lat="26.813581" lon="100.258887">
<time>2015-08-06T11:25:54Z</time></trkpt>
<trkpt lat="26.813091" lon="100.259147">
<time>2015-08-06T11:25:55Z</time></trkpt>
<trkpt lat="26.812551" lon="100.259416">
<time>2015-08-06T11:25:56Z</time></trkpt>
<trkpt lat="26.812011" lon="100.259696">
<time>2015-08-06T11:25:57Z</time></trkpt>
<trkpt lat="26.811851" lon="100.259836">
<time>2015-08-06T11:25:58Z</time></trkpt>
<trkpt lat="26.811661" lon="100.259926">
<time>2015-08-06T11:25:59Z</time></trkpt>
<trkpt lat="26.811511" lon="100.260046">
<time>2015-08-06T11:26:00Z</time></trkpt>
<trkpt lat="26.811371" lon="100.260186">
<time>2015-08-06T11:26:01Z</time></trkpt>
<trkpt lat="26.811281" lon="100.260356">
<time>2015-08-06T11:26:02Z</time></trkpt>
<trkpt lat="26.811221" lon="100.260546">
<time>2015-08-06T11:26:03Z</time></trkpt>
<trkpt lat="26.81119" lon="100.260746">
<time>2015-08-06T11:26:04Z</time></trkpt>
<trkpt lat="26.81119" lon="100.260956">
<time>2015-08-06T11:26:05Z</time></trkpt>
<trkpt lat="26.81122" lon="100.261545">
<time>2015-08-06T11:26:06Z</time></trkpt>
<trkpt lat="26.81125" lon="100.262145">
<time>2015-08-06T11:26:07Z</time></trkpt>
<trkpt lat="26.81128" lon="100.262555">
<time>2015-08-06T11:26:08Z</time></trkpt>
<trkpt lat="26.811289" lon="100.262775">
<time>2015-08-06T11:26:09Z</time></trkpt>
<trkpt lat="26.811299" lon="100.262954">
<time>2015-08-06T11:26:10Z</time></trkpt>
<trkpt lat="26.811329" lon="100.263354">
<time>2015-08-06T11:26:11Z</time></trkpt>
<trkpt lat="26.811349" lon="100.263764">
<time>2015-08-06T11:26:12Z</time></trkpt>
<trkpt lat="26.811339" lon="100.264144">
<time>2015-08-06T11:26:13Z</time></trkpt>
<trkpt lat="26.811228" lon="100.264663">
<time>2015-08-06T11:26:14Z</time></trkpt>
<trkpt lat="26.811128" lon="100.265033">
<time>2015-08-06T11:26:15Z</time></trkpt>
<trkpt lat="26.810998" lon="100.265523">
<time>2015-08-06T11:26:16Z</time></trkpt>
<trkpt lat="26.810928" lon="100.265822">
<time>2015-08-06T11:26:17Z</time></trkpt>
<trkpt lat="26.810787" lon="100.266292">
<time>2015-08-06T11:26:18Z</time></trkpt>
<trkpt lat="26.810717" lon="100.266442">
<time>2015-08-06T11:26:19Z</time></trkpt>
<trkpt lat="26.810637" lon="100.266582">
<time>2015-08-06T11:26:20Z</time></trkpt>
<trkpt lat="26.810547" lon="100.266692">
<time>2015-08-06T11:26:21Z</time></trkpt>
<trkpt lat="26.810427" lon="100.266792">
<time>2015-08-06T11:26:22Z</time></trkpt>
<trkpt lat="26.810207" lon="100.266902">
<time>2015-08-06T11:26:23Z</time></trkpt>
<trkpt lat="26.810087" lon="100.266982">
<time>2015-08-06T11:26:24Z</time></trkpt>
<trkpt lat="26.809597" lon="100.267131">
<time>2015-08-06T11:26:25Z</time></trkpt>
<trkpt lat="26.809337" lon="100.267191">
<time>2015-08-06T11:26:26Z</time></trkpt>
<trkpt lat="26.808947" lon="100.267311">
<time>2015-08-06T11:26:27Z</time></trkpt>
<trkpt lat="26.808667" lon="100.267391">
<time>2015-08-06T11:26:28Z</time></trkpt>
<trkpt lat="26.808337" lon="100.267511">
<time>2015-08-06T11:26:29Z</time></trkpt>
<trkpt lat="26.807997" lon="100.267591">
<time>2015-08-06T11:26:30Z</time></trkpt>
<trkpt lat="26.807687" lon="100.267701">
<time>2015-08-06T11:26:31Z</time></trkpt>
<trkpt lat="26.807247" lon="100.267871">
<time>2015-08-06T11:26:32Z</time></trkpt>
<trkpt lat="26.806797" lon="100.268001">
<time>2015-08-06T11:26:33Z</time></trkpt>
<trkpt lat="26.806497" lon="100.268111">
<time>2015-08-06T11:26:34Z</time></trkpt>
<trkpt lat="26.806187" lon="100.268211">
<time>2015-08-06T11:26:35Z</time></trkpt>
<trkpt lat="26.805887" lon="100.268321">
<time>2015-08-06T11:26:36Z</time></trkpt>
<trkpt lat="26.805587" lon="100.26842">
<time>2015-08-06T11:26:37Z</time></trkpt>
<trkpt lat="26.805237" lon="100.2685">
<time>2015-08-06T11:26:38Z</time></trkpt>
<trkpt lat="26.804697" lon="100.2687">
<time>2015-08-06T11:26:39Z</time></trkpt>
<trkpt lat="26.804506" lon="100.26876">
<time>2015-08-06T11:26:40Z</time></trkpt>
<trkpt lat="26.804116" lon="100.26886">
<time>2015-08-06T11:26:41Z</time></trkpt>
<trkpt lat="26.803746" lon="100.26898">
<time>2015-08-06T11:26:42Z</time></trkpt>
<trkpt lat="26.803236" lon="100.26915">
<time>2015-08-06T11:26:43Z</time></trkpt>
<trkpt lat="26.802706" lon="100.26932">
<time>2015-08-06T11:26:44Z</time></trkpt>
<trkpt lat="26.802526" lon="100.26938">
<time>2015-08-06T11:26:45Z</time></trkpt>
<trkpt lat="26.801996" lon="100.26957">
<time>2015-08-06T11:26:46Z</time></trkpt>
<trkpt lat="26.801836" lon="100.26962">
<time>2015-08-06T11:26:47Z</time></trkpt>
<trkpt lat="26.801396" lon="100.269749">
<time>2015-08-06T11:26:48Z</time></trkpt>
<trkpt lat="26.800936" lon="100.269909">
<time>2015-08-06T11:26:49Z</time></trkpt>
<trkpt lat="26.800896" lon="100.269919">
<time>2015-08-06T11:26:50Z</time></trkpt>
<trkpt lat="26.800616" lon="100.269989">
<time>2015-08-06T11:26:51Z</time></trkpt>
<trkpt lat="26.800286" lon="100.270109">
<time>2015-08-06T11:26:52Z</time></trkpt>
<trkpt lat="26.799946" lon="100.270209">
<time>2015-08-06T11:26:53Z</time></trkpt>
<trkpt lat="26.799386" lon="100.270369">
<time>2015-08-06T11:26:54Z</time></trkpt>
<trkpt lat="26.799006" lon="100.270499">
<time>2015-08-06T11:26:55Z</time></trkpt>
<trkpt lat="26.798426" lon="100.270689">
<time>2015-08-06T11:26:56Z</time></trkpt>
<trkpt lat="26.797906" lon="100.270858">
<time>2015-08-06T11:26:57Z</time></trkpt>
<trkpt lat="26.797436" lon="100.271008">
<time>2015-08-06T11:26:58Z</time></trkpt>
<trkpt lat="26.796956" lon="100.271158">
<time>2015-08-06T11:26:59Z</time></trkpt>
<trkpt lat="26.796405" lon="100.271338">
<time>2015-08-06T11:27:00Z</time></trkpt>
<trkpt lat="26.795865" lon="100.271508">
<time>2015-08-06T11:27:01Z</time></trkpt>
<trkpt lat="26.795535" lon="100.271608">
<time>2015-08-06T11:27:02Z</time></trkpt>
<trkpt lat="26.795055" lon="100.271768">
<time>2015-08-06T11:27:03Z</time></trkpt>
<trkpt lat="26.794575" lon="100.271908">
<time>2015-08-06T11:27:04Z</time></trkpt>
<trkpt lat="26.794425" lon="100.271967">
<time>2015-08-06T11:27:05Z</time></trkpt>
<trkpt lat="26.794105" lon="100.272057">
<time>2015-08-06T11:27:06Z</time></trkpt>
<trkpt lat="26.793235" lon="100.272207">
<time>2015-08-06T11:27:07Z</time></trkpt>
<trkpt lat="26.792895" lon="100.272237">
<time>2015-08-06T11:27:08Z</time></trkpt>
<trkpt lat="26.792545" lon="100.272247">
<time>2015-08-06T11:27:09Z</time></trkpt>
<trkpt lat="26.792055" lon="100.272277">
<time>2015-08-06T11:27:10Z</time></trkpt>
<trkpt lat="26.791515" lon="100.272307">
<time>2015-08-06T11:27:11Z</time></trkpt>
<trkpt lat="26.791145" lon="100.272317">
<time>2015-08-06T11:27:12Z</time></trkpt>
<trkpt lat="26.790585" lon="100.272317">
<time>2015-08-06T11:27:13Z</time></trkpt>
<trkpt lat="26.790035" lon="100.272347">
<time>2015-08-06T11:27:14Z</time></trkpt>
<trkpt lat="26.789865" lon="100.272367">
<time>2015-08-06T11:27:15Z</time></trkpt>
<trkpt lat="26.789365" lon="100.272397">
<time>2015-08-06T11:27:16Z</time></trkpt>
<trkpt lat="26.788925" lon="100.272497">
<time>2015-08-06T11:27:17Z</time></trkpt>
<trkpt lat="26.788625" lon="100.272617">
<time>2015-08-06T11:27:18Z</time></trkpt>
<trkpt lat="26.788315" lon="100.272767">
<time>2015-08-06T11:27:19Z</time></trkpt>
<trkpt lat="26.787985" lon="100.272957">
<time>2015-08-06T11:27:20Z</time></trkpt>
<trkpt lat="26.787825" lon="100.273047">
<time>2015-08-06T11:27:21Z</time></trkpt>
<trkpt lat="26.787195" lon="100.273386">
<time>2015-08-06T11:27:22Z</time></trkpt>
<trkpt lat="26.786855" lon="100.273556">
<time>2015-08-06T11:27:23Z</time></trkpt>
<trkpt lat="26.786705" lon="100.273646">
<time>2015-08-06T11:27:24Z</time></trkpt>
<trkpt lat="26.786264" lon="100.273896">
<time>2015-08-06T11:27:25Z</time></trkpt>
<trkpt lat="26.785814" lon="100.274125">
<time>2015-08-06T11:27:26Z</time></trkpt>
<trkpt lat="26.785504" lon="100.274295">
<time>2015-08-06T11:27:27Z</time></trkpt>
<trkpt lat="26.785384" lon="100.274365">
<time>2015-08-06T11:27:28Z</time></trkpt>
<trkpt lat="26.784934" lon="100.274595">
<time>2015-08-06T11:27:29Z</time></trkpt>
<trkpt lat="26.784664" lon="100.274755">
<time>2015-08-06T11:27:30Z</time></trkpt>
<trkpt lat="26.784303" lon="100.275015">
<time>2015-08-06T11:27:31Z</time></trkpt>
<trkpt lat="26.784093" lon="100.275214">
<time>2015-08-06T11:27:32Z</time></trkpt>
<trkpt lat="26.783813" lon="100.275544">
<time>2015-08-06T11:27:33Z</time></trkpt>
<trkpt lat="26.783643" lon="100.275754">
<time>2015-08-06T11:27:34Z</time></trkpt>
<trkpt lat="26.783373" lon="100.276083">
<time>2015-08-06T11:27:35Z</time></trkpt>
<trkpt lat="26.783092" lon="100.276453">
<time>2015-08-06T11:27:36Z</time></trkpt>
<trkpt lat="26.783052" lon="100.276503">
<time>2015-08-06T11:27:37Z</time></trkpt>
<trkpt lat="26.782772" lon="100.276862">
<time>2015-08-06T11:27:38Z</time></trkpt>
<trkpt lat="26.782381" lon="100.277352">
<time>2015-08-06T11:27:39Z</time></trkpt>
<trkpt lat="26.781991" lon="100.277841">
<time>2015-08-06T11:27:40Z</time></trkpt>
<trkpt lat="26.781901" lon="100.278021">
<time>2015-08-06T11:27:41Z</time></trkpt>
<trkpt lat="26.78166" lon="100.278311">
<time>2015-08-06T11:27:42Z</time></trkpt>
<trkpt lat="26.78157" lon="100.278401">
<time>2015-08-06T11:27:43Z</time></trkpt>
<trkpt lat="26.78139" lon="100.27859">
<time>2015-08-06T11:27:44Z</time></trkpt>
<trkpt lat="26.78122" lon="100.2787">
<time>2015-08-06T11:27:45Z</time></trkpt>
<trkpt lat="26.78079" lon="100.27876">
<time>2015-08-06T11:27:46Z</time></trkpt>
<trkpt lat="26.7806" lon="100.27875">
<time>2015-08-06T11:27:47Z</time></trkpt>
<trkpt lat="26.78027" lon="100.27867">
<time>2015-08-06T11:27:48Z</time></trkpt>
<trkpt lat="26.7797" lon="100.27853">
<time>2015-08-06T11:27:49Z</time></trkpt>
<trkpt lat="26.779121" lon="100.278471">
<time>2015-08-06T11:27:50Z</time></trkpt>
<trkpt lat="26.778721" lon="100.278471">
<time>2015-08-06T11:27:51Z</time></trkpt>
<trkpt lat="26.778331" lon="100.278501">
<time>2015-08-06T11:27:52Z</time></trkpt>
<trkpt lat="26.777951" lon="100.27856">
<time>2015-08-06T11:27:53Z</time></trkpt>
<trkpt lat="26.777761" lon="100.27859">
<time>2015-08-06T11:27:54Z</time></trkpt>
<trkpt lat="26.7772" lon="100.27869">
<time>2015-08-06T11:27:55Z</time></trkpt>
<trkpt lat="26.77664" lon="100.2788">
<time>2015-08-06T11:27:56Z</time></trkpt>
<trkpt lat="26.77628" lon="100.27886">
<time>2015-08-06T11:27:57Z</time></trkpt>
<trkpt lat="26.77574" lon="100.27894">
<time>2015-08-06T11:27:58Z</time></trkpt>
<trkpt lat="26.77541" lon="100.27901">
<time>2015-08-06T11:27:59Z</time></trkpt>
<trkpt lat="26.77527" lon="100.27905">
<time>2015-08-06T11:28:00Z</time></trkpt>
<trkpt lat="26.77514" lon="100.27911">
<time>2015-08-06T11:28:01Z</time></trkpt>
<trkpt lat="26.77503" lon="100.27921">
<time>2015-08-06T11:28:02Z</time></trkpt>
<trkpt lat="26.7748" lon="100.279449">
<time>2015-08-06T11:28:03Z</time></trkpt>
<trkpt lat="26.77448" lon="100.279769">
<time>2015-08-06T11:28:04Z</time></trkpt>
<trkpt lat="26.774129" lon="100.280109">
<time>2015-08-06T11:28:05Z</time></trkpt>
<trkpt lat="26.774079" lon="100.280179">
<time>2015-08-06T11:28:06Z</time></trkpt>
<trkpt lat="26.774029" lon="100.280248">
<time>2015-08-06T11:28:07Z</time></trkpt>
<trkpt lat="26.773999" lon="100.280288">
<time>2015-08-06T11:28:08Z</time></trkpt>
<trkpt lat="26.773959" lon="100.280338">
<time>2015-08-06T11:28:09Z</time></trkpt>
<trkpt lat="26.773959" lon="100.280338">
<time>2015-08-06T11:28:10Z</time></trkpt>
<trkpt lat="26.773729" lon="100.280208">
<time>2015-08-06T11:28:11Z</time></trkpt>
<trkpt lat="26.773559" lon="100.280099">
<time>2015-08-06T11:28:12Z</time></trkpt>
<trkpt lat="26.773339" lon="100.279989">
<time>2015-08-06T11:28:13Z</time></trkpt>
<trkpt lat="26.77319" lon="100.279909">
<time>2015-08-06T11:28:14Z</time></trkpt>
<trkpt lat="26.77285" lon="100.279689">
<time>2015-08-06T11:28:15Z</time></trkpt>
<trkpt lat="26.77231" lon="100.27934">
<time>2015-08-06T11:28:16Z</time></trkpt>
<trkpt lat="26.771601" lon="100.2787">
<time>2015-08-06T11:28:17Z</time></trkpt>
<trkpt lat="26.771601" lon="100.2787">
<time>2015-08-06T11:28:18Z</time></trkpt>
<trkpt lat="26.771491" lon="100.278541">
<time>2015-08-06T11:28:19Z</time></trkpt>
<trkpt lat="26.771361" lon="100.278341">
<time>2015-08-06T11:28:20Z</time></trkpt>
<trkpt lat="26.771222" lon="100.278051">
<time>2015-08-06T11:28:21Z</time></trkpt>
<trkpt lat="26.771202" lon="100.278001">
<time>2015-08-06T11:28:22Z</time></trkpt>
<trkpt lat="26.771132" lon="100.277852">
<time>2015-08-06T11:28:23Z</time></trkpt>
<trkpt lat="26.771092" lon="100.277752">
<time>2015-08-06T11:28:24Z</time></trkpt>
<trkpt lat="26.771092" lon="100.277752">
<time>2015-08-06T11:28:25Z</time></trkpt>
<trkpt lat="26.771062" lon="100.277642">
<time>2015-08-06T11:28:26Z</time></trkpt>
<trkpt lat="26.770933" lon="100.277212">
<time>2015-08-06T11:28:27Z</time></trkpt>
<trkpt lat="26.770863" lon="100.276973">
<time>2015-08-06T11:28:28Z</time></trkpt>
<trkpt lat="26.770584" lon="100.276104">
<time>2015-08-06T11:28:29Z</time></trkpt>
<trkpt lat="26.770464" lon="100.275744">
<time>2015-08-06T11:28:30Z</time></trkpt>
<trkpt lat="26.770414" lon="100.275604">
<time>2015-08-06T11:28:31Z</time></trkpt>
<trkpt lat="26.770354" lon="100.275474">
<time>2015-08-06T11:28:32Z</time></trkpt>
<trkpt lat="26.770275" lon="100.275344">
<time>2015-08-06T11:28:33Z</time></trkpt>
<trkpt lat="26.770175" lon="100.275235">
<time>2015-08-06T11:28:34Z</time></trkpt>
<trkpt lat="26.770085" lon="100.275135">
<time>2015-08-06T11:28:35Z</time></trkpt>
<trkpt lat="26.769925" lon="100.275005">
<time>2015-08-06T11:28:36Z</time></trkpt>
<trkpt lat="26.769485" lon="100.274685">
<time>2015-08-06T11:28:37Z</time></trkpt>
<trkpt lat="26.769036" lon="100.274356">
<time>2015-08-06T11:28:38Z</time></trkpt>
<trkpt lat="26.768796" lon="100.274186">
<time>2015-08-06T11:28:39Z</time></trkpt>
<trkpt lat="26.768766" lon="100.274166">
<time>2015-08-06T11:28:40Z</time></trkpt>
<trkpt lat="26.768766" lon="100.274166">
<time>2015-08-06T11:28:41Z</time></trkpt>
<trkpt lat="26.768706" lon="100.274146">
<time>2015-08-06T11:28:42Z</time></trkpt>
<trkpt lat="26.768676" lon="100.274116">
<time>2015-08-06T11:28:43Z</time></trkpt>
<trkpt lat="26.768626" lon="100.274076">
<time>2015-08-06T11:28:44Z</time></trkpt>
<trkpt lat="26.768556" lon="100.273986">
<time>2015-08-06T11:28:45Z</time></trkpt>
<trkpt lat="26.768446" lon="100.273856">
<time>2015-08-06T11:28:46Z</time></trkpt>
<trkpt lat="26.768346" lon="100.273726">
<time>2015-08-06T11:28:47Z</time></trkpt>
<trkpt lat="26.768137" lon="100.273457">
<time>2015-08-06T11:28:48Z</time></trkpt>
<trkpt lat="26.768007" lon="100.273287">
<time>2015-08-06T11:28:49Z</time></trkpt>
<trkpt lat="26.767917" lon="100.273177">
<time>2015-08-06T11:28:50Z</time></trkpt>
<trkpt lat="26.767897" lon="100.273157">
<time>2015-08-06T11:28:51Z</time></trkpt>
<trkpt lat="26.767847" lon="100.273107">
<time>2015-08-06T11:28:52Z</time></trkpt>
<trkpt lat="26.767777" lon="100.273037">
<time>2015-08-06T11:28:53Z</time></trkpt>
<trkpt lat="26.767717" lon="100.272997">
<time>2015-08-06T11:28:54Z</time></trkpt>
<trkpt lat="26.767687" lon="100.272977">
<time>2015-08-06T11:28:55Z</time></trkpt>
<trkpt lat="26.767627" lon="100.272947">
<time>2015-08-06T11:28:56Z</time></trkpt>
<trkpt lat="26.767557" lon="100.272917">
<time>2015-08-06T11:28:57Z</time></trkpt>
<trkpt lat="26.767527" lon="100.272897">
<time>2015-08-06T11:28:58Z</time></trkpt>
<trkpt lat="26.767457" lon="100.272877">
<time>2015-08-06T11:28:59Z</time></trkpt>
<trkpt lat="26.767347" lon="100.272857">
<time>2015-08-06T11:29:00Z</time></trkpt>
<trkpt lat="26.767187" lon="100.272827">
<time>2015-08-06T11:29:01Z</time></trkpt>
<trkpt lat="26.767037" lon="100.272797">
<time>2015-08-06T11:29:02Z</time></trkpt>
<trkpt lat="26.766547" lon="100.272707">
<time>2015-08-06T11:29:03Z</time></trkpt>
<trkpt lat="26.766427" lon="100.272687">
<time>2015-08-06T11:29:04Z</time></trkpt>
<trkpt lat="26.766337" lon="100.272677">
<time>2015-08-06T11:29:05Z</time></trkpt>
<trkpt lat="26.766247" lon="100.272667">
<time>2015-08-06T11:29:06Z</time></trkpt>
<trkpt lat="26.766137" lon="100.272657">
<time>2015-08-06T11:29:07Z</time></trkpt>
<trkpt lat="26.766107" lon="100.272657">
<time>2015-08-06T11:29:08Z</time></trkpt>
<trkpt lat="26.766027" lon="100.272657">
<time>2015-08-06T11:29:09Z</time></trkpt>
<trkpt lat="26.765987" lon="100.272657">
<time>2015-08-06T11:29:10Z</time></trkpt>
<trkpt lat="26.765897" lon="100.272667">
<time>2015-08-06T11:29:11Z</time></trkpt>
<trkpt lat="26.765777" lon="100.272687">
<time>2015-08-06T11:29:12Z</time></trkpt>
<trkpt lat="26.765667" lon="100.272707">
<time>2015-08-06T11:29:13Z</time></trkpt>
<trkpt lat="26.765567" lon="100.272727">
<time>2015-08-06T11:29:14Z</time></trkpt>
<trkpt lat="26.765427" lon="100.272767">
<time>2015-08-06T11:29:15Z</time></trkpt>
<trkpt lat="26.765227" lon="100.272827">
<time>2015-08-06T11:29:16Z</time></trkpt>
<trkpt lat="26.765137" lon="100.272847">
<time>2015-08-06T11:29:17Z</time></trkpt>
<trkpt lat="26.765057" lon="100.272887">
<time>2015-08-06T11:29:18Z</time></trkpt>
<trkpt lat="26.765007" lon="100.272907">
<time>2015-08-06T11:29:19Z</time></trkpt>
<trkpt lat="26.764927" lon="100.272947">
<time>2015-08-06T11:29:20Z</time></trkpt>
<trkpt lat="26.764877" lon="100.272977">
<time>2015-08-06T11:29:21Z</time></trkpt>
<trkpt lat="26.764817" lon="100.273007">
<time>2015-08-06T11:29:22Z</time></trkpt>
<trkpt lat="26.764737" lon="100.273077">
<time>2015-08-06T11:29:23Z</time></trkpt>
<trkpt lat="26.764717" lon="100.273097">
<time>2015-08-06T11:29:24Z</time></trkpt>
<trkpt lat="26.764657" lon="100.273157">
<time>2015-08-06T11:29:25Z</time></trkpt>
<trkpt lat="26.764597" lon="100.273247">
<time>2015-08-06T11:29:26Z</time></trkpt>
<trkpt lat="26.764537" lon="100.273347">
<time>2015-08-06T11:29:27Z</time></trkpt>
<trkpt lat="26.764497" lon="100.273437">
<time>2015-08-06T11:29:28Z</time></trkpt>
<trkpt lat="26.764457" lon="100.273547">
<time>2015-08-06T11:29:29Z</time></trkpt>
<trkpt lat="26.764427" lon="100.273646">
<time>2015-08-06T11:29:30Z</time></trkpt>
<trkpt lat="26.764276" lon="100.274246">
<time>2015-08-06T11:29:31Z</time></trkpt>
<trkpt lat="26.764176" lon="100.274635">
<time>2015-08-06T11:29:32Z</time></trkpt>
<trkpt lat="26.764136" lon="100.274755">
<time>2015-08-06T11:29:33Z</time></trkpt>
<trkpt lat="26.764076" lon="100.274905">
<time>2015-08-06T11:29:34Z</time></trkpt>
<trkpt lat="26.764025" lon="100.274995">
<time>2015-08-06T11:29:35Z</time></trkpt>
<trkpt lat="26.763965" lon="100.275085">
<time>2015-08-06T11:29:36Z</time></trkpt>
<trkpt lat="26.763885" lon="100.275175">
<time>2015-08-06T11:29:37Z</time></trkpt>
<trkpt lat="26.763785" lon="100.275245">
<time>2015-08-06T11:29:38Z</time></trkpt>
<trkpt lat="26.763665" lon="100.275335">
<time>2015-08-06T11:29:39Z</time></trkpt>
<trkpt lat="26.763395" lon="100.275504">
<time>2015-08-06T11:29:40Z</time></trkpt>
<trkpt lat="26.763245" lon="100.275594">
<time>2015-08-06T11:29:41Z</time></trkpt>
<trkpt lat="26.763245" lon="100.275594">
<time>2015-08-06T11:29:42Z</time></trkpt>
<trkpt lat="26.763145" lon="100.275604">
<time>2015-08-06T11:29:43Z</time></trkpt>
<trkpt lat="26.761924" lon="100.276443">
<time>2015-08-06T11:29:44Z</time></trkpt>
<trkpt lat="26.761714" lon="100.276563">
<time>2015-08-06T11:29:45Z</time></trkpt>
<trkpt lat="26.761564" lon="100.276633">
<time>2015-08-06T11:29:46Z</time></trkpt>
<trkpt lat="26.761464" lon="100.276673">
<time>2015-08-06T11:29:47Z</time></trkpt>
<trkpt lat="26.761364" lon="100.276703">
<time>2015-08-06T11:29:48Z</time></trkpt>
<trkpt lat="26.761264" lon="100.276723">
<time>2015-08-06T11:29:49Z</time></trkpt>
<trkpt lat="26.761154" lon="100.276733">
<time>2015-08-06T11:29:50Z</time></trkpt>
<trkpt lat="26.761034" lon="100.276723">
<time>2015-08-06T11:29:51Z</time></trkpt>
<trkpt lat="26.760844" lon="100.276693">
<time>2015-08-06T11:29:52Z</time></trkpt>
<trkpt lat="26.759554" lon="100.276443">
<time>2015-08-06T11:29:53Z</time></trkpt>
<trkpt lat="26.758805" lon="100.276284">
<time>2015-08-06T11:29:54Z</time></trkpt>
<trkpt lat="26.758625" lon="100.276244">
<time>2015-08-06T11:29:55Z</time></trkpt>
<trkpt lat="26.758425" lon="100.276174">
<time>2015-08-06T11:29:56Z</time></trkpt>
<trkpt lat="26.758245" lon="100.276094">
<time>2015-08-06T11:29:57Z</time></trkpt>
<trkpt lat="26.758025" lon="100.275984">
<time>2015-08-06T11:29:58Z</time></trkpt>
<trkpt lat="26.757875" lon="100.275874">
<time>2015-08-06T11:29:59Z</time></trkpt>
<trkpt lat="26.757715" lon="100.275754">
<time>2015-08-06T11:30:00Z</time></trkpt>
<trkpt lat="26.757475" lon="100.275535">
<time>2015-08-06T11:30:01Z</time></trkpt>
<trkpt lat="26.757326" lon="100.275365">
<time>2015-08-06T11:30:02Z</time></trkpt>
<trkpt lat="26.757266" lon="100.275285">
<time>2015-08-06T11:30:03Z</time></trkpt>
<trkpt lat="26.757166" lon="100.275155">
<time>2015-08-06T11:30:04Z</time></trkpt>
<trkpt lat="26.757036" lon="100.274955">
<time>2015-08-06T11:30:05Z</time></trkpt>
<trkpt lat="26.756627" lon="100.274316">
<time>2015-08-06T11:30:06Z</time></trkpt>
<trkpt lat="26.756477" lon="100.274096">
<time>2015-08-06T11:30:07Z</time></trkpt>
<trkpt lat="26.756387" lon="100.273976">
<time>2015-08-06T11:30:08Z</time></trkpt>
<trkpt lat="26.756287" lon="100.273856">
<time>2015-08-06T11:30:09Z</time></trkpt>
<trkpt lat="26.756197" lon="100.273767">
<time>2015-08-06T11:30:10Z</time></trkpt>
<trkpt lat="26.756087" lon="100.273687">
<time>2015-08-06T11:30:11Z</time></trkpt>
<trkpt lat="26.755987" lon="100.273617">
<time>2015-08-06T11:30:12Z</time></trkpt>
<trkpt lat="26.755867" lon="100.273557">
<time>2015-08-06T11:30:13Z</time></trkpt>
<trkpt lat="26.755708" lon="100.273487">
<time>2015-08-06T11:30:14Z</time></trkpt>
<trkpt lat="26.755308" lon="100.273357">
<time>2015-08-06T11:30:15Z</time></trkpt>
<trkpt lat="26.754128" lon="100.272967">
<time>2015-08-06T11:30:16Z</time></trkpt>
<trkpt lat="26.753598" lon="100.272798">
<time>2015-08-06T11:30:17Z</time></trkpt>
<trkpt lat="26.753398" lon="100.272728">
<time>2015-08-06T11:30:18Z</time></trkpt>
<trkpt lat="26.753188" lon="100.272648">
<time>2015-08-06T11:30:19Z</time></trkpt>
<trkpt lat="26.753009" lon="100.272568">
<time>2015-08-06T11:30:20Z</time></trkpt>
<trkpt lat="26.752839" lon="100.272478">
<time>2015-08-06T11:30:21Z</time></trkpt>
<trkpt lat="26.752689" lon="100.272378">
<time>2015-08-06T11:30:22Z</time></trkpt>
<trkpt lat="26.752519" lon="100.272258">
<time>2015-08-06T11:30:23Z</time></trkpt>
<trkpt lat="26.752069" lon="100.271899">
<time>2015-08-06T11:30:24Z</time></trkpt>
<trkpt lat="26.751859" lon="100.271739">
<time>2015-08-06T11:30:25Z</time></trkpt>
<trkpt lat="26.751859" lon="100.271739">
<time>2015-08-06T11:30:26Z</time></trkpt>
<trkpt lat="26.75205" lon="100.271459">
<time>2015-08-06T11:30:27Z</time></trkpt>
<trkpt lat="26.75223" lon="100.271259">
<time>2015-08-06T11:30:28Z</time></trkpt>
<trkpt lat="26.75233" lon="100.271129">
<time>2015-08-06T11:30:29Z</time></trkpt>
<trkpt lat="26.75239" lon="100.271049">
<time>2015-08-06T11:30:30Z</time></trkpt>
<trkpt lat="26.7524" lon="100.271029">
<time>2015-08-06T11:30:31Z</time></trkpt>
<trkpt lat="26.75241" lon="100.271019">
<time>2015-08-06T11:30:32Z</time></trkpt>
<trkpt lat="26.75241" lon="100.271009">
<time>2015-08-06T11:30:33Z</time></trkpt>
<trkpt lat="26.75241" lon="100.27098">
<time>2015-08-06T11:30:34Z</time></trkpt>
<trkpt lat="26.75241" lon="100.27098">
<time>2015-08-06T11:30:35Z</time></trkpt>
<trkpt lat="26.7524" lon="100.27095">
<time>2015-08-06T11:30:36Z</time></trkpt>
<trkpt lat="26.75239" lon="100.27092">
<time>2015-08-06T11:30:37Z</time></trkpt>
<trkpt lat="26.75238" lon="100.2709">
<time>2015-08-06T11:30:38Z</time></trkpt>
<trkpt lat="26.75236" lon="100.27088">
<time>2015-08-06T11:30:39Z</time></trkpt>
<trkpt lat="26.75231" lon="100.27083">
<time>2015-08-06T11:30:40Z</time></trkpt>
<trkpt lat="26.75226" lon="100.27079">
<time>2015-08-06T11:30:41Z</time></trkpt>
<trkpt lat="26.75223" lon="100.27077">
<time>2015-08-06T11:30:42Z</time></trkpt>
<trkpt lat="26.75223" lon="100.27077">
<time>2015-08-06T11:30:43Z</time></trkpt>
<trkpt lat="26.75223" lon="100.27074">
<time>2015-08-06T11:30:44Z</time></trkpt>
<trkpt lat="26.75224" lon="100.27072">
<time>2015-08-06T11:30:45Z</time></trkpt>
<trkpt lat="26.75226" lon="100.27071">
<time>2015-08-06T11:30:46Z</time></trkpt>
<trkpt lat="26.7523" lon="100.27069">
<time>2015-08-06T11:30:47Z</time></trkpt>
<trkpt lat="26.75235" lon="100.27067">
<time>2015-08-06T11:30:48Z</time></trkpt>
<trkpt lat="26.75239" lon="100.27064">
<time>2015-08-06T11:30:49Z</time></trkpt>
<trkpt lat="26.75242" lon="100.27059">
<time>2015-08-06T11:30:50Z</time></trkpt>
<trkpt lat="26.75244" lon="100.27054">
<time>2015-08-06T11:30:51Z</time></trkpt>
<trkpt lat="26.75243" lon="100.27046">
<time>2015-08-06T11:30:52Z</time></trkpt>
<trkpt lat="26.75241" lon="100.27035">
<time>2015-08-06T11:30:53Z</time></trkpt>
<trkpt lat="26.752371" lon="100.27022">
<time>2015-08-06T11:30:54Z</time></trkpt>
<trkpt lat="26.752321" lon="100.27006">
<time>2015-08-06T11:30:55Z</time></trkpt>
<trkpt lat="26.752311" lon="100.27001">
<time>2015-08-06T11:30:56Z</time></trkpt>
<trkpt lat="26.752301" lon="100.26997">
<time>2015-08-06T11:30:57Z</time></trkpt>
<trkpt lat="26.752301" lon="100.26993">
<time>2015-08-06T11:30:58Z</time></trkpt>
<trkpt lat="26.752311" lon="100.269901">
<time>2015-08-06T11:30:59Z</time></trkpt>
<trkpt lat="26.752311" lon="100.269881">
<time>2015-08-06T11:31:00Z</time></trkpt>
<trkpt lat="26.752321" lon="100.269861">
<time>2015-08-06T11:31:01Z</time></trkpt>
<trkpt lat="26.752341" lon="100.269831">
<time>2015-08-06T11:31:02Z</time></trkpt>
<trkpt lat="26.752361" lon="100.269801">
<time>2015-08-06T11:31:03Z</time></trkpt>
<trkpt lat="26.752391" lon="100.269781">
<time>2015-08-06T11:31:04Z</time></trkpt>
<trkpt lat="26.752421" lon="100.269761">
<time>2015-08-06T11:31:05Z</time></trkpt>
<trkpt lat="26.752481" lon="100.269731">
<time>2015-08-06T11:31:06Z</time></trkpt>
<trkpt lat="26.752481" lon="100.269731">
<time>2015-08-06T11:31:07Z</time></trkpt>
<trkpt lat="26.752451" lon="100.269721">
<time>2015-08-06T11:31:08Z</time></trkpt>
<trkpt lat="26.752431" lon="100.269701">
<time>2015-08-06T11:31:09Z</time></trkpt>
<trkpt lat="26.752401" lon="100.269691">
<time>2015-08-06T11:31:10Z</time></trkpt>
<trkpt lat="26.752371" lon="100.269661">
<time>2015-08-06T11:31:11Z</time></trkpt>
<trkpt lat="26.752351" lon="100.269621">
<time>2015-08-06T11:31:12Z</time></trkpt>
<trkpt lat="26.752311" lon="100.269561">
<time>2015-08-06T11:31:13Z</time></trkpt>
<trkpt lat="26.752281" lon="100.269521">
<time>2015-08-06T11:31:14Z</time></trkpt>
<trkpt lat="26.752261" lon="100.269481">
<time>2015-08-06T11:31:15Z</time></trkpt>
<trkpt lat="26.752251" lon="100.269451">
<time>2015-08-06T11:31:16Z</time></trkpt>
<trkpt lat="26.752231" lon="100.269411">
<time>2015-08-06T11:31:17Z</time></trkpt>
<trkpt lat="26.752211" lon="100.269371">
<time>2015-08-06T11:31:18Z</time></trkpt>
<trkpt lat="26.752181" lon="100.269271">
<time>2015-08-06T11:31:19Z</time></trkpt>
<trkpt lat="26.752282" lon="100.268951">
<time>2015-08-06T11:31:20Z</time></trkpt>
<trkpt lat="26.752302" lon="100.268702">
<time>2015-08-06T11:31:21Z</time></trkpt>
<trkpt lat="26.752332" lon="100.268522">
<time>2015-08-06T11:31:22Z</time></trkpt>
<trkpt lat="26.752422" lon="100.268222">
<time>2015-08-06T11:31:23Z</time></trkpt>
<trkpt lat="26.752572" lon="100.267892">
<time>2015-08-06T11:31:24Z</time></trkpt>
<trkpt lat="26.752602" lon="100.267752">
<time>2015-08-06T11:31:25Z</time></trkpt>
<trkpt lat="26.752563" lon="100.267213">
<time>2015-08-06T11:31:26Z</time></trkpt>
<trkpt lat="26.752503" lon="100.267023">
<time>2015-08-06T11:31:27Z</time></trkpt>
<trkpt lat="26.752423" lon="100.266863">
<time>2015-08-06T11:31:28Z</time></trkpt>
<trkpt lat="26.752313" lon="100.266683">
<time>2015-08-06T11:31:29Z</time></trkpt>
<trkpt lat="26.752054" lon="100.266144">
<time>2015-08-06T11:31:30Z</time></trkpt>
<trkpt lat="26.752004" lon="100.266054">
<time>2015-08-06T11:31:31Z</time></trkpt>
<trkpt lat="26.751944" lon="100.265994">
<time>2015-08-06T11:31:32Z</time></trkpt>
<trkpt lat="26.751874" lon="100.265944">
<time>2015-08-06T11:31:33Z</time></trkpt>
<trkpt lat="26.751814" lon="100.265934">
<time>2015-08-06T11:31:34Z</time></trkpt>
<trkpt lat="26.751434" lon="100.265844">
<time>2015-08-06T11:31:35Z</time></trkpt>
<trkpt lat="26.751344" lon="100.265804">
<time>2015-08-06T11:31:36Z</time></trkpt>
<trkpt lat="26.750934" lon="100.265534">
<time>2015-08-06T11:31:37Z</time></trkpt>
<trkpt lat="26.750844" lon="100.265504">
<time>2015-08-06T11:31:38Z</time></trkpt>
<trkpt lat="26.750554" lon="100.265524">
<time>2015-08-06T11:31:39Z</time></trkpt>
<trkpt lat="26.750474" lon="100.265494">
<time>2015-08-06T11:31:40Z</time></trkpt>
<trkpt lat="26.750454" lon="100.265484">
<time>2015-08-06T11:31:41Z</time></trkpt>
<trkpt lat="26.750384" lon="100.265414">
<time>2015-08-06T11:31:42Z</time></trkpt>
<trkpt lat="26.750344" lon="100.265314">
<time>2015-08-06T11:31:43Z</time></trkpt>
<trkpt lat="26.750334" lon="100.265075">
<time>2015-08-06T11:31:44Z</time></trkpt>
<trkpt lat="26.750325" lon="100.264615">
<time>2015-08-06T11:31:45Z</time></trkpt>
<trkpt lat="26.750295" lon="100.264345">
<time>2015-08-06T11:31:46Z</time></trkpt>
<trkpt lat="26.750265" lon="100.264015">
<time>2015-08-06T11:31:47Z</time></trkpt>
<trkpt lat="26.750255" lon="100.263985">
<time>2015-08-06T11:31:48Z</time></trkpt>
<trkpt lat="26.750225" lon="100.263945">
<time>2015-08-06T11:31:49Z</time></trkpt>
<trkpt lat="26.750175" lon="100.263895">
<time>2015-08-06T11:31:50Z</time></trkpt>
<trkpt lat="26.750015" lon="100.263825">
<time>2015-08-06T11:31:51Z</time></trkpt>
<trkpt lat="26.749925" lon="100.263775">
<time>2015-08-06T11:31:52Z</time></trkpt>
<trkpt lat="26.749625" lon="100.263725">
<time>2015-08-06T11:31:53Z</time></trkpt>
<trkpt lat="26.749295" lon="100.263666">
<time>2015-08-06T11:31:54Z</time></trkpt>
<trkpt lat="26.749195" lon="100.263626">
<time>2015-08-06T11:31:55Z</time></trkpt>
<trkpt lat="26.748895" lon="100.263436">
<time>2015-08-06T11:31:56Z</time></trkpt>
<trkpt lat="26.748716" lon="100.263296">
<time>2015-08-06T11:31:57Z</time></trkpt>
<trkpt lat="26.748676" lon="100.263206">
<time>2015-08-06T11:31:58Z</time></trkpt>
<trkpt lat="26.748686" lon="100.263126">
<time>2015-08-06T11:31:59Z</time></trkpt>
<trkpt lat="26.748746" lon="100.263046">
<time>2015-08-06T11:32:00Z</time></trkpt>
<trkpt lat="26.748896" lon="100.262936">
<time>2015-08-06T11:32:01Z</time></trkpt>
<trkpt lat="26.748946" lon="100.262876">
<time>2015-08-06T11:32:02Z</time></trkpt>
<trkpt lat="26.748976" lon="100.262786">
<time>2015-08-06T11:32:03Z</time></trkpt>
<trkpt lat="26.748986" lon="100.262676">
<time>2015-08-06T11:32:04Z</time></trkpt>
<trkpt lat="26.748976" lon="100.262566">
<time>2015-08-06T11:32:05Z</time></trkpt>
<trkpt lat="26.748896" lon="100.262346">
<time>2015-08-06T11:32:06Z</time></trkpt>
<trkpt lat="26.748676" lon="100.261907">
<time>2015-08-06T11:32:07Z</time></trkpt>
<trkpt lat="26.748417" lon="100.261387">
<time>2015-08-06T11:32:08Z</time></trkpt>
<trkpt lat="26.748247" lon="100.260927">
<time>2015-08-06T11:32:09Z</time></trkpt>
<trkpt lat="26.748157" lon="100.260647">
<time>2015-08-06T11:32:10Z</time></trkpt>
<trkpt lat="26.748007" lon="100.260457">
<time>2015-08-06T11:32:11Z</time></trkpt>
<trkpt lat="26.747867" lon="100.260218">
<time>2015-08-06T11:32:12Z</time></trkpt>
<trkpt lat="26.747787" lon="100.260128">
<time>2015-08-06T11:32:13Z</time></trkpt>
<trkpt lat="26.747567" lon="100.259958">
<time>2015-08-06T11:32:14Z</time></trkpt>
<trkpt lat="26.747357" lon="100.259688">
<time>2015-08-06T11:32:15Z</time></trkpt>
<trkpt lat="26.747217" lon="100.259408">
<time>2015-08-06T11:32:16Z</time></trkpt>
<trkpt lat="26.746968" lon="100.258948">
<time>2015-08-06T11:32:17Z</time></trkpt>
<trkpt lat="26.746888" lon="100.258688">
<time>2015-08-06T11:32:18Z</time></trkpt>
<trkpt lat="26.746838" lon="100.258558">
<time>2015-08-06T11:32:19Z</time></trkpt>
<trkpt lat="26.746748" lon="100.258458">
<time>2015-08-06T11:32:20Z</time></trkpt>
<trkpt lat="26.746638" lon="100.258399">
<time>2015-08-06T11:32:21Z</time></trkpt>
<trkpt lat="26.746518" lon="100.258359">
<time>2015-08-06T11:32:22Z</time></trkpt>
<trkpt lat="26.746168" lon="100.258289">
<time>2015-08-06T11:32:23Z</time></trkpt>
<trkpt lat="26.746078" lon="100.258239">
<time>2015-08-06T11:32:24Z</time></trkpt>
<trkpt lat="26.745938" lon="100.258119">
<time>2015-08-06T11:32:25Z</time></trkpt>
<trkpt lat="26.745548" lon="100.257909">
<time>2015-08-06T11:32:26Z</time></trkpt>
<trkpt lat="26.745368" lon="100.257739">
<time>2015-08-06T11:32:27Z</time></trkpt>
<trkpt lat="26.745328" lon="100.257629">
<time>2015-08-06T11:32:28Z</time></trkpt>
<trkpt lat="26.745138" lon="100.257309">
<time>2015-08-06T11:32:29Z</time></trkpt>
<trkpt lat="26.744799" lon="100.256939">
<time>2015-08-06T11:32:30Z</time></trkpt>
<trkpt lat="26.744689" lon="100.256769">
<time>2015-08-06T11:32:31Z</time></trkpt>
<trkpt lat="26.744629" lon="100.256709">
<time>2015-08-06T11:32:32Z</time></trkpt>
<trkpt lat="26.744229" lon="100.256339">
<time>2015-08-06T11:32:33Z</time></trkpt>
<trkpt lat="26.744049" lon="100.256219">
<time>2015-08-06T11:32:34Z</time></trkpt>
<trkpt lat="26.743719" lon="100.25605">
<time>2015-08-06T11:32:35Z</time></trkpt>
<trkpt lat="26.743369" lon="100.25595">
<time>2015-08-06T11:32:36Z</time></trkpt>
<trkpt lat="26.743039" lon="100.2559">
<time>2015-08-06T11:32:37Z</time></trkpt>
<trkpt lat="26.742929" lon="100.2559">
<time>2015-08-06T11:32:38Z</time></trkpt>
<trkpt lat="26.742519" lon="100.25596">
<time>2015-08-06T11:32:39Z</time></trkpt>
<trkpt lat="26.742109" lon="100.25595">
<time>2015-08-06T11:32:40Z</time></trkpt>
<trkpt lat="26.741739" lon="100.25586">
<time>2015-08-06T11:32:41Z</time></trkpt>
<trkpt lat="26.741199" lon="100.25568">
<time>2015-08-06T11:32:42Z</time></trkpt>
<trkpt lat="26.740829" lon="100.25566">
<time>2015-08-06T11:32:43Z</time></trkpt>
<trkpt lat="26.740579" lon="100.25568">
<time>2015-08-06T11:32:44Z</time></trkpt>
<trkpt lat="26.740479" lon="100.25567">
<time>2015-08-06T11:32:45Z</time></trkpt>
<trkpt lat="26.740329" lon="100.25564">
<time>2015-08-06T11:32:46Z</time></trkpt>
<trkpt lat="26.739969" lon="100.25556">
<time>2015-08-06T11:32:47Z</time></trkpt>
<trkpt lat="26.739879" lon="100.25551">
<time>2015-08-06T11:32:48Z</time></trkpt>
<trkpt lat="26.739779" lon="100.25548">
<time>2015-08-06T11:32:49Z</time></trkpt>
<trkpt lat="26.739669" lon="100.25541">
<time>2015-08-06T11:32:50Z</time></trkpt>
<trkpt lat="26.739609" lon="100.2553">
<time>2015-08-06T11:32:51Z</time></trkpt>
<trkpt lat="26.739579" lon="100.25518">
<time>2015-08-06T11:32:52Z</time></trkpt>
<trkpt lat="26.739519" lon="100.25453">
<time>2015-08-06T11:32:53Z</time></trkpt>
<trkpt lat="26.73948" lon="100.25426">
<time>2015-08-06T11:32:54Z</time></trkpt>
<trkpt lat="26.73936" lon="100.25372">
<time>2015-08-06T11:32:55Z</time></trkpt>
<trkpt lat="26.73922" lon="100.25318">
<time>2015-08-06T11:32:56Z</time></trkpt>
<trkpt lat="26.73907" lon="100.252771">
<time>2015-08-06T11:32:57Z</time></trkpt>
<trkpt lat="26.739" lon="100.252621">
<time>2015-08-06T11:32:58Z</time></trkpt>
<trkpt lat="26.7389" lon="100.252491">
<time>2015-08-06T11:32:59Z</time></trkpt>
<trkpt lat="26.73878" lon="100.252411">
<time>2015-08-06T11:33:00Z</time></trkpt>
<trkpt lat="26.73853" lon="100.252241">
<time>2015-08-06T11:33:01Z</time></trkpt>
<trkpt lat="26.73825" lon="100.252041">
<time>2015-08-06T11:33:02Z</time></trkpt>
<trkpt lat="26.73821" lon="100.252011">
<time>2015-08-06T11:33:03Z</time></trkpt>
<trkpt lat="26.73785" lon="100.251771">
<time>2015-08-06T11:33:04Z</time></trkpt>
<trkpt lat="26.73762" lon="100.251591">
<time>2015-08-06T11:33:05Z</time></trkpt>
<trkpt lat="26.73738" lon="100.251431">
<time>2015-08-06T11:33:06Z</time></trkpt>
<trkpt lat="26.73724" lon="100.251321">
<time>2015-08-06T11:33:07Z</time></trkpt>
<trkpt lat="26.73688" lon="100.251041">
<time>2015-08-06T11:33:08Z</time></trkpt>
<trkpt lat="26.73664" lon="100.250861">
<time>2015-08-06T11:33:09Z</time></trkpt>
<trkpt lat="26.73637" lon="100.250671">
<time>2015-08-06T11:33:10Z</time></trkpt>
<trkpt lat="26.73611" lon="100.250501">
<time>2015-08-06T11:33:11Z</time></trkpt>
<trkpt lat="26.73558" lon="100.250241">
<time>2015-08-06T11:33:12Z</time></trkpt>
<trkpt lat="26.73536" lon="100.250111">
<time>2015-08-06T11:33:13Z</time></trkpt>
<trkpt lat="26.73523" lon="100.250021">
<time>2015-08-06T11:33:14Z</time></trkpt>
<trkpt lat="26.73496" lon="100.249821">
<time>2015-08-06T11:33:15Z</time></trkpt>
<trkpt lat="26.73477" lon="100.249641">
<time>2015-08-06T11:33:16Z</time></trkpt>
<trkpt lat="26.73448" lon="100.249351">
<time>2015-08-06T11:33:17Z</time></trkpt>
<trkpt lat="26.73407" lon="100.248981">
<time>2015-08-06T11:33:18Z</time></trkpt>
<trkpt lat="26.73368" lon="100.248511">
<time>2015-08-06T11:33:19Z</time></trkpt>
<trkpt lat="26.73345" lon="100.248261">
<time>2015-08-06T11:33:20Z</time></trkpt>
<trkpt lat="26.73321" lon="100.247991">
<time>2015-08-06T11:33:21Z</time></trkpt>
<trkpt lat="26.732981" lon="100.247721">
<time>2015-08-06T11:33:22Z</time></trkpt>
<trkpt lat="26.732671" lon="100.247331">
<time>2015-08-06T11:33:23Z</time></trkpt>
<trkpt lat="26.73254" lon="100.247111">
<time>2015-08-06T11:33:24Z</time></trkpt>
<trkpt lat="26.73236" lon="100.246771">
<time>2015-08-06T11:33:25Z</time></trkpt>
<trkpt lat="26.73234" lon="100.246741">
<time>2015-08-06T11:33:26Z</time></trkpt>
<trkpt lat="26.73223" lon="100.246591">
<time>2015-08-06T11:33:27Z</time></trkpt>
<trkpt lat="26.732" lon="100.246411">
<time>2015-08-06T11:33:28Z</time></trkpt>
<trkpt lat="26.73183" lon="100.246341">
<time>2015-08-06T11:33:29Z</time></trkpt>
<trkpt lat="26.7316" lon="100.246261">
<time>2015-08-06T11:33:30Z</time></trkpt>
<trkpt lat="26.73127" lon="100.246201">
<time>2015-08-06T11:33:31Z</time></trkpt>
<trkpt lat="26.730951" lon="100.246161">
<time>2015-08-06T11:33:32Z</time></trkpt>
<trkpt lat="26.730071" lon="100.246281">
<time>2015-08-06T11:33:33Z</time></trkpt>
<trkpt lat="26.729581" lon="100.246391">
<time>2015-08-06T11:33:34Z</time></trkpt>
<trkpt lat="26.729221" lon="100.246481">
<time>2015-08-06T11:33:35Z</time></trkpt>
<trkpt lat="26.728901" lon="100.246601">
<time>2015-08-06T11:33:36Z</time></trkpt>
<trkpt lat="26.728691" lon="100.246681">
<time>2015-08-06T11:33:37Z</time></trkpt>
<trkpt lat="26.728481" lon="100.246791">
<time>2015-08-06T11:33:38Z</time></trkpt>
<trkpt lat="26.728201" lon="100.246861">
<time>2015-08-06T11:33:39Z</time></trkpt>
<trkpt lat="26.728021" lon="100.246941">
<time>2015-08-06T11:33:40Z</time></trkpt>
<trkpt lat="26.727861" lon="100.246981">
<time>2015-08-06T11:33:41Z</time></trkpt>
<trkpt lat="26.727611" lon="100.247001">
<time>2015-08-06T11:33:42Z</time></trkpt>
<trkpt lat="26.727301" lon="100.246981">
<time>2015-08-06T11:33:43Z</time></trkpt>
<trkpt lat="26.727221" lon="100.246951">
<time>2015-08-06T11:33:44Z</time></trkpt>
<trkpt lat="26.727221" lon="100.246951">
<time>2015-08-06T11:33:45Z</time></trkpt>
<trkpt lat="26.727231" lon="100.246881">
<time>2015-08-06T11:33:46Z</time></trkpt>
<trkpt lat="26.727261" lon="100.246621">
<time>2015-08-06T11:33:47Z</time></trkpt>
<trkpt lat="26.727041" lon="100.246581">
<time>2015-08-06T11:33:48Z</time></trkpt>
<trkpt lat="26.726281" lon="100.246291">
<time>2015-08-06T11:33:49Z</time></trkpt>
<trkpt lat="26.726031" lon="100.246191">
<time>2015-08-06T11:33:50Z</time></trkpt>
<trkpt lat="26.725041" lon="100.245691">
<time>2015-08-06T11:33:51Z</time></trkpt>
<trkpt lat="26.724551" lon="100.245511">
<time>2015-08-06T11:33:52Z</time></trkpt>
<trkpt lat="26.724011" lon="100.245291">
<time>2015-08-06T11:33:53Z</time></trkpt>
<trkpt lat="26.723361" lon="100.244921">
<time>2015-08-06T11:33:54Z</time></trkpt>
<trkpt lat="26.722131" lon="100.244101">
<time>2015-08-06T11:33:55Z</time></trkpt>
<trkpt lat="26.722131" lon="100.244101">
<time>2015-08-06T11:33:56Z</time></trkpt>
<trkpt lat="26.722191" lon="100.243871">
<time>2015-08-06T11:33:57Z</time></trkpt>
<trkpt lat="26.722211" lon="100.243741">
<time>2015-08-06T11:33:58Z</time></trkpt>
<trkpt lat="26.722161" lon="100.243561">
<time>2015-08-06T11:33:59Z</time></trkpt>
<trkpt lat="26.72203" lon="100.243381">
<time>2015-08-06T11:34:00Z</time></trkpt>
<trkpt lat="26.72188" lon="100.243241">
<time>2015-08-06T11:34:01Z</time></trkpt>
<trkpt lat="26.72176" lon="100.243141">
<time>2015-08-06T11:34:02Z</time></trkpt>
<trkpt lat="26.72167" lon="100.243061">
<time>2015-08-06T11:34:03Z</time></trkpt>
<trkpt lat="26.72138" lon="100.242731">
<time>2015-08-06T11:34:04Z</time></trkpt>
<trkpt lat="26.72126" lon="100.242631">
<time>2015-08-06T11:34:05Z</time></trkpt>
<trkpt lat="26.72105" lon="100.242441">
<time>2015-08-06T11:34:06Z</time></trkpt>
<trkpt lat="26.72099" lon="100.242341">
<time>2015-08-06T11:34:07Z</time></trkpt>
<trkpt lat="26.7209" lon="100.242261">
<time>2015-08-06T11:34:08Z</time></trkpt>
<trkpt lat="26.72079" lon="100.242191">
<time>2015-08-06T11:34:09Z</time></trkpt>
<trkpt lat="26.7207" lon="100.242101">
<time>2015-08-06T11:34:10Z</time></trkpt>
<trkpt lat="26.72059" lon="100.242031">
<time>2015-08-06T11:34:11Z</time></trkpt>
<trkpt lat="26.72032" lon="100.241721">
<time>2015-08-06T11:34:12Z</time></trkpt>
<trkpt lat="26.71962" lon="100.24107">
<time>2015-08-06T11:34:13Z</time></trkpt>
<trkpt lat="26.71925" lon="100.2407">
<time>2015-08-06T11:34:14Z</time></trkpt>
<trkpt lat="26.71915" lon="100.24061">
<time>2015-08-06T11:34:15Z</time></trkpt>
<trkpt lat="26.71884" lon="100.24033">
<time>2015-08-06T11:34:16Z</time></trkpt>
<trkpt lat="26.71873" lon="100.24026">
<time>2015-08-06T11:34:17Z</time></trkpt>
<trkpt lat="26.71865" lon="100.2402">
<time>2015-08-06T11:34:18Z</time></trkpt>
<trkpt lat="26.71822" lon="100.23985">
<time>2015-08-06T11:34:19Z</time></trkpt>
<trkpt lat="26.71812" lon="100.23981">
<time>2015-08-06T11:34:20Z</time></trkpt>
<trkpt lat="26.718" lon="100.23977">
<time>2015-08-06T11:34:21Z</time></trkpt>
<trkpt lat="26.71791" lon="100.23972">
<time>2015-08-06T11:34:22Z</time></trkpt>
<trkpt lat="26.7178" lon="100.23965">
<time>2015-08-06T11:34:23Z</time></trkpt>
<trkpt lat="26.71772" lon="100.23954">
<time>2015-08-06T11:34:24Z</time></trkpt>
<trkpt lat="26.71766" lon="100.23941">
<time>2015-08-06T11:34:25Z</time></trkpt>
<trkpt lat="26.717569" lon="100.23912">
<time>2015-08-06T11:34:26Z</time></trkpt>
<trkpt lat="26.717479" lon="100.23902">
<time>2015-08-06T11:34:27Z</time></trkpt>
<trkpt lat="26.717069" lon="100.23879">
<time>2015-08-06T11:34:28Z</time></trkpt>
<trkpt lat="26.716919" lon="100.23873">
<time>2015-08-06T11:34:29Z</time></trkpt>
<trkpt lat="26.716659" lon="100.23862">
<time>2015-08-06T11:34:30Z</time></trkpt>
<trkpt lat="26.716439" lon="100.2385">
<time>2015-08-06T11:34:31Z</time></trkpt>
<trkpt lat="26.716229" lon="100.2384">
<time>2015-08-06T11:34:32Z</time></trkpt>
<trkpt lat="26.716109" lon="100.23836">
<time>2015-08-06T11:34:33Z</time></trkpt>
<trkpt lat="26.715959" lon="100.23828">
<time>2015-08-06T11:34:34Z</time></trkpt>
<trkpt lat="26.715809" lon="100.23812">
<time>2015-08-06T11:34:35Z</time></trkpt>
<trkpt lat="26.715749" lon="100.238019">
<time>2015-08-06T11:34:36Z</time></trkpt>
<trkpt lat="26.715659" lon="100.237939">
<time>2015-08-06T11:34:37Z</time></trkpt>
<trkpt lat="26.715429" lon="100.237819">
<time>2015-08-06T11:34:38Z</time></trkpt>
<trkpt lat="26.715329" lon="100.237759">
<time>2015-08-06T11:34:39Z</time></trkpt>
<trkpt lat="26.715229" lon="100.237669">
<time>2015-08-06T11:34:40Z</time></trkpt>
<trkpt lat="26.714999" lon="100.237359">
<time>2015-08-06T11:34:41Z</time></trkpt>
<trkpt lat="26.714809" lon="100.237149">
<time>2015-08-06T11:34:42Z</time></trkpt>
<trkpt lat="26.714709" lon="100.237069">
<time>2015-08-06T11:34:43Z</time></trkpt>
<trkpt lat="26.714589" lon="100.237019">
<time>2015-08-06T11:34:44Z</time></trkpt>
<trkpt lat="26.714459" lon="100.237019">
<time>2015-08-06T11:34:45Z</time></trkpt>
<trkpt lat="26.714129" lon="100.236939">
<time>2015-08-06T11:34:46Z</time></trkpt>
<trkpt lat="26.714019" lon="100.236939">
<time>2015-08-06T11:34:47Z</time></trkpt>
<trkpt lat="26.713629" lon="100.236809">
<time>2015-08-06T11:34:48Z</time></trkpt>
<trkpt lat="26.713209" lon="100.236669">
<time>2015-08-06T11:34:49Z</time></trkpt>
<trkpt lat="26.712889" lon="100.236579">
<time>2015-08-06T11:34:50Z</time></trkpt>
<trkpt lat="26.712659" lon="100.236479">
<time>2015-08-06T11:34:51Z</time></trkpt>
<trkpt lat="26.711488" lon="100.236179">
<time>2015-08-06T11:34:52Z</time></trkpt>
<trkpt lat="26.711378" lon="100.236149">
<time>2015-08-06T11:34:53Z</time></trkpt>
<trkpt lat="26.709618" lon="100.236159">
<time>2015-08-06T11:34:54Z</time></trkpt>
<trkpt lat="26.709488" lon="100.236109">
<time>2015-08-06T11:34:55Z</time></trkpt>
<trkpt lat="26.709378" lon="100.236039">
<time>2015-08-06T11:34:56Z</time></trkpt>
<trkpt lat="26.709288" lon="100.235999">
<time>2015-08-06T11:34:57Z</time></trkpt>
<trkpt lat="26.709138" lon="100.235909">
<time>2015-08-06T11:34:58Z</time></trkpt>
<trkpt lat="26.708928" lon="100.235789">
<time>2015-08-06T11:34:59Z</time></trkpt>
<trkpt lat="26.708588" lon="100.235689">
<time>2015-08-06T11:35:00Z</time></trkpt>
<trkpt lat="26.708458" lon="100.235669">
<time>2015-08-06T11:35:01Z</time></trkpt>
<trkpt lat="26.708168" lon="100.235679">
<time>2015-08-06T11:35:02Z</time></trkpt>
<trkpt lat="26.708028" lon="100.235709">
<time>2015-08-06T11:35:03Z</time></trkpt>
<trkpt lat="26.707888" lon="100.235769">
<time>2015-08-06T11:35:04Z</time></trkpt>
<trkpt lat="26.707638" lon="100.235969">
<time>2015-08-06T11:35:05Z</time></trkpt>
<trkpt lat="26.707368" lon="100.236149">
<time>2015-08-06T11:35:06Z</time></trkpt>
<trkpt lat="26.707229" lon="100.236209">
<time>2015-08-06T11:35:07Z</time></trkpt>
<trkpt lat="26.707089" lon="100.236229">
<time>2015-08-06T11:35:08Z</time></trkpt>
<trkpt lat="26.706799" lon="100.236229">
<time>2015-08-06T11:35:09Z</time></trkpt>
<trkpt lat="26.706389" lon="100.236289">
<time>2015-08-06T11:35:10Z</time></trkpt>
<trkpt lat="26.706129" lon="100.236229">
<time>2015-08-06T11:35:11Z</time></trkpt>
<trkpt lat="26.705899" lon="100.236119">
<time>2015-08-06T11:35:12Z</time></trkpt>
<trkpt lat="26.705758" lon="100.236059">
<time>2015-08-06T11:35:13Z</time></trkpt>
<trkpt lat="26.705578" lon="100.236089">
<time>2015-08-06T11:35:14Z</time></trkpt>
<trkpt lat="26.705309" lon="100.236189">
<time>2015-08-06T11:35:15Z</time></trkpt>
<trkpt lat="26.705099" lon="100.236199">
<time>2015-08-06T11:35:16Z</time></trkpt>
<trkpt lat="26.704969" lon="100.236239">
<time>2015-08-06T11:35:17Z</time></trkpt>
<trkpt lat="26.704709" lon="100.236369">
<time>2015-08-06T11:35:18Z</time></trkpt>
<trkpt lat="26.704519" lon="100.236419">
<time>2015-08-06T11:35:19Z</time></trkpt>
<trkpt lat="26.704229" lon="100.236439">
<time>2015-08-06T11:35:20Z</time></trkpt>
<trkpt lat="26.704159" lon="100.236489">
<time>2015-08-06T11:35:21Z</time></trkpt>
<trkpt lat="26.704099" lon="100.236569">
<time>2015-08-06T11:35:22Z</time></trkpt>
<trkpt lat="26.703999" lon="100.236749">
<time>2015-08-06T11:35:23Z</time></trkpt>
<trkpt lat="26.703949" lon="100.236799">
<time>2015-08-06T11:35:24Z</time></trkpt>
<trkpt lat="26.703869" lon="100.236799">
<time>2015-08-06T11:35:25Z</time></trkpt>
<trkpt lat="26.703819" lon="100.236779">
<time>2015-08-06T11:35:26Z</time></trkpt>
<trkpt lat="26.703789" lon="100.236719">
<time>2015-08-06T11:35:27Z</time></trkpt>
<trkpt lat="26.703789" lon="100.236449">
<time>2015-08-06T11:35:28Z</time></trkpt>
<trkpt lat="26.703798" lon="100.235859">
<time>2015-08-06T11:35:29Z</time></trkpt>
<trkpt lat="26.703778" lon="100.235799">
<time>2015-08-06T11:35:30Z</time></trkpt>
<trkpt lat="26.703698" lon="100.235779">
<time>2015-08-06T11:35:31Z</time></trkpt>
<trkpt lat="26.703658" lon="100.235819">
<time>2015-08-06T11:35:32Z</time></trkpt>
<trkpt lat="26.703598" lon="100.235949">
<time>2015-08-06T11:35:33Z</time></trkpt>
<trkpt lat="26.703579" lon="100.236059">
<time>2015-08-06T11:35:34Z</time></trkpt>
<trkpt lat="26.703329" lon="100.236539">
<time>2015-08-06T11:35:35Z</time></trkpt>
<trkpt lat="26.703249" lon="100.236709">
<time>2015-08-06T11:35:36Z</time></trkpt>
<trkpt lat="26.703159" lon="100.236829">
<time>2015-08-06T11:35:37Z</time></trkpt>
<trkpt lat="26.702949" lon="100.237169">
<time>2015-08-06T11:35:38Z</time></trkpt>
<trkpt lat="26.702869" lon="100.237279">
<time>2015-08-06T11:35:39Z</time></trkpt>
<trkpt lat="26.702819" lon="100.237319">
<time>2015-08-06T11:35:40Z</time></trkpt>
<trkpt lat="26.702769" lon="100.237339">
<time>2015-08-06T11:35:41Z</time></trkpt>
<trkpt lat="26.702709" lon="100.237309">
<time>2015-08-06T11:35:42Z</time></trkpt>
<trkpt lat="26.702659" lon="100.237159">
<time>2015-08-06T11:35:43Z</time></trkpt>
<trkpt lat="26.702649" lon="100.237099">
<time>2015-08-06T11:35:44Z</time></trkpt>
<trkpt lat="26.702619" lon="100.236959">
<time>2015-08-06T11:35:45Z</time></trkpt>
<trkpt lat="26.702529" lon="100.236689">
<time>2015-08-06T11:35:46Z</time></trkpt>
<trkpt lat="26.702429" lon="100.236389">
<time>2015-08-06T11:35:47Z</time></trkpt>
<trkpt lat="26.702259" lon="100.236099">
<time>2015-08-06T11:35:48Z</time></trkpt>
<trkpt lat="26.702189" lon="100.236019">
<time>2015-08-06T11:35:49Z</time></trkpt>
<trkpt lat="26.702108" lon="100.235959">
<time>2015-08-06T11:35:50Z</time></trkpt>
<trkpt lat="26.702038" lon="100.235909">
<time>2015-08-06T11:35:51Z</time></trkpt>
<trkpt lat="26.701938" lon="100.235859">
<time>2015-08-06T11:35:52Z</time></trkpt>
<trkpt lat="26.701848" lon="100.235829">
<time>2015-08-06T11:35:53Z</time></trkpt>
<trkpt lat="26.701448" lon="100.235609">
<time>2015-08-06T11:35:54Z</time></trkpt>
<trkpt lat="26.701218" lon="100.235419">
<time>2015-08-06T11:35:55Z</time></trkpt>
<trkpt lat="26.701088" lon="100.235349">
<time>2015-08-06T11:35:56Z</time></trkpt>
<trkpt lat="26.700868" lon="100.235299">
<time>2015-08-06T11:35:57Z</time></trkpt>
<trkpt lat="26.700308" lon="100.235198">
<time>2015-08-06T11:35:58Z</time></trkpt>
<trkpt lat="26.700078" lon="100.235108">
<time>2015-08-06T11:35:59Z</time></trkpt>
<trkpt lat="26.699858" lon="100.234998">
<time>2015-08-06T11:36:00Z</time></trkpt>
<trkpt lat="26.699558" lon="100.234808">
<time>2015-08-06T11:36:01Z</time></trkpt>
<trkpt lat="26.699298" lon="100.234628">
<time>2015-08-06T11:36:02Z</time></trkpt>
<trkpt lat="26.698898" lon="100.234388">
<time>2015-08-06T11:36:03Z</time></trkpt>
<trkpt lat="26.698628" lon="100.234178">
<time>2015-08-06T11:36:04Z</time></trkpt>
<trkpt lat="26.698388" lon="100.233978">
<time>2015-08-06T11:36:05Z</time></trkpt>
<trkpt lat="26.698127" lon="100.233798">
<time>2015-08-06T11:36:06Z</time></trkpt>
<trkpt lat="26.698047" lon="100.233748">
<time>2015-08-06T11:36:07Z</time></trkpt>
<trkpt lat="26.697967" lon="100.233698">
<time>2015-08-06T11:36:08Z</time></trkpt>
<trkpt lat="26.697707" lon="100.233548">
<time>2015-08-06T11:36:09Z</time></trkpt>
<trkpt lat="26.697457" lon="100.233418">
<time>2015-08-06T11:36:10Z</time></trkpt>
<trkpt lat="26.697157" lon="100.233207">
<time>2015-08-06T11:36:11Z</time></trkpt>
<trkpt lat="26.696867" lon="100.233047">
<time>2015-08-06T11:36:12Z</time></trkpt>
<trkpt lat="26.696627" lon="100.232897">
<time>2015-08-06T11:36:13Z</time></trkpt>
<trkpt lat="26.696427" lon="100.232757">
<time>2015-08-06T11:36:14Z</time></trkpt>
<trkpt lat="26.696357" lon="100.232687">
<time>2015-08-06T11:36:15Z</time></trkpt>
<trkpt lat="26.696017" lon="100.232407">
<time>2015-08-06T11:36:16Z</time></trkpt>
<trkpt lat="26.695606" lon="100.232017">
<time>2015-08-06T11:36:17Z</time></trkpt>
<trkpt lat="26.695576" lon="100.231997">
<time>2015-08-06T11:36:18Z</time></trkpt>
<trkpt lat="26.695176" lon="100.231536">
<time>2015-08-06T11:36:19Z</time></trkpt>
<trkpt lat="26.694896" lon="100.231246">
<time>2015-08-06T11:36:20Z</time></trkpt>
<trkpt lat="26.694746" lon="100.231086">
<time>2015-08-06T11:36:21Z</time></trkpt>
<trkpt lat="26.694366" lon="100.230776">
<time>2015-08-06T11:36:22Z</time></trkpt>
<trkpt lat="26.694186" lon="100.230656">
<time>2015-08-06T11:36:23Z</time></trkpt>
<trkpt lat="26.694015" lon="100.230546">
<time>2015-08-06T11:36:24Z</time></trkpt>
<trkpt lat="26.693855" lon="100.230446">
<time>2015-08-06T11:36:25Z</time></trkpt>
<trkpt lat="26.693385" lon="100.230115">
<time>2015-08-06T11:36:26Z</time></trkpt>
<trkpt lat="26.693115" lon="100.229995">
<time>2015-08-06T11:36:27Z</time></trkpt>
<trkpt lat="26.692725" lon="100.229765">
<time>2015-08-06T11:36:28Z</time></trkpt>
<trkpt lat="26.692605" lon="100.229685">
<time>2015-08-06T11:36:29Z</time></trkpt>
<trkpt lat="26.692315" lon="100.229455">
<time>2015-08-06T11:36:30Z</time></trkpt>
<trkpt lat="26.691975" lon="100.229305">
<time>2015-08-06T11:36:31Z</time></trkpt>
<trkpt lat="26.691805" lon="100.229215">
<time>2015-08-06T11:36:32Z</time></trkpt>
<trkpt lat="26.691634" lon="100.229135">
<time>2015-08-06T11:36:33Z</time></trkpt>
<trkpt lat="26.691444" lon="100.229055">
<time>2015-08-06T11:36:34Z</time></trkpt>
<trkpt lat="26.690934" lon="100.228914">
<time>2015-08-06T11:36:35Z</time></trkpt>
<trkpt lat="26.690514" lon="100.228794">
<time>2015-08-06T11:36:36Z</time></trkpt>
<trkpt lat="26.690324" lon="100.228704">
<time>2015-08-06T11:36:37Z</time></trkpt>
<trkpt lat="26.690154" lon="100.228664">
<time>2015-08-06T11:36:38Z</time></trkpt>
<trkpt lat="26.689774" lon="100.228534">
<time>2015-08-06T11:36:39Z</time></trkpt>
<trkpt lat="26.689464" lon="100.228434">
<time>2015-08-06T11:36:40Z</time></trkpt>
<trkpt lat="26.688994" lon="100.228244">
<time>2015-08-06T11:36:41Z</time></trkpt>
<trkpt lat="26.688844" lon="100.228204">
<time>2015-08-06T11:36:42Z</time></trkpt>
<trkpt lat="26.688694" lon="100.228184">
<time>2015-08-06T11:36:43Z</time></trkpt>
<trkpt lat="26.688454" lon="100.228114">
<time>2015-08-06T11:36:44Z</time></trkpt>
<trkpt lat="26.688014" lon="100.227944">
<time>2015-08-06T11:36:45Z</time></trkpt>
<trkpt lat="26.687904" lon="100.227884">
<time>2015-08-06T11:36:46Z</time></trkpt>
<trkpt lat="26.687703" lon="100.227734">
<time>2015-08-06T11:36:47Z</time></trkpt>
<trkpt lat="26.687433" lon="100.227583">
<time>2015-08-06T11:36:48Z</time></trkpt>
<trkpt lat="26.687103" lon="100.227303">
<time>2015-08-06T11:36:49Z</time></trkpt>
<trkpt lat="26.686603" lon="100.226983">
<time>2015-08-06T11:36:50Z</time></trkpt>
<trkpt lat="26.686253" lon="100.226683">
<time>2015-08-06T11:36:51Z</time></trkpt>
<trkpt lat="26.685952" lon="100.226493">
<time>2015-08-06T11:36:52Z</time></trkpt>
<trkpt lat="26.685632" lon="100.226232">
<time>2015-08-06T11:36:53Z</time></trkpt>
<trkpt lat="26.685532" lon="100.226142">
<time>2015-08-06T11:36:54Z</time></trkpt>
<trkpt lat="26.685482" lon="100.226092">
<time>2015-08-06T11:36:55Z</time></trkpt>
<trkpt lat="26.685432" lon="100.226042">
<time>2015-08-06T11:36:56Z</time></trkpt>
<trkpt lat="26.685102" lon="100.225742">
<time>2015-08-06T11:36:57Z</time></trkpt>
<trkpt lat="26.684802" lon="100.225522">
<time>2015-08-06T11:36:58Z</time></trkpt>
<trkpt lat="26.684672" lon="100.225382">
<time>2015-08-06T11:36:59Z</time></trkpt>
<trkpt lat="26.684291" lon="100.225051">
<time>2015-08-06T11:37:00Z</time></trkpt>
<trkpt lat="26.684021" lon="100.224811">
<time>2015-08-06T11:37:01Z</time></trkpt>
<trkpt lat="26.683821" lon="100.224671">
<time>2015-08-06T11:37:02Z</time></trkpt>
<trkpt lat="26.683651" lon="100.224521">
<time>2015-08-06T11:37:03Z</time></trkpt>
<trkpt lat="26.683351" lon="100.224321">
<time>2015-08-06T11:37:04Z</time></trkpt>
<trkpt lat="26.68308" lon="100.22412">
<time>2015-08-06T11:37:05Z</time></trkpt>
<trkpt lat="26.68268" lon="100.22388">
<time>2015-08-06T11:37:06Z</time></trkpt>
<trkpt lat="26.68237" lon="100.22369">
<time>2015-08-06T11:37:07Z</time></trkpt>
<trkpt lat="26.68212" lon="100.22352">
<time>2015-08-06T11:37:08Z</time></trkpt>
<trkpt lat="26.68183" lon="100.22329">
<time>2015-08-06T11:37:09Z</time></trkpt>
<trkpt lat="26.681599" lon="100.223139">
<time>2015-08-06T11:37:10Z</time></trkpt>
<trkpt lat="26.681449" lon="100.223049">
<time>2015-08-06T11:37:11Z</time></trkpt>
<trkpt lat="26.681369" lon="100.222989">
<time>2015-08-06T11:37:12Z</time></trkpt>
<trkpt lat="26.681109" lon="100.222819">
<time>2015-08-06T11:37:13Z</time></trkpt>
<trkpt lat="26.680939" lon="100.222689">
<time>2015-08-06T11:37:14Z</time></trkpt>
<trkpt lat="26.680799" lon="100.222609">
<time>2015-08-06T11:37:15Z</time></trkpt>
<trkpt lat="26.680729" lon="100.222549">
<time>2015-08-06T11:37:16Z</time></trkpt>
<trkpt lat="26.680569" lon="100.222449">
<time>2015-08-06T11:37:17Z</time></trkpt>
<trkpt lat="26.679668" lon="100.221898">
<time>2015-08-06T11:37:18Z</time></trkpt>
<trkpt lat="26.679448" lon="100.221758">
<time>2015-08-06T11:37:19Z</time></trkpt>
<trkpt lat="26.679298" lon="100.221668">
<time>2015-08-06T11:37:20Z</time></trkpt>
<trkpt lat="26.679138" lon="100.221618">
<time>2015-08-06T11:37:21Z</time></trkpt>
<trkpt lat="26.678938" lon="100.221498">
<time>2015-08-06T11:37:22Z</time></trkpt>
<trkpt lat="26.678377" lon="100.221057">
<time>2015-08-06T11:37:23Z</time></trkpt>
<trkpt lat="26.678367" lon="100.221057">
<time>2015-08-06T11:37:24Z</time></trkpt>
<trkpt lat="26.678157" lon="100.220897">
<time>2015-08-06T11:37:25Z</time></trkpt>
<trkpt lat="26.677797" lon="100.220687">
<time>2015-08-06T11:37:26Z</time></trkpt>
<trkpt lat="26.677597" lon="100.220547">
<time>2015-08-06T11:37:27Z</time></trkpt>
<trkpt lat="26.677317" lon="100.220357">
<time>2015-08-06T11:37:28Z</time></trkpt>
<trkpt lat="26.677167" lon="100.220246">
<time>2015-08-06T11:37:29Z</time></trkpt>
<trkpt lat="26.677087" lon="100.220166">
<time>2015-08-06T11:37:30Z</time></trkpt>
<trkpt lat="26.676986" lon="100.220096">
<time>2015-08-06T11:37:31Z</time></trkpt>
<trkpt lat="26.676026" lon="100.219576">
<time>2015-08-06T11:37:32Z</time></trkpt>
<trkpt lat="26.675686" lon="100.219355">
<time>2015-08-06T11:37:33Z</time></trkpt>
<trkpt lat="26.675245" lon="100.219085">
<time>2015-08-06T11:37:34Z</time></trkpt>
<trkpt lat="26.674485" lon="100.218615">
<time>2015-08-06T11:37:35Z</time></trkpt>
<trkpt lat="26.674165" lon="100.218484">
<time>2015-08-06T11:37:36Z</time></trkpt>
<trkpt lat="26.673815" lon="100.218354">
<time>2015-08-06T11:37:37Z</time></trkpt>
<trkpt lat="26.672704" lon="100.217984">
<time>2015-08-06T11:37:38Z</time></trkpt>
<trkpt lat="26.671754" lon="100.217563">
<time>2015-08-06T11:37:39Z</time></trkpt>
<trkpt lat="26.671253" lon="100.217333">
<time>2015-08-06T11:37:40Z</time></trkpt>
<trkpt lat="26.670443" lon="100.217023">
<time>2015-08-06T11:37:41Z</time></trkpt>
<trkpt lat="26.669793" lon="100.216742">
<time>2015-08-06T11:37:42Z</time></trkpt>
<trkpt lat="26.669143" lon="100.216662">
<time>2015-08-06T11:37:43Z</time></trkpt>
<trkpt lat="26.668483" lon="100.216732">
<time>2015-08-06T11:37:44Z</time></trkpt>
<trkpt lat="26.667953" lon="100.216743">
<time>2015-08-06T11:37:45Z</time></trkpt>
<trkpt lat="26.667623" lon="100.216692">
<time>2015-08-06T11:37:46Z</time></trkpt>
<trkpt lat="26.667483" lon="100.216642">
<time>2015-08-06T11:37:47Z</time></trkpt>
<trkpt lat="26.667392" lon="100.216602">
<time>2015-08-06T11:37:48Z</time></trkpt>
<trkpt lat="26.667282" lon="100.216512">
<time>2015-08-06T11:37:49Z</time></trkpt>
<trkpt lat="26.667212" lon="100.216442">
<time>2015-08-06T11:37:50Z</time></trkpt>
<trkpt lat="26.667112" lon="100.216342">
<time>2015-08-06T11:37:51Z</time></trkpt>
<trkpt lat="26.666932" lon="100.216232">
<time>2015-08-06T11:37:52Z</time></trkpt>
<trkpt lat="26.666872" lon="100.216202">
<time>2015-08-06T11:37:53Z</time></trkpt>
<trkpt lat="26.666682" lon="100.216082">
<time>2015-08-06T11:37:54Z</time></trkpt>
<trkpt lat="26.666011" lon="100.215671">
<time>2015-08-06T11:37:55Z</time></trkpt>
<trkpt lat="26.665821" lon="100.215571">
<time>2015-08-06T11:37:56Z</time></trkpt>
<trkpt lat="26.665521" lon="100.215381">
<time>2015-08-06T11:37:57Z</time></trkpt>
<trkpt lat="26.665431" lon="100.215301">
<time>2015-08-06T11:37:58Z</time></trkpt>
<trkpt lat="26.665281" lon="100.21509">
<time>2015-08-06T11:37:59Z</time></trkpt>
<trkpt lat="26.6652" lon="100.21485">
<time>2015-08-06T11:38:00Z</time></trkpt>
<trkpt lat="26.66514" lon="100.21474">
<time>2015-08-06T11:38:01Z</time></trkpt>
<trkpt lat="26.66493" lon="100.21457">
<time>2015-08-06T11:38:02Z</time></trkpt>
<trkpt lat="26.66482" lon="100.21451">
<time>2015-08-06T11:38:03Z</time></trkpt>
<trkpt lat="26.66443" lon="100.21436">
<time>2015-08-06T11:38:04Z</time></trkpt>
<trkpt lat="26.66419" lon="100.214289">
<time>2015-08-06T11:38:05Z</time></trkpt>
<trkpt lat="26.6638" lon="100.214219">
<time>2015-08-06T11:38:06Z</time></trkpt>
<trkpt lat="26.66355" lon="100.214169">
<time>2015-08-06T11:38:07Z</time></trkpt>
<trkpt lat="26.663139" lon="100.213999">
<time>2015-08-06T11:38:08Z</time></trkpt>
<trkpt lat="26.662899" lon="100.213889">
<time>2015-08-06T11:38:09Z</time></trkpt>
<trkpt lat="26.662769" lon="100.213839">
<time>2015-08-06T11:38:10Z</time></trkpt>
<trkpt lat="26.662469" lon="100.213759">
<time>2015-08-06T11:38:11Z</time></trkpt>
<trkpt lat="26.662189" lon="100.213669">
<time>2015-08-06T11:38:12Z</time></trkpt>
<trkpt lat="26.661909" lon="100.213599">
<time>2015-08-06T11:38:13Z</time></trkpt>
<trkpt lat="26.661489" lon="100.213458">
<time>2015-08-06T11:38:14Z</time></trkpt>
<trkpt lat="26.661188" lon="100.213368">
<time>2015-08-06T11:38:15Z</time></trkpt>
<trkpt lat="26.660728" lon="100.213248">
<time>2015-08-06T11:38:16Z</time></trkpt>
<trkpt lat="26.660298" lon="100.213128">
<time>2015-08-06T11:38:17Z</time></trkpt>
<trkpt lat="26.660168" lon="100.213078">
<time>2015-08-06T11:38:18Z</time></trkpt>
<trkpt lat="26.660078" lon="100.212988">
<time>2015-08-06T11:38:19Z</time></trkpt>
<trkpt lat="26.659857" lon="100.212637">
<time>2015-08-06T11:38:20Z</time></trkpt>
<trkpt lat="26.659797" lon="100.212527">
<time>2015-08-06T11:38:21Z</time></trkpt>
<trkpt lat="26.659717" lon="100.212457">
<time>2015-08-06T11:38:22Z</time></trkpt>
<trkpt lat="26.659637" lon="100.212397">
<time>2015-08-06T11:38:23Z</time></trkpt>
<trkpt lat="26.659377" lon="100.212337">
<time>2015-08-06T11:38:24Z</time></trkpt>
<trkpt lat="26.659257" lon="100.212347">
<time>2015-08-06T11:38:25Z</time></trkpt>
<trkpt lat="26.659077" lon="100.212397">
<time>2015-08-06T11:38:26Z</time></trkpt>
<trkpt lat="26.659017" lon="100.212397">
<time>2015-08-06T11:38:27Z</time></trkpt>
<trkpt lat="26.659017" lon="100.212397">
<time>2015-08-06T11:38:28Z</time></trkpt>
<trkpt lat="26.659037" lon="100.212307">
<time>2015-08-06T11:38:29Z</time></trkpt>
<trkpt lat="26.659057" lon="100.212217">
<time>2015-08-06T11:38:30Z</time></trkpt>
<trkpt lat="26.659107" lon="100.211946">
<time>2015-08-06T11:38:31Z</time></trkpt>
<trkpt lat="26.659206" lon="100.211426">
<time>2015-08-06T11:38:32Z</time></trkpt>
<trkpt lat="26.659226" lon="100.211285">
<time>2015-08-06T11:38:33Z</time></trkpt>
<trkpt lat="26.659226" lon="100.211285">
<time>2015-08-06T11:38:34Z</time></trkpt>
<trkpt lat="26.653844" lon="100.209863">
<time>2015-08-06T11:38:35Z</time></trkpt>
<trkpt lat="26.653654" lon="100.209793">
<time>2015-08-06T11:38:36Z</time></trkpt>
<trkpt lat="26.653103" lon="100.209613">
<time>2015-08-06T11:38:37Z</time></trkpt>
<trkpt lat="26.652203" lon="100.209263">
<time>2015-08-06T11:38:38Z</time></trkpt>
<trkpt lat="26.651142" lon="100.208852">
<time>2015-08-06T11:38:39Z</time></trkpt>
<trkpt lat="26.651142" lon="100.208852">
<time>2015-08-06T11:38:40Z</time></trkpt>
<trkpt lat="26.651152" lon="100.208732">
<time>2015-08-06T11:38:41Z</time></trkpt>
<trkpt lat="26.651142" lon="100.208602">
<time>2015-08-06T11:38:42Z</time></trkpt>
<trkpt lat="26.651132" lon="100.208441">
<time>2015-08-06T11:38:43Z</time></trkpt>
<trkpt lat="26.651111" lon="100.208301">
<time>2015-08-06T11:38:44Z</time></trkpt>
<trkpt lat="26.651071" lon="100.208121">
<time>2015-08-06T11:38:45Z</time></trkpt>
<trkpt lat="26.651021" lon="100.207951">
<time>2015-08-06T11:38:46Z</time></trkpt>
<trkpt lat="26.650951" lon="100.20776">
<time>2015-08-06T11:38:47Z</time></trkpt>
<trkpt lat="26.65086" lon="100.20757">
<time>2015-08-06T11:38:48Z</time></trkpt>
<trkpt lat="26.65069" lon="100.20734">
<time>2015-08-06T11:38:49Z</time></trkpt>
<trkpt lat="26.65056" lon="100.2072">
<time>2015-08-06T11:38:50Z</time></trkpt>
<trkpt lat="26.65044" lon="100.207079">
<time>2015-08-06T11:38:51Z</time></trkpt>
<trkpt lat="26.65029" lon="100.206969">
<time>2015-08-06T11:38:52Z</time></trkpt>
<trkpt lat="26.650139" lon="100.206879">
<time>2015-08-06T11:38:53Z</time></trkpt>
<trkpt lat="26.649979" lon="100.206789">
<time>2015-08-06T11:38:54Z</time></trkpt>
<trkpt lat="26.649949" lon="100.206779">
<time>2015-08-06T11:38:55Z</time></trkpt>
<trkpt lat="26.649609" lon="100.206669">
<time>2015-08-06T11:38:56Z</time></trkpt>
<trkpt lat="26.649319" lon="100.206589">
<time>2015-08-06T11:38:57Z</time></trkpt>
<trkpt lat="26.649029" lon="100.206498">
<time>2015-08-06T11:38:58Z</time></trkpt>
<trkpt lat="26.648719" lon="100.206408">
<time>2015-08-06T11:38:59Z</time></trkpt>
<trkpt lat="26.648409" lon="100.206318">
<time>2015-08-06T11:39:00Z</time></trkpt>
<trkpt lat="26.648098" lon="100.206238">
<time>2015-08-06T11:39:01Z</time></trkpt>
<trkpt lat="26.647818" lon="100.206158">
<time>2015-08-06T11:39:02Z</time></trkpt>
<trkpt lat="26.645767" lon="100.205577">
<time>2015-08-06T11:39:03Z</time></trkpt>
<trkpt lat="26.644417" lon="100.205186">
<time>2015-08-06T11:39:04Z</time></trkpt>
<trkpt lat="26.642246" lon="100.204586">
<time>2015-08-06T11:39:05Z</time></trkpt>
<trkpt lat="26.639855" lon="100.203905">
<time>2015-08-06T11:39:06Z</time></trkpt>
<trkpt lat="26.639514" lon="100.203794">
<time>2015-08-06T11:39:07Z</time></trkpt>
<trkpt lat="26.638984" lon="100.203624">
<time>2015-08-06T11:39:08Z</time></trkpt>
<trkpt lat="26.638244" lon="100.203374">
<time>2015-08-06T11:39:09Z</time></trkpt>
<trkpt lat="26.637753" lon="100.203213">
<time>2015-08-06T11:39:10Z</time></trkpt>
<trkpt lat="26.637333" lon="100.203083">
<time>2015-08-06T11:39:11Z</time></trkpt>
<trkpt lat="26.636223" lon="100.202773">
<time>2015-08-06T11:39:12Z</time></trkpt>
<trkpt lat="26.636043" lon="100.202733">
<time>2015-08-06T11:39:13Z</time></trkpt>
<trkpt lat="26.635752" lon="100.202653">
<time>2015-08-06T11:39:14Z</time></trkpt>
<trkpt lat="26.635472" lon="100.202582">
<time>2015-08-06T11:39:15Z</time></trkpt>
<trkpt lat="26.635282" lon="100.202542">
<time>2015-08-06T11:39:16Z</time></trkpt>
<trkpt lat="26.635002" lon="100.202462">
<time>2015-08-06T11:39:17Z</time></trkpt>
<trkpt lat="26.634982" lon="100.202462">
<time>2015-08-06T11:39:18Z</time></trkpt>
<trkpt lat="26.634842" lon="100.202422">
<time>2015-08-06T11:39:19Z</time></trkpt>
<trkpt lat="26.634812" lon="100.202412">
<time>2015-08-06T11:39:20Z</time></trkpt>
<trkpt lat="26.634602" lon="100.202352">
<time>2015-08-06T11:39:21Z</time></trkpt>
<trkpt lat="26.633431" lon="100.201861">
<time>2015-08-06T11:39:22Z</time></trkpt>
<trkpt lat="26.633171" lon="100.201751">
<time>2015-08-06T11:39:23Z</time></trkpt>
<trkpt lat="26.632881" lon="100.201621">
<time>2015-08-06T11:39:24Z</time></trkpt>
<trkpt lat="26.63259" lon="100.201511">
<time>2015-08-06T11:39:25Z</time></trkpt>
<trkpt lat="26.63246" lon="100.201461">
<time>2015-08-06T11:39:26Z</time></trkpt>
<trkpt lat="26.63234" lon="100.201431">
<time>2015-08-06T11:39:27Z</time></trkpt>
<trkpt lat="26.63209" lon="100.20137">
<time>2015-08-06T11:39:28Z</time></trkpt>
<trkpt lat="26.63175" lon="100.2013">
<time>2015-08-06T11:39:29Z</time></trkpt>
<trkpt lat="26.629069" lon="100.200759">
<time>2015-08-06T11:39:30Z</time></trkpt>
<trkpt lat="26.628739" lon="100.200689">
<time>2015-08-06T11:39:31Z</time></trkpt>
<trkpt lat="26.628379" lon="100.200609">
<time>2015-08-06T11:39:32Z</time></trkpt>
<trkpt lat="26.628049" lon="100.200539">
<time>2015-08-06T11:39:33Z</time></trkpt>
<trkpt lat="26.627728" lon="100.200449">
<time>2015-08-06T11:39:34Z</time></trkpt>
<trkpt lat="26.627408" lon="100.200359">
<time>2015-08-06T11:39:35Z</time></trkpt>
<trkpt lat="26.627098" lon="100.200269">
<time>2015-08-06T11:39:36Z</time></trkpt>
<trkpt lat="26.626778" lon="100.200168">
<time>2015-08-06T11:39:37Z</time></trkpt>
<trkpt lat="26.626508" lon="100.200058">
<time>2015-08-06T11:39:38Z</time></trkpt>
<trkpt lat="26.626227" lon="100.199948">
<time>2015-08-06T11:39:39Z</time></trkpt>
<trkpt lat="26.625957" lon="100.199838">
<time>2015-08-06T11:39:40Z</time></trkpt>
<trkpt lat="26.625667" lon="100.199738">
<time>2015-08-06T11:39:41Z</time></trkpt>
<trkpt lat="26.625337" lon="100.199608">
<time>2015-08-06T11:39:42Z</time></trkpt>
<trkpt lat="26.624787" lon="100.199447">
<time>2015-08-06T11:39:43Z</time></trkpt>
<trkpt lat="26.624046" lon="100.199227">
<time>2015-08-06T11:39:44Z</time></trkpt>
<trkpt lat="26.623366" lon="100.199067">
<time>2015-08-06T11:39:45Z</time></trkpt>
<trkpt lat="26.623016" lon="100.198987">
<time>2015-08-06T11:39:46Z</time></trkpt>
<trkpt lat="26.622435" lon="100.198856">
<time>2015-08-06T11:39:47Z</time></trkpt>
<trkpt lat="26.621605" lon="100.198656">
<time>2015-08-06T11:39:48Z</time></trkpt>
<trkpt lat="26.621515" lon="100.198646">
<time>2015-08-06T11:39:49Z</time></trkpt>
<trkpt lat="26.621245" lon="100.198596">
<time>2015-08-06T11:39:50Z</time></trkpt>
<trkpt lat="26.620865" lon="100.198546">
<time>2015-08-06T11:39:51Z</time></trkpt>
<trkpt lat="26.620515" lon="100.198526">
<time>2015-08-06T11:39:52Z</time></trkpt>
<trkpt lat="26.620155" lon="100.198516">
<time>2015-08-06T11:39:53Z</time></trkpt>
<trkpt lat="26.619795" lon="100.198536">
<time>2015-08-06T11:39:54Z</time></trkpt>
<trkpt lat="26.619645" lon="100.198556">
<time>2015-08-06T11:39:55Z</time></trkpt>
<trkpt lat="26.619465" lon="100.198586">
<time>2015-08-06T11:39:56Z</time></trkpt>
<trkpt lat="26.619305" lon="100.198606">
<time>2015-08-06T11:39:57Z</time></trkpt>
<trkpt lat="26.619135" lon="100.198646">
<time>2015-08-06T11:39:58Z</time></trkpt>
<trkpt lat="26.618985" lon="100.198676">
<time>2015-08-06T11:39:59Z</time></trkpt>
<trkpt lat="26.618925" lon="100.198686">
<time>2015-08-06T11:40:00Z</time></trkpt>
<trkpt lat="26.618785" lon="100.198716">
<time>2015-08-06T11:40:01Z</time></trkpt>
<trkpt lat="26.618605" lon="100.198766">
<time>2015-08-06T11:40:02Z</time></trkpt>
<trkpt lat="26.618445" lon="100.198806">
<time>2015-08-06T11:40:03Z</time></trkpt>
<trkpt lat="26.618095" lon="100.198906">
<time>2015-08-06T11:40:04Z</time></trkpt>
<trkpt lat="26.617755" lon="100.199017">
<time>2015-08-06T11:40:05Z</time></trkpt>
<trkpt lat="26.617106" lon="100.199247">
<time>2015-08-06T11:40:06Z</time></trkpt>
<trkpt lat="26.616616" lon="100.199427">
<time>2015-08-06T11:40:07Z</time></trkpt>
<trkpt lat="26.616126" lon="100.199598">
<time>2015-08-06T11:40:08Z</time></trkpt>
<trkpt lat="26.615766" lon="100.199728">
<time>2015-08-06T11:40:09Z</time></trkpt>
<trkpt lat="26.615646" lon="100.199758">
<time>2015-08-06T11:40:10Z</time></trkpt>
<trkpt lat="26.615616" lon="100.199768">
<time>2015-08-06T11:40:11Z</time></trkpt>
<trkpt lat="26.615446" lon="100.199798">
<time>2015-08-06T11:40:12Z</time></trkpt>
<trkpt lat="26.615296" lon="100.199828">
<time>2015-08-06T11:40:13Z</time></trkpt>
<trkpt lat="26.615126" lon="100.199838">
<time>2015-08-06T11:40:14Z</time></trkpt>
<trkpt lat="26.614956" lon="100.199828">
<time>2015-08-06T11:40:15Z</time></trkpt>
<trkpt lat="26.614766" lon="100.199808">
<time>2015-08-06T11:40:16Z</time></trkpt>
<trkpt lat="26.614616" lon="100.199788">
<time>2015-08-06T11:40:17Z</time></trkpt>
<trkpt lat="26.614456" lon="100.199748">
<time>2015-08-06T11:40:18Z</time></trkpt>
<trkpt lat="26.614256" lon="100.199708">
<time>2015-08-06T11:40:19Z</time></trkpt>
<trkpt lat="26.614046" lon="100.199658">
<time>2015-08-06T11:40:20Z</time></trkpt>
<trkpt lat="26.613686" lon="100.199568">
<time>2015-08-06T11:40:21Z</time></trkpt>
<trkpt lat="26.613356" lon="100.199488">
<time>2015-08-06T11:40:22Z</time></trkpt>
<trkpt lat="26.613055" lon="100.199418">
<time>2015-08-06T11:40:23Z</time></trkpt>
<trkpt lat="26.612735" lon="100.199357">
<time>2015-08-06T11:40:24Z</time></trkpt>
<trkpt lat="26.612395" lon="100.199307">
<time>2015-08-06T11:40:25Z</time></trkpt>
<trkpt lat="26.612385" lon="100.199307">
<time>2015-08-06T11:40:26Z</time></trkpt>
<trkpt lat="26.612035" lon="100.199267">
<time>2015-08-06T11:40:27Z</time></trkpt>
<trkpt lat="26.611715" lon="100.199237">
<time>2015-08-06T11:40:28Z</time></trkpt>
<trkpt lat="26.611335" lon="100.199197">
<time>2015-08-06T11:40:29Z</time></trkpt>
<trkpt lat="26.610995" lon="100.199167">
<time>2015-08-06T11:40:30Z</time></trkpt>
<trkpt lat="26.610745" lon="100.199127">
<time>2015-08-06T11:40:31Z</time></trkpt>
<trkpt lat="26.610505" lon="100.199077">
<time>2015-08-06T11:40:32Z</time></trkpt>
<trkpt lat="26.610345" lon="100.199027">
<time>2015-08-06T11:40:33Z</time></trkpt>
<trkpt lat="26.610184" lon="100.198967">
<time>2015-08-06T11:40:34Z</time></trkpt>
<trkpt lat="26.610034" lon="100.198887">
<time>2015-08-06T11:40:35Z</time></trkpt>
<trkpt lat="26.609884" lon="100.198786">
<time>2015-08-06T11:40:36Z</time></trkpt>
<trkpt lat="26.609694" lon="100.198636">
<time>2015-08-06T11:40:37Z</time></trkpt>
<trkpt lat="26.608602" lon="100.197695">
<time>2015-08-06T11:40:38Z</time></trkpt>
<trkpt lat="26.608522" lon="100.197624">
<time>2015-08-06T11:40:39Z</time></trkpt>
<trkpt lat="26.608432" lon="100.197544">
<time>2015-08-06T11:40:40Z</time></trkpt>
<trkpt lat="26.608242" lon="100.197384">
<time>2015-08-06T11:40:41Z</time></trkpt>
<trkpt lat="26.608172" lon="100.197334">
<time>2015-08-06T11:40:42Z</time></trkpt>
<trkpt lat="26.607971" lon="100.197194">
<time>2015-08-06T11:40:43Z</time></trkpt>
<trkpt lat="26.607671" lon="100.197013">
<time>2015-08-06T11:40:44Z</time></trkpt>
<trkpt lat="26.60666" lon="100.196563">
<time>2015-08-06T11:40:45Z</time></trkpt>
<trkpt lat="26.60636" lon="100.196432">
<time>2015-08-06T11:40:46Z</time></trkpt>
<trkpt lat="26.60594" lon="100.196252">
<time>2015-08-06T11:40:47Z</time></trkpt>
<trkpt lat="26.605579" lon="100.196102">
<time>2015-08-06T11:40:48Z</time></trkpt>
<trkpt lat="26.604568" lon="100.195651">
<time>2015-08-06T11:40:49Z</time></trkpt>
<trkpt lat="26.603878" lon="100.19536">
<time>2015-08-06T11:40:50Z</time></trkpt>
<trkpt lat="26.602387" lon="100.194719">
<time>2015-08-06T11:40:51Z</time></trkpt>
<trkpt lat="26.601466" lon="100.194319">
<time>2015-08-06T11:40:52Z</time></trkpt>
<trkpt lat="26.600485" lon="100.193898">
<time>2015-08-06T11:40:53Z</time></trkpt>
<trkpt lat="26.600255" lon="100.193788">
<time>2015-08-06T11:40:54Z</time></trkpt>
<trkpt lat="26.598994" lon="100.193247">
<time>2015-08-06T11:40:55Z</time></trkpt>
<trkpt lat="26.598674" lon="100.193116">
<time>2015-08-06T11:40:56Z</time></trkpt>
<trkpt lat="26.598313" lon="100.192946">
<time>2015-08-06T11:40:57Z</time></trkpt>
<trkpt lat="26.598293" lon="100.192936">
<time>2015-08-06T11:40:58Z</time></trkpt>
<trkpt lat="26.597993" lon="100.192806">
<time>2015-08-06T11:40:59Z</time></trkpt>
<trkpt lat="26.597803" lon="100.192696">
<time>2015-08-06T11:41:00Z</time></trkpt>
<trkpt lat="26.597562" lon="100.192515">
<time>2015-08-06T11:41:01Z</time></trkpt>
<trkpt lat="26.597382" lon="100.192345">
<time>2015-08-06T11:41:02Z</time></trkpt>
<trkpt lat="26.597252" lon="100.192215">
<time>2015-08-06T11:41:03Z</time></trkpt>
<trkpt lat="26.597132" lon="100.192054">
<time>2015-08-06T11:41:04Z</time></trkpt>
<trkpt lat="26.597041" lon="100.191904">
<time>2015-08-06T11:41:05Z</time></trkpt>
<trkpt lat="26.596911" lon="100.191714">
<time>2015-08-06T11:41:06Z</time></trkpt>
<trkpt lat="26.596791" lon="100.191503">
<time>2015-08-06T11:41:07Z</time></trkpt>
<trkpt lat="26.59668" lon="100.191333">
<time>2015-08-06T11:41:08Z</time></trkpt>
<trkpt lat="26.59658" lon="100.191203">
<time>2015-08-06T11:41:09Z</time></trkpt>
<trkpt lat="26.59641" lon="100.191002">
<time>2015-08-06T11:41:10Z</time></trkpt>
<trkpt lat="26.596259" lon="100.190882">
<time>2015-08-06T11:41:11Z</time></trkpt>
<trkpt lat="26.596209" lon="100.190842">
<time>2015-08-06T11:41:12Z</time></trkpt>
<trkpt lat="26.595929" lon="100.190692">
<time>2015-08-06T11:41:13Z</time></trkpt>
<trkpt lat="26.595639" lon="100.190572">
<time>2015-08-06T11:41:14Z</time></trkpt>
<trkpt lat="26.595038" lon="100.190361">
<time>2015-08-06T11:41:15Z</time></trkpt>
<trkpt lat="26.594998" lon="100.190341">
<time>2015-08-06T11:41:16Z</time></trkpt>
<trkpt lat="26.593377" lon="100.18978">
<time>2015-08-06T11:41:17Z</time></trkpt>
<trkpt lat="26.592697" lon="100.18955">
<time>2015-08-06T11:41:18Z</time></trkpt>
<trkpt lat="26.591956" lon="100.189309">
<time>2015-08-06T11:41:19Z</time></trkpt>
<trkpt lat="26.591126" lon="100.189019">
<time>2015-08-06T11:41:20Z</time></trkpt>
<trkpt lat="26.590665" lon="100.188868">
<time>2015-08-06T11:41:21Z</time></trkpt>
<trkpt lat="26.590515" lon="100.188818">
<time>2015-08-06T11:41:22Z</time></trkpt>
<trkpt lat="26.589785" lon="100.188608">
<time>2015-08-06T11:41:23Z</time></trkpt>
<trkpt lat="26.589494" lon="100.188528">
<time>2015-08-06T11:41:24Z</time></trkpt>
<trkpt lat="26.588984" lon="100.188407">
<time>2015-08-06T11:41:25Z</time></trkpt>
<trkpt lat="26.588844" lon="100.188377">
<time>2015-08-06T11:41:26Z</time></trkpt>
<trkpt lat="26.588184" lon="100.188217">
<time>2015-08-06T11:41:27Z</time></trkpt>
<trkpt lat="26.587523" lon="100.188057">
<time>2015-08-06T11:41:28Z</time></trkpt>
<trkpt lat="26.586163" lon="100.187736">
<time>2015-08-06T11:41:29Z</time></trkpt>
<trkpt lat="26.585822" lon="100.187656">
<time>2015-08-06T11:41:30Z</time></trkpt>
<trkpt lat="26.585632" lon="100.187616">
<time>2015-08-06T11:41:31Z</time></trkpt>
<trkpt lat="26.585592" lon="100.187606">
<time>2015-08-06T11:41:32Z</time></trkpt>
<trkpt lat="26.585462" lon="100.187586">
<time>2015-08-06T11:41:33Z</time></trkpt>
<trkpt lat="26.585282" lon="100.187546">
<time>2015-08-06T11:41:34Z</time></trkpt>
<trkpt lat="26.585112" lon="100.187526">
<time>2015-08-06T11:41:35Z</time></trkpt>
<trkpt lat="26.584902" lon="100.187496">
<time>2015-08-06T11:41:36Z</time></trkpt>
<trkpt lat="26.584702" lon="100.187476">
<time>2015-08-06T11:41:37Z</time></trkpt>
<trkpt lat="26.584682" lon="100.187476">
<time>2015-08-06T11:41:38Z</time></trkpt>
<trkpt lat="26.584452" lon="100.187456">
<time>2015-08-06T11:41:39Z</time></trkpt>
<trkpt lat="26.584212" lon="100.187426">
<time>2015-08-06T11:41:40Z</time></trkpt>
<trkpt lat="26.583902" lon="100.187386">
<time>2015-08-06T11:41:41Z</time></trkpt>
<trkpt lat="26.583501" lon="100.187285">
<time>2015-08-06T11:41:42Z</time></trkpt>
<trkpt lat="26.583351" lon="100.187205">
<time>2015-08-06T11:41:43Z</time></trkpt>
<trkpt lat="26.583241" lon="100.187145">
<time>2015-08-06T11:41:44Z</time></trkpt>
<trkpt lat="26.583181" lon="100.187105">
<time>2015-08-06T11:41:45Z</time></trkpt>
<trkpt lat="26.583091" lon="100.187045">
<time>2015-08-06T11:41:46Z</time></trkpt>
<trkpt lat="26.583011" lon="100.186985">
<time>2015-08-06T11:41:47Z</time></trkpt>
<trkpt lat="26.582931" lon="100.186925">
<time>2015-08-06T11:41:48Z</time></trkpt>
<trkpt lat="26.58271" lon="100.186704">
<time>2015-08-06T11:41:49Z</time></trkpt>
<trkpt lat="26.581227" lon="100.185161">
<time>2015-08-06T11:41:50Z</time></trkpt>
<trkpt lat="26.580997" lon="100.184911">
<time>2015-08-06T11:41:51Z</time></trkpt>
<trkpt lat="26.580786" lon="100.18471">
<time>2015-08-06T11:41:52Z</time></trkpt>
<trkpt lat="26.580556" lon="100.18451">
<time>2015-08-06T11:41:53Z</time></trkpt>
<trkpt lat="26.580406" lon="100.18441">
<time>2015-08-06T11:41:54Z</time></trkpt>
<trkpt lat="26.580296" lon="100.18434">
<time>2015-08-06T11:41:55Z</time></trkpt>
<trkpt lat="26.579205" lon="100.183818">
<time>2015-08-06T11:41:56Z</time></trkpt>
<trkpt lat="26.578314" lon="100.183408">
<time>2015-08-06T11:41:57Z</time></trkpt>
<trkpt lat="26.578063" lon="100.183297">
<time>2015-08-06T11:41:58Z</time></trkpt>
<trkpt lat="26.577623" lon="100.183137">
<time>2015-08-06T11:41:59Z</time></trkpt>
<trkpt lat="26.576572" lon="100.182776">
<time>2015-08-06T11:42:00Z</time></trkpt>
<trkpt lat="26.57433" lon="100.181985">
<time>2015-08-06T11:42:01Z</time></trkpt>
<trkpt lat="26.57326" lon="100.181604">
<time>2015-08-06T11:42:02Z</time></trkpt>
<trkpt lat="26.57323" lon="100.181594">
<time>2015-08-06T11:42:03Z</time></trkpt>
<trkpt lat="26.572459" lon="100.181324">
<time>2015-08-06T11:42:04Z</time></trkpt>
<trkpt lat="26.569597" lon="100.180512">
<time>2015-08-06T11:42:05Z</time></trkpt>
<trkpt lat="26.567766" lon="100.180041">
<time>2015-08-06T11:42:06Z</time></trkpt>
<trkpt lat="26.567406" lon="100.179951">
<time>2015-08-06T11:42:07Z</time></trkpt>
<trkpt lat="26.567185" lon="100.179881">
<time>2015-08-06T11:42:08Z</time></trkpt>
<trkpt lat="26.567005" lon="100.179831">
<time>2015-08-06T11:42:09Z</time></trkpt>
<trkpt lat="26.566795" lon="100.17978">
<time>2015-08-06T11:42:10Z</time></trkpt>
<trkpt lat="26.566595" lon="100.17973">
<time>2015-08-06T11:42:11Z</time></trkpt>
<trkpt lat="26.566405" lon="100.17967">
<time>2015-08-06T11:42:12Z</time></trkpt>
<trkpt lat="26.566275" lon="100.17964">
<time>2015-08-06T11:42:13Z</time></trkpt>
<trkpt lat="26.566145" lon="100.17961">
<time>2015-08-06T11:42:14Z</time></trkpt>
<trkpt lat="26.566025" lon="100.17958">
<time>2015-08-06T11:42:15Z</time></trkpt>
<trkpt lat="26.565925" lon="100.17955">
<time>2015-08-06T11:42:16Z</time></trkpt>
<trkpt lat="26.565865" lon="100.17953">
<time>2015-08-06T11:42:17Z</time></trkpt>
<trkpt lat="26.565794" lon="100.17949">
<time>2015-08-06T11:42:18Z</time></trkpt>
<trkpt lat="26.565734" lon="100.17946">
<time>2015-08-06T11:42:19Z</time></trkpt>
<trkpt lat="26.565654" lon="100.1794">
<time>2015-08-06T11:42:20Z</time></trkpt>
<trkpt lat="26.565534" lon="100.1793">
<time>2015-08-06T11:42:21Z</time></trkpt>
<trkpt lat="26.565424" lon="100.179179">
<time>2015-08-06T11:42:22Z</time></trkpt>
<trkpt lat="26.565334" lon="100.179059">
<time>2015-08-06T11:42:23Z</time></trkpt>
<trkpt lat="26.565294" lon="100.179019">
<time>2015-08-06T11:42:24Z</time></trkpt>
<trkpt lat="26.565193" lon="100.178859">
<time>2015-08-06T11:42:25Z</time></trkpt>
<trkpt lat="26.565083" lon="100.178668">
<time>2015-08-06T11:42:26Z</time></trkpt>
<trkpt lat="26.564962" lon="100.178488">
<time>2015-08-06T11:42:27Z</time></trkpt>
<trkpt lat="26.564882" lon="100.178348">
<time>2015-08-06T11:42:28Z</time></trkpt>
<trkpt lat="26.564772" lon="100.178167">
<time>2015-08-06T11:42:29Z</time></trkpt>
<trkpt lat="26.564672" lon="100.178027">
<time>2015-08-06T11:42:30Z</time></trkpt>
<trkpt lat="26.564601" lon="100.177947">
<time>2015-08-06T11:42:31Z</time></trkpt>
<trkpt lat="26.564571" lon="100.177907">
<time>2015-08-06T11:42:32Z</time></trkpt>
<trkpt lat="26.564481" lon="100.177826">
<time>2015-08-06T11:42:33Z</time></trkpt>
<trkpt lat="26.564381" lon="100.177746">
<time>2015-08-06T11:42:34Z</time></trkpt>
<trkpt lat="26.564281" lon="100.177676">
<time>2015-08-06T11:42:35Z</time></trkpt>
<trkpt lat="26.564081" lon="100.177556">
<time>2015-08-06T11:42:36Z</time></trkpt>
<trkpt lat="26.56342" lon="100.177486">
<time>2015-08-06T11:42:37Z</time></trkpt>
<trkpt lat="26.56319" lon="100.177456">
<time>2015-08-06T11:42:38Z</time></trkpt>
<trkpt lat="26.56299" lon="100.177436">
<time>2015-08-06T11:42:39Z</time></trkpt>
<trkpt lat="26.56298" lon="100.177436">
<time>2015-08-06T11:42:40Z</time></trkpt>
<trkpt lat="26.56207" lon="100.177346">
<time>2015-08-06T11:42:41Z</time></trkpt>
<trkpt lat="26.56207" lon="100.177346">
<time>2015-08-06T11:42:42Z</time></trkpt>
<trkpt lat="26.56202" lon="100.177315">
<time>2015-08-06T11:42:43Z</time></trkpt>
<trkpt lat="26.56158" lon="100.177295">
<time>2015-08-06T11:42:44Z</time></trkpt>
<trkpt lat="26.560609" lon="100.177175">
<time>2015-08-06T11:42:45Z</time></trkpt>
<trkpt lat="26.559359" lon="100.177035">
<time>2015-08-06T11:42:46Z</time></trkpt>
<trkpt lat="26.559289" lon="100.177025">
<time>2015-08-06T11:42:47Z</time></trkpt>
<trkpt lat="26.558829" lon="100.176965">
<time>2015-08-06T11:42:48Z</time></trkpt>
<trkpt lat="26.557828" lon="100.176835">
<time>2015-08-06T11:42:49Z</time></trkpt>
<trkpt lat="26.557688" lon="100.176825">
<time>2015-08-06T11:42:50Z</time></trkpt>
<trkpt lat="26.556718" lon="100.176704">
<time>2015-08-06T11:42:51Z</time></trkpt>
<trkpt lat="26.556498" lon="100.176664">
<time>2015-08-06T11:42:52Z</time></trkpt>
<trkpt lat="26.556297" lon="100.176624">
<time>2015-08-06T11:42:53Z</time></trkpt>
<trkpt lat="26.555897" lon="100.176524">
<time>2015-08-06T11:42:54Z</time></trkpt>
<trkpt lat="26.555087" lon="100.176324">
<time>2015-08-06T11:42:55Z</time></trkpt>
<trkpt lat="26.554426" lon="100.176143">
<time>2015-08-06T11:42:56Z</time></trkpt>
<trkpt lat="26.554116" lon="100.176053">
<time>2015-08-06T11:42:57Z</time></trkpt>
<trkpt lat="26.554016" lon="100.176013">
<time>2015-08-06T11:42:58Z</time></trkpt>
<trkpt lat="26.553856" lon="100.175973">
<time>2015-08-06T11:42:59Z</time></trkpt>
<trkpt lat="26.553746" lon="100.175913">
<time>2015-08-06T11:43:00Z</time></trkpt>
<trkpt lat="26.553636" lon="100.175883">
<time>2015-08-06T11:43:01Z</time></trkpt>
<trkpt lat="26.552475" lon="100.175572">
<time>2015-08-06T11:43:02Z</time></trkpt>
<trkpt lat="26.548362" lon="100.17443">
<time>2015-08-06T11:43:03Z</time></trkpt>
<trkpt lat="26.547461" lon="100.174179">
<time>2015-08-06T11:43:04Z</time></trkpt>
<trkpt lat="26.547241" lon="100.174119">
<time>2015-08-06T11:43:05Z</time></trkpt>
<trkpt lat="26.546921" lon="100.174019">
<time>2015-08-06T11:43:06Z</time></trkpt>
<trkpt lat="26.546721" lon="100.173959">
<time>2015-08-06T11:43:07Z</time></trkpt>
<trkpt lat="26.546671" lon="100.173949">
<time>2015-08-06T11:43:08Z</time></trkpt>
<trkpt lat="26.54637" lon="100.173879">
<time>2015-08-06T11:43:09Z</time></trkpt>
<trkpt lat="26.5461" lon="100.173808">
<time>2015-08-06T11:43:10Z</time></trkpt>
<trkpt lat="26.54573" lon="100.173708">
<time>2015-08-06T11:43:11Z</time></trkpt>
<trkpt lat="26.54545" lon="100.173628">
<time>2015-08-06T11:43:12Z</time></trkpt>
<trkpt lat="26.54511" lon="100.173518">
<time>2015-08-06T11:43:13Z</time></trkpt>
<trkpt lat="26.544829" lon="100.173428">
<time>2015-08-06T11:43:14Z</time></trkpt>
<trkpt lat="26.544529" lon="100.173317">
<time>2015-08-06T11:43:15Z</time></trkpt>
<trkpt lat="26.544309" lon="100.173227">
<time>2015-08-06T11:43:16Z</time></trkpt>
<trkpt lat="26.544179" lon="100.173177">
<time>2015-08-06T11:43:17Z</time></trkpt>
<trkpt lat="26.543868" lon="100.173037">
<time>2015-08-06T11:43:18Z</time></trkpt>
<trkpt lat="26.543578" lon="100.172897">
<time>2015-08-06T11:43:19Z</time></trkpt>
<trkpt lat="26.543288" lon="100.172756">
<time>2015-08-06T11:43:20Z</time></trkpt>
<trkpt lat="26.542987" lon="100.172606">
<time>2015-08-06T11:43:21Z</time></trkpt>
<trkpt lat="26.542677" lon="100.172436">
<time>2015-08-06T11:43:22Z</time></trkpt>
<trkpt lat="26.542427" lon="100.172285">
<time>2015-08-06T11:43:23Z</time></trkpt>
<trkpt lat="26.542206" lon="100.172165">
<time>2015-08-06T11:43:24Z</time></trkpt>
<trkpt lat="26.541956" lon="100.172025">
<time>2015-08-06T11:43:25Z</time></trkpt>
<trkpt lat="26.541686" lon="100.171885">
<time>2015-08-06T11:43:26Z</time></trkpt>
<trkpt lat="26.541456" lon="100.171764">
<time>2015-08-06T11:43:27Z</time></trkpt>
<trkpt lat="26.541235" lon="100.171674">
<time>2015-08-06T11:43:28Z</time></trkpt>
<trkpt lat="26.541215" lon="100.171664">
<time>2015-08-06T11:43:29Z</time></trkpt>
<trkpt lat="26.540985" lon="100.171584">
<time>2015-08-06T11:43:30Z</time></trkpt>
<trkpt lat="26.540715" lon="100.171514">
<time>2015-08-06T11:43:31Z</time></trkpt>
<trkpt lat="26.540455" lon="100.171484">
<time>2015-08-06T11:43:32Z</time></trkpt>
<trkpt lat="26.540205" lon="100.171454">
<time>2015-08-06T11:43:33Z</time></trkpt>
<trkpt lat="26.539925" lon="100.171434">
<time>2015-08-06T11:43:34Z</time></trkpt>
<trkpt lat="26.539625" lon="100.171404">
<time>2015-08-06T11:43:35Z</time></trkpt>
<trkpt lat="26.539534" lon="100.171384">
<time>2015-08-06T11:43:36Z</time></trkpt>
<trkpt lat="26.539344" lon="100.171353">
<time>2015-08-06T11:43:37Z</time></trkpt>
<trkpt lat="26.538924" lon="100.171313">
<time>2015-08-06T11:43:38Z</time></trkpt>
<trkpt lat="26.538414" lon="100.171253">
<time>2015-08-06T11:43:39Z</time></trkpt>
<trkpt lat="26.538194" lon="100.171223">
<time>2015-08-06T11:43:40Z</time></trkpt>
<trkpt lat="26.536593" lon="100.171093">
<time>2015-08-06T11:43:41Z</time></trkpt>
<trkpt lat="26.535233" lon="100.170973">
<time>2015-08-06T11:43:42Z</time></trkpt>
<trkpt lat="26.533782" lon="100.170832">
<time>2015-08-06T11:43:43Z</time></trkpt>
<trkpt lat="26.532432" lon="100.170652">
<time>2015-08-06T11:43:44Z</time></trkpt>
<trkpt lat="26.532011" lon="100.170612">
<time>2015-08-06T11:43:45Z</time></trkpt>
<trkpt lat="26.531481" lon="100.170562">
<time>2015-08-06T11:43:46Z</time></trkpt>
<trkpt lat="26.530651" lon="100.170482">
<time>2015-08-06T11:43:47Z</time></trkpt>
<trkpt lat="26.52954" lon="100.170392">
<time>2015-08-06T11:43:48Z</time></trkpt>
<trkpt lat="26.52928" lon="100.170372">
<time>2015-08-06T11:43:49Z</time></trkpt>
<trkpt lat="26.52892" lon="100.170352">
<time>2015-08-06T11:43:50Z</time></trkpt>
<trkpt lat="26.52859" lon="100.170322">
<time>2015-08-06T11:43:51Z</time></trkpt>
<trkpt lat="26.52826" lon="100.170281">
<time>2015-08-06T11:43:52Z</time></trkpt>
<trkpt lat="26.52799" lon="100.170261">
<time>2015-08-06T11:43:53Z</time></trkpt>
<trkpt lat="26.52782" lon="100.170261">
<time>2015-08-06T11:43:54Z</time></trkpt>
<trkpt lat="26.52767" lon="100.170271">
<time>2015-08-06T11:43:55Z</time></trkpt>
<trkpt lat="26.52764" lon="100.170281">
<time>2015-08-06T11:43:56Z</time></trkpt>
<trkpt lat="26.52752" lon="100.170302">
<time>2015-08-06T11:43:57Z</time></trkpt>
<trkpt lat="26.52734" lon="100.170362">
<time>2015-08-06T11:43:58Z</time></trkpt>
<trkpt lat="26.52726" lon="100.170392">
<time>2015-08-06T11:43:59Z</time></trkpt>
<trkpt lat="26.5272" lon="100.170422">
<time>2015-08-06T11:44:00Z</time></trkpt>
<trkpt lat="26.52707" lon="100.170502">
<time>2015-08-06T11:44:01Z</time></trkpt>
<trkpt lat="26.52684" lon="100.170662">
<time>2015-08-06T11:44:02Z</time></trkpt>
<trkpt lat="26.526471" lon="100.170973">
<time>2015-08-06T11:44:03Z</time></trkpt>
<trkpt lat="26.526271" lon="100.171143">
<time>2015-08-06T11:44:04Z</time></trkpt>
<trkpt lat="26.525982" lon="100.171404">
<time>2015-08-06T11:44:05Z</time></trkpt>
<trkpt lat="26.525812" lon="100.171534">
<time>2015-08-06T11:44:06Z</time></trkpt>
<trkpt lat="26.525672" lon="100.171614">
<time>2015-08-06T11:44:07Z</time></trkpt>
<trkpt lat="26.525512" lon="100.171705">
<time>2015-08-06T11:44:08Z</time></trkpt>
<trkpt lat="26.525322" lon="100.171765">
<time>2015-08-06T11:44:09Z</time></trkpt>
<trkpt lat="26.525112" lon="100.171815">
<time>2015-08-06T11:44:10Z</time></trkpt>
<trkpt lat="26.524902" lon="100.171835">
<time>2015-08-06T11:44:11Z</time></trkpt>
<trkpt lat="26.524572" lon="100.171865">
<time>2015-08-06T11:44:12Z</time></trkpt>
<trkpt lat="26.522232" lon="100.171905">
<time>2015-08-06T11:44:13Z</time></trkpt>
<trkpt lat="26.522032" lon="100.171915">
<time>2015-08-06T11:44:14Z</time></trkpt>
<trkpt lat="26.521032" lon="100.171965">
<time>2015-08-06T11:44:15Z</time></trkpt>
<trkpt lat="26.520642" lon="100.171995">
<time>2015-08-06T11:44:16Z</time></trkpt>
<trkpt lat="26.520342" lon="100.172096">
<time>2015-08-06T11:44:17Z</time></trkpt>
<trkpt lat="26.520092" lon="100.172176">
<time>2015-08-06T11:44:18Z</time></trkpt>
<trkpt lat="26.520002" lon="100.172206">
<time>2015-08-06T11:44:19Z</time></trkpt>
<trkpt lat="26.519692" lon="100.172346">
<time>2015-08-06T11:44:20Z</time></trkpt>
<trkpt lat="26.519352" lon="100.172557">
<time>2015-08-06T11:44:21Z</time></trkpt>
<trkpt lat="26.519053" lon="100.172737">
<time>2015-08-06T11:44:22Z</time></trkpt>
<trkpt lat="26.518733" lon="100.172947">
<time>2015-08-06T11:44:23Z</time></trkpt>
<trkpt lat="26.518383" lon="100.173188">
<time>2015-08-06T11:44:24Z</time></trkpt>
<trkpt lat="26.518094" lon="100.173388">
<time>2015-08-06T11:44:25Z</time></trkpt>
<trkpt lat="26.517874" lon="100.173519">
<time>2015-08-06T11:44:26Z</time></trkpt>
<trkpt lat="26.517784" lon="100.173579">
<time>2015-08-06T11:44:27Z</time></trkpt>
<trkpt lat="26.517394" lon="100.173839">
<time>2015-08-06T11:44:28Z</time></trkpt>
<trkpt lat="26.517274" lon="100.173909">
<time>2015-08-06T11:44:29Z</time></trkpt>
<trkpt lat="26.517194" lon="100.17397">
<time>2015-08-06T11:44:30Z</time></trkpt>
<trkpt lat="26.517095" lon="100.17403">
<time>2015-08-06T11:44:31Z</time></trkpt>
<trkpt lat="26.516745" lon="100.17423">
<time>2015-08-06T11:44:32Z</time></trkpt>
<trkpt lat="26.516455" lon="100.1744">
<time>2015-08-06T11:44:33Z</time></trkpt>
<trkpt lat="26.516185" lon="100.174551">
<time>2015-08-06T11:44:34Z</time></trkpt>
<trkpt lat="26.515786" lon="100.174791">
<time>2015-08-06T11:44:35Z</time></trkpt>
<trkpt lat="26.515516" lon="100.174952">
<time>2015-08-06T11:44:36Z</time></trkpt>
<trkpt lat="26.515216" lon="100.175112">
<time>2015-08-06T11:44:37Z</time></trkpt>
<trkpt lat="26.514906" lon="100.175272">
<time>2015-08-06T11:44:38Z</time></trkpt>
<trkpt lat="26.514607" lon="100.175383">
<time>2015-08-06T11:44:39Z</time></trkpt>
<trkpt lat="26.514277" lon="100.175473">
<time>2015-08-06T11:44:40Z</time></trkpt>
<trkpt lat="26.513897" lon="100.175563">
<time>2015-08-06T11:44:41Z</time></trkpt>
<trkpt lat="26.513567" lon="100.175603">
<time>2015-08-06T11:44:42Z</time></trkpt>
<trkpt lat="26.513187" lon="100.175653">
<time>2015-08-06T11:44:43Z</time></trkpt>
<trkpt lat="26.512847" lon="100.175693">
<time>2015-08-06T11:44:44Z</time></trkpt>
<trkpt lat="26.512507" lon="100.175733">
<time>2015-08-06T11:44:45Z</time></trkpt>
<trkpt lat="26.512297" lon="100.175753">
<time>2015-08-06T11:44:46Z</time></trkpt>
<trkpt lat="26.512147" lon="100.175773">
<time>2015-08-06T11:44:47Z</time></trkpt>
<trkpt lat="26.511837" lon="100.175824">
<time>2015-08-06T11:44:48Z</time></trkpt>
<trkpt lat="26.511487" lon="100.175864">
<time>2015-08-06T11:44:49Z</time></trkpt>
<trkpt lat="26.511157" lon="100.175904">
<time>2015-08-06T11:44:50Z</time></trkpt>
<trkpt lat="26.510827" lon="100.175944">
<time>2015-08-06T11:44:51Z</time></trkpt>
<trkpt lat="26.510457" lon="100.175994">
<time>2015-08-06T11:44:52Z</time></trkpt>
<trkpt lat="26.510077" lon="100.176044">
<time>2015-08-06T11:44:53Z</time></trkpt>
<trkpt lat="26.509807" lon="100.176064">
<time>2015-08-06T11:44:54Z</time></trkpt>
<trkpt lat="26.509397" lon="100.176104">
<time>2015-08-06T11:44:55Z</time></trkpt>
<trkpt lat="26.509037" lon="100.176124">
<time>2015-08-06T11:44:56Z</time></trkpt>
<trkpt lat="26.508706" lon="100.176134">
<time>2015-08-06T11:44:57Z</time></trkpt>
<trkpt lat="26.508346" lon="100.176144">
<time>2015-08-06T11:44:58Z</time></trkpt>
<trkpt lat="26.507976" lon="100.176164">
<time>2015-08-06T11:44:59Z</time></trkpt>
<trkpt lat="26.507626" lon="100.176154">
<time>2015-08-06T11:45:00Z</time></trkpt>
<trkpt lat="26.507266" lon="100.176154">
<time>2015-08-06T11:45:01Z</time></trkpt>
<trkpt lat="26.507026" lon="100.176164">
<time>2015-08-06T11:45:02Z</time></trkpt>
<trkpt lat="26.506636" lon="100.176164">
<time>2015-08-06T11:45:03Z</time></trkpt>
<trkpt lat="26.506216" lon="100.176174">
<time>2015-08-06T11:45:04Z</time></trkpt>
<trkpt lat="26.505866" lon="100.176175">
<time>2015-08-06T11:45:05Z</time></trkpt>
<trkpt lat="26.505496" lon="100.176195">
<time>2015-08-06T11:45:06Z</time></trkpt>
<trkpt lat="26.505166" lon="100.176185">
<time>2015-08-06T11:45:07Z</time></trkpt>
<trkpt lat="26.504976" lon="100.176195">
<time>2015-08-06T11:45:08Z</time></trkpt>
<trkpt lat="26.504916" lon="100.176195">
<time>2015-08-06T11:45:09Z</time></trkpt>
<trkpt lat="26.504636" lon="100.176235">
<time>2015-08-06T11:45:10Z</time></trkpt>
<trkpt lat="26.504316" lon="100.176325">
<time>2015-08-06T11:45:11Z</time></trkpt>
<trkpt lat="26.503996" lon="100.176485">
<time>2015-08-06T11:45:12Z</time></trkpt>
<trkpt lat="26.503676" lon="100.176676">
<time>2015-08-06T11:45:13Z</time></trkpt>
<trkpt lat="26.503407" lon="100.176886">
<time>2015-08-06T11:45:14Z</time></trkpt>
<trkpt lat="26.503387" lon="100.176896">
<time>2015-08-06T11:45:15Z</time></trkpt>
<trkpt lat="26.503107" lon="100.177117">
<time>2015-08-06T11:45:16Z</time></trkpt>
<trkpt lat="26.502857" lon="100.177347">
<time>2015-08-06T11:45:17Z</time></trkpt>
<trkpt lat="26.502588" lon="100.177568">
<time>2015-08-06T11:45:18Z</time></trkpt>
<trkpt lat="26.502358" lon="100.177758">
<time>2015-08-06T11:45:19Z</time></trkpt>
<trkpt lat="26.502078" lon="100.177948">
<time>2015-08-06T11:45:20Z</time></trkpt>
<trkpt lat="26.502068" lon="100.177948">
<time>2015-08-06T11:45:21Z</time></trkpt>
<trkpt lat="26.501788" lon="100.178099">
<time>2015-08-06T11:45:22Z</time></trkpt>
<trkpt lat="26.501489" lon="100.178219">
<time>2015-08-06T11:45:23Z</time></trkpt>
<trkpt lat="26.501379" lon="100.178259">
<time>2015-08-06T11:45:24Z</time></trkpt>
<trkpt lat="26.501159" lon="100.178349">
<time>2015-08-06T11:45:25Z</time></trkpt>
<trkpt lat="26.500819" lon="100.178479">
<time>2015-08-06T11:45:26Z</time></trkpt>
<trkpt lat="26.500179" lon="100.17872">
<time>2015-08-06T11:45:27Z</time></trkpt>
<trkpt lat="26.500019" lon="100.17878">
<time>2015-08-06T11:45:28Z</time></trkpt>
<trkpt lat="26.499939" lon="100.17881">
<time>2015-08-06T11:45:29Z</time></trkpt>
<trkpt lat="26.499789" lon="100.17887">
<time>2015-08-06T11:45:30Z</time></trkpt>
<trkpt lat="26.49945" lon="100.179001">
<time>2015-08-06T11:45:31Z</time></trkpt>
<trkpt lat="26.4991" lon="100.179121">
<time>2015-08-06T11:45:32Z</time></trkpt>
<trkpt lat="26.49877" lon="100.179271">
<time>2015-08-06T11:45:33Z</time></trkpt>
<trkpt lat="26.49863" lon="100.179361">
<time>2015-08-06T11:45:34Z</time></trkpt>
<trkpt lat="26.49849" lon="100.179462">
<time>2015-08-06T11:45:35Z</time></trkpt>
<trkpt lat="26.49837" lon="100.179552">
<time>2015-08-06T11:45:36Z</time></trkpt>
<trkpt lat="26.49829" lon="100.179632">
<time>2015-08-06T11:45:37Z</time></trkpt>
<trkpt lat="26.498211" lon="100.179702">
<time>2015-08-06T11:45:38Z</time></trkpt>
<trkpt lat="26.498081" lon="100.179842">
<time>2015-08-06T11:45:39Z</time></trkpt>
<trkpt lat="26.497961" lon="100.179973">
<time>2015-08-06T11:45:40Z</time></trkpt>
<trkpt lat="26.497672" lon="100.180343">
<time>2015-08-06T11:45:41Z</time></trkpt>
<trkpt lat="26.497412" lon="100.180674">
<time>2015-08-06T11:45:42Z</time></trkpt>
<trkpt lat="26.497153" lon="100.181005">
<time>2015-08-06T11:45:43Z</time></trkpt>
<trkpt lat="26.496903" lon="100.181346">
<time>2015-08-06T11:45:44Z</time></trkpt>
<trkpt lat="26.496684" lon="100.181626">
<time>2015-08-06T11:45:45Z</time></trkpt>
<trkpt lat="26.496404" lon="100.181997">
<time>2015-08-06T11:45:46Z</time></trkpt>
<trkpt lat="26.496384" lon="100.182017">
<time>2015-08-06T11:45:47Z</time></trkpt>
<trkpt lat="26.496155" lon="100.182297">
<time>2015-08-06T11:45:48Z</time></trkpt>
<trkpt lat="26.495905" lon="100.182588">
<time>2015-08-06T11:45:49Z</time></trkpt>
<trkpt lat="26.495556" lon="100.182899">
<time>2015-08-06T11:45:50Z</time></trkpt>
<trkpt lat="26.495226" lon="100.183149">
<time>2015-08-06T11:45:51Z</time></trkpt>
<trkpt lat="26.494876" lon="100.18337">
<time>2015-08-06T11:45:52Z</time></trkpt>
<trkpt lat="26.494507" lon="100.18355">
<time>2015-08-06T11:45:53Z</time></trkpt>
<trkpt lat="26.494117" lon="100.18373">
<time>2015-08-06T11:45:54Z</time></trkpt>
<trkpt lat="26.493727" lon="100.183891">
<time>2015-08-06T11:45:55Z</time></trkpt>
<trkpt lat="26.493357" lon="100.184051">
<time>2015-08-06T11:45:56Z</time></trkpt>
<trkpt lat="26.492977" lon="100.184222">
<time>2015-08-06T11:45:57Z</time></trkpt>
<trkpt lat="26.492598" lon="100.184392">
<time>2015-08-06T11:45:58Z</time></trkpt>
<trkpt lat="26.492208" lon="100.184552">
<time>2015-08-06T11:45:59Z</time></trkpt>
<trkpt lat="26.491828" lon="100.184723">
<time>2015-08-06T11:46:00Z</time></trkpt>
<trkpt lat="26.491458" lon="100.184883">
<time>2015-08-06T11:46:01Z</time></trkpt>
<trkpt lat="26.491248" lon="100.184983">
<time>2015-08-06T11:46:02Z</time></trkpt>
<trkpt lat="26.491108" lon="100.185033">
<time>2015-08-06T11:46:03Z</time></trkpt>
<trkpt lat="26.490769" lon="100.185174">
<time>2015-08-06T11:46:04Z</time></trkpt>
<trkpt lat="26.490449" lon="100.185314">
<time>2015-08-06T11:46:05Z</time></trkpt>
<trkpt lat="26.490119" lon="100.185464">
<time>2015-08-06T11:46:06Z</time></trkpt>
<trkpt lat="26.489789" lon="100.185614">
<time>2015-08-06T11:46:07Z</time></trkpt>
<trkpt lat="26.489449" lon="100.185755">
<time>2015-08-06T11:46:08Z</time></trkpt>
<trkpt lat="26.489119" lon="100.185905">
<time>2015-08-06T11:46:09Z</time></trkpt>
<trkpt lat="26.48878" lon="100.186045">
<time>2015-08-06T11:46:10Z</time></trkpt>
<trkpt lat="26.48845" lon="100.186166">
<time>2015-08-06T11:46:11Z</time></trkpt>
<trkpt lat="26.4881" lon="100.186276">
<time>2015-08-06T11:46:12Z</time></trkpt>
<trkpt lat="26.48779" lon="100.186346">
<time>2015-08-06T11:46:13Z</time></trkpt>
<trkpt lat="26.4874" lon="100.186376">
<time>2015-08-06T11:46:14Z</time></trkpt>
<trkpt lat="26.48706" lon="100.186346">
<time>2015-08-06T11:46:15Z</time></trkpt>
<trkpt lat="26.486699" lon="100.186276">
<time>2015-08-06T11:46:16Z</time></trkpt>
<trkpt lat="26.486359" lon="100.186176">
<time>2015-08-06T11:46:17Z</time></trkpt>
<trkpt lat="26.485999" lon="100.186005">
<time>2015-08-06T11:46:18Z</time></trkpt>
<trkpt lat="26.485708" lon="100.185855">
<time>2015-08-06T11:46:19Z</time></trkpt>
<trkpt lat="26.485678" lon="100.185835">
<time>2015-08-06T11:46:20Z</time></trkpt>
<trkpt lat="26.485338" lon="100.185685">
<time>2015-08-06T11:46:21Z</time></trkpt>
<trkpt lat="26.484998" lon="100.185494">
<time>2015-08-06T11:46:22Z</time></trkpt>
<trkpt lat="26.484677" lon="100.185374">
<time>2015-08-06T11:46:23Z</time></trkpt>
<trkpt lat="26.484347" lon="100.185264">
<time>2015-08-06T11:46:24Z</time></trkpt>
<trkpt lat="26.484017" lon="100.185194">
<time>2015-08-06T11:46:25Z</time></trkpt>
<trkpt lat="26.483637" lon="100.185164">
<time>2015-08-06T11:46:26Z</time></trkpt>
<trkpt lat="26.483276" lon="100.185154">
<time>2015-08-06T11:46:27Z</time></trkpt>
<trkpt lat="26.482926" lon="100.185154">
<time>2015-08-06T11:46:28Z</time></trkpt>
<trkpt lat="26.482576" lon="100.185144">
<time>2015-08-06T11:46:29Z</time></trkpt>
<trkpt lat="26.482236" lon="100.185144">
<time>2015-08-06T11:46:30Z</time></trkpt>
<trkpt lat="26.481856" lon="100.185144">
<time>2015-08-06T11:46:31Z</time></trkpt>
<trkpt lat="26.481506" lon="100.185124">
<time>2015-08-06T11:46:32Z</time></trkpt>
<trkpt lat="26.481166" lon="100.185124">
<time>2015-08-06T11:46:33Z</time></trkpt>
<trkpt lat="26.480846" lon="100.185124">
<time>2015-08-06T11:46:34Z</time></trkpt>
<trkpt lat="26.480476" lon="100.185114">
<time>2015-08-06T11:46:35Z</time></trkpt>
<trkpt lat="26.480105" lon="100.185104">
<time>2015-08-06T11:46:36Z</time></trkpt>
<trkpt lat="26.479755" lon="100.185084">
<time>2015-08-06T11:46:37Z</time></trkpt>
<trkpt lat="26.479435" lon="100.185044">
<time>2015-08-06T11:46:38Z</time></trkpt>
<trkpt lat="26.479115" lon="100.184983">
<time>2015-08-06T11:46:39Z</time></trkpt>
<trkpt lat="26.478845" lon="100.184933">
<time>2015-08-06T11:46:40Z</time></trkpt>
<trkpt lat="26.478465" lon="100.184883">
<time>2015-08-06T11:46:41Z</time></trkpt>
<trkpt lat="26.478144" lon="100.184813">
<time>2015-08-06T11:46:42Z</time></trkpt>
<trkpt lat="26.477824" lon="100.184773">
<time>2015-08-06T11:46:43Z</time></trkpt>
<trkpt lat="26.477514" lon="100.184733">
<time>2015-08-06T11:46:44Z</time></trkpt>
<trkpt lat="26.477204" lon="100.184663">
<time>2015-08-06T11:46:45Z</time></trkpt>
<trkpt lat="26.476894" lon="100.184553">
<time>2015-08-06T11:46:46Z</time></trkpt>
<trkpt lat="26.476583" lon="100.184412">
<time>2015-08-06T11:46:47Z</time></trkpt>
<trkpt lat="26.476303" lon="100.184272">
<time>2015-08-06T11:46:48Z</time></trkpt>
<trkpt lat="26.476012" lon="100.184072">
<time>2015-08-06T11:46:49Z</time></trkpt>
<trkpt lat="26.475762" lon="100.183901">
<time>2015-08-06T11:46:50Z</time></trkpt>
<trkpt lat="26.475532" lon="100.183751">
<time>2015-08-06T11:46:51Z</time></trkpt>
<trkpt lat="26.475231" lon="100.183531">
<time>2015-08-06T11:46:52Z</time></trkpt>
<trkpt lat="26.474941" lon="100.18333">
<time>2015-08-06T11:46:53Z</time></trkpt>
<trkpt lat="26.47466" lon="100.18312">
<time>2015-08-06T11:46:54Z</time></trkpt>
<trkpt lat="26.47443" lon="100.182919">
<time>2015-08-06T11:46:55Z</time></trkpt>
<trkpt lat="26.474199" lon="100.182679">
<time>2015-08-06T11:46:56Z</time></trkpt>
<trkpt lat="26.474019" lon="100.182408">
<time>2015-08-06T11:46:57Z</time></trkpt>
<trkpt lat="26.473808" lon="100.182098">
<time>2015-08-06T11:46:58Z</time></trkpt>
<trkpt lat="26.473598" lon="100.181837">
<time>2015-08-06T11:46:59Z</time></trkpt>
<trkpt lat="26.473337" lon="100.181557">
<time>2015-08-06T11:47:00Z</time></trkpt>
<trkpt lat="26.473107" lon="100.181376">
<time>2015-08-06T11:47:01Z</time></trkpt>
<trkpt lat="26.472826" lon="100.181176">
<time>2015-08-06T11:47:02Z</time></trkpt>
<trkpt lat="26.472516" lon="100.180965">
<time>2015-08-06T11:47:03Z</time></trkpt>
<trkpt lat="26.472225" lon="100.180775">
<time>2015-08-06T11:47:04Z</time></trkpt>
<trkpt lat="26.471915" lon="100.180565">
<time>2015-08-06T11:47:05Z</time></trkpt>
<trkpt lat="26.471664" lon="100.180384">
<time>2015-08-06T11:47:06Z</time></trkpt>
<trkpt lat="26.471324" lon="100.180164">
<time>2015-08-06T11:47:07Z</time></trkpt>
<trkpt lat="26.471043" lon="100.179963">
<time>2015-08-06T11:47:08Z</time></trkpt>
<trkpt lat="26.470753" lon="100.179743">
<time>2015-08-06T11:47:09Z</time></trkpt>
<trkpt lat="26.470543" lon="100.179562">
<time>2015-08-06T11:47:10Z</time></trkpt>
<trkpt lat="26.470272" lon="100.179292">
<time>2015-08-06T11:47:11Z</time></trkpt>
<trkpt lat="26.470041" lon="100.179001">
<time>2015-08-06T11:47:12Z</time></trkpt>
<trkpt lat="26.469831" lon="100.178721">
<time>2015-08-06T11:47:13Z</time></trkpt>
<trkpt lat="26.46961" lon="100.17843">
<time>2015-08-06T11:47:14Z</time></trkpt>
<trkpt lat="26.46938" lon="100.17813">
<time>2015-08-06T11:47:15Z</time></trkpt>
<trkpt lat="26.469109" lon="100.177779">
<time>2015-08-06T11:47:16Z</time></trkpt>
<trkpt lat="26.468878" lon="100.177458">
<time>2015-08-06T11:47:17Z</time></trkpt>
<trkpt lat="26.468658" lon="100.177168">
<time>2015-08-06T11:47:18Z</time></trkpt>
<trkpt lat="26.468427" lon="100.176867">
<time>2015-08-06T11:47:19Z</time></trkpt>
<trkpt lat="26.468226" lon="100.176626">
<time>2015-08-06T11:47:20Z</time></trkpt>
<trkpt lat="26.468036" lon="100.176336">
<time>2015-08-06T11:47:21Z</time></trkpt>
<trkpt lat="26.467865" lon="100.176045">
<time>2015-08-06T11:47:22Z</time></trkpt>
<trkpt lat="26.467714" lon="100.175704">
<time>2015-08-06T11:47:23Z</time></trkpt>
<trkpt lat="26.467594" lon="100.175394">
<time>2015-08-06T11:47:24Z</time></trkpt>
<trkpt lat="26.467493" lon="100.175063">
<time>2015-08-06T11:47:25Z</time></trkpt>
<trkpt lat="26.467383" lon="100.174783">
<time>2015-08-06T11:47:26Z</time></trkpt>
<trkpt lat="26.467282" lon="100.174452">
<time>2015-08-06T11:47:27Z</time></trkpt>
<trkpt lat="26.467181" lon="100.174171">
<time>2015-08-06T11:47:28Z</time></trkpt>
<trkpt lat="26.467091" lon="100.173881">
<time>2015-08-06T11:47:29Z</time></trkpt>
<trkpt lat="26.46699" lon="100.17354">
<time>2015-08-06T11:47:30Z</time></trkpt>
<trkpt lat="26.46688" lon="100.173199">
<time>2015-08-06T11:47:31Z</time></trkpt>
<trkpt lat="26.466789" lon="100.172929">
<time>2015-08-06T11:47:32Z</time></trkpt>
<trkpt lat="26.466668" lon="100.172658">
<time>2015-08-06T11:47:33Z</time></trkpt>
<trkpt lat="26.466628" lon="100.172588">
<time>2015-08-06T11:47:34Z</time></trkpt>
<trkpt lat="26.466538" lon="100.172418">
<time>2015-08-06T11:47:35Z</time></trkpt>
<trkpt lat="26.466368" lon="100.172217">
<time>2015-08-06T11:47:36Z</time></trkpt>
<trkpt lat="26.466117" lon="100.171997">
<time>2015-08-06T11:47:37Z</time></trkpt>
<trkpt lat="26.465887" lon="100.171856">
<time>2015-08-06T11:47:38Z</time></trkpt>
<trkpt lat="26.465676" lon="100.171686">
<time>2015-08-06T11:47:39Z</time></trkpt>
<trkpt lat="26.465386" lon="100.171526">
<time>2015-08-06T11:47:40Z</time></trkpt>
<trkpt lat="26.465126" lon="100.171355">
<time>2015-08-06T11:47:41Z</time></trkpt>
<trkpt lat="26.464895" lon="100.171185">
<time>2015-08-06T11:47:42Z</time></trkpt>
<trkpt lat="26.464635" lon="100.171025">
<time>2015-08-06T11:47:43Z</time></trkpt>
<trkpt lat="26.464344" lon="100.170834">
<time>2015-08-06T11:47:44Z</time></trkpt>
<trkpt lat="26.464064" lon="100.170654">
<time>2015-08-06T11:47:45Z</time></trkpt>
<trkpt lat="26.463783" lon="100.170474">
<time>2015-08-06T11:47:46Z</time></trkpt>
<trkpt lat="26.463523" lon="100.170313">
<time>2015-08-06T11:47:47Z</time></trkpt>
<trkpt lat="26.463213" lon="100.170103">
<time>2015-08-06T11:47:48Z</time></trkpt>
<trkpt lat="26.462942" lon="100.169922">
<time>2015-08-06T11:47:49Z</time></trkpt>
<trkpt lat="26.462672" lon="100.169742">
<time>2015-08-06T11:47:50Z</time></trkpt>
<trkpt lat="26.462391" lon="100.169552">
<time>2015-08-06T11:47:51Z</time></trkpt>
<trkpt lat="26.462091" lon="100.169361">
<time>2015-08-06T11:47:52Z</time></trkpt>
<trkpt lat="26.46181" lon="100.169191">
<time>2015-08-06T11:47:53Z</time></trkpt>
<trkpt lat="26.46161" lon="100.169051">
<time>2015-08-06T11:47:54Z</time></trkpt>
<trkpt lat="26.4614" lon="100.16892">
<time>2015-08-06T11:47:55Z</time></trkpt>
<trkpt lat="26.46121" lon="100.16881">
<time>2015-08-06T11:47:56Z</time></trkpt>
<trkpt lat="26.461019" lon="100.16866">
<time>2015-08-06T11:47:57Z</time></trkpt>
<trkpt lat="26.460839" lon="100.168509">
<time>2015-08-06T11:47:58Z</time></trkpt>
<trkpt lat="26.460588" lon="100.168279">
<time>2015-08-06T11:47:59Z</time></trkpt>
<trkpt lat="26.460408" lon="100.168079">
<time>2015-08-06T11:48:00Z</time></trkpt>
<trkpt lat="26.460207" lon="100.167778">
<time>2015-08-06T11:48:01Z</time></trkpt>
<trkpt lat="26.460017" lon="100.167487">
<time>2015-08-06T11:48:02Z</time></trkpt>
<trkpt lat="26.459846" lon="100.167247">
<time>2015-08-06T11:48:03Z</time></trkpt>
<trkpt lat="26.459706" lon="100.167016">
<time>2015-08-06T11:48:04Z</time></trkpt>
<trkpt lat="26.459495" lon="100.166696">
<time>2015-08-06T11:48:05Z</time></trkpt>
<trkpt lat="26.459304" lon="100.166425">
<time>2015-08-06T11:48:06Z</time></trkpt>
<trkpt lat="26.459124" lon="100.166144">
<time>2015-08-06T11:48:07Z</time></trkpt>
<trkpt lat="26.458923" lon="100.165824">
<time>2015-08-06T11:48:08Z</time></trkpt>
<trkpt lat="26.458733" lon="100.165523">
<time>2015-08-06T11:48:09Z</time></trkpt>
<trkpt lat="26.458562" lon="100.165253">
<time>2015-08-06T11:48:10Z</time></trkpt>
<trkpt lat="26.458391" lon="100.165012">
<time>2015-08-06T11:48:11Z</time></trkpt>
<trkpt lat="26.458211" lon="100.164822">
<time>2015-08-06T11:48:12Z</time></trkpt>
<trkpt lat="26.457901" lon="100.164571">
<time>2015-08-06T11:48:13Z</time></trkpt>
<trkpt lat="26.45777" lon="100.164501">
<time>2015-08-06T11:48:14Z</time></trkpt>
<trkpt lat="26.45767" lon="100.164451">
<time>2015-08-06T11:48:15Z</time></trkpt>
<trkpt lat="26.45739" lon="100.164351">
<time>2015-08-06T11:48:16Z</time></trkpt>
<trkpt lat="26.45718" lon="100.164291">
<time>2015-08-06T11:48:17Z</time></trkpt>
<trkpt lat="26.45693" lon="100.164281">
<time>2015-08-06T11:48:18Z</time></trkpt>
<trkpt lat="26.45663" lon="100.164271">
<time>2015-08-06T11:48:19Z</time></trkpt>
<trkpt lat="26.456299" lon="100.164241">
<time>2015-08-06T11:48:20Z</time></trkpt>
<trkpt lat="26.455979" lon="100.164231">
<time>2015-08-06T11:48:21Z</time></trkpt>
<trkpt lat="26.455669" lon="100.16421">
<time>2015-08-06T11:48:22Z</time></trkpt>
<trkpt lat="26.455259" lon="100.164211">
<time>2015-08-06T11:48:23Z</time></trkpt>
<trkpt lat="26.454969" lon="100.16416">
<time>2015-08-06T11:48:24Z</time></trkpt>
<trkpt lat="26.454659" lon="100.16407">
<time>2015-08-06T11:48:25Z</time></trkpt>
<trkpt lat="26.454438" lon="100.16395">
<time>2015-08-06T11:48:26Z</time></trkpt>
<trkpt lat="26.454178" lon="100.16378">
<time>2015-08-06T11:48:27Z</time></trkpt>
<trkpt lat="26.453957" lon="100.163619">
<time>2015-08-06T11:48:28Z</time></trkpt>
<trkpt lat="26.453737" lon="100.163479">
<time>2015-08-06T11:48:29Z</time></trkpt>
<trkpt lat="26.453567" lon="100.163359">
<time>2015-08-06T11:48:30Z</time></trkpt>
<trkpt lat="26.453367" lon="100.163218">
<time>2015-08-06T11:48:31Z</time></trkpt>
<trkpt lat="26.453186" lon="100.163088">
<time>2015-08-06T11:48:32Z</time></trkpt>
<trkpt lat="26.453046" lon="100.162988">
<time>2015-08-06T11:48:33Z</time></trkpt>
<trkpt lat="26.452846" lon="100.162848">
<time>2015-08-06T11:48:34Z</time></trkpt>
<trkpt lat="26.452685" lon="100.162727">
<time>2015-08-06T11:48:35Z</time></trkpt>
<trkpt lat="26.452525" lon="100.162617">
<time>2015-08-06T11:48:36Z</time></trkpt>
<trkpt lat="26.452345" lon="100.162487">
<time>2015-08-06T11:48:37Z</time></trkpt>
<trkpt lat="26.452225" lon="100.162407">
<time>2015-08-06T11:48:38Z</time></trkpt>
<trkpt lat="26.451724" lon="100.162056">
<time>2015-08-06T11:48:39Z</time></trkpt>
<trkpt lat="26.451443" lon="100.161846">
<time>2015-08-06T11:48:40Z</time></trkpt>
<trkpt lat="26.451223" lon="100.161695">
<time>2015-08-06T11:48:41Z</time></trkpt>
<trkpt lat="26.451003" lon="100.161545">
<time>2015-08-06T11:48:42Z</time></trkpt>
<trkpt lat="26.450802" lon="100.161395">
<time>2015-08-06T11:48:43Z</time></trkpt>
<trkpt lat="26.450542" lon="100.161214">
<time>2015-08-06T11:48:44Z</time></trkpt>
<trkpt lat="26.450352" lon="100.161084">
<time>2015-08-06T11:48:45Z</time></trkpt>
<trkpt lat="26.450191" lon="100.160944">
<time>2015-08-06T11:48:46Z</time></trkpt>
<trkpt lat="26.450041" lon="100.160804">
<time>2015-08-06T11:48:47Z</time></trkpt>
<trkpt lat="26.44984" lon="100.160583">
<time>2015-08-06T11:48:48Z</time></trkpt>
<trkpt lat="26.44963" lon="100.160343">
<time>2015-08-06T11:48:49Z</time></trkpt>
<trkpt lat="26.44945" lon="100.160132">
<time>2015-08-06T11:48:50Z</time></trkpt>
<trkpt lat="26.449269" lon="100.159912">
<time>2015-08-06T11:48:51Z</time></trkpt>
<trkpt lat="26.449109" lon="100.159731">
<time>2015-08-06T11:48:52Z</time></trkpt>
<trkpt lat="26.448898" lon="100.159511">
<time>2015-08-06T11:48:53Z</time></trkpt>
<trkpt lat="26.448708" lon="100.159341">
<time>2015-08-06T11:48:54Z</time></trkpt>
<trkpt lat="26.448487" lon="100.15918">
<time>2015-08-06T11:48:55Z</time></trkpt>
<trkpt lat="26.448227" lon="100.15906">
<time>2015-08-06T11:48:56Z</time></trkpt>
<trkpt lat="26.447967" lon="100.15898">
<time>2015-08-06T11:48:57Z</time></trkpt>
<trkpt lat="26.447687" lon="100.15898">
<time>2015-08-06T11:48:58Z</time></trkpt>
<trkpt lat="26.447427" lon="100.15899">
<time>2015-08-06T11:48:59Z</time></trkpt>
<trkpt lat="26.447147" lon="100.15905">
<time>2015-08-06T11:49:00Z</time></trkpt>
<trkpt lat="26.446907" lon="100.15914">
<time>2015-08-06T11:49:01Z</time></trkpt>
<trkpt lat="26.446697" lon="100.15923">
<time>2015-08-06T11:49:02Z</time></trkpt>
<trkpt lat="26.446517" lon="100.15929">
<time>2015-08-06T11:49:03Z</time></trkpt>
<trkpt lat="26.446367" lon="100.159351">
<time>2015-08-06T11:49:04Z</time></trkpt>
<trkpt lat="26.446247" lon="100.159401">
<time>2015-08-06T11:49:05Z</time></trkpt>
<trkpt lat="26.446137" lon="100.159431">
<time>2015-08-06T11:49:06Z</time></trkpt>
<trkpt lat="26.446047" lon="100.159481">
<time>2015-08-06T11:49:07Z</time></trkpt>
<trkpt lat="26.445947" lon="100.159521">
<time>2015-08-06T11:49:08Z</time></trkpt>
<trkpt lat="26.445837" lon="100.159571">
<time>2015-08-06T11:49:09Z</time></trkpt>
<trkpt lat="26.445727" lon="100.159611">
<time>2015-08-06T11:49:10Z</time></trkpt>
<trkpt lat="26.445567" lon="100.159681">
<time>2015-08-06T11:49:11Z</time></trkpt>
<trkpt lat="26.445427" lon="100.159721">
<time>2015-08-06T11:49:12Z</time></trkpt>
<trkpt lat="26.445327" lon="100.159761">
<time>2015-08-06T11:49:13Z</time></trkpt>
<trkpt lat="26.445228" lon="100.159812">
<time>2015-08-06T11:49:14Z</time></trkpt>
<trkpt lat="26.445078" lon="100.159872">
<time>2015-08-06T11:49:15Z</time></trkpt>
<trkpt lat="26.444918" lon="100.159932">
<time>2015-08-06T11:49:16Z</time></trkpt>
<trkpt lat="26.444738" lon="100.160012">
<time>2015-08-06T11:49:17Z</time></trkpt>
<trkpt lat="26.444528" lon="100.160122">
<time>2015-08-06T11:49:18Z</time></trkpt>
<trkpt lat="26.444338" lon="100.160232">
<time>2015-08-06T11:49:19Z</time></trkpt>
<trkpt lat="26.444108" lon="100.160383">
<time>2015-08-06T11:49:20Z</time></trkpt>
<trkpt lat="26.443928" lon="100.160523">
<time>2015-08-06T11:49:21Z</time></trkpt>
<trkpt lat="26.443719" lon="100.160683">
<time>2015-08-06T11:49:22Z</time></trkpt>
<trkpt lat="26.443499" lon="100.160844">
<time>2015-08-06T11:49:23Z</time></trkpt>
<trkpt lat="26.443289" lon="100.161024">
<time>2015-08-06T11:49:24Z</time></trkpt>
<trkpt lat="26.443149" lon="100.161164">
<time>2015-08-06T11:49:25Z</time></trkpt>
<trkpt lat="26.443059" lon="100.161255">
<time>2015-08-06T11:49:26Z</time></trkpt>
<trkpt lat="26.44296" lon="100.161355">
<time>2015-08-06T11:49:27Z</time></trkpt>
<trkpt lat="26.44288" lon="100.161445">
<time>2015-08-06T11:49:28Z</time></trkpt>
<trkpt lat="26.44279" lon="100.161565">
<time>2015-08-06T11:49:29Z</time></trkpt>
<trkpt lat="26.44266" lon="100.161726">
<time>2015-08-06T11:49:30Z</time></trkpt>
<trkpt lat="26.442541" lon="100.161916">
<time>2015-08-06T11:49:31Z</time></trkpt>
<trkpt lat="26.442451" lon="100.162106">
<time>2015-08-06T11:49:32Z</time></trkpt>
<trkpt lat="26.442381" lon="100.162287">
<time>2015-08-06T11:49:33Z</time></trkpt>
<trkpt lat="26.442301" lon="100.162467">
<time>2015-08-06T11:49:34Z</time></trkpt>
<trkpt lat="26.442202" lon="100.162658">
<time>2015-08-06T11:49:35Z</time></trkpt>
<trkpt lat="26.442132" lon="100.162748">
<time>2015-08-06T11:49:36Z</time></trkpt>
<trkpt lat="26.442062" lon="100.162838">
<time>2015-08-06T11:49:37Z</time></trkpt>
<trkpt lat="26.441902" lon="100.162998">
<time>2015-08-06T11:49:38Z</time></trkpt>
<trkpt lat="26.441673" lon="100.163229">
<time>2015-08-06T11:49:39Z</time></trkpt>
<trkpt lat="26.441413" lon="100.163489">
<time>2015-08-06T11:49:40Z</time></trkpt>
<trkpt lat="26.441233" lon="100.16367">
<time>2015-08-06T11:49:41Z</time></trkpt>
<trkpt lat="26.441074" lon="100.16377">
<time>2015-08-06T11:49:42Z</time></trkpt>
<trkpt lat="26.440934" lon="100.16384">
<time>2015-08-06T11:49:43Z</time></trkpt>
<trkpt lat="26.440774" lon="100.16388">
<time>2015-08-06T11:49:44Z</time></trkpt>
<trkpt lat="26.440614" lon="100.16389">
<time>2015-08-06T11:49:45Z</time></trkpt>
<trkpt lat="26.440414" lon="100.1639">
<time>2015-08-06T11:49:46Z</time></trkpt>
<trkpt lat="26.440163" lon="100.1639">
<time>2015-08-06T11:49:47Z</time></trkpt>
<trkpt lat="26.439903" lon="100.1639">
<time>2015-08-06T11:49:48Z</time></trkpt>
<trkpt lat="26.439683" lon="100.16397">
<time>2015-08-06T11:49:49Z</time></trkpt>
<trkpt lat="26.439573" lon="100.164031">
<time>2015-08-06T11:49:50Z</time></trkpt>
<trkpt lat="26.439464" lon="100.164111">
<time>2015-08-06T11:49:51Z</time></trkpt>
<trkpt lat="26.439394" lon="100.164201">
<time>2015-08-06T11:49:52Z</time></trkpt>
<trkpt lat="26.439324" lon="100.164331">
<time>2015-08-06T11:49:53Z</time></trkpt>
<trkpt lat="26.439264" lon="100.164451">
<time>2015-08-06T11:49:54Z</time></trkpt>
<trkpt lat="26.439214" lon="100.164582">
<time>2015-08-06T11:49:55Z</time></trkpt>
<trkpt lat="26.439135" lon="100.164812">
<time>2015-08-06T11:49:56Z</time></trkpt>
<trkpt lat="26.439045" lon="100.165063">
<time>2015-08-06T11:49:57Z</time></trkpt>
<trkpt lat="26.438956" lon="100.165313">
<time>2015-08-06T11:49:58Z</time></trkpt>
<trkpt lat="26.438836" lon="100.165604">
<time>2015-08-06T11:49:59Z</time></trkpt>
<trkpt lat="26.438707" lon="100.165874">
<time>2015-08-06T11:50:00Z</time></trkpt>
<trkpt lat="26.438567" lon="100.166145">
<time>2015-08-06T11:50:01Z</time></trkpt>
<trkpt lat="26.438398" lon="100.166396">
<time>2015-08-06T11:50:02Z</time></trkpt>
<trkpt lat="26.438238" lon="100.166616">
<time>2015-08-06T11:50:03Z</time></trkpt>
<trkpt lat="26.438048" lon="100.166887">
<time>2015-08-06T11:50:04Z</time></trkpt>
<trkpt lat="26.437909" lon="100.167097">
<time>2015-08-06T11:50:05Z</time></trkpt>
<trkpt lat="26.437789" lon="100.167307">
<time>2015-08-06T11:50:06Z</time></trkpt>
<trkpt lat="26.437739" lon="100.167418">
<time>2015-08-06T11:50:07Z</time></trkpt>
<trkpt lat="26.437709" lon="100.167538">
<time>2015-08-06T11:50:08Z</time></trkpt>
<trkpt lat="26.4377" lon="100.167658">
<time>2015-08-06T11:50:09Z</time></trkpt>
<trkpt lat="26.43771" lon="100.167778">
<time>2015-08-06T11:50:10Z</time></trkpt>
<trkpt lat="26.43773" lon="100.167909">
<time>2015-08-06T11:50:11Z</time></trkpt>
<trkpt lat="26.43776" lon="100.168039">
<time>2015-08-06T11:50:12Z</time></trkpt>
<trkpt lat="26.437801" lon="100.168219">
<time>2015-08-06T11:50:13Z</time></trkpt>
<trkpt lat="26.437811" lon="100.16832">
<time>2015-08-06T11:50:14Z</time></trkpt>
<trkpt lat="26.437821" lon="100.1684">
<time>2015-08-06T11:50:15Z</time></trkpt>
<trkpt lat="26.437811" lon="100.16848">
<time>2015-08-06T11:50:16Z</time></trkpt>
<trkpt lat="26.437801" lon="100.16857">
<time>2015-08-06T11:50:17Z</time></trkpt>
<trkpt lat="26.437782" lon="100.16863">
<time>2015-08-06T11:50:18Z</time></trkpt>
<trkpt lat="26.437742" lon="100.16872">
<time>2015-08-06T11:50:19Z</time></trkpt>
<trkpt lat="26.437652" lon="100.168911">
<time>2015-08-06T11:50:20Z</time></trkpt>
<trkpt lat="26.437502" lon="100.169151">
<time>2015-08-06T11:50:21Z</time></trkpt>
<trkpt lat="26.437363" lon="100.169352">
<time>2015-08-06T11:50:22Z</time></trkpt>
<trkpt lat="26.437293" lon="100.169442">
<time>2015-08-06T11:50:23Z</time></trkpt>
<trkpt lat="26.437243" lon="100.169512">
<time>2015-08-06T11:50:24Z</time></trkpt>
<trkpt lat="26.437173" lon="100.169562">
<time>2015-08-06T11:50:25Z</time></trkpt>
<trkpt lat="26.437123" lon="100.169592">
<time>2015-08-06T11:50:26Z</time></trkpt>
<trkpt lat="26.437053" lon="100.169622">
<time>2015-08-06T11:50:27Z</time></trkpt>
<trkpt lat="26.436943" lon="100.169652">
<time>2015-08-06T11:50:28Z</time></trkpt>
<trkpt lat="26.436853" lon="100.169652">
<time>2015-08-06T11:50:29Z</time></trkpt>
<trkpt lat="26.436713" lon="100.169632">
<time>2015-08-06T11:50:30Z</time></trkpt>
<trkpt lat="26.436503" lon="100.169582">
<time>2015-08-06T11:50:31Z</time></trkpt>
<trkpt lat="26.436403" lon="100.169572">
<time>2015-08-06T11:50:32Z</time></trkpt>
<trkpt lat="26.436333" lon="100.169562">
<time>2015-08-06T11:50:33Z</time></trkpt>
<trkpt lat="26.436243" lon="100.169572">
<time>2015-08-06T11:50:34Z</time></trkpt>
<trkpt lat="26.436163" lon="100.169602">
<time>2015-08-06T11:50:35Z</time></trkpt>
<trkpt lat="26.436093" lon="100.169642">
<time>2015-08-06T11:50:36Z</time></trkpt>
<trkpt lat="26.436013" lon="100.169733">
<time>2015-08-06T11:50:37Z</time></trkpt>
<trkpt lat="26.435953" lon="100.169823">
<time>2015-08-06T11:50:38Z</time></trkpt>
<trkpt lat="26.435883" lon="100.169943">
<time>2015-08-06T11:50:39Z</time></trkpt>
<trkpt lat="26.435854" lon="100.170063">
<time>2015-08-06T11:50:40Z</time></trkpt>
<trkpt lat="26.435814" lon="100.170204">
<time>2015-08-06T11:50:41Z</time></trkpt>
<trkpt lat="26.435784" lon="100.170344">
<time>2015-08-06T11:50:42Z</time></trkpt>
<trkpt lat="26.435764" lon="100.170464">
<time>2015-08-06T11:50:43Z</time></trkpt>
<trkpt lat="26.435755" lon="100.170665">
<time>2015-08-06T11:50:44Z</time></trkpt>
<trkpt lat="26.435755" lon="100.170775">
<time>2015-08-06T11:50:45Z</time></trkpt>
<trkpt lat="26.435745" lon="100.170985">
<time>2015-08-06T11:50:46Z</time></trkpt>
<trkpt lat="26.435736" lon="100.171146">
<time>2015-08-06T11:50:47Z</time></trkpt>
<trkpt lat="26.435716" lon="100.171256">
<time>2015-08-06T11:50:48Z</time></trkpt>
<trkpt lat="26.435686" lon="100.171386">
<time>2015-08-06T11:50:49Z</time></trkpt>
<trkpt lat="26.435656" lon="100.171466">
<time>2015-08-06T11:50:50Z</time></trkpt>
<trkpt lat="26.435626" lon="100.171547">
<time>2015-08-06T11:50:51Z</time></trkpt>
<trkpt lat="26.435576" lon="100.171657">
<time>2015-08-06T11:50:52Z</time></trkpt>
<trkpt lat="26.435537" lon="100.171727">
<time>2015-08-06T11:50:53Z</time></trkpt>
<trkpt lat="26.435457" lon="100.171827">
<time>2015-08-06T11:50:54Z</time></trkpt>
<trkpt lat="26.435137" lon="100.172138">
<time>2015-08-06T11:50:55Z</time></trkpt>
<trkpt lat="26.435027" lon="100.172248">
<time>2015-08-06T11:50:56Z</time></trkpt>
<trkpt lat="26.434908" lon="100.172378">
<time>2015-08-06T11:50:57Z</time></trkpt>
<trkpt lat="26.434828" lon="100.172468">
<time>2015-08-06T11:50:58Z</time></trkpt>
<trkpt lat="26.434758" lon="100.172569">
<time>2015-08-06T11:50:59Z</time></trkpt>
<trkpt lat="26.434648" lon="100.172749">
<time>2015-08-06T11:51:00Z</time></trkpt>
<trkpt lat="26.434569" lon="100.17296">
<time>2015-08-06T11:51:01Z</time></trkpt>
<trkpt lat="26.434529" lon="100.17308">
<time>2015-08-06T11:51:02Z</time></trkpt>
<trkpt lat="26.434479" lon="100.17326">
<time>2015-08-06T11:51:03Z</time></trkpt>
<trkpt lat="26.4344" lon="100.173641">
<time>2015-08-06T11:51:04Z</time></trkpt>
<trkpt lat="26.43433" lon="100.173952">
<time>2015-08-06T11:51:05Z</time></trkpt>
<trkpt lat="26.434241" lon="100.174262">
<time>2015-08-06T11:51:06Z</time></trkpt>
<trkpt lat="26.434122" lon="100.174613">
<time>2015-08-06T11:51:07Z</time></trkpt>
<trkpt lat="26.433823" lon="100.175585">
<time>2015-08-06T11:51:08Z</time></trkpt>
<trkpt lat="26.433694" lon="100.175916">
<time>2015-08-06T11:51:09Z</time></trkpt>
<trkpt lat="26.433554" lon="100.176236">
<time>2015-08-06T11:51:10Z</time></trkpt>
<trkpt lat="26.432877" lon="100.177639">
<time>2015-08-06T11:51:11Z</time></trkpt>
<trkpt lat="26.432757" lon="100.17789">
<time>2015-08-06T11:51:12Z</time></trkpt>
<trkpt lat="26.432349" lon="100.178732">
<time>2015-08-06T11:51:13Z</time></trkpt>
<trkpt lat="26.432239" lon="100.178972">
<time>2015-08-06T11:51:14Z</time></trkpt>
<trkpt lat="26.43208" lon="100.179303">
<time>2015-08-06T11:51:15Z</time></trkpt>
<trkpt lat="26.43193" lon="100.179624">
<time>2015-08-06T11:51:16Z</time></trkpt>
<trkpt lat="26.431731" lon="100.180024">
<time>2015-08-06T11:51:17Z</time></trkpt>
<trkpt lat="26.431551" lon="100.180405">
<time>2015-08-06T11:51:18Z</time></trkpt>
<trkpt lat="26.431392" lon="100.180746">
<time>2015-08-06T11:51:19Z</time></trkpt>
<trkpt lat="26.431233" lon="100.181057">
<time>2015-08-06T11:51:20Z</time></trkpt>
<trkpt lat="26.431113" lon="100.181307">
<time>2015-08-06T11:51:21Z</time></trkpt>
<trkpt lat="26.431063" lon="100.181427">
<time>2015-08-06T11:51:22Z</time></trkpt>
<trkpt lat="26.430894" lon="100.181738">
<time>2015-08-06T11:51:23Z</time></trkpt>
<trkpt lat="26.430804" lon="100.181968">
<time>2015-08-06T11:51:24Z</time></trkpt>
<trkpt lat="26.430625" lon="100.182329">
<time>2015-08-06T11:51:25Z</time></trkpt>
<trkpt lat="26.430505" lon="100.1826">
<time>2015-08-06T11:51:26Z</time></trkpt>
<trkpt lat="26.430346" lon="100.18293">
<time>2015-08-06T11:51:27Z</time></trkpt>
<trkpt lat="26.430136" lon="100.183241">
<time>2015-08-06T11:51:28Z</time></trkpt>
<trkpt lat="26.429927" lon="100.183502">
<time>2015-08-06T11:51:29Z</time></trkpt>
<trkpt lat="26.429667" lon="100.183762">
<time>2015-08-06T11:51:30Z</time></trkpt>
<trkpt lat="26.429437" lon="100.183973">
<time>2015-08-06T11:51:31Z</time></trkpt>
<trkpt lat="26.429208" lon="100.184193">
<time>2015-08-06T11:51:32Z</time></trkpt>
<trkpt lat="26.428998" lon="100.184373">
<time>2015-08-06T11:51:33Z</time></trkpt>
<trkpt lat="26.428818" lon="100.184524">
<time>2015-08-06T11:51:34Z</time></trkpt>
<trkpt lat="26.428598" lon="100.184704">
<time>2015-08-06T11:51:35Z</time></trkpt>
<trkpt lat="26.428388" lon="100.184844">
<time>2015-08-06T11:51:36Z</time></trkpt>
<trkpt lat="26.428169" lon="100.184985">
<time>2015-08-06T11:51:37Z</time></trkpt>
<trkpt lat="26.427939" lon="100.185095">
<time>2015-08-06T11:51:38Z</time></trkpt>
<trkpt lat="26.427749" lon="100.185195">
<time>2015-08-06T11:51:39Z</time></trkpt>
<trkpt lat="26.427529" lon="100.185285">
<time>2015-08-06T11:51:40Z</time></trkpt>
<trkpt lat="26.427319" lon="100.185325">
<time>2015-08-06T11:51:41Z</time></trkpt>
<trkpt lat="26.427189" lon="100.185335">
<time>2015-08-06T11:51:42Z</time></trkpt>
<trkpt lat="26.427059" lon="100.185345">
<time>2015-08-06T11:51:43Z</time></trkpt>
<trkpt lat="26.426809" lon="100.185366">
<time>2015-08-06T11:51:44Z</time></trkpt>
<trkpt lat="26.426509" lon="100.185356">
<time>2015-08-06T11:51:45Z</time></trkpt>
<trkpt lat="26.426279" lon="100.185345">
<time>2015-08-06T11:51:46Z</time></trkpt>
<trkpt lat="26.425968" lon="100.185335">
<time>2015-08-06T11:51:47Z</time></trkpt>
<trkpt lat="26.425668" lon="100.185285">
<time>2015-08-06T11:51:48Z</time></trkpt>
<trkpt lat="26.425378" lon="100.185205">
<time>2015-08-06T11:51:49Z</time></trkpt>
<trkpt lat="26.425068" lon="100.185095">
<time>2015-08-06T11:51:50Z</time></trkpt>
<trkpt lat="26.424727" lon="100.184975">
<time>2015-08-06T11:51:51Z</time></trkpt>
<trkpt lat="26.424357" lon="100.184845">
<time>2015-08-06T11:51:52Z</time></trkpt>
<trkpt lat="26.423977" lon="100.184714">
<time>2015-08-06T11:51:53Z</time></trkpt>
<trkpt lat="26.423606" lon="100.184574">
<time>2015-08-06T11:51:54Z</time></trkpt>
<trkpt lat="26.423236" lon="100.184454">
<time>2015-08-06T11:51:55Z</time></trkpt>
<trkpt lat="26.422936" lon="100.184344">
<time>2015-08-06T11:51:56Z</time></trkpt>
<trkpt lat="26.422585" lon="100.184213">
<time>2015-08-06T11:51:57Z</time></trkpt>
<trkpt lat="26.422285" lon="100.184103">
<time>2015-08-06T11:51:58Z</time></trkpt>
<trkpt lat="26.421975" lon="100.183993">
<time>2015-08-06T11:51:59Z</time></trkpt>
<trkpt lat="26.421734" lon="100.183913">
<time>2015-08-06T11:52:00Z</time></trkpt>
<trkpt lat="26.421434" lon="100.183873">
<time>2015-08-06T11:52:01Z</time></trkpt>
<trkpt lat="26.421134" lon="100.183893">
<time>2015-08-06T11:52:02Z</time></trkpt>
<trkpt lat="26.420864" lon="100.183953">
<time>2015-08-06T11:52:03Z</time></trkpt>
<trkpt lat="26.420614" lon="100.184063">
<time>2015-08-06T11:52:04Z</time></trkpt>
<trkpt lat="26.420374" lon="100.184173">
<time>2015-08-06T11:52:05Z</time></trkpt>
<trkpt lat="26.420134" lon="100.184283">
<time>2015-08-06T11:52:06Z</time></trkpt>
<trkpt lat="26.419905" lon="100.184414">
<time>2015-08-06T11:52:07Z</time></trkpt>
<trkpt lat="26.419655" lon="100.184514">
<time>2015-08-06T11:52:08Z</time></trkpt>
<trkpt lat="26.419435" lon="100.184634">
<time>2015-08-06T11:52:09Z</time></trkpt>
<trkpt lat="26.419205" lon="100.184744">
<time>2015-08-06T11:52:10Z</time></trkpt>
<trkpt lat="26.418965" lon="100.184855">
<time>2015-08-06T11:52:11Z</time></trkpt>
<trkpt lat="26.418745" lon="100.184965">
<time>2015-08-06T11:52:12Z</time></trkpt>
<trkpt lat="26.418705" lon="100.184985">
<time>2015-08-06T11:52:13Z</time></trkpt>
<trkpt lat="26.418515" lon="100.185075">
<time>2015-08-06T11:52:14Z</time></trkpt>
<trkpt lat="26.418335" lon="100.185205">
<time>2015-08-06T11:52:15Z</time></trkpt>
<trkpt lat="26.418176" lon="100.185346">
<time>2015-08-06T11:52:16Z</time></trkpt>
<trkpt lat="26.418026" lon="100.185516">
<time>2015-08-06T11:52:17Z</time></trkpt>
<trkpt lat="26.417866" lon="100.185757">
<time>2015-08-06T11:52:18Z</time></trkpt>
<trkpt lat="26.417717" lon="100.186007">
<time>2015-08-06T11:52:19Z</time></trkpt>
<trkpt lat="26.417587" lon="100.186238">
<time>2015-08-06T11:52:20Z</time></trkpt>
<trkpt lat="26.417457" lon="100.186488">
<time>2015-08-06T11:52:21Z</time></trkpt>
<trkpt lat="26.417328" lon="100.186708">
<time>2015-08-06T11:52:22Z</time></trkpt>
<trkpt lat="26.417248" lon="100.186809">
<time>2015-08-06T11:52:23Z</time></trkpt>
<trkpt lat="26.417148" lon="100.186909">
<time>2015-08-06T11:52:24Z</time></trkpt>
<trkpt lat="26.416938" lon="100.187059">
<time>2015-08-06T11:52:25Z</time></trkpt>
<trkpt lat="26.416828" lon="100.187119">
<time>2015-08-06T11:52:26Z</time></trkpt>
<trkpt lat="26.416688" lon="100.187189">
<time>2015-08-06T11:52:27Z</time></trkpt>
<trkpt lat="26.416408" lon="100.18729">
<time>2015-08-06T11:52:28Z</time></trkpt>
<trkpt lat="26.416139" lon="100.18739">
<time>2015-08-06T11:52:29Z</time></trkpt>
<trkpt lat="26.415919" lon="100.18747">
<time>2015-08-06T11:52:30Z</time></trkpt>
<trkpt lat="26.415789" lon="100.18751">
<time>2015-08-06T11:52:31Z</time></trkpt>
<trkpt lat="26.415669" lon="100.18755">
<time>2015-08-06T11:52:32Z</time></trkpt>
<trkpt lat="26.415569" lon="100.18758">
<time>2015-08-06T11:52:33Z</time></trkpt>
<trkpt lat="26.415469" lon="100.1876">
<time>2015-08-06T11:52:34Z</time></trkpt>
<trkpt lat="26.415379" lon="100.18761">
<time>2015-08-06T11:52:35Z</time></trkpt>
<trkpt lat="26.415249" lon="100.18761">
<time>2015-08-06T11:52:36Z</time></trkpt>
<trkpt lat="26.415139" lon="100.18759">
<time>2015-08-06T11:52:37Z</time></trkpt>
<trkpt lat="26.415119" lon="100.18759">
<time>2015-08-06T11:52:38Z</time></trkpt>
<trkpt lat="26.415008" lon="100.18756">
<time>2015-08-06T11:52:39Z</time></trkpt>
<trkpt lat="26.414928" lon="100.18753">
<time>2015-08-06T11:52:40Z</time></trkpt>
<trkpt lat="26.414838" lon="100.18749">
<time>2015-08-06T11:52:41Z</time></trkpt>
<trkpt lat="26.414708" lon="100.18741">
<time>2015-08-06T11:52:42Z</time></trkpt>
<trkpt lat="26.414558" lon="100.18732">
<time>2015-08-06T11:52:43Z</time></trkpt>
<trkpt lat="26.414267" lon="100.187129">
<time>2015-08-06T11:52:44Z</time></trkpt>
<trkpt lat="26.414037" lon="100.186969">
<time>2015-08-06T11:52:45Z</time></trkpt>
<trkpt lat="26.413977" lon="100.186939">
<time>2015-08-06T11:52:46Z</time></trkpt>
<trkpt lat="26.413877" lon="100.186859">
<time>2015-08-06T11:52:47Z</time></trkpt>
<trkpt lat="26.413416" lon="100.186548">
<time>2015-08-06T11:52:48Z</time></trkpt>
<trkpt lat="26.413136" lon="100.186328">
<time>2015-08-06T11:52:49Z</time></trkpt>
<trkpt lat="26.412795" lon="100.186067">
<time>2015-08-06T11:52:50Z</time></trkpt>
<trkpt lat="26.412534" lon="100.185857">
<time>2015-08-06T11:52:51Z</time></trkpt>
<trkpt lat="26.412234" lon="100.185626">
<time>2015-08-06T11:52:52Z</time></trkpt>
<trkpt lat="26.412014" lon="100.185466">
<time>2015-08-06T11:52:53Z</time></trkpt>
<trkpt lat="26.411953" lon="100.185426">
<time>2015-08-06T11:52:54Z</time></trkpt>
<trkpt lat="26.411703" lon="100.185266">
<time>2015-08-06T11:52:55Z</time></trkpt>
<trkpt lat="26.411563" lon="100.185186">
<time>2015-08-06T11:52:56Z</time></trkpt>
<trkpt lat="26.411473" lon="100.185155">
<time>2015-08-06T11:52:57Z</time></trkpt>
<trkpt lat="26.411393" lon="100.185125">
<time>2015-08-06T11:52:58Z</time></trkpt>
<trkpt lat="26.411323" lon="100.185115">
<time>2015-08-06T11:52:59Z</time></trkpt>
<trkpt lat="26.411293" lon="100.185115">
<time>2015-08-06T11:53:00Z</time></trkpt>
<trkpt lat="26.411223" lon="100.185125">
<time>2015-08-06T11:53:01Z</time></trkpt>
<trkpt lat="26.411123" lon="100.185145">
<time>2015-08-06T11:53:02Z</time></trkpt>
<trkpt lat="26.411043" lon="100.185176">
<time>2015-08-06T11:53:03Z</time></trkpt>
<trkpt lat="26.410983" lon="100.185216">
<time>2015-08-06T11:53:04Z</time></trkpt>
<trkpt lat="26.410913" lon="100.185276">
<time>2015-08-06T11:53:05Z</time></trkpt>
<trkpt lat="26.410833" lon="100.185366">
<time>2015-08-06T11:53:06Z</time></trkpt>
<trkpt lat="26.410713" lon="100.185516">
<time>2015-08-06T11:53:07Z</time></trkpt>
<trkpt lat="26.410534" lon="100.185787">
<time>2015-08-06T11:53:08Z</time></trkpt>
<trkpt lat="26.410434" lon="100.185967">
<time>2015-08-06T11:53:09Z</time></trkpt>
<trkpt lat="26.410265" lon="100.186378">
<time>2015-08-06T11:53:10Z</time></trkpt>
<trkpt lat="26.410225" lon="100.186468">
<time>2015-08-06T11:53:11Z</time></trkpt>
<trkpt lat="26.410125" lon="100.186789">
<time>2015-08-06T11:53:12Z</time></trkpt>
<trkpt lat="26.410056" lon="100.187039">
<time>2015-08-06T11:53:13Z</time></trkpt>
<trkpt lat="26.410016" lon="100.18715">
<time>2015-08-06T11:53:14Z</time></trkpt>
<trkpt lat="26.409926" lon="100.18737">
<time>2015-08-06T11:53:15Z</time></trkpt>
<trkpt lat="26.409826" lon="100.18755">
<time>2015-08-06T11:53:16Z</time></trkpt>
<trkpt lat="26.409707" lon="100.187721">
<time>2015-08-06T11:53:17Z</time></trkpt>
<trkpt lat="26.409607" lon="100.187841">
<time>2015-08-06T11:53:18Z</time></trkpt>
<trkpt lat="26.409497" lon="100.187941">
<time>2015-08-06T11:53:19Z</time></trkpt>
<trkpt lat="26.409377" lon="100.188041">
<time>2015-08-06T11:53:20Z</time></trkpt>
<trkpt lat="26.409277" lon="100.188121">
<time>2015-08-06T11:53:21Z</time></trkpt>
<trkpt lat="26.409107" lon="100.188242">
<time>2015-08-06T11:53:22Z</time></trkpt>
<trkpt lat="26.408988" lon="100.188312">
<time>2015-08-06T11:53:23Z</time></trkpt>
<trkpt lat="26.408868" lon="100.188392">
<time>2015-08-06T11:53:24Z</time></trkpt>
<trkpt lat="26.408698" lon="100.188492">
<time>2015-08-06T11:53:25Z</time></trkpt>
<trkpt lat="26.408538" lon="100.188592">
<time>2015-08-06T11:53:26Z</time></trkpt>
<trkpt lat="26.408288" lon="100.188743">
<time>2015-08-06T11:53:27Z</time></trkpt>
<trkpt lat="26.408128" lon="100.188833">
<time>2015-08-06T11:53:28Z</time></trkpt>
<trkpt lat="26.407988" lon="100.188893">
<time>2015-08-06T11:53:29Z</time></trkpt>
<trkpt lat="26.407908" lon="100.188933">
<time>2015-08-06T11:53:30Z</time></trkpt>
<trkpt lat="26.407728" lon="100.189003">
<time>2015-08-06T11:53:31Z</time></trkpt>
<trkpt lat="26.407588" lon="100.189043">
<time>2015-08-06T11:53:32Z</time></trkpt>
<trkpt lat="26.407388" lon="100.189093">
<time>2015-08-06T11:53:33Z</time></trkpt>
<trkpt lat="26.407188" lon="100.189123">
<time>2015-08-06T11:53:34Z</time></trkpt>
<trkpt lat="26.406888" lon="100.189164">
<time>2015-08-06T11:53:35Z</time></trkpt>
<trkpt lat="26.406518" lon="100.189204">
<time>2015-08-06T11:53:36Z</time></trkpt>
<trkpt lat="26.406218" lon="100.189244">
<time>2015-08-06T11:53:37Z</time></trkpt>
<trkpt lat="26.405898" lon="100.189284">
<time>2015-08-06T11:53:38Z</time></trkpt>
<trkpt lat="26.405528" lon="100.189324">
<time>2015-08-06T11:53:39Z</time></trkpt>
<trkpt lat="26.405168" lon="100.189364">
<time>2015-08-06T11:53:40Z</time></trkpt>
<trkpt lat="26.404848" lon="100.189404">
<time>2015-08-06T11:53:41Z</time></trkpt>
<trkpt lat="26.404758" lon="100.189414">
<time>2015-08-06T11:53:42Z</time></trkpt>
<trkpt lat="26.404488" lon="100.189444">
<time>2015-08-06T11:53:43Z</time></trkpt>
<trkpt lat="26.404308" lon="100.189484">
<time>2015-08-06T11:53:44Z</time></trkpt>
<trkpt lat="26.404098" lon="100.189524">
<time>2015-08-06T11:53:45Z</time></trkpt>
<trkpt lat="26.403778" lon="100.189635">
<time>2015-08-06T11:53:46Z</time></trkpt>
<trkpt lat="26.403488" lon="100.189765">
<time>2015-08-06T11:53:47Z</time></trkpt>
<trkpt lat="26.403128" lon="100.189965">
<time>2015-08-06T11:53:48Z</time></trkpt>
<trkpt lat="26.402838" lon="100.190146">
<time>2015-08-06T11:53:49Z</time></trkpt>
<trkpt lat="26.402509" lon="100.190336">
<time>2015-08-06T11:53:50Z</time></trkpt>
<trkpt lat="26.402209" lon="100.190516">
<time>2015-08-06T11:53:51Z</time></trkpt>
<trkpt lat="26.401909" lon="100.190697">
<time>2015-08-06T11:53:52Z</time></trkpt>
<trkpt lat="26.401729" lon="100.190807">
<time>2015-08-06T11:53:53Z</time></trkpt>
<trkpt lat="26.401589" lon="100.190897">
<time>2015-08-06T11:53:54Z</time></trkpt>
<trkpt lat="26.401319" lon="100.191108">
<time>2015-08-06T11:53:55Z</time></trkpt>
<trkpt lat="26.40109" lon="100.191308">
<time>2015-08-06T11:53:56Z</time></trkpt>
<trkpt lat="26.40099" lon="100.191408">
<time>2015-08-06T11:53:57Z</time></trkpt>
<trkpt lat="26.40081" lon="100.191598">
<time>2015-08-06T11:53:58Z</time></trkpt>
<trkpt lat="26.40064" lon="100.191779">
<time>2015-08-06T11:53:59Z</time></trkpt>
<trkpt lat="26.400411" lon="100.191999">
<time>2015-08-06T11:54:00Z</time></trkpt>
<trkpt lat="26.400191" lon="100.19224">
<time>2015-08-06T11:54:01Z</time></trkpt>
<trkpt lat="26.400061" lon="100.19237">
<time>2015-08-06T11:54:02Z</time></trkpt>
<trkpt lat="26.400051" lon="100.19238">
<time>2015-08-06T11:54:03Z</time></trkpt>
<trkpt lat="26.399971" lon="100.19245">
<time>2015-08-06T11:54:04Z</time></trkpt>
<trkpt lat="26.399861" lon="100.19254">
<time>2015-08-06T11:54:05Z</time></trkpt>
<trkpt lat="26.399741" lon="100.19263">
<time>2015-08-06T11:54:06Z</time></trkpt>
<trkpt lat="26.399612" lon="100.192731">
<time>2015-08-06T11:54:07Z</time></trkpt>
<trkpt lat="26.399472" lon="100.192811">
<time>2015-08-06T11:54:08Z</time></trkpt>
<trkpt lat="26.399312" lon="100.192901">
<time>2015-08-06T11:54:09Z</time></trkpt>
<trkpt lat="26.397123" lon="100.193963">
<time>2015-08-06T11:54:10Z</time></trkpt>
<trkpt lat="26.396863" lon="100.194083">
<time>2015-08-06T11:54:11Z</time></trkpt>
<trkpt lat="26.396663" lon="100.194163">
<time>2015-08-06T11:54:12Z</time></trkpt>
<trkpt lat="26.396513" lon="100.194214">
<time>2015-08-06T11:54:13Z</time></trkpt>
<trkpt lat="26.396393" lon="100.194224">
<time>2015-08-06T11:54:14Z</time></trkpt>
<trkpt lat="26.396243" lon="100.194244">
<time>2015-08-06T11:54:15Z</time></trkpt>
<trkpt lat="26.396113" lon="100.194234">
<time>2015-08-06T11:54:16Z</time></trkpt>
<trkpt lat="26.395943" lon="100.194224">
<time>2015-08-06T11:54:17Z</time></trkpt>
<trkpt lat="26.395743" lon="100.194204">
<time>2015-08-06T11:54:18Z</time></trkpt>
<trkpt lat="26.395552" lon="100.194173">
<time>2015-08-06T11:54:19Z</time></trkpt>
<trkpt lat="26.395362" lon="100.194153">
<time>2015-08-06T11:54:20Z</time></trkpt>
<trkpt lat="26.395082" lon="100.194123">
<time>2015-08-06T11:54:21Z</time></trkpt>
<trkpt lat="26.394972" lon="100.194123">
<time>2015-08-06T11:54:22Z</time></trkpt>
<trkpt lat="26.394842" lon="100.194123">
<time>2015-08-06T11:54:23Z</time></trkpt>
<trkpt lat="26.394782" lon="100.194133">
<time>2015-08-06T11:54:24Z</time></trkpt>
<trkpt lat="26.394682" lon="100.194153">
<time>2015-08-06T11:54:25Z</time></trkpt>
<trkpt lat="26.394582" lon="100.194194">
<time>2015-08-06T11:54:26Z</time></trkpt>
<trkpt lat="26.394512" lon="100.194234">
<time>2015-08-06T11:54:27Z</time></trkpt>
<trkpt lat="26.394442" lon="100.194284">
<time>2015-08-06T11:54:28Z</time></trkpt>
<trkpt lat="26.394362" lon="100.194354">
<time>2015-08-06T11:54:29Z</time></trkpt>
<trkpt lat="26.394322" lon="100.194384">
<time>2015-08-06T11:54:30Z</time></trkpt>
<trkpt lat="26.394222" lon="100.194494">
<time>2015-08-06T11:54:31Z</time></trkpt>
<trkpt lat="26.394063" lon="100.194674">
<time>2015-08-06T11:54:32Z</time></trkpt>
<trkpt lat="26.393913" lon="100.194845">
<time>2015-08-06T11:54:33Z</time></trkpt>
<trkpt lat="26.393733" lon="100.195055">
<time>2015-08-06T11:54:34Z</time></trkpt>
<trkpt lat="26.393474" lon="100.195356">
<time>2015-08-06T11:54:35Z</time></trkpt>
<trkpt lat="26.393274" lon="100.195586">
<time>2015-08-06T11:54:36Z</time></trkpt>
<trkpt lat="26.393074" lon="100.195827">
<time>2015-08-06T11:54:37Z</time></trkpt>
<trkpt lat="26.392884" lon="100.196047">
<time>2015-08-06T11:54:38Z</time></trkpt>
<trkpt lat="26.392795" lon="100.196137">
<time>2015-08-06T11:54:39Z</time></trkpt>
<trkpt lat="26.392725" lon="100.196197">
<time>2015-08-06T11:54:40Z</time></trkpt>
<trkpt lat="26.392635" lon="100.196277">
<time>2015-08-06T11:54:41Z</time></trkpt>
<trkpt lat="26.392535" lon="100.196338">
<time>2015-08-06T11:54:42Z</time></trkpt>
<trkpt lat="26.392435" lon="100.196388">
<time>2015-08-06T11:54:43Z</time></trkpt>
<trkpt lat="26.392315" lon="100.196438">
<time>2015-08-06T11:54:44Z</time></trkpt>
<trkpt lat="26.392235" lon="100.196458">
<time>2015-08-06T11:54:45Z</time></trkpt>
<trkpt lat="26.392155" lon="100.196468">
<time>2015-08-06T11:54:46Z</time></trkpt>
<trkpt lat="26.392065" lon="100.196478">
<time>2015-08-06T11:54:47Z</time></trkpt>
<trkpt lat="26.391945" lon="100.196468">
<time>2015-08-06T11:54:48Z</time></trkpt>
<trkpt lat="26.391795" lon="100.196448">
<time>2015-08-06T11:54:49Z</time></trkpt>
<trkpt lat="26.391655" lon="100.196408">
<time>2015-08-06T11:54:50Z</time></trkpt>
<trkpt lat="26.391504" lon="100.196358">
<time>2015-08-06T11:54:51Z</time></trkpt>
<trkpt lat="26.391164" lon="100.196237">
<time>2015-08-06T11:54:52Z</time></trkpt>
<trkpt lat="26.390884" lon="100.196147">
<time>2015-08-06T11:54:53Z</time></trkpt>
<trkpt lat="26.390584" lon="100.196057">
<time>2015-08-06T11:54:54Z</time></trkpt>
<trkpt lat="26.390293" lon="100.195957">
<time>2015-08-06T11:54:55Z</time></trkpt>
<trkpt lat="26.389953" lon="100.195857">
<time>2015-08-06T11:54:56Z</time></trkpt>
<trkpt lat="26.389693" lon="100.195767">
<time>2015-08-06T11:54:57Z</time></trkpt>
<trkpt lat="26.389382" lon="100.195666">
<time>2015-08-06T11:54:58Z</time></trkpt>
<trkpt lat="26.389082" lon="100.195566">
<time>2015-08-06T11:54:59Z</time></trkpt>
<trkpt lat="26.388882" lon="100.195496">
<time>2015-08-06T11:55:00Z</time></trkpt>
<trkpt lat="26.388712" lon="100.195446">
<time>2015-08-06T11:55:01Z</time></trkpt>
<trkpt lat="26.388542" lon="100.195416">
<time>2015-08-06T11:55:02Z</time></trkpt>
<trkpt lat="26.388452" lon="100.195406">
<time>2015-08-06T11:55:03Z</time></trkpt>
<trkpt lat="26.388362" lon="100.195406">
<time>2015-08-06T11:55:04Z</time></trkpt>
<trkpt lat="26.388262" lon="100.195416">
<time>2015-08-06T11:55:05Z</time></trkpt>
<trkpt lat="26.388162" lon="100.195436">
<time>2015-08-06T11:55:06Z</time></trkpt>
<trkpt lat="26.388042" lon="100.195476">
<time>2015-08-06T11:55:07Z</time></trkpt>
<trkpt lat="26.387932" lon="100.195526">
<time>2015-08-06T11:55:08Z</time></trkpt>
<trkpt lat="26.387792" lon="100.195606">
<time>2015-08-06T11:55:09Z</time></trkpt>
<trkpt lat="26.387652" lon="100.195686">
<time>2015-08-06T11:55:10Z</time></trkpt>
<trkpt lat="26.387502" lon="100.195797">
<time>2015-08-06T11:55:11Z</time></trkpt>
<trkpt lat="26.387402" lon="100.195867">
<time>2015-08-06T11:55:12Z</time></trkpt>
<trkpt lat="26.387222" lon="100.195987">
<time>2015-08-06T11:55:13Z</time></trkpt>
<trkpt lat="26.387022" lon="100.196117">
<time>2015-08-06T11:55:14Z</time></trkpt>
<trkpt lat="26.386832" lon="100.196238">
<time>2015-08-06T11:55:15Z</time></trkpt>
<trkpt lat="26.386732" lon="100.196288">
<time>2015-08-06T11:55:16Z</time></trkpt>
<trkpt lat="26.386632" lon="100.196328">
<time>2015-08-06T11:55:17Z</time></trkpt>
<trkpt lat="26.386552" lon="100.196358">
<time>2015-08-06T11:55:18Z</time></trkpt>
<trkpt lat="26.386452" lon="100.196378">
<time>2015-08-06T11:55:19Z</time></trkpt>
<trkpt lat="26.386342" lon="100.196388">
<time>2015-08-06T11:55:20Z</time></trkpt>
<trkpt lat="26.386252" lon="100.196398">
<time>2015-08-06T11:55:21Z</time></trkpt>
<trkpt lat="26.386152" lon="100.196378">
<time>2015-08-06T11:55:22Z</time></trkpt>
<trkpt lat="26.386062" lon="100.196358">
<time>2015-08-06T11:55:23Z</time></trkpt>
<trkpt lat="26.385962" lon="100.196328">
<time>2015-08-06T11:55:24Z</time></trkpt>
<trkpt lat="26.385882" lon="100.196288">
<time>2015-08-06T11:55:25Z</time></trkpt>
<trkpt lat="26.385792" lon="100.196238">
<time>2015-08-06T11:55:26Z</time></trkpt>
<trkpt lat="26.385702" lon="100.196167">
<time>2015-08-06T11:55:27Z</time></trkpt>
<trkpt lat="26.385632" lon="100.196107">
<time>2015-08-06T11:55:28Z</time></trkpt>
<trkpt lat="26.385561" lon="100.196027">
<time>2015-08-06T11:55:29Z</time></trkpt>
<trkpt lat="26.385511" lon="100.195957">
<time>2015-08-06T11:55:30Z</time></trkpt>
<trkpt lat="26.385411" lon="100.195807">
<time>2015-08-06T11:55:31Z</time></trkpt>
<trkpt lat="26.385331" lon="100.195667">
<time>2015-08-06T11:55:32Z</time></trkpt>
<trkpt lat="26.38526" lon="100.195506">
<time>2015-08-06T11:55:33Z</time></trkpt>
<trkpt lat="26.38525" lon="100.195476">
<time>2015-08-06T11:55:34Z</time></trkpt>
<trkpt lat="26.3852" lon="100.195376">
<time>2015-08-06T11:55:35Z</time></trkpt>
<trkpt lat="26.38516" lon="100.195266">
<time>2015-08-06T11:55:36Z</time></trkpt>
<trkpt lat="26.38512" lon="100.195156">
<time>2015-08-06T11:55:37Z</time></trkpt>
<trkpt lat="26.38509" lon="100.195045">
<time>2015-08-06T11:55:38Z</time></trkpt>
<trkpt lat="26.385069" lon="100.194935">
<time>2015-08-06T11:55:39Z</time></trkpt>
<trkpt lat="26.385039" lon="100.194795">
<time>2015-08-06T11:55:40Z</time></trkpt>
<trkpt lat="26.385029" lon="100.194685">
<time>2015-08-06T11:55:41Z</time></trkpt>
<trkpt lat="26.385009" lon="100.194414">
<time>2015-08-06T11:55:42Z</time></trkpt>
<trkpt lat="26.384998" lon="100.194254">
<time>2015-08-06T11:55:43Z</time></trkpt>
<trkpt lat="26.385008" lon="100.194104">
<time>2015-08-06T11:55:44Z</time></trkpt>
<trkpt lat="26.385018" lon="100.193953">
<time>2015-08-06T11:55:45Z</time></trkpt>
<trkpt lat="26.385067" lon="100.193763">
<time>2015-08-06T11:55:46Z</time></trkpt>
<trkpt lat="26.385087" lon="100.193693">
<time>2015-08-06T11:55:47Z</time></trkpt>
<trkpt lat="26.385137" lon="100.193563">
<time>2015-08-06T11:55:48Z</time></trkpt>
<trkpt lat="26.385237" lon="100.193282">
<time>2015-08-06T11:55:49Z</time></trkpt>
<trkpt lat="26.385287" lon="100.193162">
<time>2015-08-06T11:55:50Z</time></trkpt>
<trkpt lat="26.385326" lon="100.193002">
<time>2015-08-06T11:55:51Z</time></trkpt>
<trkpt lat="26.385356" lon="100.192851">
<time>2015-08-06T11:55:52Z</time></trkpt>
<trkpt lat="26.385366" lon="100.192671">
<time>2015-08-06T11:55:53Z</time></trkpt>
<trkpt lat="26.385366" lon="100.192611">
<time>2015-08-06T11:55:54Z</time></trkpt>
<trkpt lat="26.385365" lon="100.192521">
<time>2015-08-06T11:55:55Z</time></trkpt>
<trkpt lat="26.385345" lon="100.19235">
<time>2015-08-06T11:55:56Z</time></trkpt>
<trkpt lat="26.385295" lon="100.19217">
<time>2015-08-06T11:55:57Z</time></trkpt>
<trkpt lat="26.385235" lon="100.19202">
<time>2015-08-06T11:55:58Z</time></trkpt>
<trkpt lat="26.385184" lon="100.191929">
<time>2015-08-06T11:55:59Z</time></trkpt>
<trkpt lat="26.385114" lon="100.191809">
<time>2015-08-06T11:56:00Z</time></trkpt>
<trkpt lat="26.385044" lon="100.191719">
<time>2015-08-06T11:56:01Z</time></trkpt>
<trkpt lat="26.384934" lon="100.191599">
<time>2015-08-06T11:56:02Z</time></trkpt>
<trkpt lat="26.384703" lon="100.191398">
<time>2015-08-06T11:56:03Z</time></trkpt>
<trkpt lat="26.384693" lon="100.191388">
<time>2015-08-06T11:56:04Z</time></trkpt>
<trkpt lat="26.384483" lon="100.191208">
<time>2015-08-06T11:56:05Z</time></trkpt>
<trkpt lat="26.384292" lon="100.191038">
<time>2015-08-06T11:56:06Z</time></trkpt>
<trkpt lat="26.384092" lon="100.190867">
<time>2015-08-06T11:56:07Z</time></trkpt>
<trkpt lat="26.383872" lon="100.190687">
<time>2015-08-06T11:56:08Z</time></trkpt>
<trkpt lat="26.383651" lon="100.190497">
<time>2015-08-06T11:56:09Z</time></trkpt>
<trkpt lat="26.383451" lon="100.190326">
<time>2015-08-06T11:56:10Z</time></trkpt>
<trkpt lat="26.38324" lon="100.190146">
<time>2015-08-06T11:56:11Z</time></trkpt>
<trkpt lat="26.3831" lon="100.190036">
<time>2015-08-06T11:56:12Z</time></trkpt>
<trkpt lat="26.38296" lon="100.189946">
<time>2015-08-06T11:56:13Z</time></trkpt>
<trkpt lat="26.38286" lon="100.189896">
<time>2015-08-06T11:56:14Z</time></trkpt>
<trkpt lat="26.38279" lon="100.189866">
<time>2015-08-06T11:56:15Z</time></trkpt>
<trkpt lat="26.3825" lon="100.189775">
<time>2015-08-06T11:56:16Z</time></trkpt>
<trkpt lat="26.3822" lon="100.189926">
<time>2015-08-06T11:56:17Z</time></trkpt>
<trkpt lat="26.38202" lon="100.190056">
<time>2015-08-06T11:56:18Z</time></trkpt>
<trkpt lat="26.38181" lon="100.190226">
<time>2015-08-06T11:56:19Z</time></trkpt>
<trkpt lat="26.38158" lon="100.190427">
<time>2015-08-06T11:56:20Z</time></trkpt>
<trkpt lat="26.38142" lon="100.190577">
<time>2015-08-06T11:56:21Z</time></trkpt>
<trkpt lat="26.380212" lon="100.191669">
<time>2015-08-06T11:56:22Z</time></trkpt>
<trkpt lat="26.379253" lon="100.192521">
<time>2015-08-06T11:56:23Z</time></trkpt>
<trkpt lat="26.37251" lon="100.198582">
<time>2015-08-06T11:56:24Z</time></trkpt>
<trkpt lat="26.371951" lon="100.199083">
<time>2015-08-06T11:56:25Z</time></trkpt>
<trkpt lat="26.371671" lon="100.199333">
<time>2015-08-06T11:56:26Z</time></trkpt>
<trkpt lat="26.371401" lon="100.199574">
<time>2015-08-06T11:56:27Z</time></trkpt>
<trkpt lat="26.371091" lon="100.199844">
<time>2015-08-06T11:56:28Z</time></trkpt>
<trkpt lat="26.370912" lon="100.200015">
<time>2015-08-06T11:56:29Z</time></trkpt>
<trkpt lat="26.370762" lon="100.200145">
<time>2015-08-06T11:56:30Z</time></trkpt>
<trkpt lat="26.370632" lon="100.200235">
<time>2015-08-06T11:56:31Z</time></trkpt>
<trkpt lat="26.370462" lon="100.200325">
<time>2015-08-06T11:56:32Z</time></trkpt>
<trkpt lat="26.370332" lon="100.200365">
<time>2015-08-06T11:56:33Z</time></trkpt>
<trkpt lat="26.370172" lon="100.200405">
<time>2015-08-06T11:56:34Z</time></trkpt>
<trkpt lat="26.368651" lon="100.200536">
<time>2015-08-06T11:56:35Z</time></trkpt>
<trkpt lat="26.368341" lon="100.200576">
<time>2015-08-06T11:56:36Z</time></trkpt>
<trkpt lat="26.368031" lon="100.200636">
<time>2015-08-06T11:56:37Z</time></trkpt>
<trkpt lat="26.367721" lon="100.200696">
<time>2015-08-06T11:56:38Z</time></trkpt>
<trkpt lat="26.367271" lon="100.200806">
<time>2015-08-06T11:56:39Z</time></trkpt>
<trkpt lat="26.367011" lon="100.200886">
<time>2015-08-06T11:56:40Z</time></trkpt>
<trkpt lat="26.366681" lon="100.200986">
<time>2015-08-06T11:56:41Z</time></trkpt>
<trkpt lat="26.366431" lon="100.201047">
<time>2015-08-06T11:56:42Z</time></trkpt>
<trkpt lat="26.366081" lon="100.201147">
<time>2015-08-06T11:56:43Z</time></trkpt>
<trkpt lat="26.365701" lon="100.201247">
<time>2015-08-06T11:56:44Z</time></trkpt>
<trkpt lat="26.365181" lon="100.201357">
<time>2015-08-06T11:56:45Z</time></trkpt>
<trkpt lat="26.363201" lon="100.201678">
<time>2015-08-06T11:56:46Z</time></trkpt>
<trkpt lat="26.363081" lon="100.201698">
<time>2015-08-06T11:56:47Z</time></trkpt>
<trkpt lat="26.362821" lon="100.201748">
<time>2015-08-06T11:56:48Z</time></trkpt>
<trkpt lat="26.362821" lon="100.201748">
<time>2015-08-06T11:56:49Z</time></trkpt>
<trkpt lat="26.362791" lon="100.201738">
<time>2015-08-06T11:56:50Z</time></trkpt>
<trkpt lat="26.362721" lon="100.201758">
<time>2015-08-06T11:56:51Z</time></trkpt>
<trkpt lat="26.362661" lon="100.201768">
<time>2015-08-06T11:56:52Z</time></trkpt>
<trkpt lat="26.362631" lon="100.201788">
<time>2015-08-06T11:56:53Z</time></trkpt>
<trkpt lat="26.36056" lon="100.202109">
<time>2015-08-06T11:56:54Z</time></trkpt>
<trkpt lat="26.3591" lon="100.202339">
<time>2015-08-06T11:56:55Z</time></trkpt>
<trkpt lat="26.35864" lon="100.202409">
<time>2015-08-06T11:56:56Z</time></trkpt>
<trkpt lat="26.35829" lon="100.202459">
<time>2015-08-06T11:56:57Z</time></trkpt>
<trkpt lat="26.35745" lon="100.202609">
<time>2015-08-06T11:56:58Z</time></trkpt>
<trkpt lat="26.35632" lon="100.2028">
<time>2015-08-06T11:56:59Z</time></trkpt>
<trkpt lat="26.354449" lon="100.2031">
<time>2015-08-06T11:57:00Z</time></trkpt>
<trkpt lat="26.353289" lon="100.203291">
<time>2015-08-06T11:57:01Z</time></trkpt>
<trkpt lat="26.350778" lon="100.203711">
<time>2015-08-06T11:57:02Z</time></trkpt>
<trkpt lat="26.349958" lon="100.203852">
<time>2015-08-06T11:57:03Z</time></trkpt>
<trkpt lat="26.348188" lon="100.204142">
<time>2015-08-06T11:57:04Z</time></trkpt>
<trkpt lat="26.346217" lon="100.204473">
<time>2015-08-06T11:57:05Z</time></trkpt>
<trkpt lat="26.345807" lon="100.204553">
<time>2015-08-06T11:57:06Z</time></trkpt>
<trkpt lat="26.345417" lon="100.204613">
<time>2015-08-06T11:57:07Z</time></trkpt>
<trkpt lat="26.345037" lon="100.204673">
<time>2015-08-06T11:57:08Z</time></trkpt>
<trkpt lat="26.344657" lon="100.204733">
<time>2015-08-06T11:57:09Z</time></trkpt>
<trkpt lat="26.344287" lon="100.204783">
<time>2015-08-06T11:57:10Z</time></trkpt>
<trkpt lat="26.344117" lon="100.204793">
<time>2015-08-06T11:57:11Z</time></trkpt>
<trkpt lat="26.343927" lon="100.204803">
<time>2015-08-06T11:57:12Z</time></trkpt>
<trkpt lat="26.343597" lon="100.204823">
<time>2015-08-06T11:57:13Z</time></trkpt>
<trkpt lat="26.343397" lon="100.204813">
<time>2015-08-06T11:57:14Z</time></trkpt>
<trkpt lat="26.343237" lon="100.204803">
<time>2015-08-06T11:57:15Z</time></trkpt>
<trkpt lat="26.338864" lon="100.204473">
<time>2015-08-06T11:57:16Z</time></trkpt>
<trkpt lat="26.338304" lon="100.204423">
<time>2015-08-06T11:57:17Z</time></trkpt>
<trkpt lat="26.338044" lon="100.204403">
<time>2015-08-06T11:57:18Z</time></trkpt>
<trkpt lat="26.337843" lon="100.204373">
<time>2015-08-06T11:57:19Z</time></trkpt>
<trkpt lat="26.337673" lon="100.204343">
<time>2015-08-06T11:57:20Z</time></trkpt>
<trkpt lat="26.337523" lon="100.204303">
<time>2015-08-06T11:57:21Z</time></trkpt>
<trkpt lat="26.337393" lon="100.204253">
<time>2015-08-06T11:57:22Z</time></trkpt>
<trkpt lat="26.337223" lon="100.204183">
<time>2015-08-06T11:57:23Z</time></trkpt>
<trkpt lat="26.337033" lon="100.204072">
<time>2015-08-06T11:57:24Z</time></trkpt>
<trkpt lat="26.336792" lon="100.203922">
<time>2015-08-06T11:57:25Z</time></trkpt>
<trkpt lat="26.33517" lon="100.20279">
<time>2015-08-06T11:57:26Z</time></trkpt>
<trkpt lat="26.333347" lon="100.201508">
<time>2015-08-06T11:57:27Z</time></trkpt>
<trkpt lat="26.332986" lon="100.201258">
<time>2015-08-06T11:57:28Z</time></trkpt>
<trkpt lat="26.332876" lon="100.201178">
<time>2015-08-06T11:57:29Z</time></trkpt>
<trkpt lat="26.332025" lon="100.200587">
<time>2015-08-06T11:57:30Z</time></trkpt>
<trkpt lat="26.331744" lon="100.200406">
<time>2015-08-06T11:57:31Z</time></trkpt>
<trkpt lat="26.331574" lon="100.200276">
<time>2015-08-06T11:57:32Z</time></trkpt>
<trkpt lat="26.331344" lon="100.200056">
<time>2015-08-06T11:57:33Z</time></trkpt>
<trkpt lat="26.331203" lon="100.199885">
<time>2015-08-06T11:57:34Z</time></trkpt>
<trkpt lat="26.331093" lon="100.199715">
<time>2015-08-06T11:57:35Z</time></trkpt>
<trkpt lat="26.330933" lon="100.199425">
<time>2015-08-06T11:57:36Z</time></trkpt>
<trkpt lat="26.330762" lon="100.199044">
<time>2015-08-06T11:57:37Z</time></trkpt>
<trkpt lat="26.330641" lon="100.198753">
<time>2015-08-06T11:57:38Z</time></trkpt>
<trkpt lat="26.330521" lon="100.198483">
<time>2015-08-06T11:57:39Z</time></trkpt>
<trkpt lat="26.3303" lon="100.197992">
<time>2015-08-06T11:57:40Z</time></trkpt>
<trkpt lat="26.330019" lon="100.197331">
<time>2015-08-06T11:57:41Z</time></trkpt>
<trkpt lat="26.329748" lon="100.19672">
<time>2015-08-06T11:57:42Z</time></trkpt>
<trkpt lat="26.329487" lon="100.196139">
<time>2015-08-06T11:57:43Z</time></trkpt>
<trkpt lat="26.329256" lon="100.195608">
<time>2015-08-06T11:57:44Z</time></trkpt>
<trkpt lat="26.328914" lon="100.194816">
<time>2015-08-06T11:57:45Z</time></trkpt>
<trkpt lat="26.328583" lon="100.194055">
<time>2015-08-06T11:57:46Z</time></trkpt>
<trkpt lat="26.328291" lon="100.193404">
<time>2015-08-06T11:57:47Z</time></trkpt>
<trkpt lat="26.32799" lon="100.192732">
<time>2015-08-06T11:57:48Z</time></trkpt>
<trkpt lat="26.327679" lon="100.192011">
<time>2015-08-06T11:57:49Z</time></trkpt>
<trkpt lat="26.327488" lon="100.19158">
<time>2015-08-06T11:57:50Z</time></trkpt>
<trkpt lat="26.327317" lon="100.19127">
<time>2015-08-06T11:57:51Z</time></trkpt>
<trkpt lat="26.327097" lon="100.190929">
<time>2015-08-06T11:57:52Z</time></trkpt>
<trkpt lat="26.326916" lon="100.190679">
<time>2015-08-06T11:57:53Z</time></trkpt>
<trkpt lat="26.326696" lon="100.190398">
<time>2015-08-06T11:57:54Z</time></trkpt>
<trkpt lat="26.326375" lon="100.190047">
<time>2015-08-06T11:57:55Z</time></trkpt>
<trkpt lat="26.326014" lon="100.189717">
<time>2015-08-06T11:57:56Z</time></trkpt>
<trkpt lat="26.325653" lon="100.189366">
<time>2015-08-06T11:57:57Z</time></trkpt>
<trkpt lat="26.325312" lon="100.189035">
<time>2015-08-06T11:57:58Z</time></trkpt>
<trkpt lat="26.324962" lon="100.188705">
<time>2015-08-06T11:57:59Z</time></trkpt>
<trkpt lat="26.324581" lon="100.188334">
<time>2015-08-06T11:58:00Z</time></trkpt>
<trkpt lat="26.32412" lon="100.187873">
<time>2015-08-06T11:58:01Z</time></trkpt>
<trkpt lat="26.323669" lon="100.187452">
<time>2015-08-06T11:58:02Z</time></trkpt>
<trkpt lat="26.323138" lon="100.186941">
<time>2015-08-06T11:58:03Z</time></trkpt>
<trkpt lat="26.322496" lon="100.18632">
<time>2015-08-06T11:58:04Z</time></trkpt>
<trkpt lat="26.321855" lon="100.185699">
<time>2015-08-06T11:58:05Z</time></trkpt>
<trkpt lat="26.321304" lon="100.185178">
<time>2015-08-06T11:58:06Z</time></trkpt>
<trkpt lat="26.320662" lon="100.184557">
<time>2015-08-06T11:58:07Z</time></trkpt>
<trkpt lat="26.320392" lon="100.184296">
<time>2015-08-06T11:58:08Z</time></trkpt>
<trkpt lat="26.320021" lon="100.183935">
<time>2015-08-06T11:58:09Z</time></trkpt>
<trkpt lat="26.31954" lon="100.183484">
<time>2015-08-06T11:58:10Z</time></trkpt>
<trkpt lat="26.319259" lon="100.183214">
<time>2015-08-06T11:58:11Z</time></trkpt>
<trkpt lat="26.319069" lon="100.183034">
<time>2015-08-06T11:58:12Z</time></trkpt>
<trkpt lat="26.318878" lon="100.182873">
<time>2015-08-06T11:58:13Z</time></trkpt>
<trkpt lat="26.318588" lon="100.182623">
<time>2015-08-06T11:58:14Z</time></trkpt>
<trkpt lat="26.318006" lon="100.182132">
<time>2015-08-06T11:58:15Z</time></trkpt>
<trkpt lat="26.317505" lon="100.181711">
<time>2015-08-06T11:58:16Z</time></trkpt>
<trkpt lat="26.317145" lon="100.1814">
<time>2015-08-06T11:58:17Z</time></trkpt>
<trkpt lat="26.316804" lon="100.18112">
<time>2015-08-06T11:58:18Z</time></trkpt>
<trkpt lat="26.316143" lon="100.180558">
<time>2015-08-06T11:58:19Z</time></trkpt>
<trkpt lat="26.315481" lon="100.180007">
<time>2015-08-06T11:58:20Z</time></trkpt>
<trkpt lat="26.31479" lon="100.179416">
<time>2015-08-06T11:58:21Z</time></trkpt>
<trkpt lat="26.314259" lon="100.178985">
<time>2015-08-06T11:58:22Z</time></trkpt>
<trkpt lat="26.314109" lon="100.178875">
<time>2015-08-06T11:58:23Z</time></trkpt>
<trkpt lat="26.313958" lon="100.178775">
<time>2015-08-06T11:58:24Z</time></trkpt>
<trkpt lat="26.313738" lon="100.178665">
<time>2015-08-06T11:58:25Z</time></trkpt>
<trkpt lat="26.313538" lon="100.178574">
<time>2015-08-06T11:58:26Z</time></trkpt>
<trkpt lat="26.313287" lon="100.178484">
<time>2015-08-06T11:58:27Z</time></trkpt>
<trkpt lat="26.312897" lon="100.178364">
<time>2015-08-06T11:58:28Z</time></trkpt>
<trkpt lat="26.312477" lon="100.178234">
<time>2015-08-06T11:58:29Z</time></trkpt>
<trkpt lat="26.311976" lon="100.178083">
<time>2015-08-06T11:58:30Z</time></trkpt>
<trkpt lat="26.311505" lon="100.177933">
<time>2015-08-06T11:58:31Z</time></trkpt>
<trkpt lat="26.311005" lon="100.177773">
<time>2015-08-06T11:58:32Z</time></trkpt>
<trkpt lat="26.310735" lon="100.177693">
<time>2015-08-06T11:58:33Z</time></trkpt>
<trkpt lat="26.310494" lon="100.177602">
<time>2015-08-06T11:58:34Z</time></trkpt>
<trkpt lat="26.310274" lon="100.177512">
<time>2015-08-06T11:58:35Z</time></trkpt>
<trkpt lat="26.309964" lon="100.177382">
<time>2015-08-06T11:58:36Z</time></trkpt>
<trkpt lat="26.309493" lon="100.177162">
<time>2015-08-06T11:58:37Z</time></trkpt>
<trkpt lat="26.308812" lon="100.176831">
<time>2015-08-06T11:58:38Z</time></trkpt>
<trkpt lat="26.308161" lon="100.17652">
<time>2015-08-06T11:58:39Z</time></trkpt>
<trkpt lat="26.307851" lon="100.17637">
<time>2015-08-06T11:58:40Z</time></trkpt>
<trkpt lat="26.30728" lon="100.176109">
<time>2015-08-06T11:58:41Z</time></trkpt>
<trkpt lat="26.30725" lon="100.176089">
<time>2015-08-06T11:58:42Z</time></trkpt>
<trkpt lat="26.306779" lon="100.175869">
<time>2015-08-06T11:58:43Z</time></trkpt>
<trkpt lat="26.306649" lon="100.175819">
<time>2015-08-06T11:58:44Z</time></trkpt>
<trkpt lat="26.306519" lon="100.175789">
<time>2015-08-06T11:58:45Z</time></trkpt>
<trkpt lat="26.306369" lon="100.175769">
<time>2015-08-06T11:58:46Z</time></trkpt>
<trkpt lat="26.306249" lon="100.175789">
<time>2015-08-06T11:58:47Z</time></trkpt>
<trkpt lat="26.306159" lon="100.175819">
<time>2015-08-06T11:58:48Z</time></trkpt>
<trkpt lat="26.306019" lon="100.175929">
<time>2015-08-06T11:58:49Z</time></trkpt>
<trkpt lat="26.305859" lon="100.176099">
<time>2015-08-06T11:58:50Z</time></trkpt>
<trkpt lat="26.305679" lon="100.17629">
<time>2015-08-06T11:58:51Z</time></trkpt>
<trkpt lat="26.30557" lon="100.17638">
<time>2015-08-06T11:58:52Z</time></trkpt>
<trkpt lat="26.30548" lon="100.17643">
<time>2015-08-06T11:58:53Z</time></trkpt>
<trkpt lat="26.30537" lon="100.17647">
<time>2015-08-06T11:58:54Z</time></trkpt>
<trkpt lat="26.30529" lon="100.17649">
<time>2015-08-06T11:58:55Z</time></trkpt>
<trkpt lat="26.30514" lon="100.1765">
<time>2015-08-06T11:58:56Z</time></trkpt>
<trkpt lat="26.304989" lon="100.17648">
<time>2015-08-06T11:58:57Z</time></trkpt>
<trkpt lat="26.304739" lon="100.17644">
<time>2015-08-06T11:58:58Z</time></trkpt>
<trkpt lat="26.304459" lon="100.17639">
<time>2015-08-06T11:58:59Z</time></trkpt>
<trkpt lat="26.304239" lon="100.17635">
<time>2015-08-06T11:59:00Z</time></trkpt>
<trkpt lat="26.303919" lon="100.17627">
<time>2015-08-06T11:59:01Z</time></trkpt>
<trkpt lat="26.303728" lon="100.17621">
<time>2015-08-06T11:59:02Z</time></trkpt>
<trkpt lat="26.303558" lon="100.17614">
<time>2015-08-06T11:59:03Z</time></trkpt>
<trkpt lat="26.303288" lon="100.176009">
<time>2015-08-06T11:59:04Z</time></trkpt>
<trkpt lat="26.302987" lon="100.175849">
<time>2015-08-06T11:59:05Z</time></trkpt>
<trkpt lat="26.302527" lon="100.175619">
<time>2015-08-06T11:59:06Z</time></trkpt>
<trkpt lat="26.302066" lon="100.175368">
<time>2015-08-06T11:59:07Z</time></trkpt>
<trkpt lat="26.301615" lon="100.175148">
<time>2015-08-06T11:59:08Z</time></trkpt>
<trkpt lat="26.301255" lon="100.174967">
<time>2015-08-06T11:59:09Z</time></trkpt>
<trkpt lat="26.300994" lon="100.174857">
<time>2015-08-06T11:59:10Z</time></trkpt>
<trkpt lat="26.300844" lon="100.174797">
<time>2015-08-06T11:59:11Z</time></trkpt>
<trkpt lat="26.300604" lon="100.174717">
<time>2015-08-06T11:59:12Z</time></trkpt>
<trkpt lat="26.300424" lon="100.174667">
<time>2015-08-06T11:59:13Z</time></trkpt>
<trkpt lat="26.300143" lon="100.174606">
<time>2015-08-06T11:59:14Z</time></trkpt>
<trkpt lat="26.299783" lon="100.174556">
<time>2015-08-06T11:59:15Z</time></trkpt>
<trkpt lat="26.299413" lon="100.174536">
<time>2015-08-06T11:59:16Z</time></trkpt>
<trkpt lat="26.299103" lon="100.174546">
<time>2015-08-06T11:59:17Z</time></trkpt>
<trkpt lat="26.298373" lon="100.174586">
<time>2015-08-06T11:59:18Z</time></trkpt>
<trkpt lat="26.297582" lon="100.174627">
<time>2015-08-06T11:59:19Z</time></trkpt>
<trkpt lat="26.297092" lon="100.174657">
<time>2015-08-06T11:59:20Z</time></trkpt>
<trkpt lat="26.296692" lon="100.174697">
<time>2015-08-06T11:59:21Z</time></trkpt>
<trkpt lat="26.296322" lon="100.174767">
<time>2015-08-06T11:59:22Z</time></trkpt>
<trkpt lat="26.296032" lon="100.174847">
<time>2015-08-06T11:59:23Z</time></trkpt>
<trkpt lat="26.295772" lon="100.174937">
<time>2015-08-06T11:59:24Z</time></trkpt>
<trkpt lat="26.295512" lon="100.175037">
<time>2015-08-06T11:59:25Z</time></trkpt>
<trkpt lat="26.295262" lon="100.175128">
<time>2015-08-06T11:59:26Z</time></trkpt>
<trkpt lat="26.295012" lon="100.175228">
<time>2015-08-06T11:59:27Z</time></trkpt>
<trkpt lat="26.294732" lon="100.175328">
<time>2015-08-06T11:59:28Z</time></trkpt>
<trkpt lat="26.294452" lon="100.175428">
<time>2015-08-06T11:59:29Z</time></trkpt>
<trkpt lat="26.294162" lon="100.175519">
<time>2015-08-06T11:59:30Z</time></trkpt>
<trkpt lat="26.293852" lon="100.175599">
<time>2015-08-06T11:59:31Z</time></trkpt>
<trkpt lat="26.293542" lon="100.175679">
<time>2015-08-06T11:59:32Z</time></trkpt>
<trkpt lat="26.293222" lon="100.175749">
<time>2015-08-06T11:59:33Z</time></trkpt>
<trkpt lat="26.292562" lon="100.175859">
<time>2015-08-06T11:59:34Z</time></trkpt>
<trkpt lat="26.291472" lon="100.17605">
<time>2015-08-06T11:59:35Z</time></trkpt>
<trkpt lat="26.290712" lon="100.17618">
<time>2015-08-06T11:59:36Z</time></trkpt>
<trkpt lat="26.289991" lon="100.1763">
<time>2015-08-06T11:59:37Z</time></trkpt>
<trkpt lat="26.289311" lon="100.176431">
<time>2015-08-06T11:59:38Z</time></trkpt>
<trkpt lat="26.288991" lon="100.176471">
<time>2015-08-06T11:59:39Z</time></trkpt>
<trkpt lat="26.288861" lon="100.176471">
<time>2015-08-06T11:59:40Z</time></trkpt>
<trkpt lat="26.288711" lon="100.176461">
<time>2015-08-06T11:59:41Z</time></trkpt>
<trkpt lat="26.288401" lon="100.176431">
<time>2015-08-06T11:59:42Z</time></trkpt>
<trkpt lat="26.28803" lon="100.17635">
<time>2015-08-06T11:59:43Z</time></trkpt>
<trkpt lat="26.28766" lon="100.17625">
<time>2015-08-06T11:59:44Z</time></trkpt>
<trkpt lat="26.286799" lon="100.17601">
<time>2015-08-06T11:59:45Z</time></trkpt>
<trkpt lat="26.286158" lon="100.175839">
<time>2015-08-06T11:59:46Z</time></trkpt>
<trkpt lat="26.285868" lon="100.175789">
<time>2015-08-06T11:59:47Z</time></trkpt>
<trkpt lat="26.285618" lon="100.175769">
<time>2015-08-06T11:59:48Z</time></trkpt>
<trkpt lat="26.285328" lon="100.175779">
<time>2015-08-06T11:59:49Z</time></trkpt>
<trkpt lat="26.284988" lon="100.175839">
<time>2015-08-06T11:59:50Z</time></trkpt>
<trkpt lat="26.284668" lon="100.17593">
<time>2015-08-06T11:59:51Z</time></trkpt>
<trkpt lat="26.284368" lon="100.17602">
<time>2015-08-06T11:59:52Z</time></trkpt>
<trkpt lat="26.283198" lon="100.176401">
<time>2015-08-06T11:59:53Z</time></trkpt>
<trkpt lat="26.282018" lon="100.176781">
<time>2015-08-06T11:59:54Z</time></trkpt>
<trkpt lat="26.281098" lon="100.177072">
<time>2015-08-06T11:59:55Z</time></trkpt>
<trkpt lat="26.280128" lon="100.177383">
<time>2015-08-06T11:59:56Z</time></trkpt>
<trkpt lat="26.279628" lon="100.177543">
<time>2015-08-06T11:59:57Z</time></trkpt>
<trkpt lat="26.279138" lon="100.177693">
<time>2015-08-06T11:59:58Z</time></trkpt>
<trkpt lat="26.278788" lon="100.177804">
<time>2015-08-06T11:59:59Z</time></trkpt>
<trkpt lat="26.278438" lon="100.177914">
<time>2015-08-06T12:00:00Z</time></trkpt>
<trkpt lat="26.278088" lon="100.178014">
<time>2015-08-06T12:00:01Z</time></trkpt>
<trkpt lat="26.277768" lon="100.178084">
<time>2015-08-06T12:00:02Z</time></trkpt>
<trkpt lat="26.277458" lon="100.178164">
<time>2015-08-06T12:00:03Z</time></trkpt>
<trkpt lat="26.277088" lon="100.178225">
<time>2015-08-06T12:00:04Z</time></trkpt>
<trkpt lat="26.276338" lon="100.178365">
<time>2015-08-06T12:00:05Z</time></trkpt>
<trkpt lat="26.275678" lon="100.178485">
<time>2015-08-06T12:00:06Z</time></trkpt>
<trkpt lat="26.275248" lon="100.178535">
<time>2015-08-06T12:00:07Z</time></trkpt>
<trkpt lat="26.274817" lon="100.178545">
<time>2015-08-06T12:00:08Z</time></trkpt>
<trkpt lat="26.274517" lon="100.178535">
<time>2015-08-06T12:00:09Z</time></trkpt>
<trkpt lat="26.273997" lon="100.178495">
<time>2015-08-06T12:00:10Z</time></trkpt>
<trkpt lat="26.273427" lon="100.178455">
<time>2015-08-06T12:00:11Z</time></trkpt>
<trkpt lat="26.273186" lon="100.178435">
<time>2015-08-06T12:00:12Z</time></trkpt>
<trkpt lat="26.273016" lon="100.178425">
<time>2015-08-06T12:00:13Z</time></trkpt>
<trkpt lat="26.272966" lon="100.178415">
<time>2015-08-06T12:00:14Z</time></trkpt>
<trkpt lat="26.272846" lon="100.178415">
<time>2015-08-06T12:00:15Z</time></trkpt>
<trkpt lat="26.272766" lon="100.178415">
<time>2015-08-06T12:00:16Z</time></trkpt>
<trkpt lat="26.272686" lon="100.178405">
<time>2015-08-06T12:00:17Z</time></trkpt>
<trkpt lat="26.272566" lon="100.178395">
<time>2015-08-06T12:00:18Z</time></trkpt>
<trkpt lat="26.272366" lon="100.178375">
<time>2015-08-06T12:00:19Z</time></trkpt>
<trkpt lat="26.271976" lon="100.178345">
<time>2015-08-06T12:00:20Z</time></trkpt>
<trkpt lat="26.271625" lon="100.178325">
<time>2015-08-06T12:00:21Z</time></trkpt>
<trkpt lat="26.271335" lon="100.178305">
<time>2015-08-06T12:00:22Z</time></trkpt>
<trkpt lat="26.271035" lon="100.178285">
<time>2015-08-06T12:00:23Z</time></trkpt>
<trkpt lat="26.270905" lon="100.178275">
<time>2015-08-06T12:00:24Z</time></trkpt>
<trkpt lat="26.270745" lon="100.178265">
<time>2015-08-06T12:00:25Z</time></trkpt>
<trkpt lat="26.270445" lon="100.178255">
<time>2015-08-06T12:00:26Z</time></trkpt>
<trkpt lat="26.270124" lon="100.178245">
<time>2015-08-06T12:00:27Z</time></trkpt>
<trkpt lat="26.270004" lon="100.178235">
<time>2015-08-06T12:00:28Z</time></trkpt>
<trkpt lat="26.269744" lon="100.178225">
<time>2015-08-06T12:00:29Z</time></trkpt>
<trkpt lat="26.269434" lon="100.178205">
<time>2015-08-06T12:00:30Z</time></trkpt>
<trkpt lat="26.269134" lon="100.178185">
<time>2015-08-06T12:00:31Z</time></trkpt>
<trkpt lat="26.268804" lon="100.178165">
<time>2015-08-06T12:00:32Z</time></trkpt>
<trkpt lat="26.268463" lon="100.178145">
<time>2015-08-06T12:00:33Z</time></trkpt>
<trkpt lat="26.268133" lon="100.178115">
<time>2015-08-06T12:00:34Z</time></trkpt>
<trkpt lat="26.267823" lon="100.178105">
<time>2015-08-06T12:00:35Z</time></trkpt>
<trkpt lat="26.267583" lon="100.178095">
<time>2015-08-06T12:00:36Z</time></trkpt>
<trkpt lat="26.267463" lon="100.178095">
<time>2015-08-06T12:00:37Z</time></trkpt>
<trkpt lat="26.267383" lon="100.178095">
<time>2015-08-06T12:00:38Z</time></trkpt>
<trkpt lat="26.267233" lon="100.178105">
<time>2015-08-06T12:00:39Z</time></trkpt>
<trkpt lat="26.267042" lon="100.178115">
<time>2015-08-06T12:00:40Z</time></trkpt>
<trkpt lat="26.266852" lon="100.178145">
<time>2015-08-06T12:00:41Z</time></trkpt>
<trkpt lat="26.266702" lon="100.178165">
<time>2015-08-06T12:00:42Z</time></trkpt>
<trkpt lat="26.266532" lon="100.178195">
<time>2015-08-06T12:00:43Z</time></trkpt>
<trkpt lat="26.266342" lon="100.178235">
<time>2015-08-06T12:00:44Z</time></trkpt>
<trkpt lat="26.266012" lon="100.178325">
<time>2015-08-06T12:00:45Z</time></trkpt>
<trkpt lat="26.265702" lon="100.178405">
<time>2015-08-06T12:00:46Z</time></trkpt>
<trkpt lat="26.265412" lon="100.178495">
<time>2015-08-06T12:00:47Z</time></trkpt>
<trkpt lat="26.265232" lon="100.178536">
<time>2015-08-06T12:00:48Z</time></trkpt>
<trkpt lat="26.265122" lon="100.178566">
<time>2015-08-06T12:00:49Z</time></trkpt>
<trkpt lat="26.265042" lon="100.178566">
<time>2015-08-06T12:00:50Z</time></trkpt>
<trkpt lat="26.264962" lon="100.178576">
<time>2015-08-06T12:00:51Z</time></trkpt>
<trkpt lat="26.264862" lon="100.178566">
<time>2015-08-06T12:00:52Z</time></trkpt>
<trkpt lat="26.264742" lon="100.178556">
<time>2015-08-06T12:00:53Z</time></trkpt>
<trkpt lat="26.264652" lon="100.178536">
<time>2015-08-06T12:00:54Z</time></trkpt>
<trkpt lat="26.264562" lon="100.178506">
<time>2015-08-06T12:00:55Z</time></trkpt>
<trkpt lat="26.264462" lon="100.178465">
<time>2015-08-06T12:00:56Z</time></trkpt>
<trkpt lat="26.264321" lon="100.178405">
<time>2015-08-06T12:00:57Z</time></trkpt>
<trkpt lat="26.264051" lon="100.178285">
<time>2015-08-06T12:00:58Z</time></trkpt>
<trkpt lat="26.263901" lon="100.178235">
<time>2015-08-06T12:00:59Z</time></trkpt>
<trkpt lat="26.263711" lon="100.178145">
<time>2015-08-06T12:01:00Z</time></trkpt>
<trkpt lat="26.26339" lon="100.178015">
<time>2015-08-06T12:01:01Z</time></trkpt>
<trkpt lat="26.26303" lon="100.177864">
<time>2015-08-06T12:01:02Z</time></trkpt>
<trkpt lat="26.262739" lon="100.177744">
<time>2015-08-06T12:01:03Z</time></trkpt>
<trkpt lat="26.262379" lon="100.177594">
<time>2015-08-06T12:01:04Z</time></trkpt>
<trkpt lat="26.262099" lon="100.177473">
<time>2015-08-06T12:01:05Z</time></trkpt>
<trkpt lat="26.261788" lon="100.177343">
<time>2015-08-06T12:01:06Z</time></trkpt>
<trkpt lat="26.261628" lon="100.177273">
<time>2015-08-06T12:01:07Z</time></trkpt>
<trkpt lat="26.261468" lon="100.177203">
<time>2015-08-06T12:01:08Z</time></trkpt>
<trkpt lat="26.261327" lon="100.177143">
<time>2015-08-06T12:01:09Z</time></trkpt>
<trkpt lat="26.261217" lon="100.177073">
<time>2015-08-06T12:01:10Z</time></trkpt>
<trkpt lat="26.261127" lon="100.177023">
<time>2015-08-06T12:01:11Z</time></trkpt>
<trkpt lat="26.261077" lon="100.176972">
<time>2015-08-06T12:01:12Z</time></trkpt>
<trkpt lat="26.260957" lon="100.176882">
<time>2015-08-06T12:01:13Z</time></trkpt>
<trkpt lat="26.260897" lon="100.176812">
<time>2015-08-06T12:01:14Z</time></trkpt>
<trkpt lat="26.260636" lon="100.176501">
<time>2015-08-06T12:01:15Z</time></trkpt>
<trkpt lat="26.260485" lon="100.176301">
<time>2015-08-06T12:01:16Z</time></trkpt>
<trkpt lat="26.260295" lon="100.176051">
<time>2015-08-06T12:01:17Z</time></trkpt>
<trkpt lat="26.260134" lon="100.17583">
<time>2015-08-06T12:01:18Z</time></trkpt>
<trkpt lat="26.259914" lon="100.175529">
<time>2015-08-06T12:01:19Z</time></trkpt>
<trkpt lat="26.259783" lon="100.175369">
<time>2015-08-06T12:01:20Z</time></trkpt>
<trkpt lat="26.259653" lon="100.175219">
<time>2015-08-06T12:01:21Z</time></trkpt>
<trkpt lat="26.259553" lon="100.175109">
<time>2015-08-06T12:01:22Z</time></trkpt>
<trkpt lat="26.259412" lon="100.174978">
<time>2015-08-06T12:01:23Z</time></trkpt>
<trkpt lat="26.259292" lon="100.174868">
<time>2015-08-06T12:01:24Z</time></trkpt>
<trkpt lat="26.259222" lon="100.174798">
<time>2015-08-06T12:01:25Z</time></trkpt>
<trkpt lat="26.259021" lon="100.174607">
<time>2015-08-06T12:01:26Z</time></trkpt>
<trkpt lat="26.258761" lon="100.174377">
<time>2015-08-06T12:01:27Z</time></trkpt>
<trkpt lat="26.258611" lon="100.174247">
<time>2015-08-06T12:01:28Z</time></trkpt>
<trkpt lat="26.25848" lon="100.174137">
<time>2015-08-06T12:01:29Z</time></trkpt>
<trkpt lat="26.25835" lon="100.174026">
<time>2015-08-06T12:01:30Z</time></trkpt>
<trkpt lat="26.25824" lon="100.173946">
<time>2015-08-06T12:01:31Z</time></trkpt>
<trkpt lat="26.258009" lon="100.173766">
<time>2015-08-06T12:01:32Z</time></trkpt>
<trkpt lat="26.257739" lon="100.173565">
<time>2015-08-06T12:01:33Z</time></trkpt>
<trkpt lat="26.257528" lon="100.173415">
<time>2015-08-06T12:01:34Z</time></trkpt>
<trkpt lat="26.257248" lon="100.173225">
<time>2015-08-06T12:01:35Z</time></trkpt>
<trkpt lat="26.256967" lon="100.173044">
<time>2015-08-06T12:01:36Z</time></trkpt>
<trkpt lat="26.256707" lon="100.172884">
<time>2015-08-06T12:01:37Z</time></trkpt>
<trkpt lat="26.256577" lon="100.172804">
<time>2015-08-06T12:01:38Z</time></trkpt>
<trkpt lat="26.256446" lon="100.172734">
<time>2015-08-06T12:01:39Z</time></trkpt>
<trkpt lat="26.256306" lon="100.172663">
<time>2015-08-06T12:01:40Z</time></trkpt>
<trkpt lat="26.256196" lon="100.172613">
<time>2015-08-06T12:01:41Z</time></trkpt>
<trkpt lat="26.256066" lon="100.172553">
<time>2015-08-06T12:01:42Z</time></trkpt>
<trkpt lat="26.256016" lon="100.172533">
<time>2015-08-06T12:01:43Z</time></trkpt>
<trkpt lat="26.255946" lon="100.172513">
<time>2015-08-06T12:01:44Z</time></trkpt>
<trkpt lat="26.255836" lon="100.172473">
<time>2015-08-06T12:01:45Z</time></trkpt>
<trkpt lat="26.255675" lon="100.172423">
<time>2015-08-06T12:01:46Z</time></trkpt>
<trkpt lat="26.255435" lon="100.172363">
<time>2015-08-06T12:01:47Z</time></trkpt>
<trkpt lat="26.255215" lon="100.172313">
<time>2015-08-06T12:01:48Z</time></trkpt>
<trkpt lat="26.254875" lon="100.172253">
<time>2015-08-06T12:01:49Z</time></trkpt>
<trkpt lat="26.254404" lon="100.172162">
<time>2015-08-06T12:01:50Z</time></trkpt>
<trkpt lat="26.254354" lon="100.172152">
<time>2015-08-06T12:01:51Z</time></trkpt>
<trkpt lat="26.253764" lon="100.172042">
<time>2015-08-06T12:01:52Z</time></trkpt>
<trkpt lat="26.253483" lon="100.172002">
<time>2015-08-06T12:01:53Z</time></trkpt>
<trkpt lat="26.253303" lon="100.171982">
<time>2015-08-06T12:01:54Z</time></trkpt>
<trkpt lat="26.253203" lon="100.171982">
<time>2015-08-06T12:01:55Z</time></trkpt>
<trkpt lat="26.252863" lon="100.171962">
<time>2015-08-06T12:01:56Z</time></trkpt>
<trkpt lat="26.252633" lon="100.171952">
<time>2015-08-06T12:01:57Z</time></trkpt>
<trkpt lat="26.252213" lon="100.171972">
<time>2015-08-06T12:01:58Z</time></trkpt>
<trkpt lat="26.251873" lon="100.171992">
<time>2015-08-06T12:01:59Z</time></trkpt>
<trkpt lat="26.251502" lon="100.172012">
<time>2015-08-06T12:02:00Z</time></trkpt>
<trkpt lat="26.251292" lon="100.172022">
<time>2015-08-06T12:02:01Z</time></trkpt>
<trkpt lat="26.251142" lon="100.172032">
<time>2015-08-06T12:02:02Z</time></trkpt>
<trkpt lat="26.250782" lon="100.172052">
<time>2015-08-06T12:02:03Z</time></trkpt>
<trkpt lat="26.250602" lon="100.172062">
<time>2015-08-06T12:02:04Z</time></trkpt>
<trkpt lat="26.250472" lon="100.172082">
<time>2015-08-06T12:02:05Z</time></trkpt>
<trkpt lat="26.250392" lon="100.172082">
<time>2015-08-06T12:02:06Z</time></trkpt>
<trkpt lat="26.250012" lon="100.172133">
<time>2015-08-06T12:02:07Z</time></trkpt>
<trkpt lat="26.249662" lon="100.172173">
<time>2015-08-06T12:02:08Z</time></trkpt>
<trkpt lat="26.249251" lon="100.172213">
<time>2015-08-06T12:02:09Z</time></trkpt>
<trkpt lat="26.248871" lon="100.172263">
<time>2015-08-06T12:02:10Z</time></trkpt>
<trkpt lat="26.248481" lon="100.172323">
<time>2015-08-06T12:02:11Z</time></trkpt>
<trkpt lat="26.248111" lon="100.172363">
<time>2015-08-06T12:02:12Z</time></trkpt>
<trkpt lat="26.248001" lon="100.172383">
<time>2015-08-06T12:02:13Z</time></trkpt>
<trkpt lat="26.247891" lon="100.172393">
<time>2015-08-06T12:02:14Z</time></trkpt>
<trkpt lat="26.247791" lon="100.172403">
<time>2015-08-06T12:02:15Z</time></trkpt>
<trkpt lat="26.247711" lon="100.172413">
<time>2015-08-06T12:02:16Z</time></trkpt>
<trkpt lat="26.247671" lon="100.172413">
<time>2015-08-06T12:02:17Z</time></trkpt>
<trkpt lat="26.247631" lon="100.172413">
<time>2015-08-06T12:02:18Z</time></trkpt>
<trkpt lat="26.247561" lon="100.172423">
<time>2015-08-06T12:02:19Z</time></trkpt>
<trkpt lat="26.247491" lon="100.172413">
<time>2015-08-06T12:02:20Z</time></trkpt>
<trkpt lat="26.247431" lon="100.172413">
<time>2015-08-06T12:02:21Z</time></trkpt>
<trkpt lat="26.247261" lon="100.172393">
<time>2015-08-06T12:02:22Z</time></trkpt>
<trkpt lat="26.24704" lon="100.172333">
<time>2015-08-06T12:02:23Z</time></trkpt>
<trkpt lat="26.24689" lon="100.172273">
<time>2015-08-06T12:02:24Z</time></trkpt>
<trkpt lat="26.24672" lon="100.172193">
<time>2015-08-06T12:02:25Z</time></trkpt>
<trkpt lat="26.246429" lon="100.172012">
<time>2015-08-06T12:02:26Z</time></trkpt>
<trkpt lat="26.246169" lon="100.171852">
<time>2015-08-06T12:02:27Z</time></trkpt>
<trkpt lat="26.246039" lon="100.171782">
<time>2015-08-06T12:02:28Z</time></trkpt>
<trkpt lat="26.245838" lon="100.171652">
<time>2015-08-06T12:02:29Z</time></trkpt>
<trkpt lat="26.245568" lon="100.171471">
<time>2015-08-06T12:02:30Z</time></trkpt>
<trkpt lat="26.245308" lon="100.171311">
<time>2015-08-06T12:02:31Z</time></trkpt>
<trkpt lat="26.245067" lon="100.171151">
<time>2015-08-06T12:02:32Z</time></trkpt>
<trkpt lat="26.244857" lon="100.17101">
<time>2015-08-06T12:02:33Z</time></trkpt>
<trkpt lat="26.244797" lon="100.17097">
<time>2015-08-06T12:02:34Z</time></trkpt>
<trkpt lat="26.244746" lon="100.17092">
<time>2015-08-06T12:02:35Z</time></trkpt>
<trkpt lat="26.244696" lon="100.17087">
<time>2015-08-06T12:02:36Z</time></trkpt>
<trkpt lat="26.244646" lon="100.1708">
<time>2015-08-06T12:02:37Z</time></trkpt>
<trkpt lat="26.244616" lon="100.17074">
<time>2015-08-06T12:02:38Z</time></trkpt>
<trkpt lat="26.244586" lon="100.17069">
<time>2015-08-06T12:02:39Z</time></trkpt>
<trkpt lat="26.244566" lon="100.170629">
<time>2015-08-06T12:02:40Z</time></trkpt>
<trkpt lat="26.244546" lon="100.170549">
<time>2015-08-06T12:02:41Z</time></trkpt>
<trkpt lat="26.244515" lon="100.170389">
<time>2015-08-06T12:02:42Z</time></trkpt>
<trkpt lat="26.244515" lon="100.170249">
<time>2015-08-06T12:02:43Z</time></trkpt>
<trkpt lat="26.244545" lon="100.170008">
<time>2015-08-06T12:02:44Z</time></trkpt>
<trkpt lat="26.244554" lon="100.169928">
<time>2015-08-06T12:02:45Z</time></trkpt>
<trkpt lat="26.244554" lon="100.169848">
<time>2015-08-06T12:02:46Z</time></trkpt>
<trkpt lat="26.244544" lon="100.169778">
<time>2015-08-06T12:02:47Z</time></trkpt>
<trkpt lat="26.244504" lon="100.169667">
<time>2015-08-06T12:02:48Z</time></trkpt>
<trkpt lat="26.244464" lon="100.169607">
<time>2015-08-06T12:02:49Z</time></trkpt>
<trkpt lat="26.244404" lon="100.169547">
<time>2015-08-06T12:02:50Z</time></trkpt>
<trkpt lat="26.244334" lon="100.169507">
<time>2015-08-06T12:02:51Z</time></trkpt>
<trkpt lat="26.244253" lon="100.169487">
<time>2015-08-06T12:02:52Z</time></trkpt>
<trkpt lat="26.244163" lon="100.169487">
<time>2015-08-06T12:02:53Z</time></trkpt>
<trkpt lat="26.244083" lon="100.169507">
<time>2015-08-06T12:02:54Z</time></trkpt>
<trkpt lat="26.243993" lon="100.169557">
<time>2015-08-06T12:02:55Z</time></trkpt>
<trkpt lat="26.243924" lon="100.169637">
<time>2015-08-06T12:02:56Z</time></trkpt>
<trkpt lat="26.243814" lon="100.169778">
<time>2015-08-06T12:02:57Z</time></trkpt>
<trkpt lat="26.243714" lon="100.169928">
<time>2015-08-06T12:02:58Z</time></trkpt>
<trkpt lat="26.243654" lon="100.169998">
<time>2015-08-06T12:02:59Z</time></trkpt>
<trkpt lat="26.243594" lon="100.170058">
<time>2015-08-06T12:03:00Z</time></trkpt>
<trkpt lat="26.243504" lon="100.170118">
<time>2015-08-06T12:03:01Z</time></trkpt>
<trkpt lat="26.243404" lon="100.170158">
<time>2015-08-06T12:03:02Z</time></trkpt>
<trkpt lat="26.243344" lon="100.170179">
<time>2015-08-06T12:03:03Z</time></trkpt>
<trkpt lat="26.243284" lon="100.170189">
<time>2015-08-06T12:03:04Z</time></trkpt>
<trkpt lat="26.243214" lon="100.170179">
<time>2015-08-06T12:03:05Z</time></trkpt>
<trkpt lat="26.243134" lon="100.170169">
<time>2015-08-06T12:03:06Z</time></trkpt>
<trkpt lat="26.243084" lon="100.170148">
<time>2015-08-06T12:03:07Z</time></trkpt>
<trkpt lat="26.243044" lon="100.170128">
<time>2015-08-06T12:03:08Z</time></trkpt>
<trkpt lat="26.242984" lon="100.170098">
<time>2015-08-06T12:03:09Z</time></trkpt>
<trkpt lat="26.242934" lon="100.170058">
<time>2015-08-06T12:03:10Z</time></trkpt>
<trkpt lat="26.242834" lon="100.169948">
<time>2015-08-06T12:03:11Z</time></trkpt>
<trkpt lat="26.242763" lon="100.169848">
<time>2015-08-06T12:03:12Z</time></trkpt>
<trkpt lat="26.242683" lon="100.169738">
<time>2015-08-06T12:03:13Z</time></trkpt>
<trkpt lat="26.242613" lon="100.169637">
<time>2015-08-06T12:03:14Z</time></trkpt>
<trkpt lat="26.242543" lon="100.169557">
<time>2015-08-06T12:03:15Z</time></trkpt>
<trkpt lat="26.242462" lon="100.169487">
<time>2015-08-06T12:03:16Z</time></trkpt>
<trkpt lat="26.242362" lon="100.169417">
<time>2015-08-06T12:03:17Z</time></trkpt>
<trkpt lat="26.242272" lon="100.169397">
<time>2015-08-06T12:03:18Z</time></trkpt>
<trkpt lat="26.242202" lon="100.169377">
<time>2015-08-06T12:03:19Z</time></trkpt>
<trkpt lat="26.242152" lon="100.169377">
<time>2015-08-06T12:03:20Z</time></trkpt>
<trkpt lat="26.242072" lon="100.169387">
<time>2015-08-06T12:03:21Z</time></trkpt>
<trkpt lat="26.241962" lon="100.169417">
<time>2015-08-06T12:03:22Z</time></trkpt>
<trkpt lat="26.241862" lon="100.169477">
<time>2015-08-06T12:03:23Z</time></trkpt>
<trkpt lat="26.241732" lon="100.169587">
<time>2015-08-06T12:03:24Z</time></trkpt>
<trkpt lat="26.241532" lon="100.169798">
<time>2015-08-06T12:03:25Z</time></trkpt>
<trkpt lat="26.241403" lon="100.169938">
<time>2015-08-06T12:03:26Z</time></trkpt>
<trkpt lat="26.241243" lon="100.170108">
<time>2015-08-06T12:03:27Z</time></trkpt>
<trkpt lat="26.241103" lon="100.170249">
<time>2015-08-06T12:03:28Z</time></trkpt>
<trkpt lat="26.240953" lon="100.170389">
<time>2015-08-06T12:03:29Z</time></trkpt>
<trkpt lat="26.240833" lon="100.170509">
<time>2015-08-06T12:03:30Z</time></trkpt>
<trkpt lat="26.240743" lon="100.170569">
<time>2015-08-06T12:03:31Z</time></trkpt>
<trkpt lat="26.240684" lon="100.17062">
<time>2015-08-06T12:03:32Z</time></trkpt>
<trkpt lat="26.240574" lon="100.17068">
<time>2015-08-06T12:03:33Z</time></trkpt>
<trkpt lat="26.240474" lon="100.17071">
<time>2015-08-06T12:03:34Z</time></trkpt>
<trkpt lat="26.240414" lon="100.17071">
<time>2015-08-06T12:03:35Z</time></trkpt>
<trkpt lat="26.240374" lon="100.17071">
<time>2015-08-06T12:03:36Z</time></trkpt>
<trkpt lat="26.240313" lon="100.1707">
<time>2015-08-06T12:03:37Z</time></trkpt>
<trkpt lat="26.240263" lon="100.17069">
<time>2015-08-06T12:03:38Z</time></trkpt>
<trkpt lat="26.240213" lon="100.17067">
<time>2015-08-06T12:03:39Z</time></trkpt>
<trkpt lat="26.240153" lon="100.17062">
<time>2015-08-06T12:03:40Z</time></trkpt>
<trkpt lat="26.240103" lon="100.170579">
<time>2015-08-06T12:03:41Z</time></trkpt>
<trkpt lat="26.240053" lon="100.170509">
<time>2015-08-06T12:03:42Z</time></trkpt>
<trkpt lat="26.240023" lon="100.170449">
<time>2015-08-06T12:03:43Z</time></trkpt>
<trkpt lat="26.240003" lon="100.170389">
<time>2015-08-06T12:03:44Z</time></trkpt>
<trkpt lat="26.239983" lon="100.170319">
<time>2015-08-06T12:03:45Z</time></trkpt>
<trkpt lat="26.239972" lon="100.170259">
<time>2015-08-06T12:03:46Z</time></trkpt>
<trkpt lat="26.239962" lon="100.170149">
<time>2015-08-06T12:03:47Z</time></trkpt>
<trkpt lat="26.239962" lon="100.170048">
<time>2015-08-06T12:03:48Z</time></trkpt>
<trkpt lat="26.239972" lon="100.169838">
<time>2015-08-06T12:03:49Z</time></trkpt>
<trkpt lat="26.239971" lon="100.169658">
<time>2015-08-06T12:03:50Z</time></trkpt>
<trkpt lat="26.239971" lon="100.169477">
<time>2015-08-06T12:03:51Z</time></trkpt>
<trkpt lat="26.239981" lon="100.169237">
<time>2015-08-06T12:03:52Z</time></trkpt>
<trkpt lat="26.23998" lon="100.169136">
<time>2015-08-06T12:03:53Z</time></trkpt>
<trkpt lat="26.23999" lon="100.169036">
<time>2015-08-06T12:03:54Z</time></trkpt>
<trkpt lat="26.23998" lon="100.168926">
<time>2015-08-06T12:03:55Z</time></trkpt>
<trkpt lat="26.23998" lon="100.168806">
<time>2015-08-06T12:03:56Z</time></trkpt>
<trkpt lat="26.239959" lon="100.168585">
<time>2015-08-06T12:03:57Z</time></trkpt>
<trkpt lat="26.239929" lon="100.168385">
<time>2015-08-06T12:03:58Z</time></trkpt>
<trkpt lat="26.239898" lon="100.168174">
<time>2015-08-06T12:03:59Z</time></trkpt>
<trkpt lat="26.239868" lon="100.167954">
<time>2015-08-06T12:04:00Z</time></trkpt>
<trkpt lat="26.239838" lon="100.167764">
<time>2015-08-06T12:04:01Z</time></trkpt>
<trkpt lat="26.239797" lon="100.167573">
<time>2015-08-06T12:04:02Z</time></trkpt>
<trkpt lat="26.239777" lon="100.167453">
<time>2015-08-06T12:04:03Z</time></trkpt>
<trkpt lat="26.239747" lon="100.167323">
<time>2015-08-06T12:04:04Z</time></trkpt>
<trkpt lat="26.239706" lon="100.167122">
<time>2015-08-06T12:04:05Z</time></trkpt>
<trkpt lat="26.239676" lon="100.167022">
<time>2015-08-06T12:04:06Z</time></trkpt>
<trkpt lat="26.239646" lon="100.166932">
<time>2015-08-06T12:04:07Z</time></trkpt>
<trkpt lat="26.239616" lon="100.166872">
<time>2015-08-06T12:04:08Z</time></trkpt>
<trkpt lat="26.239586" lon="100.166832">
<time>2015-08-06T12:04:09Z</time></trkpt>
<trkpt lat="26.239526" lon="100.166771">
<time>2015-08-06T12:04:10Z</time></trkpt>
<trkpt lat="26.239445" lon="100.166721">
<time>2015-08-06T12:04:11Z</time></trkpt>
<trkpt lat="26.239365" lon="100.166711">
<time>2015-08-06T12:04:12Z</time></trkpt>
<trkpt lat="26.239285" lon="100.166721">
<time>2015-08-06T12:04:13Z</time></trkpt>
<trkpt lat="26.239205" lon="100.166761">
<time>2015-08-06T12:04:14Z</time></trkpt>
<trkpt lat="26.239146" lon="100.166822">
<time>2015-08-06T12:04:15Z</time></trkpt>
<trkpt lat="26.239096" lon="100.166902">
<time>2015-08-06T12:04:16Z</time></trkpt>
<trkpt lat="26.239066" lon="100.166992">
<time>2015-08-06T12:04:17Z</time></trkpt>
<trkpt lat="26.239046" lon="100.167092">
<time>2015-08-06T12:04:18Z</time></trkpt>
<trkpt lat="26.239026" lon="100.167273">
<time>2015-08-06T12:04:19Z</time></trkpt>
<trkpt lat="26.239016" lon="100.167383">
<time>2015-08-06T12:04:20Z</time></trkpt>
<trkpt lat="26.238987" lon="100.167483">
<time>2015-08-06T12:04:21Z</time></trkpt>
<trkpt lat="26.238947" lon="100.167603">
<time>2015-08-06T12:04:22Z</time></trkpt>
<trkpt lat="26.238897" lon="100.167673">
<time>2015-08-06T12:04:23Z</time></trkpt>
<trkpt lat="26.238857" lon="100.167733">
<time>2015-08-06T12:04:24Z</time></trkpt>
<trkpt lat="26.238817" lon="100.167774">
<time>2015-08-06T12:04:25Z</time></trkpt>
<trkpt lat="26.238767" lon="100.167814">
<time>2015-08-06T12:04:26Z</time></trkpt>
<trkpt lat="26.238717" lon="100.167844">
<time>2015-08-06T12:04:27Z</time></trkpt>
<trkpt lat="26.238667" lon="100.167864">
<time>2015-08-06T12:04:28Z</time></trkpt>
<trkpt lat="26.238607" lon="100.167884">
<time>2015-08-06T12:04:29Z</time></trkpt>
<trkpt lat="26.238517" lon="100.167904">
<time>2015-08-06T12:04:30Z</time></trkpt>
<trkpt lat="26.238417" lon="100.167914">
<time>2015-08-06T12:04:31Z</time></trkpt>
<trkpt lat="26.238337" lon="100.167924">
<time>2015-08-06T12:04:32Z</time></trkpt>
<trkpt lat="26.238117" lon="100.167924">
<time>2015-08-06T12:04:33Z</time></trkpt>
<trkpt lat="26.237937" lon="100.167924">
<time>2015-08-06T12:04:34Z</time></trkpt>
<trkpt lat="26.237797" lon="100.167914">
<time>2015-08-06T12:04:35Z</time></trkpt>
<trkpt lat="26.237707" lon="100.167904">
<time>2015-08-06T12:04:36Z</time></trkpt>
<trkpt lat="26.237577" lon="100.167874">
<time>2015-08-06T12:04:37Z</time></trkpt>
<trkpt lat="26.237456" lon="100.167844">
<time>2015-08-06T12:04:38Z</time></trkpt>
<trkpt lat="26.237276" lon="100.167784">
<time>2015-08-06T12:04:39Z</time></trkpt>
<trkpt lat="26.237156" lon="100.167734">
<time>2015-08-06T12:04:40Z</time></trkpt>
<trkpt lat="26.237026" lon="100.167673">
<time>2015-08-06T12:04:41Z</time></trkpt>
<trkpt lat="26.236806" lon="100.167593">
<time>2015-08-06T12:04:42Z</time></trkpt>
<trkpt lat="26.236575" lon="100.167463">
<time>2015-08-06T12:04:43Z</time></trkpt>
<trkpt lat="26.236365" lon="100.167353">
<time>2015-08-06T12:04:44Z</time></trkpt>
<trkpt lat="26.236155" lon="100.167253">
<time>2015-08-06T12:04:45Z</time></trkpt>
<trkpt lat="26.235954" lon="100.167142">
<time>2015-08-06T12:04:46Z</time></trkpt>
<trkpt lat="26.235694" lon="100.167022">
<time>2015-08-06T12:04:47Z</time></trkpt>
<trkpt lat="26.235484" lon="100.166912">
<time>2015-08-06T12:04:48Z</time></trkpt>
<trkpt lat="26.235273" lon="100.166812">
<time>2015-08-06T12:04:49Z</time></trkpt>
<trkpt lat="26.235053" lon="100.166701">
<time>2015-08-06T12:04:50Z</time></trkpt>
<trkpt lat="26.234803" lon="100.166591">
<time>2015-08-06T12:04:51Z</time></trkpt>
<trkpt lat="26.234562" lon="100.166471">
<time>2015-08-06T12:04:52Z</time></trkpt>
<trkpt lat="26.234332" lon="100.166371">
<time>2015-08-06T12:04:53Z</time></trkpt>
<trkpt lat="26.234142" lon="100.166281">
<time>2015-08-06T12:04:54Z</time></trkpt>
<trkpt lat="26.233851" lon="100.16615">
<time>2015-08-06T12:04:55Z</time></trkpt>
<trkpt lat="26.233551" lon="100.16602">
<time>2015-08-06T12:04:56Z</time></trkpt>
<trkpt lat="26.23329" lon="100.16591">
<time>2015-08-06T12:04:57Z</time></trkpt>
<trkpt lat="26.23307" lon="100.16581">
<time>2015-08-06T12:04:58Z</time></trkpt>
<trkpt lat="26.23291" lon="100.165729">
<time>2015-08-06T12:04:59Z</time></trkpt>
<trkpt lat="26.23282" lon="100.165679">
<time>2015-08-06T12:05:00Z</time></trkpt>
<trkpt lat="26.23275" lon="100.165629">
<time>2015-08-06T12:05:01Z</time></trkpt>
<trkpt lat="26.232679" lon="100.165569">
<time>2015-08-06T12:05:02Z</time></trkpt>
<trkpt lat="26.232599" lon="100.165479">
<time>2015-08-06T12:05:03Z</time></trkpt>
<trkpt lat="26.232549" lon="100.165409">
<time>2015-08-06T12:05:04Z</time></trkpt>
<trkpt lat="26.232499" lon="100.165329">
<time>2015-08-06T12:05:05Z</time></trkpt>
<trkpt lat="26.232449" lon="100.165238">
<time>2015-08-06T12:05:06Z</time></trkpt>
<trkpt lat="26.232418" lon="100.165158">
<time>2015-08-06T12:05:07Z</time></trkpt>
<trkpt lat="26.232388" lon="100.165048">
<time>2015-08-06T12:05:08Z</time></trkpt>
<trkpt lat="26.232368" lon="100.164928">
<time>2015-08-06T12:05:09Z</time></trkpt>
<trkpt lat="26.232368" lon="100.164807">
<time>2015-08-06T12:05:10Z</time></trkpt>
<trkpt lat="26.232368" lon="100.164707">
<time>2015-08-06T12:05:11Z</time></trkpt>
<trkpt lat="26.232377" lon="100.164607">
<time>2015-08-06T12:05:12Z</time></trkpt>
<trkpt lat="26.232397" lon="100.164507">
<time>2015-08-06T12:05:13Z</time></trkpt>
<trkpt lat="26.232467" lon="100.164246">
<time>2015-08-06T12:05:14Z</time></trkpt>
<trkpt lat="26.232527" lon="100.164066">
<time>2015-08-06T12:05:15Z</time></trkpt>
<trkpt lat="26.232576" lon="100.163886">
<time>2015-08-06T12:05:16Z</time></trkpt>
<trkpt lat="26.232656" lon="100.163645">
<time>2015-08-06T12:05:17Z</time></trkpt>
<trkpt lat="26.232725" lon="100.163425">
<time>2015-08-06T12:05:18Z</time></trkpt>
<trkpt lat="26.232805" lon="100.163124">
<time>2015-08-06T12:05:19Z</time></trkpt>
<trkpt lat="26.232825" lon="100.163054">
<time>2015-08-06T12:05:20Z</time></trkpt>
<trkpt lat="26.232835" lon="100.162994">
<time>2015-08-06T12:05:21Z</time></trkpt>
<trkpt lat="26.232854" lon="100.162873">
<time>2015-08-06T12:05:22Z</time></trkpt>
<trkpt lat="26.232844" lon="100.162763">
<time>2015-08-06T12:05:23Z</time></trkpt>
<trkpt lat="26.232834" lon="100.162683">
<time>2015-08-06T12:05:24Z</time></trkpt>
<trkpt lat="26.232804" lon="100.162603">
<time>2015-08-06T12:05:25Z</time></trkpt>
<trkpt lat="26.232774" lon="100.162533">
<time>2015-08-06T12:05:26Z</time></trkpt>
<trkpt lat="26.232744" lon="100.162493">
<time>2015-08-06T12:05:27Z</time></trkpt>
<trkpt lat="26.232673" lon="100.162392">
<time>2015-08-06T12:05:28Z</time></trkpt>
<trkpt lat="26.232603" lon="100.162322">
<time>2015-08-06T12:05:29Z</time></trkpt>
<trkpt lat="26.232553" lon="100.162272">
<time>2015-08-06T12:05:30Z</time></trkpt>
<trkpt lat="26.232413" lon="100.162152">
<time>2015-08-06T12:05:31Z</time></trkpt>
<trkpt lat="26.232192" lon="100.161962">
<time>2015-08-06T12:05:32Z</time></trkpt>
<trkpt lat="26.231992" lon="100.161801">
<time>2015-08-06T12:05:33Z</time></trkpt>
<trkpt lat="26.231782" lon="100.161631">
<time>2015-08-06T12:05:34Z</time></trkpt>
<trkpt lat="26.231631" lon="100.161511">
<time>2015-08-06T12:05:35Z</time></trkpt>
<trkpt lat="26.231441" lon="100.1614">
<time>2015-08-06T12:05:36Z</time></trkpt>
<trkpt lat="26.231351" lon="100.16133">
<time>2015-08-06T12:05:37Z</time></trkpt>
<trkpt lat="26.231271" lon="100.16128">
<time>2015-08-06T12:05:38Z</time></trkpt>
<trkpt lat="26.23119" lon="100.16125">
<time>2015-08-06T12:05:39Z</time></trkpt>
<trkpt lat="26.23112" lon="100.16122">
<time>2015-08-06T12:05:40Z</time></trkpt>
<trkpt lat="26.23106" lon="100.16121">
<time>2015-08-06T12:05:41Z</time></trkpt>
<trkpt lat="26.23101" lon="100.1612">
<time>2015-08-06T12:05:42Z</time></trkpt>
<trkpt lat="26.23096" lon="100.1612">
<time>2015-08-06T12:05:43Z</time></trkpt>
<trkpt lat="26.23088" lon="100.16121">
<time>2015-08-06T12:05:44Z</time></trkpt>
<trkpt lat="26.2308" lon="100.16123">
<time>2015-08-06T12:05:45Z</time></trkpt>
<trkpt lat="26.23071" lon="100.16127">
<time>2015-08-06T12:05:46Z</time></trkpt>
<trkpt lat="26.230361" lon="100.161591">
<time>2015-08-06T12:05:47Z</time></trkpt>
<trkpt lat="26.230321" lon="100.161651">
<time>2015-08-06T12:05:48Z</time></trkpt>
<trkpt lat="26.230231" lon="100.161771">
<time>2015-08-06T12:05:49Z</time></trkpt>
<trkpt lat="26.230101" lon="100.161942">
<time>2015-08-06T12:05:50Z</time></trkpt>
<trkpt lat="26.230021" lon="100.162032">
<time>2015-08-06T12:05:51Z</time></trkpt>
<trkpt lat="26.229931" lon="100.162142">
<time>2015-08-06T12:05:52Z</time></trkpt>
<trkpt lat="26.229822" lon="100.162242">
<time>2015-08-06T12:05:53Z</time></trkpt>
<trkpt lat="26.229752" lon="100.162312">
<time>2015-08-06T12:05:54Z</time></trkpt>
<trkpt lat="26.229532" lon="100.162493">
<time>2015-08-06T12:05:55Z</time></trkpt>
<trkpt lat="26.229332" lon="100.162663">
<time>2015-08-06T12:05:56Z</time></trkpt>
<trkpt lat="26.229122" lon="100.162843">
<time>2015-08-06T12:05:57Z</time></trkpt>
<trkpt lat="26.228972" lon="100.162964">
<time>2015-08-06T12:05:58Z</time></trkpt>
<trkpt lat="26.228872" lon="100.163024">
<time>2015-08-06T12:05:59Z</time></trkpt>
<trkpt lat="26.228782" lon="100.163064">
<time>2015-08-06T12:06:00Z</time></trkpt>
<trkpt lat="26.228692" lon="100.163084">
<time>2015-08-06T12:06:01Z</time></trkpt>
<trkpt lat="26.228602" lon="100.163084">
<time>2015-08-06T12:06:02Z</time></trkpt>
<trkpt lat="26.228522" lon="100.163054">
<time>2015-08-06T12:06:03Z</time></trkpt>
<trkpt lat="26.228452" lon="100.163004">
<time>2015-08-06T12:06:04Z</time></trkpt>
<trkpt lat="26.228382" lon="100.162924">
<time>2015-08-06T12:06:05Z</time></trkpt>
<trkpt lat="26.228332" lon="100.162843">
<time>2015-08-06T12:06:06Z</time></trkpt>
<trkpt lat="26.228271" lon="100.162673">
<time>2015-08-06T12:06:07Z</time></trkpt>
<trkpt lat="26.228251" lon="100.162573">
<time>2015-08-06T12:06:08Z</time></trkpt>
<trkpt lat="26.228221" lon="100.162473">
<time>2015-08-06T12:06:09Z</time></trkpt>
<trkpt lat="26.228191" lon="100.162383">
<time>2015-08-06T12:06:10Z</time></trkpt>
<trkpt lat="26.228141" lon="100.162312">
<time>2015-08-06T12:06:11Z</time></trkpt>
<trkpt lat="26.228081" lon="100.162272">
<time>2015-08-06T12:06:12Z</time></trkpt>
<trkpt lat="26.22802" lon="100.162242">
<time>2015-08-06T12:06:13Z</time></trkpt>
<trkpt lat="26.22799" lon="100.162232">
<time>2015-08-06T12:06:14Z</time></trkpt>
<trkpt lat="26.22791" lon="100.162212">
<time>2015-08-06T12:06:15Z</time></trkpt>
<trkpt lat="26.22783" lon="100.162212">
<time>2015-08-06T12:06:16Z</time></trkpt>
<trkpt lat="26.22775" lon="100.162262">
<time>2015-08-06T12:06:17Z</time></trkpt>
<trkpt lat="26.22769" lon="100.162322">
<time>2015-08-06T12:06:18Z</time></trkpt>
<trkpt lat="26.227641" lon="100.162403">
<time>2015-08-06T12:06:19Z</time></trkpt>
<trkpt lat="26.227601" lon="100.162503">
<time>2015-08-06T12:06:20Z</time></trkpt>
<trkpt lat="26.227571" lon="100.162643">
<time>2015-08-06T12:06:21Z</time></trkpt>
<trkpt lat="26.227551" lon="100.162753">
<time>2015-08-06T12:06:22Z</time></trkpt>
<trkpt lat="26.227511" lon="100.162884">
<time>2015-08-06T12:06:23Z</time></trkpt>
<trkpt lat="26.227482" lon="100.163014">
<time>2015-08-06T12:06:24Z</time></trkpt>
<trkpt lat="26.227452" lon="100.163094">
<time>2015-08-06T12:06:25Z</time></trkpt>
<trkpt lat="26.227392" lon="100.163204">
<time>2015-08-06T12:06:26Z</time></trkpt>
<trkpt lat="26.227352" lon="100.163304">
<time>2015-08-06T12:06:27Z</time></trkpt>
<trkpt lat="26.227272" lon="100.163405">
<time>2015-08-06T12:06:28Z</time></trkpt>
<trkpt lat="26.227212" lon="100.163485">
<time>2015-08-06T12:06:29Z</time></trkpt>
<trkpt lat="26.227122" lon="100.163585">
<time>2015-08-06T12:06:30Z</time></trkpt>
<trkpt lat="26.227053" lon="100.163645">
<time>2015-08-06T12:06:31Z</time></trkpt>
<trkpt lat="26.226913" lon="100.163765">
<time>2015-08-06T12:06:32Z</time></trkpt>
<trkpt lat="26.226743" lon="100.163906">
<time>2015-08-06T12:06:33Z</time></trkpt>
<trkpt lat="26.226593" lon="100.164026">
<time>2015-08-06T12:06:34Z</time></trkpt>
<trkpt lat="26.226393" lon="100.164196">
<time>2015-08-06T12:06:35Z</time></trkpt>
<trkpt lat="26.226213" lon="100.164347">
<time>2015-08-06T12:06:36Z</time></trkpt>
<trkpt lat="26.226043" lon="100.164457">
<time>2015-08-06T12:06:37Z</time></trkpt>
<trkpt lat="26.225933" lon="100.164507">
<time>2015-08-06T12:06:38Z</time></trkpt>
<trkpt lat="26.225833" lon="100.164537">
<time>2015-08-06T12:06:39Z</time></trkpt>
<trkpt lat="26.225783" lon="100.164557">
<time>2015-08-06T12:06:40Z</time></trkpt>
<trkpt lat="26.225694" lon="100.164597">
<time>2015-08-06T12:06:41Z</time></trkpt>
<trkpt lat="26.225603" lon="100.164617">
<time>2015-08-06T12:06:42Z</time></trkpt>
<trkpt lat="26.225533" lon="100.164617">
<time>2015-08-06T12:06:43Z</time></trkpt>
<trkpt lat="26.225483" lon="100.164607">
<time>2015-08-06T12:06:44Z</time></trkpt>
<trkpt lat="26.225393" lon="100.164587">
<time>2015-08-06T12:06:45Z</time></trkpt>
<trkpt lat="26.225263" lon="100.164537">
<time>2015-08-06T12:06:46Z</time></trkpt>
<trkpt lat="26.225133" lon="100.164467">
<time>2015-08-06T12:06:47Z</time></trkpt>
<trkpt lat="26.225033" lon="100.164397">
<time>2015-08-06T12:06:48Z</time></trkpt>
<trkpt lat="26.224973" lon="100.164337">
<time>2015-08-06T12:06:49Z</time></trkpt>
<trkpt lat="26.224912" lon="100.164277">
<time>2015-08-06T12:06:50Z</time></trkpt>
<trkpt lat="26.224862" lon="100.164216">
<time>2015-08-06T12:06:51Z</time></trkpt>
<trkpt lat="26.224812" lon="100.164136">
<time>2015-08-06T12:06:52Z</time></trkpt>
<trkpt lat="26.224772" lon="100.164076">
<time>2015-08-06T12:06:53Z</time></trkpt>
<trkpt lat="26.224732" lon="100.163986">
<time>2015-08-06T12:06:54Z</time></trkpt>
<trkpt lat="26.224692" lon="100.163886">
<time>2015-08-06T12:06:55Z</time></trkpt>
<trkpt lat="26.224681" lon="100.163826">
<time>2015-08-06T12:06:56Z</time></trkpt>
<trkpt lat="26.224641" lon="100.163675">
<time>2015-08-06T12:06:57Z</time></trkpt>
<trkpt lat="26.224621" lon="100.163525">
<time>2015-08-06T12:06:58Z</time></trkpt>
<trkpt lat="26.224601" lon="100.163395">
<time>2015-08-06T12:06:59Z</time></trkpt>
<trkpt lat="26.22458" lon="100.163325">
<time>2015-08-06T12:07:00Z</time></trkpt>
<trkpt lat="26.22457" lon="100.163264">
<time>2015-08-06T12:07:01Z</time></trkpt>
<trkpt lat="26.22454" lon="100.163174">
<time>2015-08-06T12:07:02Z</time></trkpt>
<trkpt lat="26.22452" lon="100.163114">
<time>2015-08-06T12:07:03Z</time></trkpt>
<trkpt lat="26.22449" lon="100.163064">
<time>2015-08-06T12:07:04Z</time></trkpt>
<trkpt lat="26.22444" lon="100.162994">
<time>2015-08-06T12:07:05Z</time></trkpt>
<trkpt lat="26.22438" lon="100.162924">
<time>2015-08-06T12:07:06Z</time></trkpt>
<trkpt lat="26.224319" lon="100.162874">
<time>2015-08-06T12:07:07Z</time></trkpt>
<trkpt lat="26.224219" lon="100.162824">
<time>2015-08-06T12:07:08Z</time></trkpt>
<trkpt lat="26.224119" lon="100.162783">
<time>2015-08-06T12:07:09Z</time></trkpt>
<trkpt lat="26.224039" lon="100.162763">
<time>2015-08-06T12:07:10Z</time></trkpt>
<trkpt lat="26.223919" lon="100.162733">
<time>2015-08-06T12:07:11Z</time></trkpt>
<trkpt lat="26.223659" lon="100.162693">
<time>2015-08-06T12:07:12Z</time></trkpt>
<trkpt lat="26.223449" lon="100.162663">
<time>2015-08-06T12:07:13Z</time></trkpt>
<trkpt lat="26.223248" lon="100.162633">
<time>2015-08-06T12:07:14Z</time></trkpt>
<trkpt lat="26.223028" lon="100.162593">
<time>2015-08-06T12:07:15Z</time></trkpt>
<trkpt lat="26.222788" lon="100.162553">
<time>2015-08-06T12:07:16Z</time></trkpt>
<trkpt lat="26.222608" lon="100.162513">
<time>2015-08-06T12:07:17Z</time></trkpt>
<trkpt lat="26.222478" lon="100.162483">
<time>2015-08-06T12:07:18Z</time></trkpt>
<trkpt lat="26.222368" lon="100.162453">
<time>2015-08-06T12:07:19Z</time></trkpt>
<trkpt lat="26.222137" lon="100.162363">
<time>2015-08-06T12:07:20Z</time></trkpt>
<trkpt lat="26.221957" lon="100.162272">
<time>2015-08-06T12:07:21Z</time></trkpt>
<trkpt lat="26.221817" lon="100.162192">
<time>2015-08-06T12:07:22Z</time></trkpt>
<trkpt lat="26.221687" lon="100.162112">
<time>2015-08-06T12:07:23Z</time></trkpt>
<trkpt lat="26.221586" lon="100.162042">
<time>2015-08-06T12:07:24Z</time></trkpt>
<trkpt lat="26.221356" lon="100.161882">
<time>2015-08-06T12:07:25Z</time></trkpt>
<trkpt lat="26.221125" lon="100.161721">
<time>2015-08-06T12:07:26Z</time></trkpt>
<trkpt lat="26.220875" lon="100.161541">
<time>2015-08-06T12:07:27Z</time></trkpt>
<trkpt lat="26.220735" lon="100.161431">
<time>2015-08-06T12:07:28Z</time></trkpt>
<trkpt lat="26.220624" lon="100.161361">
<time>2015-08-06T12:07:29Z</time></trkpt>
<trkpt lat="26.220484" lon="100.16126">
<time>2015-08-06T12:07:30Z</time></trkpt>
<trkpt lat="26.220354" lon="100.16118">
<time>2015-08-06T12:07:31Z</time></trkpt>
<trkpt lat="26.220254" lon="100.16112">
<time>2015-08-06T12:07:32Z</time></trkpt>
<trkpt lat="26.220094" lon="100.16103">
<time>2015-08-06T12:07:33Z</time></trkpt>
<trkpt lat="26.219963" lon="100.16096">
<time>2015-08-06T12:07:34Z</time></trkpt>
<trkpt lat="26.219823" lon="100.1609">
<time>2015-08-06T12:07:35Z</time></trkpt>
<trkpt lat="26.219673" lon="100.16084">
<time>2015-08-06T12:07:36Z</time></trkpt>
<trkpt lat="26.219593" lon="100.160809">
<time>2015-08-06T12:07:37Z</time></trkpt>
<trkpt lat="26.219503" lon="100.160769">
<time>2015-08-06T12:07:38Z</time></trkpt>
<trkpt lat="26.219353" lon="100.160729">
<time>2015-08-06T12:07:39Z</time></trkpt>
<trkpt lat="26.219182" lon="100.160669">
<time>2015-08-06T12:07:40Z</time></trkpt>
<trkpt lat="26.218852" lon="100.160579">
<time>2015-08-06T12:07:41Z</time></trkpt>
<trkpt lat="26.218502" lon="100.160479">
<time>2015-08-06T12:07:42Z</time></trkpt>
<trkpt lat="26.218171" lon="100.160389">
<time>2015-08-06T12:07:43Z</time></trkpt>
<trkpt lat="26.217841" lon="100.160288">
<time>2015-08-06T12:07:44Z</time></trkpt>
<trkpt lat="26.21749" lon="100.160178">
<time>2015-08-06T12:07:45Z</time></trkpt>
<trkpt lat="26.21713" lon="100.160068">
<time>2015-08-06T12:07:46Z</time></trkpt>
<trkpt lat="26.21679" lon="100.159968">
<time>2015-08-06T12:07:47Z</time></trkpt>
<trkpt lat="26.216469" lon="100.159858">
<time>2015-08-06T12:07:48Z</time></trkpt>
<trkpt lat="26.216249" lon="100.159787">
<time>2015-08-06T12:07:49Z</time></trkpt>
<trkpt lat="26.216119" lon="100.159747">
<time>2015-08-06T12:07:50Z</time></trkpt>
<trkpt lat="26.215788" lon="100.159637">
<time>2015-08-06T12:07:51Z</time></trkpt>
<trkpt lat="26.215498" lon="100.159537">
<time>2015-08-06T12:07:52Z</time></trkpt>
<trkpt lat="26.215178" lon="100.159427">
<time>2015-08-06T12:07:53Z</time></trkpt>
<trkpt lat="26.215027" lon="100.159377">
<time>2015-08-06T12:07:54Z</time></trkpt>
<trkpt lat="26.214837" lon="100.159316">
<time>2015-08-06T12:07:55Z</time></trkpt>
<trkpt lat="26.214787" lon="100.159306">
<time>2015-08-06T12:07:56Z</time></trkpt>
<trkpt lat="26.214717" lon="100.159296">
<time>2015-08-06T12:07:57Z</time></trkpt>
<trkpt lat="26.214597" lon="100.159276">
<time>2015-08-06T12:07:58Z</time></trkpt>
<trkpt lat="26.214527" lon="100.159266">
<time>2015-08-06T12:07:59Z</time></trkpt>
<trkpt lat="26.214437" lon="100.159266">
<time>2015-08-06T12:08:00Z</time></trkpt>
<trkpt lat="26.214287" lon="100.159266">
<time>2015-08-06T12:08:01Z</time></trkpt>
<trkpt lat="26.214147" lon="100.159276">
<time>2015-08-06T12:08:02Z</time></trkpt>
<trkpt lat="26.213997" lon="100.159296">
<time>2015-08-06T12:08:03Z</time></trkpt>
<trkpt lat="26.213867" lon="100.159327">
<time>2015-08-06T12:08:04Z</time></trkpt>
<trkpt lat="26.213707" lon="100.159377">
<time>2015-08-06T12:08:05Z</time></trkpt>
<trkpt lat="26.213407" lon="100.159467">
<time>2015-08-06T12:08:06Z</time></trkpt>
<trkpt lat="26.213367" lon="100.159487">
<time>2015-08-06T12:08:07Z</time></trkpt>
<trkpt lat="26.213257" lon="100.159507">
<time>2015-08-06T12:08:08Z</time></trkpt>
<trkpt lat="26.213097" lon="100.159547">
<time>2015-08-06T12:08:09Z</time></trkpt>
<trkpt lat="26.212937" lon="100.159577">
<time>2015-08-06T12:08:10Z</time></trkpt>
<trkpt lat="26.212787" lon="100.159607">
<time>2015-08-06T12:08:11Z</time></trkpt>
<trkpt lat="26.212466" lon="100.159637">
<time>2015-08-06T12:08:12Z</time></trkpt>
<trkpt lat="26.212266" lon="100.159647">
<time>2015-08-06T12:08:13Z</time></trkpt>
<trkpt lat="26.212096" lon="100.159647">
<time>2015-08-06T12:08:14Z</time></trkpt>
<trkpt lat="26.211866" lon="100.159627">
<time>2015-08-06T12:08:15Z</time></trkpt>
<trkpt lat="26.211726" lon="100.159617">
<time>2015-08-06T12:08:16Z</time></trkpt>
<trkpt lat="26.211376" lon="100.159557">
<time>2015-08-06T12:08:17Z</time></trkpt>
<trkpt lat="26.211075" lon="100.159497">
<time>2015-08-06T12:08:18Z</time></trkpt>
<trkpt lat="26.210785" lon="100.159457">
<time>2015-08-06T12:08:19Z</time></trkpt>
<trkpt lat="26.210565" lon="100.159427">
<time>2015-08-06T12:08:20Z</time></trkpt>
<trkpt lat="26.210345" lon="100.159397">
<time>2015-08-06T12:08:21Z</time></trkpt>
<trkpt lat="26.210135" lon="100.159367">
<time>2015-08-06T12:08:22Z</time></trkpt>
<trkpt lat="26.209904" lon="100.159317">
<time>2015-08-06T12:08:23Z</time></trkpt>
<trkpt lat="26.209774" lon="100.159277">
<time>2015-08-06T12:08:24Z</time></trkpt>
<trkpt lat="26.209694" lon="100.159246">
<time>2015-08-06T12:08:25Z</time></trkpt>
<trkpt lat="26.209574" lon="100.159196">
<time>2015-08-06T12:08:26Z</time></trkpt>
<trkpt lat="26.209494" lon="100.159156">
<time>2015-08-06T12:08:27Z</time></trkpt>
<trkpt lat="26.209434" lon="100.159106">
<time>2015-08-06T12:08:28Z</time></trkpt>
<trkpt lat="26.209404" lon="100.159076">
<time>2015-08-06T12:08:29Z</time></trkpt>
<trkpt lat="26.209343" lon="100.158996">
<time>2015-08-06T12:08:30Z</time></trkpt>
<trkpt lat="26.209303" lon="100.158916">
<time>2015-08-06T12:08:31Z</time></trkpt>
<trkpt lat="26.209233" lon="100.158715">
<time>2015-08-06T12:08:32Z</time></trkpt>
<trkpt lat="26.209172" lon="100.158435">
<time>2015-08-06T12:08:33Z</time></trkpt>
<trkpt lat="26.209092" lon="100.158074">
<time>2015-08-06T12:08:34Z</time></trkpt>
<trkpt lat="26.209031" lon="100.157804">
<time>2015-08-06T12:08:35Z</time></trkpt>
<trkpt lat="26.20895" lon="100.157483">
<time>2015-08-06T12:08:36Z</time></trkpt>
<trkpt lat="26.20891" lon="100.157292">
<time>2015-08-06T12:08:37Z</time></trkpt>
<trkpt lat="26.20889" lon="100.157202">
<time>2015-08-06T12:08:38Z</time></trkpt>
<trkpt lat="26.20885" lon="100.157102">
<time>2015-08-06T12:08:39Z</time></trkpt>
<trkpt lat="26.20882" lon="100.157042">
<time>2015-08-06T12:08:40Z</time></trkpt>
<trkpt lat="26.208779" lon="100.156962">
<time>2015-08-06T12:08:41Z</time></trkpt>
<trkpt lat="26.208739" lon="100.156912">
<time>2015-08-06T12:08:42Z</time></trkpt>
<trkpt lat="26.208649" lon="100.156842">
<time>2015-08-06T12:08:43Z</time></trkpt>
<trkpt lat="26.208579" lon="100.156801">
<time>2015-08-06T12:08:44Z</time></trkpt>
<trkpt lat="26.208499" lon="100.156771">
<time>2015-08-06T12:08:45Z</time></trkpt>
<trkpt lat="26.208429" lon="100.156761">
<time>2015-08-06T12:08:46Z</time></trkpt>
<trkpt lat="26.208389" lon="100.156771">
<time>2015-08-06T12:08:47Z</time></trkpt>
<trkpt lat="26.208339" lon="100.156771">
<time>2015-08-06T12:08:48Z</time></trkpt>
<trkpt lat="26.208259" lon="100.156791">
<time>2015-08-06T12:08:49Z</time></trkpt>
<trkpt lat="26.208189" lon="100.156822">
<time>2015-08-06T12:08:50Z</time></trkpt>
<trkpt lat="26.208129" lon="100.156872">
<time>2015-08-06T12:08:51Z</time></trkpt>
<trkpt lat="26.208079" lon="100.156922">
<time>2015-08-06T12:08:52Z</time></trkpt>
<trkpt lat="26.208039" lon="100.156962">
<time>2015-08-06T12:08:53Z</time></trkpt>
<trkpt lat="26.207999" lon="100.157022">
<time>2015-08-06T12:08:54Z</time></trkpt>
<trkpt lat="26.207969" lon="100.157082">
<time>2015-08-06T12:08:55Z</time></trkpt>
<trkpt lat="26.207879" lon="100.157242">
<time>2015-08-06T12:08:56Z</time></trkpt>
<trkpt lat="26.20779" lon="100.157413">
<time>2015-08-06T12:08:57Z</time></trkpt>
<trkpt lat="26.20768" lon="100.157623">
<time>2015-08-06T12:08:58Z</time></trkpt>
<trkpt lat="26.20755" lon="100.157884">
<time>2015-08-06T12:08:59Z</time></trkpt>
<trkpt lat="26.20747" lon="100.158024">
<time>2015-08-06T12:09:00Z</time></trkpt>
<trkpt lat="26.207411" lon="100.158124">
<time>2015-08-06T12:09:01Z</time></trkpt>
<trkpt lat="26.207291" lon="100.158265">
<time>2015-08-06T12:09:02Z</time></trkpt>
<trkpt lat="26.207221" lon="100.158325">
<time>2015-08-06T12:09:03Z</time></trkpt>
<trkpt lat="26.207081" lon="100.158425">
<time>2015-08-06T12:09:04Z</time></trkpt>
<trkpt lat="26.206981" lon="100.158485">
<time>2015-08-06T12:09:05Z</time></trkpt>
<trkpt lat="26.206841" lon="100.158565">
<time>2015-08-06T12:09:06Z</time></trkpt>
<trkpt lat="26.206751" lon="100.158615">
<time>2015-08-06T12:09:07Z</time></trkpt>
<trkpt lat="26.206601" lon="100.158685">
<time>2015-08-06T12:09:08Z</time></trkpt>
<trkpt lat="26.206511" lon="100.158715">
<time>2015-08-06T12:09:09Z</time></trkpt>
<trkpt lat="26.206341" lon="100.158756">
<time>2015-08-06T12:09:10Z</time></trkpt>
<trkpt lat="26.206201" lon="100.158766">
<time>2015-08-06T12:09:11Z</time></trkpt>
<trkpt lat="26.206101" lon="100.158776">
<time>2015-08-06T12:09:12Z</time></trkpt>
<trkpt lat="26.206011" lon="100.158776">
<time>2015-08-06T12:09:13Z</time></trkpt>
<trkpt lat="26.205881" lon="100.158776">
<time>2015-08-06T12:09:14Z</time></trkpt>
<trkpt lat="26.205621" lon="100.158746">
<time>2015-08-06T12:09:15Z</time></trkpt>
<trkpt lat="26.205491" lon="100.158726">
<time>2015-08-06T12:09:16Z</time></trkpt>
<trkpt lat="26.20537" lon="100.158705">
<time>2015-08-06T12:09:17Z</time></trkpt>
<trkpt lat="26.20522" lon="100.158665">
<time>2015-08-06T12:09:18Z</time></trkpt>
<trkpt lat="26.20515" lon="100.158635">
<time>2015-08-06T12:09:19Z</time></trkpt>
<trkpt lat="26.2051" lon="100.158595">
<time>2015-08-06T12:09:20Z</time></trkpt>
<trkpt lat="26.20503" lon="100.158555">
<time>2015-08-06T12:09:21Z</time></trkpt>
<trkpt lat="26.20498" lon="100.158505">
<time>2015-08-06T12:09:22Z</time></trkpt>
<trkpt lat="26.20493" lon="100.158445">
<time>2015-08-06T12:09:23Z</time></trkpt>
<trkpt lat="26.20486" lon="100.158365">
<time>2015-08-06T12:09:24Z</time></trkpt>
<trkpt lat="26.204819" lon="100.158295">
<time>2015-08-06T12:09:25Z</time></trkpt>
<trkpt lat="26.204789" lon="100.158224">
<time>2015-08-06T12:09:26Z</time></trkpt>
<trkpt lat="26.204769" lon="100.158144">
<time>2015-08-06T12:09:27Z</time></trkpt>
<trkpt lat="26.204739" lon="100.158044">
<time>2015-08-06T12:09:28Z</time></trkpt>
<trkpt lat="26.204729" lon="100.157934">
<time>2015-08-06T12:09:29Z</time></trkpt>
<trkpt lat="26.204719" lon="100.157874">
<time>2015-08-06T12:09:30Z</time></trkpt>
<trkpt lat="26.204718" lon="100.157733">
<time>2015-08-06T12:09:31Z</time></trkpt>
<trkpt lat="26.204738" lon="100.157573">
<time>2015-08-06T12:09:32Z</time></trkpt>
<trkpt lat="26.204758" lon="100.157413">
<time>2015-08-06T12:09:33Z</time></trkpt>
<trkpt lat="26.204777" lon="100.157273">
<time>2015-08-06T12:09:34Z</time></trkpt>
<trkpt lat="26.204807" lon="100.157132">
<time>2015-08-06T12:09:35Z</time></trkpt>
<trkpt lat="26.204847" lon="100.157002">
<time>2015-08-06T12:09:36Z</time></trkpt>
<trkpt lat="26.204907" lon="100.156842">
<time>2015-08-06T12:09:37Z</time></trkpt>
<trkpt lat="26.205036" lon="100.156551">
<time>2015-08-06T12:09:38Z</time></trkpt>
<trkpt lat="26.205076" lon="100.156441">
<time>2015-08-06T12:09:39Z</time></trkpt>
<trkpt lat="26.205096" lon="100.156351">
<time>2015-08-06T12:09:40Z</time></trkpt>
<trkpt lat="26.205106" lon="100.15627">
<time>2015-08-06T12:09:41Z</time></trkpt>
<trkpt lat="26.205096" lon="100.15618">
<time>2015-08-06T12:09:42Z</time></trkpt>
<trkpt lat="26.205076" lon="100.15609">
<time>2015-08-06T12:09:43Z</time></trkpt>
<trkpt lat="26.205035" lon="100.15602">
<time>2015-08-06T12:09:44Z</time></trkpt>
<trkpt lat="26.205025" lon="100.15599">
<time>2015-08-06T12:09:45Z</time></trkpt>
<trkpt lat="26.204835" lon="100.155729">
<time>2015-08-06T12:09:46Z</time></trkpt>
<trkpt lat="26.204775" lon="100.155639">
<time>2015-08-06T12:09:47Z</time></trkpt>
<trkpt lat="26.204754" lon="100.155569">
<time>2015-08-06T12:09:48Z</time></trkpt>
<trkpt lat="26.204724" lon="100.155489">
<time>2015-08-06T12:09:49Z</time></trkpt>
<trkpt lat="26.204714" lon="100.155409">
<time>2015-08-06T12:09:50Z</time></trkpt>
<trkpt lat="26.204704" lon="100.155359">
<time>2015-08-06T12:09:51Z</time></trkpt>
<trkpt lat="26.204704" lon="100.155268">
<time>2015-08-06T12:09:52Z</time></trkpt>
<trkpt lat="26.204724" lon="100.155128">
<time>2015-08-06T12:09:53Z</time></trkpt>
<trkpt lat="26.204773" lon="100.154858">
<time>2015-08-06T12:09:54Z</time></trkpt>
<trkpt lat="26.204783" lon="100.154747">
<time>2015-08-06T12:09:55Z</time></trkpt>
<trkpt lat="26.204803" lon="100.154627">
<time>2015-08-06T12:09:56Z</time></trkpt>
<trkpt lat="26.204822" lon="100.154447">
<time>2015-08-06T12:09:57Z</time></trkpt>
<trkpt lat="26.204822" lon="100.154317">
<time>2015-08-06T12:09:58Z</time></trkpt>
<trkpt lat="26.204822" lon="100.154206">
<time>2015-08-06T12:09:59Z</time></trkpt>
<trkpt lat="26.204812" lon="100.154036">
<time>2015-08-06T12:10:00Z</time></trkpt>
<trkpt lat="26.204801" lon="100.153906">
<time>2015-08-06T12:10:01Z</time></trkpt>
<trkpt lat="26.204781" lon="100.153796">
<time>2015-08-06T12:10:02Z</time></trkpt>
<trkpt lat="26.204751" lon="100.153575">
<time>2015-08-06T12:10:03Z</time></trkpt>
<trkpt lat="26.20472" lon="100.153375">
<time>2015-08-06T12:10:04Z</time></trkpt>
<trkpt lat="26.20468" lon="100.153174">
<time>2015-08-06T12:10:05Z</time></trkpt>
<trkpt lat="26.20462" lon="100.152994">
<time>2015-08-06T12:10:06Z</time></trkpt>
<trkpt lat="26.204569" lon="100.152854">
<time>2015-08-06T12:10:07Z</time></trkpt>
<trkpt lat="26.204539" lon="100.152763">
<time>2015-08-06T12:10:08Z</time></trkpt>
<trkpt lat="26.204489" lon="100.152663">
<time>2015-08-06T12:10:09Z</time></trkpt>
<trkpt lat="26.204419" lon="100.152533">
<time>2015-08-06T12:10:10Z</time></trkpt>
<trkpt lat="26.204359" lon="100.152443">
<time>2015-08-06T12:10:11Z</time></trkpt>
<trkpt lat="26.204298" lon="100.152343">
<time>2015-08-06T12:10:12Z</time></trkpt>
<trkpt lat="26.204238" lon="100.152262">
<time>2015-08-06T12:10:13Z</time></trkpt>
<trkpt lat="26.204118" lon="100.152132">
<time>2015-08-06T12:10:14Z</time></trkpt>
<trkpt lat="26.204048" lon="100.152062">
<time>2015-08-06T12:10:15Z</time></trkpt>
<trkpt lat="26.203958" lon="100.151982">
<time>2015-08-06T12:10:16Z</time></trkpt>
<trkpt lat="26.203797" lon="100.151862">
<time>2015-08-06T12:10:17Z</time></trkpt>
<trkpt lat="26.203717" lon="100.151802">
<time>2015-08-06T12:10:18Z</time></trkpt>
<trkpt lat="26.203647" lon="100.151772">
<time>2015-08-06T12:10:19Z</time></trkpt>
<trkpt lat="26.203547" lon="100.151731">
<time>2015-08-06T12:10:20Z</time></trkpt>
<trkpt lat="26.203467" lon="100.151711">
<time>2015-08-06T12:10:21Z</time></trkpt>
<trkpt lat="26.203377" lon="100.151701">
<time>2015-08-06T12:10:22Z</time></trkpt>
<trkpt lat="26.203257" lon="100.151721">
<time>2015-08-06T12:10:23Z</time></trkpt>
<trkpt lat="26.203197" lon="100.151741">
<time>2015-08-06T12:10:24Z</time></trkpt>
<trkpt lat="26.203147" lon="100.151762">
<time>2015-08-06T12:10:25Z</time></trkpt>
<trkpt lat="26.203107" lon="100.151782">
<time>2015-08-06T12:10:26Z</time></trkpt>
<trkpt lat="26.203047" lon="100.151822">
<time>2015-08-06T12:10:27Z</time></trkpt>
<trkpt lat="26.202957" lon="100.151892">
<time>2015-08-06T12:10:28Z</time></trkpt>
<trkpt lat="26.202867" lon="100.151992">
<time>2015-08-06T12:10:29Z</time></trkpt>
<trkpt lat="26.202807" lon="100.152082">
<time>2015-08-06T12:10:30Z</time></trkpt>
<trkpt lat="26.202717" lon="100.152232">
<time>2015-08-06T12:10:31Z</time></trkpt>
<trkpt lat="26.202627" lon="100.152353">
<time>2015-08-06T12:10:32Z</time></trkpt>
<trkpt lat="26.202567" lon="100.152433">
<time>2015-08-06T12:10:33Z</time></trkpt>
<trkpt lat="26.202468" lon="100.152523">
<time>2015-08-06T12:10:34Z</time></trkpt>
<trkpt lat="26.202358" lon="100.152603">
<time>2015-08-06T12:10:35Z</time></trkpt>
<trkpt lat="26.202298" lon="100.152633">
<time>2015-08-06T12:10:36Z</time></trkpt>
<trkpt lat="26.202188" lon="100.152683">
<time>2015-08-06T12:10:37Z</time></trkpt>
<trkpt lat="26.202088" lon="100.152713">
<time>2015-08-06T12:10:38Z</time></trkpt>
<trkpt lat="26.201838" lon="100.152784">
<time>2015-08-06T12:10:39Z</time></trkpt>
<trkpt lat="26.201648" lon="100.152834">
<time>2015-08-06T12:10:40Z</time></trkpt>
<trkpt lat="26.201528" lon="100.152884">
<time>2015-08-06T12:10:41Z</time></trkpt>
<trkpt lat="26.201378" lon="100.152954">
<time>2015-08-06T12:10:42Z</time></trkpt>
<trkpt lat="26.201238" lon="100.153024">
<time>2015-08-06T12:10:43Z</time></trkpt>
<trkpt lat="26.201108" lon="100.153114">
<time>2015-08-06T12:10:44Z</time></trkpt>
<trkpt lat="26.200968" lon="100.153224">
<time>2015-08-06T12:10:45Z</time></trkpt>
<trkpt lat="26.200698" lon="100.153425">
<time>2015-08-06T12:10:46Z</time></trkpt>
<trkpt lat="26.200418" lon="100.153625">
<time>2015-08-06T12:10:47Z</time></trkpt>
<trkpt lat="26.200138" lon="100.153816">
<time>2015-08-06T12:10:48Z</time></trkpt>
<trkpt lat="26.199959" lon="100.153926">
<time>2015-08-06T12:10:49Z</time></trkpt>
<trkpt lat="26.199829" lon="100.154006">
<time>2015-08-06T12:10:50Z</time></trkpt>
<trkpt lat="26.199529" lon="100.154176">
<time>2015-08-06T12:10:51Z</time></trkpt>
<trkpt lat="26.199209" lon="100.154377">
<time>2015-08-06T12:10:52Z</time></trkpt>
<trkpt lat="26.198949" lon="100.154527">
<time>2015-08-06T12:10:53Z</time></trkpt>
<trkpt lat="26.198799" lon="100.154627">
<time>2015-08-06T12:10:54Z</time></trkpt>
<trkpt lat="26.198669" lon="100.154718">
<time>2015-08-06T12:10:55Z</time></trkpt>
<trkpt lat="26.198569" lon="100.154828">
<time>2015-08-06T12:10:56Z</time></trkpt>
<trkpt lat="26.198509" lon="100.154878">
<time>2015-08-06T12:10:57Z</time></trkpt>
<trkpt lat="26.19839" lon="100.155038">
<time>2015-08-06T12:10:58Z</time></trkpt>
<trkpt lat="26.19828" lon="100.155198">
<time>2015-08-06T12:10:59Z</time></trkpt>
<trkpt lat="26.19817" lon="100.155389">
<time>2015-08-06T12:11:00Z</time></trkpt>
<trkpt lat="26.19798" lon="100.155689">
<time>2015-08-06T12:11:01Z</time></trkpt>
<trkpt lat="26.197801" lon="100.15599">
<time>2015-08-06T12:11:02Z</time></trkpt>
<trkpt lat="26.197631" lon="100.156261">
<time>2015-08-06T12:11:03Z</time></trkpt>
<trkpt lat="26.197531" lon="100.156401">
<time>2015-08-06T12:11:04Z</time></trkpt>
<trkpt lat="26.197472" lon="100.156471">
<time>2015-08-06T12:11:05Z</time></trkpt>
<trkpt lat="26.197402" lon="100.156521">
<time>2015-08-06T12:11:06Z</time></trkpt>
<trkpt lat="26.197322" lon="100.156561">
<time>2015-08-06T12:11:07Z</time></trkpt>
<trkpt lat="26.197252" lon="100.156591">
<time>2015-08-06T12:11:08Z</time></trkpt>
<trkpt lat="26.197172" lon="100.156591">
<time>2015-08-06T12:11:09Z</time></trkpt>
<trkpt lat="26.197102" lon="100.156581">
<time>2015-08-06T12:11:10Z</time></trkpt>
<trkpt lat="26.197041" lon="100.156561">
<time>2015-08-06T12:11:11Z</time></trkpt>
<trkpt lat="26.197021" lon="100.156551">
<time>2015-08-06T12:11:12Z</time></trkpt>
<trkpt lat="26.196961" lon="100.156521">
<time>2015-08-06T12:11:13Z</time></trkpt>
<trkpt lat="26.196911" lon="100.156481">
<time>2015-08-06T12:11:14Z</time></trkpt>
<trkpt lat="26.196801" lon="100.156381">
<time>2015-08-06T12:11:15Z</time></trkpt>
<trkpt lat="26.196691" lon="100.156251">
<time>2015-08-06T12:11:16Z</time></trkpt>
<trkpt lat="26.196631" lon="100.156191">
<time>2015-08-06T12:11:17Z</time></trkpt>
<trkpt lat="26.19655" lon="100.15609">
<time>2015-08-06T12:11:18Z</time></trkpt>
<trkpt lat="26.19649" lon="100.156">
<time>2015-08-06T12:11:19Z</time></trkpt>
<trkpt lat="26.19642" lon="100.15589">
<time>2015-08-06T12:11:20Z</time></trkpt>
<trkpt lat="26.19636" lon="100.15578">
<time>2015-08-06T12:11:21Z</time></trkpt>
<trkpt lat="26.196309" lon="100.155669">
<time>2015-08-06T12:11:22Z</time></trkpt>
<trkpt lat="26.196279" lon="100.155589">
<time>2015-08-06T12:11:23Z</time></trkpt>
<trkpt lat="26.196249" lon="100.155519">
<time>2015-08-06T12:11:24Z</time></trkpt>
<trkpt lat="26.196219" lon="100.155389">
<time>2015-08-06T12:11:25Z</time></trkpt>
<trkpt lat="26.196189" lon="100.155229">
<time>2015-08-06T12:11:26Z</time></trkpt>
<trkpt lat="26.196178" lon="100.155098">
<time>2015-08-06T12:11:27Z</time></trkpt>
<trkpt lat="26.196168" lon="100.154938">
<time>2015-08-06T12:11:28Z</time></trkpt>
<trkpt lat="26.196168" lon="100.154828">
<time>2015-08-06T12:11:29Z</time></trkpt>
<trkpt lat="26.196177" lon="100.154587">
<time>2015-08-06T12:11:30Z</time></trkpt>
<trkpt lat="26.196177" lon="100.154277">
<time>2015-08-06T12:11:31Z</time></trkpt>
<trkpt lat="26.196186" lon="100.153996">
<time>2015-08-06T12:11:32Z</time></trkpt>
<trkpt lat="26.196206" lon="100.153706">
<time>2015-08-06T12:11:33Z</time></trkpt>
<trkpt lat="26.196235" lon="100.153395">
<time>2015-08-06T12:11:34Z</time></trkpt>
<trkpt lat="26.196275" lon="100.153104">
<time>2015-08-06T12:11:35Z</time></trkpt>
<trkpt lat="26.196334" lon="100.152724">
<time>2015-08-06T12:11:36Z</time></trkpt>
<trkpt lat="26.196374" lon="100.152453">
<time>2015-08-06T12:11:37Z</time></trkpt>
<trkpt lat="26.196403" lon="100.152233">
<time>2015-08-06T12:11:38Z</time></trkpt>
<trkpt lat="26.196453" lon="100.151922">
<time>2015-08-06T12:11:39Z</time></trkpt>
<trkpt lat="26.196483" lon="100.151712">
<time>2015-08-06T12:11:40Z</time></trkpt>
<trkpt lat="26.196512" lon="100.151531">
<time>2015-08-06T12:11:41Z</time></trkpt>
<trkpt lat="26.196552" lon="100.151261">
<time>2015-08-06T12:11:42Z</time></trkpt>
<trkpt lat="26.196591" lon="100.15101">
<time>2015-08-06T12:11:43Z</time></trkpt>
<trkpt lat="26.196621" lon="100.15075">
<time>2015-08-06T12:11:44Z</time></trkpt>
<trkpt lat="26.196651" lon="100.150499">
<time>2015-08-06T12:11:45Z</time></trkpt>
<trkpt lat="26.19668" lon="100.150259">
<time>2015-08-06T12:11:46Z</time></trkpt>
<trkpt lat="26.19671" lon="100.149998">
<time>2015-08-06T12:11:47Z</time></trkpt>
<trkpt lat="26.196709" lon="100.149878">
<time>2015-08-06T12:11:48Z</time></trkpt>
<trkpt lat="26.196709" lon="100.149778">
<time>2015-08-06T12:11:49Z</time></trkpt>
<trkpt lat="26.196699" lon="100.149688">
<time>2015-08-06T12:11:50Z</time></trkpt>
<trkpt lat="26.196689" lon="100.149597">
<time>2015-08-06T12:11:51Z</time></trkpt>
<trkpt lat="26.196659" lon="100.149507">
<time>2015-08-06T12:11:52Z</time></trkpt>
<trkpt lat="26.196639" lon="100.149447">
<time>2015-08-06T12:11:53Z</time></trkpt>
<trkpt lat="26.196589" lon="100.149357">
<time>2015-08-06T12:11:54Z</time></trkpt>
<trkpt lat="26.196518" lon="100.149247">
<time>2015-08-06T12:11:55Z</time></trkpt>
<trkpt lat="26.196458" lon="100.149187">
<time>2015-08-06T12:11:56Z</time></trkpt>
<trkpt lat="26.196408" lon="100.149137">
<time>2015-08-06T12:11:57Z</time></trkpt>
<trkpt lat="26.196348" lon="100.149086">
<time>2015-08-06T12:11:58Z</time></trkpt>
<trkpt lat="26.196278" lon="100.149046">
<time>2015-08-06T12:11:59Z</time></trkpt>
<trkpt lat="26.196097" lon="100.148936">
<time>2015-08-06T12:12:00Z</time></trkpt>
<trkpt lat="26.195967" lon="100.148876">
<time>2015-08-06T12:12:01Z</time></trkpt>
<trkpt lat="26.195887" lon="100.148846">
<time>2015-08-06T12:12:02Z</time></trkpt>
<trkpt lat="26.195797" lon="100.148806">
<time>2015-08-06T12:12:03Z</time></trkpt>
<trkpt lat="26.195697" lon="100.148796">
<time>2015-08-06T12:12:04Z</time></trkpt>
<trkpt lat="26.195607" lon="100.148786">
<time>2015-08-06T12:12:05Z</time></trkpt>
<trkpt lat="26.195497" lon="100.148796">
<time>2015-08-06T12:12:06Z</time></trkpt>
<trkpt lat="26.195427" lon="100.148816">
<time>2015-08-06T12:12:07Z</time></trkpt>
<trkpt lat="26.195387" lon="100.148836">
<time>2015-08-06T12:12:08Z</time></trkpt>
<trkpt lat="26.195337" lon="100.148856">
<time>2015-08-06T12:12:09Z</time></trkpt>
<trkpt lat="26.195287" lon="100.148886">
<time>2015-08-06T12:12:10Z</time></trkpt>
<trkpt lat="26.195257" lon="100.148906">
<time>2015-08-06T12:12:11Z</time></trkpt>
<trkpt lat="26.195207" lon="100.148936">
<time>2015-08-06T12:12:12Z</time></trkpt>
<trkpt lat="26.195147" lon="100.148986">
<time>2015-08-06T12:12:13Z</time></trkpt>
<trkpt lat="26.195027" lon="100.149097">
<time>2015-08-06T12:12:14Z</time></trkpt>
<trkpt lat="26.194857" lon="100.149247">
<time>2015-08-06T12:12:15Z</time></trkpt>
<trkpt lat="26.194687" lon="100.149417">
<time>2015-08-06T12:12:16Z</time></trkpt>
<trkpt lat="26.194518" lon="100.149588">
<time>2015-08-06T12:12:17Z</time></trkpt>
<trkpt lat="26.194358" lon="100.149738">
<time>2015-08-06T12:12:18Z</time></trkpt>
<trkpt lat="26.194198" lon="100.149888">
<time>2015-08-06T12:12:19Z</time></trkpt>
<trkpt lat="26.194028" lon="100.150028">
<time>2015-08-06T12:12:20Z</time></trkpt>
<trkpt lat="26.193908" lon="100.150139">
<time>2015-08-06T12:12:21Z</time></trkpt>
<trkpt lat="26.193748" lon="100.150279">
<time>2015-08-06T12:12:22Z</time></trkpt>
<trkpt lat="26.193658" lon="100.150359">
<time>2015-08-06T12:12:23Z</time></trkpt>
<trkpt lat="26.193568" lon="100.150419">
<time>2015-08-06T12:12:24Z</time></trkpt>
<trkpt lat="26.193488" lon="100.150459">
<time>2015-08-06T12:12:25Z</time></trkpt>
<trkpt lat="26.193408" lon="100.150479">
<time>2015-08-06T12:12:26Z</time></trkpt>
<trkpt lat="26.193308" lon="100.150479">
<time>2015-08-06T12:12:27Z</time></trkpt>
<trkpt lat="26.193238" lon="100.150449">
<time>2015-08-06T12:12:28Z</time></trkpt>
<trkpt lat="26.193178" lon="100.150409">
<time>2015-08-06T12:12:29Z</time></trkpt>
<trkpt lat="26.193128" lon="100.150369">
<time>2015-08-06T12:12:30Z</time></trkpt>
<trkpt lat="26.193008" lon="100.150249">
<time>2015-08-06T12:12:31Z</time></trkpt>
<trkpt lat="26.192948" lon="100.150199">
<time>2015-08-06T12:12:32Z</time></trkpt>
<trkpt lat="26.192878" lon="100.150149">
<time>2015-08-06T12:12:33Z</time></trkpt>
<trkpt lat="26.192787" lon="100.150129">
<time>2015-08-06T12:12:34Z</time></trkpt>
<trkpt lat="26.192697" lon="100.150129">
<time>2015-08-06T12:12:35Z</time></trkpt>
<trkpt lat="26.192607" lon="100.150159">
<time>2015-08-06T12:12:36Z</time></trkpt>
<trkpt lat="26.192537" lon="100.150209">
<time>2015-08-06T12:12:37Z</time></trkpt>
<trkpt lat="26.192488" lon="100.150249">
<time>2015-08-06T12:12:38Z</time></trkpt>
<trkpt lat="26.192388" lon="100.150349">
<time>2015-08-06T12:12:39Z</time></trkpt>
<trkpt lat="26.192318" lon="100.150419">
<time>2015-08-06T12:12:40Z</time></trkpt>
<trkpt lat="26.192128" lon="100.15061">
<time>2015-08-06T12:12:41Z</time></trkpt>
<trkpt lat="26.191948" lon="100.15079">
<time>2015-08-06T12:12:42Z</time></trkpt>
<trkpt lat="26.191778" lon="100.15095">
<time>2015-08-06T12:12:43Z</time></trkpt>
<trkpt lat="26.191688" lon="100.15104">
<time>2015-08-06T12:12:44Z</time></trkpt>
<trkpt lat="26.191608" lon="100.151111">
<time>2015-08-06T12:12:45Z</time></trkpt>
<trkpt lat="26.191519" lon="100.151171">
<time>2015-08-06T12:12:46Z</time></trkpt>
<trkpt lat="26.191439" lon="100.151211">
<time>2015-08-06T12:12:47Z</time></trkpt>
<trkpt lat="26.191339" lon="100.151231">
<time>2015-08-06T12:12:48Z</time></trkpt>
<trkpt lat="26.191258" lon="100.151231">
<time>2015-08-06T12:12:49Z</time></trkpt>
<trkpt lat="26.191168" lon="100.151211">
<time>2015-08-06T12:12:50Z</time></trkpt>
<trkpt lat="26.191098" lon="100.151171">
<time>2015-08-06T12:12:51Z</time></trkpt>
<trkpt lat="26.191028" lon="100.151111">
<time>2015-08-06T12:12:52Z</time></trkpt>
<trkpt lat="26.190948" lon="100.15102">
<time>2015-08-06T12:12:53Z</time></trkpt>
<trkpt lat="26.190868" lon="100.15089">
<time>2015-08-06T12:12:54Z</time></trkpt>
<trkpt lat="26.190777" lon="100.15072">
<time>2015-08-06T12:12:55Z</time></trkpt>
<trkpt lat="26.190637" lon="100.150479">
<time>2015-08-06T12:12:56Z</time></trkpt>
<trkpt lat="26.190486" lon="100.150259">
<time>2015-08-06T12:12:57Z</time></trkpt>
<trkpt lat="26.190356" lon="100.150079">
<time>2015-08-06T12:12:58Z</time></trkpt>
<trkpt lat="26.190246" lon="100.149948">
<time>2015-08-06T12:12:59Z</time></trkpt>
<trkpt lat="26.190135" lon="100.149878">
<time>2015-08-06T12:13:00Z</time></trkpt>
<trkpt lat="26.190055" lon="100.149838">
<time>2015-08-06T12:13:01Z</time></trkpt>
<trkpt lat="26.190005" lon="100.149828">
<time>2015-08-06T12:13:02Z</time></trkpt>
<trkpt lat="26.189935" lon="100.149828">
<time>2015-08-06T12:13:03Z</time></trkpt>
<trkpt lat="26.189865" lon="100.149838">
<time>2015-08-06T12:13:04Z</time></trkpt>
<trkpt lat="26.189785" lon="100.149888">
<time>2015-08-06T12:13:05Z</time></trkpt>
<trkpt lat="26.189725" lon="100.149938">
<time>2015-08-06T12:13:06Z</time></trkpt>
<trkpt lat="26.189645" lon="100.150069">
<time>2015-08-06T12:13:07Z</time></trkpt>
<trkpt lat="26.189626" lon="100.150209">
<time>2015-08-06T12:13:08Z</time></trkpt>
<trkpt lat="26.189626" lon="100.150469">
<time>2015-08-06T12:13:09Z</time></trkpt>
<trkpt lat="26.189627" lon="100.15072">
<time>2015-08-06T12:13:10Z</time></trkpt>
<trkpt lat="26.189617" lon="100.15083">
<time>2015-08-06T12:13:11Z</time></trkpt>
<trkpt lat="26.189607" lon="100.15091">
<time>2015-08-06T12:13:12Z</time></trkpt>
<trkpt lat="26.189567" lon="100.15105">
<time>2015-08-06T12:13:13Z</time></trkpt>
<trkpt lat="26.189527" lon="100.151141">
<time>2015-08-06T12:13:14Z</time></trkpt>
<trkpt lat="26.189398" lon="100.151391">
<time>2015-08-06T12:13:15Z</time></trkpt>
<trkpt lat="26.189268" lon="100.151602">
<time>2015-08-06T12:13:16Z</time></trkpt>
<trkpt lat="26.189118" lon="100.151812">
<time>2015-08-06T12:13:17Z</time></trkpt>
<trkpt lat="26.188998" lon="100.151982">
<time>2015-08-06T12:13:18Z</time></trkpt>
<trkpt lat="26.188869" lon="100.152173">
<time>2015-08-06T12:13:19Z</time></trkpt>
<trkpt lat="26.188749" lon="100.152323">
<time>2015-08-06T12:13:20Z</time></trkpt>
<trkpt lat="26.188669" lon="100.152393">
<time>2015-08-06T12:13:21Z</time></trkpt>
<trkpt lat="26.188579" lon="100.152473">
<time>2015-08-06T12:13:22Z</time></trkpt>
<trkpt lat="26.188479" lon="100.152543">
<time>2015-08-06T12:13:23Z</time></trkpt>
<trkpt lat="26.188379" lon="100.152594">
<time>2015-08-06T12:13:24Z</time></trkpt>
<trkpt lat="26.188259" lon="100.152634">
<time>2015-08-06T12:13:25Z</time></trkpt>
<trkpt lat="26.188089" lon="100.152654">
<time>2015-08-06T12:13:26Z</time></trkpt>
<trkpt lat="26.187979" lon="100.152644">
<time>2015-08-06T12:13:27Z</time></trkpt>
<trkpt lat="26.187829" lon="100.152614">
<time>2015-08-06T12:13:28Z</time></trkpt>
<trkpt lat="26.187699" lon="100.152543">
<time>2015-08-06T12:13:29Z</time></trkpt>
<trkpt lat="26.187568" lon="100.152473">
<time>2015-08-06T12:13:30Z</time></trkpt>
<trkpt lat="26.187448" lon="100.152393">
<time>2015-08-06T12:13:31Z</time></trkpt>
<trkpt lat="26.187248" lon="100.152243">
<time>2015-08-06T12:13:32Z</time></trkpt>
<trkpt lat="26.187087" lon="100.152123">
<time>2015-08-06T12:13:33Z</time></trkpt>
<trkpt lat="26.186947" lon="100.152032">
<time>2015-08-06T12:13:34Z</time></trkpt>
<trkpt lat="26.186897" lon="100.151992">
<time>2015-08-06T12:13:35Z</time></trkpt>
<trkpt lat="26.186807" lon="100.151952">
<time>2015-08-06T12:13:36Z</time></trkpt>
<trkpt lat="26.186707" lon="100.151922">
<time>2015-08-06T12:13:37Z</time></trkpt>
<trkpt lat="26.186637" lon="100.151922">
<time>2015-08-06T12:13:38Z</time></trkpt>
<trkpt lat="26.186567" lon="100.151932">
<time>2015-08-06T12:13:39Z</time></trkpt>
<trkpt lat="26.186487" lon="100.151952">
<time>2015-08-06T12:13:40Z</time></trkpt>
<trkpt lat="26.186387" lon="100.152022">
<time>2015-08-06T12:13:41Z</time></trkpt>
<trkpt lat="26.186267" lon="100.152133">
<time>2015-08-06T12:13:42Z</time></trkpt>
<trkpt lat="26.186077" lon="100.152333">
<time>2015-08-06T12:13:43Z</time></trkpt>
<trkpt lat="26.185917" lon="100.152513">
<time>2015-08-06T12:13:44Z</time></trkpt>
<trkpt lat="26.185768" lon="100.152684">
<time>2015-08-06T12:13:45Z</time></trkpt>
<trkpt lat="26.185648" lon="100.152824">
<time>2015-08-06T12:13:46Z</time></trkpt>
<trkpt lat="26.185598" lon="100.152904">
<time>2015-08-06T12:13:47Z</time></trkpt>
<trkpt lat="26.185568" lon="100.153004">
<time>2015-08-06T12:13:48Z</time></trkpt>
<trkpt lat="26.185548" lon="100.153095">
<time>2015-08-06T12:13:49Z</time></trkpt>
<trkpt lat="26.185568" lon="100.153225">
<time>2015-08-06T12:13:50Z</time></trkpt>
<trkpt lat="26.185639" lon="100.153365">
<time>2015-08-06T12:13:51Z</time></trkpt>
<trkpt lat="26.185749" lon="100.153576">
<time>2015-08-06T12:13:52Z</time></trkpt>
<trkpt lat="26.185819" lon="100.153716">
<time>2015-08-06T12:13:53Z</time></trkpt>
<trkpt lat="26.18589" lon="100.153906">
<time>2015-08-06T12:13:54Z</time></trkpt>
<trkpt lat="26.18593" lon="100.154057">
<time>2015-08-06T12:13:55Z</time></trkpt>
<trkpt lat="26.18595" lon="100.154137">
<time>2015-08-06T12:13:56Z</time></trkpt>
<trkpt lat="26.185971" lon="100.154257">
<time>2015-08-06T12:13:57Z</time></trkpt>
<trkpt lat="26.185971" lon="100.154347">
<time>2015-08-06T12:13:58Z</time></trkpt>
<trkpt lat="26.185981" lon="100.154437">
<time>2015-08-06T12:13:59Z</time></trkpt>
<trkpt lat="26.185981" lon="100.154598">
<time>2015-08-06T12:14:00Z</time></trkpt>
<trkpt lat="26.185972" lon="100.154868">
<time>2015-08-06T12:14:01Z</time></trkpt>
<trkpt lat="26.185952" lon="100.155119">
<time>2015-08-06T12:14:02Z</time></trkpt>
<trkpt lat="26.185942" lon="100.155339">
<time>2015-08-06T12:14:03Z</time></trkpt>
<trkpt lat="26.185943" lon="100.15563">
<time>2015-08-06T12:14:04Z</time></trkpt>
<trkpt lat="26.185943" lon="100.15586">
<time>2015-08-06T12:14:05Z</time></trkpt>
<trkpt lat="26.185954" lon="100.156131">
<time>2015-08-06T12:14:06Z</time></trkpt>
<trkpt lat="26.185944" lon="100.156241">
<time>2015-08-06T12:14:07Z</time></trkpt>
<trkpt lat="26.185944" lon="100.156281">
<time>2015-08-06T12:14:08Z</time></trkpt>
<trkpt lat="26.185934" lon="100.156331">
<time>2015-08-06T12:14:09Z</time></trkpt>
<trkpt lat="26.185924" lon="100.156381">
<time>2015-08-06T12:14:10Z</time></trkpt>
<trkpt lat="26.185904" lon="100.156441">
<time>2015-08-06T12:14:11Z</time></trkpt>
<trkpt lat="26.185884" lon="100.156481">
<time>2015-08-06T12:14:12Z</time></trkpt>
<trkpt lat="26.185875" lon="100.156511">
<time>2015-08-06T12:14:13Z</time></trkpt>
<trkpt lat="26.185805" lon="100.156602">
<time>2015-08-06T12:14:14Z</time></trkpt>
<trkpt lat="26.185725" lon="100.156682">
<time>2015-08-06T12:14:15Z</time></trkpt>
<trkpt lat="26.185645" lon="100.156712">
<time>2015-08-06T12:14:16Z</time></trkpt>
<trkpt lat="26.185465" lon="100.156782">
<time>2015-08-06T12:14:17Z</time></trkpt>
<trkpt lat="26.185375" lon="100.156812">
<time>2015-08-06T12:14:18Z</time></trkpt>
<trkpt lat="26.185305" lon="100.156842">
<time>2015-08-06T12:14:19Z</time></trkpt>
<trkpt lat="26.185235" lon="100.156882">
<time>2015-08-06T12:14:20Z</time></trkpt>
<trkpt lat="26.185125" lon="100.156942">
<time>2015-08-06T12:14:21Z</time></trkpt>
<trkpt lat="26.185055" lon="100.157013">
<time>2015-08-06T12:14:22Z</time></trkpt>
<trkpt lat="26.184995" lon="100.157063">
<time>2015-08-06T12:14:23Z</time></trkpt>
<trkpt lat="26.184925" lon="100.157153">
<time>2015-08-06T12:14:24Z</time></trkpt>
<trkpt lat="26.184855" lon="100.157243">
<time>2015-08-06T12:14:25Z</time></trkpt>
<trkpt lat="26.184745" lon="100.157403">
<time>2015-08-06T12:14:26Z</time></trkpt>
<trkpt lat="26.184566" lon="100.157684">
<time>2015-08-06T12:14:27Z</time></trkpt>
<trkpt lat="26.184436" lon="100.157884">
<time>2015-08-06T12:14:28Z</time></trkpt>
<trkpt lat="26.184306" lon="100.158085">
<time>2015-08-06T12:14:29Z</time></trkpt>
<trkpt lat="26.184157" lon="100.158305">
<time>2015-08-06T12:14:30Z</time></trkpt>
<trkpt lat="26.184037" lon="100.158486">
<time>2015-08-06T12:14:31Z</time></trkpt>
<trkpt lat="26.183907" lon="100.158676">
<time>2015-08-06T12:14:32Z</time></trkpt>
<trkpt lat="26.183827" lon="100.158776">
<time>2015-08-06T12:14:33Z</time></trkpt>
<trkpt lat="26.183767" lon="100.158846">
<time>2015-08-06T12:14:34Z</time></trkpt>
<trkpt lat="26.183598" lon="100.158977">
<time>2015-08-06T12:14:35Z</time></trkpt>
<trkpt lat="26.183558" lon="100.158997">
<time>2015-08-06T12:14:36Z</time></trkpt>
<trkpt lat="26.183508" lon="100.159007">
<time>2015-08-06T12:14:37Z</time></trkpt>
<trkpt lat="26.183458" lon="100.159007">
<time>2015-08-06T12:14:38Z</time></trkpt>
<trkpt lat="26.183428" lon="100.158997">
<time>2015-08-06T12:14:39Z</time></trkpt>
<trkpt lat="26.183407" lon="100.158997">
<time>2015-08-06T12:14:40Z</time></trkpt>
<trkpt lat="26.183387" lon="100.158967">
<time>2015-08-06T12:14:41Z</time></trkpt>
<trkpt lat="26.183357" lon="100.158926">
<time>2015-08-06T12:14:42Z</time></trkpt>
<trkpt lat="26.183307" lon="100.158866">
<time>2015-08-06T12:14:43Z</time></trkpt>
<trkpt lat="26.183257" lon="100.158816">
<time>2015-08-06T12:14:44Z</time></trkpt>
<trkpt lat="26.183207" lon="100.158736">
<time>2015-08-06T12:14:45Z</time></trkpt>
<trkpt lat="26.183167" lon="100.158626">
<time>2015-08-06T12:14:46Z</time></trkpt>
<trkpt lat="26.183086" lon="100.158345">
<time>2015-08-06T12:14:47Z</time></trkpt>
<trkpt lat="26.183036" lon="100.158145">
<time>2015-08-06T12:14:48Z</time></trkpt>
<trkpt lat="26.183005" lon="100.158035">
<time>2015-08-06T12:14:49Z</time></trkpt>
<trkpt lat="26.182955" lon="100.157944">
<time>2015-08-06T12:14:50Z</time></trkpt>
<trkpt lat="26.182855" lon="100.157804">
<time>2015-08-06T12:14:51Z</time></trkpt>
<trkpt lat="26.182745" lon="100.157684">
<time>2015-08-06T12:14:52Z</time></trkpt>
<trkpt lat="26.182654" lon="100.157614">
<time>2015-08-06T12:14:53Z</time></trkpt>
<trkpt lat="26.182564" lon="100.157564">
<time>2015-08-06T12:14:54Z</time></trkpt>
<trkpt lat="26.182384" lon="100.157484">
<time>2015-08-06T12:14:55Z</time></trkpt>
<trkpt lat="26.182194" lon="100.157393">
<time>2015-08-06T12:14:56Z</time></trkpt>
<trkpt lat="26.182054" lon="100.157313">
<time>2015-08-06T12:14:57Z</time></trkpt>
<trkpt lat="26.181943" lon="100.157243">
<time>2015-08-06T12:14:58Z</time></trkpt>
<trkpt lat="26.181773" lon="100.157113">
<time>2015-08-06T12:14:59Z</time></trkpt>
<trkpt lat="26.181613" lon="100.156973">
<time>2015-08-06T12:15:00Z</time></trkpt>
<trkpt lat="26.181492" lon="100.156892">
<time>2015-08-06T12:15:01Z</time></trkpt>
<trkpt lat="26.181412" lon="100.156872">
<time>2015-08-06T12:15:02Z</time></trkpt>
<trkpt lat="26.181312" lon="100.156882">
<time>2015-08-06T12:15:03Z</time></trkpt>
<trkpt lat="26.181232" lon="100.156922">
<time>2015-08-06T12:15:04Z</time></trkpt>
<trkpt lat="26.181172" lon="100.156973">
<time>2015-08-06T12:15:05Z</time></trkpt>
<trkpt lat="26.181103" lon="100.157083">
<time>2015-08-06T12:15:06Z</time></trkpt>
<trkpt lat="26.181013" lon="100.157273">
<time>2015-08-06T12:15:07Z</time></trkpt>
<trkpt lat="26.180913" lon="100.157504">
<time>2015-08-06T12:15:08Z</time></trkpt>
<trkpt lat="26.180794" lon="100.157774">
<time>2015-08-06T12:15:09Z</time></trkpt>
<trkpt lat="26.180704" lon="100.157975">
<time>2015-08-06T12:15:10Z</time></trkpt>
<trkpt lat="26.180584" lon="100.158245">
<time>2015-08-06T12:15:11Z</time></trkpt>
<trkpt lat="26.180475" lon="100.158456">
<time>2015-08-06T12:15:12Z</time></trkpt>
<trkpt lat="26.180365" lon="100.158646">
<time>2015-08-06T12:15:13Z</time></trkpt>
<trkpt lat="26.180265" lon="100.158826">
<time>2015-08-06T12:15:14Z</time></trkpt>
<trkpt lat="26.180145" lon="100.159007">
<time>2015-08-06T12:15:15Z</time></trkpt>
<trkpt lat="26.180056" lon="100.159127">
<time>2015-08-06T12:15:16Z</time></trkpt>
<trkpt lat="26.179936" lon="100.159287">
<time>2015-08-06T12:15:17Z</time></trkpt>
<trkpt lat="26.179816" lon="100.159418">
<time>2015-08-06T12:15:18Z</time></trkpt>
<trkpt lat="26.179686" lon="100.159548">
<time>2015-08-06T12:15:19Z</time></trkpt>
<trkpt lat="26.179536" lon="100.159648">
<time>2015-08-06T12:15:20Z</time></trkpt>
<trkpt lat="26.179356" lon="100.159728">
<time>2015-08-06T12:15:21Z</time></trkpt>
<trkpt lat="26.179156" lon="100.159778">
<time>2015-08-06T12:15:22Z</time></trkpt>
<trkpt lat="26.178926" lon="100.159838">
<time>2015-08-06T12:15:23Z</time></trkpt>
<trkpt lat="26.178686" lon="100.159889">
<time>2015-08-06T12:15:24Z</time></trkpt>
<trkpt lat="26.178426" lon="100.159939">
<time>2015-08-06T12:15:25Z</time></trkpt>
<trkpt lat="26.178146" lon="100.160009">
<time>2015-08-06T12:15:26Z</time></trkpt>
<trkpt lat="26.177846" lon="100.160089">
<time>2015-08-06T12:15:27Z</time></trkpt>
<trkpt lat="26.177546" lon="100.160179">
<time>2015-08-06T12:15:28Z</time></trkpt>
<trkpt lat="26.177216" lon="100.160309">
<time>2015-08-06T12:15:29Z</time></trkpt>
<trkpt lat="26.176896" lon="100.16043">
<time>2015-08-06T12:15:30Z</time></trkpt>
<trkpt lat="26.176566" lon="100.16055">
<time>2015-08-06T12:15:31Z</time></trkpt>
<trkpt lat="26.176216" lon="100.16068">
<time>2015-08-06T12:15:32Z</time></trkpt>
<trkpt lat="26.175896" lon="100.160791">
<time>2015-08-06T12:15:33Z</time></trkpt>
<trkpt lat="26.175566" lon="100.160921">
<time>2015-08-06T12:15:34Z</time></trkpt>
<trkpt lat="26.175246" lon="100.161041">
<time>2015-08-06T12:15:35Z</time></trkpt>
<trkpt lat="26.174916" lon="100.161161">
<time>2015-08-06T12:15:36Z</time></trkpt>
<trkpt lat="26.174586" lon="100.161292">
<time>2015-08-06T12:15:37Z</time></trkpt>
<trkpt lat="26.174306" lon="100.161392">
<time>2015-08-06T12:15:38Z</time></trkpt>
<trkpt lat="26.174056" lon="100.161482">
<time>2015-08-06T12:15:39Z</time></trkpt>
<trkpt lat="26.173796" lon="100.161592">
<time>2015-08-06T12:15:40Z</time></trkpt>
<trkpt lat="26.173566" lon="100.161662">
<time>2015-08-06T12:15:41Z</time></trkpt>
<trkpt lat="26.173396" lon="100.161692">
<time>2015-08-06T12:15:42Z</time></trkpt>
<trkpt lat="26.173306" lon="100.161692">
<time>2015-08-06T12:15:43Z</time></trkpt>
<trkpt lat="26.173166" lon="100.161662">
<time>2015-08-06T12:15:44Z</time></trkpt>
<trkpt lat="26.173056" lon="100.161622">
<time>2015-08-06T12:15:45Z</time></trkpt>
<trkpt lat="26.172946" lon="100.161552">
<time>2015-08-06T12:15:46Z</time></trkpt>
<trkpt lat="26.172845" lon="100.161462">
<time>2015-08-06T12:15:47Z</time></trkpt>
<trkpt lat="26.172655" lon="100.161262">
<time>2015-08-06T12:15:48Z</time></trkpt>
<trkpt lat="26.172474" lon="100.161061">
<time>2015-08-06T12:15:49Z</time></trkpt>
<trkpt lat="26.172334" lon="100.160901">
<time>2015-08-06T12:15:50Z</time></trkpt>
<trkpt lat="26.172214" lon="100.160761">
<time>2015-08-06T12:15:51Z</time></trkpt>
<trkpt lat="26.172093" lon="100.16059">
<time>2015-08-06T12:15:52Z</time></trkpt>
<trkpt lat="26.172033" lon="100.16047">
<time>2015-08-06T12:15:53Z</time></trkpt>
<trkpt lat="26.171993" lon="100.16036">
<time>2015-08-06T12:15:54Z</time></trkpt>
<trkpt lat="26.171963" lon="100.160219">
<time>2015-08-06T12:15:55Z</time></trkpt>
<trkpt lat="26.171952" lon="100.160069">
<time>2015-08-06T12:15:56Z</time></trkpt>
<trkpt lat="26.171932" lon="100.159829">
<time>2015-08-06T12:15:57Z</time></trkpt>
<trkpt lat="26.171901" lon="100.159648">
<time>2015-08-06T12:15:58Z</time></trkpt>
<trkpt lat="26.171881" lon="100.159488">
<time>2015-08-06T12:15:59Z</time></trkpt>
<trkpt lat="26.1718" lon="100.159137">
<time>2015-08-06T12:16:00Z</time></trkpt>
<trkpt lat="26.171388" lon="100.157905">
<time>2015-08-06T12:16:01Z</time></trkpt>
<trkpt lat="26.171338" lon="100.157804">
<time>2015-08-06T12:16:02Z</time></trkpt>
<trkpt lat="26.171278" lon="100.157724">
<time>2015-08-06T12:16:03Z</time></trkpt>
<trkpt lat="26.171217" lon="100.157654">
<time>2015-08-06T12:16:04Z</time></trkpt>
<trkpt lat="26.171147" lon="100.157584">
<time>2015-08-06T12:16:05Z</time></trkpt>
<trkpt lat="26.171057" lon="100.157524">
<time>2015-08-06T12:16:06Z</time></trkpt>
<trkpt lat="26.170967" lon="100.157484">
<time>2015-08-06T12:16:07Z</time></trkpt>
<trkpt lat="26.170877" lon="100.157454">
<time>2015-08-06T12:16:08Z</time></trkpt>
<trkpt lat="26.170797" lon="100.157434">
<time>2015-08-06T12:16:09Z</time></trkpt>
<trkpt lat="26.170717" lon="100.157434">
<time>2015-08-06T12:16:10Z</time></trkpt>
<trkpt lat="26.170617" lon="100.157444">
<time>2015-08-06T12:16:11Z</time></trkpt>
<trkpt lat="26.170517" lon="100.157454">
<time>2015-08-06T12:16:12Z</time></trkpt>
<trkpt lat="26.170417" lon="100.157484">
<time>2015-08-06T12:16:13Z</time></trkpt>
<trkpt lat="26.170267" lon="100.157524">
<time>2015-08-06T12:16:14Z</time></trkpt>
<trkpt lat="26.170167" lon="100.157564">
<time>2015-08-06T12:16:15Z</time></trkpt>
<trkpt lat="26.168817" lon="100.158005">
<time>2015-08-06T12:16:16Z</time></trkpt>
<trkpt lat="26.167846" lon="100.158296">
<time>2015-08-06T12:16:17Z</time></trkpt>
<trkpt lat="26.167586" lon="100.158346">
<time>2015-08-06T12:16:18Z</time></trkpt>
<trkpt lat="26.167236" lon="100.158376">
<time>2015-08-06T12:16:19Z</time></trkpt>
<trkpt lat="26.166686" lon="100.158396">
<time>2015-08-06T12:16:20Z</time></trkpt>
<trkpt lat="26.166426" lon="100.158436">
<time>2015-08-06T12:16:21Z</time></trkpt>
<trkpt lat="26.166126" lon="100.158506">
<time>2015-08-06T12:16:22Z</time></trkpt>
<trkpt lat="26.165736" lon="100.158646">
<time>2015-08-06T12:16:23Z</time></trkpt>
<trkpt lat="26.165576" lon="100.158686">
<time>2015-08-06T12:16:24Z</time></trkpt>
<trkpt lat="26.165406" lon="100.158727">
<time>2015-08-06T12:16:25Z</time></trkpt>
<trkpt lat="26.165236" lon="100.158727">
<time>2015-08-06T12:16:26Z</time></trkpt>
<trkpt lat="26.165005" lon="100.158686">
<time>2015-08-06T12:16:27Z</time></trkpt>
<trkpt lat="26.164715" lon="100.158626">
<time>2015-08-06T12:16:28Z</time></trkpt>
<trkpt lat="26.164365" lon="100.158576">
<time>2015-08-06T12:16:29Z</time></trkpt>
<trkpt lat="26.164094" lon="100.158546">
<time>2015-08-06T12:16:30Z</time></trkpt>
<trkpt lat="26.163914" lon="100.158536">
<time>2015-08-06T12:16:31Z</time></trkpt>
<trkpt lat="26.163744" lon="100.158546">
<time>2015-08-06T12:16:32Z</time></trkpt>
<trkpt lat="26.163544" lon="100.158606">
<time>2015-08-06T12:16:33Z</time></trkpt>
<trkpt lat="26.163274" lon="100.158697">
<time>2015-08-06T12:16:34Z</time></trkpt>
<trkpt lat="26.162804" lon="100.158907">
<time>2015-08-06T12:16:35Z</time></trkpt>
<trkpt lat="26.162384" lon="100.159097">
<time>2015-08-06T12:16:36Z</time></trkpt>
<trkpt lat="26.162184" lon="100.159178">
<time>2015-08-06T12:16:37Z</time></trkpt>
<trkpt lat="26.161984" lon="100.159258">
<time>2015-08-06T12:16:38Z</time></trkpt>
<trkpt lat="26.161704" lon="100.159338">
<time>2015-08-06T12:16:39Z</time></trkpt>
<trkpt lat="26.161534" lon="100.159368">
<time>2015-08-06T12:16:40Z</time></trkpt>
<trkpt lat="26.161294" lon="100.159398">
<time>2015-08-06T12:16:41Z</time></trkpt>
<trkpt lat="26.161054" lon="100.159378">
<time>2015-08-06T12:16:42Z</time></trkpt>
<trkpt lat="26.160724" lon="100.159328">
<time>2015-08-06T12:16:43Z</time></trkpt>
<trkpt lat="26.159863" lon="100.159208">
<time>2015-08-06T12:16:44Z</time></trkpt>
<trkpt lat="26.158191" lon="100.158937">
<time>2015-08-06T12:16:45Z</time></trkpt>
<trkpt lat="26.15646" lon="100.158677">
<time>2015-08-06T12:16:46Z</time></trkpt>
<trkpt lat="26.155319" lon="100.158506">
<time>2015-08-06T12:16:47Z</time></trkpt>
<trkpt lat="26.155029" lon="100.158496">
<time>2015-08-06T12:16:48Z</time></trkpt>
<trkpt lat="26.154849" lon="100.158516">
<time>2015-08-06T12:16:49Z</time></trkpt>
<trkpt lat="26.154669" lon="100.158566">
<time>2015-08-06T12:16:50Z</time></trkpt>
<trkpt lat="26.154459" lon="100.158667">
<time>2015-08-06T12:16:51Z</time></trkpt>
<trkpt lat="26.154219" lon="100.158797">
<time>2015-08-06T12:16:52Z</time></trkpt>
<trkpt lat="26.153969" lon="100.158977">
<time>2015-08-06T12:16:53Z</time></trkpt>
<trkpt lat="26.153699" lon="100.159148">
<time>2015-08-06T12:16:54Z</time></trkpt>
<trkpt lat="26.15263" lon="100.159899">
<time>2015-08-06T12:16:55Z</time></trkpt>
<trkpt lat="26.15215" lon="100.1602">
<time>2015-08-06T12:16:56Z</time></trkpt>
<trkpt lat="26.15195" lon="100.16033">
<time>2015-08-06T12:16:57Z</time></trkpt>
<trkpt lat="26.15181" lon="100.16043">
<time>2015-08-06T12:16:58Z</time></trkpt>
<trkpt lat="26.15162" lon="100.160531">
<time>2015-08-06T12:16:59Z</time></trkpt>
<trkpt lat="26.15123" lon="100.160771">
<time>2015-08-06T12:17:00Z</time></trkpt>
<trkpt lat="26.150881" lon="100.161002">
<time>2015-08-06T12:17:01Z</time></trkpt>
<trkpt lat="26.150671" lon="100.161132">
<time>2015-08-06T12:17:02Z</time></trkpt>
<trkpt lat="26.150431" lon="100.161292">
<time>2015-08-06T12:17:03Z</time></trkpt>
<trkpt lat="26.150181" lon="100.161412">
<time>2015-08-06T12:17:04Z</time></trkpt>
<trkpt lat="26.149851" lon="100.161573">
<time>2015-08-06T12:17:05Z</time></trkpt>
<trkpt lat="26.149601" lon="100.161673">
<time>2015-08-06T12:17:06Z</time></trkpt>
<trkpt lat="26.149401" lon="100.161733">
<time>2015-08-06T12:17:07Z</time></trkpt>
<trkpt lat="26.149051" lon="100.161843">
<time>2015-08-06T12:17:08Z</time></trkpt>
<trkpt lat="26.148721" lon="100.161934">
<time>2015-08-06T12:17:09Z</time></trkpt>
<trkpt lat="26.148491" lon="100.162004">
<time>2015-08-06T12:17:10Z</time></trkpt>
<trkpt lat="26.148211" lon="100.162114">
<time>2015-08-06T12:17:11Z</time></trkpt>
<trkpt lat="26.148001" lon="100.162204">
<time>2015-08-06T12:17:12Z</time></trkpt>
<trkpt lat="26.147801" lon="100.162314">
<time>2015-08-06T12:17:13Z</time></trkpt>
<trkpt lat="26.147431" lon="100.162535">
<time>2015-08-06T12:17:14Z</time></trkpt>
<trkpt lat="26.147081" lon="100.162775">
<time>2015-08-06T12:17:15Z</time></trkpt>
<trkpt lat="26.146702" lon="100.163026">
<time>2015-08-06T12:17:16Z</time></trkpt>
<trkpt lat="26.146412" lon="100.163226">
<time>2015-08-06T12:17:17Z</time></trkpt>
<trkpt lat="26.146162" lon="100.163397">
<time>2015-08-06T12:17:18Z</time></trkpt>
<trkpt lat="26.146032" lon="100.163487">
<time>2015-08-06T12:17:19Z</time></trkpt>
<trkpt lat="26.145832" lon="100.163617">
<time>2015-08-06T12:17:20Z</time></trkpt>
<trkpt lat="26.145532" lon="100.163828">
<time>2015-08-06T12:17:21Z</time></trkpt>
<trkpt lat="26.145183" lon="100.164068">
<time>2015-08-06T12:17:22Z</time></trkpt>
<trkpt lat="26.145023" lon="100.164178">
<time>2015-08-06T12:17:23Z</time></trkpt>
<trkpt lat="26.144923" lon="100.164259">
<time>2015-08-06T12:17:24Z</time></trkpt>
<trkpt lat="26.144743" lon="100.164419">
<time>2015-08-06T12:17:25Z</time></trkpt>
<trkpt lat="26.144533" lon="100.164619">
<time>2015-08-06T12:17:26Z</time></trkpt>
<trkpt lat="26.144453" lon="100.1647">
<time>2015-08-06T12:17:27Z</time></trkpt>
<trkpt lat="26.144333" lon="100.16483">
<time>2015-08-06T12:17:28Z</time></trkpt>
<trkpt lat="26.144204" lon="100.16499">
<time>2015-08-06T12:17:29Z</time></trkpt>
<trkpt lat="26.144094" lon="100.16513">
<time>2015-08-06T12:17:30Z</time></trkpt>
<trkpt lat="26.143974" lon="100.165291">
<time>2015-08-06T12:17:31Z</time></trkpt>
<trkpt lat="26.143844" lon="100.165461">
<time>2015-08-06T12:17:32Z</time></trkpt>
<trkpt lat="26.143685" lon="100.165652">
<time>2015-08-06T12:17:33Z</time></trkpt>
<trkpt lat="26.143515" lon="100.165872">
<time>2015-08-06T12:17:34Z</time></trkpt>
<trkpt lat="26.143405" lon="100.166002">
<time>2015-08-06T12:17:35Z</time></trkpt>
<trkpt lat="26.143265" lon="100.166143">
<time>2015-08-06T12:17:36Z</time></trkpt>
<trkpt lat="26.143195" lon="100.166223">
<time>2015-08-06T12:17:37Z</time></trkpt>
<trkpt lat="26.143085" lon="100.166313">
<time>2015-08-06T12:17:38Z</time></trkpt>
<trkpt lat="26.142965" lon="100.166403">
<time>2015-08-06T12:17:39Z</time></trkpt>
<trkpt lat="26.142816" lon="100.166493">
<time>2015-08-06T12:17:40Z</time></trkpt>
<trkpt lat="26.142626" lon="100.166594">
<time>2015-08-06T12:17:41Z</time></trkpt>
<trkpt lat="26.142396" lon="100.166714">
<time>2015-08-06T12:17:42Z</time></trkpt>
<trkpt lat="26.142086" lon="100.166874">
<time>2015-08-06T12:17:43Z</time></trkpt>
<trkpt lat="26.141806" lon="100.167024">
<time>2015-08-06T12:17:44Z</time></trkpt>
<trkpt lat="26.141586" lon="100.167145">
<time>2015-08-06T12:17:45Z</time></trkpt>
<trkpt lat="26.141346" lon="100.167265">
<time>2015-08-06T12:17:46Z</time></trkpt>
<trkpt lat="26.141106" lon="100.167375">
<time>2015-08-06T12:17:47Z</time></trkpt>
<trkpt lat="26.140796" lon="100.167465">
<time>2015-08-06T12:17:48Z</time></trkpt>
<trkpt lat="26.140706" lon="100.167485">
<time>2015-08-06T12:17:49Z</time></trkpt>
<trkpt lat="26.140366" lon="100.167526">
<time>2015-08-06T12:17:50Z</time></trkpt>
<trkpt lat="26.139716" lon="100.167566">
<time>2015-08-06T12:17:51Z</time></trkpt>
<trkpt lat="26.139355" lon="100.167576">
<time>2015-08-06T12:17:52Z</time></trkpt>
<trkpt lat="26.139245" lon="100.167586">
<time>2015-08-06T12:17:53Z</time></trkpt>
<trkpt lat="26.138985" lon="100.167616">
<time>2015-08-06T12:17:54Z</time></trkpt>
<trkpt lat="26.138665" lon="100.167626">
<time>2015-08-06T12:17:55Z</time></trkpt>
<trkpt lat="26.138535" lon="100.167636">
<time>2015-08-06T12:17:56Z</time></trkpt>
<trkpt lat="26.138225" lon="100.167666">
<time>2015-08-06T12:17:57Z</time></trkpt>
<trkpt lat="26.138005" lon="100.167676">
<time>2015-08-06T12:17:58Z</time></trkpt>
<trkpt lat="26.136834" lon="100.167756">
<time>2015-08-06T12:17:59Z</time></trkpt>
<trkpt lat="26.135423" lon="100.167866">
<time>2015-08-06T12:18:00Z</time></trkpt>
<trkpt lat="26.134163" lon="100.167937">
<time>2015-08-06T12:18:01Z</time></trkpt>
<trkpt lat="26.133953" lon="100.167967">
<time>2015-08-06T12:18:02Z</time></trkpt>
<trkpt lat="26.133813" lon="100.168007">
<time>2015-08-06T12:18:03Z</time></trkpt>
<trkpt lat="26.133743" lon="100.168037">
<time>2015-08-06T12:18:04Z</time></trkpt>
<trkpt lat="26.133633" lon="100.168077">
<time>2015-08-06T12:18:05Z</time></trkpt>
<trkpt lat="26.133523" lon="100.168147">
<time>2015-08-06T12:18:06Z</time></trkpt>
<trkpt lat="26.133413" lon="100.168237">
<time>2015-08-06T12:18:07Z</time></trkpt>
<trkpt lat="26.133323" lon="100.168307">
<time>2015-08-06T12:18:08Z</time></trkpt>
<trkpt lat="26.133093" lon="100.168488">
<time>2015-08-06T12:18:09Z</time></trkpt>
<trkpt lat="26.132843" lon="100.168718">
<time>2015-08-06T12:18:10Z</time></trkpt>
<trkpt lat="26.132643" lon="100.168889">
<time>2015-08-06T12:18:11Z</time></trkpt>
<trkpt lat="26.132573" lon="100.168949">
<time>2015-08-06T12:18:12Z</time></trkpt>
<trkpt lat="26.132514" lon="100.169009">
<time>2015-08-06T12:18:13Z</time></trkpt>
<trkpt lat="26.132374" lon="100.169179">
<time>2015-08-06T12:18:14Z</time></trkpt>
<trkpt lat="26.132304" lon="100.169259">
<time>2015-08-06T12:18:15Z</time></trkpt>
<trkpt lat="26.132214" lon="100.16939">
<time>2015-08-06T12:18:16Z</time></trkpt>
<trkpt lat="26.132104" lon="100.16958">
<time>2015-08-06T12:18:17Z</time></trkpt>
<trkpt lat="26.132045" lon="100.16969">
<time>2015-08-06T12:18:18Z</time></trkpt>
<trkpt lat="26.131955" lon="100.169841">
<time>2015-08-06T12:18:19Z</time></trkpt>
<trkpt lat="26.131905" lon="100.169931">
<time>2015-08-06T12:18:20Z</time></trkpt>
<trkpt lat="26.131845" lon="100.170011">
<time>2015-08-06T12:18:21Z</time></trkpt>
<trkpt lat="26.131775" lon="100.170101">
<time>2015-08-06T12:18:22Z</time></trkpt>
<trkpt lat="26.131735" lon="100.170151">
<time>2015-08-06T12:18:23Z</time></trkpt>
<trkpt lat="26.131675" lon="100.170211">
<time>2015-08-06T12:18:24Z</time></trkpt>
<trkpt lat="26.131645" lon="100.170242">
<time>2015-08-06T12:18:25Z</time></trkpt>
<trkpt lat="26.131615" lon="100.170262">
<time>2015-08-06T12:18:26Z</time></trkpt>
<trkpt lat="26.131585" lon="100.170282">
<time>2015-08-06T12:18:27Z</time></trkpt>
<trkpt lat="26.131545" lon="100.170302">
<time>2015-08-06T12:18:28Z</time></trkpt>
<trkpt lat="26.131475" lon="100.170342">
<time>2015-08-06T12:18:29Z</time></trkpt>
<trkpt lat="26.131415" lon="100.170352">
<time>2015-08-06T12:18:30Z</time></trkpt>
<trkpt lat="26.131385" lon="100.170362">
<time>2015-08-06T12:18:31Z</time></trkpt>
<trkpt lat="26.131315" lon="100.170362">
<time>2015-08-06T12:18:32Z</time></trkpt>
<trkpt lat="26.131295" lon="100.170362">
<time>2015-08-06T12:18:33Z</time></trkpt>
<trkpt lat="26.131265" lon="100.170362">
<time>2015-08-06T12:18:34Z</time></trkpt>
<trkpt lat="26.131205" lon="100.170352">
<time>2015-08-06T12:18:35Z</time></trkpt>
<trkpt lat="26.131165" lon="100.170332">
<time>2015-08-06T12:18:36Z</time></trkpt>
<trkpt lat="26.131115" lon="100.170322">
<time>2015-08-06T12:18:37Z</time></trkpt>
<trkpt lat="26.131035" lon="100.170282">
<time>2015-08-06T12:18:38Z</time></trkpt>
<trkpt lat="26.130905" lon="100.170232">
<time>2015-08-06T12:18:39Z</time></trkpt>
<trkpt lat="26.130855" lon="100.170211">
<time>2015-08-06T12:18:40Z</time></trkpt>
<trkpt lat="26.130684" lon="100.170071">
<time>2015-08-06T12:18:41Z</time></trkpt>
<trkpt lat="26.130624" lon="100.170021">
<time>2015-08-06T12:18:42Z</time></trkpt>
<trkpt lat="26.130444" lon="100.169891">
<time>2015-08-06T12:18:43Z</time></trkpt>
<trkpt lat="26.130233" lon="100.16974">
<time>2015-08-06T12:18:44Z</time></trkpt>
<trkpt lat="26.129512" lon="100.169209">
<time>2015-08-06T12:18:45Z</time></trkpt>
<trkpt lat="26.128901" lon="100.168778">
<time>2015-08-06T12:18:46Z</time></trkpt>
<trkpt lat="26.127598" lon="100.167857">
<time>2015-08-06T12:18:47Z</time></trkpt>
<trkpt lat="26.127207" lon="100.167596">
<time>2015-08-06T12:18:48Z</time></trkpt>
<trkpt lat="26.126907" lon="100.167386">
<time>2015-08-06T12:18:49Z</time></trkpt>
<trkpt lat="26.126676" lon="100.167215">
<time>2015-08-06T12:18:50Z</time></trkpt>
<trkpt lat="26.126506" lon="100.167085">
<time>2015-08-06T12:18:51Z</time></trkpt>
<trkpt lat="26.126075" lon="100.166724">
<time>2015-08-06T12:18:52Z</time></trkpt>
<trkpt lat="26.125935" lon="100.166614">
<time>2015-08-06T12:18:53Z</time></trkpt>
<trkpt lat="26.125804" lon="100.166514">
<time>2015-08-06T12:18:54Z</time></trkpt>
<trkpt lat="26.125644" lon="100.166353">
<time>2015-08-06T12:18:55Z</time></trkpt>
<trkpt lat="26.125373" lon="100.166153">
<time>2015-08-06T12:18:56Z</time></trkpt>
<trkpt lat="26.125273" lon="100.166073">
<time>2015-08-06T12:18:57Z</time></trkpt>
<trkpt lat="26.125173" lon="100.165993">
<time>2015-08-06T12:18:58Z</time></trkpt>
<trkpt lat="26.124953" lon="100.165802">
<time>2015-08-06T12:18:59Z</time></trkpt>
<trkpt lat="26.124882" lon="100.165742">
<time>2015-08-06T12:19:00Z</time></trkpt>
<trkpt lat="26.124822" lon="100.165692">
<time>2015-08-06T12:19:01Z</time></trkpt>
<trkpt lat="26.124812" lon="100.165682">
<time>2015-08-06T12:19:02Z</time></trkpt>
<trkpt lat="26.124772" lon="100.165652">
<time>2015-08-06T12:19:03Z</time></trkpt>
<trkpt lat="26.124712" lon="100.165602">
<time>2015-08-06T12:19:04Z</time></trkpt>
<trkpt lat="26.124632" lon="100.165552">
<time>2015-08-06T12:19:05Z</time></trkpt>
<trkpt lat="26.124612" lon="100.165542">
<time>2015-08-06T12:19:06Z</time></trkpt>
<trkpt lat="26.124542" lon="100.165502">
<time>2015-08-06T12:19:07Z</time></trkpt>
<trkpt lat="26.124482" lon="100.165482">
<time>2015-08-06T12:19:08Z</time></trkpt>
<trkpt lat="26.124452" lon="100.165462">
<time>2015-08-06T12:19:09Z</time></trkpt>
<trkpt lat="26.124392" lon="100.165452">
<time>2015-08-06T12:19:10Z</time></trkpt>
<trkpt lat="26.124361" lon="100.165442">
<time>2015-08-06T12:19:11Z</time></trkpt>
<trkpt lat="26.124351" lon="100.165432">
<time>2015-08-06T12:19:12Z</time></trkpt>
<trkpt lat="26.124261" lon="100.165422">
<time>2015-08-06T12:19:13Z</time></trkpt>
<trkpt lat="26.123931" lon="100.165371">
<time>2015-08-06T12:19:14Z</time></trkpt>
<trkpt lat="26.123781" lon="100.165361">
<time>2015-08-06T12:19:15Z</time></trkpt>
<trkpt lat="26.123701" lon="100.165351">
<time>2015-08-06T12:19:16Z</time></trkpt>
<trkpt lat="26.123681" lon="100.165351">
<time>2015-08-06T12:19:17Z</time></trkpt>
<trkpt lat="26.123621" lon="100.165351">
<time>2015-08-06T12:19:18Z</time></trkpt>
<trkpt lat="26.123601" lon="100.165351">
<time>2015-08-06T12:19:19Z</time></trkpt>
<trkpt lat="26.123471" lon="100.165351">
<time>2015-08-06T12:19:20Z</time></trkpt>
<trkpt lat="26.123411" lon="100.165351">
<time>2015-08-06T12:19:21Z</time></trkpt>
<trkpt lat="26.123341" lon="100.165341">
<time>2015-08-06T12:19:22Z</time></trkpt>
<trkpt lat="26.123291" lon="100.165341">
<time>2015-08-06T12:19:23Z</time></trkpt>
<trkpt lat="26.12315" lon="100.165341">
<time>2015-08-06T12:19:24Z</time></trkpt>
<trkpt lat="26.12297" lon="100.165341">
<time>2015-08-06T12:19:25Z</time></trkpt>
<trkpt lat="26.12296" lon="100.165341">
<time>2015-08-06T12:19:26Z</time></trkpt>
<trkpt lat="26.12295" lon="100.165341">
<time>2015-08-06T12:19:27Z</time></trkpt>
<trkpt lat="26.12294" lon="100.165341">
<time>2015-08-06T12:19:28Z</time></trkpt>
<trkpt lat="26.12292" lon="100.165341">
<time>2015-08-06T12:19:29Z</time></trkpt>
<trkpt lat="26.12291" lon="100.165341">
<time>2015-08-06T12:19:30Z</time></trkpt>
<trkpt lat="26.1229" lon="100.165341">
<time>2015-08-06T12:19:31Z</time></trkpt>
<trkpt lat="26.12289" lon="100.165341">
<time>2015-08-06T12:19:32Z</time></trkpt>
<trkpt lat="26.12288" lon="100.165341">
<time>2015-08-06T12:19:33Z</time></trkpt>
<trkpt lat="26.12287" lon="100.165341">
<time>2015-08-06T12:19:34Z</time></trkpt>
<trkpt lat="26.12285" lon="100.165341">
<time>2015-08-06T12:19:35Z</time></trkpt>
<trkpt lat="26.12284" lon="100.165341">
<time>2015-08-06T12:19:36Z</time></trkpt>
<trkpt lat="26.12283" lon="100.165341">
<time>2015-08-06T12:19:37Z</time></trkpt>
<trkpt lat="26.12282" lon="100.165341">
<time>2015-08-06T12:19:38Z</time></trkpt>
<trkpt lat="26.12281" lon="100.165341">
<time>2015-08-06T12:19:39Z</time></trkpt>
<trkpt lat="26.1228" lon="100.165341">
<time>2015-08-06T12:19:40Z</time></trkpt>
<trkpt lat="26.12279" lon="100.165341">
<time>2015-08-06T12:19:41Z</time></trkpt>
<trkpt lat="26.12277" lon="100.165341">
<time>2015-08-06T12:19:42Z</time></trkpt>
<trkpt lat="26.12276" lon="100.165341">
<time>2015-08-06T12:19:43Z</time></trkpt>
<trkpt lat="26.12275" lon="100.165341">
<time>2015-08-06T12:19:44Z</time></trkpt>
<trkpt lat="26.12274" lon="100.165341">
<time>2015-08-06T12:19:45Z</time></trkpt>
<trkpt lat="26.12269" lon="100.165341">
<time>2015-08-06T12:19:46Z</time></trkpt>
<trkpt lat="26.12265" lon="100.165341">
<time>2015-08-06T12:19:47Z</time></trkpt>
<trkpt lat="26.12262" lon="100.165341">
<time>2015-08-06T12:19:48Z</time></trkpt>
<trkpt lat="26.1226" lon="100.165331">
<time>2015-08-06T12:19:49Z</time></trkpt>
<trkpt lat="26.12256" lon="100.165331">
<time>2015-08-06T12:19:50Z</time></trkpt>
<trkpt lat="26.12251" lon="100.165331">
<time>2015-08-06T12:19:51Z</time></trkpt>
<trkpt lat="26.12243" lon="100.165321">
<time>2015-08-06T12:19:52Z</time></trkpt>
<trkpt lat="26.12239" lon="100.165321">
<time>2015-08-06T12:19:53Z</time></trkpt>
<trkpt lat="26.12237" lon="100.165321">
<time>2015-08-06T12:19:54Z</time></trkpt>
<trkpt lat="26.12235" lon="100.165321">
<time>2015-08-06T12:19:55Z</time></trkpt>
<trkpt lat="26.12233" lon="100.165321">
<time>2015-08-06T12:19:56Z</time></trkpt>
<trkpt lat="26.12229" lon="100.165321">
<time>2015-08-06T12:19:57Z</time></trkpt>
<trkpt lat="26.12226" lon="100.165311">
<time>2015-08-06T12:19:58Z</time></trkpt>
<trkpt lat="26.12216" lon="100.165311">
<time>2015-08-06T12:19:59Z</time></trkpt>
<trkpt lat="26.12214" lon="100.165311">
<time>2015-08-06T12:20:00Z</time></trkpt>
<trkpt lat="26.1219" lon="100.165301">
<time>2015-08-06T12:20:01Z</time></trkpt>
<trkpt lat="26.12188" lon="100.165301">
<time>2015-08-06T12:20:02Z</time></trkpt>
<trkpt lat="26.12185" lon="100.165301">
<time>2015-08-06T12:20:03Z</time></trkpt>
<trkpt lat="26.12184" lon="100.165301">
<time>2015-08-06T12:20:04Z</time></trkpt>
<trkpt lat="26.12181" lon="100.165301">
<time>2015-08-06T12:20:05Z</time></trkpt>
<trkpt lat="26.12178" lon="100.165301">
<time>2015-08-06T12:20:06Z</time></trkpt>
<trkpt lat="26.121739" lon="100.165301">
<time>2015-08-06T12:20:07Z</time></trkpt>
<trkpt lat="26.121669" lon="100.165301">
<time>2015-08-06T12:20:08Z</time></trkpt>
<trkpt lat="26.121549" lon="100.165301">
<time>2015-08-06T12:20:09Z</time></trkpt>
<trkpt lat="26.121239" lon="100.165291">
<time>2015-08-06T12:20:10Z</time></trkpt>
<trkpt lat="26.121219" lon="100.165291">
<time>2015-08-06T12:20:11Z</time></trkpt>
<trkpt lat="26.121159" lon="100.165291">
<time>2015-08-06T12:20:12Z</time></trkpt>
<trkpt lat="26.121099" lon="100.165291">
<time>2015-08-06T12:20:13Z</time></trkpt>
<trkpt lat="26.121039" lon="100.165291">
<time>2015-08-06T12:20:14Z</time></trkpt>
<trkpt lat="26.120969" lon="100.165291">
<time>2015-08-06T12:20:15Z</time></trkpt>
<trkpt lat="26.120919" lon="100.165281">
<time>2015-08-06T12:20:16Z</time></trkpt>
<trkpt lat="26.120879" lon="100.165281">
<time>2015-08-06T12:20:17Z</time></trkpt>
<trkpt lat="26.120769" lon="100.165281">
<time>2015-08-06T12:20:18Z</time></trkpt>
<trkpt lat="26.120719" lon="100.165281">
<time>2015-08-06T12:20:19Z</time></trkpt>
<trkpt lat="26.120679" lon="100.165281">
<time>2015-08-06T12:20:20Z</time></trkpt>
<trkpt lat="26.120659" lon="100.165281">
<time>2015-08-06T12:20:21Z</time></trkpt>
<trkpt lat="26.120529" lon="100.165271">
<time>2015-08-06T12:20:22Z</time></trkpt>
<trkpt lat="26.120519" lon="100.165271">
<time>2015-08-06T12:20:23Z</time></trkpt>
<trkpt lat="26.120509" lon="100.165271">
<time>2015-08-06T12:20:24Z</time></trkpt>
<trkpt lat="26.120499" lon="100.165271">
<time>2015-08-06T12:20:25Z</time></trkpt>
<trkpt lat="26.120489" lon="100.165271">
<time>2015-08-06T12:20:26Z</time></trkpt>
<trkpt lat="26.120479" lon="100.165271">
<time>2015-08-06T12:20:27Z</time></trkpt>
<trkpt lat="26.120469" lon="100.165271">
<time>2015-08-06T12:20:28Z</time></trkpt>
<trkpt lat="26.120459" lon="100.165271">
<time>2015-08-06T12:20:29Z</time></trkpt>
<trkpt lat="26.120449" lon="100.165271">
<time>2015-08-06T12:20:30Z</time></trkpt>
<trkpt lat="26.120439" lon="100.165271">
<time>2015-08-06T12:20:31Z</time></trkpt>
<trkpt lat="26.120429" lon="100.165271">
<time>2015-08-06T12:20:32Z</time></trkpt>
<trkpt lat="26.120419" lon="100.165271">
<time>2015-08-06T12:20:33Z</time></trkpt>
<trkpt lat="26.120409" lon="100.165271">
<time>2015-08-06T12:20:34Z</time></trkpt>
<trkpt lat="26.120399" lon="100.165271">
<time>2015-08-06T12:20:35Z</time></trkpt>
<trkpt lat="26.120389" lon="100.165271">
<time>2015-08-06T12:20:36Z</time></trkpt>
<trkpt lat="26.120379" lon="100.165271">
<time>2015-08-06T12:20:37Z</time></trkpt>
<trkpt lat="26.120369" lon="100.165271">
<time>2015-08-06T12:20:38Z</time></trkpt>
<trkpt lat="26.120359" lon="100.165271">
<time>2015-08-06T12:20:39Z</time></trkpt>
<trkpt lat="26.120348" lon="100.165271">
<time>2015-08-06T12:20:40Z</time></trkpt>
<trkpt lat="26.120338" lon="100.165271">
<time>2015-08-06T12:20:41Z</time></trkpt>
<trkpt lat="26.120328" lon="100.165271">
<time>2015-08-06T12:20:42Z</time></trkpt>
<trkpt lat="26.120318" lon="100.165271">
<time>2015-08-06T12:20:43Z</time></trkpt>
<trkpt lat="26.120308" lon="100.165271">
<time>2015-08-06T12:20:44Z</time></trkpt>
<trkpt lat="26.120298" lon="100.165271">
<time>2015-08-06T12:20:45Z</time></trkpt>
<trkpt lat="26.120288" lon="100.165271">
<time>2015-08-06T12:20:46Z</time></trkpt>
<trkpt lat="26.120278" lon="100.165271">
<time>2015-08-06T12:20:47Z</time></trkpt>
<trkpt lat="26.120268" lon="100.165271">
<time>2015-08-06T12:20:48Z</time></trkpt>
<trkpt lat="26.120258" lon="100.165271">
<time>2015-08-06T12:20:49Z</time></trkpt>
<trkpt lat="26.120248" lon="100.165271">
<time>2015-08-06T12:20:50Z</time></trkpt>
<trkpt lat="26.120238" lon="100.165271">
<time>2015-08-06T12:20:51Z</time></trkpt>
<trkpt lat="26.120238" lon="100.165261">
<time>2015-08-06T12:20:52Z</time></trkpt>
<trkpt lat="26.120228" lon="100.165261">
<time>2015-08-06T12:20:53Z</time></trkpt>
<trkpt lat="26.120218" lon="100.165261">
<time>2015-08-06T12:20:54Z</time></trkpt>
<trkpt lat="26.120198" lon="100.165261">
<time>2015-08-06T12:20:55Z</time></trkpt>
<trkpt lat="26.120178" lon="100.165261">
<time>2015-08-06T12:20:56Z</time></trkpt>
<trkpt lat="26.120168" lon="100.165261">
<time>2015-08-06T12:20:57Z</time></trkpt>
<trkpt lat="26.120158" lon="100.165261">
<time>2015-08-06T12:20:58Z</time></trkpt>
<trkpt lat="26.120138" lon="100.165261">
<time>2015-08-06T12:20:59Z</time></trkpt>
<trkpt lat="26.120128" lon="100.165261">
<time>2015-08-06T12:21:00Z</time></trkpt>
<trkpt lat="26.120108" lon="100.165261">
<time>2015-08-06T12:21:01Z</time></trkpt>
<trkpt lat="26.120098" lon="100.165261">
<time>2015-08-06T12:21:02Z</time></trkpt>
<trkpt lat="26.120088" lon="100.165261">
<time>2015-08-06T12:21:03Z</time></trkpt>
<trkpt lat="26.120078" lon="100.165261">
<time>2015-08-06T12:21:04Z</time></trkpt>
<trkpt lat="26.120068" lon="100.165261">
<time>2015-08-06T12:21:05Z</time></trkpt>
<trkpt lat="26.120058" lon="100.165261">
<time>2015-08-06T12:21:06Z</time></trkpt>
<trkpt lat="26.120048" lon="100.165261">
<time>2015-08-06T12:21:07Z</time></trkpt>
<trkpt lat="26.120038" lon="100.165261">
<time>2015-08-06T12:21:08Z</time></trkpt>
<trkpt lat="26.120028" lon="100.165261">
<time>2015-08-06T12:21:09Z</time></trkpt>
<trkpt lat="26.120008" lon="100.165251">
<time>2015-08-06T12:21:10Z</time></trkpt>
<trkpt lat="26.119988" lon="100.165251">
<time>2015-08-06T12:21:11Z</time></trkpt>
<trkpt lat="26.119948" lon="100.165251">
<time>2015-08-06T12:21:12Z</time></trkpt>
<trkpt lat="26.119888" lon="100.165241">
<time>2015-08-06T12:21:13Z</time></trkpt>
<trkpt lat="26.119868" lon="100.165241">
<time>2015-08-06T12:21:14Z</time></trkpt>
<trkpt lat="26.119828" lon="100.165231">
<time>2015-08-06T12:21:15Z</time></trkpt>
<trkpt lat="26.119788" lon="100.165231">
<time>2015-08-06T12:21:16Z</time></trkpt>
<trkpt lat="26.119778" lon="100.165231">
<time>2015-08-06T12:21:17Z</time></trkpt>
<trkpt lat="26.119768" lon="100.165221">
<time>2015-08-06T12:21:18Z</time></trkpt>
<trkpt lat="26.119758" lon="100.165221">
<time>2015-08-06T12:21:19Z</time></trkpt>
<trkpt lat="26.119748" lon="100.165221">
<time>2015-08-06T12:21:20Z</time></trkpt>
<trkpt lat="26.119738" lon="100.165211">
<time>2015-08-06T12:21:21Z</time></trkpt>
<trkpt lat="26.119728" lon="100.165211">
<time>2015-08-06T12:21:22Z</time></trkpt>
<trkpt lat="26.119718" lon="100.165211">
<time>2015-08-06T12:21:23Z</time></trkpt>
<trkpt lat="26.119708" lon="100.165211">
<time>2015-08-06T12:21:24Z</time></trkpt>
<trkpt lat="26.119708" lon="100.165201">
<time>2015-08-06T12:21:25Z</time></trkpt>
<trkpt lat="26.119698" lon="100.165201">
<time>2015-08-06T12:21:26Z</time></trkpt>
<trkpt lat="26.119688" lon="100.165201">
<time>2015-08-06T12:21:27Z</time></trkpt>
<trkpt lat="26.119678" lon="100.165201">
<time>2015-08-06T12:21:28Z</time></trkpt>
<trkpt lat="26.119668" lon="100.165191">
<time>2015-08-06T12:21:29Z</time></trkpt>
<trkpt lat="26.119658" lon="100.165191">
<time>2015-08-06T12:21:30Z</time></trkpt>
<trkpt lat="26.119638" lon="100.165181">
<time>2015-08-06T12:21:31Z</time></trkpt>
<trkpt lat="26.119628" lon="100.165181">
<time>2015-08-06T12:21:32Z</time></trkpt>
<trkpt lat="26.119618" lon="100.165171">
<time>2015-08-06T12:21:33Z</time></trkpt>
<trkpt lat="26.119608" lon="100.165171">
<time>2015-08-06T12:21:34Z</time></trkpt>
<trkpt lat="26.119598" lon="100.165161">
<time>2015-08-06T12:21:35Z</time></trkpt>
<trkpt lat="26.119588" lon="100.165161">
<time>2015-08-06T12:21:36Z</time></trkpt>
<trkpt lat="26.119578" lon="100.165161">
<time>2015-08-06T12:21:37Z</time></trkpt>
<trkpt lat="26.119568" lon="100.165151">
<time>2015-08-06T12:21:38Z</time></trkpt>
<trkpt lat="26.119558" lon="100.165151">
<time>2015-08-06T12:21:39Z</time></trkpt>
<trkpt lat="26.119548" lon="100.165141">
<time>2015-08-06T12:21:40Z</time></trkpt>
<trkpt lat="26.119538" lon="100.165141">
<time>2015-08-06T12:21:41Z</time></trkpt>
<trkpt lat="26.119538" lon="100.165131">
<time>2015-08-06T12:21:42Z</time></trkpt>
<trkpt lat="26.119528" lon="100.165131">
<time>2015-08-06T12:21:43Z</time></trkpt>
<trkpt lat="26.119518" lon="100.165131">
<time>2015-08-06T12:21:44Z</time></trkpt>
<trkpt lat="26.119518" lon="100.165121">
<time>2015-08-06T12:21:45Z</time></trkpt>
<trkpt lat="26.119508" lon="100.165121">
<time>2015-08-06T12:21:46Z</time></trkpt>
<trkpt lat="26.119498" lon="100.165111">
<time>2015-08-06T12:21:47Z</time></trkpt>
<trkpt lat="26.119488" lon="100.165111">
<time>2015-08-06T12:21:48Z</time></trkpt>
<trkpt lat="26.119478" lon="100.165101">
<time>2015-08-06T12:21:49Z</time></trkpt>
<trkpt lat="26.119468" lon="100.165101">
<time>2015-08-06T12:21:50Z</time></trkpt>
<trkpt lat="26.119468" lon="100.165091">
<time>2015-08-06T12:21:51Z</time></trkpt>
<trkpt lat="26.119458" lon="100.165091">
<time>2015-08-06T12:21:52Z</time></trkpt>
<trkpt lat="26.119448" lon="100.165091">
<time>2015-08-06T12:21:53Z</time></trkpt>
<trkpt lat="26.119448" lon="100.165081">
<time>2015-08-06T12:21:54Z</time></trkpt>
<trkpt lat="26.119438" lon="100.165071">
<time>2015-08-06T12:21:55Z</time></trkpt>
<trkpt lat="26.119428" lon="100.165071">
<time>2015-08-06T12:21:56Z</time></trkpt>
<trkpt lat="26.119417" lon="100.165061">
<time>2015-08-06T12:21:57Z</time></trkpt>
<trkpt lat="26.119407" lon="100.165061">
<time>2015-08-06T12:21:58Z</time></trkpt>
<trkpt lat="26.119397" lon="100.165051">
<time>2015-08-06T12:21:59Z</time></trkpt>
<trkpt lat="26.119387" lon="100.165041">
<time>2015-08-06T12:22:00Z</time></trkpt>
<trkpt lat="26.119377" lon="100.165031">
<time>2015-08-06T12:22:01Z</time></trkpt>
<trkpt lat="26.119367" lon="100.165031">
<time>2015-08-06T12:22:02Z</time></trkpt>
<trkpt lat="26.119367" lon="100.165021">
<time>2015-08-06T12:22:03Z</time></trkpt>
<trkpt lat="26.119357" lon="100.165021">
<time>2015-08-06T12:22:04Z</time></trkpt>
<trkpt lat="26.119347" lon="100.165011">
<time>2015-08-06T12:22:05Z</time></trkpt>
<trkpt lat="26.119337" lon="100.165001">
<time>2015-08-06T12:22:06Z</time></trkpt>
<trkpt lat="26.119327" lon="100.165001">
<time>2015-08-06T12:22:07Z</time></trkpt>
<trkpt lat="26.119317" lon="100.164991">
<time>2015-08-06T12:22:08Z</time></trkpt>
<trkpt lat="26.119317" lon="100.164981">
<time>2015-08-06T12:22:09Z</time></trkpt>
<trkpt lat="26.119307" lon="100.164981">
<time>2015-08-06T12:22:10Z</time></trkpt>
<trkpt lat="26.119297" lon="100.164971">
<time>2015-08-06T12:22:11Z</time></trkpt>
<trkpt lat="26.119297" lon="100.164961">
<time>2015-08-06T12:22:12Z</time></trkpt>
<trkpt lat="26.119287" lon="100.164961">
<time>2015-08-06T12:22:13Z</time></trkpt>
<trkpt lat="26.119277" lon="100.164951">
<time>2015-08-06T12:22:14Z</time></trkpt>
<trkpt lat="26.119267" lon="100.164941">
<time>2015-08-06T12:22:15Z</time></trkpt>
<trkpt lat="26.119267" lon="100.164931">
<time>2015-08-06T12:22:16Z</time></trkpt>
<trkpt lat="26.119257" lon="100.164931">
<time>2015-08-06T12:22:17Z</time></trkpt>
<trkpt lat="26.119257" lon="100.164921">
<time>2015-08-06T12:22:18Z</time></trkpt>
<trkpt lat="26.119237" lon="100.164911">
<time>2015-08-06T12:22:19Z</time></trkpt>
<trkpt lat="26.119137" lon="100.1648">
<time>2015-08-06T12:22:20Z</time></trkpt>
<trkpt lat="26.119087" lon="100.16475">
<time>2015-08-06T12:22:21Z</time></trkpt>
<trkpt lat="26.119047" lon="100.16471">
<time>2015-08-06T12:22:22Z</time></trkpt>
<trkpt lat="26.118916" lon="100.16455">
<time>2015-08-06T12:22:23Z</time></trkpt>
<trkpt lat="26.118856" lon="100.16449">
<time>2015-08-06T12:22:24Z</time></trkpt>
<trkpt lat="26.118756" lon="100.164369">
<time>2015-08-06T12:22:25Z</time></trkpt>
<trkpt lat="26.118736" lon="100.164339">
<time>2015-08-06T12:22:26Z</time></trkpt>
<trkpt lat="26.118676" lon="100.164269">
<time>2015-08-06T12:22:27Z</time></trkpt>
<trkpt lat="26.118595" lon="100.164169">
<time>2015-08-06T12:22:28Z</time></trkpt>
<trkpt lat="26.118565" lon="100.164129">
<time>2015-08-06T12:22:29Z</time></trkpt>
<trkpt lat="26.118465" lon="100.164019">
<time>2015-08-06T12:22:30Z</time></trkpt>
<trkpt lat="26.118355" lon="100.163888">
<time>2015-08-06T12:22:31Z</time></trkpt>
<trkpt lat="26.118314" lon="100.163838">
<time>2015-08-06T12:22:32Z</time></trkpt>
<trkpt lat="26.118274" lon="100.163798">
<time>2015-08-06T12:22:33Z</time></trkpt>
<trkpt lat="26.118244" lon="100.163768">
<time>2015-08-06T12:22:34Z</time></trkpt>
<trkpt lat="26.118164" lon="100.163688">
<time>2015-08-06T12:22:35Z</time></trkpt>
<trkpt lat="26.118104" lon="100.163628">
<time>2015-08-06T12:22:36Z</time></trkpt>
<trkpt lat="26.118094" lon="100.163628">
<time>2015-08-06T12:22:37Z</time></trkpt>
<trkpt lat="26.118034" lon="100.163568">
<time>2015-08-06T12:22:38Z</time></trkpt>
<trkpt lat="26.117974" lon="100.163518">
<time>2015-08-06T12:22:39Z</time></trkpt>
<trkpt lat="26.117893" lon="100.163448">
<time>2015-08-06T12:22:40Z</time></trkpt>
<trkpt lat="26.117853" lon="100.163407">
<time>2015-08-06T12:22:41Z</time></trkpt>
<trkpt lat="26.117803" lon="100.163377">
<time>2015-08-06T12:22:42Z</time></trkpt>
<trkpt lat="26.117773" lon="100.163357">
<time>2015-08-06T12:22:43Z</time></trkpt>
<trkpt lat="26.117703" lon="100.163307">
<time>2015-08-06T12:22:44Z</time></trkpt>
<trkpt lat="26.117653" lon="100.163277">
<time>2015-08-06T12:22:45Z</time></trkpt>
<trkpt lat="26.117553" lon="100.163217">
<time>2015-08-06T12:22:46Z</time></trkpt>
<trkpt lat="26.117463" lon="100.163167">
<time>2015-08-06T12:22:47Z</time></trkpt>
<trkpt lat="26.117383" lon="100.163127">
<time>2015-08-06T12:22:48Z</time></trkpt>
<trkpt lat="26.117322" lon="100.163097">
<time>2015-08-06T12:22:49Z</time></trkpt>
<trkpt lat="26.117292" lon="100.163077">
<time>2015-08-06T12:22:50Z</time></trkpt>
<trkpt lat="26.117212" lon="100.163047">
<time>2015-08-06T12:22:51Z</time></trkpt>
<trkpt lat="26.117102" lon="100.163007">
<time>2015-08-06T12:22:52Z</time></trkpt>
<trkpt lat="26.117042" lon="100.162987">
<time>2015-08-06T12:22:53Z</time></trkpt>
<trkpt lat="26.116982" lon="100.162967">
<time>2015-08-06T12:22:54Z</time></trkpt>
<trkpt lat="26.116882" lon="100.162937">
<time>2015-08-06T12:22:55Z</time></trkpt>
<trkpt lat="26.116782" lon="100.162906">
<time>2015-08-06T12:22:56Z</time></trkpt>
<trkpt lat="26.116732" lon="100.162886">
<time>2015-08-06T12:22:57Z</time></trkpt>
<trkpt lat="26.116672" lon="100.162866">
<time>2015-08-06T12:22:58Z</time></trkpt>
<trkpt lat="26.116581" lon="100.162836">
<time>2015-08-06T12:22:59Z</time></trkpt>
<trkpt lat="26.116511" lon="100.162816">
<time>2015-08-06T12:23:00Z</time></trkpt>
<trkpt lat="26.116481" lon="100.162806">
<time>2015-08-06T12:23:01Z</time></trkpt>
<trkpt lat="26.116421" lon="100.162786">
<time>2015-08-06T12:23:02Z</time></trkpt>
<trkpt lat="26.116001" lon="100.162666">
<time>2015-08-06T12:23:03Z</time></trkpt>
<trkpt lat="26.115851" lon="100.162626">
<time>2015-08-06T12:23:04Z</time></trkpt>
<trkpt lat="26.115811" lon="100.162616">
<time>2015-08-06T12:23:05Z</time></trkpt>
<trkpt lat="26.11572" lon="100.162576">
<time>2015-08-06T12:23:06Z</time></trkpt>
<trkpt lat="26.11562" lon="100.162546">
<time>2015-08-06T12:23:07Z</time></trkpt>
<trkpt lat="26.1155" lon="100.162506">
<time>2015-08-06T12:23:08Z</time></trkpt>
<trkpt lat="26.11536" lon="100.162466">
<time>2015-08-06T12:23:09Z</time></trkpt>
<trkpt lat="26.11517" lon="100.162405">
<time>2015-08-06T12:23:10Z</time></trkpt>
<trkpt lat="26.114999" lon="100.162355">
<time>2015-08-06T12:23:11Z</time></trkpt>
<trkpt lat="26.114909" lon="100.162325">
<time>2015-08-06T12:23:12Z</time></trkpt>
<trkpt lat="26.114829" lon="100.162295">
<time>2015-08-06T12:23:13Z</time></trkpt>
<trkpt lat="26.114749" lon="100.162255">
<time>2015-08-06T12:23:14Z</time></trkpt>
<trkpt lat="26.114689" lon="100.162225">
<time>2015-08-06T12:23:15Z</time></trkpt>
<trkpt lat="26.114649" lon="100.162195">
<time>2015-08-06T12:23:16Z</time></trkpt>
<trkpt lat="26.114579" lon="100.162145">
<time>2015-08-06T12:23:17Z</time></trkpt>
<trkpt lat="26.114469" lon="100.162055">
<time>2015-08-06T12:23:18Z</time></trkpt>
<trkpt lat="26.114378" lon="100.161955">
<time>2015-08-06T12:23:19Z</time></trkpt>
<trkpt lat="26.114278" lon="100.161804">
<time>2015-08-06T12:23:20Z</time></trkpt>
<trkpt lat="26.114158" lon="100.161624">
<time>2015-08-06T12:23:21Z</time></trkpt>
<trkpt lat="26.113927" lon="100.161253">
<time>2015-08-06T12:23:22Z</time></trkpt>
<trkpt lat="26.113846" lon="100.161113">
<time>2015-08-06T12:23:23Z</time></trkpt>
<trkpt lat="26.113676" lon="100.160882">
<time>2015-08-06T12:23:24Z</time></trkpt>
<trkpt lat="26.113606" lon="100.160812">
<time>2015-08-06T12:23:25Z</time></trkpt>
<trkpt lat="26.113546" lon="100.160762">
<time>2015-08-06T12:23:26Z</time></trkpt>
<trkpt lat="26.113485" lon="100.160732">
<time>2015-08-06T12:23:27Z</time></trkpt>
<trkpt lat="26.113405" lon="100.160692">
<time>2015-08-06T12:23:28Z</time></trkpt>
<trkpt lat="26.113315" lon="100.160662">
<time>2015-08-06T12:23:29Z</time></trkpt>
<trkpt lat="26.113235" lon="100.160642">
<time>2015-08-06T12:23:30Z</time></trkpt>
<trkpt lat="26.113145" lon="100.160642">
<time>2015-08-06T12:23:31Z</time></trkpt>
<trkpt lat="26.113065" lon="100.160652">
<time>2015-08-06T12:23:32Z</time></trkpt>
<trkpt lat="26.112985" lon="100.160672">
<time>2015-08-06T12:23:33Z</time></trkpt>
<trkpt lat="26.112925" lon="100.160692">
<time>2015-08-06T12:23:34Z</time></trkpt>
<trkpt lat="26.112835" lon="100.160732">
<time>2015-08-06T12:23:35Z</time></trkpt>
<trkpt lat="26.112775" lon="100.160782">
<time>2015-08-06T12:23:36Z</time></trkpt>
<trkpt lat="26.112685" lon="100.160862">
<time>2015-08-06T12:23:37Z</time></trkpt>
<trkpt lat="26.112625" lon="100.160932">
<time>2015-08-06T12:23:38Z</time></trkpt>
<trkpt lat="26.112575" lon="100.161033">
<time>2015-08-06T12:23:39Z</time></trkpt>
<trkpt lat="26.112536" lon="100.161113">
<time>2015-08-06T12:23:40Z</time></trkpt>
<trkpt lat="26.112506" lon="100.161203">
<time>2015-08-06T12:23:41Z</time></trkpt>
<trkpt lat="26.112426" lon="100.161504">
<time>2015-08-06T12:23:42Z</time></trkpt>
<trkpt lat="26.112376" lon="100.161654">
<time>2015-08-06T12:23:43Z</time></trkpt>
<trkpt lat="26.112327" lon="100.161804">
<time>2015-08-06T12:23:44Z</time></trkpt>
<trkpt lat="26.112227" lon="100.161985">
<time>2015-08-06T12:23:45Z</time></trkpt>
<trkpt lat="26.112157" lon="100.162105">
<time>2015-08-06T12:23:46Z</time></trkpt>
<trkpt lat="26.111997" lon="100.162345">
<time>2015-08-06T12:23:47Z</time></trkpt>
<trkpt lat="26.111838" lon="100.162556">
<time>2015-08-06T12:23:48Z</time></trkpt>
<trkpt lat="26.111658" lon="100.162786">
<time>2015-08-06T12:23:49Z</time></trkpt>
<trkpt lat="26.111498" lon="100.163017">
<time>2015-08-06T12:23:50Z</time></trkpt>
<trkpt lat="26.111459" lon="100.163097">
<time>2015-08-06T12:23:51Z</time></trkpt>
<trkpt lat="26.111409" lon="100.163187">
<time>2015-08-06T12:23:52Z</time></trkpt>
<trkpt lat="26.111369" lon="100.163287">
<time>2015-08-06T12:23:53Z</time></trkpt>
<trkpt lat="26.111349" lon="100.163378">
<time>2015-08-06T12:23:54Z</time></trkpt>
<trkpt lat="26.111329" lon="100.163488">
<time>2015-08-06T12:23:55Z</time></trkpt>
<trkpt lat="26.111319" lon="100.163638">
<time>2015-08-06T12:23:56Z</time></trkpt>
<trkpt lat="26.11132" lon="100.163798">
<time>2015-08-06T12:23:57Z</time></trkpt>
<trkpt lat="26.11132" lon="100.163919">
<time>2015-08-06T12:23:58Z</time></trkpt>
<trkpt lat="26.11133" lon="100.164029">
<time>2015-08-06T12:23:59Z</time></trkpt>
<trkpt lat="26.111341" lon="100.164279">
<time>2015-08-06T12:24:00Z</time></trkpt>
<trkpt lat="26.111361" lon="100.16463">
<time>2015-08-06T12:24:01Z</time></trkpt>
<trkpt lat="26.111382" lon="100.164981">
<time>2015-08-06T12:24:02Z</time></trkpt>
<trkpt lat="26.111413" lon="100.165452">
<time>2015-08-06T12:24:03Z</time></trkpt>
<trkpt lat="26.111433" lon="100.165763">
<time>2015-08-06T12:24:04Z</time></trkpt>
<trkpt lat="26.111464" lon="100.166234">
<time>2015-08-06T12:24:05Z</time></trkpt>
<trkpt lat="26.111485" lon="100.166524">
<time>2015-08-06T12:24:06Z</time></trkpt>
<trkpt lat="26.111495" lon="100.166735">
<time>2015-08-06T12:24:07Z</time></trkpt>
<trkpt lat="26.111506" lon="100.166825">
<time>2015-08-06T12:24:08Z</time></trkpt>
<trkpt lat="26.111496" lon="100.166895">
<time>2015-08-06T12:24:09Z</time></trkpt>
<trkpt lat="26.111486" lon="100.167035">
<time>2015-08-06T12:24:10Z</time></trkpt>
<trkpt lat="26.111466" lon="100.167156">
<time>2015-08-06T12:24:11Z</time></trkpt>
<trkpt lat="26.111446" lon="100.167236">
<time>2015-08-06T12:24:12Z</time></trkpt>
<trkpt lat="26.111406" lon="100.167336">
<time>2015-08-06T12:24:13Z</time></trkpt>
<trkpt lat="26.111357" lon="100.167436">
<time>2015-08-06T12:24:14Z</time></trkpt>
<trkpt lat="26.111307" lon="100.167506">
<time>2015-08-06T12:24:15Z</time></trkpt>
<trkpt lat="26.111237" lon="100.167606">
<time>2015-08-06T12:24:16Z</time></trkpt>
<trkpt lat="26.111147" lon="100.167697">
<time>2015-08-06T12:24:17Z</time></trkpt>
<trkpt lat="26.111067" lon="100.167757">
<time>2015-08-06T12:24:18Z</time></trkpt>
<trkpt lat="26.111007" lon="100.167797">
<time>2015-08-06T12:24:19Z</time></trkpt>
<trkpt lat="26.110917" lon="100.167847">
<time>2015-08-06T12:24:20Z</time></trkpt>
<trkpt lat="26.110737" lon="100.167927">
<time>2015-08-06T12:24:21Z</time></trkpt>
<trkpt lat="26.110357" lon="100.168088">
<time>2015-08-06T12:24:22Z</time></trkpt>
<trkpt lat="26.107297" lon="100.16932">
<time>2015-08-06T12:24:23Z</time></trkpt>
<trkpt lat="26.107067" lon="100.1694">
<time>2015-08-06T12:24:24Z</time></trkpt>
<trkpt lat="26.106897" lon="100.169471">
<time>2015-08-06T12:24:25Z</time></trkpt>
<trkpt lat="26.106817" lon="100.169511">
<time>2015-08-06T12:24:26Z</time></trkpt>
<trkpt lat="26.106687" lon="100.169571">
<time>2015-08-06T12:24:27Z</time></trkpt>
<trkpt lat="26.106578" lon="100.169641">
<time>2015-08-06T12:24:28Z</time></trkpt>
<trkpt lat="26.106418" lon="100.169731">
<time>2015-08-06T12:24:29Z</time></trkpt>
<trkpt lat="26.106128" lon="100.169962">
<time>2015-08-06T12:24:30Z</time></trkpt>
<trkpt lat="26.10411" lon="100.171685">
<time>2015-08-06T12:24:31Z</time></trkpt>
<trkpt lat="26.10398" lon="100.171796">
<time>2015-08-06T12:24:32Z</time></trkpt>
<trkpt lat="26.10382" lon="100.171926">
<time>2015-08-06T12:24:33Z</time></trkpt>
<trkpt lat="26.10372" lon="100.172006">
<time>2015-08-06T12:24:34Z</time></trkpt>
<trkpt lat="26.10362" lon="100.172066">
<time>2015-08-06T12:24:35Z</time></trkpt>
<trkpt lat="26.10352" lon="100.172126">
<time>2015-08-06T12:24:36Z</time></trkpt>
<trkpt lat="26.10345" lon="100.172156">
<time>2015-08-06T12:24:37Z</time></trkpt>
<trkpt lat="26.10337" lon="100.172186">
<time>2015-08-06T12:24:38Z</time></trkpt>
<trkpt lat="26.10332" lon="100.172206">
<time>2015-08-06T12:24:39Z</time></trkpt>
<trkpt lat="26.10317" lon="100.172246">
<time>2015-08-06T12:24:40Z</time></trkpt>
<trkpt lat="26.10308" lon="100.172256">
<time>2015-08-06T12:24:41Z</time></trkpt>
<trkpt lat="26.10307" lon="100.172256">
<time>2015-08-06T12:24:42Z</time></trkpt>
<trkpt lat="26.10299" lon="100.172267">
<time>2015-08-06T12:24:43Z</time></trkpt>
<trkpt lat="26.1029" lon="100.172267">
<time>2015-08-06T12:24:44Z</time></trkpt>
<trkpt lat="26.10281" lon="100.172267">
<time>2015-08-06T12:24:45Z</time></trkpt>
<trkpt lat="26.10266" lon="100.172257">
<time>2015-08-06T12:24:46Z</time></trkpt>
<trkpt lat="26.10254" lon="100.172236">
<time>2015-08-06T12:24:47Z</time></trkpt>
<trkpt lat="26.10233" lon="100.172216">
<time>2015-08-06T12:24:48Z</time></trkpt>
<trkpt lat="26.099677" lon="100.171766">
<time>2015-08-06T12:24:49Z</time></trkpt>
<trkpt lat="26.099617" lon="100.171746">
<time>2015-08-06T12:24:50Z</time></trkpt>
<trkpt lat="26.099317" lon="100.171695">
<time>2015-08-06T12:24:51Z</time></trkpt>
<trkpt lat="26.099206" lon="100.171665">
<time>2015-08-06T12:24:52Z</time></trkpt>
<trkpt lat="26.099106" lon="100.171635">
<time>2015-08-06T12:24:53Z</time></trkpt>
<trkpt lat="26.099016" lon="100.171605">
<time>2015-08-06T12:24:54Z</time></trkpt>
<trkpt lat="26.098876" lon="100.171545">
<time>2015-08-06T12:24:55Z</time></trkpt>
<trkpt lat="26.098806" lon="100.171495">
<time>2015-08-06T12:24:56Z</time></trkpt>
<trkpt lat="26.098726" lon="100.171455">
<time>2015-08-06T12:24:57Z</time></trkpt>
<trkpt lat="26.098646" lon="100.171405">
<time>2015-08-06T12:24:58Z</time></trkpt>
<trkpt lat="26.098445" lon="100.171234">
<time>2015-08-06T12:24:59Z</time></trkpt>
<trkpt lat="26.096471" lon="100.169621">
<time>2015-08-06T12:25:00Z</time></trkpt>
<trkpt lat="26.096441" lon="100.169601">
<time>2015-08-06T12:25:01Z</time></trkpt>
<trkpt lat="26.09632" lon="100.169511">
<time>2015-08-06T12:25:02Z</time></trkpt>
<trkpt lat="26.09624" lon="100.169451">
<time>2015-08-06T12:25:03Z</time></trkpt>
<trkpt lat="26.09613" lon="100.169381">
<time>2015-08-06T12:25:04Z</time></trkpt>
<trkpt lat="26.09606" lon="100.16933">
<time>2015-08-06T12:25:05Z</time></trkpt>
<trkpt lat="26.096" lon="100.16929">
<time>2015-08-06T12:25:06Z</time></trkpt>
<trkpt lat="26.095138" lon="100.168779">
<time>2015-08-06T12:25:07Z</time></trkpt>
<trkpt lat="26.093946" lon="100.168068">
<time>2015-08-06T12:25:08Z</time></trkpt>
<trkpt lat="26.092964" lon="100.167497">
<time>2015-08-06T12:25:09Z</time></trkpt>
<trkpt lat="26.092113" lon="100.166986">
<time>2015-08-06T12:25:10Z</time></trkpt>
<trkpt lat="26.092083" lon="100.166966">
<time>2015-08-06T12:25:11Z</time></trkpt>
<trkpt lat="26.092043" lon="100.166936">
<time>2015-08-06T12:25:12Z</time></trkpt>
<trkpt lat="26.092013" lon="100.166926">
<time>2015-08-06T12:25:13Z</time></trkpt>
<trkpt lat="26.091983" lon="100.166895">
<time>2015-08-06T12:25:14Z</time></trkpt>
<trkpt lat="26.091842" lon="100.166805">
<time>2015-08-06T12:25:15Z</time></trkpt>
<trkpt lat="26.091702" lon="100.166685">
<time>2015-08-06T12:25:16Z</time></trkpt>
<trkpt lat="26.091612" lon="100.166585">
<time>2015-08-06T12:25:17Z</time></trkpt>
<trkpt lat="26.091511" lon="100.166445">
<time>2015-08-06T12:25:18Z</time></trkpt>
<trkpt lat="26.091311" lon="100.166094">
<time>2015-08-06T12:25:19Z</time></trkpt>
<trkpt lat="26.090798" lon="100.165142">
<time>2015-08-06T12:25:20Z</time></trkpt>
<trkpt lat="26.090567" lon="100.164721">
<time>2015-08-06T12:25:21Z</time></trkpt>
<trkpt lat="26.090457" lon="100.164531">
<time>2015-08-06T12:25:22Z</time></trkpt>
<trkpt lat="26.090337" lon="100.16436">
<time>2015-08-06T12:25:23Z</time></trkpt>
<trkpt lat="26.090276" lon="100.16428">
<time>2015-08-06T12:25:24Z</time></trkpt>
<trkpt lat="26.090156" lon="100.16414">
<time>2015-08-06T12:25:25Z</time></trkpt>
<trkpt lat="26.090036" lon="100.164029">
<time>2015-08-06T12:25:26Z</time></trkpt>
<trkpt lat="26.089875" lon="100.163899">
<time>2015-08-06T12:25:27Z</time></trkpt>
<trkpt lat="26.089645" lon="100.163759">
<time>2015-08-06T12:25:28Z</time></trkpt>
<trkpt lat="26.089154" lon="100.163478">
<time>2015-08-06T12:25:29Z</time></trkpt>
<trkpt lat="26.088974" lon="100.163358">
<time>2015-08-06T12:25:30Z</time></trkpt>
<trkpt lat="26.088383" lon="100.162967">
<time>2015-08-06T12:25:31Z</time></trkpt>
<trkpt lat="26.085998" lon="100.161544">
<time>2015-08-06T12:25:32Z</time></trkpt>
<trkpt lat="26.085508" lon="100.161234">
<time>2015-08-06T12:25:33Z</time></trkpt>
<trkpt lat="26.084676" lon="100.160602">
<time>2015-08-06T12:25:34Z</time></trkpt>
<trkpt lat="26.084385" lon="100.160412">
<time>2015-08-06T12:25:35Z</time></trkpt>
<trkpt lat="26.084195" lon="100.160322">
<time>2015-08-06T12:25:36Z</time></trkpt>
<trkpt lat="26.083764" lon="100.160152">
<time>2015-08-06T12:25:37Z</time></trkpt>
<trkpt lat="26.083524" lon="100.160081">
<time>2015-08-06T12:25:38Z</time></trkpt>
<trkpt lat="26.083354" lon="100.160021">
<time>2015-08-06T12:25:39Z</time></trkpt>
<trkpt lat="26.083224" lon="100.159981">
<time>2015-08-06T12:25:40Z</time></trkpt>
<trkpt lat="26.083114" lon="100.159941">
<time>2015-08-06T12:25:41Z</time></trkpt>
<trkpt lat="26.082943" lon="100.159871">
<time>2015-08-06T12:25:42Z</time></trkpt>
<trkpt lat="26.082863" lon="100.159831">
<time>2015-08-06T12:25:43Z</time></trkpt>
<trkpt lat="26.082723" lon="100.159761">
<time>2015-08-06T12:25:44Z</time></trkpt>
<trkpt lat="26.082583" lon="100.159671">
<time>2015-08-06T12:25:45Z</time></trkpt>
<trkpt lat="26.08121" lon="100.158699">
<time>2015-08-06T12:25:46Z</time></trkpt>
<trkpt lat="26.080879" lon="100.158468">
<time>2015-08-06T12:25:47Z</time></trkpt>
<trkpt lat="26.080649" lon="100.158328">
<time>2015-08-06T12:25:48Z</time></trkpt>
<trkpt lat="26.080419" lon="100.158228">
<time>2015-08-06T12:25:49Z</time></trkpt>
<trkpt lat="26.079227" lon="100.157797">
<time>2015-08-06T12:25:50Z</time></trkpt>
<trkpt lat="26.079067" lon="100.157727">
<time>2015-08-06T12:25:51Z</time></trkpt>
<trkpt lat="26.078967" lon="100.157667">
<time>2015-08-06T12:25:52Z</time></trkpt>
<trkpt lat="26.078886" lon="100.157596">
<time>2015-08-06T12:25:53Z</time></trkpt>
<trkpt lat="26.078786" lon="100.157476">
<time>2015-08-06T12:25:54Z</time></trkpt>
<trkpt lat="26.078736" lon="100.157386">
<time>2015-08-06T12:25:55Z</time></trkpt>
<trkpt lat="26.078686" lon="100.157266">
<time>2015-08-06T12:25:56Z</time></trkpt>
<trkpt lat="26.078665" lon="100.157105">
<time>2015-08-06T12:25:57Z</time></trkpt>
<trkpt lat="26.078665" lon="100.156985">
<time>2015-08-06T12:25:58Z</time></trkpt>
<trkpt lat="26.078695" lon="100.156835">
<time>2015-08-06T12:25:59Z</time></trkpt>
<trkpt lat="26.079492" lon="100.154881">
<time>2015-08-06T12:26:00Z</time></trkpt>
<trkpt lat="26.079512" lon="100.154711">
<time>2015-08-06T12:26:01Z</time></trkpt>
<trkpt lat="26.079501" lon="100.15458">
<time>2015-08-06T12:26:02Z</time></trkpt>
<trkpt lat="26.079461" lon="100.15443">
<time>2015-08-06T12:26:03Z</time></trkpt>
<trkpt lat="26.079411" lon="100.15431">
<time>2015-08-06T12:26:04Z</time></trkpt>
<trkpt lat="26.079351" lon="100.15422">
<time>2015-08-06T12:26:05Z</time></trkpt>
<trkpt lat="26.075381" lon="100.150352">
<time>2015-08-06T12:26:06Z</time></trkpt>
<trkpt lat="26.07491" lon="100.149731">
<time>2015-08-06T12:26:07Z</time></trkpt>
<trkpt lat="26.073856" lon="100.147917">
<time>2015-08-06T12:26:08Z</time></trkpt>
<trkpt lat="26.073725" lon="100.147497">
<time>2015-08-06T12:26:09Z</time></trkpt>
<trkpt lat="26.073694" lon="100.146986">
<time>2015-08-06T12:26:10Z</time></trkpt>
<trkpt lat="26.073702" lon="100.145693">
<time>2015-08-06T12:26:11Z</time></trkpt>
<trkpt lat="26.073682" lon="100.145413">
<time>2015-08-06T12:26:12Z</time></trkpt>
<trkpt lat="26.073621" lon="100.145192">
<time>2015-08-06T12:26:13Z</time></trkpt>
<trkpt lat="26.072657" lon="100.143109">
<time>2015-08-06T12:26:14Z</time></trkpt>
<trkpt lat="26.072506" lon="100.142628">
<time>2015-08-06T12:26:15Z</time></trkpt>
<trkpt lat="26.072183" lon="100.140774">
<time>2015-08-06T12:26:16Z</time></trkpt>
<trkpt lat="26.072002" lon="100.140324">
<time>2015-08-06T12:26:17Z</time></trkpt>
<trkpt lat="26.071069" lon="100.138811">
<time>2015-08-06T12:26:18Z</time></trkpt>
<trkpt lat="26.070648" lon="100.1381">
<time>2015-08-06T12:26:19Z</time></trkpt>
<trkpt lat="26.070447" lon="100.137639">
<time>2015-08-06T12:26:20Z</time></trkpt>
<trkpt lat="26.070076" lon="100.136708">
<time>2015-08-06T12:26:21Z</time></trkpt>
<trkpt lat="26.067284" lon="100.129707">
<time>2015-08-06T12:26:22Z</time></trkpt>
<trkpt lat="26.067124" lon="100.129336">
<time>2015-08-06T12:26:23Z</time></trkpt>
<trkpt lat="26.066953" lon="100.129056">
<time>2015-08-06T12:26:24Z</time></trkpt>
<trkpt lat="26.066763" lon="100.128846">
<time>2015-08-06T12:26:25Z</time></trkpt>
<trkpt lat="26.066583" lon="100.128716">
<time>2015-08-06T12:26:26Z</time></trkpt>
<trkpt lat="26.066262" lon="100.128565">
<time>2015-08-06T12:26:27Z</time></trkpt>
<trkpt lat="26.065091" lon="100.128185">
<time>2015-08-06T12:26:28Z</time></trkpt>
<trkpt lat="26.0646" lon="100.127965">
<time>2015-08-06T12:26:29Z</time></trkpt>
<trkpt lat="26.06415" lon="100.127704">
<time>2015-08-06T12:26:30Z</time></trkpt>
<trkpt lat="26.063559" lon="100.127254">
<time>2015-08-06T12:26:31Z</time></trkpt>
<trkpt lat="26.062367" lon="100.126192">
<time>2015-08-06T12:26:32Z</time></trkpt>
<trkpt lat="26.061646" lon="100.125572">
<time>2015-08-06T12:26:33Z</time></trkpt>
<trkpt lat="26.061355" lon="100.125311">
<time>2015-08-06T12:26:34Z</time></trkpt>
<trkpt lat="26.061025" lon="100.125021">
<time>2015-08-06T12:26:35Z</time></trkpt>
<trkpt lat="26.059011" lon="100.123229">
<time>2015-08-06T12:26:36Z</time></trkpt>
<trkpt lat="26.05841" lon="100.122418">
<time>2015-08-06T12:26:37Z</time></trkpt>
<trkpt lat="26.057287" lon="100.120436">
<time>2015-08-06T12:26:38Z</time></trkpt>
<trkpt lat="26.057107" lon="100.120155">
<time>2015-08-06T12:26:39Z</time></trkpt>
<trkpt lat="26.056947" lon="100.119945">
<time>2015-08-06T12:26:40Z</time></trkpt>
<trkpt lat="26.056736" lon="100.119745">
<time>2015-08-06T12:26:41Z</time></trkpt>
<trkpt lat="26.056506" lon="100.119585">
<time>2015-08-06T12:26:42Z</time></trkpt>
<trkpt lat="26.056206" lon="100.119445">
<time>2015-08-06T12:26:43Z</time></trkpt>
<trkpt lat="26.055915" lon="100.119374">
<time>2015-08-06T12:26:44Z</time></trkpt>
<trkpt lat="26.055555" lon="100.119364">
<time>2015-08-06T12:26:45Z</time></trkpt>
<trkpt lat="26.053704" lon="100.119435">
<time>2015-08-06T12:26:46Z</time></trkpt>
<trkpt lat="26.053013" lon="100.119535">
<time>2015-08-06T12:26:47Z</time></trkpt>
<trkpt lat="26.051753" lon="100.120035">
<time>2015-08-06T12:26:48Z</time></trkpt>
<trkpt lat="26.051403" lon="100.120195">
<time>2015-08-06T12:26:49Z</time></trkpt>
<trkpt lat="26.051233" lon="100.120256">
<time>2015-08-06T12:26:50Z</time></trkpt>
<trkpt lat="26.051043" lon="100.120296">
<time>2015-08-06T12:26:51Z</time></trkpt>
<trkpt lat="26.050863" lon="100.120306">
<time>2015-08-06T12:26:52Z</time></trkpt>
<trkpt lat="26.050562" lon="100.120256">
<time>2015-08-06T12:26:53Z</time></trkpt>
<trkpt lat="26.04845" lon="100.119655">
<time>2015-08-06T12:26:54Z</time></trkpt>
<trkpt lat="26.04824" lon="100.119605">
<time>2015-08-06T12:26:55Z</time></trkpt>
<trkpt lat="26.04814" lon="100.119595">
<time>2015-08-06T12:26:56Z</time></trkpt>
<trkpt lat="26.04802" lon="100.119595">
<time>2015-08-06T12:26:57Z</time></trkpt>
<trkpt lat="26.04783" lon="100.119625">
<time>2015-08-06T12:26:58Z</time></trkpt>
<trkpt lat="26.04769" lon="100.119665">
<time>2015-08-06T12:26:59Z</time></trkpt>
<trkpt lat="26.04754" lon="100.119735">
<time>2015-08-06T12:27:00Z</time></trkpt>
<trkpt lat="26.04745" lon="100.119805">
<time>2015-08-06T12:27:01Z</time></trkpt>
<trkpt lat="26.04731" lon="100.119935">
<time>2015-08-06T12:27:02Z</time></trkpt>
<trkpt lat="26.04718" lon="100.120075">
<time>2015-08-06T12:27:03Z</time></trkpt>
<trkpt lat="26.046041" lon="100.121487">
<time>2015-08-06T12:27:04Z</time></trkpt>
<trkpt lat="26.045881" lon="100.121657">
<time>2015-08-06T12:27:05Z</time></trkpt>
<trkpt lat="26.045731" lon="100.121757">
<time>2015-08-06T12:27:06Z</time></trkpt>
<trkpt lat="26.045571" lon="100.121837">
<time>2015-08-06T12:27:07Z</time></trkpt>
<trkpt lat="26.04537" lon="100.121887">
<time>2015-08-06T12:27:08Z</time></trkpt>
<trkpt lat="26.04504" lon="100.121938">
<time>2015-08-06T12:27:09Z</time></trkpt>
<trkpt lat="26.04424" lon="100.122058">
<time>2015-08-06T12:27:10Z</time></trkpt>
<trkpt lat="26.04392" lon="100.122088">
<time>2015-08-06T12:27:11Z</time></trkpt>
<trkpt lat="26.043589" lon="100.122108">
<time>2015-08-06T12:27:12Z</time></trkpt>
<trkpt lat="26.042509" lon="100.122158">
<time>2015-08-06T12:27:13Z</time></trkpt>
<trkpt lat="26.042249" lon="100.122158">
<time>2015-08-06T12:27:14Z</time></trkpt>
<trkpt lat="26.042068" lon="100.122138">
<time>2015-08-06T12:27:15Z</time></trkpt>
<trkpt lat="26.041898" lon="100.122068">
<time>2015-08-06T12:27:16Z</time></trkpt>
<trkpt lat="26.041748" lon="100.121988">
<time>2015-08-06T12:27:17Z</time></trkpt>
<trkpt lat="26.041638" lon="100.121888">
<time>2015-08-06T12:27:18Z</time></trkpt>
<trkpt lat="26.041528" lon="100.121777">
<time>2015-08-06T12:27:19Z</time></trkpt>
<trkpt lat="26.041437" lon="100.121627">
<time>2015-08-06T12:27:20Z</time></trkpt>
<trkpt lat="26.041387" lon="100.121517">
<time>2015-08-06T12:27:21Z</time></trkpt>
<trkpt lat="26.041357" lon="100.121397">
<time>2015-08-06T12:27:22Z</time></trkpt>
<trkpt lat="26.041327" lon="100.121197">
<time>2015-08-06T12:27:23Z</time></trkpt>
<trkpt lat="26.041327" lon="100.120977">
<time>2015-08-06T12:27:24Z</time></trkpt>
<trkpt lat="26.041347" lon="100.120866">
<time>2015-08-06T12:27:25Z</time></trkpt>
<trkpt lat="26.041377" lon="100.120746">
<time>2015-08-06T12:27:26Z</time></trkpt>
<trkpt lat="26.041436" lon="100.120616">
<time>2015-08-06T12:27:27Z</time></trkpt>
<trkpt lat="26.041516" lon="100.120476">
<time>2015-08-06T12:27:28Z</time></trkpt>
<trkpt lat="26.041616" lon="100.120346">
<time>2015-08-06T12:27:29Z</time></trkpt>
<trkpt lat="26.042416" lon="100.119455">
<time>2015-08-06T12:27:30Z</time></trkpt>
<trkpt lat="26.042466" lon="100.119375">
<time>2015-08-06T12:27:31Z</time></trkpt>
<trkpt lat="26.042506" lon="100.119285">
<time>2015-08-06T12:27:32Z</time></trkpt>
<trkpt lat="26.042526" lon="100.119215">
<time>2015-08-06T12:27:33Z</time></trkpt>
<trkpt lat="26.042546" lon="100.119105">
<time>2015-08-06T12:27:34Z</time></trkpt>
<trkpt lat="26.042536" lon="100.118914">
<time>2015-08-06T12:27:35Z</time></trkpt>
<trkpt lat="26.042094" lon="100.117373">
<time>2015-08-06T12:27:36Z</time></trkpt>
<trkpt lat="26.042024" lon="100.117173">
<time>2015-08-06T12:27:37Z</time></trkpt>
<trkpt lat="26.041984" lon="100.117052">
<time>2015-08-06T12:27:38Z</time></trkpt>
<trkpt lat="26.041904" lon="100.116942">
<time>2015-08-06T12:27:39Z</time></trkpt>
<trkpt lat="26.041793" lon="100.116832">
<time>2015-08-06T12:27:40Z</time></trkpt>
<trkpt lat="26.041703" lon="100.116782">
<time>2015-08-06T12:27:41Z</time></trkpt>
<trkpt lat="26.041613" lon="100.116752">
<time>2015-08-06T12:27:42Z</time></trkpt>
<trkpt lat="26.041503" lon="100.116732">
<time>2015-08-06T12:27:43Z</time></trkpt>
<trkpt lat="26.041383" lon="100.116732">
<time>2015-08-06T12:27:44Z</time></trkpt>
<trkpt lat="26.041303" lon="100.116762">
<time>2015-08-06T12:27:45Z</time></trkpt>
<trkpt lat="26.041153" lon="100.116822">
<time>2015-08-06T12:27:46Z</time></trkpt>
<trkpt lat="26.038973" lon="100.118224">
<time>2015-08-06T12:27:47Z</time></trkpt>
<trkpt lat="26.038793" lon="100.118324">
<time>2015-08-06T12:27:48Z</time></trkpt>
<trkpt lat="26.038653" lon="100.118384">
<time>2015-08-06T12:27:49Z</time></trkpt>
<trkpt lat="26.038512" lon="100.118414">
<time>2015-08-06T12:27:50Z</time></trkpt>
<trkpt lat="26.038362" lon="100.118424">
<time>2015-08-06T12:27:51Z</time></trkpt>
<trkpt lat="26.038192" lon="100.118394">
<time>2015-08-06T12:27:52Z</time></trkpt>
<trkpt lat="26.038002" lon="100.118334">
<time>2015-08-06T12:27:53Z</time></trkpt>
<trkpt lat="26.037652" lon="100.118194">
<time>2015-08-06T12:27:54Z</time></trkpt>
<trkpt lat="26.037532" lon="100.118154">
<time>2015-08-06T12:27:55Z</time></trkpt>
<trkpt lat="26.037371" lon="100.118124">
<time>2015-08-06T12:27:56Z</time></trkpt>
<trkpt lat="26.037171" lon="100.118124">
<time>2015-08-06T12:27:57Z</time></trkpt>
<trkpt lat="26.036261" lon="100.118214">
<time>2015-08-06T12:27:58Z</time></trkpt>
<trkpt lat="26.036081" lon="100.118224">
<time>2015-08-06T12:27:59Z</time></trkpt>
<trkpt lat="26.03592" lon="100.118214">
<time>2015-08-06T12:28:00Z</time></trkpt>
<trkpt lat="26.03581" lon="100.118194">
<time>2015-08-06T12:28:01Z</time></trkpt>
<trkpt lat="26.0357" lon="100.118154">
<time>2015-08-06T12:28:02Z</time></trkpt>
<trkpt lat="26.03559" lon="100.118094">
<time>2015-08-06T12:28:03Z</time></trkpt>
<trkpt lat="26.03544" lon="100.117984">
<time>2015-08-06T12:28:04Z</time></trkpt>
<trkpt lat="26.03532" lon="100.117853">
<time>2015-08-06T12:28:05Z</time></trkpt>
<trkpt lat="26.03524" lon="100.117753">
<time>2015-08-06T12:28:06Z</time></trkpt>
<trkpt lat="26.035189" lon="100.117643">
<time>2015-08-06T12:28:07Z</time></trkpt>
<trkpt lat="26.035139" lon="100.117523">
<time>2015-08-06T12:28:08Z</time></trkpt>
<trkpt lat="26.035109" lon="100.117383">
<time>2015-08-06T12:28:09Z</time></trkpt>
<trkpt lat="26.035099" lon="100.117223">
<time>2015-08-06T12:28:10Z</time></trkpt>
<trkpt lat="26.035089" lon="100.117073">
<time>2015-08-06T12:28:11Z</time></trkpt>
<trkpt lat="26.035109" lon="100.116943">
<time>2015-08-06T12:28:12Z</time></trkpt>
<trkpt lat="26.035438" lon="100.115061">
<time>2015-08-06T12:28:13Z</time></trkpt>
<trkpt lat="26.035587" lon="100.1146">
<time>2015-08-06T12:28:14Z</time></trkpt>
<trkpt lat="26.037046" lon="100.110277">
<time>2015-08-06T12:28:15Z</time></trkpt>
<trkpt lat="26.037085" lon="100.109857">
<time>2015-08-06T12:28:16Z</time></trkpt>
<trkpt lat="26.037035" lon="100.109617">
<time>2015-08-06T12:28:17Z</time></trkpt>
<trkpt lat="26.036795" lon="100.109136">
<time>2015-08-06T12:28:18Z</time></trkpt>
<trkpt lat="26.036404" lon="100.108336">
<time>2015-08-06T12:28:19Z</time></trkpt>
<trkpt lat="26.036324" lon="100.107966">
<time>2015-08-06T12:28:20Z</time></trkpt>
<trkpt lat="26.036394" lon="100.107676">
<time>2015-08-06T12:28:21Z</time></trkpt>
<trkpt lat="26.036474" lon="100.107545">
<time>2015-08-06T12:28:22Z</time></trkpt>
<trkpt lat="26.036714" lon="100.107355">
<time>2015-08-06T12:28:23Z</time></trkpt>
<trkpt lat="26.037624" lon="100.106875">
<time>2015-08-06T12:28:24Z</time></trkpt>
<trkpt lat="26.037964" lon="100.106745">
<time>2015-08-06T12:28:25Z</time></trkpt>
<trkpt lat="26.038345" lon="100.106695">
<time>2015-08-06T12:28:26Z</time></trkpt>
<trkpt lat="26.040596" lon="100.106645">
<time>2015-08-06T12:28:27Z</time></trkpt>
<trkpt lat="26.040706" lon="100.106635">
<time>2015-08-06T12:28:28Z</time></trkpt>
<trkpt lat="26.040766" lon="100.106625">
<time>2015-08-06T12:28:29Z</time></trkpt>
<trkpt lat="26.040806" lon="100.106605">
<time>2015-08-06T12:28:30Z</time></trkpt>
<trkpt lat="26.040846" lon="100.106595">
<time>2015-08-06T12:28:31Z</time></trkpt>
<trkpt lat="26.040876" lon="100.106575">
<time>2015-08-06T12:28:32Z</time></trkpt>
<trkpt lat="26.040936" lon="100.106535">
<time>2015-08-06T12:28:33Z</time></trkpt>
<trkpt lat="26.040966" lon="100.106505">
<time>2015-08-06T12:28:34Z</time></trkpt>
<trkpt lat="26.040986" lon="100.106465">
<time>2015-08-06T12:28:35Z</time></trkpt>
<trkpt lat="26.041006" lon="100.106415">
<time>2015-08-06T12:28:36Z</time></trkpt>
<trkpt lat="26.041026" lon="100.106335">
<time>2015-08-06T12:28:37Z</time></trkpt>
<trkpt lat="26.041036" lon="100.106275">
<time>2015-08-06T12:28:38Z</time></trkpt>
<trkpt lat="26.041026" lon="100.106225">
<time>2015-08-06T12:28:39Z</time></trkpt>
<trkpt lat="26.041016" lon="100.106165">
<time>2015-08-06T12:28:40Z</time></trkpt>
<trkpt lat="26.040986" lon="100.106105">
<time>2015-08-06T12:28:41Z</time></trkpt>
<trkpt lat="26.040946" lon="100.106055">
<time>2015-08-06T12:28:42Z</time></trkpt>
<trkpt lat="26.040916" lon="100.106015">
<time>2015-08-06T12:28:43Z</time></trkpt>
<trkpt lat="26.040866" lon="100.105975">
<time>2015-08-06T12:28:44Z</time></trkpt>
<trkpt lat="26.040806" lon="100.105945">
<time>2015-08-06T12:28:45Z</time></trkpt>
<trkpt lat="26.040736" lon="100.105925">
<time>2015-08-06T12:28:46Z</time></trkpt>
<trkpt lat="26.039175" lon="100.105825">
<time>2015-08-06T12:28:47Z</time></trkpt>
<trkpt lat="26.038655" lon="100.105744">
<time>2015-08-06T12:28:48Z</time></trkpt>
<trkpt lat="26.038214" lon="100.105674">
<time>2015-08-06T12:28:49Z</time></trkpt>
<trkpt lat="26.037444" lon="100.105464">
<time>2015-08-06T12:28:50Z</time></trkpt>
<trkpt lat="26.037093" lon="100.105434">
<time>2015-08-06T12:28:51Z</time></trkpt>
<trkpt lat="26.036683" lon="100.105494">
<time>2015-08-06T12:28:52Z</time></trkpt>
<trkpt lat="26.035362" lon="100.105795">
<time>2015-08-06T12:28:53Z</time></trkpt>
<trkpt lat="26.034982" lon="100.105895">
<time>2015-08-06T12:28:54Z</time></trkpt>
<trkpt lat="26.034662" lon="100.106015">
<time>2015-08-06T12:28:55Z</time></trkpt>
<trkpt lat="26.034442" lon="100.106145">
<time>2015-08-06T12:28:56Z</time></trkpt>
<trkpt lat="26.034192" lon="100.106325">
<time>2015-08-06T12:28:57Z</time></trkpt>
<trkpt lat="26.033521" lon="100.106875">
<time>2015-08-06T12:28:58Z</time></trkpt>
<trkpt lat="26.033051" lon="100.107265">
<time>2015-08-06T12:28:59Z</time></trkpt>
<trkpt lat="26.032661" lon="100.107736">
<time>2015-08-06T12:29:00Z</time></trkpt>
<trkpt lat="26.032401" lon="100.108186">
<time>2015-08-06T12:29:01Z</time></trkpt>
<trkpt lat="26.032221" lon="100.108666">
<time>2015-08-06T12:29:02Z</time></trkpt>
<trkpt lat="26.031832" lon="100.110627">
<time>2015-08-06T12:29:03Z</time></trkpt>
<trkpt lat="26.031752" lon="100.110968">
<time>2015-08-06T12:29:04Z</time></trkpt>
<trkpt lat="26.031562" lon="100.111288">
<time>2015-08-06T12:29:05Z</time></trkpt>
<trkpt lat="26.030632" lon="100.112229">
<time>2015-08-06T12:29:06Z</time></trkpt>
<trkpt lat="26.030422" lon="100.112469">
<time>2015-08-06T12:29:07Z</time></trkpt>
<trkpt lat="26.030132" lon="100.112879">
<time>2015-08-06T12:29:08Z</time></trkpt>
<trkpt lat="26.029813" lon="100.11352">
<time>2015-08-06T12:29:09Z</time></trkpt>
<trkpt lat="26.029643" lon="100.11407">
<time>2015-08-06T12:29:10Z</time></trkpt>
<trkpt lat="26.029373" lon="100.115131">
<time>2015-08-06T12:29:11Z</time></trkpt>
<trkpt lat="26.029244" lon="100.115521">
<time>2015-08-06T12:29:12Z</time></trkpt>
<trkpt lat="26.029154" lon="100.115712">
<time>2015-08-06T12:29:13Z</time></trkpt>
<trkpt lat="26.029074" lon="100.115822">
<time>2015-08-06T12:29:14Z</time></trkpt>
<trkpt lat="26.028984" lon="100.115912">
<time>2015-08-06T12:29:15Z</time></trkpt>
<trkpt lat="26.028884" lon="100.116002">
<time>2015-08-06T12:29:16Z</time></trkpt>
<trkpt lat="26.028774" lon="100.116052">
<time>2015-08-06T12:29:17Z</time></trkpt>
<trkpt lat="26.028654" lon="100.116102">
<time>2015-08-06T12:29:18Z</time></trkpt>
<trkpt lat="26.028484" lon="100.116132">
<time>2015-08-06T12:29:19Z</time></trkpt>
<trkpt lat="26.028374" lon="100.116132">
<time>2015-08-06T12:29:20Z</time></trkpt>
<trkpt lat="26.028293" lon="100.116132">
<time>2015-08-06T12:29:21Z</time></trkpt>
<trkpt lat="26.028183" lon="100.116102">
<time>2015-08-06T12:29:22Z</time></trkpt>
<trkpt lat="26.028093" lon="100.116062">
<time>2015-08-06T12:29:23Z</time></trkpt>
<trkpt lat="26.027993" lon="100.116002">
<time>2015-08-06T12:29:24Z</time></trkpt>
<trkpt lat="26.027733" lon="100.115792">
<time>2015-08-06T12:29:25Z</time></trkpt>
<trkpt lat="26.02579" lon="100.1141">
<time>2015-08-06T12:29:26Z</time></trkpt>
<trkpt lat="26.024909" lon="100.11314">
<time>2015-08-06T12:29:27Z</time></trkpt>
<trkpt lat="26.024418" lon="100.112559">
<time>2015-08-06T12:29:28Z</time></trkpt>
<trkpt lat="26.023917" lon="100.111788">
<time>2015-08-06T12:29:29Z</time></trkpt>
<trkpt lat="26.023176" lon="100.110428">
<time>2015-08-06T12:29:30Z</time></trkpt>
<trkpt lat="26.023006" lon="100.110047">
<time>2015-08-06T12:29:31Z</time></trkpt>
<trkpt lat="26.022916" lon="100.109847">
<time>2015-08-06T12:29:32Z</time></trkpt>
<trkpt lat="26.021543" lon="100.106755">
<time>2015-08-06T12:29:33Z</time></trkpt>
<trkpt lat="26.021283" lon="100.106365">
<time>2015-08-06T12:29:34Z</time></trkpt>
<trkpt lat="26.021073" lon="100.106205">
<time>2015-08-06T12:29:35Z</time></trkpt>
<trkpt lat="26.020942" lon="100.106105">
<time>2015-08-06T12:29:36Z</time></trkpt>
<trkpt lat="26.020602" lon="100.105955">
<time>2015-08-06T12:29:37Z</time></trkpt>
<trkpt lat="26.01822" lon="100.104935">
<time>2015-08-06T12:29:38Z</time></trkpt>
<trkpt lat="26.01775" lon="100.104685">
<time>2015-08-06T12:29:39Z</time></trkpt>
<trkpt lat="26.015888" lon="100.103704">
<time>2015-08-06T12:29:40Z</time></trkpt>
<trkpt lat="26.015548" lon="100.103544">
<time>2015-08-06T12:29:41Z</time></trkpt>
<trkpt lat="26.014977" lon="100.103814">
<time>2015-08-06T12:29:42Z</time></trkpt>
<trkpt lat="26.013006" lon="100.105075">
<time>2015-08-06T12:29:43Z</time></trkpt>
<trkpt lat="26.012356" lon="100.105505">
<time>2015-08-06T12:29:44Z</time></trkpt>
<trkpt lat="26.011946" lon="100.105655">
<time>2015-08-06T12:29:45Z</time></trkpt>
<trkpt lat="26.008214" lon="100.106686">
<time>2015-08-06T12:29:46Z</time></trkpt>
<trkpt lat="26.007503" lon="100.106926">
<time>2015-08-06T12:29:47Z</time></trkpt>
<trkpt lat="26.006463" lon="100.107396">
<time>2015-08-06T12:29:48Z</time></trkpt>
<trkpt lat="26.005832" lon="100.107616">
<time>2015-08-06T12:29:49Z</time></trkpt>
<trkpt lat="26.004171" lon="100.107876">
<time>2015-08-06T12:29:50Z</time></trkpt>
<trkpt lat="26.004041" lon="100.107896">
<time>2015-08-06T12:29:51Z</time></trkpt>
<trkpt lat="26.004001" lon="100.107896">
<time>2015-08-06T12:29:52Z</time></trkpt>
<trkpt lat="26.003071" lon="100.108097">
<time>2015-08-06T12:29:53Z</time></trkpt>
<trkpt lat="26.002921" lon="100.108137">
<time>2015-08-06T12:29:54Z</time></trkpt>
<trkpt lat="26.002811" lon="100.108167">
<time>2015-08-06T12:29:55Z</time></trkpt>
<trkpt lat="26.002691" lon="100.108197">
<time>2015-08-06T12:29:56Z</time></trkpt>
<trkpt lat="26.002691" lon="100.108197">
<time>2015-08-06T12:29:57Z</time></trkpt>
<trkpt lat="26.00201" lon="100.107346">
<time>2015-08-06T12:29:58Z</time></trkpt>
<trkpt lat="26.001489" lon="100.106706">
<time>2015-08-06T12:29:59Z</time></trkpt>
<trkpt lat="26.000718" lon="100.105685">
<time>2015-08-06T12:30:00Z</time></trkpt>
<trkpt lat="26.000208" lon="100.105195">
<time>2015-08-06T12:30:01Z</time></trkpt>
<trkpt lat="26.000077" lon="100.105085">
<time>2015-08-06T12:30:02Z</time></trkpt>
<trkpt lat="26.000017" lon="100.105045">
<time>2015-08-06T12:30:03Z</time></trkpt>
<trkpt lat="25.999737" lon="100.104885">
<time>2015-08-06T12:30:04Z</time></trkpt>
<trkpt lat="25.999247" lon="100.104695">
<time>2015-08-06T12:30:05Z</time></trkpt>
<trkpt lat="25.998846" lon="100.104595">
<time>2015-08-06T12:30:06Z</time></trkpt>
<trkpt lat="25.998546" lon="100.104505">
<time>2015-08-06T12:30:07Z</time></trkpt>
<trkpt lat="25.998236" lon="100.104445">
<time>2015-08-06T12:30:08Z</time></trkpt>
<trkpt lat="25.997876" lon="100.104395">
<time>2015-08-06T12:30:09Z</time></trkpt>
<trkpt lat="25.997355" lon="100.104355">
<time>2015-08-06T12:30:10Z</time></trkpt>
<trkpt lat="25.996755" lon="100.104405">
<time>2015-08-06T12:30:11Z</time></trkpt>
<trkpt lat="25.996365" lon="100.104465">
<time>2015-08-06T12:30:12Z</time></trkpt>
<trkpt lat="25.996195" lon="100.104495">
<time>2015-08-06T12:30:13Z</time></trkpt>
<trkpt lat="25.995784" lon="100.104615">
<time>2015-08-06T12:30:14Z</time></trkpt>
<trkpt lat="25.995134" lon="100.104845">
<time>2015-08-06T12:30:15Z</time></trkpt>
<trkpt lat="25.994774" lon="100.105015">
<time>2015-08-06T12:30:16Z</time></trkpt>
<trkpt lat="25.994454" lon="100.105125">
<time>2015-08-06T12:30:17Z</time></trkpt>
<trkpt lat="25.994444" lon="100.105125">
<time>2015-08-06T12:30:18Z</time></trkpt>
<trkpt lat="25.993813" lon="100.105305">
<time>2015-08-06T12:30:19Z</time></trkpt>
<trkpt lat="25.993073" lon="100.105456">
<time>2015-08-06T12:30:20Z</time></trkpt>
<trkpt lat="25.992392" lon="100.105536">
<time>2015-08-06T12:30:21Z</time></trkpt>
<trkpt lat="25.991722" lon="100.105536">
<time>2015-08-06T12:30:22Z</time></trkpt>
<trkpt lat="25.991632" lon="100.105526">
<time>2015-08-06T12:30:23Z</time></trkpt>
<trkpt lat="25.990971" lon="100.105466">
<time>2015-08-06T12:30:24Z</time></trkpt>
<trkpt lat="25.990581" lon="100.105396">
<time>2015-08-06T12:30:25Z</time></trkpt>
<trkpt lat="25.990391" lon="100.105336">
<time>2015-08-06T12:30:26Z</time></trkpt>
<trkpt lat="25.9897" lon="100.105125">
<time>2015-08-06T12:30:27Z</time></trkpt>
<trkpt lat="25.9891" lon="100.104885">
<time>2015-08-06T12:30:28Z</time></trkpt>
<trkpt lat="25.988199" lon="100.104505">
<time>2015-08-06T12:30:29Z</time></trkpt>
<trkpt lat="25.988019" lon="100.104435">
<time>2015-08-06T12:30:30Z</time></trkpt>
<trkpt lat="25.987328" lon="100.104195">
<time>2015-08-06T12:30:31Z</time></trkpt>
<trkpt lat="25.986968" lon="100.104065">
<time>2015-08-06T12:30:32Z</time></trkpt>
<trkpt lat="25.986838" lon="100.104015">
<time>2015-08-06T12:30:33Z</time></trkpt>
<trkpt lat="25.985227" lon="100.103585">
<time>2015-08-06T12:30:34Z</time></trkpt>
<trkpt lat="25.984396" lon="100.103455">
<time>2015-08-06T12:30:35Z</time></trkpt>
<trkpt lat="25.982234" lon="100.103255">
<time>2015-08-06T12:30:36Z</time></trkpt>
<trkpt lat="25.980553" lon="100.103065">
<time>2015-08-06T12:30:37Z</time></trkpt>
<trkpt lat="25.979072" lon="100.102695">
<time>2015-08-06T12:30:38Z</time></trkpt>
<trkpt lat="25.978101" lon="100.102305">
<time>2015-08-06T12:30:39Z</time></trkpt>
<trkpt lat="25.977541" lon="100.102015">
<time>2015-08-06T12:30:40Z</time></trkpt>
<trkpt lat="25.977471" lon="100.101975">
<time>2015-08-06T12:30:41Z</time></trkpt>
<trkpt lat="25.97611" lon="100.101054">
<time>2015-08-06T12:30:42Z</time></trkpt>
<trkpt lat="25.974378" lon="100.099724">
<time>2015-08-06T12:30:43Z</time></trkpt>
<trkpt lat="25.971626" lon="100.097614">
<time>2015-08-06T12:30:44Z</time></trkpt>
<trkpt lat="25.969995" lon="100.096424">
<time>2015-08-06T12:30:45Z</time></trkpt>
<trkpt lat="25.969645" lon="100.096174">
<time>2015-08-06T12:30:46Z</time></trkpt>
<trkpt lat="25.969475" lon="100.096064">
<time>2015-08-06T12:30:47Z</time></trkpt>
<trkpt lat="25.969224" lon="100.095894">
<time>2015-08-06T12:30:48Z</time></trkpt>
<trkpt lat="25.968734" lon="100.095594">
<time>2015-08-06T12:30:49Z</time></trkpt>
<trkpt lat="25.968464" lon="100.095494">
<time>2015-08-06T12:30:50Z</time></trkpt>
<trkpt lat="25.967944" lon="100.095304">
<time>2015-08-06T12:30:51Z</time></trkpt>
<trkpt lat="25.967363" lon="100.095184">
<time>2015-08-06T12:30:52Z</time></trkpt>
<trkpt lat="25.967253" lon="100.095164">
<time>2015-08-06T12:30:53Z</time></trkpt>
<trkpt lat="25.966443" lon="100.095024">
<time>2015-08-06T12:30:54Z</time></trkpt>
<trkpt lat="25.964041" lon="100.094894">
<time>2015-08-06T12:30:55Z</time></trkpt>
<trkpt lat="25.96335" lon="100.094854">
<time>2015-08-06T12:30:56Z</time></trkpt>
<trkpt lat="25.96251" lon="100.094784">
<time>2015-08-06T12:30:57Z</time></trkpt>
<trkpt lat="25.96251" lon="100.094784">
<time>2015-08-06T12:30:58Z</time></trkpt>
<trkpt lat="25.961549" lon="100.094724">
<time>2015-08-06T12:30:59Z</time></trkpt>
<trkpt lat="25.960919" lon="100.094684">
<time>2015-08-06T12:31:00Z</time></trkpt>
<trkpt lat="25.960098" lon="100.094674">
<time>2015-08-06T12:31:01Z</time></trkpt>
<trkpt lat="25.959728" lon="100.094674">
<time>2015-08-06T12:31:02Z</time></trkpt>
<trkpt lat="25.959518" lon="100.094694">
<time>2015-08-06T12:31:03Z</time></trkpt>
<trkpt lat="25.956856" lon="100.095314">
<time>2015-08-06T12:31:04Z</time></trkpt>
<trkpt lat="25.956365" lon="100.095424">
<time>2015-08-06T12:31:05Z</time></trkpt>
<trkpt lat="25.956215" lon="100.095454">
<time>2015-08-06T12:31:06Z</time></trkpt>
<trkpt lat="25.956095" lon="100.095484">
<time>2015-08-06T12:31:07Z</time></trkpt>
<trkpt lat="25.955925" lon="100.095524">
<time>2015-08-06T12:31:08Z</time></trkpt>
<trkpt lat="25.955815" lon="100.095554">
<time>2015-08-06T12:31:09Z</time></trkpt>
<trkpt lat="25.955725" lon="100.095584">
<time>2015-08-06T12:31:10Z</time></trkpt>
<trkpt lat="25.955585" lon="100.095614">
<time>2015-08-06T12:31:11Z</time></trkpt>
<trkpt lat="25.953874" lon="100.096004">
<time>2015-08-06T12:31:12Z</time></trkpt>
<trkpt lat="25.953513" lon="100.096074">
<time>2015-08-06T12:31:13Z</time></trkpt>
<trkpt lat="25.953343" lon="100.096284">
<time>2015-08-06T12:31:14Z</time></trkpt>
<trkpt lat="25.953133" lon="100.096464">
<time>2015-08-06T12:31:15Z</time></trkpt>
<trkpt lat="25.952963" lon="100.096564">
<time>2015-08-06T12:31:16Z</time></trkpt>
<trkpt lat="25.952893" lon="100.096594">
<time>2015-08-06T12:31:17Z</time></trkpt>
<trkpt lat="25.952793" lon="100.096644">
<time>2015-08-06T12:31:18Z</time></trkpt>
<trkpt lat="25.952713" lon="100.096684">
<time>2015-08-06T12:31:19Z</time></trkpt>
<trkpt lat="25.952663" lon="100.096714">
<time>2015-08-06T12:31:20Z</time></trkpt>
<trkpt lat="25.952643" lon="100.096724">
<time>2015-08-06T12:31:21Z</time></trkpt>
<trkpt lat="25.952593" lon="100.096744">
<time>2015-08-06T12:31:22Z</time></trkpt>
<trkpt lat="25.952503" lon="100.096774">
<time>2015-08-06T12:31:23Z</time></trkpt>
<trkpt lat="25.952473" lon="100.096784">
<time>2015-08-06T12:31:24Z</time></trkpt>
<trkpt lat="25.952453" lon="100.096794">
<time>2015-08-06T12:31:25Z</time></trkpt>
<trkpt lat="25.952433" lon="100.096794">
<time>2015-08-06T12:31:26Z</time></trkpt>
<trkpt lat="25.952403" lon="100.096804">
<time>2015-08-06T12:31:27Z</time></trkpt>
<trkpt lat="25.952373" lon="100.096814">
<time>2015-08-06T12:31:28Z</time></trkpt>
<trkpt lat="25.952323" lon="100.096834">
<time>2015-08-06T12:31:29Z</time></trkpt>
<trkpt lat="25.952253" lon="100.096854">
<time>2015-08-06T12:31:30Z</time></trkpt>
<trkpt lat="25.952172" lon="100.096884">
<time>2015-08-06T12:31:31Z</time></trkpt>
<trkpt lat="25.952112" lon="100.096894">
<time>2015-08-06T12:31:32Z</time></trkpt>
<trkpt lat="25.952012" lon="100.096924">
<time>2015-08-06T12:31:33Z</time></trkpt>
<trkpt lat="25.951932" lon="100.096944">
<time>2015-08-06T12:31:34Z</time></trkpt>
<trkpt lat="25.951862" lon="100.096964">
<time>2015-08-06T12:31:35Z</time></trkpt>
<trkpt lat="25.951852" lon="100.096964">
<time>2015-08-06T12:31:36Z</time></trkpt>
<trkpt lat="25.951782" lon="100.096984">
<time>2015-08-06T12:31:37Z</time></trkpt>
<trkpt lat="25.951722" lon="100.096994">
<time>2015-08-06T12:31:38Z</time></trkpt>
<trkpt lat="25.951652" lon="100.097014">
<time>2015-08-06T12:31:39Z</time></trkpt>
<trkpt lat="25.951572" lon="100.097024">
<time>2015-08-06T12:31:40Z</time></trkpt>
<trkpt lat="25.951432" lon="100.097034">
<time>2015-08-06T12:31:41Z</time></trkpt>
<trkpt lat="25.951362" lon="100.097044">
<time>2015-08-06T12:31:42Z</time></trkpt>
<trkpt lat="25.951362" lon="100.097044">
<time>2015-08-06T12:31:43Z</time></trkpt>
<trkpt lat="25.949411" lon="100.098635">
<time>2015-08-06T12:31:44Z</time></trkpt>
<trkpt lat="25.94829" lon="100.099585">
<time>2015-08-06T12:31:45Z</time></trkpt>
<trkpt lat="25.94811" lon="100.099725">
<time>2015-08-06T12:31:46Z</time></trkpt>
<trkpt lat="25.94801" lon="100.099785">
<time>2015-08-06T12:31:47Z</time></trkpt>
<trkpt lat="25.94791" lon="100.099825">
<time>2015-08-06T12:31:48Z</time></trkpt>
<trkpt lat="25.94784" lon="100.099845">
<time>2015-08-06T12:31:49Z</time></trkpt>
<trkpt lat="25.94771" lon="100.099845">
<time>2015-08-06T12:31:50Z</time></trkpt>
<trkpt lat="25.9476" lon="100.099845">
<time>2015-08-06T12:31:51Z</time></trkpt>
<trkpt lat="25.946439" lon="100.099635">
<time>2015-08-06T12:31:52Z</time></trkpt>
<trkpt lat="25.945648" lon="100.099525">
<time>2015-08-06T12:31:53Z</time></trkpt>
<trkpt lat="25.944998" lon="100.099405">
<time>2015-08-06T12:31:54Z</time></trkpt>
<trkpt lat="25.944757" lon="100.099375">
<time>2015-08-06T12:31:55Z</time></trkpt>
<trkpt lat="25.944647" lon="100.099365">
<time>2015-08-06T12:31:56Z</time></trkpt>
<trkpt lat="25.944617" lon="100.099365">
<time>2015-08-06T12:31:57Z</time></trkpt>
<trkpt lat="25.944497" lon="100.099365">
<time>2015-08-06T12:31:58Z</time></trkpt>
<trkpt lat="25.943937" lon="100.099395">
<time>2015-08-06T12:31:59Z</time></trkpt>
<trkpt lat="25.943717" lon="100.099305">
<time>2015-08-06T12:32:00Z</time></trkpt>
<trkpt lat="25.943717" lon="100.099305">
<time>2015-08-06T12:32:01Z</time></trkpt>
<trkpt lat="25.943657" lon="100.099055">
<time>2015-08-06T12:32:02Z</time></trkpt>
<trkpt lat="25.943567" lon="100.098695">
<time>2015-08-06T12:32:03Z</time></trkpt>
<trkpt lat="25.943497" lon="100.098555">
<time>2015-08-06T12:32:04Z</time></trkpt>
<trkpt lat="25.943446" lon="100.098465">
<time>2015-08-06T12:32:05Z</time></trkpt>
<trkpt lat="25.943366" lon="100.098375">
<time>2015-08-06T12:32:06Z</time></trkpt>
<trkpt lat="25.943276" lon="100.098305">
<time>2015-08-06T12:32:07Z</time></trkpt>
<trkpt lat="25.943166" lon="100.098235">
<time>2015-08-06T12:32:08Z</time></trkpt>
<trkpt lat="25.943076" lon="100.098205">
<time>2015-08-06T12:32:09Z</time></trkpt>
<trkpt lat="25.942946" lon="100.098165">
<time>2015-08-06T12:32:10Z</time></trkpt>
<trkpt lat="25.942796" lon="100.098135">
<time>2015-08-06T12:32:11Z</time></trkpt>
<trkpt lat="25.942506" lon="100.098065">
<time>2015-08-06T12:32:12Z</time></trkpt>
<trkpt lat="25.942206" lon="100.097985">
<time>2015-08-06T12:32:13Z</time></trkpt>
<trkpt lat="25.941905" lon="100.097895">
<time>2015-08-06T12:32:14Z</time></trkpt>
<trkpt lat="25.941585" lon="100.097815">
<time>2015-08-06T12:32:15Z</time></trkpt>
<trkpt lat="25.941245" lon="100.097735">
<time>2015-08-06T12:32:16Z</time></trkpt>
<trkpt lat="25.940915" lon="100.097655">
<time>2015-08-06T12:32:17Z</time></trkpt>
<trkpt lat="25.940574" lon="100.097555">
<time>2015-08-06T12:32:18Z</time></trkpt>
<trkpt lat="25.940264" lon="100.097475">
<time>2015-08-06T12:32:19Z</time></trkpt>
<trkpt lat="25.939914" lon="100.097395">
<time>2015-08-06T12:32:20Z</time></trkpt>
<trkpt lat="25.939744" lon="100.097345">
<time>2015-08-06T12:32:21Z</time></trkpt>
<trkpt lat="25.939594" lon="100.097315">
<time>2015-08-06T12:32:22Z</time></trkpt>
<trkpt lat="25.939424" lon="100.097265">
<time>2015-08-06T12:32:23Z</time></trkpt>
<trkpt lat="25.939254" lon="100.097215">
<time>2015-08-06T12:32:24Z</time></trkpt>
<trkpt lat="25.939053" lon="100.097125">
<time>2015-08-06T12:32:25Z</time></trkpt>
<trkpt lat="25.938943" lon="100.097065">
<time>2015-08-06T12:32:26Z</time></trkpt>
<trkpt lat="25.938783" lon="100.096955">
<time>2015-08-06T12:32:27Z</time></trkpt>
<trkpt lat="25.938633" lon="100.096855">
<time>2015-08-06T12:32:28Z</time></trkpt>
<trkpt lat="25.938483" lon="100.096705">
<time>2015-08-06T12:32:29Z</time></trkpt>
<trkpt lat="25.938323" lon="100.096555">
<time>2015-08-06T12:32:30Z</time></trkpt>
<trkpt lat="25.938073" lon="100.096315">
<time>2015-08-06T12:32:31Z</time></trkpt>
<trkpt lat="25.937813" lon="100.096065">
<time>2015-08-06T12:32:32Z</time></trkpt>
<trkpt lat="25.937572" lon="100.095835">
<time>2015-08-06T12:32:33Z</time></trkpt>
<trkpt lat="25.937442" lon="100.095735">
<time>2015-08-06T12:32:34Z</time></trkpt>
<trkpt lat="25.937362" lon="100.095675">
<time>2015-08-06T12:32:35Z</time></trkpt>
<trkpt lat="25.937302" lon="100.095635">
<time>2015-08-06T12:32:36Z</time></trkpt>
<trkpt lat="25.937232" lon="100.095595">
<time>2015-08-06T12:32:37Z</time></trkpt>
<trkpt lat="25.937102" lon="100.095555">
<time>2015-08-06T12:32:38Z</time></trkpt>
<trkpt lat="25.936992" lon="100.095525">
<time>2015-08-06T12:32:39Z</time></trkpt>
<trkpt lat="25.936832" lon="100.095505">
<time>2015-08-06T12:32:40Z</time></trkpt>
<trkpt lat="25.936682" lon="100.095515">
<time>2015-08-06T12:32:41Z</time></trkpt>
<trkpt lat="25.936542" lon="100.095545">
<time>2015-08-06T12:32:42Z</time></trkpt>
<trkpt lat="25.936362" lon="100.095605">
<time>2015-08-06T12:32:43Z</time></trkpt>
<trkpt lat="25.936221" lon="100.095665">
<time>2015-08-06T12:32:44Z</time></trkpt>
<trkpt lat="25.936051" lon="100.095735">
<time>2015-08-06T12:32:45Z</time></trkpt>
<trkpt lat="25.935911" lon="100.095795">
<time>2015-08-06T12:32:46Z</time></trkpt>
<trkpt lat="25.935601" lon="100.095935">
<time>2015-08-06T12:32:47Z</time></trkpt>
<trkpt lat="25.935301" lon="100.096075">
<time>2015-08-06T12:32:48Z</time></trkpt>
<trkpt lat="25.935001" lon="100.096205">
<time>2015-08-06T12:32:49Z</time></trkpt>
<trkpt lat="25.93471" lon="100.096335">
<time>2015-08-06T12:32:50Z</time></trkpt>
<trkpt lat="25.93442" lon="100.096465">
<time>2015-08-06T12:32:51Z</time></trkpt>
<trkpt lat="25.93416" lon="100.096585">
<time>2015-08-06T12:32:52Z</time></trkpt>
<trkpt lat="25.93411" lon="100.096605">
<time>2015-08-06T12:32:53Z</time></trkpt>
<trkpt lat="25.93383" lon="100.096745">
<time>2015-08-06T12:32:54Z</time></trkpt>
<trkpt lat="25.93354" lon="100.096905">
<time>2015-08-06T12:32:55Z</time></trkpt>
<trkpt lat="25.933419" lon="100.096975">
<time>2015-08-06T12:32:56Z</time></trkpt>
<trkpt lat="25.933269" lon="100.097085">
<time>2015-08-06T12:32:57Z</time></trkpt>
<trkpt lat="25.933139" lon="100.097205">
<time>2015-08-06T12:32:58Z</time></trkpt>
<trkpt lat="25.932989" lon="100.097345">
<time>2015-08-06T12:32:59Z</time></trkpt>
<trkpt lat="25.932759" lon="100.097565">
<time>2015-08-06T12:33:00Z</time></trkpt>
<trkpt lat="25.932529" lon="100.097775">
<time>2015-08-06T12:33:01Z</time></trkpt>
<trkpt lat="25.932259" lon="100.098035">
<time>2015-08-06T12:33:02Z</time></trkpt>
<trkpt lat="25.931989" lon="100.098295">
<time>2015-08-06T12:33:03Z</time></trkpt>
<trkpt lat="25.931728" lon="100.098535">
<time>2015-08-06T12:33:04Z</time></trkpt>
<trkpt lat="25.931468" lon="100.098785">
<time>2015-08-06T12:33:05Z</time></trkpt>
<trkpt lat="25.931198" lon="100.099045">
<time>2015-08-06T12:33:06Z</time></trkpt>
<trkpt lat="25.931098" lon="100.099145">
<time>2015-08-06T12:33:07Z</time></trkpt>
<trkpt lat="25.930938" lon="100.099295">
<time>2015-08-06T12:33:08Z</time></trkpt>
<trkpt lat="25.930598" lon="100.099615">
<time>2015-08-06T12:33:09Z</time></trkpt>
<trkpt lat="25.930307" lon="100.099875">
<time>2015-08-06T12:33:10Z</time></trkpt>
<trkpt lat="25.930057" lon="100.100105">
<time>2015-08-06T12:33:11Z</time></trkpt>
<trkpt lat="25.929737" lon="100.100375">
<time>2015-08-06T12:33:12Z</time></trkpt>
<trkpt lat="25.929447" lon="100.100616">
<time>2015-08-06T12:33:13Z</time></trkpt>
<trkpt lat="25.929137" lon="100.100876">
<time>2015-08-06T12:33:14Z</time></trkpt>
<trkpt lat="25.928847" lon="100.101116">
<time>2015-08-06T12:33:15Z</time></trkpt>
<trkpt lat="25.928577" lon="100.101366">
<time>2015-08-06T12:33:16Z</time></trkpt>
<trkpt lat="25.928426" lon="100.101536">
<time>2015-08-06T12:33:17Z</time></trkpt>
<trkpt lat="25.928306" lon="100.101686">
<time>2015-08-06T12:33:18Z</time></trkpt>
<trkpt lat="25.928096" lon="100.102006">
<time>2015-08-06T12:33:19Z</time></trkpt>
<trkpt lat="25.927876" lon="100.102346">
<time>2015-08-06T12:33:20Z</time></trkpt>
<trkpt lat="25.927526" lon="100.102896">
<time>2015-08-06T12:33:21Z</time></trkpt>
<trkpt lat="25.927446" lon="100.103016">
<time>2015-08-06T12:33:22Z</time></trkpt>
<trkpt lat="25.927336" lon="100.103146">
<time>2015-08-06T12:33:23Z</time></trkpt>
<trkpt lat="25.927226" lon="100.103256">
<time>2015-08-06T12:33:24Z</time></trkpt>
<trkpt lat="25.927086" lon="100.103386">
<time>2015-08-06T12:33:25Z</time></trkpt>
<trkpt lat="25.926836" lon="100.103586">
<time>2015-08-06T12:33:26Z</time></trkpt>
<trkpt lat="25.926586" lon="100.103747">
<time>2015-08-06T12:33:27Z</time></trkpt>
<trkpt lat="25.926296" lon="100.103907">
<time>2015-08-06T12:33:28Z</time></trkpt>
<trkpt lat="25.926015" lon="100.104057">
<time>2015-08-06T12:33:29Z</time></trkpt>
<trkpt lat="25.925755" lon="100.104207">
<time>2015-08-06T12:33:30Z</time></trkpt>
<trkpt lat="25.925525" lon="100.104327">
<time>2015-08-06T12:33:31Z</time></trkpt>
<trkpt lat="25.925315" lon="100.104427">
<time>2015-08-06T12:33:32Z</time></trkpt>
<trkpt lat="25.925115" lon="100.104517">
<time>2015-08-06T12:33:33Z</time></trkpt>
<trkpt lat="25.924925" lon="100.104627">
<time>2015-08-06T12:33:34Z</time></trkpt>
<trkpt lat="25.924735" lon="100.104727">
<time>2015-08-06T12:33:35Z</time></trkpt>
<trkpt lat="25.924525" lon="100.104847">
<time>2015-08-06T12:33:36Z</time></trkpt>
<trkpt lat="25.924285" lon="100.104967">
<time>2015-08-06T12:33:37Z</time></trkpt>
<trkpt lat="25.924064" lon="100.105077">
<time>2015-08-06T12:33:38Z</time></trkpt>
<trkpt lat="25.923824" lon="100.105207">
<time>2015-08-06T12:33:39Z</time></trkpt>
<trkpt lat="25.923564" lon="100.105317">
<time>2015-08-06T12:33:40Z</time></trkpt>
<trkpt lat="25.923274" lon="100.105457">
<time>2015-08-06T12:33:41Z</time></trkpt>
<trkpt lat="25.923134" lon="100.105537">
<time>2015-08-06T12:33:42Z</time></trkpt>
<trkpt lat="25.922994" lon="100.105597">
<time>2015-08-06T12:33:43Z</time></trkpt>
<trkpt lat="25.922664" lon="100.105737">
<time>2015-08-06T12:33:44Z</time></trkpt>
<trkpt lat="25.922384" lon="100.105868">
<time>2015-08-06T12:33:45Z</time></trkpt>
<trkpt lat="25.922133" lon="100.105978">
<time>2015-08-06T12:33:46Z</time></trkpt>
<trkpt lat="25.922063" lon="100.106008">
<time>2015-08-06T12:33:47Z</time></trkpt>
<trkpt lat="25.921743" lon="100.106138">
<time>2015-08-06T12:33:48Z</time></trkpt>
<trkpt lat="25.921413" lon="100.106288">
<time>2015-08-06T12:33:49Z</time></trkpt>
<trkpt lat="25.921063" lon="100.106438">
<time>2015-08-06T12:33:50Z</time></trkpt>
<trkpt lat="25.920783" lon="100.106578">
<time>2015-08-06T12:33:51Z</time></trkpt>
<trkpt lat="25.920443" lon="100.106718">
<time>2015-08-06T12:33:52Z</time></trkpt>
<trkpt lat="25.920102" lon="100.106868">
<time>2015-08-06T12:33:53Z</time></trkpt>
<trkpt lat="25.919752" lon="100.107018">
<time>2015-08-06T12:33:54Z</time></trkpt>
<trkpt lat="25.919402" lon="100.107168">
<time>2015-08-06T12:33:55Z</time></trkpt>
<trkpt lat="25.919192" lon="100.107258">
<time>2015-08-06T12:33:56Z</time></trkpt>
<trkpt lat="25.919062" lon="100.107308">
<time>2015-08-06T12:33:57Z</time></trkpt>
<trkpt lat="25.918702" lon="100.107468">
<time>2015-08-06T12:33:58Z</time></trkpt>
<trkpt lat="25.918362" lon="100.107619">
<time>2015-08-06T12:33:59Z</time></trkpt>
<trkpt lat="25.918001" lon="100.107769">
<time>2015-08-06T12:34:00Z</time></trkpt>
<trkpt lat="25.917651" lon="100.107929">
<time>2015-08-06T12:34:01Z</time></trkpt>
<trkpt lat="25.917291" lon="100.108079">
<time>2015-08-06T12:34:02Z</time></trkpt>
<trkpt lat="25.916921" lon="100.108239">
<time>2015-08-06T12:34:03Z</time></trkpt>
<trkpt lat="25.916681" lon="100.108349">
<time>2015-08-06T12:34:04Z</time></trkpt>
<trkpt lat="25.916581" lon="100.108399">
<time>2015-08-06T12:34:05Z</time></trkpt>
<trkpt lat="25.91584" lon="100.108719">
<time>2015-08-06T12:34:06Z</time></trkpt>
<trkpt lat="25.91431" lon="100.1094">
<time>2015-08-06T12:34:07Z</time></trkpt>
<trkpt lat="25.913549" lon="100.10977">
<time>2015-08-06T12:34:08Z</time></trkpt>
<trkpt lat="25.912939" lon="100.11006">
<time>2015-08-06T12:34:09Z</time></trkpt>
<trkpt lat="25.911899" lon="100.110591">
<time>2015-08-06T12:34:10Z</time></trkpt>
<trkpt lat="25.910818" lon="100.111141">
<time>2015-08-06T12:34:11Z</time></trkpt>
<trkpt lat="25.909998" lon="100.111551">
<time>2015-08-06T12:34:12Z</time></trkpt>
<trkpt lat="25.908997" lon="100.112072">
<time>2015-08-06T12:34:13Z</time></trkpt>
<trkpt lat="25.907787" lon="100.112642">
<time>2015-08-06T12:34:14Z</time></trkpt>
<trkpt lat="25.907397" lon="100.112842">
<time>2015-08-06T12:34:15Z</time></trkpt>
<trkpt lat="25.903155" lon="100.114984">
<time>2015-08-06T12:34:16Z</time></trkpt>
<trkpt lat="25.902325" lon="100.115405">
<time>2015-08-06T12:34:17Z</time></trkpt>
<trkpt lat="25.901255" lon="100.115995">
<time>2015-08-06T12:34:18Z</time></trkpt>
<trkpt lat="25.900105" lon="100.116526">
<time>2015-08-06T12:34:19Z</time></trkpt>
<trkpt lat="25.898724" lon="100.117226">
<time>2015-08-06T12:34:20Z</time></trkpt>
<trkpt lat="25.898284" lon="100.117447">
<time>2015-08-06T12:34:21Z</time></trkpt>
<trkpt lat="25.896354" lon="100.118358">
<time>2015-08-06T12:34:22Z</time></trkpt>
<trkpt lat="25.893943" lon="100.119389">
<time>2015-08-06T12:34:23Z</time></trkpt>
<trkpt lat="25.893943" lon="100.119389">
<time>2015-08-06T12:34:24Z</time></trkpt>
<trkpt lat="25.893873" lon="100.119439">
<time>2015-08-06T12:34:25Z</time></trkpt>
<trkpt lat="25.892853" lon="100.119839">
<time>2015-08-06T12:34:26Z</time></trkpt>
<trkpt lat="25.890932" lon="100.12057">
<time>2015-08-06T12:34:27Z</time></trkpt>
<trkpt lat="25.890922" lon="100.12057">
<time>2015-08-06T12:34:28Z</time></trkpt>
<trkpt lat="25.890292" lon="100.12081">
<time>2015-08-06T12:34:29Z</time></trkpt>
<trkpt lat="25.889171" lon="100.121201">
<time>2015-08-06T12:34:30Z</time></trkpt>
<trkpt lat="25.887951" lon="100.121621">
<time>2015-08-06T12:34:31Z</time></trkpt>
<trkpt lat="25.88636" lon="100.122152">
<time>2015-08-06T12:34:32Z</time></trkpt>
<trkpt lat="25.88629" lon="100.122152">
<time>2015-08-06T12:34:33Z</time></trkpt>
<trkpt lat="25.88509" lon="100.122512">
<time>2015-08-06T12:34:34Z</time></trkpt>
<trkpt lat="25.88488" lon="100.122542">
<time>2015-08-06T12:34:35Z</time></trkpt>
<trkpt lat="25.884349" lon="100.122472">
<time>2015-08-06T12:34:36Z</time></trkpt>
<trkpt lat="25.882047" lon="100.121872">
<time>2015-08-06T12:34:37Z</time></trkpt>
<trkpt lat="25.879355" lon="100.121241">
<time>2015-08-06T12:34:38Z</time></trkpt>
<trkpt lat="25.878824" lon="100.121111">
<time>2015-08-06T12:34:39Z</time></trkpt>
<trkpt lat="25.878444" lon="100.121081">
<time>2015-08-06T12:34:40Z</time></trkpt>
<trkpt lat="25.878154" lon="100.121071">
<time>2015-08-06T12:34:41Z</time></trkpt>
<trkpt lat="25.878064" lon="100.121071">
<time>2015-08-06T12:34:42Z</time></trkpt>
<trkpt lat="25.876403" lon="100.121151">
<time>2015-08-06T12:34:43Z</time></trkpt>
<trkpt lat="25.874391" lon="100.121251">
<time>2015-08-06T12:34:44Z</time></trkpt>
<trkpt lat="25.873301" lon="100.121311">
<time>2015-08-06T12:34:45Z</time></trkpt>
<trkpt lat="25.87285" lon="100.121361">
<time>2015-08-06T12:34:46Z</time></trkpt>
<trkpt lat="25.87231" lon="100.121451">
<time>2015-08-06T12:34:47Z</time></trkpt>
<trkpt lat="25.8718" lon="100.121592">
<time>2015-08-06T12:34:48Z</time></trkpt>
<trkpt lat="25.8712" lon="100.121822">
<time>2015-08-06T12:34:49Z</time></trkpt>
<trkpt lat="25.86975" lon="100.122573">
<time>2015-08-06T12:34:50Z</time></trkpt>
<trkpt lat="25.866349" lon="100.124365">
<time>2015-08-06T12:34:51Z</time></trkpt>
<trkpt lat="25.865819" lon="100.124655">
<time>2015-08-06T12:34:52Z</time></trkpt>
<trkpt lat="25.865439" lon="100.124866">
<time>2015-08-06T12:34:53Z</time></trkpt>
<trkpt lat="25.865159" lon="100.125026">
<time>2015-08-06T12:34:54Z</time></trkpt>
<trkpt lat="25.864909" lon="100.125136">
<time>2015-08-06T12:34:55Z</time></trkpt>
<trkpt lat="25.864239" lon="100.125487">
<time>2015-08-06T12:34:56Z</time></trkpt>
<trkpt lat="25.863439" lon="100.125897">
<time>2015-08-06T12:34:57Z</time></trkpt>
<trkpt lat="25.862509" lon="100.126398">
<time>2015-08-06T12:34:58Z</time></trkpt>
<trkpt lat="25.861869" lon="100.126728">
<time>2015-08-06T12:34:59Z</time></trkpt>
<trkpt lat="25.860949" lon="100.127219">
<time>2015-08-06T12:35:00Z</time></trkpt>
<trkpt lat="25.859809" lon="100.12787">
<time>2015-08-06T12:35:01Z</time></trkpt>
<trkpt lat="25.859579" lon="100.12796">
<time>2015-08-06T12:35:02Z</time></trkpt>
<trkpt lat="25.859579" lon="100.12796">
<time>2015-08-06T12:35:03Z</time></trkpt>
<trkpt lat="25.859679" lon="100.12809">
<time>2015-08-06T12:35:04Z</time></trkpt>
<trkpt lat="25.859679" lon="100.12809">
<time>2015-08-06T12:35:05Z</time></trkpt>
<trkpt lat="25.85886" lon="100.129392">
<time>2015-08-06T12:35:06Z</time></trkpt>
<trkpt lat="25.85882" lon="100.129542">
<time>2015-08-06T12:35:07Z</time></trkpt>
<trkpt lat="25.85881" lon="100.129562">
<time>2015-08-06T12:35:08Z</time></trkpt>
<trkpt lat="25.8588" lon="100.129572">
<time>2015-08-06T12:35:09Z</time></trkpt>
<trkpt lat="25.85867" lon="100.129702">
<time>2015-08-06T12:35:10Z</time></trkpt>
<trkpt lat="25.85859" lon="100.129813">
<time>2015-08-06T12:35:11Z</time></trkpt>
<trkpt lat="25.85858" lon="100.129833">
<time>2015-08-06T12:35:12Z</time></trkpt>
<trkpt lat="25.85858" lon="100.129853">
<time>2015-08-06T12:35:13Z</time></trkpt>
<trkpt lat="25.85855" lon="100.129953">
<time>2015-08-06T12:35:14Z</time></trkpt>
<trkpt lat="25.85855" lon="100.129973">
<time>2015-08-06T12:35:15Z</time></trkpt>
<trkpt lat="25.85854" lon="100.129993">
<time>2015-08-06T12:35:16Z</time></trkpt>
<trkpt lat="25.858341" lon="100.130193">
<time>2015-08-06T12:35:17Z</time></trkpt>
<trkpt lat="25.858111" lon="100.130323">
<time>2015-08-06T12:35:18Z</time></trkpt>
<trkpt lat="25.858011" lon="100.130453">
<time>2015-08-06T12:35:19Z</time></trkpt>
<trkpt lat="25.857801" lon="100.130654">
<time>2015-08-06T12:35:20Z</time></trkpt>
<trkpt lat="25.857621" lon="100.130784">
<time>2015-08-06T12:35:21Z</time></trkpt>
<trkpt lat="25.857461" lon="100.130824">
<time>2015-08-06T12:35:22Z</time></trkpt>
<trkpt lat="25.857291" lon="100.130894">
<time>2015-08-06T12:35:23Z</time></trkpt>
<trkpt lat="25.857151" lon="100.130994">
<time>2015-08-06T12:35:24Z</time></trkpt>
<trkpt lat="25.856991" lon="100.131064">
<time>2015-08-06T12:35:25Z</time></trkpt>
<trkpt lat="25.856931" lon="100.131064">
<time>2015-08-06T12:35:26Z</time></trkpt>
<trkpt lat="25.85664" lon="100.131004">
<time>2015-08-06T12:35:27Z</time></trkpt>
<trkpt lat="25.85629" lon="100.130944">
<time>2015-08-06T12:35:28Z</time></trkpt>
<trkpt lat="25.85629" lon="100.130944">
<time>2015-08-06T12:35:29Z</time></trkpt>
<trkpt lat="25.85617" lon="100.131215">
<time>2015-08-06T12:35:30Z</time></trkpt>
<trkpt lat="25.85614" lon="100.131255">
<time>2015-08-06T12:35:31Z</time></trkpt>
<trkpt lat="25.856121" lon="100.131295">
<time>2015-08-06T12:35:32Z</time></trkpt>
<trkpt lat="25.856081" lon="100.131335">
<time>2015-08-06T12:35:33Z</time></trkpt>
<trkpt lat="25.856051" lon="100.131345">
<time>2015-08-06T12:35:34Z</time></trkpt>
<trkpt lat="25.856021" lon="100.131375">
<time>2015-08-06T12:35:35Z</time></trkpt>
<trkpt lat="25.855971" lon="100.131395">
<time>2015-08-06T12:35:36Z</time></trkpt>
<trkpt lat="25.855951" lon="100.131405">
<time>2015-08-06T12:35:37Z</time></trkpt>
<trkpt lat="25.855831" lon="100.131435">
<time>2015-08-06T12:35:38Z</time></trkpt>
<trkpt lat="25.85566" lon="100.131475">
<time>2015-08-06T12:35:39Z</time></trkpt>
<trkpt lat="25.85508" lon="100.131605">
<time>2015-08-06T12:35:40Z</time></trkpt>
<trkpt lat="25.85434" lon="100.131745">
<time>2015-08-06T12:35:41Z</time></trkpt>
<trkpt lat="25.85326" lon="100.132026">
<time>2015-08-06T12:35:42Z</time></trkpt>
<trkpt lat="25.85324" lon="100.132036">
<time>2015-08-06T12:35:43Z</time></trkpt>
<trkpt lat="25.852119" lon="100.132406">
<time>2015-08-06T12:35:44Z</time></trkpt>
<trkpt lat="25.852119" lon="100.132406">
<time>2015-08-06T12:35:45Z</time></trkpt>
<trkpt lat="25.851919" lon="100.132416">
<time>2015-08-06T12:35:46Z</time></trkpt>
<trkpt lat="25.851729" lon="100.132427">
<time>2015-08-06T12:35:47Z</time></trkpt>
<trkpt lat="25.851519" lon="100.132447">
<time>2015-08-06T12:35:48Z</time></trkpt>
<trkpt lat="25.851299" lon="100.132487">
<time>2015-08-06T12:35:49Z</time></trkpt>
<trkpt lat="25.851109" lon="100.132517">
<time>2015-08-06T12:35:50Z</time></trkpt>
<trkpt lat="25.850889" lon="100.132587">
<time>2015-08-06T12:35:51Z</time></trkpt>
<trkpt lat="25.850479" lon="100.132727">
<time>2015-08-06T12:35:52Z</time></trkpt>
<trkpt lat="25.849968" lon="100.132857">
<time>2015-08-06T12:35:53Z</time></trkpt>
<trkpt lat="25.849828" lon="100.132897">
<time>2015-08-06T12:35:54Z</time></trkpt>
<trkpt lat="25.849678" lon="100.132917">
<time>2015-08-06T12:35:55Z</time></trkpt>
<trkpt lat="25.849618" lon="100.132907">
<time>2015-08-06T12:35:56Z</time></trkpt>
<trkpt lat="25.849378" lon="100.132887">
<time>2015-08-06T12:35:57Z</time></trkpt>
<trkpt lat="25.849018" lon="100.132897">
<time>2015-08-06T12:35:58Z</time></trkpt>
<trkpt lat="25.848868" lon="100.132917">
<time>2015-08-06T12:35:59Z</time></trkpt>
<trkpt lat="25.848468" lon="100.133017">
<time>2015-08-06T12:36:00Z</time></trkpt>
<trkpt lat="25.848418" lon="100.133017">
<time>2015-08-06T12:36:01Z</time></trkpt>
<trkpt lat="25.848298" lon="100.133018">
<time>2015-08-06T12:36:02Z</time></trkpt>
<trkpt lat="25.847847" lon="100.132907">
<time>2015-08-06T12:36:03Z</time></trkpt>
<trkpt lat="25.847577" lon="100.132837">
<time>2015-08-06T12:36:04Z</time></trkpt>
<trkpt lat="25.847096" lon="100.132757">
<time>2015-08-06T12:36:05Z</time></trkpt>
<trkpt lat="25.846706" lon="100.132667">
<time>2015-08-06T12:36:06Z</time></trkpt>
<trkpt lat="25.846196" lon="100.132577">
<time>2015-08-06T12:36:07Z</time></trkpt>
<trkpt lat="25.845685" lon="100.132457">
<time>2015-08-06T12:36:08Z</time></trkpt>
<trkpt lat="25.845495" lon="100.132387">
<time>2015-08-06T12:36:09Z</time></trkpt>
<trkpt lat="25.845325" lon="100.132347">
<time>2015-08-06T12:36:10Z</time></trkpt>
<trkpt lat="25.845325" lon="100.132347">
<time>2015-08-06T12:36:11Z</time></trkpt>
<trkpt lat="25.844314" lon="100.132437">
<time>2015-08-06T12:36:12Z</time></trkpt>
<trkpt lat="25.843774" lon="100.132487">
<time>2015-08-06T12:36:13Z</time></trkpt>
<trkpt lat="25.842343" lon="100.132627">
<time>2015-08-06T12:36:14Z</time></trkpt>
<trkpt lat="25.841423" lon="100.132697">
<time>2015-08-06T12:36:15Z</time></trkpt>
<trkpt lat="25.840002" lon="100.132757">
<time>2015-08-06T12:36:16Z</time></trkpt>
<trkpt lat="25.838951" lon="100.132767">
<time>2015-08-06T12:36:17Z</time></trkpt>
<trkpt lat="25.838641" lon="100.132767">
<time>2015-08-06T12:36:18Z</time></trkpt>
<trkpt lat="25.838121" lon="100.132787">
<time>2015-08-06T12:36:19Z</time></trkpt>
<trkpt lat="25.83729" lon="100.132817">
<time>2015-08-06T12:36:20Z</time></trkpt>
<trkpt lat="25.83718" lon="100.132817">
<time>2015-08-06T12:36:21Z</time></trkpt>
<trkpt lat="25.835959" lon="100.132878">
<time>2015-08-06T12:36:22Z</time></trkpt>
<trkpt lat="25.835289" lon="100.132888">
<time>2015-08-06T12:36:23Z</time></trkpt>
<trkpt lat="25.834238" lon="100.132938">
<time>2015-08-06T12:36:24Z</time></trkpt>
<trkpt lat="25.834038" lon="100.132948">
<time>2015-08-06T12:36:25Z</time></trkpt>
<trkpt lat="25.833598" lon="100.132968">
<time>2015-08-06T12:36:26Z</time></trkpt>
<trkpt lat="25.833348" lon="100.132988">
<time>2015-08-06T12:36:27Z</time></trkpt>
<trkpt lat="25.833238" lon="100.132988">
<time>2015-08-06T12:36:28Z</time></trkpt>
<trkpt lat="25.832517" lon="100.133008">
<time>2015-08-06T12:36:29Z</time></trkpt>
<trkpt lat="25.831196" lon="100.133058">
<time>2015-08-06T12:36:30Z</time></trkpt>
<trkpt lat="25.830436" lon="100.133118">
<time>2015-08-06T12:36:31Z</time></trkpt>
<trkpt lat="25.830056" lon="100.133138">
<time>2015-08-06T12:36:32Z</time></trkpt>
<trkpt lat="25.829886" lon="100.133138">
<time>2015-08-06T12:36:33Z</time></trkpt>
<trkpt lat="25.829465" lon="100.133178">
<time>2015-08-06T12:36:34Z</time></trkpt>
<trkpt lat="25.828975" lon="100.133258">
<time>2015-08-06T12:36:35Z</time></trkpt>
<trkpt lat="25.828695" lon="100.133288">
<time>2015-08-06T12:36:36Z</time></trkpt>
<trkpt lat="25.827585" lon="100.133429">
<time>2015-08-06T12:36:37Z</time></trkpt>
<trkpt lat="25.827505" lon="100.133439">
<time>2015-08-06T12:36:38Z</time></trkpt>
<trkpt lat="25.827364" lon="100.133469">
<time>2015-08-06T12:36:39Z</time></trkpt>
<trkpt lat="25.827174" lon="100.133489">
<time>2015-08-06T12:36:40Z</time></trkpt>
<trkpt lat="25.826634" lon="100.133549">
<time>2015-08-06T12:36:41Z</time></trkpt>
<trkpt lat="25.826324" lon="100.133569">
<time>2015-08-06T12:36:42Z</time></trkpt>
<trkpt lat="25.826104" lon="100.133589">
<time>2015-08-06T12:36:43Z</time></trkpt>
<trkpt lat="25.825864" lon="100.133609">
<time>2015-08-06T12:36:44Z</time></trkpt>
<trkpt lat="25.825183" lon="100.133649">
<time>2015-08-06T12:36:45Z</time></trkpt>
<trkpt lat="25.824723" lon="100.133649">
<time>2015-08-06T12:36:46Z</time></trkpt>
<trkpt lat="25.824273" lon="100.133669">
<time>2015-08-06T12:36:47Z</time></trkpt>
<trkpt lat="25.823822" lon="100.133659">
<time>2015-08-06T12:36:48Z</time></trkpt>
<trkpt lat="25.823022" lon="100.133669">
<time>2015-08-06T12:36:49Z</time></trkpt>
<trkpt lat="25.822472" lon="100.133669">
<time>2015-08-06T12:36:50Z</time></trkpt>
<trkpt lat="25.821831" lon="100.133689">
<time>2015-08-06T12:36:51Z</time></trkpt>
<trkpt lat="25.821751" lon="100.133689">
<time>2015-08-06T12:36:52Z</time></trkpt>
<trkpt lat="25.821191" lon="100.133719">
<time>2015-08-06T12:36:53Z</time></trkpt>
<trkpt lat="25.82053" lon="100.133759">
<time>2015-08-06T12:36:54Z</time></trkpt>
<trkpt lat="25.82008" lon="100.133809">
<time>2015-08-06T12:36:55Z</time></trkpt>
<trkpt lat="25.81968" lon="100.133839">
<time>2015-08-06T12:36:56Z</time></trkpt>
<trkpt lat="25.81925" lon="100.13389">
<time>2015-08-06T12:36:57Z</time></trkpt>
<trkpt lat="25.81879" lon="100.13392">
<time>2015-08-06T12:36:58Z</time></trkpt>
<trkpt lat="25.818339" lon="100.13396">
<time>2015-08-06T12:36:59Z</time></trkpt>
<trkpt lat="25.817889" lon="100.13399">
<time>2015-08-06T12:37:00Z</time></trkpt>
<trkpt lat="25.817589" lon="100.13401">
<time>2015-08-06T12:37:01Z</time></trkpt>
<trkpt lat="25.817439" lon="100.13402">
<time>2015-08-06T12:37:02Z</time></trkpt>
<trkpt lat="25.817009" lon="100.13403">
<time>2015-08-06T12:37:03Z</time></trkpt>
<trkpt lat="25.816778" lon="100.13405">
<time>2015-08-06T12:37:04Z</time></trkpt>
<trkpt lat="25.816608" lon="100.13405">
<time>2015-08-06T12:37:05Z</time></trkpt>
<trkpt lat="25.816128" lon="100.13406">
<time>2015-08-06T12:37:06Z</time></trkpt>
<trkpt lat="25.815688" lon="100.13409">
<time>2015-08-06T12:37:07Z</time></trkpt>
<trkpt lat="25.815227" lon="100.13411">
<time>2015-08-06T12:37:08Z</time></trkpt>
<trkpt lat="25.815217" lon="100.13411">
<time>2015-08-06T12:37:09Z</time></trkpt>
<trkpt lat="25.814877" lon="100.13413">
<time>2015-08-06T12:37:10Z</time></trkpt>
<trkpt lat="25.814417" lon="100.13417">
<time>2015-08-06T12:37:11Z</time></trkpt>
<trkpt lat="25.813957" lon="100.1342">
<time>2015-08-06T12:37:12Z</time></trkpt>
<trkpt lat="25.813497" lon="100.13423">
<time>2015-08-06T12:37:13Z</time></trkpt>
<trkpt lat="25.813026" lon="100.13426">
<time>2015-08-06T12:37:14Z</time></trkpt>
<trkpt lat="25.812576" lon="100.13429">
<time>2015-08-06T12:37:15Z</time></trkpt>
<trkpt lat="25.812086" lon="100.13432">
<time>2015-08-06T12:37:16Z</time></trkpt>
<trkpt lat="25.811586" lon="100.134361">
<time>2015-08-06T12:37:17Z</time></trkpt>
<trkpt lat="25.811125" lon="100.134391">
<time>2015-08-06T12:37:18Z</time></trkpt>
<trkpt lat="25.810675" lon="100.134421">
<time>2015-08-06T12:37:19Z</time></trkpt>
<trkpt lat="25.810515" lon="100.134431">
<time>2015-08-06T12:37:20Z</time></trkpt>
<trkpt lat="25.810185" lon="100.134451">
<time>2015-08-06T12:37:21Z</time></trkpt>
<trkpt lat="25.809394" lon="100.134511">
<time>2015-08-06T12:37:22Z</time></trkpt>
<trkpt lat="25.808894" lon="100.134531">
<time>2015-08-06T12:37:23Z</time></trkpt>
<trkpt lat="25.808444" lon="100.134561">
<time>2015-08-06T12:37:24Z</time></trkpt>
<trkpt lat="25.807963" lon="100.134581">
<time>2015-08-06T12:37:25Z</time></trkpt>
<trkpt lat="25.807483" lon="100.134601">
<time>2015-08-06T12:37:26Z</time></trkpt>
<trkpt lat="25.807013" lon="100.134631">
<time>2015-08-06T12:37:27Z</time></trkpt>
<trkpt lat="25.806353" lon="100.134671">
<time>2015-08-06T12:37:28Z</time></trkpt>
<trkpt lat="25.805822" lon="100.134691">
<time>2015-08-06T12:37:29Z</time></trkpt>
<trkpt lat="25.805342" lon="100.134721">
<time>2015-08-06T12:37:30Z</time></trkpt>
<trkpt lat="25.805172" lon="100.134731">
<time>2015-08-06T12:37:31Z</time></trkpt>
<trkpt lat="25.804872" lon="100.134751">
<time>2015-08-06T12:37:32Z</time></trkpt>
<trkpt lat="25.804392" lon="100.134781">
<time>2015-08-06T12:37:33Z</time></trkpt>
<trkpt lat="25.803931" lon="100.134811">
<time>2015-08-06T12:37:34Z</time></trkpt>
<trkpt lat="25.803511" lon="100.134831">
<time>2015-08-06T12:37:35Z</time></trkpt>
<trkpt lat="25.803041" lon="100.134872">
<time>2015-08-06T12:37:36Z</time></trkpt>
<trkpt lat="25.80202" lon="100.134952">
<time>2015-08-06T12:37:37Z</time></trkpt>
<trkpt lat="25.80148" lon="100.134992">
<time>2015-08-06T12:37:38Z</time></trkpt>
<trkpt lat="25.8011" lon="100.135012">
<time>2015-08-06T12:37:39Z</time></trkpt>
<trkpt lat="25.801" lon="100.135022">
<time>2015-08-06T12:37:40Z</time></trkpt>
<trkpt lat="25.800539" lon="100.135062">
<time>2015-08-06T12:37:41Z</time></trkpt>
<trkpt lat="25.800079" lon="100.135092">
<time>2015-08-06T12:37:42Z</time></trkpt>
<trkpt lat="25.799479" lon="100.135132">
<time>2015-08-06T12:37:43Z</time></trkpt>
<trkpt lat="25.799079" lon="100.135152">
<time>2015-08-06T12:37:44Z</time></trkpt>
<trkpt lat="25.798999" lon="100.135162">
<time>2015-08-06T12:37:45Z</time></trkpt>
<trkpt lat="25.798598" lon="100.135192">
<time>2015-08-06T12:37:46Z</time></trkpt>
<trkpt lat="25.798218" lon="100.135232">
<time>2015-08-06T12:37:47Z</time></trkpt>
<trkpt lat="25.797688" lon="100.135262">
<time>2015-08-06T12:37:48Z</time></trkpt>
<trkpt lat="25.797218" lon="100.135282">
<time>2015-08-06T12:37:49Z</time></trkpt>
<trkpt lat="25.796777" lon="100.135322">
<time>2015-08-06T12:37:50Z</time></trkpt>
<trkpt lat="25.796317" lon="100.135362">
<time>2015-08-06T12:37:51Z</time></trkpt>
<trkpt lat="25.795947" lon="100.135383">
<time>2015-08-06T12:37:52Z</time></trkpt>
<trkpt lat="25.795497" lon="100.135423">
<time>2015-08-06T12:37:53Z</time></trkpt>
<trkpt lat="25.795017" lon="100.135453">
<time>2015-08-06T12:37:54Z</time></trkpt>
<trkpt lat="25.794576" lon="100.135483">
<time>2015-08-06T12:37:55Z</time></trkpt>
<trkpt lat="25.794306" lon="100.135503">
<time>2015-08-06T12:37:56Z</time></trkpt>
<trkpt lat="25.793836" lon="100.135543">
<time>2015-08-06T12:37:57Z</time></trkpt>
<trkpt lat="25.793556" lon="100.135563">
<time>2015-08-06T12:37:58Z</time></trkpt>
<trkpt lat="25.793406" lon="100.135573">
<time>2015-08-06T12:37:59Z</time></trkpt>
<trkpt lat="25.792695" lon="100.135613">
<time>2015-08-06T12:38:00Z</time></trkpt>
<trkpt lat="25.791825" lon="100.135683">
<time>2015-08-06T12:38:01Z</time></trkpt>
<trkpt lat="25.791545" lon="100.135703">
<time>2015-08-06T12:38:02Z</time></trkpt>
<trkpt lat="25.791024" lon="100.135743">
<time>2015-08-06T12:38:03Z</time></trkpt>
<trkpt lat="25.790564" lon="100.135783">
<time>2015-08-06T12:38:04Z</time></trkpt>
<trkpt lat="25.790104" lon="100.135823">
<time>2015-08-06T12:38:05Z</time></trkpt>
<trkpt lat="25.790064" lon="100.135823">
<time>2015-08-06T12:38:06Z</time></trkpt>
<trkpt lat="25.789924" lon="100.135833">
<time>2015-08-06T12:38:07Z</time></trkpt>
<trkpt lat="25.789784" lon="100.135853">
<time>2015-08-06T12:38:08Z</time></trkpt>
<trkpt lat="25.789644" lon="100.135863">
<time>2015-08-06T12:38:09Z</time></trkpt>
<trkpt lat="25.789184" lon="100.135904">
<time>2015-08-06T12:38:10Z</time></trkpt>
<trkpt lat="25.788743" lon="100.135934">
<time>2015-08-06T12:38:11Z</time></trkpt>
<trkpt lat="25.788273" lon="100.135964">
<time>2015-08-06T12:38:12Z</time></trkpt>
<trkpt lat="25.787843" lon="100.135994">
<time>2015-08-06T12:38:13Z</time></trkpt>
<trkpt lat="25.787793" lon="100.135994">
<time>2015-08-06T12:38:14Z</time></trkpt>
<trkpt lat="25.787182" lon="100.136034">
<time>2015-08-06T12:38:15Z</time></trkpt>
<trkpt lat="25.786962" lon="100.136054">
<time>2015-08-06T12:38:16Z</time></trkpt>
<trkpt lat="25.786662" lon="100.136074">
<time>2015-08-06T12:38:17Z</time></trkpt>
<trkpt lat="25.786182" lon="100.136124">
<time>2015-08-06T12:38:18Z</time></trkpt>
<trkpt lat="25.785782" lon="100.136154">
<time>2015-08-06T12:38:19Z</time></trkpt>
<trkpt lat="25.785331" lon="100.136184">
<time>2015-08-06T12:38:20Z</time></trkpt>
<trkpt lat="25.784891" lon="100.136224">
<time>2015-08-06T12:38:21Z</time></trkpt>
<trkpt lat="25.784421" lon="100.136254">
<time>2015-08-06T12:38:22Z</time></trkpt>
<trkpt lat="25.784021" lon="100.136294">
<time>2015-08-06T12:38:23Z</time></trkpt>
<trkpt lat="25.783701" lon="100.136324">
<time>2015-08-06T12:38:24Z</time></trkpt>
<trkpt lat="25.783551" lon="100.136334">
<time>2015-08-06T12:38:25Z</time></trkpt>
<trkpt lat="25.78273" lon="100.136394">
<time>2015-08-06T12:38:26Z</time></trkpt>
<trkpt lat="25.78225" lon="100.136425">
<time>2015-08-06T12:38:27Z</time></trkpt>
<trkpt lat="25.7818" lon="100.136455">
<time>2015-08-06T12:38:28Z</time></trkpt>
<trkpt lat="25.7814" lon="100.136495">
<time>2015-08-06T12:38:29Z</time></trkpt>
<trkpt lat="25.780919" lon="100.136535">
<time>2015-08-06T12:38:30Z</time></trkpt>
<trkpt lat="25.780459" lon="100.136575">
<time>2015-08-06T12:38:31Z</time></trkpt>
<trkpt lat="25.780009" lon="100.136605">
<time>2015-08-06T12:38:32Z</time></trkpt>
<trkpt lat="25.779569" lon="100.136645">
<time>2015-08-06T12:38:33Z</time></trkpt>
<trkpt lat="25.779108" lon="100.136675">
<time>2015-08-06T12:38:34Z</time></trkpt>
<trkpt lat="25.778668" lon="100.136705">
<time>2015-08-06T12:38:35Z</time></trkpt>
<trkpt lat="25.778208" lon="100.136745">
<time>2015-08-06T12:38:36Z</time></trkpt>
<trkpt lat="25.777768" lon="100.136785">
<time>2015-08-06T12:38:37Z</time></trkpt>
<trkpt lat="25.777117" lon="100.136825">
<time>2015-08-06T12:38:38Z</time></trkpt>
<trkpt lat="25.776147" lon="100.136895">
<time>2015-08-06T12:38:39Z</time></trkpt>
<trkpt lat="25.775687" lon="100.136936">
<time>2015-08-06T12:38:40Z</time></trkpt>
<trkpt lat="25.775276" lon="100.136966">
<time>2015-08-06T12:38:41Z</time></trkpt>
<trkpt lat="25.774826" lon="100.137006">
<time>2015-08-06T12:38:42Z</time></trkpt>
<trkpt lat="25.774376" lon="100.137026">
<time>2015-08-06T12:38:43Z</time></trkpt>
<trkpt lat="25.773776" lon="100.137076">
<time>2015-08-06T12:38:44Z</time></trkpt>
<trkpt lat="25.773696" lon="100.137076">
<time>2015-08-06T12:38:45Z</time></trkpt>
<trkpt lat="25.772835" lon="100.137116">
<time>2015-08-06T12:38:46Z</time></trkpt>
<trkpt lat="25.772365" lon="100.137136">
<time>2015-08-06T12:38:47Z</time></trkpt>
<trkpt lat="25.771905" lon="100.137166">
<time>2015-08-06T12:38:48Z</time></trkpt>
<trkpt lat="25.769593" lon="100.137276">
<time>2015-08-06T12:38:49Z</time></trkpt>
<trkpt lat="25.767462" lon="100.137387">
<time>2015-08-06T12:38:50Z</time></trkpt>
<trkpt lat="25.766182" lon="100.137447">
<time>2015-08-06T12:38:51Z</time></trkpt>
<trkpt lat="25.76341" lon="100.137597">
<time>2015-08-06T12:38:52Z</time></trkpt>
<trkpt lat="25.7625" lon="100.137657">
<time>2015-08-06T12:38:53Z</time></trkpt>
<trkpt lat="25.76232" lon="100.137667">
<time>2015-08-06T12:38:54Z</time></trkpt>
<trkpt lat="25.762119" lon="100.137697">
<time>2015-08-06T12:38:55Z</time></trkpt>
<trkpt lat="25.762079" lon="100.137707">
<time>2015-08-06T12:38:56Z</time></trkpt>
<trkpt lat="25.761859" lon="100.137767">
<time>2015-08-06T12:38:57Z</time></trkpt>
<trkpt lat="25.761439" lon="100.137938">
<time>2015-08-06T12:38:58Z</time></trkpt>
<trkpt lat="25.75823" lon="100.139631">
<time>2015-08-06T12:38:59Z</time></trkpt>
<trkpt lat="25.75775" lon="100.139891">
<time>2015-08-06T12:39:00Z</time></trkpt>
<trkpt lat="25.754421" lon="100.141754">
<time>2015-08-06T12:39:01Z</time></trkpt>
<trkpt lat="25.754131" lon="100.141915">
<time>2015-08-06T12:39:02Z</time></trkpt>
<trkpt lat="25.750022" lon="100.144169">
<time>2015-08-06T12:39:03Z</time></trkpt>
<trkpt lat="25.748113" lon="100.145141">
<time>2015-08-06T12:39:04Z</time></trkpt>
<trkpt lat="25.747033" lon="100.145692">
<time>2015-08-06T12:39:05Z</time></trkpt>
<trkpt lat="25.745633" lon="100.146403">
<time>2015-08-06T12:39:06Z</time></trkpt>
<trkpt lat="25.744484" lon="100.147004">
<time>2015-08-06T12:39:07Z</time></trkpt>
<trkpt lat="25.744164" lon="100.147215">
<time>2015-08-06T12:39:08Z</time></trkpt>
<trkpt lat="25.743414" lon="100.147685">
<time>2015-08-06T12:39:09Z</time></trkpt>
<trkpt lat="25.742664" lon="100.148166">
<time>2015-08-06T12:39:10Z</time></trkpt>
<trkpt lat="25.742125" lon="100.148447">
<time>2015-08-06T12:39:11Z</time></trkpt>
<trkpt lat="25.741625" lon="100.148697">
<time>2015-08-06T12:39:12Z</time></trkpt>
<trkpt lat="25.741065" lon="100.149008">
<time>2015-08-06T12:39:13Z</time></trkpt>
<trkpt lat="25.740165" lon="100.149479">
<time>2015-08-06T12:39:14Z</time></trkpt>
<trkpt lat="25.740115" lon="100.149509">
<time>2015-08-06T12:39:15Z</time></trkpt>
<trkpt lat="25.738976" lon="100.15011">
<time>2015-08-06T12:39:16Z</time></trkpt>
<trkpt lat="25.737596" lon="100.150832">
<time>2015-08-06T12:39:17Z</time></trkpt>
<trkpt lat="25.736576" lon="100.151413">
<time>2015-08-06T12:39:18Z</time></trkpt>
<trkpt lat="25.735987" lon="100.151723">
<time>2015-08-06T12:39:19Z</time></trkpt>
<trkpt lat="25.735547" lon="100.151954">
<time>2015-08-06T12:39:20Z</time></trkpt>
<trkpt lat="25.734457" lon="100.152565">
<time>2015-08-06T12:39:21Z</time></trkpt>
<trkpt lat="25.733348" lon="100.153176">
<time>2015-08-06T12:39:22Z</time></trkpt>
<trkpt lat="25.732038" lon="100.153908">
<time>2015-08-06T12:39:23Z</time></trkpt>
<trkpt lat="25.730499" lon="100.15476">
<time>2015-08-06T12:39:24Z</time></trkpt>
<trkpt lat="25.729249" lon="100.155431">
<time>2015-08-06T12:39:25Z</time></trkpt>
<trkpt lat="25.72875" lon="100.155712">
<time>2015-08-06T12:39:26Z</time></trkpt>
<trkpt lat="25.72717" lon="100.156583">
<time>2015-08-06T12:39:27Z</time></trkpt>
<trkpt lat="25.726471" lon="100.156964">
<time>2015-08-06T12:39:28Z</time></trkpt>
<trkpt lat="25.726071" lon="100.157175">
<time>2015-08-06T12:39:29Z</time></trkpt>
<trkpt lat="25.725691" lon="100.157385">
<time>2015-08-06T12:39:30Z</time></trkpt>
<trkpt lat="25.725221" lon="100.157656">
<time>2015-08-06T12:39:31Z</time></trkpt>
<trkpt lat="25.724741" lon="100.157926">
<time>2015-08-06T12:39:32Z</time></trkpt>
<trkpt lat="25.723952" lon="100.158367">
<time>2015-08-06T12:39:33Z</time></trkpt>
<trkpt lat="25.723082" lon="100.158808">
<time>2015-08-06T12:39:34Z</time></trkpt>
<trkpt lat="25.722902" lon="100.158908">
<time>2015-08-06T12:39:35Z</time></trkpt>
<trkpt lat="25.721962" lon="100.159409">
<time>2015-08-06T12:39:36Z</time></trkpt>
<trkpt lat="25.721323" lon="100.15977">
<time>2015-08-06T12:39:37Z</time></trkpt>
<trkpt lat="25.720303" lon="100.160321">
<time>2015-08-06T12:39:38Z</time></trkpt>
<trkpt lat="25.719334" lon="100.160832">
<time>2015-08-06T12:39:39Z</time></trkpt>
<trkpt lat="25.718464" lon="100.161273">
<time>2015-08-06T12:39:40Z</time></trkpt>
<trkpt lat="25.717774" lon="100.161644">
<time>2015-08-06T12:39:41Z</time></trkpt>
<trkpt lat="25.717014" lon="100.162015">
<time>2015-08-06T12:39:42Z</time></trkpt>
<trkpt lat="25.715975" lon="100.162496">
<time>2015-08-06T12:39:43Z</time></trkpt>
<trkpt lat="25.714815" lon="100.163007">
<time>2015-08-06T12:39:44Z</time></trkpt>
<trkpt lat="25.714485" lon="100.163147">
<time>2015-08-06T12:39:45Z</time></trkpt>
<trkpt lat="25.714005" lon="100.163368">
<time>2015-08-06T12:39:46Z</time></trkpt>
<trkpt lat="25.713805" lon="100.163478">
<time>2015-08-06T12:39:47Z</time></trkpt>
<trkpt lat="25.713675" lon="100.163548">
<time>2015-08-06T12:39:48Z</time></trkpt>
<trkpt lat="25.712836" lon="100.163989">
<time>2015-08-06T12:39:49Z</time></trkpt>
<trkpt lat="25.712506" lon="100.164179">
<time>2015-08-06T12:39:50Z</time></trkpt>
<trkpt lat="25.711406" lon="100.164801">
<time>2015-08-06T12:39:51Z</time></trkpt>
<trkpt lat="25.710627" lon="100.165252">
<time>2015-08-06T12:39:52Z</time></trkpt>
<trkpt lat="25.710127" lon="100.165542">
<time>2015-08-06T12:39:53Z</time></trkpt>
<trkpt lat="25.709497" lon="100.165903">
<time>2015-08-06T12:39:54Z</time></trkpt>
<trkpt lat="25.709138" lon="100.166103">
<time>2015-08-06T12:39:55Z</time></trkpt>
<trkpt lat="25.709058" lon="100.166154">
<time>2015-08-06T12:39:56Z</time></trkpt>
<trkpt lat="25.708938" lon="100.166244">
<time>2015-08-06T12:39:57Z</time></trkpt>
<trkpt lat="25.708858" lon="100.166304">
<time>2015-08-06T12:39:58Z</time></trkpt>
<trkpt lat="25.708738" lon="100.166434">
<time>2015-08-06T12:39:59Z</time></trkpt>
<trkpt lat="25.708738" lon="100.166434">
<time>2015-08-06T12:40:00Z</time></trkpt>
<trkpt lat="25.708648" lon="100.166595">
<time>2015-08-06T12:40:01Z</time></trkpt>
<trkpt lat="25.708548" lon="100.166715">
<time>2015-08-06T12:40:02Z</time></trkpt>
<trkpt lat="25.70796" lon="100.167446">
<time>2015-08-06T12:40:03Z</time></trkpt>
<trkpt lat="25.70786" lon="100.167587">
<time>2015-08-06T12:40:04Z</time></trkpt>
<trkpt lat="25.707031" lon="100.168709">
<time>2015-08-06T12:40:05Z</time></trkpt>
<trkpt lat="25.706353" lon="100.169561">
<time>2015-08-06T12:40:06Z</time></trkpt>
<trkpt lat="25.706243" lon="100.169701">
<time>2015-08-06T12:40:07Z</time></trkpt>
<trkpt lat="25.706103" lon="100.169851">
<time>2015-08-06T12:40:08Z</time></trkpt>
<trkpt lat="25.705963" lon="100.169982">
<time>2015-08-06T12:40:09Z</time></trkpt>
<trkpt lat="25.705813" lon="100.170112">
<time>2015-08-06T12:40:10Z</time></trkpt>
<trkpt lat="25.705314" lon="100.170533">
<time>2015-08-06T12:40:11Z</time></trkpt>
<trkpt lat="25.705214" lon="100.170603">
<time>2015-08-06T12:40:12Z</time></trkpt>
<trkpt lat="25.705114" lon="100.170673">
<time>2015-08-06T12:40:13Z</time></trkpt>
<trkpt lat="25.705034" lon="100.170733">
<time>2015-08-06T12:40:14Z</time></trkpt>
<trkpt lat="25.705014" lon="100.170743">
<time>2015-08-06T12:40:15Z</time></trkpt>
<trkpt lat="25.704914" lon="100.170803">
<time>2015-08-06T12:40:16Z</time></trkpt>
<trkpt lat="25.704295" lon="100.171174">
<time>2015-08-06T12:40:17Z</time></trkpt>
<trkpt lat="25.703825" lon="100.171455">
<time>2015-08-06T12:40:18Z</time></trkpt>
<trkpt lat="25.703665" lon="100.171545">
<time>2015-08-06T12:40:19Z</time></trkpt>
<trkpt lat="25.703405" lon="100.171695">
<time>2015-08-06T12:40:20Z</time></trkpt>
<trkpt lat="25.703215" lon="100.171806">
<time>2015-08-06T12:40:21Z</time></trkpt>
<trkpt lat="25.701836" lon="100.172587">
<time>2015-08-06T12:40:22Z</time></trkpt>
<trkpt lat="25.701236" lon="100.172908">
<time>2015-08-06T12:40:23Z</time></trkpt>
<trkpt lat="25.699927" lon="100.17363">
<time>2015-08-06T12:40:24Z</time></trkpt>
<trkpt lat="25.699727" lon="100.17373">
<time>2015-08-06T12:40:25Z</time></trkpt>
<trkpt lat="25.699527" lon="100.17383">
<time>2015-08-06T12:40:26Z</time></trkpt>
<trkpt lat="25.699327" lon="100.17392">
<time>2015-08-06T12:40:27Z</time></trkpt>
<trkpt lat="25.699147" lon="100.17399">
<time>2015-08-06T12:40:28Z</time></trkpt>
<trkpt lat="25.698717" lon="100.174151">
<time>2015-08-06T12:40:29Z</time></trkpt>
<trkpt lat="25.697387" lon="100.174662">
<time>2015-08-06T12:40:30Z</time></trkpt>
<trkpt lat="25.697037" lon="100.174792">
<time>2015-08-06T12:40:31Z</time></trkpt>
<trkpt lat="25.696557" lon="100.174932">
<time>2015-08-06T12:40:32Z</time></trkpt>
<trkpt lat="25.696347" lon="100.174982">
<time>2015-08-06T12:40:33Z</time></trkpt>
<trkpt lat="25.694768" lon="100.175554">
<time>2015-08-06T12:40:34Z</time></trkpt>
<trkpt lat="25.693998" lon="100.175834">
<time>2015-08-06T12:40:35Z</time></trkpt>
<trkpt lat="25.692268" lon="100.176436">
<time>2015-08-06T12:40:36Z</time></trkpt>
<trkpt lat="25.691958" lon="100.176546">
<time>2015-08-06T12:40:37Z</time></trkpt>
<trkpt lat="25.691818" lon="100.176586">
<time>2015-08-06T12:40:38Z</time></trkpt>
<trkpt lat="25.690448" lon="100.177127">
<time>2015-08-06T12:40:39Z</time></trkpt>
<trkpt lat="25.689708" lon="100.177428">
<time>2015-08-06T12:40:40Z</time></trkpt>
<trkpt lat="25.689688" lon="100.177438">
<time>2015-08-06T12:40:41Z</time></trkpt>
<trkpt lat="25.688649" lon="100.177999">
<time>2015-08-06T12:40:42Z</time></trkpt>
<trkpt lat="25.68728" lon="100.178851">
<time>2015-08-06T12:40:43Z</time></trkpt>
<trkpt lat="25.685851" lon="100.179723">
<time>2015-08-06T12:40:44Z</time></trkpt>
<trkpt lat="25.684062" lon="100.180845">
<time>2015-08-06T12:40:45Z</time></trkpt>
<trkpt lat="25.683262" lon="100.181326">
<time>2015-08-06T12:40:46Z</time></trkpt>
<trkpt lat="25.683052" lon="100.181446">
<time>2015-08-06T12:40:47Z</time></trkpt>
<trkpt lat="25.683022" lon="100.181466">
<time>2015-08-06T12:40:48Z</time></trkpt>
<trkpt lat="25.682782" lon="100.181617">
<time>2015-08-06T12:40:49Z</time></trkpt>
<trkpt lat="25.682413" lon="100.181857">
<time>2015-08-06T12:40:50Z</time></trkpt>
<trkpt lat="25.681623" lon="100.182368">
<time>2015-08-06T12:40:51Z</time></trkpt>
<trkpt lat="25.680124" lon="100.18329">
<time>2015-08-06T12:40:52Z</time></trkpt>
<trkpt lat="25.679125" lon="100.183901">
<time>2015-08-06T12:40:53Z</time></trkpt>
<trkpt lat="25.677995" lon="100.184593">
<time>2015-08-06T12:40:54Z</time></trkpt>
<trkpt lat="25.676716" lon="100.185374">
<time>2015-08-06T12:40:55Z</time></trkpt>
<trkpt lat="25.675007" lon="100.186426">
<time>2015-08-06T12:40:56Z</time></trkpt>
<trkpt lat="25.673798" lon="100.187168">
<time>2015-08-06T12:40:57Z</time></trkpt>
<trkpt lat="25.673478" lon="100.187358">
<time>2015-08-06T12:40:58Z</time></trkpt>
<trkpt lat="25.672069" lon="100.18838">
<time>2015-08-06T12:40:59Z</time></trkpt>
<trkpt lat="25.67108" lon="100.189112">
<time>2015-08-06T12:41:00Z</time></trkpt>
<trkpt lat="25.67084" lon="100.189292">
<time>2015-08-06T12:41:01Z</time></trkpt>
<trkpt lat="25.67034" lon="100.189663">
<time>2015-08-06T12:41:02Z</time></trkpt>
<trkpt lat="25.669651" lon="100.190064">
<time>2015-08-06T12:41:03Z</time></trkpt>
<trkpt lat="25.669301" lon="100.190264">
<time>2015-08-06T12:41:04Z</time></trkpt>
<trkpt lat="25.669041" lon="100.190404">
<time>2015-08-06T12:41:05Z</time></trkpt>
<trkpt lat="25.667562" lon="100.191146">
<time>2015-08-06T12:41:06Z</time></trkpt>
<trkpt lat="25.667282" lon="100.191286">
<time>2015-08-06T12:41:07Z</time></trkpt>
<trkpt lat="25.666862" lon="100.191477">
<time>2015-08-06T12:41:08Z</time></trkpt>
<trkpt lat="25.666682" lon="100.191557">
<time>2015-08-06T12:41:09Z</time></trkpt>
<trkpt lat="25.665482" lon="100.192138">
<time>2015-08-06T12:41:10Z</time></trkpt>
<trkpt lat="25.663723" lon="100.193">
<time>2015-08-06T12:41:11Z</time></trkpt>
<trkpt lat="25.662903" lon="100.19348">
<time>2015-08-06T12:41:12Z</time></trkpt>
<trkpt lat="25.662753" lon="100.193581">
<time>2015-08-06T12:41:13Z</time></trkpt>
<trkpt lat="25.661294" lon="100.194542">
<time>2015-08-06T12:41:14Z</time></trkpt>
<trkpt lat="25.660175" lon="100.195264">
<time>2015-08-06T12:41:15Z</time></trkpt>
<trkpt lat="25.659775" lon="100.195504">
<time>2015-08-06T12:41:16Z</time></trkpt>
<trkpt lat="25.659775" lon="100.195514">
<time>2015-08-06T12:41:17Z</time></trkpt>
<trkpt lat="25.659395" lon="100.195695">
<time>2015-08-06T12:41:18Z</time></trkpt>
<trkpt lat="25.658985" lon="100.195885">
<time>2015-08-06T12:41:19Z</time></trkpt>
<trkpt lat="25.658585" lon="100.196045">
<time>2015-08-06T12:41:20Z</time></trkpt>
<trkpt lat="25.657685" lon="100.196426">
<time>2015-08-06T12:41:21Z</time></trkpt>
<trkpt lat="25.656876" lon="100.196787">
<time>2015-08-06T12:41:22Z</time></trkpt>
<trkpt lat="25.656416" lon="100.197007">
<time>2015-08-06T12:41:23Z</time></trkpt>
<trkpt lat="25.656116" lon="100.197147">
<time>2015-08-06T12:41:24Z</time></trkpt>
<trkpt lat="25.654816" lon="100.197799">
<time>2015-08-06T12:41:25Z</time></trkpt>
<trkpt lat="25.653706" lon="100.19834">
<time>2015-08-06T12:41:26Z</time></trkpt>
<trkpt lat="25.653107" lon="100.19864">
<time>2015-08-06T12:41:27Z</time></trkpt>
<trkpt lat="25.652267" lon="100.199051">
<time>2015-08-06T12:41:28Z</time></trkpt>
<trkpt lat="25.651737" lon="100.199321">
<time>2015-08-06T12:41:29Z</time></trkpt>
<trkpt lat="25.650957" lon="100.199762">
<time>2015-08-06T12:41:30Z</time></trkpt>
<trkpt lat="25.649828" lon="100.200423">
<time>2015-08-06T12:41:31Z</time></trkpt>
<trkpt lat="25.649038" lon="100.200894">
<time>2015-08-06T12:41:32Z</time></trkpt>
<trkpt lat="25.648528" lon="100.201185">
<time>2015-08-06T12:41:33Z</time></trkpt>
<trkpt lat="25.647569" lon="100.201655">
<time>2015-08-06T12:41:34Z</time></trkpt>
<trkpt lat="25.646569" lon="100.202106">
<time>2015-08-06T12:41:35Z</time></trkpt>
<trkpt lat="25.646249" lon="100.202216">
<time>2015-08-06T12:41:36Z</time></trkpt>
<trkpt lat="25.644719" lon="100.202747">
<time>2015-08-06T12:41:37Z</time></trkpt>
<trkpt lat="25.644639" lon="100.202787">
<time>2015-08-06T12:41:38Z</time></trkpt>
<trkpt lat="25.644199" lon="100.202978">
<time>2015-08-06T12:41:39Z</time></trkpt>
<trkpt lat="25.643119" lon="100.203499">
<time>2015-08-06T12:41:40Z</time></trkpt>
<trkpt lat="25.64236" lon="100.203949">
<time>2015-08-06T12:41:41Z</time></trkpt>
<trkpt lat="25.64132" lon="100.20453">
<time>2015-08-06T12:41:42Z</time></trkpt>
<trkpt lat="25.6409" lon="100.204771">
<time>2015-08-06T12:41:43Z</time></trkpt>
<trkpt lat="25.64079" lon="100.204821">
<time>2015-08-06T12:41:44Z</time></trkpt>
<trkpt lat="25.639111" lon="100.205843">
<time>2015-08-06T12:41:45Z</time></trkpt>
<trkpt lat="25.637821" lon="100.206604">
<time>2015-08-06T12:41:46Z</time></trkpt>
<trkpt lat="25.637441" lon="100.206834">
<time>2015-08-06T12:41:47Z</time></trkpt>
<trkpt lat="25.636412" lon="100.207425">
<time>2015-08-06T12:41:48Z</time></trkpt>
<trkpt lat="25.635842" lon="100.207756">
<time>2015-08-06T12:41:49Z</time></trkpt>
<trkpt lat="25.634502" lon="100.208497">
<time>2015-08-06T12:41:50Z</time></trkpt>
<trkpt lat="25.634112" lon="100.208717">
<time>2015-08-06T12:41:51Z</time></trkpt>
<trkpt lat="25.632883" lon="100.209398">
<time>2015-08-06T12:41:52Z</time></trkpt>
<trkpt lat="25.632433" lon="100.209649">
<time>2015-08-06T12:41:53Z</time></trkpt>
<trkpt lat="25.632183" lon="100.209789">
<time>2015-08-06T12:41:54Z</time></trkpt>
<trkpt lat="25.630913" lon="100.21049">
<time>2015-08-06T12:41:55Z</time></trkpt>
<trkpt lat="25.630823" lon="100.21054">
<time>2015-08-06T12:41:56Z</time></trkpt>
<trkpt lat="25.629653" lon="100.211181">
<time>2015-08-06T12:41:57Z</time></trkpt>
<trkpt lat="25.628324" lon="100.211912">
<time>2015-08-06T12:41:58Z</time></trkpt>
<trkpt lat="25.627954" lon="100.212112">
<time>2015-08-06T12:41:59Z</time></trkpt>
<trkpt lat="25.627674" lon="100.212262">
<time>2015-08-06T12:42:00Z</time></trkpt>
<trkpt lat="25.627324" lon="100.212463">
<time>2015-08-06T12:42:01Z</time></trkpt>
<trkpt lat="25.627244" lon="100.212513">
<time>2015-08-06T12:42:02Z</time></trkpt>
<trkpt lat="25.626534" lon="100.212903">
<time>2015-08-06T12:42:03Z</time></trkpt>
<trkpt lat="25.625465" lon="100.213584">
<time>2015-08-06T12:42:04Z</time></trkpt>
<trkpt lat="25.624965" lon="100.213945">
<time>2015-08-06T12:42:05Z</time></trkpt>
<trkpt lat="25.624925" lon="100.213975">
<time>2015-08-06T12:42:06Z</time></trkpt>
<trkpt lat="25.624765" lon="100.214095">
<time>2015-08-06T12:42:07Z</time></trkpt>
<trkpt lat="25.624095" lon="100.214616">
<time>2015-08-06T12:42:08Z</time></trkpt>
<trkpt lat="25.623435" lon="100.215086">
<time>2015-08-06T12:42:09Z</time></trkpt>
<trkpt lat="25.623335" lon="100.215156">
<time>2015-08-06T12:42:10Z</time></trkpt>
<trkpt lat="25.623245" lon="100.215216">
<time>2015-08-06T12:42:11Z</time></trkpt>
<trkpt lat="25.622596" lon="100.215597">
<time>2015-08-06T12:42:12Z</time></trkpt>
<trkpt lat="25.622576" lon="100.215627">
<time>2015-08-06T12:42:13Z</time></trkpt>
<trkpt lat="25.622576" lon="100.215627">
<time>2015-08-06T12:42:14Z</time></trkpt>
<trkpt lat="25.622116" lon="100.215897">
<time>2015-08-06T12:42:15Z</time></trkpt>
<trkpt lat="25.621176" lon="100.216468">
<time>2015-08-06T12:42:16Z</time></trkpt>
<trkpt lat="25.620516" lon="100.216869">
<time>2015-08-06T12:42:17Z</time></trkpt>
<trkpt lat="25.620126" lon="100.217099">
<time>2015-08-06T12:42:18Z</time></trkpt>
<trkpt lat="25.620056" lon="100.217149">
<time>2015-08-06T12:42:19Z</time></trkpt>
<trkpt lat="25.620006" lon="100.217169">
<time>2015-08-06T12:42:20Z</time></trkpt>
<trkpt lat="25.619376" lon="100.217549">
<time>2015-08-06T12:42:21Z</time></trkpt>
<trkpt lat="25.619226" lon="100.21763">
<time>2015-08-06T12:42:22Z</time></trkpt>
<trkpt lat="25.617897" lon="100.218421">
<time>2015-08-06T12:42:23Z</time></trkpt>
<trkpt lat="25.617587" lon="100.218601">
<time>2015-08-06T12:42:24Z</time></trkpt>
<trkpt lat="25.617157" lon="100.218831">
<time>2015-08-06T12:42:25Z</time></trkpt>
<trkpt lat="25.617127" lon="100.218841">
<time>2015-08-06T12:42:26Z</time></trkpt>
<trkpt lat="25.616217" lon="100.219121">
<time>2015-08-06T12:42:27Z</time></trkpt>
<trkpt lat="25.615606" lon="100.219302">
<time>2015-08-06T12:42:28Z</time></trkpt>
<trkpt lat="25.614616" lon="100.219622">
<time>2015-08-06T12:42:29Z</time></trkpt>
<trkpt lat="25.613966" lon="100.219822">
<time>2015-08-06T12:42:30Z</time></trkpt>
<trkpt lat="25.613016" lon="100.220143">
<time>2015-08-06T12:42:31Z</time></trkpt>
<trkpt lat="25.612336" lon="100.220373">
<time>2015-08-06T12:42:32Z</time></trkpt>
<trkpt lat="25.611896" lon="100.220493">
<time>2015-08-06T12:42:33Z</time></trkpt>
<trkpt lat="25.611656" lon="100.220553">
<time>2015-08-06T12:42:34Z</time></trkpt>
<trkpt lat="25.611606" lon="100.220573">
<time>2015-08-06T12:42:35Z</time></trkpt>
<trkpt lat="25.609645" lon="100.220904">
<time>2015-08-06T12:42:36Z</time></trkpt>
<trkpt lat="25.608925" lon="100.221024">
<time>2015-08-06T12:42:37Z</time></trkpt>
<trkpt lat="25.608765" lon="100.221054">
<time>2015-08-06T12:42:38Z</time></trkpt>
<trkpt lat="25.608075" lon="100.221204">
<time>2015-08-06T12:42:39Z</time></trkpt>
<trkpt lat="25.607995" lon="100.221224">
<time>2015-08-06T12:42:40Z</time></trkpt>
<trkpt lat="25.606494" lon="100.221304">
<time>2015-08-06T12:42:41Z</time></trkpt>
<trkpt lat="25.606154" lon="100.221334">
<time>2015-08-06T12:42:42Z</time></trkpt>
<trkpt lat="25.606154" lon="100.221334">
<time>2015-08-06T12:42:43Z</time></trkpt>
<trkpt lat="25.606235" lon="100.221865">
<time>2015-08-06T12:42:44Z</time></trkpt>
<trkpt lat="25.606325" lon="100.222405">
<time>2015-08-06T12:42:45Z</time></trkpt>
<trkpt lat="25.606396" lon="100.222736">
<time>2015-08-06T12:42:46Z</time></trkpt>
<trkpt lat="25.606426" lon="100.222886">
<time>2015-08-06T12:42:47Z</time></trkpt>
<trkpt lat="25.606506" lon="100.223256">
<time>2015-08-06T12:42:48Z</time></trkpt>
<trkpt lat="25.606536" lon="100.223396">
<time>2015-08-06T12:42:49Z</time></trkpt>
<trkpt lat="25.606617" lon="100.223807">
<time>2015-08-06T12:42:50Z</time></trkpt>
<trkpt lat="25.606687" lon="100.224107">
<time>2015-08-06T12:42:51Z</time></trkpt>
<trkpt lat="25.606697" lon="100.224147">
<time>2015-08-06T12:42:52Z</time></trkpt>
<trkpt lat="25.606747" lon="100.224477">
<time>2015-08-06T12:42:53Z</time></trkpt>
<trkpt lat="25.606747" lon="100.224477">
<time>2015-08-06T12:42:54Z</time></trkpt>
<trkpt lat="25.605207" lon="100.224597">
<time>2015-08-06T12:42:55Z</time></trkpt>
<trkpt lat="25.605207" lon="100.224597">
<time>2015-08-06T12:42:56Z</time></trkpt>
<trkpt lat="25.605358" lon="100.225638">
<time>2015-08-06T12:42:57Z</time></trkpt>
<trkpt lat="25.605438" lon="100.226279">
<time>2015-08-06T12:42:58Z</time></trkpt>
<trkpt lat="25.605669" lon="100.226359">
<time>2015-08-06T12:42:59Z</time></trkpt>
<trkpt lat="25.605789" lon="100.22725">
<time>2015-08-06T12:43:00Z</time></trkpt>
<trkpt lat="25.605789" lon="100.2273">
<time>2015-08-06T12:43:01Z</time></trkpt>
<trkpt lat="25.605789" lon="100.22733">
<time>2015-08-06T12:43:02Z</time></trkpt>
<trkpt lat="25.605779" lon="100.22736">
<time>2015-08-06T12:43:03Z</time></trkpt>
<trkpt lat="25.6057" lon="100.22761">
<time>2015-08-06T12:43:04Z</time></trkpt>
<trkpt lat="25.6057" lon="100.22761">
<time>2015-08-06T12:43:05Z</time></trkpt>
<trkpt lat="25.60566" lon="100.22762">
<time>2015-08-06T12:43:06Z</time></trkpt>
<trkpt lat="25.60547" lon="100.22766">
<time>2015-08-06T12:43:07Z</time></trkpt>
<trkpt lat="25.6053" lon="100.22773">
<time>2015-08-06T12:43:08Z</time></trkpt>
<trkpt lat="25.60509" lon="100.22788">
<time>2015-08-06T12:43:09Z</time></trkpt>
<trkpt lat="25.60486" lon="100.228081">
<time>2015-08-06T12:43:10Z</time></trkpt>
<trkpt lat="25.60477" lon="100.228151">
<time>2015-08-06T12:43:11Z</time></trkpt>
<trkpt lat="25.60423" lon="100.228671">
<time>2015-08-06T12:43:12Z</time></trkpt>
<trkpt lat="25.60401" lon="100.228891">
<time>2015-08-06T12:43:13Z</time></trkpt>
<trkpt lat="25.6037" lon="100.229182">
<time>2015-08-06T12:43:14Z</time></trkpt>
<trkpt lat="25.60335" lon="100.229512">
<time>2015-08-06T12:43:15Z</time></trkpt>
<trkpt lat="25.60221" lon="100.230503">
<time>2015-08-06T12:43:16Z</time></trkpt>
<trkpt lat="25.60203" lon="100.230663">
<time>2015-08-06T12:43:17Z</time></trkpt>
<trkpt lat="25.60176" lon="100.230883">
<time>2015-08-06T12:43:18Z</time></trkpt>
<trkpt lat="25.60172" lon="100.230923">
<time>2015-08-06T12:43:19Z</time></trkpt>
<trkpt lat="25.60156" lon="100.231043">
<time>2015-08-06T12:43:20Z</time></trkpt>
<trkpt lat="25.60138" lon="100.231133">
<time>2015-08-06T12:43:21Z</time></trkpt>
<trkpt lat="25.60091" lon="100.231283">
<time>2015-08-06T12:43:22Z</time></trkpt>
<trkpt lat="25.60087" lon="100.231293">
<time>2015-08-06T12:43:23Z</time></trkpt>
<trkpt lat="25.60062" lon="100.231353">
<time>2015-08-06T12:43:24Z</time></trkpt>
<trkpt lat="25.59979" lon="100.231373">
<time>2015-08-06T12:43:25Z</time></trkpt>
<trkpt lat="25.59952" lon="100.231383">
<time>2015-08-06T12:43:26Z</time></trkpt>
<trkpt lat="25.599259" lon="100.231433">
<time>2015-08-06T12:43:27Z</time></trkpt>
<trkpt lat="25.599259" lon="100.231433">
<time>2015-08-06T12:43:28Z</time></trkpt>
<trkpt lat="25.59924" lon="100.232664">
<time>2015-08-06T12:43:29Z</time></trkpt>
<trkpt lat="25.599251" lon="100.233335">
<time>2015-08-06T12:43:30Z</time></trkpt>
<trkpt lat="25.599251" lon="100.233465">
<time>2015-08-06T12:43:31Z</time></trkpt>
<trkpt lat="25.599271" lon="100.234915">
<time>2015-08-06T12:43:32Z</time></trkpt>
<trkpt lat="25.599282" lon="100.235916">
<time>2015-08-06T12:43:33Z</time></trkpt>
<trkpt lat="25.599282" lon="100.236256">
<time>2015-08-06T12:43:34Z</time></trkpt>
<trkpt lat="25.599282" lon="100.236256">
<time>2015-08-06T12:43:35Z</time></trkpt>
<trkpt lat="25.599312" lon="100.236346">
<time>2015-08-06T12:43:36Z</time></trkpt>
<trkpt lat="25.599302" lon="100.236666">
<time>2015-08-06T12:43:37Z</time></trkpt>
<trkpt lat="25.599302" lon="100.236756">
<time>2015-08-06T12:43:38Z</time></trkpt>
<trkpt lat="25.599293" lon="100.237387">
<time>2015-08-06T12:43:39Z</time></trkpt>
<trkpt lat="25.599313" lon="100.237647">
<time>2015-08-06T12:43:40Z</time></trkpt>
<trkpt lat="25.599313" lon="100.237647">
<time>2015-08-06T12:43:41Z</time></trkpt>
<trkpt lat="25.599313" lon="100.237707">
<time>2015-08-06T12:43:42Z</time></trkpt>
<trkpt lat="25.599343" lon="100.238027">
<time>2015-08-06T12:43:43Z</time></trkpt>
<trkpt lat="25.599473" lon="100.238797">
<time>2015-08-06T12:43:44Z</time></trkpt>
<trkpt lat="25.599694" lon="100.240138">
<time>2015-08-06T12:43:45Z</time></trkpt>
<trkpt lat="25.599784" lon="100.240668">
<time>2015-08-06T12:43:46Z</time></trkpt>
<trkpt lat="25.599884" lon="100.241198">
<time>2015-08-06T12:43:47Z</time></trkpt>
<trkpt lat="25.599894" lon="100.241288">
<time>2015-08-06T12:43:48Z</time></trkpt>
<trkpt lat="25.600045" lon="100.242088">
<time>2015-08-06T12:43:49Z</time></trkpt>
<trkpt lat="25.600045" lon="100.242098">
<time>2015-08-06T12:43:50Z</time></trkpt>
<trkpt lat="25.600095" lon="100.242378">
<time>2015-08-06T12:43:51Z</time></trkpt>
<trkpt lat="25.600205" lon="100.243009">
<time>2015-08-06T12:43:52Z</time></trkpt>
<trkpt lat="25.600295" lon="100.243489">
<time>2015-08-06T12:43:53Z</time></trkpt>
<trkpt lat="25.600345" lon="100.243769">
<time>2015-08-06T12:43:54Z</time></trkpt>
<trkpt lat="25.600345" lon="100.243779">
<time>2015-08-06T12:43:55Z</time></trkpt>
<trkpt lat="25.600455" lon="100.244499">
<time>2015-08-06T12:43:56Z</time></trkpt>
<trkpt lat="25.600555" lon="100.245159">
<time>2015-08-06T12:43:57Z</time></trkpt>
<trkpt lat="25.600585" lon="100.245369">
<time>2015-08-06T12:43:58Z</time></trkpt>
<trkpt lat="25.600585" lon="100.245369">
<time>2015-08-06T12:43:59Z</time></trkpt>
<trkpt lat="25.600766" lon="100.246129">
<time>2015-08-06T12:44:00Z</time></trkpt>
<trkpt lat="25.600866" lon="100.246399">
<time>2015-08-06T12:44:01Z</time></trkpt>
<trkpt lat="25.601056" lon="100.247049">
<time>2015-08-06T12:44:02Z</time></trkpt>
<trkpt lat="25.601256" lon="100.247699">
<time>2015-08-06T12:44:03Z</time></trkpt>
<trkpt lat="25.601326" lon="100.247919">
<time>2015-08-06T12:44:04Z</time></trkpt>
<trkpt lat="25.601486" lon="100.248459">
<time>2015-08-06T12:44:05Z</time></trkpt>
<trkpt lat="25.601506" lon="100.248519">
<time>2015-08-06T12:44:06Z</time></trkpt>
<trkpt lat="25.601936" lon="100.250019">
<time>2015-08-06T12:44:07Z</time></trkpt>
<trkpt lat="25.602306" lon="100.251129">
<time>2015-08-06T12:44:08Z</time></trkpt>
<trkpt lat="25.602426" lon="100.251489">
<time>2015-08-06T12:44:09Z</time></trkpt>
<trkpt lat="25.602596" lon="100.252029">
<time>2015-08-06T12:44:10Z</time></trkpt>
<trkpt lat="25.602656" lon="100.252249">
<time>2015-08-06T12:44:11Z</time></trkpt>
<trkpt lat="25.602726" lon="100.252459">
<time>2015-08-06T12:44:12Z</time></trkpt>
<trkpt lat="25.602906" lon="100.253049">
<time>2015-08-06T12:44:13Z</time></trkpt>
<trkpt lat="25.602966" lon="100.253228">
<time>2015-08-06T12:44:14Z</time></trkpt>
<trkpt lat="25.603066" lon="100.253558">
<time>2015-08-06T12:44:15Z</time></trkpt>
<trkpt lat="25.603226" lon="100.254038">
<time>2015-08-06T12:44:16Z</time></trkpt>
<trkpt lat="25.603546" lon="100.255038">
<time>2015-08-06T12:44:17Z</time></trkpt>
<trkpt lat="25.603566" lon="100.255098">
<time>2015-08-06T12:44:18Z</time></trkpt>
<trkpt lat="25.603566" lon="100.255098">
<time>2015-08-06T12:44:19Z</time></trkpt>
<trkpt lat="25.603666" lon="100.255268">
<time>2015-08-06T12:44:20Z</time></trkpt>
<trkpt lat="25.603836" lon="100.255538">
<time>2015-08-06T12:44:21Z</time></trkpt>
<trkpt lat="25.604326" lon="100.256298">
<time>2015-08-06T12:44:22Z</time></trkpt>
<trkpt lat="25.605016" lon="100.256987">
<time>2015-08-06T12:44:23Z</time></trkpt>
<trkpt lat="25.605926" lon="100.257697">
<time>2015-08-06T12:44:24Z</time></trkpt>
<trkpt lat="25.606847" lon="100.258287">
<time>2015-08-06T12:44:25Z</time></trkpt>
<trkpt lat="25.606907" lon="100.258337">
<time>2015-08-06T12:44:26Z</time></trkpt>
<trkpt lat="25.606977" lon="100.258387">
<time>2015-08-06T12:44:27Z</time></trkpt>
<trkpt lat="25.607557" lon="100.258836">
<time>2015-08-06T12:44:28Z</time></trkpt>
<trkpt lat="25.607927" lon="100.259176">
<time>2015-08-06T12:44:29Z</time></trkpt>
<trkpt lat="25.607927" lon="100.259176">
<time>2015-08-06T12:44:30Z</time></trkpt>
<trkpt lat="25.607917" lon="100.259226">
<time>2015-08-06T12:44:31Z</time></trkpt>
<trkpt lat="25.607917" lon="100.259246">
<time>2015-08-06T12:44:32Z</time></trkpt>
<trkpt lat="25.607867" lon="100.259386">
<time>2015-08-06T12:44:33Z</time></trkpt>
<trkpt lat="25.607847" lon="100.259426">
<time>2015-08-06T12:44:34Z</time></trkpt>
<trkpt lat="25.607827" lon="100.259486">
<time>2015-08-06T12:44:35Z</time></trkpt>
<trkpt lat="25.607807" lon="100.259556">
<time>2015-08-06T12:44:36Z</time></trkpt>
<trkpt lat="25.607797" lon="100.259626">
<time>2015-08-06T12:44:37Z</time></trkpt>
<trkpt lat="25.607797" lon="100.259696">
<time>2015-08-06T12:44:38Z</time></trkpt>
<trkpt lat="25.607806" lon="100.259786">
<time>2015-08-06T12:44:39Z</time></trkpt>
<trkpt lat="25.607816" lon="100.259886">
<time>2015-08-06T12:44:40Z</time></trkpt>
<trkpt lat="25.607836" lon="100.259956">
<time>2015-08-06T12:44:41Z</time></trkpt>
<trkpt lat="25.607866" lon="100.260026">
<time>2015-08-06T12:44:42Z</time></trkpt>
<trkpt lat="25.607946" lon="100.260226">
<time>2015-08-06T12:44:43Z</time></trkpt>
<trkpt lat="25.608046" lon="100.260506">
<time>2015-08-06T12:44:44Z</time></trkpt>
<trkpt lat="25.608076" lon="100.260616">
<time>2015-08-06T12:44:45Z</time></trkpt>
<trkpt lat="25.608106" lon="100.260746">
<time>2015-08-06T12:44:46Z</time></trkpt>
<trkpt lat="25.608106" lon="100.260885">
<time>2015-08-06T12:44:47Z</time></trkpt>
<trkpt lat="25.608096" lon="100.261015">
<time>2015-08-06T12:44:48Z</time></trkpt>
<trkpt lat="25.608076" lon="100.261145">
<time>2015-08-06T12:44:49Z</time></trkpt>
<trkpt lat="25.608036" lon="100.261275">
<time>2015-08-06T12:44:50Z</time></trkpt>
<trkpt lat="25.607996" lon="100.261395">
<time>2015-08-06T12:44:51Z</time></trkpt>
<trkpt lat="25.607966" lon="100.261495">
<time>2015-08-06T12:44:52Z</time></trkpt>
<trkpt lat="25.607946" lon="100.261585">
<time>2015-08-06T12:44:53Z</time></trkpt>
<trkpt lat="25.607916" lon="100.261715">
<time>2015-08-06T12:44:54Z</time></trkpt>
<trkpt lat="25.607916" lon="100.261805">
<time>2015-08-06T12:44:55Z</time></trkpt>
<trkpt lat="25.607916" lon="100.261885">
<time>2015-08-06T12:44:56Z</time></trkpt>
<trkpt lat="25.607916" lon="100.261985">
<time>2015-08-06T12:44:57Z</time></trkpt>
<trkpt lat="25.607925" lon="100.262075">
<time>2015-08-06T12:44:58Z</time></trkpt>
<trkpt lat="25.607945" lon="100.262215">
<time>2015-08-06T12:44:59Z</time></trkpt>
<trkpt lat="25.607965" lon="100.262285">
<time>2015-08-06T12:45:00Z</time></trkpt>
<trkpt lat="25.607975" lon="100.262315">
<time>2015-08-06T12:45:01Z</time></trkpt>
<trkpt lat="25.608275" lon="100.263084">
<time>2015-08-06T12:45:02Z</time></trkpt>
<trkpt lat="25.608275" lon="100.263084">
<time>2015-08-06T12:45:03Z</time></trkpt>
<trkpt lat="25.608575" lon="100.262944">
<time>2015-08-06T12:45:04Z</time></trkpt>
<trkpt lat="25.609096" lon="100.262714">
<time>2015-08-06T12:45:05Z</time></trkpt>
<trkpt lat="25.609126" lon="100.262704">
<time>2015-08-06T12:45:06Z</time></trkpt>
<trkpt lat="25.609166" lon="100.262694">
<time>2015-08-06T12:45:07Z</time></trkpt>
<trkpt lat="25.609196" lon="100.262684">
<time>2015-08-06T12:45:08Z</time></trkpt>
<trkpt lat="25.609216" lon="100.262684">
<time>2015-08-06T12:45:09Z</time></trkpt>
<trkpt lat="25.609236" lon="100.262684">
<time>2015-08-06T12:45:10Z</time></trkpt>
<trkpt lat="25.609256" lon="100.262684">
<time>2015-08-06T12:45:11Z</time></trkpt>
<trkpt lat="25.609266" lon="100.262684">
<time>2015-08-06T12:45:12Z</time></trkpt>
<trkpt lat="25.609286" lon="100.262684">
<time>2015-08-06T12:45:13Z</time></trkpt>
<trkpt lat="25.609316" lon="100.262694">
<time>2015-08-06T12:45:14Z</time></trkpt>
<trkpt lat="25.609336" lon="100.262704">
<time>2015-08-06T12:45:15Z</time></trkpt>
<trkpt lat="25.609356" lon="100.262714">
<time>2015-08-06T12:45:16Z</time></trkpt>
<trkpt lat="25.609376" lon="100.262714">
<time>2015-08-06T12:45:17Z</time></trkpt>
<trkpt lat="25.609386" lon="100.262724">
<time>2015-08-06T12:45:18Z</time></trkpt>
<trkpt lat="25.609396" lon="100.262734">
<time>2015-08-06T12:45:19Z</time></trkpt>
<trkpt lat="25.609406" lon="100.262744">
<time>2015-08-06T12:45:20Z</time></trkpt>
<trkpt lat="25.609416" lon="100.262744">
<time>2015-08-06T12:45:21Z</time></trkpt>
<trkpt lat="25.609436" lon="100.262764">
<time>2015-08-06T12:45:22Z</time></trkpt>
<trkpt lat="25.609446" lon="100.262774">
<time>2015-08-06T12:45:23Z</time></trkpt>
<trkpt lat="25.609456" lon="100.262794">
<time>2015-08-06T12:45:24Z</time></trkpt>
<trkpt lat="25.609476" lon="100.262814">
<time>2015-08-06T12:45:25Z</time></trkpt>
<trkpt lat="25.609486" lon="100.262834">
<time>2015-08-06T12:45:26Z</time></trkpt>
<trkpt lat="25.609496" lon="100.262854">
<time>2015-08-06T12:45:27Z</time></trkpt>
<trkpt lat="25.609506" lon="100.262864">
<time>2015-08-06T12:45:28Z</time></trkpt>
<trkpt lat="25.609506" lon="100.262894">
<time>2015-08-06T12:45:29Z</time></trkpt>
<trkpt lat="25.609516" lon="100.262914">
<time>2015-08-06T12:45:30Z</time></trkpt>
<trkpt lat="25.609855" lon="100.263864">
<time>2015-08-06T12:45:31Z</time></trkpt>
<trkpt lat="25.609985" lon="100.264223">
<time>2015-08-06T12:45:32Z</time></trkpt>
<trkpt lat="25.610225" lon="100.264913">
<time>2015-08-06T12:45:33Z</time></trkpt>
<trkpt lat="25.610275" lon="100.265063">
<time>2015-08-06T12:45:34Z</time></trkpt>
<trkpt lat="25.610285" lon="100.265133">
<time>2015-08-06T12:45:35Z</time></trkpt>
<trkpt lat="25.610295" lon="100.265183">
<time>2015-08-06T12:45:36Z</time></trkpt>
<trkpt lat="25.610295" lon="100.265183">
<time>2015-08-06T12:45:37Z</time></trkpt>
<trkpt lat="25.610245" lon="100.265173">
<time>2015-08-06T12:45:38Z</time></trkpt>
<trkpt lat="25.610225" lon="100.265173">
<time>2015-08-06T12:45:39Z</time></trkpt>
<trkpt lat="25.610215" lon="100.265173">
<time>2015-08-06T12:45:40Z</time></trkpt>
<trkpt lat="25.610205" lon="100.265173">
<time>2015-08-06T12:45:41Z</time></trkpt>
<trkpt lat="25.610195" lon="100.265173">
<time>2015-08-06T12:45:42Z</time></trkpt>
<trkpt lat="25.610185" lon="100.265173">
<time>2015-08-06T12:45:43Z</time></trkpt>
<trkpt lat="25.610175" lon="100.265173">
<time>2015-08-06T12:45:44Z</time></trkpt>
<trkpt lat="25.610165" lon="100.265173">
<time>2015-08-06T12:45:45Z</time></trkpt>
<trkpt lat="25.610155" lon="100.265183">
<time>2015-08-06T12:45:46Z</time></trkpt>
<trkpt lat="25.610125" lon="100.265193">
<time>2015-08-06T12:45:47Z</time></trkpt>
<trkpt lat="25.610025" lon="100.265233">
<time>2015-08-06T12:45:48Z</time></trkpt>
<trkpt lat="25.609985" lon="100.265243">
<time>2015-08-06T12:45:49Z</time></trkpt>
<trkpt lat="25.609955" lon="100.265253">
<time>2015-08-06T12:45:50Z</time></trkpt>
<trkpt lat="25.609925" lon="100.265263">
<time>2015-08-06T12:45:51Z</time></trkpt>
<trkpt lat="25.609875" lon="100.265263">
<time>2015-08-06T12:45:52Z</time></trkpt>
<trkpt lat="25.609835" lon="100.265263">
<time>2015-08-06T12:45:53Z</time></trkpt>
<trkpt lat="25.609724" lon="100.265293">
<time>2015-08-06T12:45:54Z</time></trkpt>
<trkpt lat="25.609634" lon="100.265323">
<time>2015-08-06T12:45:55Z</time></trkpt>
<trkpt lat="25.609634" lon="100.265323">
<time>2015-08-06T12:45:56Z</time></trkpt>
<trkpt lat="25.609674" lon="100.265542">
<time>2015-08-06T12:45:57Z</time></trkpt>
<trkpt lat="25.609684" lon="100.265562">
<time>2015-08-06T12:45:58Z</time></trkpt>
<trkpt lat="25.609694" lon="100.265612">
<time>2015-08-06T12:45:59Z</time></trkpt>
<trkpt lat="25.609704" lon="100.265652">
<time>2015-08-06T12:46:00Z</time></trkpt>
<trkpt lat="25.609704" lon="100.265672">
<time>2015-08-06T12:46:01Z</time></trkpt>
<trkpt lat="25.609714" lon="100.265702">
<time>2015-08-06T12:46:02Z</time></trkpt>
<trkpt lat="25.609704" lon="100.265722">
<time>2015-08-06T12:46:03Z</time></trkpt>
<trkpt lat="25.609704" lon="100.265752">
<time>2015-08-06T12:46:04Z</time></trkpt>
<trkpt lat="25.609694" lon="100.265782">
<time>2015-08-06T12:46:05Z</time></trkpt>
<trkpt lat="25.609694" lon="100.265802">
<time>2015-08-06T12:46:06Z</time></trkpt>
<trkpt lat="25.609674" lon="100.265842">
<time>2015-08-06T12:46:07Z</time></trkpt>
<trkpt lat="25.609654" lon="100.265882">
<time>2015-08-06T12:46:08Z</time></trkpt>
<trkpt lat="25.609624" lon="100.265942">
<time>2015-08-06T12:46:09Z</time></trkpt>
<trkpt lat="25.609584" lon="100.266032">
<time>2015-08-06T12:46:10Z</time></trkpt>
<trkpt lat="25.609564" lon="100.266082">
<time>2015-08-06T12:46:11Z</time></trkpt>
<trkpt lat="25.609534" lon="100.266152">
<time>2015-08-06T12:46:12Z</time></trkpt>
<trkpt lat="25.609474" lon="100.266272">
<time>2015-08-06T12:46:13Z</time></trkpt>
<trkpt lat="25.609424" lon="100.266382">
<time>2015-08-06T12:46:14Z</time></trkpt>
<trkpt lat="25.609384" lon="100.266442">
<time>2015-08-06T12:46:15Z</time></trkpt></trkseg></trk></gpx>